<?xml version='1.0' encoding='UTF-8'?><gpx version="1.1" creator="JPX - https://github.com/jenetics/jpx" xmlns="http://www.topografix.com/GPX/1/1"><trk><trkseg><trkpt lat="45.6153837" lon="11.3782559"><ele>216.0</ele><time>2026-04-04T05:52:15.12Z</time></trkpt><trkpt lat="45.6153268" lon="11.378298"><ele>216.0</ele><time>2026-04-04T05:52:17.12Z</time></trkpt><trkpt lat="45.6152433" lon="11.3783201"><ele>216.0</ele><time>2026-04-04T05:52:20.12Z</time></trkpt><trkpt lat="45.615177" lon="11.3782951"><ele>216.0</ele><time>2026-04-04T05:52:22.121Z</time></trkpt><trkpt lat="45.6150909" lon="11.3782909"><ele>216.0</ele><time>2026-04-04T05:52:24.12Z</time></trkpt><trkpt lat="45.614989" lon="11.3783327"><ele>216.0</ele><time>2026-04-04T05:52:26.119Z</time></trkpt><trkpt lat="45.614881" lon="11.3784013"><ele>214.14285714285714</ele><time>2026-04-04T05:52:28.12Z</time></trkpt><trkpt lat="45.6148239" lon="11.3784409"><ele>212.28571428571428</ele><time>2026-04-04T05:52:29.12Z</time></trkpt><trkpt lat="45.6147652" lon="11.3784841"><ele>210.42857142857144</ele><time>2026-04-04T05:52:30.119Z</time></trkpt><trkpt lat="45.6147016" lon="11.3785262"><ele>208.57142857142856</ele><time>2026-04-04T05:52:31.12Z</time></trkpt><trkpt lat="45.6146349" lon="11.3785744"><ele>206.71428571428572</ele><time>2026-04-04T05:52:32.121Z</time></trkpt><trkpt lat="45.6145669" lon="11.3786202"><ele>204.85714285714286</ele><time>2026-04-04T05:52:33.121Z</time></trkpt><trkpt lat="45.6145003" lon="11.3786616"><ele>203.0</ele><time>2026-04-04T05:52:34.12Z</time></trkpt><trkpt lat="45.6144344" lon="11.3787016"><ele>200.71428571428572</ele><time>2026-04-04T05:52:35.12Z</time></trkpt><trkpt lat="45.6143708" lon="11.3787461"><ele>198.42857142857144</ele><time>2026-04-04T05:52:36.12Z</time></trkpt><trkpt lat="45.614308" lon="11.378789"><ele>196.14285714285714</ele><time>2026-04-04T05:52:37.119Z</time></trkpt><trkpt lat="45.6142416" lon="11.3788332"><ele>193.85714285714286</ele><time>2026-04-04T05:52:38.119Z</time></trkpt><trkpt lat="45.6141746" lon="11.3788747"><ele>191.57142857142858</ele><time>2026-04-04T05:52:39.119Z</time></trkpt><trkpt lat="45.6141094" lon="11.3789185"><ele>189.28571428571428</ele><time>2026-04-04T05:52:40.12Z</time></trkpt><trkpt lat="45.6140452" lon="11.3789713"><ele>187.0</ele><time>2026-04-04T05:52:41.12Z</time></trkpt><trkpt lat="45.6139832" lon="11.3790347"><ele>186.33333333333334</ele><time>2026-04-04T05:52:42.12Z</time></trkpt><trkpt lat="45.613927" lon="11.3791062"><ele>185.66666666666669</ele><time>2026-04-04T05:52:43.12Z</time></trkpt><trkpt lat="45.6138712" lon="11.3791907"><ele>185.0</ele><time>2026-04-04T05:52:44.121Z</time></trkpt><trkpt lat="45.6138206" lon="11.3792958"><ele>184.33333333333334</ele><time>2026-04-04T05:52:45.121Z</time></trkpt><trkpt lat="45.6137704" lon="11.3794148"><ele>183.66666666666666</ele><time>2026-04-04T05:52:46.119Z</time></trkpt><trkpt lat="45.6137213" lon="11.3795433"><ele>183.0</ele><time>2026-04-04T05:52:47.12Z</time></trkpt><trkpt lat="45.6136831" lon="11.3796695"><ele>181.5</ele><time>2026-04-04T05:52:48.12Z</time></trkpt><trkpt lat="45.6136505" lon="11.3797852"><ele>180.0</ele><time>2026-04-04T05:52:49.119Z</time></trkpt><trkpt lat="45.6136178" lon="11.3798916"><ele>178.5</ele><time>2026-04-04T05:52:50.119Z</time></trkpt><trkpt lat="45.6135882" lon="11.3799827"><ele>177.0</ele><time>2026-04-04T05:52:51.121Z</time></trkpt><trkpt lat="45.6135613" lon="11.3800724"><ele>175.5</ele><time>2026-04-04T05:52:52.12Z</time></trkpt><trkpt lat="45.6135198" lon="11.3802126"><ele>174.0</ele><time>2026-04-04T05:52:54.119Z</time></trkpt><trkpt lat="45.6134899" lon="11.3803113"><ele>174.0</ele><time>2026-04-04T05:52:57.121Z</time></trkpt><trkpt lat="45.6134974" lon="11.3804073"><ele>174.0</ele><time>2026-04-04T05:53:17.12Z</time></trkpt><trkpt lat="45.6136155" lon="11.3804689"><ele>174.0</ele><time>2026-04-04T05:53:19.119Z</time></trkpt><trkpt lat="45.6137009" lon="11.3804919"><ele>174.0</ele><time>2026-04-04T05:53:20.12Z</time></trkpt><trkpt lat="45.6138014" lon="11.3805147"><ele>174.0</ele><time>2026-04-04T05:53:21.121Z</time></trkpt><trkpt lat="45.6139122" lon="11.3805323"><ele>173.5</ele><time>2026-04-04T05:53:22.12Z</time></trkpt><trkpt lat="45.6140352" lon="11.3805561"><ele>173.0</ele><time>2026-04-04T05:53:23.12Z</time></trkpt><trkpt lat="45.6141686" lon="11.3805857"><ele>172.5</ele><time>2026-04-04T05:53:24.121Z</time></trkpt><trkpt lat="45.6143078" lon="11.3806231"><ele>172.0</ele><time>2026-04-04T05:53:25.121Z</time></trkpt><trkpt lat="45.6144548" lon="11.380667"><ele>173.66666666666669</ele><time>2026-04-04T05:53:26.12Z</time></trkpt><trkpt lat="45.6146065" lon="11.3807272"><ele>175.33333333333334</ele><time>2026-04-04T05:53:27.119Z</time></trkpt><trkpt lat="45.6147649" lon="11.3808003"><ele>177.0</ele><time>2026-04-04T05:53:28.12Z</time></trkpt><trkpt lat="45.6149259" lon="11.3808923"><ele>177.0</ele><time>2026-04-04T05:53:29.121Z</time></trkpt><trkpt lat="45.6150874" lon="11.3810117"><ele>177.0</ele><time>2026-04-04T05:53:30.119Z</time></trkpt><trkpt lat="45.6152453" lon="11.3811412"><ele>177.0</ele><time>2026-04-04T05:53:31.121Z</time></trkpt><trkpt lat="45.6154065" lon="11.3812773"><ele>177.33333333333334</ele><time>2026-04-04T05:53:32.12Z</time></trkpt><trkpt lat="45.6155715" lon="11.3814169"><ele>177.66666666666669</ele><time>2026-04-04T05:53:33.119Z</time></trkpt><trkpt lat="45.6157425" lon="11.381556"><ele>178.0</ele><time>2026-04-04T05:53:34.121Z</time></trkpt><trkpt lat="45.6159248" lon="11.3816837"><ele>178.0</ele><time>2026-04-04T05:53:35.119Z</time></trkpt><trkpt lat="45.6161151" lon="11.3818002"><ele>178.0</ele><time>2026-04-04T05:53:36.121Z</time></trkpt><trkpt lat="45.616316" lon="11.3819022"><ele>178.0</ele><time>2026-04-04T05:53:37.12Z</time></trkpt><trkpt lat="45.6165244" lon="11.3819828"><ele>180.66666666666669</ele><time>2026-04-04T05:53:38.121Z</time></trkpt><trkpt lat="45.6167343" lon="11.3820464"><ele>183.33333333333334</ele><time>2026-04-04T05:53:39.122Z</time></trkpt><trkpt lat="45.6169513" lon="11.382086"><ele>186.0</ele><time>2026-04-04T05:53:40.12Z</time></trkpt><trkpt lat="45.6171717" lon="11.3820972"><ele>187.5</ele><time>2026-04-04T05:53:41.122Z</time></trkpt><trkpt lat="45.6173965" lon="11.3820856"><ele>189.0</ele><time>2026-04-04T05:53:42.119Z</time></trkpt><trkpt lat="45.617624" lon="11.3820544"><ele>193.0</ele><time>2026-04-04T05:53:43.119Z</time></trkpt><trkpt lat="45.6178585" lon="11.3820146"><ele>197.0</ele><time>2026-04-04T05:53:44.119Z</time></trkpt><trkpt lat="45.6180966" lon="11.3819758"><ele>197.0</ele><time>2026-04-04T05:53:45.121Z</time></trkpt><trkpt lat="45.618343" lon="11.3819411"><ele>197.0</ele><time>2026-04-04T05:53:46.12Z</time></trkpt><trkpt lat="45.6185938" lon="11.3819161"><ele>199.0</ele><time>2026-04-04T05:53:47.119Z</time></trkpt><trkpt lat="45.6188415" lon="11.3819141"><ele>201.0</ele><time>2026-04-04T05:53:48.12Z</time></trkpt><trkpt lat="45.6190877" lon="11.3819258"><ele>201.0</ele><time>2026-04-04T05:53:49.121Z</time></trkpt><trkpt lat="45.6193376" lon="11.3819471"><ele>201.0</ele><time>2026-04-04T05:53:50.121Z</time></trkpt><trkpt lat="45.6195919" lon="11.3819649"><ele>205.0</ele><time>2026-04-04T05:53:51.121Z</time></trkpt><trkpt lat="45.6198387" lon="11.3819726"><ele>209.0</ele><time>2026-04-04T05:53:52.12Z</time></trkpt><trkpt lat="45.6200788" lon="11.3819514"><ele>209.0</ele><time>2026-04-04T05:53:53.121Z</time></trkpt><trkpt lat="45.6203094" lon="11.3818942"><ele>209.0</ele><time>2026-04-04T05:53:54.121Z</time></trkpt><trkpt lat="45.6205358" lon="11.3818016"><ele>207.5</ele><time>2026-04-04T05:53:55.121Z</time></trkpt><trkpt lat="45.6207537" lon="11.3816688"><ele>206.0</ele><time>2026-04-04T05:53:56.121Z</time></trkpt><trkpt lat="45.620962" lon="11.3815045"><ele>210.0</ele><time>2026-04-04T05:53:57.121Z</time></trkpt><trkpt lat="45.6211665" lon="11.3813135"><ele>214.0</ele><time>2026-04-04T05:53:58.12Z</time></trkpt><trkpt lat="45.6213602" lon="11.3810937"><ele>214.0</ele><time>2026-04-04T05:53:59.121Z</time></trkpt><trkpt lat="45.6215421" lon="11.3808493"><ele>214.0</ele><time>2026-04-04T05:54:00.121Z</time></trkpt><trkpt lat="45.6217088" lon="11.3805893"><ele>214.0</ele><time>2026-04-04T05:54:01.119Z</time></trkpt><trkpt lat="45.6218695" lon="11.3803227"><ele>214.0</ele><time>2026-04-04T05:54:02.12Z</time></trkpt><trkpt lat="45.6220254" lon="11.3800591"><ele>214.0</ele><time>2026-04-04T05:54:03.12Z</time></trkpt><trkpt lat="45.6221737" lon="11.3798044"><ele>214.0</ele><time>2026-04-04T05:54:04.121Z</time></trkpt><trkpt lat="45.6223297" lon="11.379555"><ele>222.5</ele><time>2026-04-04T05:54:05.121Z</time></trkpt><trkpt lat="45.6224972" lon="11.3793192"><ele>231.0</ele><time>2026-04-04T05:54:06.12Z</time></trkpt><trkpt lat="45.6226814" lon="11.3791048"><ele>224.5</ele><time>2026-04-04T05:54:07.119Z</time></trkpt><trkpt lat="45.6228821" lon="11.3789237"><ele>218.0</ele><time>2026-04-04T05:54:08.121Z</time></trkpt><trkpt lat="45.6230988" lon="11.3787789"><ele>232.5</ele><time>2026-04-04T05:54:09.119Z</time></trkpt><trkpt lat="45.6233264" lon="11.3786676"><ele>247.0</ele><time>2026-04-04T05:54:10.12Z</time></trkpt><trkpt lat="45.6235462" lon="11.3785463"><ele>239.0</ele><time>2026-04-04T05:54:11.12Z</time></trkpt><trkpt lat="45.6237605" lon="11.3783852"><ele>231.0</ele><time>2026-04-04T05:54:12.119Z</time></trkpt><trkpt lat="45.6239591" lon="11.3781995"><ele>242.0</ele><time>2026-04-04T05:54:13.12Z</time></trkpt><trkpt lat="45.6241442" lon="11.3779822"><ele>253.0</ele><time>2026-04-04T05:54:14.121Z</time></trkpt><trkpt lat="45.624331" lon="11.3777485"><ele>241.0</ele><time>2026-04-04T05:54:15.121Z</time></trkpt><trkpt lat="45.6245281" lon="11.3775399"><ele>229.0</ele><time>2026-04-04T05:54:16.121Z</time></trkpt><trkpt lat="45.6247456" lon="11.377364"><ele>229.0</ele><time>2026-04-04T05:54:17.12Z</time></trkpt><trkpt lat="45.6249838" lon="11.3772214"><ele>229.0</ele><time>2026-04-04T05:54:18.121Z</time></trkpt><trkpt lat="45.6252307" lon="11.3771103"><ele>234.0</ele><time>2026-04-04T05:54:19.121Z</time></trkpt><trkpt lat="45.6254865" lon="11.3770289"><ele>239.0</ele><time>2026-04-04T05:54:20.121Z</time></trkpt><trkpt lat="45.6257466" lon="11.3769502"><ele>239.0</ele><time>2026-04-04T05:54:21.121Z</time></trkpt><trkpt lat="45.6259994" lon="11.3768695"><ele>239.0</ele><time>2026-04-04T05:54:22.12Z</time></trkpt><trkpt lat="45.6262494" lon="11.3767865"><ele>238.5</ele><time>2026-04-04T05:54:23.12Z</time></trkpt><trkpt lat="45.6264932" lon="11.376705"><ele>238.0</ele><time>2026-04-04T05:54:24.121Z</time></trkpt><trkpt lat="45.6267328" lon="11.376624"><ele>238.0</ele><time>2026-04-04T05:54:25.121Z</time></trkpt><trkpt lat="45.6269724" lon="11.3765392"><ele>238.0</ele><time>2026-04-04T05:54:26.121Z</time></trkpt><trkpt lat="45.6272086" lon="11.3764465"><ele>242.5</ele><time>2026-04-04T05:54:27.12Z</time></trkpt><trkpt lat="45.6274421" lon="11.376335"><ele>247.0</ele><time>2026-04-04T05:54:28.12Z</time></trkpt><trkpt lat="45.627675" lon="11.3762141"><ele>245.5</ele><time>2026-04-04T05:54:29.12Z</time></trkpt><trkpt lat="45.6279064" lon="11.3760864"><ele>244.0</ele><time>2026-04-04T05:54:30.121Z</time></trkpt><trkpt lat="45.6281361" lon="11.3759477"><ele>244.0</ele><time>2026-04-04T05:54:31.119Z</time></trkpt><trkpt lat="45.6283672" lon="11.3758019"><ele>244.0</ele><time>2026-04-04T05:54:32.12Z</time></trkpt><trkpt lat="45.6285906" lon="11.375652"><ele>244.5</ele><time>2026-04-04T05:54:33.121Z</time></trkpt><trkpt lat="45.6288123" lon="11.3754935"><ele>245.0</ele><time>2026-04-04T05:54:34.121Z</time></trkpt><trkpt lat="45.6290338" lon="11.3753361"><ele>245.0</ele><time>2026-04-04T05:54:35.121Z</time></trkpt><trkpt lat="45.6292585" lon="11.3751872"><ele>245.0</ele><time>2026-04-04T05:54:36.12Z</time></trkpt><trkpt lat="45.6294774" lon="11.375036"><ele>246.5</ele><time>2026-04-04T05:54:37.12Z</time></trkpt><trkpt lat="45.6296963" lon="11.3748795"><ele>248.0</ele><time>2026-04-04T05:54:38.12Z</time></trkpt><trkpt lat="45.6299131" lon="11.3747121"><ele>247.0</ele><time>2026-04-04T05:54:39.12Z</time></trkpt><trkpt lat="45.6301207" lon="11.3745306"><ele>246.0</ele><time>2026-04-04T05:54:40.121Z</time></trkpt><trkpt lat="45.630319" lon="11.3743355"><ele>246.0</ele><time>2026-04-04T05:54:41.12Z</time></trkpt><trkpt lat="45.6305038" lon="11.3741266"><ele>246.0</ele><time>2026-04-04T05:54:42.12Z</time></trkpt><trkpt lat="45.6306863" lon="11.3739066"><ele>249.5</ele><time>2026-04-04T05:54:43.121Z</time></trkpt><trkpt lat="45.6308676" lon="11.3736953"><ele>253.0</ele><time>2026-04-04T05:54:44.12Z</time></trkpt><trkpt lat="45.6310382" lon="11.3734928"><ele>252.0</ele><time>2026-04-04T05:54:45.121Z</time></trkpt><trkpt lat="45.6312" lon="11.3733049"><ele>251.0</ele><time>2026-04-04T05:54:46.121Z</time></trkpt><trkpt lat="45.6313529" lon="11.3731341"><ele>250.0</ele><time>2026-04-04T05:54:47.121Z</time></trkpt><trkpt lat="45.6314873" lon="11.3729814"><ele>250.0</ele><time>2026-04-04T05:54:48.119Z</time></trkpt><trkpt lat="45.6316017" lon="11.3728505"><ele>250.0</ele><time>2026-04-04T05:54:49.119Z</time></trkpt><trkpt lat="45.631705" lon="11.3727392"><ele>250.0</ele><time>2026-04-04T05:54:50.121Z</time></trkpt><trkpt lat="45.6318074" lon="11.3726485"><ele>250.0</ele><time>2026-04-04T05:54:51.119Z</time></trkpt><trkpt lat="45.6319117" lon="11.3725779"><ele>250.25</ele><time>2026-04-04T05:54:52.122Z</time></trkpt><trkpt lat="45.6320214" lon="11.3725224"><ele>250.5</ele><time>2026-04-04T05:54:53.12Z</time></trkpt><trkpt lat="45.632133" lon="11.3724938"><ele>250.75</ele><time>2026-04-04T05:54:54.12Z</time></trkpt><trkpt lat="45.6322465" lon="11.3724934"><ele>251.0</ele><time>2026-04-04T05:54:55.121Z</time></trkpt><trkpt lat="45.6323562" lon="11.37251"><ele>251.0</ele><time>2026-04-04T05:54:56.122Z</time></trkpt><trkpt lat="45.6324966" lon="11.372574"><ele>251.0</ele><time>2026-04-04T05:54:57.121Z</time></trkpt><trkpt lat="45.6326466" lon="11.372639"><ele>251.0</ele><time>2026-04-04T05:54:58.12Z</time></trkpt><trkpt lat="45.6328083" lon="11.3727328"><ele>252.0</ele><time>2026-04-04T05:54:59.119Z</time></trkpt><trkpt lat="45.6329727" lon="11.3728549"><ele>253.0</ele><time>2026-04-04T05:55:00.121Z</time></trkpt><trkpt lat="45.6331394" lon="11.3729677"><ele>254.0</ele><time>2026-04-04T05:55:01.121Z</time></trkpt><trkpt lat="45.6333002" lon="11.3730698"><ele>254.0</ele><time>2026-04-04T05:55:02.119Z</time></trkpt><trkpt lat="45.6334616" lon="11.3731715"><ele>254.0</ele><time>2026-04-04T05:55:03.12Z</time></trkpt><trkpt lat="45.6336179" lon="11.3732639"><ele>254.0</ele><time>2026-04-04T05:55:04.121Z</time></trkpt><trkpt lat="45.633776" lon="11.3733468"><ele>255.66666666666669</ele><time>2026-04-04T05:55:05.12Z</time></trkpt><trkpt lat="45.6339345" lon="11.3734367"><ele>257.3333333333333</ele><time>2026-04-04T05:55:06.12Z</time></trkpt><trkpt lat="45.6340955" lon="11.3735239"><ele>259.0</ele><time>2026-04-04T05:55:07.121Z</time></trkpt><trkpt lat="45.6342551" lon="11.3736072"><ele>259.0</ele><time>2026-04-04T05:55:08.12Z</time></trkpt><trkpt lat="45.6344112" lon="11.3736873"><ele>259.0</ele><time>2026-04-04T05:55:09.121Z</time></trkpt><trkpt lat="45.6345853" lon="11.3737109"><ele>259.0</ele><time>2026-04-04T05:55:10.12Z</time></trkpt><trkpt lat="45.6347287" lon="11.3736991"><ele>254.33333333333331</ele><time>2026-04-04T05:55:11.121Z</time></trkpt><trkpt lat="45.6348822" lon="11.3736733"><ele>249.66666666666669</ele><time>2026-04-04T05:55:12.12Z</time></trkpt><trkpt lat="45.6350291" lon="11.373633"><ele>245.0</ele><time>2026-04-04T05:55:13.12Z</time></trkpt><trkpt lat="45.6351766" lon="11.3736229"><ele>247.25</ele><time>2026-04-04T05:55:14.12Z</time></trkpt><trkpt lat="45.6353199" lon="11.3736531"><ele>249.5</ele><time>2026-04-04T05:55:15.12Z</time></trkpt><trkpt lat="45.6354613" lon="11.3737209"><ele>251.75</ele><time>2026-04-04T05:55:16.119Z</time></trkpt><trkpt lat="45.6355998" lon="11.37381"><ele>254.0</ele><time>2026-04-04T05:55:17.12Z</time></trkpt><trkpt lat="45.6357344" lon="11.3739122"><ele>254.0</ele><time>2026-04-04T05:55:18.12Z</time></trkpt><trkpt lat="45.6358683" lon="11.3740044"><ele>254.0</ele><time>2026-04-04T05:55:19.12Z</time></trkpt><trkpt lat="45.6359952" lon="11.3740857"><ele>254.0</ele><time>2026-04-04T05:55:20.121Z</time></trkpt><trkpt lat="45.6361061" lon="11.3741536"><ele>254.0</ele><time>2026-04-04T05:55:21.119Z</time></trkpt><trkpt lat="45.6361965" lon="11.3742151"><ele>251.33333333333334</ele><time>2026-04-04T05:55:22.121Z</time></trkpt><trkpt lat="45.6362719" lon="11.3742606"><ele>248.66666666666669</ele><time>2026-04-04T05:55:23.121Z</time></trkpt><trkpt lat="45.6363362" lon="11.3742782"><ele>246.0</ele><time>2026-04-04T05:55:24.12Z</time></trkpt><trkpt lat="45.6364107" lon="11.3742017"><ele>243.33333333333331</ele><time>2026-04-04T05:55:26.12Z</time></trkpt><trkpt lat="45.6363611" lon="11.3740653"><ele>240.66666666666666</ele><time>2026-04-04T05:55:28.12Z</time></trkpt><trkpt lat="45.6362928" lon="11.3740202"><ele>238.0</ele><time>2026-04-04T05:55:29.121Z</time></trkpt><trkpt lat="45.6362057" lon="11.3739857"><ele>242.0</ele><time>2026-04-04T05:55:30.122Z</time></trkpt><trkpt lat="45.6361092" lon="11.3739371"><ele>246.0</ele><time>2026-04-04T05:55:31.122Z</time></trkpt><trkpt lat="45.6360081" lon="11.3738688"><ele>250.0</ele><time>2026-04-04T05:55:32.12Z</time></trkpt><trkpt lat="45.635902" lon="11.373777"><ele>254.0</ele><time>2026-04-04T05:55:33.121Z</time></trkpt><trkpt lat="45.6357995" lon="11.3736696"><ele>246.0</ele><time>2026-04-04T05:55:34.12Z</time></trkpt><trkpt lat="45.635709" lon="11.3735493"><ele>238.0</ele><time>2026-04-04T05:55:35.122Z</time></trkpt><trkpt lat="45.6356299" lon="11.373435"><ele>230.0</ele><time>2026-04-04T05:55:36.12Z</time></trkpt><trkpt lat="45.6355405" lon="11.3733368"><ele>222.0</ele><time>2026-04-04T05:55:37.121Z</time></trkpt><trkpt lat="45.6354406" lon="11.3732705"><ele>222.0</ele><time>2026-04-04T05:55:38.121Z</time></trkpt><trkpt lat="45.6353392" lon="11.3732294"><ele>222.0</ele><time>2026-04-04T05:55:39.122Z</time></trkpt><trkpt lat="45.6352418" lon="11.3731934"><ele>222.0</ele><time>2026-04-04T05:55:40.12Z</time></trkpt><trkpt lat="45.635158" lon="11.3731292"><ele>222.0</ele><time>2026-04-04T05:55:41.121Z</time></trkpt><trkpt lat="45.6350949" lon="11.3730426"><ele>222.0</ele><time>2026-04-04T05:55:42.12Z</time></trkpt><trkpt lat="45.63507" lon="11.3729236"><ele>221.2</ele><time>2026-04-04T05:55:43.121Z</time></trkpt><trkpt lat="45.635088" lon="11.3727908"><ele>220.39999999999998</ele><time>2026-04-04T05:55:44.12Z</time></trkpt><trkpt lat="45.6351427" lon="11.372673"><ele>219.60000000000002</ele><time>2026-04-04T05:55:45.12Z</time></trkpt><trkpt lat="45.6352298" lon="11.3725796"><ele>218.8</ele><time>2026-04-04T05:55:46.12Z</time></trkpt><trkpt lat="45.6353376" lon="11.3724989"><ele>218.0</ele><time>2026-04-04T05:55:47.121Z</time></trkpt><trkpt lat="45.6354589" lon="11.372417"><ele>218.0</ele><time>2026-04-04T05:55:48.12Z</time></trkpt><trkpt lat="45.6355868" lon="11.372324"><ele>218.0</ele><time>2026-04-04T05:55:49.121Z</time></trkpt><trkpt lat="45.6357173" lon="11.3722403"><ele>218.0</ele><time>2026-04-04T05:55:50.121Z</time></trkpt><trkpt lat="45.6358476" lon="11.3721918"><ele>218.0</ele><time>2026-04-04T05:55:51.121Z</time></trkpt><trkpt lat="45.6359769" lon="11.372181"><ele>218.0</ele><time>2026-04-04T05:55:52.12Z</time></trkpt><trkpt lat="45.6360987" lon="11.3721929"><ele>218.0</ele><time>2026-04-04T05:55:53.12Z</time></trkpt><trkpt lat="45.6362205" lon="11.3722251"><ele>218.0</ele><time>2026-04-04T05:55:54.12Z</time></trkpt><trkpt lat="45.6363405" lon="11.3722727"><ele>218.0</ele><time>2026-04-04T05:55:55.12Z</time></trkpt><trkpt lat="45.6364558" lon="11.3723251"><ele>217.0</ele><time>2026-04-04T05:55:56.12Z</time></trkpt><trkpt lat="45.6365714" lon="11.3723719"><ele>216.0</ele><time>2026-04-04T05:55:57.12Z</time></trkpt><trkpt lat="45.6366875" lon="11.3724192"><ele>215.0</ele><time>2026-04-04T05:55:58.121Z</time></trkpt><trkpt lat="45.636807" lon="11.372474"><ele>214.0</ele><time>2026-04-04T05:55:59.121Z</time></trkpt><trkpt lat="45.6369235" lon="11.3725443"><ele>215.25</ele><time>2026-04-04T05:56:00.121Z</time></trkpt><trkpt lat="45.6370323" lon="11.3726324"><ele>216.5</ele><time>2026-04-04T05:56:01.12Z</time></trkpt><trkpt lat="45.6371343" lon="11.3727495"><ele>217.75</ele><time>2026-04-04T05:56:02.122Z</time></trkpt><trkpt lat="45.6372276" lon="11.3728945"><ele>219.0</ele><time>2026-04-04T05:56:03.121Z</time></trkpt><trkpt lat="45.6373094" lon="11.3730614"><ele>216.5</ele><time>2026-04-04T05:56:04.121Z</time></trkpt><trkpt lat="45.6373824" lon="11.3732381"><ele>214.0</ele><time>2026-04-04T05:56:05.12Z</time></trkpt><trkpt lat="45.6374547" lon="11.373413"><ele>211.5</ele><time>2026-04-04T05:56:06.12Z</time></trkpt><trkpt lat="45.6375214" lon="11.3735879"><ele>209.0</ele><time>2026-04-04T05:56:07.122Z</time></trkpt><trkpt lat="45.6375862" lon="11.3737617"><ele>208.5</ele><time>2026-04-04T05:56:08.12Z</time></trkpt><trkpt lat="45.6376573" lon="11.3739279"><ele>208.0</ele><time>2026-04-04T05:56:09.12Z</time></trkpt><trkpt lat="45.6377384" lon="11.3740842"><ele>207.5</ele><time>2026-04-04T05:56:10.121Z</time></trkpt><trkpt lat="45.6378519" lon="11.3741968"><ele>207.0</ele><time>2026-04-04T05:56:11.12Z</time></trkpt><trkpt lat="45.6379735" lon="11.3742921"><ele>206.75</ele><time>2026-04-04T05:56:12.12Z</time></trkpt><trkpt lat="45.638105" lon="11.3743689"><ele>206.5</ele><time>2026-04-04T05:56:13.12Z</time></trkpt><trkpt lat="45.6382334" lon="11.374441"><ele>206.25</ele><time>2026-04-04T05:56:14.121Z</time></trkpt><trkpt lat="45.6383613" lon="11.3745168"><ele>206.0</ele><time>2026-04-04T05:56:15.121Z</time></trkpt><trkpt lat="45.63848" lon="11.3746062"><ele>205.0</ele><time>2026-04-04T05:56:16.121Z</time></trkpt><trkpt lat="45.6385877" lon="11.3747085"><ele>204.0</ele><time>2026-04-04T05:56:17.12Z</time></trkpt><trkpt lat="45.6386809" lon="11.3748317"><ele>203.0</ele><time>2026-04-04T05:56:18.121Z</time></trkpt><trkpt lat="45.6387641" lon="11.3749688"><ele>202.0</ele><time>2026-04-04T05:56:19.121Z</time></trkpt><trkpt lat="45.6388344" lon="11.3751158"><ele>202.0</ele><time>2026-04-04T05:56:20.12Z</time></trkpt><trkpt lat="45.6388979" lon="11.3752585"><ele>202.0</ele><time>2026-04-04T05:56:21.122Z</time></trkpt><trkpt lat="45.6389572" lon="11.375398"><ele>202.0</ele><time>2026-04-04T05:56:22.121Z</time></trkpt><trkpt lat="45.6390112" lon="11.3755295"><ele>202.0</ele><time>2026-04-04T05:56:23.121Z</time></trkpt><trkpt lat="45.6390636" lon="11.3756458"><ele>202.0</ele><time>2026-04-04T05:56:24.121Z</time></trkpt><trkpt lat="45.6391298" lon="11.3757374"><ele>200.0</ele><time>2026-04-04T05:56:25.121Z</time></trkpt><trkpt lat="45.6392108" lon="11.3758006"><ele>198.0</ele><time>2026-04-04T05:56:26.121Z</time></trkpt><trkpt lat="45.6393021" lon="11.3758122"><ele>196.0</ele><time>2026-04-04T05:56:27.12Z</time></trkpt><trkpt lat="45.6393944" lon="11.3757803"><ele>194.0</ele><time>2026-04-04T05:56:28.12Z</time></trkpt><trkpt lat="45.6394896" lon="11.3757235"><ele>192.0</ele><time>2026-04-04T05:56:29.121Z</time></trkpt><trkpt lat="45.6395761" lon="11.3756636"><ele>191.8</ele><time>2026-04-04T05:56:30.121Z</time></trkpt><trkpt lat="45.6396704" lon="11.3755894"><ele>191.6</ele><time>2026-04-04T05:56:31.12Z</time></trkpt><trkpt lat="45.6397581" lon="11.3755259"><ele>191.4</ele><time>2026-04-04T05:56:32.12Z</time></trkpt><trkpt lat="45.6398438" lon="11.3754793"><ele>191.20000000000002</ele><time>2026-04-04T05:56:33.122Z</time></trkpt><trkpt lat="45.6399342" lon="11.3754566"><ele>191.0</ele><time>2026-04-04T05:56:34.12Z</time></trkpt><trkpt lat="45.6400207" lon="11.3754693"><ele>191.0</ele><time>2026-04-04T05:56:35.122Z</time></trkpt><trkpt lat="45.6400909" lon="11.3755345"><ele>191.0</ele><time>2026-04-04T05:56:36.122Z</time></trkpt><trkpt lat="45.6401351" lon="11.3756383"><ele>191.0</ele><time>2026-04-04T05:56:37.121Z</time></trkpt><trkpt lat="45.6401443" lon="11.3757593"><ele>191.0</ele><time>2026-04-04T05:56:38.12Z</time></trkpt><trkpt lat="45.6401124" lon="11.3758743"><ele>191.0</ele><time>2026-04-04T05:56:39.121Z</time></trkpt><trkpt lat="45.6400485" lon="11.3759858"><ele>191.0</ele><time>2026-04-04T05:56:40.12Z</time></trkpt><trkpt lat="45.6399681" lon="11.3760959"><ele>191.0</ele><time>2026-04-04T05:56:41.12Z</time></trkpt><trkpt lat="45.6398813" lon="11.3762196"><ele>191.0</ele><time>2026-04-04T05:56:42.122Z</time></trkpt><trkpt lat="45.6397913" lon="11.376341"><ele>191.0</ele><time>2026-04-04T05:56:43.122Z</time></trkpt><trkpt lat="45.6397032" lon="11.3764722"><ele>191.0</ele><time>2026-04-04T05:56:44.121Z</time></trkpt><trkpt lat="45.6396209" lon="11.3766077"><ele>189.5</ele><time>2026-04-04T05:56:45.121Z</time></trkpt><trkpt lat="45.6395433" lon="11.3767514"><ele>188.0</ele><time>2026-04-04T05:56:46.121Z</time></trkpt><trkpt lat="45.6394768" lon="11.3769017"><ele>186.5</ele><time>2026-04-04T05:56:47.122Z</time></trkpt><trkpt lat="45.639412" lon="11.3770514"><ele>185.0</ele><time>2026-04-04T05:56:48.121Z</time></trkpt><trkpt lat="45.6393527" lon="11.3772065"><ele>183.4</ele><time>2026-04-04T05:56:49.12Z</time></trkpt><trkpt lat="45.6393049" lon="11.3773569"><ele>181.8</ele><time>2026-04-04T05:56:50.122Z</time></trkpt><trkpt lat="45.6392772" lon="11.3775103"><ele>180.2</ele><time>2026-04-04T05:56:51.122Z</time></trkpt><trkpt lat="45.6392742" lon="11.3776619"><ele>178.6</ele><time>2026-04-04T05:56:52.121Z</time></trkpt><trkpt lat="45.6392966" lon="11.3778076"><ele>177.0</ele><time>2026-04-04T05:56:53.121Z</time></trkpt><trkpt lat="45.6393403" lon="11.3779377"><ele>177.8</ele><time>2026-04-04T05:56:54.121Z</time></trkpt><trkpt lat="45.6393968" lon="11.3780589"><ele>178.6</ele><time>2026-04-04T05:56:55.12Z</time></trkpt><trkpt lat="45.6394689" lon="11.3781521"><ele>179.4</ele><time>2026-04-04T05:56:56.12Z</time></trkpt><trkpt lat="45.6395519" lon="11.3782133"><ele>180.20000000000002</ele><time>2026-04-04T05:56:57.122Z</time></trkpt><trkpt lat="45.6396432" lon="11.378242"><ele>181.0</ele><time>2026-04-04T05:56:58.121Z</time></trkpt><trkpt lat="45.639731" lon="11.3782303"><ele>180.0</ele><time>2026-04-04T05:56:59.121Z</time></trkpt><trkpt lat="45.6398061" lon="11.3781762"><ele>179.0</ele><time>2026-04-04T05:57:00.121Z</time></trkpt><trkpt lat="45.6398722" lon="11.378088"><ele>178.0</ele><time>2026-04-04T05:57:01.121Z</time></trkpt><trkpt lat="45.6399297" lon="11.3779903"><ele>177.0</ele><time>2026-04-04T05:57:02.12Z</time></trkpt><trkpt lat="45.639988" lon="11.3778926"><ele>176.0</ele><time>2026-04-04T05:57:03.123Z</time></trkpt><trkpt lat="45.6400477" lon="11.3777925"><ele>175.0</ele><time>2026-04-04T05:57:04.12Z</time></trkpt><trkpt lat="45.6401003" lon="11.3777039"><ele>175.0</ele><time>2026-04-04T05:57:05.12Z</time></trkpt><trkpt lat="45.6401491" lon="11.3776259"><ele>175.0</ele><time>2026-04-04T05:57:06.12Z</time></trkpt><trkpt lat="45.6401912" lon="11.3775509"><ele>175.0</ele><time>2026-04-04T05:57:07.12Z</time></trkpt><trkpt lat="45.6402327" lon="11.3774758"><ele>175.0</ele><time>2026-04-04T05:57:08.121Z</time></trkpt><trkpt lat="45.6403402" lon="11.3774105"><ele>175.0</ele><time>2026-04-04T05:57:10.121Z</time></trkpt><trkpt lat="45.6404386" lon="11.3775129"><ele>175.0</ele><time>2026-04-04T05:57:12.121Z</time></trkpt><trkpt lat="45.6404597" lon="11.377607"><ele>174.66666666666669</ele><time>2026-04-04T05:57:13.12Z</time></trkpt><trkpt lat="45.6404827" lon="11.3777224"><ele>174.33333333333334</ele><time>2026-04-04T05:57:14.121Z</time></trkpt><trkpt lat="45.6405238" lon="11.3778267"><ele>174.0</ele><time>2026-04-04T05:57:15.12Z</time></trkpt><trkpt lat="45.6405822" lon="11.3779147"><ele>173.66666666666666</ele><time>2026-04-04T05:57:16.12Z</time></trkpt><trkpt lat="45.6406476" lon="11.3779941"><ele>173.33333333333331</ele><time>2026-04-04T05:57:17.12Z</time></trkpt><trkpt lat="45.6407154" lon="11.3780779"><ele>173.0</ele><time>2026-04-04T05:57:18.121Z</time></trkpt><trkpt lat="45.6407835" lon="11.3781542"><ele>171.33333333333331</ele><time>2026-04-04T05:57:19.12Z</time></trkpt><trkpt lat="45.6408465" lon="11.3782294"><ele>169.66666666666666</ele><time>2026-04-04T05:57:20.12Z</time></trkpt><trkpt lat="45.6409068" lon="11.3783019"><ele>168.0</ele><time>2026-04-04T05:57:21.121Z</time></trkpt><trkpt lat="45.640956" lon="11.3783877"><ele>166.33333333333334</ele><time>2026-04-04T05:57:22.121Z</time></trkpt><trkpt lat="45.6409904" lon="11.3784867"><ele>164.66666666666669</ele><time>2026-04-04T05:57:23.121Z</time></trkpt><trkpt lat="45.641004" lon="11.378591"><ele>163.0</ele><time>2026-04-04T05:57:24.121Z</time></trkpt><trkpt lat="45.6409854" lon="11.3787045"><ele>163.0</ele><time>2026-04-04T05:57:25.122Z</time></trkpt><trkpt lat="45.6409402" lon="11.3788105"><ele>163.0</ele><time>2026-04-04T05:57:26.121Z</time></trkpt><trkpt lat="45.6408755" lon="11.378889"><ele>163.0</ele><time>2026-04-04T05:57:27.12Z</time></trkpt><trkpt lat="45.6408025" lon="11.378961"><ele>163.0</ele><time>2026-04-04T05:57:28.121Z</time></trkpt><trkpt lat="45.6407329" lon="11.3790369"><ele>163.0</ele><time>2026-04-04T05:57:29.121Z</time></trkpt><trkpt lat="45.6406759" lon="11.379134"><ele>163.0</ele><time>2026-04-04T05:57:30.121Z</time></trkpt><trkpt lat="45.6406311" lon="11.3792586"><ele>161.8</ele><time>2026-04-04T05:57:31.121Z</time></trkpt><trkpt lat="45.6405991" lon="11.3793982"><ele>160.60000000000002</ele><time>2026-04-04T05:57:32.121Z</time></trkpt><trkpt lat="45.6405854" lon="11.3795454"><ele>159.39999999999998</ele><time>2026-04-04T05:57:33.121Z</time></trkpt><trkpt lat="45.6405802" lon="11.3796985"><ele>158.2</ele><time>2026-04-04T05:57:34.122Z</time></trkpt><trkpt lat="45.6405983" lon="11.3798427"><ele>157.0</ele><time>2026-04-04T05:57:35.121Z</time></trkpt><trkpt lat="45.6406323" lon="11.3799789"><ele>156.0</ele><time>2026-04-04T05:57:36.121Z</time></trkpt><trkpt lat="45.6406861" lon="11.3800998"><ele>155.0</ele><time>2026-04-04T05:57:37.12Z</time></trkpt><trkpt lat="45.640749" lon="11.3802208"><ele>154.0</ele><time>2026-04-04T05:57:38.122Z</time></trkpt><trkpt lat="45.6408157" lon="11.3803449"><ele>153.0</ele><time>2026-04-04T05:57:39.121Z</time></trkpt><trkpt lat="45.6408841" lon="11.3804745"><ele>152.0</ele><time>2026-04-04T05:57:40.121Z</time></trkpt><trkpt lat="45.6409482" lon="11.3806105"><ele>151.25</ele><time>2026-04-04T05:57:41.122Z</time></trkpt><trkpt lat="45.6410089" lon="11.3807711"><ele>150.5</ele><time>2026-04-04T05:57:42.121Z</time></trkpt><trkpt lat="45.6410479" lon="11.3809465"><ele>149.75</ele><time>2026-04-04T05:57:43.121Z</time></trkpt><trkpt lat="45.6410702" lon="11.3811339"><ele>149.0</ele><time>2026-04-04T05:57:44.12Z</time></trkpt><trkpt lat="45.6410794" lon="11.3813265"><ele>148.75</ele><time>2026-04-04T05:57:45.12Z</time></trkpt><trkpt lat="45.6410842" lon="11.3815211"><ele>148.5</ele><time>2026-04-04T05:57:46.121Z</time></trkpt><trkpt lat="45.6410956" lon="11.3817179"><ele>148.25</ele><time>2026-04-04T05:57:47.121Z</time></trkpt><trkpt lat="45.6411151" lon="11.3819155"><ele>148.0</ele><time>2026-04-04T05:57:48.12Z</time></trkpt><trkpt lat="45.6411419" lon="11.3821054"><ele>150.75</ele><time>2026-04-04T05:57:49.122Z</time></trkpt><trkpt lat="45.6411813" lon="11.382289"><ele>153.5</ele><time>2026-04-04T05:57:50.121Z</time></trkpt><trkpt lat="45.6412284" lon="11.382457"><ele>156.25</ele><time>2026-04-04T05:57:51.121Z</time></trkpt><trkpt lat="45.6412796" lon="11.3826229"><ele>159.0</ele><time>2026-04-04T05:57:52.12Z</time></trkpt><trkpt lat="45.6413445" lon="11.3827756"><ele>159.0</ele><time>2026-04-04T05:57:53.121Z</time></trkpt><trkpt lat="45.641421" lon="11.3829296"><ele>159.0</ele><time>2026-04-04T05:57:54.122Z</time></trkpt><trkpt lat="45.6414988" lon="11.3830731"><ele>159.0</ele><time>2026-04-04T05:57:55.12Z</time></trkpt><trkpt lat="45.6415883" lon="11.383206"><ele>159.0</ele><time>2026-04-04T05:57:56.121Z</time></trkpt><trkpt lat="45.6416816" lon="11.3833295"><ele>157.25</ele><time>2026-04-04T05:57:57.121Z</time></trkpt><trkpt lat="45.6417783" lon="11.3834383"><ele>155.5</ele><time>2026-04-04T05:57:58.122Z</time></trkpt><trkpt lat="45.6418803" lon="11.3835388"><ele>153.75</ele><time>2026-04-04T05:57:59.121Z</time></trkpt><trkpt lat="45.6419876" lon="11.3836257"><ele>152.0</ele><time>2026-04-04T05:58:00.12Z</time></trkpt><trkpt lat="45.642105" lon="11.3836962"><ele>152.0</ele><time>2026-04-04T05:58:01.12Z</time></trkpt><trkpt lat="45.6422251" lon="11.3837486"><ele>152.0</ele><time>2026-04-04T05:58:02.121Z</time></trkpt><trkpt lat="45.6423449" lon="11.3837923"><ele>152.0</ele><time>2026-04-04T05:58:03.121Z</time></trkpt><trkpt lat="45.6424637" lon="11.3838337"><ele>152.0</ele><time>2026-04-04T05:58:04.121Z</time></trkpt><trkpt lat="45.6425818" lon="11.3838788"><ele>148.25</ele><time>2026-04-04T05:58:05.121Z</time></trkpt><trkpt lat="45.6427072" lon="11.3839222"><ele>144.5</ele><time>2026-04-04T05:58:06.121Z</time></trkpt><trkpt lat="45.6428341" lon="11.3839671"><ele>140.75</ele><time>2026-04-04T05:58:07.122Z</time></trkpt><trkpt lat="45.6429667" lon="11.3840082"><ele>137.0</ele><time>2026-04-04T05:58:08.122Z</time></trkpt><trkpt lat="45.6430974" lon="11.3840495"><ele>136.75</ele><time>2026-04-04T05:58:09.122Z</time></trkpt><trkpt lat="45.6432323" lon="11.384099"><ele>136.5</ele><time>2026-04-04T05:58:10.12Z</time></trkpt><trkpt lat="45.6433697" lon="11.3841413"><ele>136.25</ele><time>2026-04-04T05:58:11.121Z</time></trkpt><trkpt lat="45.6435101" lon="11.3841899"><ele>136.0</ele><time>2026-04-04T05:58:12.121Z</time></trkpt><trkpt lat="45.6436568" lon="11.3842396"><ele>136.0</ele><time>2026-04-04T05:58:13.122Z</time></trkpt><trkpt lat="45.6438117" lon="11.3842916"><ele>136.0</ele><time>2026-04-04T05:58:14.121Z</time></trkpt><trkpt lat="45.6439677" lon="11.3843414"><ele>136.0</ele><time>2026-04-04T05:58:15.121Z</time></trkpt><trkpt lat="45.644128" lon="11.3843947"><ele>136.0</ele><time>2026-04-04T05:58:16.121Z</time></trkpt><trkpt lat="45.6442901" lon="11.3844514"><ele>136.0</ele><time>2026-04-04T05:58:17.122Z</time></trkpt><trkpt lat="45.6444526" lon="11.3845062"><ele>136.0</ele><time>2026-04-04T05:58:18.121Z</time></trkpt><trkpt lat="45.6446213" lon="11.3845625"><ele>136.0</ele><time>2026-04-04T05:58:19.122Z</time></trkpt><trkpt lat="45.6447888" lon="11.3846221"><ele>136.0</ele><time>2026-04-04T05:58:20.121Z</time></trkpt><trkpt lat="45.6449563" lon="11.3846767"><ele>136.0</ele><time>2026-04-04T05:58:21.121Z</time></trkpt><trkpt lat="45.6451194" lon="11.3847313"><ele>135.0</ele><time>2026-04-04T05:58:22.121Z</time></trkpt><trkpt lat="45.6452831" lon="11.3847878"><ele>134.0</ele><time>2026-04-04T05:58:23.122Z</time></trkpt><trkpt lat="45.6454456" lon="11.3848443"><ele>133.0</ele><time>2026-04-04T05:58:24.121Z</time></trkpt><trkpt lat="45.6456074" lon="11.3848981"><ele>133.0</ele><time>2026-04-04T05:58:25.121Z</time></trkpt><trkpt lat="45.6457713" lon="11.3849507"><ele>133.0</ele><time>2026-04-04T05:58:26.12Z</time></trkpt><trkpt lat="45.6459322" lon="11.3850024"><ele>133.0</ele><time>2026-04-04T05:58:27.123Z</time></trkpt><trkpt lat="45.646095" lon="11.385063"><ele>133.0</ele><time>2026-04-04T05:58:28.12Z</time></trkpt><trkpt lat="45.6462627" lon="11.3851167"><ele>133.0</ele><time>2026-04-04T05:58:29.122Z</time></trkpt><trkpt lat="45.6464412" lon="11.3851691"><ele>133.0</ele><time>2026-04-04T05:58:30.121Z</time></trkpt><trkpt lat="45.6466439" lon="11.38523"><ele>133.0</ele><time>2026-04-04T05:58:31.121Z</time></trkpt><trkpt lat="45.6468622" lon="11.3853018"><ele>133.0</ele><time>2026-04-04T05:58:32.121Z</time></trkpt><trkpt lat="45.6470808" lon="11.3853723"><ele>133.0</ele><time>2026-04-04T05:58:33.122Z</time></trkpt><trkpt lat="45.6473147" lon="11.3854565"><ele>130.5</ele><time>2026-04-04T05:58:34.121Z</time></trkpt><trkpt lat="45.6475637" lon="11.3855427"><ele>128.0</ele><time>2026-04-04T05:58:35.12Z</time></trkpt><trkpt lat="45.6478249" lon="11.3856333"><ele>127.5</ele><time>2026-04-04T05:58:36.121Z</time></trkpt><trkpt lat="45.6480775" lon="11.3857381"><ele>127.0</ele><time>2026-04-04T05:58:37.122Z</time></trkpt><trkpt lat="45.6482893" lon="11.3858132"><ele>127.0</ele><time>2026-04-04T05:58:38.122Z</time></trkpt><trkpt lat="45.6484796" lon="11.3858874"><ele>127.0</ele><time>2026-04-04T05:58:39.121Z</time></trkpt><trkpt lat="45.648647" lon="11.3859482"><ele>127.0</ele><time>2026-04-04T05:58:40.121Z</time></trkpt><trkpt lat="45.6488047" lon="11.3860034"><ele>127.0</ele><time>2026-04-04T05:58:41.121Z</time></trkpt><trkpt lat="45.6489563" lon="11.3860659"><ele>127.0</ele><time>2026-04-04T05:58:42.121Z</time></trkpt><trkpt lat="45.6491261" lon="11.38612"><ele>127.0</ele><time>2026-04-04T05:58:43.121Z</time></trkpt><trkpt lat="45.6493053" lon="11.3861649"><ele>126.66666666666667</ele><time>2026-04-04T05:58:44.121Z</time></trkpt><trkpt lat="45.6495001" lon="11.3862201"><ele>126.33333333333334</ele><time>2026-04-04T05:58:45.121Z</time></trkpt><trkpt lat="45.6496997" lon="11.3862881"><ele>126.0</ele><time>2026-04-04T05:58:46.122Z</time></trkpt><trkpt lat="45.6499055" lon="11.3863568"><ele>125.33333333333334</ele><time>2026-04-04T05:58:47.121Z</time></trkpt><trkpt lat="45.6501081" lon="11.3864295"><ele>124.66666666666667</ele><time>2026-04-04T05:58:48.122Z</time></trkpt><trkpt lat="45.6503097" lon="11.386501"><ele>124.0</ele><time>2026-04-04T05:58:49.121Z</time></trkpt><trkpt lat="45.6505089" lon="11.3865863"><ele>124.0</ele><time>2026-04-04T05:58:50.122Z</time></trkpt><trkpt lat="45.6507015" lon="11.3867012"><ele>124.0</ele><time>2026-04-04T05:58:51.122Z</time></trkpt><trkpt lat="45.6508827" lon="11.3868552"><ele>124.0</ele><time>2026-04-04T05:58:52.122Z</time></trkpt><trkpt lat="45.651044" lon="11.3870401"><ele>123.33333333333334</ele><time>2026-04-04T05:58:53.122Z</time></trkpt><trkpt lat="45.6511889" lon="11.3872522"><ele>122.66666666666666</ele><time>2026-04-04T05:58:54.122Z</time></trkpt><trkpt lat="45.6513153" lon="11.3874878"><ele>122.0</ele><time>2026-04-04T05:58:55.122Z</time></trkpt><trkpt lat="45.6514255" lon="11.387745"><ele>122.33333333333333</ele><time>2026-04-04T05:58:56.12Z</time></trkpt><trkpt lat="45.6515318" lon="11.3880159"><ele>122.66666666666666</ele><time>2026-04-04T05:58:57.121Z</time></trkpt><trkpt lat="45.6516369" lon="11.3882876"><ele>123.0</ele><time>2026-04-04T05:58:58.122Z</time></trkpt><trkpt lat="45.6517442" lon="11.3885599"><ele>123.0</ele><time>2026-04-04T05:58:59.121Z</time></trkpt><trkpt lat="45.6518557" lon="11.3888413"><ele>123.0</ele><time>2026-04-04T05:59:00.121Z</time></trkpt><trkpt lat="45.6519675" lon="11.3891178"><ele>123.0</ele><time>2026-04-04T05:59:01.122Z</time></trkpt><trkpt lat="45.6520793" lon="11.3893988"><ele>122.0</ele><time>2026-04-04T05:59:02.121Z</time></trkpt><trkpt lat="45.6521892" lon="11.3896812"><ele>121.0</ele><time>2026-04-04T05:59:03.121Z</time></trkpt><trkpt lat="45.6523043" lon="11.3899684"><ele>121.0</ele><time>2026-04-04T05:59:04.122Z</time></trkpt><trkpt lat="45.652418" lon="11.3902566"><ele>121.0</ele><time>2026-04-04T05:59:05.122Z</time></trkpt><trkpt lat="45.6525358" lon="11.3905502"><ele>120.5</ele><time>2026-04-04T05:59:06.121Z</time></trkpt><trkpt lat="45.6526482" lon="11.3908417"><ele>120.0</ele><time>2026-04-04T05:59:07.121Z</time></trkpt><trkpt lat="45.6527622" lon="11.3911331"><ele>120.5</ele><time>2026-04-04T05:59:08.121Z</time></trkpt><trkpt lat="45.652881" lon="11.3914223"><ele>121.0</ele><time>2026-04-04T05:59:09.121Z</time></trkpt><trkpt lat="45.6529964" lon="11.3917125"><ele>121.0</ele><time>2026-04-04T05:59:10.121Z</time></trkpt><trkpt lat="45.6531067" lon="11.391997"><ele>121.0</ele><time>2026-04-04T05:59:11.121Z</time></trkpt><trkpt lat="45.6532088" lon="11.3922592"><ele>121.0</ele><time>2026-04-04T05:59:12.12Z</time></trkpt><trkpt lat="45.6533026" lon="11.3924938"><ele>120.33333333333334</ele><time>2026-04-04T05:59:13.12Z</time></trkpt><trkpt lat="45.6533862" lon="11.3927065"><ele>119.66666666666666</ele><time>2026-04-04T05:59:14.121Z</time></trkpt><trkpt lat="45.6534635" lon="11.3929009"><ele>119.0</ele><time>2026-04-04T05:59:15.122Z</time></trkpt><trkpt lat="45.6535313" lon="11.3930769"><ele>118.80000000000001</ele><time>2026-04-04T05:59:16.122Z</time></trkpt><trkpt lat="45.6535886" lon="11.3932317"><ele>118.60000000000001</ele><time>2026-04-04T05:59:17.121Z</time></trkpt><trkpt lat="45.6536234" lon="11.3933528"><ele>118.4</ele><time>2026-04-04T05:59:18.121Z</time></trkpt><trkpt lat="45.6536466" lon="11.3934998"><ele>118.2</ele><time>2026-04-04T05:59:20.12Z</time></trkpt><trkpt lat="45.6536428" lon="11.3936631"><ele>118.0</ele><time>2026-04-04T05:59:22.122Z</time></trkpt><trkpt lat="45.6536867" lon="11.3938324"><ele>118.00000000000001</ele><time>2026-04-04T05:59:24.121Z</time></trkpt><trkpt lat="45.6537436" lon="11.3939042"><ele>118.0</ele><time>2026-04-04T05:59:25.123Z</time></trkpt><trkpt lat="45.6538135" lon="11.3939676"><ele>118.0</ele><time>2026-04-04T05:59:26.121Z</time></trkpt><trkpt lat="45.6538841" lon="11.3940471"><ele>118.0</ele><time>2026-04-04T05:59:27.121Z</time></trkpt><trkpt lat="45.6539486" lon="11.394146"><ele>118.00000000000001</ele><time>2026-04-04T05:59:28.121Z</time></trkpt><trkpt lat="45.6540093" lon="11.3942677"><ele>118.0</ele><time>2026-04-04T05:59:29.122Z</time></trkpt><trkpt lat="45.6540618" lon="11.3944114"><ele>118.0</ele><time>2026-04-04T05:59:30.122Z</time></trkpt><trkpt lat="45.6541187" lon="11.3945674"><ele>118.0</ele><time>2026-04-04T05:59:31.122Z</time></trkpt><trkpt lat="45.6541825" lon="11.3947322"><ele>118.0</ele><time>2026-04-04T05:59:32.122Z</time></trkpt><trkpt lat="45.6542504" lon="11.3949015"><ele>118.0</ele><time>2026-04-04T05:59:33.122Z</time></trkpt><trkpt lat="45.6543191" lon="11.3950741"><ele>117.66666666666667</ele><time>2026-04-04T05:59:34.12Z</time></trkpt><trkpt lat="45.6543882" lon="11.395253"><ele>117.33333333333334</ele><time>2026-04-04T05:59:35.121Z</time></trkpt><trkpt lat="45.6544665" lon="11.3954356"><ele>117.0</ele><time>2026-04-04T05:59:36.123Z</time></trkpt><trkpt lat="45.654559" lon="11.3956444"><ele>116.33333333333334</ele><time>2026-04-04T05:59:37.121Z</time></trkpt><trkpt lat="45.6546647" lon="11.3958863"><ele>115.66666666666667</ele><time>2026-04-04T05:59:38.122Z</time></trkpt><trkpt lat="45.6547606" lon="11.3961508"><ele>115.0</ele><time>2026-04-04T05:59:39.121Z</time></trkpt><trkpt lat="45.6548573" lon="11.3964149"><ele>114.66666666666667</ele><time>2026-04-04T05:59:40.122Z</time></trkpt><trkpt lat="45.6549591" lon="11.396688"><ele>114.33333333333334</ele><time>2026-04-04T05:59:41.121Z</time></trkpt><trkpt lat="45.65506" lon="11.3969557"><ele>114.0</ele><time>2026-04-04T05:59:42.12Z</time></trkpt><trkpt lat="45.6551572" lon="11.3972051"><ele>113.66666666666666</ele><time>2026-04-04T05:59:43.122Z</time></trkpt><trkpt lat="45.6552467" lon="11.3974341"><ele>113.33333333333333</ele><time>2026-04-04T05:59:44.122Z</time></trkpt><trkpt lat="45.6553382" lon="11.3976519"><ele>113.0</ele><time>2026-04-04T05:59:45.122Z</time></trkpt><trkpt lat="45.655441" lon="11.3978466"><ele>113.33333333333333</ele><time>2026-04-04T05:59:46.121Z</time></trkpt><trkpt lat="45.6555634" lon="11.3980229"><ele>113.66666666666666</ele><time>2026-04-04T05:59:47.122Z</time></trkpt><trkpt lat="45.6557028" lon="11.398171"><ele>114.0</ele><time>2026-04-04T05:59:48.122Z</time></trkpt><trkpt lat="45.655866" lon="11.3982989"><ele>114.0</ele><time>2026-04-04T05:59:49.122Z</time></trkpt><trkpt lat="45.6560454" lon="11.3983966"><ele>114.0</ele><time>2026-04-04T05:59:50.121Z</time></trkpt><trkpt lat="45.6562395" lon="11.3984642"><ele>114.0</ele><time>2026-04-04T05:59:51.122Z</time></trkpt><trkpt lat="45.6564374" lon="11.3985112"><ele>114.33333333333334</ele><time>2026-04-04T05:59:52.121Z</time></trkpt><trkpt lat="45.6566399" lon="11.3985484"><ele>114.66666666666667</ele><time>2026-04-04T05:59:53.122Z</time></trkpt><trkpt lat="45.6568342" lon="11.398582"><ele>115.0</ele><time>2026-04-04T05:59:54.122Z</time></trkpt><trkpt lat="45.6570157" lon="11.3986165"><ele>115.33333333333334</ele><time>2026-04-04T05:59:55.122Z</time></trkpt><trkpt lat="45.6571866" lon="11.3986448"><ele>115.66666666666666</ele><time>2026-04-04T05:59:56.122Z</time></trkpt><trkpt lat="45.6573475" lon="11.3986766"><ele>116.0</ele><time>2026-04-04T05:59:57.122Z</time></trkpt><trkpt lat="45.6574977" lon="11.398711"><ele>116.0</ele><time>2026-04-04T05:59:58.122Z</time></trkpt><trkpt lat="45.65763" lon="11.3987463"><ele>116.0</ele><time>2026-04-04T05:59:59.122Z</time></trkpt><trkpt lat="45.6577511" lon="11.3987952"><ele>116.0</ele><time>2026-04-04T06:00:00.122Z</time></trkpt><trkpt lat="45.6578496" lon="11.3988885"><ele>116.0</ele><time>2026-04-04T06:00:01.121Z</time></trkpt><trkpt lat="45.6579316" lon="11.3990137"><ele>116.75</ele><time>2026-04-04T06:00:02.122Z</time></trkpt><trkpt lat="45.6580159" lon="11.3991322"><ele>117.5</ele><time>2026-04-04T06:00:03.121Z</time></trkpt><trkpt lat="45.6581436" lon="11.3992151"><ele>118.25</ele><time>2026-04-04T06:00:04.123Z</time></trkpt><trkpt lat="45.6582742" lon="11.3992617"><ele>119.0</ele><time>2026-04-04T06:00:05.122Z</time></trkpt><trkpt lat="45.6584012" lon="11.3993443"><ele>119.0</ele><time>2026-04-04T06:00:06.123Z</time></trkpt><trkpt lat="45.6585221" lon="11.399465"><ele>119.0</ele><time>2026-04-04T06:00:07.121Z</time></trkpt><trkpt lat="45.6586479" lon="11.3996107"><ele>119.0</ele><time>2026-04-04T06:00:08.123Z</time></trkpt><trkpt lat="45.6587785" lon="11.3997711"><ele>119.33333333333333</ele><time>2026-04-04T06:00:09.122Z</time></trkpt><trkpt lat="45.6589217" lon="11.3999441"><ele>119.66666666666666</ele><time>2026-04-04T06:00:10.122Z</time></trkpt><trkpt lat="45.6590658" lon="11.4001143"><ele>120.0</ele><time>2026-04-04T06:00:11.122Z</time></trkpt><trkpt lat="45.6592088" lon="11.400296"><ele>120.0</ele><time>2026-04-04T06:00:12.122Z</time></trkpt><trkpt lat="45.6593572" lon="11.4004723"><ele>120.0</ele><time>2026-04-04T06:00:13.122Z</time></trkpt><trkpt lat="45.6595046" lon="11.4006508"><ele>120.0</ele><time>2026-04-04T06:00:14.122Z</time></trkpt><trkpt lat="45.6596525" lon="11.4008303"><ele>120.33333333333334</ele><time>2026-04-04T06:00:15.123Z</time></trkpt><trkpt lat="45.6598036" lon="11.4010061"><ele>120.66666666666667</ele><time>2026-04-04T06:00:16.121Z</time></trkpt><trkpt lat="45.6599551" lon="11.4011827"><ele>121.0</ele><time>2026-04-04T06:00:17.122Z</time></trkpt><trkpt lat="45.6601027" lon="11.4013587"><ele>121.0</ele><time>2026-04-04T06:00:18.122Z</time></trkpt><trkpt lat="45.6602507" lon="11.4015354"><ele>121.0</ele><time>2026-04-04T06:00:19.122Z</time></trkpt><trkpt lat="45.660387" lon="11.4016961"><ele>121.0</ele><time>2026-04-04T06:00:20.122Z</time></trkpt><trkpt lat="45.6605086" lon="11.4018423"><ele>121.0</ele><time>2026-04-04T06:00:21.123Z</time></trkpt><trkpt lat="45.6606152" lon="11.4019644"><ele>121.0</ele><time>2026-04-04T06:00:22.122Z</time></trkpt><trkpt lat="45.6607125" lon="11.4020719"><ele>121.0</ele><time>2026-04-04T06:00:23.121Z</time></trkpt><trkpt lat="45.6608136" lon="11.4021628"><ele>121.0</ele><time>2026-04-04T06:00:24.122Z</time></trkpt><trkpt lat="45.6608891" lon="11.4022431"><ele>121.0</ele><time>2026-04-04T06:00:25.121Z</time></trkpt><trkpt lat="45.6609564" lon="11.4023417"><ele>121.0</ele><time>2026-04-04T06:00:26.122Z</time></trkpt><trkpt lat="45.6610374" lon="11.4024691"><ele>121.0</ele><time>2026-04-04T06:00:27.123Z</time></trkpt><trkpt lat="45.6611506" lon="11.4025898"><ele>121.0</ele><time>2026-04-04T06:00:28.122Z</time></trkpt><trkpt lat="45.6612726" lon="11.4027387"><ele>121.0</ele><time>2026-04-04T06:00:29.122Z</time></trkpt><trkpt lat="45.6613988" lon="11.4028984"><ele>121.0</ele><time>2026-04-04T06:00:30.123Z</time></trkpt><trkpt lat="45.6615359" lon="11.4030649"><ele>121.0</ele><time>2026-04-04T06:00:31.122Z</time></trkpt><trkpt lat="45.661678" lon="11.4032406"><ele>121.0</ele><time>2026-04-04T06:00:32.121Z</time></trkpt><trkpt lat="45.6618249" lon="11.403413"><ele>121.0</ele><time>2026-04-04T06:00:33.122Z</time></trkpt><trkpt lat="45.6619653" lon="11.4035839"><ele>121.0</ele><time>2026-04-04T06:00:34.122Z</time></trkpt><trkpt lat="45.6621036" lon="11.403757"><ele>120.33333333333334</ele><time>2026-04-04T06:00:35.123Z</time></trkpt><trkpt lat="45.6622337" lon="11.403946"><ele>119.66666666666666</ele><time>2026-04-04T06:00:36.122Z</time></trkpt><trkpt lat="45.6623388" lon="11.4041604"><ele>119.0</ele><time>2026-04-04T06:00:37.122Z</time></trkpt><trkpt lat="45.662428" lon="11.4043969"><ele>119.0</ele><time>2026-04-04T06:00:38.121Z</time></trkpt><trkpt lat="45.6625084" lon="11.4046523"><ele>119.0</ele><time>2026-04-04T06:00:39.122Z</time></trkpt><trkpt lat="45.6625744" lon="11.4049177"><ele>119.0</ele><time>2026-04-04T06:00:40.123Z</time></trkpt><trkpt lat="45.6626429" lon="11.4051936"><ele>119.0</ele><time>2026-04-04T06:00:41.122Z</time></trkpt><trkpt lat="45.6627107" lon="11.4054684"><ele>119.0</ele><time>2026-04-04T06:00:42.123Z</time></trkpt><trkpt lat="45.6627788" lon="11.4057496"><ele>119.0</ele><time>2026-04-04T06:00:43.121Z</time></trkpt><trkpt lat="45.6628502" lon="11.4060308"><ele>119.0</ele><time>2026-04-04T06:00:44.122Z</time></trkpt><trkpt lat="45.6629213" lon="11.4062935"><ele>119.0</ele><time>2026-04-04T06:00:45.121Z</time></trkpt><trkpt lat="45.662981" lon="11.4065522"><ele>119.0</ele><time>2026-04-04T06:00:46.122Z</time></trkpt><trkpt lat="45.66302" lon="11.4068277"><ele>118.66666666666666</ele><time>2026-04-04T06:00:47.123Z</time></trkpt><trkpt lat="45.6630514" lon="11.4071128"><ele>118.33333333333334</ele><time>2026-04-04T06:00:48.122Z</time></trkpt><trkpt lat="45.6630247" lon="11.4073888"><ele>118.0</ele><time>2026-04-04T06:00:49.123Z</time></trkpt><trkpt lat="45.6629887" lon="11.4076665"><ele>118.0</ele><time>2026-04-04T06:00:50.121Z</time></trkpt><trkpt lat="45.6629335" lon="11.4079307"><ele>118.0</ele><time>2026-04-04T06:00:51.123Z</time></trkpt><trkpt lat="45.6628343" lon="11.4081655"><ele>118.0</ele><time>2026-04-04T06:00:52.123Z</time></trkpt><trkpt lat="45.6627241" lon="11.4083813"><ele>117.0</ele><time>2026-04-04T06:00:53.123Z</time></trkpt><trkpt lat="45.6626093" lon="11.4085623"><ele>116.0</ele><time>2026-04-04T06:00:54.121Z</time></trkpt><trkpt lat="45.6624966" lon="11.4087126"><ele>115.0</ele><time>2026-04-04T06:00:55.122Z</time></trkpt><trkpt lat="45.6623922" lon="11.4088377"><ele>115.0</ele><time>2026-04-04T06:00:56.122Z</time></trkpt><trkpt lat="45.6622875" lon="11.4089442"><ele>115.0</ele><time>2026-04-04T06:00:57.122Z</time></trkpt><trkpt lat="45.6621747" lon="11.4090113"><ele>115.0</ele><time>2026-04-04T06:00:58.122Z</time></trkpt><trkpt lat="45.662052" lon="11.4090892"><ele>115.0</ele><time>2026-04-04T06:00:59.122Z</time></trkpt><trkpt lat="45.6619277" lon="11.409224"><ele>114.33333333333334</ele><time>2026-04-04T06:01:00.121Z</time></trkpt><trkpt lat="45.6617899" lon="11.4093463"><ele>113.66666666666666</ele><time>2026-04-04T06:01:01.121Z</time></trkpt><trkpt lat="45.6616418" lon="11.4094691"><ele>113.0</ele><time>2026-04-04T06:01:02.123Z</time></trkpt><trkpt lat="45.6614805" lon="11.4095966"><ele>113.0</ele><time>2026-04-04T06:01:03.121Z</time></trkpt><trkpt lat="45.6613124" lon="11.4097256"><ele>113.0</ele><time>2026-04-04T06:01:04.122Z</time></trkpt><trkpt lat="45.6611386" lon="11.4098528"><ele>113.0</ele><time>2026-04-04T06:01:05.121Z</time></trkpt><trkpt lat="45.6609629" lon="11.409984"><ele>113.0</ele><time>2026-04-04T06:01:06.121Z</time></trkpt><trkpt lat="45.6607795" lon="11.4101279"><ele>113.0</ele><time>2026-04-04T06:01:07.121Z</time></trkpt><trkpt lat="45.6606048" lon="11.4102571"><ele>113.0</ele><time>2026-04-04T06:01:08.123Z</time></trkpt><trkpt lat="45.6604267" lon="11.4103891"><ele>112.66666666666666</ele><time>2026-04-04T06:01:09.121Z</time></trkpt><trkpt lat="45.6602463" lon="11.4105195"><ele>112.33333333333334</ele><time>2026-04-04T06:01:10.122Z</time></trkpt><trkpt lat="45.6600706" lon="11.410649"><ele>112.0</ele><time>2026-04-04T06:01:11.123Z</time></trkpt><trkpt lat="45.6598924" lon="11.4107794"><ele>112.0</ele><time>2026-04-04T06:01:12.123Z</time></trkpt><trkpt lat="45.6597125" lon="11.410911"><ele>112.0</ele><time>2026-04-04T06:01:13.122Z</time></trkpt><trkpt lat="45.6595324" lon="11.4110425"><ele>112.0</ele><time>2026-04-04T06:01:14.121Z</time></trkpt><trkpt lat="45.6593529" lon="11.4111787"><ele>112.0</ele><time>2026-04-04T06:01:15.122Z</time></trkpt><trkpt lat="45.6591772" lon="11.4113113"><ele>112.0</ele><time>2026-04-04T06:01:16.122Z</time></trkpt><trkpt lat="45.6590049" lon="11.4114506"><ele>112.0</ele><time>2026-04-04T06:01:17.122Z</time></trkpt><trkpt lat="45.6588328" lon="11.41158"><ele>112.0</ele><time>2026-04-04T06:01:18.121Z</time></trkpt><trkpt lat="45.6586669" lon="11.4116959"><ele>112.0</ele><time>2026-04-04T06:01:19.121Z</time></trkpt><trkpt lat="45.6585062" lon="11.4118139"><ele>112.0</ele><time>2026-04-04T06:01:20.122Z</time></trkpt><trkpt lat="45.6583567" lon="11.4119252"><ele>111.33333333333334</ele><time>2026-04-04T06:01:21.122Z</time></trkpt><trkpt lat="45.6582142" lon="11.4120346"><ele>110.66666666666666</ele><time>2026-04-04T06:01:22.122Z</time></trkpt><trkpt lat="45.6580845" lon="11.4121458"><ele>110.0</ele><time>2026-04-04T06:01:23.121Z</time></trkpt><trkpt lat="45.6579792" lon="11.4122874"><ele>109.75</ele><time>2026-04-04T06:01:24.121Z</time></trkpt><trkpt lat="45.657907" lon="11.4124599"><ele>109.5</ele><time>2026-04-04T06:01:25.122Z</time></trkpt><trkpt lat="45.6578765" lon="11.4126587"><ele>109.25</ele><time>2026-04-04T06:01:26.123Z</time></trkpt><trkpt lat="45.6578835" lon="11.4128624"><ele>109.0</ele><time>2026-04-04T06:01:27.121Z</time></trkpt><trkpt lat="45.6579183" lon="11.4130647"><ele>109.0</ele><time>2026-04-04T06:01:28.121Z</time></trkpt><trkpt lat="45.6579697" lon="11.4132738"><ele>109.0</ele><time>2026-04-04T06:01:29.122Z</time></trkpt><trkpt lat="45.6580289" lon="11.4134825"><ele>109.0</ele><time>2026-04-04T06:01:30.121Z</time></trkpt><trkpt lat="45.6580832" lon="11.4136768"><ele>109.0</ele><time>2026-04-04T06:01:31.121Z</time></trkpt><trkpt lat="45.6581288" lon="11.4138496"><ele>109.0</ele><time>2026-04-04T06:01:32.122Z</time></trkpt><trkpt lat="45.6581674" lon="11.4140069"><ele>109.0</ele><time>2026-04-04T06:01:33.122Z</time></trkpt><trkpt lat="45.6581894" lon="11.4141384"><ele>109.0</ele><time>2026-04-04T06:01:34.123Z</time></trkpt><trkpt lat="45.6581895" lon="11.4142575"><ele>109.0</ele><time>2026-04-04T06:01:35.123Z</time></trkpt><trkpt lat="45.6581607" lon="11.4143688"><ele>109.0</ele><time>2026-04-04T06:01:36.122Z</time></trkpt><trkpt lat="45.6581079" lon="11.4144729"><ele>109.0</ele><time>2026-04-04T06:01:37.122Z</time></trkpt><trkpt lat="45.6580503" lon="11.4145858"><ele>109.0</ele><time>2026-04-04T06:01:38.121Z</time></trkpt><trkpt lat="45.6580411" lon="11.4147199"><ele>109.0</ele><time>2026-04-04T06:01:39.122Z</time></trkpt><trkpt lat="45.6580608" lon="11.4148426"><ele>109.0</ele><time>2026-04-04T06:01:40.122Z</time></trkpt><trkpt lat="45.6581199" lon="11.4149299"><ele>109.0</ele><time>2026-04-04T06:01:41.122Z</time></trkpt><trkpt lat="45.6582007" lon="11.4149862"><ele>109.0</ele><time>2026-04-04T06:01:42.121Z</time></trkpt><trkpt lat="45.6583031" lon="11.4150374"><ele>109.0</ele><time>2026-04-04T06:01:43.121Z</time></trkpt><trkpt lat="45.6583915" lon="11.4151255"><ele>109.0</ele><time>2026-04-04T06:01:44.121Z</time></trkpt><trkpt lat="45.6584602" lon="11.4152626"><ele>109.0</ele><time>2026-04-04T06:01:45.123Z</time></trkpt><trkpt lat="45.6585097" lon="11.4154398"><ele>109.33333333333334</ele><time>2026-04-04T06:01:46.122Z</time></trkpt><trkpt lat="45.6585496" lon="11.4156534"><ele>109.66666666666666</ele><time>2026-04-04T06:01:47.122Z</time></trkpt><trkpt lat="45.658604" lon="11.4158914"><ele>110.0</ele><time>2026-04-04T06:01:48.123Z</time></trkpt><trkpt lat="45.6586588" lon="11.4161498"><ele>110.33333333333333</ele><time>2026-04-04T06:01:49.123Z</time></trkpt><trkpt lat="45.6587213" lon="11.4164119"><ele>110.66666666666666</ele><time>2026-04-04T06:01:50.122Z</time></trkpt><trkpt lat="45.6587837" lon="11.4166862"><ele>111.0</ele><time>2026-04-04T06:01:51.123Z</time></trkpt><trkpt lat="45.6588478" lon="11.4169661"><ele>110.66666666666666</ele><time>2026-04-04T06:01:52.123Z</time></trkpt><trkpt lat="45.6589103" lon="11.4172394"><ele>110.33333333333333</ele><time>2026-04-04T06:01:53.121Z</time></trkpt><trkpt lat="45.6589707" lon="11.4175131"><ele>110.0</ele><time>2026-04-04T06:01:54.121Z</time></trkpt><trkpt lat="45.6590327" lon="11.4177859"><ele>109.66666666666666</ele><time>2026-04-04T06:01:55.123Z</time></trkpt><trkpt lat="45.6590924" lon="11.4180556"><ele>109.33333333333334</ele><time>2026-04-04T06:01:56.122Z</time></trkpt><trkpt lat="45.6591565" lon="11.4183283"><ele>109.0</ele><time>2026-04-04T06:01:57.121Z</time></trkpt><trkpt lat="45.6592189" lon="11.4186041"><ele>108.66666666666667</ele><time>2026-04-04T06:01:58.121Z</time></trkpt><trkpt lat="45.6592844" lon="11.4188822"><ele>108.33333333333334</ele><time>2026-04-04T06:01:59.121Z</time></trkpt><trkpt lat="45.6593468" lon="11.4191696"><ele>108.0</ele><time>2026-04-04T06:02:00.122Z</time></trkpt><trkpt lat="45.6594117" lon="11.4194614"><ele>107.66666666666666</ele><time>2026-04-04T06:02:01.121Z</time></trkpt><trkpt lat="45.6594782" lon="11.4197591"><ele>107.33333333333333</ele><time>2026-04-04T06:02:02.121Z</time></trkpt><trkpt lat="45.6595448" lon="11.4200501"><ele>107.0</ele><time>2026-04-04T06:02:03.123Z</time></trkpt><trkpt lat="45.6596147" lon="11.4203557"><ele>107.0</ele><time>2026-04-04T06:02:04.122Z</time></trkpt><trkpt lat="45.6596848" lon="11.4206502"><ele>107.0</ele><time>2026-04-04T06:02:05.122Z</time></trkpt><trkpt lat="45.6597504" lon="11.4209459"><ele>107.0</ele><time>2026-04-04T06:02:06.121Z</time></trkpt><trkpt lat="45.6598235" lon="11.4212479"><ele>107.5</ele><time>2026-04-04T06:02:07.123Z</time></trkpt><trkpt lat="45.6598912" lon="11.4215553"><ele>108.0</ele><time>2026-04-04T06:02:08.121Z</time></trkpt><trkpt lat="45.6599659" lon="11.4218721"><ele>108.5</ele><time>2026-04-04T06:02:09.122Z</time></trkpt><trkpt lat="45.660042" lon="11.4222051"><ele>109.0</ele><time>2026-04-04T06:02:10.121Z</time></trkpt><trkpt lat="45.6601209" lon="11.4225554"><ele>109.0</ele><time>2026-04-04T06:02:11.123Z</time></trkpt><trkpt lat="45.6602001" lon="11.4229138"><ele>109.0</ele><time>2026-04-04T06:02:12.121Z</time></trkpt><trkpt lat="45.660281" lon="11.4232826"><ele>108.0</ele><time>2026-04-04T06:02:13.122Z</time></trkpt><trkpt lat="45.6603632" lon="11.4236501"><ele>107.0</ele><time>2026-04-04T06:02:14.121Z</time></trkpt><trkpt lat="45.6604507" lon="11.424021"><ele>107.0</ele><time>2026-04-04T06:02:15.122Z</time></trkpt><trkpt lat="45.6605391" lon="11.4243952"><ele>107.0</ele><time>2026-04-04T06:02:16.121Z</time></trkpt><trkpt lat="45.6606226" lon="11.4247649"><ele>107.5</ele><time>2026-04-04T06:02:17.122Z</time></trkpt><trkpt lat="45.6607053" lon="11.4251353"><ele>108.0</ele><time>2026-04-04T06:02:18.121Z</time></trkpt><trkpt lat="45.6607899" lon="11.4255044"><ele>108.0</ele><time>2026-04-04T06:02:19.122Z</time></trkpt><trkpt lat="45.660875" lon="11.425871"><ele>108.0</ele><time>2026-04-04T06:02:20.122Z</time></trkpt><trkpt lat="45.6609607" lon="11.4262406"><ele>108.0</ele><time>2026-04-04T06:02:21.122Z</time></trkpt><trkpt lat="45.6610436" lon="11.4266167"><ele>108.0</ele><time>2026-04-04T06:02:22.122Z</time></trkpt><trkpt lat="45.6611308" lon="11.4269956"><ele>107.5</ele><time>2026-04-04T06:02:23.124Z</time></trkpt><trkpt lat="45.6612193" lon="11.4273768"><ele>107.0</ele><time>2026-04-04T06:02:24.122Z</time></trkpt><trkpt lat="45.6613049" lon="11.4277631"><ele>106.0</ele><time>2026-04-04T06:02:25.123Z</time></trkpt><trkpt lat="45.6613919" lon="11.4281476"><ele>105.0</ele><time>2026-04-04T06:02:26.122Z</time></trkpt><trkpt lat="45.6614768" lon="11.4285315"><ele>105.5</ele><time>2026-04-04T06:02:27.122Z</time></trkpt><trkpt lat="45.6615663" lon="11.4289163"><ele>106.0</ele><time>2026-04-04T06:02:28.123Z</time></trkpt><trkpt lat="45.6616542" lon="11.4292982"><ele>106.0</ele><time>2026-04-04T06:02:29.121Z</time></trkpt><trkpt lat="45.6617391" lon="11.4296828"><ele>106.0</ele><time>2026-04-04T06:02:30.123Z</time></trkpt><trkpt lat="45.6618219" lon="11.4300629"><ele>106.0</ele><time>2026-04-04T06:02:31.123Z</time></trkpt><trkpt lat="45.6619086" lon="11.4304375"><ele>106.0</ele><time>2026-04-04T06:02:32.121Z</time></trkpt><trkpt lat="45.661995" lon="11.4308178"><ele>106.0</ele><time>2026-04-04T06:02:33.122Z</time></trkpt><trkpt lat="45.6620806" lon="11.431196"><ele>106.0</ele><time>2026-04-04T06:02:34.123Z</time></trkpt><trkpt lat="45.6621661" lon="11.4315657"><ele>106.0</ele><time>2026-04-04T06:02:35.123Z</time></trkpt><trkpt lat="45.6622461" lon="11.4319316"><ele>106.0</ele><time>2026-04-04T06:02:36.123Z</time></trkpt><trkpt lat="45.6623285" lon="11.4323011"><ele>105.5</ele><time>2026-04-04T06:02:37.122Z</time></trkpt><trkpt lat="45.662408" lon="11.4326629"><ele>105.0</ele><time>2026-04-04T06:02:38.121Z</time></trkpt><trkpt lat="45.6624883" lon="11.4330196"><ele>105.0</ele><time>2026-04-04T06:02:39.123Z</time></trkpt><trkpt lat="45.6625692" lon="11.4333718"><ele>105.0</ele><time>2026-04-04T06:02:40.122Z</time></trkpt><trkpt lat="45.6626487" lon="11.4337254"><ele>105.0</ele><time>2026-04-04T06:02:41.121Z</time></trkpt><trkpt lat="45.662727" lon="11.4340641"><ele>105.0</ele><time>2026-04-04T06:02:42.122Z</time></trkpt><trkpt lat="45.6628001" lon="11.4343888"><ele>104.0</ele><time>2026-04-04T06:02:43.122Z</time></trkpt><trkpt lat="45.6628725" lon="11.4347133"><ele>103.0</ele><time>2026-04-04T06:02:44.121Z</time></trkpt><trkpt lat="45.6629491" lon="11.435036"><ele>103.0</ele><time>2026-04-04T06:02:45.122Z</time></trkpt><trkpt lat="45.6630315" lon="11.4353699"><ele>103.0</ele><time>2026-04-04T06:02:46.123Z</time></trkpt><trkpt lat="45.6631174" lon="11.4357126"><ele>103.0</ele><time>2026-04-04T06:02:47.122Z</time></trkpt><trkpt lat="45.6631938" lon="11.4360578"><ele>103.0</ele><time>2026-04-04T06:02:48.122Z</time></trkpt><trkpt lat="45.6632645" lon="11.4364123"><ele>103.0</ele><time>2026-04-04T06:02:49.123Z</time></trkpt><trkpt lat="45.6633341" lon="11.4367595"><ele>103.0</ele><time>2026-04-04T06:02:50.122Z</time></trkpt><trkpt lat="45.6634064" lon="11.4371049"><ele>103.5</ele><time>2026-04-04T06:02:51.122Z</time></trkpt><trkpt lat="45.6634833" lon="11.4374467"><ele>104.0</ele><time>2026-04-04T06:02:52.122Z</time></trkpt><trkpt lat="45.6635542" lon="11.4377778"><ele>104.5</ele><time>2026-04-04T06:02:53.124Z</time></trkpt><trkpt lat="45.6636258" lon="11.4380936"><ele>105.0</ele><time>2026-04-04T06:02:54.121Z</time></trkpt><trkpt lat="45.6636921" lon="11.4384086"><ele>105.0</ele><time>2026-04-04T06:02:55.122Z</time></trkpt><trkpt lat="45.6637623" lon="11.4387141"><ele>105.0</ele><time>2026-04-04T06:02:56.122Z</time></trkpt><trkpt lat="45.6638297" lon="11.4390161"><ele>105.0</ele><time>2026-04-04T06:02:57.123Z</time></trkpt><trkpt lat="45.6639011" lon="11.4393203"><ele>105.0</ele><time>2026-04-04T06:02:58.122Z</time></trkpt><trkpt lat="45.6639767" lon="11.4396143"><ele>105.0</ele><time>2026-04-04T06:02:59.122Z</time></trkpt><trkpt lat="45.6640578" lon="11.4398937"><ele>105.0</ele><time>2026-04-04T06:03:00.123Z</time></trkpt><trkpt lat="45.6641389" lon="11.4401632"><ele>105.0</ele><time>2026-04-04T06:03:01.122Z</time></trkpt><trkpt lat="45.6642225" lon="11.4404206"><ele>105.0</ele><time>2026-04-04T06:03:02.122Z</time></trkpt><trkpt lat="45.6643042" lon="11.4406689"><ele>105.0</ele><time>2026-04-04T06:03:03.122Z</time></trkpt><trkpt lat="45.6643843" lon="11.4409151"><ele>104.66666666666666</ele><time>2026-04-04T06:03:04.121Z</time></trkpt><trkpt lat="45.6644647" lon="11.4411567"><ele>104.33333333333333</ele><time>2026-04-04T06:03:05.122Z</time></trkpt><trkpt lat="45.6645427" lon="11.4414021"><ele>104.0</ele><time>2026-04-04T06:03:06.122Z</time></trkpt><trkpt lat="45.6646212" lon="11.4416492"><ele>104.0</ele><time>2026-04-04T06:03:07.123Z</time></trkpt><trkpt lat="45.6647007" lon="11.4418967"><ele>104.0</ele><time>2026-04-04T06:03:08.123Z</time></trkpt><trkpt lat="45.6647765" lon="11.44214"><ele>104.0</ele><time>2026-04-04T06:03:09.121Z</time></trkpt><trkpt lat="45.664838" lon="11.4423782"><ele>104.0</ele><time>2026-04-04T06:03:10.123Z</time></trkpt><trkpt lat="45.6648899" lon="11.4426158"><ele>104.0</ele><time>2026-04-04T06:03:11.121Z</time></trkpt><trkpt lat="45.6649362" lon="11.4428593"><ele>104.0</ele><time>2026-04-04T06:03:12.122Z</time></trkpt><trkpt lat="45.6649858" lon="11.4430985"><ele>104.0</ele><time>2026-04-04T06:03:13.123Z</time></trkpt><trkpt lat="45.6650432" lon="11.4433463"><ele>104.0</ele><time>2026-04-04T06:03:14.122Z</time></trkpt><trkpt lat="45.6651036" lon="11.4435893"><ele>104.0</ele><time>2026-04-04T06:03:15.122Z</time></trkpt><trkpt lat="45.6651672" lon="11.4438345"><ele>104.33333333333333</ele><time>2026-04-04T06:03:16.122Z</time></trkpt><trkpt lat="45.6652367" lon="11.4440786"><ele>104.66666666666666</ele><time>2026-04-04T06:03:17.123Z</time></trkpt><trkpt lat="45.6653034" lon="11.4443181"><ele>105.0</ele><time>2026-04-04T06:03:18.123Z</time></trkpt><trkpt lat="45.6653704" lon="11.4445645"><ele>105.0</ele><time>2026-04-04T06:03:19.123Z</time></trkpt><trkpt lat="45.6654391" lon="11.4448109"><ele>105.0</ele><time>2026-04-04T06:03:20.123Z</time></trkpt><trkpt lat="45.6655158" lon="11.4450706"><ele>105.0</ele><time>2026-04-04T06:03:21.122Z</time></trkpt><trkpt lat="45.6655987" lon="11.4453425"><ele>104.66666666666666</ele><time>2026-04-04T06:03:22.122Z</time></trkpt><trkpt lat="45.6656834" lon="11.4456273"><ele>104.33333333333333</ele><time>2026-04-04T06:03:23.122Z</time></trkpt><trkpt lat="45.6657625" lon="11.4459236"><ele>104.0</ele><time>2026-04-04T06:03:24.122Z</time></trkpt><trkpt lat="45.6658387" lon="11.4462087"><ele>104.0</ele><time>2026-04-04T06:03:25.123Z</time></trkpt><trkpt lat="45.6659129" lon="11.4464974"><ele>104.0</ele><time>2026-04-04T06:03:26.122Z</time></trkpt><trkpt lat="45.6659831" lon="11.4467838"><ele>104.0</ele><time>2026-04-04T06:03:27.122Z</time></trkpt><trkpt lat="45.666058" lon="11.4470701"><ele>104.66666666666666</ele><time>2026-04-04T06:03:28.123Z</time></trkpt><trkpt lat="45.6661353" lon="11.4473547"><ele>105.33333333333334</ele><time>2026-04-04T06:03:29.123Z</time></trkpt><trkpt lat="45.6662116" lon="11.4476424"><ele>106.0</ele><time>2026-04-04T06:03:30.123Z</time></trkpt><trkpt lat="45.6662874" lon="11.4479248"><ele>105.33333333333334</ele><time>2026-04-04T06:03:31.123Z</time></trkpt><trkpt lat="45.6663668" lon="11.4482095"><ele>104.66666666666666</ele><time>2026-04-04T06:03:32.124Z</time></trkpt><trkpt lat="45.6664458" lon="11.448494"><ele>104.0</ele><time>2026-04-04T06:03:33.123Z</time></trkpt><trkpt lat="45.666526" lon="11.4487804"><ele>103.0</ele><time>2026-04-04T06:03:34.122Z</time></trkpt><trkpt lat="45.666603" lon="11.4490669"><ele>102.0</ele><time>2026-04-04T06:03:35.121Z</time></trkpt><trkpt lat="45.6666836" lon="11.4493576"><ele>101.0</ele><time>2026-04-04T06:03:36.122Z</time></trkpt><trkpt lat="45.6667656" lon="11.4496476"><ele>101.0</ele><time>2026-04-04T06:03:37.123Z</time></trkpt><trkpt lat="45.6668474" lon="11.4499315"><ele>101.0</ele><time>2026-04-04T06:03:38.123Z</time></trkpt><trkpt lat="45.666928" lon="11.4502184"><ele>101.0</ele><time>2026-04-04T06:03:39.123Z</time></trkpt><trkpt lat="45.6670045" lon="11.4505059"><ele>100.66666666666666</ele><time>2026-04-04T06:03:40.122Z</time></trkpt><trkpt lat="45.6670796" lon="11.4507921"><ele>100.33333333333334</ele><time>2026-04-04T06:03:41.122Z</time></trkpt><trkpt lat="45.6671576" lon="11.4510724"><ele>100.0</ele><time>2026-04-04T06:03:42.123Z</time></trkpt><trkpt lat="45.6672307" lon="11.4513515"><ele>100.0</ele><time>2026-04-04T06:03:43.122Z</time></trkpt><trkpt lat="45.6673073" lon="11.4516294"><ele>100.0</ele><time>2026-04-04T06:03:44.123Z</time></trkpt><trkpt lat="45.6673833" lon="11.4519077"><ele>100.0</ele><time>2026-04-04T06:03:45.122Z</time></trkpt><trkpt lat="45.6674623" lon="11.4521855"><ele>100.33333333333334</ele><time>2026-04-04T06:03:46.124Z</time></trkpt><trkpt lat="45.6675388" lon="11.45247"><ele>100.66666666666666</ele><time>2026-04-04T06:03:47.122Z</time></trkpt><trkpt lat="45.6676162" lon="11.4527521"><ele>101.0</ele><time>2026-04-04T06:03:48.122Z</time></trkpt><trkpt lat="45.667692" lon="11.4530368"><ele>101.0</ele><time>2026-04-04T06:03:49.124Z</time></trkpt><trkpt lat="45.6677706" lon="11.4533242"><ele>101.0</ele><time>2026-04-04T06:03:50.123Z</time></trkpt><trkpt lat="45.6678487" lon="11.4536087"><ele>101.0</ele><time>2026-04-04T06:03:51.122Z</time></trkpt><trkpt lat="45.6679256" lon="11.4538946"><ele>101.0</ele><time>2026-04-04T06:03:52.122Z</time></trkpt><trkpt lat="45.6680026" lon="11.4541746"><ele>101.0</ele><time>2026-04-04T06:03:53.123Z</time></trkpt><trkpt lat="45.6680786" lon="11.4544615"><ele>101.0</ele><time>2026-04-04T06:03:54.122Z</time></trkpt><trkpt lat="45.6681545" lon="11.4547393"><ele>101.0</ele><time>2026-04-04T06:03:55.123Z</time></trkpt><trkpt lat="45.668231" lon="11.4550151"><ele>101.0</ele><time>2026-04-04T06:03:56.122Z</time></trkpt><trkpt lat="45.6683085" lon="11.4552853"><ele>101.0</ele><time>2026-04-04T06:03:57.122Z</time></trkpt><trkpt lat="45.6683838" lon="11.4555527"><ele>100.66666666666666</ele><time>2026-04-04T06:03:58.123Z</time></trkpt><trkpt lat="45.6684579" lon="11.4558157"><ele>100.33333333333334</ele><time>2026-04-04T06:03:59.122Z</time></trkpt><trkpt lat="45.6685318" lon="11.4560746"><ele>100.0</ele><time>2026-04-04T06:04:00.122Z</time></trkpt><trkpt lat="45.6686026" lon="11.4563355"><ele>100.0</ele><time>2026-04-04T06:04:01.122Z</time></trkpt><trkpt lat="45.6686748" lon="11.4565952"><ele>100.0</ele><time>2026-04-04T06:04:02.123Z</time></trkpt><trkpt lat="45.6687468" lon="11.4568489"><ele>100.0</ele><time>2026-04-04T06:04:03.123Z</time></trkpt><trkpt lat="45.6688114" lon="11.4570802"><ele>99.5</ele><time>2026-04-04T06:04:04.123Z</time></trkpt><trkpt lat="45.6688705" lon="11.4572947"><ele>99.0</ele><time>2026-04-04T06:04:05.122Z</time></trkpt><trkpt lat="45.6689169" lon="11.4574791"><ele>98.5</ele><time>2026-04-04T06:04:06.122Z</time></trkpt><trkpt lat="45.668944" lon="11.45763"><ele>98.0</ele><time>2026-04-04T06:04:07.123Z</time></trkpt><trkpt lat="45.6689531" lon="11.4577895"><ele>97.75</ele><time>2026-04-04T06:04:08.124Z</time></trkpt><trkpt lat="45.6689387" lon="11.4579544"><ele>97.5</ele><time>2026-04-04T06:04:09.124Z</time></trkpt><trkpt lat="45.6689162" lon="11.4581346"><ele>97.25</ele><time>2026-04-04T06:04:10.122Z</time></trkpt><trkpt lat="45.6689248" lon="11.4583097"><ele>97.0</ele><time>2026-04-04T06:04:11.122Z</time></trkpt><trkpt lat="45.6689682" lon="11.4584693"><ele>97.0</ele><time>2026-04-04T06:04:12.122Z</time></trkpt><trkpt lat="45.6690461" lon="11.4585905"><ele>97.0</ele><time>2026-04-04T06:04:13.122Z</time></trkpt><trkpt lat="45.6691473" lon="11.4586955"><ele>97.0</ele><time>2026-04-04T06:04:14.122Z</time></trkpt><trkpt lat="45.6692448" lon="11.4588288"><ele>97.0</ele><time>2026-04-04T06:04:15.123Z</time></trkpt><trkpt lat="45.6693269" lon="11.4589895"><ele>97.75</ele><time>2026-04-04T06:04:16.123Z</time></trkpt><trkpt lat="45.6693985" lon="11.4591735"><ele>98.5</ele><time>2026-04-04T06:04:17.124Z</time></trkpt><trkpt lat="45.6694656" lon="11.459366"><ele>99.25</ele><time>2026-04-04T06:04:18.123Z</time></trkpt><trkpt lat="45.669535" lon="11.4595565"><ele>100.0</ele><time>2026-04-04T06:04:19.124Z</time></trkpt><trkpt lat="45.6696098" lon="11.4597417"><ele>100.33333333333334</ele><time>2026-04-04T06:04:20.123Z</time></trkpt><trkpt lat="45.6696872" lon="11.4599242"><ele>100.66666666666666</ele><time>2026-04-04T06:04:21.125Z</time></trkpt><trkpt lat="45.669769" lon="11.4601155"><ele>101.0</ele><time>2026-04-04T06:04:22.123Z</time></trkpt><trkpt lat="45.6698536" lon="11.4602999"><ele>101.5</ele><time>2026-04-04T06:04:23.124Z</time></trkpt><trkpt lat="45.6699378" lon="11.4604834"><ele>102.0</ele><time>2026-04-04T06:04:24.122Z</time></trkpt><trkpt lat="45.670017" lon="11.4606561"><ele>102.5</ele><time>2026-04-04T06:04:25.123Z</time></trkpt><trkpt lat="45.6700951" lon="11.4608305"><ele>103.0</ele><time>2026-04-04T06:04:26.122Z</time></trkpt><trkpt lat="45.6701735" lon="11.4610026"><ele>103.0</ele><time>2026-04-04T06:04:27.122Z</time></trkpt><trkpt lat="45.6702525" lon="11.4611757"><ele>103.0</ele><time>2026-04-04T06:04:28.122Z</time></trkpt><trkpt lat="45.6703328" lon="11.4613574"><ele>103.0</ele><time>2026-04-04T06:04:29.123Z</time></trkpt><trkpt lat="45.6704152" lon="11.461529"><ele>103.0</ele><time>2026-04-04T06:04:30.123Z</time></trkpt><trkpt lat="45.6704919" lon="11.4617019"><ele>103.25</ele><time>2026-04-04T06:04:31.122Z</time></trkpt><trkpt lat="45.6705668" lon="11.4618703"><ele>103.5</ele><time>2026-04-04T06:04:32.122Z</time></trkpt><trkpt lat="45.6706387" lon="11.4620257"><ele>103.75</ele><time>2026-04-04T06:04:33.124Z</time></trkpt><trkpt lat="45.6707072" lon="11.4621756"><ele>104.0</ele><time>2026-04-04T06:04:34.123Z</time></trkpt><trkpt lat="45.6707726" lon="11.4623263"><ele>104.0</ele><time>2026-04-04T06:04:35.122Z</time></trkpt><trkpt lat="45.6708407" lon="11.4624696"><ele>104.0</ele><time>2026-04-04T06:04:36.123Z</time></trkpt><trkpt lat="45.6709124" lon="11.4626189"><ele>104.0</ele><time>2026-04-04T06:04:37.123Z</time></trkpt><trkpt lat="45.6709838" lon="11.4627798"><ele>104.0</ele><time>2026-04-04T06:04:38.123Z</time></trkpt><trkpt lat="45.6710606" lon="11.4629375"><ele>103.25</ele><time>2026-04-04T06:04:39.124Z</time></trkpt><trkpt lat="45.6711354" lon="11.4631069"><ele>102.5</ele><time>2026-04-04T06:04:40.122Z</time></trkpt><trkpt lat="45.6712138" lon="11.4632699"><ele>101.75</ele><time>2026-04-04T06:04:41.122Z</time></trkpt><trkpt lat="45.6712921" lon="11.4634319"><ele>101.0</ele><time>2026-04-04T06:04:42.124Z</time></trkpt><trkpt lat="45.6713661" lon="11.4635876"><ele>101.0</ele><time>2026-04-04T06:04:43.123Z</time></trkpt><trkpt lat="45.6714402" lon="11.4637509"><ele>101.0</ele><time>2026-04-04T06:04:44.123Z</time></trkpt><trkpt lat="45.6715169" lon="11.4639094"><ele>101.0</ele><time>2026-04-04T06:04:45.122Z</time></trkpt><trkpt lat="45.6715954" lon="11.4640754"><ele>101.0</ele><time>2026-04-04T06:04:46.122Z</time></trkpt><trkpt lat="45.6716699" lon="11.4642527"><ele>101.0</ele><time>2026-04-04T06:04:47.123Z</time></trkpt><trkpt lat="45.6717495" lon="11.4644317"><ele>101.0</ele><time>2026-04-04T06:04:48.124Z</time></trkpt><trkpt lat="45.6718341" lon="11.4646138"><ele>101.0</ele><time>2026-04-04T06:04:49.124Z</time></trkpt><trkpt lat="45.6719206" lon="11.4647997"><ele>101.66666666666666</ele><time>2026-04-04T06:04:50.122Z</time></trkpt><trkpt lat="45.6720094" lon="11.464987"><ele>102.33333333333334</ele><time>2026-04-04T06:04:51.123Z</time></trkpt><trkpt lat="45.6720979" lon="11.4651833"><ele>103.0</ele><time>2026-04-04T06:04:52.124Z</time></trkpt><trkpt lat="45.6721873" lon="11.4653761"><ele>102.66666666666667</ele><time>2026-04-04T06:04:53.123Z</time></trkpt><trkpt lat="45.6722796" lon="11.4655659"><ele>102.33333333333334</ele><time>2026-04-04T06:04:54.123Z</time></trkpt><trkpt lat="45.6723674" lon="11.4657498"><ele>102.0</ele><time>2026-04-04T06:04:55.123Z</time></trkpt><trkpt lat="45.672454" lon="11.4659342"><ele>102.0</ele><time>2026-04-04T06:04:56.122Z</time></trkpt><trkpt lat="45.6725416" lon="11.4661158"><ele>102.0</ele><time>2026-04-04T06:04:57.123Z</time></trkpt><trkpt lat="45.6726275" lon="11.4663028"><ele>102.0</ele><time>2026-04-04T06:04:58.123Z</time></trkpt><trkpt lat="45.6727193" lon="11.4664901"><ele>101.33333333333334</ele><time>2026-04-04T06:04:59.123Z</time></trkpt><trkpt lat="45.6728186" lon="11.4666781"><ele>100.66666666666667</ele><time>2026-04-04T06:05:00.124Z</time></trkpt><trkpt lat="45.6729276" lon="11.4668565"><ele>100.0</ele><time>2026-04-04T06:05:01.122Z</time></trkpt><trkpt lat="45.6730431" lon="11.4670338"><ele>99.66666666666667</ele><time>2026-04-04T06:05:02.123Z</time></trkpt><trkpt lat="45.6731618" lon="11.4672095"><ele>99.33333333333334</ele><time>2026-04-04T06:05:03.123Z</time></trkpt><trkpt lat="45.6732863" lon="11.4673811"><ele>99.0</ele><time>2026-04-04T06:05:04.122Z</time></trkpt><trkpt lat="45.6734189" lon="11.4675506"><ele>99.0</ele><time>2026-04-04T06:05:05.123Z</time></trkpt><trkpt lat="45.6735556" lon="11.467715"><ele>99.0</ele><time>2026-04-04T06:05:06.123Z</time></trkpt><trkpt lat="45.6736954" lon="11.4678838"><ele>99.0</ele><time>2026-04-04T06:05:07.124Z</time></trkpt><trkpt lat="45.6738395" lon="11.4680514"><ele>99.0</ele><time>2026-04-04T06:05:08.123Z</time></trkpt><trkpt lat="45.6739852" lon="11.4682218"><ele>99.0</ele><time>2026-04-04T06:05:09.123Z</time></trkpt><trkpt lat="45.6741324" lon="11.4683895"><ele>99.0</ele><time>2026-04-04T06:05:10.122Z</time></trkpt><trkpt lat="45.6742788" lon="11.4685661"><ele>99.0</ele><time>2026-04-04T06:05:11.123Z</time></trkpt><trkpt lat="45.6744228" lon="11.4687525"><ele>99.0</ele><time>2026-04-04T06:05:12.122Z</time></trkpt><trkpt lat="45.6745476" lon="11.4689125"><ele>99.0</ele><time>2026-04-04T06:05:13.123Z</time></trkpt><trkpt lat="45.6746724" lon="11.4690627"><ele>100.0</ele><time>2026-04-04T06:05:14.123Z</time></trkpt><trkpt lat="45.6747904" lon="11.4691997"><ele>101.0</ele><time>2026-04-04T06:05:15.122Z</time></trkpt><trkpt lat="45.6748965" lon="11.4693346"><ele>102.0</ele><time>2026-04-04T06:05:16.123Z</time></trkpt><trkpt lat="45.6749987" lon="11.4694627"><ele>103.0</ele><time>2026-04-04T06:05:17.123Z</time></trkpt><trkpt lat="45.6750958" lon="11.4695836"><ele>103.0</ele><time>2026-04-04T06:05:18.122Z</time></trkpt><trkpt lat="45.6751905" lon="11.4696988"><ele>103.0</ele><time>2026-04-04T06:05:19.123Z</time></trkpt><trkpt lat="45.6752712" lon="11.4697948"><ele>103.0</ele><time>2026-04-04T06:05:20.123Z</time></trkpt><trkpt lat="45.6753412" lon="11.4698802"><ele>103.0</ele><time>2026-04-04T06:05:21.124Z</time></trkpt><trkpt lat="45.675408" lon="11.4699632"><ele>103.0</ele><time>2026-04-04T06:05:22.123Z</time></trkpt><trkpt lat="45.6754583" lon="11.4700275"><ele>103.0</ele><time>2026-04-04T06:05:23.123Z</time></trkpt><trkpt lat="45.6755418" lon="11.4701302"><ele>103.0</ele><time>2026-04-04T06:05:25.122Z</time></trkpt><trkpt lat="45.6756433" lon="11.4702503"><ele>103.0</ele><time>2026-04-04T06:05:27.122Z</time></trkpt><trkpt lat="45.675706" lon="11.4703243"><ele>103.0</ele><time>2026-04-04T06:05:28.122Z</time></trkpt><trkpt lat="45.675778" lon="11.470412"><ele>103.0</ele><time>2026-04-04T06:05:29.122Z</time></trkpt><trkpt lat="45.6758494" lon="11.4704992"><ele>103.2</ele><time>2026-04-04T06:05:30.122Z</time></trkpt><trkpt lat="45.6759264" lon="11.4705922"><ele>103.4</ele><time>2026-04-04T06:05:31.123Z</time></trkpt><trkpt lat="45.6760066" lon="11.4706956"><ele>103.60000000000001</ele><time>2026-04-04T06:05:32.123Z</time></trkpt><trkpt lat="45.6760946" lon="11.4708005"><ele>103.80000000000001</ele><time>2026-04-04T06:05:33.124Z</time></trkpt><trkpt lat="45.676184" lon="11.4709124"><ele>104.0</ele><time>2026-04-04T06:05:34.123Z</time></trkpt><trkpt lat="45.6762764" lon="11.471026"><ele>104.0</ele><time>2026-04-04T06:05:35.123Z</time></trkpt><trkpt lat="45.6763748" lon="11.4711441"><ele>104.0</ele><time>2026-04-04T06:05:36.122Z</time></trkpt><trkpt lat="45.6764769" lon="11.4712605"><ele>104.0</ele><time>2026-04-04T06:05:37.122Z</time></trkpt><trkpt lat="45.6765891" lon="11.4713752"><ele>104.0</ele><time>2026-04-04T06:05:38.122Z</time></trkpt><trkpt lat="45.6767029" lon="11.4714889"><ele>104.0</ele><time>2026-04-04T06:05:39.124Z</time></trkpt><trkpt lat="45.6768185" lon="11.4716178"><ele>104.0</ele><time>2026-04-04T06:05:40.123Z</time></trkpt><trkpt lat="45.6769274" lon="11.4717573"><ele>104.0</ele><time>2026-04-04T06:05:41.123Z</time></trkpt><trkpt lat="45.677029" lon="11.47192"><ele>104.0</ele><time>2026-04-04T06:05:42.123Z</time></trkpt><trkpt lat="45.6771263" lon="11.4720876"><ele>104.66666666666666</ele><time>2026-04-04T06:05:43.123Z</time></trkpt><trkpt lat="45.6772248" lon="11.4722561"><ele>105.33333333333334</ele><time>2026-04-04T06:05:44.123Z</time></trkpt><trkpt lat="45.6773232" lon="11.4724299"><ele>106.0</ele><time>2026-04-04T06:05:45.123Z</time></trkpt><trkpt lat="45.6774123" lon="11.4726006"><ele>106.0</ele><time>2026-04-04T06:05:46.123Z</time></trkpt><trkpt lat="45.6774975" lon="11.472771"><ele>106.0</ele><time>2026-04-04T06:05:47.122Z</time></trkpt><trkpt lat="45.6775875" lon="11.4729377"><ele>106.0</ele><time>2026-04-04T06:05:48.124Z</time></trkpt><trkpt lat="45.6776703" lon="11.4731027"><ele>106.0</ele><time>2026-04-04T06:05:49.122Z</time></trkpt><trkpt lat="45.6777569" lon="11.473261"><ele>106.0</ele><time>2026-04-04T06:05:50.123Z</time></trkpt><trkpt lat="45.6778231" lon="11.4733829"><ele>106.0</ele><time>2026-04-04T06:05:51.125Z</time></trkpt><trkpt lat="45.6778874" lon="11.4734983"><ele>106.0</ele><time>2026-04-04T06:05:52.123Z</time></trkpt><trkpt lat="45.677951" lon="11.4736092"><ele>106.0</ele><time>2026-04-04T06:05:53.124Z</time></trkpt><trkpt lat="45.6780178" lon="11.4737254"><ele>106.0</ele><time>2026-04-04T06:05:54.122Z</time></trkpt><trkpt lat="45.6780922" lon="11.4738352"><ele>106.25</ele><time>2026-04-04T06:05:55.123Z</time></trkpt><trkpt lat="45.678169" lon="11.4739577"><ele>106.5</ele><time>2026-04-04T06:05:56.123Z</time></trkpt><trkpt lat="45.6782578" lon="11.4740765"><ele>106.75</ele><time>2026-04-04T06:05:57.124Z</time></trkpt><trkpt lat="45.6783513" lon="11.4742012"><ele>107.0</ele><time>2026-04-04T06:05:58.123Z</time></trkpt><trkpt lat="45.6784638" lon="11.474312"><ele>107.0</ele><time>2026-04-04T06:05:59.123Z</time></trkpt><trkpt lat="45.6785809" lon="11.4744198"><ele>107.0</ele><time>2026-04-04T06:06:00.123Z</time></trkpt><trkpt lat="45.6787025" lon="11.4745315"><ele>107.0</ele><time>2026-04-04T06:06:01.124Z</time></trkpt><trkpt lat="45.6788186" lon="11.4746573"><ele>107.0</ele><time>2026-04-04T06:06:02.122Z</time></trkpt><trkpt lat="45.6789316" lon="11.4747829"><ele>107.0</ele><time>2026-04-04T06:06:03.122Z</time></trkpt><trkpt lat="45.6790382" lon="11.4749304"><ele>107.0</ele><time>2026-04-04T06:06:04.122Z</time></trkpt><trkpt lat="45.6791365" lon="11.4750795"><ele>107.0</ele><time>2026-04-04T06:06:05.122Z</time></trkpt><trkpt lat="45.6792304" lon="11.4752387"><ele>107.0</ele><time>2026-04-04T06:06:06.123Z</time></trkpt><trkpt lat="45.6793134" lon="11.4754062"><ele>106.75</ele><time>2026-04-04T06:06:07.123Z</time></trkpt><trkpt lat="45.6793985" lon="11.4755806"><ele>106.5</ele><time>2026-04-04T06:06:08.122Z</time></trkpt><trkpt lat="45.6794792" lon="11.4757594"><ele>106.25</ele><time>2026-04-04T06:06:09.124Z</time></trkpt><trkpt lat="45.6795592" lon="11.4759429"><ele>106.0</ele><time>2026-04-04T06:06:10.124Z</time></trkpt><trkpt lat="45.6796367" lon="11.4761225"><ele>106.25</ele><time>2026-04-04T06:06:11.122Z</time></trkpt><trkpt lat="45.6797164" lon="11.4763012"><ele>106.5</ele><time>2026-04-04T06:06:12.122Z</time></trkpt><trkpt lat="45.6797945" lon="11.4764717"><ele>106.75</ele><time>2026-04-04T06:06:13.123Z</time></trkpt><trkpt lat="45.6798719" lon="11.4766457"><ele>107.0</ele><time>2026-04-04T06:06:14.123Z</time></trkpt><trkpt lat="45.6799529" lon="11.4768206"><ele>107.0</ele><time>2026-04-04T06:06:15.123Z</time></trkpt><trkpt lat="45.6800267" lon="11.4769877"><ele>107.0</ele><time>2026-04-04T06:06:16.122Z</time></trkpt><trkpt lat="45.6800951" lon="11.4771361"><ele>107.0</ele><time>2026-04-04T06:06:17.122Z</time></trkpt><trkpt lat="45.6801575" lon="11.4772677"><ele>107.0</ele><time>2026-04-04T06:06:18.124Z</time></trkpt><trkpt lat="45.6802154" lon="11.4773997"><ele>107.5</ele><time>2026-04-04T06:06:19.123Z</time></trkpt><trkpt lat="45.6802734" lon="11.4775289"><ele>108.0</ele><time>2026-04-04T06:06:20.124Z</time></trkpt><trkpt lat="45.6803344" lon="11.4776529"><ele>108.5</ele><time>2026-04-04T06:06:21.124Z</time></trkpt><trkpt lat="45.680399" lon="11.4777915"><ele>109.0</ele><time>2026-04-04T06:06:22.122Z</time></trkpt><trkpt lat="45.6804679" lon="11.4779365"><ele>109.25</ele><time>2026-04-04T06:06:23.123Z</time></trkpt><trkpt lat="45.6805405" lon="11.4780873"><ele>109.5</ele><time>2026-04-04T06:06:24.123Z</time></trkpt><trkpt lat="45.6806171" lon="11.4782397"><ele>109.75</ele><time>2026-04-04T06:06:25.124Z</time></trkpt><trkpt lat="45.680695" lon="11.4783923"><ele>110.0</ele><time>2026-04-04T06:06:26.122Z</time></trkpt><trkpt lat="45.6807761" lon="11.4785514"><ele>110.0</ele><time>2026-04-04T06:06:27.122Z</time></trkpt><trkpt lat="45.6808622" lon="11.4787109"><ele>110.0</ele><time>2026-04-04T06:06:28.124Z</time></trkpt><trkpt lat="45.6809479" lon="11.4788678"><ele>110.0</ele><time>2026-04-04T06:06:29.124Z</time></trkpt><trkpt lat="45.6810399" lon="11.4790198"><ele>110.0</ele><time>2026-04-04T06:06:30.123Z</time></trkpt><trkpt lat="45.6811238" lon="11.4791659"><ele>109.75</ele><time>2026-04-04T06:06:31.123Z</time></trkpt><trkpt lat="45.6812045" lon="11.4793002"><ele>109.5</ele><time>2026-04-04T06:06:32.122Z</time></trkpt><trkpt lat="45.6812839" lon="11.4794253"><ele>109.25</ele><time>2026-04-04T06:06:33.124Z</time></trkpt><trkpt lat="45.681358" lon="11.4795416"><ele>109.0</ele><time>2026-04-04T06:06:34.123Z</time></trkpt><trkpt lat="45.6814261" lon="11.4796514"><ele>109.00000000000001</ele><time>2026-04-04T06:06:35.124Z</time></trkpt><trkpt lat="45.6814783" lon="11.4797333"><ele>109.0</ele><time>2026-04-04T06:06:36.125Z</time></trkpt><trkpt lat="45.6815441" lon="11.4798339"><ele>109.0</ele><time>2026-04-04T06:06:38.123Z</time></trkpt><trkpt lat="45.6816044" lon="11.4799292"><ele>109.0</ele><time>2026-04-04T06:06:40.123Z</time></trkpt><trkpt lat="45.6816819" lon="11.4800472"><ele>109.00000000000001</ele><time>2026-04-04T06:06:42.124Z</time></trkpt><trkpt lat="45.6817347" lon="11.480118"><ele>109.0</ele><time>2026-04-04T06:06:43.124Z</time></trkpt><trkpt lat="45.6817902" lon="11.4802038"><ele>109.0</ele><time>2026-04-04T06:06:44.123Z</time></trkpt><trkpt lat="45.681852" lon="11.4802972"><ele>109.0</ele><time>2026-04-04T06:06:45.123Z</time></trkpt><trkpt lat="45.6819161" lon="11.4803963"><ele>109.0</ele><time>2026-04-04T06:06:46.123Z</time></trkpt><trkpt lat="45.6819895" lon="11.4805036"><ele>109.0</ele><time>2026-04-04T06:06:47.124Z</time></trkpt><trkpt lat="45.6820668" lon="11.4806148"><ele>109.0</ele><time>2026-04-04T06:06:48.125Z</time></trkpt><trkpt lat="45.6821486" lon="11.4807332"><ele>109.2</ele><time>2026-04-04T06:06:49.123Z</time></trkpt><trkpt lat="45.6822279" lon="11.480852"><ele>109.4</ele><time>2026-04-04T06:06:50.123Z</time></trkpt><trkpt lat="45.6823032" lon="11.4809671"><ele>109.6</ele><time>2026-04-04T06:06:51.123Z</time></trkpt><trkpt lat="45.6823764" lon="11.481079"><ele>109.8</ele><time>2026-04-04T06:06:52.123Z</time></trkpt><trkpt lat="45.682438" lon="11.4811732"><ele>110.0</ele><time>2026-04-04T06:06:53.123Z</time></trkpt><trkpt lat="45.6824932" lon="11.4812531"><ele>109.99999999999999</ele><time>2026-04-04T06:06:54.123Z</time></trkpt><trkpt lat="45.6825437" lon="11.4813285"><ele>110.0</ele><time>2026-04-04T06:06:55.123Z</time></trkpt><trkpt lat="45.6825873" lon="11.4813979"><ele>110.0</ele><time>2026-04-04T06:06:56.123Z</time></trkpt><trkpt lat="45.6826662" lon="11.4815203"><ele>110.0</ele><time>2026-04-04T06:06:58.123Z</time></trkpt><trkpt lat="45.6827364" lon="11.4816417"><ele>109.99999999999999</ele><time>2026-04-04T06:07:00.125Z</time></trkpt><trkpt lat="45.6827819" lon="11.481722"><ele>110.0</ele><time>2026-04-04T06:07:01.123Z</time></trkpt><trkpt lat="45.6828265" lon="11.4818192"><ele>110.0</ele><time>2026-04-04T06:07:02.122Z</time></trkpt><trkpt lat="45.6828863" lon="11.4819237"><ele>110.0</ele><time>2026-04-04T06:07:03.124Z</time></trkpt><trkpt lat="45.6829692" lon="11.482034"><ele>110.0</ele><time>2026-04-04T06:07:04.122Z</time></trkpt><trkpt lat="45.6830528" lon="11.4821663"><ele>110.0</ele><time>2026-04-04T06:07:05.124Z</time></trkpt><trkpt lat="45.6831407" lon="11.4823202"><ele>110.0</ele><time>2026-04-04T06:07:06.123Z</time></trkpt><trkpt lat="45.6832361" lon="11.4824765"><ele>110.0</ele><time>2026-04-04T06:07:07.123Z</time></trkpt><trkpt lat="45.6833249" lon="11.4826305"><ele>110.0</ele><time>2026-04-04T06:07:08.123Z</time></trkpt><trkpt lat="45.6834116" lon="11.4827784"><ele>110.0</ele><time>2026-04-04T06:07:09.124Z</time></trkpt><trkpt lat="45.6834798" lon="11.482894"><ele>109.99999999999999</ele><time>2026-04-04T06:07:10.123Z</time></trkpt><trkpt lat="45.6835367" lon="11.482988"><ele>110.0</ele><time>2026-04-04T06:07:11.123Z</time></trkpt><trkpt lat="45.6835875" lon="11.4830793"><ele>110.0</ele><time>2026-04-04T06:07:12.125Z</time></trkpt><trkpt lat="45.6836358" lon="11.4831624"><ele>110.0</ele><time>2026-04-04T06:07:13.122Z</time></trkpt><trkpt lat="45.6836855" lon="11.4832377"><ele>109.99999999999999</ele><time>2026-04-04T06:07:14.124Z</time></trkpt><trkpt lat="45.6837362" lon="11.4833192"><ele>110.0</ele><time>2026-04-04T06:07:15.124Z</time></trkpt><trkpt lat="45.6837884" lon="11.4834159"><ele>110.0</ele><time>2026-04-04T06:07:16.123Z</time></trkpt><trkpt lat="45.6838499" lon="11.4835186"><ele>110.0</ele><time>2026-04-04T06:07:17.124Z</time></trkpt><trkpt lat="45.6839136" lon="11.483628"><ele>110.0</ele><time>2026-04-04T06:07:18.123Z</time></trkpt><trkpt lat="45.6839754" lon="11.4837437"><ele>110.0</ele><time>2026-04-04T06:07:19.123Z</time></trkpt><trkpt lat="45.6840435" lon="11.4838546"><ele>110.0</ele><time>2026-04-04T06:07:20.123Z</time></trkpt><trkpt lat="45.6841034" lon="11.483961"><ele>109.99999999999999</ele><time>2026-04-04T06:07:21.123Z</time></trkpt><trkpt lat="45.6841593" lon="11.4840576"><ele>110.0</ele><time>2026-04-04T06:07:22.124Z</time></trkpt><trkpt lat="45.684208" lon="11.4841461"><ele>110.0</ele><time>2026-04-04T06:07:23.124Z</time></trkpt><trkpt lat="45.6842569" lon="11.4842272"><ele>110.0</ele><time>2026-04-04T06:07:24.123Z</time></trkpt><trkpt lat="45.6842935" lon="11.4843187"><ele>109.99999999999999</ele><time>2026-04-04T06:07:25.123Z</time></trkpt><trkpt lat="45.684312" lon="11.4844119"><ele>110.0</ele><time>2026-04-04T06:07:26.122Z</time></trkpt><trkpt lat="45.684303" lon="11.4845991"><ele>109.99999999999999</ele><time>2026-04-04T06:07:28.123Z</time></trkpt><trkpt lat="45.6842958" lon="11.4847092"><ele>110.0</ele><time>2026-04-04T06:07:29.124Z</time></trkpt><trkpt lat="45.6843045" lon="11.4848117"><ele>110.0</ele><time>2026-04-04T06:07:30.123Z</time></trkpt><trkpt lat="45.6843363" lon="11.4849015"><ele>110.0</ele><time>2026-04-04T06:07:31.122Z</time></trkpt><trkpt lat="45.6844514" lon="11.4849617"><ele>109.99999999999999</ele><time>2026-04-04T06:07:33.122Z</time></trkpt><trkpt lat="45.6845184" lon="11.4849332"><ele>110.0</ele><time>2026-04-04T06:07:34.122Z</time></trkpt><trkpt lat="45.6845829" lon="11.4848722"><ele>110.0</ele><time>2026-04-04T06:07:35.124Z</time></trkpt><trkpt lat="45.6846494" lon="11.484792"><ele>110.0</ele><time>2026-04-04T06:07:36.123Z</time></trkpt><trkpt lat="45.684729" lon="11.4847085"><ele>110.0</ele><time>2026-04-04T06:07:37.123Z</time></trkpt><trkpt lat="45.6848218" lon="11.4846289"><ele>110.0</ele><time>2026-04-04T06:07:38.123Z</time></trkpt><trkpt lat="45.6849189" lon="11.4845655"><ele>110.0</ele><time>2026-04-04T06:07:39.123Z</time></trkpt><trkpt lat="45.6850232" lon="11.4845042"><ele>110.5</ele><time>2026-04-04T06:07:40.124Z</time></trkpt><trkpt lat="45.6851302" lon="11.4844482"><ele>111.0</ele><time>2026-04-04T06:07:41.124Z</time></trkpt><trkpt lat="45.6852439" lon="11.4843975"><ele>111.5</ele><time>2026-04-04T06:07:42.124Z</time></trkpt><trkpt lat="45.6853633" lon="11.4843548"><ele>112.0</ele><time>2026-04-04T06:07:43.124Z</time></trkpt><trkpt lat="45.6855014" lon="11.4843101"><ele>112.5</ele><time>2026-04-04T06:07:44.125Z</time></trkpt><trkpt lat="45.685643" lon="11.4842654"><ele>113.0</ele><time>2026-04-04T06:07:45.123Z</time></trkpt><trkpt lat="45.685787" lon="11.4842211"><ele>113.5</ele><time>2026-04-04T06:07:46.124Z</time></trkpt><trkpt lat="45.6859382" lon="11.4841694"><ele>114.0</ele><time>2026-04-04T06:07:47.123Z</time></trkpt><trkpt lat="45.6860912" lon="11.4841177"><ele>113.33333333333334</ele><time>2026-04-04T06:07:48.124Z</time></trkpt><trkpt lat="45.6862442" lon="11.4840635"><ele>112.66666666666667</ele><time>2026-04-04T06:07:49.123Z</time></trkpt><trkpt lat="45.6863998" lon="11.4840133"><ele>112.0</ele><time>2026-04-04T06:07:50.123Z</time></trkpt><trkpt lat="45.6865551" lon="11.4839647"><ele>112.0</ele><time>2026-04-04T06:07:51.123Z</time></trkpt><trkpt lat="45.6867121" lon="11.4839248"><ele>112.0</ele><time>2026-04-04T06:07:52.124Z</time></trkpt><trkpt lat="45.6868803" lon="11.4838901"><ele>112.0</ele><time>2026-04-04T06:07:53.124Z</time></trkpt><trkpt lat="45.6870494" lon="11.4838694"><ele>112.33333333333334</ele><time>2026-04-04T06:07:54.124Z</time></trkpt><trkpt lat="45.6872215" lon="11.4838647"><ele>112.66666666666666</ele><time>2026-04-04T06:07:55.124Z</time></trkpt><trkpt lat="45.6873884" lon="11.4838651"><ele>113.0</ele><time>2026-04-04T06:07:56.124Z</time></trkpt><trkpt lat="45.6875524" lon="11.4838705"><ele>113.0</ele><time>2026-04-04T06:07:57.123Z</time></trkpt><trkpt lat="45.6877085" lon="11.4838748"><ele>113.0</ele><time>2026-04-04T06:07:58.124Z</time></trkpt><trkpt lat="45.6878626" lon="11.4838766"><ele>113.0</ele><time>2026-04-04T06:07:59.124Z</time></trkpt><trkpt lat="45.6880207" lon="11.4838685"><ele>112.66666666666666</ele><time>2026-04-04T06:08:00.123Z</time></trkpt><trkpt lat="45.6881769" lon="11.483853"><ele>112.33333333333334</ele><time>2026-04-04T06:08:01.123Z</time></trkpt><trkpt lat="45.6883384" lon="11.483821"><ele>112.0</ele><time>2026-04-04T06:08:02.123Z</time></trkpt><trkpt lat="45.6885011" lon="11.4837545"><ele>114.0</ele><time>2026-04-04T06:08:03.123Z</time></trkpt><trkpt lat="45.6886551" lon="11.4836713"><ele>116.0</ele><time>2026-04-04T06:08:04.124Z</time></trkpt><trkpt lat="45.6888047" lon="11.4835733"><ele>118.0</ele><time>2026-04-04T06:08:05.123Z</time></trkpt><trkpt lat="45.6889558" lon="11.4834694"><ele>118.0</ele><time>2026-04-04T06:08:06.124Z</time></trkpt><trkpt lat="45.689102" lon="11.4833667"><ele>118.0</ele><time>2026-04-04T06:08:07.124Z</time></trkpt><trkpt lat="45.6892498" lon="11.48328"><ele>118.0</ele><time>2026-04-04T06:08:08.124Z</time></trkpt><trkpt lat="45.689402" lon="11.4832049"><ele>118.0</ele><time>2026-04-04T06:08:09.125Z</time></trkpt><trkpt lat="45.6895517" lon="11.483145"><ele>118.0</ele><time>2026-04-04T06:08:10.123Z</time></trkpt><trkpt lat="45.6897053" lon="11.4831"><ele>118.0</ele><time>2026-04-04T06:08:11.123Z</time></trkpt><trkpt lat="45.6898603" lon="11.4830691"><ele>118.0</ele><time>2026-04-04T06:08:12.125Z</time></trkpt><trkpt lat="45.6900156" lon="11.4830471"><ele>118.0</ele><time>2026-04-04T06:08:13.124Z</time></trkpt><trkpt lat="45.690166" lon="11.4830299"><ele>118.0</ele><time>2026-04-04T06:08:14.123Z</time></trkpt><trkpt lat="45.6903136" lon="11.483015"><ele>118.25</ele><time>2026-04-04T06:08:15.124Z</time></trkpt><trkpt lat="45.690461" lon="11.4830082"><ele>118.5</ele><time>2026-04-04T06:08:16.123Z</time></trkpt><trkpt lat="45.6906077" lon="11.48301"><ele>118.75</ele><time>2026-04-04T06:08:17.124Z</time></trkpt><trkpt lat="45.6907576" lon="11.4830109"><ele>119.0</ele><time>2026-04-04T06:08:18.123Z</time></trkpt><trkpt lat="45.6909083" lon="11.483014"><ele>119.0</ele><time>2026-04-04T06:08:19.124Z</time></trkpt><trkpt lat="45.6910644" lon="11.4830159"><ele>119.0</ele><time>2026-04-04T06:08:20.124Z</time></trkpt><trkpt lat="45.6912163" lon="11.4830229"><ele>119.0</ele><time>2026-04-04T06:08:21.125Z</time></trkpt><trkpt lat="45.6913697" lon="11.483032"><ele>119.0</ele><time>2026-04-04T06:08:22.125Z</time></trkpt><trkpt lat="45.6915103" lon="11.4830452"><ele>119.0</ele><time>2026-04-04T06:08:23.123Z</time></trkpt><trkpt lat="45.6916417" lon="11.483087"><ele>119.0</ele><time>2026-04-04T06:08:24.125Z</time></trkpt><trkpt lat="45.6917682" lon="11.4831771"><ele>119.0</ele><time>2026-04-04T06:08:25.124Z</time></trkpt><trkpt lat="45.6918714" lon="11.4833087"><ele>119.66666666666666</ele><time>2026-04-04T06:08:26.123Z</time></trkpt><trkpt lat="45.6919695" lon="11.4834888"><ele>120.33333333333334</ele><time>2026-04-04T06:08:27.124Z</time></trkpt><trkpt lat="45.6920471" lon="11.4837134"><ele>121.0</ele><time>2026-04-04T06:08:28.124Z</time></trkpt><trkpt lat="45.6921077" lon="11.4839755"><ele>121.0</ele><time>2026-04-04T06:08:29.124Z</time></trkpt><trkpt lat="45.6921598" lon="11.484282"><ele>121.0</ele><time>2026-04-04T06:08:30.124Z</time></trkpt><trkpt lat="45.6922073" lon="11.4846059"><ele>120.0</ele><time>2026-04-04T06:08:31.123Z</time></trkpt><trkpt lat="45.6922585" lon="11.4849517"><ele>119.0</ele><time>2026-04-04T06:08:32.125Z</time></trkpt><trkpt lat="45.6923146" lon="11.4853121"><ele>119.0</ele><time>2026-04-04T06:08:33.123Z</time></trkpt><trkpt lat="45.6923669" lon="11.4856798"><ele>119.0</ele><time>2026-04-04T06:08:34.124Z</time></trkpt><trkpt lat="45.6924233" lon="11.4860476"><ele>120.0</ele><time>2026-04-04T06:08:35.124Z</time></trkpt><trkpt lat="45.6924848" lon="11.4864203"><ele>121.0</ele><time>2026-04-04T06:08:36.123Z</time></trkpt><trkpt lat="45.6925466" lon="11.486796"><ele>121.5</ele><time>2026-04-04T06:08:37.123Z</time></trkpt><trkpt lat="45.6926092" lon="11.4871758"><ele>122.0</ele><time>2026-04-04T06:08:38.124Z</time></trkpt><trkpt lat="45.6926683" lon="11.4875537"><ele>121.5</ele><time>2026-04-04T06:08:39.123Z</time></trkpt><trkpt lat="45.692727" lon="11.4879293"><ele>121.0</ele><time>2026-04-04T06:08:40.125Z</time></trkpt><trkpt lat="45.6927877" lon="11.4883042"><ele>121.0</ele><time>2026-04-04T06:08:41.124Z</time></trkpt><trkpt lat="45.6928458" lon="11.4886746"><ele>121.0</ele><time>2026-04-04T06:08:42.125Z</time></trkpt><trkpt lat="45.6929066" lon="11.4890372"><ele>120.5</ele><time>2026-04-04T06:08:43.124Z</time></trkpt><trkpt lat="45.6929693" lon="11.4893948"><ele>120.0</ele><time>2026-04-04T06:08:44.125Z</time></trkpt><trkpt lat="45.6930287" lon="11.4897467"><ele>120.0</ele><time>2026-04-04T06:08:45.124Z</time></trkpt><trkpt lat="45.6930943" lon="11.4900958"><ele>120.0</ele><time>2026-04-04T06:08:46.124Z</time></trkpt><trkpt lat="45.6931502" lon="11.4904386"><ele>119.5</ele><time>2026-04-04T06:08:47.124Z</time></trkpt><trkpt lat="45.6932078" lon="11.4907839"><ele>119.0</ele><time>2026-04-04T06:08:48.124Z</time></trkpt><trkpt lat="45.6932624" lon="11.4911201"><ele>118.0</ele><time>2026-04-04T06:08:49.123Z</time></trkpt><trkpt lat="45.6933155" lon="11.4914638"><ele>117.0</ele><time>2026-04-04T06:08:50.124Z</time></trkpt><trkpt lat="45.6933766" lon="11.4918074"><ele>116.5</ele><time>2026-04-04T06:08:51.123Z</time></trkpt><trkpt lat="45.6934385" lon="11.4921721"><ele>116.0</ele><time>2026-04-04T06:08:52.125Z</time></trkpt><trkpt lat="45.6934953" lon="11.4925581"><ele>115.5</ele><time>2026-04-04T06:08:53.125Z</time></trkpt><trkpt lat="45.6935608" lon="11.4929512"><ele>115.0</ele><time>2026-04-04T06:08:54.124Z</time></trkpt><trkpt lat="45.693624" lon="11.4933409"><ele>115.0</ele><time>2026-04-04T06:08:55.123Z</time></trkpt><trkpt lat="45.6936851" lon="11.4937283"><ele>115.0</ele><time>2026-04-04T06:08:56.124Z</time></trkpt><trkpt lat="45.693738" lon="11.4941004"><ele>115.0</ele><time>2026-04-04T06:08:57.123Z</time></trkpt><trkpt lat="45.6937843" lon="11.4944539"><ele>115.0</ele><time>2026-04-04T06:08:58.124Z</time></trkpt><trkpt lat="45.6938298" lon="11.4947774"><ele>115.0</ele><time>2026-04-04T06:08:59.125Z</time></trkpt><trkpt lat="45.6938697" lon="11.4950532"><ele>115.0</ele><time>2026-04-04T06:09:00.124Z</time></trkpt><trkpt lat="45.6939009" lon="11.4952972"><ele>115.0</ele><time>2026-04-04T06:09:01.123Z</time></trkpt><trkpt lat="45.6939148" lon="11.4955048"><ele>115.0</ele><time>2026-04-04T06:09:02.123Z</time></trkpt><trkpt lat="45.6939077" lon="11.4956897"><ele>115.0</ele><time>2026-04-04T06:09:03.124Z</time></trkpt><trkpt lat="45.6938811" lon="11.4958444"><ele>115.0</ele><time>2026-04-04T06:09:04.123Z</time></trkpt><trkpt lat="45.6938484" lon="11.4959782"><ele>115.0</ele><time>2026-04-04T06:09:05.125Z</time></trkpt><trkpt lat="45.6938097" lon="11.496102"><ele>115.0</ele><time>2026-04-04T06:09:06.125Z</time></trkpt><trkpt lat="45.6937792" lon="11.4962378"><ele>115.0</ele><time>2026-04-04T06:09:07.125Z</time></trkpt><trkpt lat="45.6937775" lon="11.4963932"><ele>115.0</ele><time>2026-04-04T06:09:08.124Z</time></trkpt><trkpt lat="45.6938134" lon="11.4965381"><ele>115.0</ele><time>2026-04-04T06:09:09.124Z</time></trkpt><trkpt lat="45.6938844" lon="11.4966612"><ele>115.0</ele><time>2026-04-04T06:09:10.124Z</time></trkpt><trkpt lat="45.6939882" lon="11.4967786"><ele>115.0</ele><time>2026-04-04T06:09:11.124Z</time></trkpt><trkpt lat="45.694092" lon="11.4969169"><ele>115.0</ele><time>2026-04-04T06:09:12.125Z</time></trkpt><trkpt lat="45.6941694" lon="11.4970984"><ele>115.0</ele><time>2026-04-04T06:09:13.124Z</time></trkpt><trkpt lat="45.6942244" lon="11.4973094"><ele>115.0</ele><time>2026-04-04T06:09:14.124Z</time></trkpt><trkpt lat="45.6942625" lon="11.497565"><ele>114.66666666666667</ele><time>2026-04-04T06:09:15.124Z</time></trkpt><trkpt lat="45.6942978" lon="11.4978546"><ele>114.33333333333334</ele><time>2026-04-04T06:09:16.125Z</time></trkpt><trkpt lat="45.6943325" lon="11.4981749"><ele>114.0</ele><time>2026-04-04T06:09:17.125Z</time></trkpt><trkpt lat="45.6943652" lon="11.498522"><ele>112.5</ele><time>2026-04-04T06:09:18.123Z</time></trkpt><trkpt lat="45.6943884" lon="11.4988891"><ele>111.0</ele><time>2026-04-04T06:09:19.124Z</time></trkpt><trkpt lat="45.6944044" lon="11.4992819"><ele>110.5</ele><time>2026-04-04T06:09:20.123Z</time></trkpt><trkpt lat="45.694408" lon="11.4996884"><ele>110.0</ele><time>2026-04-04T06:09:21.125Z</time></trkpt><trkpt lat="45.6944043" lon="11.5001061"><ele>110.5</ele><time>2026-04-04T06:09:22.124Z</time></trkpt><trkpt lat="45.6943892" lon="11.5005224"><ele>111.0</ele><time>2026-04-04T06:09:23.125Z</time></trkpt><trkpt lat="45.6943629" lon="11.5009428"><ele>111.0</ele><time>2026-04-04T06:09:24.123Z</time></trkpt><trkpt lat="45.6943358" lon="11.5013717"><ele>111.0</ele><time>2026-04-04T06:09:25.125Z</time></trkpt><trkpt lat="45.6943043" lon="11.5018012"><ele>111.0</ele><time>2026-04-04T06:09:26.124Z</time></trkpt><trkpt lat="45.6942749" lon="11.5022297"><ele>111.0</ele><time>2026-04-04T06:09:27.124Z</time></trkpt><trkpt lat="45.6942469" lon="11.5026607"><ele>110.0</ele><time>2026-04-04T06:09:28.124Z</time></trkpt><trkpt lat="45.6942189" lon="11.5030841"><ele>109.0</ele><time>2026-04-04T06:09:29.125Z</time></trkpt><trkpt lat="45.6941903" lon="11.5035097"><ele>109.0</ele><time>2026-04-04T06:09:30.123Z</time></trkpt><trkpt lat="45.694158" lon="11.5039301"><ele>109.0</ele><time>2026-04-04T06:09:31.125Z</time></trkpt><trkpt lat="45.6941272" lon="11.5043508"><ele>107.5</ele><time>2026-04-04T06:09:32.124Z</time></trkpt><trkpt lat="45.6940996" lon="11.5047747"><ele>106.0</ele><time>2026-04-04T06:09:33.125Z</time></trkpt><trkpt lat="45.69407" lon="11.5051961"><ele>106.5</ele><time>2026-04-04T06:09:34.124Z</time></trkpt><trkpt lat="45.694041" lon="11.5056152"><ele>107.0</ele><time>2026-04-04T06:09:35.124Z</time></trkpt><trkpt lat="45.6940122" lon="11.5060314"><ele>107.5</ele><time>2026-04-04T06:09:36.125Z</time></trkpt><trkpt lat="45.6939854" lon="11.5064436"><ele>108.0</ele><time>2026-04-04T06:09:37.123Z</time></trkpt><trkpt lat="45.6939548" lon="11.5068484"><ele>108.0</ele><time>2026-04-04T06:09:38.125Z</time></trkpt><trkpt lat="45.6939274" lon="11.5072602"><ele>108.0</ele><time>2026-04-04T06:09:39.125Z</time></trkpt><trkpt lat="45.6938995" lon="11.5076664"><ele>107.0</ele><time>2026-04-04T06:09:40.124Z</time></trkpt><trkpt lat="45.6938694" lon="11.508068"><ele>106.0</ele><time>2026-04-04T06:09:41.124Z</time></trkpt><trkpt lat="45.6938428" lon="11.50847"><ele>106.5</ele><time>2026-04-04T06:09:42.125Z</time></trkpt><trkpt lat="45.6938118" lon="11.5088678"><ele>107.0</ele><time>2026-04-04T06:09:43.125Z</time></trkpt><trkpt lat="45.6937796" lon="11.5092647"><ele>107.0</ele><time>2026-04-04T06:09:44.125Z</time></trkpt><trkpt lat="45.6937534" lon="11.5096631"><ele>107.0</ele><time>2026-04-04T06:09:45.123Z</time></trkpt><trkpt lat="45.6937263" lon="11.5100537"><ele>106.0</ele><time>2026-04-04T06:09:46.123Z</time></trkpt><trkpt lat="45.6936982" lon="11.5104537"><ele>105.0</ele><time>2026-04-04T06:09:47.124Z</time></trkpt><trkpt lat="45.6936673" lon="11.510855"><ele>104.5</ele><time>2026-04-04T06:09:48.124Z</time></trkpt><trkpt lat="45.6936364" lon="11.5112589"><ele>104.0</ele><time>2026-04-04T06:09:49.124Z</time></trkpt><trkpt lat="45.6936051" lon="11.5116709"><ele>103.0</ele><time>2026-04-04T06:09:50.124Z</time></trkpt><trkpt lat="45.6935731" lon="11.5120797"><ele>102.0</ele><time>2026-04-04T06:09:51.124Z</time></trkpt><trkpt lat="45.693541" lon="11.5124971"><ele>102.0</ele><time>2026-04-04T06:09:52.125Z</time></trkpt><trkpt lat="45.6935111" lon="11.5129111"><ele>102.0</ele><time>2026-04-04T06:09:53.124Z</time></trkpt><trkpt lat="45.6934831" lon="11.5133349"><ele>102.0</ele><time>2026-04-04T06:09:54.125Z</time></trkpt><trkpt lat="45.6934529" lon="11.5137608"><ele>102.0</ele><time>2026-04-04T06:09:55.124Z</time></trkpt><trkpt lat="45.6934215" lon="11.5141915"><ele>102.5</ele><time>2026-04-04T06:09:56.123Z</time></trkpt><trkpt lat="45.6933905" lon="11.5146238"><ele>103.0</ele><time>2026-04-04T06:09:57.123Z</time></trkpt><trkpt lat="45.693362" lon="11.5150584"><ele>102.5</ele><time>2026-04-04T06:09:58.124Z</time></trkpt><trkpt lat="45.6933302" lon="11.5154885"><ele>102.0</ele><time>2026-04-04T06:09:59.124Z</time></trkpt><trkpt lat="45.693302" lon="11.5159189"><ele>103.5</ele><time>2026-04-04T06:10:00.124Z</time></trkpt><trkpt lat="45.6932718" lon="11.5163487"><ele>105.0</ele><time>2026-04-04T06:10:01.124Z</time></trkpt><trkpt lat="45.6932428" lon="11.5167775"><ele>103.5</ele><time>2026-04-04T06:10:02.123Z</time></trkpt><trkpt lat="45.6932159" lon="11.5172079"><ele>102.0</ele><time>2026-04-04T06:10:03.123Z</time></trkpt><trkpt lat="45.6931858" lon="11.517639"><ele>101.5</ele><time>2026-04-04T06:10:04.126Z</time></trkpt><trkpt lat="45.6931545" lon="11.5180627"><ele>101.0</ele><time>2026-04-04T06:10:05.124Z</time></trkpt><trkpt lat="45.6931253" lon="11.5184836"><ele>100.0</ele><time>2026-04-04T06:10:06.124Z</time></trkpt><trkpt lat="45.6930938" lon="11.5189016"><ele>99.0</ele><time>2026-04-04T06:10:07.123Z</time></trkpt><trkpt lat="45.6930628" lon="11.5193225"><ele>99.5</ele><time>2026-04-04T06:10:08.124Z</time></trkpt><trkpt lat="45.6930325" lon="11.5197378"><ele>100.0</ele><time>2026-04-04T06:10:09.124Z</time></trkpt><trkpt lat="45.6930032" lon="11.5201528"><ele>99.5</ele><time>2026-04-04T06:10:10.124Z</time></trkpt><trkpt lat="45.6929744" lon="11.5205671"><ele>99.0</ele><time>2026-04-04T06:10:11.124Z</time></trkpt><trkpt lat="45.6929436" lon="11.5209761"><ele>98.5</ele><time>2026-04-04T06:10:12.124Z</time></trkpt><trkpt lat="45.6929137" lon="11.521395"><ele>98.0</ele><time>2026-04-04T06:10:13.125Z</time></trkpt><trkpt lat="45.6928826" lon="11.5218055"><ele>99.0</ele><time>2026-04-04T06:10:14.124Z</time></trkpt><trkpt lat="45.6928512" lon="11.5222253"><ele>100.0</ele><time>2026-04-04T06:10:15.123Z</time></trkpt><trkpt lat="45.6928202" lon="11.5226498"><ele>100.0</ele><time>2026-04-04T06:10:16.125Z</time></trkpt><trkpt lat="45.6927911" lon="11.5230714"><ele>100.0</ele><time>2026-04-04T06:10:17.123Z</time></trkpt><trkpt lat="45.6927603" lon="11.5234909"><ele>101.0</ele><time>2026-04-04T06:10:18.123Z</time></trkpt><trkpt lat="45.6927288" lon="11.5239081"><ele>102.0</ele><time>2026-04-04T06:10:19.125Z</time></trkpt><trkpt lat="45.6926992" lon="11.5243179"><ele>103.0</ele><time>2026-04-04T06:10:20.124Z</time></trkpt><trkpt lat="45.6926677" lon="11.5247239"><ele>104.0</ele><time>2026-04-04T06:10:21.124Z</time></trkpt><trkpt lat="45.6926378" lon="11.5251292"><ele>103.5</ele><time>2026-04-04T06:10:22.123Z</time></trkpt><trkpt lat="45.6926139" lon="11.5255325"><ele>103.0</ele><time>2026-04-04T06:10:23.124Z</time></trkpt><trkpt lat="45.6925874" lon="11.5259279"><ele>102.5</ele><time>2026-04-04T06:10:24.124Z</time></trkpt><trkpt lat="45.6925586" lon="11.526307"><ele>102.0</ele><time>2026-04-04T06:10:25.125Z</time></trkpt><trkpt lat="45.692535" lon="11.5266732"><ele>102.0</ele><time>2026-04-04T06:10:26.123Z</time></trkpt><trkpt lat="45.6925122" lon="11.5270267"><ele>102.0</ele><time>2026-04-04T06:10:27.123Z</time></trkpt><trkpt lat="45.6924886" lon="11.5273725"><ele>103.0</ele><time>2026-04-04T06:10:28.124Z</time></trkpt><trkpt lat="45.6924643" lon="11.5277117"><ele>104.0</ele><time>2026-04-04T06:10:29.124Z</time></trkpt><trkpt lat="45.6924389" lon="11.5280388"><ele>104.0</ele><time>2026-04-04T06:10:30.124Z</time></trkpt><trkpt lat="45.6924219" lon="11.5283613"><ele>104.0</ele><time>2026-04-04T06:10:31.123Z</time></trkpt><trkpt lat="45.6924045" lon="11.528672"><ele>104.0</ele><time>2026-04-04T06:10:32.124Z</time></trkpt><trkpt lat="45.6923927" lon="11.528978"><ele>103.66666666666666</ele><time>2026-04-04T06:10:33.124Z</time></trkpt><trkpt lat="45.6923847" lon="11.5292783"><ele>103.33333333333334</ele><time>2026-04-04T06:10:34.124Z</time></trkpt><trkpt lat="45.6923855" lon="11.5295782"><ele>103.0</ele><time>2026-04-04T06:10:35.124Z</time></trkpt><trkpt lat="45.6923954" lon="11.5298968"><ele>103.0</ele><time>2026-04-04T06:10:36.125Z</time></trkpt><trkpt lat="45.6924204" lon="11.5302418"><ele>103.0</ele><time>2026-04-04T06:10:37.123Z</time></trkpt><trkpt lat="45.692454" lon="11.5306053"><ele>103.0</ele><time>2026-04-04T06:10:38.124Z</time></trkpt><trkpt lat="45.6924916" lon="11.5309916"><ele>103.0</ele><time>2026-04-04T06:10:39.123Z</time></trkpt><trkpt lat="45.6925356" lon="11.5313967"><ele>103.0</ele><time>2026-04-04T06:10:40.124Z</time></trkpt><trkpt lat="45.6925828" lon="11.5318226"><ele>103.0</ele><time>2026-04-04T06:10:41.123Z</time></trkpt><trkpt lat="45.6926355" lon="11.5322741"><ele>103.0</ele><time>2026-04-04T06:10:42.124Z</time></trkpt><trkpt lat="45.6926781" lon="11.5327228"><ele>103.0</ele><time>2026-04-04T06:10:43.125Z</time></trkpt><trkpt lat="45.6927198" lon="11.5331632"><ele>104.0</ele><time>2026-04-04T06:10:44.124Z</time></trkpt><trkpt lat="45.6927651" lon="11.5336013"><ele>105.0</ele><time>2026-04-04T06:10:45.124Z</time></trkpt><trkpt lat="45.6928114" lon="11.5340241"><ele>105.0</ele><time>2026-04-04T06:10:46.126Z</time></trkpt><trkpt lat="45.692856" lon="11.5344363"><ele>105.0</ele><time>2026-04-04T06:10:47.125Z</time></trkpt><trkpt lat="45.6928989" lon="11.534841"><ele>105.5</ele><time>2026-04-04T06:10:48.125Z</time></trkpt><trkpt lat="45.6929457" lon="11.5352409"><ele>106.0</ele><time>2026-04-04T06:10:49.125Z</time></trkpt><trkpt lat="45.6929915" lon="11.5356305"><ele>104.5</ele><time>2026-04-04T06:10:50.124Z</time></trkpt><trkpt lat="45.6930405" lon="11.5360239"><ele>103.0</ele><time>2026-04-04T06:10:51.125Z</time></trkpt><trkpt lat="45.6930815" lon="11.5364103"><ele>102.5</ele><time>2026-04-04T06:10:52.124Z</time></trkpt><trkpt lat="45.6931247" lon="11.5367879"><ele>102.0</ele><time>2026-04-04T06:10:53.124Z</time></trkpt><trkpt lat="45.6931654" lon="11.5371499"><ele>102.66666666666666</ele><time>2026-04-04T06:10:54.125Z</time></trkpt><trkpt lat="45.693203" lon="11.5374788"><ele>103.33333333333333</ele><time>2026-04-04T06:10:55.123Z</time></trkpt><trkpt lat="45.6932295" lon="11.5377735"><ele>104.0</ele><time>2026-04-04T06:10:56.125Z</time></trkpt><trkpt lat="45.6932538" lon="11.5380265"><ele>104.0</ele><time>2026-04-04T06:10:57.123Z</time></trkpt><trkpt lat="45.6932683" lon="11.5382577"><ele>104.0</ele><time>2026-04-04T06:10:58.123Z</time></trkpt><trkpt lat="45.693284" lon="11.5384637"><ele>104.0</ele><time>2026-04-04T06:10:59.124Z</time></trkpt><trkpt lat="45.6932934" lon="11.5386321"><ele>104.0</ele><time>2026-04-04T06:11:00.124Z</time></trkpt><trkpt lat="45.6932952" lon="11.5387775"><ele>104.33333333333333</ele><time>2026-04-04T06:11:01.125Z</time></trkpt><trkpt lat="45.6932888" lon="11.5389088"><ele>104.66666666666666</ele><time>2026-04-04T06:11:02.124Z</time></trkpt><trkpt lat="45.6932608" lon="11.5390175"><ele>105.0</ele><time>2026-04-04T06:11:03.125Z</time></trkpt><trkpt lat="45.6932323" lon="11.5391034"><ele>105.33333333333334</ele><time>2026-04-04T06:11:04.124Z</time></trkpt><trkpt lat="45.693193" lon="11.5392477"><ele>105.66666666666667</ele><time>2026-04-04T06:11:06.124Z</time></trkpt><trkpt lat="45.6931731" lon="11.5393553"><ele>106.0</ele><time>2026-04-04T06:11:08.123Z</time></trkpt><trkpt lat="45.6931825" lon="11.539481"><ele>105.5</ele><time>2026-04-04T06:11:10.124Z</time></trkpt><trkpt lat="45.69321" lon="11.5395942"><ele>105.0</ele><time>2026-04-04T06:11:11.125Z</time></trkpt><trkpt lat="45.6932458" lon="11.5397579"><ele>104.5</ele><time>2026-04-04T06:11:12.123Z</time></trkpt><trkpt lat="45.6932674" lon="11.539966"><ele>104.0</ele><time>2026-04-04T06:11:13.124Z</time></trkpt><trkpt lat="45.6932993" lon="11.5402038"><ele>104.0</ele><time>2026-04-04T06:11:14.125Z</time></trkpt><trkpt lat="45.6933463" lon="11.5404627"><ele>104.0</ele><time>2026-04-04T06:11:15.125Z</time></trkpt><trkpt lat="45.6934076" lon="11.5407437"><ele>104.0</ele><time>2026-04-04T06:11:16.125Z</time></trkpt><trkpt lat="45.6934748" lon="11.5410355"><ele>104.5</ele><time>2026-04-04T06:11:17.125Z</time></trkpt><trkpt lat="45.6935418" lon="11.5413422"><ele>105.0</ele><time>2026-04-04T06:11:18.124Z</time></trkpt><trkpt lat="45.6936097" lon="11.5416644"><ele>105.0</ele><time>2026-04-04T06:11:19.124Z</time></trkpt><trkpt lat="45.693676" lon="11.5419943"><ele>105.0</ele><time>2026-04-04T06:11:20.125Z</time></trkpt><trkpt lat="45.6937356" lon="11.5423391"><ele>104.0</ele><time>2026-04-04T06:11:21.125Z</time></trkpt><trkpt lat="45.6937937" lon="11.5426976"><ele>103.0</ele><time>2026-04-04T06:11:22.124Z</time></trkpt><trkpt lat="45.6938433" lon="11.5430597"><ele>102.5</ele><time>2026-04-04T06:11:23.125Z</time></trkpt><trkpt lat="45.6938927" lon="11.5434276"><ele>102.0</ele><time>2026-04-04T06:11:24.125Z</time></trkpt><trkpt lat="45.6939365" lon="11.5438011"><ele>102.0</ele><time>2026-04-04T06:11:25.125Z</time></trkpt><trkpt lat="45.6939844" lon="11.5441832"><ele>102.0</ele><time>2026-04-04T06:11:26.124Z</time></trkpt><trkpt lat="45.6940355" lon="11.5445706"><ele>103.0</ele><time>2026-04-04T06:11:27.124Z</time></trkpt><trkpt lat="45.694092" lon="11.5449674"><ele>104.0</ele><time>2026-04-04T06:11:28.125Z</time></trkpt><trkpt lat="45.6941392" lon="11.5453736"><ele>104.0</ele><time>2026-04-04T06:11:29.125Z</time></trkpt><trkpt lat="45.6941674" lon="11.5457937"><ele>104.0</ele><time>2026-04-04T06:11:30.125Z</time></trkpt><trkpt lat="45.6942033" lon="11.5462129"><ele>102.5</ele><time>2026-04-04T06:11:31.125Z</time></trkpt><trkpt lat="45.694246" lon="11.5466266"><ele>101.0</ele><time>2026-04-04T06:11:32.124Z</time></trkpt><trkpt lat="45.6942958" lon="11.5470416"><ele>101.5</ele><time>2026-04-04T06:11:33.125Z</time></trkpt><trkpt lat="45.6943477" lon="11.5474513"><ele>102.0</ele><time>2026-04-04T06:11:34.124Z</time></trkpt><trkpt lat="45.6943914" lon="11.547854"><ele>101.5</ele><time>2026-04-04T06:11:35.125Z</time></trkpt><trkpt lat="45.6944394" lon="11.5482561"><ele>101.0</ele><time>2026-04-04T06:11:36.125Z</time></trkpt><trkpt lat="45.6944869" lon="11.5486457"><ele>98.0</ele><time>2026-04-04T06:11:37.124Z</time></trkpt><trkpt lat="45.6945337" lon="11.5490302"><ele>95.0</ele><time>2026-04-04T06:11:38.123Z</time></trkpt><trkpt lat="45.6945786" lon="11.549409"><ele>95.5</ele><time>2026-04-04T06:11:39.124Z</time></trkpt><trkpt lat="45.6946165" lon="11.5497678"><ele>96.0</ele><time>2026-04-04T06:11:40.125Z</time></trkpt><trkpt lat="45.6946594" lon="11.5501034"><ele>97.33333333333334</ele><time>2026-04-04T06:11:41.124Z</time></trkpt><trkpt lat="45.6946957" lon="11.5504138"><ele>98.66666666666667</ele><time>2026-04-04T06:11:42.124Z</time></trkpt><trkpt lat="45.6947329" lon="11.5507016"><ele>100.0</ele><time>2026-04-04T06:11:43.124Z</time></trkpt><trkpt lat="45.6947641" lon="11.5509644"><ele>100.0</ele><time>2026-04-04T06:11:44.125Z</time></trkpt><trkpt lat="45.6947904" lon="11.5512041"><ele>100.0</ele><time>2026-04-04T06:11:45.126Z</time></trkpt><trkpt lat="45.694808" lon="11.5514089"><ele>100.0</ele><time>2026-04-04T06:11:46.125Z</time></trkpt><trkpt lat="45.6948054" lon="11.5515785"><ele>100.0</ele><time>2026-04-04T06:11:47.125Z</time></trkpt><trkpt lat="45.6947728" lon="11.5517105"><ele>100.0</ele><time>2026-04-04T06:11:48.126Z</time></trkpt><trkpt lat="45.6947066" lon="11.5518087"><ele>100.0</ele><time>2026-04-04T06:11:49.125Z</time></trkpt><trkpt lat="45.694614" lon="11.5518778"><ele>100.0</ele><time>2026-04-04T06:11:50.125Z</time></trkpt><trkpt lat="45.6945168" lon="11.5519443"><ele>100.0</ele><time>2026-04-04T06:11:51.125Z</time></trkpt><trkpt lat="45.6944403" lon="11.5520453"><ele>100.0</ele><time>2026-04-04T06:11:52.124Z</time></trkpt><trkpt lat="45.6944006" lon="11.5521734"><ele>100.0</ele><time>2026-04-04T06:11:53.125Z</time></trkpt><trkpt lat="45.6944023" lon="11.5523249"><ele>100.0</ele><time>2026-04-04T06:11:54.125Z</time></trkpt><trkpt lat="45.6944432" lon="11.5524677"><ele>100.0</ele><time>2026-04-04T06:11:55.124Z</time></trkpt><trkpt lat="45.6945168" lon="11.5525854"><ele>100.0</ele><time>2026-04-04T06:11:56.126Z</time></trkpt><trkpt lat="45.6946039" lon="11.5527"><ele>100.0</ele><time>2026-04-04T06:11:57.125Z</time></trkpt><trkpt lat="45.6946867" lon="11.5528427"><ele>100.0</ele><time>2026-04-04T06:11:58.124Z</time></trkpt><trkpt lat="45.6947501" lon="11.5530209"><ele>100.0</ele><time>2026-04-04T06:11:59.125Z</time></trkpt><trkpt lat="45.6948067" lon="11.5532416"><ele>100.0</ele><time>2026-04-04T06:12:00.124Z</time></trkpt><trkpt lat="45.6948663" lon="11.5535026"><ele>100.0</ele><time>2026-04-04T06:12:01.125Z</time></trkpt><trkpt lat="45.6949262" lon="11.5538017"><ele>100.0</ele><time>2026-04-04T06:12:02.124Z</time></trkpt><trkpt lat="45.6949819" lon="11.5541347"><ele>100.0</ele><time>2026-04-04T06:12:03.125Z</time></trkpt><trkpt lat="45.6950242" lon="11.5545101"><ele>100.0</ele><time>2026-04-04T06:12:04.125Z</time></trkpt><trkpt lat="45.6950524" lon="11.5549184"><ele>101.0</ele><time>2026-04-04T06:12:05.124Z</time></trkpt><trkpt lat="45.6950652" lon="11.5553422"><ele>102.0</ele><time>2026-04-04T06:12:06.125Z</time></trkpt><trkpt lat="45.6950764" lon="11.5557802"><ele>101.5</ele><time>2026-04-04T06:12:07.125Z</time></trkpt><trkpt lat="45.695097" lon="11.5562109"><ele>101.0</ele><time>2026-04-04T06:12:08.124Z</time></trkpt><trkpt lat="45.6951247" lon="11.5566425"><ele>102.0</ele><time>2026-04-04T06:12:09.124Z</time></trkpt><trkpt lat="45.6951481" lon="11.5570502"><ele>103.0</ele><time>2026-04-04T06:12:10.125Z</time></trkpt><trkpt lat="45.6951681" lon="11.5574373"><ele>103.0</ele><time>2026-04-04T06:12:11.124Z</time></trkpt><trkpt lat="45.6951911" lon="11.5578052"><ele>103.0</ele><time>2026-04-04T06:12:12.125Z</time></trkpt><trkpt lat="45.695192" lon="11.5581587"><ele>103.0</ele><time>2026-04-04T06:12:13.124Z</time></trkpt><trkpt lat="45.6951695" lon="11.5584918"><ele>103.0</ele><time>2026-04-04T06:12:14.126Z</time></trkpt><trkpt lat="45.6951121" lon="11.5588174"><ele>101.5</ele><time>2026-04-04T06:12:15.125Z</time></trkpt><trkpt lat="45.6950426" lon="11.5591375"><ele>100.0</ele><time>2026-04-04T06:12:16.125Z</time></trkpt><trkpt lat="45.6949256" lon="11.5594254"><ele>100.0</ele><time>2026-04-04T06:12:17.124Z</time></trkpt><trkpt lat="45.6947889" lon="11.559703"><ele>100.0</ele><time>2026-04-04T06:12:18.125Z</time></trkpt><trkpt lat="45.6946343" lon="11.5599557"><ele>100.0</ele><time>2026-04-04T06:12:19.125Z</time></trkpt><trkpt lat="45.6944575" lon="11.5601864"><ele>100.0</ele><time>2026-04-04T06:12:20.125Z</time></trkpt><trkpt lat="45.6942848" lon="11.5604069"><ele>99.0</ele><time>2026-04-04T06:12:21.125Z</time></trkpt><trkpt lat="45.6941347" lon="11.5606627"><ele>98.0</ele><time>2026-04-04T06:12:22.124Z</time></trkpt><trkpt lat="45.6940085" lon="11.5609412"><ele>98.0</ele><time>2026-04-04T06:12:23.124Z</time></trkpt><trkpt lat="45.693903" lon="11.5612397"><ele>98.0</ele><time>2026-04-04T06:12:24.126Z</time></trkpt><trkpt lat="45.6938111" lon="11.5615506"><ele>98.0</ele><time>2026-04-04T06:12:25.124Z</time></trkpt><trkpt lat="45.693738" lon="11.5618412"><ele>98.0</ele><time>2026-04-04T06:12:26.124Z</time></trkpt><trkpt lat="45.6936762" lon="11.5621115"><ele>98.0</ele><time>2026-04-04T06:12:27.125Z</time></trkpt><trkpt lat="45.6936223" lon="11.5623563"><ele>98.0</ele><time>2026-04-04T06:12:28.124Z</time></trkpt><trkpt lat="45.6935704" lon="11.5625724"><ele>98.0</ele><time>2026-04-04T06:12:29.126Z</time></trkpt><trkpt lat="45.693511" lon="11.5627577"><ele>98.0</ele><time>2026-04-04T06:12:30.124Z</time></trkpt><trkpt lat="45.6934484" lon="11.5629265"><ele>98.0</ele><time>2026-04-04T06:12:31.125Z</time></trkpt><trkpt lat="45.6933484" lon="11.5630568"><ele>98.0</ele><time>2026-04-04T06:12:32.125Z</time></trkpt><trkpt lat="45.6932817" lon="11.5632098"><ele>98.0</ele><time>2026-04-04T06:12:33.124Z</time></trkpt><trkpt lat="45.6932543" lon="11.563377"><ele>98.0</ele><time>2026-04-04T06:12:34.125Z</time></trkpt><trkpt lat="45.6932646" lon="11.5635432"><ele>98.0</ele><time>2026-04-04T06:12:35.124Z</time></trkpt><trkpt lat="45.6933154" lon="11.56371"><ele>98.0</ele><time>2026-04-04T06:12:36.124Z</time></trkpt><trkpt lat="45.6934042" lon="11.5638772"><ele>98.0</ele><time>2026-04-04T06:12:37.125Z</time></trkpt><trkpt lat="45.693503" lon="11.5640795"><ele>98.0</ele><time>2026-04-04T06:12:38.124Z</time></trkpt><trkpt lat="45.6935996" lon="11.5643141"><ele>98.66666666666666</ele><time>2026-04-04T06:12:39.124Z</time></trkpt><trkpt lat="45.6936824" lon="11.5645874"><ele>99.33333333333334</ele><time>2026-04-04T06:12:40.124Z</time></trkpt><trkpt lat="45.6937501" lon="11.5648966"><ele>100.0</ele><time>2026-04-04T06:12:41.124Z</time></trkpt><trkpt lat="45.6937916" lon="11.5652346"><ele>99.5</ele><time>2026-04-04T06:12:42.125Z</time></trkpt><trkpt lat="45.6938086" lon="11.5655971"><ele>99.0</ele><time>2026-04-04T06:12:43.124Z</time></trkpt><trkpt lat="45.6938127" lon="11.565984"><ele>98.0</ele><time>2026-04-04T06:12:44.126Z</time></trkpt><trkpt lat="45.6938203" lon="11.5663844"><ele>97.0</ele><time>2026-04-04T06:12:45.126Z</time></trkpt><trkpt lat="45.6938295" lon="11.566781"><ele>96.5</ele><time>2026-04-04T06:12:46.125Z</time></trkpt><trkpt lat="45.6938359" lon="11.5671568"><ele>96.0</ele><time>2026-04-04T06:12:47.125Z</time></trkpt><trkpt lat="45.693853" lon="11.5675021"><ele>96.0</ele><time>2026-04-04T06:12:48.126Z</time></trkpt><trkpt lat="45.6938919" lon="11.56782"><ele>96.0</ele><time>2026-04-04T06:12:49.124Z</time></trkpt><trkpt lat="45.6939623" lon="11.5681222"><ele>96.0</ele><time>2026-04-04T06:12:50.126Z</time></trkpt><trkpt lat="45.6940737" lon="11.5683966"><ele>95.66666666666667</ele><time>2026-04-04T06:12:51.126Z</time></trkpt><trkpt lat="45.6942151" lon="11.5686321"><ele>95.33333333333334</ele><time>2026-04-04T06:12:52.124Z</time></trkpt><trkpt lat="45.6943919" lon="11.5688239"><ele>95.0</ele><time>2026-04-04T06:12:53.125Z</time></trkpt><trkpt lat="45.6945937" lon="11.5689705"><ele>95.0</ele><time>2026-04-04T06:12:54.125Z</time></trkpt><trkpt lat="45.6948024" lon="11.5690957"><ele>95.0</ele><time>2026-04-04T06:12:55.125Z</time></trkpt><trkpt lat="45.6950012" lon="11.5692431"><ele>95.0</ele><time>2026-04-04T06:12:56.125Z</time></trkpt><trkpt lat="45.6951791" lon="11.5694221"><ele>95.0</ele><time>2026-04-04T06:12:57.126Z</time></trkpt><trkpt lat="45.6953256" lon="11.5696493"><ele>95.0</ele><time>2026-04-04T06:12:58.126Z</time></trkpt><trkpt lat="45.6954432" lon="11.5699185"><ele>95.0</ele><time>2026-04-04T06:12:59.124Z</time></trkpt><trkpt lat="45.6955267" lon="11.5702293"><ele>95.0</ele><time>2026-04-04T06:13:00.126Z</time></trkpt><trkpt lat="45.6955785" lon="11.570569"><ele>95.0</ele><time>2026-04-04T06:13:01.124Z</time></trkpt><trkpt lat="45.6956112" lon="11.570935"><ele>95.0</ele><time>2026-04-04T06:13:02.125Z</time></trkpt><trkpt lat="45.695642" lon="11.5713079"><ele>95.0</ele><time>2026-04-04T06:13:03.124Z</time></trkpt><trkpt lat="45.695678" lon="11.571688"><ele>95.0</ele><time>2026-04-04T06:13:04.125Z</time></trkpt><trkpt lat="45.6957168" lon="11.5720693"><ele>95.0</ele><time>2026-04-04T06:13:05.124Z</time></trkpt><trkpt lat="45.6957563" lon="11.5724568"><ele>95.0</ele><time>2026-04-04T06:13:06.125Z</time></trkpt><trkpt lat="45.695796" lon="11.5728422"><ele>94.5</ele><time>2026-04-04T06:13:07.124Z</time></trkpt><trkpt lat="45.6958371" lon="11.5732186"><ele>94.0</ele><time>2026-04-04T06:13:08.125Z</time></trkpt><trkpt lat="45.6958858" lon="11.5735959"><ele>93.5</ele><time>2026-04-04T06:13:09.124Z</time></trkpt><trkpt lat="45.6959332" lon="11.5739715"><ele>93.0</ele><time>2026-04-04T06:13:10.125Z</time></trkpt><trkpt lat="45.695985" lon="11.5743449"><ele>93.0</ele><time>2026-04-04T06:13:11.125Z</time></trkpt><trkpt lat="45.6960375" lon="11.5747134"><ele>93.0</ele><time>2026-04-04T06:13:12.124Z</time></trkpt><trkpt lat="45.6960885" lon="11.575035"><ele>93.33333333333333</ele><time>2026-04-04T06:13:13.124Z</time></trkpt><trkpt lat="45.6961296" lon="11.5752866"><ele>93.66666666666666</ele><time>2026-04-04T06:13:14.125Z</time></trkpt><trkpt lat="45.6961781" lon="11.575523"><ele>94.0</ele><time>2026-04-04T06:13:15.125Z</time></trkpt><trkpt lat="45.69622" lon="11.5757745"><ele>94.0</ele><time>2026-04-04T06:13:16.126Z</time></trkpt><trkpt lat="45.6962534" lon="11.5760524"><ele>94.0</ele><time>2026-04-04T06:13:17.125Z</time></trkpt><trkpt lat="45.6962934" lon="11.5763334"><ele>94.0</ele><time>2026-04-04T06:13:18.124Z</time></trkpt><trkpt lat="45.6963362" lon="11.5766146"><ele>93.66666666666666</ele><time>2026-04-04T06:13:19.124Z</time></trkpt><trkpt lat="45.6963782" lon="11.5768931"><ele>93.33333333333333</ele><time>2026-04-04T06:13:20.124Z</time></trkpt><trkpt lat="45.6964161" lon="11.5771568"><ele>93.0</ele><time>2026-04-04T06:13:21.126Z</time></trkpt><trkpt lat="45.6964568" lon="11.5774041"><ele>92.75</ele><time>2026-04-04T06:13:22.124Z</time></trkpt><trkpt lat="45.6964962" lon="11.5776314"><ele>92.5</ele><time>2026-04-04T06:13:23.124Z</time></trkpt><trkpt lat="45.6965465" lon="11.5778249"><ele>92.25</ele><time>2026-04-04T06:13:24.125Z</time></trkpt><trkpt lat="45.6966172" lon="11.5779884"><ele>92.0</ele><time>2026-04-04T06:13:25.125Z</time></trkpt><trkpt lat="45.696699" lon="11.5781089"><ele>92.0</ele><time>2026-04-04T06:13:26.125Z</time></trkpt><trkpt lat="45.69679" lon="11.5782155"><ele>92.0</ele><time>2026-04-04T06:13:27.124Z</time></trkpt><trkpt lat="45.6968614" lon="11.5783559"><ele>92.0</ele><time>2026-04-04T06:13:28.125Z</time></trkpt><trkpt lat="45.6969276" lon="11.5785067"><ele>92.0</ele><time>2026-04-04T06:13:29.124Z</time></trkpt><trkpt lat="45.6970184" lon="11.5786343"><ele>92.75</ele><time>2026-04-04T06:13:30.124Z</time></trkpt><trkpt lat="45.6971278" lon="11.5787225"><ele>93.5</ele><time>2026-04-04T06:13:31.124Z</time></trkpt><trkpt lat="45.6972435" lon="11.5788096"><ele>94.25</ele><time>2026-04-04T06:13:32.127Z</time></trkpt><trkpt lat="45.697353" lon="11.5789303"><ele>95.0</ele><time>2026-04-04T06:13:33.124Z</time></trkpt><trkpt lat="45.6974287" lon="11.5791116"><ele>95.0</ele><time>2026-04-04T06:13:34.124Z</time></trkpt><trkpt lat="45.6974714" lon="11.579349"><ele>95.0</ele><time>2026-04-04T06:13:35.124Z</time></trkpt><trkpt lat="45.6975288" lon="11.5795946"><ele>95.0</ele><time>2026-04-04T06:13:36.125Z</time></trkpt><trkpt lat="45.6976046" lon="11.579858"><ele>95.0</ele><time>2026-04-04T06:13:37.125Z</time></trkpt><trkpt lat="45.697709" lon="11.5800987"><ele>95.0</ele><time>2026-04-04T06:13:38.125Z</time></trkpt><trkpt lat="45.6978172" lon="11.5803512"><ele>95.0</ele><time>2026-04-04T06:13:39.124Z</time></trkpt><trkpt lat="45.6979117" lon="11.5806128"><ele>94.66666666666667</ele><time>2026-04-04T06:13:40.126Z</time></trkpt><trkpt lat="45.6979918" lon="11.5808908"><ele>94.33333333333333</ele><time>2026-04-04T06:13:41.125Z</time></trkpt><trkpt lat="45.6980665" lon="11.5811777"><ele>94.0</ele><time>2026-04-04T06:13:42.125Z</time></trkpt><trkpt lat="45.6981434" lon="11.5814668"><ele>93.66666666666666</ele><time>2026-04-04T06:13:43.126Z</time></trkpt><trkpt lat="45.6982224" lon="11.5817623"><ele>93.33333333333333</ele><time>2026-04-04T06:13:44.125Z</time></trkpt><trkpt lat="45.6983066" lon="11.5820596"><ele>93.0</ele><time>2026-04-04T06:13:45.126Z</time></trkpt><trkpt lat="45.6983908" lon="11.5823672"><ele>92.5</ele><time>2026-04-04T06:13:46.125Z</time></trkpt><trkpt lat="45.6984749" lon="11.5826856"><ele>92.0</ele><time>2026-04-04T06:13:47.125Z</time></trkpt><trkpt lat="45.6985609" lon="11.5830047"><ele>91.5</ele><time>2026-04-04T06:13:48.125Z</time></trkpt><trkpt lat="45.6986457" lon="11.5833285"><ele>91.0</ele><time>2026-04-04T06:13:49.125Z</time></trkpt><trkpt lat="45.6987339" lon="11.5836529"><ele>91.0</ele><time>2026-04-04T06:13:50.125Z</time></trkpt><trkpt lat="45.6988156" lon="11.5839768"><ele>91.0</ele><time>2026-04-04T06:13:51.127Z</time></trkpt><trkpt lat="45.6989013" lon="11.5842994"><ele>90.5</ele><time>2026-04-04T06:13:52.126Z</time></trkpt><trkpt lat="45.6989895" lon="11.5846213"><ele>90.0</ele><time>2026-04-04T06:13:53.124Z</time></trkpt><trkpt lat="45.699077" lon="11.5849369"><ele>90.0</ele><time>2026-04-04T06:13:54.124Z</time></trkpt><trkpt lat="45.6991633" lon="11.5852543"><ele>90.0</ele><time>2026-04-04T06:13:55.124Z</time></trkpt><trkpt lat="45.6993405" lon="11.585894"><ele>90.0</ele><time>2026-04-04T06:13:57.126Z</time></trkpt><trkpt lat="45.6994342" lon="11.5862135"><ele>90.0</ele><time>2026-04-04T06:13:58.125Z</time></trkpt><trkpt lat="45.6995291" lon="11.5865384"><ele>90.0</ele><time>2026-04-04T06:13:59.126Z</time></trkpt><trkpt lat="45.699627" lon="11.5868597"><ele>90.0</ele><time>2026-04-04T06:14:00.126Z</time></trkpt><trkpt lat="45.699719" lon="11.5871948"><ele>89.5</ele><time>2026-04-04T06:14:01.125Z</time></trkpt><trkpt lat="45.6998125" lon="11.5875271"><ele>89.0</ele><time>2026-04-04T06:14:02.124Z</time></trkpt><trkpt lat="45.6999065" lon="11.587857"><ele>88.5</ele><time>2026-04-04T06:14:03.125Z</time></trkpt><trkpt lat="45.6999997" lon="11.5881808"><ele>88.0</ele><time>2026-04-04T06:14:04.125Z</time></trkpt><trkpt lat="45.7000884" lon="11.5884965"><ele>88.0</ele><time>2026-04-04T06:14:05.124Z</time></trkpt><trkpt lat="45.7001781" lon="11.5888246"><ele>88.0</ele><time>2026-04-04T06:14:06.125Z</time></trkpt><trkpt lat="45.700268" lon="11.589149"><ele>87.5</ele><time>2026-04-04T06:14:07.126Z</time></trkpt><trkpt lat="45.7003598" lon="11.5894784"><ele>87.0</ele><time>2026-04-04T06:14:08.125Z</time></trkpt><trkpt lat="45.7004519" lon="11.5897969"><ele>85.5</ele><time>2026-04-04T06:14:09.126Z</time></trkpt><trkpt lat="45.7005434" lon="11.5901186"><ele>84.0</ele><time>2026-04-04T06:14:10.126Z</time></trkpt><trkpt lat="45.7006345" lon="11.5904339"><ele>84.0</ele><time>2026-04-04T06:14:11.126Z</time></trkpt><trkpt lat="45.7007327" lon="11.5907416"><ele>84.0</ele><time>2026-04-04T06:14:12.125Z</time></trkpt><trkpt lat="45.7008255" lon="11.5910552"><ele>84.0</ele><time>2026-04-04T06:14:13.127Z</time></trkpt><trkpt lat="45.7009202" lon="11.591373"><ele>84.0</ele><time>2026-04-04T06:14:14.126Z</time></trkpt><trkpt lat="45.7010144" lon="11.5916908"><ele>83.5</ele><time>2026-04-04T06:14:15.126Z</time></trkpt><trkpt lat="45.7011079" lon="11.5920127"><ele>83.0</ele><time>2026-04-04T06:14:16.124Z</time></trkpt><trkpt lat="45.7012034" lon="11.5923316"><ele>83.0</ele><time>2026-04-04T06:14:17.124Z</time></trkpt><trkpt lat="45.7012955" lon="11.5926559"><ele>83.0</ele><time>2026-04-04T06:14:18.126Z</time></trkpt><trkpt lat="45.7013917" lon="11.5929814"><ele>82.5</ele><time>2026-04-04T06:14:19.125Z</time></trkpt><trkpt lat="45.701488" lon="11.5933118"><ele>82.0</ele><time>2026-04-04T06:14:20.125Z</time></trkpt><trkpt lat="45.7015821" lon="11.5936346"><ele>82.0</ele><time>2026-04-04T06:14:21.125Z</time></trkpt><trkpt lat="45.7016743" lon="11.593951"><ele>82.0</ele><time>2026-04-04T06:14:22.125Z</time></trkpt><trkpt lat="45.7017616" lon="11.5942551"><ele>82.0</ele><time>2026-04-04T06:14:23.126Z</time></trkpt><trkpt lat="45.7018504" lon="11.5945622"><ele>82.0</ele><time>2026-04-04T06:14:24.125Z</time></trkpt><trkpt lat="45.7019393" lon="11.5948664"><ele>82.0</ele><time>2026-04-04T06:14:25.125Z</time></trkpt><trkpt lat="45.7020283" lon="11.5951727"><ele>82.0</ele><time>2026-04-04T06:14:26.124Z</time></trkpt><trkpt lat="45.7021173" lon="11.5954833"><ele>81.5</ele><time>2026-04-04T06:14:27.126Z</time></trkpt><trkpt lat="45.7022096" lon="11.5957956"><ele>81.0</ele><time>2026-04-04T06:14:28.126Z</time></trkpt><trkpt lat="45.7023048" lon="11.5961109"><ele>81.0</ele><time>2026-04-04T06:14:29.125Z</time></trkpt><trkpt lat="45.7024038" lon="11.596424"><ele>81.0</ele><time>2026-04-04T06:14:30.125Z</time></trkpt><trkpt lat="45.7025021" lon="11.596746"><ele>80.5</ele><time>2026-04-04T06:14:31.126Z</time></trkpt><trkpt lat="45.702596" lon="11.5970599"><ele>80.0</ele><time>2026-04-04T06:14:32.126Z</time></trkpt><trkpt lat="45.7026942" lon="11.5973842"><ele>79.5</ele><time>2026-04-04T06:14:33.124Z</time></trkpt><trkpt lat="45.7027853" lon="11.5976909"><ele>79.0</ele><time>2026-04-04T06:14:34.125Z</time></trkpt><trkpt lat="45.7028749" lon="11.5979821"><ele>78.66666666666666</ele><time>2026-04-04T06:14:35.126Z</time></trkpt><trkpt lat="45.7029548" lon="11.5982555"><ele>78.33333333333333</ele><time>2026-04-04T06:14:36.126Z</time></trkpt><trkpt lat="45.7030305" lon="11.5985189"><ele>78.0</ele><time>2026-04-04T06:14:37.125Z</time></trkpt><trkpt lat="45.7031052" lon="11.5987738"><ele>77.66666666666667</ele><time>2026-04-04T06:14:38.126Z</time></trkpt><trkpt lat="45.7031771" lon="11.5990129"><ele>77.33333333333334</ele><time>2026-04-04T06:14:39.126Z</time></trkpt><trkpt lat="45.7032447" lon="11.5992425"><ele>77.0</ele><time>2026-04-04T06:14:40.126Z</time></trkpt><trkpt lat="45.7033103" lon="11.5994616"><ele>77.33333333333334</ele><time>2026-04-04T06:14:41.125Z</time></trkpt><trkpt lat="45.7033699" lon="11.599669"><ele>77.66666666666667</ele><time>2026-04-04T06:14:42.125Z</time></trkpt><trkpt lat="45.7034329" lon="11.5998662"><ele>78.0</ele><time>2026-04-04T06:14:43.125Z</time></trkpt><trkpt lat="45.7034863" lon="11.6000585"><ele>78.0</ele><time>2026-04-04T06:14:44.125Z</time></trkpt><trkpt lat="45.7035472" lon="11.600236"><ele>78.0</ele><time>2026-04-04T06:14:45.125Z</time></trkpt><trkpt lat="45.7036092" lon="11.6004062"><ele>78.0</ele><time>2026-04-04T06:14:46.127Z</time></trkpt><trkpt lat="45.7036776" lon="11.6005585"><ele>78.0</ele><time>2026-04-04T06:14:47.125Z</time></trkpt><trkpt lat="45.7037604" lon="11.6006885"><ele>77.75</ele><time>2026-04-04T06:14:48.125Z</time></trkpt><trkpt lat="45.7038485" lon="11.6008082"><ele>77.5</ele><time>2026-04-04T06:14:49.125Z</time></trkpt><trkpt lat="45.7039461" lon="11.6009181"><ele>77.25</ele><time>2026-04-04T06:14:50.126Z</time></trkpt><trkpt lat="45.7040378" lon="11.6010383"><ele>77.0</ele><time>2026-04-04T06:14:51.124Z</time></trkpt><trkpt lat="45.7041193" lon="11.6011511"><ele>77.0</ele><time>2026-04-04T06:14:52.126Z</time></trkpt><trkpt lat="45.704176" lon="11.6012575"><ele>77.0</ele><time>2026-04-04T06:14:53.125Z</time></trkpt><trkpt lat="45.7042149" lon="11.6013661"><ele>77.0</ele><time>2026-04-04T06:14:54.125Z</time></trkpt><trkpt lat="45.704237" lon="11.6014753"><ele>77.0</ele><time>2026-04-04T06:14:55.125Z</time></trkpt><trkpt lat="45.7042215" lon="11.6015866"><ele>77.0</ele><time>2026-04-04T06:14:56.125Z</time></trkpt><trkpt lat="45.7042077" lon="11.601703"><ele>77.0</ele><time>2026-04-04T06:14:57.126Z</time></trkpt><trkpt lat="45.704211" lon="11.6018185"><ele>77.0</ele><time>2026-04-04T06:14:58.125Z</time></trkpt><trkpt lat="45.7042368" lon="11.601916"><ele>77.0</ele><time>2026-04-04T06:14:59.125Z</time></trkpt><trkpt lat="45.7042733" lon="11.6020004"><ele>77.0</ele><time>2026-04-04T06:15:00.126Z</time></trkpt><trkpt lat="45.7043428" lon="11.6020692"><ele>77.0</ele><time>2026-04-04T06:15:01.126Z</time></trkpt><trkpt lat="45.7044122" lon="11.6021538"><ele>77.0</ele><time>2026-04-04T06:15:02.127Z</time></trkpt><trkpt lat="45.7044791" lon="11.6022644"><ele>77.0</ele><time>2026-04-04T06:15:03.125Z</time></trkpt><trkpt lat="45.7045437" lon="11.602402"><ele>77.0</ele><time>2026-04-04T06:15:04.125Z</time></trkpt><trkpt lat="45.7046169" lon="11.602577"><ele>77.0</ele><time>2026-04-04T06:15:05.125Z</time></trkpt><trkpt lat="45.7047041" lon="11.602798"><ele>77.0</ele><time>2026-04-04T06:15:06.125Z</time></trkpt><trkpt lat="45.7048026" lon="11.603057"><ele>77.5</ele><time>2026-04-04T06:15:07.125Z</time></trkpt><trkpt lat="45.7049041" lon="11.6033519"><ele>78.0</ele><time>2026-04-04T06:15:08.125Z</time></trkpt><trkpt lat="45.705007" lon="11.6036778"><ele>78.0</ele><time>2026-04-04T06:15:09.125Z</time></trkpt><trkpt lat="45.7051084" lon="11.6040294"><ele>78.0</ele><time>2026-04-04T06:15:10.125Z</time></trkpt><trkpt lat="45.7052082" lon="11.604394"><ele>77.5</ele><time>2026-04-04T06:15:11.126Z</time></trkpt><trkpt lat="45.7053098" lon="11.6047685"><ele>77.0</ele><time>2026-04-04T06:15:12.126Z</time></trkpt><trkpt lat="45.7054067" lon="11.6051509"><ele>77.5</ele><time>2026-04-04T06:15:13.125Z</time></trkpt><trkpt lat="45.7055051" lon="11.6055298"><ele>78.0</ele><time>2026-04-04T06:15:14.124Z</time></trkpt><trkpt lat="45.7056066" lon="11.6058998"><ele>77.5</ele><time>2026-04-04T06:15:15.125Z</time></trkpt><trkpt lat="45.7057106" lon="11.6062682"><ele>77.0</ele><time>2026-04-04T06:15:16.125Z</time></trkpt><trkpt lat="45.7058168" lon="11.6066317"><ele>77.0</ele><time>2026-04-04T06:15:17.127Z</time></trkpt><trkpt lat="45.7059311" lon="11.6069893"><ele>77.0</ele><time>2026-04-04T06:15:18.125Z</time></trkpt><trkpt lat="45.7060451" lon="11.6073423"><ele>79.0</ele><time>2026-04-04T06:15:19.125Z</time></trkpt><trkpt lat="45.706152" lon="11.607679"><ele>81.0</ele><time>2026-04-04T06:15:20.125Z</time></trkpt><trkpt lat="45.7062583" lon="11.6080014"><ele>81.0</ele><time>2026-04-04T06:15:21.124Z</time></trkpt><trkpt lat="45.7063667" lon="11.6083007"><ele>81.0</ele><time>2026-04-04T06:15:22.125Z</time></trkpt><trkpt lat="45.706485" lon="11.6085847"><ele>79.5</ele><time>2026-04-04T06:15:23.125Z</time></trkpt><trkpt lat="45.706619" lon="11.6088575"><ele>78.0</ele><time>2026-04-04T06:15:24.125Z</time></trkpt><trkpt lat="45.7067608" lon="11.6091166"><ele>78.0</ele><time>2026-04-04T06:15:25.126Z</time></trkpt><trkpt lat="45.7068968" lon="11.60938"><ele>78.0</ele><time>2026-04-04T06:15:26.126Z</time></trkpt><trkpt lat="45.7070098" lon="11.6096472"><ele>78.0</ele><time>2026-04-04T06:15:27.126Z</time></trkpt><trkpt lat="45.7071035" lon="11.609922"><ele>77.33333333333333</ele><time>2026-04-04T06:15:28.126Z</time></trkpt><trkpt lat="45.7071814" lon="11.610199"><ele>76.66666666666666</ele><time>2026-04-04T06:15:29.126Z</time></trkpt><trkpt lat="45.7072384" lon="11.610476"><ele>76.0</ele><time>2026-04-04T06:15:30.126Z</time></trkpt><trkpt lat="45.7072697" lon="11.6107596"><ele>76.0</ele><time>2026-04-04T06:15:31.125Z</time></trkpt><trkpt lat="45.7072869" lon="11.6110506"><ele>76.0</ele><time>2026-04-04T06:15:32.125Z</time></trkpt><trkpt lat="45.7072834" lon="11.6113392"><ele>76.0</ele><time>2026-04-04T06:15:33.125Z</time></trkpt><trkpt lat="45.707267" lon="11.6116251"><ele>76.0</ele><time>2026-04-04T06:15:34.125Z</time></trkpt><trkpt lat="45.7072414" lon="11.6119071"><ele>76.0</ele><time>2026-04-04T06:15:35.125Z</time></trkpt><trkpt lat="45.7072036" lon="11.6121596"><ele>76.0</ele><time>2026-04-04T06:15:36.126Z</time></trkpt><trkpt lat="45.7071712" lon="11.6124213"><ele>76.25</ele><time>2026-04-04T06:15:37.125Z</time></trkpt><trkpt lat="45.7070847" lon="11.6126073"><ele>76.5</ele><time>2026-04-04T06:15:38.125Z</time></trkpt><trkpt lat="45.7070427" lon="11.6127663"><ele>76.75</ele><time>2026-04-04T06:15:39.127Z</time></trkpt><trkpt lat="45.7069959" lon="11.6129224"><ele>77.0</ele><time>2026-04-04T06:15:40.124Z</time></trkpt><trkpt lat="45.7069513" lon="11.6130604"><ele>76.2</ele><time>2026-04-04T06:15:41.125Z</time></trkpt><trkpt lat="45.7068695" lon="11.6131742"><ele>75.4</ele><time>2026-04-04T06:15:42.126Z</time></trkpt><trkpt lat="45.7067864" lon="11.6132753"><ele>74.6</ele><time>2026-04-04T06:15:43.126Z</time></trkpt><trkpt lat="45.7067351" lon="11.6133935"><ele>73.8</ele><time>2026-04-04T06:15:44.125Z</time></trkpt><trkpt lat="45.7067196" lon="11.6135219"><ele>73.0</ele><time>2026-04-04T06:15:45.125Z</time></trkpt><trkpt lat="45.706743" lon="11.6136388"><ele>73.5</ele><time>2026-04-04T06:15:46.126Z</time></trkpt><trkpt lat="45.7068068" lon="11.613735"><ele>74.0</ele><time>2026-04-04T06:15:47.125Z</time></trkpt><trkpt lat="45.7069029" lon="11.6138036"><ele>74.5</ele><time>2026-04-04T06:15:48.126Z</time></trkpt><trkpt lat="45.7070194" lon="11.6138907"><ele>75.0</ele><time>2026-04-04T06:15:49.126Z</time></trkpt><trkpt lat="45.7071355" lon="11.6140145"><ele>76.0</ele><time>2026-04-04T06:15:50.126Z</time></trkpt><trkpt lat="45.707243" lon="11.6141616"><ele>77.0</ele><time>2026-04-04T06:15:51.126Z</time></trkpt><trkpt lat="45.707346" lon="11.6143295"><ele>78.0</ele><time>2026-04-04T06:15:52.125Z</time></trkpt><trkpt lat="45.7074436" lon="11.6145119"><ele>78.0</ele><time>2026-04-04T06:15:53.126Z</time></trkpt><trkpt lat="45.7075313" lon="11.6147048"><ele>78.0</ele><time>2026-04-04T06:15:54.125Z</time></trkpt><trkpt lat="45.7076099" lon="11.6149119"><ele>78.0</ele><time>2026-04-04T06:15:55.126Z</time></trkpt><trkpt lat="45.7076816" lon="11.6151395"><ele>78.0</ele><time>2026-04-04T06:15:56.125Z</time></trkpt><trkpt lat="45.7077594" lon="11.6154005"><ele>78.0</ele><time>2026-04-04T06:15:57.126Z</time></trkpt><trkpt lat="45.7078375" lon="11.6157056"><ele>78.0</ele><time>2026-04-04T06:15:58.125Z</time></trkpt><trkpt lat="45.7079075" lon="11.616046"><ele>76.5</ele><time>2026-04-04T06:15:59.126Z</time></trkpt><trkpt lat="45.707976" lon="11.6164056"><ele>75.0</ele><time>2026-04-04T06:16:00.125Z</time></trkpt><trkpt lat="45.7080524" lon="11.6167797"><ele>75.5</ele><time>2026-04-04T06:16:01.127Z</time></trkpt><trkpt lat="45.7081359" lon="11.6171646"><ele>76.0</ele><time>2026-04-04T06:16:02.125Z</time></trkpt><trkpt lat="45.7082174" lon="11.6175529"><ele>76.5</ele><time>2026-04-04T06:16:03.126Z</time></trkpt><trkpt lat="45.7082947" lon="11.6179391"><ele>77.0</ele><time>2026-04-04T06:16:04.126Z</time></trkpt><trkpt lat="45.7083707" lon="11.6183173"><ele>77.0</ele><time>2026-04-04T06:16:05.126Z</time></trkpt><trkpt lat="45.7084433" lon="11.6186994"><ele>77.0</ele><time>2026-04-04T06:16:06.126Z</time></trkpt><trkpt lat="45.7085128" lon="11.6190755"><ele>77.5</ele><time>2026-04-04T06:16:07.125Z</time></trkpt><trkpt lat="45.7085785" lon="11.6194483"><ele>78.0</ele><time>2026-04-04T06:16:08.126Z</time></trkpt><trkpt lat="45.7086416" lon="11.6198144"><ele>78.0</ele><time>2026-04-04T06:16:09.126Z</time></trkpt><trkpt lat="45.7087025" lon="11.6201771"><ele>78.0</ele><time>2026-04-04T06:16:10.125Z</time></trkpt><trkpt lat="45.7087594" lon="11.6205427"><ele>78.0</ele><time>2026-04-04T06:16:11.125Z</time></trkpt><trkpt lat="45.7088123" lon="11.6209059"><ele>78.0</ele><time>2026-04-04T06:16:12.126Z</time></trkpt><trkpt lat="45.7088688" lon="11.6212728"><ele>78.0</ele><time>2026-04-04T06:16:13.125Z</time></trkpt><trkpt lat="45.7089218" lon="11.6216385"><ele>78.0</ele><time>2026-04-04T06:16:14.127Z</time></trkpt><trkpt lat="45.7089704" lon="11.6220012"><ele>78.0</ele><time>2026-04-04T06:16:15.126Z</time></trkpt><trkpt lat="45.7090224" lon="11.6223607"><ele>78.0</ele><time>2026-04-04T06:16:16.126Z</time></trkpt><trkpt lat="45.7090698" lon="11.6227207"><ele>78.5</ele><time>2026-04-04T06:16:17.125Z</time></trkpt><trkpt lat="45.7091191" lon="11.6230883"><ele>79.0</ele><time>2026-04-04T06:16:18.126Z</time></trkpt><trkpt lat="45.7091724" lon="11.6234519"><ele>78.5</ele><time>2026-04-04T06:16:19.126Z</time></trkpt><trkpt lat="45.7092292" lon="11.6238128"><ele>78.0</ele><time>2026-04-04T06:16:20.126Z</time></trkpt><trkpt lat="45.7092885" lon="11.6241735"><ele>77.5</ele><time>2026-04-04T06:16:21.125Z</time></trkpt><trkpt lat="45.7093483" lon="11.624533"><ele>77.0</ele><time>2026-04-04T06:16:22.125Z</time></trkpt><trkpt lat="45.7094097" lon="11.6248929"><ele>77.0</ele><time>2026-04-04T06:16:23.126Z</time></trkpt><trkpt lat="45.7094751" lon="11.6252526"><ele>77.0</ele><time>2026-04-04T06:16:24.128Z</time></trkpt><trkpt lat="45.7095379" lon="11.6256115"><ele>77.5</ele><time>2026-04-04T06:16:25.127Z</time></trkpt><trkpt lat="45.7096037" lon="11.6259725"><ele>78.0</ele><time>2026-04-04T06:16:26.126Z</time></trkpt><trkpt lat="45.7096785" lon="11.6263346"><ele>78.0</ele><time>2026-04-04T06:16:27.127Z</time></trkpt><trkpt lat="45.7097552" lon="11.6267009"><ele>78.0</ele><time>2026-04-04T06:16:28.126Z</time></trkpt><trkpt lat="45.7098339" lon="11.6270653"><ele>78.0</ele><time>2026-04-04T06:16:29.126Z</time></trkpt><trkpt lat="45.7099175" lon="11.6274294"><ele>78.0</ele><time>2026-04-04T06:16:30.126Z</time></trkpt><trkpt lat="45.7099981" lon="11.6277964"><ele>77.5</ele><time>2026-04-04T06:16:31.126Z</time></trkpt><trkpt lat="45.7100814" lon="11.6281595"><ele>77.0</ele><time>2026-04-04T06:16:32.125Z</time></trkpt><trkpt lat="45.7101659" lon="11.628521"><ele>77.5</ele><time>2026-04-04T06:16:33.125Z</time></trkpt><trkpt lat="45.7102533" lon="11.6288821"><ele>78.0</ele><time>2026-04-04T06:16:34.126Z</time></trkpt><trkpt lat="45.7103394" lon="11.6292458"><ele>77.0</ele><time>2026-04-04T06:16:35.127Z</time></trkpt><trkpt lat="45.7104196" lon="11.6296072"><ele>76.0</ele><time>2026-04-04T06:16:36.125Z</time></trkpt><trkpt lat="45.7105016" lon="11.6299642"><ele>74.5</ele><time>2026-04-04T06:16:37.125Z</time></trkpt><trkpt lat="45.7105869" lon="11.6303142"><ele>73.0</ele><time>2026-04-04T06:16:38.126Z</time></trkpt><trkpt lat="45.7106793" lon="11.6306571"><ele>73.0</ele><time>2026-04-04T06:16:39.125Z</time></trkpt><trkpt lat="45.7107795" lon="11.6309947"><ele>73.0</ele><time>2026-04-04T06:16:40.125Z</time></trkpt><trkpt lat="45.7108924" lon="11.6313129"><ele>72.5</ele><time>2026-04-04T06:16:41.126Z</time></trkpt><trkpt lat="45.7110174" lon="11.6316298"><ele>72.0</ele><time>2026-04-04T06:16:42.125Z</time></trkpt><trkpt lat="45.7111542" lon="11.6319285"><ele>74.5</ele><time>2026-04-04T06:16:43.127Z</time></trkpt><trkpt lat="45.7112985" lon="11.6322177"><ele>77.0</ele><time>2026-04-04T06:16:44.126Z</time></trkpt><trkpt lat="45.7114526" lon="11.6324947"><ele>77.0</ele><time>2026-04-04T06:16:45.126Z</time></trkpt><trkpt lat="45.7116166" lon="11.6327609"><ele>77.0</ele><time>2026-04-04T06:16:46.125Z</time></trkpt><trkpt lat="45.7117916" lon="11.6330126"><ele>77.0</ele><time>2026-04-04T06:16:47.125Z</time></trkpt><trkpt lat="45.7119773" lon="11.6332515"><ele>77.0</ele><time>2026-04-04T06:16:48.126Z</time></trkpt><trkpt lat="45.7121742" lon="11.6334764"><ele>77.0</ele><time>2026-04-04T06:16:49.125Z</time></trkpt><trkpt lat="45.7123797" lon="11.6336915"><ele>77.0</ele><time>2026-04-04T06:16:50.126Z</time></trkpt><trkpt lat="45.7125857" lon="11.6338994"><ele>77.0</ele><time>2026-04-04T06:16:51.127Z</time></trkpt><trkpt lat="45.7127885" lon="11.634105"><ele>77.0</ele><time>2026-04-04T06:16:52.125Z</time></trkpt><trkpt lat="45.7129865" lon="11.6342958"><ele>76.5</ele><time>2026-04-04T06:16:53.125Z</time></trkpt><trkpt lat="45.7131832" lon="11.6344841"><ele>76.0</ele><time>2026-04-04T06:16:54.126Z</time></trkpt><trkpt lat="45.7133767" lon="11.634679"><ele>78.0</ele><time>2026-04-04T06:16:55.125Z</time></trkpt><trkpt lat="45.7135748" lon="11.6348776"><ele>80.0</ele><time>2026-04-04T06:16:56.127Z</time></trkpt><trkpt lat="45.7137774" lon="11.6350809"><ele>80.0</ele><time>2026-04-04T06:16:57.125Z</time></trkpt><trkpt lat="45.7139791" lon="11.6352809"><ele>80.0</ele><time>2026-04-04T06:16:58.125Z</time></trkpt><trkpt lat="45.7141789" lon="11.635481"><ele>80.0</ele><time>2026-04-04T06:16:59.125Z</time></trkpt><trkpt lat="45.7143675" lon="11.6356833"><ele>80.0</ele><time>2026-04-04T06:17:00.126Z</time></trkpt><trkpt lat="45.7145749" lon="11.6358771"><ele>79.5</ele><time>2026-04-04T06:17:01.125Z</time></trkpt><trkpt lat="45.7147808" lon="11.6360714"><ele>79.0</ele><time>2026-04-04T06:17:02.126Z</time></trkpt><trkpt lat="45.7149744" lon="11.6362713"><ele>78.66666666666666</ele><time>2026-04-04T06:17:03.126Z</time></trkpt><trkpt lat="45.7151454" lon="11.6364637"><ele>78.33333333333333</ele><time>2026-04-04T06:17:04.126Z</time></trkpt><trkpt lat="45.7153139" lon="11.6366572"><ele>78.0</ele><time>2026-04-04T06:17:05.126Z</time></trkpt><trkpt lat="45.7154624" lon="11.6368217"><ele>78.0</ele><time>2026-04-04T06:17:06.125Z</time></trkpt><trkpt lat="45.7155941" lon="11.6369655"><ele>78.0</ele><time>2026-04-04T06:17:07.126Z</time></trkpt><trkpt lat="45.715723" lon="11.6370885"><ele>78.0</ele><time>2026-04-04T06:17:08.126Z</time></trkpt><trkpt lat="45.71581" lon="11.6371745"><ele>78.0</ele><time>2026-04-04T06:17:09.126Z</time></trkpt><trkpt lat="45.7158981" lon="11.6372669"><ele>78.4</ele><time>2026-04-04T06:17:10.125Z</time></trkpt><trkpt lat="45.7159475" lon="11.6373839"><ele>78.8</ele><time>2026-04-04T06:17:11.126Z</time></trkpt><trkpt lat="45.7159898" lon="11.6375236"><ele>79.2</ele><time>2026-04-04T06:17:12.126Z</time></trkpt><trkpt lat="45.716046" lon="11.6376572"><ele>79.6</ele><time>2026-04-04T06:17:13.126Z</time></trkpt><trkpt lat="45.7161198" lon="11.6377719"><ele>80.0</ele><time>2026-04-04T06:17:14.126Z</time></trkpt><trkpt lat="45.716215" lon="11.6378524"><ele>80.0</ele><time>2026-04-04T06:17:15.126Z</time></trkpt><trkpt lat="45.7163192" lon="11.6378914"><ele>80.0</ele><time>2026-04-04T06:17:16.126Z</time></trkpt><trkpt lat="45.7164289" lon="11.6379164"><ele>80.0</ele><time>2026-04-04T06:17:17.127Z</time></trkpt><trkpt lat="45.7165319" lon="11.6379656"><ele>80.0</ele><time>2026-04-04T06:17:18.126Z</time></trkpt><trkpt lat="45.7166302" lon="11.6380549"><ele>80.0</ele><time>2026-04-04T06:17:19.126Z</time></trkpt><trkpt lat="45.7167271" lon="11.6381736"><ele>80.0</ele><time>2026-04-04T06:17:20.125Z</time></trkpt><trkpt lat="45.7168421" lon="11.6383239"><ele>80.0</ele><time>2026-04-04T06:17:21.126Z</time></trkpt><trkpt lat="45.7169789" lon="11.638507"><ele>80.0</ele><time>2026-04-04T06:17:22.125Z</time></trkpt><trkpt lat="45.717137" lon="11.6387108"><ele>80.5</ele><time>2026-04-04T06:17:23.127Z</time></trkpt><trkpt lat="45.7173147" lon="11.6389231"><ele>81.0</ele><time>2026-04-04T06:17:24.125Z</time></trkpt><trkpt lat="45.7175064" lon="11.6391487"><ele>81.0</ele><time>2026-04-04T06:17:25.126Z</time></trkpt><trkpt lat="45.7177097" lon="11.6393722"><ele>81.0</ele><time>2026-04-04T06:17:26.126Z</time></trkpt><trkpt lat="45.7179176" lon="11.6395918"><ele>81.5</ele><time>2026-04-04T06:17:27.127Z</time></trkpt><trkpt lat="45.7181295" lon="11.6398097"><ele>82.0</ele><time>2026-04-04T06:17:28.125Z</time></trkpt><trkpt lat="45.7183366" lon="11.6400312"><ele>82.0</ele><time>2026-04-04T06:17:29.126Z</time></trkpt><trkpt lat="45.7185418" lon="11.6402435"><ele>82.0</ele><time>2026-04-04T06:17:30.126Z</time></trkpt><trkpt lat="45.718745" lon="11.6404505"><ele>81.5</ele><time>2026-04-04T06:17:31.126Z</time></trkpt><trkpt lat="45.7189471" lon="11.6406577"><ele>81.0</ele><time>2026-04-04T06:17:32.126Z</time></trkpt><trkpt lat="45.7191398" lon="11.6408678"><ele>81.0</ele><time>2026-04-04T06:17:33.126Z</time></trkpt><trkpt lat="45.719339" lon="11.6410724"><ele>81.0</ele><time>2026-04-04T06:17:34.126Z</time></trkpt><trkpt lat="45.7195349" lon="11.6412809"><ele>81.5</ele><time>2026-04-04T06:17:35.125Z</time></trkpt><trkpt lat="45.719733" lon="11.6414859"><ele>82.0</ele><time>2026-04-04T06:17:36.126Z</time></trkpt><trkpt lat="45.7199338" lon="11.641691"><ele>82.0</ele><time>2026-04-04T06:17:37.125Z</time></trkpt><trkpt lat="45.7201379" lon="11.6419017"><ele>82.0</ele><time>2026-04-04T06:17:38.125Z</time></trkpt><trkpt lat="45.7203472" lon="11.6421212"><ele>82.0</ele><time>2026-04-04T06:17:39.125Z</time></trkpt><trkpt lat="45.7205508" lon="11.6423389"><ele>82.0</ele><time>2026-04-04T06:17:40.126Z</time></trkpt><trkpt lat="45.7207433" lon="11.6425503"><ele>82.0</ele><time>2026-04-04T06:17:41.126Z</time></trkpt><trkpt lat="45.72093" lon="11.642751"><ele>82.0</ele><time>2026-04-04T06:17:42.127Z</time></trkpt><trkpt lat="45.7211213" lon="11.642954"><ele>81.5</ele><time>2026-04-04T06:17:43.127Z</time></trkpt><trkpt lat="45.7213263" lon="11.643155"><ele>81.0</ele><time>2026-04-04T06:17:44.126Z</time></trkpt><trkpt lat="45.721539" lon="11.6433706"><ele>81.0</ele><time>2026-04-04T06:17:45.127Z</time></trkpt><trkpt lat="45.721752" lon="11.6436039"><ele>81.0</ele><time>2026-04-04T06:17:46.125Z</time></trkpt><trkpt lat="45.7219707" lon="11.6438405"><ele>81.0</ele><time>2026-04-04T06:17:47.126Z</time></trkpt><trkpt lat="45.7221909" lon="11.6440814"><ele>81.0</ele><time>2026-04-04T06:17:48.125Z</time></trkpt><trkpt lat="45.7224142" lon="11.6443185"><ele>81.0</ele><time>2026-04-04T06:17:49.127Z</time></trkpt><trkpt lat="45.7226322" lon="11.644551"><ele>81.0</ele><time>2026-04-04T06:17:50.125Z</time></trkpt><trkpt lat="45.7228499" lon="11.6447755"><ele>81.0</ele><time>2026-04-04T06:17:51.125Z</time></trkpt><trkpt lat="45.7230582" lon="11.6450027"><ele>81.0</ele><time>2026-04-04T06:17:52.126Z</time></trkpt><trkpt lat="45.7232583" lon="11.6452252"><ele>81.5</ele><time>2026-04-04T06:17:53.127Z</time></trkpt><trkpt lat="45.7234514" lon="11.6454504"><ele>82.0</ele><time>2026-04-04T06:17:54.126Z</time></trkpt><trkpt lat="45.7236396" lon="11.6456791"><ele>82.0</ele><time>2026-04-04T06:17:55.126Z</time></trkpt><trkpt lat="45.7238247" lon="11.6459142"><ele>82.0</ele><time>2026-04-04T06:17:56.126Z</time></trkpt><trkpt lat="45.7240086" lon="11.6461484"><ele>82.5</ele><time>2026-04-04T06:17:57.127Z</time></trkpt><trkpt lat="45.724193" lon="11.6463928"><ele>83.0</ele><time>2026-04-04T06:17:58.125Z</time></trkpt><trkpt lat="45.7243634" lon="11.6466469"><ele>83.0</ele><time>2026-04-04T06:17:59.125Z</time></trkpt><trkpt lat="45.7245269" lon="11.6469049"><ele>83.0</ele><time>2026-04-04T06:18:00.126Z</time></trkpt><trkpt lat="45.7246894" lon="11.6471656"><ele>83.0</ele><time>2026-04-04T06:18:01.128Z</time></trkpt><trkpt lat="45.7248467" lon="11.6474303"><ele>83.0</ele><time>2026-04-04T06:18:02.125Z</time></trkpt><trkpt lat="45.7250041" lon="11.647701"><ele>83.0</ele><time>2026-04-04T06:18:03.127Z</time></trkpt><trkpt lat="45.7251621" lon="11.6479817"><ele>83.0</ele><time>2026-04-04T06:18:04.126Z</time></trkpt><trkpt lat="45.7253087" lon="11.6482804"><ele>82.5</ele><time>2026-04-04T06:18:05.125Z</time></trkpt><trkpt lat="45.7254489" lon="11.6485863"><ele>82.0</ele><time>2026-04-04T06:18:06.126Z</time></trkpt><trkpt lat="45.7255853" lon="11.6488924"><ele>83.0</ele><time>2026-04-04T06:18:07.126Z</time></trkpt><trkpt lat="45.7257166" lon="11.649188"><ele>84.0</ele><time>2026-04-04T06:18:08.125Z</time></trkpt><trkpt lat="45.7258477" lon="11.6494632"><ele>84.0</ele><time>2026-04-04T06:18:09.126Z</time></trkpt><trkpt lat="45.7259711" lon="11.6497259"><ele>84.0</ele><time>2026-04-04T06:18:10.125Z</time></trkpt><trkpt lat="45.7260864" lon="11.6499625"><ele>84.0</ele><time>2026-04-04T06:18:11.126Z</time></trkpt><trkpt lat="45.7261872" lon="11.6501744"><ele>84.33333333333333</ele><time>2026-04-04T06:18:12.126Z</time></trkpt><trkpt lat="45.7262826" lon="11.6503685"><ele>84.66666666666666</ele><time>2026-04-04T06:18:13.128Z</time></trkpt><trkpt lat="45.726369" lon="11.6505448"><ele>85.0</ele><time>2026-04-04T06:18:14.128Z</time></trkpt><trkpt lat="45.7264484" lon="11.650722"><ele>85.0</ele><time>2026-04-04T06:18:15.126Z</time></trkpt><trkpt lat="45.7265313" lon="11.6508774"><ele>85.0</ele><time>2026-04-04T06:18:16.126Z</time></trkpt><trkpt lat="45.7266076" lon="11.6510147"><ele>85.0</ele><time>2026-04-04T06:18:17.126Z</time></trkpt><trkpt lat="45.7266662" lon="11.651124"><ele>85.0</ele><time>2026-04-04T06:18:18.127Z</time></trkpt><trkpt lat="45.7267031" lon="11.651201"><ele>85.0</ele><time>2026-04-04T06:18:19.126Z</time></trkpt><trkpt lat="45.7267217" lon="11.6512979"><ele>85.2</ele><time>2026-04-04T06:18:21.126Z</time></trkpt><trkpt lat="45.7267095" lon="11.6514459"><ele>85.4</ele><time>2026-04-04T06:18:23.126Z</time></trkpt><trkpt lat="45.7266946" lon="11.6515687"><ele>85.6</ele><time>2026-04-04T06:18:24.127Z</time></trkpt><trkpt lat="45.7267049" lon="11.6517322"><ele>85.8</ele><time>2026-04-04T06:18:25.127Z</time></trkpt><trkpt lat="45.7267421" lon="11.6519002"><ele>86.0</ele><time>2026-04-04T06:18:26.127Z</time></trkpt><trkpt lat="45.7268165" lon="11.6520562"><ele>86.25</ele><time>2026-04-04T06:18:27.126Z</time></trkpt><trkpt lat="45.7269022" lon="11.6522156"><ele>86.5</ele><time>2026-04-04T06:18:28.127Z</time></trkpt><trkpt lat="45.726967" lon="11.6524006"><ele>86.75</ele><time>2026-04-04T06:18:29.126Z</time></trkpt><trkpt lat="45.7270039" lon="11.6526139"><ele>87.0</ele><time>2026-04-04T06:18:30.127Z</time></trkpt><trkpt lat="45.7270163" lon="11.652856"><ele>87.33333333333333</ele><time>2026-04-04T06:18:31.126Z</time></trkpt><trkpt lat="45.7270159" lon="11.6531272"><ele>87.66666666666666</ele><time>2026-04-04T06:18:32.126Z</time></trkpt><trkpt lat="45.7270196" lon="11.653414"><ele>88.0</ele><time>2026-04-04T06:18:33.125Z</time></trkpt><trkpt lat="45.7270324" lon="11.653725"><ele>88.0</ele><time>2026-04-04T06:18:34.126Z</time></trkpt><trkpt lat="45.727043" lon="11.6540458"><ele>88.0</ele><time>2026-04-04T06:18:35.126Z</time></trkpt><trkpt lat="45.7270569" lon="11.654372"><ele>88.0</ele><time>2026-04-04T06:18:36.126Z</time></trkpt><trkpt lat="45.7270683" lon="11.6546925"><ele>88.0</ele><time>2026-04-04T06:18:37.126Z</time></trkpt><trkpt lat="45.7270784" lon="11.6550047"><ele>88.0</ele><time>2026-04-04T06:18:38.126Z</time></trkpt><trkpt lat="45.7270884" lon="11.655305"><ele>88.0</ele><time>2026-04-04T06:18:39.126Z</time></trkpt><trkpt lat="45.7270963" lon="11.6556021"><ele>88.0</ele><time>2026-04-04T06:18:40.127Z</time></trkpt><trkpt lat="45.7271042" lon="11.6558956"><ele>88.0</ele><time>2026-04-04T06:18:41.128Z</time></trkpt><trkpt lat="45.7271145" lon="11.6561833"><ele>88.33333333333333</ele><time>2026-04-04T06:18:42.126Z</time></trkpt><trkpt lat="45.7271269" lon="11.6564729"><ele>88.66666666666667</ele><time>2026-04-04T06:18:43.127Z</time></trkpt><trkpt lat="45.7271529" lon="11.6567626"><ele>89.0</ele><time>2026-04-04T06:18:44.125Z</time></trkpt><trkpt lat="45.7271951" lon="11.6570506"><ele>88.33333333333334</ele><time>2026-04-04T06:18:45.126Z</time></trkpt><trkpt lat="45.7272522" lon="11.6573379"><ele>87.66666666666667</ele><time>2026-04-04T06:18:46.126Z</time></trkpt><trkpt lat="45.7273245" lon="11.6576036"><ele>87.0</ele><time>2026-04-04T06:18:47.127Z</time></trkpt><trkpt lat="45.7274021" lon="11.6578729"><ele>86.66666666666667</ele><time>2026-04-04T06:18:48.126Z</time></trkpt><trkpt lat="45.7274825" lon="11.6581508"><ele>86.33333333333334</ele><time>2026-04-04T06:18:49.126Z</time></trkpt><trkpt lat="45.7275661" lon="11.6584507"><ele>86.0</ele><time>2026-04-04T06:18:50.128Z</time></trkpt><trkpt lat="45.7276488" lon="11.6587831"><ele>86.0</ele><time>2026-04-04T06:18:51.127Z</time></trkpt><trkpt lat="45.7277152" lon="11.6591559"><ele>86.0</ele><time>2026-04-04T06:18:52.126Z</time></trkpt><trkpt lat="45.7277694" lon="11.6595399"><ele>86.0</ele><time>2026-04-04T06:18:53.127Z</time></trkpt><trkpt lat="45.7278162" lon="11.6599387"><ele>86.0</ele><time>2026-04-04T06:18:54.126Z</time></trkpt><trkpt lat="45.7278727" lon="11.6603252"><ele>85.5</ele><time>2026-04-04T06:18:55.128Z</time></trkpt><trkpt lat="45.7279554" lon="11.6606983"><ele>85.0</ele><time>2026-04-04T06:18:56.127Z</time></trkpt><trkpt lat="45.7280514" lon="11.6610619"><ele>85.0</ele><time>2026-04-04T06:18:57.126Z</time></trkpt><trkpt lat="45.7281578" lon="11.6614173"><ele>85.0</ele><time>2026-04-04T06:18:58.126Z</time></trkpt><trkpt lat="45.7282612" lon="11.6617613"><ele>86.0</ele><time>2026-04-04T06:18:59.126Z</time></trkpt><trkpt lat="45.7283642" lon="11.6620887"><ele>87.0</ele><time>2026-04-04T06:19:00.127Z</time></trkpt><trkpt lat="45.7284585" lon="11.6624007"><ele>87.0</ele><time>2026-04-04T06:19:01.126Z</time></trkpt><trkpt lat="45.7285457" lon="11.6627102"><ele>87.0</ele><time>2026-04-04T06:19:02.127Z</time></trkpt><trkpt lat="45.7286287" lon="11.6630085"><ele>87.0</ele><time>2026-04-04T06:19:03.127Z</time></trkpt><trkpt lat="45.7287049" lon="11.6633102"><ele>87.0</ele><time>2026-04-04T06:19:04.127Z</time></trkpt><trkpt lat="45.72876" lon="11.663618"><ele>87.0</ele><time>2026-04-04T06:19:05.126Z</time></trkpt><trkpt lat="45.7287994" lon="11.6639184"><ele>87.33333333333333</ele><time>2026-04-04T06:19:06.128Z</time></trkpt><trkpt lat="45.7288276" lon="11.6642081"><ele>87.66666666666666</ele><time>2026-04-04T06:19:07.125Z</time></trkpt><trkpt lat="45.728849" lon="11.6644698"><ele>88.0</ele><time>2026-04-04T06:19:08.126Z</time></trkpt><trkpt lat="45.7288706" lon="11.6647002"><ele>87.5</ele><time>2026-04-04T06:19:09.127Z</time></trkpt><trkpt lat="45.7288964" lon="11.6649071"><ele>87.0</ele><time>2026-04-04T06:19:10.126Z</time></trkpt><trkpt lat="45.7289239" lon="11.6650864"><ele>86.5</ele><time>2026-04-04T06:19:11.125Z</time></trkpt><trkpt lat="45.7289558" lon="11.6652348"><ele>86.0</ele><time>2026-04-04T06:19:12.126Z</time></trkpt><trkpt lat="45.7289877" lon="11.6653358"><ele>86.0</ele><time>2026-04-04T06:19:13.127Z</time></trkpt><trkpt lat="45.7290104" lon="11.6654379"><ele>86.0</ele><time>2026-04-04T06:19:16.127Z</time></trkpt><trkpt lat="45.7290365" lon="11.6655232"><ele>86.0</ele><time>2026-04-04T06:19:19.127Z</time></trkpt><trkpt lat="45.7290408" lon="11.6656777"><ele>86.0</ele><time>2026-04-04T06:19:21.128Z</time></trkpt><trkpt lat="45.7290479" lon="11.6657786"><ele>86.0</ele><time>2026-04-04T06:19:22.125Z</time></trkpt><trkpt lat="45.7290635" lon="11.665878"><ele>86.0</ele><time>2026-04-04T06:19:23.126Z</time></trkpt><trkpt lat="45.7291079" lon="11.6659842"><ele>86.0</ele><time>2026-04-04T06:19:24.127Z</time></trkpt><trkpt lat="45.7291731" lon="11.6660761"><ele>86.0</ele><time>2026-04-04T06:19:25.126Z</time></trkpt><trkpt lat="45.7292411" lon="11.6661802"><ele>86.0</ele><time>2026-04-04T06:19:26.127Z</time></trkpt><trkpt lat="45.7292966" lon="11.666319"><ele>86.0</ele><time>2026-04-04T06:19:27.126Z</time></trkpt><trkpt lat="45.7293408" lon="11.6664823"><ele>86.0</ele><time>2026-04-04T06:19:28.127Z</time></trkpt><trkpt lat="45.7293851" lon="11.6666609"><ele>86.0</ele><time>2026-04-04T06:19:29.126Z</time></trkpt><trkpt lat="45.7294357" lon="11.6668466"><ele>86.0</ele><time>2026-04-04T06:19:30.127Z</time></trkpt><trkpt lat="45.7294985" lon="11.6670326"><ele>86.0</ele><time>2026-04-04T06:19:31.127Z</time></trkpt><trkpt lat="45.7295765" lon="11.6672188"><ele>86.0</ele><time>2026-04-04T06:19:32.126Z</time></trkpt><trkpt lat="45.7296695" lon="11.6674071"><ele>85.66666666666667</ele><time>2026-04-04T06:19:33.127Z</time></trkpt><trkpt lat="45.7297761" lon="11.6675981"><ele>85.33333333333333</ele><time>2026-04-04T06:19:34.126Z</time></trkpt><trkpt lat="45.7298906" lon="11.6677929"><ele>85.0</ele><time>2026-04-04T06:19:35.127Z</time></trkpt><trkpt lat="45.7300202" lon="11.667992"><ele>85.0</ele><time>2026-04-04T06:19:36.127Z</time></trkpt><trkpt lat="45.7301661" lon="11.6682112"><ele>85.0</ele><time>2026-04-04T06:19:37.126Z</time></trkpt><trkpt lat="45.7303282" lon="11.6684591"><ele>85.0</ele><time>2026-04-04T06:19:38.126Z</time></trkpt><trkpt lat="45.7305024" lon="11.6687296"><ele>85.5</ele><time>2026-04-04T06:19:39.126Z</time></trkpt><trkpt lat="45.7306819" lon="11.6690142"><ele>86.0</ele><time>2026-04-04T06:19:40.127Z</time></trkpt><trkpt lat="45.7308708" lon="11.6692963"><ele>86.0</ele><time>2026-04-04T06:19:41.126Z</time></trkpt><trkpt lat="45.7310704" lon="11.6695731"><ele>86.0</ele><time>2026-04-04T06:19:42.127Z</time></trkpt><trkpt lat="45.7312718" lon="11.6698483"><ele>86.0</ele><time>2026-04-04T06:19:43.126Z</time></trkpt><trkpt lat="45.7314761" lon="11.6701139"><ele>86.0</ele><time>2026-04-04T06:19:44.126Z</time></trkpt><trkpt lat="45.7316777" lon="11.6703801"><ele>86.5</ele><time>2026-04-04T06:19:45.127Z</time></trkpt><trkpt lat="45.7318798" lon="11.6706415"><ele>87.0</ele><time>2026-04-04T06:19:46.126Z</time></trkpt><trkpt lat="45.7320796" lon="11.6709026"><ele>87.5</ele><time>2026-04-04T06:19:47.126Z</time></trkpt><trkpt lat="45.7322767" lon="11.6711599"><ele>88.0</ele><time>2026-04-04T06:19:48.128Z</time></trkpt><trkpt lat="45.7324776" lon="11.6714187"><ele>88.0</ele><time>2026-04-04T06:19:49.126Z</time></trkpt><trkpt lat="45.7326563" lon="11.6716536"><ele>88.0</ele><time>2026-04-04T06:19:50.128Z</time></trkpt><trkpt lat="45.7328391" lon="11.6718935"><ele>87.5</ele><time>2026-04-04T06:19:51.127Z</time></trkpt><trkpt lat="45.7330175" lon="11.6721261"><ele>87.0</ele><time>2026-04-04T06:19:52.127Z</time></trkpt><trkpt lat="45.7331949" lon="11.6723684"><ele>87.0</ele><time>2026-04-04T06:19:53.127Z</time></trkpt><trkpt lat="45.7333747" lon="11.6726122"><ele>87.0</ele><time>2026-04-04T06:19:54.127Z</time></trkpt><trkpt lat="45.7335502" lon="11.672864"><ele>88.0</ele><time>2026-04-04T06:19:55.126Z</time></trkpt><trkpt lat="45.7337206" lon="11.6731284"><ele>89.0</ele><time>2026-04-04T06:19:56.127Z</time></trkpt><trkpt lat="45.7338879" lon="11.6733963"><ele>88.0</ele><time>2026-04-04T06:19:57.127Z</time></trkpt><trkpt lat="45.7340487" lon="11.6736762"><ele>87.0</ele><time>2026-04-04T06:19:58.127Z</time></trkpt><trkpt lat="45.7341993" lon="11.6739526"><ele>87.0</ele><time>2026-04-04T06:19:59.128Z</time></trkpt><trkpt lat="45.7343429" lon="11.6742309"><ele>87.0</ele><time>2026-04-04T06:20:00.127Z</time></trkpt><trkpt lat="45.7344811" lon="11.6745035"><ele>87.5</ele><time>2026-04-04T06:20:01.127Z</time></trkpt><trkpt lat="45.7346138" lon="11.6747738"><ele>88.0</ele><time>2026-04-04T06:20:02.126Z</time></trkpt><trkpt lat="45.734745" lon="11.6750416"><ele>87.5</ele><time>2026-04-04T06:20:03.127Z</time></trkpt><trkpt lat="45.7348763" lon="11.6753184"><ele>87.0</ele><time>2026-04-04T06:20:04.127Z</time></trkpt><trkpt lat="45.7350021" lon="11.675601"><ele>87.0</ele><time>2026-04-04T06:20:05.127Z</time></trkpt><trkpt lat="45.7351348" lon="11.6758917"><ele>87.0</ele><time>2026-04-04T06:20:06.126Z</time></trkpt><trkpt lat="45.7352649" lon="11.6762052"><ele>87.0</ele><time>2026-04-04T06:20:07.126Z</time></trkpt><trkpt lat="45.735388" lon="11.6765426"><ele>87.0</ele><time>2026-04-04T06:20:08.126Z</time></trkpt><trkpt lat="45.7355021" lon="11.6768851"><ele>90.0</ele><time>2026-04-04T06:20:09.126Z</time></trkpt><trkpt lat="45.7357316" lon="11.6775626"><ele>89.5</ele><time>2026-04-04T06:20:11.126Z</time></trkpt><trkpt lat="45.7358486" lon="11.6778949"><ele>89.0</ele><time>2026-04-04T06:20:12.126Z</time></trkpt><trkpt lat="45.7359701" lon="11.6782323"><ele>88.5</ele><time>2026-04-04T06:20:13.126Z</time></trkpt><trkpt lat="45.7360938" lon="11.6785713"><ele>88.0</ele><time>2026-04-04T06:20:14.126Z</time></trkpt><trkpt lat="45.7362177" lon="11.6789129"><ele>88.0</ele><time>2026-04-04T06:20:15.126Z</time></trkpt><trkpt lat="45.7363468" lon="11.679259"><ele>88.0</ele><time>2026-04-04T06:20:16.127Z</time></trkpt><trkpt lat="45.7364724" lon="11.6796059"><ele>88.5</ele><time>2026-04-04T06:20:17.127Z</time></trkpt><trkpt lat="45.7366055" lon="11.6799562"><ele>89.0</ele><time>2026-04-04T06:20:18.127Z</time></trkpt><trkpt lat="45.7367376" lon="11.6803068"><ele>88.0</ele><time>2026-04-04T06:20:19.127Z</time></trkpt><trkpt lat="45.7368669" lon="11.6806563"><ele>87.0</ele><time>2026-04-04T06:20:20.126Z</time></trkpt><trkpt lat="45.7369909" lon="11.6810002"><ele>87.0</ele><time>2026-04-04T06:20:21.127Z</time></trkpt><trkpt lat="45.7371122" lon="11.6813357"><ele>87.0</ele><time>2026-04-04T06:20:22.127Z</time></trkpt><trkpt lat="45.7372296" lon="11.6816695"><ele>87.5</ele><time>2026-04-04T06:20:23.127Z</time></trkpt><trkpt lat="45.737346" lon="11.6819979"><ele>88.0</ele><time>2026-04-04T06:20:24.127Z</time></trkpt><trkpt lat="45.7374596" lon="11.682318"><ele>88.0</ele><time>2026-04-04T06:20:25.127Z</time></trkpt><trkpt lat="45.7375658" lon="11.6826387"><ele>88.0</ele><time>2026-04-04T06:20:26.126Z</time></trkpt><trkpt lat="45.7376753" lon="11.6829645"><ele>88.0</ele><time>2026-04-04T06:20:27.127Z</time></trkpt><trkpt lat="45.7377827" lon="11.6832915"><ele>88.0</ele><time>2026-04-04T06:20:28.126Z</time></trkpt><trkpt lat="45.73788" lon="11.6836235"><ele>87.5</ele><time>2026-04-04T06:20:29.128Z</time></trkpt><trkpt lat="45.7379691" lon="11.6839655"><ele>87.0</ele><time>2026-04-04T06:20:30.126Z</time></trkpt><trkpt lat="45.7380505" lon="11.6843122"><ele>87.0</ele><time>2026-04-04T06:20:31.128Z</time></trkpt><trkpt lat="45.7381215" lon="11.6846782"><ele>87.0</ele><time>2026-04-04T06:20:32.126Z</time></trkpt><trkpt lat="45.7381821" lon="11.6850416"><ele>87.0</ele><time>2026-04-04T06:20:33.127Z</time></trkpt><trkpt lat="45.7382361" lon="11.6854106"><ele>87.0</ele><time>2026-04-04T06:20:34.126Z</time></trkpt><trkpt lat="45.7382785" lon="11.6857804"><ele>87.0</ele><time>2026-04-04T06:20:35.127Z</time></trkpt><trkpt lat="45.7383109" lon="11.6861552"><ele>87.0</ele><time>2026-04-04T06:20:36.126Z</time></trkpt><trkpt lat="45.7383424" lon="11.6865269"><ele>87.0</ele><time>2026-04-04T06:20:37.127Z</time></trkpt><trkpt lat="45.7383706" lon="11.6869037"><ele>87.0</ele><time>2026-04-04T06:20:38.126Z</time></trkpt><trkpt lat="45.7383942" lon="11.6872804"><ele>87.0</ele><time>2026-04-04T06:20:39.127Z</time></trkpt><trkpt lat="45.7384104" lon="11.6876581"><ele>87.0</ele><time>2026-04-04T06:20:40.127Z</time></trkpt><trkpt lat="45.7384148" lon="11.6880319"><ele>87.5</ele><time>2026-04-04T06:20:41.127Z</time></trkpt><trkpt lat="45.7384109" lon="11.6884122"><ele>88.0</ele><time>2026-04-04T06:20:42.126Z</time></trkpt><trkpt lat="45.7384038" lon="11.6887895"><ele>88.0</ele><time>2026-04-04T06:20:43.127Z</time></trkpt><trkpt lat="45.7383997" lon="11.6891653"><ele>88.0</ele><time>2026-04-04T06:20:44.129Z</time></trkpt><trkpt lat="45.7383916" lon="11.689545"><ele>88.0</ele><time>2026-04-04T06:20:45.126Z</time></trkpt><trkpt lat="45.738389" lon="11.6899225"><ele>88.0</ele><time>2026-04-04T06:20:46.126Z</time></trkpt><trkpt lat="45.738386" lon="11.690297"><ele>88.0</ele><time>2026-04-04T06:20:47.127Z</time></trkpt><trkpt lat="45.7383834" lon="11.6906731"><ele>88.0</ele><time>2026-04-04T06:20:48.126Z</time></trkpt><trkpt lat="45.738379" lon="11.6910464"><ele>88.5</ele><time>2026-04-04T06:20:49.128Z</time></trkpt><trkpt lat="45.7383708" lon="11.6914242"><ele>89.0</ele><time>2026-04-04T06:20:50.127Z</time></trkpt><trkpt lat="45.7383605" lon="11.6918033"><ele>89.5</ele><time>2026-04-04T06:20:51.127Z</time></trkpt><trkpt lat="45.7383521" lon="11.692183"><ele>90.0</ele><time>2026-04-04T06:20:52.127Z</time></trkpt><trkpt lat="45.7383457" lon="11.6925587"><ele>89.5</ele><time>2026-04-04T06:20:53.127Z</time></trkpt><trkpt lat="45.7383412" lon="11.6929347"><ele>89.0</ele><time>2026-04-04T06:20:54.128Z</time></trkpt><trkpt lat="45.7383364" lon="11.6933109"><ele>89.5</ele><time>2026-04-04T06:20:55.127Z</time></trkpt><trkpt lat="45.7383309" lon="11.6936883"><ele>90.0</ele><time>2026-04-04T06:20:56.126Z</time></trkpt><trkpt lat="45.7383255" lon="11.6940616"><ele>89.5</ele><time>2026-04-04T06:20:57.126Z</time></trkpt><trkpt lat="45.7383208" lon="11.6944382"><ele>89.0</ele><time>2026-04-04T06:20:58.126Z</time></trkpt><trkpt lat="45.7383198" lon="11.6948078"><ele>89.0</ele><time>2026-04-04T06:20:59.126Z</time></trkpt><trkpt lat="45.7383166" lon="11.6951673"><ele>89.0</ele><time>2026-04-04T06:21:00.126Z</time></trkpt><trkpt lat="45.7383107" lon="11.6955218"><ele>88.5</ele><time>2026-04-04T06:21:01.126Z</time></trkpt><trkpt lat="45.7383063" lon="11.6958677"><ele>88.0</ele><time>2026-04-04T06:21:02.127Z</time></trkpt><trkpt lat="45.7382989" lon="11.6962096"><ele>86.5</ele><time>2026-04-04T06:21:03.126Z</time></trkpt><trkpt lat="45.7382876" lon="11.6965465"><ele>85.0</ele><time>2026-04-04T06:21:04.126Z</time></trkpt><trkpt lat="45.7382751" lon="11.6968775"><ele>85.33333333333333</ele><time>2026-04-04T06:21:05.126Z</time></trkpt><trkpt lat="45.7382596" lon="11.6971943"><ele>85.66666666666667</ele><time>2026-04-04T06:21:06.126Z</time></trkpt><trkpt lat="45.7382456" lon="11.6975007"><ele>86.0</ele><time>2026-04-04T06:21:07.126Z</time></trkpt><trkpt lat="45.7382322" lon="11.6978035"><ele>86.66666666666667</ele><time>2026-04-04T06:21:08.127Z</time></trkpt><trkpt lat="45.7382205" lon="11.6980953"><ele>87.33333333333333</ele><time>2026-04-04T06:21:09.127Z</time></trkpt><trkpt lat="45.7382107" lon="11.6983819"><ele>88.0</ele><time>2026-04-04T06:21:10.128Z</time></trkpt><trkpt lat="45.7381975" lon="11.6986613"><ele>88.66666666666666</ele><time>2026-04-04T06:21:11.126Z</time></trkpt><trkpt lat="45.7381875" lon="11.6989415"><ele>89.33333333333333</ele><time>2026-04-04T06:21:12.129Z</time></trkpt><trkpt lat="45.738177" lon="11.6992122"><ele>90.0</ele><time>2026-04-04T06:21:13.128Z</time></trkpt><trkpt lat="45.7381658" lon="11.6994781"><ele>88.66666666666667</ele><time>2026-04-04T06:21:14.128Z</time></trkpt><trkpt lat="45.7381537" lon="11.6997379"><ele>87.33333333333334</ele><time>2026-04-04T06:21:15.126Z</time></trkpt><trkpt lat="45.7381438" lon="11.6999889"><ele>86.0</ele><time>2026-04-04T06:21:16.128Z</time></trkpt><trkpt lat="45.738133" lon="11.7002424"><ele>86.66666666666667</ele><time>2026-04-04T06:21:17.126Z</time></trkpt><trkpt lat="45.7381225" lon="11.700495"><ele>87.33333333333333</ele><time>2026-04-04T06:21:18.128Z</time></trkpt><trkpt lat="45.7381128" lon="11.7007384"><ele>88.0</ele><time>2026-04-04T06:21:19.128Z</time></trkpt><trkpt lat="45.7381025" lon="11.700982"><ele>88.33333333333333</ele><time>2026-04-04T06:21:20.128Z</time></trkpt><trkpt lat="45.7380939" lon="11.7012158"><ele>88.66666666666667</ele><time>2026-04-04T06:21:21.128Z</time></trkpt><trkpt lat="45.7380863" lon="11.7014509"><ele>89.0</ele><time>2026-04-04T06:21:22.126Z</time></trkpt><trkpt lat="45.7380745" lon="11.701689"><ele>89.66666666666667</ele><time>2026-04-04T06:21:23.128Z</time></trkpt><trkpt lat="45.7380649" lon="11.7019247"><ele>90.33333333333333</ele><time>2026-04-04T06:21:24.128Z</time></trkpt><trkpt lat="45.7380536" lon="11.7021647"><ele>91.0</ele><time>2026-04-04T06:21:25.129Z</time></trkpt><trkpt lat="45.7380441" lon="11.7024191"><ele>91.0</ele><time>2026-04-04T06:21:26.126Z</time></trkpt><trkpt lat="45.7380397" lon="11.7026782"><ele>91.0</ele><time>2026-04-04T06:21:27.126Z</time></trkpt><trkpt lat="45.7380297" lon="11.7029435"><ele>91.0</ele><time>2026-04-04T06:21:28.127Z</time></trkpt><trkpt lat="45.7380181" lon="11.7032139"><ele>91.0</ele><time>2026-04-04T06:21:29.127Z</time></trkpt><trkpt lat="45.7380031" lon="11.7034814"><ele>91.0</ele><time>2026-04-04T06:21:30.127Z</time></trkpt><trkpt lat="45.7379841" lon="11.7037478"><ele>91.0</ele><time>2026-04-04T06:21:31.126Z</time></trkpt><trkpt lat="45.7379659" lon="11.7040105"><ele>91.0</ele><time>2026-04-04T06:21:32.128Z</time></trkpt><trkpt lat="45.7379477" lon="11.704269"><ele>91.0</ele><time>2026-04-04T06:21:33.126Z</time></trkpt><trkpt lat="45.7379263" lon="11.7045182"><ele>91.0</ele><time>2026-04-04T06:21:34.127Z</time></trkpt><trkpt lat="45.7379046" lon="11.7047601"><ele>90.66666666666666</ele><time>2026-04-04T06:21:35.128Z</time></trkpt><trkpt lat="45.7378869" lon="11.7049916"><ele>90.33333333333333</ele><time>2026-04-04T06:21:36.127Z</time></trkpt><trkpt lat="45.7378709" lon="11.705206"><ele>90.0</ele><time>2026-04-04T06:21:37.128Z</time></trkpt><trkpt lat="45.7378577" lon="11.7054098"><ele>90.0</ele><time>2026-04-04T06:21:38.127Z</time></trkpt><trkpt lat="45.7378437" lon="11.7056089"><ele>90.0</ele><time>2026-04-04T06:21:39.126Z</time></trkpt><trkpt lat="45.7378293" lon="11.7058076"><ele>90.0</ele><time>2026-04-04T06:21:40.127Z</time></trkpt><trkpt lat="45.7378165" lon="11.7059937"><ele>90.0</ele><time>2026-04-04T06:21:41.127Z</time></trkpt><trkpt lat="45.7378036" lon="11.7061728"><ele>90.2</ele><time>2026-04-04T06:21:42.128Z</time></trkpt><trkpt lat="45.7377888" lon="11.7063382"><ele>90.4</ele><time>2026-04-04T06:21:43.128Z</time></trkpt><trkpt lat="45.7377739" lon="11.7064727"><ele>90.6</ele><time>2026-04-04T06:21:44.128Z</time></trkpt><trkpt lat="45.7377646" lon="11.7066032"><ele>90.8</ele><time>2026-04-04T06:21:45.126Z</time></trkpt><trkpt lat="45.7377457" lon="11.7067203"><ele>91.0</ele><time>2026-04-04T06:21:46.126Z</time></trkpt><trkpt lat="45.73772" lon="11.7068328"><ele>91.33333333333333</ele><time>2026-04-04T06:21:47.127Z</time></trkpt><trkpt lat="45.7376904" lon="11.7069371"><ele>91.66666666666666</ele><time>2026-04-04T06:21:48.126Z</time></trkpt><trkpt lat="45.7376509" lon="11.7070388"><ele>92.0</ele><time>2026-04-04T06:21:49.126Z</time></trkpt><trkpt lat="45.7375978" lon="11.7071294"><ele>92.33333333333333</ele><time>2026-04-04T06:21:50.129Z</time></trkpt><trkpt lat="45.7375297" lon="11.7071931"><ele>92.66666666666667</ele><time>2026-04-04T06:21:51.128Z</time></trkpt><trkpt lat="45.7374555" lon="11.7072409"><ele>93.0</ele><time>2026-04-04T06:21:52.126Z</time></trkpt><trkpt lat="45.7373887" lon="11.7073026"><ele>93.0</ele><time>2026-04-04T06:21:53.127Z</time></trkpt><trkpt lat="45.7373353" lon="11.7073873"><ele>93.0</ele><time>2026-04-04T06:21:54.126Z</time></trkpt><trkpt lat="45.7373052" lon="11.7074916"><ele>93.0</ele><time>2026-04-04T06:21:55.128Z</time></trkpt><trkpt lat="45.7372953" lon="11.7076111"><ele>93.0</ele><time>2026-04-04T06:21:56.129Z</time></trkpt><trkpt lat="45.7373186" lon="11.7077391"><ele>93.0</ele><time>2026-04-04T06:21:57.129Z</time></trkpt><trkpt lat="45.737344" lon="11.7078795"><ele>93.0</ele><time>2026-04-04T06:21:58.127Z</time></trkpt><trkpt lat="45.7373595" lon="11.7080432"><ele>93.33333333333333</ele><time>2026-04-04T06:21:59.126Z</time></trkpt><trkpt lat="45.7373561" lon="11.7082225"><ele>93.66666666666666</ele><time>2026-04-04T06:22:00.127Z</time></trkpt><trkpt lat="45.7373426" lon="11.7084474"><ele>94.0</ele><time>2026-04-04T06:22:01.127Z</time></trkpt><trkpt lat="45.7373109" lon="11.7087051"><ele>94.0</ele><time>2026-04-04T06:22:02.128Z</time></trkpt><trkpt lat="45.7372713" lon="11.7089881"><ele>94.0</ele><time>2026-04-04T06:22:03.128Z</time></trkpt><trkpt lat="45.7372283" lon="11.70926"><ele>94.0</ele><time>2026-04-04T06:22:04.126Z</time></trkpt><trkpt lat="45.7371876" lon="11.7095177"><ele>94.33333333333333</ele><time>2026-04-04T06:22:05.128Z</time></trkpt><trkpt lat="45.737155" lon="11.7097575"><ele>94.66666666666667</ele><time>2026-04-04T06:22:06.127Z</time></trkpt><trkpt lat="45.7371229" lon="11.7099936"><ele>95.0</ele><time>2026-04-04T06:22:07.127Z</time></trkpt><trkpt lat="45.7370913" lon="11.7102359"><ele>95.33333333333334</ele><time>2026-04-04T06:22:08.127Z</time></trkpt><trkpt lat="45.7370703" lon="11.7105152"><ele>95.66666666666667</ele><time>2026-04-04T06:22:09.127Z</time></trkpt><trkpt lat="45.7370572" lon="11.7108299"><ele>96.0</ele><time>2026-04-04T06:22:10.126Z</time></trkpt><trkpt lat="45.7370493" lon="11.7111743"><ele>95.0</ele><time>2026-04-04T06:22:11.129Z</time></trkpt><trkpt lat="45.7370458" lon="11.7115464"><ele>94.0</ele><time>2026-04-04T06:22:12.127Z</time></trkpt><trkpt lat="45.7370582" lon="11.7119249"><ele>93.5</ele><time>2026-04-04T06:22:13.127Z</time></trkpt><trkpt lat="45.737076" lon="11.7122926"><ele>93.0</ele><time>2026-04-04T06:22:14.127Z</time></trkpt><trkpt lat="45.7370932" lon="11.7126434"><ele>95.0</ele><time>2026-04-04T06:22:15.127Z</time></trkpt><trkpt lat="45.737111" lon="11.7129764"><ele>97.0</ele><time>2026-04-04T06:22:16.127Z</time></trkpt><trkpt lat="45.7371309" lon="11.7132917"><ele>96.66666666666667</ele><time>2026-04-04T06:22:17.127Z</time></trkpt><trkpt lat="45.7371486" lon="11.7135776"><ele>96.33333333333334</ele><time>2026-04-04T06:22:18.127Z</time></trkpt><trkpt lat="45.7371619" lon="11.7138397"><ele>96.0</ele><time>2026-04-04T06:22:19.127Z</time></trkpt><trkpt lat="45.737177" lon="11.7140823"><ele>96.0</ele><time>2026-04-04T06:22:20.127Z</time></trkpt><trkpt lat="45.7371751" lon="11.7142928"><ele>96.0</ele><time>2026-04-04T06:22:21.127Z</time></trkpt><trkpt lat="45.7371512" lon="11.7144896"><ele>96.0</ele><time>2026-04-04T06:22:22.127Z</time></trkpt><trkpt lat="45.7371036" lon="11.7146753"><ele>96.0</ele><time>2026-04-04T06:22:23.127Z</time></trkpt><trkpt lat="45.7370401" lon="11.7148396"><ele>96.0</ele><time>2026-04-04T06:22:24.128Z</time></trkpt><trkpt lat="45.7369903" lon="11.7149916"><ele>96.0</ele><time>2026-04-04T06:22:25.126Z</time></trkpt><trkpt lat="45.7369749" lon="11.7151409"><ele>96.0</ele><time>2026-04-04T06:22:26.127Z</time></trkpt><trkpt lat="45.7369971" lon="11.7152958"><ele>96.0</ele><time>2026-04-04T06:22:27.127Z</time></trkpt><trkpt lat="45.7370539" lon="11.7154555"><ele>96.0</ele><time>2026-04-04T06:22:28.127Z</time></trkpt><trkpt lat="45.7371248" lon="11.7156391"><ele>96.0</ele><time>2026-04-04T06:22:29.127Z</time></trkpt><trkpt lat="45.7371802" lon="11.7158596"><ele>96.0</ele><time>2026-04-04T06:22:30.128Z</time></trkpt><trkpt lat="45.7372235" lon="11.7161174"><ele>95.66666666666667</ele><time>2026-04-04T06:22:31.129Z</time></trkpt><trkpt lat="45.7372631" lon="11.7163962"><ele>95.33333333333334</ele><time>2026-04-04T06:22:32.127Z</time></trkpt><trkpt lat="45.737297" lon="11.7167193"><ele>95.0</ele><time>2026-04-04T06:22:33.128Z</time></trkpt><trkpt lat="45.7373331" lon="11.7170634"><ele>94.5</ele><time>2026-04-04T06:22:34.127Z</time></trkpt><trkpt lat="45.7373751" lon="11.7174185"><ele>94.0</ele><time>2026-04-04T06:22:35.129Z</time></trkpt><trkpt lat="45.737427" lon="11.7177732"><ele>94.0</ele><time>2026-04-04T06:22:36.126Z</time></trkpt><trkpt lat="45.7374866" lon="11.7181223"><ele>94.0</ele><time>2026-04-04T06:22:37.128Z</time></trkpt><trkpt lat="45.7375566" lon="11.7184643"><ele>94.5</ele><time>2026-04-04T06:22:38.126Z</time></trkpt><trkpt lat="45.737636" lon="11.7188052"><ele>95.0</ele><time>2026-04-04T06:22:39.127Z</time></trkpt><trkpt lat="45.7377184" lon="11.7191405"><ele>95.5</ele><time>2026-04-04T06:22:40.126Z</time></trkpt><trkpt lat="45.7378029" lon="11.7194684"><ele>96.0</ele><time>2026-04-04T06:22:41.127Z</time></trkpt><trkpt lat="45.7378868" lon="11.7197943"><ele>96.0</ele><time>2026-04-04T06:22:42.128Z</time></trkpt><trkpt lat="45.7379729" lon="11.7201266"><ele>96.0</ele><time>2026-04-04T06:22:43.126Z</time></trkpt><trkpt lat="45.7380587" lon="11.7204741"><ele>95.0</ele><time>2026-04-04T06:22:44.127Z</time></trkpt><trkpt lat="45.738134" lon="11.7208313"><ele>94.0</ele><time>2026-04-04T06:22:45.128Z</time></trkpt><trkpt lat="45.7382088" lon="11.7212001"><ele>94.0</ele><time>2026-04-04T06:22:46.126Z</time></trkpt><trkpt lat="45.7382714" lon="11.7215811"><ele>94.0</ele><time>2026-04-04T06:22:47.128Z</time></trkpt><trkpt lat="45.7383236" lon="11.721971"><ele>95.0</ele><time>2026-04-04T06:22:48.127Z</time></trkpt><trkpt lat="45.7383638" lon="11.722368"><ele>96.0</ele><time>2026-04-04T06:22:49.128Z</time></trkpt><trkpt lat="45.7383982" lon="11.7227668"><ele>97.0</ele><time>2026-04-04T06:22:50.127Z</time></trkpt><trkpt lat="45.738434" lon="11.7231622"><ele>98.0</ele><time>2026-04-04T06:22:51.127Z</time></trkpt><trkpt lat="45.7384672" lon="11.7235594"><ele>98.0</ele><time>2026-04-04T06:22:52.127Z</time></trkpt><trkpt lat="45.7385033" lon="11.7239582"><ele>98.0</ele><time>2026-04-04T06:22:53.128Z</time></trkpt><trkpt lat="45.738536" lon="11.7243584"><ele>98.0</ele><time>2026-04-04T06:22:54.127Z</time></trkpt><trkpt lat="45.7385659" lon="11.7247531"><ele>98.0</ele><time>2026-04-04T06:22:55.128Z</time></trkpt><trkpt lat="45.7385913" lon="11.7251465"><ele>98.0</ele><time>2026-04-04T06:22:56.126Z</time></trkpt><trkpt lat="45.7386052" lon="11.7255408"><ele>98.0</ele><time>2026-04-04T06:22:57.128Z</time></trkpt><trkpt lat="45.738611" lon="11.7259277"><ele>98.0</ele><time>2026-04-04T06:22:58.127Z</time></trkpt><trkpt lat="45.7386071" lon="11.7262973"><ele>98.0</ele><time>2026-04-04T06:22:59.128Z</time></trkpt><trkpt lat="45.7386005" lon="11.7266489"><ele>98.0</ele><time>2026-04-04T06:23:00.128Z</time></trkpt><trkpt lat="45.7385879" lon="11.7269773"><ele>98.0</ele><time>2026-04-04T06:23:01.128Z</time></trkpt><trkpt lat="45.7385746" lon="11.7272941"><ele>98.0</ele><time>2026-04-04T06:23:02.127Z</time></trkpt><trkpt lat="45.7385603" lon="11.727599"><ele>98.0</ele><time>2026-04-04T06:23:03.127Z</time></trkpt><trkpt lat="45.7385418" lon="11.7278972"><ele>98.0</ele><time>2026-04-04T06:23:04.127Z</time></trkpt><trkpt lat="45.7385207" lon="11.728186"><ele>97.0</ele><time>2026-04-04T06:23:05.128Z</time></trkpt><trkpt lat="45.738498" lon="11.7284625"><ele>96.0</ele><time>2026-04-04T06:23:06.128Z</time></trkpt><trkpt lat="45.7384737" lon="11.7287314"><ele>95.0</ele><time>2026-04-04T06:23:07.128Z</time></trkpt><trkpt lat="45.7384444" lon="11.7290016"><ele>95.0</ele><time>2026-04-04T06:23:08.127Z</time></trkpt><trkpt lat="45.7384088" lon="11.7292731"><ele>95.0</ele><time>2026-04-04T06:23:09.128Z</time></trkpt><trkpt lat="45.7383707" lon="11.7295356"><ele>95.0</ele><time>2026-04-04T06:23:10.129Z</time></trkpt><trkpt lat="45.7383323" lon="11.7297789"><ele>95.0</ele><time>2026-04-04T06:23:11.129Z</time></trkpt><trkpt lat="45.7382963" lon="11.7299977"><ele>95.0</ele><time>2026-04-04T06:23:12.128Z</time></trkpt><trkpt lat="45.7382674" lon="11.7301914"><ele>95.0</ele><time>2026-04-04T06:23:13.128Z</time></trkpt><trkpt lat="45.7382352" lon="11.7303627"><ele>95.0</ele><time>2026-04-04T06:23:14.126Z</time></trkpt><trkpt lat="45.7382013" lon="11.7305214"><ele>95.6</ele><time>2026-04-04T06:23:15.128Z</time></trkpt><trkpt lat="45.7381627" lon="11.7306657"><ele>96.2</ele><time>2026-04-04T06:23:16.127Z</time></trkpt><trkpt lat="45.738119" lon="11.7307959"><ele>96.80000000000001</ele><time>2026-04-04T06:23:17.128Z</time></trkpt><trkpt lat="45.7380762" lon="11.7309141"><ele>97.4</ele><time>2026-04-04T06:23:18.127Z</time></trkpt><trkpt lat="45.7380221" lon="11.7310268"><ele>98.0</ele><time>2026-04-04T06:23:19.128Z</time></trkpt><trkpt lat="45.7379649" lon="11.7311453"><ele>98.5</ele><time>2026-04-04T06:23:20.127Z</time></trkpt><trkpt lat="45.7379137" lon="11.7312877"><ele>99.0</ele><time>2026-04-04T06:23:21.129Z</time></trkpt><trkpt lat="45.7378776" lon="11.7314539"><ele>99.5</ele><time>2026-04-04T06:23:22.127Z</time></trkpt><trkpt lat="45.7378654" lon="11.7316442"><ele>100.0</ele><time>2026-04-04T06:23:23.128Z</time></trkpt><trkpt lat="45.7378509" lon="11.7318338"><ele>99.66666666666667</ele><time>2026-04-04T06:23:24.127Z</time></trkpt><trkpt lat="45.7378229" lon="11.7320232"><ele>99.33333333333334</ele><time>2026-04-04T06:23:25.128Z</time></trkpt><trkpt lat="45.7377902" lon="11.7322416"><ele>99.0</ele><time>2026-04-04T06:23:26.127Z</time></trkpt><trkpt lat="45.737741" lon="11.7324835"><ele>99.33333333333334</ele><time>2026-04-04T06:23:27.128Z</time></trkpt><trkpt lat="45.7376732" lon="11.7327401"><ele>99.66666666666667</ele><time>2026-04-04T06:23:28.129Z</time></trkpt><trkpt lat="45.7376001" lon="11.7330212"><ele>100.0</ele><time>2026-04-04T06:23:29.127Z</time></trkpt><trkpt lat="45.7375263" lon="11.7333423"><ele>101.0</ele><time>2026-04-04T06:23:30.127Z</time></trkpt><trkpt lat="45.7374461" lon="11.7336897"><ele>102.0</ele><time>2026-04-04T06:23:31.128Z</time></trkpt><trkpt lat="45.7373565" lon="11.734061"><ele>101.0</ele><time>2026-04-04T06:23:32.128Z</time></trkpt><trkpt lat="45.7372566" lon="11.7344486"><ele>100.0</ele><time>2026-04-04T06:23:33.127Z</time></trkpt><trkpt lat="45.737158" lon="11.7348466"><ele>100.5</ele><time>2026-04-04T06:23:34.129Z</time></trkpt><trkpt lat="45.7370672" lon="11.7352431"><ele>101.0</ele><time>2026-04-04T06:23:35.128Z</time></trkpt><trkpt lat="45.7369743" lon="11.7356363"><ele>100.5</ele><time>2026-04-04T06:23:36.129Z</time></trkpt><trkpt lat="45.7368836" lon="11.7360148"><ele>100.0</ele><time>2026-04-04T06:23:37.129Z</time></trkpt><trkpt lat="45.7367941" lon="11.7363837"><ele>100.0</ele><time>2026-04-04T06:23:38.127Z</time></trkpt><trkpt lat="45.7367062" lon="11.7367437"><ele>100.0</ele><time>2026-04-04T06:23:39.129Z</time></trkpt><trkpt lat="45.7366185" lon="11.7370912"><ele>100.5</ele><time>2026-04-04T06:23:40.128Z</time></trkpt><trkpt lat="45.7365351" lon="11.7374316"><ele>101.0</ele><time>2026-04-04T06:23:41.127Z</time></trkpt><trkpt lat="45.7364519" lon="11.7377703"><ele>101.0</ele><time>2026-04-04T06:23:42.127Z</time></trkpt><trkpt lat="45.7363692" lon="11.7381046"><ele>101.0</ele><time>2026-04-04T06:23:43.128Z</time></trkpt><trkpt lat="45.7362951" lon="11.7384343"><ele>100.5</ele><time>2026-04-04T06:23:44.128Z</time></trkpt><trkpt lat="45.7362309" lon="11.7387676"><ele>100.0</ele><time>2026-04-04T06:23:45.128Z</time></trkpt><trkpt lat="45.7361764" lon="11.73909"><ele>99.66666666666667</ele><time>2026-04-04T06:23:46.127Z</time></trkpt><trkpt lat="45.7361348" lon="11.7393946"><ele>99.33333333333334</ele><time>2026-04-04T06:23:47.127Z</time></trkpt><trkpt lat="45.7360978" lon="11.7396856"><ele>99.0</ele><time>2026-04-04T06:23:48.126Z</time></trkpt><trkpt lat="45.7360691" lon="11.7399567"><ele>99.0</ele><time>2026-04-04T06:23:49.128Z</time></trkpt><trkpt lat="45.7360495" lon="11.7402151"><ele>99.0</ele><time>2026-04-04T06:23:50.128Z</time></trkpt><trkpt lat="45.7360338" lon="11.7404505"><ele>99.0</ele><time>2026-04-04T06:23:51.127Z</time></trkpt><trkpt lat="45.736024" lon="11.7406649"><ele>99.25</ele><time>2026-04-04T06:23:52.128Z</time></trkpt><trkpt lat="45.7360208" lon="11.740859"><ele>99.5</ele><time>2026-04-04T06:23:53.128Z</time></trkpt><trkpt lat="45.7360277" lon="11.7410264"><ele>99.75</ele><time>2026-04-04T06:23:54.128Z</time></trkpt><trkpt lat="45.7360415" lon="11.7411726"><ele>100.0</ele><time>2026-04-04T06:23:55.128Z</time></trkpt><trkpt lat="45.7360551" lon="11.7413072"><ele>100.6</ele><time>2026-04-04T06:23:56.128Z</time></trkpt><trkpt lat="45.7360552" lon="11.7414485"><ele>101.2</ele><time>2026-04-04T06:23:57.128Z</time></trkpt><trkpt lat="45.7360548" lon="11.7415942"><ele>101.80000000000001</ele><time>2026-04-04T06:23:58.129Z</time></trkpt><trkpt lat="45.7360684" lon="11.7417343"><ele>102.4</ele><time>2026-04-04T06:23:59.128Z</time></trkpt><trkpt lat="45.7361207" lon="11.7418484"><ele>103.0</ele><time>2026-04-04T06:24:00.128Z</time></trkpt><trkpt lat="45.7361802" lon="11.7419287"><ele>103.00000000000001</ele><time>2026-04-04T06:24:01.128Z</time></trkpt><trkpt lat="45.7362474" lon="11.7419776"><ele>103.0</ele><time>2026-04-04T06:24:02.127Z</time></trkpt><trkpt lat="45.7363163" lon="11.7420158"><ele>103.0</ele><time>2026-04-04T06:24:03.127Z</time></trkpt><trkpt lat="45.7363834" lon="11.7420728"><ele>103.0</ele><time>2026-04-04T06:24:04.127Z</time></trkpt><trkpt lat="45.7364397" lon="11.7421573"><ele>103.00000000000001</ele><time>2026-04-04T06:24:05.127Z</time></trkpt><trkpt lat="45.7364811" lon="11.7422718"><ele>103.0</ele><time>2026-04-04T06:24:06.127Z</time></trkpt><trkpt lat="45.736515" lon="11.7424188"><ele>103.0</ele><time>2026-04-04T06:24:07.128Z</time></trkpt><trkpt lat="45.7365302" lon="11.7426039"><ele>103.0</ele><time>2026-04-04T06:24:08.127Z</time></trkpt><trkpt lat="45.7365331" lon="11.7428315"><ele>103.0</ele><time>2026-04-04T06:24:09.128Z</time></trkpt><trkpt lat="45.7365235" lon="11.743109"><ele>103.0</ele><time>2026-04-04T06:24:10.128Z</time></trkpt><trkpt lat="45.736505" lon="11.7434208"><ele>103.0</ele><time>2026-04-04T06:24:11.127Z</time></trkpt><trkpt lat="45.7364816" lon="11.7437596"><ele>102.5</ele><time>2026-04-04T06:24:12.127Z</time></trkpt><trkpt lat="45.7364602" lon="11.7441209"><ele>102.0</ele><time>2026-04-04T06:24:13.127Z</time></trkpt><trkpt lat="45.7364397" lon="11.7444872"><ele>102.0</ele><time>2026-04-04T06:24:14.128Z</time></trkpt><trkpt lat="45.7364245" lon="11.7448564"><ele>102.0</ele><time>2026-04-04T06:24:15.127Z</time></trkpt><trkpt lat="45.7364107" lon="11.7452293"><ele>102.0</ele><time>2026-04-04T06:24:16.127Z</time></trkpt><trkpt lat="45.7363974" lon="11.7456004"><ele>102.0</ele><time>2026-04-04T06:24:17.127Z</time></trkpt><trkpt lat="45.7363842" lon="11.7459817"><ele>100.5</ele><time>2026-04-04T06:24:18.128Z</time></trkpt><trkpt lat="45.7363737" lon="11.7463823"><ele>99.0</ele><time>2026-04-04T06:24:19.127Z</time></trkpt><trkpt lat="45.7363585" lon="11.7467896"><ele>100.0</ele><time>2026-04-04T06:24:20.129Z</time></trkpt><trkpt lat="45.7363337" lon="11.7471981"><ele>101.0</ele><time>2026-04-04T06:24:21.128Z</time></trkpt><trkpt lat="45.7363059" lon="11.7476054"><ele>102.0</ele><time>2026-04-04T06:24:22.128Z</time></trkpt><trkpt lat="45.7362825" lon="11.7480078"><ele>103.0</ele><time>2026-04-04T06:24:23.128Z</time></trkpt><trkpt lat="45.7362642" lon="11.7484051"><ele>102.5</ele><time>2026-04-04T06:24:24.127Z</time></trkpt><trkpt lat="45.7362482" lon="11.7488007"><ele>102.0</ele><time>2026-04-04T06:24:25.127Z</time></trkpt><trkpt lat="45.7362357" lon="11.7491933"><ele>102.0</ele><time>2026-04-04T06:24:26.127Z</time></trkpt><trkpt lat="45.7362272" lon="11.7495878"><ele>102.0</ele><time>2026-04-04T06:24:27.129Z</time></trkpt><trkpt lat="45.7362217" lon="11.7499735"><ele>102.5</ele><time>2026-04-04T06:24:28.127Z</time></trkpt><trkpt lat="45.7362174" lon="11.7503583"><ele>103.0</ele><time>2026-04-04T06:24:29.128Z</time></trkpt><trkpt lat="45.7362316" lon="11.7507363"><ele>103.5</ele><time>2026-04-04T06:24:30.128Z</time></trkpt><trkpt lat="45.7362453" lon="11.7511148"><ele>104.0</ele><time>2026-04-04T06:24:31.128Z</time></trkpt><trkpt lat="45.7362651" lon="11.7514884"><ele>104.0</ele><time>2026-04-04T06:24:32.127Z</time></trkpt><trkpt lat="45.7362875" lon="11.7518522"><ele>104.0</ele><time>2026-04-04T06:24:33.127Z</time></trkpt><trkpt lat="45.7363147" lon="11.7522106"><ele>103.5</ele><time>2026-04-04T06:24:34.128Z</time></trkpt><trkpt lat="45.736346" lon="11.7525664"><ele>103.0</ele><time>2026-04-04T06:24:35.128Z</time></trkpt><trkpt lat="45.7363839" lon="11.752919"><ele>102.0</ele><time>2026-04-04T06:24:36.127Z</time></trkpt><trkpt lat="45.7364229" lon="11.7532739"><ele>101.0</ele><time>2026-04-04T06:24:37.128Z</time></trkpt><trkpt lat="45.7364657" lon="11.7536317"><ele>101.0</ele><time>2026-04-04T06:24:38.128Z</time></trkpt><trkpt lat="45.7365117" lon="11.7539887"><ele>101.0</ele><time>2026-04-04T06:24:39.128Z</time></trkpt><trkpt lat="45.7365579" lon="11.7543468"><ele>100.0</ele><time>2026-04-04T06:24:40.127Z</time></trkpt><trkpt lat="45.7366032" lon="11.7547053"><ele>99.0</ele><time>2026-04-04T06:24:41.128Z</time></trkpt><trkpt lat="45.7366503" lon="11.7550643"><ele>100.0</ele><time>2026-04-04T06:24:42.129Z</time></trkpt><trkpt lat="45.7366971" lon="11.7554204"><ele>101.0</ele><time>2026-04-04T06:24:43.127Z</time></trkpt><trkpt lat="45.7367459" lon="11.7557692"><ele>101.0</ele><time>2026-04-04T06:24:44.129Z</time></trkpt><trkpt lat="45.7367892" lon="11.7561018"><ele>101.0</ele><time>2026-04-04T06:24:45.128Z</time></trkpt><trkpt lat="45.7368244" lon="11.7564162"><ele>101.0</ele><time>2026-04-04T06:24:46.128Z</time></trkpt><trkpt lat="45.736863" lon="11.7567187"><ele>101.0</ele><time>2026-04-04T06:24:47.129Z</time></trkpt><trkpt lat="45.7369002" lon="11.7570114"><ele>101.0</ele><time>2026-04-04T06:24:48.127Z</time></trkpt><trkpt lat="45.7369375" lon="11.7572877"><ele>101.33333333333333</ele><time>2026-04-04T06:24:49.128Z</time></trkpt><trkpt lat="45.7369728" lon="11.757549"><ele>101.66666666666666</ele><time>2026-04-04T06:24:50.128Z</time></trkpt><trkpt lat="45.7370037" lon="11.7577946"><ele>102.0</ele><time>2026-04-04T06:24:51.127Z</time></trkpt><trkpt lat="45.7370292" lon="11.7580203"><ele>102.0</ele><time>2026-04-04T06:24:52.129Z</time></trkpt><trkpt lat="45.7370565" lon="11.7582145"><ele>102.0</ele><time>2026-04-04T06:24:53.128Z</time></trkpt><trkpt lat="45.7370847" lon="11.7583867"><ele>102.0</ele><time>2026-04-04T06:24:54.128Z</time></trkpt><trkpt lat="45.7371124" lon="11.7585342"><ele>102.0</ele><time>2026-04-04T06:24:55.128Z</time></trkpt><trkpt lat="45.7371197" lon="11.758679"><ele>102.19999999999999</ele><time>2026-04-04T06:24:56.128Z</time></trkpt><trkpt lat="45.7371062" lon="11.7588228"><ele>102.4</ele><time>2026-04-04T06:24:57.127Z</time></trkpt><trkpt lat="45.7370916" lon="11.7589612"><ele>102.6</ele><time>2026-04-04T06:24:58.129Z</time></trkpt><trkpt lat="45.7371012" lon="11.7591039"><ele>102.80000000000001</ele><time>2026-04-04T06:24:59.128Z</time></trkpt><trkpt lat="45.7371393" lon="11.7592435"><ele>103.0</ele><time>2026-04-04T06:25:00.128Z</time></trkpt><trkpt lat="45.7372106" lon="11.7593718"><ele>103.25</ele><time>2026-04-04T06:25:01.128Z</time></trkpt><trkpt lat="45.7372808" lon="11.7595114"><ele>103.5</ele><time>2026-04-04T06:25:02.127Z</time></trkpt><trkpt lat="45.7373505" lon="11.7596838"><ele>103.75</ele><time>2026-04-04T06:25:03.129Z</time></trkpt><trkpt lat="45.7373983" lon="11.7599034"><ele>104.0</ele><time>2026-04-04T06:25:04.128Z</time></trkpt><trkpt lat="45.7374416" lon="11.7601448"><ele>103.66666666666666</ele><time>2026-04-04T06:25:05.128Z</time></trkpt><trkpt lat="45.7374715" lon="11.7604152"><ele>103.33333333333334</ele><time>2026-04-04T06:25:06.128Z</time></trkpt><trkpt lat="45.7374922" lon="11.7607148"><ele>103.0</ele><time>2026-04-04T06:25:07.129Z</time></trkpt><trkpt lat="45.7374755" lon="11.7610402"><ele>102.0</ele><time>2026-04-04T06:25:08.128Z</time></trkpt><trkpt lat="45.7374601" lon="11.761373"><ele>101.0</ele><time>2026-04-04T06:25:09.127Z</time></trkpt><trkpt lat="45.7374645" lon="11.7617259"><ele>101.0</ele><time>2026-04-04T06:25:10.128Z</time></trkpt><trkpt lat="45.7374907" lon="11.7620868"><ele>101.0</ele><time>2026-04-04T06:25:11.128Z</time></trkpt><trkpt lat="45.7375173" lon="11.7624448"><ele>101.0</ele><time>2026-04-04T06:25:12.128Z</time></trkpt><trkpt lat="45.7375966" lon="11.7628184"><ele>101.0</ele><time>2026-04-04T06:25:13.129Z</time></trkpt><trkpt lat="45.737656" lon="11.7631917"><ele>101.5</ele><time>2026-04-04T06:25:14.128Z</time></trkpt><trkpt lat="45.7377226" lon="11.7635677"><ele>102.0</ele><time>2026-04-04T06:25:15.128Z</time></trkpt><trkpt lat="45.7377858" lon="11.7639396"><ele>102.0</ele><time>2026-04-04T06:25:16.127Z</time></trkpt><trkpt lat="45.7378487" lon="11.7643175"><ele>102.0</ele><time>2026-04-04T06:25:17.129Z</time></trkpt><trkpt lat="45.737918" lon="11.7647034"><ele>102.0</ele><time>2026-04-04T06:25:18.128Z</time></trkpt><trkpt lat="45.7379859" lon="11.7650914"><ele>102.0</ele><time>2026-04-04T06:25:19.129Z</time></trkpt><trkpt lat="45.7380551" lon="11.7654783"><ele>102.0</ele><time>2026-04-04T06:25:20.129Z</time></trkpt><trkpt lat="45.7381241" lon="11.7658564"><ele>102.0</ele><time>2026-04-04T06:25:21.128Z</time></trkpt><trkpt lat="45.7381885" lon="11.7662312"><ele>102.0</ele><time>2026-04-04T06:25:22.129Z</time></trkpt><trkpt lat="45.7382514" lon="11.7665973"><ele>102.0</ele><time>2026-04-04T06:25:23.128Z</time></trkpt><trkpt lat="45.7383206" lon="11.7669625"><ele>102.5</ele><time>2026-04-04T06:25:24.128Z</time></trkpt><trkpt lat="45.7383842" lon="11.7673237"><ele>103.0</ele><time>2026-04-04T06:25:25.128Z</time></trkpt><trkpt lat="45.73845" lon="11.76768"><ele>103.5</ele><time>2026-04-04T06:25:26.127Z</time></trkpt><trkpt lat="45.7385238" lon="11.7680303"><ele>104.0</ele><time>2026-04-04T06:25:27.128Z</time></trkpt><trkpt lat="45.7386225" lon="11.7683614"><ele>103.0</ele><time>2026-04-04T06:25:28.127Z</time></trkpt><trkpt lat="45.7387308" lon="11.7686716"><ele>102.0</ele><time>2026-04-04T06:25:29.128Z</time></trkpt><trkpt lat="45.7388497" lon="11.768954"><ele>102.0</ele><time>2026-04-04T06:25:30.128Z</time></trkpt><trkpt lat="45.7389483" lon="11.7692371"><ele>102.0</ele><time>2026-04-04T06:25:31.128Z</time></trkpt><trkpt lat="45.7390225" lon="11.7695312"><ele>102.0</ele><time>2026-04-04T06:25:32.127Z</time></trkpt><trkpt lat="45.7390944" lon="11.7698313"><ele>102.0</ele><time>2026-04-04T06:25:33.127Z</time></trkpt><trkpt lat="45.7391383" lon="11.7701158"><ele>102.0</ele><time>2026-04-04T06:25:34.128Z</time></trkpt><trkpt lat="45.7391871" lon="11.7704005"><ele>102.0</ele><time>2026-04-04T06:25:35.127Z</time></trkpt><trkpt lat="45.7392087" lon="11.7706872"><ele>102.0</ele><time>2026-04-04T06:25:36.129Z</time></trkpt><trkpt lat="45.7391933" lon="11.7709496"><ele>102.0</ele><time>2026-04-04T06:25:37.128Z</time></trkpt><trkpt lat="45.7391951" lon="11.7712157"><ele>102.0</ele><time>2026-04-04T06:25:38.128Z</time></trkpt><trkpt lat="45.7392002" lon="11.7714859"><ele>101.66666666666666</ele><time>2026-04-04T06:25:39.128Z</time></trkpt><trkpt lat="45.739223" lon="11.7717482"><ele>101.33333333333333</ele><time>2026-04-04T06:25:40.128Z</time></trkpt><trkpt lat="45.7392567" lon="11.7720084"><ele>101.0</ele><time>2026-04-04T06:25:41.127Z</time></trkpt><trkpt lat="45.7393166" lon="11.772281"><ele>101.33333333333333</ele><time>2026-04-04T06:25:42.128Z</time></trkpt><trkpt lat="45.7393865" lon="11.772543"><ele>101.66666666666666</ele><time>2026-04-04T06:25:43.128Z</time></trkpt><trkpt lat="45.7394654" lon="11.7727838"><ele>102.0</ele><time>2026-04-04T06:25:44.129Z</time></trkpt><trkpt lat="45.7395525" lon="11.7730309"><ele>102.33333333333334</ele><time>2026-04-04T06:25:45.128Z</time></trkpt><trkpt lat="45.7396763" lon="11.7732482"><ele>102.66666666666667</ele><time>2026-04-04T06:25:46.128Z</time></trkpt><trkpt lat="45.7398081" lon="11.7734482"><ele>103.0</ele><time>2026-04-04T06:25:47.128Z</time></trkpt><trkpt lat="45.7399478" lon="11.7736374"><ele>103.0</ele><time>2026-04-04T06:25:48.128Z</time></trkpt><trkpt lat="45.7401042" lon="11.7737921"><ele>103.0</ele><time>2026-04-04T06:25:49.127Z</time></trkpt><trkpt lat="45.7402595" lon="11.7739415"><ele>103.0</ele><time>2026-04-04T06:25:50.128Z</time></trkpt><trkpt lat="45.7404182" lon="11.7740808"><ele>104.0</ele><time>2026-04-04T06:25:51.129Z</time></trkpt><trkpt lat="45.7410528" lon="11.7745842"><ele>104.0</ele><time>2026-04-04T06:25:54.127Z</time></trkpt><trkpt lat="45.741281" lon="11.7747571"><ele>104.0</ele><time>2026-04-04T06:25:55.127Z</time></trkpt><trkpt lat="45.7414776" lon="11.7749452"><ele>104.0</ele><time>2026-04-04T06:25:56.128Z</time></trkpt><trkpt lat="45.74165" lon="11.7751179"><ele>104.0</ele><time>2026-04-04T06:25:57.129Z</time></trkpt><trkpt lat="45.7418399" lon="11.7752839"><ele>104.0</ele><time>2026-04-04T06:25:58.127Z</time></trkpt><trkpt lat="45.7420248" lon="11.7754582"><ele>103.33333333333333</ele><time>2026-04-04T06:25:59.129Z</time></trkpt><trkpt lat="45.7422148" lon="11.775618"><ele>102.66666666666666</ele><time>2026-04-04T06:26:00.129Z</time></trkpt><trkpt lat="45.7424077" lon="11.7757426"><ele>102.0</ele><time>2026-04-04T06:26:01.129Z</time></trkpt><trkpt lat="45.7426094" lon="11.7758529"><ele>102.0</ele><time>2026-04-04T06:26:02.127Z</time></trkpt><trkpt lat="45.742826" lon="11.7759282"><ele>102.0</ele><time>2026-04-04T06:26:03.127Z</time></trkpt><trkpt lat="45.7430504" lon="11.7759993"><ele>103.0</ele><time>2026-04-04T06:26:04.129Z</time></trkpt><trkpt lat="45.7432798" lon="11.77606"><ele>104.0</ele><time>2026-04-04T06:26:05.129Z</time></trkpt><trkpt lat="45.7435141" lon="11.7761171"><ele>103.5</ele><time>2026-04-04T06:26:06.129Z</time></trkpt><trkpt lat="45.7437399" lon="11.7761629"><ele>103.0</ele><time>2026-04-04T06:26:07.128Z</time></trkpt><trkpt lat="45.7439948" lon="11.7762047"><ele>103.0</ele><time>2026-04-04T06:26:08.128Z</time></trkpt><trkpt lat="45.7442487" lon="11.7762445"><ele>103.0</ele><time>2026-04-04T06:26:09.128Z</time></trkpt><trkpt lat="45.7445039" lon="11.7762757"><ele>103.0</ele><time>2026-04-04T06:26:10.128Z</time></trkpt><trkpt lat="45.7447697" lon="11.7762974"><ele>103.0</ele><time>2026-04-04T06:26:11.128Z</time></trkpt><trkpt lat="45.7450406" lon="11.7763127"><ele>102.5</ele><time>2026-04-04T06:26:12.128Z</time></trkpt><trkpt lat="45.7453186" lon="11.7763263"><ele>102.0</ele><time>2026-04-04T06:26:13.128Z</time></trkpt><trkpt lat="45.7455959" lon="11.7763244"><ele>102.0</ele><time>2026-04-04T06:26:14.128Z</time></trkpt><trkpt lat="45.745877" lon="11.77632"><ele>102.0</ele><time>2026-04-04T06:26:15.128Z</time></trkpt><trkpt lat="45.7461632" lon="11.7763118"><ele>102.5</ele><time>2026-04-04T06:26:16.128Z</time></trkpt><trkpt lat="45.7464465" lon="11.7763049"><ele>103.0</ele><time>2026-04-04T06:26:17.129Z</time></trkpt><trkpt lat="45.7467269" lon="11.7763014"><ele>104.5</ele><time>2026-04-04T06:26:18.127Z</time></trkpt><trkpt lat="45.7470082" lon="11.7762917"><ele>106.0</ele><time>2026-04-04T06:26:19.128Z</time></trkpt><trkpt lat="45.7472864" lon="11.7762861"><ele>106.0</ele><time>2026-04-04T06:26:20.128Z</time></trkpt><trkpt lat="45.7475687" lon="11.7762809"><ele>106.0</ele><time>2026-04-04T06:26:21.128Z</time></trkpt><trkpt lat="45.7478528" lon="11.776277"><ele>105.5</ele><time>2026-04-04T06:26:22.128Z</time></trkpt><trkpt lat="45.7481361" lon="11.7762726"><ele>105.0</ele><time>2026-04-04T06:26:23.129Z</time></trkpt><trkpt lat="45.7484286" lon="11.7762654"><ele>105.0</ele><time>2026-04-04T06:26:24.129Z</time></trkpt><trkpt lat="45.7487221" lon="11.7762593"><ele>105.0</ele><time>2026-04-04T06:26:25.128Z</time></trkpt><trkpt lat="45.7490219" lon="11.7762598"><ele>105.0</ele><time>2026-04-04T06:26:26.127Z</time></trkpt><trkpt lat="45.7493211" lon="11.7762534"><ele>105.0</ele><time>2026-04-04T06:26:27.128Z</time></trkpt><trkpt lat="45.7496242" lon="11.7762449"><ele>105.5</ele><time>2026-04-04T06:26:28.128Z</time></trkpt><trkpt lat="45.7499264" lon="11.7762426"><ele>106.0</ele><time>2026-04-04T06:26:29.127Z</time></trkpt><trkpt lat="45.7502298" lon="11.7762381"><ele>106.0</ele><time>2026-04-04T06:26:30.128Z</time></trkpt><trkpt lat="45.7505354" lon="11.7762327"><ele>106.0</ele><time>2026-04-04T06:26:31.128Z</time></trkpt><trkpt lat="45.7508314" lon="11.7762325"><ele>106.5</ele><time>2026-04-04T06:26:32.127Z</time></trkpt><trkpt lat="45.7511362" lon="11.7762161"><ele>107.0</ele><time>2026-04-04T06:26:33.128Z</time></trkpt><trkpt lat="45.751439" lon="11.7761953"><ele>107.0</ele><time>2026-04-04T06:26:34.127Z</time></trkpt><trkpt lat="45.751741" lon="11.7761574"><ele>107.0</ele><time>2026-04-04T06:26:35.128Z</time></trkpt><trkpt lat="45.7520369" lon="11.7761121"><ele>107.5</ele><time>2026-04-04T06:26:36.128Z</time></trkpt><trkpt lat="45.7523346" lon="11.7760597"><ele>108.0</ele><time>2026-04-04T06:26:37.129Z</time></trkpt><trkpt lat="45.7526341" lon="11.7759952"><ele>108.0</ele><time>2026-04-04T06:26:38.129Z</time></trkpt><trkpt lat="45.7529344" lon="11.7759255"><ele>108.0</ele><time>2026-04-04T06:26:39.129Z</time></trkpt><trkpt lat="45.7532301" lon="11.7758448"><ele>108.0</ele><time>2026-04-04T06:26:40.128Z</time></trkpt><trkpt lat="45.753529" lon="11.7757544"><ele>108.0</ele><time>2026-04-04T06:26:41.128Z</time></trkpt><trkpt lat="45.7538208" lon="11.7756492"><ele>108.5</ele><time>2026-04-04T06:26:42.128Z</time></trkpt><trkpt lat="45.754112" lon="11.7755393"><ele>109.0</ele><time>2026-04-04T06:26:43.129Z</time></trkpt><trkpt lat="45.7543988" lon="11.7754177"><ele>109.0</ele><time>2026-04-04T06:26:44.128Z</time></trkpt><trkpt lat="45.7546853" lon="11.7752922"><ele>109.0</ele><time>2026-04-04T06:26:45.128Z</time></trkpt><trkpt lat="45.7549733" lon="11.7751691"><ele>111.0</ele><time>2026-04-04T06:26:46.127Z</time></trkpt><trkpt lat="45.7552593" lon="11.7750448"><ele>113.0</ele><time>2026-04-04T06:26:47.128Z</time></trkpt><trkpt lat="45.7555463" lon="11.7749178"><ele>113.0</ele><time>2026-04-04T06:26:48.128Z</time></trkpt><trkpt lat="45.7558305" lon="11.7747825"><ele>113.0</ele><time>2026-04-04T06:26:49.127Z</time></trkpt><trkpt lat="45.7561161" lon="11.7746483"><ele>112.0</ele><time>2026-04-04T06:26:50.129Z</time></trkpt><trkpt lat="45.7563972" lon="11.774517"><ele>111.0</ele><time>2026-04-04T06:26:51.127Z</time></trkpt><trkpt lat="45.7566798" lon="11.774386"><ele>111.0</ele><time>2026-04-04T06:26:52.128Z</time></trkpt><trkpt lat="45.756958" lon="11.7742545"><ele>111.0</ele><time>2026-04-04T06:26:53.128Z</time></trkpt><trkpt lat="45.757234" lon="11.7741182"><ele>111.0</ele><time>2026-04-04T06:26:54.128Z</time></trkpt><trkpt lat="45.7575082" lon="11.7739779"><ele>111.0</ele><time>2026-04-04T06:26:55.127Z</time></trkpt><trkpt lat="45.7577824" lon="11.7738321"><ele>111.5</ele><time>2026-04-04T06:26:56.13Z</time></trkpt><trkpt lat="45.7580504" lon="11.7736791"><ele>112.0</ele><time>2026-04-04T06:26:57.128Z</time></trkpt><trkpt lat="45.7583138" lon="11.7735258"><ele>111.0</ele><time>2026-04-04T06:26:58.127Z</time></trkpt><trkpt lat="45.7585769" lon="11.7733708"><ele>110.0</ele><time>2026-04-04T06:26:59.128Z</time></trkpt><trkpt lat="45.7588297" lon="11.7732088"><ele>110.0</ele><time>2026-04-04T06:27:00.13Z</time></trkpt><trkpt lat="45.7590814" lon="11.7730434"><ele>110.0</ele><time>2026-04-04T06:27:01.13Z</time></trkpt><trkpt lat="45.7593342" lon="11.7728784"><ele>112.0</ele><time>2026-04-04T06:27:02.129Z</time></trkpt><trkpt lat="45.7595828" lon="11.7727108"><ele>114.0</ele><time>2026-04-04T06:27:03.129Z</time></trkpt><trkpt lat="45.759827" lon="11.7725426"><ele>114.0</ele><time>2026-04-04T06:27:04.129Z</time></trkpt><trkpt lat="45.7600694" lon="11.7723643"><ele>114.0</ele><time>2026-04-04T06:27:05.13Z</time></trkpt><trkpt lat="45.7603151" lon="11.7721815"><ele>113.5</ele><time>2026-04-04T06:27:06.127Z</time></trkpt><trkpt lat="45.7605537" lon="11.7719926"><ele>113.0</ele><time>2026-04-04T06:27:07.128Z</time></trkpt><trkpt lat="45.7607945" lon="11.7718027"><ele>114.0</ele><time>2026-04-04T06:27:08.128Z</time></trkpt><trkpt lat="45.7610394" lon="11.7716031"><ele>115.0</ele><time>2026-04-04T06:27:09.128Z</time></trkpt><trkpt lat="45.7612868" lon="11.7713998"><ele>115.0</ele><time>2026-04-04T06:27:10.128Z</time></trkpt><trkpt lat="45.7615358" lon="11.7711981"><ele>115.0</ele><time>2026-04-04T06:27:11.128Z</time></trkpt><trkpt lat="45.7617857" lon="11.7709971"><ele>114.5</ele><time>2026-04-04T06:27:12.129Z</time></trkpt><trkpt lat="45.7620398" lon="11.7707979"><ele>114.0</ele><time>2026-04-04T06:27:13.129Z</time></trkpt><trkpt lat="45.7622901" lon="11.7706009"><ele>114.0</ele><time>2026-04-04T06:27:14.128Z</time></trkpt><trkpt lat="45.7625356" lon="11.7704045"><ele>114.0</ele><time>2026-04-04T06:27:15.13Z</time></trkpt><trkpt lat="45.762784" lon="11.7702048"><ele>115.0</ele><time>2026-04-04T06:27:16.129Z</time></trkpt><trkpt lat="45.7630299" lon="11.7699976"><ele>116.0</ele><time>2026-04-04T06:27:17.129Z</time></trkpt><trkpt lat="45.7632738" lon="11.7697977"><ele>116.0</ele><time>2026-04-04T06:27:18.129Z</time></trkpt><trkpt lat="45.7635147" lon="11.7695991"><ele>116.0</ele><time>2026-04-04T06:27:19.129Z</time></trkpt><trkpt lat="45.7637502" lon="11.7694019"><ele>117.5</ele><time>2026-04-04T06:27:20.127Z</time></trkpt><trkpt lat="45.7639894" lon="11.7692095"><ele>119.0</ele><time>2026-04-04T06:27:21.128Z</time></trkpt><trkpt lat="45.7642277" lon="11.7690201"><ele>119.0</ele><time>2026-04-04T06:27:22.128Z</time></trkpt><trkpt lat="45.7644681" lon="11.7688352"><ele>119.0</ele><time>2026-04-04T06:27:23.129Z</time></trkpt><trkpt lat="45.7647109" lon="11.7686571"><ele>119.0</ele><time>2026-04-04T06:27:24.129Z</time></trkpt><trkpt lat="45.7649575" lon="11.7684902"><ele>119.0</ele><time>2026-04-04T06:27:25.13Z</time></trkpt><trkpt lat="45.7651991" lon="11.7683251"><ele>119.0</ele><time>2026-04-04T06:27:26.129Z</time></trkpt><trkpt lat="45.7654529" lon="11.768163"><ele>119.0</ele><time>2026-04-04T06:27:27.129Z</time></trkpt><trkpt lat="45.7657059" lon="11.7680038"><ele>119.0</ele><time>2026-04-04T06:27:28.13Z</time></trkpt><trkpt lat="45.7659644" lon="11.7678512"><ele>119.0</ele><time>2026-04-04T06:27:29.129Z</time></trkpt><trkpt lat="45.7662253" lon="11.7677013"><ele>120.0</ele><time>2026-04-04T06:27:30.129Z</time></trkpt><trkpt lat="45.7664915" lon="11.7675576"><ele>121.0</ele><time>2026-04-04T06:27:31.129Z</time></trkpt><trkpt lat="45.7667596" lon="11.7674074"><ele>120.5</ele><time>2026-04-04T06:27:32.129Z</time></trkpt><trkpt lat="45.7670292" lon="11.7672589"><ele>120.0</ele><time>2026-04-04T06:27:33.128Z</time></trkpt><trkpt lat="45.7672954" lon="11.7671041"><ele>120.0</ele><time>2026-04-04T06:27:34.129Z</time></trkpt><trkpt lat="45.7675621" lon="11.7669535"><ele>120.0</ele><time>2026-04-04T06:27:35.129Z</time></trkpt><trkpt lat="45.7678303" lon="11.7668116"><ele>121.0</ele><time>2026-04-04T06:27:36.129Z</time></trkpt><trkpt lat="45.768099" lon="11.7666755"><ele>122.0</ele><time>2026-04-04T06:27:37.128Z</time></trkpt><trkpt lat="45.7683614" lon="11.7665437"><ele>123.0</ele><time>2026-04-04T06:27:38.129Z</time></trkpt><trkpt lat="45.7686222" lon="11.7664061"><ele>124.0</ele><time>2026-04-04T06:27:39.129Z</time></trkpt><trkpt lat="45.7688816" lon="11.7662623"><ele>124.0</ele><time>2026-04-04T06:27:40.128Z</time></trkpt><trkpt lat="45.7691386" lon="11.7661239"><ele>124.0</ele><time>2026-04-04T06:27:41.129Z</time></trkpt><trkpt lat="45.769389" lon="11.7659874"><ele>125.0</ele><time>2026-04-04T06:27:42.127Z</time></trkpt><trkpt lat="45.7696387" lon="11.7658577"><ele>126.0</ele><time>2026-04-04T06:27:43.128Z</time></trkpt><trkpt lat="45.76989" lon="11.7657264"><ele>126.0</ele><time>2026-04-04T06:27:44.13Z</time></trkpt><trkpt lat="45.77014" lon="11.7655956"><ele>126.0</ele><time>2026-04-04T06:27:45.13Z</time></trkpt><trkpt lat="45.7703821" lon="11.7654625"><ele>126.0</ele><time>2026-04-04T06:27:46.128Z</time></trkpt><trkpt lat="45.7706205" lon="11.7653305"><ele>126.0</ele><time>2026-04-04T06:27:47.128Z</time></trkpt><trkpt lat="45.7708595" lon="11.7651991"><ele>126.5</ele><time>2026-04-04T06:27:48.128Z</time></trkpt><trkpt lat="45.7710966" lon="11.7650691"><ele>127.0</ele><time>2026-04-04T06:27:49.129Z</time></trkpt><trkpt lat="45.7713348" lon="11.7649314"><ele>127.0</ele><time>2026-04-04T06:27:50.13Z</time></trkpt><trkpt lat="45.7715755" lon="11.7648009"><ele>127.0</ele><time>2026-04-04T06:27:51.128Z</time></trkpt><trkpt lat="45.7718157" lon="11.7646666"><ele>127.0</ele><time>2026-04-04T06:27:52.128Z</time></trkpt><trkpt lat="45.7720601" lon="11.7645359"><ele>127.0</ele><time>2026-04-04T06:27:53.13Z</time></trkpt><trkpt lat="45.7723103" lon="11.7644078"><ele>128.0</ele><time>2026-04-04T06:27:54.129Z</time></trkpt><trkpt lat="45.7725638" lon="11.764274"><ele>129.0</ele><time>2026-04-04T06:27:55.129Z</time></trkpt><trkpt lat="45.7728175" lon="11.764138"><ele>129.0</ele><time>2026-04-04T06:27:56.128Z</time></trkpt><trkpt lat="45.7730736" lon="11.7640003"><ele>129.0</ele><time>2026-04-04T06:27:57.128Z</time></trkpt><trkpt lat="45.7733346" lon="11.7638594"><ele>128.0</ele><time>2026-04-04T06:27:58.128Z</time></trkpt><trkpt lat="45.7735973" lon="11.7637169"><ele>127.0</ele><time>2026-04-04T06:27:59.128Z</time></trkpt><trkpt lat="45.7738676" lon="11.7635682"><ele>127.0</ele><time>2026-04-04T06:28:00.129Z</time></trkpt><trkpt lat="45.7741394" lon="11.7634207"><ele>127.0</ele><time>2026-04-04T06:28:01.128Z</time></trkpt><trkpt lat="45.7744148" lon="11.7632758"><ele>127.0</ele><time>2026-04-04T06:28:02.128Z</time></trkpt><trkpt lat="45.7746834" lon="11.7631296"><ele>127.0</ele><time>2026-04-04T06:28:03.128Z</time></trkpt><trkpt lat="45.7749502" lon="11.7629822"><ele>127.0</ele><time>2026-04-04T06:28:04.128Z</time></trkpt><trkpt lat="45.7752123" lon="11.7628401"><ele>127.0</ele><time>2026-04-04T06:28:05.13Z</time></trkpt><trkpt lat="45.7754698" lon="11.7627046"><ele>127.5</ele><time>2026-04-04T06:28:06.129Z</time></trkpt><trkpt lat="45.7757234" lon="11.7625693"><ele>128.0</ele><time>2026-04-04T06:28:07.128Z</time></trkpt><trkpt lat="45.7759707" lon="11.7624345"><ele>129.0</ele><time>2026-04-04T06:28:08.128Z</time></trkpt><trkpt lat="45.7762114" lon="11.7623052"><ele>130.0</ele><time>2026-04-04T06:28:09.128Z</time></trkpt><trkpt lat="45.776438" lon="11.7621777"><ele>130.0</ele><time>2026-04-04T06:28:10.128Z</time></trkpt><trkpt lat="45.7766635" lon="11.7620573"><ele>130.0</ele><time>2026-04-04T06:28:11.13Z</time></trkpt><trkpt lat="45.7768916" lon="11.7619378"><ele>131.0</ele><time>2026-04-04T06:28:12.129Z</time></trkpt><trkpt lat="45.7771225" lon="11.7618138"><ele>132.0</ele><time>2026-04-04T06:28:13.13Z</time></trkpt><trkpt lat="45.7773714" lon="11.7616757"><ele>132.0</ele><time>2026-04-04T06:28:14.127Z</time></trkpt><trkpt lat="45.7776313" lon="11.7615282"><ele>132.0</ele><time>2026-04-04T06:28:15.128Z</time></trkpt><trkpt lat="45.7779039" lon="11.761392"><ele>132.0</ele><time>2026-04-04T06:28:16.129Z</time></trkpt><trkpt lat="45.7781772" lon="11.761259"><ele>132.0</ele><time>2026-04-04T06:28:17.129Z</time></trkpt><trkpt lat="45.7784485" lon="11.7611231"><ele>132.0</ele><time>2026-04-04T06:28:18.129Z</time></trkpt><trkpt lat="45.7787174" lon="11.7609857"><ele>132.0</ele><time>2026-04-04T06:28:19.129Z</time></trkpt><trkpt lat="45.7789833" lon="11.7608502"><ele>132.0</ele><time>2026-04-04T06:28:20.128Z</time></trkpt><trkpt lat="45.7792406" lon="11.7607154"><ele>132.0</ele><time>2026-04-04T06:28:21.128Z</time></trkpt><trkpt lat="45.779498" lon="11.7605825"><ele>132.5</ele><time>2026-04-04T06:28:22.128Z</time></trkpt><trkpt lat="45.7797552" lon="11.76045"><ele>133.0</ele><time>2026-04-04T06:28:23.13Z</time></trkpt><trkpt lat="45.7800053" lon="11.7603187"><ele>134.5</ele><time>2026-04-04T06:28:24.129Z</time></trkpt><trkpt lat="45.780256" lon="11.76019"><ele>136.0</ele><time>2026-04-04T06:28:25.13Z</time></trkpt><trkpt lat="45.7805019" lon="11.7600612"><ele>136.0</ele><time>2026-04-04T06:28:26.128Z</time></trkpt><trkpt lat="45.7807401" lon="11.7599438"><ele>136.0</ele><time>2026-04-04T06:28:27.129Z</time></trkpt><trkpt lat="45.7809685" lon="11.759826"><ele>136.5</ele><time>2026-04-04T06:28:28.129Z</time></trkpt><trkpt lat="45.781189" lon="11.7597103"><ele>137.0</ele><time>2026-04-04T06:28:29.128Z</time></trkpt><trkpt lat="45.7814101" lon="11.7595967"><ele>137.0</ele><time>2026-04-04T06:28:30.128Z</time></trkpt><trkpt lat="45.7816213" lon="11.7594838"><ele>137.0</ele><time>2026-04-04T06:28:31.129Z</time></trkpt><trkpt lat="45.7818284" lon="11.7593665"><ele>137.0</ele><time>2026-04-04T06:28:32.128Z</time></trkpt><trkpt lat="45.7820299" lon="11.7592474"><ele>137.33333333333331</ele><time>2026-04-04T06:28:33.129Z</time></trkpt><trkpt lat="45.7822324" lon="11.7591161"><ele>137.66666666666666</ele><time>2026-04-04T06:28:34.128Z</time></trkpt><trkpt lat="45.7824212" lon="11.7589749"><ele>138.0</ele><time>2026-04-04T06:28:35.128Z</time></trkpt><trkpt lat="45.782609" lon="11.7588329"><ele>138.33333333333334</ele><time>2026-04-04T06:28:36.129Z</time></trkpt><trkpt lat="45.782797" lon="11.7586819"><ele>138.66666666666669</ele><time>2026-04-04T06:28:37.128Z</time></trkpt><trkpt lat="45.7829766" lon="11.7585295"><ele>139.0</ele><time>2026-04-04T06:28:38.128Z</time></trkpt><trkpt lat="45.7831523" lon="11.7583656"><ele>139.33333333333334</ele><time>2026-04-04T06:28:39.13Z</time></trkpt><trkpt lat="45.7833262" lon="11.7581973"><ele>139.66666666666666</ele><time>2026-04-04T06:28:40.129Z</time></trkpt><trkpt lat="45.7834894" lon="11.7580245"><ele>140.0</ele><time>2026-04-04T06:28:41.129Z</time></trkpt><trkpt lat="45.7836301" lon="11.7578656"><ele>140.5</ele><time>2026-04-04T06:28:42.128Z</time></trkpt><trkpt lat="45.7837578" lon="11.7577362"><ele>141.0</ele><time>2026-04-04T06:28:43.129Z</time></trkpt><trkpt lat="45.7838803" lon="11.7576542"><ele>141.5</ele><time>2026-04-04T06:28:44.129Z</time></trkpt><trkpt lat="45.7840069" lon="11.7576225"><ele>142.0</ele><time>2026-04-04T06:28:45.129Z</time></trkpt><trkpt lat="45.7841442" lon="11.7576437"><ele>142.0</ele><time>2026-04-04T06:28:46.129Z</time></trkpt><trkpt lat="45.7842847" lon="11.7577146"><ele>142.0</ele><time>2026-04-04T06:28:47.129Z</time></trkpt><trkpt lat="45.7844207" lon="11.7578375"><ele>142.0</ele><time>2026-04-04T06:28:48.128Z</time></trkpt><trkpt lat="45.7845614" lon="11.7579738"><ele>142.66666666666669</ele><time>2026-04-04T06:28:49.129Z</time></trkpt><trkpt lat="45.7847091" lon="11.7581075"><ele>143.33333333333334</ele><time>2026-04-04T06:28:50.128Z</time></trkpt><trkpt lat="45.7848438" lon="11.7582354"><ele>144.0</ele><time>2026-04-04T06:28:51.128Z</time></trkpt><trkpt lat="45.7849607" lon="11.7583571"><ele>144.0</ele><time>2026-04-04T06:28:52.129Z</time></trkpt><trkpt lat="45.785055" lon="11.7584729"><ele>144.0</ele><time>2026-04-04T06:28:53.13Z</time></trkpt><trkpt lat="45.78514" lon="11.7585843"><ele>144.0</ele><time>2026-04-04T06:28:54.129Z</time></trkpt><trkpt lat="45.7852391" lon="11.7586739"><ele>144.0</ele><time>2026-04-04T06:28:55.129Z</time></trkpt><trkpt lat="45.7853481" lon="11.7587501"><ele>145.0</ele><time>2026-04-04T06:28:56.128Z</time></trkpt><trkpt lat="45.7854537" lon="11.7588484"><ele>146.0</ele><time>2026-04-04T06:28:57.129Z</time></trkpt><trkpt lat="45.785549" lon="11.7589821"><ele>147.0</ele><time>2026-04-04T06:28:58.129Z</time></trkpt><trkpt lat="45.7856295" lon="11.7591502"><ele>148.0</ele><time>2026-04-04T06:28:59.128Z</time></trkpt><trkpt lat="45.7856895" lon="11.7593468"><ele>147.66666666666669</ele><time>2026-04-04T06:29:00.13Z</time></trkpt><trkpt lat="45.7857373" lon="11.759569"><ele>147.33333333333334</ele><time>2026-04-04T06:29:01.128Z</time></trkpt><trkpt lat="45.7857893" lon="11.7598082"><ele>147.0</ele><time>2026-04-04T06:29:02.128Z</time></trkpt><trkpt lat="45.7858395" lon="11.7600616"><ele>146.66666666666666</ele><time>2026-04-04T06:29:03.129Z</time></trkpt><trkpt lat="45.7858889" lon="11.760331"><ele>146.33333333333331</ele><time>2026-04-04T06:29:04.129Z</time></trkpt><trkpt lat="45.7859382" lon="11.760602"><ele>146.0</ele><time>2026-04-04T06:29:05.129Z</time></trkpt><trkpt lat="45.7859928" lon="11.7608658"><ele>147.0</ele><time>2026-04-04T06:29:06.129Z</time></trkpt><trkpt lat="45.786054" lon="11.7611314"><ele>148.0</ele><time>2026-04-04T06:29:07.129Z</time></trkpt><trkpt lat="45.7861225" lon="11.7613845"><ele>149.0</ele><time>2026-04-04T06:29:08.129Z</time></trkpt><trkpt lat="45.7861932" lon="11.7616294"><ele>149.33333333333331</ele><time>2026-04-04T06:29:09.128Z</time></trkpt><trkpt lat="45.7862703" lon="11.7618688"><ele>149.66666666666666</ele><time>2026-04-04T06:29:10.129Z</time></trkpt><trkpt lat="45.7863439" lon="11.7621042"><ele>150.0</ele><time>2026-04-04T06:29:11.129Z</time></trkpt><trkpt lat="45.7864088" lon="11.7623415"><ele>150.0</ele><time>2026-04-04T06:29:12.129Z</time></trkpt><trkpt lat="45.7864688" lon="11.7625938"><ele>150.0</ele><time>2026-04-04T06:29:13.128Z</time></trkpt><trkpt lat="45.7865239" lon="11.7628479"><ele>150.0</ele><time>2026-04-04T06:29:14.128Z</time></trkpt><trkpt lat="45.7865803" lon="11.7630995"><ele>149.0</ele><time>2026-04-04T06:29:15.128Z</time></trkpt><trkpt lat="45.7866347" lon="11.7633509"><ele>148.0</ele><time>2026-04-04T06:29:16.129Z</time></trkpt><trkpt lat="45.7866805" lon="11.7635817"><ele>147.0</ele><time>2026-04-04T06:29:17.129Z</time></trkpt><trkpt lat="45.786721" lon="11.763794"><ele>147.0</ele><time>2026-04-04T06:29:18.129Z</time></trkpt><trkpt lat="45.7867536" lon="11.7639838"><ele>147.0</ele><time>2026-04-04T06:29:19.129Z</time></trkpt><trkpt lat="45.7867854" lon="11.7641439"><ele>147.0</ele><time>2026-04-04T06:29:20.128Z</time></trkpt><trkpt lat="45.7868087" lon="11.7642837"><ele>147.0</ele><time>2026-04-04T06:29:21.13Z</time></trkpt><trkpt lat="45.786815" lon="11.7644166"><ele>147.0</ele><time>2026-04-04T06:29:22.128Z</time></trkpt><trkpt lat="45.786815" lon="11.7645444"><ele>147.16666666666666</ele><time>2026-04-04T06:29:23.129Z</time></trkpt><trkpt lat="45.7868375" lon="11.7646614"><ele>147.33333333333334</ele><time>2026-04-04T06:29:24.13Z</time></trkpt><trkpt lat="45.7868949" lon="11.7647441"><ele>147.5</ele><time>2026-04-04T06:29:25.129Z</time></trkpt><trkpt lat="45.7869709" lon="11.7647752"><ele>147.66666666666669</ele><time>2026-04-04T06:29:26.129Z</time></trkpt><trkpt lat="45.7870394" lon="11.7647623"><ele>147.83333333333334</ele><time>2026-04-04T06:29:27.129Z</time></trkpt><trkpt lat="45.7871211" lon="11.7647267"><ele>148.0</ele><time>2026-04-04T06:29:29.129Z</time></trkpt><trkpt lat="45.7872097" lon="11.7647001"><ele>148.8</ele><time>2026-04-04T06:29:31.129Z</time></trkpt><trkpt lat="45.7872786" lon="11.7646989"><ele>149.60000000000002</ele><time>2026-04-04T06:29:32.129Z</time></trkpt><trkpt lat="45.7873737" lon="11.7646954"><ele>150.39999999999998</ele><time>2026-04-04T06:29:33.129Z</time></trkpt><trkpt lat="45.7874829" lon="11.7646737"><ele>151.2</ele><time>2026-04-04T06:29:34.129Z</time></trkpt><trkpt lat="45.7876185" lon="11.7646356"><ele>152.0</ele><time>2026-04-04T06:29:35.129Z</time></trkpt><trkpt lat="45.7877671" lon="11.7645884"><ele>152.0</ele><time>2026-04-04T06:29:36.128Z</time></trkpt><trkpt lat="45.7879294" lon="11.7645353"><ele>152.0</ele><time>2026-04-04T06:29:37.13Z</time></trkpt><trkpt lat="45.7881011" lon="11.7644781"><ele>152.0</ele><time>2026-04-04T06:29:38.128Z</time></trkpt><trkpt lat="45.7882801" lon="11.7644098"><ele>152.0</ele><time>2026-04-04T06:29:39.129Z</time></trkpt><trkpt lat="45.7884664" lon="11.7643392"><ele>152.0</ele><time>2026-04-04T06:29:40.129Z</time></trkpt><trkpt lat="45.7886509" lon="11.7642481"><ele>152.0</ele><time>2026-04-04T06:29:41.128Z</time></trkpt><trkpt lat="45.7888318" lon="11.7641504"><ele>152.0</ele><time>2026-04-04T06:29:42.131Z</time></trkpt><trkpt lat="45.7889901" lon="11.7640549"><ele>152.0</ele><time>2026-04-04T06:29:43.131Z</time></trkpt><trkpt lat="45.7891116" lon="11.7639791"><ele>152.0</ele><time>2026-04-04T06:29:44.129Z</time></trkpt><trkpt lat="45.7892072" lon="11.763926"><ele>152.0</ele><time>2026-04-04T06:29:45.128Z</time></trkpt><trkpt lat="45.7892879" lon="11.763882"><ele>152.0</ele><time>2026-04-04T06:29:47.129Z</time></trkpt><trkpt lat="45.7893646" lon="11.763812"><ele>152.0</ele><time>2026-04-04T06:29:50.128Z</time></trkpt><trkpt lat="45.7894979" lon="11.7637421"><ele>152.0</ele><time>2026-04-04T06:29:52.128Z</time></trkpt><trkpt lat="45.7895839" lon="11.7636983"><ele>152.0</ele><time>2026-04-04T06:29:53.129Z</time></trkpt><trkpt lat="45.7896816" lon="11.7636405"><ele>152.0</ele><time>2026-04-04T06:29:54.129Z</time></trkpt><trkpt lat="45.7898093" lon="11.76357"><ele>152.0</ele><time>2026-04-04T06:29:55.128Z</time></trkpt><trkpt lat="45.7899399" lon="11.7634921"><ele>152.0</ele><time>2026-04-04T06:29:56.13Z</time></trkpt><trkpt lat="45.7900831" lon="11.7634069"><ele>152.0</ele><time>2026-04-04T06:29:57.129Z</time></trkpt><trkpt lat="45.7902314" lon="11.7633172"><ele>153.0</ele><time>2026-04-04T06:29:58.129Z</time></trkpt><trkpt lat="45.7903857" lon="11.7632233"><ele>154.0</ele><time>2026-04-04T06:29:59.13Z</time></trkpt><trkpt lat="45.7905469" lon="11.763124"><ele>155.0</ele><time>2026-04-04T06:30:00.129Z</time></trkpt><trkpt lat="45.7907135" lon="11.7630241"><ele>155.0</ele><time>2026-04-04T06:30:01.128Z</time></trkpt><trkpt lat="45.7908873" lon="11.7629166"><ele>155.0</ele><time>2026-04-04T06:30:02.13Z</time></trkpt><trkpt lat="45.7910625" lon="11.7628014"><ele>155.0</ele><time>2026-04-04T06:30:03.129Z</time></trkpt><trkpt lat="45.7912406" lon="11.7626768"><ele>155.33333333333331</ele><time>2026-04-04T06:30:04.128Z</time></trkpt><trkpt lat="45.7914087" lon="11.7625323"><ele>155.66666666666666</ele><time>2026-04-04T06:30:05.128Z</time></trkpt><trkpt lat="45.7915774" lon="11.7623748"><ele>156.0</ele><time>2026-04-04T06:30:06.128Z</time></trkpt><trkpt lat="45.7917419" lon="11.7622102"><ele>156.33333333333334</ele><time>2026-04-04T06:30:07.128Z</time></trkpt><trkpt lat="45.791905" lon="11.7620432"><ele>156.66666666666669</ele><time>2026-04-04T06:30:08.129Z</time></trkpt><trkpt lat="45.7920675" lon="11.761881"><ele>157.0</ele><time>2026-04-04T06:30:09.129Z</time></trkpt><trkpt lat="45.7922286" lon="11.7617113"><ele>157.33333333333334</ele><time>2026-04-04T06:30:10.128Z</time></trkpt><trkpt lat="45.7923832" lon="11.7615448"><ele>157.66666666666666</ele><time>2026-04-04T06:30:11.13Z</time></trkpt><trkpt lat="45.7925356" lon="11.7613793"><ele>158.0</ele><time>2026-04-04T06:30:12.128Z</time></trkpt><trkpt lat="45.7926899" lon="11.7612205"><ele>159.0</ele><time>2026-04-04T06:30:13.129Z</time></trkpt><trkpt lat="45.7928352" lon="11.7610654"><ele>160.0</ele><time>2026-04-04T06:30:14.128Z</time></trkpt><trkpt lat="45.7929751" lon="11.7609217"><ele>161.0</ele><time>2026-04-04T06:30:15.129Z</time></trkpt><trkpt lat="45.7931082" lon="11.7607841"><ele>161.0</ele><time>2026-04-04T06:30:16.129Z</time></trkpt><trkpt lat="45.7932428" lon="11.7606521"><ele>161.0</ele><time>2026-04-04T06:30:17.129Z</time></trkpt><trkpt lat="45.7933808" lon="11.7605274"><ele>161.0</ele><time>2026-04-04T06:30:18.129Z</time></trkpt><trkpt lat="45.793521" lon="11.7604128"><ele>161.0</ele><time>2026-04-04T06:30:19.13Z</time></trkpt><trkpt lat="45.7936716" lon="11.7603125"><ele>161.0</ele><time>2026-04-04T06:30:20.129Z</time></trkpt><trkpt lat="45.7938304" lon="11.7602304"><ele>161.0</ele><time>2026-04-04T06:30:21.13Z</time></trkpt><trkpt lat="45.7939933" lon="11.760169"><ele>161.66666666666666</ele><time>2026-04-04T06:30:22.13Z</time></trkpt><trkpt lat="45.7941632" lon="11.7601125"><ele>162.33333333333334</ele><time>2026-04-04T06:30:23.129Z</time></trkpt><trkpt lat="45.7943356" lon="11.7600575"><ele>163.0</ele><time>2026-04-04T06:30:24.129Z</time></trkpt><trkpt lat="45.7945083" lon="11.7600078"><ele>164.33333333333334</ele><time>2026-04-04T06:30:25.128Z</time></trkpt><trkpt lat="45.7946829" lon="11.7599554"><ele>165.66666666666666</ele><time>2026-04-04T06:30:26.129Z</time></trkpt><trkpt lat="45.7948516" lon="11.7599039"><ele>167.0</ele><time>2026-04-04T06:30:27.13Z</time></trkpt><trkpt lat="45.7950139" lon="11.7598556"><ele>167.0</ele><time>2026-04-04T06:30:28.129Z</time></trkpt><trkpt lat="45.7951688" lon="11.7598054"><ele>167.0</ele><time>2026-04-04T06:30:29.128Z</time></trkpt><trkpt lat="45.7953171" lon="11.7597451"><ele>167.0</ele><time>2026-04-04T06:30:30.129Z</time></trkpt><trkpt lat="45.795461" lon="11.7596528"><ele>168.75</ele><time>2026-04-04T06:30:31.128Z</time></trkpt><trkpt lat="45.795582" lon="11.7595267"><ele>170.5</ele><time>2026-04-04T06:30:32.13Z</time></trkpt><trkpt lat="45.7956833" lon="11.7593843"><ele>172.25</ele><time>2026-04-04T06:30:33.128Z</time></trkpt><trkpt lat="45.7957738" lon="11.7592333"><ele>174.0</ele><time>2026-04-04T06:30:34.13Z</time></trkpt><trkpt lat="45.7958516" lon="11.7590861"><ele>174.0</ele><time>2026-04-04T06:30:35.129Z</time></trkpt><trkpt lat="45.7959191" lon="11.7589424"><ele>174.0</ele><time>2026-04-04T06:30:36.13Z</time></trkpt><trkpt lat="45.795976" lon="11.7588254"><ele>174.0</ele><time>2026-04-04T06:30:37.129Z</time></trkpt><trkpt lat="45.7960181" lon="11.7587444"><ele>174.0</ele><time>2026-04-04T06:30:38.129Z</time></trkpt><trkpt lat="45.7960768" lon="11.7586574"><ele>174.0</ele><time>2026-04-04T06:30:40.129Z</time></trkpt><trkpt lat="45.7961546" lon="11.7586314"><ele>173.39999999999998</ele><time>2026-04-04T06:30:42.13Z</time></trkpt><trkpt lat="45.7962854" lon="11.7586523"><ele>172.8</ele><time>2026-04-04T06:30:44.129Z</time></trkpt><trkpt lat="45.7963613" lon="11.7587105"><ele>172.2</ele><time>2026-04-04T06:30:45.129Z</time></trkpt><trkpt lat="45.7964341" lon="11.7587962"><ele>171.60000000000002</ele><time>2026-04-04T06:30:46.13Z</time></trkpt><trkpt lat="45.7965092" lon="11.7589026"><ele>171.0</ele><time>2026-04-04T06:30:47.129Z</time></trkpt><trkpt lat="45.7965856" lon="11.7590129"><ele>171.0</ele><time>2026-04-04T06:30:48.13Z</time></trkpt><trkpt lat="45.7966533" lon="11.759109"><ele>171.0</ele><time>2026-04-04T06:30:49.128Z</time></trkpt><trkpt lat="45.7967257" lon="11.7592054"><ele>171.0</ele><time>2026-04-04T06:30:50.13Z</time></trkpt><trkpt lat="45.7967948" lon="11.7593075"><ele>171.0</ele><time>2026-04-04T06:30:51.128Z</time></trkpt><trkpt lat="45.7968686" lon="11.7594164"><ele>171.0</ele><time>2026-04-04T06:30:52.129Z</time></trkpt><trkpt lat="45.7969409" lon="11.7595139"><ele>171.20000000000002</ele><time>2026-04-04T06:30:53.128Z</time></trkpt><trkpt lat="45.7970071" lon="11.7596096"><ele>171.4</ele><time>2026-04-04T06:30:54.129Z</time></trkpt><trkpt lat="45.7970749" lon="11.7597166"><ele>171.6</ele><time>2026-04-04T06:30:55.129Z</time></trkpt><trkpt lat="45.7971498" lon="11.7598285"><ele>171.8</ele><time>2026-04-04T06:30:56.128Z</time></trkpt><trkpt lat="45.7972251" lon="11.759938"><ele>172.0</ele><time>2026-04-04T06:30:57.129Z</time></trkpt><trkpt lat="45.7972978" lon="11.7600461"><ele>172.0</ele><time>2026-04-04T06:30:58.13Z</time></trkpt><trkpt lat="45.7973744" lon="11.7601588"><ele>172.0</ele><time>2026-04-04T06:30:59.13Z</time></trkpt><trkpt lat="45.79745" lon="11.7602668"><ele>172.0</ele><time>2026-04-04T06:31:00.129Z</time></trkpt><trkpt lat="45.7975178" lon="11.7603668"><ele>172.0</ele><time>2026-04-04T06:31:01.13Z</time></trkpt><trkpt lat="45.7975875" lon="11.7604703"><ele>172.0</ele><time>2026-04-04T06:31:02.129Z</time></trkpt><trkpt lat="45.7976615" lon="11.7605789"><ele>173.0</ele><time>2026-04-04T06:31:03.129Z</time></trkpt><trkpt lat="45.7977374" lon="11.7606997"><ele>174.0</ele><time>2026-04-04T06:31:04.13Z</time></trkpt><trkpt lat="45.7978227" lon="11.7608275"><ele>175.0</ele><time>2026-04-04T06:31:05.129Z</time></trkpt><trkpt lat="45.7979126" lon="11.7609607"><ele>176.0</ele><time>2026-04-04T06:31:06.131Z</time></trkpt><trkpt lat="45.7980253" lon="11.7611067"><ele>177.33333333333331</ele><time>2026-04-04T06:31:07.129Z</time></trkpt><trkpt lat="45.7981506" lon="11.7612838"><ele>178.66666666666666</ele><time>2026-04-04T06:31:08.128Z</time></trkpt><trkpt lat="45.7982751" lon="11.7615016"><ele>180.0</ele><time>2026-04-04T06:31:09.129Z</time></trkpt><trkpt lat="45.7984159" lon="11.7617254"><ele>181.33333333333334</ele><time>2026-04-04T06:31:10.13Z</time></trkpt><trkpt lat="45.7985561" lon="11.7619411"><ele>182.66666666666669</ele><time>2026-04-04T06:31:11.129Z</time></trkpt><trkpt lat="45.7986957" lon="11.7621504"><ele>184.0</ele><time>2026-04-04T06:31:12.13Z</time></trkpt><trkpt lat="45.798828" lon="11.7623511"><ele>184.0</ele><time>2026-04-04T06:31:13.128Z</time></trkpt><trkpt lat="45.7989544" lon="11.7625236"><ele>184.0</ele><time>2026-04-04T06:31:14.128Z</time></trkpt><trkpt lat="45.7990708" lon="11.762684"><ele>184.0</ele><time>2026-04-04T06:31:15.13Z</time></trkpt><trkpt lat="45.7991939" lon="11.7628137"><ele>186.0</ele><time>2026-04-04T06:31:16.129Z</time></trkpt><trkpt lat="45.7993349" lon="11.7629204"><ele>188.0</ele><time>2026-04-04T06:31:17.129Z</time></trkpt><trkpt lat="45.7994877" lon="11.7630097"><ele>190.0</ele><time>2026-04-04T06:31:18.129Z</time></trkpt><trkpt lat="45.7996462" lon="11.7630868"><ele>190.0</ele><time>2026-04-04T06:31:19.129Z</time></trkpt><trkpt lat="45.7998147" lon="11.7631707"><ele>190.0</ele><time>2026-04-04T06:31:20.129Z</time></trkpt><trkpt lat="45.7999808" lon="11.7632588"><ele>190.0</ele><time>2026-04-04T06:31:21.129Z</time></trkpt><trkpt lat="45.8001464" lon="11.7633419"><ele>189.33333333333334</ele><time>2026-04-04T06:31:22.13Z</time></trkpt><trkpt lat="45.8003188" lon="11.7634238"><ele>188.66666666666666</ele><time>2026-04-04T06:31:23.13Z</time></trkpt><trkpt lat="45.8004919" lon="11.763503"><ele>188.0</ele><time>2026-04-04T06:31:24.13Z</time></trkpt><trkpt lat="45.8006659" lon="11.763584"><ele>190.0</ele><time>2026-04-04T06:31:25.13Z</time></trkpt><trkpt lat="45.8008403" lon="11.7636631"><ele>192.0</ele><time>2026-04-04T06:31:26.13Z</time></trkpt><trkpt lat="45.8010139" lon="11.763745"><ele>194.0</ele><time>2026-04-04T06:31:27.129Z</time></trkpt><trkpt lat="45.8011831" lon="11.763827"><ele>195.0</ele><time>2026-04-04T06:31:28.131Z</time></trkpt><trkpt lat="45.8013458" lon="11.7639087"><ele>196.0</ele><time>2026-04-04T06:31:29.13Z</time></trkpt><trkpt lat="45.8015036" lon="11.7639868"><ele>197.0</ele><time>2026-04-04T06:31:30.131Z</time></trkpt><trkpt lat="45.8016532" lon="11.7640659"><ele>197.0</ele><time>2026-04-04T06:31:31.129Z</time></trkpt><trkpt lat="45.8017947" lon="11.7641767"><ele>197.0</ele><time>2026-04-04T06:31:32.129Z</time></trkpt><trkpt lat="45.80192" lon="11.7643222"><ele>197.0</ele><time>2026-04-04T06:31:33.13Z</time></trkpt><trkpt lat="45.8020393" lon="11.7644966"><ele>198.33333333333334</ele><time>2026-04-04T06:31:34.13Z</time></trkpt><trkpt lat="45.8021547" lon="11.7646799"><ele>199.66666666666669</ele><time>2026-04-04T06:31:35.131Z</time></trkpt><trkpt lat="45.8022733" lon="11.7648701"><ele>201.0</ele><time>2026-04-04T06:31:36.129Z</time></trkpt><trkpt lat="45.8023944" lon="11.765059"><ele>201.66666666666669</ele><time>2026-04-04T06:31:37.128Z</time></trkpt><trkpt lat="45.8025102" lon="11.7652431"><ele>202.33333333333334</ele><time>2026-04-04T06:31:38.128Z</time></trkpt><trkpt lat="45.8026199" lon="11.7654217"><ele>203.0</ele><time>2026-04-04T06:31:39.129Z</time></trkpt><trkpt lat="45.8027175" lon="11.7656049"><ele>199.66666666666669</ele><time>2026-04-04T06:31:40.129Z</time></trkpt><trkpt lat="45.8028038" lon="11.765812"><ele>196.33333333333331</ele><time>2026-04-04T06:31:41.131Z</time></trkpt><trkpt lat="45.8028705" lon="11.7660411"><ele>193.0</ele><time>2026-04-04T06:31:42.128Z</time></trkpt><trkpt lat="45.8029253" lon="11.7662825"><ele>192.33333333333331</ele><time>2026-04-04T06:31:43.13Z</time></trkpt><trkpt lat="45.8029568" lon="11.7665333"><ele>191.66666666666666</ele><time>2026-04-04T06:31:44.13Z</time></trkpt><trkpt lat="45.802983" lon="11.766776"><ele>191.0</ele><time>2026-04-04T06:31:45.13Z</time></trkpt><trkpt lat="45.8030184" lon="11.7670139"><ele>190.66666666666666</ele><time>2026-04-04T06:31:46.129Z</time></trkpt><trkpt lat="45.8030751" lon="11.7672532"><ele>190.33333333333334</ele><time>2026-04-04T06:31:47.129Z</time></trkpt><trkpt lat="45.8031541" lon="11.7674721"><ele>190.0</ele><time>2026-04-04T06:31:48.129Z</time></trkpt><trkpt lat="45.8032477" lon="11.7676901"><ele>189.0</ele><time>2026-04-04T06:31:49.129Z</time></trkpt><trkpt lat="45.8033503" lon="11.7679046"><ele>188.0</ele><time>2026-04-04T06:31:50.131Z</time></trkpt><trkpt lat="45.8034498" lon="11.7681168"><ele>187.0</ele><time>2026-04-04T06:31:51.131Z</time></trkpt><trkpt lat="45.8035455" lon="11.7683317"><ele>186.66666666666669</ele><time>2026-04-04T06:31:52.129Z</time></trkpt><trkpt lat="45.8036388" lon="11.7685429"><ele>186.33333333333334</ele><time>2026-04-04T06:31:53.13Z</time></trkpt><trkpt lat="45.8037355" lon="11.7687585"><ele>186.0</ele><time>2026-04-04T06:31:54.13Z</time></trkpt><trkpt lat="45.8038258" lon="11.7689688"><ele>186.0</ele><time>2026-04-04T06:31:55.129Z</time></trkpt><trkpt lat="45.8039151" lon="11.7691783"><ele>186.0</ele><time>2026-04-04T06:31:56.13Z</time></trkpt><trkpt lat="45.8040009" lon="11.769381"><ele>186.0</ele><time>2026-04-04T06:31:57.131Z</time></trkpt><trkpt lat="45.8040815" lon="11.7695726"><ele>185.33333333333334</ele><time>2026-04-04T06:31:58.129Z</time></trkpt><trkpt lat="45.8041546" lon="11.7697639"><ele>184.66666666666669</ele><time>2026-04-04T06:31:59.13Z</time></trkpt><trkpt lat="45.8042297" lon="11.7699558"><ele>184.0</ele><time>2026-04-04T06:32:00.13Z</time></trkpt><trkpt lat="45.8043022" lon="11.7701413"><ele>183.75</ele><time>2026-04-04T06:32:01.129Z</time></trkpt><trkpt lat="45.8043685" lon="11.7703258"><ele>183.5</ele><time>2026-04-04T06:32:02.13Z</time></trkpt><trkpt lat="45.8044321" lon="11.7705089"><ele>183.25</ele><time>2026-04-04T06:32:03.129Z</time></trkpt><trkpt lat="45.8045047" lon="11.770694"><ele>183.0</ele><time>2026-04-04T06:32:04.131Z</time></trkpt><trkpt lat="45.8045753" lon="11.7708849"><ele>182.5</ele><time>2026-04-04T06:32:05.129Z</time></trkpt><trkpt lat="45.8046413" lon="11.7710679"><ele>182.0</ele><time>2026-04-04T06:32:06.13Z</time></trkpt><trkpt lat="45.804707" lon="11.7712468"><ele>181.5</ele><time>2026-04-04T06:32:07.13Z</time></trkpt><trkpt lat="45.8047676" lon="11.7714152"><ele>181.0</ele><time>2026-04-04T06:32:08.13Z</time></trkpt><trkpt lat="45.8048306" lon="11.7715795"><ele>181.0</ele><time>2026-04-04T06:32:09.128Z</time></trkpt><trkpt lat="45.8048936" lon="11.771747"><ele>181.0</ele><time>2026-04-04T06:32:10.131Z</time></trkpt><trkpt lat="45.8049531" lon="11.7719118"><ele>181.0</ele><time>2026-04-04T06:32:11.13Z</time></trkpt><trkpt lat="45.8050126" lon="11.7720822"><ele>181.0</ele><time>2026-04-04T06:32:12.13Z</time></trkpt><trkpt lat="45.8050735" lon="11.7722499"><ele>180.25</ele><time>2026-04-04T06:32:13.129Z</time></trkpt><trkpt lat="45.8051312" lon="11.7724114"><ele>179.5</ele><time>2026-04-04T06:32:14.13Z</time></trkpt><trkpt lat="45.8051853" lon="11.7725672"><ele>178.75</ele><time>2026-04-04T06:32:15.129Z</time></trkpt><trkpt lat="45.8052329" lon="11.7727199"><ele>178.0</ele><time>2026-04-04T06:32:16.13Z</time></trkpt><trkpt lat="45.8052844" lon="11.7728686"><ele>177.5</ele><time>2026-04-04T06:32:17.13Z</time></trkpt><trkpt lat="45.8053368" lon="11.7730166"><ele>177.0</ele><time>2026-04-04T06:32:18.129Z</time></trkpt><trkpt lat="45.8053939" lon="11.7731662"><ele>176.5</ele><time>2026-04-04T06:32:19.13Z</time></trkpt><trkpt lat="45.8054449" lon="11.7733168"><ele>176.0</ele><time>2026-04-04T06:32:20.128Z</time></trkpt><trkpt lat="45.8054942" lon="11.7734527"><ele>176.0</ele><time>2026-04-04T06:32:21.13Z</time></trkpt><trkpt lat="45.805543" lon="11.773587"><ele>176.0</ele><time>2026-04-04T06:32:22.129Z</time></trkpt><trkpt lat="45.8055876" lon="11.7737092"><ele>176.0</ele><time>2026-04-04T06:32:23.131Z</time></trkpt><trkpt lat="45.8056283" lon="11.7738216"><ele>176.0</ele><time>2026-04-04T06:32:24.13Z</time></trkpt><trkpt lat="45.8056661" lon="11.7739202"><ele>176.0</ele><time>2026-04-04T06:32:25.13Z</time></trkpt><trkpt lat="45.8057014" lon="11.7740184"><ele>176.0</ele><time>2026-04-04T06:32:26.129Z</time></trkpt><trkpt lat="45.8057387" lon="11.7741142"><ele>176.0</ele><time>2026-04-04T06:32:27.129Z</time></trkpt><trkpt lat="45.8057737" lon="11.7742223"><ele>176.0</ele><time>2026-04-04T06:32:28.13Z</time></trkpt><trkpt lat="45.805813" lon="11.7743349"><ele>176.0</ele><time>2026-04-04T06:32:29.129Z</time></trkpt><trkpt lat="45.8058519" lon="11.7744553"><ele>176.0</ele><time>2026-04-04T06:32:30.13Z</time></trkpt><trkpt lat="45.8058813" lon="11.7745526"><ele>176.0</ele><time>2026-04-04T06:32:31.129Z</time></trkpt><trkpt lat="45.8059229" lon="11.7746725"><ele>176.0</ele><time>2026-04-04T06:32:33.129Z</time></trkpt><trkpt lat="45.8059634" lon="11.7747908"><ele>176.0</ele><time>2026-04-04T06:32:36.13Z</time></trkpt><trkpt lat="45.8060083" lon="11.7749192"><ele>176.0</ele><time>2026-04-04T06:32:38.129Z</time></trkpt><trkpt lat="45.8060408" lon="11.7750173"><ele>176.0</ele><time>2026-04-04T06:32:39.129Z</time></trkpt><trkpt lat="45.8060788" lon="11.7751305"><ele>176.0</ele><time>2026-04-04T06:32:40.13Z</time></trkpt><trkpt lat="45.8061259" lon="11.7752655"><ele>176.0</ele><time>2026-04-04T06:32:41.13Z</time></trkpt><trkpt lat="45.8061776" lon="11.7754258"><ele>175.75</ele><time>2026-04-04T06:32:42.13Z</time></trkpt><trkpt lat="45.8062333" lon="11.7755954"><ele>175.5</ele><time>2026-04-04T06:32:43.131Z</time></trkpt><trkpt lat="45.8062927" lon="11.7757768"><ele>175.25</ele><time>2026-04-04T06:32:44.129Z</time></trkpt><trkpt lat="45.8063527" lon="11.775964"><ele>175.0</ele><time>2026-04-04T06:32:45.13Z</time></trkpt><trkpt lat="45.8064163" lon="11.7761595"><ele>174.66666666666669</ele><time>2026-04-04T06:32:46.129Z</time></trkpt><trkpt lat="45.8064845" lon="11.7763639"><ele>174.33333333333334</ele><time>2026-04-04T06:32:47.13Z</time></trkpt><trkpt lat="45.806556" lon="11.7765754"><ele>174.0</ele><time>2026-04-04T06:32:48.13Z</time></trkpt><trkpt lat="45.8066268" lon="11.7767926"><ele>173.66666666666666</ele><time>2026-04-04T06:32:49.129Z</time></trkpt><trkpt lat="45.8067017" lon="11.7770097"><ele>173.33333333333331</ele><time>2026-04-04T06:32:50.131Z</time></trkpt><trkpt lat="45.8067703" lon="11.7772318"><ele>173.0</ele><time>2026-04-04T06:32:51.13Z</time></trkpt><trkpt lat="45.806837" lon="11.77745"><ele>173.0</ele><time>2026-04-04T06:32:52.13Z</time></trkpt><trkpt lat="45.8069019" lon="11.7776531"><ele>173.0</ele><time>2026-04-04T06:32:53.129Z</time></trkpt><trkpt lat="45.8069651" lon="11.7778472"><ele>173.0</ele><time>2026-04-04T06:32:54.13Z</time></trkpt><trkpt lat="45.807031" lon="11.7780423"><ele>173.0</ele><time>2026-04-04T06:32:55.13Z</time></trkpt><trkpt lat="45.8070948" lon="11.7782401"><ele>173.0</ele><time>2026-04-04T06:32:56.131Z</time></trkpt><trkpt lat="45.8071592" lon="11.7784424"><ele>173.0</ele><time>2026-04-04T06:32:57.13Z</time></trkpt><trkpt lat="45.8072264" lon="11.7786472"><ele>172.33333333333331</ele><time>2026-04-04T06:32:58.13Z</time></trkpt><trkpt lat="45.807292" lon="11.7788542"><ele>171.66666666666666</ele><time>2026-04-04T06:32:59.13Z</time></trkpt><trkpt lat="45.8073558" lon="11.7790555"><ele>171.0</ele><time>2026-04-04T06:33:00.13Z</time></trkpt><trkpt lat="45.8074209" lon="11.7792437"><ele>171.0</ele><time>2026-04-04T06:33:01.129Z</time></trkpt><trkpt lat="45.8074811" lon="11.7794304"><ele>171.0</ele><time>2026-04-04T06:33:02.129Z</time></trkpt><trkpt lat="45.8075421" lon="11.7796198"><ele>171.0</ele><time>2026-04-04T06:33:03.129Z</time></trkpt><trkpt lat="45.807607" lon="11.7798074"><ele>171.0</ele><time>2026-04-04T06:33:04.131Z</time></trkpt><trkpt lat="45.8076684" lon="11.7799953"><ele>172.5</ele><time>2026-04-04T06:33:05.131Z</time></trkpt><trkpt lat="45.8077274" lon="11.7801875"><ele>174.0</ele><time>2026-04-04T06:33:06.129Z</time></trkpt><trkpt lat="45.8077866" lon="11.7803775"><ele>175.5</ele><time>2026-04-04T06:33:07.13Z</time></trkpt><trkpt lat="45.8078421" lon="11.7805665"><ele>177.0</ele><time>2026-04-04T06:33:08.13Z</time></trkpt><trkpt lat="45.8079019" lon="11.7807558"><ele>177.0</ele><time>2026-04-04T06:33:09.13Z</time></trkpt><trkpt lat="45.8079628" lon="11.7809486"><ele>177.0</ele><time>2026-04-04T06:33:10.129Z</time></trkpt><trkpt lat="45.808024" lon="11.7811388"><ele>177.0</ele><time>2026-04-04T06:33:11.13Z</time></trkpt><trkpt lat="45.8080875" lon="11.7813328"><ele>177.0</ele><time>2026-04-04T06:33:12.129Z</time></trkpt><trkpt lat="45.8081515" lon="11.7815308"><ele>177.0</ele><time>2026-04-04T06:33:13.131Z</time></trkpt><trkpt lat="45.8082171" lon="11.7817232"><ele>177.0</ele><time>2026-04-04T06:33:14.13Z</time></trkpt><trkpt lat="45.8082804" lon="11.7819148"><ele>177.0</ele><time>2026-04-04T06:33:15.13Z</time></trkpt><trkpt lat="45.8083408" lon="11.782109"><ele>177.0</ele><time>2026-04-04T06:33:16.13Z</time></trkpt><trkpt lat="45.8084021" lon="11.7823011"><ele>176.75</ele><time>2026-04-04T06:33:17.129Z</time></trkpt><trkpt lat="45.8084682" lon="11.7824855"><ele>176.5</ele><time>2026-04-04T06:33:18.129Z</time></trkpt><trkpt lat="45.8085269" lon="11.7826711"><ele>176.25</ele><time>2026-04-04T06:33:19.131Z</time></trkpt><trkpt lat="45.8085866" lon="11.7828554"><ele>176.0</ele><time>2026-04-04T06:33:20.13Z</time></trkpt><trkpt lat="45.8086461" lon="11.7830391"><ele>177.0</ele><time>2026-04-04T06:33:21.13Z</time></trkpt><trkpt lat="45.8087046" lon="11.7832296"><ele>178.0</ele><time>2026-04-04T06:33:22.13Z</time></trkpt><trkpt lat="45.8087609" lon="11.7834135"><ele>179.0</ele><time>2026-04-04T06:33:23.129Z</time></trkpt><trkpt lat="45.8088166" lon="11.7836003"><ele>180.0</ele><time>2026-04-04T06:33:24.13Z</time></trkpt><trkpt lat="45.8088763" lon="11.7837928"><ele>180.0</ele><time>2026-04-04T06:33:25.13Z</time></trkpt><trkpt lat="45.8089355" lon="11.7839825"><ele>180.0</ele><time>2026-04-04T06:33:26.129Z</time></trkpt><trkpt lat="45.8089953" lon="11.7841738"><ele>180.0</ele><time>2026-04-04T06:33:27.129Z</time></trkpt><trkpt lat="45.809057" lon="11.7843737"><ele>180.0</ele><time>2026-04-04T06:33:28.13Z</time></trkpt><trkpt lat="45.8091181" lon="11.7845627"><ele>179.5</ele><time>2026-04-04T06:33:29.13Z</time></trkpt><trkpt lat="45.8091772" lon="11.7847473"><ele>179.0</ele><time>2026-04-04T06:33:30.131Z</time></trkpt><trkpt lat="45.8092324" lon="11.7849238"><ele>178.5</ele><time>2026-04-04T06:33:31.13Z</time></trkpt><trkpt lat="45.8092832" lon="11.7850989"><ele>178.0</ele><time>2026-04-04T06:33:32.129Z</time></trkpt><trkpt lat="45.8093422" lon="11.7852648"><ele>179.5</ele><time>2026-04-04T06:33:33.129Z</time></trkpt><trkpt lat="45.8094006" lon="11.7854268"><ele>181.0</ele><time>2026-04-04T06:33:34.13Z</time></trkpt><trkpt lat="45.8094514" lon="11.7855954"><ele>182.5</ele><time>2026-04-04T06:33:35.131Z</time></trkpt><trkpt lat="45.8095102" lon="11.7857698"><ele>184.0</ele><time>2026-04-04T06:33:36.13Z</time></trkpt><trkpt lat="45.8095655" lon="11.7859528"><ele>183.25</ele><time>2026-04-04T06:33:37.13Z</time></trkpt><trkpt lat="45.8096222" lon="11.7861387"><ele>182.5</ele><time>2026-04-04T06:33:38.129Z</time></trkpt><trkpt lat="45.8096836" lon="11.7863221"><ele>181.75</ele><time>2026-04-04T06:33:39.129Z</time></trkpt><trkpt lat="45.809743" lon="11.786505"><ele>181.0</ele><time>2026-04-04T06:33:40.129Z</time></trkpt><trkpt lat="45.8098075" lon="11.7866935"><ele>181.25</ele><time>2026-04-04T06:33:41.131Z</time></trkpt><trkpt lat="45.809879" lon="11.7868771"><ele>181.5</ele><time>2026-04-04T06:33:42.13Z</time></trkpt><trkpt lat="45.8099639" lon="11.7870518"><ele>181.75</ele><time>2026-04-04T06:33:43.13Z</time></trkpt><trkpt lat="45.8100594" lon="11.7872196"><ele>182.0</ele><time>2026-04-04T06:33:44.13Z</time></trkpt><trkpt lat="45.8101657" lon="11.7873747"><ele>182.0</ele><time>2026-04-04T06:33:45.129Z</time></trkpt><trkpt lat="45.8102773" lon="11.7875237"><ele>182.0</ele><time>2026-04-04T06:33:46.129Z</time></trkpt><trkpt lat="45.8103901" lon="11.7876598"><ele>182.0</ele><time>2026-04-04T06:33:47.129Z</time></trkpt><trkpt lat="45.8105058" lon="11.7877912"><ele>182.0</ele><time>2026-04-04T06:33:48.131Z</time></trkpt><trkpt lat="45.8106174" lon="11.7879254"><ele>181.75</ele><time>2026-04-04T06:33:49.129Z</time></trkpt><trkpt lat="45.8107304" lon="11.7880593"><ele>181.5</ele><time>2026-04-04T06:33:50.129Z</time></trkpt><trkpt lat="45.8108478" lon="11.7881929"><ele>181.25</ele><time>2026-04-04T06:33:51.131Z</time></trkpt><trkpt lat="45.8109612" lon="11.7883243"><ele>181.0</ele><time>2026-04-04T06:33:52.129Z</time></trkpt><trkpt lat="45.8110781" lon="11.7884631"><ele>181.75</ele><time>2026-04-04T06:33:53.13Z</time></trkpt><trkpt lat="45.811195" lon="11.788602"><ele>182.5</ele><time>2026-04-04T06:33:54.13Z</time></trkpt><trkpt lat="45.8113063" lon="11.788737"><ele>183.25</ele><time>2026-04-04T06:33:55.13Z</time></trkpt><trkpt lat="45.8114192" lon="11.7888702"><ele>184.0</ele><time>2026-04-04T06:33:56.131Z</time></trkpt><trkpt lat="45.8115287" lon="11.7889968"><ele>184.0</ele><time>2026-04-04T06:33:57.129Z</time></trkpt><trkpt lat="45.8116364" lon="11.7891234"><ele>184.0</ele><time>2026-04-04T06:33:58.131Z</time></trkpt><trkpt lat="45.8117462" lon="11.7892537"><ele>184.0</ele><time>2026-04-04T06:33:59.129Z</time></trkpt><trkpt lat="45.8118552" lon="11.7893828"><ele>184.0</ele><time>2026-04-04T06:34:00.13Z</time></trkpt><trkpt lat="45.8119672" lon="11.7895175"><ele>185.66666666666669</ele><time>2026-04-04T06:34:01.13Z</time></trkpt><trkpt lat="45.8120828" lon="11.789656"><ele>187.33333333333334</ele><time>2026-04-04T06:34:02.129Z</time></trkpt><trkpt lat="45.8121974" lon="11.7897877"><ele>189.0</ele><time>2026-04-04T06:34:03.131Z</time></trkpt><trkpt lat="45.8123145" lon="11.7899278"><ele>189.0</ele><time>2026-04-04T06:34:04.129Z</time></trkpt><trkpt lat="45.8124339" lon="11.790069"><ele>189.0</ele><time>2026-04-04T06:34:05.13Z</time></trkpt><trkpt lat="45.8125529" lon="11.790211"><ele>189.0</ele><time>2026-04-04T06:34:06.129Z</time></trkpt><trkpt lat="45.8126693" lon="11.7903517"><ele>189.25</ele><time>2026-04-04T06:34:07.129Z</time></trkpt><trkpt lat="45.8127855" lon="11.7904807"><ele>189.5</ele><time>2026-04-04T06:34:08.131Z</time></trkpt><trkpt lat="45.8128962" lon="11.7906139"><ele>189.75</ele><time>2026-04-04T06:34:09.13Z</time></trkpt><trkpt lat="45.813009" lon="11.7907393"><ele>190.0</ele><time>2026-04-04T06:34:10.129Z</time></trkpt><trkpt lat="45.8131177" lon="11.7908729"><ele>190.0</ele><time>2026-04-04T06:34:11.132Z</time></trkpt><trkpt lat="45.8132274" lon="11.7910001"><ele>190.0</ele><time>2026-04-04T06:34:12.131Z</time></trkpt><trkpt lat="45.8133368" lon="11.7911308"><ele>190.0</ele><time>2026-04-04T06:34:13.13Z</time></trkpt><trkpt lat="45.8134425" lon="11.7912633"><ele>190.0</ele><time>2026-04-04T06:34:14.131Z</time></trkpt><trkpt lat="45.8135588" lon="11.7913909"><ele>190.33333333333334</ele><time>2026-04-04T06:34:15.129Z</time></trkpt><trkpt lat="45.8136773" lon="11.7915213"><ele>190.66666666666666</ele><time>2026-04-04T06:34:16.13Z</time></trkpt><trkpt lat="45.8137969" lon="11.7916606"><ele>191.0</ele><time>2026-04-04T06:34:17.129Z</time></trkpt><trkpt lat="45.8139205" lon="11.7917971"><ele>189.33333333333331</ele><time>2026-04-04T06:34:18.129Z</time></trkpt><trkpt lat="45.8140457" lon="11.7919338"><ele>187.66666666666666</ele><time>2026-04-04T06:34:19.131Z</time></trkpt><trkpt lat="45.8141739" lon="11.7920754"><ele>186.0</ele><time>2026-04-04T06:34:20.13Z</time></trkpt><trkpt lat="45.8143053" lon="11.7922102"><ele>188.0</ele><time>2026-04-04T06:34:21.129Z</time></trkpt><trkpt lat="45.8144462" lon="11.7923111"><ele>190.0</ele><time>2026-04-04T06:34:22.129Z</time></trkpt><trkpt lat="45.8145744" lon="11.7924137"><ele>192.0</ele><time>2026-04-04T06:34:23.13Z</time></trkpt><trkpt lat="45.8147043" lon="11.7925082"><ele>192.0</ele><time>2026-04-04T06:34:24.129Z</time></trkpt><trkpt lat="45.8148349" lon="11.7926019"><ele>192.0</ele><time>2026-04-04T06:34:25.13Z</time></trkpt><trkpt lat="45.8149555" lon="11.7927264"><ele>192.0</ele><time>2026-04-04T06:34:26.129Z</time></trkpt><trkpt lat="45.8150685" lon="11.7928766"><ele>192.0</ele><time>2026-04-04T06:34:27.13Z</time></trkpt><trkpt lat="45.8151681" lon="11.7930462"><ele>191.33333333333334</ele><time>2026-04-04T06:34:28.129Z</time></trkpt><trkpt lat="45.8152511" lon="11.793233"><ele>190.66666666666669</ele><time>2026-04-04T06:34:29.13Z</time></trkpt><trkpt lat="45.8153166" lon="11.7934397"><ele>190.0</ele><time>2026-04-04T06:34:30.13Z</time></trkpt><trkpt lat="45.81537" lon="11.7936539"><ele>188.66666666666669</ele><time>2026-04-04T06:34:31.13Z</time></trkpt><trkpt lat="45.8154049" lon="11.7938821"><ele>187.33333333333334</ele><time>2026-04-04T06:34:32.13Z</time></trkpt><trkpt lat="45.8154249" lon="11.7941097"><ele>186.0</ele><time>2026-04-04T06:34:33.131Z</time></trkpt><trkpt lat="45.8154375" lon="11.794345"><ele>186.0</ele><time>2026-04-04T06:34:34.13Z</time></trkpt><trkpt lat="45.8154422" lon="11.7945847"><ele>186.0</ele><time>2026-04-04T06:34:35.13Z</time></trkpt><trkpt lat="45.8154416" lon="11.7948307"><ele>186.0</ele><time>2026-04-04T06:34:36.13Z</time></trkpt><trkpt lat="45.8154427" lon="11.795084"><ele>185.33333333333334</ele><time>2026-04-04T06:34:37.13Z</time></trkpt><trkpt lat="45.8154436" lon="11.7953264"><ele>184.66666666666669</ele><time>2026-04-04T06:34:38.13Z</time></trkpt><trkpt lat="45.8154433" lon="11.7955548"><ele>184.0</ele><time>2026-04-04T06:34:39.13Z</time></trkpt><trkpt lat="45.8154388" lon="11.7957686"><ele>184.0</ele><time>2026-04-04T06:34:40.129Z</time></trkpt><trkpt lat="45.8154345" lon="11.7959729"><ele>184.0</ele><time>2026-04-04T06:34:41.129Z</time></trkpt><trkpt lat="45.8154298" lon="11.7961806"><ele>184.0</ele><time>2026-04-04T06:34:42.129Z</time></trkpt><trkpt lat="45.8154298" lon="11.7963861"><ele>184.0</ele><time>2026-04-04T06:34:43.129Z</time></trkpt><trkpt lat="45.8154285" lon="11.796589"><ele>183.5</ele><time>2026-04-04T06:34:44.13Z</time></trkpt><trkpt lat="45.8154251" lon="11.7967936"><ele>183.0</ele><time>2026-04-04T06:34:45.129Z</time></trkpt><trkpt lat="45.815422" lon="11.797003"><ele>182.5</ele><time>2026-04-04T06:34:46.129Z</time></trkpt><trkpt lat="45.8154231" lon="11.7972128"><ele>182.0</ele><time>2026-04-04T06:34:47.129Z</time></trkpt><trkpt lat="45.8154273" lon="11.7974221"><ele>183.0</ele><time>2026-04-04T06:34:48.13Z</time></trkpt><trkpt lat="45.8154243" lon="11.79763"><ele>184.0</ele><time>2026-04-04T06:34:49.129Z</time></trkpt><trkpt lat="45.815422" lon="11.7978341"><ele>185.0</ele><time>2026-04-04T06:34:50.13Z</time></trkpt><trkpt lat="45.8154229" lon="11.798043"><ele>186.0</ele><time>2026-04-04T06:34:51.13Z</time></trkpt><trkpt lat="45.8154225" lon="11.7982503"><ele>187.0</ele><time>2026-04-04T06:34:52.13Z</time></trkpt><trkpt lat="45.8154196" lon="11.7984494"><ele>188.0</ele><time>2026-04-04T06:34:53.129Z</time></trkpt><trkpt lat="45.8154138" lon="11.7986505"><ele>189.0</ele><time>2026-04-04T06:34:54.13Z</time></trkpt><trkpt lat="45.8154114" lon="11.7988507"><ele>190.0</ele><time>2026-04-04T06:34:55.13Z</time></trkpt><trkpt lat="45.815412" lon="11.799057"><ele>190.75</ele><time>2026-04-04T06:34:56.13Z</time></trkpt><trkpt lat="45.8154135" lon="11.799263"><ele>191.5</ele><time>2026-04-04T06:34:57.129Z</time></trkpt><trkpt lat="45.8154118" lon="11.7994712"><ele>192.25</ele><time>2026-04-04T06:34:58.13Z</time></trkpt><trkpt lat="45.8154163" lon="11.7996806"><ele>193.0</ele><time>2026-04-04T06:34:59.131Z</time></trkpt><trkpt lat="45.815421" lon="11.7998943"><ele>193.25</ele><time>2026-04-04T06:35:00.129Z</time></trkpt><trkpt lat="45.8154208" lon="11.8001037"><ele>193.5</ele><time>2026-04-04T06:35:01.13Z</time></trkpt><trkpt lat="45.8154321" lon="11.8003121"><ele>193.75</ele><time>2026-04-04T06:35:02.129Z</time></trkpt><trkpt lat="45.8154465" lon="11.8005238"><ele>194.0</ele><time>2026-04-04T06:35:03.13Z</time></trkpt><trkpt lat="45.8154621" lon="11.8007222"><ele>194.75</ele><time>2026-04-04T06:35:04.132Z</time></trkpt><trkpt lat="45.8154782" lon="11.8009183"><ele>195.5</ele><time>2026-04-04T06:35:05.131Z</time></trkpt><trkpt lat="45.8154962" lon="11.8011105"><ele>196.25</ele><time>2026-04-04T06:35:06.129Z</time></trkpt><trkpt lat="45.8155157" lon="11.8013132"><ele>197.0</ele><time>2026-04-04T06:35:07.13Z</time></trkpt><trkpt lat="45.8155322" lon="11.8015112"><ele>197.2</ele><time>2026-04-04T06:35:08.13Z</time></trkpt><trkpt lat="45.8155507" lon="11.801692"><ele>197.39999999999998</ele><time>2026-04-04T06:35:09.13Z</time></trkpt><trkpt lat="45.8155606" lon="11.8018522"><ele>197.60000000000002</ele><time>2026-04-04T06:35:10.129Z</time></trkpt><trkpt lat="45.8155699" lon="11.8019862"><ele>197.8</ele><time>2026-04-04T06:35:11.131Z</time></trkpt><trkpt lat="45.8155796" lon="11.8021269"><ele>198.0</ele><time>2026-04-04T06:35:12.13Z</time></trkpt><trkpt lat="45.8155982" lon="11.8022953"><ele>198.66666666666669</ele><time>2026-04-04T06:35:13.13Z</time></trkpt><trkpt lat="45.8156222" lon="11.8024906"><ele>199.33333333333334</ele><time>2026-04-04T06:35:14.13Z</time></trkpt><trkpt lat="45.8156452" lon="11.8027129"><ele>200.0</ele><time>2026-04-04T06:35:15.13Z</time></trkpt><trkpt lat="45.8156656" lon="11.8029492"><ele>200.33333333333334</ele><time>2026-04-04T06:35:16.129Z</time></trkpt><trkpt lat="45.8156875" lon="11.8032036"><ele>200.66666666666669</ele><time>2026-04-04T06:35:17.129Z</time></trkpt><trkpt lat="45.8157127" lon="11.803463"><ele>201.0</ele><time>2026-04-04T06:35:18.13Z</time></trkpt><trkpt lat="45.8157418" lon="11.8037281"><ele>200.0</ele><time>2026-04-04T06:35:19.129Z</time></trkpt><trkpt lat="45.8157683" lon="11.8039914"><ele>199.0</ele><time>2026-04-04T06:35:20.13Z</time></trkpt><trkpt lat="45.8157922" lon="11.8042455"><ele>198.0</ele><time>2026-04-04T06:35:21.129Z</time></trkpt><trkpt lat="45.8158186" lon="11.8044919"><ele>198.0</ele><time>2026-04-04T06:35:22.13Z</time></trkpt><trkpt lat="45.815842" lon="11.8047369"><ele>198.0</ele><time>2026-04-04T06:35:23.129Z</time></trkpt><trkpt lat="45.8158615" lon="11.8049816"><ele>198.0</ele><time>2026-04-04T06:35:24.13Z</time></trkpt><trkpt lat="45.8158802" lon="11.8052144"><ele>198.5</ele><time>2026-04-04T06:35:25.13Z</time></trkpt><trkpt lat="45.8159022" lon="11.8054306"><ele>199.0</ele><time>2026-04-04T06:35:26.129Z</time></trkpt><trkpt lat="45.8159243" lon="11.8056239"><ele>199.5</ele><time>2026-04-04T06:35:27.131Z</time></trkpt><trkpt lat="45.8159435" lon="11.8058051"><ele>200.0</ele><time>2026-04-04T06:35:28.129Z</time></trkpt><trkpt lat="45.8159597" lon="11.8059687"><ele>200.8</ele><time>2026-04-04T06:35:29.13Z</time></trkpt><trkpt lat="45.8159658" lon="11.8061075"><ele>201.6</ele><time>2026-04-04T06:35:30.13Z</time></trkpt><trkpt lat="45.8159652" lon="11.8062326"><ele>202.39999999999998</ele><time>2026-04-04T06:35:31.13Z</time></trkpt><trkpt lat="45.8159474" lon="11.8063587"><ele>203.2</ele><time>2026-04-04T06:35:32.13Z</time></trkpt><trkpt lat="45.8159259" lon="11.8064912"><ele>204.0</ele><time>2026-04-04T06:35:33.131Z</time></trkpt><trkpt lat="45.8159255" lon="11.8066142"><ele>205.0</ele><time>2026-04-04T06:35:34.129Z</time></trkpt><trkpt lat="45.8159929" lon="11.8067335"><ele>206.0</ele><time>2026-04-04T06:35:35.129Z</time></trkpt><trkpt lat="45.8160656" lon="11.8068596"><ele>207.0</ele><time>2026-04-04T06:35:36.129Z</time></trkpt><trkpt lat="45.8161354" lon="11.8070186"><ele>208.0</ele><time>2026-04-04T06:35:37.131Z</time></trkpt><trkpt lat="45.8161931" lon="11.8072302"><ele>208.0</ele><time>2026-04-04T06:35:38.13Z</time></trkpt><trkpt lat="45.8162517" lon="11.8074621"><ele>208.0</ele><time>2026-04-04T06:35:39.132Z</time></trkpt><trkpt lat="45.8163099" lon="11.8077127"><ele>208.0</ele><time>2026-04-04T06:35:40.129Z</time></trkpt><trkpt lat="45.8163697" lon="11.8079808"><ele>208.0</ele><time>2026-04-04T06:35:41.13Z</time></trkpt><trkpt lat="45.8164325" lon="11.8082566"><ele>208.0</ele><time>2026-04-04T06:35:42.13Z</time></trkpt><trkpt lat="45.8164945" lon="11.8085439"><ele>208.0</ele><time>2026-04-04T06:35:43.131Z</time></trkpt><trkpt lat="45.816559" lon="11.8088281"><ele>208.33333333333331</ele><time>2026-04-04T06:35:44.13Z</time></trkpt><trkpt lat="45.8166284" lon="11.8091166"><ele>208.66666666666669</ele><time>2026-04-04T06:35:45.13Z</time></trkpt><trkpt lat="45.8166946" lon="11.809404"><ele>209.0</ele><time>2026-04-04T06:35:46.129Z</time></trkpt><trkpt lat="45.8167587" lon="11.8096839"><ele>211.0</ele><time>2026-04-04T06:35:47.132Z</time></trkpt><trkpt lat="45.8168212" lon="11.8099596"><ele>213.0</ele><time>2026-04-04T06:35:48.129Z</time></trkpt><trkpt lat="45.8168822" lon="11.8102265"><ele>215.0</ele><time>2026-04-04T06:35:49.13Z</time></trkpt><trkpt lat="45.8169389" lon="11.8104907"><ele>215.0</ele><time>2026-04-04T06:35:50.13Z</time></trkpt><trkpt lat="45.8170012" lon="11.8107442"><ele>215.0</ele><time>2026-04-04T06:35:51.13Z</time></trkpt><trkpt lat="45.8170578" lon="11.8110015"><ele>215.0</ele><time>2026-04-04T06:35:52.13Z</time></trkpt><trkpt lat="45.8171184" lon="11.8112513"><ele>215.0</ele><time>2026-04-04T06:35:53.13Z</time></trkpt><trkpt lat="45.8171737" lon="11.811498"><ele>215.0</ele><time>2026-04-04T06:35:54.13Z</time></trkpt><trkpt lat="45.8172309" lon="11.8117414"><ele>215.0</ele><time>2026-04-04T06:35:55.13Z</time></trkpt><trkpt lat="45.8172869" lon="11.8119862"><ele>214.66666666666669</ele><time>2026-04-04T06:35:56.13Z</time></trkpt><trkpt lat="45.8173443" lon="11.8122287"><ele>214.33333333333331</ele><time>2026-04-04T06:35:57.132Z</time></trkpt><trkpt lat="45.8173999" lon="11.8124708"><ele>214.0</ele><time>2026-04-04T06:35:58.131Z</time></trkpt><trkpt lat="45.8174559" lon="11.8127098"><ele>214.0</ele><time>2026-04-04T06:35:59.13Z</time></trkpt><trkpt lat="45.8175131" lon="11.8129477"><ele>214.0</ele><time>2026-04-04T06:36:00.129Z</time></trkpt><trkpt lat="45.8175689" lon="11.8131865"><ele>214.0</ele><time>2026-04-04T06:36:01.13Z</time></trkpt><trkpt lat="45.817622" lon="11.8134294"><ele>216.66666666666666</ele><time>2026-04-04T06:36:02.13Z</time></trkpt><trkpt lat="45.8176799" lon="11.8136721"><ele>219.33333333333331</ele><time>2026-04-04T06:36:03.13Z</time></trkpt><trkpt lat="45.8177347" lon="11.813912"><ele>222.0</ele><time>2026-04-04T06:36:04.13Z</time></trkpt><trkpt lat="45.8177894" lon="11.8141488"><ele>221.66666666666669</ele><time>2026-04-04T06:36:05.132Z</time></trkpt><trkpt lat="45.8178436" lon="11.8143813"><ele>221.33333333333334</ele><time>2026-04-04T06:36:06.131Z</time></trkpt><trkpt lat="45.8178978" lon="11.8146104"><ele>221.0</ele><time>2026-04-04T06:36:07.13Z</time></trkpt><trkpt lat="45.8179489" lon="11.8148273"><ele>221.0</ele><time>2026-04-04T06:36:08.129Z</time></trkpt><trkpt lat="45.8179974" lon="11.8150407"><ele>221.0</ele><time>2026-04-04T06:36:09.13Z</time></trkpt><trkpt lat="45.8180449" lon="11.8152492"><ele>221.0</ele><time>2026-04-04T06:36:10.131Z</time></trkpt><trkpt lat="45.8180941" lon="11.8154575"><ele>221.0</ele><time>2026-04-04T06:36:11.13Z</time></trkpt><trkpt lat="45.8181441" lon="11.815665"><ele>221.0</ele><time>2026-04-04T06:36:12.129Z</time></trkpt><trkpt lat="45.8181985" lon="11.8158692"><ele>221.0</ele><time>2026-04-04T06:36:13.131Z</time></trkpt><trkpt lat="45.8182686" lon="11.8160678"><ele>221.66666666666669</ele><time>2026-04-04T06:36:14.131Z</time></trkpt><trkpt lat="45.8183421" lon="11.8162651"><ele>222.33333333333331</ele><time>2026-04-04T06:36:15.13Z</time></trkpt><trkpt lat="45.8184163" lon="11.8164612"><ele>223.0</ele><time>2026-04-04T06:36:16.13Z</time></trkpt><trkpt lat="45.8184937" lon="11.8166577"><ele>225.33333333333331</ele><time>2026-04-04T06:36:17.13Z</time></trkpt><trkpt lat="45.8185718" lon="11.8168529"><ele>227.66666666666669</ele><time>2026-04-04T06:36:18.13Z</time></trkpt><trkpt lat="45.8186536" lon="11.8170427"><ele>230.0</ele><time>2026-04-04T06:36:19.132Z</time></trkpt><trkpt lat="45.8187352" lon="11.81724"><ele>230.0</ele><time>2026-04-04T06:36:20.129Z</time></trkpt><trkpt lat="45.8188142" lon="11.8174309"><ele>230.0</ele><time>2026-04-04T06:36:21.131Z</time></trkpt><trkpt lat="45.8188993" lon="11.8176275"><ele>230.0</ele><time>2026-04-04T06:36:22.13Z</time></trkpt><trkpt lat="45.8189757" lon="11.8178183"><ele>230.66666666666669</ele><time>2026-04-04T06:36:23.131Z</time></trkpt><trkpt lat="45.8190529" lon="11.8180013"><ele>231.33333333333331</ele><time>2026-04-04T06:36:24.13Z</time></trkpt><trkpt lat="45.8191339" lon="11.8181975"><ele>232.0</ele><time>2026-04-04T06:36:25.13Z</time></trkpt><trkpt lat="45.8192105" lon="11.818386"><ele>233.0</ele><time>2026-04-04T06:36:26.131Z</time></trkpt><trkpt lat="45.8192921" lon="11.8185739"><ele>234.0</ele><time>2026-04-04T06:36:27.131Z</time></trkpt><trkpt lat="45.8193704" lon="11.8187662"><ele>235.0</ele><time>2026-04-04T06:36:28.132Z</time></trkpt><trkpt lat="45.8194548" lon="11.8189573"><ele>235.66666666666666</ele><time>2026-04-04T06:36:29.131Z</time></trkpt><trkpt lat="45.8195352" lon="11.819153"><ele>236.33333333333331</ele><time>2026-04-04T06:36:30.13Z</time></trkpt><trkpt lat="45.8196127" lon="11.8193537"><ele>237.0</ele><time>2026-04-04T06:36:31.13Z</time></trkpt><trkpt lat="45.8196853" lon="11.8195672"><ele>238.0</ele><time>2026-04-04T06:36:32.13Z</time></trkpt><trkpt lat="45.81975" lon="11.8197877"><ele>239.0</ele><time>2026-04-04T06:36:33.131Z</time></trkpt><trkpt lat="45.8197961" lon="11.8200286"><ele>240.0</ele><time>2026-04-04T06:36:34.129Z</time></trkpt><trkpt lat="45.8198277" lon="11.8202795"><ele>241.0</ele><time>2026-04-04T06:36:35.132Z</time></trkpt><trkpt lat="45.819863" lon="11.8205355"><ele>242.0</ele><time>2026-04-04T06:36:36.131Z</time></trkpt><trkpt lat="45.8199116" lon="11.8207869"><ele>243.0</ele><time>2026-04-04T06:36:37.131Z</time></trkpt><trkpt lat="45.8199577" lon="11.8210357"><ele>243.66666666666669</ele><time>2026-04-04T06:36:38.13Z</time></trkpt><trkpt lat="45.8200028" lon="11.8212847"><ele>244.33333333333334</ele><time>2026-04-04T06:36:39.131Z</time></trkpt><trkpt lat="45.8200475" lon="11.8215312"><ele>245.0</ele><time>2026-04-04T06:36:40.13Z</time></trkpt><trkpt lat="45.8200949" lon="11.8217755"><ele>244.33333333333334</ele><time>2026-04-04T06:36:41.13Z</time></trkpt><trkpt lat="45.8201453" lon="11.8220197"><ele>243.66666666666669</ele><time>2026-04-04T06:36:42.131Z</time></trkpt><trkpt lat="45.8202045" lon="11.8222634"><ele>243.0</ele><time>2026-04-04T06:36:43.13Z</time></trkpt><trkpt lat="45.8202548" lon="11.8225177"><ele>245.33333333333331</ele><time>2026-04-04T06:36:44.13Z</time></trkpt><trkpt lat="45.8203105" lon="11.8227654"><ele>247.66666666666666</ele><time>2026-04-04T06:36:45.13Z</time></trkpt><trkpt lat="45.8203609" lon="11.8229947"><ele>250.0</ele><time>2026-04-04T06:36:46.13Z</time></trkpt><trkpt lat="45.8204073" lon="11.8232097"><ele>250.0</ele><time>2026-04-04T06:36:47.13Z</time></trkpt><trkpt lat="45.8204549" lon="11.823421"><ele>250.0</ele><time>2026-04-04T06:36:48.131Z</time></trkpt><trkpt lat="45.8205088" lon="11.8236384"><ele>250.0</ele><time>2026-04-04T06:36:49.13Z</time></trkpt><trkpt lat="45.8205572" lon="11.8238677"><ele>250.0</ele><time>2026-04-04T06:36:50.131Z</time></trkpt><trkpt lat="45.8206042" lon="11.8241002"><ele>250.0</ele><time>2026-04-04T06:36:51.13Z</time></trkpt><trkpt lat="45.820656" lon="11.8243353"><ele>250.0</ele><time>2026-04-04T06:36:52.131Z</time></trkpt><trkpt lat="45.8207046" lon="11.8245742"><ele>249.66666666666666</ele><time>2026-04-04T06:36:53.13Z</time></trkpt><trkpt lat="45.8207566" lon="11.8248154"><ele>249.33333333333331</ele><time>2026-04-04T06:36:54.13Z</time></trkpt><trkpt lat="45.8208078" lon="11.8250607"><ele>249.0</ele><time>2026-04-04T06:36:55.13Z</time></trkpt><trkpt lat="45.8208585" lon="11.8253085"><ele>250.0</ele><time>2026-04-04T06:36:56.131Z</time></trkpt><trkpt lat="45.8209134" lon="11.8255557"><ele>251.0</ele><time>2026-04-04T06:36:57.13Z</time></trkpt><trkpt lat="45.8209692" lon="11.8258015"><ele>252.0</ele><time>2026-04-04T06:36:58.131Z</time></trkpt><trkpt lat="45.8210249" lon="11.8260491"><ele>253.66666666666669</ele><time>2026-04-04T06:36:59.13Z</time></trkpt><trkpt lat="45.8210821" lon="11.826295"><ele>255.33333333333334</ele><time>2026-04-04T06:37:00.131Z</time></trkpt><trkpt lat="45.8211455" lon="11.8265387"><ele>257.0</ele><time>2026-04-04T06:37:01.131Z</time></trkpt><trkpt lat="45.821211" lon="11.8267877"><ele>257.6666666666667</ele><time>2026-04-04T06:37:02.13Z</time></trkpt><trkpt lat="45.8212733" lon="11.8270323"><ele>258.3333333333333</ele><time>2026-04-04T06:37:03.131Z</time></trkpt><trkpt lat="45.8213348" lon="11.8272801"><ele>259.0</ele><time>2026-04-04T06:37:04.131Z</time></trkpt><trkpt lat="45.8213954" lon="11.8275227"><ele>259.3333333333333</ele><time>2026-04-04T06:37:05.132Z</time></trkpt><trkpt lat="45.8214569" lon="11.8277651"><ele>259.6666666666667</ele><time>2026-04-04T06:37:06.13Z</time></trkpt><trkpt lat="45.8215185" lon="11.8279964"><ele>260.0</ele><time>2026-04-04T06:37:07.131Z</time></trkpt><trkpt lat="45.8215728" lon="11.8282084"><ele>260.0</ele><time>2026-04-04T06:37:08.13Z</time></trkpt><trkpt lat="45.8216214" lon="11.8283976"><ele>260.0</ele><time>2026-04-04T06:37:09.131Z</time></trkpt><trkpt lat="45.821667" lon="11.8285763"><ele>260.0</ele><time>2026-04-04T06:37:10.132Z</time></trkpt><trkpt lat="45.821703" lon="11.8287306"><ele>260.0</ele><time>2026-04-04T06:37:11.13Z</time></trkpt><trkpt lat="45.8217312" lon="11.8288647"><ele>260.0</ele><time>2026-04-04T06:37:12.13Z</time></trkpt><trkpt lat="45.8217445" lon="11.8289858"><ele>260.0</ele><time>2026-04-04T06:37:13.131Z</time></trkpt><trkpt lat="45.8217424" lon="11.8290902"><ele>260.0</ele><time>2026-04-04T06:37:14.132Z</time></trkpt><trkpt lat="45.8217162" lon="11.8291993"><ele>260.0</ele><time>2026-04-04T06:37:15.13Z</time></trkpt><trkpt lat="45.8216674" lon="11.8293028"><ele>260.0</ele><time>2026-04-04T06:37:16.13Z</time></trkpt><trkpt lat="45.8216276" lon="11.8294098"><ele>260.0</ele><time>2026-04-04T06:37:17.132Z</time></trkpt><trkpt lat="45.8216138" lon="11.8295199"><ele>260.2</ele><time>2026-04-04T06:37:18.13Z</time></trkpt><trkpt lat="45.821637" lon="11.8296163"><ele>260.4</ele><time>2026-04-04T06:37:19.13Z</time></trkpt><trkpt lat="45.821694" lon="11.829693"><ele>260.6</ele><time>2026-04-04T06:37:20.13Z</time></trkpt><trkpt lat="45.8217747" lon="11.8297283"><ele>260.8</ele><time>2026-04-04T06:37:21.13Z</time></trkpt><trkpt lat="45.8218745" lon="11.8297588"><ele>261.0</ele><time>2026-04-04T06:37:22.13Z</time></trkpt><trkpt lat="45.8219813" lon="11.8298245"><ele>261.75</ele><time>2026-04-04T06:37:23.13Z</time></trkpt><trkpt lat="45.8220867" lon="11.8299376"><ele>262.5</ele><time>2026-04-04T06:37:24.132Z</time></trkpt><trkpt lat="45.8221834" lon="11.8300826"><ele>263.25</ele><time>2026-04-04T06:37:25.131Z</time></trkpt><trkpt lat="45.8222768" lon="11.8302649"><ele>264.0</ele><time>2026-04-04T06:37:26.133Z</time></trkpt><trkpt lat="45.8223799" lon="11.8304454"><ele>264.3333333333333</ele><time>2026-04-04T06:37:27.13Z</time></trkpt><trkpt lat="45.8224805" lon="11.8306329"><ele>264.66666666666663</ele><time>2026-04-04T06:37:28.13Z</time></trkpt><trkpt lat="45.8225842" lon="11.8308182"><ele>265.0</ele><time>2026-04-04T06:37:29.131Z</time></trkpt><trkpt lat="45.8226905" lon="11.8310113"><ele>266.66666666666663</ele><time>2026-04-04T06:37:30.131Z</time></trkpt><trkpt lat="45.8227938" lon="11.8312051"><ele>268.3333333333333</ele><time>2026-04-04T06:37:31.13Z</time></trkpt><trkpt lat="45.8228966" lon="11.8313986"><ele>270.0</ele><time>2026-04-04T06:37:32.131Z</time></trkpt><trkpt lat="45.8229953" lon="11.8315882"><ele>270.0</ele><time>2026-04-04T06:37:33.13Z</time></trkpt><trkpt lat="45.8230887" lon="11.8317691"><ele>270.0</ele><time>2026-04-04T06:37:34.131Z</time></trkpt><trkpt lat="45.8231872" lon="11.831943"><ele>270.0</ele><time>2026-04-04T06:37:35.131Z</time></trkpt><trkpt lat="45.8232862" lon="11.8321188"><ele>270.0</ele><time>2026-04-04T06:37:36.13Z</time></trkpt><trkpt lat="45.8233718" lon="11.832281"><ele>270.0</ele><time>2026-04-04T06:37:37.132Z</time></trkpt><trkpt lat="45.8234544" lon="11.8324257"><ele>270.0</ele><time>2026-04-04T06:37:38.13Z</time></trkpt><trkpt lat="45.8235379" lon="11.8325654"><ele>270.0</ele><time>2026-04-04T06:37:39.131Z</time></trkpt><trkpt lat="45.8236267" lon="11.832698"><ele>270.75</ele><time>2026-04-04T06:37:40.131Z</time></trkpt><trkpt lat="45.8237242" lon="11.8328238"><ele>271.5</ele><time>2026-04-04T06:37:41.131Z</time></trkpt><trkpt lat="45.8238277" lon="11.8329497"><ele>272.25</ele><time>2026-04-04T06:37:42.13Z</time></trkpt><trkpt lat="45.8239416" lon="11.833072"><ele>273.0</ele><time>2026-04-04T06:37:43.13Z</time></trkpt><trkpt lat="45.8240531" lon="11.8332037"><ele>273.0</ele><time>2026-04-04T06:37:44.13Z</time></trkpt><trkpt lat="45.8241689" lon="11.833329"><ele>273.0</ele><time>2026-04-04T06:37:45.13Z</time></trkpt><trkpt lat="45.8242897" lon="11.8334545"><ele>273.0</ele><time>2026-04-04T06:37:46.13Z</time></trkpt><trkpt lat="45.8244072" lon="11.8335923"><ele>273.0</ele><time>2026-04-04T06:37:47.131Z</time></trkpt><trkpt lat="45.8245285" lon="11.83372"><ele>274.6666666666667</ele><time>2026-04-04T06:37:48.131Z</time></trkpt><trkpt lat="45.8246557" lon="11.833853"><ele>276.33333333333337</ele><time>2026-04-04T06:37:49.13Z</time></trkpt><trkpt lat="45.8247828" lon="11.8339847"><ele>278.0</ele><time>2026-04-04T06:37:50.132Z</time></trkpt><trkpt lat="45.8249071" lon="11.8341144"><ele>278.0</ele><time>2026-04-04T06:37:51.132Z</time></trkpt><trkpt lat="45.8250355" lon="11.8342512"><ele>278.0</ele><time>2026-04-04T06:37:52.131Z</time></trkpt><trkpt lat="45.8251538" lon="11.8343822"><ele>278.0</ele><time>2026-04-04T06:37:53.131Z</time></trkpt><trkpt lat="45.8252792" lon="11.8345221"><ele>279.25</ele><time>2026-04-04T06:37:54.131Z</time></trkpt><trkpt lat="45.8254016" lon="11.8346442"><ele>280.5</ele><time>2026-04-04T06:37:55.131Z</time></trkpt><trkpt lat="45.8255216" lon="11.8347773"><ele>281.75</ele><time>2026-04-04T06:37:56.131Z</time></trkpt><trkpt lat="45.8256383" lon="11.8349031"><ele>283.0</ele><time>2026-04-04T06:37:57.13Z</time></trkpt><trkpt lat="45.8257503" lon="11.8350235"><ele>282.25</ele><time>2026-04-04T06:37:58.13Z</time></trkpt><trkpt lat="45.8258617" lon="11.8351434"><ele>281.5</ele><time>2026-04-04T06:37:59.131Z</time></trkpt><trkpt lat="45.8259755" lon="11.8352679"><ele>280.75</ele><time>2026-04-04T06:38:00.131Z</time></trkpt><trkpt lat="45.8260798" lon="11.8353802"><ele>280.0</ele><time>2026-04-04T06:38:01.13Z</time></trkpt><trkpt lat="45.826183" lon="11.8354939"><ele>281.25</ele><time>2026-04-04T06:38:02.131Z</time></trkpt><trkpt lat="45.8262801" lon="11.8356154"><ele>282.5</ele><time>2026-04-04T06:38:03.13Z</time></trkpt><trkpt lat="45.8263644" lon="11.835751"><ele>283.75</ele><time>2026-04-04T06:38:04.132Z</time></trkpt><trkpt lat="45.8264372" lon="11.8358923"><ele>285.0</ele><time>2026-04-04T06:38:05.13Z</time></trkpt><trkpt lat="45.8264831" lon="11.8360625"><ele>285.0</ele><time>2026-04-04T06:38:06.131Z</time></trkpt><trkpt lat="45.8265297" lon="11.8362426"><ele>285.0</ele><time>2026-04-04T06:38:07.13Z</time></trkpt><trkpt lat="45.8265692" lon="11.8364332"><ele>285.0</ele><time>2026-04-04T06:38:08.131Z</time></trkpt><trkpt lat="45.826608" lon="11.8366296"><ele>285.0</ele><time>2026-04-04T06:38:09.13Z</time></trkpt><trkpt lat="45.8266468" lon="11.8368116"><ele>285.0</ele><time>2026-04-04T06:38:10.13Z</time></trkpt><trkpt lat="45.8266844" lon="11.8369967"><ele>285.0</ele><time>2026-04-04T06:38:11.13Z</time></trkpt><trkpt lat="45.8267196" lon="11.8371436"><ele>285.0</ele><time>2026-04-04T06:38:12.131Z</time></trkpt><trkpt lat="45.826749" lon="11.8372823"><ele>285.0</ele><time>2026-04-04T06:38:13.13Z</time></trkpt><trkpt lat="45.8267716" lon="11.8374003"><ele>285.0</ele><time>2026-04-04T06:38:14.131Z</time></trkpt><trkpt lat="45.826789" lon="11.8374947"><ele>286.1666666666667</ele><time>2026-04-04T06:38:15.131Z</time></trkpt><trkpt lat="45.8268114" lon="11.8376249"><ele>287.3333333333333</ele><time>2026-04-04T06:38:17.13Z</time></trkpt><trkpt lat="45.8268308" lon="11.8377546"><ele>288.5</ele><time>2026-04-04T06:39:26.131Z</time></trkpt><trkpt lat="45.8268461" lon="11.8378523"><ele>289.66666666666663</ele><time>2026-04-04T06:39:27.132Z</time></trkpt><trkpt lat="45.8268642" lon="11.8379509"><ele>290.8333333333333</ele><time>2026-04-04T06:39:28.131Z</time></trkpt><trkpt lat="45.8268866" lon="11.8380537"><ele>292.0</ele><time>2026-04-04T06:39:29.131Z</time></trkpt><trkpt lat="45.8269153" lon="11.8381816"><ele>292.25</ele><time>2026-04-04T06:39:30.132Z</time></trkpt><trkpt lat="45.8269546" lon="11.838338"><ele>292.5</ele><time>2026-04-04T06:39:31.131Z</time></trkpt><trkpt lat="45.8269962" lon="11.8385051"><ele>292.75</ele><time>2026-04-04T06:39:32.13Z</time></trkpt><trkpt lat="45.8270358" lon="11.8386836"><ele>293.0</ele><time>2026-04-04T06:39:33.131Z</time></trkpt><trkpt lat="45.8270792" lon="11.8388725"><ele>293.0</ele><time>2026-04-04T06:39:34.13Z</time></trkpt><trkpt lat="45.8271165" lon="11.8390594"><ele>293.0</ele><time>2026-04-04T06:39:35.132Z</time></trkpt><trkpt lat="45.8271528" lon="11.839238"><ele>293.0</ele><time>2026-04-04T06:39:36.131Z</time></trkpt><trkpt lat="45.8271878" lon="11.8394013"><ele>293.0</ele><time>2026-04-04T06:39:37.131Z</time></trkpt><trkpt lat="45.8272218" lon="11.8395567"><ele>292.8</ele><time>2026-04-04T06:39:38.132Z</time></trkpt><trkpt lat="45.8272538" lon="11.839705"><ele>292.6</ele><time>2026-04-04T06:39:39.131Z</time></trkpt><trkpt lat="45.8272867" lon="11.8398392"><ele>292.4</ele><time>2026-04-04T06:39:40.131Z</time></trkpt><trkpt lat="45.8273361" lon="11.8399538"><ele>292.2</ele><time>2026-04-04T06:39:41.131Z</time></trkpt><trkpt lat="45.8274065" lon="11.8400509"><ele>292.0</ele><time>2026-04-04T06:39:42.132Z</time></trkpt><trkpt lat="45.8274904" lon="11.8401198"><ele>292.25</ele><time>2026-04-04T06:39:43.131Z</time></trkpt><trkpt lat="45.8275918" lon="11.8401591"><ele>292.5</ele><time>2026-04-04T06:39:44.13Z</time></trkpt><trkpt lat="45.8277008" lon="11.8401729"><ele>292.75</ele><time>2026-04-04T06:39:45.13Z</time></trkpt><trkpt lat="45.8278188" lon="11.8401528"><ele>293.0</ele><time>2026-04-04T06:39:46.133Z</time></trkpt><trkpt lat="45.827936" lon="11.840137"><ele>293.75</ele><time>2026-04-04T06:39:47.13Z</time></trkpt><trkpt lat="45.828058" lon="11.8401178"><ele>294.5</ele><time>2026-04-04T06:39:48.132Z</time></trkpt><trkpt lat="45.8281729" lon="11.8400953"><ele>295.25</ele><time>2026-04-04T06:39:49.131Z</time></trkpt><trkpt lat="45.8282828" lon="11.8400689"><ele>296.0</ele><time>2026-04-04T06:39:50.13Z</time></trkpt><trkpt lat="45.8283871" lon="11.840045"><ele>296.6</ele><time>2026-04-04T06:39:51.132Z</time></trkpt><trkpt lat="45.8284871" lon="11.8400251"><ele>297.20000000000005</ele><time>2026-04-04T06:39:52.133Z</time></trkpt><trkpt lat="45.8285854" lon="11.8400194"><ele>297.79999999999995</ele><time>2026-04-04T06:39:53.132Z</time></trkpt><trkpt lat="45.8286812" lon="11.8400468"><ele>298.4</ele><time>2026-04-04T06:39:54.131Z</time></trkpt><trkpt lat="45.8287624" lon="11.8401218"><ele>299.0</ele><time>2026-04-04T06:39:55.133Z</time></trkpt><trkpt lat="45.8288344" lon="11.8402342"><ele>299.25</ele><time>2026-04-04T06:39:56.131Z</time></trkpt><trkpt lat="45.8288892" lon="11.8403732"><ele>299.5</ele><time>2026-04-04T06:39:57.132Z</time></trkpt><trkpt lat="45.8289296" lon="11.8405293"><ele>299.75</ele><time>2026-04-04T06:39:58.131Z</time></trkpt><trkpt lat="45.8289676" lon="11.8406966"><ele>300.0</ele><time>2026-04-04T06:39:59.13Z</time></trkpt><trkpt lat="45.8290041" lon="11.8408695"><ele>300.0</ele><time>2026-04-04T06:40:00.13Z</time></trkpt><trkpt lat="45.8290389" lon="11.8410316"><ele>300.0</ele><time>2026-04-04T06:40:01.131Z</time></trkpt><trkpt lat="45.829065" lon="11.8411769"><ele>300.0</ele><time>2026-04-04T06:40:02.131Z</time></trkpt><trkpt lat="45.8290962" lon="11.8413097"><ele>300.0</ele><time>2026-04-04T06:40:03.131Z</time></trkpt><trkpt lat="45.8291373" lon="11.84144"><ele>300.0</ele><time>2026-04-04T06:40:04.131Z</time></trkpt><trkpt lat="45.8291756" lon="11.8415491"><ele>300.0</ele><time>2026-04-04T06:40:05.131Z</time></trkpt><trkpt lat="45.8292137" lon="11.8416531"><ele>300.0</ele><time>2026-04-04T06:40:06.131Z</time></trkpt><trkpt lat="45.8293064" lon="11.8416979"><ele>300.0</ele><time>2026-04-04T06:40:07.131Z</time></trkpt><trkpt lat="45.8294016" lon="11.8417113"><ele>300.0</ele><time>2026-04-04T06:40:08.131Z</time></trkpt><trkpt lat="45.829504" lon="11.8416832"><ele>300.0</ele><time>2026-04-04T06:40:09.131Z</time></trkpt><trkpt lat="45.8295944" lon="11.8416264"><ele>299.6</ele><time>2026-04-04T06:40:10.13Z</time></trkpt><trkpt lat="45.8296566" lon="11.8415471"><ele>299.2</ele><time>2026-04-04T06:40:11.131Z</time></trkpt><trkpt lat="45.8297016" lon="11.8414315"><ele>298.8</ele><time>2026-04-04T06:40:12.131Z</time></trkpt><trkpt lat="45.8297189" lon="11.8412863"><ele>298.4</ele><time>2026-04-04T06:40:13.131Z</time></trkpt><trkpt lat="45.8297363" lon="11.8411185"><ele>298.0</ele><time>2026-04-04T06:40:14.133Z</time></trkpt><trkpt lat="45.8297564" lon="11.8409413"><ele>298.0</ele><time>2026-04-04T06:40:15.132Z</time></trkpt><trkpt lat="45.8297707" lon="11.8407342"><ele>298.0</ele><time>2026-04-04T06:40:16.13Z</time></trkpt><trkpt lat="45.8297819" lon="11.8405121"><ele>298.0</ele><time>2026-04-04T06:40:17.13Z</time></trkpt><trkpt lat="45.829793" lon="11.8402838"><ele>297.66666666666663</ele><time>2026-04-04T06:40:18.13Z</time></trkpt><trkpt lat="45.8298086" lon="11.8400596"><ele>297.3333333333333</ele><time>2026-04-04T06:40:19.13Z</time></trkpt><trkpt lat="45.8298414" lon="11.8398265"><ele>297.0</ele><time>2026-04-04T06:40:20.131Z</time></trkpt><trkpt lat="45.8298809" lon="11.8396035"><ele>297.0</ele><time>2026-04-04T06:40:21.131Z</time></trkpt><trkpt lat="45.829916" lon="11.8393909"><ele>297.0</ele><time>2026-04-04T06:40:22.132Z</time></trkpt><trkpt lat="45.8299523" lon="11.8391875"><ele>297.0</ele><time>2026-04-04T06:40:23.132Z</time></trkpt><trkpt lat="45.8299879" lon="11.8389924"><ele>297.0</ele><time>2026-04-04T06:40:24.13Z</time></trkpt><trkpt lat="45.8300251" lon="11.838813"><ele>297.5</ele><time>2026-04-04T06:40:25.13Z</time></trkpt><trkpt lat="45.8300637" lon="11.8386388"><ele>298.0</ele><time>2026-04-04T06:40:26.131Z</time></trkpt><trkpt lat="45.8301185" lon="11.8384905"><ele>298.5</ele><time>2026-04-04T06:40:27.131Z</time></trkpt><trkpt lat="45.8302026" lon="11.8383702"><ele>299.0</ele><time>2026-04-04T06:40:28.13Z</time></trkpt><trkpt lat="45.8303108" lon="11.8382753"><ele>300.0</ele><time>2026-04-04T06:40:29.131Z</time></trkpt><trkpt lat="45.8304191" lon="11.8382395"><ele>301.0</ele><time>2026-04-04T06:40:30.131Z</time></trkpt><trkpt lat="45.8305142" lon="11.838262"><ele>302.0</ele><time>2026-04-04T06:40:31.13Z</time></trkpt><trkpt lat="45.8305976" lon="11.8383269"><ele>303.0</ele><time>2026-04-04T06:40:32.131Z</time></trkpt><trkpt lat="45.8306668" lon="11.8384235"><ele>304.0</ele><time>2026-04-04T06:40:33.132Z</time></trkpt><trkpt lat="45.8307414" lon="11.8385371"><ele>304.0</ele><time>2026-04-04T06:40:34.131Z</time></trkpt><trkpt lat="45.8308157" lon="11.8386659"><ele>304.0</ele><time>2026-04-04T06:40:35.13Z</time></trkpt><trkpt lat="45.8309027" lon="11.8388195"><ele>304.0</ele><time>2026-04-04T06:40:36.132Z</time></trkpt><trkpt lat="45.830997" lon="11.8389945"><ele>304.0</ele><time>2026-04-04T06:40:37.131Z</time></trkpt><trkpt lat="45.8310978" lon="11.8391711"><ele>305.66666666666663</ele><time>2026-04-04T06:40:38.131Z</time></trkpt><trkpt lat="45.8312033" lon="11.8393555"><ele>307.3333333333333</ele><time>2026-04-04T06:40:39.132Z</time></trkpt><trkpt lat="45.831303" lon="11.8395436"><ele>309.0</ele><time>2026-04-04T06:40:40.131Z</time></trkpt><trkpt lat="45.8314079" lon="11.8397453"><ele>309.0</ele><time>2026-04-04T06:40:41.132Z</time></trkpt><trkpt lat="45.8315031" lon="11.8399585"><ele>309.0</ele><time>2026-04-04T06:40:42.132Z</time></trkpt><trkpt lat="45.8315889" lon="11.8401873"><ele>309.0</ele><time>2026-04-04T06:40:43.131Z</time></trkpt><trkpt lat="45.8316648" lon="11.8404143"><ele>308.0</ele><time>2026-04-04T06:40:44.131Z</time></trkpt><trkpt lat="45.8317346" lon="11.8406511"><ele>307.0</ele><time>2026-04-04T06:40:45.131Z</time></trkpt><trkpt lat="45.8318056" lon="11.8408848"><ele>306.0</ele><time>2026-04-04T06:40:46.133Z</time></trkpt><trkpt lat="45.8318754" lon="11.8411114"><ele>310.0</ele><time>2026-04-04T06:40:47.131Z</time></trkpt><trkpt lat="45.8319415" lon="11.841326"><ele>314.0</ele><time>2026-04-04T06:40:48.131Z</time></trkpt><trkpt lat="45.8320015" lon="11.8415272"><ele>318.0</ele><time>2026-04-04T06:40:49.132Z</time></trkpt><trkpt lat="45.8320663" lon="11.8416951"><ele>315.5</ele><time>2026-04-04T06:40:50.132Z</time></trkpt><trkpt lat="45.8321473" lon="11.8418297"><ele>313.0</ele><time>2026-04-04T06:40:51.132Z</time></trkpt><trkpt lat="45.8322564" lon="11.8419239"><ele>310.5</ele><time>2026-04-04T06:40:52.131Z</time></trkpt><trkpt lat="45.8323716" lon="11.8420027"><ele>308.0</ele><time>2026-04-04T06:40:53.13Z</time></trkpt><trkpt lat="45.8325026" lon="11.8420525"><ele>310.75</ele><time>2026-04-04T06:40:54.131Z</time></trkpt><trkpt lat="45.8326415" lon="11.8420966"><ele>313.5</ele><time>2026-04-04T06:40:55.131Z</time></trkpt><trkpt lat="45.8327858" lon="11.8421593"><ele>316.25</ele><time>2026-04-04T06:40:56.132Z</time></trkpt><trkpt lat="45.832931" lon="11.8422243"><ele>319.0</ele><time>2026-04-04T06:40:57.131Z</time></trkpt><trkpt lat="45.833076" lon="11.8422848"><ele>319.0</ele><time>2026-04-04T06:40:58.133Z</time></trkpt><trkpt lat="45.8332155" lon="11.8423472"><ele>319.0</ele><time>2026-04-04T06:40:59.131Z</time></trkpt><trkpt lat="45.8333446" lon="11.8423999"><ele>319.0</ele><time>2026-04-04T06:41:00.132Z</time></trkpt><trkpt lat="45.8334655" lon="11.8424449"><ele>319.0</ele><time>2026-04-04T06:41:01.132Z</time></trkpt><trkpt lat="45.8335704" lon="11.8425008"><ele>320.0</ele><time>2026-04-04T06:41:02.132Z</time></trkpt><trkpt lat="45.8336516" lon="11.8425843"><ele>321.0</ele><time>2026-04-04T06:41:03.132Z</time></trkpt><trkpt lat="45.8336936" lon="11.842692"><ele>322.0</ele><time>2026-04-04T06:41:04.13Z</time></trkpt><trkpt lat="45.8337102" lon="11.8428062"><ele>323.0</ele><time>2026-04-04T06:41:05.132Z</time></trkpt><trkpt lat="45.8336835" lon="11.8429201"><ele>324.0</ele><time>2026-04-04T06:41:06.131Z</time></trkpt><trkpt lat="45.8336293" lon="11.8430394"><ele>324.0</ele><time>2026-04-04T06:41:07.132Z</time></trkpt><trkpt lat="45.8335645" lon="11.8431736"><ele>324.0</ele><time>2026-04-04T06:41:08.132Z</time></trkpt><trkpt lat="45.8334884" lon="11.843344"><ele>324.0</ele><time>2026-04-04T06:41:09.132Z</time></trkpt><trkpt lat="45.8334075" lon="11.8435237"><ele>324.0</ele><time>2026-04-04T06:41:10.13Z</time></trkpt><trkpt lat="45.8333246" lon="11.8437201"><ele>322.6666666666667</ele><time>2026-04-04T06:41:11.132Z</time></trkpt><trkpt lat="45.83324" lon="11.8439232"><ele>321.33333333333337</ele><time>2026-04-04T06:41:12.131Z</time></trkpt><trkpt lat="45.8331517" lon="11.8441272"><ele>320.0</ele><time>2026-04-04T06:41:13.132Z</time></trkpt><trkpt lat="45.8330598" lon="11.8443308"><ele>320.0</ele><time>2026-04-04T06:41:14.131Z</time></trkpt><trkpt lat="45.832977" lon="11.844528"><ele>320.0</ele><time>2026-04-04T06:41:15.132Z</time></trkpt><trkpt lat="45.8328923" lon="11.8447232"><ele>320.0</ele><time>2026-04-04T06:41:16.132Z</time></trkpt><trkpt lat="45.8328084" lon="11.8449142"><ele>320.0</ele><time>2026-04-04T06:41:17.132Z</time></trkpt><trkpt lat="45.8327392" lon="11.8451056"><ele>320.0</ele><time>2026-04-04T06:41:18.133Z</time></trkpt><trkpt lat="45.8326918" lon="11.8453113"><ele>320.0</ele><time>2026-04-04T06:41:19.132Z</time></trkpt><trkpt lat="45.8326708" lon="11.8455157"><ele>320.0</ele><time>2026-04-04T06:41:20.131Z</time></trkpt><trkpt lat="45.8326824" lon="11.8457214"><ele>320.5</ele><time>2026-04-04T06:41:21.131Z</time></trkpt><trkpt lat="45.832726" lon="11.8459136"><ele>321.0</ele><time>2026-04-04T06:41:22.131Z</time></trkpt><trkpt lat="45.8327965" lon="11.8460796"><ele>321.5</ele><time>2026-04-04T06:41:23.131Z</time></trkpt><trkpt lat="45.8328907" lon="11.8462372"><ele>322.0</ele><time>2026-04-04T06:41:24.132Z</time></trkpt><trkpt lat="45.8329999" lon="11.8463991"><ele>323.0</ele><time>2026-04-04T06:41:25.132Z</time></trkpt><trkpt lat="45.8331189" lon="11.8465648"><ele>324.0</ele><time>2026-04-04T06:41:26.131Z</time></trkpt><trkpt lat="45.8332387" lon="11.8467396"><ele>325.0</ele><time>2026-04-04T06:41:27.131Z</time></trkpt><trkpt lat="45.8333671" lon="11.8469202"><ele>327.3333333333333</ele><time>2026-04-04T06:41:28.132Z</time></trkpt><trkpt lat="45.8335025" lon="11.8471089"><ele>329.6666666666667</ele><time>2026-04-04T06:41:29.132Z</time></trkpt><trkpt lat="45.8336454" lon="11.8472875"><ele>332.0</ele><time>2026-04-04T06:41:30.131Z</time></trkpt><trkpt lat="45.8338028" lon="11.8474486"><ele>332.0</ele><time>2026-04-04T06:41:31.13Z</time></trkpt><trkpt lat="45.8339719" lon="11.8475893"><ele>332.0</ele><time>2026-04-04T06:41:32.131Z</time></trkpt><trkpt lat="45.8341461" lon="11.8477247"><ele>332.0</ele><time>2026-04-04T06:41:33.13Z</time></trkpt><trkpt lat="45.83432" lon="11.8478553"><ele>332.6666666666667</ele><time>2026-04-04T06:41:34.132Z</time></trkpt><trkpt lat="45.8344936" lon="11.8479763"><ele>333.3333333333333</ele><time>2026-04-04T06:41:35.131Z</time></trkpt><trkpt lat="45.8346603" lon="11.8480978"><ele>334.0</ele><time>2026-04-04T06:41:36.132Z</time></trkpt><trkpt lat="45.8348189" lon="11.8482261"><ele>334.0</ele><time>2026-04-04T06:41:37.132Z</time></trkpt><trkpt lat="45.8349624" lon="11.8483739"><ele>334.0</ele><time>2026-04-04T06:41:38.13Z</time></trkpt><trkpt lat="45.8350883" lon="11.8485592"><ele>334.0</ele><time>2026-04-04T06:41:39.131Z</time></trkpt><trkpt lat="45.8352016" lon="11.8487757"><ele>335.66666666666663</ele><time>2026-04-04T06:41:40.131Z</time></trkpt><trkpt lat="45.8352941" lon="11.8490289"><ele>337.3333333333333</ele><time>2026-04-04T06:41:41.132Z</time></trkpt><trkpt lat="45.8353684" lon="11.849305"><ele>339.0</ele><time>2026-04-04T06:41:42.132Z</time></trkpt><trkpt lat="45.8354212" lon="11.8495981"><ele>339.0</ele><time>2026-04-04T06:41:43.133Z</time></trkpt><trkpt lat="45.8354613" lon="11.8498951"><ele>339.0</ele><time>2026-04-04T06:41:44.132Z</time></trkpt><trkpt lat="45.8355052" lon="11.850192"><ele>339.0</ele><time>2026-04-04T06:41:45.132Z</time></trkpt><trkpt lat="45.8355578" lon="11.8504844"><ele>338.6666666666667</ele><time>2026-04-04T06:41:46.132Z</time></trkpt><trkpt lat="45.8356065" lon="11.8507695"><ele>338.33333333333337</ele><time>2026-04-04T06:41:47.13Z</time></trkpt><trkpt lat="45.8356551" lon="11.8510448"><ele>338.0</ele><time>2026-04-04T06:41:48.132Z</time></trkpt><trkpt lat="45.835699" lon="11.8513152"><ele>337.6666666666667</ele><time>2026-04-04T06:41:49.131Z</time></trkpt><trkpt lat="45.8357424" lon="11.8515825"><ele>337.3333333333333</ele><time>2026-04-04T06:41:50.131Z</time></trkpt><trkpt lat="45.8357948" lon="11.8518476"><ele>337.0</ele><time>2026-04-04T06:41:51.132Z</time></trkpt><trkpt lat="45.8358553" lon="11.8521128"><ele>337.0</ele><time>2026-04-04T06:41:52.131Z</time></trkpt><trkpt lat="45.8359259" lon="11.8523757"><ele>337.0</ele><time>2026-04-04T06:41:53.132Z</time></trkpt><trkpt lat="45.8360032" lon="11.8526392"><ele>337.0</ele><time>2026-04-04T06:41:54.132Z</time></trkpt><trkpt lat="45.836085" lon="11.8529055"><ele>338.0</ele><time>2026-04-04T06:41:55.132Z</time></trkpt><trkpt lat="45.8361726" lon="11.8531766"><ele>339.0</ele><time>2026-04-04T06:41:56.132Z</time></trkpt><trkpt lat="45.8362617" lon="11.8534499"><ele>340.0</ele><time>2026-04-04T06:41:57.132Z</time></trkpt><trkpt lat="45.8363476" lon="11.8537308"><ele>340.0</ele><time>2026-04-04T06:41:58.132Z</time></trkpt><trkpt lat="45.8364336" lon="11.8540128"><ele>340.0</ele><time>2026-04-04T06:41:59.131Z</time></trkpt><trkpt lat="45.8365228" lon="11.8542984"><ele>340.0</ele><time>2026-04-04T06:42:00.132Z</time></trkpt><trkpt lat="45.8366162" lon="11.8545844"><ele>339.3333333333333</ele><time>2026-04-04T06:42:01.132Z</time></trkpt><trkpt lat="45.8367097" lon="11.8548549"><ele>338.6666666666667</ele><time>2026-04-04T06:42:02.131Z</time></trkpt><trkpt lat="45.8367957" lon="11.8551298"><ele>338.0</ele><time>2026-04-04T06:42:03.131Z</time></trkpt><trkpt lat="45.8368826" lon="11.8554098"><ele>338.0</ele><time>2026-04-04T06:42:04.133Z</time></trkpt><trkpt lat="45.8369664" lon="11.8556845"><ele>338.0</ele><time>2026-04-04T06:42:05.133Z</time></trkpt><trkpt lat="45.8370553" lon="11.8559541"><ele>338.0</ele><time>2026-04-04T06:42:06.132Z</time></trkpt><trkpt lat="45.8371406" lon="11.8562156"><ele>337.0</ele><time>2026-04-04T06:42:07.13Z</time></trkpt><trkpt lat="45.8372506" lon="11.8564444"><ele>336.0</ele><time>2026-04-04T06:42:08.133Z</time></trkpt><trkpt lat="45.8373698" lon="11.856649"><ele>335.0</ele><time>2026-04-04T06:42:09.131Z</time></trkpt><trkpt lat="45.8374939" lon="11.8568405"><ele>335.0</ele><time>2026-04-04T06:42:10.131Z</time></trkpt><trkpt lat="45.8376282" lon="11.8570095"><ele>335.0</ele><time>2026-04-04T06:42:11.132Z</time></trkpt><trkpt lat="45.837773" lon="11.8571572"><ele>335.0</ele><time>2026-04-04T06:42:12.131Z</time></trkpt><trkpt lat="45.8379234" lon="11.8572799"><ele>335.0</ele><time>2026-04-04T06:42:13.133Z</time></trkpt><trkpt lat="45.8380775" lon="11.8573794"><ele>335.0</ele><time>2026-04-04T06:42:14.132Z</time></trkpt><trkpt lat="45.838228" lon="11.857463"><ele>335.0</ele><time>2026-04-04T06:42:15.131Z</time></trkpt><trkpt lat="45.838377" lon="11.8575464"><ele>335.25</ele><time>2026-04-04T06:42:16.132Z</time></trkpt><trkpt lat="45.8385157" lon="11.8576273"><ele>335.5</ele><time>2026-04-04T06:42:17.131Z</time></trkpt><trkpt lat="45.8386458" lon="11.8577039"><ele>335.75</ele><time>2026-04-04T06:42:18.133Z</time></trkpt><trkpt lat="45.8387793" lon="11.8577821"><ele>336.0</ele><time>2026-04-04T06:42:19.131Z</time></trkpt><trkpt lat="45.8389142" lon="11.857857"><ele>336.0</ele><time>2026-04-04T06:42:20.133Z</time></trkpt><trkpt lat="45.8390627" lon="11.8579292"><ele>336.0</ele><time>2026-04-04T06:42:21.132Z</time></trkpt><trkpt lat="45.8392335" lon="11.8580158"><ele>336.0</ele><time>2026-04-04T06:42:22.132Z</time></trkpt><trkpt lat="45.8394083" lon="11.8581206"><ele>336.3333333333333</ele><time>2026-04-04T06:42:23.131Z</time></trkpt><trkpt lat="45.8395866" lon="11.8582378"><ele>336.66666666666663</ele><time>2026-04-04T06:42:24.132Z</time></trkpt><trkpt lat="45.8397649" lon="11.8583468"><ele>337.0</ele><time>2026-04-04T06:42:25.132Z</time></trkpt><trkpt lat="45.8399392" lon="11.8584541"><ele>337.0</ele><time>2026-04-04T06:42:26.131Z</time></trkpt><trkpt lat="45.840103" lon="11.8585536"><ele>337.0</ele><time>2026-04-04T06:42:27.132Z</time></trkpt><trkpt lat="45.8402591" lon="11.8586477"><ele>337.0</ele><time>2026-04-04T06:42:28.133Z</time></trkpt><trkpt lat="45.8404104" lon="11.8587391"><ele>337.0</ele><time>2026-04-04T06:42:29.131Z</time></trkpt><trkpt lat="45.8405625" lon="11.8588289"><ele>337.0</ele><time>2026-04-04T06:42:30.131Z</time></trkpt><trkpt lat="45.8407154" lon="11.858917"><ele>337.0</ele><time>2026-04-04T06:42:31.133Z</time></trkpt><trkpt lat="45.8408647" lon="11.8590078"><ele>337.0</ele><time>2026-04-04T06:42:32.132Z</time></trkpt><trkpt lat="45.841012" lon="11.8590923"><ele>337.0</ele><time>2026-04-04T06:42:33.133Z</time></trkpt><trkpt lat="45.8411598" lon="11.8591601"><ele>337.0</ele><time>2026-04-04T06:42:34.131Z</time></trkpt><trkpt lat="45.8413055" lon="11.8592019"><ele>337.0</ele><time>2026-04-04T06:42:35.131Z</time></trkpt><trkpt lat="45.8414604" lon="11.8592157"><ele>337.0</ele><time>2026-04-04T06:42:36.131Z</time></trkpt><trkpt lat="45.8416105" lon="11.8591974"><ele>337.0</ele><time>2026-04-04T06:42:37.131Z</time></trkpt><trkpt lat="45.8417509" lon="11.8591498"><ele>336.0</ele><time>2026-04-04T06:42:38.132Z</time></trkpt><trkpt lat="45.8418822" lon="11.8590805"><ele>335.0</ele><time>2026-04-04T06:42:39.131Z</time></trkpt><trkpt lat="45.842" lon="11.8590085"><ele>334.0</ele><time>2026-04-04T06:42:40.132Z</time></trkpt><trkpt lat="45.8421068" lon="11.8589396"><ele>333.0</ele><time>2026-04-04T06:42:41.132Z</time></trkpt><trkpt lat="45.8422079" lon="11.858909"><ele>333.0</ele><time>2026-04-04T06:42:42.131Z</time></trkpt><trkpt lat="45.8422978" lon="11.8589276"><ele>333.0</ele><time>2026-04-04T06:42:43.131Z</time></trkpt><trkpt lat="45.84238" lon="11.8590058"><ele>333.0</ele><time>2026-04-04T06:42:44.132Z</time></trkpt><trkpt lat="45.8424539" lon="11.8591379"><ele>333.0</ele><time>2026-04-04T06:42:45.131Z</time></trkpt><trkpt lat="45.8425185" lon="11.8593031"><ele>333.0</ele><time>2026-04-04T06:42:46.133Z</time></trkpt><trkpt lat="45.8425943" lon="11.8594793"><ele>334.0</ele><time>2026-04-04T06:42:47.132Z</time></trkpt><trkpt lat="45.8426723" lon="11.8596711"><ele>335.0</ele><time>2026-04-04T06:42:48.132Z</time></trkpt><trkpt lat="45.8427597" lon="11.8598738"><ele>336.0</ele><time>2026-04-04T06:42:49.132Z</time></trkpt><trkpt lat="45.8428473" lon="11.8600736"><ele>333.3333333333333</ele><time>2026-04-04T06:42:50.132Z</time></trkpt><trkpt lat="45.8429342" lon="11.8602797"><ele>330.66666666666663</ele><time>2026-04-04T06:42:51.131Z</time></trkpt><trkpt lat="45.8430249" lon="11.8604845"><ele>328.0</ele><time>2026-04-04T06:42:52.132Z</time></trkpt><trkpt lat="45.8431027" lon="11.8606786"><ele>328.0</ele><time>2026-04-04T06:42:53.131Z</time></trkpt><trkpt lat="45.8431772" lon="11.8608539"><ele>328.0</ele><time>2026-04-04T06:42:54.131Z</time></trkpt><trkpt lat="45.8432515" lon="11.8610047"><ele>328.0</ele><time>2026-04-04T06:42:55.132Z</time></trkpt><trkpt lat="45.8433383" lon="11.8611339"><ele>328.0</ele><time>2026-04-04T06:42:56.131Z</time></trkpt><trkpt lat="45.8434378" lon="11.8612334"><ele>324.5</ele><time>2026-04-04T06:42:57.131Z</time></trkpt><trkpt lat="45.8435514" lon="11.8612929"><ele>321.0</ele><time>2026-04-04T06:42:58.132Z</time></trkpt><trkpt lat="45.8436686" lon="11.8613128"><ele>317.5</ele><time>2026-04-04T06:42:59.131Z</time></trkpt><trkpt lat="45.8437839" lon="11.8612963"><ele>314.0</ele><time>2026-04-04T06:43:00.131Z</time></trkpt><trkpt lat="45.8438862" lon="11.8612402"><ele>314.0</ele><time>2026-04-04T06:43:01.132Z</time></trkpt><trkpt lat="45.8439726" lon="11.8611584"><ele>314.0</ele><time>2026-04-04T06:43:02.132Z</time></trkpt><trkpt lat="45.8440395" lon="11.861054"><ele>314.0</ele><time>2026-04-04T06:43:03.132Z</time></trkpt><trkpt lat="45.8440876" lon="11.8609238"><ele>314.0</ele><time>2026-04-04T06:43:04.132Z</time></trkpt><trkpt lat="45.844112" lon="11.8607736"><ele>314.0</ele><time>2026-04-04T06:43:05.132Z</time></trkpt><trkpt lat="45.8441156" lon="11.8606231"><ele>315.4</ele><time>2026-04-04T06:43:06.131Z</time></trkpt><trkpt lat="45.8441021" lon="11.8604665"><ele>316.79999999999995</ele><time>2026-04-04T06:43:07.131Z</time></trkpt><trkpt lat="45.8440853" lon="11.8603155"><ele>318.20000000000005</ele><time>2026-04-04T06:43:08.132Z</time></trkpt><trkpt lat="45.8440611" lon="11.8601754"><ele>319.6</ele><time>2026-04-04T06:43:09.131Z</time></trkpt><trkpt lat="45.844041" lon="11.8600456"><ele>321.0</ele><time>2026-04-04T06:43:10.131Z</time></trkpt><trkpt lat="45.8440415" lon="11.8599116"><ele>321.4</ele><time>2026-04-04T06:43:11.134Z</time></trkpt><trkpt lat="45.8440594" lon="11.8597869"><ele>321.8</ele><time>2026-04-04T06:43:12.132Z</time></trkpt><trkpt lat="45.8441004" lon="11.8596674"><ele>322.2</ele><time>2026-04-04T06:43:13.131Z</time></trkpt><trkpt lat="45.8441429" lon="11.8595525"><ele>322.59999999999997</ele><time>2026-04-04T06:43:14.132Z</time></trkpt><trkpt lat="45.8441867" lon="11.8594434"><ele>323.0</ele><time>2026-04-04T06:43:15.131Z</time></trkpt><trkpt lat="45.8442438" lon="11.8593418"><ele>324.2</ele><time>2026-04-04T06:43:16.132Z</time></trkpt><trkpt lat="45.8443073" lon="11.859246"><ele>325.4</ele><time>2026-04-04T06:43:17.133Z</time></trkpt><trkpt lat="45.8444067" lon="11.8592021"><ele>326.59999999999997</ele><time>2026-04-04T06:43:18.132Z</time></trkpt><trkpt lat="45.8445074" lon="11.859191"><ele>327.79999999999995</ele><time>2026-04-04T06:43:19.133Z</time></trkpt><trkpt lat="45.8446171" lon="11.859224"><ele>329.0</ele><time>2026-04-04T06:43:20.131Z</time></trkpt><trkpt lat="45.8447171" lon="11.8592976"><ele>325.25</ele><time>2026-04-04T06:43:21.131Z</time></trkpt><trkpt lat="45.8448194" lon="11.8593915"><ele>321.5</ele><time>2026-04-04T06:43:22.132Z</time></trkpt><trkpt lat="45.8449181" lon="11.8594811"><ele>317.75</ele><time>2026-04-04T06:43:23.133Z</time></trkpt><trkpt lat="45.8450195" lon="11.8595705"><ele>314.0</ele><time>2026-04-04T06:43:24.131Z</time></trkpt><trkpt lat="45.8451175" lon="11.8596503"><ele>317.2</ele><time>2026-04-04T06:43:25.131Z</time></trkpt><trkpt lat="45.8452102" lon="11.8597257"><ele>320.4</ele><time>2026-04-04T06:43:26.132Z</time></trkpt><trkpt lat="45.8452963" lon="11.8598036"><ele>323.6</ele><time>2026-04-04T06:43:27.131Z</time></trkpt><trkpt lat="45.8453687" lon="11.8598928"><ele>326.8</ele><time>2026-04-04T06:43:28.132Z</time></trkpt><trkpt lat="45.845408" lon="11.86001"><ele>330.0</ele><time>2026-04-04T06:43:29.131Z</time></trkpt><trkpt lat="45.8454274" lon="11.8601387"><ele>330.0</ele><time>2026-04-04T06:43:30.134Z</time></trkpt><trkpt lat="45.84541" lon="11.8602766"><ele>330.0</ele><time>2026-04-04T06:43:31.132Z</time></trkpt><trkpt lat="45.8453549" lon="11.8604222"><ele>330.0</ele><time>2026-04-04T06:43:32.132Z</time></trkpt><trkpt lat="45.8452847" lon="11.8605643"><ele>330.0</ele><time>2026-04-04T06:43:33.132Z</time></trkpt><trkpt lat="45.8452086" lon="11.86071"><ele>330.0</ele><time>2026-04-04T06:43:34.132Z</time></trkpt><trkpt lat="45.845132" lon="11.8608563"><ele>330.0</ele><time>2026-04-04T06:43:35.132Z</time></trkpt><trkpt lat="45.8450598" lon="11.8610055"><ele>330.0</ele><time>2026-04-04T06:43:36.131Z</time></trkpt><trkpt lat="45.8450003" lon="11.8611502"><ele>330.0</ele><time>2026-04-04T06:43:37.132Z</time></trkpt><trkpt lat="45.8449582" lon="11.8613167"><ele>324.0</ele><time>2026-04-04T06:43:38.132Z</time></trkpt><trkpt lat="45.8449307" lon="11.8615029"><ele>318.0</ele><time>2026-04-04T06:43:39.131Z</time></trkpt><trkpt lat="45.8449187" lon="11.8616914"><ele>312.0</ele><time>2026-04-04T06:43:40.133Z</time></trkpt><trkpt lat="45.8449133" lon="11.8618793"><ele>306.0</ele><time>2026-04-04T06:43:41.133Z</time></trkpt><trkpt lat="45.8449081" lon="11.8620795"><ele>305.5</ele><time>2026-04-04T06:43:42.132Z</time></trkpt><trkpt lat="45.8449112" lon="11.8622962"><ele>305.0</ele><time>2026-04-04T06:43:43.132Z</time></trkpt><trkpt lat="45.8449178" lon="11.862494"><ele>304.5</ele><time>2026-04-04T06:43:44.131Z</time></trkpt><trkpt lat="45.8449344" lon="11.8626928"><ele>304.0</ele><time>2026-04-04T06:43:45.132Z</time></trkpt><trkpt lat="45.8449598" lon="11.8628939"><ele>300.3333333333333</ele><time>2026-04-04T06:43:46.131Z</time></trkpt><trkpt lat="45.8449814" lon="11.8631008"><ele>296.6666666666667</ele><time>2026-04-04T06:43:47.131Z</time></trkpt><trkpt lat="45.8450098" lon="11.8633266"><ele>293.0</ele><time>2026-04-04T06:43:48.131Z</time></trkpt><trkpt lat="45.8450458" lon="11.8635959"><ele>289.5</ele><time>2026-04-04T06:43:49.133Z</time></trkpt><trkpt lat="45.8450824" lon="11.8639078"><ele>286.0</ele><time>2026-04-04T06:43:50.131Z</time></trkpt><trkpt lat="45.8451073" lon="11.8642551"><ele>278.5</ele><time>2026-04-04T06:43:51.132Z</time></trkpt><trkpt lat="45.8451306" lon="11.8645869"><ele>271.0</ele><time>2026-04-04T06:43:52.132Z</time></trkpt><trkpt lat="45.8451611" lon="11.8649047"><ele>270.3333333333333</ele><time>2026-04-04T06:43:53.131Z</time></trkpt><trkpt lat="45.8451925" lon="11.8652178"><ele>269.6666666666667</ele><time>2026-04-04T06:43:54.132Z</time></trkpt><trkpt lat="45.8452219" lon="11.8655194"><ele>269.0</ele><time>2026-04-04T06:43:55.133Z</time></trkpt><trkpt lat="45.8452502" lon="11.8658146"><ele>269.33333333333337</ele><time>2026-04-04T06:43:56.132Z</time></trkpt><trkpt lat="45.8452768" lon="11.8660903"><ele>269.6666666666667</ele><time>2026-04-04T06:43:57.131Z</time></trkpt><trkpt lat="45.8453038" lon="11.8663583"><ele>270.0</ele><time>2026-04-04T06:43:58.133Z</time></trkpt><trkpt lat="45.8453466" lon="11.8666111"><ele>268.6666666666667</ele><time>2026-04-04T06:43:59.133Z</time></trkpt><trkpt lat="45.8454086" lon="11.8668562"><ele>267.33333333333337</ele><time>2026-04-04T06:44:00.132Z</time></trkpt><trkpt lat="45.8454834" lon="11.8670848"><ele>266.0</ele><time>2026-04-04T06:44:01.131Z</time></trkpt><trkpt lat="45.8455732" lon="11.8673057"><ele>266.0</ele><time>2026-04-04T06:44:02.131Z</time></trkpt><trkpt lat="45.8456791" lon="11.8675128"><ele>266.0</ele><time>2026-04-04T06:44:03.132Z</time></trkpt><trkpt lat="45.8458052" lon="11.8677039"><ele>266.0</ele><time>2026-04-04T06:44:04.133Z</time></trkpt><trkpt lat="45.8459423" lon="11.867874"><ele>265.6666666666667</ele><time>2026-04-04T06:44:05.131Z</time></trkpt><trkpt lat="45.8460917" lon="11.8680246"><ele>265.3333333333333</ele><time>2026-04-04T06:44:06.132Z</time></trkpt><trkpt lat="45.8462422" lon="11.8681707"><ele>265.0</ele><time>2026-04-04T06:44:07.133Z</time></trkpt><trkpt lat="45.8463975" lon="11.8683064"><ele>265.0</ele><time>2026-04-04T06:44:08.131Z</time></trkpt><trkpt lat="45.8465371" lon="11.8684302"><ele>265.0</ele><time>2026-04-04T06:44:09.132Z</time></trkpt><trkpt lat="45.8466637" lon="11.8685479"><ele>265.0</ele><time>2026-04-04T06:44:10.134Z</time></trkpt><trkpt lat="45.8467919" lon="11.8686626"><ele>264.5</ele><time>2026-04-04T06:44:11.131Z</time></trkpt><trkpt lat="45.8469175" lon="11.8687719"><ele>264.0</ele><time>2026-04-04T06:44:12.132Z</time></trkpt><trkpt lat="45.8470361" lon="11.8688839"><ele>263.5</ele><time>2026-04-04T06:44:13.132Z</time></trkpt><trkpt lat="45.8471593" lon="11.8689827"><ele>263.0</ele><time>2026-04-04T06:44:14.132Z</time></trkpt><trkpt lat="45.8472821" lon="11.8690897"><ele>263.0</ele><time>2026-04-04T06:44:15.132Z</time></trkpt><trkpt lat="45.847407" lon="11.869202"><ele>263.0</ele><time>2026-04-04T06:44:16.132Z</time></trkpt><trkpt lat="45.8475331" lon="11.8693208"><ele>263.0</ele><time>2026-04-04T06:44:17.131Z</time></trkpt><trkpt lat="45.8476661" lon="11.86943"><ele>261.75</ele><time>2026-04-04T06:44:18.133Z</time></trkpt><trkpt lat="45.8477959" lon="11.8695398"><ele>260.5</ele><time>2026-04-04T06:44:19.132Z</time></trkpt><trkpt lat="45.847923" lon="11.8696478"><ele>259.25</ele><time>2026-04-04T06:44:20.131Z</time></trkpt><trkpt lat="45.8480404" lon="11.869751"><ele>258.0</ele><time>2026-04-04T06:44:21.131Z</time></trkpt><trkpt lat="45.8481518" lon="11.8698502"><ele>258.0</ele><time>2026-04-04T06:44:22.131Z</time></trkpt><trkpt lat="45.8482618" lon="11.8699498"><ele>258.0</ele><time>2026-04-04T06:44:23.132Z</time></trkpt><trkpt lat="45.8483714" lon="11.8700501"><ele>258.0</ele><time>2026-04-04T06:44:24.131Z</time></trkpt><trkpt lat="45.8484825" lon="11.8701427"><ele>258.0</ele><time>2026-04-04T06:44:25.132Z</time></trkpt><trkpt lat="45.8486012" lon="11.8702423"><ele>259.25</ele><time>2026-04-04T06:44:26.132Z</time></trkpt><trkpt lat="45.8487185" lon="11.8703433"><ele>260.5</ele><time>2026-04-04T06:44:27.131Z</time></trkpt><trkpt lat="45.84884" lon="11.8704446"><ele>261.75</ele><time>2026-04-04T06:44:28.132Z</time></trkpt><trkpt lat="45.8489614" lon="11.8705476"><ele>263.0</ele><time>2026-04-04T06:44:29.133Z</time></trkpt><trkpt lat="45.8490705" lon="11.8706521"><ele>263.0</ele><time>2026-04-04T06:44:30.132Z</time></trkpt><trkpt lat="45.8491869" lon="11.8707578"><ele>263.0</ele><time>2026-04-04T06:44:31.133Z</time></trkpt><trkpt lat="45.8493092" lon="11.8708708"><ele>263.0</ele><time>2026-04-04T06:44:32.133Z</time></trkpt><trkpt lat="45.8494387" lon="11.8709889"><ele>263.0</ele><time>2026-04-04T06:44:33.132Z</time></trkpt><trkpt lat="45.8495687" lon="11.8711044"><ele>264.0</ele><time>2026-04-04T06:44:34.132Z</time></trkpt><trkpt lat="45.8496945" lon="11.8712244"><ele>265.0</ele><time>2026-04-04T06:44:35.132Z</time></trkpt><trkpt lat="45.849826" lon="11.87134"><ele>266.0</ele><time>2026-04-04T06:44:36.133Z</time></trkpt><trkpt lat="45.8499606" lon="11.8714602"><ele>266.0</ele><time>2026-04-04T06:44:37.132Z</time></trkpt><trkpt lat="45.8500941" lon="11.8715801"><ele>266.0</ele><time>2026-04-04T06:44:38.132Z</time></trkpt><trkpt lat="45.8502211" lon="11.8716949"><ele>266.0</ele><time>2026-04-04T06:44:39.131Z</time></trkpt><trkpt lat="45.850345" lon="11.8718195"><ele>266.0</ele><time>2026-04-04T06:44:40.131Z</time></trkpt><trkpt lat="45.8504645" lon="11.8719565"><ele>266.0</ele><time>2026-04-04T06:44:41.132Z</time></trkpt><trkpt lat="45.8505819" lon="11.8721099"><ele>266.0</ele><time>2026-04-04T06:44:42.132Z</time></trkpt><trkpt lat="45.850691" lon="11.8722828"><ele>266.0</ele><time>2026-04-04T06:44:43.132Z</time></trkpt><trkpt lat="45.8507889" lon="11.872463"><ele>266.0</ele><time>2026-04-04T06:44:44.131Z</time></trkpt><trkpt lat="45.8508742" lon="11.8726534"><ele>266.0</ele><time>2026-04-04T06:44:45.133Z</time></trkpt><trkpt lat="45.8509511" lon="11.8728274"><ele>267.0</ele><time>2026-04-04T06:44:46.131Z</time></trkpt><trkpt lat="45.8510269" lon="11.8729957"><ele>268.0</ele><time>2026-04-04T06:44:47.132Z</time></trkpt><trkpt lat="45.8510975" lon="11.87315"><ele>269.0</ele><time>2026-04-04T06:44:48.133Z</time></trkpt><trkpt lat="45.8511578" lon="11.8732999"><ele>270.0</ele><time>2026-04-04T06:44:49.132Z</time></trkpt><trkpt lat="45.8512049" lon="11.8734505"><ele>270.0</ele><time>2026-04-04T06:44:50.131Z</time></trkpt><trkpt lat="45.8512359" lon="11.8736023"><ele>270.0</ele><time>2026-04-04T06:44:51.132Z</time></trkpt><trkpt lat="45.8512386" lon="11.8737565"><ele>270.0</ele><time>2026-04-04T06:44:52.131Z</time></trkpt><trkpt lat="45.8512128" lon="11.8739101"><ele>270.0</ele><time>2026-04-04T06:44:53.131Z</time></trkpt><trkpt lat="45.8511595" lon="11.8740684"><ele>270.0</ele><time>2026-04-04T06:44:54.132Z</time></trkpt><trkpt lat="45.8510768" lon="11.8742291"><ele>270.0</ele><time>2026-04-04T06:44:55.133Z</time></trkpt><trkpt lat="45.8509745" lon="11.8744032"><ele>270.0</ele><time>2026-04-04T06:44:56.132Z</time></trkpt><trkpt lat="45.8508618" lon="11.8745948"><ele>267.6666666666667</ele><time>2026-04-04T06:44:57.132Z</time></trkpt><trkpt lat="45.8507428" lon="11.8747979"><ele>265.33333333333337</ele><time>2026-04-04T06:44:58.132Z</time></trkpt><trkpt lat="45.8506213" lon="11.8749949"><ele>263.0</ele><time>2026-04-04T06:44:59.132Z</time></trkpt><trkpt lat="45.8504821" lon="11.8751809"><ele>262.33333333333337</ele><time>2026-04-04T06:45:00.132Z</time></trkpt><trkpt lat="45.8503302" lon="11.8753409"><ele>261.6666666666667</ele><time>2026-04-04T06:45:01.132Z</time></trkpt><trkpt lat="45.8501704" lon="11.8754888"><ele>261.0</ele><time>2026-04-04T06:45:02.132Z</time></trkpt><trkpt lat="45.8500033" lon="11.8756328"><ele>260.0</ele><time>2026-04-04T06:45:03.132Z</time></trkpt><trkpt lat="45.849836" lon="11.8757737"><ele>259.0</ele><time>2026-04-04T06:45:04.132Z</time></trkpt><trkpt lat="45.8496708" lon="11.8759138"><ele>258.0</ele><time>2026-04-04T06:45:05.133Z</time></trkpt><trkpt lat="45.8495161" lon="11.8760488"><ele>257.3333333333333</ele><time>2026-04-04T06:45:06.132Z</time></trkpt><trkpt lat="45.8493647" lon="11.876176"><ele>256.66666666666663</ele><time>2026-04-04T06:45:07.132Z</time></trkpt><trkpt lat="45.8492166" lon="11.8763024"><ele>256.0</ele><time>2026-04-04T06:45:08.131Z</time></trkpt><trkpt lat="45.8490703" lon="11.8764235"><ele>254.33333333333331</ele><time>2026-04-04T06:45:09.133Z</time></trkpt><trkpt lat="45.848922" lon="11.8765437"><ele>252.66666666666669</ele><time>2026-04-04T06:45:10.133Z</time></trkpt><trkpt lat="45.8487737" lon="11.8766631"><ele>251.0</ele><time>2026-04-04T06:45:11.132Z</time></trkpt><trkpt lat="45.8486259" lon="11.8767776"><ele>251.0</ele><time>2026-04-04T06:45:12.132Z</time></trkpt><trkpt lat="45.8484884" lon="11.8768983"><ele>251.0</ele><time>2026-04-04T06:45:13.131Z</time></trkpt><trkpt lat="45.8483658" lon="11.8770541"><ele>251.0</ele><time>2026-04-04T06:45:14.133Z</time></trkpt><trkpt lat="45.8482637" lon="11.8772106"><ele>251.0</ele><time>2026-04-04T06:45:15.132Z</time></trkpt><trkpt lat="45.8481895" lon="11.8773903"><ele>251.0</ele><time>2026-04-04T06:45:16.132Z</time></trkpt><trkpt lat="45.8481495" lon="11.8775993"><ele>251.0</ele><time>2026-04-04T06:45:17.132Z</time></trkpt><trkpt lat="45.8481414" lon="11.8778274"><ele>250.33333333333334</ele><time>2026-04-04T06:45:18.132Z</time></trkpt><trkpt lat="45.8481608" lon="11.8780781"><ele>249.66666666666669</ele><time>2026-04-04T06:45:19.132Z</time></trkpt><trkpt lat="45.8481898" lon="11.878348"><ele>249.0</ele><time>2026-04-04T06:45:20.132Z</time></trkpt><trkpt lat="45.8482235" lon="11.8786317"><ele>248.0</ele><time>2026-04-04T06:45:21.131Z</time></trkpt><trkpt lat="45.8482561" lon="11.8789205"><ele>247.0</ele><time>2026-04-04T06:45:22.132Z</time></trkpt><trkpt lat="45.8482872" lon="11.8792163"><ele>246.0</ele><time>2026-04-04T06:45:23.132Z</time></trkpt><trkpt lat="45.8483196" lon="11.8795093"><ele>245.33333333333331</ele><time>2026-04-04T06:45:24.133Z</time></trkpt><trkpt lat="45.8483496" lon="11.8797999"><ele>244.66666666666666</ele><time>2026-04-04T06:45:25.132Z</time></trkpt><trkpt lat="45.848378" lon="11.8800786"><ele>244.0</ele><time>2026-04-04T06:45:26.131Z</time></trkpt><trkpt lat="45.8484095" lon="11.8803468"><ele>243.0</ele><time>2026-04-04T06:45:27.132Z</time></trkpt><trkpt lat="45.8484325" lon="11.8806025"><ele>242.0</ele><time>2026-04-04T06:45:28.133Z</time></trkpt><trkpt lat="45.8484595" lon="11.8808462"><ele>241.0</ele><time>2026-04-04T06:45:29.133Z</time></trkpt><trkpt lat="45.8484837" lon="11.8810783"><ele>240.66666666666666</ele><time>2026-04-04T06:45:30.133Z</time></trkpt><trkpt lat="45.848507" lon="11.8813038"><ele>240.33333333333331</ele><time>2026-04-04T06:45:31.131Z</time></trkpt><trkpt lat="45.8485324" lon="11.8815285"><ele>240.0</ele><time>2026-04-04T06:45:32.133Z</time></trkpt><trkpt lat="45.8485512" lon="11.8817478"><ele>239.33333333333331</ele><time>2026-04-04T06:45:33.132Z</time></trkpt><trkpt lat="45.8485766" lon="11.8819712"><ele>238.66666666666666</ele><time>2026-04-04T06:45:34.133Z</time></trkpt><trkpt lat="45.8485986" lon="11.8821917"><ele>238.0</ele><time>2026-04-04T06:45:35.131Z</time></trkpt><trkpt lat="45.8486229" lon="11.8824165"><ele>238.0</ele><time>2026-04-04T06:45:36.133Z</time></trkpt><trkpt lat="45.8486521" lon="11.8826432"><ele>238.0</ele><time>2026-04-04T06:45:37.132Z</time></trkpt><trkpt lat="45.8486736" lon="11.8828775"><ele>238.0</ele><time>2026-04-04T06:45:38.131Z</time></trkpt><trkpt lat="45.848692" lon="11.8831067"><ele>238.0</ele><time>2026-04-04T06:45:39.132Z</time></trkpt><trkpt lat="45.8487113" lon="11.8833396"><ele>238.0</ele><time>2026-04-04T06:45:40.131Z</time></trkpt><trkpt lat="45.84873" lon="11.883577"><ele>238.0</ele><time>2026-04-04T06:45:41.132Z</time></trkpt><trkpt lat="45.8487534" lon="11.8838034"><ele>237.0</ele><time>2026-04-04T06:45:42.131Z</time></trkpt><trkpt lat="45.8487747" lon="11.8840269"><ele>236.0</ele><time>2026-04-04T06:45:43.133Z</time></trkpt><trkpt lat="45.8488015" lon="11.8842484"><ele>235.0</ele><time>2026-04-04T06:45:44.131Z</time></trkpt><trkpt lat="45.8488385" lon="11.8844692"><ele>234.66666666666666</ele><time>2026-04-04T06:45:45.132Z</time></trkpt><trkpt lat="45.8488808" lon="11.8846898"><ele>234.33333333333331</ele><time>2026-04-04T06:45:46.132Z</time></trkpt><trkpt lat="45.8489309" lon="11.8849131"><ele>234.0</ele><time>2026-04-04T06:45:47.131Z</time></trkpt><trkpt lat="45.8489873" lon="11.8851318"><ele>234.0</ele><time>2026-04-04T06:45:48.132Z</time></trkpt><trkpt lat="45.849046" lon="11.8853551"><ele>234.0</ele><time>2026-04-04T06:45:49.132Z</time></trkpt><trkpt lat="45.8491052" lon="11.88558"><ele>234.0</ele><time>2026-04-04T06:45:50.131Z</time></trkpt><trkpt lat="45.8491571" lon="11.8857962"><ele>233.66666666666669</ele><time>2026-04-04T06:45:51.131Z</time></trkpt><trkpt lat="45.8492103" lon="11.8860078"><ele>233.33333333333334</ele><time>2026-04-04T06:45:52.133Z</time></trkpt><trkpt lat="45.8492634" lon="11.8862218"><ele>233.0</ele><time>2026-04-04T06:45:53.131Z</time></trkpt><trkpt lat="45.8493156" lon="11.8864395"><ele>233.0</ele><time>2026-04-04T06:45:54.132Z</time></trkpt><trkpt lat="45.84936" lon="11.8866486"><ele>233.0</ele><time>2026-04-04T06:45:55.134Z</time></trkpt><trkpt lat="45.8494017" lon="11.886857"><ele>233.0</ele><time>2026-04-04T06:45:56.132Z</time></trkpt><trkpt lat="45.8494302" lon="11.8870659"><ele>232.25</ele><time>2026-04-04T06:45:57.132Z</time></trkpt><trkpt lat="45.8494449" lon="11.8872682"><ele>231.5</ele><time>2026-04-04T06:45:58.132Z</time></trkpt><trkpt lat="45.8494471" lon="11.8874763"><ele>230.75</ele><time>2026-04-04T06:45:59.133Z</time></trkpt><trkpt lat="45.8494271" lon="11.8876693"><ele>230.0</ele><time>2026-04-04T06:46:00.132Z</time></trkpt><trkpt lat="45.8493981" lon="11.8878446"><ele>229.6</ele><time>2026-04-04T06:46:01.132Z</time></trkpt><trkpt lat="45.8493689" lon="11.8880012"><ele>229.2</ele><time>2026-04-04T06:46:02.131Z</time></trkpt><trkpt lat="45.8493608" lon="11.8881496"><ele>228.8</ele><time>2026-04-04T06:46:03.132Z</time></trkpt><trkpt lat="45.8493925" lon="11.8882814"><ele>228.4</ele><time>2026-04-04T06:46:04.132Z</time></trkpt><trkpt lat="45.8494552" lon="11.8883952"><ele>228.0</ele><time>2026-04-04T06:46:05.131Z</time></trkpt><trkpt lat="45.8495451" lon="11.8884779"><ele>227.75</ele><time>2026-04-04T06:46:06.132Z</time></trkpt><trkpt lat="45.849663" lon="11.8885389"><ele>227.5</ele><time>2026-04-04T06:46:07.131Z</time></trkpt><trkpt lat="45.8497898" lon="11.8886088"><ele>227.25</ele><time>2026-04-04T06:46:08.132Z</time></trkpt><trkpt lat="45.849915" lon="11.8887092"><ele>227.0</ele><time>2026-04-04T06:46:09.133Z</time></trkpt><trkpt lat="45.8500358" lon="11.8888437"><ele>227.33333333333334</ele><time>2026-04-04T06:46:10.131Z</time></trkpt><trkpt lat="45.8501481" lon="11.8890073"><ele>227.66666666666669</ele><time>2026-04-04T06:46:11.133Z</time></trkpt><trkpt lat="45.8502623" lon="11.8891952"><ele>228.0</ele><time>2026-04-04T06:46:12.133Z</time></trkpt><trkpt lat="45.8503837" lon="11.8893985"><ele>227.0</ele><time>2026-04-04T06:46:13.132Z</time></trkpt><trkpt lat="45.8505103" lon="11.8896201"><ele>226.0</ele><time>2026-04-04T06:46:14.133Z</time></trkpt><trkpt lat="45.8506416" lon="11.8898545"><ele>225.0</ele><time>2026-04-04T06:46:15.131Z</time></trkpt><trkpt lat="45.850768" lon="11.8901"><ele>224.66666666666669</ele><time>2026-04-04T06:46:16.133Z</time></trkpt><trkpt lat="45.850894" lon="11.8903475"><ele>224.33333333333334</ele><time>2026-04-04T06:46:17.132Z</time></trkpt><trkpt lat="45.8510127" lon="11.8905821"><ele>224.0</ele><time>2026-04-04T06:46:18.132Z</time></trkpt><trkpt lat="45.8511294" lon="11.8908164"><ele>222.66666666666669</ele><time>2026-04-04T06:46:19.132Z</time></trkpt><trkpt lat="45.8512365" lon="11.8910246"><ele>221.33333333333331</ele><time>2026-04-04T06:46:20.132Z</time></trkpt><trkpt lat="45.8513409" lon="11.8912297"><ele>220.0</ele><time>2026-04-04T06:46:21.133Z</time></trkpt><trkpt lat="45.8514437" lon="11.8914272"><ele>220.0</ele><time>2026-04-04T06:46:22.132Z</time></trkpt><trkpt lat="45.8515427" lon="11.8916259"><ele>220.0</ele><time>2026-04-04T06:46:23.132Z</time></trkpt><trkpt lat="45.8516397" lon="11.8918251"><ele>220.0</ele><time>2026-04-04T06:46:24.131Z</time></trkpt><trkpt lat="45.8517258" lon="11.8920207"><ele>219.33333333333331</ele><time>2026-04-04T06:46:25.132Z</time></trkpt><trkpt lat="45.8518091" lon="11.8922296"><ele>218.66666666666669</ele><time>2026-04-04T06:46:26.132Z</time></trkpt><trkpt lat="45.8518924" lon="11.8924455"><ele>218.0</ele><time>2026-04-04T06:46:27.132Z</time></trkpt><trkpt lat="45.8519734" lon="11.892671"><ele>218.0</ele><time>2026-04-04T06:46:28.133Z</time></trkpt><trkpt lat="45.852061" lon="11.8929171"><ele>218.0</ele><time>2026-04-04T06:46:29.132Z</time></trkpt><trkpt lat="45.852142" lon="11.8931882"><ele>218.0</ele><time>2026-04-04T06:46:30.132Z</time></trkpt><trkpt lat="45.8522188" lon="11.8934855"><ele>218.5</ele><time>2026-04-04T06:46:31.132Z</time></trkpt><trkpt lat="45.8522834" lon="11.893795"><ele>219.0</ele><time>2026-04-04T06:46:32.132Z</time></trkpt><trkpt lat="45.8523486" lon="11.8941101"><ele>219.0</ele><time>2026-04-04T06:46:33.133Z</time></trkpt><trkpt lat="45.852415" lon="11.8944218"><ele>219.0</ele><time>2026-04-04T06:46:34.132Z</time></trkpt><trkpt lat="45.8524829" lon="11.8947358"><ele>219.0</ele><time>2026-04-04T06:46:35.133Z</time></trkpt><trkpt lat="45.852553" lon="11.8950468"><ele>219.0</ele><time>2026-04-04T06:46:36.133Z</time></trkpt><trkpt lat="45.8526217" lon="11.8953552"><ele>218.5</ele><time>2026-04-04T06:46:37.133Z</time></trkpt><trkpt lat="45.8526922" lon="11.8956646"><ele>218.0</ele><time>2026-04-04T06:46:38.132Z</time></trkpt><trkpt lat="45.8527617" lon="11.8959837"><ele>218.0</ele><time>2026-04-04T06:46:39.133Z</time></trkpt><trkpt lat="45.8528343" lon="11.8963048"><ele>218.0</ele><time>2026-04-04T06:46:40.132Z</time></trkpt><trkpt lat="45.8529055" lon="11.8966244"><ele>218.0</ele><time>2026-04-04T06:46:41.131Z</time></trkpt><trkpt lat="45.852979" lon="11.8969507"><ele>218.0</ele><time>2026-04-04T06:46:42.132Z</time></trkpt><trkpt lat="45.8530467" lon="11.8972816"><ele>216.5</ele><time>2026-04-04T06:46:43.132Z</time></trkpt><trkpt lat="45.8531104" lon="11.8976123"><ele>215.0</ele><time>2026-04-04T06:46:44.133Z</time></trkpt><trkpt lat="45.8531756" lon="11.8979318"><ele>215.0</ele><time>2026-04-04T06:46:45.132Z</time></trkpt><trkpt lat="45.8532401" lon="11.8982436"><ele>215.0</ele><time>2026-04-04T06:46:46.132Z</time></trkpt><trkpt lat="45.8533085" lon="11.8985514"><ele>214.5</ele><time>2026-04-04T06:46:47.132Z</time></trkpt><trkpt lat="45.8533746" lon="11.8988583"><ele>214.0</ele><time>2026-04-04T06:46:48.133Z</time></trkpt><trkpt lat="45.8534424" lon="11.8991683"><ele>214.66666666666666</ele><time>2026-04-04T06:46:49.132Z</time></trkpt><trkpt lat="45.8534998" lon="11.8994696"><ele>215.33333333333331</ele><time>2026-04-04T06:46:50.132Z</time></trkpt><trkpt lat="45.8535532" lon="11.8997831"><ele>216.0</ele><time>2026-04-04T06:46:51.133Z</time></trkpt><trkpt lat="45.8536" lon="11.9001051"><ele>216.0</ele><time>2026-04-04T06:46:52.133Z</time></trkpt><trkpt lat="45.8536313" lon="11.9004326"><ele>216.0</ele><time>2026-04-04T06:46:53.132Z</time></trkpt><trkpt lat="45.8536497" lon="11.900758"><ele>215.33333333333331</ele><time>2026-04-04T06:46:54.132Z</time></trkpt><trkpt lat="45.8536516" lon="11.9010797"><ele>214.66666666666666</ele><time>2026-04-04T06:46:55.132Z</time></trkpt><trkpt lat="45.8536435" lon="11.9013913"><ele>214.0</ele><time>2026-04-04T06:46:56.132Z</time></trkpt><trkpt lat="45.8536214" lon="11.9016899"><ele>213.66666666666666</ele><time>2026-04-04T06:46:57.131Z</time></trkpt><trkpt lat="45.8535949" lon="11.9019827"><ele>213.33333333333331</ele><time>2026-04-04T06:46:58.133Z</time></trkpt><trkpt lat="45.8535617" lon="11.9022704"><ele>213.0</ele><time>2026-04-04T06:46:59.133Z</time></trkpt><trkpt lat="45.8535353" lon="11.9025601"><ele>213.0</ele><time>2026-04-04T06:47:00.133Z</time></trkpt><trkpt lat="45.8535092" lon="11.9028479"><ele>213.0</ele><time>2026-04-04T06:47:01.134Z</time></trkpt><trkpt lat="45.8534849" lon="11.9031363"><ele>213.0</ele><time>2026-04-04T06:47:02.132Z</time></trkpt><trkpt lat="45.8534674" lon="11.9034194"><ele>212.33333333333331</ele><time>2026-04-04T06:47:03.132Z</time></trkpt><trkpt lat="45.8534556" lon="11.9037051"><ele>211.66666666666666</ele><time>2026-04-04T06:47:04.132Z</time></trkpt><trkpt lat="45.8534578" lon="11.9039942"><ele>211.0</ele><time>2026-04-04T06:47:05.132Z</time></trkpt><trkpt lat="45.8534734" lon="11.9042824"><ele>210.33333333333331</ele><time>2026-04-04T06:47:06.132Z</time></trkpt><trkpt lat="45.8534983" lon="11.9045773"><ele>209.66666666666669</ele><time>2026-04-04T06:47:07.132Z</time></trkpt><trkpt lat="45.8535315" lon="11.9048716"><ele>209.0</ele><time>2026-04-04T06:47:08.133Z</time></trkpt><trkpt lat="45.8535739" lon="11.9051663"><ele>208.66666666666669</ele><time>2026-04-04T06:47:09.132Z</time></trkpt><trkpt lat="45.8536177" lon="11.9054646"><ele>208.33333333333331</ele><time>2026-04-04T06:47:10.132Z</time></trkpt><trkpt lat="45.8536598" lon="11.9057641"><ele>208.0</ele><time>2026-04-04T06:47:11.132Z</time></trkpt><trkpt lat="45.8537025" lon="11.9060654"><ele>208.0</ele><time>2026-04-04T06:47:12.133Z</time></trkpt><trkpt lat="45.8537479" lon="11.9063697"><ele>208.0</ele><time>2026-04-04T06:47:13.133Z</time></trkpt><trkpt lat="45.8537907" lon="11.9066706"><ele>208.0</ele><time>2026-04-04T06:47:14.133Z</time></trkpt><trkpt lat="45.8538345" lon="11.9069753"><ele>208.0</ele><time>2026-04-04T06:47:15.132Z</time></trkpt><trkpt lat="45.8538798" lon="11.907286"><ele>208.0</ele><time>2026-04-04T06:47:16.134Z</time></trkpt><trkpt lat="45.8539199" lon="11.9075963"><ele>208.0</ele><time>2026-04-04T06:47:17.132Z</time></trkpt><trkpt lat="45.8539536" lon="11.9079056"><ele>207.66666666666666</ele><time>2026-04-04T06:47:18.132Z</time></trkpt><trkpt lat="45.8539729" lon="11.9082183"><ele>207.33333333333331</ele><time>2026-04-04T06:47:19.133Z</time></trkpt><trkpt lat="45.85398" lon="11.9085279"><ele>207.0</ele><time>2026-04-04T06:47:20.133Z</time></trkpt><trkpt lat="45.8539787" lon="11.9088421"><ele>206.66666666666669</ele><time>2026-04-04T06:47:21.132Z</time></trkpt><trkpt lat="45.85396" lon="11.9091548"><ele>206.33333333333334</ele><time>2026-04-04T06:47:22.133Z</time></trkpt><trkpt lat="45.8539314" lon="11.9094665"><ele>206.0</ele><time>2026-04-04T06:47:23.133Z</time></trkpt><trkpt lat="45.8538975" lon="11.9097747"><ele>205.33333333333334</ele><time>2026-04-04T06:47:24.133Z</time></trkpt><trkpt lat="45.853864" lon="11.9100922"><ele>204.66666666666669</ele><time>2026-04-04T06:47:25.134Z</time></trkpt><trkpt lat="45.8538309" lon="11.9104073"><ele>204.0</ele><time>2026-04-04T06:47:26.133Z</time></trkpt><trkpt lat="45.8537994" lon="11.9107266"><ele>203.5</ele><time>2026-04-04T06:47:27.133Z</time></trkpt><trkpt lat="45.8537641" lon="11.9110488"><ele>203.0</ele><time>2026-04-04T06:47:28.133Z</time></trkpt><trkpt lat="45.8537288" lon="11.911371"><ele>203.0</ele><time>2026-04-04T06:47:29.132Z</time></trkpt><trkpt lat="45.853694" lon="11.9116945"><ele>203.0</ele><time>2026-04-04T06:47:30.133Z</time></trkpt><trkpt lat="45.8536569" lon="11.9120141"><ele>203.0</ele><time>2026-04-04T06:47:31.132Z</time></trkpt><trkpt lat="45.853623" lon="11.9123322"><ele>203.0</ele><time>2026-04-04T06:47:32.132Z</time></trkpt><trkpt lat="45.8535854" lon="11.9126566"><ele>202.0</ele><time>2026-04-04T06:47:33.133Z</time></trkpt><trkpt lat="45.8535499" lon="11.91298"><ele>201.0</ele><time>2026-04-04T06:47:34.132Z</time></trkpt><trkpt lat="45.8535221" lon="11.9132983"><ele>201.33333333333331</ele><time>2026-04-04T06:47:35.132Z</time></trkpt><trkpt lat="45.8535064" lon="11.9136195"><ele>201.66666666666666</ele><time>2026-04-04T06:47:36.133Z</time></trkpt><trkpt lat="45.8535074" lon="11.9139413"><ele>202.0</ele><time>2026-04-04T06:47:37.132Z</time></trkpt><trkpt lat="45.8535288" lon="11.9142608"><ele>202.0</ele><time>2026-04-04T06:47:38.132Z</time></trkpt><trkpt lat="45.8535592" lon="11.9145839"><ele>202.0</ele><time>2026-04-04T06:47:39.132Z</time></trkpt><trkpt lat="45.8535998" lon="11.9149086"><ele>201.0</ele><time>2026-04-04T06:47:40.132Z</time></trkpt><trkpt lat="45.8536539" lon="11.9152297"><ele>200.0</ele><time>2026-04-04T06:47:41.133Z</time></trkpt><trkpt lat="45.853721" lon="11.9155438"><ele>200.0</ele><time>2026-04-04T06:47:42.133Z</time></trkpt><trkpt lat="45.8538002" lon="11.9158581"><ele>200.0</ele><time>2026-04-04T06:47:43.132Z</time></trkpt><trkpt lat="45.8538843" lon="11.916164"><ele>200.0</ele><time>2026-04-04T06:47:44.132Z</time></trkpt><trkpt lat="45.8539715" lon="11.91647"><ele>200.0</ele><time>2026-04-04T06:47:45.134Z</time></trkpt><trkpt lat="45.8540604" lon="11.9167782"><ele>199.0</ele><time>2026-04-04T06:47:46.133Z</time></trkpt><trkpt lat="45.854146" lon="11.9170959"><ele>198.0</ele><time>2026-04-04T06:47:47.132Z</time></trkpt><trkpt lat="45.8542307" lon="11.917407"><ele>198.5</ele><time>2026-04-04T06:47:48.133Z</time></trkpt><trkpt lat="45.8543199" lon="11.9177202"><ele>199.0</ele><time>2026-04-04T06:47:49.133Z</time></trkpt><trkpt lat="45.8544108" lon="11.9180366"><ele>199.0</ele><time>2026-04-04T06:47:50.132Z</time></trkpt><trkpt lat="45.8544997" lon="11.9183516"><ele>199.0</ele><time>2026-04-04T06:47:51.134Z</time></trkpt><trkpt lat="45.8545907" lon="11.9186654"><ele>199.0</ele><time>2026-04-04T06:47:52.133Z</time></trkpt><trkpt lat="45.8546822" lon="11.9189842"><ele>199.0</ele><time>2026-04-04T06:47:53.133Z</time></trkpt><trkpt lat="45.854772" lon="11.9193069"><ele>199.0</ele><time>2026-04-04T06:47:54.132Z</time></trkpt><trkpt lat="45.8548633" lon="11.9196267"><ele>199.0</ele><time>2026-04-04T06:47:55.134Z</time></trkpt><trkpt lat="45.8549554" lon="11.9199541"><ele>199.5</ele><time>2026-04-04T06:47:56.134Z</time></trkpt><trkpt lat="45.8550491" lon="11.9202801"><ele>200.0</ele><time>2026-04-04T06:47:57.132Z</time></trkpt><trkpt lat="45.8551433" lon="11.9206054"><ele>199.0</ele><time>2026-04-04T06:47:58.133Z</time></trkpt><trkpt lat="45.8552337" lon="11.9209263"><ele>198.0</ele><time>2026-04-04T06:47:59.133Z</time></trkpt><trkpt lat="45.8553264" lon="11.9212527"><ele>198.0</ele><time>2026-04-04T06:48:00.133Z</time></trkpt><trkpt lat="45.8554204" lon="11.921576"><ele>198.0</ele><time>2026-04-04T06:48:01.132Z</time></trkpt><trkpt lat="45.8555165" lon="11.9218994"><ele>197.0</ele><time>2026-04-04T06:48:02.133Z</time></trkpt><trkpt lat="45.8556106" lon="11.9222249"><ele>196.0</ele><time>2026-04-04T06:48:03.133Z</time></trkpt><trkpt lat="45.8557014" lon="11.9225452"><ele>194.5</ele><time>2026-04-04T06:48:04.133Z</time></trkpt><trkpt lat="45.8557915" lon="11.9228676"><ele>193.0</ele><time>2026-04-04T06:48:05.134Z</time></trkpt><trkpt lat="45.855877" lon="11.9231877"><ele>195.5</ele><time>2026-04-04T06:48:06.134Z</time></trkpt><trkpt lat="45.8559683" lon="11.923502"><ele>198.0</ele><time>2026-04-04T06:48:07.133Z</time></trkpt><trkpt lat="45.8560579" lon="11.9238177"><ele>198.0</ele><time>2026-04-04T06:48:08.133Z</time></trkpt><trkpt lat="45.8561492" lon="11.9241308"><ele>198.0</ele><time>2026-04-04T06:48:09.133Z</time></trkpt><trkpt lat="45.8562422" lon="11.9244464"><ele>196.0</ele><time>2026-04-04T06:48:10.132Z</time></trkpt><trkpt lat="45.856332" lon="11.9247547"><ele>194.0</ele><time>2026-04-04T06:48:11.132Z</time></trkpt><trkpt lat="45.8564217" lon="11.925068"><ele>192.5</ele><time>2026-04-04T06:48:12.133Z</time></trkpt><trkpt lat="45.8565098" lon="11.9253815"><ele>191.0</ele><time>2026-04-04T06:48:13.132Z</time></trkpt><trkpt lat="45.8565958" lon="11.9256845"><ele>191.0</ele><time>2026-04-04T06:48:14.133Z</time></trkpt><trkpt lat="45.8566822" lon="11.9260001"><ele>191.0</ele><time>2026-04-04T06:48:15.132Z</time></trkpt><trkpt lat="45.8567655" lon="11.9263159"><ele>192.0</ele><time>2026-04-04T06:48:16.132Z</time></trkpt><trkpt lat="45.8568436" lon="11.9266294"><ele>193.0</ele><time>2026-04-04T06:48:17.132Z</time></trkpt><trkpt lat="45.8569236" lon="11.9269475"><ele>193.5</ele><time>2026-04-04T06:48:18.134Z</time></trkpt><trkpt lat="45.857" lon="11.9272638"><ele>194.0</ele><time>2026-04-04T06:48:19.133Z</time></trkpt><trkpt lat="45.8570779" lon="11.9275796"><ele>195.5</ele><time>2026-04-04T06:48:20.132Z</time></trkpt><trkpt lat="45.857155" lon="11.9278914"><ele>197.0</ele><time>2026-04-04T06:48:21.133Z</time></trkpt><trkpt lat="45.8572313" lon="11.9281915"><ele>195.66666666666669</ele><time>2026-04-04T06:48:22.133Z</time></trkpt><trkpt lat="45.8572995" lon="11.9284621"><ele>194.33333333333331</ele><time>2026-04-04T06:48:23.133Z</time></trkpt><trkpt lat="45.8573672" lon="11.9287277"><ele>193.0</ele><time>2026-04-04T06:48:24.132Z</time></trkpt><trkpt lat="45.8574366" lon="11.929004"><ele>192.0</ele><time>2026-04-04T06:48:25.132Z</time></trkpt><trkpt lat="45.8575035" lon="11.9292894"><ele>191.0</ele><time>2026-04-04T06:48:26.134Z</time></trkpt><trkpt lat="45.8575763" lon="11.9295872"><ele>190.0</ele><time>2026-04-04T06:48:27.132Z</time></trkpt><trkpt lat="45.8576496" lon="11.9298939"><ele>190.0</ele><time>2026-04-04T06:48:28.133Z</time></trkpt><trkpt lat="45.8577247" lon="11.9301979"><ele>190.0</ele><time>2026-04-04T06:48:29.134Z</time></trkpt><trkpt lat="45.8578" lon="11.9304935"><ele>190.0</ele><time>2026-04-04T06:48:30.132Z</time></trkpt><trkpt lat="45.8578682" lon="11.9307634"><ele>189.33333333333334</ele><time>2026-04-04T06:48:31.132Z</time></trkpt><trkpt lat="45.8579306" lon="11.9310138"><ele>188.66666666666666</ele><time>2026-04-04T06:48:32.132Z</time></trkpt><trkpt lat="45.8579921" lon="11.9312502"><ele>188.0</ele><time>2026-04-04T06:48:33.133Z</time></trkpt><trkpt lat="45.85805" lon="11.9314675"><ele>188.0</ele><time>2026-04-04T06:48:34.132Z</time></trkpt><trkpt lat="45.8581083" lon="11.931687"><ele>188.0</ele><time>2026-04-04T06:48:35.133Z</time></trkpt><trkpt lat="45.8581752" lon="11.9319228"><ele>188.0</ele><time>2026-04-04T06:48:36.132Z</time></trkpt><trkpt lat="45.8582489" lon="11.9321799"><ele>188.0</ele><time>2026-04-04T06:48:37.133Z</time></trkpt><trkpt lat="45.8583229" lon="11.9324667"><ele>188.0</ele><time>2026-04-04T06:48:38.133Z</time></trkpt><trkpt lat="45.8584074" lon="11.932779"><ele>188.0</ele><time>2026-04-04T06:48:39.132Z</time></trkpt><trkpt lat="45.8584868" lon="11.9331079"><ele>187.5</ele><time>2026-04-04T06:48:40.133Z</time></trkpt><trkpt lat="45.8585581" lon="11.9334529"><ele>187.0</ele><time>2026-04-04T06:48:41.133Z</time></trkpt><trkpt lat="45.8586324" lon="11.9338026"><ele>187.0</ele><time>2026-04-04T06:48:42.134Z</time></trkpt><trkpt lat="45.8587137" lon="11.9341548"><ele>187.0</ele><time>2026-04-04T06:48:43.133Z</time></trkpt><trkpt lat="45.8587984" lon="11.9345004"><ele>187.0</ele><time>2026-04-04T06:48:44.133Z</time></trkpt><trkpt lat="45.8588793" lon="11.934848"><ele>187.0</ele><time>2026-04-04T06:48:45.132Z</time></trkpt><trkpt lat="45.8589618" lon="11.9351909"><ele>186.5</ele><time>2026-04-04T06:48:46.134Z</time></trkpt><trkpt lat="45.8590437" lon="11.9355261"><ele>186.0</ele><time>2026-04-04T06:48:47.132Z</time></trkpt><trkpt lat="45.8591292" lon="11.9358544"><ele>185.5</ele><time>2026-04-04T06:48:48.133Z</time></trkpt><trkpt lat="45.8592136" lon="11.9361771"><ele>185.0</ele><time>2026-04-04T06:48:49.132Z</time></trkpt><trkpt lat="45.8592904" lon="11.9365008"><ele>188.0</ele><time>2026-04-04T06:48:50.132Z</time></trkpt><trkpt lat="45.8593692" lon="11.9368205"><ele>191.0</ele><time>2026-04-04T06:48:51.132Z</time></trkpt><trkpt lat="45.8594445" lon="11.9371351"><ele>191.0</ele><time>2026-04-04T06:48:52.135Z</time></trkpt><trkpt lat="45.8595222" lon="11.9374547"><ele>191.0</ele><time>2026-04-04T06:48:53.132Z</time></trkpt><trkpt lat="45.8596013" lon="11.937766"><ele>188.5</ele><time>2026-04-04T06:48:54.133Z</time></trkpt><trkpt lat="45.85968" lon="11.9380769"><ele>186.0</ele><time>2026-04-04T06:48:55.132Z</time></trkpt><trkpt lat="45.8597567" lon="11.9383837"><ele>185.5</ele><time>2026-04-04T06:48:56.132Z</time></trkpt><trkpt lat="45.8598348" lon="11.9386941"><ele>185.0</ele><time>2026-04-04T06:48:57.134Z</time></trkpt><trkpt lat="45.8599106" lon="11.9390052"><ele>186.0</ele><time>2026-04-04T06:48:58.133Z</time></trkpt><trkpt lat="45.8599877" lon="11.9393196"><ele>187.0</ele><time>2026-04-04T06:48:59.133Z</time></trkpt><trkpt lat="45.8600668" lon="11.9396279"><ele>187.0</ele><time>2026-04-04T06:49:00.132Z</time></trkpt><trkpt lat="45.8601433" lon="11.9399368"><ele>187.0</ele><time>2026-04-04T06:49:01.133Z</time></trkpt><trkpt lat="45.8602181" lon="11.9402457"><ele>187.0</ele><time>2026-04-04T06:49:02.132Z</time></trkpt><trkpt lat="45.8602897" lon="11.9405527"><ele>187.0</ele><time>2026-04-04T06:49:03.132Z</time></trkpt><trkpt lat="45.8603678" lon="11.9408573"><ele>186.0</ele><time>2026-04-04T06:49:04.133Z</time></trkpt><trkpt lat="45.8604519" lon="11.9411687"><ele>185.0</ele><time>2026-04-04T06:49:05.132Z</time></trkpt><trkpt lat="45.8605383" lon="11.9414766"><ele>185.5</ele><time>2026-04-04T06:49:06.134Z</time></trkpt><trkpt lat="45.8606403" lon="11.9417889"><ele>186.0</ele><time>2026-04-04T06:49:07.132Z</time></trkpt><trkpt lat="45.860745" lon="11.9421049"><ele>186.0</ele><time>2026-04-04T06:49:08.133Z</time></trkpt><trkpt lat="45.8608588" lon="11.9424155"><ele>186.0</ele><time>2026-04-04T06:49:09.132Z</time></trkpt><trkpt lat="45.8609801" lon="11.9427188"><ele>186.5</ele><time>2026-04-04T06:49:10.133Z</time></trkpt><trkpt lat="45.8611065" lon="11.9430149"><ele>187.0</ele><time>2026-04-04T06:49:11.132Z</time></trkpt><trkpt lat="45.8612305" lon="11.9433007"><ele>187.0</ele><time>2026-04-04T06:49:12.134Z</time></trkpt><trkpt lat="45.8613567" lon="11.9435852"><ele>187.0</ele><time>2026-04-04T06:49:13.134Z</time></trkpt><trkpt lat="45.8614895" lon="11.9438599"><ele>187.0</ele><time>2026-04-04T06:49:14.132Z</time></trkpt><trkpt lat="45.8616216" lon="11.9441288"><ele>187.0</ele><time>2026-04-04T06:49:15.134Z</time></trkpt><trkpt lat="45.8617564" lon="11.9443918"><ele>187.0</ele><time>2026-04-04T06:49:16.135Z</time></trkpt><trkpt lat="45.861898" lon="11.9446429"><ele>187.0</ele><time>2026-04-04T06:49:17.133Z</time></trkpt><trkpt lat="45.8620459" lon="11.944884"><ele>187.0</ele><time>2026-04-04T06:49:18.134Z</time></trkpt><trkpt lat="45.8621939" lon="11.9451204"><ele>187.33333333333334</ele><time>2026-04-04T06:49:19.132Z</time></trkpt><trkpt lat="45.8623411" lon="11.9453558"><ele>187.66666666666666</ele><time>2026-04-04T06:49:20.133Z</time></trkpt><trkpt lat="45.8624867" lon="11.9455948"><ele>188.0</ele><time>2026-04-04T06:49:21.133Z</time></trkpt><trkpt lat="45.8626325" lon="11.945837"><ele>188.33333333333331</ele><time>2026-04-04T06:49:22.132Z</time></trkpt><trkpt lat="45.8627767" lon="11.9460745"><ele>188.66666666666666</ele><time>2026-04-04T06:49:23.132Z</time></trkpt><trkpt lat="45.8629237" lon="11.9463169"><ele>189.0</ele><time>2026-04-04T06:49:24.134Z</time></trkpt><trkpt lat="45.8630744" lon="11.9465624"><ele>189.5</ele><time>2026-04-04T06:49:25.132Z</time></trkpt><trkpt lat="45.8632231" lon="11.9468078"><ele>190.0</ele><time>2026-04-04T06:49:26.133Z</time></trkpt><trkpt lat="45.863376" lon="11.9470513"><ele>190.5</ele><time>2026-04-04T06:49:27.133Z</time></trkpt><trkpt lat="45.8635237" lon="11.9472974"><ele>191.0</ele><time>2026-04-04T06:49:28.132Z</time></trkpt><trkpt lat="45.8636768" lon="11.9475449"><ele>190.0</ele><time>2026-04-04T06:49:29.132Z</time></trkpt><trkpt lat="45.8638296" lon="11.9477912"><ele>189.0</ele><time>2026-04-04T06:49:30.133Z</time></trkpt><trkpt lat="45.8639789" lon="11.9480356"><ele>189.0</ele><time>2026-04-04T06:49:31.133Z</time></trkpt><trkpt lat="45.8641293" lon="11.9482775"><ele>189.0</ele><time>2026-04-04T06:49:32.133Z</time></trkpt><trkpt lat="45.8642781" lon="11.9485204"><ele>189.5</ele><time>2026-04-04T06:49:33.133Z</time></trkpt><trkpt lat="45.8644282" lon="11.9487674"><ele>190.0</ele><time>2026-04-04T06:49:34.133Z</time></trkpt><trkpt lat="45.8645757" lon="11.949007"><ele>190.33333333333334</ele><time>2026-04-04T06:49:35.134Z</time></trkpt><trkpt lat="45.8647211" lon="11.9492461"><ele>190.66666666666666</ele><time>2026-04-04T06:49:36.132Z</time></trkpt><trkpt lat="45.8648656" lon="11.9494782"><ele>191.0</ele><time>2026-04-04T06:49:37.134Z</time></trkpt><trkpt lat="45.8650017" lon="11.949697"><ele>191.33333333333331</ele><time>2026-04-04T06:49:38.133Z</time></trkpt><trkpt lat="45.8651301" lon="11.9499004"><ele>191.66666666666666</ele><time>2026-04-04T06:49:39.134Z</time></trkpt><trkpt lat="45.8652557" lon="11.9500967"><ele>192.0</ele><time>2026-04-04T06:49:40.133Z</time></trkpt><trkpt lat="45.8653757" lon="11.9502962"><ele>192.0</ele><time>2026-04-04T06:49:41.134Z</time></trkpt><trkpt lat="45.8655019" lon="11.950504"><ele>192.0</ele><time>2026-04-04T06:49:42.132Z</time></trkpt><trkpt lat="45.8656326" lon="11.950716"><ele>192.0</ele><time>2026-04-04T06:49:43.133Z</time></trkpt><trkpt lat="45.8657641" lon="11.9509378"><ele>192.0</ele><time>2026-04-04T06:49:44.132Z</time></trkpt><trkpt lat="45.8659" lon="11.9511618"><ele>192.0</ele><time>2026-04-04T06:49:45.135Z</time></trkpt><trkpt lat="45.866038" lon="11.9513855"><ele>192.0</ele><time>2026-04-04T06:49:46.133Z</time></trkpt><trkpt lat="45.8661729" lon="11.9516054"><ele>192.0</ele><time>2026-04-04T06:49:47.133Z</time></trkpt><trkpt lat="45.8663086" lon="11.95182"><ele>192.0</ele><time>2026-04-04T06:49:48.133Z</time></trkpt><trkpt lat="45.8664348" lon="11.9520194"><ele>192.0</ele><time>2026-04-04T06:49:49.135Z</time></trkpt><trkpt lat="45.8665487" lon="11.9521989"><ele>192.0</ele><time>2026-04-04T06:49:50.132Z</time></trkpt><trkpt lat="45.8666493" lon="11.9523625"><ele>192.0</ele><time>2026-04-04T06:49:51.133Z</time></trkpt><trkpt lat="45.8667331" lon="11.9525129"><ele>192.0</ele><time>2026-04-04T06:49:52.134Z</time></trkpt><trkpt lat="45.8667958" lon="11.9526612"><ele>192.0</ele><time>2026-04-04T06:49:53.132Z</time></trkpt><trkpt lat="45.8668353" lon="11.9528027"><ele>192.2</ele><time>2026-04-04T06:49:54.134Z</time></trkpt><trkpt lat="45.8668609" lon="11.9529506"><ele>192.39999999999998</ele><time>2026-04-04T06:49:55.133Z</time></trkpt><trkpt lat="45.8669002" lon="11.9530846"><ele>192.60000000000002</ele><time>2026-04-04T06:49:56.133Z</time></trkpt><trkpt lat="45.8669602" lon="11.9531948"><ele>192.8</ele><time>2026-04-04T06:49:57.134Z</time></trkpt><trkpt lat="45.8670389" lon="11.9532801"><ele>193.0</ele><time>2026-04-04T06:49:58.134Z</time></trkpt><trkpt lat="45.8671321" lon="11.9533379"><ele>193.0</ele><time>2026-04-04T06:49:59.133Z</time></trkpt><trkpt lat="45.8672258" lon="11.9534055"><ele>193.0</ele><time>2026-04-04T06:50:00.132Z</time></trkpt><trkpt lat="45.8673132" lon="11.9534893"><ele>193.0</ele><time>2026-04-04T06:50:01.133Z</time></trkpt><trkpt lat="45.8673938" lon="11.9535897"><ele>193.0</ele><time>2026-04-04T06:50:02.133Z</time></trkpt><trkpt lat="45.867468" lon="11.9537044"><ele>193.0</ele><time>2026-04-04T06:50:03.133Z</time></trkpt><trkpt lat="45.8675445" lon="11.9538198"><ele>193.0</ele><time>2026-04-04T06:50:04.134Z</time></trkpt><trkpt lat="45.867622" lon="11.9539373"><ele>193.0</ele><time>2026-04-04T06:50:05.133Z</time></trkpt><trkpt lat="45.8676989" lon="11.9540644"><ele>193.0</ele><time>2026-04-04T06:50:06.133Z</time></trkpt><trkpt lat="45.8677726" lon="11.9541913"><ele>193.0</ele><time>2026-04-04T06:50:07.133Z</time></trkpt><trkpt lat="45.8678539" lon="11.9543208"><ele>192.75</ele><time>2026-04-04T06:50:08.133Z</time></trkpt><trkpt lat="45.8679343" lon="11.9544533"><ele>192.5</ele><time>2026-04-04T06:50:09.132Z</time></trkpt><trkpt lat="45.8680187" lon="11.9545952"><ele>192.25</ele><time>2026-04-04T06:50:10.133Z</time></trkpt><trkpt lat="45.8681134" lon="11.9547482"><ele>192.0</ele><time>2026-04-04T06:50:11.133Z</time></trkpt><trkpt lat="45.8682303" lon="11.9549257"><ele>192.33333333333331</ele><time>2026-04-04T06:50:12.132Z</time></trkpt><trkpt lat="45.8683706" lon="11.9551336"><ele>192.66666666666666</ele><time>2026-04-04T06:50:13.133Z</time></trkpt><trkpt lat="45.8685162" lon="11.9553782"><ele>193.0</ele><time>2026-04-04T06:50:14.133Z</time></trkpt><trkpt lat="45.8686694" lon="11.9556465"><ele>194.5</ele><time>2026-04-04T06:50:15.133Z</time></trkpt><trkpt lat="45.8688375" lon="11.9559267"><ele>196.0</ele><time>2026-04-04T06:50:16.134Z</time></trkpt><trkpt lat="45.8690095" lon="11.9562023"><ele>196.0</ele><time>2026-04-04T06:50:17.133Z</time></trkpt><trkpt lat="45.8691776" lon="11.9564841"><ele>196.0</ele><time>2026-04-04T06:50:18.133Z</time></trkpt><trkpt lat="45.8693355" lon="11.9567565"><ele>197.0</ele><time>2026-04-04T06:50:19.133Z</time></trkpt><trkpt lat="45.8694878" lon="11.9570352"><ele>198.0</ele><time>2026-04-04T06:50:20.132Z</time></trkpt><trkpt lat="45.869635" lon="11.9573165"><ele>198.0</ele><time>2026-04-04T06:50:21.133Z</time></trkpt><trkpt lat="45.8697709" lon="11.9575975"><ele>198.0</ele><time>2026-04-04T06:50:22.133Z</time></trkpt><trkpt lat="45.8699069" lon="11.9578689"><ele>198.0</ele><time>2026-04-04T06:50:23.134Z</time></trkpt><trkpt lat="45.8700385" lon="11.958155"><ele>198.0</ele><time>2026-04-04T06:50:24.133Z</time></trkpt><trkpt lat="45.8701609" lon="11.9584344"><ele>197.0</ele><time>2026-04-04T06:50:25.133Z</time></trkpt><trkpt lat="45.8702768" lon="11.9587178"><ele>196.0</ele><time>2026-04-04T06:50:26.133Z</time></trkpt><trkpt lat="45.8703867" lon="11.9590053"><ele>196.0</ele><time>2026-04-04T06:50:27.133Z</time></trkpt><trkpt lat="45.8704965" lon="11.9592937"><ele>196.0</ele><time>2026-04-04T06:50:28.133Z</time></trkpt><trkpt lat="45.8706043" lon="11.9595802"><ele>196.0</ele><time>2026-04-04T06:50:29.133Z</time></trkpt><trkpt lat="45.8707105" lon="11.9598723"><ele>196.0</ele><time>2026-04-04T06:50:30.134Z</time></trkpt><trkpt lat="45.870816" lon="11.9601601"><ele>197.0</ele><time>2026-04-04T06:50:31.132Z</time></trkpt><trkpt lat="45.8709262" lon="11.9604505"><ele>198.0</ele><time>2026-04-04T06:50:32.132Z</time></trkpt><trkpt lat="45.8710342" lon="11.9607482"><ele>195.5</ele><time>2026-04-04T06:50:33.134Z</time></trkpt><trkpt lat="45.8711421" lon="11.9610454"><ele>193.0</ele><time>2026-04-04T06:50:34.134Z</time></trkpt><trkpt lat="45.8712521" lon="11.9613477"><ele>193.0</ele><time>2026-04-04T06:50:35.134Z</time></trkpt><trkpt lat="45.8713651" lon="11.9616533"><ele>193.0</ele><time>2026-04-04T06:50:36.134Z</time></trkpt><trkpt lat="45.8714807" lon="11.9619609"><ele>190.5</ele><time>2026-04-04T06:50:37.134Z</time></trkpt><trkpt lat="45.8715955" lon="11.9622658"><ele>188.0</ele><time>2026-04-04T06:50:38.134Z</time></trkpt><trkpt lat="45.8717056" lon="11.96256"><ele>188.5</ele><time>2026-04-04T06:50:39.133Z</time></trkpt><trkpt lat="45.8718084" lon="11.9628488"><ele>189.0</ele><time>2026-04-04T06:50:40.134Z</time></trkpt><trkpt lat="45.8719098" lon="11.9631366"><ele>187.66666666666666</ele><time>2026-04-04T06:50:41.134Z</time></trkpt><trkpt lat="45.8720094" lon="11.963422"><ele>186.33333333333331</ele><time>2026-04-04T06:50:42.133Z</time></trkpt><trkpt lat="45.8721112" lon="11.9636997"><ele>185.0</ele><time>2026-04-04T06:50:43.134Z</time></trkpt><trkpt lat="45.8722197" lon="11.9639732"><ele>185.0</ele><time>2026-04-04T06:50:44.133Z</time></trkpt><trkpt lat="45.8723322" lon="11.9642422"><ele>185.0</ele><time>2026-04-04T06:50:45.135Z</time></trkpt><trkpt lat="45.8724612" lon="11.9645028"><ele>185.0</ele><time>2026-04-04T06:50:46.134Z</time></trkpt><trkpt lat="45.8726017" lon="11.9647471"><ele>184.5</ele><time>2026-04-04T06:50:47.134Z</time></trkpt><trkpt lat="45.8727622" lon="11.9649808"><ele>184.0</ele><time>2026-04-04T06:50:48.134Z</time></trkpt><trkpt lat="45.8729308" lon="11.9651969"><ele>181.0</ele><time>2026-04-04T06:50:49.133Z</time></trkpt><trkpt lat="45.8731064" lon="11.965398"><ele>178.0</ele><time>2026-04-04T06:50:50.135Z</time></trkpt><trkpt lat="45.8732854" lon="11.9655732"><ele>175.0</ele><time>2026-04-04T06:50:51.135Z</time></trkpt><trkpt lat="45.8734653" lon="11.9657273"><ele>174.0</ele><time>2026-04-04T06:50:52.134Z</time></trkpt><trkpt lat="45.8736341" lon="11.9658446"><ele>173.0</ele><time>2026-04-04T06:50:53.134Z</time></trkpt><trkpt lat="45.8737979" lon="11.9659158"><ele>172.0</ele><time>2026-04-04T06:50:54.133Z</time></trkpt><trkpt lat="45.8739623" lon="11.9659445"><ele>172.0</ele><time>2026-04-04T06:50:55.133Z</time></trkpt><trkpt lat="45.8741191" lon="11.9659161"><ele>172.0</ele><time>2026-04-04T06:50:56.134Z</time></trkpt><trkpt lat="45.8742632" lon="11.9658376"><ele>172.0</ele><time>2026-04-04T06:50:57.133Z</time></trkpt><trkpt lat="45.8743909" lon="11.9657209"><ele>172.25</ele><time>2026-04-04T06:50:58.133Z</time></trkpt><trkpt lat="45.8744891" lon="11.9655748"><ele>172.5</ele><time>2026-04-04T06:50:59.133Z</time></trkpt><trkpt lat="45.8745803" lon="11.9654136"><ele>172.75</ele><time>2026-04-04T06:51:00.132Z</time></trkpt><trkpt lat="45.8746231" lon="11.9652242"><ele>173.0</ele><time>2026-04-04T06:51:01.133Z</time></trkpt><trkpt lat="45.8746543" lon="11.9650237"><ele>173.0</ele><time>2026-04-04T06:51:02.134Z</time></trkpt><trkpt lat="45.874681" lon="11.9648233"><ele>173.0</ele><time>2026-04-04T06:51:03.133Z</time></trkpt><trkpt lat="45.8747153" lon="11.9646498"><ele>173.0</ele><time>2026-04-04T06:51:04.133Z</time></trkpt><trkpt lat="45.8747915" lon="11.9645308"><ele>173.0</ele><time>2026-04-04T06:51:05.133Z</time></trkpt><trkpt lat="45.8748825" lon="11.9644132"><ele>173.0</ele><time>2026-04-04T06:51:06.133Z</time></trkpt><trkpt lat="45.8749861" lon="11.9642982"><ele>173.0</ele><time>2026-04-04T06:51:07.133Z</time></trkpt><trkpt lat="45.8751023" lon="11.9641903"><ele>173.0</ele><time>2026-04-04T06:51:08.133Z</time></trkpt><trkpt lat="45.8752509" lon="11.9640869"><ele>173.0</ele><time>2026-04-04T06:51:09.135Z</time></trkpt><trkpt lat="45.8754181" lon="11.9639719"><ele>172.66666666666666</ele><time>2026-04-04T06:51:10.134Z</time></trkpt><trkpt lat="45.8756007" lon="11.9638488"><ele>172.33333333333334</ele><time>2026-04-04T06:51:11.133Z</time></trkpt><trkpt lat="45.8757915" lon="11.9637297"><ele>172.0</ele><time>2026-04-04T06:51:12.134Z</time></trkpt><trkpt lat="45.875986" lon="11.9636239"><ele>172.0</ele><time>2026-04-04T06:51:13.134Z</time></trkpt><trkpt lat="45.8761864" lon="11.9635305"><ele>172.0</ele><time>2026-04-04T06:51:14.134Z</time></trkpt><trkpt lat="45.8763882" lon="11.9634581"><ele>172.0</ele><time>2026-04-04T06:51:15.134Z</time></trkpt><trkpt lat="45.8765911" lon="11.9634025"><ele>174.33333333333334</ele><time>2026-04-04T06:51:16.134Z</time></trkpt><trkpt lat="45.8767924" lon="11.9633582"><ele>176.66666666666666</ele><time>2026-04-04T06:51:17.133Z</time></trkpt><trkpt lat="45.876995" lon="11.9633222"><ele>179.0</ele><time>2026-04-04T06:51:18.133Z</time></trkpt><trkpt lat="45.8771995" lon="11.9632836"><ele>179.0</ele><time>2026-04-04T06:51:19.133Z</time></trkpt><trkpt lat="45.877398" lon="11.963249"><ele>179.0</ele><time>2026-04-04T06:51:20.134Z</time></trkpt><trkpt lat="45.8775962" lon="11.963211"><ele>179.0</ele><time>2026-04-04T06:51:21.133Z</time></trkpt><trkpt lat="45.8777905" lon="11.9631728"><ele>178.66666666666666</ele><time>2026-04-04T06:51:22.134Z</time></trkpt><trkpt lat="45.8779819" lon="11.9631333"><ele>178.33333333333334</ele><time>2026-04-04T06:51:23.133Z</time></trkpt><trkpt lat="45.8781742" lon="11.9630988"><ele>178.0</ele><time>2026-04-04T06:51:24.134Z</time></trkpt><trkpt lat="45.878366" lon="11.9630535"><ele>174.66666666666669</ele><time>2026-04-04T06:51:25.134Z</time></trkpt><trkpt lat="45.8785596" lon="11.9630039"><ele>171.33333333333334</ele><time>2026-04-04T06:51:26.134Z</time></trkpt><trkpt lat="45.8787554" lon="11.9629553"><ele>168.0</ele><time>2026-04-04T06:51:27.133Z</time></trkpt><trkpt lat="45.8789497" lon="11.9628973"><ele>168.0</ele><time>2026-04-04T06:51:28.133Z</time></trkpt><trkpt lat="45.8791369" lon="11.9628344"><ele>168.0</ele><time>2026-04-04T06:51:29.133Z</time></trkpt><trkpt lat="45.8793092" lon="11.9627552"><ele>168.0</ele><time>2026-04-04T06:51:30.134Z</time></trkpt><trkpt lat="45.8794759" lon="11.9626547"><ele>169.0</ele><time>2026-04-04T06:51:31.135Z</time></trkpt><trkpt lat="45.8796244" lon="11.9624841"><ele>170.0</ele><time>2026-04-04T06:51:32.133Z</time></trkpt><trkpt lat="45.8797795" lon="11.9623063"><ele>171.0</ele><time>2026-04-04T06:51:33.135Z</time></trkpt><trkpt lat="45.8799365" lon="11.9621098"><ele>171.0</ele><time>2026-04-04T06:51:34.133Z</time></trkpt><trkpt lat="45.8800811" lon="11.9619097"><ele>171.0</ele><time>2026-04-04T06:51:35.134Z</time></trkpt><trkpt lat="45.8802348" lon="11.9617052"><ele>171.0</ele><time>2026-04-04T06:51:36.133Z</time></trkpt><trkpt lat="45.8803945" lon="11.9614988"><ele>171.33333333333334</ele><time>2026-04-04T06:51:37.135Z</time></trkpt><trkpt lat="45.8805473" lon="11.9612872"><ele>171.66666666666669</ele><time>2026-04-04T06:51:38.134Z</time></trkpt><trkpt lat="45.8806915" lon="11.9610609"><ele>172.0</ele><time>2026-04-04T06:51:39.135Z</time></trkpt><trkpt lat="45.8808261" lon="11.9608266"><ele>170.66666666666669</ele><time>2026-04-04T06:51:40.134Z</time></trkpt><trkpt lat="45.8809539" lon="11.9605797"><ele>169.33333333333334</ele><time>2026-04-04T06:51:41.133Z</time></trkpt><trkpt lat="45.881083" lon="11.9603295"><ele>168.0</ele><time>2026-04-04T06:51:42.134Z</time></trkpt><trkpt lat="45.881207" lon="11.9600795"><ele>168.0</ele><time>2026-04-04T06:51:43.134Z</time></trkpt><trkpt lat="45.8813299" lon="11.9598252"><ele>168.0</ele><time>2026-04-04T06:51:44.134Z</time></trkpt><trkpt lat="45.881452" lon="11.9595724"><ele>168.0</ele><time>2026-04-04T06:51:45.134Z</time></trkpt><trkpt lat="45.8815778" lon="11.9593198"><ele>167.0</ele><time>2026-04-04T06:51:46.134Z</time></trkpt><trkpt lat="45.8817056" lon="11.9590734"><ele>166.0</ele><time>2026-04-04T06:51:47.134Z</time></trkpt><trkpt lat="45.8818344" lon="11.958829"><ele>165.0</ele><time>2026-04-04T06:51:48.134Z</time></trkpt><trkpt lat="45.8819678" lon="11.9585911"><ele>166.33333333333334</ele><time>2026-04-04T06:51:49.133Z</time></trkpt><trkpt lat="45.8821082" lon="11.9583578"><ele>167.66666666666669</ele><time>2026-04-04T06:51:50.134Z</time></trkpt><trkpt lat="45.8822494" lon="11.9581243"><ele>169.0</ele><time>2026-04-04T06:51:51.133Z</time></trkpt><trkpt lat="45.8823979" lon="11.9578954"><ele>169.0</ele><time>2026-04-04T06:51:52.134Z</time></trkpt><trkpt lat="45.8825481" lon="11.9576601"><ele>169.0</ele><time>2026-04-04T06:51:53.134Z</time></trkpt><trkpt lat="45.8826996" lon="11.9574204"><ele>169.0</ele><time>2026-04-04T06:51:54.134Z</time></trkpt><trkpt lat="45.882851" lon="11.9571792"><ele>168.5</ele><time>2026-04-04T06:51:55.133Z</time></trkpt><trkpt lat="45.8830017" lon="11.9569368"><ele>168.0</ele><time>2026-04-04T06:51:56.134Z</time></trkpt><trkpt lat="45.8831493" lon="11.9566904"><ele>167.0</ele><time>2026-04-04T06:51:57.135Z</time></trkpt><trkpt lat="45.8832986" lon="11.9564407"><ele>166.0</ele><time>2026-04-04T06:51:58.133Z</time></trkpt><trkpt lat="45.8834403" lon="11.9561889"><ele>166.0</ele><time>2026-04-04T06:51:59.134Z</time></trkpt><trkpt lat="45.8835857" lon="11.9559425"><ele>166.0</ele><time>2026-04-04T06:52:00.133Z</time></trkpt><trkpt lat="45.8837347" lon="11.9556952"><ele>167.5</ele><time>2026-04-04T06:52:01.133Z</time></trkpt><trkpt lat="45.8838834" lon="11.9554461"><ele>169.0</ele><time>2026-04-04T06:52:02.134Z</time></trkpt><trkpt lat="45.88403" lon="11.9551983"><ele>170.0</ele><time>2026-04-04T06:52:03.135Z</time></trkpt><trkpt lat="45.8841761" lon="11.9549547"><ele>171.0</ele><time>2026-04-04T06:52:04.133Z</time></trkpt><trkpt lat="45.8843224" lon="11.9547112"><ele>172.0</ele><time>2026-04-04T06:52:05.133Z</time></trkpt><trkpt lat="45.8844613" lon="11.9544714"><ele>172.0</ele><time>2026-04-04T06:52:06.134Z</time></trkpt><trkpt lat="45.8845937" lon="11.9542369"><ele>172.0</ele><time>2026-04-04T06:52:07.133Z</time></trkpt><trkpt lat="45.8846806" lon="11.9539771"><ele>172.0</ele><time>2026-04-04T06:52:08.133Z</time></trkpt><trkpt lat="45.884747" lon="11.9536993"><ele>172.0</ele><time>2026-04-04T06:52:09.134Z</time></trkpt><trkpt lat="45.884807" lon="11.9534135"><ele>172.0</ele><time>2026-04-04T06:52:10.134Z</time></trkpt><trkpt lat="45.8848561" lon="11.9531298"><ele>172.0</ele><time>2026-04-04T06:52:11.133Z</time></trkpt><trkpt lat="45.8849019" lon="11.9528337"><ele>173.66666666666669</ele><time>2026-04-04T06:52:12.134Z</time></trkpt><trkpt lat="45.8849518" lon="11.952543"><ele>175.33333333333334</ele><time>2026-04-04T06:52:13.134Z</time></trkpt><trkpt lat="45.8850053" lon="11.952248"><ele>177.0</ele><time>2026-04-04T06:52:14.134Z</time></trkpt><trkpt lat="45.8850562" lon="11.9519477"><ele>173.33333333333334</ele><time>2026-04-04T06:52:15.134Z</time></trkpt><trkpt lat="45.8851131" lon="11.951636"><ele>169.66666666666669</ele><time>2026-04-04T06:52:16.135Z</time></trkpt><trkpt lat="45.8851736" lon="11.9513244"><ele>166.0</ele><time>2026-04-04T06:52:17.134Z</time></trkpt><trkpt lat="45.8852421" lon="11.9510146"><ele>164.0</ele><time>2026-04-04T06:52:18.133Z</time></trkpt><trkpt lat="45.885315" lon="11.9507049"><ele>162.0</ele><time>2026-04-04T06:52:19.134Z</time></trkpt><trkpt lat="45.8853823" lon="11.9503946"><ele>162.0</ele><time>2026-04-04T06:52:20.133Z</time></trkpt><trkpt lat="45.8854504" lon="11.9500884"><ele>162.0</ele><time>2026-04-04T06:52:21.134Z</time></trkpt><trkpt lat="45.8855314" lon="11.9497894"><ele>162.0</ele><time>2026-04-04T06:52:22.135Z</time></trkpt><trkpt lat="45.8856257" lon="11.949494"><ele>164.33333333333334</ele><time>2026-04-04T06:52:23.134Z</time></trkpt><trkpt lat="45.8857267" lon="11.9492031"><ele>166.66666666666669</ele><time>2026-04-04T06:52:24.134Z</time></trkpt><trkpt lat="45.8858285" lon="11.9489193"><ele>169.0</ele><time>2026-04-04T06:52:25.134Z</time></trkpt><trkpt lat="45.8859375" lon="11.9486418"><ele>169.0</ele><time>2026-04-04T06:52:26.133Z</time></trkpt><trkpt lat="45.8860527" lon="11.9483739"><ele>169.0</ele><time>2026-04-04T06:52:27.135Z</time></trkpt><trkpt lat="45.8861738" lon="11.9481175"><ele>169.0</ele><time>2026-04-04T06:52:28.134Z</time></trkpt><trkpt lat="45.8863033" lon="11.9478678"><ele>169.0</ele><time>2026-04-04T06:52:29.134Z</time></trkpt><trkpt lat="45.8864407" lon="11.9476285"><ele>169.0</ele><time>2026-04-04T06:52:30.133Z</time></trkpt><trkpt lat="45.8865861" lon="11.9474032"><ele>169.0</ele><time>2026-04-04T06:52:31.133Z</time></trkpt><trkpt lat="45.8867396" lon="11.9472032"><ele>169.33333333333334</ele><time>2026-04-04T06:52:32.133Z</time></trkpt><trkpt lat="45.8869119" lon="11.9470227"><ele>169.66666666666666</ele><time>2026-04-04T06:52:33.135Z</time></trkpt><trkpt lat="45.8870957" lon="11.9468529"><ele>170.0</ele><time>2026-04-04T06:52:34.135Z</time></trkpt><trkpt lat="45.8872788" lon="11.9466899"><ele>170.0</ele><time>2026-04-04T06:52:35.133Z</time></trkpt><trkpt lat="45.8874677" lon="11.9465252"><ele>170.0</ele><time>2026-04-04T06:52:36.134Z</time></trkpt><trkpt lat="45.887654" lon="11.9463622"><ele>170.0</ele><time>2026-04-04T06:52:37.135Z</time></trkpt><trkpt lat="45.8878385" lon="11.946194"><ele>170.0</ele><time>2026-04-04T06:52:38.134Z</time></trkpt><trkpt lat="45.888022" lon="11.9460266"><ele>170.0</ele><time>2026-04-04T06:52:39.133Z</time></trkpt><trkpt lat="45.888204" lon="11.9458592"><ele>170.0</ele><time>2026-04-04T06:52:40.133Z</time></trkpt><trkpt lat="45.8883791" lon="11.9456884"><ele>169.66666666666666</ele><time>2026-04-04T06:52:41.134Z</time></trkpt><trkpt lat="45.8885565" lon="11.9455275"><ele>169.33333333333334</ele><time>2026-04-04T06:52:42.134Z</time></trkpt><trkpt lat="45.8887323" lon="11.9453682"><ele>169.0</ele><time>2026-04-04T06:52:43.134Z</time></trkpt><trkpt lat="45.888907" lon="11.9452117"><ele>169.0</ele><time>2026-04-04T06:52:44.133Z</time></trkpt><trkpt lat="45.8890855" lon="11.9450607"><ele>169.0</ele><time>2026-04-04T06:52:45.136Z</time></trkpt><trkpt lat="45.889263" lon="11.9449051"><ele>169.0</ele><time>2026-04-04T06:52:46.135Z</time></trkpt><trkpt lat="45.8894444" lon="11.9447491"><ele>170.66666666666669</ele><time>2026-04-04T06:52:47.135Z</time></trkpt><trkpt lat="45.8896177" lon="11.9445902"><ele>172.33333333333334</ele><time>2026-04-04T06:52:48.134Z</time></trkpt><trkpt lat="45.8897857" lon="11.9444375"><ele>174.0</ele><time>2026-04-04T06:52:49.134Z</time></trkpt><trkpt lat="45.889953" lon="11.9442912"><ele>174.66666666666666</ele><time>2026-04-04T06:52:50.135Z</time></trkpt><trkpt lat="45.8901263" lon="11.9441641"><ele>175.33333333333331</ele><time>2026-04-04T06:52:51.134Z</time></trkpt><trkpt lat="45.8903107" lon="11.9440605"><ele>176.0</ele><time>2026-04-04T06:52:52.134Z</time></trkpt><trkpt lat="45.8904991" lon="11.9439864"><ele>176.0</ele><time>2026-04-04T06:52:53.133Z</time></trkpt><trkpt lat="45.8906926" lon="11.9439336"><ele>176.0</ele><time>2026-04-04T06:52:54.135Z</time></trkpt><trkpt lat="45.8908907" lon="11.9439011"><ele>176.0</ele><time>2026-04-04T06:52:55.135Z</time></trkpt><trkpt lat="45.8910873" lon="11.9438766"><ele>175.66666666666666</ele><time>2026-04-04T06:52:56.134Z</time></trkpt><trkpt lat="45.8912782" lon="11.9438412"><ele>175.33333333333334</ele><time>2026-04-04T06:52:57.134Z</time></trkpt><trkpt lat="45.8914634" lon="11.9438017"><ele>175.0</ele><time>2026-04-04T06:52:58.134Z</time></trkpt><trkpt lat="45.8916466" lon="11.9437656"><ele>175.33333333333334</ele><time>2026-04-04T06:52:59.133Z</time></trkpt><trkpt lat="45.8918289" lon="11.9437304"><ele>175.66666666666666</ele><time>2026-04-04T06:53:00.134Z</time></trkpt><trkpt lat="45.892012" lon="11.9436843"><ele>176.0</ele><time>2026-04-04T06:53:01.134Z</time></trkpt><trkpt lat="45.8921968" lon="11.943638"><ele>176.0</ele><time>2026-04-04T06:53:02.134Z</time></trkpt><trkpt lat="45.8923841" lon="11.9435671"><ele>176.0</ele><time>2026-04-04T06:53:03.134Z</time></trkpt><trkpt lat="45.8925698" lon="11.9434851"><ele>176.0</ele><time>2026-04-04T06:53:04.134Z</time></trkpt><trkpt lat="45.8927539" lon="11.9433846"><ele>176.66666666666666</ele><time>2026-04-04T06:53:05.136Z</time></trkpt><trkpt lat="45.8929334" lon="11.9432696"><ele>177.33333333333334</ele><time>2026-04-04T06:53:06.133Z</time></trkpt><trkpt lat="45.8931109" lon="11.9431398"><ele>178.0</ele><time>2026-04-04T06:53:07.134Z</time></trkpt><trkpt lat="45.8932853" lon="11.9430078"><ele>175.33333333333334</ele><time>2026-04-04T06:53:08.133Z</time></trkpt><trkpt lat="45.8934676" lon="11.9428715"><ele>172.66666666666666</ele><time>2026-04-04T06:53:09.133Z</time></trkpt><trkpt lat="45.8936503" lon="11.9427403"><ele>170.0</ele><time>2026-04-04T06:53:10.133Z</time></trkpt><trkpt lat="45.8938283" lon="11.9426242"><ele>172.66666666666666</ele><time>2026-04-04T06:53:11.133Z</time></trkpt><trkpt lat="45.8940059" lon="11.9425288"><ele>175.33333333333334</ele><time>2026-04-04T06:53:12.134Z</time></trkpt><trkpt lat="45.8941944" lon="11.942454"><ele>178.0</ele><time>2026-04-04T06:53:13.135Z</time></trkpt><trkpt lat="45.8943883" lon="11.9424059"><ele>178.0</ele><time>2026-04-04T06:53:14.134Z</time></trkpt><trkpt lat="45.8945902" lon="11.9423902"><ele>178.0</ele><time>2026-04-04T06:53:15.134Z</time></trkpt><trkpt lat="45.8947908" lon="11.9424055"><ele>178.0</ele><time>2026-04-04T06:53:16.134Z</time></trkpt><trkpt lat="45.8949947" lon="11.9424397"><ele>179.66666666666669</ele><time>2026-04-04T06:53:17.134Z</time></trkpt><trkpt lat="45.8952046" lon="11.9424692"><ele>181.33333333333334</ele><time>2026-04-04T06:53:18.134Z</time></trkpt><trkpt lat="45.8954087" lon="11.942498"><ele>183.0</ele><time>2026-04-04T06:53:19.133Z</time></trkpt><trkpt lat="45.8956133" lon="11.9425246"><ele>180.66666666666666</ele><time>2026-04-04T06:53:20.135Z</time></trkpt><trkpt lat="45.8958121" lon="11.9425584"><ele>178.33333333333331</ele><time>2026-04-04T06:53:21.133Z</time></trkpt><trkpt lat="45.8960093" lon="11.9425936"><ele>176.0</ele><time>2026-04-04T06:53:22.133Z</time></trkpt><trkpt lat="45.8961786" lon="11.9426237"><ele>176.0</ele><time>2026-04-04T06:53:23.133Z</time></trkpt><trkpt lat="45.8963402" lon="11.9426505"><ele>176.0</ele><time>2026-04-04T06:53:24.135Z</time></trkpt><trkpt lat="45.8965004" lon="11.9426704"><ele>176.0</ele><time>2026-04-04T06:53:25.133Z</time></trkpt><trkpt lat="45.8966546" lon="11.9426899"><ele>175.33333333333331</ele><time>2026-04-04T06:53:26.133Z</time></trkpt><trkpt lat="45.8968098" lon="11.9427082"><ele>174.66666666666666</ele><time>2026-04-04T06:53:27.133Z</time></trkpt><trkpt lat="45.8969698" lon="11.9427222"><ele>174.0</ele><time>2026-04-04T06:53:28.135Z</time></trkpt><trkpt lat="45.8971336" lon="11.9427326"><ele>174.0</ele><time>2026-04-04T06:53:29.134Z</time></trkpt><trkpt lat="45.8972958" lon="11.9427383"><ele>174.0</ele><time>2026-04-04T06:53:30.135Z</time></trkpt><trkpt lat="45.8974626" lon="11.9427303"><ele>174.0</ele><time>2026-04-04T06:53:31.133Z</time></trkpt><trkpt lat="45.8976195" lon="11.9427219"><ele>174.0</ele><time>2026-04-04T06:53:32.133Z</time></trkpt><trkpt lat="45.897774" lon="11.9427104"><ele>174.0</ele><time>2026-04-04T06:53:33.134Z</time></trkpt><trkpt lat="45.8979186" lon="11.9426921"><ele>174.0</ele><time>2026-04-04T06:53:34.135Z</time></trkpt><trkpt lat="45.8980634" lon="11.9426728"><ele>174.0</ele><time>2026-04-04T06:53:35.133Z</time></trkpt><trkpt lat="45.8982139" lon="11.9426538"><ele>174.0</ele><time>2026-04-04T06:53:36.133Z</time></trkpt><trkpt lat="45.8983599" lon="11.942641"><ele>174.0</ele><time>2026-04-04T06:53:37.133Z</time></trkpt><trkpt lat="45.8985026" lon="11.9426344"><ele>174.0</ele><time>2026-04-04T06:53:38.134Z</time></trkpt><trkpt lat="45.8986523" lon="11.9426419"><ele>174.0</ele><time>2026-04-04T06:53:39.135Z</time></trkpt><trkpt lat="45.8987966" lon="11.9426626"><ele>175.5</ele><time>2026-04-04T06:53:40.134Z</time></trkpt><trkpt lat="45.898937" lon="11.9426912"><ele>177.0</ele><time>2026-04-04T06:53:41.135Z</time></trkpt><trkpt lat="45.8990579" lon="11.942729"><ele>178.5</ele><time>2026-04-04T06:53:42.134Z</time></trkpt><trkpt lat="45.8991691" lon="11.9427672"><ele>180.0</ele><time>2026-04-04T06:53:43.133Z</time></trkpt><trkpt lat="45.8992671" lon="11.9428062"><ele>180.66666666666666</ele><time>2026-04-04T06:53:44.134Z</time></trkpt><trkpt lat="45.899352" lon="11.9428628"><ele>181.33333333333334</ele><time>2026-04-04T06:53:45.134Z</time></trkpt><trkpt lat="45.8994181" lon="11.9429353"><ele>182.0</ele><time>2026-04-04T06:53:46.134Z</time></trkpt><trkpt lat="45.8994722" lon="11.9430318"><ele>182.66666666666669</ele><time>2026-04-04T06:53:47.134Z</time></trkpt><trkpt lat="45.8995145" lon="11.9431279"><ele>183.33333333333334</ele><time>2026-04-04T06:53:48.135Z</time></trkpt><trkpt lat="45.8995692" lon="11.943193"><ele>184.0</ele><time>2026-04-04T06:53:49.133Z</time></trkpt><trkpt lat="45.8996377" lon="11.9432207"><ele>184.0</ele><time>2026-04-04T06:53:50.134Z</time></trkpt><trkpt lat="45.8997055" lon="11.9432062"><ele>184.0</ele><time>2026-04-04T06:53:51.135Z</time></trkpt><trkpt lat="45.899763" lon="11.9431611"><ele>184.0</ele><time>2026-04-04T06:53:52.134Z</time></trkpt><trkpt lat="45.8998187" lon="11.9430995"><ele>184.0</ele><time>2026-04-04T06:53:53.134Z</time></trkpt><trkpt lat="45.8998753" lon="11.943045"><ele>184.0</ele><time>2026-04-04T06:53:54.134Z</time></trkpt><trkpt lat="45.900001" lon="11.942995"><ele>184.0</ele><time>2026-04-04T06:53:56.134Z</time></trkpt><trkpt lat="45.9000794" lon="11.9429927"><ele>184.39999999999998</ele><time>2026-04-04T06:53:57.133Z</time></trkpt><trkpt lat="45.9001671" lon="11.9429993"><ele>184.8</ele><time>2026-04-04T06:53:58.133Z</time></trkpt><trkpt lat="45.9002662" lon="11.9429962"><ele>185.2</ele><time>2026-04-04T06:53:59.135Z</time></trkpt><trkpt lat="45.9003784" lon="11.942991"><ele>185.60000000000002</ele><time>2026-04-04T06:54:00.134Z</time></trkpt><trkpt lat="45.9004971" lon="11.9429724"><ele>186.0</ele><time>2026-04-04T06:54:01.135Z</time></trkpt><trkpt lat="45.9006253" lon="11.9429466"><ele>186.0</ele><time>2026-04-04T06:54:02.134Z</time></trkpt><trkpt lat="45.9007614" lon="11.9429177"><ele>186.0</ele><time>2026-04-04T06:54:03.134Z</time></trkpt><trkpt lat="45.9009013" lon="11.942889"><ele>186.0</ele><time>2026-04-04T06:54:04.134Z</time></trkpt><trkpt lat="45.9010298" lon="11.9428587"><ele>186.0</ele><time>2026-04-04T06:54:05.133Z</time></trkpt><trkpt lat="45.9011552" lon="11.9428311"><ele>185.75</ele><time>2026-04-04T06:54:06.135Z</time></trkpt><trkpt lat="45.9012776" lon="11.9428084"><ele>185.5</ele><time>2026-04-04T06:54:07.134Z</time></trkpt><trkpt lat="45.9013981" lon="11.9427857"><ele>185.25</ele><time>2026-04-04T06:54:08.135Z</time></trkpt><trkpt lat="45.9015242" lon="11.9427609"><ele>185.0</ele><time>2026-04-04T06:54:09.136Z</time></trkpt><trkpt lat="45.9016502" lon="11.9427341"><ele>185.75</ele><time>2026-04-04T06:54:10.136Z</time></trkpt><trkpt lat="45.9017793" lon="11.9427055"><ele>186.5</ele><time>2026-04-04T06:54:11.134Z</time></trkpt><trkpt lat="45.9019134" lon="11.942672"><ele>187.25</ele><time>2026-04-04T06:54:12.135Z</time></trkpt><trkpt lat="45.9020495" lon="11.9426319"><ele>188.0</ele><time>2026-04-04T06:54:13.134Z</time></trkpt><trkpt lat="45.9021886" lon="11.9425924"><ele>188.0</ele><time>2026-04-04T06:54:14.135Z</time></trkpt><trkpt lat="45.9023318" lon="11.9425571"><ele>188.0</ele><time>2026-04-04T06:54:15.133Z</time></trkpt><trkpt lat="45.9024733" lon="11.9425181"><ele>188.0</ele><time>2026-04-04T06:54:16.134Z</time></trkpt><trkpt lat="45.9026129" lon="11.9424768"><ele>188.0</ele><time>2026-04-04T06:54:17.135Z</time></trkpt><trkpt lat="45.9027535" lon="11.942435"><ele>188.5</ele><time>2026-04-04T06:54:18.135Z</time></trkpt><trkpt lat="45.9028938" lon="11.9423867"><ele>189.0</ele><time>2026-04-04T06:54:19.136Z</time></trkpt><trkpt lat="45.9030333" lon="11.9423382"><ele>189.5</ele><time>2026-04-04T06:54:20.135Z</time></trkpt><trkpt lat="45.9031657" lon="11.9422837"><ele>190.0</ele><time>2026-04-04T06:54:21.135Z</time></trkpt><trkpt lat="45.9033015" lon="11.9422342"><ele>189.75</ele><time>2026-04-04T06:54:22.134Z</time></trkpt><trkpt lat="45.903433" lon="11.942187"><ele>189.5</ele><time>2026-04-04T06:54:23.135Z</time></trkpt><trkpt lat="45.9035561" lon="11.9421392"><ele>189.25</ele><time>2026-04-04T06:54:24.135Z</time></trkpt><trkpt lat="45.903684" lon="11.9420887"><ele>189.0</ele><time>2026-04-04T06:54:25.133Z</time></trkpt><trkpt lat="45.9038075" lon="11.9420358"><ele>189.0</ele><time>2026-04-04T06:54:26.134Z</time></trkpt><trkpt lat="45.9039231" lon="11.9419822"><ele>189.0</ele><time>2026-04-04T06:54:27.133Z</time></trkpt><trkpt lat="45.9040401" lon="11.9419334"><ele>189.0</ele><time>2026-04-04T06:54:28.136Z</time></trkpt><trkpt lat="45.9041548" lon="11.9418826"><ele>189.0</ele><time>2026-04-04T06:54:29.134Z</time></trkpt><trkpt lat="45.904266" lon="11.941836"><ele>189.25</ele><time>2026-04-04T06:54:30.133Z</time></trkpt><trkpt lat="45.9043748" lon="11.9417944"><ele>189.5</ele><time>2026-04-04T06:54:31.133Z</time></trkpt><trkpt lat="45.9044835" lon="11.9417463"><ele>189.75</ele><time>2026-04-04T06:54:32.133Z</time></trkpt><trkpt lat="45.9045906" lon="11.9416992"><ele>190.0</ele><time>2026-04-04T06:54:33.134Z</time></trkpt><trkpt lat="45.904696" lon="11.9416467"><ele>190.0</ele><time>2026-04-04T06:54:34.133Z</time></trkpt><trkpt lat="45.9047975" lon="11.9416042"><ele>190.0</ele><time>2026-04-04T06:54:35.134Z</time></trkpt><trkpt lat="45.9048816" lon="11.9415613"><ele>190.0</ele><time>2026-04-04T06:54:36.133Z</time></trkpt><trkpt lat="45.9049632" lon="11.9415117"><ele>190.0</ele><time>2026-04-04T06:54:37.134Z</time></trkpt><trkpt lat="45.9050381" lon="11.9414688"><ele>190.0</ele><time>2026-04-04T06:54:38.134Z</time></trkpt><trkpt lat="45.9051144" lon="11.9414359"><ele>190.0</ele><time>2026-04-04T06:54:39.134Z</time></trkpt><trkpt lat="45.905194" lon="11.9414118"><ele>188.6</ele><time>2026-04-04T06:54:40.135Z</time></trkpt><trkpt lat="45.9052895" lon="11.9413992"><ele>187.2</ele><time>2026-04-04T06:54:41.136Z</time></trkpt><trkpt lat="45.9053896" lon="11.9414024"><ele>185.8</ele><time>2026-04-04T06:54:42.134Z</time></trkpt><trkpt lat="45.9055042" lon="11.9414192"><ele>184.4</ele><time>2026-04-04T06:54:43.133Z</time></trkpt><trkpt lat="45.9056206" lon="11.9414532"><ele>183.0</ele><time>2026-04-04T06:54:44.135Z</time></trkpt><trkpt lat="45.9057467" lon="11.9414939"><ele>183.0</ele><time>2026-04-04T06:54:45.133Z</time></trkpt><trkpt lat="45.9058802" lon="11.9415429"><ele>183.0</ele><time>2026-04-04T06:54:46.135Z</time></trkpt><trkpt lat="45.9060204" lon="11.9416058"><ele>183.0</ele><time>2026-04-04T06:54:47.133Z</time></trkpt><trkpt lat="45.906166" lon="11.941675"><ele>183.0</ele><time>2026-04-04T06:54:48.134Z</time></trkpt><trkpt lat="45.9063156" lon="11.941738"><ele>181.33333333333334</ele><time>2026-04-04T06:54:49.135Z</time></trkpt><trkpt lat="45.9064625" lon="11.9418083"><ele>179.66666666666669</ele><time>2026-04-04T06:54:50.135Z</time></trkpt><trkpt lat="45.9066123" lon="11.9418745"><ele>178.0</ele><time>2026-04-04T06:54:51.135Z</time></trkpt><trkpt lat="45.9067645" lon="11.9419456"><ele>178.0</ele><time>2026-04-04T06:54:52.134Z</time></trkpt><trkpt lat="45.906919" lon="11.9420194"><ele>178.0</ele><time>2026-04-04T06:54:53.134Z</time></trkpt><trkpt lat="45.907079" lon="11.9420956"><ele>178.0</ele><time>2026-04-04T06:54:54.133Z</time></trkpt><trkpt lat="45.9072391" lon="11.9421724"><ele>178.0</ele><time>2026-04-04T06:54:55.134Z</time></trkpt><trkpt lat="45.9073974" lon="11.9422428"><ele>178.0</ele><time>2026-04-04T06:54:56.134Z</time></trkpt><trkpt lat="45.9075527" lon="11.942312"><ele>178.0</ele><time>2026-04-04T06:54:57.135Z</time></trkpt><trkpt lat="45.9077067" lon="11.942382"><ele>179.0</ele><time>2026-04-04T06:54:58.134Z</time></trkpt><trkpt lat="45.9078587" lon="11.942437"><ele>180.0</ele><time>2026-04-04T06:54:59.135Z</time></trkpt><trkpt lat="45.9080102" lon="11.9424792"><ele>181.0</ele><time>2026-04-04T06:55:00.134Z</time></trkpt><trkpt lat="45.9081679" lon="11.9424911"><ele>181.0</ele><time>2026-04-04T06:55:01.135Z</time></trkpt><trkpt lat="45.9083244" lon="11.9424826"><ele>181.0</ele><time>2026-04-04T06:55:02.135Z</time></trkpt><trkpt lat="45.9084818" lon="11.9424471"><ele>181.0</ele><time>2026-04-04T06:55:03.134Z</time></trkpt><trkpt lat="45.9086394" lon="11.9423956"><ele>182.33333333333334</ele><time>2026-04-04T06:55:04.134Z</time></trkpt><trkpt lat="45.9087949" lon="11.9423383"><ele>183.66666666666666</ele><time>2026-04-04T06:55:05.134Z</time></trkpt><trkpt lat="45.9089459" lon="11.9422803"><ele>185.0</ele><time>2026-04-04T06:55:06.134Z</time></trkpt><trkpt lat="45.9090898" lon="11.9422251"><ele>185.0</ele><time>2026-04-04T06:55:07.134Z</time></trkpt><trkpt lat="45.9092344" lon="11.9421692"><ele>185.0</ele><time>2026-04-04T06:55:08.135Z</time></trkpt><trkpt lat="45.909381" lon="11.9421214"><ele>185.0</ele><time>2026-04-04T06:55:09.135Z</time></trkpt><trkpt lat="45.9095234" lon="11.9420718"><ele>185.0</ele><time>2026-04-04T06:55:10.135Z</time></trkpt><trkpt lat="45.9096674" lon="11.9420246"><ele>183.66666666666666</ele><time>2026-04-04T06:55:11.133Z</time></trkpt><trkpt lat="45.9098189" lon="11.9419705"><ele>182.33333333333334</ele><time>2026-04-04T06:55:12.135Z</time></trkpt><trkpt lat="45.9099624" lon="11.9419198"><ele>181.0</ele><time>2026-04-04T06:55:13.134Z</time></trkpt><trkpt lat="45.9101158" lon="11.9418633"><ele>180.0</ele><time>2026-04-04T06:55:14.135Z</time></trkpt><trkpt lat="45.9102721" lon="11.9418092"><ele>179.0</ele><time>2026-04-04T06:55:15.135Z</time></trkpt><trkpt lat="45.9104213" lon="11.9417626"><ele>178.0</ele><time>2026-04-04T06:55:16.134Z</time></trkpt><trkpt lat="45.9105762" lon="11.9417189"><ele>182.66666666666669</ele><time>2026-04-04T06:55:17.134Z</time></trkpt><trkpt lat="45.9107337" lon="11.9416769"><ele>187.33333333333334</ele><time>2026-04-04T06:55:18.134Z</time></trkpt><trkpt lat="45.9108927" lon="11.9416379"><ele>192.0</ele><time>2026-04-04T06:55:19.134Z</time></trkpt><trkpt lat="45.9110585" lon="11.9416037"><ele>192.0</ele><time>2026-04-04T06:55:20.134Z</time></trkpt><trkpt lat="45.9112201" lon="11.9415694"><ele>192.0</ele><time>2026-04-04T06:55:21.134Z</time></trkpt><trkpt lat="45.9113847" lon="11.9415396"><ele>192.0</ele><time>2026-04-04T06:55:22.134Z</time></trkpt><trkpt lat="45.911544" lon="11.9415079"><ele>192.0</ele><time>2026-04-04T06:55:23.134Z</time></trkpt><trkpt lat="45.9117011" lon="11.9414737"><ele>192.0</ele><time>2026-04-04T06:55:24.135Z</time></trkpt><trkpt lat="45.9118547" lon="11.9414412"><ele>192.0</ele><time>2026-04-04T06:55:25.134Z</time></trkpt><trkpt lat="45.9120067" lon="11.9414077"><ele>191.33333333333334</ele><time>2026-04-04T06:55:26.134Z</time></trkpt><trkpt lat="45.9121606" lon="11.9413759"><ele>190.66666666666669</ele><time>2026-04-04T06:55:27.135Z</time></trkpt><trkpt lat="45.9123159" lon="11.9413408"><ele>190.0</ele><time>2026-04-04T06:55:28.134Z</time></trkpt><trkpt lat="45.9124702" lon="11.9413129"><ele>191.66666666666669</ele><time>2026-04-04T06:55:29.135Z</time></trkpt><trkpt lat="45.9126257" lon="11.9412954"><ele>193.33333333333334</ele><time>2026-04-04T06:55:30.133Z</time></trkpt><trkpt lat="45.9127907" lon="11.9412899"><ele>195.0</ele><time>2026-04-04T06:55:31.134Z</time></trkpt><trkpt lat="45.9129608" lon="11.9412927"><ele>195.0</ele><time>2026-04-04T06:55:32.134Z</time></trkpt><trkpt lat="45.9131363" lon="11.9413183"><ele>195.0</ele><time>2026-04-04T06:55:33.133Z</time></trkpt><trkpt lat="45.9133125" lon="11.9413435"><ele>195.0</ele><time>2026-04-04T06:55:34.134Z</time></trkpt><trkpt lat="45.9134838" lon="11.9413734"><ele>196.0</ele><time>2026-04-04T06:55:35.135Z</time></trkpt><trkpt lat="45.9136544" lon="11.9414033"><ele>197.0</ele><time>2026-04-04T06:55:36.136Z</time></trkpt><trkpt lat="45.9138184" lon="11.9414321"><ele>198.0</ele><time>2026-04-04T06:55:37.135Z</time></trkpt><trkpt lat="45.9139782" lon="11.9414585"><ele>198.0</ele><time>2026-04-04T06:55:38.136Z</time></trkpt><trkpt lat="45.9141383" lon="11.9414845"><ele>198.0</ele><time>2026-04-04T06:55:39.135Z</time></trkpt><trkpt lat="45.9143005" lon="11.9415068"><ele>198.0</ele><time>2026-04-04T06:55:40.134Z</time></trkpt><trkpt lat="45.9144618" lon="11.9415338"><ele>201.33333333333331</ele><time>2026-04-04T06:55:41.134Z</time></trkpt><trkpt lat="45.9146285" lon="11.9415547"><ele>204.66666666666666</ele><time>2026-04-04T06:55:42.135Z</time></trkpt><trkpt lat="45.914797" lon="11.9415839"><ele>208.0</ele><time>2026-04-04T06:55:43.135Z</time></trkpt><trkpt lat="45.9149723" lon="11.9416132"><ele>210.0</ele><time>2026-04-04T06:55:44.136Z</time></trkpt><trkpt lat="45.9151533" lon="11.941646"><ele>212.0</ele><time>2026-04-04T06:55:45.134Z</time></trkpt><trkpt lat="45.9153348" lon="11.941673"><ele>214.0</ele><time>2026-04-04T06:55:46.134Z</time></trkpt><trkpt lat="45.9155121" lon="11.9417058"><ele>212.66666666666666</ele><time>2026-04-04T06:55:47.134Z</time></trkpt><trkpt lat="45.9156799" lon="11.94174"><ele>211.33333333333331</ele><time>2026-04-04T06:55:48.134Z</time></trkpt><trkpt lat="45.9158372" lon="11.9417665"><ele>210.0</ele><time>2026-04-04T06:55:49.134Z</time></trkpt><trkpt lat="45.9159934" lon="11.9417888"><ele>210.0</ele><time>2026-04-04T06:55:50.135Z</time></trkpt><trkpt lat="45.9161504" lon="11.9418149"><ele>210.0</ele><time>2026-04-04T06:55:51.135Z</time></trkpt><trkpt lat="45.9163107" lon="11.9418371"><ele>210.0</ele><time>2026-04-04T06:55:52.134Z</time></trkpt><trkpt lat="45.9164734" lon="11.9418621"><ele>210.0</ele><time>2026-04-04T06:55:53.135Z</time></trkpt><trkpt lat="45.9166402" lon="11.9418899"><ele>210.0</ele><time>2026-04-04T06:55:54.135Z</time></trkpt><trkpt lat="45.9167961" lon="11.9419159"><ele>210.0</ele><time>2026-04-04T06:55:55.135Z</time></trkpt><trkpt lat="45.9169352" lon="11.9419386"><ele>212.25</ele><time>2026-04-04T06:55:56.135Z</time></trkpt><trkpt lat="45.9170667" lon="11.9419585"><ele>214.5</ele><time>2026-04-04T06:55:57.135Z</time></trkpt><trkpt lat="45.9171828" lon="11.9419777"><ele>216.75</ele><time>2026-04-04T06:55:58.134Z</time></trkpt><trkpt lat="45.917286" lon="11.9419963"><ele>219.0</ele><time>2026-04-04T06:55:59.134Z</time></trkpt><trkpt lat="45.9173841" lon="11.9420099"><ele>219.0</ele><time>2026-04-04T06:56:00.134Z</time></trkpt><trkpt lat="45.9174861" lon="11.9420312"><ele>219.0</ele><time>2026-04-04T06:56:01.134Z</time></trkpt><trkpt lat="45.9175954" lon="11.9420538"><ele>219.0</ele><time>2026-04-04T06:56:02.135Z</time></trkpt><trkpt lat="45.9177078" lon="11.9420836"><ele>219.0</ele><time>2026-04-04T06:56:03.135Z</time></trkpt><trkpt lat="45.9178265" lon="11.9421312"><ele>219.75</ele><time>2026-04-04T06:56:04.136Z</time></trkpt><trkpt lat="45.9179527" lon="11.9421966"><ele>220.5</ele><time>2026-04-04T06:56:05.135Z</time></trkpt><trkpt lat="45.9180811" lon="11.9422723"><ele>221.25</ele><time>2026-04-04T06:56:06.135Z</time></trkpt><trkpt lat="45.9182286" lon="11.9423669"><ele>222.0</ele><time>2026-04-04T06:56:07.134Z</time></trkpt><trkpt lat="45.9183916" lon="11.9424974"><ele>221.0</ele><time>2026-04-04T06:56:08.134Z</time></trkpt><trkpt lat="45.9185776" lon="11.9426569"><ele>220.0</ele><time>2026-04-04T06:56:09.134Z</time></trkpt><trkpt lat="45.918775" lon="11.9428578"><ele>220.0</ele><time>2026-04-04T06:56:10.135Z</time></trkpt><trkpt lat="45.9189794" lon="11.9430899"><ele>220.0</ele><time>2026-04-04T06:56:11.135Z</time></trkpt><trkpt lat="45.919198" lon="11.9433231"><ele>222.5</ele><time>2026-04-04T06:56:12.135Z</time></trkpt><trkpt lat="45.9194171" lon="11.9435422"><ele>225.0</ele><time>2026-04-04T06:56:13.134Z</time></trkpt><trkpt lat="45.9196255" lon="11.9437473"><ele>225.0</ele><time>2026-04-04T06:56:14.135Z</time></trkpt><trkpt lat="45.9198236" lon="11.9439361"><ele>225.0</ele><time>2026-04-04T06:56:15.134Z</time></trkpt><trkpt lat="45.9200066" lon="11.9441113"><ele>225.33333333333331</ele><time>2026-04-04T06:56:16.136Z</time></trkpt><trkpt lat="45.9201872" lon="11.9442766"><ele>225.66666666666666</ele><time>2026-04-04T06:56:17.136Z</time></trkpt><trkpt lat="45.9203507" lon="11.9444427"><ele>226.0</ele><time>2026-04-04T06:56:18.135Z</time></trkpt><trkpt lat="45.9205053" lon="11.9446084"><ele>226.0</ele><time>2026-04-04T06:56:19.134Z</time></trkpt><trkpt lat="45.920661" lon="11.9447736"><ele>226.0</ele><time>2026-04-04T06:56:20.134Z</time></trkpt><trkpt lat="45.9208157" lon="11.9449332"><ele>226.0</ele><time>2026-04-04T06:56:21.134Z</time></trkpt><trkpt lat="45.9209712" lon="11.9450836"><ele>226.0</ele><time>2026-04-04T06:56:22.135Z</time></trkpt><trkpt lat="45.9211359" lon="11.9452167"><ele>226.0</ele><time>2026-04-04T06:56:23.134Z</time></trkpt><trkpt lat="45.9213047" lon="11.945325"><ele>226.0</ele><time>2026-04-04T06:56:24.134Z</time></trkpt><trkpt lat="45.9214823" lon="11.9454129"><ele>226.0</ele><time>2026-04-04T06:56:25.135Z</time></trkpt><trkpt lat="45.9216633" lon="11.9454796"><ele>226.0</ele><time>2026-04-04T06:56:26.135Z</time></trkpt><trkpt lat="45.9218487" lon="11.9455251"><ele>226.0</ele><time>2026-04-04T06:56:27.134Z</time></trkpt><trkpt lat="45.9220415" lon="11.9455479"><ele>226.33333333333331</ele><time>2026-04-04T06:56:28.135Z</time></trkpt><trkpt lat="45.9222366" lon="11.945537"><ele>226.66666666666669</ele><time>2026-04-04T06:56:29.135Z</time></trkpt><trkpt lat="45.9224328" lon="11.9455047"><ele>227.0</ele><time>2026-04-04T06:56:30.134Z</time></trkpt><trkpt lat="45.9226255" lon="11.9454494"><ele>225.33333333333334</ele><time>2026-04-04T06:56:31.135Z</time></trkpt><trkpt lat="45.9228214" lon="11.9453675"><ele>223.66666666666669</ele><time>2026-04-04T06:56:32.135Z</time></trkpt><trkpt lat="45.9230094" lon="11.9452646"><ele>222.0</ele><time>2026-04-04T06:56:33.135Z</time></trkpt><trkpt lat="45.9231826" lon="11.9451421"><ele>223.0</ele><time>2026-04-04T06:56:34.134Z</time></trkpt><trkpt lat="45.9233443" lon="11.945"><ele>224.0</ele><time>2026-04-04T06:56:35.134Z</time></trkpt><trkpt lat="45.9234994" lon="11.9448393"><ele>225.0</ele><time>2026-04-04T06:56:36.135Z</time></trkpt><trkpt lat="45.9236529" lon="11.94467"><ele>225.0</ele><time>2026-04-04T06:56:37.135Z</time></trkpt><trkpt lat="45.9238021" lon="11.9444965"><ele>225.0</ele><time>2026-04-04T06:56:38.134Z</time></trkpt><trkpt lat="45.9239537" lon="11.9443281"><ele>225.0</ele><time>2026-04-04T06:56:39.135Z</time></trkpt><trkpt lat="45.9240987" lon="11.9441633"><ele>225.33333333333331</ele><time>2026-04-04T06:56:40.134Z</time></trkpt><trkpt lat="45.9242441" lon="11.9440059"><ele>225.66666666666666</ele><time>2026-04-04T06:56:41.135Z</time></trkpt><trkpt lat="45.9243951" lon="11.9438451"><ele>226.0</ele><time>2026-04-04T06:56:42.134Z</time></trkpt><trkpt lat="45.9245447" lon="11.9436823"><ele>226.0</ele><time>2026-04-04T06:56:43.135Z</time></trkpt><trkpt lat="45.9246985" lon="11.9435141"><ele>226.0</ele><time>2026-04-04T06:56:44.135Z</time></trkpt><trkpt lat="45.9248518" lon="11.9433418"><ele>226.0</ele><time>2026-04-04T06:56:45.135Z</time></trkpt><trkpt lat="45.925012" lon="11.9431705"><ele>225.0</ele><time>2026-04-04T06:56:46.135Z</time></trkpt><trkpt lat="45.9251626" lon="11.9430048"><ele>224.0</ele><time>2026-04-04T06:56:47.135Z</time></trkpt><trkpt lat="45.9253079" lon="11.9428449"><ele>223.0</ele><time>2026-04-04T06:56:48.135Z</time></trkpt><trkpt lat="45.9254449" lon="11.9426895"><ele>223.66666666666666</ele><time>2026-04-04T06:56:49.134Z</time></trkpt><trkpt lat="45.9255732" lon="11.9425406"><ele>224.33333333333331</ele><time>2026-04-04T06:56:50.134Z</time></trkpt><trkpt lat="45.9256959" lon="11.9423899"><ele>225.0</ele><time>2026-04-04T06:56:51.135Z</time></trkpt><trkpt lat="45.9258193" lon="11.9422378"><ele>222.66666666666669</ele><time>2026-04-04T06:56:52.134Z</time></trkpt><trkpt lat="45.9259435" lon="11.9420881"><ele>220.33333333333334</ele><time>2026-04-04T06:56:53.135Z</time></trkpt><trkpt lat="45.9260587" lon="11.9419248"><ele>218.0</ele><time>2026-04-04T06:56:54.135Z</time></trkpt><trkpt lat="45.9261691" lon="11.9417445"><ele>218.0</ele><time>2026-04-04T06:56:55.134Z</time></trkpt><trkpt lat="45.9262761" lon="11.9415525"><ele>218.0</ele><time>2026-04-04T06:56:56.135Z</time></trkpt><trkpt lat="45.9263828" lon="11.9413567"><ele>218.0</ele><time>2026-04-04T06:56:57.134Z</time></trkpt><trkpt lat="45.926488" lon="11.9411549"><ele>218.0</ele><time>2026-04-04T06:56:58.134Z</time></trkpt><trkpt lat="45.9265878" lon="11.9409437"><ele>218.0</ele><time>2026-04-04T06:56:59.135Z</time></trkpt><trkpt lat="45.9266814" lon="11.9407326"><ele>218.0</ele><time>2026-04-04T06:57:00.135Z</time></trkpt><trkpt lat="45.9267703" lon="11.9405143"><ele>216.33333333333334</ele><time>2026-04-04T06:57:01.134Z</time></trkpt><trkpt lat="45.9268517" lon="11.9402918"><ele>214.66666666666669</ele><time>2026-04-04T06:57:02.135Z</time></trkpt><trkpt lat="45.9269319" lon="11.940067"><ele>213.0</ele><time>2026-04-04T06:57:03.134Z</time></trkpt><trkpt lat="45.9270212" lon="11.9398426"><ele>213.0</ele><time>2026-04-04T06:57:04.134Z</time></trkpt><trkpt lat="45.927106" lon="11.9396095"><ele>213.0</ele><time>2026-04-04T06:57:05.135Z</time></trkpt><trkpt lat="45.9271936" lon="11.9393706"><ele>213.0</ele><time>2026-04-04T06:57:06.134Z</time></trkpt><trkpt lat="45.9272784" lon="11.9391372"><ele>214.0</ele><time>2026-04-04T06:57:07.134Z</time></trkpt><trkpt lat="45.9273648" lon="11.9389089"><ele>215.0</ele><time>2026-04-04T06:57:08.134Z</time></trkpt><trkpt lat="45.9274486" lon="11.9386832"><ele>216.0</ele><time>2026-04-04T06:57:09.135Z</time></trkpt><trkpt lat="45.9275287" lon="11.938464"><ele>213.66666666666669</ele><time>2026-04-04T06:57:10.135Z</time></trkpt><trkpt lat="45.9276065" lon="11.9382584"><ele>211.33333333333334</ele><time>2026-04-04T06:57:11.134Z</time></trkpt><trkpt lat="45.9276787" lon="11.9380623"><ele>209.0</ele><time>2026-04-04T06:57:12.135Z</time></trkpt><trkpt lat="45.9277547" lon="11.9378825"><ele>209.0</ele><time>2026-04-04T06:57:13.134Z</time></trkpt><trkpt lat="45.9278337" lon="11.9377223"><ele>209.0</ele><time>2026-04-04T06:57:14.135Z</time></trkpt><trkpt lat="45.9279099" lon="11.9375701"><ele>209.0</ele><time>2026-04-04T06:57:15.136Z</time></trkpt><trkpt lat="45.9279785" lon="11.9374371"><ele>209.0</ele><time>2026-04-04T06:57:16.134Z</time></trkpt><trkpt lat="45.9280188" lon="11.9373109"><ele>210.00000000000003</ele><time>2026-04-04T06:57:17.135Z</time></trkpt><trkpt lat="45.9280379" lon="11.937191"><ele>211.0</ele><time>2026-04-04T06:57:18.135Z</time></trkpt><trkpt lat="45.9280495" lon="11.9370864"><ele>212.0</ele><time>2026-04-04T06:57:19.135Z</time></trkpt><trkpt lat="45.9280588" lon="11.9369269"><ele>213.0</ele><time>2026-04-04T06:57:21.135Z</time></trkpt><trkpt lat="45.9280537" lon="11.9368165"><ele>214.00000000000003</ele><time>2026-04-04T06:57:23.134Z</time></trkpt><trkpt lat="45.9279875" lon="11.9368415"><ele>215.0</ele><time>2026-04-04T07:03:17.135Z</time></trkpt><trkpt lat="45.927992" lon="11.9369749"><ele>215.00000000000003</ele><time>2026-04-04T07:03:20.135Z</time></trkpt><trkpt lat="45.9280075" lon="11.9371077"><ele>215.0</ele><time>2026-04-04T07:03:23.135Z</time></trkpt><trkpt lat="45.9280145" lon="11.9372276"><ele>215.0</ele><time>2026-04-04T07:03:26.135Z</time></trkpt><trkpt lat="45.9280243" lon="11.9373182"><ele>215.0</ele><time>2026-04-04T07:03:29.136Z</time></trkpt><trkpt lat="45.9279782" lon="11.9374158"><ele>215.00000000000003</ele><time>2026-04-04T07:03:31.135Z</time></trkpt><trkpt lat="45.9279046" lon="11.937546"><ele>215.0</ele><time>2026-04-04T07:03:33.135Z</time></trkpt><trkpt lat="45.9278603" lon="11.9376234"><ele>215.50000000000003</ele><time>2026-04-04T07:03:34.135Z</time></trkpt><trkpt lat="45.9278139" lon="11.9377092"><ele>216.0</ele><time>2026-04-04T07:03:35.136Z</time></trkpt><trkpt lat="45.9277676" lon="11.9377952"><ele>216.5</ele><time>2026-04-04T07:03:36.136Z</time></trkpt><trkpt lat="45.9277201" lon="11.9378925"><ele>217.0</ele><time>2026-04-04T07:03:37.135Z</time></trkpt><trkpt lat="45.9276688" lon="11.9379961"><ele>217.50000000000003</ele><time>2026-04-04T07:03:38.136Z</time></trkpt><trkpt lat="45.9276108" lon="11.9381009"><ele>218.0</ele><time>2026-04-04T07:03:39.135Z</time></trkpt><trkpt lat="45.9275435" lon="11.9382069"><ele>218.0</ele><time>2026-04-04T07:03:40.135Z</time></trkpt><trkpt lat="45.9274701" lon="11.9383126"><ele>218.0</ele><time>2026-04-04T07:03:41.135Z</time></trkpt><trkpt lat="45.9273912" lon="11.9384118"><ele>218.0</ele><time>2026-04-04T07:03:42.135Z</time></trkpt><trkpt lat="45.9273083" lon="11.9385015"><ele>218.0</ele><time>2026-04-04T07:03:43.135Z</time></trkpt><trkpt lat="45.9272207" lon="11.9385781"><ele>218.0</ele><time>2026-04-04T07:03:44.136Z</time></trkpt><trkpt lat="45.9271294" lon="11.938648"><ele>217.60000000000002</ele><time>2026-04-04T07:03:45.136Z</time></trkpt><trkpt lat="45.9270352" lon="11.9387177"><ele>217.20000000000002</ele><time>2026-04-04T07:03:46.135Z</time></trkpt><trkpt lat="45.9269389" lon="11.9387944"><ele>216.8</ele><time>2026-04-04T07:03:47.135Z</time></trkpt><trkpt lat="45.9268467" lon="11.9388829"><ele>216.4</ele><time>2026-04-04T07:03:48.136Z</time></trkpt><trkpt lat="45.9267646" lon="11.9389848"><ele>216.0</ele><time>2026-04-04T07:03:49.136Z</time></trkpt><trkpt lat="45.9266917" lon="11.9391015"><ele>218.0</ele><time>2026-04-04T07:03:50.135Z</time></trkpt><trkpt lat="45.9266308" lon="11.9392381"><ele>220.0</ele><time>2026-04-04T07:03:51.136Z</time></trkpt><trkpt lat="45.9265905" lon="11.9393942"><ele>222.0</ele><time>2026-04-04T07:03:52.137Z</time></trkpt><trkpt lat="45.9265733" lon="11.9395766"><ele>224.0</ele><time>2026-04-04T07:03:53.135Z</time></trkpt><trkpt lat="45.9265737" lon="11.9397683"><ele>224.0</ele><time>2026-04-04T07:03:54.136Z</time></trkpt><trkpt lat="45.9266034" lon="11.9399619"><ele>224.0</ele><time>2026-04-04T07:03:55.135Z</time></trkpt><trkpt lat="45.9266609" lon="11.9401461"><ele>224.0</ele><time>2026-04-04T07:03:56.136Z</time></trkpt><trkpt lat="45.9267416" lon="11.9403029"><ele>224.0</ele><time>2026-04-04T07:03:57.137Z</time></trkpt><trkpt lat="45.926829" lon="11.9404286"><ele>220.79999999999998</ele><time>2026-04-04T07:03:58.135Z</time></trkpt><trkpt lat="45.9269332" lon="11.9404986"><ele>217.59999999999997</ele><time>2026-04-04T07:03:59.135Z</time></trkpt><trkpt lat="45.927032" lon="11.9405521"><ele>214.4</ele><time>2026-04-04T07:04:00.135Z</time></trkpt><trkpt lat="45.9271362" lon="11.9405905"><ele>211.2</ele><time>2026-04-04T07:04:01.135Z</time></trkpt><trkpt lat="45.9272519" lon="11.9406212"><ele>208.0</ele><time>2026-04-04T07:04:02.135Z</time></trkpt><trkpt lat="45.9273758" lon="11.9406471"><ele>208.0</ele><time>2026-04-04T07:04:03.136Z</time></trkpt><trkpt lat="45.9275049" lon="11.9406717"><ele>208.0</ele><time>2026-04-04T07:04:04.135Z</time></trkpt><trkpt lat="45.9276464" lon="11.9406995"><ele>208.0</ele><time>2026-04-04T07:04:05.135Z</time></trkpt><trkpt lat="45.9277958" lon="11.9407289"><ele>208.0</ele><time>2026-04-04T07:04:06.136Z</time></trkpt><trkpt lat="45.9279602" lon="11.9407562"><ele>204.33333333333331</ele><time>2026-04-04T07:04:07.137Z</time></trkpt><trkpt lat="45.9281388" lon="11.940787"><ele>200.66666666666669</ele><time>2026-04-04T07:04:08.135Z</time></trkpt><trkpt lat="45.9283231" lon="11.9408183"><ele>197.0</ele><time>2026-04-04T07:04:09.136Z</time></trkpt><trkpt lat="45.9285082" lon="11.9408445"><ele>194.33333333333334</ele><time>2026-04-04T07:04:10.136Z</time></trkpt><trkpt lat="45.9286989" lon="11.9408769"><ele>191.66666666666669</ele><time>2026-04-04T07:04:11.135Z</time></trkpt><trkpt lat="45.928891" lon="11.9409063"><ele>189.0</ele><time>2026-04-04T07:04:12.135Z</time></trkpt><trkpt lat="45.9290835" lon="11.9409377"><ele>189.33333333333334</ele><time>2026-04-04T07:04:13.135Z</time></trkpt><trkpt lat="45.9292802" lon="11.9409718"><ele>189.66666666666669</ele><time>2026-04-04T07:04:14.137Z</time></trkpt><trkpt lat="45.9294856" lon="11.9410042"><ele>190.0</ele><time>2026-04-04T07:04:15.136Z</time></trkpt><trkpt lat="45.9297038" lon="11.9410391"><ele>190.0</ele><time>2026-04-04T07:04:16.135Z</time></trkpt><trkpt lat="45.9299248" lon="11.9410755"><ele>190.0</ele><time>2026-04-04T07:04:17.136Z</time></trkpt><trkpt lat="45.930144" lon="11.9411149"><ele>190.0</ele><time>2026-04-04T07:04:18.136Z</time></trkpt><trkpt lat="45.9303501" lon="11.9411493"><ele>198.66666666666669</ele><time>2026-04-04T07:04:19.135Z</time></trkpt><trkpt lat="45.9305433" lon="11.9411824"><ele>207.33333333333334</ele><time>2026-04-04T07:04:20.136Z</time></trkpt><trkpt lat="45.9307279" lon="11.9412111"><ele>216.0</ele><time>2026-04-04T07:04:21.136Z</time></trkpt><trkpt lat="45.9309065" lon="11.9412305"><ele>224.66666666666669</ele><time>2026-04-04T07:04:22.135Z</time></trkpt><trkpt lat="45.9310832" lon="11.9412405"><ele>233.33333333333334</ele><time>2026-04-04T07:04:23.136Z</time></trkpt><trkpt lat="45.9312565" lon="11.9412284"><ele>242.0</ele><time>2026-04-04T07:04:24.136Z</time></trkpt><trkpt lat="45.9314267" lon="11.9411971"><ele>242.0</ele><time>2026-04-04T07:04:25.135Z</time></trkpt><trkpt lat="45.9315897" lon="11.9411454"><ele>242.0</ele><time>2026-04-04T07:04:26.136Z</time></trkpt><trkpt lat="45.9317427" lon="11.9410687"><ele>242.0</ele><time>2026-04-04T07:04:27.135Z</time></trkpt><trkpt lat="45.9318866" lon="11.9409691"><ele>238.0</ele><time>2026-04-04T07:04:28.136Z</time></trkpt><trkpt lat="45.9320193" lon="11.9408576"><ele>234.0</ele><time>2026-04-04T07:04:29.135Z</time></trkpt><trkpt lat="45.9321382" lon="11.9407371"><ele>230.0</ele><time>2026-04-04T07:04:30.135Z</time></trkpt><trkpt lat="45.9322518" lon="11.9406084"><ele>226.0</ele><time>2026-04-04T07:04:31.135Z</time></trkpt><trkpt lat="45.9323607" lon="11.9404794"><ele>226.0</ele><time>2026-04-04T07:04:32.135Z</time></trkpt><trkpt lat="45.932463" lon="11.9403549"><ele>226.0</ele><time>2026-04-04T07:04:33.137Z</time></trkpt><trkpt lat="45.9325538" lon="11.9402407"><ele>226.0</ele><time>2026-04-04T07:04:34.135Z</time></trkpt><trkpt lat="45.9326281" lon="11.9401208"><ele>226.0</ele><time>2026-04-04T07:04:35.135Z</time></trkpt><trkpt lat="45.9326869" lon="11.9399915"><ele>225.49999999999997</ele><time>2026-04-04T07:04:36.136Z</time></trkpt><trkpt lat="45.932729" lon="11.9398614"><ele>225.0</ele><time>2026-04-04T07:04:37.136Z</time></trkpt><trkpt lat="45.9327598" lon="11.9397443"><ele>224.5</ele><time>2026-04-04T07:04:38.136Z</time></trkpt><trkpt lat="45.9327973" lon="11.9396513"><ele>224.0</ele><time>2026-04-04T07:04:39.136Z</time></trkpt><trkpt lat="45.9328495" lon="11.9395793"><ele>223.49999999999997</ele><time>2026-04-04T07:04:40.136Z</time></trkpt><trkpt lat="45.9329106" lon="11.9395377"><ele>223.0</ele><time>2026-04-04T07:04:41.136Z</time></trkpt><trkpt lat="45.9329763" lon="11.9395276"><ele>223.0</ele><time>2026-04-04T07:04:42.135Z</time></trkpt><trkpt lat="45.933044" lon="11.9395475"><ele>223.0</ele><time>2026-04-04T07:04:43.135Z</time></trkpt><trkpt lat="45.9331123" lon="11.9395904"><ele>223.0</ele><time>2026-04-04T07:04:44.136Z</time></trkpt><trkpt lat="45.9331832" lon="11.9396346"><ele>223.0</ele><time>2026-04-04T07:04:45.135Z</time></trkpt><trkpt lat="45.9332545" lon="11.9396501"><ele>223.0</ele><time>2026-04-04T07:04:46.136Z</time></trkpt><trkpt lat="45.9333269" lon="11.9396342"><ele>223.0</ele><time>2026-04-04T07:04:47.135Z</time></trkpt><trkpt lat="45.9333904" lon="11.9395768"><ele>223.0</ele><time>2026-04-04T07:04:48.135Z</time></trkpt><trkpt lat="45.9334381" lon="11.9394933"><ele>223.99999999999997</ele><time>2026-04-04T07:04:49.136Z</time></trkpt><trkpt lat="45.9334702" lon="11.9393913"><ele>225.0</ele><time>2026-04-04T07:04:50.135Z</time></trkpt><trkpt lat="45.9334929" lon="11.9392806"><ele>226.0</ele><time>2026-04-04T07:04:51.136Z</time></trkpt><trkpt lat="45.933524" lon="11.939172"><ele>227.0</ele><time>2026-04-04T07:04:52.136Z</time></trkpt><trkpt lat="45.9335758" lon="11.9390728"><ele>227.99999999999997</ele><time>2026-04-04T07:04:53.135Z</time></trkpt><trkpt lat="45.9336483" lon="11.9390015"><ele>229.0</ele><time>2026-04-04T07:04:54.135Z</time></trkpt><trkpt lat="45.9337312" lon="11.938955"><ele>225.75</ele><time>2026-04-04T07:04:55.135Z</time></trkpt><trkpt lat="45.933827" lon="11.9389244"><ele>222.5</ele><time>2026-04-04T07:04:56.135Z</time></trkpt><trkpt lat="45.9339377" lon="11.9388934"><ele>219.25</ele><time>2026-04-04T07:04:57.135Z</time></trkpt><trkpt lat="45.9340654" lon="11.9388416"><ele>216.0</ele><time>2026-04-04T07:04:58.136Z</time></trkpt><trkpt lat="45.9342244" lon="11.9387627"><ele>216.0</ele><time>2026-04-04T07:04:59.135Z</time></trkpt><trkpt lat="45.9344143" lon="11.9386641"><ele>216.0</ele><time>2026-04-04T07:05:00.135Z</time></trkpt><trkpt lat="45.9346291" lon="11.9385681"><ele>216.0</ele><time>2026-04-04T07:05:01.135Z</time></trkpt><trkpt lat="45.9348509" lon="11.9384874"><ele>216.5</ele><time>2026-04-04T07:05:02.135Z</time></trkpt><trkpt lat="45.9350774" lon="11.9383964"><ele>217.0</ele><time>2026-04-04T07:05:03.136Z</time></trkpt><trkpt lat="45.9353007" lon="11.938279"><ele>217.0</ele><time>2026-04-04T07:05:04.136Z</time></trkpt><trkpt lat="45.9355171" lon="11.9381279"><ele>217.0</ele><time>2026-04-04T07:05:05.135Z</time></trkpt><trkpt lat="45.9357192" lon="11.9379436"><ele>217.0</ele><time>2026-04-04T07:05:06.135Z</time></trkpt><trkpt lat="45.9359046" lon="11.9377325"><ele>217.0</ele><time>2026-04-04T07:05:07.135Z</time></trkpt><trkpt lat="45.9360735" lon="11.9375023"><ele>216.0</ele><time>2026-04-04T07:05:08.136Z</time></trkpt><trkpt lat="45.9362213" lon="11.9372503"><ele>215.0</ele><time>2026-04-04T07:05:09.136Z</time></trkpt><trkpt lat="45.9363524" lon="11.9369808"><ele>213.5</ele><time>2026-04-04T07:05:10.135Z</time></trkpt><trkpt lat="45.9364605" lon="11.9366915"><ele>212.0</ele><time>2026-04-04T07:05:11.135Z</time></trkpt><trkpt lat="45.9365508" lon="11.936391"><ele>212.0</ele><time>2026-04-04T07:05:12.135Z</time></trkpt><trkpt lat="45.9366209" lon="11.9360825"><ele>212.0</ele><time>2026-04-04T07:05:13.135Z</time></trkpt><trkpt lat="45.9366732" lon="11.9357747"><ele>212.0</ele><time>2026-04-04T07:05:14.135Z</time></trkpt><trkpt lat="45.9367028" lon="11.9354744"><ele>210.33333333333334</ele><time>2026-04-04T07:05:15.135Z</time></trkpt><trkpt lat="45.9367102" lon="11.9351867"><ele>208.66666666666669</ele><time>2026-04-04T07:05:16.135Z</time></trkpt><trkpt lat="45.9367005" lon="11.9349064"><ele>207.0</ele><time>2026-04-04T07:05:17.135Z</time></trkpt><trkpt lat="45.9366796" lon="11.9346601"><ele>206.33333333333331</ele><time>2026-04-04T07:05:18.135Z</time></trkpt><trkpt lat="45.9366552" lon="11.9344384"><ele>205.66666666666666</ele><time>2026-04-04T07:05:19.136Z</time></trkpt><trkpt lat="45.9366277" lon="11.9342185"><ele>205.0</ele><time>2026-04-04T07:05:20.135Z</time></trkpt><trkpt lat="45.9365991" lon="11.9339931"><ele>205.0</ele><time>2026-04-04T07:05:21.136Z</time></trkpt><trkpt lat="45.9365731" lon="11.9337636"><ele>205.0</ele><time>2026-04-04T07:05:22.135Z</time></trkpt><trkpt lat="45.9365431" lon="11.9335248"><ele>205.0</ele><time>2026-04-04T07:05:23.135Z</time></trkpt><trkpt lat="45.936511" lon="11.9332735"><ele>205.0</ele><time>2026-04-04T07:05:24.137Z</time></trkpt><trkpt lat="45.9364768" lon="11.9330087"><ele>205.0</ele><time>2026-04-04T07:05:25.135Z</time></trkpt><trkpt lat="45.9364417" lon="11.932735"><ele>205.0</ele><time>2026-04-04T07:05:26.136Z</time></trkpt><trkpt lat="45.9364044" lon="11.9324524"><ele>206.33333333333331</ele><time>2026-04-04T07:05:27.136Z</time></trkpt><trkpt lat="45.9363664" lon="11.9321621"><ele>207.66666666666669</ele><time>2026-04-04T07:05:28.136Z</time></trkpt><trkpt lat="45.9363301" lon="11.9318695"><ele>209.0</ele><time>2026-04-04T07:05:29.135Z</time></trkpt><trkpt lat="45.9363041" lon="11.9315683"><ele>209.0</ele><time>2026-04-04T07:05:30.136Z</time></trkpt><trkpt lat="45.9362918" lon="11.9312546"><ele>209.0</ele><time>2026-04-04T07:05:31.135Z</time></trkpt><trkpt lat="45.9362964" lon="11.9309317"><ele>209.0</ele><time>2026-04-04T07:05:32.136Z</time></trkpt><trkpt lat="45.9363185" lon="11.9305986"><ele>209.0</ele><time>2026-04-04T07:05:33.135Z</time></trkpt><trkpt lat="45.9363541" lon="11.9302591"><ele>209.0</ele><time>2026-04-04T07:05:34.135Z</time></trkpt><trkpt lat="45.9364062" lon="11.9299153"><ele>207.5</ele><time>2026-04-04T07:05:35.136Z</time></trkpt><trkpt lat="45.9364761" lon="11.9295764"><ele>206.0</ele><time>2026-04-04T07:05:36.137Z</time></trkpt><trkpt lat="45.9365594" lon="11.9292473"><ele>203.0</ele><time>2026-04-04T07:05:37.135Z</time></trkpt><trkpt lat="45.9366546" lon="11.9289346"><ele>200.0</ele><time>2026-04-04T07:05:38.135Z</time></trkpt><trkpt lat="45.9367634" lon="11.9286371"><ele>197.0</ele><time>2026-04-04T07:05:39.136Z</time></trkpt><trkpt lat="45.9368808" lon="11.9283655"><ele>194.0</ele><time>2026-04-04T07:05:40.135Z</time></trkpt><trkpt lat="45.9370069" lon="11.9281142"><ele>191.0</ele><time>2026-04-04T07:05:41.135Z</time></trkpt><trkpt lat="45.9371397" lon="11.927872"><ele>191.0</ele><time>2026-04-04T07:05:42.135Z</time></trkpt><trkpt lat="45.9372797" lon="11.9276498"><ele>191.0</ele><time>2026-04-04T07:05:43.135Z</time></trkpt><trkpt lat="45.937432" lon="11.9274484"><ele>191.0</ele><time>2026-04-04T07:05:44.135Z</time></trkpt><trkpt lat="45.9375768" lon="11.9272606"><ele>190.66666666666666</ele><time>2026-04-04T07:05:45.137Z</time></trkpt><trkpt lat="45.9377264" lon="11.9270889"><ele>190.33333333333334</ele><time>2026-04-04T07:05:46.136Z</time></trkpt><trkpt lat="45.9378821" lon="11.926926"><ele>190.0</ele><time>2026-04-04T07:05:47.137Z</time></trkpt><trkpt lat="45.9380454" lon="11.9267766"><ele>189.66666666666669</ele><time>2026-04-04T07:05:48.136Z</time></trkpt><trkpt lat="45.9382141" lon="11.9266365"><ele>189.33333333333334</ele><time>2026-04-04T07:05:49.135Z</time></trkpt><trkpt lat="45.9383931" lon="11.9264987"><ele>189.0</ele><time>2026-04-04T07:05:50.135Z</time></trkpt><trkpt lat="45.9385765" lon="11.9263586"><ele>191.0</ele><time>2026-04-04T07:05:51.136Z</time></trkpt><trkpt lat="45.9387666" lon="11.9262167"><ele>193.0</ele><time>2026-04-04T07:05:52.137Z</time></trkpt><trkpt lat="45.9389578" lon="11.9260748"><ele>195.0</ele><time>2026-04-04T07:05:53.135Z</time></trkpt><trkpt lat="45.9391493" lon="11.9259269"><ele>196.66666666666669</ele><time>2026-04-04T07:05:54.136Z</time></trkpt><trkpt lat="45.9393407" lon="11.9257817"><ele>198.33333333333334</ele><time>2026-04-04T07:05:55.135Z</time></trkpt><trkpt lat="45.939527" lon="11.9256463"><ele>200.0</ele><time>2026-04-04T07:05:56.135Z</time></trkpt><trkpt lat="45.9396965" lon="11.9255211"><ele>200.0</ele><time>2026-04-04T07:05:57.136Z</time></trkpt><trkpt lat="45.939856" lon="11.9254043"><ele>200.0</ele><time>2026-04-04T07:05:58.135Z</time></trkpt><trkpt lat="45.9400097" lon="11.9252949"><ele>200.0</ele><time>2026-04-04T07:05:59.135Z</time></trkpt><trkpt lat="45.9401505" lon="11.9251943"><ele>202.25</ele><time>2026-04-04T07:06:00.135Z</time></trkpt><trkpt lat="45.9402798" lon="11.9250997"><ele>204.5</ele><time>2026-04-04T07:06:01.136Z</time></trkpt><trkpt lat="45.9403969" lon="11.9250039"><ele>206.75</ele><time>2026-04-04T07:06:02.135Z</time></trkpt><trkpt lat="45.940506" lon="11.9249113"><ele>209.0</ele><time>2026-04-04T07:06:03.137Z</time></trkpt><trkpt lat="45.9406019" lon="11.9248196"><ele>209.0</ele><time>2026-04-04T07:06:04.135Z</time></trkpt><trkpt lat="45.9406919" lon="11.9247154"><ele>209.0</ele><time>2026-04-04T07:06:05.135Z</time></trkpt><trkpt lat="45.940772" lon="11.92461"><ele>209.0</ele><time>2026-04-04T07:06:06.135Z</time></trkpt><trkpt lat="45.9408449" lon="11.9245155"><ele>209.0</ele><time>2026-04-04T07:06:07.135Z</time></trkpt><trkpt lat="45.9409234" lon="11.9244414"><ele>209.0</ele><time>2026-04-04T07:06:08.136Z</time></trkpt><trkpt lat="45.9410081" lon="11.9244036"><ele>214.39999999999998</ele><time>2026-04-04T07:06:09.137Z</time></trkpt><trkpt lat="45.9410968" lon="11.9244011"><ele>219.8</ele><time>2026-04-04T07:06:10.137Z</time></trkpt><trkpt lat="45.9411892" lon="11.9244227"><ele>225.20000000000002</ele><time>2026-04-04T07:06:11.135Z</time></trkpt><trkpt lat="45.9412893" lon="11.924398"><ele>230.60000000000002</ele><time>2026-04-04T07:06:12.135Z</time></trkpt><trkpt lat="45.9413931" lon="11.9243442"><ele>236.0</ele><time>2026-04-04T07:06:13.135Z</time></trkpt><trkpt lat="45.9415041" lon="11.924296"><ele>236.0</ele><time>2026-04-04T07:06:14.135Z</time></trkpt><trkpt lat="45.9416265" lon="11.9242702"><ele>236.0</ele><time>2026-04-04T07:06:15.135Z</time></trkpt><trkpt lat="45.9417492" lon="11.9242459"><ele>236.0</ele><time>2026-04-04T07:06:16.136Z</time></trkpt><trkpt lat="45.9418811" lon="11.924227"><ele>236.0</ele><time>2026-04-04T07:06:17.135Z</time></trkpt><trkpt lat="45.942019" lon="11.9242145"><ele>236.0</ele><time>2026-04-04T07:06:18.135Z</time></trkpt><trkpt lat="45.9421622" lon="11.9242097"><ele>236.0</ele><time>2026-04-04T07:06:19.135Z</time></trkpt><trkpt lat="45.9423144" lon="11.9242198"><ele>236.0</ele><time>2026-04-04T07:06:20.137Z</time></trkpt><trkpt lat="45.9424837" lon="11.924243"><ele>228.33333333333334</ele><time>2026-04-04T07:06:21.135Z</time></trkpt><trkpt lat="45.9426739" lon="11.9242781"><ele>220.66666666666669</ele><time>2026-04-04T07:06:22.136Z</time></trkpt><trkpt lat="45.9428701" lon="11.9243286"><ele>213.0</ele><time>2026-04-04T07:06:23.137Z</time></trkpt><trkpt lat="45.9430672" lon="11.9243905"><ele>213.0</ele><time>2026-04-04T07:06:24.135Z</time></trkpt><trkpt lat="45.9432552" lon="11.9244677"><ele>213.0</ele><time>2026-04-04T07:06:25.136Z</time></trkpt><trkpt lat="45.9434317" lon="11.9245569"><ele>213.0</ele><time>2026-04-04T07:06:26.135Z</time></trkpt><trkpt lat="45.9436029" lon="11.9246597"><ele>208.66666666666669</ele><time>2026-04-04T07:06:27.135Z</time></trkpt><trkpt lat="45.943767" lon="11.9247757"><ele>204.33333333333334</ele><time>2026-04-04T07:06:28.135Z</time></trkpt><trkpt lat="45.9439248" lon="11.9249068"><ele>200.0</ele><time>2026-04-04T07:06:29.135Z</time></trkpt><trkpt lat="45.9440744" lon="11.9250507"><ele>199.33333333333334</ele><time>2026-04-04T07:06:30.136Z</time></trkpt><trkpt lat="45.9442226" lon="11.9252186"><ele>198.66666666666669</ele><time>2026-04-04T07:06:31.135Z</time></trkpt><trkpt lat="45.9443782" lon="11.9254208"><ele>198.0</ele><time>2026-04-04T07:06:32.135Z</time></trkpt><trkpt lat="45.9445406" lon="11.9256378"><ele>198.0</ele><time>2026-04-04T07:06:33.135Z</time></trkpt><trkpt lat="45.9447115" lon="11.9258594"><ele>198.0</ele><time>2026-04-04T07:06:34.135Z</time></trkpt><trkpt lat="45.9448733" lon="11.9260871"><ele>195.5</ele><time>2026-04-04T07:06:35.135Z</time></trkpt><trkpt lat="45.9450376" lon="11.9263193"><ele>193.0</ele><time>2026-04-04T07:06:36.135Z</time></trkpt><trkpt lat="45.9452065" lon="11.9265576"><ele>202.0</ele><time>2026-04-04T07:06:37.135Z</time></trkpt><trkpt lat="45.9453934" lon="11.9267883"><ele>211.0</ele><time>2026-04-04T07:06:38.136Z</time></trkpt><trkpt lat="45.9456012" lon="11.9270062"><ele>211.0</ele><time>2026-04-04T07:06:39.135Z</time></trkpt><trkpt lat="45.9458259" lon="11.9272112"><ele>211.0</ele><time>2026-04-04T07:06:40.135Z</time></trkpt><trkpt lat="45.9460709" lon="11.9273845"><ele>215.0</ele><time>2026-04-04T07:06:41.136Z</time></trkpt><trkpt lat="45.946327" lon="11.9275274"><ele>219.0</ele><time>2026-04-04T07:06:42.135Z</time></trkpt><trkpt lat="45.9465825" lon="11.9276513"><ele>217.5</ele><time>2026-04-04T07:06:43.135Z</time></trkpt><trkpt lat="45.9468337" lon="11.9277697"><ele>216.0</ele><time>2026-04-04T07:06:44.135Z</time></trkpt><trkpt lat="45.9470782" lon="11.9278888"><ele>216.0</ele><time>2026-04-04T07:06:45.135Z</time></trkpt><trkpt lat="45.9473152" lon="11.9280126"><ele>216.0</ele><time>2026-04-04T07:06:46.136Z</time></trkpt><trkpt lat="45.9475468" lon="11.9281484"><ele>223.0</ele><time>2026-04-04T07:06:47.136Z</time></trkpt><trkpt lat="45.9477705" lon="11.9283069"><ele>230.0</ele><time>2026-04-04T07:06:48.136Z</time></trkpt><trkpt lat="45.9479872" lon="11.9284864"><ele>230.0</ele><time>2026-04-04T07:06:49.136Z</time></trkpt><trkpt lat="45.9481891" lon="11.9286772"><ele>230.0</ele><time>2026-04-04T07:06:50.136Z</time></trkpt><trkpt lat="45.9483731" lon="11.9288685"><ele>221.33333333333334</ele><time>2026-04-04T07:06:51.136Z</time></trkpt><trkpt lat="45.9485383" lon="11.9290657"><ele>212.66666666666669</ele><time>2026-04-04T07:06:52.135Z</time></trkpt><trkpt lat="45.9486795" lon="11.9292549"><ele>204.0</ele><time>2026-04-04T07:06:53.135Z</time></trkpt><trkpt lat="45.9488134" lon="11.9294504"><ele>207.0</ele><time>2026-04-04T07:06:54.137Z</time></trkpt><trkpt lat="45.9489438" lon="11.9296472"><ele>210.0</ele><time>2026-04-04T07:06:55.135Z</time></trkpt><trkpt lat="45.9490721" lon="11.9298461"><ele>213.0</ele><time>2026-04-04T07:06:56.136Z</time></trkpt><trkpt lat="45.9503383" lon="11.9317327"><ele>213.0</ele><time>2026-04-04T07:07:07.135Z</time></trkpt><trkpt lat="45.950451" lon="11.931911"><ele>213.0</ele><time>2026-04-04T07:07:08.137Z</time></trkpt><trkpt lat="45.9505483" lon="11.9321028"><ele>213.0</ele><time>2026-04-04T07:07:09.135Z</time></trkpt><trkpt lat="45.9506497" lon="11.9323037"><ele>213.0</ele><time>2026-04-04T07:07:10.136Z</time></trkpt><trkpt lat="45.9507518" lon="11.9325201"><ele>213.0</ele><time>2026-04-04T07:07:11.135Z</time></trkpt><trkpt lat="45.9508587" lon="11.9327522"><ele>213.0</ele><time>2026-04-04T07:07:12.136Z</time></trkpt><trkpt lat="45.95096" lon="11.9329849"><ele>210.0</ele><time>2026-04-04T07:07:13.136Z</time></trkpt><trkpt lat="45.9510665" lon="11.9332262"><ele>207.0</ele><time>2026-04-04T07:07:14.136Z</time></trkpt><trkpt lat="45.9511785" lon="11.9334739"><ele>204.0</ele><time>2026-04-04T07:07:15.136Z</time></trkpt><trkpt lat="45.9512995" lon="11.9337342"><ele>204.0</ele><time>2026-04-04T07:07:16.136Z</time></trkpt><trkpt lat="45.9514414" lon="11.9340022"><ele>204.0</ele><time>2026-04-04T07:07:17.135Z</time></trkpt><trkpt lat="45.9515962" lon="11.9342826"><ele>200.0</ele><time>2026-04-04T07:07:18.135Z</time></trkpt><trkpt lat="45.9517671" lon="11.9345613"><ele>196.0</ele><time>2026-04-04T07:07:19.136Z</time></trkpt><trkpt lat="45.9519487" lon="11.9348343"><ele>207.0</ele><time>2026-04-04T07:07:20.137Z</time></trkpt><trkpt lat="45.952137" lon="11.9350977"><ele>218.0</ele><time>2026-04-04T07:07:21.135Z</time></trkpt><trkpt lat="45.9523261" lon="11.9353512"><ele>218.0</ele><time>2026-04-04T07:07:22.135Z</time></trkpt><trkpt lat="45.9525165" lon="11.9355978"><ele>218.0</ele><time>2026-04-04T07:07:23.135Z</time></trkpt><trkpt lat="45.9527034" lon="11.9358347"><ele>211.5</ele><time>2026-04-04T07:07:24.136Z</time></trkpt><trkpt lat="45.952885" lon="11.9360692"><ele>205.0</ele><time>2026-04-04T07:07:25.136Z</time></trkpt><trkpt lat="45.9530646" lon="11.9362994"><ele>205.0</ele><time>2026-04-04T07:07:26.135Z</time></trkpt><trkpt lat="45.9532401" lon="11.9365239"><ele>205.0</ele><time>2026-04-04T07:07:27.135Z</time></trkpt><trkpt lat="45.9534066" lon="11.9367353"><ele>204.33333333333331</ele><time>2026-04-04T07:07:28.136Z</time></trkpt><trkpt lat="45.9535727" lon="11.936941"><ele>203.66666666666669</ele><time>2026-04-04T07:07:29.136Z</time></trkpt><trkpt lat="45.9537464" lon="11.9371344"><ele>203.0</ele><time>2026-04-04T07:07:30.136Z</time></trkpt><trkpt lat="45.9539282" lon="11.9373052"><ele>203.0</ele><time>2026-04-04T07:07:31.135Z</time></trkpt><trkpt lat="45.9541241" lon="11.9374647"><ele>203.0</ele><time>2026-04-04T07:07:32.137Z</time></trkpt><trkpt lat="45.9543305" lon="11.9376116"><ele>207.0</ele><time>2026-04-04T07:07:33.136Z</time></trkpt><trkpt lat="45.9545446" lon="11.9377365"><ele>211.0</ele><time>2026-04-04T07:07:34.136Z</time></trkpt><trkpt lat="45.9547564" lon="11.9378492"><ele>211.0</ele><time>2026-04-04T07:07:35.137Z</time></trkpt><trkpt lat="45.9549637" lon="11.9379569"><ele>211.0</ele><time>2026-04-04T07:07:36.136Z</time></trkpt><trkpt lat="45.9551695" lon="11.9380617"><ele>211.0</ele><time>2026-04-04T07:07:37.135Z</time></trkpt><trkpt lat="45.9553676" lon="11.9381544"><ele>207.33333333333331</ele><time>2026-04-04T07:07:38.135Z</time></trkpt><trkpt lat="45.9555619" lon="11.9382401"><ele>203.66666666666669</ele><time>2026-04-04T07:07:39.135Z</time></trkpt><trkpt lat="45.9557574" lon="11.9383155"><ele>200.0</ele><time>2026-04-04T07:07:40.135Z</time></trkpt><trkpt lat="45.9559569" lon="11.9383732"><ele>203.33333333333334</ele><time>2026-04-04T07:07:41.135Z</time></trkpt><trkpt lat="45.956164" lon="11.9384165"><ele>206.66666666666669</ele><time>2026-04-04T07:07:42.135Z</time></trkpt><trkpt lat="45.9563767" lon="11.9384431"><ele>210.0</ele><time>2026-04-04T07:07:43.136Z</time></trkpt><trkpt lat="45.9565948" lon="11.9384529"><ele>210.0</ele><time>2026-04-04T07:07:44.135Z</time></trkpt><trkpt lat="45.9568166" lon="11.9384596"><ele>210.0</ele><time>2026-04-04T07:07:45.135Z</time></trkpt><trkpt lat="45.9570437" lon="11.9384709"><ele>210.0</ele><time>2026-04-04T07:07:46.136Z</time></trkpt><trkpt lat="45.9572708" lon="11.9384842"><ele>210.0</ele><time>2026-04-04T07:07:47.136Z</time></trkpt><trkpt lat="45.9575001" lon="11.9384999"><ele>210.0</ele><time>2026-04-04T07:07:48.135Z</time></trkpt><trkpt lat="45.957727" lon="11.9385147"><ele>207.5</ele><time>2026-04-04T07:07:49.135Z</time></trkpt><trkpt lat="45.9579539" lon="11.9385254"><ele>205.0</ele><time>2026-04-04T07:07:50.136Z</time></trkpt><trkpt lat="45.9581806" lon="11.9385376"><ele>209.5</ele><time>2026-04-04T07:07:51.136Z</time></trkpt><trkpt lat="45.9584043" lon="11.9385546"><ele>214.0</ele><time>2026-04-04T07:07:52.136Z</time></trkpt><trkpt lat="45.9586299" lon="11.9385704"><ele>214.0</ele><time>2026-04-04T07:07:53.135Z</time></trkpt><trkpt lat="45.9588559" lon="11.9385828"><ele>214.0</ele><time>2026-04-04T07:07:54.136Z</time></trkpt><trkpt lat="45.9590854" lon="11.9385977"><ele>213.5</ele><time>2026-04-04T07:07:55.135Z</time></trkpt><trkpt lat="45.959315" lon="11.938612"><ele>213.0</ele><time>2026-04-04T07:07:56.137Z</time></trkpt><trkpt lat="45.9595448" lon="11.9386278"><ele>213.0</ele><time>2026-04-04T07:07:57.135Z</time></trkpt><trkpt lat="45.9597732" lon="11.9386419"><ele>213.0</ele><time>2026-04-04T07:07:58.135Z</time></trkpt><trkpt lat="45.9600046" lon="11.9386561"><ele>212.0</ele><time>2026-04-04T07:07:59.135Z</time></trkpt><trkpt lat="45.9602363" lon="11.9386721"><ele>211.0</ele><time>2026-04-04T07:08:00.136Z</time></trkpt><trkpt lat="45.9604653" lon="11.938687"><ele>211.0</ele><time>2026-04-04T07:08:01.135Z</time></trkpt><trkpt lat="45.9606925" lon="11.9387001"><ele>211.0</ele><time>2026-04-04T07:08:02.136Z</time></trkpt><trkpt lat="45.9609184" lon="11.9387178"><ele>209.66666666666666</ele><time>2026-04-04T07:08:03.136Z</time></trkpt><trkpt lat="45.9611395" lon="11.9387304"><ele>208.33333333333331</ele><time>2026-04-04T07:08:04.135Z</time></trkpt><trkpt lat="45.9613587" lon="11.9387362"><ele>207.0</ele><time>2026-04-04T07:08:05.135Z</time></trkpt><trkpt lat="45.9615775" lon="11.9387374"><ele>211.0</ele><time>2026-04-04T07:08:06.136Z</time></trkpt><trkpt lat="45.961796" lon="11.9387248"><ele>215.0</ele><time>2026-04-04T07:08:07.135Z</time></trkpt><trkpt lat="45.9620173" lon="11.9386972"><ele>219.0</ele><time>2026-04-04T07:08:08.136Z</time></trkpt><trkpt lat="45.9622394" lon="11.9386466"><ele>219.0</ele><time>2026-04-04T07:08:09.135Z</time></trkpt><trkpt lat="45.9624621" lon="11.938571"><ele>219.0</ele><time>2026-04-04T07:08:10.137Z</time></trkpt><trkpt lat="45.962682" lon="11.9384709"><ele>215.0</ele><time>2026-04-04T07:08:11.137Z</time></trkpt><trkpt lat="45.9629019" lon="11.9383558"><ele>211.0</ele><time>2026-04-04T07:08:12.137Z</time></trkpt><trkpt lat="45.9631222" lon="11.9382345"><ele>211.0</ele><time>2026-04-04T07:08:13.137Z</time></trkpt><trkpt lat="45.96334" lon="11.9381122"><ele>211.0</ele><time>2026-04-04T07:08:14.136Z</time></trkpt><trkpt lat="45.9635542" lon="11.9379931"><ele>218.5</ele><time>2026-04-04T07:08:15.137Z</time></trkpt><trkpt lat="45.963767" lon="11.9378756"><ele>226.0</ele><time>2026-04-04T07:08:16.136Z</time></trkpt><trkpt lat="45.9639768" lon="11.9377612"><ele>226.0</ele><time>2026-04-04T07:08:17.136Z</time></trkpt><trkpt lat="45.9641847" lon="11.937647"><ele>226.0</ele><time>2026-04-04T07:08:18.136Z</time></trkpt><trkpt lat="45.9643897" lon="11.9375326"><ele>226.0</ele><time>2026-04-04T07:08:19.137Z</time></trkpt><trkpt lat="45.9645917" lon="11.9374187"><ele>227.66666666666666</ele><time>2026-04-04T07:08:20.136Z</time></trkpt><trkpt lat="45.9647951" lon="11.9373043"><ele>229.33333333333331</ele><time>2026-04-04T07:08:21.136Z</time></trkpt><trkpt lat="45.9649959" lon="11.9371938"><ele>231.0</ele><time>2026-04-04T07:08:22.136Z</time></trkpt><trkpt lat="45.9651928" lon="11.9370823"><ele>231.0</ele><time>2026-04-04T07:08:23.137Z</time></trkpt><trkpt lat="45.9653825" lon="11.936975"><ele>231.0</ele><time>2026-04-04T07:08:24.136Z</time></trkpt><trkpt lat="45.9655723" lon="11.9368647"><ele>231.0</ele><time>2026-04-04T07:08:25.136Z</time></trkpt><trkpt lat="45.9657635" lon="11.9367611"><ele>226.33333333333331</ele><time>2026-04-04T07:08:26.137Z</time></trkpt><trkpt lat="45.9659585" lon="11.9366695"><ele>221.66666666666666</ele><time>2026-04-04T07:08:27.136Z</time></trkpt><trkpt lat="45.9661591" lon="11.9365893"><ele>217.0</ele><time>2026-04-04T07:08:28.137Z</time></trkpt><trkpt lat="45.9663617" lon="11.9365269"><ele>217.0</ele><time>2026-04-04T07:08:29.136Z</time></trkpt><trkpt lat="45.9665684" lon="11.9364734"><ele>217.0</ele><time>2026-04-04T07:08:30.136Z</time></trkpt><trkpt lat="45.9667794" lon="11.9364344"><ele>217.0</ele><time>2026-04-04T07:08:31.136Z</time></trkpt><trkpt lat="45.9669908" lon="11.9364035"><ele>217.33333333333331</ele><time>2026-04-04T07:08:32.136Z</time></trkpt><trkpt lat="45.967204" lon="11.9363922"><ele>217.66666666666669</ele><time>2026-04-04T07:08:33.136Z</time></trkpt><trkpt lat="45.9674171" lon="11.9364039"><ele>218.0</ele><time>2026-04-04T07:08:34.136Z</time></trkpt><trkpt lat="45.9676301" lon="11.9364296"><ele>218.0</ele><time>2026-04-04T07:08:35.136Z</time></trkpt><trkpt lat="45.9678427" lon="11.9364664"><ele>218.0</ele><time>2026-04-04T07:08:36.137Z</time></trkpt><trkpt lat="45.9680571" lon="11.9365096"><ele>218.0</ele><time>2026-04-04T07:08:37.136Z</time></trkpt><trkpt lat="45.9682713" lon="11.9365502"><ele>217.0</ele><time>2026-04-04T07:08:38.136Z</time></trkpt><trkpt lat="45.9684868" lon="11.9365864"><ele>216.0</ele><time>2026-04-04T07:08:39.137Z</time></trkpt><trkpt lat="45.9687" lon="11.9366222"><ele>215.0</ele><time>2026-04-04T07:08:40.137Z</time></trkpt><trkpt lat="45.9689126" lon="11.9366702"><ele>220.0</ele><time>2026-04-04T07:08:41.136Z</time></trkpt><trkpt lat="45.9691222" lon="11.9367287"><ele>225.0</ele><time>2026-04-04T07:08:42.136Z</time></trkpt><trkpt lat="45.9693312" lon="11.9367994"><ele>230.0</ele><time>2026-04-04T07:08:43.137Z</time></trkpt><trkpt lat="45.9695385" lon="11.9368862"><ele>230.0</ele><time>2026-04-04T07:08:44.137Z</time></trkpt><trkpt lat="45.9697405" lon="11.9369918"><ele>230.0</ele><time>2026-04-04T07:08:45.136Z</time></trkpt><trkpt lat="45.9699378" lon="11.9371179"><ele>230.0</ele><time>2026-04-04T07:08:46.137Z</time></trkpt><trkpt lat="45.9701285" lon="11.9372577"><ele>231.0</ele><time>2026-04-04T07:08:47.136Z</time></trkpt><trkpt lat="45.9703163" lon="11.9374197"><ele>232.0</ele><time>2026-04-04T07:08:48.136Z</time></trkpt><trkpt lat="45.9704927" lon="11.937597"><ele>233.0</ele><time>2026-04-04T07:08:49.137Z</time></trkpt><trkpt lat="45.9706661" lon="11.9377886"><ele>233.0</ele><time>2026-04-04T07:08:50.136Z</time></trkpt><trkpt lat="45.9708382" lon="11.9379887"><ele>233.0</ele><time>2026-04-04T07:08:51.136Z</time></trkpt><trkpt lat="45.9710087" lon="11.9381931"><ele>233.0</ele><time>2026-04-04T07:08:52.136Z</time></trkpt><trkpt lat="45.9711754" lon="11.9384022"><ele>227.0</ele><time>2026-04-04T07:08:53.136Z</time></trkpt><trkpt lat="45.9713382" lon="11.9386198"><ele>221.0</ele><time>2026-04-04T07:08:54.136Z</time></trkpt><trkpt lat="45.9714938" lon="11.9388451"><ele>215.0</ele><time>2026-04-04T07:08:55.137Z</time></trkpt><trkpt lat="45.9716437" lon="11.9390776"><ele>211.66666666666669</ele><time>2026-04-04T07:08:56.136Z</time></trkpt><trkpt lat="45.9717898" lon="11.9393142"><ele>208.33333333333331</ele><time>2026-04-04T07:08:57.137Z</time></trkpt><trkpt lat="45.9719238" lon="11.9395474"><ele>205.0</ele><time>2026-04-04T07:08:58.137Z</time></trkpt><trkpt lat="45.9720529" lon="11.9397877"><ele>205.0</ele><time>2026-04-04T07:08:59.136Z</time></trkpt><trkpt lat="45.9721782" lon="11.940029"><ele>205.0</ele><time>2026-04-04T07:09:00.136Z</time></trkpt><trkpt lat="45.9722987" lon="11.9402744"><ele>205.0</ele><time>2026-04-04T07:09:01.136Z</time></trkpt><trkpt lat="45.9724092" lon="11.9405309"><ele>202.66666666666666</ele><time>2026-04-04T07:09:02.136Z</time></trkpt><trkpt lat="45.9725149" lon="11.9407936"><ele>200.33333333333331</ele><time>2026-04-04T07:09:03.136Z</time></trkpt><trkpt lat="45.972622" lon="11.9410597"><ele>198.0</ele><time>2026-04-04T07:09:04.137Z</time></trkpt><trkpt lat="45.9727311" lon="11.9413286"><ele>198.0</ele><time>2026-04-04T07:09:05.136Z</time></trkpt><trkpt lat="45.972842" lon="11.9416016"><ele>198.0</ele><time>2026-04-04T07:09:06.137Z</time></trkpt><trkpt lat="45.9729556" lon="11.9418791"><ele>198.0</ele><time>2026-04-04T07:09:07.137Z</time></trkpt><trkpt lat="45.973071" lon="11.9421595"><ele>205.0</ele><time>2026-04-04T07:09:08.136Z</time></trkpt><trkpt lat="45.9731863" lon="11.942443"><ele>212.0</ele><time>2026-04-04T07:09:09.138Z</time></trkpt><trkpt lat="45.9733019" lon="11.9427334"><ele>204.0</ele><time>2026-04-04T07:09:10.137Z</time></trkpt><trkpt lat="45.9734136" lon="11.9430266"><ele>196.0</ele><time>2026-04-04T07:09:11.137Z</time></trkpt><trkpt lat="45.9735192" lon="11.9433287"><ele>199.0</ele><time>2026-04-04T07:09:12.136Z</time></trkpt><trkpt lat="45.9736222" lon="11.9436361"><ele>202.0</ele><time>2026-04-04T07:09:13.136Z</time></trkpt><trkpt lat="45.973726" lon="11.94395"><ele>206.5</ele><time>2026-04-04T07:09:14.137Z</time></trkpt><trkpt lat="45.9738305" lon="11.944265"><ele>211.0</ele><time>2026-04-04T07:09:15.137Z</time></trkpt><trkpt lat="45.9739361" lon="11.9445828"><ele>211.0</ele><time>2026-04-04T07:09:16.137Z</time></trkpt><trkpt lat="45.9740455" lon="11.9449015"><ele>211.0</ele><time>2026-04-04T07:09:17.136Z</time></trkpt><trkpt lat="45.9741533" lon="11.9452181"><ele>206.0</ele><time>2026-04-04T07:09:18.136Z</time></trkpt><trkpt lat="45.9742578" lon="11.945526"><ele>201.0</ele><time>2026-04-04T07:09:19.137Z</time></trkpt><trkpt lat="45.9743636" lon="11.9458285"><ele>201.0</ele><time>2026-04-04T07:09:20.136Z</time></trkpt><trkpt lat="45.9744639" lon="11.946125"><ele>201.0</ele><time>2026-04-04T07:09:21.137Z</time></trkpt><trkpt lat="45.9745625" lon="11.9464185"><ele>201.0</ele><time>2026-04-04T07:09:22.136Z</time></trkpt><trkpt lat="45.9746618" lon="11.9467105"><ele>201.0</ele><time>2026-04-04T07:09:23.136Z</time></trkpt><trkpt lat="45.9747585" lon="11.9469994"><ele>201.0</ele><time>2026-04-04T07:09:24.137Z</time></trkpt><trkpt lat="45.9748539" lon="11.9472895"><ele>201.0</ele><time>2026-04-04T07:09:25.136Z</time></trkpt><trkpt lat="45.9749494" lon="11.9475774"><ele>201.0</ele><time>2026-04-04T07:09:26.136Z</time></trkpt><trkpt lat="45.9750455" lon="11.9478652"><ele>201.0</ele><time>2026-04-04T07:09:27.137Z</time></trkpt><trkpt lat="45.9751445" lon="11.9481573"><ele>202.0</ele><time>2026-04-04T07:09:28.136Z</time></trkpt><trkpt lat="45.9752429" lon="11.9484484"><ele>203.0</ele><time>2026-04-04T07:09:29.136Z</time></trkpt><trkpt lat="45.9753372" lon="11.9487378"><ele>204.0</ele><time>2026-04-04T07:09:30.136Z</time></trkpt><trkpt lat="45.9754317" lon="11.9490268"><ele>204.33333333333331</ele><time>2026-04-04T07:09:31.136Z</time></trkpt><trkpt lat="45.9755116" lon="11.9493275"><ele>204.66666666666666</ele><time>2026-04-04T07:09:32.137Z</time></trkpt><trkpt lat="45.9755698" lon="11.9496385"><ele>205.0</ele><time>2026-04-04T07:09:33.136Z</time></trkpt><trkpt lat="45.9756047" lon="11.9499602"><ele>207.0</ele><time>2026-04-04T07:09:34.136Z</time></trkpt><trkpt lat="45.9756218" lon="11.950288"><ele>209.0</ele><time>2026-04-04T07:09:35.137Z</time></trkpt><trkpt lat="45.975616" lon="11.9506156"><ele>207.5</ele><time>2026-04-04T07:09:36.137Z</time></trkpt><trkpt lat="45.9755863" lon="11.9509418"><ele>206.0</ele><time>2026-04-04T07:09:37.137Z</time></trkpt><trkpt lat="45.9755368" lon="11.9512646"><ele>206.0</ele><time>2026-04-04T07:09:38.136Z</time></trkpt><trkpt lat="45.9754719" lon="11.9515783"><ele>206.0</ele><time>2026-04-04T07:09:39.136Z</time></trkpt><trkpt lat="45.9753921" lon="11.9518823"><ele>206.0</ele><time>2026-04-04T07:09:40.136Z</time></trkpt><trkpt lat="45.9753099" lon="11.9521804"><ele>206.0</ele><time>2026-04-04T07:09:41.137Z</time></trkpt><trkpt lat="45.9752423" lon="11.9524846"><ele>206.0</ele><time>2026-04-04T07:09:42.136Z</time></trkpt><trkpt lat="45.9752001" lon="11.9527957"><ele>206.0</ele><time>2026-04-04T07:09:43.136Z</time></trkpt><trkpt lat="45.9751718" lon="11.9531056"><ele>206.0</ele><time>2026-04-04T07:09:44.136Z</time></trkpt><trkpt lat="45.9751634" lon="11.9534167"><ele>206.0</ele><time>2026-04-04T07:09:45.137Z</time></trkpt><trkpt lat="45.9751765" lon="11.9537264"><ele>206.33333333333334</ele><time>2026-04-04T07:09:46.136Z</time></trkpt><trkpt lat="45.9752046" lon="11.9540313"><ele>206.66666666666669</ele><time>2026-04-04T07:09:47.137Z</time></trkpt><trkpt lat="45.9752517" lon="11.9543364"><ele>207.0</ele><time>2026-04-04T07:09:48.138Z</time></trkpt><trkpt lat="45.9753092" lon="11.9546376"><ele>207.66666666666669</ele><time>2026-04-04T07:09:49.137Z</time></trkpt><trkpt lat="45.9753728" lon="11.9549404"><ele>208.33333333333334</ele><time>2026-04-04T07:09:50.136Z</time></trkpt><trkpt lat="45.9754336" lon="11.9552433"><ele>209.0</ele><time>2026-04-04T07:09:51.136Z</time></trkpt><trkpt lat="45.975495" lon="11.955549"><ele>210.0</ele><time>2026-04-04T07:09:52.136Z</time></trkpt><trkpt lat="45.9755577" lon="11.9558601"><ele>211.0</ele><time>2026-04-04T07:09:53.137Z</time></trkpt><trkpt lat="45.9756202" lon="11.9561746"><ele>213.5</ele><time>2026-04-04T07:09:54.137Z</time></trkpt><trkpt lat="45.9756839" lon="11.9564915"><ele>216.0</ele><time>2026-04-04T07:09:55.136Z</time></trkpt><trkpt lat="45.9757565" lon="11.9568106"><ele>212.5</ele><time>2026-04-04T07:09:56.136Z</time></trkpt><trkpt lat="45.9758443" lon="11.9571276"><ele>209.0</ele><time>2026-04-04T07:09:57.137Z</time></trkpt><trkpt lat="45.9759481" lon="11.9574391"><ele>210.5</ele><time>2026-04-04T07:09:58.137Z</time></trkpt><trkpt lat="45.9760694" lon="11.9577341"><ele>212.0</ele><time>2026-04-04T07:09:59.137Z</time></trkpt><trkpt lat="45.976207" lon="11.9580126"><ele>212.0</ele><time>2026-04-04T07:10:00.136Z</time></trkpt><trkpt lat="45.9763554" lon="11.9582812"><ele>212.0</ele><time>2026-04-04T07:10:01.137Z</time></trkpt><trkpt lat="45.9765006" lon="11.9585482"><ele>210.5</ele><time>2026-04-04T07:10:02.136Z</time></trkpt><trkpt lat="45.9766457" lon="11.9588245"><ele>209.0</ele><time>2026-04-04T07:10:03.137Z</time></trkpt><trkpt lat="45.9767884" lon="11.9591004"><ele>210.0</ele><time>2026-04-04T07:10:04.136Z</time></trkpt><trkpt lat="45.9769333" lon="11.9593764"><ele>211.0</ele><time>2026-04-04T07:10:05.136Z</time></trkpt><trkpt lat="45.9770808" lon="11.9596528"><ele>211.0</ele><time>2026-04-04T07:10:06.137Z</time></trkpt><trkpt lat="45.9772299" lon="11.9599349"><ele>211.0</ele><time>2026-04-04T07:10:07.137Z</time></trkpt><trkpt lat="45.9773793" lon="11.9602178"><ele>210.5</ele><time>2026-04-04T07:10:08.137Z</time></trkpt><trkpt lat="45.9775302" lon="11.9605046"><ele>210.0</ele><time>2026-04-04T07:10:09.136Z</time></trkpt><trkpt lat="45.977682" lon="11.9607912"><ele>209.5</ele><time>2026-04-04T07:10:10.137Z</time></trkpt><trkpt lat="45.977836" lon="11.9610792"><ele>209.0</ele><time>2026-04-04T07:10:11.137Z</time></trkpt><trkpt lat="45.9779895" lon="11.9613671"><ele>209.0</ele><time>2026-04-04T07:10:12.137Z</time></trkpt><trkpt lat="45.9781385" lon="11.9616495"><ele>209.0</ele><time>2026-04-04T07:10:13.136Z</time></trkpt><trkpt lat="45.9782877" lon="11.9619336"><ele>208.5</ele><time>2026-04-04T07:10:14.137Z</time></trkpt><trkpt lat="45.9784372" lon="11.9622171"><ele>208.0</ele><time>2026-04-04T07:10:15.136Z</time></trkpt><trkpt lat="45.9785816" lon="11.9624922"><ele>209.0</ele><time>2026-04-04T07:10:16.136Z</time></trkpt><trkpt lat="45.9787219" lon="11.9627579"><ele>210.0</ele><time>2026-04-04T07:10:17.137Z</time></trkpt><trkpt lat="45.9788548" lon="11.9630176"><ele>210.0</ele><time>2026-04-04T07:10:18.137Z</time></trkpt><trkpt lat="45.9789806" lon="11.9632822"><ele>210.0</ele><time>2026-04-04T07:10:19.137Z</time></trkpt><trkpt lat="45.9790893" lon="11.9635554"><ele>210.0</ele><time>2026-04-04T07:10:20.136Z</time></trkpt><trkpt lat="45.9791849" lon="11.9638424"><ele>208.66666666666669</ele><time>2026-04-04T07:10:21.136Z</time></trkpt><trkpt lat="45.9792667" lon="11.9641393"><ele>207.33333333333334</ele><time>2026-04-04T07:10:22.136Z</time></trkpt><trkpt lat="45.9793339" lon="11.9644469"><ele>206.0</ele><time>2026-04-04T07:10:23.136Z</time></trkpt><trkpt lat="45.9793974" lon="11.9647614"><ele>207.0</ele><time>2026-04-04T07:10:24.136Z</time></trkpt><trkpt lat="45.9794581" lon="11.9650746"><ele>208.0</ele><time>2026-04-04T07:10:25.136Z</time></trkpt><trkpt lat="45.9795169" lon="11.9653886"><ele>208.0</ele><time>2026-04-04T07:10:26.138Z</time></trkpt><trkpt lat="45.9795744" lon="11.9657027"><ele>208.0</ele><time>2026-04-04T07:10:27.137Z</time></trkpt><trkpt lat="45.9796346" lon="11.9660193"><ele>208.0</ele><time>2026-04-04T07:10:28.136Z</time></trkpt><trkpt lat="45.9796927" lon="11.9663314"><ele>208.0</ele><time>2026-04-04T07:10:29.136Z</time></trkpt><trkpt lat="45.9797484" lon="11.966635"><ele>208.0</ele><time>2026-04-04T07:10:30.136Z</time></trkpt><trkpt lat="45.9798002" lon="11.966929"><ele>209.33333333333331</ele><time>2026-04-04T07:10:31.137Z</time></trkpt><trkpt lat="45.9798531" lon="11.9672215"><ele>210.66666666666669</ele><time>2026-04-04T07:10:32.137Z</time></trkpt><trkpt lat="45.9799076" lon="11.96751"><ele>212.0</ele><time>2026-04-04T07:10:33.136Z</time></trkpt><trkpt lat="45.9799662" lon="11.9678003"><ele>209.66666666666669</ele><time>2026-04-04T07:10:34.137Z</time></trkpt><trkpt lat="45.9800271" lon="11.9680923"><ele>207.33333333333331</ele><time>2026-04-04T07:10:35.136Z</time></trkpt><trkpt lat="45.9800901" lon="11.9683887"><ele>205.0</ele><time>2026-04-04T07:10:36.137Z</time></trkpt><trkpt lat="45.9801563" lon="11.9686874"><ele>205.0</ele><time>2026-04-04T07:10:37.136Z</time></trkpt><trkpt lat="45.9802292" lon="11.9689843"><ele>205.0</ele><time>2026-04-04T07:10:38.138Z</time></trkpt><trkpt lat="45.9803138" lon="11.9692816"><ele>205.0</ele><time>2026-04-04T07:10:39.137Z</time></trkpt><trkpt lat="45.9804121" lon="11.9695766"><ele>206.5</ele><time>2026-04-04T07:10:40.137Z</time></trkpt><trkpt lat="45.9805196" lon="11.9698655"><ele>208.0</ele><time>2026-04-04T07:10:41.136Z</time></trkpt><trkpt lat="45.9806352" lon="11.9701496"><ele>208.66666666666666</ele><time>2026-04-04T07:10:42.137Z</time></trkpt><trkpt lat="45.9807568" lon="11.9704256"><ele>209.33333333333331</ele><time>2026-04-04T07:10:43.136Z</time></trkpt><trkpt lat="45.9808751" lon="11.9706884"><ele>210.0</ele><time>2026-04-04T07:10:44.137Z</time></trkpt><trkpt lat="45.980986" lon="11.970934"><ele>210.0</ele><time>2026-04-04T07:10:45.136Z</time></trkpt><trkpt lat="45.9810938" lon="11.9711755"><ele>210.0</ele><time>2026-04-04T07:10:46.136Z</time></trkpt><trkpt lat="45.9811995" lon="11.9714134"><ele>210.0</ele><time>2026-04-04T07:10:47.137Z</time></trkpt><trkpt lat="45.9813028" lon="11.9716571"><ele>215.0</ele><time>2026-04-04T07:10:48.137Z</time></trkpt><trkpt lat="45.9814083" lon="11.9719113"><ele>220.0</ele><time>2026-04-04T07:10:49.136Z</time></trkpt><trkpt lat="45.9815204" lon="11.9721636"><ele>225.0</ele><time>2026-04-04T07:10:50.136Z</time></trkpt><trkpt lat="45.981634" lon="11.9724223"><ele>219.33333333333331</ele><time>2026-04-04T07:10:51.137Z</time></trkpt><trkpt lat="45.9817489" lon="11.9726831"><ele>213.66666666666666</ele><time>2026-04-04T07:10:52.136Z</time></trkpt><trkpt lat="45.9818668" lon="11.972953"><ele>208.0</ele><time>2026-04-04T07:10:53.136Z</time></trkpt><trkpt lat="45.9819914" lon="11.9732392"><ele>213.0</ele><time>2026-04-04T07:10:54.136Z</time></trkpt><trkpt lat="45.9821264" lon="11.9735389"><ele>218.0</ele><time>2026-04-04T07:10:55.136Z</time></trkpt><trkpt lat="45.9822746" lon="11.9738586"><ele>212.5</ele><time>2026-04-04T07:10:56.137Z</time></trkpt><trkpt lat="45.9824284" lon="11.9741997"><ele>207.0</ele><time>2026-04-04T07:10:57.137Z</time></trkpt><trkpt lat="45.9825862" lon="11.9745626"><ele>207.0</ele><time>2026-04-04T07:10:58.138Z</time></trkpt><trkpt lat="45.9827425" lon="11.9749243"><ele>207.0</ele><time>2026-04-04T07:10:59.137Z</time></trkpt><trkpt lat="45.9829127" lon="11.9752996"><ele>210.5</ele><time>2026-04-04T07:11:00.138Z</time></trkpt><trkpt lat="45.9830706" lon="11.9756698"><ele>214.0</ele><time>2026-04-04T07:11:01.137Z</time></trkpt><trkpt lat="45.9832132" lon="11.9760243"><ele>211.5</ele><time>2026-04-04T07:11:02.137Z</time></trkpt><trkpt lat="45.9833481" lon="11.9763526"><ele>209.0</ele><time>2026-04-04T07:11:03.136Z</time></trkpt><trkpt lat="45.9834788" lon="11.9766548"><ele>216.0</ele><time>2026-04-04T07:11:04.137Z</time></trkpt><trkpt lat="45.9836105" lon="11.9769442"><ele>223.0</ele><time>2026-04-04T07:11:05.136Z</time></trkpt><trkpt lat="45.9837643" lon="11.9772119"><ele>223.0</ele><time>2026-04-04T07:11:06.136Z</time></trkpt><trkpt lat="45.9839381" lon="11.9774575"><ele>223.0</ele><time>2026-04-04T07:11:07.136Z</time></trkpt><trkpt lat="45.9841274" lon="11.9776769"><ele>223.0</ele><time>2026-04-04T07:11:08.136Z</time></trkpt><trkpt lat="45.9843289" lon="11.977868"><ele>223.0</ele><time>2026-04-04T07:11:09.136Z</time></trkpt><trkpt lat="45.9845342" lon="11.9780368"><ele>223.0</ele><time>2026-04-04T07:11:10.136Z</time></trkpt><trkpt lat="45.9847397" lon="11.9782024"><ele>223.0</ele><time>2026-04-04T07:11:11.137Z</time></trkpt><trkpt lat="45.9849406" lon="11.9783871"><ele>221.0</ele><time>2026-04-04T07:11:12.138Z</time></trkpt><trkpt lat="45.9851311" lon="11.9786019"><ele>219.0</ele><time>2026-04-04T07:11:13.137Z</time></trkpt><trkpt lat="45.9853105" lon="11.9788373"><ele>219.0</ele><time>2026-04-04T07:11:14.137Z</time></trkpt><trkpt lat="45.9854863" lon="11.9790712"><ele>219.0</ele><time>2026-04-04T07:11:15.137Z</time></trkpt><trkpt lat="45.9856646" lon="11.9792925"><ele>221.0</ele><time>2026-04-04T07:11:16.136Z</time></trkpt><trkpt lat="45.9858501" lon="11.9795024"><ele>223.0</ele><time>2026-04-04T07:11:17.136Z</time></trkpt><trkpt lat="45.9860477" lon="11.9796915"><ele>223.0</ele><time>2026-04-04T07:11:18.136Z</time></trkpt><trkpt lat="45.9862543" lon="11.9798591"><ele>223.0</ele><time>2026-04-04T07:11:19.136Z</time></trkpt><trkpt lat="45.9864689" lon="11.9800043"><ele>230.5</ele><time>2026-04-04T07:11:20.136Z</time></trkpt><trkpt lat="45.9866927" lon="11.9801181"><ele>238.0</ele><time>2026-04-04T07:11:21.136Z</time></trkpt><trkpt lat="45.9869217" lon="11.9802069"><ele>238.0</ele><time>2026-04-04T07:11:22.136Z</time></trkpt><trkpt lat="45.987155" lon="11.9802713"><ele>238.0</ele><time>2026-04-04T07:11:23.136Z</time></trkpt><trkpt lat="45.9873899" lon="11.9803145"><ele>233.5</ele><time>2026-04-04T07:11:24.136Z</time></trkpt><trkpt lat="45.9876213" lon="11.9803486"><ele>229.0</ele><time>2026-04-04T07:11:25.137Z</time></trkpt><trkpt lat="45.9878494" lon="11.9803854"><ele>229.0</ele><time>2026-04-04T07:11:26.136Z</time></trkpt><trkpt lat="45.9880776" lon="11.9804218"><ele>229.0</ele><time>2026-04-04T07:11:27.136Z</time></trkpt><trkpt lat="45.9883034" lon="11.9804777"><ele>223.0</ele><time>2026-04-04T07:11:28.136Z</time></trkpt><trkpt lat="45.9885234" lon="11.9805711"><ele>217.0</ele><time>2026-04-04T07:11:29.136Z</time></trkpt><trkpt lat="45.988745" lon="11.9806837"><ele>217.0</ele><time>2026-04-04T07:11:30.136Z</time></trkpt><trkpt lat="45.9889634" lon="11.9808188"><ele>217.0</ele><time>2026-04-04T07:11:31.136Z</time></trkpt><trkpt lat="45.9891748" lon="11.9809817"><ele>219.0</ele><time>2026-04-04T07:11:32.136Z</time></trkpt><trkpt lat="45.9893771" lon="11.981162"><ele>221.0</ele><time>2026-04-04T07:11:33.136Z</time></trkpt><trkpt lat="45.9895696" lon="11.9813461"><ele>221.0</ele><time>2026-04-04T07:11:34.137Z</time></trkpt><trkpt lat="45.9897588" lon="11.9815292"><ele>221.0</ele><time>2026-04-04T07:11:35.137Z</time></trkpt><trkpt lat="45.9899445" lon="11.9817051"><ele>222.33333333333334</ele><time>2026-04-04T07:11:36.137Z</time></trkpt><trkpt lat="45.9901248" lon="11.9818769"><ele>223.66666666666669</ele><time>2026-04-04T07:11:37.137Z</time></trkpt><trkpt lat="45.990305" lon="11.9820507"><ele>225.0</ele><time>2026-04-04T07:11:38.136Z</time></trkpt><trkpt lat="45.9904866" lon="11.9822215"><ele>225.0</ele><time>2026-04-04T07:11:39.137Z</time></trkpt><trkpt lat="45.9906831" lon="11.9823785"><ele>225.0</ele><time>2026-04-04T07:11:40.137Z</time></trkpt><trkpt lat="45.9908903" lon="11.9825088"><ele>234.0</ele><time>2026-04-04T07:11:41.136Z</time></trkpt><trkpt lat="45.9911055" lon="11.9826149"><ele>243.0</ele><time>2026-04-04T07:11:42.136Z</time></trkpt><trkpt lat="45.9913247" lon="11.9826992"><ele>243.0</ele><time>2026-04-04T07:11:43.137Z</time></trkpt><trkpt lat="45.9915446" lon="11.98276"><ele>243.0</ele><time>2026-04-04T07:11:44.136Z</time></trkpt><trkpt lat="45.9917643" lon="11.9828036"><ele>243.0</ele><time>2026-04-04T07:11:45.136Z</time></trkpt><trkpt lat="45.9919852" lon="11.9828404"><ele>243.66666666666669</ele><time>2026-04-04T07:11:46.137Z</time></trkpt><trkpt lat="45.9922042" lon="11.9828759"><ele>244.33333333333334</ele><time>2026-04-04T07:11:47.136Z</time></trkpt><trkpt lat="45.9924254" lon="11.982912"><ele>245.0</ele><time>2026-04-04T07:11:48.136Z</time></trkpt><trkpt lat="45.9926438" lon="11.9829505"><ele>243.0</ele><time>2026-04-04T07:11:49.137Z</time></trkpt><trkpt lat="45.9928599" lon="11.9829891"><ele>241.0</ele><time>2026-04-04T07:11:50.136Z</time></trkpt><trkpt lat="45.9930772" lon="11.9830255"><ele>239.0</ele><time>2026-04-04T07:11:51.137Z</time></trkpt><trkpt lat="45.9932966" lon="11.9830611"><ele>237.0</ele><time>2026-04-04T07:11:52.136Z</time></trkpt><trkpt lat="45.9935193" lon="11.983093"><ele>235.0</ele><time>2026-04-04T07:11:53.138Z</time></trkpt><trkpt lat="45.9937456" lon="11.9831101"><ele>235.0</ele><time>2026-04-04T07:11:54.137Z</time></trkpt><trkpt lat="45.9939753" lon="11.983112"><ele>235.0</ele><time>2026-04-04T07:11:55.137Z</time></trkpt><trkpt lat="45.994209" lon="11.9831162"><ele>233.5</ele><time>2026-04-04T07:11:56.136Z</time></trkpt><trkpt lat="45.9944455" lon="11.9831353"><ele>232.0</ele><time>2026-04-04T07:11:57.137Z</time></trkpt><trkpt lat="45.9946825" lon="11.9831762"><ele>232.0</ele><time>2026-04-04T07:11:58.137Z</time></trkpt><trkpt lat="45.9949181" lon="11.9832468"><ele>232.0</ele><time>2026-04-04T07:11:59.136Z</time></trkpt><trkpt lat="45.995147" lon="11.9833235"><ele>268.0</ele><time>2026-04-04T07:12:00.137Z</time></trkpt><trkpt lat="45.9953793" lon="11.9833915"><ele>304.0</ele><time>2026-04-04T07:12:01.136Z</time></trkpt><trkpt lat="45.9956148" lon="11.9834229"><ele>299.5</ele><time>2026-04-04T07:12:02.136Z</time></trkpt><trkpt lat="45.9958497" lon="11.98342"><ele>295.0</ele><time>2026-04-04T07:12:03.136Z</time></trkpt><trkpt lat="45.9960816" lon="11.9834005"><ele>295.0</ele><time>2026-04-04T07:12:04.137Z</time></trkpt><trkpt lat="45.9963116" lon="11.9833777"><ele>295.0</ele><time>2026-04-04T07:12:05.137Z</time></trkpt><trkpt lat="45.996542" lon="11.9833526"><ele>265.5</ele><time>2026-04-04T07:12:06.136Z</time></trkpt><trkpt lat="45.9967703" lon="11.9833313"><ele>236.0</ele><time>2026-04-04T07:12:07.136Z</time></trkpt><trkpt lat="45.996994" lon="11.9833114"><ele>236.0</ele><time>2026-04-04T07:12:08.137Z</time></trkpt><trkpt lat="45.9972134" lon="11.9832912"><ele>236.0</ele><time>2026-04-04T07:12:09.136Z</time></trkpt><trkpt lat="45.9974305" lon="11.9832714"><ele>236.0</ele><time>2026-04-04T07:12:10.137Z</time></trkpt><trkpt lat="45.9976464" lon="11.9832558"><ele>232.33333333333334</ele><time>2026-04-04T07:12:11.136Z</time></trkpt><trkpt lat="45.9978611" lon="11.9832393"><ele>228.66666666666669</ele><time>2026-04-04T07:12:12.137Z</time></trkpt><trkpt lat="45.9980761" lon="11.9832192"><ele>225.0</ele><time>2026-04-04T07:12:13.137Z</time></trkpt><trkpt lat="45.9982932" lon="11.9831978"><ele>225.0</ele><time>2026-04-04T07:12:14.137Z</time></trkpt><trkpt lat="45.9985137" lon="11.9831748"><ele>225.0</ele><time>2026-04-04T07:12:15.137Z</time></trkpt><trkpt lat="45.9987344" lon="11.9831486"><ele>225.0</ele><time>2026-04-04T07:12:16.138Z</time></trkpt><trkpt lat="45.9989564" lon="11.9831232"><ele>225.0</ele><time>2026-04-04T07:12:17.137Z</time></trkpt><trkpt lat="45.9991778" lon="11.9831011"><ele>225.0</ele><time>2026-04-04T07:12:18.138Z</time></trkpt><trkpt lat="45.9993995" lon="11.9830765"><ele>225.0</ele><time>2026-04-04T07:12:19.137Z</time></trkpt><trkpt lat="45.9996189" lon="11.9830515"><ele>225.0</ele><time>2026-04-04T07:12:20.137Z</time></trkpt><trkpt lat="45.9998398" lon="11.9830267"><ele>225.0</ele><time>2026-04-04T07:12:21.137Z</time></trkpt><trkpt lat="46.0000601" lon="11.9830026"><ele>225.0</ele><time>2026-04-04T07:12:22.138Z</time></trkpt><trkpt lat="46.0002817" lon="11.9829832"><ele>225.0</ele><time>2026-04-04T07:12:23.138Z</time></trkpt><trkpt lat="46.0005063" lon="11.9829632"><ele>225.0</ele><time>2026-04-04T07:12:24.137Z</time></trkpt><trkpt lat="46.0007329" lon="11.9829402"><ele>229.5</ele><time>2026-04-04T07:12:25.138Z</time></trkpt><trkpt lat="46.0009627" lon="11.9829186"><ele>234.0</ele><time>2026-04-04T07:12:26.138Z</time></trkpt><trkpt lat="46.0011912" lon="11.9828977"><ele>234.0</ele><time>2026-04-04T07:12:27.137Z</time></trkpt><trkpt lat="46.0014196" lon="11.9828798"><ele>234.0</ele><time>2026-04-04T07:12:28.137Z</time></trkpt><trkpt lat="46.0016484" lon="11.9828594"><ele>237.0</ele><time>2026-04-04T07:12:29.137Z</time></trkpt><trkpt lat="46.0018782" lon="11.982837"><ele>240.0</ele><time>2026-04-04T07:12:30.137Z</time></trkpt><trkpt lat="46.00211" lon="11.9828132"><ele>240.0</ele><time>2026-04-04T07:12:31.138Z</time></trkpt><trkpt lat="46.0023437" lon="11.9827881"><ele>240.0</ele><time>2026-04-04T07:12:32.137Z</time></trkpt><trkpt lat="46.0025794" lon="11.982764"><ele>234.0</ele><time>2026-04-04T07:12:33.138Z</time></trkpt><trkpt lat="46.0028159" lon="11.9827379"><ele>228.0</ele><time>2026-04-04T07:12:34.138Z</time></trkpt><trkpt lat="46.0030527" lon="11.9827111"><ele>228.0</ele><time>2026-04-04T07:12:35.137Z</time></trkpt><trkpt lat="46.0032886" lon="11.982688"><ele>228.0</ele><time>2026-04-04T07:12:36.138Z</time></trkpt><trkpt lat="46.0035269" lon="11.9826653"><ele>228.5</ele><time>2026-04-04T07:12:37.137Z</time></trkpt><trkpt lat="46.0037642" lon="11.9826451"><ele>229.0</ele><time>2026-04-04T07:12:38.137Z</time></trkpt><trkpt lat="46.0040005" lon="11.9826211"><ele>228.5</ele><time>2026-04-04T07:12:39.139Z</time></trkpt><trkpt lat="46.0042354" lon="11.9825953"><ele>228.0</ele><time>2026-04-04T07:12:40.138Z</time></trkpt><trkpt lat="46.0044694" lon="11.982568"><ele>228.0</ele><time>2026-04-04T07:12:41.137Z</time></trkpt><trkpt lat="46.0047022" lon="11.982543"><ele>228.0</ele><time>2026-04-04T07:12:42.139Z</time></trkpt><trkpt lat="46.0049333" lon="11.9825209"><ele>225.0</ele><time>2026-04-04T07:12:43.137Z</time></trkpt><trkpt lat="46.0051631" lon="11.9824965"><ele>222.0</ele><time>2026-04-04T07:12:44.138Z</time></trkpt><trkpt lat="46.0053937" lon="11.9824714"><ele>222.0</ele><time>2026-04-04T07:12:45.137Z</time></trkpt><trkpt lat="46.0056239" lon="11.9824468"><ele>222.0</ele><time>2026-04-04T07:12:46.137Z</time></trkpt><trkpt lat="46.0058535" lon="11.9824242"><ele>222.5</ele><time>2026-04-04T07:12:47.138Z</time></trkpt><trkpt lat="46.0060846" lon="11.9824031"><ele>223.0</ele><time>2026-04-04T07:12:48.138Z</time></trkpt><trkpt lat="46.0063149" lon="11.9823785"><ele>223.0</ele><time>2026-04-04T07:12:49.137Z</time></trkpt><trkpt lat="46.006546" lon="11.9823527"><ele>223.0</ele><time>2026-04-04T07:12:50.139Z</time></trkpt><trkpt lat="46.0067779" lon="11.9823275"><ele>222.5</ele><time>2026-04-04T07:12:51.139Z</time></trkpt><trkpt lat="46.0070102" lon="11.9823013"><ele>222.0</ele><time>2026-04-04T07:12:52.138Z</time></trkpt><trkpt lat="46.0072432" lon="11.9822725"><ele>222.0</ele><time>2026-04-04T07:12:53.137Z</time></trkpt><trkpt lat="46.0074766" lon="11.9822429"><ele>222.0</ele><time>2026-04-04T07:12:54.137Z</time></trkpt><trkpt lat="46.0077128" lon="11.9822113"><ele>221.0</ele><time>2026-04-04T07:12:55.137Z</time></trkpt><trkpt lat="46.0079482" lon="11.9821787"><ele>220.0</ele><time>2026-04-04T07:12:56.137Z</time></trkpt><trkpt lat="46.0081844" lon="11.9821472"><ele>226.5</ele><time>2026-04-04T07:12:57.137Z</time></trkpt><trkpt lat="46.0084218" lon="11.9821178"><ele>233.0</ele><time>2026-04-04T07:12:58.137Z</time></trkpt><trkpt lat="46.0086581" lon="11.9820866"><ele>233.0</ele><time>2026-04-04T07:12:59.137Z</time></trkpt><trkpt lat="46.00889" lon="11.982057"><ele>233.0</ele><time>2026-04-04T07:13:00.138Z</time></trkpt><trkpt lat="46.0091247" lon="11.9820287"><ele>246.0</ele><time>2026-04-04T07:13:01.138Z</time></trkpt><trkpt lat="46.0093576" lon="11.9820012"><ele>259.0</ele><time>2026-04-04T07:13:02.137Z</time></trkpt><trkpt lat="46.0095897" lon="11.9819756"><ele>259.0</ele><time>2026-04-04T07:13:03.137Z</time></trkpt><trkpt lat="46.0098184" lon="11.9819446"><ele>259.0</ele><time>2026-04-04T07:13:04.137Z</time></trkpt><trkpt lat="46.0100467" lon="11.9819123"><ele>267.0</ele><time>2026-04-04T07:13:05.137Z</time></trkpt><trkpt lat="46.0102741" lon="11.9818799"><ele>275.0</ele><time>2026-04-04T07:13:06.138Z</time></trkpt><trkpt lat="46.0104994" lon="11.9818508"><ele>275.0</ele><time>2026-04-04T07:13:07.138Z</time></trkpt><trkpt lat="46.0107235" lon="11.9818273"><ele>275.0</ele><time>2026-04-04T07:13:08.137Z</time></trkpt><trkpt lat="46.0109477" lon="11.9818089"><ele>275.0</ele><time>2026-04-04T07:13:09.137Z</time></trkpt><trkpt lat="46.0111733" lon="11.9818068"><ele>279.0</ele><time>2026-04-04T07:13:10.137Z</time></trkpt><trkpt lat="46.0113982" lon="11.9818251"><ele>283.0</ele><time>2026-04-04T07:13:11.138Z</time></trkpt><trkpt lat="46.0116222" lon="11.9818667"><ele>273.5</ele><time>2026-04-04T07:13:12.137Z</time></trkpt><trkpt lat="46.0118437" lon="11.9819286"><ele>264.0</ele><time>2026-04-04T07:13:13.138Z</time></trkpt><trkpt lat="46.0120634" lon="11.981999"><ele>264.0</ele><time>2026-04-04T07:13:14.138Z</time></trkpt><trkpt lat="46.0122824" lon="11.9820747"><ele>264.0</ele><time>2026-04-04T07:13:15.137Z</time></trkpt><trkpt lat="46.012501" lon="11.9821445"><ele>264.0</ele><time>2026-04-04T07:13:16.137Z</time></trkpt><trkpt lat="46.0127202" lon="11.9822148"><ele>251.0</ele><time>2026-04-04T07:13:17.137Z</time></trkpt><trkpt lat="46.0129408" lon="11.9822857"><ele>238.0</ele><time>2026-04-04T07:13:18.137Z</time></trkpt><trkpt lat="46.0131616" lon="11.9823595"><ele>234.5</ele><time>2026-04-04T07:13:19.138Z</time></trkpt><trkpt lat="46.013383" lon="11.9824354"><ele>231.0</ele><time>2026-04-04T07:13:20.138Z</time></trkpt><trkpt lat="46.0136038" lon="11.98251"><ele>246.5</ele><time>2026-04-04T07:13:21.138Z</time></trkpt><trkpt lat="46.0138252" lon="11.9825843"><ele>262.0</ele><time>2026-04-04T07:13:22.137Z</time></trkpt><trkpt lat="46.0140461" lon="11.9826592"><ele>260.0</ele><time>2026-04-04T07:13:23.138Z</time></trkpt><trkpt lat="46.0142638" lon="11.9827522"><ele>258.0</ele><time>2026-04-04T07:13:24.138Z</time></trkpt><trkpt lat="46.0144741" lon="11.982872"><ele>258.0</ele><time>2026-04-04T07:13:25.138Z</time></trkpt><trkpt lat="46.0146778" lon="11.9830186"><ele>258.0</ele><time>2026-04-04T07:13:26.138Z</time></trkpt><trkpt lat="46.0148735" lon="11.9831895"><ele>262.3333333333333</ele><time>2026-04-04T07:13:27.138Z</time></trkpt><trkpt lat="46.0150487" lon="11.9833876"><ele>266.66666666666663</ele><time>2026-04-04T07:13:28.138Z</time></trkpt><trkpt lat="46.0152066" lon="11.9836093"><ele>271.0</ele><time>2026-04-04T07:13:29.138Z</time></trkpt><trkpt lat="46.0153339" lon="11.983861"><ele>271.0</ele><time>2026-04-04T07:13:30.137Z</time></trkpt><trkpt lat="46.0154308" lon="11.9841297"><ele>271.0</ele><time>2026-04-04T07:13:31.138Z</time></trkpt><trkpt lat="46.0155079" lon="11.9844168"><ele>271.0</ele><time>2026-04-04T07:13:32.138Z</time></trkpt><trkpt lat="46.0155718" lon="11.9847044"><ele>275.0</ele><time>2026-04-04T07:13:33.138Z</time></trkpt><trkpt lat="46.0156325" lon="11.9850013"><ele>279.0</ele><time>2026-04-04T07:13:34.137Z</time></trkpt><trkpt lat="46.0157138" lon="11.9852885"><ele>283.0</ele><time>2026-04-04T07:13:35.138Z</time></trkpt><trkpt lat="46.0158118" lon="11.9855556"><ele>277.0</ele><time>2026-04-04T07:13:36.137Z</time></trkpt><trkpt lat="46.0159263" lon="11.9858097"><ele>271.0</ele><time>2026-04-04T07:13:37.137Z</time></trkpt><trkpt lat="46.016047" lon="11.9860627"><ele>265.0</ele><time>2026-04-04T07:13:38.138Z</time></trkpt><trkpt lat="46.0161738" lon="11.9863147"><ele>265.0</ele><time>2026-04-04T07:13:39.138Z</time></trkpt><trkpt lat="46.0163013" lon="11.9865697"><ele>265.0</ele><time>2026-04-04T07:13:40.137Z</time></trkpt><trkpt lat="46.0164276" lon="11.9868285"><ele>265.0</ele><time>2026-04-04T07:13:41.137Z</time></trkpt><trkpt lat="46.0165581" lon="11.987087"><ele>261.5</ele><time>2026-04-04T07:13:42.137Z</time></trkpt><trkpt lat="46.0167018" lon="11.9873358"><ele>258.0</ele><time>2026-04-04T07:13:43.138Z</time></trkpt><trkpt lat="46.0168592" lon="11.9875709"><ele>272.5</ele><time>2026-04-04T07:13:44.137Z</time></trkpt><trkpt lat="46.0170316" lon="11.9877854"><ele>287.0</ele><time>2026-04-04T07:13:45.137Z</time></trkpt><trkpt lat="46.0172201" lon="11.9879794"><ele>287.0</ele><time>2026-04-04T07:13:46.138Z</time></trkpt><trkpt lat="46.017419" lon="11.9881521"><ele>287.0</ele><time>2026-04-04T07:13:47.138Z</time></trkpt><trkpt lat="46.0176273" lon="11.9883013"><ele>283.0</ele><time>2026-04-04T07:13:48.137Z</time></trkpt><trkpt lat="46.0178398" lon="11.9884475"><ele>279.0</ele><time>2026-04-04T07:13:49.138Z</time></trkpt><trkpt lat="46.0180478" lon="11.9886122"><ele>279.0</ele><time>2026-04-04T07:13:50.137Z</time></trkpt><trkpt lat="46.018247" lon="11.9888035"><ele>279.0</ele><time>2026-04-04T07:13:51.137Z</time></trkpt><trkpt lat="46.0184392" lon="11.9890169"><ele>274.0</ele><time>2026-04-04T07:13:52.138Z</time></trkpt><trkpt lat="46.0186277" lon="11.9892445"><ele>269.0</ele><time>2026-04-04T07:13:53.138Z</time></trkpt><trkpt lat="46.0188205" lon="11.989488"><ele>269.0</ele><time>2026-04-04T07:13:54.138Z</time></trkpt><trkpt lat="46.0190183" lon="11.9897385"><ele>269.0</ele><time>2026-04-04T07:13:55.138Z</time></trkpt><trkpt lat="46.0192196" lon="11.9899851"><ele>266.5</ele><time>2026-04-04T07:13:56.138Z</time></trkpt><trkpt lat="46.0194242" lon="11.9902348"><ele>264.0</ele><time>2026-04-04T07:13:57.138Z</time></trkpt><trkpt lat="46.0196296" lon="11.9904868"><ele>264.0</ele><time>2026-04-04T07:13:58.137Z</time></trkpt><trkpt lat="46.0198333" lon="11.9907427"><ele>264.0</ele><time>2026-04-04T07:13:59.137Z</time></trkpt><trkpt lat="46.0200374" lon="11.991"><ele>258.0</ele><time>2026-04-04T07:14:00.137Z</time></trkpt><trkpt lat="46.0202409" lon="11.9912548"><ele>252.0</ele><time>2026-04-04T07:14:01.137Z</time></trkpt><trkpt lat="46.0204422" lon="11.9915068"><ele>252.5</ele><time>2026-04-04T07:14:02.137Z</time></trkpt><trkpt lat="46.020642" lon="11.9917554"><ele>253.0</ele><time>2026-04-04T07:14:03.137Z</time></trkpt><trkpt lat="46.0208406" lon="11.9920021"><ele>253.0</ele><time>2026-04-04T07:14:04.139Z</time></trkpt><trkpt lat="46.0210331" lon="11.9922459"><ele>253.0</ele><time>2026-04-04T07:14:05.138Z</time></trkpt><trkpt lat="46.0212287" lon="11.9924777"><ele>261.5</ele><time>2026-04-04T07:14:06.139Z</time></trkpt><trkpt lat="46.0214362" lon="11.9926789"><ele>270.0</ele><time>2026-04-04T07:14:07.137Z</time></trkpt><trkpt lat="46.0216511" lon="11.9928618"><ele>270.0</ele><time>2026-04-04T07:14:08.138Z</time></trkpt><trkpt lat="46.0218731" lon="11.9930196"><ele>270.0</ele><time>2026-04-04T07:14:09.137Z</time></trkpt><trkpt lat="46.0221004" lon="11.99316"><ele>270.0</ele><time>2026-04-04T07:14:10.137Z</time></trkpt><trkpt lat="46.0223307" lon="11.9932893"><ele>270.0</ele><time>2026-04-04T07:14:11.138Z</time></trkpt><trkpt lat="46.0225559" lon="11.9934213"><ele>274.0</ele><time>2026-04-04T07:14:12.137Z</time></trkpt><trkpt lat="46.0227794" lon="11.9935553"><ele>278.0</ele><time>2026-04-04T07:14:13.138Z</time></trkpt><trkpt lat="46.0230025" lon="11.9936861"><ele>278.0</ele><time>2026-04-04T07:14:14.138Z</time></trkpt><trkpt lat="46.0232248" lon="11.9938163"><ele>278.0</ele><time>2026-04-04T07:14:15.139Z</time></trkpt><trkpt lat="46.0234439" lon="11.9939458"><ele>269.0</ele><time>2026-04-04T07:14:16.138Z</time></trkpt><trkpt lat="46.0236623" lon="11.9940739"><ele>260.0</ele><time>2026-04-04T07:14:17.138Z</time></trkpt><trkpt lat="46.0238806" lon="11.994198"><ele>266.5</ele><time>2026-04-04T07:14:18.138Z</time></trkpt><trkpt lat="46.0240949" lon="11.9943203"><ele>273.0</ele><time>2026-04-04T07:14:19.138Z</time></trkpt><trkpt lat="46.0243059" lon="11.9944461"><ele>273.0</ele><time>2026-04-04T07:14:20.138Z</time></trkpt><trkpt lat="46.0245156" lon="11.9945736"><ele>273.0</ele><time>2026-04-04T07:14:21.137Z</time></trkpt><trkpt lat="46.0247239" lon="11.9947113"><ele>273.0</ele><time>2026-04-04T07:14:22.137Z</time></trkpt><trkpt lat="46.0249264" lon="11.9948656"><ele>273.0</ele><time>2026-04-04T07:14:23.138Z</time></trkpt><trkpt lat="46.0251248" lon="11.995039"><ele>272.0</ele><time>2026-04-04T07:14:24.137Z</time></trkpt><trkpt lat="46.0253155" lon="11.9952239"><ele>271.0</ele><time>2026-04-04T07:14:25.138Z</time></trkpt><trkpt lat="46.0254973" lon="11.9954151"><ele>271.0</ele><time>2026-04-04T07:14:26.138Z</time></trkpt><trkpt lat="46.0256734" lon="11.9956115"><ele>271.0</ele><time>2026-04-04T07:14:27.137Z</time></trkpt><trkpt lat="46.0258498" lon="11.9958027"><ele>271.0</ele><time>2026-04-04T07:14:28.137Z</time></trkpt><trkpt lat="46.0260254" lon="11.9959919"><ele>263.0</ele><time>2026-04-04T07:14:29.137Z</time></trkpt><trkpt lat="46.0261999" lon="11.996178"><ele>255.0</ele><time>2026-04-04T07:14:30.138Z</time></trkpt><trkpt lat="46.0263729" lon="11.9963578"><ele>247.0</ele><time>2026-04-04T07:14:31.137Z</time></trkpt><trkpt lat="46.0265422" lon="11.9965356"><ele>244.66666666666666</ele><time>2026-04-04T07:14:32.139Z</time></trkpt><trkpt lat="46.0267089" lon="11.9967123"><ele>242.33333333333331</ele><time>2026-04-04T07:14:33.137Z</time></trkpt><trkpt lat="46.0268767" lon="11.9968874"><ele>240.0</ele><time>2026-04-04T07:14:34.137Z</time></trkpt><trkpt lat="46.02705" lon="11.9970551"><ele>240.0</ele><time>2026-04-04T07:14:35.137Z</time></trkpt><trkpt lat="46.0272289" lon="11.9972094"><ele>240.0</ele><time>2026-04-04T07:14:36.137Z</time></trkpt><trkpt lat="46.027412" lon="11.9973436"><ele>240.0</ele><time>2026-04-04T07:14:37.137Z</time></trkpt><trkpt lat="46.0275994" lon="11.9974583"><ele>240.33333333333331</ele><time>2026-04-04T07:14:38.137Z</time></trkpt><trkpt lat="46.0277888" lon="11.9975539"><ele>240.66666666666666</ele><time>2026-04-04T07:14:39.138Z</time></trkpt><trkpt lat="46.0279806" lon="11.9976329"><ele>241.0</ele><time>2026-04-04T07:14:40.138Z</time></trkpt><trkpt lat="46.0281768" lon="11.9976928"><ele>241.33333333333331</ele><time>2026-04-04T07:14:41.138Z</time></trkpt><trkpt lat="46.028371" lon="11.9977354"><ele>241.66666666666669</ele><time>2026-04-04T07:14:42.138Z</time></trkpt><trkpt lat="46.0285667" lon="11.9977619"><ele>242.0</ele><time>2026-04-04T07:14:43.137Z</time></trkpt><trkpt lat="46.0287605" lon="11.9977699"><ele>242.0</ele><time>2026-04-04T07:14:44.138Z</time></trkpt><trkpt lat="46.0289546" lon="11.9977752"><ele>242.0</ele><time>2026-04-04T07:14:45.137Z</time></trkpt><trkpt lat="46.0291521" lon="11.9977729"><ele>242.0</ele><time>2026-04-04T07:14:46.137Z</time></trkpt><trkpt lat="46.0293589" lon="11.997765"><ele>240.66666666666669</ele><time>2026-04-04T07:14:47.138Z</time></trkpt><trkpt lat="46.0295725" lon="11.9977546"><ele>239.33333333333331</ele><time>2026-04-04T07:14:48.138Z</time></trkpt><trkpt lat="46.0297941" lon="11.9977484"><ele>238.0</ele><time>2026-04-04T07:14:49.137Z</time></trkpt><trkpt lat="46.030013" lon="11.9977415"><ele>237.33333333333331</ele><time>2026-04-04T07:14:50.137Z</time></trkpt><trkpt lat="46.0302332" lon="11.997732"><ele>236.66666666666669</ele><time>2026-04-04T07:14:51.137Z</time></trkpt><trkpt lat="46.0304506" lon="11.9977241"><ele>236.0</ele><time>2026-04-04T07:14:52.137Z</time></trkpt><trkpt lat="46.0306594" lon="11.9977153"><ele>236.66666666666669</ele><time>2026-04-04T07:14:53.139Z</time></trkpt><trkpt lat="46.0308569" lon="11.997712"><ele>237.33333333333331</ele><time>2026-04-04T07:14:54.137Z</time></trkpt><trkpt lat="46.0310596" lon="11.9977043"><ele>238.0</ele><time>2026-04-04T07:14:55.137Z</time></trkpt><trkpt lat="46.0312752" lon="11.9976887"><ele>238.0</ele><time>2026-04-04T07:14:56.137Z</time></trkpt><trkpt lat="46.0315003" lon="11.9976747"><ele>238.0</ele><time>2026-04-04T07:14:57.138Z</time></trkpt><trkpt lat="46.0317303" lon="11.9976715"><ele>237.0</ele><time>2026-04-04T07:14:58.137Z</time></trkpt><trkpt lat="46.03196" lon="11.997676"><ele>236.0</ele><time>2026-04-04T07:14:59.138Z</time></trkpt><trkpt lat="46.0321899" lon="11.9976807"><ele>236.0</ele><time>2026-04-04T07:15:00.137Z</time></trkpt><trkpt lat="46.0324227" lon="11.9976776"><ele>236.0</ele><time>2026-04-04T07:15:01.137Z</time></trkpt><trkpt lat="46.0326599" lon="11.9976708"><ele>237.0</ele><time>2026-04-04T07:15:02.138Z</time></trkpt><trkpt lat="46.0329" lon="11.9976695"><ele>238.0</ele><time>2026-04-04T07:15:03.137Z</time></trkpt><trkpt lat="46.0331357" lon="11.997671"><ele>238.33333333333331</ele><time>2026-04-04T07:15:04.137Z</time></trkpt><trkpt lat="46.0333639" lon="11.9976742"><ele>238.66666666666669</ele><time>2026-04-04T07:15:05.139Z</time></trkpt><trkpt lat="46.0335808" lon="11.9976746"><ele>239.0</ele><time>2026-04-04T07:15:06.137Z</time></trkpt><trkpt lat="46.0337908" lon="11.9976719"><ele>239.0</ele><time>2026-04-04T07:15:07.137Z</time></trkpt><trkpt lat="46.0339976" lon="11.9976692"><ele>239.0</ele><time>2026-04-04T07:15:08.137Z</time></trkpt><trkpt lat="46.0341953" lon="11.9976658"><ele>239.0</ele><time>2026-04-04T07:15:09.138Z</time></trkpt><trkpt lat="46.034383" lon="11.9976573"><ele>239.66666666666669</ele><time>2026-04-04T07:15:10.138Z</time></trkpt><trkpt lat="46.0345569" lon="11.9976523"><ele>240.33333333333331</ele><time>2026-04-04T07:15:11.137Z</time></trkpt><trkpt lat="46.0347149" lon="11.9976477"><ele>241.0</ele><time>2026-04-04T07:15:12.138Z</time></trkpt><trkpt lat="46.0348591" lon="11.9976435"><ele>240.60000000000002</ele><time>2026-04-04T07:15:13.137Z</time></trkpt><trkpt lat="46.0349866" lon="11.9976397"><ele>240.20000000000002</ele><time>2026-04-04T07:15:14.138Z</time></trkpt><trkpt lat="46.0351041" lon="11.9976416"><ele>239.79999999999998</ele><time>2026-04-04T07:15:15.138Z</time></trkpt><trkpt lat="46.0352101" lon="11.9976562"><ele>239.39999999999998</ele><time>2026-04-04T07:15:16.137Z</time></trkpt><trkpt lat="46.0352963" lon="11.9976825"><ele>239.0</ele><time>2026-04-04T07:15:17.138Z</time></trkpt><trkpt lat="46.0353699" lon="11.9976928"><ele>239.00000000000003</ele><time>2026-04-04T07:15:18.138Z</time></trkpt><trkpt lat="46.0354387" lon="11.9976714"><ele>239.0</ele><time>2026-04-04T07:15:19.138Z</time></trkpt><trkpt lat="46.0354904" lon="11.9976147"><ele>239.0</ele><time>2026-04-04T07:15:20.137Z</time></trkpt><trkpt lat="46.0355309" lon="11.9975333"><ele>239.0</ele><time>2026-04-04T07:15:21.138Z</time></trkpt><trkpt lat="46.0355864" lon="11.9974375"><ele>239.00000000000003</ele><time>2026-04-04T07:15:22.137Z</time></trkpt><trkpt lat="46.0356661" lon="11.9973655"><ele>239.0</ele><time>2026-04-04T07:15:23.137Z</time></trkpt><trkpt lat="46.0357636" lon="11.99731"><ele>239.5</ele><time>2026-04-04T07:15:24.137Z</time></trkpt><trkpt lat="46.0358669" lon="11.9972544"><ele>240.0</ele><time>2026-04-04T07:15:25.138Z</time></trkpt><trkpt lat="46.0359829" lon="11.9971835"><ele>240.5</ele><time>2026-04-04T07:15:26.137Z</time></trkpt><trkpt lat="46.0361047" lon="11.9970988"><ele>241.0</ele><time>2026-04-04T07:15:27.137Z</time></trkpt><trkpt lat="46.0362318" lon="11.9970022"><ele>241.0</ele><time>2026-04-04T07:15:28.138Z</time></trkpt><trkpt lat="46.0363599" lon="11.9968965"><ele>241.0</ele><time>2026-04-04T07:15:29.137Z</time></trkpt><trkpt lat="46.036488" lon="11.9967809"><ele>241.0</ele><time>2026-04-04T07:15:30.138Z</time></trkpt><trkpt lat="46.0366063" lon="11.9966608"><ele>241.0</ele><time>2026-04-04T07:15:31.138Z</time></trkpt><trkpt lat="46.0367132" lon="11.9965432"><ele>240.75</ele><time>2026-04-04T07:15:32.138Z</time></trkpt><trkpt lat="46.0368113" lon="11.9964291"><ele>240.5</ele><time>2026-04-04T07:15:33.137Z</time></trkpt><trkpt lat="46.0369053" lon="11.9963121"><ele>240.25</ele><time>2026-04-04T07:15:34.138Z</time></trkpt><trkpt lat="46.0369923" lon="11.9961925"><ele>240.0</ele><time>2026-04-04T07:15:35.139Z</time></trkpt><trkpt lat="46.0370718" lon="11.9960736"><ele>240.0</ele><time>2026-04-04T07:15:36.137Z</time></trkpt><trkpt lat="46.0371493" lon="11.9959532"><ele>240.0</ele><time>2026-04-04T07:15:37.138Z</time></trkpt><trkpt lat="46.0372252" lon="11.9958265"><ele>240.0</ele><time>2026-04-04T07:15:38.138Z</time></trkpt><trkpt lat="46.0372978" lon="11.9956973"><ele>240.0</ele><time>2026-04-04T07:15:39.138Z</time></trkpt><trkpt lat="46.0373634" lon="11.9955722"><ele>240.0</ele><time>2026-04-04T07:15:40.137Z</time></trkpt><trkpt lat="46.0374245" lon="11.9954475"><ele>240.0</ele><time>2026-04-04T07:15:41.138Z</time></trkpt><trkpt lat="46.037478" lon="11.9953294"><ele>240.0</ele><time>2026-04-04T07:15:42.137Z</time></trkpt><trkpt lat="46.0375276" lon="11.9952139"><ele>240.0</ele><time>2026-04-04T07:15:43.138Z</time></trkpt><trkpt lat="46.0375696" lon="11.9951081"><ele>240.0</ele><time>2026-04-04T07:15:44.138Z</time></trkpt><trkpt lat="46.0376102" lon="11.9950066"><ele>240.4</ele><time>2026-04-04T07:15:45.137Z</time></trkpt><trkpt lat="46.0376496" lon="11.9949109"><ele>240.8</ele><time>2026-04-04T07:15:46.138Z</time></trkpt><trkpt lat="46.0376841" lon="11.9948181"><ele>241.2</ele><time>2026-04-04T07:15:47.137Z</time></trkpt><trkpt lat="46.0377146" lon="11.9947305"><ele>241.6</ele><time>2026-04-04T07:15:48.137Z</time></trkpt><trkpt lat="46.0377646" lon="11.9945709"><ele>242.0</ele><time>2026-04-04T07:15:50.137Z</time></trkpt><trkpt lat="46.0378097" lon="11.9944212"><ele>242.0</ele><time>2026-04-04T07:15:52.138Z</time></trkpt><trkpt lat="46.0378575" lon="11.9942425"><ele>242.0</ele><time>2026-04-04T07:15:54.138Z</time></trkpt><trkpt lat="46.0378809" lon="11.994127"><ele>242.0</ele><time>2026-04-04T07:15:55.137Z</time></trkpt><trkpt lat="46.0379081" lon="11.9939883"><ele>242.0</ele><time>2026-04-04T07:15:56.137Z</time></trkpt><trkpt lat="46.0379343" lon="11.993826"><ele>242.0</ele><time>2026-04-04T07:15:57.138Z</time></trkpt><trkpt lat="46.0379589" lon="11.9936451"><ele>241.5</ele><time>2026-04-04T07:15:58.138Z</time></trkpt><trkpt lat="46.0379791" lon="11.9934563"><ele>241.0</ele><time>2026-04-04T07:15:59.137Z</time></trkpt><trkpt lat="46.0380009" lon="11.9932535"><ele>240.5</ele><time>2026-04-04T07:16:00.138Z</time></trkpt><trkpt lat="46.0380282" lon="11.9930418"><ele>240.0</ele><time>2026-04-04T07:16:01.137Z</time></trkpt><trkpt lat="46.0380563" lon="11.9928259"><ele>240.0</ele><time>2026-04-04T07:16:02.137Z</time></trkpt><trkpt lat="46.0380816" lon="11.9926061"><ele>240.0</ele><time>2026-04-04T07:16:03.137Z</time></trkpt><trkpt lat="46.0381016" lon="11.9923919"><ele>240.0</ele><time>2026-04-04T07:16:04.137Z</time></trkpt><trkpt lat="46.0381216" lon="11.9921834"><ele>240.0</ele><time>2026-04-04T07:16:05.138Z</time></trkpt><trkpt lat="46.038141" lon="11.9919811"><ele>240.0</ele><time>2026-04-04T07:16:06.138Z</time></trkpt><trkpt lat="46.0381624" lon="11.9917875"><ele>240.0</ele><time>2026-04-04T07:16:07.138Z</time></trkpt><trkpt lat="46.038183" lon="11.9915991"><ele>240.0</ele><time>2026-04-04T07:16:08.138Z</time></trkpt><trkpt lat="46.0382021" lon="11.9914119"><ele>240.0</ele><time>2026-04-04T07:16:09.137Z</time></trkpt><trkpt lat="46.0382225" lon="11.9912227"><ele>240.0</ele><time>2026-04-04T07:16:10.137Z</time></trkpt><trkpt lat="46.0382438" lon="11.9910272"><ele>240.0</ele><time>2026-04-04T07:16:11.138Z</time></trkpt><trkpt lat="46.0382636" lon="11.9908298"><ele>240.0</ele><time>2026-04-04T07:16:12.138Z</time></trkpt><trkpt lat="46.0382826" lon="11.990636"><ele>240.0</ele><time>2026-04-04T07:16:13.139Z</time></trkpt><trkpt lat="46.0382984" lon="11.9904439"><ele>240.0</ele><time>2026-04-04T07:16:14.137Z</time></trkpt><trkpt lat="46.0383042" lon="11.9902487"><ele>240.0</ele><time>2026-04-04T07:16:15.137Z</time></trkpt><trkpt lat="46.0382995" lon="11.9900443"><ele>240.0</ele><time>2026-04-04T07:16:16.139Z</time></trkpt><trkpt lat="46.0382808" lon="11.9898332"><ele>239.75</ele><time>2026-04-04T07:16:17.138Z</time></trkpt><trkpt lat="46.0382619" lon="11.9896248"><ele>239.5</ele><time>2026-04-04T07:16:18.138Z</time></trkpt><trkpt lat="46.0382344" lon="11.9894159"><ele>239.25</ele><time>2026-04-04T07:16:19.138Z</time></trkpt><trkpt lat="46.0382056" lon="11.9892064"><ele>239.0</ele><time>2026-04-04T07:16:20.138Z</time></trkpt><trkpt lat="46.0381776" lon="11.9889969"><ele>238.0</ele><time>2026-04-04T07:16:21.139Z</time></trkpt><trkpt lat="46.0381472" lon="11.9887851"><ele>237.0</ele><time>2026-04-04T07:16:22.138Z</time></trkpt><trkpt lat="46.038118" lon="11.9885721"><ele>236.0</ele><time>2026-04-04T07:16:23.138Z</time></trkpt><trkpt lat="46.0380886" lon="11.9883613"><ele>235.5</ele><time>2026-04-04T07:16:24.138Z</time></trkpt><trkpt lat="46.0380601" lon="11.9881594"><ele>235.0</ele><time>2026-04-04T07:16:25.138Z</time></trkpt><trkpt lat="46.0380426" lon="11.9879631"><ele>234.5</ele><time>2026-04-04T07:16:26.138Z</time></trkpt><trkpt lat="46.0380356" lon="11.9877726"><ele>234.0</ele><time>2026-04-04T07:16:27.138Z</time></trkpt><trkpt lat="46.0380393" lon="11.9875816"><ele>233.5</ele><time>2026-04-04T07:16:28.14Z</time></trkpt><trkpt lat="46.0380453" lon="11.9873919"><ele>233.0</ele><time>2026-04-04T07:16:29.138Z</time></trkpt><trkpt lat="46.0380488" lon="11.9872107"><ele>232.5</ele><time>2026-04-04T07:16:30.138Z</time></trkpt><trkpt lat="46.0380518" lon="11.9870364"><ele>232.0</ele><time>2026-04-04T07:16:31.138Z</time></trkpt><trkpt lat="46.038054" lon="11.9868667"><ele>232.0</ele><time>2026-04-04T07:16:32.138Z</time></trkpt><trkpt lat="46.0380571" lon="11.9867025"><ele>232.0</ele><time>2026-04-04T07:16:33.138Z</time></trkpt><trkpt lat="46.038057" lon="11.9865323"><ele>232.0</ele><time>2026-04-04T07:16:34.138Z</time></trkpt><trkpt lat="46.038061" lon="11.9863652"><ele>232.0</ele><time>2026-04-04T07:16:35.139Z</time></trkpt><trkpt lat="46.0380671" lon="11.9862024"><ele>232.25</ele><time>2026-04-04T07:16:36.138Z</time></trkpt><trkpt lat="46.038073" lon="11.9860365"><ele>232.5</ele><time>2026-04-04T07:16:37.138Z</time></trkpt><trkpt lat="46.0380882" lon="11.9858723"><ele>232.75</ele><time>2026-04-04T07:16:38.138Z</time></trkpt><trkpt lat="46.0381214" lon="11.9857079"><ele>233.0</ele><time>2026-04-04T07:16:39.139Z</time></trkpt><trkpt lat="46.0381715" lon="11.985554"><ele>233.5</ele><time>2026-04-04T07:16:40.139Z</time></trkpt><trkpt lat="46.038232" lon="11.9854116"><ele>234.0</ele><time>2026-04-04T07:16:41.139Z</time></trkpt><trkpt lat="46.0382931" lon="11.9852642"><ele>234.5</ele><time>2026-04-04T07:16:42.138Z</time></trkpt><trkpt lat="46.0383549" lon="11.9851123"><ele>235.0</ele><time>2026-04-04T07:16:43.14Z</time></trkpt><trkpt lat="46.0384155" lon="11.9849542"><ele>236.25</ele><time>2026-04-04T07:16:44.138Z</time></trkpt><trkpt lat="46.0384779" lon="11.9847912"><ele>237.5</ele><time>2026-04-04T07:16:45.139Z</time></trkpt><trkpt lat="46.0385414" lon="11.9846261"><ele>238.75</ele><time>2026-04-04T07:16:46.139Z</time></trkpt><trkpt lat="46.0386005" lon="11.9844651"><ele>240.0</ele><time>2026-04-04T07:16:47.139Z</time></trkpt><trkpt lat="46.0386563" lon="11.9843073"><ele>241.2</ele><time>2026-04-04T07:16:48.138Z</time></trkpt><trkpt lat="46.0387047" lon="11.9841497"><ele>242.4</ele><time>2026-04-04T07:16:49.138Z</time></trkpt><trkpt lat="46.0387375" lon="11.9840016"><ele>243.60000000000002</ele><time>2026-04-04T07:16:50.138Z</time></trkpt><trkpt lat="46.0387565" lon="11.98386"><ele>244.8</ele><time>2026-04-04T07:16:51.138Z</time></trkpt><trkpt lat="46.0387678" lon="11.983724"><ele>246.0</ele><time>2026-04-04T07:16:52.139Z</time></trkpt><trkpt lat="46.0387771" lon="11.9836016"><ele>246.0</ele><time>2026-04-04T07:16:53.138Z</time></trkpt><trkpt lat="46.0387967" lon="11.9834815"><ele>246.0</ele><time>2026-04-04T07:16:54.138Z</time></trkpt><trkpt lat="46.038834" lon="11.9833757"><ele>246.0</ele><time>2026-04-04T07:16:55.139Z</time></trkpt><trkpt lat="46.0388899" lon="11.9832802"><ele>246.0</ele><time>2026-04-04T07:16:56.138Z</time></trkpt><trkpt lat="46.0389518" lon="11.9832036"><ele>246.0</ele><time>2026-04-04T07:16:57.139Z</time></trkpt><trkpt lat="46.0390229" lon="11.9831539"><ele>246.0</ele><time>2026-04-04T07:16:58.138Z</time></trkpt><trkpt lat="46.0391021" lon="11.9831456"><ele>246.0</ele><time>2026-04-04T07:16:59.138Z</time></trkpt><trkpt lat="46.0391855" lon="11.9831778"><ele>246.0</ele><time>2026-04-04T07:17:00.138Z</time></trkpt><trkpt lat="46.0392616" lon="11.9832339"><ele>246.0</ele><time>2026-04-04T07:17:01.139Z</time></trkpt><trkpt lat="46.039335" lon="11.9832938"><ele>246.0</ele><time>2026-04-04T07:17:02.14Z</time></trkpt><trkpt lat="46.0394166" lon="11.9833606"><ele>246.0</ele><time>2026-04-04T07:17:03.138Z</time></trkpt><trkpt lat="46.0395036" lon="11.9834234"><ele>246.0</ele><time>2026-04-04T07:17:04.14Z</time></trkpt><trkpt lat="46.0395989" lon="11.9834921"><ele>246.0</ele><time>2026-04-04T07:17:05.138Z</time></trkpt><trkpt lat="46.0396975" lon="11.9835694"><ele>246.0</ele><time>2026-04-04T07:17:06.138Z</time></trkpt><trkpt lat="46.0397943" lon="11.9836471"><ele>246.0</ele><time>2026-04-04T07:17:07.138Z</time></trkpt><trkpt lat="46.0398946" lon="11.9837332"><ele>246.0</ele><time>2026-04-04T07:17:08.138Z</time></trkpt><trkpt lat="46.0399943" lon="11.983813"><ele>246.0</ele><time>2026-04-04T07:17:09.14Z</time></trkpt><trkpt lat="46.040104" lon="11.983901"><ele>246.0</ele><time>2026-04-04T07:17:10.138Z</time></trkpt><trkpt lat="46.0402151" lon="11.9839874"><ele>246.0</ele><time>2026-04-04T07:17:11.139Z</time></trkpt><trkpt lat="46.0403192" lon="11.9840765"><ele>246.0</ele><time>2026-04-04T07:17:12.138Z</time></trkpt><trkpt lat="46.04043" lon="11.9841746"><ele>245.75</ele><time>2026-04-04T07:17:13.139Z</time></trkpt><trkpt lat="46.0405389" lon="11.9842782"><ele>245.5</ele><time>2026-04-04T07:17:14.139Z</time></trkpt><trkpt lat="46.0406466" lon="11.9843906"><ele>245.25</ele><time>2026-04-04T07:17:15.139Z</time></trkpt><trkpt lat="46.0407525" lon="11.9845145"><ele>245.0</ele><time>2026-04-04T07:17:16.138Z</time></trkpt><trkpt lat="46.0408578" lon="11.9846445"><ele>245.0</ele><time>2026-04-04T07:17:17.139Z</time></trkpt><trkpt lat="46.0409647" lon="11.9847843"><ele>245.0</ele><time>2026-04-04T07:17:18.139Z</time></trkpt><trkpt lat="46.0410735" lon="11.9849286"><ele>245.0</ele><time>2026-04-04T07:17:19.138Z</time></trkpt><trkpt lat="46.0411846" lon="11.9850762"><ele>245.0</ele><time>2026-04-04T07:17:20.139Z</time></trkpt><trkpt lat="46.0412956" lon="11.9852255"><ele>244.66666666666669</ele><time>2026-04-04T07:17:21.139Z</time></trkpt><trkpt lat="46.0414072" lon="11.9853728"><ele>244.33333333333331</ele><time>2026-04-04T07:17:22.138Z</time></trkpt><trkpt lat="46.0415198" lon="11.9855211"><ele>244.0</ele><time>2026-04-04T07:17:23.138Z</time></trkpt><trkpt lat="46.0416358" lon="11.9856723"><ele>243.33333333333331</ele><time>2026-04-04T07:17:24.139Z</time></trkpt><trkpt lat="46.041753" lon="11.9858255"><ele>242.66666666666669</ele><time>2026-04-04T07:17:25.138Z</time></trkpt><trkpt lat="46.0418702" lon="11.9859796"><ele>242.0</ele><time>2026-04-04T07:17:26.139Z</time></trkpt><trkpt lat="46.041987" lon="11.9861323"><ele>240.66666666666669</ele><time>2026-04-04T07:17:27.138Z</time></trkpt><trkpt lat="46.0421025" lon="11.986283"><ele>239.33333333333331</ele><time>2026-04-04T07:17:28.139Z</time></trkpt><trkpt lat="46.0422156" lon="11.9864324"><ele>238.0</ele><time>2026-04-04T07:17:29.14Z</time></trkpt><trkpt lat="46.042322" lon="11.9865814"><ele>238.25</ele><time>2026-04-04T07:17:30.138Z</time></trkpt><trkpt lat="46.0424212" lon="11.9867272"><ele>238.5</ele><time>2026-04-04T07:17:31.14Z</time></trkpt><trkpt lat="46.0425191" lon="11.9868701"><ele>238.75</ele><time>2026-04-04T07:17:32.138Z</time></trkpt><trkpt lat="46.0426172" lon="11.9870097"><ele>239.0</ele><time>2026-04-04T07:17:33.139Z</time></trkpt><trkpt lat="46.0427148" lon="11.9871447"><ele>239.0</ele><time>2026-04-04T07:17:34.138Z</time></trkpt><trkpt lat="46.0428158" lon="11.9872823"><ele>239.0</ele><time>2026-04-04T07:17:35.138Z</time></trkpt><trkpt lat="46.042919" lon="11.9874212"><ele>239.0</ele><time>2026-04-04T07:17:36.139Z</time></trkpt><trkpt lat="46.0430244" lon="11.9875651"><ele>239.0</ele><time>2026-04-04T07:17:37.138Z</time></trkpt><trkpt lat="46.0431394" lon="11.9877185"><ele>239.0</ele><time>2026-04-04T07:17:38.139Z</time></trkpt><trkpt lat="46.0432634" lon="11.9878758"><ele>239.0</ele><time>2026-04-04T07:17:39.139Z</time></trkpt><trkpt lat="46.0433935" lon="11.9880332"><ele>239.0</ele><time>2026-04-04T07:17:40.138Z</time></trkpt><trkpt lat="46.0435243" lon="11.9881909"><ele>239.66666666666669</ele><time>2026-04-04T07:17:41.138Z</time></trkpt><trkpt lat="46.043651" lon="11.9883441"><ele>240.33333333333331</ele><time>2026-04-04T07:17:42.14Z</time></trkpt><trkpt lat="46.0437727" lon="11.9884983"><ele>241.0</ele><time>2026-04-04T07:17:43.138Z</time></trkpt><trkpt lat="46.0438864" lon="11.988653"><ele>241.0</ele><time>2026-04-04T07:17:44.139Z</time></trkpt><trkpt lat="46.0439986" lon="11.9888118"><ele>241.0</ele><time>2026-04-04T07:17:45.139Z</time></trkpt><trkpt lat="46.0441106" lon="11.9889755"><ele>241.0</ele><time>2026-04-04T07:17:46.138Z</time></trkpt><trkpt lat="46.0442209" lon="11.9891458"><ele>241.33333333333331</ele><time>2026-04-04T07:17:47.138Z</time></trkpt><trkpt lat="46.0443277" lon="11.9893259"><ele>241.66666666666669</ele><time>2026-04-04T07:17:48.139Z</time></trkpt><trkpt lat="46.0444297" lon="11.9895144"><ele>242.0</ele><time>2026-04-04T07:17:49.139Z</time></trkpt><trkpt lat="46.0445285" lon="11.9897111"><ele>242.0</ele><time>2026-04-04T07:17:50.138Z</time></trkpt><trkpt lat="46.0446213" lon="11.9899168"><ele>242.0</ele><time>2026-04-04T07:17:51.138Z</time></trkpt><trkpt lat="46.0447104" lon="11.9901301"><ele>242.0</ele><time>2026-04-04T07:17:52.139Z</time></trkpt><trkpt lat="46.0448001" lon="11.9903515"><ele>241.66666666666669</ele><time>2026-04-04T07:17:53.138Z</time></trkpt><trkpt lat="46.0448867" lon="11.9905661"><ele>241.33333333333331</ele><time>2026-04-04T07:17:54.139Z</time></trkpt><trkpt lat="46.0449719" lon="11.9907713"><ele>241.0</ele><time>2026-04-04T07:17:55.139Z</time></trkpt><trkpt lat="46.045061" lon="11.9909708"><ele>241.0</ele><time>2026-04-04T07:17:56.139Z</time></trkpt><trkpt lat="46.0451574" lon="11.9911679"><ele>241.0</ele><time>2026-04-04T07:17:57.139Z</time></trkpt><trkpt lat="46.0452638" lon="11.991362"><ele>241.0</ele><time>2026-04-04T07:17:58.139Z</time></trkpt><trkpt lat="46.0453794" lon="11.991549"><ele>239.0</ele><time>2026-04-04T07:17:59.138Z</time></trkpt><trkpt lat="46.0455065" lon="11.9917288"><ele>237.0</ele><time>2026-04-04T07:18:00.138Z</time></trkpt><trkpt lat="46.0456467" lon="11.9918957"><ele>235.0</ele><time>2026-04-04T07:18:01.138Z</time></trkpt><trkpt lat="46.0457935" lon="11.9920484"><ele>237.66666666666666</ele><time>2026-04-04T07:18:02.139Z</time></trkpt><trkpt lat="46.0459482" lon="11.9921886"><ele>240.33333333333331</ele><time>2026-04-04T07:18:03.139Z</time></trkpt><trkpt lat="46.0461058" lon="11.9923149"><ele>243.0</ele><time>2026-04-04T07:18:04.138Z</time></trkpt><trkpt lat="46.0462714" lon="11.9924288"><ele>241.66666666666669</ele><time>2026-04-04T07:18:05.138Z</time></trkpt><trkpt lat="46.0464465" lon="11.9925266"><ele>240.33333333333334</ele><time>2026-04-04T07:18:06.139Z</time></trkpt><trkpt lat="46.0466291" lon="11.9926055"><ele>239.0</ele><time>2026-04-04T07:18:07.139Z</time></trkpt><trkpt lat="46.046817" lon="11.9926673"><ele>239.0</ele><time>2026-04-04T07:18:08.138Z</time></trkpt><trkpt lat="46.0470108" lon="11.9927162"><ele>239.0</ele><time>2026-04-04T07:18:09.139Z</time></trkpt><trkpt lat="46.0472003" lon="11.992754"><ele>239.0</ele><time>2026-04-04T07:18:10.138Z</time></trkpt><trkpt lat="46.0473868" lon="11.9927868"><ele>239.33333333333334</ele><time>2026-04-04T07:18:11.138Z</time></trkpt><trkpt lat="46.0475691" lon="11.9928116"><ele>239.66666666666669</ele><time>2026-04-04T07:18:12.138Z</time></trkpt><trkpt lat="46.0477496" lon="11.9928355"><ele>240.0</ele><time>2026-04-04T07:18:13.139Z</time></trkpt><trkpt lat="46.0479292" lon="11.9928654"><ele>240.0</ele><time>2026-04-04T07:18:14.139Z</time></trkpt><trkpt lat="46.0481065" lon="11.992894"><ele>240.0</ele><time>2026-04-04T07:18:15.139Z</time></trkpt><trkpt lat="46.0482891" lon="11.9929347"><ele>240.0</ele><time>2026-04-04T07:18:16.138Z</time></trkpt><trkpt lat="46.048472" lon="11.9929794"><ele>240.66666666666669</ele><time>2026-04-04T07:18:17.138Z</time></trkpt><trkpt lat="46.0486584" lon="11.9930346"><ele>241.33333333333334</ele><time>2026-04-04T07:18:18.139Z</time></trkpt><trkpt lat="46.0488456" lon="11.9930981"><ele>242.0</ele><time>2026-04-04T07:18:19.138Z</time></trkpt><trkpt lat="46.0490375" lon="11.9931714"><ele>242.0</ele><time>2026-04-04T07:18:20.139Z</time></trkpt><trkpt lat="46.0492258" lon="11.9932509"><ele>242.0</ele><time>2026-04-04T07:18:21.139Z</time></trkpt><trkpt lat="46.0494051" lon="11.9933397"><ele>242.0</ele><time>2026-04-04T07:18:22.139Z</time></trkpt><trkpt lat="46.0495743" lon="11.9934334"><ele>242.0</ele><time>2026-04-04T07:18:23.139Z</time></trkpt><trkpt lat="46.049743" lon="11.9935377"><ele>242.0</ele><time>2026-04-04T07:18:24.138Z</time></trkpt><trkpt lat="46.0499176" lon="11.9936557"><ele>242.0</ele><time>2026-04-04T07:18:25.138Z</time></trkpt><trkpt lat="46.0501024" lon="11.9937915"><ele>242.0</ele><time>2026-04-04T07:18:26.138Z</time></trkpt><trkpt lat="46.050303" lon="11.9939438"><ele>242.0</ele><time>2026-04-04T07:18:27.139Z</time></trkpt><trkpt lat="46.0505187" lon="11.9941208"><ele>242.0</ele><time>2026-04-04T07:18:28.138Z</time></trkpt><trkpt lat="46.0507299" lon="11.9943109"><ele>242.0</ele><time>2026-04-04T07:18:29.139Z</time></trkpt><trkpt lat="46.0509308" lon="11.9945066"><ele>242.0</ele><time>2026-04-04T07:18:30.139Z</time></trkpt><trkpt lat="46.0511158" lon="11.994698"><ele>242.0</ele><time>2026-04-04T07:18:31.139Z</time></trkpt><trkpt lat="46.0512987" lon="11.9948784"><ele>242.0</ele><time>2026-04-04T07:18:32.139Z</time></trkpt><trkpt lat="46.0514814" lon="11.9950537"><ele>242.0</ele><time>2026-04-04T07:18:33.139Z</time></trkpt><trkpt lat="46.0516649" lon="11.9952259"><ele>242.0</ele><time>2026-04-04T07:18:34.138Z</time></trkpt><trkpt lat="46.0518594" lon="11.9954052"><ele>242.0</ele><time>2026-04-04T07:18:35.138Z</time></trkpt><trkpt lat="46.0520586" lon="11.9955865"><ele>242.0</ele><time>2026-04-04T07:18:36.138Z</time></trkpt><trkpt lat="46.0522775" lon="11.9957753"><ele>242.5</ele><time>2026-04-04T07:18:37.139Z</time></trkpt><trkpt lat="46.0525078" lon="11.9959872"><ele>243.0</ele><time>2026-04-04T07:18:38.139Z</time></trkpt><trkpt lat="46.0527396" lon="11.9962259"><ele>243.0</ele><time>2026-04-04T07:18:39.138Z</time></trkpt><trkpt lat="46.0529776" lon="11.9964631"><ele>243.0</ele><time>2026-04-04T07:18:40.138Z</time></trkpt><trkpt lat="46.053218" lon="11.9966873"><ele>243.5</ele><time>2026-04-04T07:18:41.138Z</time></trkpt><trkpt lat="46.0534546" lon="11.9969105"><ele>244.0</ele><time>2026-04-04T07:18:42.139Z</time></trkpt><trkpt lat="46.0536858" lon="11.9971317"><ele>244.0</ele><time>2026-04-04T07:18:43.14Z</time></trkpt><trkpt lat="46.0539118" lon="11.9973484"><ele>244.0</ele><time>2026-04-04T07:18:44.138Z</time></trkpt><trkpt lat="46.0541328" lon="11.9975589"><ele>245.5</ele><time>2026-04-04T07:18:45.138Z</time></trkpt><trkpt lat="46.0543484" lon="11.9977641"><ele>247.0</ele><time>2026-04-04T07:18:46.138Z</time></trkpt><trkpt lat="46.0545602" lon="11.9979651"><ele>247.0</ele><time>2026-04-04T07:18:47.138Z</time></trkpt><trkpt lat="46.0547708" lon="11.9981639"><ele>247.0</ele><time>2026-04-04T07:18:48.138Z</time></trkpt><trkpt lat="46.054979" lon="11.9983581"><ele>246.0</ele><time>2026-04-04T07:18:49.139Z</time></trkpt><trkpt lat="46.0551862" lon="11.9985486"><ele>245.0</ele><time>2026-04-04T07:18:50.139Z</time></trkpt><trkpt lat="46.0553892" lon="11.9987391"><ele>245.0</ele><time>2026-04-04T07:18:51.138Z</time></trkpt><trkpt lat="46.0555873" lon="11.998925"><ele>245.0</ele><time>2026-04-04T07:18:52.138Z</time></trkpt><trkpt lat="46.0557816" lon="11.9991068"><ele>245.66666666666669</ele><time>2026-04-04T07:18:53.138Z</time></trkpt><trkpt lat="46.0559698" lon="11.9992864"><ele>246.33333333333331</ele><time>2026-04-04T07:18:54.139Z</time></trkpt><trkpt lat="46.0561527" lon="11.9994695"><ele>247.0</ele><time>2026-04-04T07:18:55.139Z</time></trkpt><trkpt lat="46.0563305" lon="11.9996589"><ele>247.0</ele><time>2026-04-04T07:18:56.138Z</time></trkpt><trkpt lat="46.0564999" lon="11.9998582"><ele>247.0</ele><time>2026-04-04T07:18:57.138Z</time></trkpt><trkpt lat="46.0566589" lon="12.0000684"><ele>247.0</ele><time>2026-04-04T07:18:58.138Z</time></trkpt><trkpt lat="46.0568054" lon="12.0002897"><ele>247.33333333333331</ele><time>2026-04-04T07:18:59.138Z</time></trkpt><trkpt lat="46.0569395" lon="12.0005212"><ele>247.66666666666669</ele><time>2026-04-04T07:19:00.138Z</time></trkpt><trkpt lat="46.0570611" lon="12.0007534"><ele>248.0</ele><time>2026-04-04T07:19:01.138Z</time></trkpt><trkpt lat="46.0571763" lon="12.0009805"><ele>248.0</ele><time>2026-04-04T07:19:02.138Z</time></trkpt><trkpt lat="46.0572831" lon="12.0012036"><ele>248.0</ele><time>2026-04-04T07:19:03.138Z</time></trkpt><trkpt lat="46.0573888" lon="12.0014265"><ele>248.0</ele><time>2026-04-04T07:19:04.139Z</time></trkpt><trkpt lat="46.0574974" lon="12.0016504"><ele>248.66666666666669</ele><time>2026-04-04T07:19:05.138Z</time></trkpt><trkpt lat="46.0576128" lon="12.0018794"><ele>249.33333333333331</ele><time>2026-04-04T07:19:06.138Z</time></trkpt><trkpt lat="46.0577425" lon="12.0020995"><ele>250.0</ele><time>2026-04-04T07:19:07.14Z</time></trkpt><trkpt lat="46.0578838" lon="12.0023038"><ele>250.0</ele><time>2026-04-04T07:19:08.139Z</time></trkpt><trkpt lat="46.0580242" lon="12.0024829"><ele>250.0</ele><time>2026-04-04T07:19:09.138Z</time></trkpt><trkpt lat="46.0581583" lon="12.0026453"><ele>250.0</ele><time>2026-04-04T07:19:10.138Z</time></trkpt><trkpt lat="46.0582927" lon="12.002801"><ele>252.66666666666666</ele><time>2026-04-04T07:19:11.138Z</time></trkpt><trkpt lat="46.0584257" lon="12.0029589"><ele>255.33333333333331</ele><time>2026-04-04T07:19:12.138Z</time></trkpt><trkpt lat="46.0585545" lon="12.003115"><ele>258.0</ele><time>2026-04-04T07:19:13.139Z</time></trkpt><trkpt lat="46.0586787" lon="12.0032641"><ele>255.66666666666669</ele><time>2026-04-04T07:19:14.138Z</time></trkpt><trkpt lat="46.0587976" lon="12.0034067"><ele>253.33333333333334</ele><time>2026-04-04T07:19:15.138Z</time></trkpt><trkpt lat="46.0589129" lon="12.0035492"><ele>251.0</ele><time>2026-04-04T07:19:16.139Z</time></trkpt><trkpt lat="46.0590336" lon="12.0036963"><ele>253.0</ele><time>2026-04-04T07:19:17.138Z</time></trkpt><trkpt lat="46.0591551" lon="12.0038449"><ele>255.0</ele><time>2026-04-04T07:19:18.138Z</time></trkpt><trkpt lat="46.059275" lon="12.0039922"><ele>257.0</ele><time>2026-04-04T07:19:19.138Z</time></trkpt><trkpt lat="46.0593852" lon="12.0041283"><ele>256.33333333333337</ele><time>2026-04-04T07:19:20.138Z</time></trkpt><trkpt lat="46.0594978" lon="12.0042614"><ele>255.66666666666669</ele><time>2026-04-04T07:19:21.139Z</time></trkpt><trkpt lat="46.0596221" lon="12.0044033"><ele>255.0</ele><time>2026-04-04T07:19:22.139Z</time></trkpt><trkpt lat="46.0597666" lon="12.0045631"><ele>255.0</ele><time>2026-04-04T07:19:23.138Z</time></trkpt><trkpt lat="46.0599279" lon="12.0047565"><ele>255.0</ele><time>2026-04-04T07:19:24.138Z</time></trkpt><trkpt lat="46.0600953" lon="12.0049751"><ele>255.0</ele><time>2026-04-04T07:19:25.14Z</time></trkpt><trkpt lat="46.0602688" lon="12.0051963"><ele>256.0</ele><time>2026-04-04T07:19:26.14Z</time></trkpt><trkpt lat="46.0604422" lon="12.0054157"><ele>257.0</ele><time>2026-04-04T07:19:27.139Z</time></trkpt><trkpt lat="46.0606134" lon="12.0056344"><ele>258.0</ele><time>2026-04-04T07:19:28.138Z</time></trkpt><trkpt lat="46.0607708" lon="12.0058656"><ele>259.0</ele><time>2026-04-04T07:19:29.138Z</time></trkpt><trkpt lat="46.0609081" lon="12.0061229"><ele>259.0</ele><time>2026-04-04T07:19:30.139Z</time></trkpt><trkpt lat="46.0610264" lon="12.0063942"><ele>259.0</ele><time>2026-04-04T07:19:31.138Z</time></trkpt><trkpt lat="46.0611388" lon="12.0066741"><ele>259.0</ele><time>2026-04-04T07:19:32.139Z</time></trkpt><trkpt lat="46.0612531" lon="12.0069561"><ele>258.0</ele><time>2026-04-04T07:19:33.139Z</time></trkpt><trkpt lat="46.0613665" lon="12.0072335"><ele>257.0</ele><time>2026-04-04T07:19:34.138Z</time></trkpt><trkpt lat="46.0614798" lon="12.0075074"><ele>256.0</ele><time>2026-04-04T07:19:35.138Z</time></trkpt><trkpt lat="46.0615928" lon="12.0077737"><ele>256.3333333333333</ele><time>2026-04-04T07:19:36.138Z</time></trkpt><trkpt lat="46.0616982" lon="12.0080258"><ele>256.6666666666667</ele><time>2026-04-04T07:19:37.139Z</time></trkpt><trkpt lat="46.0617988" lon="12.0082652"><ele>257.0</ele><time>2026-04-04T07:19:38.138Z</time></trkpt><trkpt lat="46.0618996" lon="12.0085028"><ele>257.0</ele><time>2026-04-04T07:19:39.139Z</time></trkpt><trkpt lat="46.0620088" lon="12.0087321"><ele>257.0</ele><time>2026-04-04T07:19:40.138Z</time></trkpt><trkpt lat="46.0621331" lon="12.0089456"><ele>257.0</ele><time>2026-04-04T07:19:41.139Z</time></trkpt><trkpt lat="46.0622768" lon="12.009144"><ele>258.0</ele><time>2026-04-04T07:19:42.138Z</time></trkpt><trkpt lat="46.0624412" lon="12.0093115"><ele>259.0</ele><time>2026-04-04T07:19:43.138Z</time></trkpt><trkpt lat="46.0626256" lon="12.0094572"><ele>260.0</ele><time>2026-04-04T07:19:44.139Z</time></trkpt><trkpt lat="46.0628212" lon="12.0095899"><ele>260.0</ele><time>2026-04-04T07:19:45.138Z</time></trkpt><trkpt lat="46.0630227" lon="12.0097213"><ele>260.0</ele><time>2026-04-04T07:19:46.139Z</time></trkpt><trkpt lat="46.063228" lon="12.0098605"><ele>260.0</ele><time>2026-04-04T07:19:47.14Z</time></trkpt><trkpt lat="46.0634345" lon="12.0099963"><ele>259.33333333333337</ele><time>2026-04-04T07:19:48.138Z</time></trkpt><trkpt lat="46.063636" lon="12.0101301"><ele>258.6666666666667</ele><time>2026-04-04T07:19:49.139Z</time></trkpt><trkpt lat="46.0638306" lon="12.0102638"><ele>258.0</ele><time>2026-04-04T07:19:50.138Z</time></trkpt><trkpt lat="46.0640207" lon="12.0103909"><ele>258.6666666666667</ele><time>2026-04-04T07:19:51.138Z</time></trkpt><trkpt lat="46.0642079" lon="12.0105153"><ele>259.33333333333337</ele><time>2026-04-04T07:19:52.138Z</time></trkpt><trkpt lat="46.0643953" lon="12.0106389"><ele>260.0</ele><time>2026-04-04T07:19:53.138Z</time></trkpt><trkpt lat="46.0645831" lon="12.010762"><ele>259.0</ele><time>2026-04-04T07:19:54.138Z</time></trkpt><trkpt lat="46.0647701" lon="12.0108847"><ele>258.0</ele><time>2026-04-04T07:19:55.14Z</time></trkpt><trkpt lat="46.0649585" lon="12.0110102"><ele>257.0</ele><time>2026-04-04T07:19:56.138Z</time></trkpt><trkpt lat="46.0651459" lon="12.0111347"><ele>257.0</ele><time>2026-04-04T07:19:57.138Z</time></trkpt><trkpt lat="46.0653321" lon="12.0112606"><ele>257.0</ele><time>2026-04-04T07:19:58.139Z</time></trkpt><trkpt lat="46.0655178" lon="12.0113849"><ele>257.0</ele><time>2026-04-04T07:19:59.138Z</time></trkpt><trkpt lat="46.0657034" lon="12.0115097"><ele>256.6666666666667</ele><time>2026-04-04T07:20:00.139Z</time></trkpt><trkpt lat="46.0658818" lon="12.0116468"><ele>256.3333333333333</ele><time>2026-04-04T07:20:01.138Z</time></trkpt><trkpt lat="46.0660492" lon="12.0118179"><ele>256.0</ele><time>2026-04-04T07:20:02.139Z</time></trkpt><trkpt lat="46.0662128" lon="12.0120152"><ele>256.0</ele><time>2026-04-04T07:20:03.139Z</time></trkpt><trkpt lat="46.0663786" lon="12.0122261"><ele>256.0</ele><time>2026-04-04T07:20:04.138Z</time></trkpt><trkpt lat="46.0665476" lon="12.012444"><ele>256.0</ele><time>2026-04-04T07:20:05.139Z</time></trkpt><trkpt lat="46.0667231" lon="12.0126646"><ele>257.5</ele><time>2026-04-04T07:20:06.139Z</time></trkpt><trkpt lat="46.0669024" lon="12.0128854"><ele>259.0</ele><time>2026-04-04T07:20:07.138Z</time></trkpt><trkpt lat="46.0670847" lon="12.0131098"><ele>259.0</ele><time>2026-04-04T07:20:08.139Z</time></trkpt><trkpt lat="46.0672686" lon="12.0133392"><ele>259.0</ele><time>2026-04-04T07:20:09.138Z</time></trkpt><trkpt lat="46.0674512" lon="12.0135692"><ele>259.0</ele><time>2026-04-04T07:20:10.138Z</time></trkpt><trkpt lat="46.0676313" lon="12.0137961"><ele>259.0</ele><time>2026-04-04T07:20:11.138Z</time></trkpt><trkpt lat="46.0678052" lon="12.0140153"><ele>259.0</ele><time>2026-04-04T07:20:12.139Z</time></trkpt><trkpt lat="46.0679763" lon="12.0142297"><ele>259.0</ele><time>2026-04-04T07:20:13.138Z</time></trkpt><trkpt lat="46.0681376" lon="12.0144352"><ele>259.0</ele><time>2026-04-04T07:20:14.139Z</time></trkpt><trkpt lat="46.06829" lon="12.0146376"><ele>259.0</ele><time>2026-04-04T07:20:15.138Z</time></trkpt><trkpt lat="46.068437" lon="12.0148333"><ele>259.0</ele><time>2026-04-04T07:20:16.138Z</time></trkpt><trkpt lat="46.0685815" lon="12.01503"><ele>259.0</ele><time>2026-04-04T07:20:17.138Z</time></trkpt><trkpt lat="46.0687203" lon="12.0152305"><ele>259.0</ele><time>2026-04-04T07:20:18.139Z</time></trkpt><trkpt lat="46.0688622" lon="12.0154251"><ele>259.0</ele><time>2026-04-04T07:20:19.139Z</time></trkpt><trkpt lat="46.0690113" lon="12.0156092"><ele>259.0</ele><time>2026-04-04T07:20:20.14Z</time></trkpt><trkpt lat="46.0691612" lon="12.0157899"><ele>258.66666666666663</ele><time>2026-04-04T07:20:21.139Z</time></trkpt><trkpt lat="46.0693154" lon="12.0159626"><ele>258.3333333333333</ele><time>2026-04-04T07:20:22.139Z</time></trkpt><trkpt lat="46.069476" lon="12.0161212"><ele>258.0</ele><time>2026-04-04T07:20:23.138Z</time></trkpt><trkpt lat="46.069641" lon="12.0162703"><ele>258.0</ele><time>2026-04-04T07:20:24.14Z</time></trkpt><trkpt lat="46.0698034" lon="12.0164202"><ele>258.0</ele><time>2026-04-04T07:20:25.138Z</time></trkpt><trkpt lat="46.0699611" lon="12.0165788"><ele>258.0</ele><time>2026-04-04T07:20:26.138Z</time></trkpt><trkpt lat="46.0701193" lon="12.0167428"><ele>258.3333333333333</ele><time>2026-04-04T07:20:27.14Z</time></trkpt><trkpt lat="46.0702761" lon="12.0169044"><ele>258.66666666666663</ele><time>2026-04-04T07:20:28.139Z</time></trkpt><trkpt lat="46.070435" lon="12.017065"><ele>259.0</ele><time>2026-04-04T07:20:29.14Z</time></trkpt><trkpt lat="46.0705943" lon="12.0172296"><ele>259.0</ele><time>2026-04-04T07:20:30.139Z</time></trkpt><trkpt lat="46.0707532" lon="12.0173902"><ele>259.0</ele><time>2026-04-04T07:20:31.139Z</time></trkpt><trkpt lat="46.0709129" lon="12.0175509"><ele>259.0</ele><time>2026-04-04T07:20:32.138Z</time></trkpt><trkpt lat="46.0710739" lon="12.017715"><ele>260.66666666666663</ele><time>2026-04-04T07:20:33.138Z</time></trkpt><trkpt lat="46.0712388" lon="12.0178839"><ele>262.3333333333333</ele><time>2026-04-04T07:20:34.139Z</time></trkpt><trkpt lat="46.0714064" lon="12.0180483"><ele>264.0</ele><time>2026-04-04T07:20:35.139Z</time></trkpt><trkpt lat="46.0715741" lon="12.018215"><ele>264.0</ele><time>2026-04-04T07:20:36.138Z</time></trkpt><trkpt lat="46.071745" lon="12.0183835"><ele>264.0</ele><time>2026-04-04T07:20:37.139Z</time></trkpt><trkpt lat="46.0719128" lon="12.0185485"><ele>264.0</ele><time>2026-04-04T07:20:38.138Z</time></trkpt><trkpt lat="46.0720791" lon="12.0187135"><ele>264.0</ele><time>2026-04-04T07:20:39.139Z</time></trkpt><trkpt lat="46.072246" lon="12.0188815"><ele>264.0</ele><time>2026-04-04T07:20:40.138Z</time></trkpt><trkpt lat="46.0724025" lon="12.0190574"><ele>264.0</ele><time>2026-04-04T07:20:41.138Z</time></trkpt><trkpt lat="46.0725529" lon="12.0192431"><ele>265.3333333333333</ele><time>2026-04-04T07:20:42.138Z</time></trkpt><trkpt lat="46.0726964" lon="12.0194342"><ele>266.66666666666663</ele><time>2026-04-04T07:20:43.138Z</time></trkpt><trkpt lat="46.0728378" lon="12.0196284"><ele>268.0</ele><time>2026-04-04T07:20:44.138Z</time></trkpt><trkpt lat="46.072973" lon="12.0198296"><ele>267.66666666666663</ele><time>2026-04-04T07:20:45.14Z</time></trkpt><trkpt lat="46.0731023" lon="12.0200343"><ele>267.3333333333333</ele><time>2026-04-04T07:20:46.138Z</time></trkpt><trkpt lat="46.0732318" lon="12.0202402"><ele>267.0</ele><time>2026-04-04T07:20:47.139Z</time></trkpt><trkpt lat="46.0733624" lon="12.0204459"><ele>268.3333333333333</ele><time>2026-04-04T07:20:48.138Z</time></trkpt><trkpt lat="46.0734913" lon="12.0206506"><ele>269.66666666666663</ele><time>2026-04-04T07:20:49.138Z</time></trkpt><trkpt lat="46.0736207" lon="12.0208573"><ele>271.0</ele><time>2026-04-04T07:20:50.138Z</time></trkpt><trkpt lat="46.0737494" lon="12.0210606"><ele>271.0</ele><time>2026-04-04T07:20:51.138Z</time></trkpt><trkpt lat="46.0738711" lon="12.0212505"><ele>271.0</ele><time>2026-04-04T07:20:52.14Z</time></trkpt><trkpt lat="46.0739872" lon="12.0214326"><ele>271.0</ele><time>2026-04-04T07:20:53.138Z</time></trkpt><trkpt lat="46.0740978" lon="12.0216069"><ele>271.3333333333333</ele><time>2026-04-04T07:20:54.138Z</time></trkpt><trkpt lat="46.0742105" lon="12.0217803"><ele>271.6666666666667</ele><time>2026-04-04T07:20:55.139Z</time></trkpt><trkpt lat="46.0743227" lon="12.0219506"><ele>272.0</ele><time>2026-04-04T07:20:56.14Z</time></trkpt><trkpt lat="46.0744348" lon="12.0221255"><ele>272.0</ele><time>2026-04-04T07:20:57.139Z</time></trkpt><trkpt lat="46.0745456" lon="12.0223058"><ele>272.0</ele><time>2026-04-04T07:20:58.139Z</time></trkpt><trkpt lat="46.0746577" lon="12.0224894"><ele>272.0</ele><time>2026-04-04T07:20:59.139Z</time></trkpt><trkpt lat="46.0747705" lon="12.0226773"><ele>272.0</ele><time>2026-04-04T07:21:00.139Z</time></trkpt><trkpt lat="46.0748763" lon="12.02287"><ele>272.0</ele><time>2026-04-04T07:21:01.139Z</time></trkpt><trkpt lat="46.074975" lon="12.0230695"><ele>272.0</ele><time>2026-04-04T07:21:02.14Z</time></trkpt><trkpt lat="46.0750635" lon="12.0232789"><ele>273.33333333333337</ele><time>2026-04-04T07:21:03.14Z</time></trkpt><trkpt lat="46.0751438" lon="12.0234911"><ele>274.6666666666667</ele><time>2026-04-04T07:21:04.139Z</time></trkpt><trkpt lat="46.0752198" lon="12.0237061"><ele>276.0</ele><time>2026-04-04T07:21:05.139Z</time></trkpt><trkpt lat="46.0752939" lon="12.0239186"><ele>276.0</ele><time>2026-04-04T07:21:06.141Z</time></trkpt><trkpt lat="46.075369" lon="12.0241312"><ele>276.0</ele><time>2026-04-04T07:21:07.139Z</time></trkpt><trkpt lat="46.0754436" lon="12.0243433"><ele>276.0</ele><time>2026-04-04T07:21:08.141Z</time></trkpt><trkpt lat="46.0755204" lon="12.0245576"><ele>277.0</ele><time>2026-04-04T07:21:09.139Z</time></trkpt><trkpt lat="46.0755985" lon="12.0247727"><ele>278.0</ele><time>2026-04-04T07:21:10.139Z</time></trkpt><trkpt lat="46.0756723" lon="12.0249879"><ele>279.0</ele><time>2026-04-04T07:21:11.139Z</time></trkpt><trkpt lat="46.0757491" lon="12.0252052"><ele>280.6666666666667</ele><time>2026-04-04T07:21:12.139Z</time></trkpt><trkpt lat="46.0758255" lon="12.0254211"><ele>282.33333333333337</ele><time>2026-04-04T07:21:13.139Z</time></trkpt><trkpt lat="46.0759029" lon="12.0256398"><ele>284.0</ele><time>2026-04-04T07:21:14.139Z</time></trkpt><trkpt lat="46.0759774" lon="12.0258542"><ele>284.0</ele><time>2026-04-04T07:21:15.139Z</time></trkpt><trkpt lat="46.076048" lon="12.0260602"><ele>284.0</ele><time>2026-04-04T07:21:16.139Z</time></trkpt><trkpt lat="46.0761192" lon="12.0262587"><ele>284.0</ele><time>2026-04-04T07:21:17.139Z</time></trkpt><trkpt lat="46.0761972" lon="12.0264432"><ele>284.0</ele><time>2026-04-04T07:21:18.139Z</time></trkpt><trkpt lat="46.0762869" lon="12.0266064"><ele>284.0</ele><time>2026-04-04T07:21:19.14Z</time></trkpt><trkpt lat="46.0763875" lon="12.0267537"><ele>284.0</ele><time>2026-04-04T07:21:20.139Z</time></trkpt><trkpt lat="46.0764901" lon="12.0269049"><ele>284.0</ele><time>2026-04-04T07:21:21.14Z</time></trkpt><trkpt lat="46.0765791" lon="12.0270745"><ele>285.0</ele><time>2026-04-04T07:21:22.14Z</time></trkpt><trkpt lat="46.0766518" lon="12.0272566"><ele>286.0</ele><time>2026-04-04T07:21:23.14Z</time></trkpt><trkpt lat="46.0767149" lon="12.0274397"><ele>287.0</ele><time>2026-04-04T07:21:24.139Z</time></trkpt><trkpt lat="46.076774" lon="12.0276213"><ele>288.0</ele><time>2026-04-04T07:21:25.139Z</time></trkpt><trkpt lat="46.0768287" lon="12.0277969"><ele>288.0</ele><time>2026-04-04T07:21:26.14Z</time></trkpt><trkpt lat="46.0768798" lon="12.0279646"><ele>288.0</ele><time>2026-04-04T07:21:27.141Z</time></trkpt><trkpt lat="46.0769288" lon="12.0281389"><ele>288.0</ele><time>2026-04-04T07:21:28.14Z</time></trkpt><trkpt lat="46.0769763" lon="12.0283143"><ele>288.0</ele><time>2026-04-04T07:21:29.139Z</time></trkpt><trkpt lat="46.0770192" lon="12.0284835"><ele>288.0</ele><time>2026-04-04T07:21:30.14Z</time></trkpt><trkpt lat="46.0770568" lon="12.0286547"><ele>288.0</ele><time>2026-04-04T07:21:31.139Z</time></trkpt><trkpt lat="46.0770884" lon="12.0288311"><ele>288.0</ele><time>2026-04-04T07:21:32.139Z</time></trkpt><trkpt lat="46.0771135" lon="12.0290141"><ele>288.0</ele><time>2026-04-04T07:21:33.139Z</time></trkpt><trkpt lat="46.0771346" lon="12.0292041"><ele>288.25</ele><time>2026-04-04T07:21:34.139Z</time></trkpt><trkpt lat="46.0771538" lon="12.0294001"><ele>288.5</ele><time>2026-04-04T07:21:35.14Z</time></trkpt><trkpt lat="46.077172" lon="12.0295979"><ele>288.75</ele><time>2026-04-04T07:21:36.139Z</time></trkpt><trkpt lat="46.0771897" lon="12.029802"><ele>289.0</ele><time>2026-04-04T07:21:37.14Z</time></trkpt><trkpt lat="46.0772081" lon="12.0300073"><ele>289.0</ele><time>2026-04-04T07:21:38.14Z</time></trkpt><trkpt lat="46.0772238" lon="12.0302103"><ele>289.0</ele><time>2026-04-04T07:21:39.139Z</time></trkpt><trkpt lat="46.0772394" lon="12.0304109"><ele>289.0</ele><time>2026-04-04T07:21:40.139Z</time></trkpt><trkpt lat="46.0772557" lon="12.0306057"><ele>289.0</ele><time>2026-04-04T07:21:41.139Z</time></trkpt><trkpt lat="46.0772735" lon="12.0307972"><ele>288.75</ele><time>2026-04-04T07:21:42.14Z</time></trkpt><trkpt lat="46.0772905" lon="12.0309904"><ele>288.5</ele><time>2026-04-04T07:21:43.139Z</time></trkpt><trkpt lat="46.0773129" lon="12.0311848"><ele>288.25</ele><time>2026-04-04T07:21:44.139Z</time></trkpt><trkpt lat="46.0773492" lon="12.0313831"><ele>288.0</ele><time>2026-04-04T07:21:45.14Z</time></trkpt><trkpt lat="46.0774019" lon="12.0315817"><ele>290.0</ele><time>2026-04-04T07:21:46.14Z</time></trkpt><trkpt lat="46.0774758" lon="12.0317865"><ele>292.0</ele><time>2026-04-04T07:21:47.139Z</time></trkpt><trkpt lat="46.07757" lon="12.0319824"><ele>294.0</ele><time>2026-04-04T07:21:48.14Z</time></trkpt><trkpt lat="46.0776828" lon="12.0321643"><ele>294.0</ele><time>2026-04-04T07:21:49.14Z</time></trkpt><trkpt lat="46.0778124" lon="12.0323248"><ele>294.0</ele><time>2026-04-04T07:21:50.139Z</time></trkpt><trkpt lat="46.0779559" lon="12.0324667"><ele>294.0</ele><time>2026-04-04T07:21:51.14Z</time></trkpt><trkpt lat="46.0781096" lon="12.0325958"><ele>295.3333333333333</ele><time>2026-04-04T07:21:52.14Z</time></trkpt><trkpt lat="46.0782721" lon="12.0327077"><ele>296.66666666666663</ele><time>2026-04-04T07:21:53.14Z</time></trkpt><trkpt lat="46.0784366" lon="12.0328141"><ele>298.0</ele><time>2026-04-04T07:21:54.14Z</time></trkpt><trkpt lat="46.0786048" lon="12.0329224"><ele>298.0</ele><time>2026-04-04T07:21:55.14Z</time></trkpt><trkpt lat="46.0787741" lon="12.0330339"><ele>298.0</ele><time>2026-04-04T07:21:56.139Z</time></trkpt><trkpt lat="46.0789448" lon="12.0331468"><ele>298.0</ele><time>2026-04-04T07:21:57.141Z</time></trkpt><trkpt lat="46.0791169" lon="12.0332608"><ele>298.66666666666663</ele><time>2026-04-04T07:21:58.139Z</time></trkpt><trkpt lat="46.0792866" lon="12.0333772"><ele>299.3333333333333</ele><time>2026-04-04T07:21:59.139Z</time></trkpt><trkpt lat="46.0794591" lon="12.0334966"><ele>300.0</ele><time>2026-04-04T07:22:00.139Z</time></trkpt><trkpt lat="46.0796219" lon="12.0336228"><ele>300.0</ele><time>2026-04-04T07:22:01.139Z</time></trkpt><trkpt lat="46.0797787" lon="12.0337643"><ele>300.0</ele><time>2026-04-04T07:22:02.139Z</time></trkpt><trkpt lat="46.0799218" lon="12.0339295"><ele>300.0</ele><time>2026-04-04T07:22:03.139Z</time></trkpt><trkpt lat="46.0800495" lon="12.0341179"><ele>301.0</ele><time>2026-04-04T07:22:04.14Z</time></trkpt><trkpt lat="46.0801637" lon="12.0343242"><ele>302.0</ele><time>2026-04-04T07:22:05.14Z</time></trkpt><trkpt lat="46.0802634" lon="12.034542"><ele>303.0</ele><time>2026-04-04T07:22:06.14Z</time></trkpt><trkpt lat="46.0803512" lon="12.0347656"><ele>303.3333333333333</ele><time>2026-04-04T07:22:07.139Z</time></trkpt><trkpt lat="46.080431" lon="12.0349844"><ele>303.66666666666663</ele><time>2026-04-04T07:22:08.14Z</time></trkpt><trkpt lat="46.0805104" lon="12.0352027"><ele>304.0</ele><time>2026-04-04T07:22:09.14Z</time></trkpt><trkpt lat="46.0805885" lon="12.0354174"><ele>304.0</ele><time>2026-04-04T07:22:10.139Z</time></trkpt><trkpt lat="46.0806686" lon="12.0356338"><ele>304.0</ele><time>2026-04-04T07:22:11.14Z</time></trkpt><trkpt lat="46.0807477" lon="12.0358473"><ele>304.0</ele><time>2026-04-04T07:22:12.141Z</time></trkpt><trkpt lat="46.0808259" lon="12.0360604"><ele>304.66666666666663</ele><time>2026-04-04T07:22:13.14Z</time></trkpt><trkpt lat="46.0809026" lon="12.0362677"><ele>305.3333333333333</ele><time>2026-04-04T07:22:14.139Z</time></trkpt><trkpt lat="46.0809731" lon="12.0364651"><ele>306.0</ele><time>2026-04-04T07:22:15.14Z</time></trkpt><trkpt lat="46.0810419" lon="12.0366541"><ele>306.0</ele><time>2026-04-04T07:22:16.139Z</time></trkpt><trkpt lat="46.0811085" lon="12.0368405"><ele>306.0</ele><time>2026-04-04T07:22:17.139Z</time></trkpt><trkpt lat="46.0811726" lon="12.0370188"><ele>306.0</ele><time>2026-04-04T07:22:18.14Z</time></trkpt><trkpt lat="46.0812331" lon="12.0371827"><ele>306.0</ele><time>2026-04-04T07:22:19.14Z</time></trkpt><trkpt lat="46.0812854" lon="12.0373292"><ele>306.0</ele><time>2026-04-04T07:22:20.14Z</time></trkpt><trkpt lat="46.0813335" lon="12.0374616"><ele>306.0</ele><time>2026-04-04T07:22:21.139Z</time></trkpt><trkpt lat="46.0813816" lon="12.0375857"><ele>306.0</ele><time>2026-04-04T07:22:22.14Z</time></trkpt><trkpt lat="46.0814286" lon="12.0377022"><ele>306.0</ele><time>2026-04-04T07:22:23.14Z</time></trkpt><trkpt lat="46.0814732" lon="12.0378209"><ele>306.0</ele><time>2026-04-04T07:22:24.139Z</time></trkpt><trkpt lat="46.0815176" lon="12.0379441"><ele>305.8</ele><time>2026-04-04T07:22:25.14Z</time></trkpt><trkpt lat="46.0815572" lon="12.0380565"><ele>305.6</ele><time>2026-04-04T07:22:26.14Z</time></trkpt><trkpt lat="46.0815861" lon="12.0381389"><ele>305.4</ele><time>2026-04-04T07:22:27.14Z</time></trkpt><trkpt lat="46.0816386" lon="12.0382937"><ele>305.2</ele><time>2026-04-04T07:22:29.139Z</time></trkpt><trkpt lat="46.0816995" lon="12.0384512"><ele>305.0</ele><time>2026-04-04T07:22:31.14Z</time></trkpt><trkpt lat="46.0817294" lon="12.0385369"><ele>305.33333333333337</ele><time>2026-04-04T07:22:32.14Z</time></trkpt><trkpt lat="46.0817594" lon="12.0386235"><ele>305.6666666666667</ele><time>2026-04-04T07:22:33.14Z</time></trkpt><trkpt lat="46.0817897" lon="12.0387102"><ele>306.0</ele><time>2026-04-04T07:22:34.139Z</time></trkpt><trkpt lat="46.0818233" lon="12.0387939"><ele>306.3333333333333</ele><time>2026-04-04T07:22:35.139Z</time></trkpt><trkpt lat="46.0818867" lon="12.0389573"><ele>306.66666666666663</ele><time>2026-04-04T07:22:37.139Z</time></trkpt><trkpt lat="46.0819197" lon="12.0390473"><ele>307.0</ele><time>2026-04-04T07:22:38.139Z</time></trkpt><trkpt lat="46.0819529" lon="12.0391392"><ele>307.0</ele><time>2026-04-04T07:22:39.139Z</time></trkpt><trkpt lat="46.0819856" lon="12.0392341"><ele>307.0</ele><time>2026-04-04T07:22:40.14Z</time></trkpt><trkpt lat="46.082018" lon="12.0393293"><ele>307.0</ele><time>2026-04-04T07:22:41.139Z</time></trkpt><trkpt lat="46.0820539" lon="12.0394245"><ele>307.0</ele><time>2026-04-04T07:22:42.14Z</time></trkpt><trkpt lat="46.0820896" lon="12.0395206"><ele>307.0</ele><time>2026-04-04T07:22:43.14Z</time></trkpt><trkpt lat="46.0821275" lon="12.0396266"><ele>307.0</ele><time>2026-04-04T07:22:44.139Z</time></trkpt><trkpt lat="46.0821707" lon="12.0397407"><ele>307.0</ele><time>2026-04-04T07:22:45.139Z</time></trkpt><trkpt lat="46.0822149" lon="12.0398649"><ele>307.0</ele><time>2026-04-04T07:22:46.139Z</time></trkpt><trkpt lat="46.0822603" lon="12.0399898"><ele>307.0</ele><time>2026-04-04T07:22:47.139Z</time></trkpt><trkpt lat="46.0823053" lon="12.040119"><ele>307.0</ele><time>2026-04-04T07:22:48.14Z</time></trkpt><trkpt lat="46.0823546" lon="12.04025"><ele>307.0</ele><time>2026-04-04T07:22:49.14Z</time></trkpt><trkpt lat="46.0824049" lon="12.0403831"><ele>307.2</ele><time>2026-04-04T07:22:50.139Z</time></trkpt><trkpt lat="46.082454" lon="12.0405134"><ele>307.4</ele><time>2026-04-04T07:22:51.139Z</time></trkpt><trkpt lat="46.0824965" lon="12.040634"><ele>307.6</ele><time>2026-04-04T07:22:52.139Z</time></trkpt><trkpt lat="46.0825443" lon="12.0407595"><ele>307.8</ele><time>2026-04-04T07:22:53.14Z</time></trkpt><trkpt lat="46.0825908" lon="12.0408845"><ele>308.0</ele><time>2026-04-04T07:22:54.139Z</time></trkpt><trkpt lat="46.0826374" lon="12.0410123"><ele>308.0</ele><time>2026-04-04T07:22:55.139Z</time></trkpt><trkpt lat="46.0826823" lon="12.0411388"><ele>308.0</ele><time>2026-04-04T07:22:56.14Z</time></trkpt><trkpt lat="46.0827285" lon="12.0412646"><ele>308.0</ele><time>2026-04-04T07:22:57.139Z</time></trkpt><trkpt lat="46.0827769" lon="12.0413947"><ele>308.0</ele><time>2026-04-04T07:22:58.139Z</time></trkpt><trkpt lat="46.0828265" lon="12.0415237"><ele>308.0</ele><time>2026-04-04T07:22:59.141Z</time></trkpt><trkpt lat="46.0828738" lon="12.0416542"><ele>307.4</ele><time>2026-04-04T07:23:00.14Z</time></trkpt><trkpt lat="46.0829225" lon="12.0417855"><ele>306.8</ele><time>2026-04-04T07:23:01.14Z</time></trkpt><trkpt lat="46.0829714" lon="12.041909"><ele>306.2</ele><time>2026-04-04T07:23:02.139Z</time></trkpt><trkpt lat="46.0830219" lon="12.0420312"><ele>305.6</ele><time>2026-04-04T07:23:03.14Z</time></trkpt><trkpt lat="46.0830738" lon="12.0421468"><ele>305.0</ele><time>2026-04-04T07:23:04.139Z</time></trkpt><trkpt lat="46.0831268" lon="12.0422591"><ele>305.0</ele><time>2026-04-04T07:23:05.139Z</time></trkpt><trkpt lat="46.0831835" lon="12.0423711"><ele>305.0</ele><time>2026-04-04T07:23:06.139Z</time></trkpt><trkpt lat="46.0832449" lon="12.0424888"><ele>305.0</ele><time>2026-04-04T07:23:07.139Z</time></trkpt><trkpt lat="46.0833071" lon="12.0425979"><ele>305.0</ele><time>2026-04-04T07:23:08.14Z</time></trkpt><trkpt lat="46.0833686" lon="12.042699"><ele>305.0</ele><time>2026-04-04T07:23:09.141Z</time></trkpt><trkpt lat="46.0834335" lon="12.0427975"><ele>305.0</ele><time>2026-04-04T07:23:10.139Z</time></trkpt><trkpt lat="46.0835027" lon="12.0428951"><ele>305.0</ele><time>2026-04-04T07:23:11.139Z</time></trkpt><trkpt lat="46.0835753" lon="12.0429923"><ele>305.0</ele><time>2026-04-04T07:23:12.14Z</time></trkpt><trkpt lat="46.0836479" lon="12.0430841"><ele>305.0</ele><time>2026-04-04T07:23:13.14Z</time></trkpt><trkpt lat="46.0837183" lon="12.0431775"><ele>305.0</ele><time>2026-04-04T07:23:14.139Z</time></trkpt><trkpt lat="46.0837883" lon="12.0432678"><ele>305.0</ele><time>2026-04-04T07:23:15.14Z</time></trkpt><trkpt lat="46.0838535" lon="12.0433504"><ele>305.0</ele><time>2026-04-04T07:23:16.139Z</time></trkpt><trkpt lat="46.0839102" lon="12.0434228"><ele>305.0</ele><time>2026-04-04T07:23:17.139Z</time></trkpt><trkpt lat="46.0839637" lon="12.0434905"><ele>305.0</ele><time>2026-04-04T07:23:18.14Z</time></trkpt><trkpt lat="46.0840135" lon="12.0435512"><ele>305.0</ele><time>2026-04-04T07:23:19.139Z</time></trkpt><trkpt lat="46.0840996" lon="12.0436588"><ele>305.0</ele><time>2026-04-04T07:23:21.139Z</time></trkpt><trkpt lat="46.0841894" lon="12.0437735"><ele>305.0</ele><time>2026-04-04T07:23:23.139Z</time></trkpt><trkpt lat="46.0842379" lon="12.0438362"><ele>305.0</ele><time>2026-04-04T07:23:24.139Z</time></trkpt><trkpt lat="46.0842934" lon="12.0439094"><ele>305.0</ele><time>2026-04-04T07:23:25.139Z</time></trkpt><trkpt lat="46.0843581" lon="12.0439919"><ele>305.0</ele><time>2026-04-04T07:23:26.14Z</time></trkpt><trkpt lat="46.0844257" lon="12.044076"><ele>305.0</ele><time>2026-04-04T07:23:27.139Z</time></trkpt><trkpt lat="46.0844892" lon="12.0441647"><ele>305.0</ele><time>2026-04-04T07:23:28.139Z</time></trkpt><trkpt lat="46.0845556" lon="12.0442522"><ele>305.0</ele><time>2026-04-04T07:23:29.139Z</time></trkpt><trkpt lat="46.0846241" lon="12.0443393"><ele>305.0</ele><time>2026-04-04T07:23:30.139Z</time></trkpt><trkpt lat="46.0846938" lon="12.0444225"><ele>305.0</ele><time>2026-04-04T07:23:31.139Z</time></trkpt><trkpt lat="46.0847605" lon="12.0444983"><ele>305.0</ele><time>2026-04-04T07:23:32.139Z</time></trkpt><trkpt lat="46.0848248" lon="12.0445717"><ele>305.0</ele><time>2026-04-04T07:23:33.139Z</time></trkpt><trkpt lat="46.084891" lon="12.0446419"><ele>305.0</ele><time>2026-04-04T07:23:34.14Z</time></trkpt><trkpt lat="46.0849631" lon="12.0447062"><ele>305.2</ele><time>2026-04-04T07:23:35.14Z</time></trkpt><trkpt lat="46.0850383" lon="12.044772"><ele>305.4</ele><time>2026-04-04T07:23:36.139Z</time></trkpt><trkpt lat="46.0851201" lon="12.0448386"><ele>305.6</ele><time>2026-04-04T07:23:37.139Z</time></trkpt><trkpt lat="46.0852083" lon="12.0449054"><ele>305.8</ele><time>2026-04-04T07:23:38.14Z</time></trkpt><trkpt lat="46.0852964" lon="12.0449679"><ele>306.0</ele><time>2026-04-04T07:23:39.139Z</time></trkpt><trkpt lat="46.085391" lon="12.0450253"><ele>306.0</ele><time>2026-04-04T07:23:40.14Z</time></trkpt><trkpt lat="46.0854818" lon="12.0450783"><ele>306.0</ele><time>2026-04-04T07:23:41.139Z</time></trkpt><trkpt lat="46.0855693" lon="12.0451309"><ele>306.0</ele><time>2026-04-04T07:23:42.139Z</time></trkpt><trkpt lat="46.0856569" lon="12.0451811"><ele>306.0</ele><time>2026-04-04T07:23:43.139Z</time></trkpt><trkpt lat="46.0857451" lon="12.0452309"><ele>306.0</ele><time>2026-04-04T07:23:44.139Z</time></trkpt><trkpt lat="46.0858278" lon="12.0452745"><ele>306.0</ele><time>2026-04-04T07:23:45.14Z</time></trkpt><trkpt lat="46.0859066" lon="12.0453173"><ele>306.0</ele><time>2026-04-04T07:23:46.139Z</time></trkpt><trkpt lat="46.0859823" lon="12.0453588"><ele>306.0</ele><time>2026-04-04T07:23:47.14Z</time></trkpt><trkpt lat="46.0860597" lon="12.0454028"><ele>306.0</ele><time>2026-04-04T07:23:48.139Z</time></trkpt><trkpt lat="46.0861409" lon="12.0454492"><ele>306.0</ele><time>2026-04-04T07:23:49.139Z</time></trkpt><trkpt lat="46.0862264" lon="12.0454999"><ele>306.0</ele><time>2026-04-04T07:23:50.14Z</time></trkpt><trkpt lat="46.0863188" lon="12.0455591"><ele>306.0</ele><time>2026-04-04T07:23:51.139Z</time></trkpt><trkpt lat="46.0864171" lon="12.0456236"><ele>306.0</ele><time>2026-04-04T07:23:52.139Z</time></trkpt><trkpt lat="46.0865153" lon="12.0456992"><ele>306.0</ele><time>2026-04-04T07:23:53.139Z</time></trkpt><trkpt lat="46.0866131" lon="12.0457933"><ele>306.0</ele><time>2026-04-04T07:23:54.14Z</time></trkpt><trkpt lat="46.0867067" lon="12.0459115"><ele>305.75</ele><time>2026-04-04T07:23:55.14Z</time></trkpt><trkpt lat="46.0867943" lon="12.0460545"><ele>305.5</ele><time>2026-04-04T07:23:56.139Z</time></trkpt><trkpt lat="46.0868666" lon="12.0462239"><ele>305.25</ele><time>2026-04-04T07:23:57.14Z</time></trkpt><trkpt lat="46.0869292" lon="12.0464243"><ele>305.0</ele><time>2026-04-04T07:23:58.139Z</time></trkpt><trkpt lat="46.0869951" lon="12.0466455"><ele>304.33333333333337</ele><time>2026-04-04T07:23:59.141Z</time></trkpt><trkpt lat="46.0870623" lon="12.046872"><ele>303.6666666666667</ele><time>2026-04-04T07:24:00.139Z</time></trkpt><trkpt lat="46.0871283" lon="12.0470845"><ele>303.0</ele><time>2026-04-04T07:24:01.139Z</time></trkpt><trkpt lat="46.0871905" lon="12.0472903"><ele>303.0</ele><time>2026-04-04T07:24:02.139Z</time></trkpt><trkpt lat="46.0872465" lon="12.0474831"><ele>303.0</ele><time>2026-04-04T07:24:03.141Z</time></trkpt><trkpt lat="46.0873012" lon="12.0476715"><ele>303.0</ele><time>2026-04-04T07:24:04.139Z</time></trkpt><trkpt lat="46.0873552" lon="12.0478624"><ele>303.0</ele><time>2026-04-04T07:24:05.14Z</time></trkpt><trkpt lat="46.0874132" lon="12.0480552"><ele>303.0</ele><time>2026-04-04T07:24:06.139Z</time></trkpt><trkpt lat="46.087471" lon="12.0482478"><ele>303.0</ele><time>2026-04-04T07:24:07.14Z</time></trkpt><trkpt lat="46.0875287" lon="12.0484426"><ele>303.0</ele><time>2026-04-04T07:24:08.14Z</time></trkpt><trkpt lat="46.0875893" lon="12.0486405"><ele>303.0</ele><time>2026-04-04T07:24:09.14Z</time></trkpt><trkpt lat="46.0876465" lon="12.0488366"><ele>303.0</ele><time>2026-04-04T07:24:10.139Z</time></trkpt><trkpt lat="46.087704" lon="12.0490289"><ele>303.0</ele><time>2026-04-04T07:24:11.139Z</time></trkpt><trkpt lat="46.0877616" lon="12.0492169"><ele>303.0</ele><time>2026-04-04T07:24:12.139Z</time></trkpt><trkpt lat="46.0878184" lon="12.0494029"><ele>303.0</ele><time>2026-04-04T07:24:13.14Z</time></trkpt><trkpt lat="46.0878703" lon="12.0495885"><ele>302.5</ele><time>2026-04-04T07:24:14.14Z</time></trkpt><trkpt lat="46.0879235" lon="12.0497703"><ele>302.0</ele><time>2026-04-04T07:24:15.139Z</time></trkpt><trkpt lat="46.0879754" lon="12.0499422"><ele>301.5</ele><time>2026-04-04T07:24:16.14Z</time></trkpt><trkpt lat="46.0880283" lon="12.0501079"><ele>301.0</ele><time>2026-04-04T07:24:17.14Z</time></trkpt><trkpt lat="46.0880798" lon="12.050266"><ele>300.5</ele><time>2026-04-04T07:24:18.14Z</time></trkpt><trkpt lat="46.0881321" lon="12.0504229"><ele>300.0</ele><time>2026-04-04T07:24:19.139Z</time></trkpt><trkpt lat="46.0881836" lon="12.0505807"><ele>299.5</ele><time>2026-04-04T07:24:20.14Z</time></trkpt><trkpt lat="46.0882366" lon="12.0507397"><ele>299.0</ele><time>2026-04-04T07:24:21.139Z</time></trkpt><trkpt lat="46.0882927" lon="12.0508991"><ele>298.5</ele><time>2026-04-04T07:24:22.141Z</time></trkpt><trkpt lat="46.0883506" lon="12.0510636"><ele>298.0</ele><time>2026-04-04T07:24:23.139Z</time></trkpt><trkpt lat="46.0884107" lon="12.0512333"><ele>297.5</ele><time>2026-04-04T07:24:24.139Z</time></trkpt><trkpt lat="46.0884711" lon="12.0514038"><ele>297.0</ele><time>2026-04-04T07:24:25.139Z</time></trkpt><trkpt lat="46.0885347" lon="12.0515729"><ele>296.0</ele><time>2026-04-04T07:24:26.139Z</time></trkpt><trkpt lat="46.0885951" lon="12.0517287"><ele>295.0</ele><time>2026-04-04T07:24:27.14Z</time></trkpt><trkpt lat="46.0886537" lon="12.0518777"><ele>294.0</ele><time>2026-04-04T07:24:28.139Z</time></trkpt><trkpt lat="46.0887149" lon="12.0520337"><ele>293.0</ele><time>2026-04-04T07:24:29.139Z</time></trkpt><trkpt lat="46.0887787" lon="12.0522017"><ele>293.0</ele><time>2026-04-04T07:24:30.139Z</time></trkpt><trkpt lat="46.088848" lon="12.0523785"><ele>293.0</ele><time>2026-04-04T07:24:31.139Z</time></trkpt><trkpt lat="46.0889204" lon="12.0525612"><ele>293.0</ele><time>2026-04-04T07:24:32.14Z</time></trkpt><trkpt lat="46.0889971" lon="12.0527535"><ele>293.0</ele><time>2026-04-04T07:24:33.139Z</time></trkpt><trkpt lat="46.0890756" lon="12.0529472"><ele>293.33333333333337</ele><time>2026-04-04T07:24:34.139Z</time></trkpt><trkpt lat="46.089159" lon="12.0531484"><ele>293.6666666666667</ele><time>2026-04-04T07:24:35.14Z</time></trkpt><trkpt lat="46.0892454" lon="12.0533585"><ele>294.0</ele><time>2026-04-04T07:24:36.139Z</time></trkpt><trkpt lat="46.0893355" lon="12.0535766"><ele>294.0</ele><time>2026-04-04T07:24:37.139Z</time></trkpt><trkpt lat="46.0894306" lon="12.0537977"><ele>294.0</ele><time>2026-04-04T07:24:38.139Z</time></trkpt><trkpt lat="46.0895238" lon="12.0540139"><ele>294.0</ele><time>2026-04-04T07:24:39.139Z</time></trkpt><trkpt lat="46.0896119" lon="12.0542259"><ele>293.6666666666667</ele><time>2026-04-04T07:24:40.14Z</time></trkpt><trkpt lat="46.0897018" lon="12.0544361"><ele>293.33333333333337</ele><time>2026-04-04T07:24:41.14Z</time></trkpt><trkpt lat="46.0897878" lon="12.0546394"><ele>293.0</ele><time>2026-04-04T07:24:42.14Z</time></trkpt><trkpt lat="46.0898687" lon="12.0548391"><ele>293.5</ele><time>2026-04-04T07:24:43.139Z</time></trkpt><trkpt lat="46.0899521" lon="12.0550318"><ele>294.0</ele><time>2026-04-04T07:24:44.139Z</time></trkpt><trkpt lat="46.0900344" lon="12.0552114"><ele>294.5</ele><time>2026-04-04T07:24:45.139Z</time></trkpt><trkpt lat="46.0901102" lon="12.0553831"><ele>295.0</ele><time>2026-04-04T07:24:46.139Z</time></trkpt><trkpt lat="46.0901832" lon="12.0555563"><ele>295.0</ele><time>2026-04-04T07:24:47.14Z</time></trkpt><trkpt lat="46.0902571" lon="12.0557284"><ele>295.0</ele><time>2026-04-04T07:24:48.14Z</time></trkpt><trkpt lat="46.0903296" lon="12.0558986"><ele>295.0</ele><time>2026-04-04T07:24:49.139Z</time></trkpt><trkpt lat="46.0904055" lon="12.0560709"><ele>295.0</ele><time>2026-04-04T07:24:50.14Z</time></trkpt><trkpt lat="46.0904794" lon="12.0562456"><ele>295.25</ele><time>2026-04-04T07:24:51.14Z</time></trkpt><trkpt lat="46.0905519" lon="12.0564219"><ele>295.5</ele><time>2026-04-04T07:24:52.14Z</time></trkpt><trkpt lat="46.0906254" lon="12.0566"><ele>295.75</ele><time>2026-04-04T07:24:53.139Z</time></trkpt><trkpt lat="46.0906951" lon="12.0567748"><ele>296.0</ele><time>2026-04-04T07:24:54.139Z</time></trkpt><trkpt lat="46.0907628" lon="12.0569623"><ele>295.0</ele><time>2026-04-04T07:24:55.14Z</time></trkpt><trkpt lat="46.0908365" lon="12.0571726"><ele>294.0</ele><time>2026-04-04T07:24:56.14Z</time></trkpt><trkpt lat="46.0909129" lon="12.0574005"><ele>293.0</ele><time>2026-04-04T07:24:57.139Z</time></trkpt><trkpt lat="46.0909918" lon="12.0576557"><ele>292.6666666666667</ele><time>2026-04-04T07:24:58.141Z</time></trkpt><trkpt lat="46.0910754" lon="12.057938"><ele>292.3333333333333</ele><time>2026-04-04T07:24:59.139Z</time></trkpt><trkpt lat="46.0911647" lon="12.0582449"><ele>292.0</ele><time>2026-04-04T07:25:00.14Z</time></trkpt><trkpt lat="46.0912541" lon="12.0585839"><ele>292.0</ele><time>2026-04-04T07:25:01.139Z</time></trkpt><trkpt lat="46.0913379" lon="12.0589358"><ele>292.0</ele><time>2026-04-04T07:25:02.14Z</time></trkpt><trkpt lat="46.0914109" lon="12.0592905"><ele>292.0</ele><time>2026-04-04T07:25:03.139Z</time></trkpt><trkpt lat="46.0914787" lon="12.0596324"><ele>292.0</ele><time>2026-04-04T07:25:04.139Z</time></trkpt><trkpt lat="46.0915457" lon="12.0599672"><ele>294.0</ele><time>2026-04-04T07:25:05.139Z</time></trkpt><trkpt lat="46.091611" lon="12.060302"><ele>296.0</ele><time>2026-04-04T07:25:06.14Z</time></trkpt><trkpt lat="46.0916796" lon="12.0606358"><ele>295.5</ele><time>2026-04-04T07:25:07.14Z</time></trkpt><trkpt lat="46.0917506" lon="12.0609865"><ele>295.0</ele><time>2026-04-04T07:25:08.14Z</time></trkpt><trkpt lat="46.0918238" lon="12.0613527"><ele>295.0</ele><time>2026-04-04T07:25:09.14Z</time></trkpt><trkpt lat="46.091903" lon="12.0617399"><ele>295.0</ele><time>2026-04-04T07:25:10.139Z</time></trkpt><trkpt lat="46.0919887" lon="12.0621525"><ele>294.0</ele><time>2026-04-04T07:25:11.139Z</time></trkpt><trkpt lat="46.0920781" lon="12.0625859"><ele>293.0</ele><time>2026-04-04T07:25:12.14Z</time></trkpt><trkpt lat="46.092169" lon="12.0630228"><ele>292.5</ele><time>2026-04-04T07:25:13.14Z</time></trkpt><trkpt lat="46.0922561" lon="12.0634381"><ele>292.0</ele><time>2026-04-04T07:25:14.14Z</time></trkpt><trkpt lat="46.0923397" lon="12.0638306"><ele>291.0</ele><time>2026-04-04T07:25:15.139Z</time></trkpt><trkpt lat="46.0924162" lon="12.0642036"><ele>290.0</ele><time>2026-04-04T07:25:16.141Z</time></trkpt><trkpt lat="46.0924913" lon="12.0645687"><ele>290.0</ele><time>2026-04-04T07:25:17.14Z</time></trkpt><trkpt lat="46.092566" lon="12.0649235"><ele>290.0</ele><time>2026-04-04T07:25:18.139Z</time></trkpt><trkpt lat="46.0926394" lon="12.0652727"><ele>290.0</ele><time>2026-04-04T07:25:19.14Z</time></trkpt><trkpt lat="46.0927089" lon="12.0656088"><ele>290.0</ele><time>2026-04-04T07:25:20.139Z</time></trkpt><trkpt lat="46.0927795" lon="12.0659318"><ele>291.0</ele><time>2026-04-04T07:25:21.139Z</time></trkpt><trkpt lat="46.0928595" lon="12.0662392"><ele>292.0</ele><time>2026-04-04T07:25:22.14Z</time></trkpt><trkpt lat="46.0929538" lon="12.0665263"><ele>293.0</ele><time>2026-04-04T07:25:23.14Z</time></trkpt><trkpt lat="46.0930595" lon="12.066789"><ele>293.6666666666667</ele><time>2026-04-04T07:25:24.139Z</time></trkpt><trkpt lat="46.093185" lon="12.0670391"><ele>294.3333333333333</ele><time>2026-04-04T07:25:25.14Z</time></trkpt><trkpt lat="46.0933323" lon="12.067281"><ele>295.0</ele><time>2026-04-04T07:25:26.139Z</time></trkpt><trkpt lat="46.0934991" lon="12.0675193"><ele>295.5</ele><time>2026-04-04T07:25:27.14Z</time></trkpt><trkpt lat="46.093687" lon="12.0677651"><ele>296.0</ele><time>2026-04-04T07:25:28.14Z</time></trkpt><trkpt lat="46.0938823" lon="12.0680167"><ele>296.0</ele><time>2026-04-04T07:25:29.139Z</time></trkpt><trkpt lat="46.0940813" lon="12.068275"><ele>296.0</ele><time>2026-04-04T07:25:30.139Z</time></trkpt><trkpt lat="46.0942795" lon="12.0685357"><ele>297.0</ele><time>2026-04-04T07:25:31.14Z</time></trkpt><trkpt lat="46.0944793" lon="12.0687932"><ele>298.0</ele><time>2026-04-04T07:25:32.14Z</time></trkpt><trkpt lat="46.0946733" lon="12.0690409"><ele>298.5</ele><time>2026-04-04T07:25:33.139Z</time></trkpt><trkpt lat="46.0948617" lon="12.0692823"><ele>299.0</ele><time>2026-04-04T07:25:34.14Z</time></trkpt><trkpt lat="46.0950399" lon="12.0695123"><ele>298.33333333333337</ele><time>2026-04-04T07:25:35.139Z</time></trkpt><trkpt lat="46.0952144" lon="12.0697343"><ele>297.6666666666667</ele><time>2026-04-04T07:25:36.139Z</time></trkpt><trkpt lat="46.0953655" lon="12.0699296"><ele>297.0</ele><time>2026-04-04T07:25:37.141Z</time></trkpt><trkpt lat="46.0954965" lon="12.0700968"><ele>296.5</ele><time>2026-04-04T07:25:38.139Z</time></trkpt><trkpt lat="46.0956239" lon="12.0702335"><ele>296.0</ele><time>2026-04-04T07:25:39.139Z</time></trkpt><trkpt lat="46.095748" lon="12.0703298"><ele>295.5</ele><time>2026-04-04T07:25:40.14Z</time></trkpt><trkpt lat="46.0958648" lon="12.0704049"><ele>295.0</ele><time>2026-04-04T07:25:41.14Z</time></trkpt><trkpt lat="46.0959648" lon="12.0704732"><ele>295.4</ele><time>2026-04-04T07:25:42.139Z</time></trkpt><trkpt lat="46.0960542" lon="12.07055"><ele>295.8</ele><time>2026-04-04T07:25:43.139Z</time></trkpt><trkpt lat="46.0961363" lon="12.0706598"><ele>296.2</ele><time>2026-04-04T07:25:44.139Z</time></trkpt><trkpt lat="46.096209" lon="12.0707894"><ele>296.6</ele><time>2026-04-04T07:25:45.14Z</time></trkpt><trkpt lat="46.0962933" lon="12.0709081"><ele>297.0</ele><time>2026-04-04T07:25:46.139Z</time></trkpt><trkpt lat="46.0963734" lon="12.0709935"><ele>297.0</ele><time>2026-04-04T07:25:47.139Z</time></trkpt><trkpt lat="46.0964354" lon="12.0710957"><ele>297.0</ele><time>2026-04-04T07:25:48.141Z</time></trkpt><trkpt lat="46.0965001" lon="12.0712141"><ele>297.0</ele><time>2026-04-04T07:25:49.139Z</time></trkpt><trkpt lat="46.0965596" lon="12.0713423"><ele>297.0</ele><time>2026-04-04T07:25:50.139Z</time></trkpt><trkpt lat="46.0966163" lon="12.0714759"><ele>297.0</ele><time>2026-04-04T07:25:51.139Z</time></trkpt><trkpt lat="46.0966754" lon="12.0716201"><ele>296.5</ele><time>2026-04-04T07:25:52.139Z</time></trkpt><trkpt lat="46.0967379" lon="12.0717757"><ele>296.0</ele><time>2026-04-04T07:25:53.139Z</time></trkpt><trkpt lat="46.0968039" lon="12.0719448"><ele>295.5</ele><time>2026-04-04T07:25:54.14Z</time></trkpt><trkpt lat="46.0968711" lon="12.0721254"><ele>295.0</ele><time>2026-04-04T07:25:55.14Z</time></trkpt><trkpt lat="46.0969357" lon="12.0723213"><ele>294.66666666666663</ele><time>2026-04-04T07:25:56.141Z</time></trkpt><trkpt lat="46.0969929" lon="12.072531"><ele>294.3333333333333</ele><time>2026-04-04T07:25:57.141Z</time></trkpt><trkpt lat="46.0970423" lon="12.0727523"><ele>294.0</ele><time>2026-04-04T07:25:58.14Z</time></trkpt><trkpt lat="46.0970775" lon="12.0729795"><ele>294.0</ele><time>2026-04-04T07:25:59.141Z</time></trkpt><trkpt lat="46.0970949" lon="12.0732049"><ele>294.0</ele><time>2026-04-04T07:26:00.14Z</time></trkpt><trkpt lat="46.0970989" lon="12.0734276"><ele>294.0</ele><time>2026-04-04T07:26:01.141Z</time></trkpt><trkpt lat="46.0970914" lon="12.0736502"><ele>293.6666666666667</ele><time>2026-04-04T07:26:02.14Z</time></trkpt><trkpt lat="46.0970725" lon="12.0738723"><ele>293.33333333333337</ele><time>2026-04-04T07:26:03.14Z</time></trkpt><trkpt lat="46.0970477" lon="12.074096"><ele>293.0</ele><time>2026-04-04T07:26:04.14Z</time></trkpt><trkpt lat="46.0970206" lon="12.0743197"><ele>292.6666666666667</ele><time>2026-04-04T07:26:05.14Z</time></trkpt><trkpt lat="46.096992" lon="12.0745452"><ele>292.3333333333333</ele><time>2026-04-04T07:26:06.14Z</time></trkpt><trkpt lat="46.096963" lon="12.0747717"><ele>292.0</ele><time>2026-04-04T07:26:07.141Z</time></trkpt><trkpt lat="46.0969341" lon="12.0749924"><ele>292.5</ele><time>2026-04-04T07:26:08.141Z</time></trkpt><trkpt lat="46.0969052" lon="12.075198"><ele>293.0</ele><time>2026-04-04T07:26:09.14Z</time></trkpt><trkpt lat="46.0968795" lon="12.0753938"><ele>293.5</ele><time>2026-04-04T07:26:10.14Z</time></trkpt><trkpt lat="46.0968565" lon="12.0755912"><ele>294.0</ele><time>2026-04-04T07:26:11.14Z</time></trkpt><trkpt lat="46.0968296" lon="12.0757896"><ele>294.0</ele><time>2026-04-04T07:26:12.14Z</time></trkpt><trkpt lat="46.0968031" lon="12.07599"><ele>294.0</ele><time>2026-04-04T07:26:13.141Z</time></trkpt><trkpt lat="46.0967767" lon="12.0761908"><ele>294.0</ele><time>2026-04-04T07:26:14.141Z</time></trkpt><trkpt lat="46.0967486" lon="12.0763951"><ele>294.0</ele><time>2026-04-04T07:26:15.14Z</time></trkpt><trkpt lat="46.0967235" lon="12.0765989"><ele>294.5</ele><time>2026-04-04T07:26:16.14Z</time></trkpt><trkpt lat="46.096701" lon="12.0767947"><ele>295.0</ele><time>2026-04-04T07:26:17.141Z</time></trkpt><trkpt lat="46.0966757" lon="12.0769859"><ele>295.5</ele><time>2026-04-04T07:26:18.142Z</time></trkpt><trkpt lat="46.0966501" lon="12.0771749"><ele>296.0</ele><time>2026-04-04T07:26:19.142Z</time></trkpt><trkpt lat="46.0966237" lon="12.0773673"><ele>296.0</ele><time>2026-04-04T07:26:20.141Z</time></trkpt><trkpt lat="46.0965962" lon="12.0775726"><ele>296.0</ele><time>2026-04-04T07:26:21.141Z</time></trkpt><trkpt lat="46.0965686" lon="12.0777809"><ele>296.0</ele><time>2026-04-04T07:26:22.141Z</time></trkpt><trkpt lat="46.0965398" lon="12.0779878"><ele>296.0</ele><time>2026-04-04T07:26:23.14Z</time></trkpt><trkpt lat="46.0965165" lon="12.0781962"><ele>293.33333333333337</ele><time>2026-04-04T07:26:24.14Z</time></trkpt><trkpt lat="46.0964921" lon="12.0784063"><ele>290.6666666666667</ele><time>2026-04-04T07:26:25.14Z</time></trkpt><trkpt lat="46.0964639" lon="12.0786197"><ele>288.0</ele><time>2026-04-04T07:26:26.14Z</time></trkpt><trkpt lat="46.0964359" lon="12.0788366"><ele>288.0</ele><time>2026-04-04T07:26:27.14Z</time></trkpt><trkpt lat="46.0964072" lon="12.0790509"><ele>288.0</ele><time>2026-04-04T07:26:28.141Z</time></trkpt><trkpt lat="46.0963799" lon="12.0792624"><ele>288.0</ele><time>2026-04-04T07:26:29.14Z</time></trkpt><trkpt lat="46.096352" lon="12.079475"><ele>288.25</ele><time>2026-04-04T07:26:30.141Z</time></trkpt><trkpt lat="46.0963262" lon="12.0796859"><ele>288.5</ele><time>2026-04-04T07:26:31.142Z</time></trkpt><trkpt lat="46.0962985" lon="12.0798951"><ele>288.75</ele><time>2026-04-04T07:26:32.14Z</time></trkpt><trkpt lat="46.096273" lon="12.0801056"><ele>289.0</ele><time>2026-04-04T07:26:33.14Z</time></trkpt><trkpt lat="46.0962462" lon="12.0803145"><ele>290.0</ele><time>2026-04-04T07:26:34.14Z</time></trkpt><trkpt lat="46.0962209" lon="12.0805149"><ele>291.0</ele><time>2026-04-04T07:26:35.14Z</time></trkpt><trkpt lat="46.0961937" lon="12.0807133"><ele>292.0</ele><time>2026-04-04T07:26:36.141Z</time></trkpt><trkpt lat="46.0961674" lon="12.0809105"><ele>293.0</ele><time>2026-04-04T07:26:37.141Z</time></trkpt><trkpt lat="46.0961436" lon="12.0811063"><ele>293.25</ele><time>2026-04-04T07:26:38.141Z</time></trkpt><trkpt lat="46.096121" lon="12.0812954"><ele>293.5</ele><time>2026-04-04T07:26:39.14Z</time></trkpt><trkpt lat="46.0961005" lon="12.0814855"><ele>293.75</ele><time>2026-04-04T07:26:40.14Z</time></trkpt><trkpt lat="46.0960782" lon="12.0816721"><ele>294.0</ele><time>2026-04-04T07:26:41.141Z</time></trkpt><trkpt lat="46.0960512" lon="12.0818564"><ele>294.0</ele><time>2026-04-04T07:26:42.141Z</time></trkpt><trkpt lat="46.0960238" lon="12.0820527"><ele>294.0</ele><time>2026-04-04T07:26:43.142Z</time></trkpt><trkpt lat="46.0959983" lon="12.0822573"><ele>294.0</ele><time>2026-04-04T07:26:44.141Z</time></trkpt><trkpt lat="46.095975" lon="12.0824617"><ele>294.0</ele><time>2026-04-04T07:26:45.14Z</time></trkpt><trkpt lat="46.0959538" lon="12.082657"><ele>294.0</ele><time>2026-04-04T07:26:46.14Z</time></trkpt><trkpt lat="46.0959328" lon="12.0828408"><ele>294.0</ele><time>2026-04-04T07:26:47.14Z</time></trkpt><trkpt lat="46.0959098" lon="12.0830192"><ele>294.0</ele><time>2026-04-04T07:26:48.142Z</time></trkpt><trkpt lat="46.0958856" lon="12.0832009"><ele>294.0</ele><time>2026-04-04T07:26:49.14Z</time></trkpt><trkpt lat="46.0958615" lon="12.0833905"><ele>295.0</ele><time>2026-04-04T07:26:50.141Z</time></trkpt><trkpt lat="46.0958367" lon="12.083584"><ele>296.0</ele><time>2026-04-04T07:26:51.141Z</time></trkpt><trkpt lat="46.0958113" lon="12.0837772"><ele>297.0</ele><time>2026-04-04T07:26:52.141Z</time></trkpt><trkpt lat="46.0957873" lon="12.0839711"><ele>298.0</ele><time>2026-04-04T07:26:53.14Z</time></trkpt><trkpt lat="46.0957639" lon="12.084154"><ele>298.25</ele><time>2026-04-04T07:26:54.141Z</time></trkpt><trkpt lat="46.0957492" lon="12.0843284"><ele>298.5</ele><time>2026-04-04T07:26:55.142Z</time></trkpt><trkpt lat="46.0957511" lon="12.0844986"><ele>298.75</ele><time>2026-04-04T07:26:56.141Z</time></trkpt><trkpt lat="46.0957692" lon="12.084662"><ele>299.0</ele><time>2026-04-04T07:26:57.14Z</time></trkpt><trkpt lat="46.095792" lon="12.084812"><ele>298.8</ele><time>2026-04-04T07:26:58.141Z</time></trkpt><trkpt lat="46.0958199" lon="12.0849473"><ele>298.59999999999997</ele><time>2026-04-04T07:26:59.14Z</time></trkpt><trkpt lat="46.0958538" lon="12.0850824"><ele>298.4</ele><time>2026-04-04T07:27:00.142Z</time></trkpt><trkpt lat="46.0958987" lon="12.0852166"><ele>298.2</ele><time>2026-04-04T07:27:01.141Z</time></trkpt><trkpt lat="46.0959518" lon="12.0853435"><ele>298.0</ele><time>2026-04-04T07:27:02.141Z</time></trkpt><trkpt lat="46.0960156" lon="12.0854668"><ele>298.0</ele><time>2026-04-04T07:27:03.14Z</time></trkpt><trkpt lat="46.0960947" lon="12.0855913"><ele>298.0</ele><time>2026-04-04T07:27:04.14Z</time></trkpt><trkpt lat="46.0961849" lon="12.0857145"><ele>298.0</ele><time>2026-04-04T07:27:05.14Z</time></trkpt><trkpt lat="46.0962825" lon="12.085827"><ele>298.0</ele><time>2026-04-04T07:27:06.14Z</time></trkpt><trkpt lat="46.0963789" lon="12.0859296"><ele>298.5</ele><time>2026-04-04T07:27:07.141Z</time></trkpt><trkpt lat="46.0964788" lon="12.086025"><ele>299.0</ele><time>2026-04-04T07:27:08.141Z</time></trkpt><trkpt lat="46.0965783" lon="12.0861194"><ele>299.5</ele><time>2026-04-04T07:27:09.141Z</time></trkpt><trkpt lat="46.0966788" lon="12.0862117"><ele>300.0</ele><time>2026-04-04T07:27:10.14Z</time></trkpt><trkpt lat="46.0967786" lon="12.0863059"><ele>300.0</ele><time>2026-04-04T07:27:11.14Z</time></trkpt><trkpt lat="46.096878" lon="12.0864059"><ele>300.0</ele><time>2026-04-04T07:27:12.14Z</time></trkpt><trkpt lat="46.0969788" lon="12.0865031"><ele>300.0</ele><time>2026-04-04T07:27:13.14Z</time></trkpt><trkpt lat="46.0970781" lon="12.0866007"><ele>300.0</ele><time>2026-04-04T07:27:14.141Z</time></trkpt><trkpt lat="46.0971833" lon="12.0866982"><ele>300.0</ele><time>2026-04-04T07:27:15.14Z</time></trkpt><trkpt lat="46.0972887" lon="12.0868003"><ele>300.0</ele><time>2026-04-04T07:27:16.14Z</time></trkpt><trkpt lat="46.0973964" lon="12.0869015"><ele>300.0</ele><time>2026-04-04T07:27:17.141Z</time></trkpt><trkpt lat="46.097503" lon="12.0870022"><ele>300.0</ele><time>2026-04-04T07:27:18.14Z</time></trkpt><trkpt lat="46.0976055" lon="12.0870992"><ele>300.0</ele><time>2026-04-04T07:27:19.141Z</time></trkpt><trkpt lat="46.0977054" lon="12.0871926"><ele>300.0</ele><time>2026-04-04T07:27:20.14Z</time></trkpt><trkpt lat="46.0978077" lon="12.087287"><ele>300.0</ele><time>2026-04-04T07:27:21.14Z</time></trkpt><trkpt lat="46.0979098" lon="12.087386"><ele>300.0</ele><time>2026-04-04T07:27:22.141Z</time></trkpt><trkpt lat="46.0980164" lon="12.0874838"><ele>300.25</ele><time>2026-04-04T07:27:23.14Z</time></trkpt><trkpt lat="46.0981266" lon="12.0875817"><ele>300.5</ele><time>2026-04-04T07:27:24.14Z</time></trkpt><trkpt lat="46.0982365" lon="12.0876786"><ele>300.75</ele><time>2026-04-04T07:27:25.141Z</time></trkpt><trkpt lat="46.0983474" lon="12.0877817"><ele>301.0</ele><time>2026-04-04T07:27:26.14Z</time></trkpt><trkpt lat="46.09846" lon="12.0878877"><ele>301.0</ele><time>2026-04-04T07:27:27.14Z</time></trkpt><trkpt lat="46.0985737" lon="12.0879949"><ele>301.0</ele><time>2026-04-04T07:27:28.141Z</time></trkpt><trkpt lat="46.0986854" lon="12.0880993"><ele>301.0</ele><time>2026-04-04T07:27:29.141Z</time></trkpt><trkpt lat="46.0987946" lon="12.0882049"><ele>301.0</ele><time>2026-04-04T07:27:30.141Z</time></trkpt><trkpt lat="46.0989027" lon="12.0883095"><ele>301.0</ele><time>2026-04-04T07:27:31.141Z</time></trkpt><trkpt lat="46.0990138" lon="12.0884175"><ele>301.0</ele><time>2026-04-04T07:27:32.14Z</time></trkpt><trkpt lat="46.099126" lon="12.0885216"><ele>301.0</ele><time>2026-04-04T07:27:33.141Z</time></trkpt><trkpt lat="46.0992416" lon="12.0886245"><ele>301.0</ele><time>2026-04-04T07:27:34.14Z</time></trkpt><trkpt lat="46.0993503" lon="12.0887273"><ele>300.75</ele><time>2026-04-04T07:27:35.14Z</time></trkpt><trkpt lat="46.0994586" lon="12.0888249"><ele>300.5</ele><time>2026-04-04T07:27:36.14Z</time></trkpt><trkpt lat="46.0995573" lon="12.0889165"><ele>300.25</ele><time>2026-04-04T07:27:37.141Z</time></trkpt><trkpt lat="46.0996488" lon="12.0890049"><ele>300.0</ele><time>2026-04-04T07:27:38.14Z</time></trkpt><trkpt lat="46.0997315" lon="12.0890869"><ele>300.8</ele><time>2026-04-04T07:27:39.141Z</time></trkpt><trkpt lat="46.0998037" lon="12.0891655"><ele>301.6</ele><time>2026-04-04T07:27:40.14Z</time></trkpt><trkpt lat="46.0998548" lon="12.0892314"><ele>302.4</ele><time>2026-04-04T07:27:41.141Z</time></trkpt><trkpt lat="46.0999003" lon="12.0893462"><ele>303.2</ele><time>2026-04-04T07:27:43.14Z</time></trkpt><trkpt lat="46.0998998" lon="12.0894635"><ele>304.0</ele><time>2026-04-04T07:27:45.14Z</time></trkpt><trkpt lat="46.099907" lon="12.0896539"><ele>303.8333333333333</ele><time>2026-04-04T07:27:47.141Z</time></trkpt><trkpt lat="46.0999317" lon="12.0897623"><ele>303.66666666666663</ele><time>2026-04-04T07:27:48.14Z</time></trkpt><trkpt lat="46.0999788" lon="12.0898662"><ele>303.5</ele><time>2026-04-04T07:27:49.141Z</time></trkpt><trkpt lat="46.1000523" lon="12.0899397"><ele>303.3333333333333</ele><time>2026-04-04T07:27:50.141Z</time></trkpt><trkpt lat="46.100142" lon="12.0899669"><ele>303.1666666666667</ele><time>2026-04-04T07:27:51.142Z</time></trkpt><trkpt lat="46.1002323" lon="12.0899462"><ele>303.0</ele><time>2026-04-04T07:27:52.14Z</time></trkpt><trkpt lat="46.1003082" lon="12.0899068"><ele>303.0</ele><time>2026-04-04T07:27:53.14Z</time></trkpt><trkpt lat="46.1003728" lon="12.0898727"><ele>303.0</ele><time>2026-04-04T07:27:54.14Z</time></trkpt><trkpt lat="46.1004988" lon="12.0898573"><ele>303.0</ele><time>2026-04-04T07:27:56.141Z</time></trkpt><trkpt lat="46.1005654" lon="12.0898948"><ele>303.0</ele><time>2026-04-04T07:27:57.141Z</time></trkpt><trkpt lat="46.1006326" lon="12.0899597"><ele>303.0</ele><time>2026-04-04T07:27:58.141Z</time></trkpt><trkpt lat="46.1007073" lon="12.0900382"><ele>303.0</ele><time>2026-04-04T07:27:59.14Z</time></trkpt><trkpt lat="46.100789" lon="12.0901283"><ele>303.2</ele><time>2026-04-04T07:28:00.141Z</time></trkpt><trkpt lat="46.1008709" lon="12.0902206"><ele>303.4</ele><time>2026-04-04T07:28:01.14Z</time></trkpt><trkpt lat="46.1009512" lon="12.0903018"><ele>303.59999999999997</ele><time>2026-04-04T07:28:02.14Z</time></trkpt><trkpt lat="46.1010291" lon="12.0903768"><ele>303.8</ele><time>2026-04-04T07:28:03.14Z</time></trkpt><trkpt lat="46.1011077" lon="12.0904508"><ele>304.0</ele><time>2026-04-04T07:28:04.14Z</time></trkpt><trkpt lat="46.1011882" lon="12.090526"><ele>304.0</ele><time>2026-04-04T07:28:05.141Z</time></trkpt><trkpt lat="46.1012666" lon="12.0906041"><ele>304.0</ele><time>2026-04-04T07:28:06.141Z</time></trkpt><trkpt lat="46.1013433" lon="12.0906812"><ele>304.0</ele><time>2026-04-04T07:28:07.14Z</time></trkpt><trkpt lat="46.101418" lon="12.0907566"><ele>304.0</ele><time>2026-04-04T07:28:08.14Z</time></trkpt><trkpt lat="46.1014868" lon="12.0908326"><ele>304.0</ele><time>2026-04-04T07:28:09.14Z</time></trkpt><trkpt lat="46.1015537" lon="12.0909028"><ele>304.0</ele><time>2026-04-04T07:28:10.14Z</time></trkpt><trkpt lat="46.1016243" lon="12.090972"><ele>304.16666666666663</ele><time>2026-04-04T07:28:11.141Z</time></trkpt><trkpt lat="46.1016981" lon="12.0910463"><ele>304.3333333333333</ele><time>2026-04-04T07:28:12.141Z</time></trkpt><trkpt lat="46.1017727" lon="12.0911221"><ele>304.5</ele><time>2026-04-04T07:28:13.14Z</time></trkpt><trkpt lat="46.1018473" lon="12.0911968"><ele>304.6666666666667</ele><time>2026-04-04T07:28:14.14Z</time></trkpt><trkpt lat="46.1019111" lon="12.091262"><ele>304.83333333333337</ele><time>2026-04-04T07:28:15.14Z</time></trkpt><trkpt lat="46.1019716" lon="12.0913214"><ele>305.0</ele><time>2026-04-04T07:28:16.141Z</time></trkpt><trkpt lat="46.1020304" lon="12.0913844"><ele>305.0</ele><time>2026-04-04T07:28:17.14Z</time></trkpt><trkpt lat="46.1020909" lon="12.0914489"><ele>305.0</ele><time>2026-04-04T07:28:18.14Z</time></trkpt><trkpt lat="46.1021552" lon="12.0915137"><ele>305.0</ele><time>2026-04-04T07:28:19.141Z</time></trkpt><trkpt lat="46.1022206" lon="12.0915804"><ele>305.0</ele><time>2026-04-04T07:28:20.142Z</time></trkpt><trkpt lat="46.1022883" lon="12.0916481"><ele>305.0</ele><time>2026-04-04T07:28:21.14Z</time></trkpt><trkpt lat="46.1023455" lon="12.0917076"><ele>305.0</ele><time>2026-04-04T07:28:22.141Z</time></trkpt><trkpt lat="46.1024255" lon="12.0917888"><ele>305.33333333333337</ele><time>2026-04-04T07:28:24.14Z</time></trkpt><trkpt lat="46.1024866" lon="12.0918545"><ele>305.6666666666667</ele><time>2026-04-04T07:28:27.14Z</time></trkpt><trkpt lat="46.1025703" lon="12.0919312"><ele>306.0</ele><time>2026-04-04T07:28:36.141Z</time></trkpt><trkpt lat="46.1026278" lon="12.0919761"><ele>306.3333333333333</ele><time>2026-04-04T07:28:37.14Z</time></trkpt><trkpt lat="46.1026935" lon="12.0920277"><ele>306.66666666666663</ele><time>2026-04-04T07:28:38.141Z</time></trkpt><trkpt lat="46.1027599" lon="12.0920816"><ele>307.0</ele><time>2026-04-04T07:28:39.141Z</time></trkpt><trkpt lat="46.102816" lon="12.092133"><ele>307.0</ele><time>2026-04-04T07:28:40.14Z</time></trkpt><trkpt lat="46.1028744" lon="12.092182"><ele>307.0</ele><time>2026-04-04T07:28:41.14Z</time></trkpt><trkpt lat="46.1029437" lon="12.0922446"><ele>307.0</ele><time>2026-04-04T07:28:42.141Z</time></trkpt><trkpt lat="46.1030253" lon="12.0923246"><ele>307.0</ele><time>2026-04-04T07:28:43.14Z</time></trkpt><trkpt lat="46.1031217" lon="12.0924203"><ele>307.0</ele><time>2026-04-04T07:28:44.14Z</time></trkpt><trkpt lat="46.1032327" lon="12.0925184"><ele>307.25</ele><time>2026-04-04T07:28:45.141Z</time></trkpt><trkpt lat="46.1033498" lon="12.0926103"><ele>307.5</ele><time>2026-04-04T07:28:46.14Z</time></trkpt><trkpt lat="46.1034588" lon="12.0926907"><ele>307.75</ele><time>2026-04-04T07:28:47.141Z</time></trkpt><trkpt lat="46.1035559" lon="12.092766"><ele>308.0</ele><time>2026-04-04T07:28:48.14Z</time></trkpt><trkpt lat="46.1036563" lon="12.0928463"><ele>308.0</ele><time>2026-04-04T07:28:49.14Z</time></trkpt><trkpt lat="46.1037611" lon="12.0929325"><ele>308.0</ele><time>2026-04-04T07:28:50.141Z</time></trkpt><trkpt lat="46.103877" lon="12.093026"><ele>308.0</ele><time>2026-04-04T07:28:51.141Z</time></trkpt><trkpt lat="46.1039972" lon="12.0931236"><ele>308.0</ele><time>2026-04-04T07:28:52.14Z</time></trkpt><trkpt lat="46.104122" lon="12.0932209"><ele>308.5</ele><time>2026-04-04T07:28:53.141Z</time></trkpt><trkpt lat="46.1042448" lon="12.093318"><ele>309.0</ele><time>2026-04-04T07:28:54.141Z</time></trkpt><trkpt lat="46.1043614" lon="12.0934125"><ele>309.5</ele><time>2026-04-04T07:28:55.14Z</time></trkpt><trkpt lat="46.1044748" lon="12.0935041"><ele>310.0</ele><time>2026-04-04T07:28:56.14Z</time></trkpt><trkpt lat="46.1045877" lon="12.0936002"><ele>310.0</ele><time>2026-04-04T07:28:57.141Z</time></trkpt><trkpt lat="46.1046987" lon="12.0936991"><ele>310.0</ele><time>2026-04-04T07:28:58.142Z</time></trkpt><trkpt lat="46.1048084" lon="12.0938018"><ele>310.0</ele><time>2026-04-04T07:28:59.14Z</time></trkpt><trkpt lat="46.1049191" lon="12.0939046"><ele>310.0</ele><time>2026-04-04T07:29:00.14Z</time></trkpt><trkpt lat="46.1050279" lon="12.0940083"><ele>309.5</ele><time>2026-04-04T07:29:01.142Z</time></trkpt><trkpt lat="46.1051356" lon="12.0941121"><ele>309.0</ele><time>2026-04-04T07:29:02.141Z</time></trkpt><trkpt lat="46.1052436" lon="12.0942187"><ele>308.5</ele><time>2026-04-04T07:29:03.14Z</time></trkpt><trkpt lat="46.1053519" lon="12.0943262"><ele>308.0</ele><time>2026-04-04T07:29:04.14Z</time></trkpt><trkpt lat="46.1054577" lon="12.094431"><ele>308.0</ele><time>2026-04-04T07:29:05.14Z</time></trkpt><trkpt lat="46.1055526" lon="12.0945247"><ele>308.0</ele><time>2026-04-04T07:29:06.14Z</time></trkpt><trkpt lat="46.1056376" lon="12.094609"><ele>308.0</ele><time>2026-04-04T07:29:07.141Z</time></trkpt><trkpt lat="46.1057107" lon="12.0946831"><ele>308.0</ele><time>2026-04-04T07:29:08.14Z</time></trkpt><trkpt lat="46.105779" lon="12.0947517"><ele>308.0</ele><time>2026-04-04T07:29:09.141Z</time></trkpt><trkpt lat="46.105847" lon="12.0948201"><ele>308.33333333333337</ele><time>2026-04-04T07:29:10.14Z</time></trkpt><trkpt lat="46.1059166" lon="12.0948921"><ele>308.6666666666667</ele><time>2026-04-04T07:29:11.14Z</time></trkpt><trkpt lat="46.1059854" lon="12.0949613"><ele>309.0</ele><time>2026-04-04T07:29:12.141Z</time></trkpt><trkpt lat="46.1060542" lon="12.0950278"><ele>309.3333333333333</ele><time>2026-04-04T07:29:13.141Z</time></trkpt><trkpt lat="46.1061179" lon="12.0950925"><ele>309.66666666666663</ele><time>2026-04-04T07:29:14.14Z</time></trkpt><trkpt lat="46.1061807" lon="12.0951584"><ele>310.0</ele><time>2026-04-04T07:29:15.141Z</time></trkpt><trkpt lat="46.1062457" lon="12.0952233"><ele>310.0</ele><time>2026-04-04T07:29:16.14Z</time></trkpt><trkpt lat="46.1063089" lon="12.0952896"><ele>310.0</ele><time>2026-04-04T07:29:17.14Z</time></trkpt><trkpt lat="46.106376" lon="12.0953587"><ele>310.0</ele><time>2026-04-04T07:29:18.14Z</time></trkpt><trkpt lat="46.1064457" lon="12.0954313"><ele>310.0</ele><time>2026-04-04T07:29:19.14Z</time></trkpt><trkpt lat="46.106518" lon="12.0955065"><ele>310.0</ele><time>2026-04-04T07:29:20.141Z</time></trkpt><trkpt lat="46.1065974" lon="12.0955872"><ele>310.0</ele><time>2026-04-04T07:29:21.141Z</time></trkpt><trkpt lat="46.1066852" lon="12.0956739"><ele>310.2</ele><time>2026-04-04T07:29:22.142Z</time></trkpt><trkpt lat="46.1067766" lon="12.0957668"><ele>310.4</ele><time>2026-04-04T07:29:23.141Z</time></trkpt><trkpt lat="46.1068651" lon="12.0958587"><ele>310.6</ele><time>2026-04-04T07:29:24.141Z</time></trkpt><trkpt lat="46.106947" lon="12.0959443"><ele>310.8</ele><time>2026-04-04T07:29:25.14Z</time></trkpt><trkpt lat="46.1070189" lon="12.0960238"><ele>311.0</ele><time>2026-04-04T07:29:26.141Z</time></trkpt><trkpt lat="46.1070873" lon="12.0960991"><ele>311.0</ele><time>2026-04-04T07:29:27.14Z</time></trkpt><trkpt lat="46.1071544" lon="12.0961656"><ele>311.0</ele><time>2026-04-04T07:29:28.14Z</time></trkpt><trkpt lat="46.1072108" lon="12.0962169"><ele>311.0</ele><time>2026-04-04T07:29:29.142Z</time></trkpt><trkpt lat="46.1072849" lon="12.096301"><ele>311.0</ele><time>2026-04-04T07:29:31.14Z</time></trkpt><trkpt lat="46.1073282" lon="12.0964242"><ele>311.0</ele><time>2026-04-04T07:29:33.141Z</time></trkpt><trkpt lat="46.1073665" lon="12.0964971"><ele>311.0</ele><time>2026-04-04T07:29:34.14Z</time></trkpt><trkpt lat="46.107431" lon="12.0965524"><ele>311.1666666666667</ele><time>2026-04-04T07:29:35.142Z</time></trkpt><trkpt lat="46.1075088" lon="12.0965943"><ele>311.33333333333337</ele><time>2026-04-04T07:29:36.141Z</time></trkpt><trkpt lat="46.1075899" lon="12.0966457"><ele>311.5</ele><time>2026-04-04T07:29:37.14Z</time></trkpt><trkpt lat="46.1076634" lon="12.0967081"><ele>311.6666666666667</ele><time>2026-04-04T07:29:38.141Z</time></trkpt><trkpt lat="46.1077265" lon="12.0967745"><ele>311.8333333333333</ele><time>2026-04-04T07:29:39.141Z</time></trkpt><trkpt lat="46.1077961" lon="12.0968489"><ele>312.0</ele><time>2026-04-04T07:29:40.14Z</time></trkpt><trkpt lat="46.1078726" lon="12.0969316"><ele>312.0</ele><time>2026-04-04T07:29:41.141Z</time></trkpt><trkpt lat="46.1079553" lon="12.0970213"><ele>312.0</ele><time>2026-04-04T07:29:42.14Z</time></trkpt><trkpt lat="46.1080315" lon="12.0971012"><ele>312.0</ele><time>2026-04-04T07:29:43.14Z</time></trkpt><trkpt lat="46.1081034" lon="12.0971796"><ele>312.0</ele><time>2026-04-04T07:29:44.141Z</time></trkpt><trkpt lat="46.1081778" lon="12.0972646"><ele>312.0</ele><time>2026-04-04T07:29:45.14Z</time></trkpt><trkpt lat="46.1082582" lon="12.0973515"><ele>312.0</ele><time>2026-04-04T07:29:46.14Z</time></trkpt><trkpt lat="46.1083399" lon="12.0974396"><ele>312.0</ele><time>2026-04-04T07:29:47.14Z</time></trkpt><trkpt lat="46.1084173" lon="12.0975275"><ele>312.0</ele><time>2026-04-04T07:29:48.141Z</time></trkpt><trkpt lat="46.108488" lon="12.0976041"><ele>312.0</ele><time>2026-04-04T07:29:49.141Z</time></trkpt><trkpt lat="46.1085465" lon="12.0976738"><ele>312.0</ele><time>2026-04-04T07:29:50.141Z</time></trkpt><trkpt lat="46.1085944" lon="12.0977381"><ele>312.0</ele><time>2026-04-04T07:29:51.14Z</time></trkpt><trkpt lat="46.10865" lon="12.09787"><ele>312.0</ele><time>2026-04-04T07:29:53.141Z</time></trkpt><trkpt lat="46.1086423" lon="12.097992"><ele>312.0</ele><time>2026-04-04T07:29:55.141Z</time></trkpt><trkpt lat="46.1086473" lon="12.0981"><ele>312.0</ele><time>2026-04-04T07:29:57.14Z</time></trkpt><trkpt lat="46.1086717" lon="12.0981957"><ele>312.0</ele><time>2026-04-04T07:29:59.14Z</time></trkpt><trkpt lat="46.1087055" lon="12.0982794"><ele>312.0</ele><time>2026-04-04T07:30:02.142Z</time></trkpt><trkpt lat="46.1086765" lon="12.0983644"><ele>312.0</ele><time>2026-04-04T07:32:34.142Z</time></trkpt><trkpt lat="46.1087386" lon="12.0983211"><ele>312.0</ele><time>2026-04-04T07:58:52.144Z</time></trkpt><trkpt lat="46.1087991" lon="12.0983818"><ele>311.8</ele><time>2026-04-04T07:58:56.144Z</time></trkpt><trkpt lat="46.1088683" lon="12.0984321"><ele>311.6</ele><time>2026-04-04T07:58:59.145Z</time></trkpt><trkpt lat="46.1089506" lon="12.0984565"><ele>311.40000000000003</ele><time>2026-04-04T07:59:08.143Z</time></trkpt><trkpt lat="46.1090142" lon="12.0985096"><ele>311.2</ele><time>2026-04-04T07:59:10.144Z</time></trkpt><trkpt lat="46.1090908" lon="12.0986662"><ele>311.0</ele><time>2026-04-04T07:59:12.143Z</time></trkpt><trkpt lat="46.1091203" lon="12.0987976"><ele>311.6</ele><time>2026-04-04T07:59:13.144Z</time></trkpt><trkpt lat="46.1091626" lon="12.0989218"><ele>312.20000000000005</ele><time>2026-04-04T07:59:14.143Z</time></trkpt><trkpt lat="46.109202" lon="12.099049"><ele>312.79999999999995</ele><time>2026-04-04T07:59:15.144Z</time></trkpt><trkpt lat="46.1092342" lon="12.0991605"><ele>313.4</ele><time>2026-04-04T07:59:16.143Z</time></trkpt><trkpt lat="46.1092632" lon="12.0992497"><ele>314.0</ele><time>2026-04-04T07:59:17.144Z</time></trkpt><trkpt lat="46.109316" lon="12.0994222"><ele>314.2</ele><time>2026-04-04T07:59:19.143Z</time></trkpt><trkpt lat="46.1093521" lon="12.0995342"><ele>314.4</ele><time>2026-04-04T07:59:20.145Z</time></trkpt><trkpt lat="46.1093911" lon="12.0996568"><ele>314.6</ele><time>2026-04-04T07:59:21.144Z</time></trkpt><trkpt lat="46.1094317" lon="12.0997938"><ele>314.8</ele><time>2026-04-04T07:59:22.143Z</time></trkpt><trkpt lat="46.1094784" lon="12.0999406"><ele>315.0</ele><time>2026-04-04T07:59:23.143Z</time></trkpt><trkpt lat="46.1095233" lon="12.1000822"><ele>315.0</ele><time>2026-04-04T07:59:24.143Z</time></trkpt><trkpt lat="46.1095648" lon="12.1002104"><ele>315.0</ele><time>2026-04-04T07:59:25.143Z</time></trkpt><trkpt lat="46.1096071" lon="12.1003443"><ele>315.0</ele><time>2026-04-04T07:59:26.143Z</time></trkpt><trkpt lat="46.1096513" lon="12.1004875"><ele>315.0</ele><time>2026-04-04T07:59:27.144Z</time></trkpt><trkpt lat="46.1096985" lon="12.1006322"><ele>315.0</ele><time>2026-04-04T07:59:28.144Z</time></trkpt><trkpt lat="46.109742" lon="12.1007758"><ele>314.6</ele><time>2026-04-04T07:59:29.144Z</time></trkpt><trkpt lat="46.109781" lon="12.1009141"><ele>314.2</ele><time>2026-04-04T07:59:30.143Z</time></trkpt><trkpt lat="46.1098145" lon="12.1010488"><ele>313.8</ele><time>2026-04-04T07:59:31.143Z</time></trkpt><trkpt lat="46.1098439" lon="12.1011873"><ele>313.4</ele><time>2026-04-04T07:59:32.143Z</time></trkpt><trkpt lat="46.1098722" lon="12.1013333"><ele>313.0</ele><time>2026-04-04T07:59:33.143Z</time></trkpt><trkpt lat="46.1099016" lon="12.1014843"><ele>313.25</ele><time>2026-04-04T07:59:34.145Z</time></trkpt><trkpt lat="46.1099322" lon="12.1016444"><ele>313.5</ele><time>2026-04-04T07:59:35.144Z</time></trkpt><trkpt lat="46.1099651" lon="12.1018117"><ele>313.75</ele><time>2026-04-04T07:59:36.143Z</time></trkpt><trkpt lat="46.109997" lon="12.1019841"><ele>314.0</ele><time>2026-04-04T07:59:37.145Z</time></trkpt><trkpt lat="46.1100311" lon="12.1021527"><ele>314.0</ele><time>2026-04-04T07:59:38.143Z</time></trkpt><trkpt lat="46.1100638" lon="12.1023198"><ele>314.0</ele><time>2026-04-04T07:59:39.143Z</time></trkpt><trkpt lat="46.1100993" lon="12.1024875"><ele>314.0</ele><time>2026-04-04T07:59:40.144Z</time></trkpt><trkpt lat="46.1101333" lon="12.1026551"><ele>314.0</ele><time>2026-04-04T07:59:41.143Z</time></trkpt><trkpt lat="46.1101619" lon="12.1028218"><ele>314.0</ele><time>2026-04-04T07:59:42.143Z</time></trkpt><trkpt lat="46.1101931" lon="12.1029882"><ele>314.0</ele><time>2026-04-04T07:59:43.143Z</time></trkpt><trkpt lat="46.1102257" lon="12.1031476"><ele>314.0</ele><time>2026-04-04T07:59:44.143Z</time></trkpt><trkpt lat="46.110255" lon="12.1033022"><ele>314.0</ele><time>2026-04-04T07:59:45.143Z</time></trkpt><trkpt lat="46.1102835" lon="12.1034664"><ele>313.5</ele><time>2026-04-04T07:59:46.144Z</time></trkpt><trkpt lat="46.1103146" lon="12.1036358"><ele>313.0</ele><time>2026-04-04T07:59:47.144Z</time></trkpt><trkpt lat="46.1103506" lon="12.1038159"><ele>312.5</ele><time>2026-04-04T07:59:48.144Z</time></trkpt><trkpt lat="46.110388" lon="12.1040059"><ele>312.0</ele><time>2026-04-04T07:59:49.143Z</time></trkpt><trkpt lat="46.1104254" lon="12.1042019"><ele>312.0</ele><time>2026-04-04T07:59:50.144Z</time></trkpt><trkpt lat="46.110461" lon="12.1043979"><ele>312.0</ele><time>2026-04-04T07:59:51.143Z</time></trkpt><trkpt lat="46.110499" lon="12.1046032"><ele>312.0</ele><time>2026-04-04T07:59:52.145Z</time></trkpt><trkpt lat="46.1105394" lon="12.1048146"><ele>312.0</ele><time>2026-04-04T07:59:53.143Z</time></trkpt><trkpt lat="46.1105794" lon="12.1050251"><ele>312.0</ele><time>2026-04-04T07:59:54.143Z</time></trkpt><trkpt lat="46.1106187" lon="12.1052354"><ele>312.0</ele><time>2026-04-04T07:59:55.145Z</time></trkpt><trkpt lat="46.1106591" lon="12.1054374"><ele>312.0</ele><time>2026-04-04T07:59:56.143Z</time></trkpt><trkpt lat="46.1106956" lon="12.1056337"><ele>312.0</ele><time>2026-04-04T07:59:57.144Z</time></trkpt><trkpt lat="46.1107307" lon="12.1058336"><ele>312.0</ele><time>2026-04-04T07:59:58.143Z</time></trkpt><trkpt lat="46.1107679" lon="12.1060366"><ele>312.0</ele><time>2026-04-04T07:59:59.143Z</time></trkpt><trkpt lat="46.1108057" lon="12.1062486"><ele>312.0</ele><time>2026-04-04T08:00:00.144Z</time></trkpt><trkpt lat="46.1108436" lon="12.1064671"><ele>311.3333333333333</ele><time>2026-04-04T08:00:01.143Z</time></trkpt><trkpt lat="46.1108788" lon="12.1066913"><ele>310.66666666666663</ele><time>2026-04-04T08:00:02.145Z</time></trkpt><trkpt lat="46.1109061" lon="12.1069208"><ele>310.0</ele><time>2026-04-04T08:00:03.143Z</time></trkpt><trkpt lat="46.1109265" lon="12.1071549"><ele>310.0</ele><time>2026-04-04T08:00:04.144Z</time></trkpt><trkpt lat="46.1109369" lon="12.1073913"><ele>310.0</ele><time>2026-04-04T08:00:05.144Z</time></trkpt><trkpt lat="46.1109397" lon="12.1076285"><ele>310.0</ele><time>2026-04-04T08:00:06.144Z</time></trkpt><trkpt lat="46.1109329" lon="12.107867"><ele>310.0</ele><time>2026-04-04T08:00:07.143Z</time></trkpt><trkpt lat="46.11092" lon="12.1081087"><ele>310.0</ele><time>2026-04-04T08:00:08.143Z</time></trkpt><trkpt lat="46.1109022" lon="12.1083524"><ele>310.0</ele><time>2026-04-04T08:00:09.145Z</time></trkpt><trkpt lat="46.1108843" lon="12.1085998"><ele>310.0</ele><time>2026-04-04T08:00:10.143Z</time></trkpt><trkpt lat="46.1108647" lon="12.1088494"><ele>310.0</ele><time>2026-04-04T08:00:11.144Z</time></trkpt><trkpt lat="46.1108453" lon="12.1090929"><ele>310.0</ele><time>2026-04-04T08:00:12.145Z</time></trkpt><trkpt lat="46.1108256" lon="12.1093198"><ele>309.75</ele><time>2026-04-04T08:00:13.144Z</time></trkpt><trkpt lat="46.1108087" lon="12.1095308"><ele>309.5</ele><time>2026-04-04T08:00:14.144Z</time></trkpt><trkpt lat="46.1107943" lon="12.1097376"><ele>309.25</ele><time>2026-04-04T08:00:15.143Z</time></trkpt><trkpt lat="46.1107861" lon="12.1099478"><ele>309.0</ele><time>2026-04-04T08:00:16.143Z</time></trkpt><trkpt lat="46.1107883" lon="12.1101636"><ele>309.6666666666667</ele><time>2026-04-04T08:00:17.143Z</time></trkpt><trkpt lat="46.1107955" lon="12.1103776"><ele>310.33333333333337</ele><time>2026-04-04T08:00:18.144Z</time></trkpt><trkpt lat="46.1108078" lon="12.1105929"><ele>311.0</ele><time>2026-04-04T08:00:19.143Z</time></trkpt><trkpt lat="46.1108246" lon="12.1108097"><ele>311.0</ele><time>2026-04-04T08:00:20.143Z</time></trkpt><trkpt lat="46.1108476" lon="12.1110302"><ele>311.0</ele><time>2026-04-04T08:00:21.143Z</time></trkpt><trkpt lat="46.1108736" lon="12.1112525"><ele>311.0</ele><time>2026-04-04T08:00:22.143Z</time></trkpt><trkpt lat="46.1108997" lon="12.1114748"><ele>311.0</ele><time>2026-04-04T08:00:23.143Z</time></trkpt><trkpt lat="46.1109233" lon="12.1116889"><ele>311.0</ele><time>2026-04-04T08:00:24.143Z</time></trkpt><trkpt lat="46.1109475" lon="12.1118989"><ele>311.0</ele><time>2026-04-04T08:00:25.143Z</time></trkpt><trkpt lat="46.1109723" lon="12.1121081"><ele>311.0</ele><time>2026-04-04T08:00:26.144Z</time></trkpt><trkpt lat="46.1109967" lon="12.1123134"><ele>311.0</ele><time>2026-04-04T08:00:27.143Z</time></trkpt><trkpt lat="46.1110212" lon="12.1125181"><ele>311.0</ele><time>2026-04-04T08:00:28.143Z</time></trkpt><trkpt lat="46.111049" lon="12.112729"><ele>311.0</ele><time>2026-04-04T08:00:29.144Z</time></trkpt><trkpt lat="46.1110774" lon="12.1129442"><ele>311.0</ele><time>2026-04-04T08:00:30.144Z</time></trkpt><trkpt lat="46.1111055" lon="12.1131616"><ele>311.0</ele><time>2026-04-04T08:00:31.143Z</time></trkpt><trkpt lat="46.1111291" lon="12.1133769"><ele>311.0</ele><time>2026-04-04T08:00:32.143Z</time></trkpt><trkpt lat="46.111151" lon="12.1135836"><ele>311.0</ele><time>2026-04-04T08:00:33.143Z</time></trkpt><trkpt lat="46.1111731" lon="12.1137882"><ele>311.0</ele><time>2026-04-04T08:00:34.143Z</time></trkpt><trkpt lat="46.111193" lon="12.1139934"><ele>311.0</ele><time>2026-04-04T08:00:35.143Z</time></trkpt><trkpt lat="46.1112072" lon="12.1142047"><ele>311.0</ele><time>2026-04-04T08:00:36.143Z</time></trkpt><trkpt lat="46.1112198" lon="12.1144199"><ele>311.0</ele><time>2026-04-04T08:00:37.144Z</time></trkpt><trkpt lat="46.1112293" lon="12.114639"><ele>311.0</ele><time>2026-04-04T08:00:38.144Z</time></trkpt><trkpt lat="46.111235" lon="12.1148618"><ele>311.0</ele><time>2026-04-04T08:00:39.144Z</time></trkpt><trkpt lat="46.1112406" lon="12.1150867"><ele>311.0</ele><time>2026-04-04T08:00:40.144Z</time></trkpt><trkpt lat="46.1112438" lon="12.1153095"><ele>311.0</ele><time>2026-04-04T08:00:41.145Z</time></trkpt><trkpt lat="46.1112432" lon="12.1155312"><ele>311.25</ele><time>2026-04-04T08:00:42.144Z</time></trkpt><trkpt lat="46.1112422" lon="12.1157461"><ele>311.5</ele><time>2026-04-04T08:00:43.144Z</time></trkpt><trkpt lat="46.1112414" lon="12.11595"><ele>311.75</ele><time>2026-04-04T08:00:44.144Z</time></trkpt><trkpt lat="46.1112383" lon="12.116151"><ele>312.0</ele><time>2026-04-04T08:00:45.144Z</time></trkpt><trkpt lat="46.1112358" lon="12.1163579"><ele>312.6666666666667</ele><time>2026-04-04T08:00:46.146Z</time></trkpt><trkpt lat="46.1112325" lon="12.1165696"><ele>313.33333333333337</ele><time>2026-04-04T08:00:47.145Z</time></trkpt><trkpt lat="46.1112292" lon="12.1167876"><ele>314.0</ele><time>2026-04-04T08:00:48.144Z</time></trkpt><trkpt lat="46.1112256" lon="12.1170187"><ele>314.0</ele><time>2026-04-04T08:00:49.145Z</time></trkpt><trkpt lat="46.1112225" lon="12.1172748"><ele>314.0</ele><time>2026-04-04T08:00:50.145Z</time></trkpt><trkpt lat="46.1112182" lon="12.1175495"><ele>314.0</ele><time>2026-04-04T08:00:51.145Z</time></trkpt><trkpt lat="46.1112107" lon="12.1178387"><ele>313.33333333333337</ele><time>2026-04-04T08:00:52.144Z</time></trkpt><trkpt lat="46.1112056" lon="12.1181332"><ele>312.6666666666667</ele><time>2026-04-04T08:00:53.144Z</time></trkpt><trkpt lat="46.1111992" lon="12.1184339"><ele>312.0</ele><time>2026-04-04T08:00:54.145Z</time></trkpt><trkpt lat="46.1111942" lon="12.1187578"><ele>312.5</ele><time>2026-04-04T08:00:55.144Z</time></trkpt><trkpt lat="46.1111943" lon="12.1191149"><ele>313.0</ele><time>2026-04-04T08:00:56.144Z</time></trkpt><trkpt lat="46.111193" lon="12.1194958"><ele>313.0</ele><time>2026-04-04T08:00:57.145Z</time></trkpt><trkpt lat="46.1111793" lon="12.1198923"><ele>313.0</ele><time>2026-04-04T08:00:58.144Z</time></trkpt><trkpt lat="46.1111642" lon="12.1202722"><ele>313.0</ele><time>2026-04-04T08:00:59.144Z</time></trkpt><trkpt lat="46.1111519" lon="12.1206314"><ele>313.0</ele><time>2026-04-04T08:01:00.145Z</time></trkpt><trkpt lat="46.111142" lon="12.1209717"><ele>312.5</ele><time>2026-04-04T08:01:01.146Z</time></trkpt><trkpt lat="46.1111328" lon="12.1213043"><ele>312.0</ele><time>2026-04-04T08:01:02.144Z</time></trkpt><trkpt lat="46.1111228" lon="12.121631"><ele>312.0</ele><time>2026-04-04T08:01:03.144Z</time></trkpt><trkpt lat="46.1111161" lon="12.1219458"><ele>312.0</ele><time>2026-04-04T08:01:04.144Z</time></trkpt><trkpt lat="46.111107" lon="12.122248"><ele>312.0</ele><time>2026-04-04T08:01:05.144Z</time></trkpt><trkpt lat="46.1110971" lon="12.1225393"><ele>312.0</ele><time>2026-04-04T08:01:06.144Z</time></trkpt><trkpt lat="46.1110914" lon="12.122828"><ele>312.0</ele><time>2026-04-04T08:01:07.144Z</time></trkpt><trkpt lat="46.1110821" lon="12.1231149"><ele>312.0</ele><time>2026-04-04T08:01:08.144Z</time></trkpt><trkpt lat="46.1110715" lon="12.1234035"><ele>312.3333333333333</ele><time>2026-04-04T08:01:09.144Z</time></trkpt><trkpt lat="46.1110622" lon="12.1236996"><ele>312.66666666666663</ele><time>2026-04-04T08:01:10.145Z</time></trkpt><trkpt lat="46.1110571" lon="12.1239903"><ele>313.0</ele><time>2026-04-04T08:01:11.146Z</time></trkpt><trkpt lat="46.1110496" lon="12.1242781"><ele>313.0</ele><time>2026-04-04T08:01:12.145Z</time></trkpt><trkpt lat="46.1110416" lon="12.1245588"><ele>313.0</ele><time>2026-04-04T08:01:13.144Z</time></trkpt><trkpt lat="46.1110341" lon="12.1248387"><ele>313.0</ele><time>2026-04-04T08:01:14.144Z</time></trkpt><trkpt lat="46.1110303" lon="12.125128"><ele>313.66666666666663</ele><time>2026-04-04T08:01:15.144Z</time></trkpt><trkpt lat="46.111025" lon="12.1254247"><ele>314.3333333333333</ele><time>2026-04-04T08:01:16.144Z</time></trkpt><trkpt lat="46.1110195" lon="12.1257234"><ele>315.0</ele><time>2026-04-04T08:01:17.145Z</time></trkpt><trkpt lat="46.111012" lon="12.1260184"><ele>315.6666666666667</ele><time>2026-04-04T08:01:18.144Z</time></trkpt><trkpt lat="46.111006" lon="12.1263129"><ele>316.33333333333337</ele><time>2026-04-04T08:01:19.144Z</time></trkpt><trkpt lat="46.110999" lon="12.1266032"><ele>317.0</ele><time>2026-04-04T08:01:20.144Z</time></trkpt><trkpt lat="46.1109912" lon="12.1268968"><ele>320.33333333333337</ele><time>2026-04-04T08:01:21.144Z</time></trkpt><trkpt lat="46.1109835" lon="12.1271988"><ele>323.6666666666667</ele><time>2026-04-04T08:01:22.145Z</time></trkpt><trkpt lat="46.1109782" lon="12.127511"><ele>327.0</ele><time>2026-04-04T08:01:23.145Z</time></trkpt><trkpt lat="46.1109732" lon="12.1278352"><ele>331.0</ele><time>2026-04-04T08:01:24.144Z</time></trkpt><trkpt lat="46.1109639" lon="12.128166"><ele>335.0</ele><time>2026-04-04T08:01:25.144Z</time></trkpt><trkpt lat="46.1109535" lon="12.128487"><ele>337.33333333333337</ele><time>2026-04-04T08:01:26.145Z</time></trkpt><trkpt lat="46.1109461" lon="12.1287924"><ele>339.6666666666667</ele><time>2026-04-04T08:01:27.144Z</time></trkpt><trkpt lat="46.1109398" lon="12.1290807"><ele>342.0</ele><time>2026-04-04T08:01:28.145Z</time></trkpt><trkpt lat="46.1109325" lon="12.1293574"><ele>345.0</ele><time>2026-04-04T08:01:29.144Z</time></trkpt><trkpt lat="46.1109247" lon="12.1296281"><ele>348.0</ele><time>2026-04-04T08:01:30.145Z</time></trkpt><trkpt lat="46.1109189" lon="12.1298958"><ele>351.0</ele><time>2026-04-04T08:01:31.144Z</time></trkpt><trkpt lat="46.1109123" lon="12.1301657"><ele>351.3333333333333</ele><time>2026-04-04T08:01:32.144Z</time></trkpt><trkpt lat="46.110908" lon="12.130432"><ele>351.66666666666663</ele><time>2026-04-04T08:01:33.144Z</time></trkpt><trkpt lat="46.1109033" lon="12.13069"><ele>352.0</ele><time>2026-04-04T08:01:34.146Z</time></trkpt><trkpt lat="46.1108962" lon="12.1309461"><ele>352.0</ele><time>2026-04-04T08:01:35.145Z</time></trkpt><trkpt lat="46.1108907" lon="12.1311975"><ele>352.0</ele><time>2026-04-04T08:01:36.146Z</time></trkpt><trkpt lat="46.1108847" lon="12.1314538"><ele>352.0</ele><time>2026-04-04T08:01:37.144Z</time></trkpt><trkpt lat="46.110878" lon="12.131714"><ele>352.0</ele><time>2026-04-04T08:01:38.144Z</time></trkpt><trkpt lat="46.1108709" lon="12.131976"><ele>352.0</ele><time>2026-04-04T08:01:39.145Z</time></trkpt><trkpt lat="46.1108645" lon="12.1322423"><ele>352.0</ele><time>2026-04-04T08:01:40.145Z</time></trkpt><trkpt lat="46.1108584" lon="12.1325169"><ele>354.3333333333333</ele><time>2026-04-04T08:01:41.144Z</time></trkpt><trkpt lat="46.1108528" lon="12.1327958"><ele>356.6666666666667</ele><time>2026-04-04T08:01:42.144Z</time></trkpt><trkpt lat="46.1108463" lon="12.1330727"><ele>359.0</ele><time>2026-04-04T08:01:43.144Z</time></trkpt><trkpt lat="46.1108401" lon="12.1333484"><ele>360.33333333333337</ele><time>2026-04-04T08:01:44.145Z</time></trkpt><trkpt lat="46.1108339" lon="12.1336368"><ele>361.6666666666667</ele><time>2026-04-04T08:01:45.144Z</time></trkpt><trkpt lat="46.110829" lon="12.1339379"><ele>363.0</ele><time>2026-04-04T08:01:46.145Z</time></trkpt><trkpt lat="46.1108233" lon="12.1342522"><ele>364.0</ele><time>2026-04-04T08:01:47.145Z</time></trkpt><trkpt lat="46.1108175" lon="12.1345623"><ele>365.0</ele><time>2026-04-04T08:01:48.144Z</time></trkpt><trkpt lat="46.110811" lon="12.1348714"><ele>366.0</ele><time>2026-04-04T08:01:49.144Z</time></trkpt><trkpt lat="46.1108057" lon="12.1351808"><ele>367.3333333333333</ele><time>2026-04-04T08:01:50.144Z</time></trkpt><trkpt lat="46.1107987" lon="12.1354869"><ele>368.66666666666663</ele><time>2026-04-04T08:01:51.144Z</time></trkpt><trkpt lat="46.1107904" lon="12.1357828"><ele>370.0</ele><time>2026-04-04T08:01:52.145Z</time></trkpt><trkpt lat="46.1107873" lon="12.1360585"><ele>371.3333333333333</ele><time>2026-04-04T08:01:53.144Z</time></trkpt><trkpt lat="46.1107802" lon="12.1363144"><ele>372.6666666666667</ele><time>2026-04-04T08:01:54.145Z</time></trkpt><trkpt lat="46.1107745" lon="12.1365617"><ele>374.0</ele><time>2026-04-04T08:01:55.145Z</time></trkpt><trkpt lat="46.1107694" lon="12.1368072"><ele>374.0</ele><time>2026-04-04T08:01:56.145Z</time></trkpt><trkpt lat="46.1107618" lon="12.1370497"><ele>374.0</ele><time>2026-04-04T08:01:57.145Z</time></trkpt><trkpt lat="46.1107509" lon="12.1372905"><ele>374.0</ele><time>2026-04-04T08:01:58.146Z</time></trkpt><trkpt lat="46.1107421" lon="12.1375282"><ele>375.6666666666667</ele><time>2026-04-04T08:01:59.145Z</time></trkpt><trkpt lat="46.1107345" lon="12.1377672"><ele>377.3333333333333</ele><time>2026-04-04T08:02:00.145Z</time></trkpt><trkpt lat="46.1107269" lon="12.1380159"><ele>379.0</ele><time>2026-04-04T08:02:01.145Z</time></trkpt><trkpt lat="46.1107322" lon="12.1382875"><ele>379.0</ele><time>2026-04-04T08:02:02.145Z</time></trkpt><trkpt lat="46.1107379" lon="12.1385809"><ele>379.0</ele><time>2026-04-04T08:02:03.145Z</time></trkpt><trkpt lat="46.1107328" lon="12.1388943"><ele>379.0</ele><time>2026-04-04T08:02:04.144Z</time></trkpt><trkpt lat="46.1107174" lon="12.1391917"><ele>379.66666666666663</ele><time>2026-04-04T08:02:05.144Z</time></trkpt><trkpt lat="46.1107041" lon="12.1394757"><ele>380.3333333333333</ele><time>2026-04-04T08:02:06.145Z</time></trkpt><trkpt lat="46.1106983" lon="12.1397312"><ele>381.0</ele><time>2026-04-04T08:02:07.144Z</time></trkpt><trkpt lat="46.110692" lon="12.1399547"><ele>381.25</ele><time>2026-04-04T08:02:08.144Z</time></trkpt><trkpt lat="46.1106859" lon="12.1401622"><ele>381.5</ele><time>2026-04-04T08:02:09.144Z</time></trkpt><trkpt lat="46.1106807" lon="12.1403727"><ele>381.75</ele><time>2026-04-04T08:02:10.144Z</time></trkpt><trkpt lat="46.1106762" lon="12.140584"><ele>382.0</ele><time>2026-04-04T08:02:11.145Z</time></trkpt><trkpt lat="46.1106767" lon="12.1407916"><ele>382.0</ele><time>2026-04-04T08:02:12.145Z</time></trkpt><trkpt lat="46.1106848" lon="12.1409875"><ele>382.0</ele><time>2026-04-04T08:02:13.144Z</time></trkpt><trkpt lat="46.1106933" lon="12.1411792"><ele>382.0</ele><time>2026-04-04T08:02:14.144Z</time></trkpt><trkpt lat="46.1107033" lon="12.1413612"><ele>382.0</ele><time>2026-04-04T08:02:15.145Z</time></trkpt><trkpt lat="46.1107082" lon="12.1415206"><ele>382.16666666666663</ele><time>2026-04-04T08:02:16.145Z</time></trkpt><trkpt lat="46.1107173" lon="12.1416652"><ele>382.3333333333333</ele><time>2026-04-04T08:02:17.144Z</time></trkpt><trkpt lat="46.1107251" lon="12.1417914"><ele>382.5</ele><time>2026-04-04T08:02:18.144Z</time></trkpt><trkpt lat="46.1107357" lon="12.1419039"><ele>382.6666666666667</ele><time>2026-04-04T08:02:19.144Z</time></trkpt><trkpt lat="46.110746" lon="12.1420039"><ele>382.83333333333337</ele><time>2026-04-04T08:02:20.145Z</time></trkpt><trkpt lat="46.1107547" lon="12.1420967"><ele>383.0</ele><time>2026-04-04T08:02:21.144Z</time></trkpt><trkpt lat="46.1107669" lon="12.1421961"><ele>383.1666666666667</ele><time>2026-04-04T08:02:22.144Z</time></trkpt><trkpt lat="46.1107821" lon="12.1423101"><ele>383.33333333333337</ele><time>2026-04-04T08:02:23.144Z</time></trkpt><trkpt lat="46.1107947" lon="12.1424235"><ele>383.5</ele><time>2026-04-04T08:02:24.144Z</time></trkpt><trkpt lat="46.110809" lon="12.1425437"><ele>383.6666666666667</ele><time>2026-04-04T08:02:25.145Z</time></trkpt><trkpt lat="46.1108249" lon="12.1426692"><ele>383.8333333333333</ele><time>2026-04-04T08:02:26.144Z</time></trkpt><trkpt lat="46.1108436" lon="12.1428111"><ele>384.0</ele><time>2026-04-04T08:02:27.144Z</time></trkpt><trkpt lat="46.1108654" lon="12.1429599"><ele>384.75</ele><time>2026-04-04T08:02:28.144Z</time></trkpt><trkpt lat="46.1108896" lon="12.1431198"><ele>385.5</ele><time>2026-04-04T08:02:29.145Z</time></trkpt><trkpt lat="46.1109147" lon="12.1432866"><ele>386.25</ele><time>2026-04-04T08:02:30.144Z</time></trkpt><trkpt lat="46.1109449" lon="12.1434634"><ele>387.0</ele><time>2026-04-04T08:02:31.145Z</time></trkpt><trkpt lat="46.1109827" lon="12.1436647"><ele>388.25</ele><time>2026-04-04T08:02:32.145Z</time></trkpt><trkpt lat="46.1110244" lon="12.1438774"><ele>389.5</ele><time>2026-04-04T08:02:33.144Z</time></trkpt><trkpt lat="46.1110655" lon="12.144089"><ele>390.75</ele><time>2026-04-04T08:02:34.146Z</time></trkpt><trkpt lat="46.1110981" lon="12.1442829"><ele>392.0</ele><time>2026-04-04T08:02:35.144Z</time></trkpt><trkpt lat="46.111135" lon="12.1444724"><ele>393.25</ele><time>2026-04-04T08:02:36.145Z</time></trkpt><trkpt lat="46.1111752" lon="12.1446646"><ele>394.5</ele><time>2026-04-04T08:02:37.144Z</time></trkpt><trkpt lat="46.1112115" lon="12.1448478"><ele>395.75</ele><time>2026-04-04T08:02:38.145Z</time></trkpt><trkpt lat="46.1112409" lon="12.1450149"><ele>397.0</ele><time>2026-04-04T08:02:39.144Z</time></trkpt><trkpt lat="46.1112718" lon="12.145175"><ele>397.6</ele><time>2026-04-04T08:02:40.145Z</time></trkpt><trkpt lat="46.111299" lon="12.1453253"><ele>398.20000000000005</ele><time>2026-04-04T08:02:41.144Z</time></trkpt><trkpt lat="46.1113257" lon="12.1454646"><ele>398.8</ele><time>2026-04-04T08:02:42.145Z</time></trkpt><trkpt lat="46.1113512" lon="12.145591"><ele>399.4</ele><time>2026-04-04T08:02:43.144Z</time></trkpt><trkpt lat="46.1113737" lon="12.1457195"><ele>400.0</ele><time>2026-04-04T08:02:44.144Z</time></trkpt><trkpt lat="46.1114017" lon="12.1458772"><ele>401.0</ele><time>2026-04-04T08:02:45.144Z</time></trkpt><trkpt lat="46.1114394" lon="12.1460727"><ele>402.0</ele><time>2026-04-04T08:02:46.144Z</time></trkpt><trkpt lat="46.1114909" lon="12.1463121"><ele>403.0</ele><time>2026-04-04T08:02:47.144Z</time></trkpt><trkpt lat="46.1115508" lon="12.1465991"><ele>401.5</ele><time>2026-04-04T08:02:48.145Z</time></trkpt><trkpt lat="46.1116155" lon="12.1469267"><ele>400.0</ele><time>2026-04-04T08:02:49.144Z</time></trkpt><trkpt lat="46.1116907" lon="12.147287"><ele>401.0</ele><time>2026-04-04T08:02:50.145Z</time></trkpt><trkpt lat="46.1117675" lon="12.1476764"><ele>402.0</ele><time>2026-04-04T08:02:51.144Z</time></trkpt><trkpt lat="46.1118492" lon="12.1480821"><ele>403.0</ele><time>2026-04-04T08:02:52.144Z</time></trkpt><trkpt lat="46.1119278" lon="12.1484674"><ele>404.0</ele><time>2026-04-04T08:02:53.145Z</time></trkpt><trkpt lat="46.1119968" lon="12.1488175"><ele>402.5</ele><time>2026-04-04T08:02:54.146Z</time></trkpt><trkpt lat="46.1120626" lon="12.1491515"><ele>401.0</ele><time>2026-04-04T08:02:55.145Z</time></trkpt><trkpt lat="46.1121255" lon="12.1494726"><ele>401.0</ele><time>2026-04-04T08:02:56.146Z</time></trkpt><trkpt lat="46.112188" lon="12.1497809"><ele>401.0</ele><time>2026-04-04T08:02:57.145Z</time></trkpt><trkpt lat="46.1122447" lon="12.1500748"><ele>401.0</ele><time>2026-04-04T08:02:58.145Z</time></trkpt><trkpt lat="46.1122996" lon="12.1503579"><ele>398.3333333333333</ele><time>2026-04-04T08:02:59.144Z</time></trkpt><trkpt lat="46.1123557" lon="12.1506284"><ele>395.66666666666663</ele><time>2026-04-04T08:03:00.145Z</time></trkpt><trkpt lat="46.1124157" lon="12.150898"><ele>393.0</ele><time>2026-04-04T08:03:01.145Z</time></trkpt><trkpt lat="46.1124825" lon="12.1511675"><ele>393.0</ele><time>2026-04-04T08:03:02.144Z</time></trkpt><trkpt lat="46.1125587" lon="12.1514345"><ele>393.0</ele><time>2026-04-04T08:03:03.145Z</time></trkpt><trkpt lat="46.1126405" lon="12.1516982"><ele>393.0</ele><time>2026-04-04T08:03:04.144Z</time></trkpt><trkpt lat="46.112725" lon="12.1519543"><ele>392.33333333333337</ele><time>2026-04-04T08:03:05.144Z</time></trkpt><trkpt lat="46.1128131" lon="12.152195"><ele>391.6666666666667</ele><time>2026-04-04T08:03:06.146Z</time></trkpt><trkpt lat="46.1129053" lon="12.1524293"><ele>391.0</ele><time>2026-04-04T08:03:07.145Z</time></trkpt><trkpt lat="46.1130026" lon="12.152662"><ele>389.6666666666667</ele><time>2026-04-04T08:03:08.144Z</time></trkpt><trkpt lat="46.1131014" lon="12.1529012"><ele>388.33333333333337</ele><time>2026-04-04T08:03:09.144Z</time></trkpt><trkpt lat="46.113202" lon="12.15314"><ele>387.0</ele><time>2026-04-04T08:03:10.145Z</time></trkpt><trkpt lat="46.1133024" lon="12.1533845"><ele>386.33333333333337</ele><time>2026-04-04T08:03:11.144Z</time></trkpt><trkpt lat="46.1134034" lon="12.1536309"><ele>385.6666666666667</ele><time>2026-04-04T08:03:12.144Z</time></trkpt><trkpt lat="46.1135065" lon="12.15388"><ele>385.0</ele><time>2026-04-04T08:03:13.145Z</time></trkpt><trkpt lat="46.1136125" lon="12.1541278"><ele>384.6666666666667</ele><time>2026-04-04T08:03:14.145Z</time></trkpt><trkpt lat="46.1137218" lon="12.1543748"><ele>384.33333333333337</ele><time>2026-04-04T08:03:15.144Z</time></trkpt><trkpt lat="46.1138315" lon="12.1546225"><ele>384.0</ele><time>2026-04-04T08:03:16.146Z</time></trkpt><trkpt lat="46.1139485" lon="12.154862"><ele>385.33333333333337</ele><time>2026-04-04T08:03:17.144Z</time></trkpt><trkpt lat="46.1140784" lon="12.1550905"><ele>386.6666666666667</ele><time>2026-04-04T08:03:18.144Z</time></trkpt><trkpt lat="46.1142162" lon="12.155317"><ele>388.0</ele><time>2026-04-04T08:03:19.144Z</time></trkpt><trkpt lat="46.1143574" lon="12.1555451"><ele>387.33333333333337</ele><time>2026-04-04T08:03:20.145Z</time></trkpt><trkpt lat="46.1144957" lon="12.1557744"><ele>386.66666666666663</ele><time>2026-04-04T08:03:21.144Z</time></trkpt><trkpt lat="46.1146358" lon="12.1560061"><ele>386.0</ele><time>2026-04-04T08:03:22.144Z</time></trkpt><trkpt lat="46.1147759" lon="12.1562319"><ele>386.0</ele><time>2026-04-04T08:03:23.144Z</time></trkpt><trkpt lat="46.1149101" lon="12.1564479"><ele>386.0</ele><time>2026-04-04T08:03:24.144Z</time></trkpt><trkpt lat="46.1150398" lon="12.1566587"><ele>386.0</ele><time>2026-04-04T08:03:25.145Z</time></trkpt><trkpt lat="46.1151699" lon="12.1568703"><ele>386.0</ele><time>2026-04-04T08:03:26.144Z</time></trkpt><trkpt lat="46.1153029" lon="12.1570829"><ele>386.0</ele><time>2026-04-04T08:03:27.144Z</time></trkpt><trkpt lat="46.1154332" lon="12.1572955"><ele>386.0</ele><time>2026-04-04T08:03:28.144Z</time></trkpt><trkpt lat="46.115563" lon="12.157513"><ele>386.0</ele><time>2026-04-04T08:03:29.145Z</time></trkpt><trkpt lat="46.1156939" lon="12.1577316"><ele>386.0</ele><time>2026-04-04T08:03:30.144Z</time></trkpt><trkpt lat="46.1158289" lon="12.1579478"><ele>386.0</ele><time>2026-04-04T08:03:31.146Z</time></trkpt><trkpt lat="46.1159601" lon="12.1581692"><ele>386.66666666666663</ele><time>2026-04-04T08:03:32.144Z</time></trkpt><trkpt lat="46.1160815" lon="12.1583984"><ele>387.33333333333337</ele><time>2026-04-04T08:03:33.145Z</time></trkpt><trkpt lat="46.1161906" lon="12.1586448"><ele>388.0</ele><time>2026-04-04T08:03:34.145Z</time></trkpt><trkpt lat="46.1162849" lon="12.1589042"><ele>388.6666666666667</ele><time>2026-04-04T08:03:35.146Z</time></trkpt><trkpt lat="46.1163678" lon="12.1591708"><ele>389.33333333333337</ele><time>2026-04-04T08:03:36.144Z</time></trkpt><trkpt lat="46.1164399" lon="12.1594503"><ele>390.0</ele><time>2026-04-04T08:03:37.144Z</time></trkpt><trkpt lat="46.1165097" lon="12.159737"><ele>389.0</ele><time>2026-04-04T08:03:38.144Z</time></trkpt><trkpt lat="46.1165729" lon="12.1600206"><ele>388.0</ele><time>2026-04-04T08:03:39.145Z</time></trkpt><trkpt lat="46.1166358" lon="12.1602999"><ele>387.0</ele><time>2026-04-04T08:03:40.144Z</time></trkpt><trkpt lat="46.1166979" lon="12.160579"><ele>387.66666666666663</ele><time>2026-04-04T08:03:41.145Z</time></trkpt><trkpt lat="46.11676" lon="12.1608585"><ele>388.3333333333333</ele><time>2026-04-04T08:03:42.144Z</time></trkpt><trkpt lat="46.1168111" lon="12.1611405"><ele>389.0</ele><time>2026-04-04T08:03:43.144Z</time></trkpt><trkpt lat="46.1168535" lon="12.1614346"><ele>389.0</ele><time>2026-04-04T08:03:44.144Z</time></trkpt><trkpt lat="46.1168855" lon="12.1617481"><ele>389.0</ele><time>2026-04-04T08:03:45.145Z</time></trkpt><trkpt lat="46.1169092" lon="12.1620744"><ele>389.0</ele><time>2026-04-04T08:03:46.144Z</time></trkpt><trkpt lat="46.1169292" lon="12.1624085"><ele>389.5</ele><time>2026-04-04T08:03:47.144Z</time></trkpt><trkpt lat="46.1169511" lon="12.1627517"><ele>390.0</ele><time>2026-04-04T08:03:48.145Z</time></trkpt><trkpt lat="46.1169785" lon="12.1630975"><ele>390.5</ele><time>2026-04-04T08:03:49.145Z</time></trkpt><trkpt lat="46.1170011" lon="12.1634378"><ele>391.0</ele><time>2026-04-04T08:03:50.144Z</time></trkpt><trkpt lat="46.1170307" lon="12.1637691"><ele>392.0</ele><time>2026-04-04T08:03:51.144Z</time></trkpt><trkpt lat="46.1170718" lon="12.1641011"><ele>393.0</ele><time>2026-04-04T08:03:52.146Z</time></trkpt><trkpt lat="46.1171241" lon="12.1644423"><ele>393.0</ele><time>2026-04-04T08:03:53.145Z</time></trkpt><trkpt lat="46.1171807" lon="12.1647934"><ele>393.0</ele><time>2026-04-04T08:03:54.144Z</time></trkpt><trkpt lat="46.1172404" lon="12.1651378"><ele>394.5</ele><time>2026-04-04T08:03:55.145Z</time></trkpt><trkpt lat="46.1172984" lon="12.1654654"><ele>396.0</ele><time>2026-04-04T08:03:56.145Z</time></trkpt><trkpt lat="46.1173513" lon="12.1657776"><ele>398.0</ele><time>2026-04-04T08:03:57.145Z</time></trkpt><trkpt lat="46.1174031" lon="12.1660712"><ele>400.0</ele><time>2026-04-04T08:03:58.144Z</time></trkpt><trkpt lat="46.1174575" lon="12.1663555"><ele>402.0</ele><time>2026-04-04T08:03:59.144Z</time></trkpt><trkpt lat="46.1175223" lon="12.1666337"><ele>402.0</ele><time>2026-04-04T08:04:00.144Z</time></trkpt><trkpt lat="46.1176062" lon="12.1669035"><ele>402.0</ele><time>2026-04-04T08:04:01.144Z</time></trkpt><trkpt lat="46.1177111" lon="12.1671593"><ele>402.0</ele><time>2026-04-04T08:04:02.144Z</time></trkpt><trkpt lat="46.1178264" lon="12.1674039"><ele>402.33333333333337</ele><time>2026-04-04T08:04:03.144Z</time></trkpt><trkpt lat="46.1179502" lon="12.1676448"><ele>402.6666666666667</ele><time>2026-04-04T08:04:04.144Z</time></trkpt><trkpt lat="46.1180781" lon="12.1678821"><ele>403.0</ele><time>2026-04-04T08:04:05.144Z</time></trkpt><trkpt lat="46.11821" lon="12.1681177"><ele>402.33333333333337</ele><time>2026-04-04T08:04:06.144Z</time></trkpt><trkpt lat="46.1183348" lon="12.16835"><ele>401.66666666666663</ele><time>2026-04-04T08:04:07.144Z</time></trkpt><trkpt lat="46.1184508" lon="12.1685684"><ele>401.0</ele><time>2026-04-04T08:04:08.144Z</time></trkpt><trkpt lat="46.1185579" lon="12.1687684"><ele>401.0</ele><time>2026-04-04T08:04:09.145Z</time></trkpt><trkpt lat="46.1186621" lon="12.1689584"><ele>401.0</ele><time>2026-04-04T08:04:10.144Z</time></trkpt><trkpt lat="46.1187656" lon="12.1691443"><ele>401.0</ele><time>2026-04-04T08:04:11.145Z</time></trkpt><trkpt lat="46.118873" lon="12.1693424"><ele>400.66666666666663</ele><time>2026-04-04T08:04:12.144Z</time></trkpt><trkpt lat="46.1189857" lon="12.1695481"><ele>400.33333333333337</ele><time>2026-04-04T08:04:13.145Z</time></trkpt><trkpt lat="46.1190932" lon="12.1697499"><ele>400.0</ele><time>2026-04-04T08:04:14.145Z</time></trkpt><trkpt lat="46.1191924" lon="12.1699346"><ele>400.0</ele><time>2026-04-04T08:04:15.144Z</time></trkpt><trkpt lat="46.1192866" lon="12.1701114"><ele>400.0</ele><time>2026-04-04T08:04:16.145Z</time></trkpt><trkpt lat="46.1193746" lon="12.1702803"><ele>400.0</ele><time>2026-04-04T08:04:17.144Z</time></trkpt><trkpt lat="46.1194596" lon="12.1704399"><ele>400.0</ele><time>2026-04-04T08:04:18.145Z</time></trkpt><trkpt lat="46.1195441" lon="12.1705984"><ele>400.6666666666667</ele><time>2026-04-04T08:04:19.145Z</time></trkpt><trkpt lat="46.1196339" lon="12.1707628"><ele>401.33333333333337</ele><time>2026-04-04T08:04:20.144Z</time></trkpt><trkpt lat="46.1197252" lon="12.1709347"><ele>402.0</ele><time>2026-04-04T08:04:21.144Z</time></trkpt><trkpt lat="46.1198213" lon="12.1711116"><ele>402.0</ele><time>2026-04-04T08:04:22.144Z</time></trkpt><trkpt lat="46.1199181" lon="12.1712976"><ele>402.0</ele><time>2026-04-04T08:04:23.145Z</time></trkpt><trkpt lat="46.12002" lon="12.171487"><ele>402.0</ele><time>2026-04-04T08:04:24.145Z</time></trkpt><trkpt lat="46.1201242" lon="12.1716772"><ele>402.66666666666663</ele><time>2026-04-04T08:04:25.144Z</time></trkpt><trkpt lat="46.120232" lon="12.1718687"><ele>403.3333333333333</ele><time>2026-04-04T08:04:26.144Z</time></trkpt><trkpt lat="46.1203327" lon="12.172057"><ele>404.0</ele><time>2026-04-04T08:04:27.145Z</time></trkpt><trkpt lat="46.1204237" lon="12.172229"><ele>404.5</ele><time>2026-04-04T08:04:28.144Z</time></trkpt><trkpt lat="46.1205103" lon="12.1723871"><ele>405.0</ele><time>2026-04-04T08:04:29.145Z</time></trkpt><trkpt lat="46.1205974" lon="12.1725385"><ele>405.5</ele><time>2026-04-04T08:04:30.144Z</time></trkpt><trkpt lat="46.1206906" lon="12.1726942"><ele>406.0</ele><time>2026-04-04T08:04:31.144Z</time></trkpt><trkpt lat="46.1207917" lon="12.172852"><ele>406.0</ele><time>2026-04-04T08:04:32.145Z</time></trkpt><trkpt lat="46.1208959" lon="12.1730212"><ele>406.0</ele><time>2026-04-04T08:04:33.144Z</time></trkpt><trkpt lat="46.1209986" lon="12.1731887"><ele>406.0</ele><time>2026-04-04T08:04:34.145Z</time></trkpt><trkpt lat="46.1210979" lon="12.1733451"><ele>406.0</ele><time>2026-04-04T08:04:35.144Z</time></trkpt><trkpt lat="46.1211974" lon="12.173504"><ele>406.0</ele><time>2026-04-04T08:04:36.144Z</time></trkpt><trkpt lat="46.1212926" lon="12.1736558"><ele>406.0</ele><time>2026-04-04T08:04:37.144Z</time></trkpt><trkpt lat="46.121389" lon="12.1738056"><ele>406.0</ele><time>2026-04-04T08:04:38.144Z</time></trkpt><trkpt lat="46.1214847" lon="12.1739557"><ele>406.5</ele><time>2026-04-04T08:04:39.146Z</time></trkpt><trkpt lat="46.1215788" lon="12.1741075"><ele>407.0</ele><time>2026-04-04T08:04:40.145Z</time></trkpt><trkpt lat="46.121672" lon="12.1742574"><ele>407.5</ele><time>2026-04-04T08:04:41.145Z</time></trkpt><trkpt lat="46.1217601" lon="12.1743999"><ele>408.0</ele><time>2026-04-04T08:04:42.144Z</time></trkpt><trkpt lat="46.1218475" lon="12.1745425"><ele>408.0</ele><time>2026-04-04T08:04:43.144Z</time></trkpt><trkpt lat="46.1219375" lon="12.1746832"><ele>408.0</ele><time>2026-04-04T08:04:44.144Z</time></trkpt><trkpt lat="46.1220286" lon="12.1748286"><ele>408.0</ele><time>2026-04-04T08:04:45.144Z</time></trkpt><trkpt lat="46.12212" lon="12.1749768"><ele>408.0</ele><time>2026-04-04T08:04:46.144Z</time></trkpt><trkpt lat="46.1222149" lon="12.175131"><ele>407.75</ele><time>2026-04-04T08:04:47.144Z</time></trkpt><trkpt lat="46.122312" lon="12.1752839"><ele>407.5</ele><time>2026-04-04T08:04:48.145Z</time></trkpt><trkpt lat="46.1224062" lon="12.1754325"><ele>407.25</ele><time>2026-04-04T08:04:49.145Z</time></trkpt><trkpt lat="46.1224836" lon="12.1755577"><ele>407.0</ele><time>2026-04-04T08:04:50.145Z</time></trkpt><trkpt lat="46.1225374" lon="12.1756415"><ele>407.40000000000003</ele><time>2026-04-04T08:04:51.146Z</time></trkpt><trkpt lat="46.1225809" lon="12.1757139"><ele>407.8</ele><time>2026-04-04T08:04:52.144Z</time></trkpt><trkpt lat="46.1226231" lon="12.1757826"><ele>408.2</ele><time>2026-04-04T08:04:53.144Z</time></trkpt><trkpt lat="46.122705" lon="12.1759014"><ele>408.6</ele><time>2026-04-04T08:04:55.145Z</time></trkpt><trkpt lat="46.1227917" lon="12.1760017"><ele>409.0</ele><time>2026-04-04T08:04:57.145Z</time></trkpt><trkpt lat="46.1228904" lon="12.1761054"><ele>409.00000000000006</ele><time>2026-04-04T08:04:59.144Z</time></trkpt><trkpt lat="46.1229964" lon="12.1762005"><ele>409.0</ele><time>2026-04-04T08:05:01.144Z</time></trkpt><trkpt lat="46.1230597" lon="12.1762604"><ele>409.0</ele><time>2026-04-04T08:05:02.145Z</time></trkpt><trkpt lat="46.1231248" lon="12.176323"><ele>409.0</ele><time>2026-04-04T08:05:03.144Z</time></trkpt><trkpt lat="46.1231886" lon="12.1763807"><ele>409.00000000000006</ele><time>2026-04-04T08:05:04.145Z</time></trkpt><trkpt lat="46.1232482" lon="12.1764293"><ele>409.0</ele><time>2026-04-04T08:05:05.144Z</time></trkpt><trkpt lat="46.1233506" lon="12.1765154"><ele>408.7142857142857</ele><time>2026-04-04T08:05:07.144Z</time></trkpt><trkpt lat="46.123407" lon="12.1765599"><ele>408.42857142857144</ele><time>2026-04-04T08:05:08.144Z</time></trkpt><trkpt lat="46.1234698" lon="12.1766106"><ele>408.14285714285717</ele><time>2026-04-04T08:05:09.144Z</time></trkpt><trkpt lat="46.1235307" lon="12.1766593"><ele>407.8571428571429</ele><time>2026-04-04T08:05:10.144Z</time></trkpt><trkpt lat="46.1235917" lon="12.1767113"><ele>407.57142857142856</ele><time>2026-04-04T08:05:11.144Z</time></trkpt><trkpt lat="46.1236555" lon="12.1767601"><ele>407.28571428571433</ele><time>2026-04-04T08:05:12.144Z</time></trkpt><trkpt lat="46.1237205" lon="12.1768187"><ele>407.0</ele><time>2026-04-04T08:05:13.145Z</time></trkpt><trkpt lat="46.1237922" lon="12.1768858"><ele>407.0</ele><time>2026-04-04T08:05:14.144Z</time></trkpt><trkpt lat="46.1238651" lon="12.1769594"><ele>407.0</ele><time>2026-04-04T08:05:15.144Z</time></trkpt><trkpt lat="46.1239358" lon="12.1770457"><ele>407.0</ele><time>2026-04-04T08:05:16.145Z</time></trkpt><trkpt lat="46.1240078" lon="12.1771517"><ele>407.0</ele><time>2026-04-04T08:05:17.145Z</time></trkpt><trkpt lat="46.1240758" lon="12.1772836"><ele>407.0</ele><time>2026-04-04T08:05:18.145Z</time></trkpt><trkpt lat="46.1241422" lon="12.1774246"><ele>407.40000000000003</ele><time>2026-04-04T08:05:19.146Z</time></trkpt><trkpt lat="46.1242027" lon="12.177566"><ele>407.8</ele><time>2026-04-04T08:05:20.144Z</time></trkpt><trkpt lat="46.1242594" lon="12.1777003"><ele>408.2</ele><time>2026-04-04T08:05:21.144Z</time></trkpt><trkpt lat="46.1243142" lon="12.1778255"><ele>408.6</ele><time>2026-04-04T08:05:22.144Z</time></trkpt><trkpt lat="46.1243645" lon="12.1779401"><ele>409.0</ele><time>2026-04-04T08:05:23.144Z</time></trkpt><trkpt lat="46.1244169" lon="12.1780575"><ele>409.0</ele><time>2026-04-04T08:05:24.145Z</time></trkpt><trkpt lat="46.1244737" lon="12.1781833"><ele>409.0</ele><time>2026-04-04T08:05:25.145Z</time></trkpt><trkpt lat="46.1245319" lon="12.1783155"><ele>409.0</ele><time>2026-04-04T08:05:26.144Z</time></trkpt><trkpt lat="46.1245902" lon="12.1784476"><ele>409.0</ele><time>2026-04-04T08:05:27.144Z</time></trkpt><trkpt lat="46.1246492" lon="12.1785813"><ele>409.0</ele><time>2026-04-04T08:05:28.144Z</time></trkpt><trkpt lat="46.1247068" lon="12.1787164"><ele>409.25</ele><time>2026-04-04T08:05:29.144Z</time></trkpt><trkpt lat="46.1247696" lon="12.1788628"><ele>409.5</ele><time>2026-04-04T08:05:30.145Z</time></trkpt><trkpt lat="46.124838" lon="12.1790163"><ele>409.75</ele><time>2026-04-04T08:05:31.145Z</time></trkpt><trkpt lat="46.1249084" lon="12.1791741"><ele>410.0</ele><time>2026-04-04T08:05:32.144Z</time></trkpt><trkpt lat="46.1249753" lon="12.1793275"><ele>409.5</ele><time>2026-04-04T08:05:33.144Z</time></trkpt><trkpt lat="46.1250321" lon="12.1794639"><ele>409.0</ele><time>2026-04-04T08:05:34.145Z</time></trkpt><trkpt lat="46.1250914" lon="12.1796003"><ele>408.5</ele><time>2026-04-04T08:05:35.144Z</time></trkpt><trkpt lat="46.1251542" lon="12.1797427"><ele>408.0</ele><time>2026-04-04T08:05:36.144Z</time></trkpt><trkpt lat="46.1252204" lon="12.1798934"><ele>407.0</ele><time>2026-04-04T08:05:37.144Z</time></trkpt><trkpt lat="46.1252848" lon="12.1800438"><ele>406.0</ele><time>2026-04-04T08:05:38.144Z</time></trkpt><trkpt lat="46.1253465" lon="12.18019"><ele>405.0</ele><time>2026-04-04T08:05:39.145Z</time></trkpt><trkpt lat="46.1254104" lon="12.1803347"><ele>404.0</ele><time>2026-04-04T08:05:40.145Z</time></trkpt><trkpt lat="46.1254748" lon="12.1804793"><ele>404.0</ele><time>2026-04-04T08:05:41.146Z</time></trkpt><trkpt lat="46.125538" lon="12.1806263"><ele>404.0</ele><time>2026-04-04T08:05:42.146Z</time></trkpt><trkpt lat="46.1255997" lon="12.1807667"><ele>404.0</ele><time>2026-04-04T08:05:43.145Z</time></trkpt><trkpt lat="46.1256647" lon="12.1809062"><ele>404.0</ele><time>2026-04-04T08:05:44.145Z</time></trkpt><trkpt lat="46.1257368" lon="12.1810466"><ele>403.75</ele><time>2026-04-04T08:05:45.144Z</time></trkpt><trkpt lat="46.1258112" lon="12.1811876"><ele>403.5</ele><time>2026-04-04T08:05:46.145Z</time></trkpt><trkpt lat="46.1258847" lon="12.1813172"><ele>403.25</ele><time>2026-04-04T08:05:47.145Z</time></trkpt><trkpt lat="46.1259548" lon="12.1814426"><ele>403.0</ele><time>2026-04-04T08:05:48.144Z</time></trkpt><trkpt lat="46.1260246" lon="12.1815671"><ele>401.5</ele><time>2026-04-04T08:05:49.145Z</time></trkpt><trkpt lat="46.1260949" lon="12.1816927"><ele>400.0</ele><time>2026-04-04T08:05:50.145Z</time></trkpt><trkpt lat="46.1261693" lon="12.1818209"><ele>398.5</ele><time>2026-04-04T08:05:51.144Z</time></trkpt><trkpt lat="46.126248" lon="12.1819546"><ele>397.0</ele><time>2026-04-04T08:05:52.144Z</time></trkpt><trkpt lat="46.1263237" lon="12.1820876"><ele>397.0</ele><time>2026-04-04T08:05:53.145Z</time></trkpt><trkpt lat="46.1263949" lon="12.1822153"><ele>397.0</ele><time>2026-04-04T08:05:54.144Z</time></trkpt><trkpt lat="46.1264628" lon="12.1823383"><ele>397.0</ele><time>2026-04-04T08:05:55.144Z</time></trkpt><trkpt lat="46.1265374" lon="12.1824641"><ele>397.0</ele><time>2026-04-04T08:05:56.145Z</time></trkpt><trkpt lat="46.1266134" lon="12.1825929"><ele>396.25</ele><time>2026-04-04T08:05:57.146Z</time></trkpt><trkpt lat="46.1266889" lon="12.1827258"><ele>395.5</ele><time>2026-04-04T08:05:58.144Z</time></trkpt><trkpt lat="46.1267702" lon="12.1828585"><ele>394.75</ele><time>2026-04-04T08:05:59.144Z</time></trkpt><trkpt lat="46.1268547" lon="12.182996"><ele>394.0</ele><time>2026-04-04T08:06:00.145Z</time></trkpt><trkpt lat="46.1269411" lon="12.1831397"><ele>393.25</ele><time>2026-04-04T08:06:01.144Z</time></trkpt><trkpt lat="46.1270214" lon="12.1832776"><ele>392.5</ele><time>2026-04-04T08:06:02.145Z</time></trkpt><trkpt lat="46.1270974" lon="12.1834072"><ele>391.75</ele><time>2026-04-04T08:06:03.144Z</time></trkpt><trkpt lat="46.1271703" lon="12.1835369"><ele>391.0</ele><time>2026-04-04T08:06:04.144Z</time></trkpt><trkpt lat="46.1272446" lon="12.1836618"><ele>391.0</ele><time>2026-04-04T08:06:05.144Z</time></trkpt><trkpt lat="46.1273143" lon="12.1837774"><ele>391.0</ele><time>2026-04-04T08:06:06.145Z</time></trkpt><trkpt lat="46.1273802" lon="12.18389"><ele>391.0</ele><time>2026-04-04T08:06:07.145Z</time></trkpt><trkpt lat="46.1274465" lon="12.1839999"><ele>391.0</ele><time>2026-04-04T08:06:08.145Z</time></trkpt><trkpt lat="46.1275139" lon="12.1841117"><ele>391.0</ele><time>2026-04-04T08:06:09.145Z</time></trkpt><trkpt lat="46.1275787" lon="12.1842266"><ele>391.4</ele><time>2026-04-04T08:06:10.145Z</time></trkpt><trkpt lat="46.1276437" lon="12.1843459"><ele>391.8</ele><time>2026-04-04T08:06:11.145Z</time></trkpt><trkpt lat="46.1277089" lon="12.1844601"><ele>392.2</ele><time>2026-04-04T08:06:12.144Z</time></trkpt><trkpt lat="46.127773" lon="12.184573"><ele>392.59999999999997</ele><time>2026-04-04T08:06:13.144Z</time></trkpt><trkpt lat="46.1278378" lon="12.1846825"><ele>393.0</ele><time>2026-04-04T08:06:14.145Z</time></trkpt><trkpt lat="46.1279016" lon="12.1847926"><ele>393.0</ele><time>2026-04-04T08:06:15.145Z</time></trkpt><trkpt lat="46.1279666" lon="12.1849034"><ele>393.0</ele><time>2026-04-04T08:06:16.144Z</time></trkpt><trkpt lat="46.1280358" lon="12.1850218"><ele>393.0</ele><time>2026-04-04T08:06:17.144Z</time></trkpt><trkpt lat="46.1281058" lon="12.1851427"><ele>393.0</ele><time>2026-04-04T08:06:18.145Z</time></trkpt><trkpt lat="46.1281718" lon="12.1852577"><ele>393.0</ele><time>2026-04-04T08:06:19.146Z</time></trkpt><trkpt lat="46.1282339" lon="12.1853721"><ele>393.0</ele><time>2026-04-04T08:06:20.144Z</time></trkpt><trkpt lat="46.1282958" lon="12.1854796"><ele>393.0</ele><time>2026-04-04T08:06:21.145Z</time></trkpt><trkpt lat="46.1283524" lon="12.1855761"><ele>393.0</ele><time>2026-04-04T08:06:22.144Z</time></trkpt><trkpt lat="46.1284055" lon="12.1856611"><ele>393.0</ele><time>2026-04-04T08:06:23.144Z</time></trkpt><trkpt lat="46.1284575" lon="12.1857445"><ele>393.0</ele><time>2026-04-04T08:06:24.145Z</time></trkpt><trkpt lat="46.1285041" lon="12.1858371"><ele>393.0</ele><time>2026-04-04T08:06:25.144Z</time></trkpt><trkpt lat="46.128545" lon="12.1859568"><ele>392.5</ele><time>2026-04-04T08:06:26.144Z</time></trkpt><trkpt lat="46.1285902" lon="12.1861029"><ele>392.0</ele><time>2026-04-04T08:06:27.144Z</time></trkpt><trkpt lat="46.1286432" lon="12.1862789"><ele>391.5</ele><time>2026-04-04T08:06:28.146Z</time></trkpt><trkpt lat="46.1287164" lon="12.1864785"><ele>391.0</ele><time>2026-04-04T08:06:29.145Z</time></trkpt><trkpt lat="46.128824" lon="12.1866683"><ele>390.33333333333337</ele><time>2026-04-04T08:06:30.145Z</time></trkpt><trkpt lat="46.1289438" lon="12.1868597"><ele>389.66666666666663</ele><time>2026-04-04T08:06:31.146Z</time></trkpt><trkpt lat="46.1290535" lon="12.1870651"><ele>389.0</ele><time>2026-04-04T08:06:32.145Z</time></trkpt><trkpt lat="46.1291511" lon="12.1872733"><ele>389.66666666666663</ele><time>2026-04-04T08:06:33.144Z</time></trkpt><trkpt lat="46.1292394" lon="12.1874727"><ele>390.33333333333337</ele><time>2026-04-04T08:06:34.144Z</time></trkpt><trkpt lat="46.129324" lon="12.1876689"><ele>391.0</ele><time>2026-04-04T08:06:35.144Z</time></trkpt><trkpt lat="46.1294096" lon="12.1878693"><ele>391.0</ele><time>2026-04-04T08:06:36.144Z</time></trkpt><trkpt lat="46.1294947" lon="12.18807"><ele>391.0</ele><time>2026-04-04T08:06:37.144Z</time></trkpt><trkpt lat="46.1295808" lon="12.1882729"><ele>391.0</ele><time>2026-04-04T08:06:38.144Z</time></trkpt><trkpt lat="46.1296713" lon="12.1884593"><ele>391.33333333333337</ele><time>2026-04-04T08:06:39.145Z</time></trkpt><trkpt lat="46.1297689" lon="12.1886352"><ele>391.66666666666663</ele><time>2026-04-04T08:06:40.144Z</time></trkpt><trkpt lat="46.1298723" lon="12.188798"><ele>392.0</ele><time>2026-04-04T08:06:41.145Z</time></trkpt><trkpt lat="46.1299776" lon="12.1889477"><ele>391.75</ele><time>2026-04-04T08:06:42.144Z</time></trkpt><trkpt lat="46.130082" lon="12.1890958"><ele>391.5</ele><time>2026-04-04T08:06:43.144Z</time></trkpt><trkpt lat="46.1301788" lon="12.1892391"><ele>391.25</ele><time>2026-04-04T08:06:44.145Z</time></trkpt><trkpt lat="46.1302679" lon="12.1893853"><ele>391.0</ele><time>2026-04-04T08:06:45.145Z</time></trkpt><trkpt lat="46.1303441" lon="12.1895444"><ele>391.0</ele><time>2026-04-04T08:06:46.144Z</time></trkpt><trkpt lat="46.1304007" lon="12.1897119"><ele>391.0</ele><time>2026-04-04T08:06:47.144Z</time></trkpt><trkpt lat="46.1304402" lon="12.1898882"><ele>391.0</ele><time>2026-04-04T08:06:48.144Z</time></trkpt><trkpt lat="46.1304677" lon="12.1900757"><ele>391.0</ele><time>2026-04-04T08:06:49.145Z</time></trkpt><trkpt lat="46.1304876" lon="12.1902641"><ele>390.25</ele><time>2026-04-04T08:06:50.144Z</time></trkpt><trkpt lat="46.1305101" lon="12.1904494"><ele>389.5</ele><time>2026-04-04T08:06:51.145Z</time></trkpt><trkpt lat="46.1305463" lon="12.1906303"><ele>388.75</ele><time>2026-04-04T08:06:52.145Z</time></trkpt><trkpt lat="46.130618" lon="12.1908296"><ele>388.0</ele><time>2026-04-04T08:06:53.144Z</time></trkpt><trkpt lat="46.1307175" lon="12.1910599"><ele>388.0</ele><time>2026-04-04T08:06:54.145Z</time></trkpt><trkpt lat="46.1308298" lon="12.1913285"><ele>388.0</ele><time>2026-04-04T08:06:55.145Z</time></trkpt><trkpt lat="46.130959" lon="12.1916375"><ele>386.0</ele><time>2026-04-04T08:06:56.144Z</time></trkpt><trkpt lat="46.1311083" lon="12.1919684"><ele>384.0</ele><time>2026-04-04T08:06:57.144Z</time></trkpt><trkpt lat="46.1312508" lon="12.1923327"><ele>383.5</ele><time>2026-04-04T08:06:58.145Z</time></trkpt><trkpt lat="46.1313848" lon="12.1926864"><ele>383.0</ele><time>2026-04-04T08:06:59.144Z</time></trkpt><trkpt lat="46.1315147" lon="12.1930258"><ele>384.0</ele><time>2026-04-04T08:07:00.144Z</time></trkpt><trkpt lat="46.131634" lon="12.1933544"><ele>385.0</ele><time>2026-04-04T08:07:01.144Z</time></trkpt><trkpt lat="46.1317515" lon="12.1936632"><ele>385.0</ele><time>2026-04-04T08:07:02.146Z</time></trkpt><trkpt lat="46.1318626" lon="12.1939457"><ele>385.0</ele><time>2026-04-04T08:07:03.145Z</time></trkpt><trkpt lat="46.1319675" lon="12.194202"><ele>385.0</ele><time>2026-04-04T08:07:04.144Z</time></trkpt><trkpt lat="46.1320783" lon="12.1944474"><ele>384.6666666666667</ele><time>2026-04-04T08:07:05.145Z</time></trkpt><trkpt lat="46.1321975" lon="12.194685"><ele>384.33333333333337</ele><time>2026-04-04T08:07:06.145Z</time></trkpt><trkpt lat="46.1323239" lon="12.1949163"><ele>384.0</ele><time>2026-04-04T08:07:07.145Z</time></trkpt><trkpt lat="46.1324577" lon="12.1951439"><ele>384.0</ele><time>2026-04-04T08:07:08.145Z</time></trkpt><trkpt lat="46.132595" lon="12.1953708"><ele>384.0</ele><time>2026-04-04T08:07:09.145Z</time></trkpt><trkpt lat="46.1327319" lon="12.1955955"><ele>384.0</ele><time>2026-04-04T08:07:10.145Z</time></trkpt><trkpt lat="46.1328686" lon="12.1958145"><ele>384.33333333333337</ele><time>2026-04-04T08:07:11.144Z</time></trkpt><trkpt lat="46.1330044" lon="12.1960284"><ele>384.6666666666667</ele><time>2026-04-04T08:07:12.145Z</time></trkpt><trkpt lat="46.1331394" lon="12.1962343"><ele>385.0</ele><time>2026-04-04T08:07:13.145Z</time></trkpt><trkpt lat="46.1332752" lon="12.1964324"><ele>383.6666666666667</ele><time>2026-04-04T08:07:14.144Z</time></trkpt><trkpt lat="46.1334046" lon="12.1966207"><ele>382.33333333333337</ele><time>2026-04-04T08:07:15.144Z</time></trkpt><trkpt lat="46.1335238" lon="12.1967936"><ele>381.0</ele><time>2026-04-04T08:07:16.144Z</time></trkpt><trkpt lat="46.1336347" lon="12.1969574"><ele>381.0</ele><time>2026-04-04T08:07:17.145Z</time></trkpt><trkpt lat="46.1337424" lon="12.1971188"><ele>381.0</ele><time>2026-04-04T08:07:18.144Z</time></trkpt><trkpt lat="46.1338436" lon="12.1972726"><ele>381.0</ele><time>2026-04-04T08:07:19.144Z</time></trkpt><trkpt lat="46.133943" lon="12.1974226"><ele>381.0</ele><time>2026-04-04T08:07:20.146Z</time></trkpt><trkpt lat="46.1340408" lon="12.1975709"><ele>381.75</ele><time>2026-04-04T08:07:21.145Z</time></trkpt><trkpt lat="46.1341354" lon="12.1977166"><ele>382.5</ele><time>2026-04-04T08:07:22.144Z</time></trkpt><trkpt lat="46.1342289" lon="12.1978593"><ele>383.25</ele><time>2026-04-04T08:07:23.145Z</time></trkpt><trkpt lat="46.134319" lon="12.198005"><ele>384.0</ele><time>2026-04-04T08:07:24.146Z</time></trkpt><trkpt lat="46.134399" lon="12.1981455"><ele>383.79999999999995</ele><time>2026-04-04T08:07:25.145Z</time></trkpt><trkpt lat="46.1344651" lon="12.1982807"><ele>383.59999999999997</ele><time>2026-04-04T08:07:26.145Z</time></trkpt><trkpt lat="46.1345216" lon="12.1984041"><ele>383.4</ele><time>2026-04-04T08:07:27.144Z</time></trkpt><trkpt lat="46.1345702" lon="12.198519"><ele>383.2</ele><time>2026-04-04T08:07:28.144Z</time></trkpt><trkpt lat="46.1346048" lon="12.198616"><ele>383.0</ele><time>2026-04-04T08:07:29.144Z</time></trkpt><trkpt lat="46.1346257" lon="12.1987615"><ele>383.0</ele><time>2026-04-04T08:07:31.145Z</time></trkpt><trkpt lat="46.1345951" lon="12.1989258"><ele>383.0</ele><time>2026-04-04T08:07:33.145Z</time></trkpt><trkpt lat="46.134545" lon="12.1990283"><ele>383.0</ele><time>2026-04-04T08:07:34.145Z</time></trkpt><trkpt lat="46.1344665" lon="12.1991421"><ele>383.0</ele><time>2026-04-04T08:07:35.144Z</time></trkpt><trkpt lat="46.1343676" lon="12.1992728"><ele>383.6666666666667</ele><time>2026-04-04T08:07:36.145Z</time></trkpt><trkpt lat="46.1342523" lon="12.1994248"><ele>384.33333333333337</ele><time>2026-04-04T08:07:37.144Z</time></trkpt><trkpt lat="46.1341404" lon="12.1995701"><ele>385.0</ele><time>2026-04-04T08:07:38.144Z</time></trkpt><trkpt lat="46.1340307" lon="12.1997158"><ele>384.25</ele><time>2026-04-04T08:07:39.145Z</time></trkpt><trkpt lat="46.1339242" lon="12.1998619"><ele>383.5</ele><time>2026-04-04T08:07:40.145Z</time></trkpt><trkpt lat="46.1338183" lon="12.200005"><ele>382.75</ele><time>2026-04-04T08:07:41.145Z</time></trkpt><trkpt lat="46.1337074" lon="12.2001412"><ele>382.0</ele><time>2026-04-04T08:07:42.144Z</time></trkpt><trkpt lat="46.1335966" lon="12.2002729"><ele>382.0</ele><time>2026-04-04T08:07:43.144Z</time></trkpt><trkpt lat="46.1334847" lon="12.200399"><ele>382.0</ele><time>2026-04-04T08:07:44.144Z</time></trkpt><trkpt lat="46.1333721" lon="12.200525"><ele>382.0</ele><time>2026-04-04T08:07:45.144Z</time></trkpt><trkpt lat="46.1332553" lon="12.2006552"><ele>382.0</ele><time>2026-04-04T08:07:46.144Z</time></trkpt><trkpt lat="46.1331321" lon="12.2007872"><ele>381.0</ele><time>2026-04-04T08:07:47.144Z</time></trkpt><trkpt lat="46.1330117" lon="12.2009353"><ele>380.0</ele><time>2026-04-04T08:07:48.144Z</time></trkpt><trkpt lat="46.1328949" lon="12.2011028"><ele>379.0</ele><time>2026-04-04T08:07:49.144Z</time></trkpt><trkpt lat="46.132788" lon="12.2012918"><ele>379.0</ele><time>2026-04-04T08:07:50.144Z</time></trkpt><trkpt lat="46.1326955" lon="12.2014957"><ele>379.0</ele><time>2026-04-04T08:07:51.144Z</time></trkpt><trkpt lat="46.1326207" lon="12.2017065"><ele>379.0</ele><time>2026-04-04T08:07:52.144Z</time></trkpt><trkpt lat="46.1325593" lon="12.2019274"><ele>377.66666666666663</ele><time>2026-04-04T08:07:53.145Z</time></trkpt><trkpt lat="46.1325164" lon="12.2021534"><ele>376.3333333333333</ele><time>2026-04-04T08:07:54.144Z</time></trkpt><trkpt lat="46.1324891" lon="12.2023809"><ele>375.0</ele><time>2026-04-04T08:07:55.144Z</time></trkpt><trkpt lat="46.1324794" lon="12.2026121"><ele>372.6666666666667</ele><time>2026-04-04T08:07:56.145Z</time></trkpt><trkpt lat="46.1324855" lon="12.2028417"><ele>370.33333333333337</ele><time>2026-04-04T08:07:57.145Z</time></trkpt><trkpt lat="46.1325056" lon="12.2030606"><ele>368.0</ele><time>2026-04-04T08:07:58.145Z</time></trkpt><trkpt lat="46.1325377" lon="12.2032739"><ele>368.0</ele><time>2026-04-04T08:07:59.145Z</time></trkpt><trkpt lat="46.1325795" lon="12.2034758"><ele>368.0</ele><time>2026-04-04T08:08:00.144Z</time></trkpt><trkpt lat="46.1326347" lon="12.2036693"><ele>368.0</ele><time>2026-04-04T08:08:01.144Z</time></trkpt><trkpt lat="46.1326988" lon="12.2038507"><ele>368.0</ele><time>2026-04-04T08:08:02.144Z</time></trkpt><trkpt lat="46.1327709" lon="12.2040218"><ele>368.0</ele><time>2026-04-04T08:08:03.145Z</time></trkpt><trkpt lat="46.1328489" lon="12.2041743"><ele>368.0</ele><time>2026-04-04T08:08:04.145Z</time></trkpt><trkpt lat="46.1340256" lon="12.2059473"><ele>366.33333333333337</ele><time>2026-04-04T08:08:15.146Z</time></trkpt><trkpt lat="46.1341594" lon="12.20607"><ele>364.6666666666667</ele><time>2026-04-04T08:08:16.146Z</time></trkpt><trkpt lat="46.1343149" lon="12.206194"><ele>363.0</ele><time>2026-04-04T08:08:17.145Z</time></trkpt><trkpt lat="46.134474" lon="12.2062912"><ele>363.0</ele><time>2026-04-04T08:08:18.145Z</time></trkpt><trkpt lat="46.1346384" lon="12.2063729"><ele>363.0</ele><time>2026-04-04T08:08:19.145Z</time></trkpt><trkpt lat="46.1348128" lon="12.2064365"><ele>363.0</ele><time>2026-04-04T08:08:20.146Z</time></trkpt><trkpt lat="46.1349904" lon="12.2064792"><ele>358.0</ele><time>2026-04-04T08:08:21.145Z</time></trkpt><trkpt lat="46.1351713" lon="12.2065134"><ele>353.0</ele><time>2026-04-04T08:08:22.147Z</time></trkpt><trkpt lat="46.1353519" lon="12.2065364"><ele>348.0</ele><time>2026-04-04T08:08:23.145Z</time></trkpt><trkpt lat="46.1355244" lon="12.2065607"><ele>348.0</ele><time>2026-04-04T08:08:24.146Z</time></trkpt><trkpt lat="46.1356826" lon="12.2065835"><ele>348.0</ele><time>2026-04-04T08:08:25.146Z</time></trkpt><trkpt lat="46.1358364" lon="12.2066139"><ele>348.0</ele><time>2026-04-04T08:08:26.146Z</time></trkpt><trkpt lat="46.1359827" lon="12.2066736"><ele>350.6666666666667</ele><time>2026-04-04T08:08:27.145Z</time></trkpt><trkpt lat="46.1361236" lon="12.2067563"><ele>353.33333333333337</ele><time>2026-04-04T08:08:28.145Z</time></trkpt><trkpt lat="46.1362625" lon="12.2068631"><ele>356.0</ele><time>2026-04-04T08:08:29.145Z</time></trkpt><trkpt lat="46.1363926" lon="12.2069931"><ele>356.0</ele><time>2026-04-04T08:08:30.146Z</time></trkpt><trkpt lat="46.136512" lon="12.2071501"><ele>356.0</ele><time>2026-04-04T08:08:31.145Z</time></trkpt><trkpt lat="46.1366201" lon="12.2073326"><ele>356.0</ele><time>2026-04-04T08:08:32.146Z</time></trkpt><trkpt lat="46.1367173" lon="12.2075365"><ele>353.33333333333337</ele><time>2026-04-04T08:08:33.145Z</time></trkpt><trkpt lat="46.1368101" lon="12.2077557"><ele>350.6666666666667</ele><time>2026-04-04T08:08:34.145Z</time></trkpt><trkpt lat="46.1368982" lon="12.207976"><ele>348.0</ele><time>2026-04-04T08:08:35.145Z</time></trkpt><trkpt lat="46.1369838" lon="12.208185"><ele>346.6666666666667</ele><time>2026-04-04T08:08:36.146Z</time></trkpt><trkpt lat="46.1370656" lon="12.208388"><ele>345.33333333333337</ele><time>2026-04-04T08:08:37.145Z</time></trkpt><trkpt lat="46.1371451" lon="12.2085846"><ele>344.0</ele><time>2026-04-04T08:08:38.145Z</time></trkpt><trkpt lat="46.1372214" lon="12.2087767"><ele>344.0</ele><time>2026-04-04T08:08:39.145Z</time></trkpt><trkpt lat="46.1372971" lon="12.2089629"><ele>344.0</ele><time>2026-04-04T08:08:40.146Z</time></trkpt><trkpt lat="46.1373701" lon="12.2091427"><ele>344.0</ele><time>2026-04-04T08:08:41.145Z</time></trkpt><trkpt lat="46.1374406" lon="12.2093124"><ele>344.0</ele><time>2026-04-04T08:08:42.145Z</time></trkpt><trkpt lat="46.1375108" lon="12.2094735"><ele>344.0</ele><time>2026-04-04T08:08:43.145Z</time></trkpt><trkpt lat="46.1375742" lon="12.2096266"><ele>344.0</ele><time>2026-04-04T08:08:44.146Z</time></trkpt><trkpt lat="46.1376348" lon="12.2097763"><ele>344.0</ele><time>2026-04-04T08:08:45.145Z</time></trkpt><trkpt lat="46.1376952" lon="12.2099268"><ele>344.0</ele><time>2026-04-04T08:08:46.145Z</time></trkpt><trkpt lat="46.1377533" lon="12.2100807"><ele>343.0</ele><time>2026-04-04T08:08:47.146Z</time></trkpt><trkpt lat="46.1378103" lon="12.2102389"><ele>342.0</ele><time>2026-04-04T08:08:48.145Z</time></trkpt><trkpt lat="46.1378588" lon="12.2103909"><ele>341.0</ele><time>2026-04-04T08:08:49.146Z</time></trkpt><trkpt lat="46.1378942" lon="12.2105369"><ele>340.0</ele><time>2026-04-04T08:08:50.145Z</time></trkpt><trkpt lat="46.1379098" lon="12.2106843"><ele>339.4</ele><time>2026-04-04T08:08:51.146Z</time></trkpt><trkpt lat="46.1379061" lon="12.2108362"><ele>338.8</ele><time>2026-04-04T08:08:52.147Z</time></trkpt><trkpt lat="46.1378819" lon="12.2109814"><ele>338.20000000000005</ele><time>2026-04-04T08:08:53.145Z</time></trkpt><trkpt lat="46.1378341" lon="12.2111117"><ele>337.6</ele><time>2026-04-04T08:08:54.145Z</time></trkpt><trkpt lat="46.137764" lon="12.211235"><ele>337.0</ele><time>2026-04-04T08:08:55.146Z</time></trkpt><trkpt lat="46.1376827" lon="12.2113568"><ele>336.5</ele><time>2026-04-04T08:08:56.145Z</time></trkpt><trkpt lat="46.1376032" lon="12.2115001"><ele>336.0</ele><time>2026-04-04T08:08:57.145Z</time></trkpt><trkpt lat="46.1375266" lon="12.2116668"><ele>335.5</ele><time>2026-04-04T08:08:58.145Z</time></trkpt><trkpt lat="46.1374603" lon="12.2118654"><ele>335.0</ele><time>2026-04-04T08:08:59.146Z</time></trkpt><trkpt lat="46.1374097" lon="12.2120888"><ele>335.33333333333337</ele><time>2026-04-04T08:09:00.145Z</time></trkpt><trkpt lat="46.1373708" lon="12.2123212"><ele>335.6666666666667</ele><time>2026-04-04T08:09:01.146Z</time></trkpt><trkpt lat="46.1373391" lon="12.2125322"><ele>336.0</ele><time>2026-04-04T08:09:02.145Z</time></trkpt><trkpt lat="46.1373107" lon="12.2127286"><ele>335.0</ele><time>2026-04-04T08:09:03.146Z</time></trkpt><trkpt lat="46.1372854" lon="12.2129148"><ele>334.0</ele><time>2026-04-04T08:09:04.145Z</time></trkpt><trkpt lat="46.1372587" lon="12.2130965"><ele>333.0</ele><time>2026-04-04T08:09:05.146Z</time></trkpt><trkpt lat="46.1372255" lon="12.2132698"><ele>332.0</ele><time>2026-04-04T08:09:06.146Z</time></trkpt><trkpt lat="46.1371885" lon="12.2134357"><ele>331.75</ele><time>2026-04-04T08:09:07.145Z</time></trkpt><trkpt lat="46.1371474" lon="12.2136059"><ele>331.5</ele><time>2026-04-04T08:09:08.146Z</time></trkpt><trkpt lat="46.1370955" lon="12.2137774"><ele>331.25</ele><time>2026-04-04T08:09:09.146Z</time></trkpt><trkpt lat="46.1370332" lon="12.2139457"><ele>331.0</ele><time>2026-04-04T08:09:10.146Z</time></trkpt><trkpt lat="46.136961" lon="12.2141108"><ele>330.75</ele><time>2026-04-04T08:09:11.145Z</time></trkpt><trkpt lat="46.1368881" lon="12.2142681"><ele>330.5</ele><time>2026-04-04T08:09:12.146Z</time></trkpt><trkpt lat="46.1368225" lon="12.2144263"><ele>330.25</ele><time>2026-04-04T08:09:13.145Z</time></trkpt><trkpt lat="46.1367588" lon="12.2145837"><ele>330.0</ele><time>2026-04-04T08:09:14.145Z</time></trkpt><trkpt lat="46.1366953" lon="12.2147421"><ele>329.75</ele><time>2026-04-04T08:09:15.146Z</time></trkpt><trkpt lat="46.1366329" lon="12.2148981"><ele>329.5</ele><time>2026-04-04T08:09:16.146Z</time></trkpt><trkpt lat="46.1365717" lon="12.2150492"><ele>329.25</ele><time>2026-04-04T08:09:17.145Z</time></trkpt><trkpt lat="46.1365135" lon="12.2151972"><ele>329.0</ele><time>2026-04-04T08:09:18.145Z</time></trkpt><trkpt lat="46.1364599" lon="12.2153497"><ele>329.0</ele><time>2026-04-04T08:09:19.145Z</time></trkpt><trkpt lat="46.1364076" lon="12.2155061"><ele>329.0</ele><time>2026-04-04T08:09:20.146Z</time></trkpt><trkpt lat="46.1363572" lon="12.2156627"><ele>329.0</ele><time>2026-04-04T08:09:21.145Z</time></trkpt><trkpt lat="46.1363067" lon="12.2158189"><ele>329.0</ele><time>2026-04-04T08:09:22.145Z</time></trkpt><trkpt lat="46.1362566" lon="12.2159706"><ele>329.0</ele><time>2026-04-04T08:09:23.147Z</time></trkpt><trkpt lat="46.1362099" lon="12.2161148"><ele>329.0</ele><time>2026-04-04T08:09:24.145Z</time></trkpt><trkpt lat="46.1361663" lon="12.2162488"><ele>329.0</ele><time>2026-04-04T08:09:25.146Z</time></trkpt><trkpt lat="46.1361259" lon="12.2163726"><ele>329.0</ele><time>2026-04-04T08:09:26.145Z</time></trkpt><trkpt lat="46.1360885" lon="12.2164913"><ele>329.0</ele><time>2026-04-04T08:09:27.145Z</time></trkpt><trkpt lat="46.1360539" lon="12.2166088"><ele>329.0</ele><time>2026-04-04T08:09:28.145Z</time></trkpt><trkpt lat="46.136019" lon="12.2167229"><ele>329.0</ele><time>2026-04-04T08:09:29.146Z</time></trkpt><trkpt lat="46.1359797" lon="12.2168259"><ele>329.0</ele><time>2026-04-04T08:09:30.146Z</time></trkpt><trkpt lat="46.1359316" lon="12.2169199"><ele>329.0</ele><time>2026-04-04T08:09:31.145Z</time></trkpt><trkpt lat="46.1358772" lon="12.2170136"><ele>329.0</ele><time>2026-04-04T08:09:32.145Z</time></trkpt><trkpt lat="46.1358359" lon="12.217117"><ele>329.0</ele><time>2026-04-04T08:09:33.146Z</time></trkpt><trkpt lat="46.1358213" lon="12.2172262"><ele>330.79999999999995</ele><time>2026-04-04T08:09:34.146Z</time></trkpt><trkpt lat="46.1358358" lon="12.2173413"><ele>332.59999999999997</ele><time>2026-04-04T08:09:35.146Z</time></trkpt><trkpt lat="46.1358746" lon="12.2174537"><ele>334.4</ele><time>2026-04-04T08:09:36.145Z</time></trkpt><trkpt lat="46.135928" lon="12.2175775"><ele>336.2</ele><time>2026-04-04T08:09:37.145Z</time></trkpt><trkpt lat="46.1359739" lon="12.21773"><ele>338.0</ele><time>2026-04-04T08:09:38.145Z</time></trkpt><trkpt lat="46.1360287" lon="12.217911"><ele>338.0</ele><time>2026-04-04T08:09:39.145Z</time></trkpt><trkpt lat="46.1360782" lon="12.2180873"><ele>338.0</ele><time>2026-04-04T08:09:40.146Z</time></trkpt><trkpt lat="46.136134" lon="12.2182769"><ele>338.0</ele><time>2026-04-04T08:09:41.146Z</time></trkpt><trkpt lat="46.1361987" lon="12.218493"><ele>338.0</ele><time>2026-04-04T08:09:42.145Z</time></trkpt><trkpt lat="46.1362612" lon="12.218703"><ele>346.33333333333337</ele><time>2026-04-04T08:09:43.145Z</time></trkpt><trkpt lat="46.136332" lon="12.2189321"><ele>354.6666666666667</ele><time>2026-04-04T08:09:44.145Z</time></trkpt><trkpt lat="46.136412" lon="12.219192"><ele>363.0</ele><time>2026-04-04T08:09:45.145Z</time></trkpt><trkpt lat="46.1365587" lon="12.2196198"><ele>373.0</ele><time>2026-04-04T08:09:46.146Z</time></trkpt><trkpt lat="46.1366878" lon="12.2199058"><ele>383.0</ele><time>2026-04-04T08:09:47.145Z</time></trkpt><trkpt lat="46.1367089" lon="12.22028"><ele>383.0</ele><time>2026-04-04T08:09:48.145Z</time></trkpt><trkpt lat="46.136726" lon="12.2206257"><ele>383.0</ele><time>2026-04-04T08:09:49.145Z</time></trkpt><trkpt lat="46.1367987" lon="12.2209124"><ele>380.5</ele><time>2026-04-04T08:09:50.146Z</time></trkpt><trkpt lat="46.1369542" lon="12.2209342"><ele>378.0</ele><time>2026-04-04T08:09:51.145Z</time></trkpt><trkpt lat="46.137027" lon="12.2210529"><ele>375.5</ele><time>2026-04-04T08:09:52.146Z</time></trkpt><trkpt lat="46.1371403" lon="12.2211677"><ele>373.0</ele><time>2026-04-04T08:09:53.145Z</time></trkpt><trkpt lat="46.1372457" lon="12.2213185"><ele>373.0</ele><time>2026-04-04T08:09:55.146Z</time></trkpt><trkpt lat="46.1372745" lon="12.2214059"><ele>373.0</ele><time>2026-04-04T08:09:56.146Z</time></trkpt><trkpt lat="46.1373329" lon="12.2215677"><ele>373.0</ele><time>2026-04-04T08:09:58.145Z</time></trkpt><trkpt lat="46.137366" lon="12.2216769"><ele>373.0</ele><time>2026-04-04T08:09:59.146Z</time></trkpt><trkpt lat="46.1374038" lon="12.2218085"><ele>373.0</ele><time>2026-04-04T08:10:00.146Z</time></trkpt><trkpt lat="46.1374513" lon="12.2219484"><ele>365.75</ele><time>2026-04-04T08:10:01.147Z</time></trkpt><trkpt lat="46.1375057" lon="12.2220979"><ele>358.5</ele><time>2026-04-04T08:10:02.146Z</time></trkpt><trkpt lat="46.137558" lon="12.2222593"><ele>351.25</ele><time>2026-04-04T08:10:03.146Z</time></trkpt><trkpt lat="46.1376158" lon="12.2224209"><ele>344.0</ele><time>2026-04-04T08:10:04.146Z</time></trkpt><trkpt lat="46.1376752" lon="12.2225674"><ele>343.5</ele><time>2026-04-04T08:10:05.145Z</time></trkpt><trkpt lat="46.1377223" lon="12.2226913"><ele>343.0</ele><time>2026-04-04T08:10:06.145Z</time></trkpt><trkpt lat="46.1377657" lon="12.2228003"><ele>342.5</ele><time>2026-04-04T08:10:07.146Z</time></trkpt><trkpt lat="46.1378072" lon="12.2229043"><ele>342.0</ele><time>2026-04-04T08:10:08.145Z</time></trkpt><trkpt lat="46.1378445" lon="12.2230059"><ele>341.5</ele><time>2026-04-04T08:10:09.145Z</time></trkpt><trkpt lat="46.1378644" lon="12.2231096"><ele>341.0</ele><time>2026-04-04T08:10:10.145Z</time></trkpt><trkpt lat="46.1378566" lon="12.2232101"><ele>340.6</ele><time>2026-04-04T08:10:11.145Z</time></trkpt><trkpt lat="46.1378189" lon="12.2232991"><ele>340.20000000000005</ele><time>2026-04-04T08:10:12.146Z</time></trkpt><trkpt lat="46.1377595" lon="12.2233737"><ele>339.79999999999995</ele><time>2026-04-04T08:10:13.147Z</time></trkpt><trkpt lat="46.1376701" lon="12.2234482"><ele>339.4</ele><time>2026-04-04T08:10:14.146Z</time></trkpt><trkpt lat="46.1375544" lon="12.2235344"><ele>339.0</ele><time>2026-04-04T08:10:15.147Z</time></trkpt><trkpt lat="46.1374138" lon="12.2236447"><ele>338.6666666666667</ele><time>2026-04-04T08:10:16.146Z</time></trkpt><trkpt lat="46.1372578" lon="12.2237729"><ele>338.33333333333337</ele><time>2026-04-04T08:10:17.146Z</time></trkpt><trkpt lat="46.137101" lon="12.2238917"><ele>338.0</ele><time>2026-04-04T08:10:18.147Z</time></trkpt><trkpt lat="46.1369513" lon="12.2240137"><ele>338.0</ele><time>2026-04-04T08:10:19.146Z</time></trkpt><trkpt lat="46.136799" lon="12.224134"><ele>338.0</ele><time>2026-04-04T08:10:20.146Z</time></trkpt><trkpt lat="46.1366413" lon="12.2242569"><ele>338.0</ele><time>2026-04-04T08:10:21.146Z</time></trkpt><trkpt lat="46.1364792" lon="12.2243797"><ele>338.0</ele><time>2026-04-04T08:10:22.146Z</time></trkpt><trkpt lat="46.1363161" lon="12.2245057"><ele>338.0</ele><time>2026-04-04T08:10:23.147Z</time></trkpt><trkpt lat="46.1361587" lon="12.2246342"><ele>338.0</ele><time>2026-04-04T08:10:24.147Z</time></trkpt><trkpt lat="46.136001" lon="12.2247638"><ele>338.0</ele><time>2026-04-04T08:10:25.145Z</time></trkpt><trkpt lat="46.1358409" lon="12.224891"><ele>338.0</ele><time>2026-04-04T08:10:26.146Z</time></trkpt><trkpt lat="46.1356817" lon="12.2250122"><ele>338.0</ele><time>2026-04-04T08:10:27.146Z</time></trkpt><trkpt lat="46.1355323" lon="12.2251335"><ele>338.0</ele><time>2026-04-04T08:10:28.146Z</time></trkpt><trkpt lat="46.1353923" lon="12.2252649"><ele>338.0</ele><time>2026-04-04T08:10:29.145Z</time></trkpt><trkpt lat="46.1352634" lon="12.2254164"><ele>338.0</ele><time>2026-04-04T08:10:30.146Z</time></trkpt><trkpt lat="46.1351444" lon="12.2255875"><ele>337.33333333333337</ele><time>2026-04-04T08:10:31.145Z</time></trkpt><trkpt lat="46.1350326" lon="12.2257694"><ele>336.6666666666667</ele><time>2026-04-04T08:10:32.146Z</time></trkpt><trkpt lat="46.1349278" lon="12.2259633"><ele>336.0</ele><time>2026-04-04T08:10:33.145Z</time></trkpt><trkpt lat="46.1348267" lon="12.2261512"><ele>336.0</ele><time>2026-04-04T08:10:34.145Z</time></trkpt><trkpt lat="46.1347314" lon="12.2263279"><ele>336.0</ele><time>2026-04-04T08:10:35.145Z</time></trkpt><trkpt lat="46.1346393" lon="12.2264996"><ele>336.0</ele><time>2026-04-04T08:10:36.145Z</time></trkpt><trkpt lat="46.1345499" lon="12.2266689"><ele>337.4</ele><time>2026-04-04T08:10:37.146Z</time></trkpt><trkpt lat="46.1344662" lon="12.2268266"><ele>338.8</ele><time>2026-04-04T08:10:38.146Z</time></trkpt><trkpt lat="46.1343928" lon="12.2269731"><ele>340.2</ele><time>2026-04-04T08:10:39.145Z</time></trkpt><trkpt lat="46.1343343" lon="12.2270842"><ele>341.59999999999997</ele><time>2026-04-04T08:10:40.146Z</time></trkpt><trkpt lat="46.1342824" lon="12.227176"><ele>343.0</ele><time>2026-04-04T08:10:41.146Z</time></trkpt><trkpt lat="46.1342379" lon="12.2272543"><ele>344.0</ele><time>2026-04-04T08:10:42.147Z</time></trkpt><trkpt lat="46.1341786" lon="12.2273452"><ele>345.0</ele><time>2026-04-04T08:10:44.146Z</time></trkpt><trkpt lat="46.1341075" lon="12.2273938"><ele>346.0</ele><time>2026-04-04T08:10:46.145Z</time></trkpt><trkpt lat="46.133976" lon="12.2274276"><ele>347.0</ele><time>2026-04-04T08:10:48.145Z</time></trkpt><trkpt lat="46.1339115" lon="12.2274951"><ele>348.0</ele><time>2026-04-04T08:10:49.145Z</time></trkpt><trkpt lat="46.1338665" lon="12.2275918"><ele>348.0</ele><time>2026-04-04T08:10:50.145Z</time></trkpt><trkpt lat="46.1338594" lon="12.2276991"><ele>348.0</ele><time>2026-04-04T08:10:51.145Z</time></trkpt><trkpt lat="46.1338897" lon="12.2278151"><ele>348.0</ele><time>2026-04-04T08:10:52.147Z</time></trkpt><trkpt lat="46.1339537" lon="12.227912"><ele>348.0</ele><time>2026-04-04T08:10:53.146Z</time></trkpt><trkpt lat="46.1340492" lon="12.2279699"><ele>348.0</ele><time>2026-04-04T08:10:54.146Z</time></trkpt><trkpt lat="46.1341494" lon="12.2280332"><ele>350.0</ele><time>2026-04-04T08:10:55.146Z</time></trkpt><trkpt lat="46.1342482" lon="12.2281515"><ele>352.0</ele><time>2026-04-04T08:10:56.145Z</time></trkpt><trkpt lat="46.1343537" lon="12.2283208"><ele>354.0</ele><time>2026-04-04T08:10:57.146Z</time></trkpt><trkpt lat="46.134472" lon="12.2285221"><ele>354.0</ele><time>2026-04-04T08:10:58.146Z</time></trkpt><trkpt lat="46.1346155" lon="12.2287388"><ele>354.0</ele><time>2026-04-04T08:10:59.145Z</time></trkpt><trkpt lat="46.1347826" lon="12.2289496"><ele>354.0</ele><time>2026-04-04T08:11:00.145Z</time></trkpt><trkpt lat="46.1349645" lon="12.2291431"><ele>352.0</ele><time>2026-04-04T08:11:01.146Z</time></trkpt><trkpt lat="46.1351569" lon="12.2293301"><ele>350.0</ele><time>2026-04-04T08:11:02.145Z</time></trkpt><trkpt lat="46.1353531" lon="12.2295127"><ele>350.0</ele><time>2026-04-04T08:11:03.145Z</time></trkpt><trkpt lat="46.1355422" lon="12.2296875"><ele>350.0</ele><time>2026-04-04T08:11:04.145Z</time></trkpt><trkpt lat="46.135722" lon="12.229856"><ele>350.0</ele><time>2026-04-04T08:11:05.146Z</time></trkpt><trkpt lat="46.1358932" lon="12.2300237"><ele>351.0</ele><time>2026-04-04T08:11:06.145Z</time></trkpt><trkpt lat="46.1360593" lon="12.2301958"><ele>352.0</ele><time>2026-04-04T08:11:07.145Z</time></trkpt><trkpt lat="46.1362229" lon="12.2303749"><ele>353.0</ele><time>2026-04-04T08:11:08.145Z</time></trkpt><trkpt lat="46.136386" lon="12.2305615"><ele>353.6666666666667</ele><time>2026-04-04T08:11:09.145Z</time></trkpt><trkpt lat="46.1365538" lon="12.2307577"><ele>354.3333333333333</ele><time>2026-04-04T08:11:10.145Z</time></trkpt><trkpt lat="46.1367301" lon="12.2309687"><ele>355.0</ele><time>2026-04-04T08:11:11.145Z</time></trkpt><trkpt lat="46.1369121" lon="12.2311963"><ele>355.0</ele><time>2026-04-04T08:11:12.145Z</time></trkpt><trkpt lat="46.1371015" lon="12.2314305"><ele>355.0</ele><time>2026-04-04T08:11:13.145Z</time></trkpt><trkpt lat="46.1372889" lon="12.2316638"><ele>354.5</ele><time>2026-04-04T08:11:14.145Z</time></trkpt><trkpt lat="46.1374704" lon="12.2318918"><ele>354.0</ele><time>2026-04-04T08:11:15.146Z</time></trkpt><trkpt lat="46.1376404" lon="12.2321105"><ele>358.6666666666667</ele><time>2026-04-04T08:11:16.145Z</time></trkpt><trkpt lat="46.1378018" lon="12.2323163"><ele>363.33333333333337</ele><time>2026-04-04T08:11:17.145Z</time></trkpt><trkpt lat="46.1379586" lon="12.2325146"><ele>368.0</ele><time>2026-04-04T08:11:18.145Z</time></trkpt><trkpt lat="46.138113" lon="12.2327115"><ele>365.33333333333337</ele><time>2026-04-04T08:11:19.145Z</time></trkpt><trkpt lat="46.138266" lon="12.2329096"><ele>362.6666666666667</ele><time>2026-04-04T08:11:20.145Z</time></trkpt><trkpt lat="46.1384182" lon="12.2331152"><ele>360.0</ele><time>2026-04-04T08:11:21.145Z</time></trkpt><trkpt lat="46.1385695" lon="12.2333227"><ele>360.0</ele><time>2026-04-04T08:11:22.145Z</time></trkpt><trkpt lat="46.138724" lon="12.2335367"><ele>360.0</ele><time>2026-04-04T08:11:23.145Z</time></trkpt><trkpt lat="46.1388806" lon="12.2337529"><ele>360.0</ele><time>2026-04-04T08:11:24.145Z</time></trkpt><trkpt lat="46.1390401" lon="12.233976"><ele>360.5</ele><time>2026-04-04T08:11:25.145Z</time></trkpt><trkpt lat="46.1391987" lon="12.234205"><ele>361.0</ele><time>2026-04-04T08:11:26.145Z</time></trkpt><trkpt lat="46.1393589" lon="12.2344366"><ele>361.0</ele><time>2026-04-04T08:11:27.147Z</time></trkpt><trkpt lat="46.1395204" lon="12.23467"><ele>361.0</ele><time>2026-04-04T08:11:28.146Z</time></trkpt><trkpt lat="46.1396809" lon="12.2349017"><ele>359.5</ele><time>2026-04-04T08:11:29.146Z</time></trkpt><trkpt lat="46.1398395" lon="12.2351345"><ele>358.0</ele><time>2026-04-04T08:11:30.146Z</time></trkpt><trkpt lat="46.139996" lon="12.235369"><ele>358.0</ele><time>2026-04-04T08:11:31.147Z</time></trkpt><trkpt lat="46.140151" lon="12.2356003"><ele>358.0</ele><time>2026-04-04T08:11:32.145Z</time></trkpt><trkpt lat="46.1403065" lon="12.2358285"><ele>358.0</ele><time>2026-04-04T08:11:33.145Z</time></trkpt><trkpt lat="46.1404623" lon="12.2360526"><ele>360.66666666666663</ele><time>2026-04-04T08:11:34.145Z</time></trkpt><trkpt lat="46.1406171" lon="12.2362741"><ele>363.3333333333333</ele><time>2026-04-04T08:11:35.146Z</time></trkpt><trkpt lat="46.1407698" lon="12.2364982"><ele>366.0</ele><time>2026-04-04T08:11:36.145Z</time></trkpt><trkpt lat="46.140927" lon="12.2367255"><ele>366.0</ele><time>2026-04-04T08:11:37.145Z</time></trkpt><trkpt lat="46.1410901" lon="12.2369564"><ele>366.0</ele><time>2026-04-04T08:11:38.146Z</time></trkpt><trkpt lat="46.1412591" lon="12.2371934"><ele>361.5</ele><time>2026-04-04T08:11:39.145Z</time></trkpt><trkpt lat="46.1414377" lon="12.2374467"><ele>357.0</ele><time>2026-04-04T08:11:40.145Z</time></trkpt><trkpt lat="46.1416228" lon="12.2377049"><ele>357.0</ele><time>2026-04-04T08:11:41.145Z</time></trkpt><trkpt lat="46.1418192" lon="12.2379742"><ele>357.0</ele><time>2026-04-04T08:11:42.146Z</time></trkpt><trkpt lat="46.1420182" lon="12.2382609"><ele>357.0</ele><time>2026-04-04T08:11:43.145Z</time></trkpt><trkpt lat="46.1422064" lon="12.238556"><ele>357.0</ele><time>2026-04-04T08:11:44.146Z</time></trkpt><trkpt lat="46.142387" lon="12.2388415"><ele>363.5</ele><time>2026-04-04T08:11:45.145Z</time></trkpt><trkpt lat="46.1425667" lon="12.2391179"><ele>370.0</ele><time>2026-04-04T08:11:46.145Z</time></trkpt><trkpt lat="46.1427413" lon="12.2393905"><ele>370.0</ele><time>2026-04-04T08:11:47.145Z</time></trkpt><trkpt lat="46.1429082" lon="12.2396594"><ele>370.0</ele><time>2026-04-04T08:11:48.147Z</time></trkpt><trkpt lat="46.1430638" lon="12.2399166"><ele>371.3333333333333</ele><time>2026-04-04T08:11:49.146Z</time></trkpt><trkpt lat="46.1432078" lon="12.2401632"><ele>372.6666666666667</ele><time>2026-04-04T08:11:50.146Z</time></trkpt><trkpt lat="46.1433493" lon="12.2404021"><ele>374.0</ele><time>2026-04-04T08:11:51.145Z</time></trkpt><trkpt lat="46.1434902" lon="12.2406402"><ele>374.0</ele><time>2026-04-04T08:11:52.145Z</time></trkpt><trkpt lat="46.1436229" lon="12.2408631"><ele>374.0</ele><time>2026-04-04T08:11:53.145Z</time></trkpt><trkpt lat="46.1437462" lon="12.2410682"><ele>374.0</ele><time>2026-04-04T08:11:54.145Z</time></trkpt><trkpt lat="46.143866" lon="12.2412704"><ele>372.33333333333337</ele><time>2026-04-04T08:11:55.146Z</time></trkpt><trkpt lat="46.143982" lon="12.2414669"><ele>370.6666666666667</ele><time>2026-04-04T08:11:56.145Z</time></trkpt><trkpt lat="46.1440939" lon="12.241664"><ele>369.0</ele><time>2026-04-04T08:11:57.145Z</time></trkpt><trkpt lat="46.1442053" lon="12.2418615"><ele>369.0</ele><time>2026-04-04T08:11:58.146Z</time></trkpt><trkpt lat="46.1443163" lon="12.2420587"><ele>369.0</ele><time>2026-04-04T08:11:59.146Z</time></trkpt><trkpt lat="46.1444236" lon="12.2422426"><ele>369.0</ele><time>2026-04-04T08:12:00.145Z</time></trkpt><trkpt lat="46.1445241" lon="12.2424117"><ele>372.6666666666667</ele><time>2026-04-04T08:12:01.145Z</time></trkpt><trkpt lat="46.1446237" lon="12.2425754"><ele>376.33333333333337</ele><time>2026-04-04T08:12:02.145Z</time></trkpt><trkpt lat="46.1447272" lon="12.2427389"><ele>380.0</ele><time>2026-04-04T08:12:03.146Z</time></trkpt><trkpt lat="46.1448325" lon="12.2429019"><ele>377.0</ele><time>2026-04-04T08:12:04.145Z</time></trkpt><trkpt lat="46.1449442" lon="12.2430623"><ele>374.0</ele><time>2026-04-04T08:12:05.145Z</time></trkpt><trkpt lat="46.1450616" lon="12.2432118"><ele>371.0</ele><time>2026-04-04T08:12:06.145Z</time></trkpt><trkpt lat="46.1451828" lon="12.2433609"><ele>371.0</ele><time>2026-04-04T08:12:07.146Z</time></trkpt><trkpt lat="46.1453119" lon="12.2435126"><ele>371.0</ele><time>2026-04-04T08:12:08.146Z</time></trkpt><trkpt lat="46.145442" lon="12.243666"><ele>371.0</ele><time>2026-04-04T08:12:09.146Z</time></trkpt><trkpt lat="46.1455737" lon="12.2438285"><ele>370.6666666666667</ele><time>2026-04-04T08:12:10.145Z</time></trkpt><trkpt lat="46.1457101" lon="12.243993"><ele>370.3333333333333</ele><time>2026-04-04T08:12:11.145Z</time></trkpt><trkpt lat="46.1458509" lon="12.2441616"><ele>370.0</ele><time>2026-04-04T08:12:12.145Z</time></trkpt><trkpt lat="46.1459942" lon="12.2443356"><ele>370.0</ele><time>2026-04-04T08:12:13.145Z</time></trkpt><trkpt lat="46.1461414" lon="12.2445097"><ele>370.0</ele><time>2026-04-04T08:12:14.146Z</time></trkpt><trkpt lat="46.1462835" lon="12.2446799"><ele>370.0</ele><time>2026-04-04T08:12:15.145Z</time></trkpt><trkpt lat="46.1464154" lon="12.2448424"><ele>371.0</ele><time>2026-04-04T08:12:16.146Z</time></trkpt><trkpt lat="46.1465419" lon="12.2449959"><ele>372.0</ele><time>2026-04-04T08:12:17.145Z</time></trkpt><trkpt lat="46.1466617" lon="12.2451396"><ele>373.0</ele><time>2026-04-04T08:12:18.146Z</time></trkpt><trkpt lat="46.146775" lon="12.2452782"><ele>373.0</ele><time>2026-04-04T08:12:19.146Z</time></trkpt><trkpt lat="46.1468821" lon="12.2454102"><ele>373.0</ele><time>2026-04-04T08:12:20.146Z</time></trkpt><trkpt lat="46.1469838" lon="12.2455401"><ele>373.0</ele><time>2026-04-04T08:12:21.145Z</time></trkpt><trkpt lat="46.1470822" lon="12.2456691"><ele>373.0</ele><time>2026-04-04T08:12:22.146Z</time></trkpt><trkpt lat="46.1471801" lon="12.2458036"><ele>372.25</ele><time>2026-04-04T08:12:23.145Z</time></trkpt><trkpt lat="46.1472803" lon="12.2459428"><ele>371.5</ele><time>2026-04-04T08:12:24.145Z</time></trkpt><trkpt lat="46.1473819" lon="12.2460887"><ele>370.75</ele><time>2026-04-04T08:12:25.147Z</time></trkpt><trkpt lat="46.1474808" lon="12.24624"><ele>370.0</ele><time>2026-04-04T08:12:26.147Z</time></trkpt><trkpt lat="46.147581" lon="12.2463968"><ele>371.75</ele><time>2026-04-04T08:12:27.145Z</time></trkpt><trkpt lat="46.1476794" lon="12.2465627"><ele>373.5</ele><time>2026-04-04T08:12:28.145Z</time></trkpt><trkpt lat="46.1477703" lon="12.2467235"><ele>375.25</ele><time>2026-04-04T08:12:29.147Z</time></trkpt><trkpt lat="46.1478608" lon="12.2468898"><ele>377.0</ele><time>2026-04-04T08:12:30.146Z</time></trkpt><trkpt lat="46.1479466" lon="12.2470535"><ele>377.0</ele><time>2026-04-04T08:12:31.146Z</time></trkpt><trkpt lat="46.148029" lon="12.2472166"><ele>377.0</ele><time>2026-04-04T08:12:32.145Z</time></trkpt><trkpt lat="46.1481089" lon="12.2473905"><ele>377.0</ele><time>2026-04-04T08:12:33.145Z</time></trkpt><trkpt lat="46.1481885" lon="12.2475667"><ele>377.0</ele><time>2026-04-04T08:12:34.145Z</time></trkpt><trkpt lat="46.1482687" lon="12.2477478"><ele>377.25</ele><time>2026-04-04T08:12:35.145Z</time></trkpt><trkpt lat="46.1483475" lon="12.2479319"><ele>377.5</ele><time>2026-04-04T08:12:36.145Z</time></trkpt><trkpt lat="46.1484209" lon="12.2481165"><ele>377.75</ele><time>2026-04-04T08:12:37.146Z</time></trkpt><trkpt lat="46.1484908" lon="12.2483044"><ele>378.0</ele><time>2026-04-04T08:12:38.147Z</time></trkpt><trkpt lat="46.1485608" lon="12.2484971"><ele>378.0</ele><time>2026-04-04T08:12:39.146Z</time></trkpt><trkpt lat="46.1486308" lon="12.2486982"><ele>378.0</ele><time>2026-04-04T08:12:40.146Z</time></trkpt><trkpt lat="46.1487075" lon="12.2489122"><ele>378.0</ele><time>2026-04-04T08:12:41.146Z</time></trkpt><trkpt lat="46.1487792" lon="12.2491198"><ele>378.5</ele><time>2026-04-04T08:12:42.145Z</time></trkpt><trkpt lat="46.1488438" lon="12.2493093"><ele>379.0</ele><time>2026-04-04T08:12:43.145Z</time></trkpt><trkpt lat="46.1489001" lon="12.2494754"><ele>379.5</ele><time>2026-04-04T08:12:44.145Z</time></trkpt><trkpt lat="46.148951" lon="12.249631"><ele>380.0</ele><time>2026-04-04T08:12:45.146Z</time></trkpt><trkpt lat="46.1490013" lon="12.2497792"><ele>378.5</ele><time>2026-04-04T08:12:46.145Z</time></trkpt><trkpt lat="46.1490519" lon="12.2499304"><ele>377.0</ele><time>2026-04-04T08:12:47.145Z</time></trkpt><trkpt lat="46.149113" lon="12.250094"><ele>375.5</ele><time>2026-04-04T08:12:48.145Z</time></trkpt><trkpt lat="46.1491908" lon="12.2502891"><ele>374.0</ele><time>2026-04-04T08:12:49.146Z</time></trkpt><trkpt lat="46.1492746" lon="12.2505267"><ele>374.0</ele><time>2026-04-04T08:12:50.146Z</time></trkpt><trkpt lat="46.1493677" lon="12.2507969"><ele>374.0</ele><time>2026-04-04T08:12:51.145Z</time></trkpt><trkpt lat="46.1494715" lon="12.2510923"><ele>374.0</ele><time>2026-04-04T08:12:52.145Z</time></trkpt><trkpt lat="46.1495753" lon="12.2514041"><ele>373.6666666666667</ele><time>2026-04-04T08:12:53.145Z</time></trkpt><trkpt lat="46.1496696" lon="12.2517044"><ele>373.3333333333333</ele><time>2026-04-04T08:12:54.146Z</time></trkpt><trkpt lat="46.1497629" lon="12.2519888"><ele>373.0</ele><time>2026-04-04T08:12:55.146Z</time></trkpt><trkpt lat="46.1498539" lon="12.2522586"><ele>372.3333333333333</ele><time>2026-04-04T08:12:56.146Z</time></trkpt><trkpt lat="46.1499427" lon="12.2525182"><ele>371.6666666666667</ele><time>2026-04-04T08:12:57.145Z</time></trkpt><trkpt lat="46.1500283" lon="12.2527702"><ele>371.0</ele><time>2026-04-04T08:12:58.146Z</time></trkpt><trkpt lat="46.150108" lon="12.2530075"><ele>372.0</ele><time>2026-04-04T08:12:59.145Z</time></trkpt><trkpt lat="46.1501851" lon="12.253235"><ele>373.0</ele><time>2026-04-04T08:13:00.145Z</time></trkpt><trkpt lat="46.150262" lon="12.2534556"><ele>374.0</ele><time>2026-04-04T08:13:01.146Z</time></trkpt><trkpt lat="46.1503346" lon="12.2536674"><ele>374.0</ele><time>2026-04-04T08:13:02.146Z</time></trkpt><trkpt lat="46.1503992" lon="12.2538663"><ele>374.0</ele><time>2026-04-04T08:13:03.145Z</time></trkpt><trkpt lat="46.1504643" lon="12.2540562"><ele>374.0</ele><time>2026-04-04T08:13:04.147Z</time></trkpt><trkpt lat="46.1505265" lon="12.2542411"><ele>374.0</ele><time>2026-04-04T08:13:05.145Z</time></trkpt><trkpt lat="46.1505808" lon="12.2544309"><ele>373.75</ele><time>2026-04-04T08:13:06.145Z</time></trkpt><trkpt lat="46.1506296" lon="12.2546264"><ele>373.5</ele><time>2026-04-04T08:13:07.146Z</time></trkpt><trkpt lat="46.1506708" lon="12.2548181"><ele>373.25</ele><time>2026-04-04T08:13:08.145Z</time></trkpt><trkpt lat="46.1507125" lon="12.255002"><ele>373.0</ele><time>2026-04-04T08:13:09.146Z</time></trkpt><trkpt lat="46.1507577" lon="12.2551803"><ele>373.0</ele><time>2026-04-04T08:13:10.145Z</time></trkpt><trkpt lat="46.1507874" lon="12.2553667"><ele>373.0</ele><time>2026-04-04T08:13:11.146Z</time></trkpt><trkpt lat="46.1508093" lon="12.2555573"><ele>373.0</ele><time>2026-04-04T08:13:12.147Z</time></trkpt><trkpt lat="46.1508313" lon="12.2557592"><ele>373.0</ele><time>2026-04-04T08:13:13.145Z</time></trkpt><trkpt lat="46.1508501" lon="12.2559714"><ele>373.3333333333333</ele><time>2026-04-04T08:13:14.145Z</time></trkpt><trkpt lat="46.1508708" lon="12.2561935"><ele>373.6666666666667</ele><time>2026-04-04T08:13:15.145Z</time></trkpt><trkpt lat="46.1508984" lon="12.2564171"><ele>374.0</ele><time>2026-04-04T08:13:16.146Z</time></trkpt><trkpt lat="46.150925" lon="12.2566309"><ele>374.2</ele><time>2026-04-04T08:13:17.145Z</time></trkpt><trkpt lat="46.150948" lon="12.256814"><ele>374.4</ele><time>2026-04-04T08:13:18.145Z</time></trkpt><trkpt lat="46.1509688" lon="12.2569719"><ele>374.6</ele><time>2026-04-04T08:13:19.145Z</time></trkpt><trkpt lat="46.1509853" lon="12.2570979"><ele>374.8</ele><time>2026-04-04T08:13:20.146Z</time></trkpt><trkpt lat="46.1509967" lon="12.257192"><ele>375.0</ele><time>2026-04-04T08:13:21.145Z</time></trkpt><trkpt lat="46.1510028" lon="12.2573326"><ele>374.7142857142857</ele><time>2026-04-04T08:13:23.145Z</time></trkpt><trkpt lat="46.1509767" lon="12.2574362"><ele>374.4285714285714</ele><time>2026-04-04T08:13:25.146Z</time></trkpt><trkpt lat="46.1509185" lon="12.2575146"><ele>374.1428571428571</ele><time>2026-04-04T08:13:28.146Z</time></trkpt><trkpt lat="46.150867" lon="12.25758"><ele>373.8571428571429</ele><time>2026-04-04T08:13:32.146Z</time></trkpt><trkpt lat="46.1508447" lon="12.2576682"><ele>373.57142857142856</ele><time>2026-04-04T08:13:35.145Z</time></trkpt><trkpt lat="46.1508615" lon="12.2577593"><ele>373.2857142857143</ele><time>2026-04-04T08:17:41.147Z</time></trkpt><trkpt lat="46.1508933" lon="12.2578429"><ele>373.0</ele><time>2026-04-04T08:17:44.146Z</time></trkpt><trkpt lat="46.1509371" lon="12.2579288"><ele>373.0</ele><time>2026-04-04T08:17:48.146Z</time></trkpt><trkpt lat="46.1509945" lon="12.2579928"><ele>373.0</ele><time>2026-04-04T08:18:02.147Z</time></trkpt><trkpt lat="46.1510662" lon="12.2580232"><ele>373.0</ele><time>2026-04-04T08:18:18.146Z</time></trkpt><trkpt lat="46.1511084" lon="12.2581532"><ele>373.0</ele><time>2026-04-04T08:18:20.146Z</time></trkpt><trkpt lat="46.1511296" lon="12.2582819"><ele>373.0</ele><time>2026-04-04T08:18:21.147Z</time></trkpt><trkpt lat="46.1511527" lon="12.2584493"><ele>373.5</ele><time>2026-04-04T08:18:22.146Z</time></trkpt><trkpt lat="46.1511781" lon="12.2586364"><ele>374.0</ele><time>2026-04-04T08:18:23.146Z</time></trkpt><trkpt lat="46.1512046" lon="12.2588388"><ele>374.5</ele><time>2026-04-04T08:18:24.146Z</time></trkpt><trkpt lat="46.1512316" lon="12.2590426"><ele>375.0</ele><time>2026-04-04T08:18:25.146Z</time></trkpt><trkpt lat="46.1512616" lon="12.259248"><ele>375.0</ele><time>2026-04-04T08:18:26.147Z</time></trkpt><trkpt lat="46.1512873" lon="12.259448"><ele>375.0</ele><time>2026-04-04T08:18:27.146Z</time></trkpt><trkpt lat="46.1513097" lon="12.2596433"><ele>375.0</ele><time>2026-04-04T08:18:28.146Z</time></trkpt><trkpt lat="46.1513322" lon="12.2598364"><ele>375.0</ele><time>2026-04-04T08:18:29.147Z</time></trkpt><trkpt lat="46.1513573" lon="12.2600359"><ele>375.0</ele><time>2026-04-04T08:18:30.146Z</time></trkpt><trkpt lat="46.1513834" lon="12.2602362"><ele>375.0</ele><time>2026-04-04T08:18:31.146Z</time></trkpt><trkpt lat="46.1514083" lon="12.2604345"><ele>375.0</ele><time>2026-04-04T08:18:32.148Z</time></trkpt><trkpt lat="46.1514336" lon="12.2606346"><ele>375.0</ele><time>2026-04-04T08:18:33.146Z</time></trkpt><trkpt lat="46.1514635" lon="12.2608342"><ele>374.75</ele><time>2026-04-04T08:18:34.147Z</time></trkpt><trkpt lat="46.1514895" lon="12.2610332"><ele>374.5</ele><time>2026-04-04T08:18:35.146Z</time></trkpt><trkpt lat="46.1515245" lon="12.2612307"><ele>374.25</ele><time>2026-04-04T08:18:36.146Z</time></trkpt><trkpt lat="46.1515725" lon="12.2614183"><ele>374.0</ele><time>2026-04-04T08:18:37.146Z</time></trkpt><trkpt lat="46.1516366" lon="12.2615963"><ele>373.33333333333337</ele><time>2026-04-04T08:18:38.146Z</time></trkpt><trkpt lat="46.1517149" lon="12.2617764"><ele>372.6666666666667</ele><time>2026-04-04T08:18:39.147Z</time></trkpt><trkpt lat="46.1518127" lon="12.261955"><ele>372.0</ele><time>2026-04-04T08:18:40.146Z</time></trkpt><trkpt lat="46.1519242" lon="12.2621309"><ele>373.0</ele><time>2026-04-04T08:18:41.147Z</time></trkpt><trkpt lat="46.1520453" lon="12.262298"><ele>374.0</ele><time>2026-04-04T08:18:42.146Z</time></trkpt><trkpt lat="46.1521629" lon="12.2624555"><ele>375.0</ele><time>2026-04-04T08:18:43.146Z</time></trkpt><trkpt lat="46.152276" lon="12.262608"><ele>374.5</ele><time>2026-04-04T08:18:44.147Z</time></trkpt><trkpt lat="46.1523875" lon="12.2627572"><ele>374.0</ele><time>2026-04-04T08:18:45.147Z</time></trkpt><trkpt lat="46.1524988" lon="12.2629025"><ele>373.5</ele><time>2026-04-04T08:18:46.147Z</time></trkpt><trkpt lat="46.152605" lon="12.2630426"><ele>373.0</ele><time>2026-04-04T08:18:47.146Z</time></trkpt><trkpt lat="46.1527075" lon="12.2631785"><ele>373.0</ele><time>2026-04-04T08:18:48.146Z</time></trkpt><trkpt lat="46.1528121" lon="12.263315"><ele>373.0</ele><time>2026-04-04T08:18:49.147Z</time></trkpt><trkpt lat="46.1529233" lon="12.2634599"><ele>373.0</ele><time>2026-04-04T08:18:50.147Z</time></trkpt><trkpt lat="46.1530361" lon="12.2636129"><ele>373.0</ele><time>2026-04-04T08:18:51.147Z</time></trkpt><trkpt lat="46.1531508" lon="12.2637674"><ele>372.66666666666663</ele><time>2026-04-04T08:18:52.147Z</time></trkpt><trkpt lat="46.1532689" lon="12.2639265"><ele>372.3333333333333</ele><time>2026-04-04T08:18:53.146Z</time></trkpt><trkpt lat="46.1533879" lon="12.26409"><ele>372.0</ele><time>2026-04-04T08:18:54.147Z</time></trkpt><trkpt lat="46.1535102" lon="12.264256"><ele>372.6666666666667</ele><time>2026-04-04T08:18:55.146Z</time></trkpt><trkpt lat="46.1536374" lon="12.2644134"><ele>373.33333333333337</ele><time>2026-04-04T08:18:56.146Z</time></trkpt><trkpt lat="46.1537693" lon="12.264558"><ele>374.0</ele><time>2026-04-04T08:18:57.146Z</time></trkpt><trkpt lat="46.1539029" lon="12.2646859"><ele>374.33333333333337</ele><time>2026-04-04T08:18:58.146Z</time></trkpt><trkpt lat="46.1540452" lon="12.2648036"><ele>374.6666666666667</ele><time>2026-04-04T08:18:59.146Z</time></trkpt><trkpt lat="46.1541917" lon="12.2649171"><ele>375.0</ele><time>2026-04-04T08:19:00.147Z</time></trkpt><trkpt lat="46.1543384" lon="12.2650223"><ele>375.0</ele><time>2026-04-04T08:19:01.147Z</time></trkpt><trkpt lat="46.1544855" lon="12.2651223"><ele>375.0</ele><time>2026-04-04T08:19:02.146Z</time></trkpt><trkpt lat="46.1546318" lon="12.265222"><ele>375.0</ele><time>2026-04-04T08:19:03.147Z</time></trkpt><trkpt lat="46.1547778" lon="12.2653215"><ele>373.6666666666667</ele><time>2026-04-04T08:19:04.146Z</time></trkpt><trkpt lat="46.1549256" lon="12.2654209"><ele>372.33333333333337</ele><time>2026-04-04T08:19:05.147Z</time></trkpt><trkpt lat="46.1550711" lon="12.2655189"><ele>371.0</ele><time>2026-04-04T08:19:06.147Z</time></trkpt><trkpt lat="46.1552239" lon="12.2656066"><ele>373.33333333333337</ele><time>2026-04-04T08:19:07.146Z</time></trkpt><trkpt lat="46.1553806" lon="12.2656795"><ele>375.6666666666667</ele><time>2026-04-04T08:19:08.147Z</time></trkpt><trkpt lat="46.1555425" lon="12.2657443"><ele>378.0</ele><time>2026-04-04T08:19:09.147Z</time></trkpt><trkpt lat="46.1557082" lon="12.2658052"><ele>378.0</ele><time>2026-04-04T08:19:10.146Z</time></trkpt><trkpt lat="46.1558764" lon="12.265851"><ele>378.0</ele><time>2026-04-04T08:19:11.146Z</time></trkpt><trkpt lat="46.1560477" lon="12.2658821"><ele>378.0</ele><time>2026-04-04T08:19:12.146Z</time></trkpt><trkpt lat="46.1562214" lon="12.2659113"><ele>378.0</ele><time>2026-04-04T08:19:13.146Z</time></trkpt><trkpt lat="46.1563983" lon="12.2659397"><ele>378.0</ele><time>2026-04-04T08:19:14.148Z</time></trkpt><trkpt lat="46.1565783" lon="12.2659696"><ele>378.0</ele><time>2026-04-04T08:19:15.146Z</time></trkpt><trkpt lat="46.1567615" lon="12.266001"><ele>376.0</ele><time>2026-04-04T08:19:16.146Z</time></trkpt><trkpt lat="46.1569443" lon="12.266034"><ele>374.0</ele><time>2026-04-04T08:19:17.146Z</time></trkpt><trkpt lat="46.1571311" lon="12.2660679"><ele>372.0</ele><time>2026-04-04T08:19:18.147Z</time></trkpt><trkpt lat="46.1573191" lon="12.2661022"><ele>371.0</ele><time>2026-04-04T08:19:19.147Z</time></trkpt><trkpt lat="46.1575093" lon="12.2661404"><ele>370.0</ele><time>2026-04-04T08:19:20.146Z</time></trkpt><trkpt lat="46.1576987" lon="12.266187"><ele>369.0</ele><time>2026-04-04T08:19:21.147Z</time></trkpt><trkpt lat="46.1578858" lon="12.2662507"><ele>369.0</ele><time>2026-04-04T08:19:22.147Z</time></trkpt><trkpt lat="46.1580721" lon="12.2663272"><ele>369.0</ele><time>2026-04-04T08:19:23.147Z</time></trkpt><trkpt lat="46.158261" lon="12.2664222"><ele>369.0</ele><time>2026-04-04T08:19:24.146Z</time></trkpt><trkpt lat="46.1584497" lon="12.2665309"><ele>373.0</ele><time>2026-04-04T08:19:25.147Z</time></trkpt><trkpt lat="46.1586398" lon="12.2666569"><ele>377.0</ele><time>2026-04-04T08:19:26.146Z</time></trkpt><trkpt lat="46.1588295" lon="12.2667987"><ele>381.0</ele><time>2026-04-04T08:19:27.146Z</time></trkpt><trkpt lat="46.1590305" lon="12.2669672"><ele>381.5</ele><time>2026-04-04T08:19:28.147Z</time></trkpt><trkpt lat="46.1592424" lon="12.2671538"><ele>382.0</ele><time>2026-04-04T08:19:29.148Z</time></trkpt><trkpt lat="46.1594626" lon="12.2673425"><ele>382.0</ele><time>2026-04-04T08:19:30.146Z</time></trkpt><trkpt lat="46.1596861" lon="12.2675323"><ele>382.0</ele><time>2026-04-04T08:19:31.146Z</time></trkpt><trkpt lat="46.159905" lon="12.2677209"><ele>378.5</ele><time>2026-04-04T08:19:32.146Z</time></trkpt><trkpt lat="46.1601236" lon="12.2679149"><ele>375.0</ele><time>2026-04-04T08:19:33.146Z</time></trkpt><trkpt lat="46.1603399" lon="12.2681064"><ele>378.0</ele><time>2026-04-04T08:19:34.147Z</time></trkpt><trkpt lat="46.1605554" lon="12.2682918"><ele>381.0</ele><time>2026-04-04T08:19:35.146Z</time></trkpt><trkpt lat="46.1607709" lon="12.2684784"><ele>381.0</ele><time>2026-04-04T08:19:36.146Z</time></trkpt><trkpt lat="46.1609838" lon="12.2686645"><ele>381.0</ele><time>2026-04-04T08:19:37.146Z</time></trkpt><trkpt lat="46.1611877" lon="12.2688416"><ele>382.66666666666663</ele><time>2026-04-04T08:19:38.146Z</time></trkpt><trkpt lat="46.1613824" lon="12.2690115"><ele>384.3333333333333</ele><time>2026-04-04T08:19:39.146Z</time></trkpt><trkpt lat="46.1615694" lon="12.269173"><ele>386.0</ele><time>2026-04-04T08:19:40.147Z</time></trkpt><trkpt lat="46.161748" lon="12.2693289"><ele>386.0</ele><time>2026-04-04T08:19:41.148Z</time></trkpt><trkpt lat="46.1619214" lon="12.2694786"><ele>386.0</ele><time>2026-04-04T08:19:42.146Z</time></trkpt><trkpt lat="46.1620906" lon="12.2696256"><ele>386.0</ele><time>2026-04-04T08:19:43.146Z</time></trkpt><trkpt lat="46.1622619" lon="12.2697594"><ele>387.0</ele><time>2026-04-04T08:19:44.147Z</time></trkpt><trkpt lat="46.1624399" lon="12.269877"><ele>388.0</ele><time>2026-04-04T08:19:45.146Z</time></trkpt><trkpt lat="46.1626225" lon="12.2699801"><ele>389.0</ele><time>2026-04-04T08:19:46.147Z</time></trkpt><trkpt lat="46.1628063" lon="12.2700706"><ele>389.0</ele><time>2026-04-04T08:19:47.146Z</time></trkpt><trkpt lat="46.1629908" lon="12.2701498"><ele>389.0</ele><time>2026-04-04T08:19:48.147Z</time></trkpt><trkpt lat="46.1631818" lon="12.2702161"><ele>389.0</ele><time>2026-04-04T08:19:49.147Z</time></trkpt><trkpt lat="46.1633903" lon="12.2702643"><ele>389.0</ele><time>2026-04-04T08:19:50.147Z</time></trkpt><trkpt lat="46.1636136" lon="12.2702925"><ele>389.0</ele><time>2026-04-04T08:19:51.146Z</time></trkpt><trkpt lat="46.1638458" lon="12.2703075"><ele>388.0</ele><time>2026-04-04T08:19:52.146Z</time></trkpt><trkpt lat="46.1640778" lon="12.270302"><ele>387.0</ele><time>2026-04-04T08:19:53.146Z</time></trkpt><trkpt lat="46.1643027" lon="12.2702863"><ele>387.0</ele><time>2026-04-04T08:19:54.147Z</time></trkpt><trkpt lat="46.1645127" lon="12.2702602"><ele>387.0</ele><time>2026-04-04T08:19:55.147Z</time></trkpt><trkpt lat="46.1647065" lon="12.2702241"><ele>387.0</ele><time>2026-04-04T08:19:56.146Z</time></trkpt><trkpt lat="46.1648902" lon="12.2701892"><ele>388.66666666666663</ele><time>2026-04-04T08:19:57.147Z</time></trkpt><trkpt lat="46.1650689" lon="12.2701563"><ele>390.3333333333333</ele><time>2026-04-04T08:19:58.146Z</time></trkpt><trkpt lat="46.1652429" lon="12.2701318"><ele>392.0</ele><time>2026-04-04T08:19:59.146Z</time></trkpt><trkpt lat="46.1654151" lon="12.2701168"><ele>392.0</ele><time>2026-04-04T08:20:00.146Z</time></trkpt><trkpt lat="46.1655913" lon="12.2701124"><ele>392.0</ele><time>2026-04-04T08:20:01.146Z</time></trkpt><trkpt lat="46.1657597" lon="12.2701182"><ele>392.0</ele><time>2026-04-04T08:20:02.147Z</time></trkpt><trkpt lat="46.1659249" lon="12.2701306"><ele>392.66666666666663</ele><time>2026-04-04T08:20:03.146Z</time></trkpt><trkpt lat="46.1660896" lon="12.2701546"><ele>393.33333333333337</ele><time>2026-04-04T08:20:04.146Z</time></trkpt><trkpt lat="46.166253" lon="12.2701867"><ele>394.0</ele><time>2026-04-04T08:20:05.147Z</time></trkpt><trkpt lat="46.1664165" lon="12.2702291"><ele>391.0</ele><time>2026-04-04T08:20:06.147Z</time></trkpt><trkpt lat="46.1665775" lon="12.2702764"><ele>388.0</ele><time>2026-04-04T08:20:07.146Z</time></trkpt><trkpt lat="46.1667371" lon="12.2703316"><ele>385.0</ele><time>2026-04-04T08:20:08.146Z</time></trkpt><trkpt lat="46.1668951" lon="12.2703971"><ele>385.0</ele><time>2026-04-04T08:20:09.146Z</time></trkpt><trkpt lat="46.1670538" lon="12.2704654"><ele>385.0</ele><time>2026-04-04T08:20:10.146Z</time></trkpt><trkpt lat="46.167214" lon="12.2705355"><ele>385.0</ele><time>2026-04-04T08:20:11.148Z</time></trkpt><trkpt lat="46.1673772" lon="12.2706052"><ele>390.6666666666667</ele><time>2026-04-04T08:20:12.147Z</time></trkpt><trkpt lat="46.1675413" lon="12.2706745"><ele>396.33333333333337</ele><time>2026-04-04T08:20:13.146Z</time></trkpt><trkpt lat="46.1677032" lon="12.270746"><ele>402.0</ele><time>2026-04-04T08:20:14.147Z</time></trkpt><trkpt lat="46.167865" lon="12.2708206"><ele>402.0</ele><time>2026-04-04T08:20:15.147Z</time></trkpt><trkpt lat="46.1680288" lon="12.2708935"><ele>402.0</ele><time>2026-04-04T08:20:16.147Z</time></trkpt><trkpt lat="46.1681925" lon="12.2709662"><ele>402.0</ele><time>2026-04-04T08:20:17.147Z</time></trkpt><trkpt lat="46.1683531" lon="12.271036"><ele>398.0</ele><time>2026-04-04T08:20:18.146Z</time></trkpt><trkpt lat="46.1685132" lon="12.2711126"><ele>394.0</ele><time>2026-04-04T08:20:19.147Z</time></trkpt><trkpt lat="46.1686774" lon="12.2711883"><ele>390.0</ele><time>2026-04-04T08:20:20.148Z</time></trkpt><trkpt lat="46.1688428" lon="12.2712696"><ele>390.0</ele><time>2026-04-04T08:20:21.147Z</time></trkpt><trkpt lat="46.1690102" lon="12.2713634"><ele>390.0</ele><time>2026-04-04T08:20:22.146Z</time></trkpt><trkpt lat="46.1691778" lon="12.2714674"><ele>390.0</ele><time>2026-04-04T08:20:23.146Z</time></trkpt><trkpt lat="46.1693451" lon="12.2715821"><ele>393.66666666666663</ele><time>2026-04-04T08:20:24.147Z</time></trkpt><trkpt lat="46.1695115" lon="12.2717132"><ele>397.3333333333333</ele><time>2026-04-04T08:20:25.146Z</time></trkpt><trkpt lat="46.169677" lon="12.271858"><ele>401.0</ele><time>2026-04-04T08:20:26.146Z</time></trkpt><trkpt lat="46.1698375" lon="12.2720131"><ele>400.66666666666663</ele><time>2026-04-04T08:20:27.147Z</time></trkpt><trkpt lat="46.1699979" lon="12.272178"><ele>400.33333333333337</ele><time>2026-04-04T08:20:28.146Z</time></trkpt><trkpt lat="46.1701555" lon="12.272356"><ele>400.0</ele><time>2026-04-04T08:20:29.146Z</time></trkpt><trkpt lat="46.1703059" lon="12.2725452"><ele>400.0</ele><time>2026-04-04T08:20:30.147Z</time></trkpt><trkpt lat="46.1704463" lon="12.2727403"><ele>400.0</ele><time>2026-04-04T08:20:31.146Z</time></trkpt><trkpt lat="46.1705749" lon="12.2729338"><ele>400.0</ele><time>2026-04-04T08:20:32.146Z</time></trkpt><trkpt lat="46.1706935" lon="12.2731328"><ele>397.33333333333337</ele><time>2026-04-04T08:20:33.146Z</time></trkpt><trkpt lat="46.1708048" lon="12.2733291"><ele>394.66666666666663</ele><time>2026-04-04T08:20:34.147Z</time></trkpt><trkpt lat="46.1709096" lon="12.2735265"><ele>392.0</ele><time>2026-04-04T08:20:35.146Z</time></trkpt><trkpt lat="46.1710073" lon="12.2737298"><ele>393.66666666666663</ele><time>2026-04-04T08:20:36.146Z</time></trkpt><trkpt lat="46.1711019" lon="12.2739392"><ele>395.33333333333337</ele><time>2026-04-04T08:20:37.147Z</time></trkpt><trkpt lat="46.1711924" lon="12.2741574"><ele>397.0</ele><time>2026-04-04T08:20:38.146Z</time></trkpt><trkpt lat="46.1712784" lon="12.2743852"><ele>397.0</ele><time>2026-04-04T08:20:39.147Z</time></trkpt><trkpt lat="46.1713555" lon="12.274626"><ele>397.0</ele><time>2026-04-04T08:20:40.146Z</time></trkpt><trkpt lat="46.1714277" lon="12.2748746"><ele>397.0</ele><time>2026-04-04T08:20:41.146Z</time></trkpt><trkpt lat="46.1714956" lon="12.2751288"><ele>395.33333333333337</ele><time>2026-04-04T08:20:42.146Z</time></trkpt><trkpt lat="46.1715538" lon="12.2753846"><ele>393.66666666666663</ele><time>2026-04-04T08:20:43.146Z</time></trkpt><trkpt lat="46.1716057" lon="12.2756402"><ele>392.0</ele><time>2026-04-04T08:20:44.147Z</time></trkpt><trkpt lat="46.1716496" lon="12.2758903"><ele>392.0</ele><time>2026-04-04T08:20:45.147Z</time></trkpt><trkpt lat="46.1716854" lon="12.276131"><ele>392.0</ele><time>2026-04-04T08:20:46.147Z</time></trkpt><trkpt lat="46.1717116" lon="12.2763635"><ele>392.0</ele><time>2026-04-04T08:20:47.147Z</time></trkpt><trkpt lat="46.1717322" lon="12.2765885"><ele>391.66666666666663</ele><time>2026-04-04T08:20:48.146Z</time></trkpt><trkpt lat="46.1717458" lon="12.2768143"><ele>391.33333333333337</ele><time>2026-04-04T08:20:49.148Z</time></trkpt><trkpt lat="46.171756" lon="12.2770417"><ele>391.0</ele><time>2026-04-04T08:20:50.147Z</time></trkpt><trkpt lat="46.1717612" lon="12.2772708"><ele>391.0</ele><time>2026-04-04T08:20:51.146Z</time></trkpt><trkpt lat="46.1717657" lon="12.2775028"><ele>391.0</ele><time>2026-04-04T08:20:52.147Z</time></trkpt><trkpt lat="46.171772" lon="12.2777364"><ele>391.0</ele><time>2026-04-04T08:20:53.147Z</time></trkpt><trkpt lat="46.1717801" lon="12.277978"><ele>391.0</ele><time>2026-04-04T08:20:54.146Z</time></trkpt><trkpt lat="46.1717895" lon="12.2782242"><ele>391.0</ele><time>2026-04-04T08:20:55.146Z</time></trkpt><trkpt lat="46.1717994" lon="12.2784759"><ele>391.0</ele><time>2026-04-04T08:20:56.147Z</time></trkpt><trkpt lat="46.1718093" lon="12.2787396"><ele>390.6666666666667</ele><time>2026-04-04T08:20:57.147Z</time></trkpt><trkpt lat="46.1718174" lon="12.2790093"><ele>390.33333333333337</ele><time>2026-04-04T08:20:58.146Z</time></trkpt><trkpt lat="46.1718271" lon="12.279284"><ele>390.0</ele><time>2026-04-04T08:20:59.147Z</time></trkpt><trkpt lat="46.1718372" lon="12.2795497"><ele>389.33333333333337</ele><time>2026-04-04T08:21:00.146Z</time></trkpt><trkpt lat="46.1718464" lon="12.279801"><ele>388.6666666666667</ele><time>2026-04-04T08:21:01.146Z</time></trkpt><trkpt lat="46.1718564" lon="12.2800455"><ele>388.0</ele><time>2026-04-04T08:21:02.146Z</time></trkpt><trkpt lat="46.1718678" lon="12.2802915"><ele>388.0</ele><time>2026-04-04T08:21:03.147Z</time></trkpt><trkpt lat="46.1718827" lon="12.2805283"><ele>388.0</ele><time>2026-04-04T08:21:04.147Z</time></trkpt><trkpt lat="46.1718967" lon="12.2807536"><ele>388.0</ele><time>2026-04-04T08:21:05.146Z</time></trkpt><trkpt lat="46.1719095" lon="12.280964"><ele>388.0</ele><time>2026-04-04T08:21:06.147Z</time></trkpt><trkpt lat="46.1719243" lon="12.2811593"><ele>388.0</ele><time>2026-04-04T08:21:07.146Z</time></trkpt><trkpt lat="46.171938" lon="12.2813426"><ele>388.0</ele><time>2026-04-04T08:21:08.146Z</time></trkpt><trkpt lat="46.171951" lon="12.2815095"><ele>388.0</ele><time>2026-04-04T08:21:09.146Z</time></trkpt><trkpt lat="46.1719656" lon="12.2816645"><ele>388.4</ele><time>2026-04-04T08:21:10.146Z</time></trkpt><trkpt lat="46.1719782" lon="12.2818164"><ele>388.79999999999995</ele><time>2026-04-04T08:21:11.147Z</time></trkpt><trkpt lat="46.171992" lon="12.281958"><ele>389.2</ele><time>2026-04-04T08:21:12.147Z</time></trkpt><trkpt lat="46.172002" lon="12.282093"><ele>389.6</ele><time>2026-04-04T08:21:13.146Z</time></trkpt><trkpt lat="46.1720115" lon="12.2822179"><ele>390.0</ele><time>2026-04-04T08:21:14.147Z</time></trkpt><trkpt lat="46.1720208" lon="12.2823319"><ele>390.3333333333333</ele><time>2026-04-04T08:21:15.147Z</time></trkpt><trkpt lat="46.1720286" lon="12.282435"><ele>390.66666666666663</ele><time>2026-04-04T08:21:16.146Z</time></trkpt><trkpt lat="46.1720437" lon="12.2825734"><ele>391.0</ele><time>2026-04-04T08:21:18.146Z</time></trkpt><trkpt lat="46.17205" lon="12.2826687"><ele>391.3333333333333</ele><time>2026-04-04T08:21:20.147Z</time></trkpt><trkpt lat="46.1720542" lon="12.2827661"><ele>391.66666666666663</ele><time>2026-04-04T08:21:23.147Z</time></trkpt><trkpt lat="46.1720627" lon="12.2828759"><ele>392.0</ele><time>2026-04-04T08:21:27.148Z</time></trkpt><trkpt lat="46.1720517" lon="12.2829897"><ele>392.0</ele><time>2026-04-04T08:21:31.147Z</time></trkpt><trkpt lat="46.1720164" lon="12.2830747"><ele>392.0</ele><time>2026-04-04T08:21:33.146Z</time></trkpt><trkpt lat="46.1719395" lon="12.2832081"><ele>392.0</ele><time>2026-04-04T08:21:35.146Z</time></trkpt><trkpt lat="46.1719393" lon="12.2833845"><ele>392.0</ele><time>2026-04-04T08:21:37.147Z</time></trkpt><trkpt lat="46.1719862" lon="12.2834626"><ele>392.0</ele><time>2026-04-04T08:21:38.147Z</time></trkpt><trkpt lat="46.1720514" lon="12.2835335"><ele>392.5</ele><time>2026-04-04T08:21:39.148Z</time></trkpt><trkpt lat="46.1721121" lon="12.2836422"><ele>393.0</ele><time>2026-04-04T08:21:40.146Z</time></trkpt><trkpt lat="46.1721515" lon="12.2837831"><ele>393.5</ele><time>2026-04-04T08:21:41.146Z</time></trkpt><trkpt lat="46.172178" lon="12.2839534"><ele>394.0</ele><time>2026-04-04T08:21:42.146Z</time></trkpt><trkpt lat="46.1721988" lon="12.2841417"><ele>394.5</ele><time>2026-04-04T08:21:43.146Z</time></trkpt><trkpt lat="46.1722165" lon="12.2843473"><ele>395.0</ele><time>2026-04-04T08:21:44.147Z</time></trkpt><trkpt lat="46.1722328" lon="12.2845475"><ele>395.5</ele><time>2026-04-04T08:21:45.147Z</time></trkpt><trkpt lat="46.1722508" lon="12.2847484"><ele>396.0</ele><time>2026-04-04T08:21:46.147Z</time></trkpt><trkpt lat="46.1722664" lon="12.2849678"><ele>396.33333333333337</ele><time>2026-04-04T08:21:47.146Z</time></trkpt><trkpt lat="46.1722821" lon="12.2852016"><ele>396.6666666666667</ele><time>2026-04-04T08:21:48.147Z</time></trkpt><trkpt lat="46.1723027" lon="12.2854408"><ele>397.0</ele><time>2026-04-04T08:21:49.146Z</time></trkpt><trkpt lat="46.1723257" lon="12.2856902"><ele>399.0</ele><time>2026-04-04T08:21:50.147Z</time></trkpt><trkpt lat="46.1723496" lon="12.2859566"><ele>401.0</ele><time>2026-04-04T08:21:51.146Z</time></trkpt><trkpt lat="46.1723743" lon="12.2862449"><ele>403.0</ele><time>2026-04-04T08:21:52.147Z</time></trkpt><trkpt lat="46.172395" lon="12.2865332"><ele>400.0</ele><time>2026-04-04T08:21:53.146Z</time></trkpt><trkpt lat="46.1724152" lon="12.286818"><ele>397.0</ele><time>2026-04-04T08:21:54.146Z</time></trkpt><trkpt lat="46.1724372" lon="12.2870868"><ele>394.0</ele><time>2026-04-04T08:21:55.147Z</time></trkpt><trkpt lat="46.1724581" lon="12.2873377"><ele>394.0</ele><time>2026-04-04T08:21:56.147Z</time></trkpt><trkpt lat="46.1724777" lon="12.2875724"><ele>394.0</ele><time>2026-04-04T08:21:57.146Z</time></trkpt><trkpt lat="46.1724974" lon="12.2878074"><ele>394.0</ele><time>2026-04-04T08:21:58.146Z</time></trkpt><trkpt lat="46.1725166" lon="12.2880403"><ele>394.6666666666667</ele><time>2026-04-04T08:21:59.147Z</time></trkpt><trkpt lat="46.1725368" lon="12.2882732"><ele>395.33333333333337</ele><time>2026-04-04T08:22:00.146Z</time></trkpt><trkpt lat="46.1725627" lon="12.2885325"><ele>396.0</ele><time>2026-04-04T08:22:01.146Z</time></trkpt><trkpt lat="46.172588" lon="12.2888193"><ele>397.33333333333337</ele><time>2026-04-04T08:22:02.146Z</time></trkpt><trkpt lat="46.1726049" lon="12.2891091"><ele>398.6666666666667</ele><time>2026-04-04T08:22:03.146Z</time></trkpt><trkpt lat="46.1726256" lon="12.2893957"><ele>400.0</ele><time>2026-04-04T08:22:04.146Z</time></trkpt><trkpt lat="46.1726508" lon="12.2896834"><ele>400.33333333333337</ele><time>2026-04-04T08:22:05.146Z</time></trkpt><trkpt lat="46.1726759" lon="12.2899915"><ele>400.66666666666663</ele><time>2026-04-04T08:22:06.146Z</time></trkpt><trkpt lat="46.1726995" lon="12.2903238"><ele>401.0</ele><time>2026-04-04T08:22:07.146Z</time></trkpt><trkpt lat="46.1727278" lon="12.2906812"><ele>402.0</ele><time>2026-04-04T08:22:08.147Z</time></trkpt><trkpt lat="46.1727844" lon="12.2910387"><ele>403.0</ele><time>2026-04-04T08:22:09.146Z</time></trkpt><trkpt lat="46.1728673" lon="12.2913894"><ele>403.5</ele><time>2026-04-04T08:22:10.148Z</time></trkpt><trkpt lat="46.1729696" lon="12.2917343"><ele>404.0</ele><time>2026-04-04T08:22:11.146Z</time></trkpt><trkpt lat="46.1730853" lon="12.2920489"><ele>401.0</ele><time>2026-04-04T08:22:12.146Z</time></trkpt><trkpt lat="46.1732099" lon="12.2923339"><ele>398.0</ele><time>2026-04-04T08:22:13.146Z</time></trkpt><trkpt lat="46.1733361" lon="12.2926011"><ele>398.0</ele><time>2026-04-04T08:22:14.147Z</time></trkpt><trkpt lat="46.1734626" lon="12.2928618"><ele>398.0</ele><time>2026-04-04T08:22:15.146Z</time></trkpt><trkpt lat="46.1735885" lon="12.2931159"><ele>398.0</ele><time>2026-04-04T08:22:16.147Z</time></trkpt><trkpt lat="46.1737233" lon="12.293359"><ele>398.0</ele><time>2026-04-04T08:22:17.147Z</time></trkpt><trkpt lat="46.1738733" lon="12.2935823"><ele>398.0</ele><time>2026-04-04T08:22:18.146Z</time></trkpt><trkpt lat="46.1740398" lon="12.2937824"><ele>398.0</ele><time>2026-04-04T08:22:19.148Z</time></trkpt><trkpt lat="46.1742214" lon="12.2939573"><ele>399.66666666666663</ele><time>2026-04-04T08:22:20.146Z</time></trkpt><trkpt lat="46.1744097" lon="12.2941064"><ele>401.33333333333337</ele><time>2026-04-04T08:22:21.146Z</time></trkpt><trkpt lat="46.174598" lon="12.294243"><ele>403.0</ele><time>2026-04-04T08:22:22.146Z</time></trkpt><trkpt lat="46.1747779" lon="12.2943801"><ele>402.6666666666667</ele><time>2026-04-04T08:22:23.146Z</time></trkpt><trkpt lat="46.174945" lon="12.2945259"><ele>402.33333333333337</ele><time>2026-04-04T08:22:24.147Z</time></trkpt><trkpt lat="46.1750871" lon="12.2946856"><ele>402.0</ele><time>2026-04-04T08:22:25.147Z</time></trkpt><trkpt lat="46.1752005" lon="12.2948661"><ele>404.66666666666663</ele><time>2026-04-04T08:22:26.147Z</time></trkpt><trkpt lat="46.1752898" lon="12.2950673"><ele>407.3333333333333</ele><time>2026-04-04T08:22:27.146Z</time></trkpt><trkpt lat="46.1753506" lon="12.2952801"><ele>410.0</ele><time>2026-04-04T08:22:28.146Z</time></trkpt><trkpt lat="46.1753849" lon="12.2955037"><ele>412.3333333333333</ele><time>2026-04-04T08:22:29.146Z</time></trkpt><trkpt lat="46.1753897" lon="12.2957301"><ele>414.66666666666663</ele><time>2026-04-04T08:22:30.146Z</time></trkpt><trkpt lat="46.1753705" lon="12.2959505"><ele>417.0</ele><time>2026-04-04T08:22:31.146Z</time></trkpt><trkpt lat="46.1753269" lon="12.2961622"><ele>417.0</ele><time>2026-04-04T08:22:32.146Z</time></trkpt><trkpt lat="46.175264" lon="12.2963513"><ele>417.0</ele><time>2026-04-04T08:22:33.146Z</time></trkpt><trkpt lat="46.1751776" lon="12.2965247"><ele>417.0</ele><time>2026-04-04T08:22:34.146Z</time></trkpt><trkpt lat="46.1750704" lon="12.2966927"><ele>419.66666666666663</ele><time>2026-04-04T08:22:35.146Z</time></trkpt><trkpt lat="46.1749449" lon="12.296863"><ele>422.3333333333333</ele><time>2026-04-04T08:22:36.147Z</time></trkpt><trkpt lat="46.1748092" lon="12.2970407"><ele>425.0</ele><time>2026-04-04T08:22:37.146Z</time></trkpt><trkpt lat="46.1746674" lon="12.2972265"><ele>420.0</ele><time>2026-04-04T08:22:38.147Z</time></trkpt><trkpt lat="46.1745241" lon="12.2974154"><ele>415.0</ele><time>2026-04-04T08:22:39.146Z</time></trkpt><trkpt lat="46.1743858" lon="12.2976042"><ele>410.0</ele><time>2026-04-04T08:22:40.146Z</time></trkpt><trkpt lat="46.1742594" lon="12.2977994"><ele>410.0</ele><time>2026-04-04T08:22:41.147Z</time></trkpt><trkpt lat="46.1741505" lon="12.2979996"><ele>410.0</ele><time>2026-04-04T08:22:42.146Z</time></trkpt><trkpt lat="46.174058" lon="12.2982072"><ele>410.0</ele><time>2026-04-04T08:22:43.146Z</time></trkpt><trkpt lat="46.1739805" lon="12.2984205"><ele>410.0</ele><time>2026-04-04T08:22:44.146Z</time></trkpt><trkpt lat="46.1739182" lon="12.2986416"><ele>410.0</ele><time>2026-04-04T08:22:45.146Z</time></trkpt><trkpt lat="46.1738683" lon="12.2988697"><ele>410.0</ele><time>2026-04-04T08:22:46.148Z</time></trkpt><trkpt lat="46.1738279" lon="12.2991"><ele>410.0</ele><time>2026-04-04T08:22:47.147Z</time></trkpt><trkpt lat="46.1737962" lon="12.2993264"><ele>410.0</ele><time>2026-04-04T08:22:48.146Z</time></trkpt><trkpt lat="46.1737637" lon="12.2995418"><ele>410.0</ele><time>2026-04-04T08:22:49.146Z</time></trkpt><trkpt lat="46.1737341" lon="12.2997368"><ele>408.0</ele><time>2026-04-04T08:22:50.147Z</time></trkpt><trkpt lat="46.1737059" lon="12.2999239"><ele>406.0</ele><time>2026-04-04T08:22:51.146Z</time></trkpt><trkpt lat="46.1736839" lon="12.3001012"><ele>404.0</ele><time>2026-04-04T08:22:52.147Z</time></trkpt><trkpt lat="46.1736815" lon="12.3002658"><ele>402.0</ele><time>2026-04-04T08:22:53.147Z</time></trkpt><trkpt lat="46.1737081" lon="12.300417"><ele>402.0</ele><time>2026-04-04T08:22:54.146Z</time></trkpt><trkpt lat="46.173759" lon="12.3005515"><ele>402.0</ele><time>2026-04-04T08:22:55.146Z</time></trkpt><trkpt lat="46.1738261" lon="12.3006817"><ele>402.0</ele><time>2026-04-04T08:22:56.148Z</time></trkpt><trkpt lat="46.1738927" lon="12.3008124"><ele>402.0</ele><time>2026-04-04T08:22:57.147Z</time></trkpt><trkpt lat="46.1739477" lon="12.3009517"><ele>402.0</ele><time>2026-04-04T08:22:58.147Z</time></trkpt><trkpt lat="46.1739882" lon="12.301096"><ele>402.6</ele><time>2026-04-04T08:22:59.146Z</time></trkpt><trkpt lat="46.1740071" lon="12.3012431"><ele>403.20000000000005</ele><time>2026-04-04T08:23:00.147Z</time></trkpt><trkpt lat="46.1740115" lon="12.3013854"><ele>403.8</ele><time>2026-04-04T08:23:01.147Z</time></trkpt><trkpt lat="46.1740073" lon="12.3015394"><ele>404.4</ele><time>2026-04-04T08:23:02.148Z</time></trkpt><trkpt lat="46.1740019" lon="12.3017013"><ele>405.0</ele><time>2026-04-04T08:23:03.146Z</time></trkpt><trkpt lat="46.1739972" lon="12.3018751"><ele>406.0</ele><time>2026-04-04T08:23:04.147Z</time></trkpt><trkpt lat="46.1739911" lon="12.3020639"><ele>407.0</ele><time>2026-04-04T08:23:05.146Z</time></trkpt><trkpt lat="46.1739835" lon="12.3022678"><ele>408.0</ele><time>2026-04-04T08:23:06.147Z</time></trkpt><trkpt lat="46.1739752" lon="12.3024831"><ele>409.0</ele><time>2026-04-04T08:23:07.147Z</time></trkpt><trkpt lat="46.1739654" lon="12.3027038"><ele>409.33333333333337</ele><time>2026-04-04T08:23:08.146Z</time></trkpt><trkpt lat="46.1739586" lon="12.3029264"><ele>409.66666666666663</ele><time>2026-04-04T08:23:09.146Z</time></trkpt><trkpt lat="46.1739445" lon="12.3031565"><ele>410.0</ele><time>2026-04-04T08:23:10.146Z</time></trkpt><trkpt lat="46.1739112" lon="12.3033838"><ele>409.3333333333333</ele><time>2026-04-04T08:23:11.148Z</time></trkpt><trkpt lat="46.1738582" lon="12.3035964"><ele>408.66666666666663</ele><time>2026-04-04T08:23:12.147Z</time></trkpt><trkpt lat="46.1737838" lon="12.3037826"><ele>408.0</ele><time>2026-04-04T08:23:13.147Z</time></trkpt><trkpt lat="46.1736878" lon="12.3039452"><ele>404.66666666666663</ele><time>2026-04-04T08:23:14.147Z</time></trkpt><trkpt lat="46.17357" lon="12.3040748"><ele>401.3333333333333</ele><time>2026-04-04T08:23:15.146Z</time></trkpt><trkpt lat="46.173436" lon="12.3041759"><ele>398.0</ele><time>2026-04-04T08:23:16.146Z</time></trkpt><trkpt lat="46.1732926" lon="12.3042757"><ele>399.0</ele><time>2026-04-04T08:23:17.148Z</time></trkpt><trkpt lat="46.1731632" lon="12.3044205"><ele>400.0</ele><time>2026-04-04T08:23:18.146Z</time></trkpt><trkpt lat="46.1730535" lon="12.3046036"><ele>401.0</ele><time>2026-04-04T08:23:19.146Z</time></trkpt><trkpt lat="46.1729551" lon="12.3048199"><ele>401.0</ele><time>2026-04-04T08:23:20.146Z</time></trkpt><trkpt lat="46.1728626" lon="12.3050478"><ele>401.0</ele><time>2026-04-04T08:23:21.146Z</time></trkpt><trkpt lat="46.1727669" lon="12.3052789"><ele>401.0</ele><time>2026-04-04T08:23:22.147Z</time></trkpt><trkpt lat="46.1726707" lon="12.3055059"><ele>398.66666666666663</ele><time>2026-04-04T08:23:23.148Z</time></trkpt><trkpt lat="46.1725824" lon="12.3057222"><ele>396.33333333333337</ele><time>2026-04-04T08:23:24.147Z</time></trkpt><trkpt lat="46.1724897" lon="12.3059345"><ele>394.0</ele><time>2026-04-04T08:23:25.147Z</time></trkpt><trkpt lat="46.1723838" lon="12.3061397"><ele>396.6666666666667</ele><time>2026-04-04T08:23:26.146Z</time></trkpt><trkpt lat="46.1722624" lon="12.3063387"><ele>399.33333333333337</ele><time>2026-04-04T08:23:27.147Z</time></trkpt><trkpt lat="46.1721301" lon="12.3065428"><ele>402.0</ele><time>2026-04-04T08:23:28.147Z</time></trkpt><trkpt lat="46.1719885" lon="12.3067619"><ele>402.0</ele><time>2026-04-04T08:23:29.147Z</time></trkpt><trkpt lat="46.1718364" lon="12.3070046"><ele>402.0</ele><time>2026-04-04T08:23:30.148Z</time></trkpt><trkpt lat="46.1716743" lon="12.3072631"><ele>406.0</ele><time>2026-04-04T08:23:31.147Z</time></trkpt><trkpt lat="46.1715134" lon="12.3075332"><ele>410.0</ele><time>2026-04-04T08:23:32.147Z</time></trkpt><trkpt lat="46.1713531" lon="12.3078091"><ele>410.0</ele><time>2026-04-04T08:23:33.146Z</time></trkpt><trkpt lat="46.1712003" lon="12.3080725"><ele>410.0</ele><time>2026-04-04T08:23:34.147Z</time></trkpt><trkpt lat="46.1710561" lon="12.3083265"><ele>409.0</ele><time>2026-04-04T08:23:35.147Z</time></trkpt><trkpt lat="46.1709165" lon="12.3085655"><ele>408.0</ele><time>2026-04-04T08:23:36.148Z</time></trkpt><trkpt lat="46.1707709" lon="12.3087875"><ele>407.0</ele><time>2026-04-04T08:23:37.147Z</time></trkpt><trkpt lat="46.1706142" lon="12.3090073"><ele>407.0</ele><time>2026-04-04T08:23:38.146Z</time></trkpt><trkpt lat="46.1704505" lon="12.3092313"><ele>407.0</ele><time>2026-04-04T08:23:39.146Z</time></trkpt><trkpt lat="46.1702907" lon="12.3094641"><ele>407.0</ele><time>2026-04-04T08:23:40.146Z</time></trkpt><trkpt lat="46.1701367" lon="12.3097086"><ele>407.0</ele><time>2026-04-04T08:23:41.146Z</time></trkpt><trkpt lat="46.1699924" lon="12.3099507"><ele>408.3333333333333</ele><time>2026-04-04T08:23:42.148Z</time></trkpt><trkpt lat="46.1698626" lon="12.3101945"><ele>409.66666666666663</ele><time>2026-04-04T08:23:43.146Z</time></trkpt><trkpt lat="46.1697444" lon="12.3104268"><ele>411.0</ele><time>2026-04-04T08:23:44.146Z</time></trkpt><trkpt lat="46.1696234" lon="12.3106531"><ele>406.0</ele><time>2026-04-04T08:23:45.146Z</time></trkpt><trkpt lat="46.1694923" lon="12.310863"><ele>401.0</ele><time>2026-04-04T08:23:46.146Z</time></trkpt><trkpt lat="46.1693446" lon="12.3110647"><ele>396.0</ele><time>2026-04-04T08:23:47.146Z</time></trkpt><trkpt lat="46.1691829" lon="12.3112527"><ele>395.33333333333337</ele><time>2026-04-04T08:23:48.146Z</time></trkpt><trkpt lat="46.1690044" lon="12.3114274"><ele>394.6666666666667</ele><time>2026-04-04T08:23:49.146Z</time></trkpt><trkpt lat="46.1688122" lon="12.3115818"><ele>394.0</ele><time>2026-04-04T08:23:50.146Z</time></trkpt><trkpt lat="46.1686089" lon="12.3117185"><ele>394.0</ele><time>2026-04-04T08:23:51.146Z</time></trkpt><trkpt lat="46.1684014" lon="12.3118437"><ele>394.0</ele><time>2026-04-04T08:23:52.146Z</time></trkpt><trkpt lat="46.1681912" lon="12.3119694"><ele>394.33333333333337</ele><time>2026-04-04T08:23:53.147Z</time></trkpt><trkpt lat="46.1679831" lon="12.3120978"><ele>394.66666666666663</ele><time>2026-04-04T08:23:54.146Z</time></trkpt><trkpt lat="46.1677808" lon="12.3122222"><ele>395.0</ele><time>2026-04-04T08:23:55.146Z</time></trkpt><trkpt lat="46.16758" lon="12.3123439"><ele>395.0</ele><time>2026-04-04T08:23:56.146Z</time></trkpt><trkpt lat="46.1673777" lon="12.3124637"><ele>395.0</ele><time>2026-04-04T08:23:57.147Z</time></trkpt><trkpt lat="46.167172" lon="12.3125842"><ele>395.0</ele><time>2026-04-04T08:23:58.146Z</time></trkpt><trkpt lat="46.1669649" lon="12.3127073"><ele>395.5</ele><time>2026-04-04T08:23:59.146Z</time></trkpt><trkpt lat="46.1667601" lon="12.3128277"><ele>396.0</ele><time>2026-04-04T08:24:00.146Z</time></trkpt><trkpt lat="46.1665518" lon="12.3129655"><ele>398.33333333333337</ele><time>2026-04-04T08:24:01.147Z</time></trkpt><trkpt lat="46.1663579" lon="12.3131102"><ele>400.6666666666667</ele><time>2026-04-04T08:24:02.146Z</time></trkpt><trkpt lat="46.1661691" lon="12.3132809"><ele>403.0</ele><time>2026-04-04T08:24:03.146Z</time></trkpt><trkpt lat="46.1659925" lon="12.3134748"><ele>403.0</ele><time>2026-04-04T08:24:04.147Z</time></trkpt><trkpt lat="46.1658327" lon="12.3137015"><ele>403.0</ele><time>2026-04-04T08:24:05.146Z</time></trkpt><trkpt lat="46.1656885" lon="12.3139458"><ele>403.0</ele><time>2026-04-04T08:24:06.146Z</time></trkpt><trkpt lat="46.1655426" lon="12.3142023"><ele>398.0</ele><time>2026-04-04T08:24:07.146Z</time></trkpt><trkpt lat="46.1653891" lon="12.3144645"><ele>393.0</ele><time>2026-04-04T08:24:08.147Z</time></trkpt><trkpt lat="46.1652377" lon="12.3147169"><ele>392.33333333333337</ele><time>2026-04-04T08:24:09.146Z</time></trkpt><trkpt lat="46.1650881" lon="12.3149501"><ele>391.6666666666667</ele><time>2026-04-04T08:24:10.146Z</time></trkpt><trkpt lat="46.164947" lon="12.3151748"><ele>391.0</ele><time>2026-04-04T08:24:11.146Z</time></trkpt><trkpt lat="46.1648132" lon="12.3153829"><ele>392.33333333333337</ele><time>2026-04-04T08:24:12.147Z</time></trkpt><trkpt lat="46.164685" lon="12.3155785"><ele>393.66666666666663</ele><time>2026-04-04T08:24:13.146Z</time></trkpt><trkpt lat="46.1645562" lon="12.3157753"><ele>395.0</ele><time>2026-04-04T08:24:14.147Z</time></trkpt><trkpt lat="46.1644235" lon="12.3159906"><ele>395.0</ele><time>2026-04-04T08:24:15.147Z</time></trkpt><trkpt lat="46.1642897" lon="12.3162104"><ele>395.0</ele><time>2026-04-04T08:24:16.146Z</time></trkpt><trkpt lat="46.1641561" lon="12.3164328"><ele>395.0</ele><time>2026-04-04T08:24:17.148Z</time></trkpt><trkpt lat="46.1640224" lon="12.3166544"><ele>396.66666666666663</ele><time>2026-04-04T08:24:18.147Z</time></trkpt><trkpt lat="46.1638893" lon="12.3168766"><ele>398.33333333333337</ele><time>2026-04-04T08:24:19.148Z</time></trkpt><trkpt lat="46.1637563" lon="12.3171012"><ele>400.0</ele><time>2026-04-04T08:24:20.146Z</time></trkpt><trkpt lat="46.1636188" lon="12.3173225"><ele>400.0</ele><time>2026-04-04T08:24:21.148Z</time></trkpt><trkpt lat="46.1634765" lon="12.317537"><ele>400.0</ele><time>2026-04-04T08:24:22.146Z</time></trkpt><trkpt lat="46.1633257" lon="12.3177379"><ele>400.0</ele><time>2026-04-04T08:24:23.146Z</time></trkpt><trkpt lat="46.1631601" lon="12.3179446"><ele>400.0</ele><time>2026-04-04T08:24:24.146Z</time></trkpt><trkpt lat="46.1629851" lon="12.3181592"><ele>400.0</ele><time>2026-04-04T08:24:25.146Z</time></trkpt><trkpt lat="46.1627902" lon="12.3183789"><ele>400.0</ele><time>2026-04-04T08:24:26.146Z</time></trkpt><trkpt lat="46.1625782" lon="12.318595"><ele>400.0</ele><time>2026-04-04T08:24:27.147Z</time></trkpt><trkpt lat="46.162362" lon="12.3188109"><ele>400.0</ele><time>2026-04-04T08:24:28.148Z</time></trkpt><trkpt lat="46.162155" lon="12.3190329"><ele>400.0</ele><time>2026-04-04T08:24:29.146Z</time></trkpt><trkpt lat="46.1619648" lon="12.3192459"><ele>400.0</ele><time>2026-04-04T08:24:30.147Z</time></trkpt><trkpt lat="46.1617987" lon="12.3194306"><ele>400.0</ele><time>2026-04-04T08:24:31.146Z</time></trkpt><trkpt lat="46.1616411" lon="12.3195708"><ele>400.0</ele><time>2026-04-04T08:24:32.146Z</time></trkpt><trkpt lat="46.1614747" lon="12.3196513"><ele>398.0</ele><time>2026-04-04T08:24:33.147Z</time></trkpt><trkpt lat="46.1612991" lon="12.3196867"><ele>396.0</ele><time>2026-04-04T08:24:34.148Z</time></trkpt><trkpt lat="46.1611198" lon="12.3196667"><ele>394.0</ele><time>2026-04-04T08:24:35.148Z</time></trkpt><trkpt lat="46.1609502" lon="12.3195815"><ele>394.0</ele><time>2026-04-04T08:24:36.147Z</time></trkpt><trkpt lat="46.1607853" lon="12.3194379"><ele>394.0</ele><time>2026-04-04T08:24:37.148Z</time></trkpt><trkpt lat="46.1606076" lon="12.3192627"><ele>394.0</ele><time>2026-04-04T08:24:38.148Z</time></trkpt><trkpt lat="46.1604171" lon="12.3190664"><ele>393.5</ele><time>2026-04-04T08:24:39.147Z</time></trkpt><trkpt lat="46.1602081" lon="12.3188642"><ele>393.0</ele><time>2026-04-04T08:24:40.148Z</time></trkpt><trkpt lat="46.1599864" lon="12.3186745"><ele>388.5</ele><time>2026-04-04T08:24:41.148Z</time></trkpt><trkpt lat="46.1597585" lon="12.3185104"><ele>384.0</ele><time>2026-04-04T08:24:42.147Z</time></trkpt><trkpt lat="46.1595201" lon="12.3183709"><ele>384.0</ele><time>2026-04-04T08:24:43.148Z</time></trkpt><trkpt lat="46.1592737" lon="12.3182631"><ele>384.0</ele><time>2026-04-04T08:24:44.147Z</time></trkpt><trkpt lat="46.1590205" lon="12.3181878"><ele>383.0</ele><time>2026-04-04T08:24:45.148Z</time></trkpt><trkpt lat="46.1587595" lon="12.3181466"><ele>382.0</ele><time>2026-04-04T08:24:46.148Z</time></trkpt><trkpt lat="46.1584951" lon="12.318134"><ele>382.0</ele><time>2026-04-04T08:24:47.147Z</time></trkpt><trkpt lat="46.1582333" lon="12.3181479"><ele>382.0</ele><time>2026-04-04T08:24:48.147Z</time></trkpt><trkpt lat="46.1579758" lon="12.3181757"><ele>382.5</ele><time>2026-04-04T08:24:49.149Z</time></trkpt><trkpt lat="46.1577196" lon="12.3182121"><ele>383.0</ele><time>2026-04-04T08:24:50.149Z</time></trkpt><trkpt lat="46.1574683" lon="12.318261"><ele>386.5</ele><time>2026-04-04T08:24:51.148Z</time></trkpt><trkpt lat="46.15722" lon="12.3183247"><ele>390.0</ele><time>2026-04-04T08:24:52.147Z</time></trkpt><trkpt lat="46.1569782" lon="12.3183983"><ele>390.0</ele><time>2026-04-04T08:24:53.147Z</time></trkpt><trkpt lat="46.1567527" lon="12.3184681"><ele>390.0</ele><time>2026-04-04T08:24:54.149Z</time></trkpt><trkpt lat="46.1565474" lon="12.3185324"><ele>390.0</ele><time>2026-04-04T08:24:55.148Z</time></trkpt><trkpt lat="46.156352" lon="12.3185918"><ele>391.0</ele><time>2026-04-04T08:24:56.148Z</time></trkpt><trkpt lat="46.1561583" lon="12.3186475"><ele>392.0</ele><time>2026-04-04T08:24:57.147Z</time></trkpt><trkpt lat="46.1559628" lon="12.3187042"><ele>393.0</ele><time>2026-04-04T08:24:58.147Z</time></trkpt><trkpt lat="46.155765" lon="12.3187688"><ele>395.33333333333337</ele><time>2026-04-04T08:24:59.147Z</time></trkpt><trkpt lat="46.155561" lon="12.3188388"><ele>397.6666666666667</ele><time>2026-04-04T08:25:00.149Z</time></trkpt><trkpt lat="46.1553534" lon="12.3189054"><ele>400.0</ele><time>2026-04-04T08:25:01.148Z</time></trkpt><trkpt lat="46.1551421" lon="12.3189732"><ele>396.0</ele><time>2026-04-04T08:25:02.148Z</time></trkpt><trkpt lat="46.1549278" lon="12.3190389"><ele>392.0</ele><time>2026-04-04T08:25:03.148Z</time></trkpt><trkpt lat="46.1547138" lon="12.3191003"><ele>388.0</ele><time>2026-04-04T08:25:04.147Z</time></trkpt><trkpt lat="46.154505" lon="12.3191495"><ele>388.0</ele><time>2026-04-04T08:25:05.147Z</time></trkpt><trkpt lat="46.1543019" lon="12.3191938"><ele>388.0</ele><time>2026-04-04T08:25:06.148Z</time></trkpt><trkpt lat="46.1540977" lon="12.3192322"><ele>388.0</ele><time>2026-04-04T08:25:07.148Z</time></trkpt><trkpt lat="46.1538926" lon="12.3192621"><ele>389.0</ele><time>2026-04-04T08:25:08.148Z</time></trkpt><trkpt lat="46.153685" lon="12.3192847"><ele>390.0</ele><time>2026-04-04T08:25:09.147Z</time></trkpt><trkpt lat="46.1534735" lon="12.3193044"><ele>391.0</ele><time>2026-04-04T08:25:10.147Z</time></trkpt><trkpt lat="46.1532582" lon="12.3193128"><ele>391.0</ele><time>2026-04-04T08:25:11.148Z</time></trkpt><trkpt lat="46.1530411" lon="12.3193163"><ele>391.0</ele><time>2026-04-04T08:25:12.148Z</time></trkpt><trkpt lat="46.1528331" lon="12.3193145"><ele>391.0</ele><time>2026-04-04T08:25:13.148Z</time></trkpt><trkpt lat="46.1526331" lon="12.3193178"><ele>391.0</ele><time>2026-04-04T08:25:14.147Z</time></trkpt><trkpt lat="46.152436" lon="12.3193209"><ele>391.0</ele><time>2026-04-04T08:25:15.147Z</time></trkpt><trkpt lat="46.1522379" lon="12.319323"><ele>391.0</ele><time>2026-04-04T08:25:16.147Z</time></trkpt><trkpt lat="46.1520385" lon="12.3193221"><ele>391.33333333333337</ele><time>2026-04-04T08:25:17.149Z</time></trkpt><trkpt lat="46.1518392" lon="12.3193166"><ele>391.66666666666663</ele><time>2026-04-04T08:25:18.148Z</time></trkpt><trkpt lat="46.1516415" lon="12.3193023"><ele>392.0</ele><time>2026-04-04T08:25:19.148Z</time></trkpt><trkpt lat="46.1514465" lon="12.3192765"><ele>390.66666666666663</ele><time>2026-04-04T08:25:20.147Z</time></trkpt><trkpt lat="46.1512663" lon="12.3192343"><ele>389.33333333333337</ele><time>2026-04-04T08:25:21.147Z</time></trkpt><trkpt lat="46.1510988" lon="12.3191708"><ele>388.0</ele><time>2026-04-04T08:25:22.149Z</time></trkpt><trkpt lat="46.1509415" lon="12.3190965"><ele>388.0</ele><time>2026-04-04T08:25:23.147Z</time></trkpt><trkpt lat="46.1507932" lon="12.3190249"><ele>388.0</ele><time>2026-04-04T08:25:24.147Z</time></trkpt><trkpt lat="46.1506338" lon="12.3190015"><ele>388.0</ele><time>2026-04-04T08:25:25.147Z</time></trkpt><trkpt lat="46.1504695" lon="12.3190081"><ele>389.0</ele><time>2026-04-04T08:25:26.148Z</time></trkpt><trkpt lat="46.1503031" lon="12.3190395"><ele>390.0</ele><time>2026-04-04T08:25:27.148Z</time></trkpt><trkpt lat="46.150137" lon="12.3190785"><ele>391.0</ele><time>2026-04-04T08:25:28.148Z</time></trkpt><trkpt lat="46.149968" lon="12.3191173"><ele>390.6666666666667</ele><time>2026-04-04T08:25:29.147Z</time></trkpt><trkpt lat="46.1497972" lon="12.3191548"><ele>390.33333333333337</ele><time>2026-04-04T08:25:30.148Z</time></trkpt><trkpt lat="46.1496263" lon="12.319189"><ele>390.0</ele><time>2026-04-04T08:25:31.149Z</time></trkpt><trkpt lat="46.1494552" lon="12.3192265"><ele>390.0</ele><time>2026-04-04T08:25:32.149Z</time></trkpt><trkpt lat="46.1492825" lon="12.3192599"><ele>390.0</ele><time>2026-04-04T08:25:33.148Z</time></trkpt><trkpt lat="46.149107" lon="12.3192745"><ele>390.0</ele><time>2026-04-04T08:25:34.149Z</time></trkpt><trkpt lat="46.1489246" lon="12.319264"><ele>390.33333333333337</ele><time>2026-04-04T08:25:35.147Z</time></trkpt><trkpt lat="46.1487331" lon="12.3192375"><ele>390.6666666666667</ele><time>2026-04-04T08:25:36.147Z</time></trkpt><trkpt lat="46.1485312" lon="12.3191995"><ele>391.0</ele><time>2026-04-04T08:25:37.148Z</time></trkpt><trkpt lat="46.1483312" lon="12.3191601"><ele>391.33333333333337</ele><time>2026-04-04T08:25:38.147Z</time></trkpt><trkpt lat="46.1481409" lon="12.3191274"><ele>391.66666666666663</ele><time>2026-04-04T08:25:39.147Z</time></trkpt><trkpt lat="46.1479564" lon="12.3191046"><ele>392.0</ele><time>2026-04-04T08:25:40.148Z</time></trkpt><trkpt lat="46.1477691" lon="12.3191005"><ele>392.0</ele><time>2026-04-04T08:25:41.147Z</time></trkpt><trkpt lat="46.1475778" lon="12.3191159"><ele>392.0</ele><time>2026-04-04T08:25:42.149Z</time></trkpt><trkpt lat="46.1473822" lon="12.3191472"><ele>392.0</ele><time>2026-04-04T08:25:43.149Z</time></trkpt><trkpt lat="46.1471817" lon="12.3191859"><ele>392.66666666666663</ele><time>2026-04-04T08:25:44.147Z</time></trkpt><trkpt lat="46.1469769" lon="12.3192231"><ele>393.33333333333337</ele><time>2026-04-04T08:25:45.147Z</time></trkpt><trkpt lat="46.1467749" lon="12.3192607"><ele>394.0</ele><time>2026-04-04T08:25:46.148Z</time></trkpt><trkpt lat="46.1465745" lon="12.3192984"><ele>393.6666666666667</ele><time>2026-04-04T08:25:47.148Z</time></trkpt><trkpt lat="46.1463755" lon="12.319336"><ele>393.33333333333337</ele><time>2026-04-04T08:25:48.149Z</time></trkpt><trkpt lat="46.1461781" lon="12.3193739"><ele>393.0</ele><time>2026-04-04T08:25:49.147Z</time></trkpt><trkpt lat="46.1459854" lon="12.3194053"><ele>393.0</ele><time>2026-04-04T08:25:50.147Z</time></trkpt><trkpt lat="46.1457934" lon="12.3194186"><ele>393.0</ele><time>2026-04-04T08:25:51.148Z</time></trkpt><trkpt lat="46.1456017" lon="12.3194015"><ele>393.0</ele><time>2026-04-04T08:25:52.149Z</time></trkpt><trkpt lat="46.1454104" lon="12.3193512"><ele>390.66666666666663</ele><time>2026-04-04T08:25:53.148Z</time></trkpt><trkpt lat="46.145223" lon="12.3192693"><ele>388.3333333333333</ele><time>2026-04-04T08:25:54.148Z</time></trkpt><trkpt lat="46.1450418" lon="12.3191535"><ele>386.0</ele><time>2026-04-04T08:25:55.148Z</time></trkpt><trkpt lat="46.1448684" lon="12.3190115"><ele>387.3333333333333</ele><time>2026-04-04T08:25:56.147Z</time></trkpt><trkpt lat="46.1447031" lon="12.3188475"><ele>388.66666666666663</ele><time>2026-04-04T08:25:57.148Z</time></trkpt><trkpt lat="46.144538" lon="12.3186741"><ele>390.0</ele><time>2026-04-04T08:25:58.147Z</time></trkpt><trkpt lat="46.1443608" lon="12.3185207"><ele>390.0</ele><time>2026-04-04T08:25:59.147Z</time></trkpt><trkpt lat="46.1441704" lon="12.3183977"><ele>390.0</ele><time>2026-04-04T08:26:00.147Z</time></trkpt><trkpt lat="46.1439741" lon="12.3183051"><ele>390.0</ele><time>2026-04-04T08:26:01.148Z</time></trkpt><trkpt lat="46.1437788" lon="12.3182337"><ele>388.66666666666663</ele><time>2026-04-04T08:26:02.147Z</time></trkpt><trkpt lat="46.143585" lon="12.318168"><ele>387.3333333333333</ele><time>2026-04-04T08:26:03.148Z</time></trkpt><trkpt lat="46.1433924" lon="12.3180929"><ele>386.0</ele><time>2026-04-04T08:26:04.147Z</time></trkpt><trkpt lat="46.1432079" lon="12.317988"><ele>385.66666666666663</ele><time>2026-04-04T08:26:05.147Z</time></trkpt><trkpt lat="46.1430331" lon="12.3178483"><ele>385.33333333333337</ele><time>2026-04-04T08:26:06.147Z</time></trkpt><trkpt lat="46.1428676" lon="12.3176852"><ele>385.0</ele><time>2026-04-04T08:26:07.148Z</time></trkpt><trkpt lat="46.1426982" lon="12.3175172"><ele>385.0</ele><time>2026-04-04T08:26:08.147Z</time></trkpt><trkpt lat="46.1425176" lon="12.3173659"><ele>385.0</ele><time>2026-04-04T08:26:09.148Z</time></trkpt><trkpt lat="46.1423284" lon="12.3172275"><ele>385.0</ele><time>2026-04-04T08:26:10.147Z</time></trkpt><trkpt lat="46.142131" lon="12.3171032"><ele>385.0</ele><time>2026-04-04T08:26:11.148Z</time></trkpt><trkpt lat="46.1419302" lon="12.3169911"><ele>385.0</ele><time>2026-04-04T08:26:12.147Z</time></trkpt><trkpt lat="46.1417292" lon="12.316887"><ele>385.0</ele><time>2026-04-04T08:26:13.147Z</time></trkpt><trkpt lat="46.1415339" lon="12.3167966"><ele>385.0</ele><time>2026-04-04T08:26:14.148Z</time></trkpt><trkpt lat="46.1413406" lon="12.3167124"><ele>385.0</ele><time>2026-04-04T08:26:15.149Z</time></trkpt><trkpt lat="46.1411459" lon="12.3166302"><ele>385.0</ele><time>2026-04-04T08:26:16.147Z</time></trkpt><trkpt lat="46.1409512" lon="12.3165495"><ele>385.0</ele><time>2026-04-04T08:26:17.148Z</time></trkpt><trkpt lat="46.1407571" lon="12.3164703"><ele>385.0</ele><time>2026-04-04T08:26:18.147Z</time></trkpt><trkpt lat="46.1405595" lon="12.3164074"><ele>385.0</ele><time>2026-04-04T08:26:19.147Z</time></trkpt><trkpt lat="46.1403575" lon="12.3163718"><ele>385.0</ele><time>2026-04-04T08:26:20.147Z</time></trkpt><trkpt lat="46.1401513" lon="12.3163648"><ele>385.0</ele><time>2026-04-04T08:26:21.147Z</time></trkpt><trkpt lat="46.1399412" lon="12.3163837"><ele>385.0</ele><time>2026-04-04T08:26:22.148Z</time></trkpt><trkpt lat="46.1397297" lon="12.3164176"><ele>385.0</ele><time>2026-04-04T08:26:23.148Z</time></trkpt><trkpt lat="46.1395153" lon="12.3164613"><ele>385.0</ele><time>2026-04-04T08:26:24.147Z</time></trkpt><trkpt lat="46.1393028" lon="12.3165196"><ele>385.0</ele><time>2026-04-04T08:26:25.147Z</time></trkpt><trkpt lat="46.1390892" lon="12.3165945"><ele>386.33333333333337</ele><time>2026-04-04T08:26:26.147Z</time></trkpt><trkpt lat="46.1388784" lon="12.3166893"><ele>387.66666666666663</ele><time>2026-04-04T08:26:27.148Z</time></trkpt><trkpt lat="46.1386663" lon="12.3167863"><ele>389.0</ele><time>2026-04-04T08:26:28.148Z</time></trkpt><trkpt lat="46.1384557" lon="12.3168799"><ele>389.0</ele><time>2026-04-04T08:26:29.148Z</time></trkpt><trkpt lat="46.138249" lon="12.3169545"><ele>389.0</ele><time>2026-04-04T08:26:30.148Z</time></trkpt><trkpt lat="46.1380415" lon="12.3170035"><ele>389.0</ele><time>2026-04-04T08:26:31.148Z</time></trkpt><trkpt lat="46.1378293" lon="12.3170184"><ele>389.0</ele><time>2026-04-04T08:26:32.148Z</time></trkpt><trkpt lat="46.1376159" lon="12.3170075"><ele>389.0</ele><time>2026-04-04T08:26:33.147Z</time></trkpt><trkpt lat="46.1374" lon="12.3169787"><ele>389.0</ele><time>2026-04-04T08:26:34.148Z</time></trkpt><trkpt lat="46.1371845" lon="12.3169432"><ele>389.0</ele><time>2026-04-04T08:26:35.148Z</time></trkpt><trkpt lat="46.1369648" lon="12.3169109"><ele>389.0</ele><time>2026-04-04T08:26:36.147Z</time></trkpt><trkpt lat="46.1367456" lon="12.3168848"><ele>389.0</ele><time>2026-04-04T08:26:37.148Z</time></trkpt><trkpt lat="46.1365264" lon="12.3168575"><ele>388.66666666666663</ele><time>2026-04-04T08:26:38.147Z</time></trkpt><trkpt lat="46.1363138" lon="12.3168386"><ele>388.33333333333337</ele><time>2026-04-04T08:26:39.149Z</time></trkpt><trkpt lat="46.1361102" lon="12.3168282"><ele>388.0</ele><time>2026-04-04T08:26:40.147Z</time></trkpt><trkpt lat="46.1359181" lon="12.3168194"><ele>388.0</ele><time>2026-04-04T08:26:41.147Z</time></trkpt><trkpt lat="46.1357308" lon="12.3168118"><ele>388.0</ele><time>2026-04-04T08:26:42.148Z</time></trkpt><trkpt lat="46.1355508" lon="12.3168024"><ele>388.0</ele><time>2026-04-04T08:26:43.147Z</time></trkpt><trkpt lat="46.1353778" lon="12.3167912"><ele>388.33333333333337</ele><time>2026-04-04T08:26:44.147Z</time></trkpt><trkpt lat="46.1352057" lon="12.3167833"><ele>388.66666666666663</ele><time>2026-04-04T08:26:45.147Z</time></trkpt><trkpt lat="46.1350285" lon="12.3167769"><ele>389.0</ele><time>2026-04-04T08:26:46.147Z</time></trkpt><trkpt lat="46.134848" lon="12.3167704"><ele>389.0</ele><time>2026-04-04T08:26:47.148Z</time></trkpt><trkpt lat="46.134663" lon="12.3167654"><ele>389.0</ele><time>2026-04-04T08:26:48.148Z</time></trkpt><trkpt lat="46.1344742" lon="12.3167652"><ele>389.0</ele><time>2026-04-04T08:26:49.148Z</time></trkpt><trkpt lat="46.1342837" lon="12.3167771"><ele>389.0</ele><time>2026-04-04T08:26:50.147Z</time></trkpt><trkpt lat="46.1340891" lon="12.3168141"><ele>389.0</ele><time>2026-04-04T08:26:51.147Z</time></trkpt><trkpt lat="46.1339014" lon="12.3168697"><ele>389.0</ele><time>2026-04-04T08:26:52.147Z</time></trkpt><trkpt lat="46.1337272" lon="12.3169295"><ele>391.66666666666663</ele><time>2026-04-04T08:26:53.147Z</time></trkpt><trkpt lat="46.1335677" lon="12.3169868"><ele>394.33333333333337</ele><time>2026-04-04T08:26:54.147Z</time></trkpt><trkpt lat="46.1334199" lon="12.3170388"><ele>397.0</ele><time>2026-04-04T08:26:55.147Z</time></trkpt><trkpt lat="46.1332846" lon="12.3170817"><ele>397.5</ele><time>2026-04-04T08:26:56.148Z</time></trkpt><trkpt lat="46.1331646" lon="12.3171159"><ele>398.0</ele><time>2026-04-04T08:26:57.148Z</time></trkpt><trkpt lat="46.1330512" lon="12.3171409"><ele>398.5</ele><time>2026-04-04T08:26:58.147Z</time></trkpt><trkpt lat="46.1329428" lon="12.3171587"><ele>399.0</ele><time>2026-04-04T08:26:59.148Z</time></trkpt><trkpt lat="46.1328368" lon="12.3171642"><ele>399.0</ele><time>2026-04-04T08:27:00.147Z</time></trkpt><trkpt lat="46.1327384" lon="12.3171596"><ele>399.0</ele><time>2026-04-04T08:27:01.148Z</time></trkpt><trkpt lat="46.13265" lon="12.3171543"><ele>399.0</ele><time>2026-04-04T08:27:02.147Z</time></trkpt><trkpt lat="46.1325756" lon="12.3171606"><ele>399.0</ele><time>2026-04-04T08:27:03.147Z</time></trkpt><trkpt lat="46.1325148" lon="12.3171936"><ele>399.0</ele><time>2026-04-04T08:27:04.147Z</time></trkpt><trkpt lat="46.1324517" lon="12.3173597"><ele>396.4</ele><time>2026-04-04T08:27:06.147Z</time></trkpt><trkpt lat="46.1324487" lon="12.3174788"><ele>393.79999999999995</ele><time>2026-04-04T08:27:07.147Z</time></trkpt><trkpt lat="46.1324577" lon="12.3176198"><ele>391.20000000000005</ele><time>2026-04-04T08:27:08.148Z</time></trkpt><trkpt lat="46.1324675" lon="12.3177794"><ele>388.6</ele><time>2026-04-04T08:27:09.148Z</time></trkpt><trkpt lat="46.1324735" lon="12.3179605"><ele>386.0</ele><time>2026-04-04T08:27:10.147Z</time></trkpt><trkpt lat="46.1324801" lon="12.3181592"><ele>384.5</ele><time>2026-04-04T08:27:11.148Z</time></trkpt><trkpt lat="46.1324872" lon="12.3183701"><ele>383.0</ele><time>2026-04-04T08:27:12.148Z</time></trkpt><trkpt lat="46.1324953" lon="12.3185805"><ele>381.5</ele><time>2026-04-04T08:27:13.147Z</time></trkpt><trkpt lat="46.1325024" lon="12.3187771"><ele>380.0</ele><time>2026-04-04T08:27:14.148Z</time></trkpt><trkpt lat="46.1325095" lon="12.3189695"><ele>379.75</ele><time>2026-04-04T08:27:15.147Z</time></trkpt><trkpt lat="46.1325169" lon="12.3191664"><ele>379.5</ele><time>2026-04-04T08:27:16.147Z</time></trkpt><trkpt lat="46.1325246" lon="12.3193598"><ele>379.25</ele><time>2026-04-04T08:27:17.147Z</time></trkpt><trkpt lat="46.1325329" lon="12.3195507"><ele>379.0</ele><time>2026-04-04T08:27:18.147Z</time></trkpt><trkpt lat="46.1325413" lon="12.3197418"><ele>379.0</ele><time>2026-04-04T08:27:19.147Z</time></trkpt><trkpt lat="46.1325497" lon="12.3199435"><ele>379.0</ele><time>2026-04-04T08:27:20.149Z</time></trkpt><trkpt lat="46.1325538" lon="12.3201391"><ele>379.0</ele><time>2026-04-04T08:27:21.148Z</time></trkpt><trkpt lat="46.1325578" lon="12.3203239"><ele>379.0</ele><time>2026-04-04T08:27:22.147Z</time></trkpt><trkpt lat="46.1325636" lon="12.3205217"><ele>379.0</ele><time>2026-04-04T08:27:23.147Z</time></trkpt><trkpt lat="46.132568" lon="12.3207337"><ele>379.0</ele><time>2026-04-04T08:27:24.147Z</time></trkpt><trkpt lat="46.1325646" lon="12.3209632"><ele>379.0</ele><time>2026-04-04T08:27:25.148Z</time></trkpt><trkpt lat="46.1325582" lon="12.3212027"><ele>379.0</ele><time>2026-04-04T08:27:26.148Z</time></trkpt><trkpt lat="46.1325491" lon="12.3214557"><ele>379.0</ele><time>2026-04-04T08:27:27.148Z</time></trkpt><trkpt lat="46.1325403" lon="12.3217045"><ele>379.0</ele><time>2026-04-04T08:27:28.147Z</time></trkpt><trkpt lat="46.1325286" lon="12.3219427"><ele>379.0</ele><time>2026-04-04T08:27:29.147Z</time></trkpt><trkpt lat="46.1325181" lon="12.3221806"><ele>379.0</ele><time>2026-04-04T08:27:30.147Z</time></trkpt><trkpt lat="46.1325102" lon="12.3224167"><ele>379.0</ele><time>2026-04-04T08:27:31.148Z</time></trkpt><trkpt lat="46.1325035" lon="12.3226387"><ele>379.0</ele><time>2026-04-04T08:27:32.147Z</time></trkpt><trkpt lat="46.1324953" lon="12.3228512"><ele>379.0</ele><time>2026-04-04T08:27:33.147Z</time></trkpt><trkpt lat="46.1324888" lon="12.3230575"><ele>379.0</ele><time>2026-04-04T08:27:34.147Z</time></trkpt><trkpt lat="46.1324844" lon="12.3232559"><ele>379.0</ele><time>2026-04-04T08:27:35.148Z</time></trkpt><trkpt lat="46.1324793" lon="12.3234563"><ele>379.5</ele><time>2026-04-04T08:27:36.147Z</time></trkpt><trkpt lat="46.1324725" lon="12.3236576"><ele>380.0</ele><time>2026-04-04T08:27:37.147Z</time></trkpt><trkpt lat="46.1324655" lon="12.323863"><ele>380.5</ele><time>2026-04-04T08:27:38.147Z</time></trkpt><trkpt lat="46.1324581" lon="12.3240672"><ele>381.0</ele><time>2026-04-04T08:27:39.147Z</time></trkpt><trkpt lat="46.1324528" lon="12.3242616"><ele>381.0</ele><time>2026-04-04T08:27:40.148Z</time></trkpt><trkpt lat="46.1324462" lon="12.3244493"><ele>381.0</ele><time>2026-04-04T08:27:41.148Z</time></trkpt><trkpt lat="46.1324395" lon="12.3246331"><ele>381.0</ele><time>2026-04-04T08:27:42.147Z</time></trkpt><trkpt lat="46.1324316" lon="12.3248198"><ele>381.0</ele><time>2026-04-04T08:27:43.148Z</time></trkpt><trkpt lat="46.132426" lon="12.325021"><ele>381.0</ele><time>2026-04-04T08:27:44.149Z</time></trkpt><trkpt lat="46.1324187" lon="12.3252346"><ele>381.0</ele><time>2026-04-04T08:27:45.147Z</time></trkpt><trkpt lat="46.1324113" lon="12.3254566"><ele>381.0</ele><time>2026-04-04T08:27:46.148Z</time></trkpt><trkpt lat="46.132402" lon="12.3256874"><ele>381.0</ele><time>2026-04-04T08:27:47.147Z</time></trkpt><trkpt lat="46.1323921" lon="12.3259174"><ele>381.0</ele><time>2026-04-04T08:27:48.147Z</time></trkpt><trkpt lat="46.132387" lon="12.3261309"><ele>381.0</ele><time>2026-04-04T08:27:49.147Z</time></trkpt><trkpt lat="46.132381" lon="12.3263323"><ele>381.0</ele><time>2026-04-04T08:27:50.147Z</time></trkpt><trkpt lat="46.1323749" lon="12.326519"><ele>381.0</ele><time>2026-04-04T08:27:51.147Z</time></trkpt><trkpt lat="46.1323691" lon="12.3266998"><ele>381.0</ele><time>2026-04-04T08:27:52.147Z</time></trkpt><trkpt lat="46.1323644" lon="12.3268868"><ele>381.0</ele><time>2026-04-04T08:27:53.147Z</time></trkpt><trkpt lat="46.1323604" lon="12.32708"><ele>381.0</ele><time>2026-04-04T08:27:54.147Z</time></trkpt><trkpt lat="46.1323579" lon="12.327283"><ele>381.3333333333333</ele><time>2026-04-04T08:27:55.147Z</time></trkpt><trkpt lat="46.1323543" lon="12.3274958"><ele>381.66666666666663</ele><time>2026-04-04T08:27:56.147Z</time></trkpt><trkpt lat="46.1323532" lon="12.3277194"><ele>382.0</ele><time>2026-04-04T08:27:57.147Z</time></trkpt><trkpt lat="46.1323583" lon="12.3279485"><ele>382.66666666666663</ele><time>2026-04-04T08:27:58.148Z</time></trkpt><trkpt lat="46.1323625" lon="12.3281892"><ele>383.3333333333333</ele><time>2026-04-04T08:27:59.147Z</time></trkpt><trkpt lat="46.1323682" lon="12.3284397"><ele>384.0</ele><time>2026-04-04T08:28:00.148Z</time></trkpt><trkpt lat="46.1323722" lon="12.3286922"><ele>384.0</ele><time>2026-04-04T08:28:01.147Z</time></trkpt><trkpt lat="46.1323745" lon="12.3289455"><ele>384.0</ele><time>2026-04-04T08:28:02.148Z</time></trkpt><trkpt lat="46.1323776" lon="12.32919"><ele>384.0</ele><time>2026-04-04T08:28:03.148Z</time></trkpt><trkpt lat="46.13238" lon="12.3294211"><ele>384.0</ele><time>2026-04-04T08:28:04.147Z</time></trkpt><trkpt lat="46.1323845" lon="12.3296378"><ele>384.0</ele><time>2026-04-04T08:28:05.147Z</time></trkpt><trkpt lat="46.1323895" lon="12.3298359"><ele>384.0</ele><time>2026-04-04T08:28:06.148Z</time></trkpt><trkpt lat="46.1323915" lon="12.330028"><ele>384.0</ele><time>2026-04-04T08:28:07.148Z</time></trkpt><trkpt lat="46.1323907" lon="12.330223"><ele>384.5</ele><time>2026-04-04T08:28:08.148Z</time></trkpt><trkpt lat="46.1323838" lon="12.3304196"><ele>385.0</ele><time>2026-04-04T08:28:09.148Z</time></trkpt><trkpt lat="46.1323659" lon="12.3306154"><ele>385.5</ele><time>2026-04-04T08:28:10.148Z</time></trkpt><trkpt lat="46.1323333" lon="12.330817"><ele>386.0</ele><time>2026-04-04T08:28:11.148Z</time></trkpt><trkpt lat="46.1322873" lon="12.3310228"><ele>386.0</ele><time>2026-04-04T08:28:12.147Z</time></trkpt><trkpt lat="46.1322399" lon="12.3312343"><ele>386.0</ele><time>2026-04-04T08:28:13.148Z</time></trkpt><trkpt lat="46.1321945" lon="12.3314477"><ele>386.0</ele><time>2026-04-04T08:28:14.147Z</time></trkpt><trkpt lat="46.132149" lon="12.3316463"><ele>386.0</ele><time>2026-04-04T08:28:15.147Z</time></trkpt><trkpt lat="46.132104" lon="12.3318402"><ele>386.0</ele><time>2026-04-04T08:28:16.149Z</time></trkpt><trkpt lat="46.1320595" lon="12.332036"><ele>386.0</ele><time>2026-04-04T08:28:17.148Z</time></trkpt><trkpt lat="46.1320165" lon="12.332228"><ele>386.0</ele><time>2026-04-04T08:28:18.148Z</time></trkpt><trkpt lat="46.1319746" lon="12.3324222"><ele>386.0</ele><time>2026-04-04T08:28:19.148Z</time></trkpt><trkpt lat="46.1319389" lon="12.332628"><ele>386.0</ele><time>2026-04-04T08:28:20.147Z</time></trkpt><trkpt lat="46.1319132" lon="12.3328414"><ele>386.0</ele><time>2026-04-04T08:28:21.146Z</time></trkpt><trkpt lat="46.1319079" lon="12.3330643"><ele>386.66666666666663</ele><time>2026-04-04T08:28:22.147Z</time></trkpt><trkpt lat="46.1319199" lon="12.333286"><ele>387.33333333333337</ele><time>2026-04-04T08:28:23.147Z</time></trkpt><trkpt lat="46.1319484" lon="12.3335064"><ele>388.0</ele><time>2026-04-04T08:28:24.148Z</time></trkpt><trkpt lat="46.1319834" lon="12.3337236"><ele>388.0</ele><time>2026-04-04T08:28:25.148Z</time></trkpt><trkpt lat="46.1320177" lon="12.3339363"><ele>388.0</ele><time>2026-04-04T08:28:26.148Z</time></trkpt><trkpt lat="46.1320465" lon="12.3341325"><ele>388.0</ele><time>2026-04-04T08:28:27.147Z</time></trkpt><trkpt lat="46.1320734" lon="12.3343211"><ele>388.0</ele><time>2026-04-04T08:28:28.148Z</time></trkpt><trkpt lat="46.1321035" lon="12.3345136"><ele>388.0</ele><time>2026-04-04T08:28:29.148Z</time></trkpt><trkpt lat="46.1321355" lon="12.3347117"><ele>388.0</ele><time>2026-04-04T08:28:30.147Z</time></trkpt><trkpt lat="46.1321672" lon="12.3349106"><ele>388.0</ele><time>2026-04-04T08:28:31.147Z</time></trkpt><trkpt lat="46.1321977" lon="12.3351061"><ele>388.0</ele><time>2026-04-04T08:28:32.147Z</time></trkpt><trkpt lat="46.1322265" lon="12.3352947"><ele>388.0</ele><time>2026-04-04T08:28:33.148Z</time></trkpt><trkpt lat="46.1322549" lon="12.3354858"><ele>388.0</ele><time>2026-04-04T08:28:34.147Z</time></trkpt><trkpt lat="46.1322839" lon="12.3356768"><ele>388.0</ele><time>2026-04-04T08:28:35.147Z</time></trkpt><trkpt lat="46.1323135" lon="12.335866"><ele>388.0</ele><time>2026-04-04T08:28:36.148Z</time></trkpt><trkpt lat="46.1323396" lon="12.3360469"><ele>388.0</ele><time>2026-04-04T08:28:37.147Z</time></trkpt><trkpt lat="46.1323659" lon="12.3362192"><ele>388.0</ele><time>2026-04-04T08:28:38.148Z</time></trkpt><trkpt lat="46.132391" lon="12.3363858"><ele>388.0</ele><time>2026-04-04T08:28:39.148Z</time></trkpt><trkpt lat="46.1324162" lon="12.3365523"><ele>388.0</ele><time>2026-04-04T08:28:40.148Z</time></trkpt><trkpt lat="46.1324408" lon="12.3367213"><ele>389.0</ele><time>2026-04-04T08:28:41.147Z</time></trkpt><trkpt lat="46.132466" lon="12.3368903"><ele>390.0</ele><time>2026-04-04T08:28:42.148Z</time></trkpt><trkpt lat="46.1324863" lon="12.337058"><ele>391.0</ele><time>2026-04-04T08:28:43.147Z</time></trkpt><trkpt lat="46.1325048" lon="12.3372324"><ele>392.0</ele><time>2026-04-04T08:28:44.147Z</time></trkpt><trkpt lat="46.1325185" lon="12.3374073"><ele>392.0</ele><time>2026-04-04T08:28:45.148Z</time></trkpt><trkpt lat="46.1325288" lon="12.3375853"><ele>392.0</ele><time>2026-04-04T08:28:46.147Z</time></trkpt><trkpt lat="46.1325355" lon="12.337766"><ele>392.0</ele><time>2026-04-04T08:28:47.147Z</time></trkpt><trkpt lat="46.1325418" lon="12.3379436"><ele>392.0</ele><time>2026-04-04T08:28:48.148Z</time></trkpt><trkpt lat="46.1325488" lon="12.33811"><ele>392.0</ele><time>2026-04-04T08:28:49.147Z</time></trkpt><trkpt lat="46.1325558" lon="12.3382731"><ele>392.0</ele><time>2026-04-04T08:28:50.147Z</time></trkpt><trkpt lat="46.1325633" lon="12.338439"><ele>392.0</ele><time>2026-04-04T08:28:51.147Z</time></trkpt><trkpt lat="46.1325681" lon="12.3386141"><ele>392.0</ele><time>2026-04-04T08:28:52.147Z</time></trkpt><trkpt lat="46.1325673" lon="12.3387932"><ele>392.25</ele><time>2026-04-04T08:28:53.148Z</time></trkpt><trkpt lat="46.132557" lon="12.3389739"><ele>392.5</ele><time>2026-04-04T08:28:54.148Z</time></trkpt><trkpt lat="46.1325373" lon="12.3391607"><ele>392.75</ele><time>2026-04-04T08:28:55.148Z</time></trkpt><trkpt lat="46.1325076" lon="12.3393491"><ele>393.0</ele><time>2026-04-04T08:28:56.147Z</time></trkpt><trkpt lat="46.1324772" lon="12.3395416"><ele>393.5</ele><time>2026-04-04T08:28:57.148Z</time></trkpt><trkpt lat="46.1324418" lon="12.3397399"><ele>394.0</ele><time>2026-04-04T08:28:58.148Z</time></trkpt><trkpt lat="46.1324035" lon="12.339926"><ele>394.5</ele><time>2026-04-04T08:28:59.147Z</time></trkpt><trkpt lat="46.1323663" lon="12.3401118"><ele>395.0</ele><time>2026-04-04T08:29:00.147Z</time></trkpt><trkpt lat="46.1323308" lon="12.3402844"><ele>395.0</ele><time>2026-04-04T08:29:01.148Z</time></trkpt><trkpt lat="46.1322993" lon="12.3404441"><ele>395.0</ele><time>2026-04-04T08:29:02.149Z</time></trkpt><trkpt lat="46.1322708" lon="12.3405959"><ele>395.0</ele><time>2026-04-04T08:29:03.148Z</time></trkpt><trkpt lat="46.132242" lon="12.3407522"><ele>395.0</ele><time>2026-04-04T08:29:04.147Z</time></trkpt><trkpt lat="46.1322108" lon="12.3409122"><ele>395.0</ele><time>2026-04-04T08:29:05.148Z</time></trkpt><trkpt lat="46.1321826" lon="12.3410733"><ele>395.0</ele><time>2026-04-04T08:29:06.147Z</time></trkpt><trkpt lat="46.1321627" lon="12.3412245"><ele>395.0</ele><time>2026-04-04T08:29:07.148Z</time></trkpt><trkpt lat="46.1321522" lon="12.3413816"><ele>395.0</ele><time>2026-04-04T08:29:08.147Z</time></trkpt><trkpt lat="46.1321534" lon="12.3415431"><ele>395.0</ele><time>2026-04-04T08:29:09.148Z</time></trkpt><trkpt lat="46.1321677" lon="12.3416899"><ele>394.8333333333333</ele><time>2026-04-04T08:29:10.148Z</time></trkpt><trkpt lat="46.1321894" lon="12.3418272"><ele>394.66666666666663</ele><time>2026-04-04T08:29:11.147Z</time></trkpt><trkpt lat="46.1322181" lon="12.3419524"><ele>394.5</ele><time>2026-04-04T08:29:12.148Z</time></trkpt><trkpt lat="46.1322491" lon="12.3420729"><ele>394.33333333333337</ele><time>2026-04-04T08:29:13.148Z</time></trkpt><trkpt lat="46.1322704" lon="12.3421904"><ele>394.1666666666667</ele><time>2026-04-04T08:29:14.147Z</time></trkpt><trkpt lat="46.1322735" lon="12.3422955"><ele>394.0</ele><time>2026-04-04T08:29:15.148Z</time></trkpt><trkpt lat="46.1322707" lon="12.3424686"><ele>393.6</ele><time>2026-04-04T08:29:17.149Z</time></trkpt><trkpt lat="46.1322459" lon="12.3426382"><ele>393.2</ele><time>2026-04-04T08:29:19.148Z</time></trkpt><trkpt lat="46.1322044" lon="12.3427366"><ele>392.8</ele><time>2026-04-04T08:29:20.148Z</time></trkpt><trkpt lat="46.132149" lon="12.3428408"><ele>392.40000000000003</ele><time>2026-04-04T08:29:21.147Z</time></trkpt><trkpt lat="46.1320889" lon="12.3429475"><ele>392.0</ele><time>2026-04-04T08:29:22.148Z</time></trkpt><trkpt lat="46.132019" lon="12.3430424"><ele>391.75</ele><time>2026-04-04T08:29:23.148Z</time></trkpt><trkpt lat="46.131927" lon="12.3431131"><ele>391.5</ele><time>2026-04-04T08:29:24.147Z</time></trkpt><trkpt lat="46.1318229" lon="12.3431673"><ele>391.25</ele><time>2026-04-04T08:29:25.148Z</time></trkpt><trkpt lat="46.1317127" lon="12.3432328"><ele>391.0</ele><time>2026-04-04T08:29:26.147Z</time></trkpt><trkpt lat="46.1316113" lon="12.3433278"><ele>390.75</ele><time>2026-04-04T08:29:27.147Z</time></trkpt><trkpt lat="46.1315197" lon="12.3434518"><ele>390.5</ele><time>2026-04-04T08:29:28.149Z</time></trkpt><trkpt lat="46.1314294" lon="12.3436022"><ele>390.25</ele><time>2026-04-04T08:29:29.147Z</time></trkpt><trkpt lat="46.1313368" lon="12.343779"><ele>390.0</ele><time>2026-04-04T08:29:30.149Z</time></trkpt><trkpt lat="46.1312354" lon="12.3439848"><ele>390.0</ele><time>2026-04-04T08:29:31.147Z</time></trkpt><trkpt lat="46.1311279" lon="12.3442014"><ele>390.0</ele><time>2026-04-04T08:29:32.147Z</time></trkpt><trkpt lat="46.1310151" lon="12.344439"><ele>390.0</ele><time>2026-04-04T08:29:33.148Z</time></trkpt><trkpt lat="46.1309063" lon="12.344675"><ele>390.0</ele><time>2026-04-04T08:29:34.147Z</time></trkpt><trkpt lat="46.1308021" lon="12.3448908"><ele>390.0</ele><time>2026-04-04T08:29:35.148Z</time></trkpt><trkpt lat="46.1307005" lon="12.3450984"><ele>390.0</ele><time>2026-04-04T08:29:36.147Z</time></trkpt><trkpt lat="46.1305989" lon="12.3452893"><ele>390.33333333333337</ele><time>2026-04-04T08:29:37.147Z</time></trkpt><trkpt lat="46.1305025" lon="12.3454706"><ele>390.6666666666667</ele><time>2026-04-04T08:29:38.149Z</time></trkpt><trkpt lat="46.1304118" lon="12.3456398"><ele>391.0</ele><time>2026-04-04T08:29:39.148Z</time></trkpt><trkpt lat="46.130325" lon="12.3458043"><ele>391.5</ele><time>2026-04-04T08:29:40.147Z</time></trkpt><trkpt lat="46.1302402" lon="12.3459649"><ele>392.0</ele><time>2026-04-04T08:29:41.148Z</time></trkpt><trkpt lat="46.1301586" lon="12.3461212"><ele>392.5</ele><time>2026-04-04T08:29:42.147Z</time></trkpt><trkpt lat="46.1300767" lon="12.3462777"><ele>393.0</ele><time>2026-04-04T08:29:43.147Z</time></trkpt><trkpt lat="46.1299944" lon="12.3464436"><ele>393.0</ele><time>2026-04-04T08:29:44.147Z</time></trkpt><trkpt lat="46.1299095" lon="12.3466147"><ele>393.0</ele><time>2026-04-04T08:29:45.147Z</time></trkpt><trkpt lat="46.1298189" lon="12.3467926"><ele>393.0</ele><time>2026-04-04T08:29:46.147Z</time></trkpt><trkpt lat="46.1297242" lon="12.3469761"><ele>392.66666666666663</ele><time>2026-04-04T08:29:47.147Z</time></trkpt><trkpt lat="46.1296257" lon="12.3471655"><ele>392.3333333333333</ele><time>2026-04-04T08:29:48.147Z</time></trkpt><trkpt lat="46.1295216" lon="12.3473586"><ele>392.0</ele><time>2026-04-04T08:29:49.147Z</time></trkpt><trkpt lat="46.1294142" lon="12.3475504"><ele>392.66666666666663</ele><time>2026-04-04T08:29:50.147Z</time></trkpt><trkpt lat="46.1293054" lon="12.3477392"><ele>393.33333333333337</ele><time>2026-04-04T08:29:51.147Z</time></trkpt><trkpt lat="46.1291953" lon="12.3479267"><ele>394.0</ele><time>2026-04-04T08:29:52.147Z</time></trkpt><trkpt lat="46.1290843" lon="12.3481158"><ele>394.0</ele><time>2026-04-04T08:29:53.148Z</time></trkpt><trkpt lat="46.1289746" lon="12.3483047"><ele>394.0</ele><time>2026-04-04T08:29:54.148Z</time></trkpt><trkpt lat="46.1288672" lon="12.34849"><ele>394.0</ele><time>2026-04-04T08:29:55.149Z</time></trkpt><trkpt lat="46.1287633" lon="12.3486718"><ele>394.0</ele><time>2026-04-04T08:29:56.147Z</time></trkpt><trkpt lat="46.1286569" lon="12.3488505"><ele>394.0</ele><time>2026-04-04T08:29:57.147Z</time></trkpt><trkpt lat="46.1285486" lon="12.3490212"><ele>394.0</ele><time>2026-04-04T08:29:58.147Z</time></trkpt><trkpt lat="46.1284512" lon="12.3491705"><ele>394.0</ele><time>2026-04-04T08:29:59.148Z</time></trkpt><trkpt lat="46.1283688" lon="12.3492964"><ele>394.0</ele><time>2026-04-04T08:30:00.147Z</time></trkpt><trkpt lat="46.1282953" lon="12.3494086"><ele>394.0</ele><time>2026-04-04T08:30:01.148Z</time></trkpt><trkpt lat="46.1282318" lon="12.3494997"><ele>394.0</ele><time>2026-04-04T08:30:02.149Z</time></trkpt><trkpt lat="46.1281764" lon="12.3495814"><ele>394.0</ele><time>2026-04-04T08:30:03.148Z</time></trkpt><trkpt lat="46.1281196" lon="12.3496624"><ele>394.33333333333337</ele><time>2026-04-04T08:30:04.147Z</time></trkpt><trkpt lat="46.1280624" lon="12.3497463"><ele>394.6666666666667</ele><time>2026-04-04T08:30:05.148Z</time></trkpt><trkpt lat="46.1280018" lon="12.3498312"><ele>395.0</ele><time>2026-04-04T08:30:06.147Z</time></trkpt><trkpt lat="46.1279422" lon="12.3499166"><ele>395.33333333333337</ele><time>2026-04-04T08:30:07.147Z</time></trkpt><trkpt lat="46.12788" lon="12.3500052"><ele>395.6666666666667</ele><time>2026-04-04T08:30:08.148Z</time></trkpt><trkpt lat="46.1278151" lon="12.3501015"><ele>396.0</ele><time>2026-04-04T08:30:09.148Z</time></trkpt><trkpt lat="46.1277461" lon="12.350204"><ele>396.0</ele><time>2026-04-04T08:30:10.148Z</time></trkpt><trkpt lat="46.1276679" lon="12.3503172"><ele>396.0</ele><time>2026-04-04T08:30:11.149Z</time></trkpt><trkpt lat="46.1275823" lon="12.3504397"><ele>396.0</ele><time>2026-04-04T08:30:12.147Z</time></trkpt><trkpt lat="46.1274885" lon="12.3505755"><ele>396.0</ele><time>2026-04-04T08:30:13.147Z</time></trkpt><trkpt lat="46.1273844" lon="12.350721"><ele>396.33333333333337</ele><time>2026-04-04T08:30:14.147Z</time></trkpt><trkpt lat="46.1272767" lon="12.3508685"><ele>396.6666666666667</ele><time>2026-04-04T08:30:15.147Z</time></trkpt><trkpt lat="46.1271678" lon="12.3510283"><ele>397.0</ele><time>2026-04-04T08:30:16.147Z</time></trkpt><trkpt lat="46.1270539" lon="12.3511946"><ele>397.0</ele><time>2026-04-04T08:30:17.147Z</time></trkpt><trkpt lat="46.1269404" lon="12.3513538"><ele>397.0</ele><time>2026-04-04T08:30:18.147Z</time></trkpt><trkpt lat="46.126832" lon="12.3515003"><ele>397.0</ele><time>2026-04-04T08:30:19.147Z</time></trkpt><trkpt lat="46.1267316" lon="12.3516333"><ele>397.0</ele><time>2026-04-04T08:30:20.147Z</time></trkpt><trkpt lat="46.1266428" lon="12.351753"><ele>396.8</ele><time>2026-04-04T08:30:21.147Z</time></trkpt><trkpt lat="46.1265607" lon="12.3518605"><ele>396.6</ele><time>2026-04-04T08:30:22.147Z</time></trkpt><trkpt lat="46.1264817" lon="12.3519658"><ele>396.40000000000003</ele><time>2026-04-04T08:30:23.147Z</time></trkpt><trkpt lat="46.1264045" lon="12.3520745"><ele>396.20000000000005</ele><time>2026-04-04T08:30:24.147Z</time></trkpt><trkpt lat="46.1263234" lon="12.352181"><ele>396.0</ele><time>2026-04-04T08:30:25.147Z</time></trkpt><trkpt lat="46.1262485" lon="12.3522839"><ele>396.0</ele><time>2026-04-04T08:30:26.147Z</time></trkpt><trkpt lat="46.1261744" lon="12.3523839"><ele>396.0</ele><time>2026-04-04T08:30:27.147Z</time></trkpt><trkpt lat="46.1261076" lon="12.3524757"><ele>396.0</ele><time>2026-04-04T08:30:28.147Z</time></trkpt><trkpt lat="46.1260479" lon="12.35256"><ele>396.0</ele><time>2026-04-04T08:30:29.148Z</time></trkpt><trkpt lat="46.1259914" lon="12.3526365"><ele>396.0</ele><time>2026-04-04T08:30:30.148Z</time></trkpt><trkpt lat="46.1259324" lon="12.3527078"><ele>396.0</ele><time>2026-04-04T08:30:31.148Z</time></trkpt><trkpt lat="46.1258793" lon="12.3527717"><ele>396.0</ele><time>2026-04-04T08:30:32.147Z</time></trkpt><trkpt lat="46.1257965" lon="12.3528659"><ele>396.0</ele><time>2026-04-04T08:30:34.147Z</time></trkpt><trkpt lat="46.1257235" lon="12.3529385"><ele>396.0</ele><time>2026-04-04T08:30:36.148Z</time></trkpt><trkpt lat="46.1256246" lon="12.3530396"><ele>396.0</ele><time>2026-04-04T08:30:38.147Z</time></trkpt><trkpt lat="46.1255607" lon="12.3531208"><ele>396.0</ele><time>2026-04-04T08:30:39.147Z</time></trkpt><trkpt lat="46.1254819" lon="12.3532193"><ele>395.75</ele><time>2026-04-04T08:30:40.147Z</time></trkpt><trkpt lat="46.1253927" lon="12.3533324"><ele>395.5</ele><time>2026-04-04T08:30:41.147Z</time></trkpt><trkpt lat="46.1252926" lon="12.3534508"><ele>395.25</ele><time>2026-04-04T08:30:42.147Z</time></trkpt><trkpt lat="46.1251824" lon="12.3535796"><ele>395.0</ele><time>2026-04-04T08:30:43.147Z</time></trkpt><trkpt lat="46.1250644" lon="12.3537157"><ele>395.0</ele><time>2026-04-04T08:30:44.148Z</time></trkpt><trkpt lat="46.124952" lon="12.3538467"><ele>395.0</ele><time>2026-04-04T08:30:45.147Z</time></trkpt><trkpt lat="46.1248395" lon="12.3539762"><ele>395.0</ele><time>2026-04-04T08:30:46.147Z</time></trkpt><trkpt lat="46.1247294" lon="12.3541035"><ele>395.0</ele><time>2026-04-04T08:30:47.147Z</time></trkpt><trkpt lat="46.1246266" lon="12.3542285"><ele>395.25</ele><time>2026-04-04T08:30:48.147Z</time></trkpt><trkpt lat="46.1245307" lon="12.3543477"><ele>395.5</ele><time>2026-04-04T08:30:49.147Z</time></trkpt><trkpt lat="46.124437" lon="12.3544625"><ele>395.75</ele><time>2026-04-04T08:30:50.147Z</time></trkpt><trkpt lat="46.1243468" lon="12.3545719"><ele>396.0</ele><time>2026-04-04T08:30:51.148Z</time></trkpt><trkpt lat="46.1242622" lon="12.354674"><ele>396.20000000000005</ele><time>2026-04-04T08:30:52.147Z</time></trkpt><trkpt lat="46.1241888" lon="12.3547597"><ele>396.40000000000003</ele><time>2026-04-04T08:30:53.148Z</time></trkpt><trkpt lat="46.1241374" lon="12.3548206"><ele>396.6</ele><time>2026-04-04T08:30:54.148Z</time></trkpt><trkpt lat="46.124062" lon="12.3549126"><ele>396.8</ele><time>2026-04-04T08:30:56.148Z</time></trkpt><trkpt lat="46.1240321" lon="12.3550381"><ele>397.0</ele><time>2026-04-04T08:30:58.149Z</time></trkpt><trkpt lat="46.1240925" lon="12.3551525"><ele>397.0</ele><time>2026-04-04T08:31:00.148Z</time></trkpt><trkpt lat="46.1242046" lon="12.3552306"><ele>397.0</ele><time>2026-04-04T08:31:02.149Z</time></trkpt><trkpt lat="46.1242769" lon="12.3552751"><ele>397.0</ele><time>2026-04-04T08:31:03.149Z</time></trkpt><trkpt lat="46.1243612" lon="12.3553272"><ele>397.0</ele><time>2026-04-04T08:31:04.149Z</time></trkpt><trkpt lat="46.124458" lon="12.3553975"><ele>397.0</ele><time>2026-04-04T08:31:05.148Z</time></trkpt><trkpt lat="46.1245554" lon="12.3554916"><ele>397.0</ele><time>2026-04-04T08:31:06.148Z</time></trkpt><trkpt lat="46.1246532" lon="12.3556088"><ele>397.0</ele><time>2026-04-04T08:31:07.149Z</time></trkpt><trkpt lat="46.124754" lon="12.3557346"><ele>397.0</ele><time>2026-04-04T08:31:08.149Z</time></trkpt><trkpt lat="46.1248631" lon="12.3558522"><ele>397.0</ele><time>2026-04-04T08:31:09.149Z</time></trkpt><trkpt lat="46.1249768" lon="12.3559706"><ele>399.0</ele><time>2026-04-04T08:31:10.149Z</time></trkpt><trkpt lat="46.125085" lon="12.3560808"><ele>401.0</ele><time>2026-04-04T08:31:11.148Z</time></trkpt><trkpt lat="46.1251918" lon="12.3561686"><ele>403.0</ele><time>2026-04-04T08:31:12.149Z</time></trkpt><trkpt lat="46.1252951" lon="12.3562546"><ele>405.0</ele><time>2026-04-04T08:31:13.148Z</time></trkpt><trkpt lat="46.1253879" lon="12.3563526"><ele>408.5</ele><time>2026-04-04T08:31:14.148Z</time></trkpt><trkpt lat="46.1254793" lon="12.3564636"><ele>412.0</ele><time>2026-04-04T08:31:15.148Z</time></trkpt><trkpt lat="46.1255787" lon="12.356585"><ele>415.5</ele><time>2026-04-04T08:31:16.148Z</time></trkpt><trkpt lat="46.1256789" lon="12.3567109"><ele>419.0</ele><time>2026-04-04T08:31:17.149Z</time></trkpt><trkpt lat="46.1257791" lon="12.3568311"><ele>419.0</ele><time>2026-04-04T08:31:18.149Z</time></trkpt><trkpt lat="46.1258739" lon="12.3569481"><ele>419.0</ele><time>2026-04-04T08:31:19.149Z</time></trkpt><trkpt lat="46.1259626" lon="12.3570885"><ele>419.0</ele><time>2026-04-04T08:31:20.15Z</time></trkpt><trkpt lat="46.1260458" lon="12.357261"><ele>419.0</ele><time>2026-04-04T08:31:21.148Z</time></trkpt><trkpt lat="46.126124" lon="12.3574722"><ele>426.66666666666663</ele><time>2026-04-04T08:31:22.148Z</time></trkpt><trkpt lat="46.1262242" lon="12.3576881"><ele>434.33333333333337</ele><time>2026-04-04T08:31:23.149Z</time></trkpt><trkpt lat="46.1263485" lon="12.3578997"><ele>442.0</ele><time>2026-04-04T08:31:24.149Z</time></trkpt><trkpt lat="46.1264689" lon="12.3581258"><ele>441.0</ele><time>2026-04-04T08:31:25.148Z</time></trkpt><trkpt lat="46.1265881" lon="12.3583727"><ele>440.0</ele><time>2026-04-04T08:31:26.15Z</time></trkpt><trkpt lat="46.1267026" lon="12.3586293"><ele>439.0</ele><time>2026-04-04T08:31:27.148Z</time></trkpt><trkpt lat="46.1268387" lon="12.358878"><ele>445.33333333333337</ele><time>2026-04-04T08:31:28.149Z</time></trkpt><trkpt lat="46.1269811" lon="12.3590971"><ele>451.66666666666663</ele><time>2026-04-04T08:31:29.149Z</time></trkpt><trkpt lat="46.1271152" lon="12.3592994"><ele>458.0</ele><time>2026-04-04T08:31:30.149Z</time></trkpt><trkpt lat="46.1272361" lon="12.3594957"><ele>457.66666666666663</ele><time>2026-04-04T08:31:31.149Z</time></trkpt><trkpt lat="46.1273491" lon="12.3597038"><ele>457.33333333333337</ele><time>2026-04-04T08:31:32.148Z</time></trkpt><trkpt lat="46.1274533" lon="12.3599213"><ele>457.0</ele><time>2026-04-04T08:31:33.149Z</time></trkpt><trkpt lat="46.1275437" lon="12.3601398"><ele>457.0</ele><time>2026-04-04T08:31:34.149Z</time></trkpt><trkpt lat="46.127621" lon="12.3603221"><ele>457.0</ele><time>2026-04-04T08:31:35.148Z</time></trkpt><trkpt lat="46.127685" lon="12.3604965"><ele>457.0</ele><time>2026-04-04T08:31:36.149Z</time></trkpt><trkpt lat="46.127718" lon="12.3606703"><ele>457.0</ele><time>2026-04-04T08:31:37.149Z</time></trkpt><trkpt lat="46.1277305" lon="12.3608523"><ele>460.25</ele><time>2026-04-04T08:31:38.148Z</time></trkpt><trkpt lat="46.1277581" lon="12.3610446"><ele>463.5</ele><time>2026-04-04T08:31:39.149Z</time></trkpt><trkpt lat="46.1278177" lon="12.3612125"><ele>466.75</ele><time>2026-04-04T08:31:40.149Z</time></trkpt><trkpt lat="46.1279053" lon="12.3613471"><ele>470.0</ele><time>2026-04-04T08:31:41.149Z</time></trkpt><trkpt lat="46.1280121" lon="12.3614592"><ele>470.0</ele><time>2026-04-04T08:31:42.148Z</time></trkpt><trkpt lat="46.1281246" lon="12.3615803"><ele>470.0</ele><time>2026-04-04T08:31:43.148Z</time></trkpt><trkpt lat="46.1282194" lon="12.3617181"><ele>470.0</ele><time>2026-04-04T08:31:44.149Z</time></trkpt><trkpt lat="46.1283015" lon="12.3618621"><ele>470.0</ele><time>2026-04-04T08:31:45.148Z</time></trkpt><trkpt lat="46.1283692" lon="12.3620047"><ele>469.99999999999994</ele><time>2026-04-04T08:31:46.149Z</time></trkpt><trkpt lat="46.1284195" lon="12.3621249"><ele>470.0</ele><time>2026-04-04T08:31:47.148Z</time></trkpt><trkpt lat="46.1284613" lon="12.3622266"><ele>470.0</ele><time>2026-04-04T08:31:48.148Z</time></trkpt><trkpt lat="46.1285002" lon="12.3623081"><ele>470.0</ele><time>2026-04-04T08:31:49.149Z</time></trkpt><trkpt lat="46.1285376" lon="12.3623827"><ele>469.99999999999994</ele><time>2026-04-04T08:31:50.148Z</time></trkpt><trkpt lat="46.1286157" lon="12.3624994"><ele>470.0</ele><time>2026-04-04T08:31:52.148Z</time></trkpt><trkpt lat="46.1287019" lon="12.3626189"><ele>472.8</ele><time>2026-04-04T08:31:54.148Z</time></trkpt><trkpt lat="46.1287609" lon="12.3627531"><ele>475.6</ele><time>2026-04-04T08:31:56.149Z</time></trkpt><trkpt lat="46.1287021" lon="12.3628855"><ele>478.4</ele><time>2026-04-04T08:31:58.149Z</time></trkpt><trkpt lat="46.1285842" lon="12.3628203"><ele>481.2</ele><time>2026-04-04T08:32:00.149Z</time></trkpt><trkpt lat="46.1285189" lon="12.3627239"><ele>484.0</ele><time>2026-04-04T08:32:01.148Z</time></trkpt><trkpt lat="46.1284349" lon="12.3626372"><ele>484.0</ele><time>2026-04-04T08:32:02.148Z</time></trkpt><trkpt lat="46.1283171" lon="12.3626068"><ele>484.0</ele><time>2026-04-04T08:32:03.148Z</time></trkpt><trkpt lat="46.1281951" lon="12.3626255"><ele>484.0</ele><time>2026-04-04T08:32:04.149Z</time></trkpt><trkpt lat="46.1280615" lon="12.3626716"><ele>484.0</ele><time>2026-04-04T08:32:05.149Z</time></trkpt><trkpt lat="46.1279207" lon="12.3626927"><ele>486.75</ele><time>2026-04-04T08:32:06.149Z</time></trkpt><trkpt lat="46.127787" lon="12.3626738"><ele>489.5</ele><time>2026-04-04T08:32:07.149Z</time></trkpt><trkpt lat="46.1276563" lon="12.3626379"><ele>492.25</ele><time>2026-04-04T08:32:08.148Z</time></trkpt><trkpt lat="46.1275413" lon="12.3625983"><ele>495.0</ele><time>2026-04-04T08:32:09.148Z</time></trkpt><trkpt lat="46.1274307" lon="12.3625587"><ele>497.25</ele><time>2026-04-04T08:32:10.148Z</time></trkpt><trkpt lat="46.1273195" lon="12.3625252"><ele>499.5</ele><time>2026-04-04T08:32:11.149Z</time></trkpt><trkpt lat="46.1272101" lon="12.3624928"><ele>501.75</ele><time>2026-04-04T08:32:12.149Z</time></trkpt><trkpt lat="46.1270979" lon="12.3624692"><ele>504.0</ele><time>2026-04-04T08:32:13.149Z</time></trkpt><trkpt lat="46.126987" lon="12.3624691"><ele>504.0</ele><time>2026-04-04T08:32:14.148Z</time></trkpt><trkpt lat="46.1268824" lon="12.3624948"><ele>504.0</ele><time>2026-04-04T08:32:15.148Z</time></trkpt><trkpt lat="46.1267853" lon="12.3625313"><ele>504.0</ele><time>2026-04-04T08:32:16.149Z</time></trkpt><trkpt lat="46.126699" lon="12.3625655"><ele>504.0</ele><time>2026-04-04T08:32:17.148Z</time></trkpt><trkpt lat="46.126614" lon="12.3626022"><ele>504.0</ele><time>2026-04-04T08:32:18.148Z</time></trkpt><trkpt lat="46.1265319" lon="12.362651"><ele>505.4</ele><time>2026-04-04T08:32:19.148Z</time></trkpt><trkpt lat="46.1264652" lon="12.3627313"><ele>506.79999999999995</ele><time>2026-04-04T08:32:20.148Z</time></trkpt><trkpt lat="46.12642" lon="12.3628429"><ele>508.20000000000005</ele><time>2026-04-04T08:32:21.149Z</time></trkpt><trkpt lat="46.1263937" lon="12.3629823"><ele>509.6</ele><time>2026-04-04T08:32:22.148Z</time></trkpt><trkpt lat="46.1263787" lon="12.3631393"><ele>511.0</ele><time>2026-04-04T08:32:23.148Z</time></trkpt><trkpt lat="46.1263582" lon="12.3633042"><ele>511.0</ele><time>2026-04-04T08:32:24.148Z</time></trkpt><trkpt lat="46.1263081" lon="12.3634473"><ele>511.0</ele><time>2026-04-04T08:32:25.148Z</time></trkpt><trkpt lat="46.1262339" lon="12.3635638"><ele>511.0</ele><time>2026-04-04T08:32:26.149Z</time></trkpt><trkpt lat="46.1261373" lon="12.3636245"><ele>511.0</ele><time>2026-04-04T08:32:27.149Z</time></trkpt><trkpt lat="46.1260335" lon="12.3636352"><ele>511.0</ele><time>2026-04-04T08:32:28.148Z</time></trkpt><trkpt lat="46.1259291" lon="12.3636355"><ele>511.0</ele><time>2026-04-04T08:32:29.15Z</time></trkpt><trkpt lat="46.1258238" lon="12.3636399"><ele>511.0</ele><time>2026-04-04T08:32:30.149Z</time></trkpt><trkpt lat="46.1257183" lon="12.3636391"><ele>511.0</ele><time>2026-04-04T08:32:31.149Z</time></trkpt><trkpt lat="46.1256205" lon="12.3636385"><ele>511.0</ele><time>2026-04-04T08:32:32.149Z</time></trkpt><trkpt lat="46.1255348" lon="12.363652"><ele>511.0</ele><time>2026-04-04T08:32:33.149Z</time></trkpt><trkpt lat="46.1254557" lon="12.3637073"><ele>512.25</ele><time>2026-04-04T08:32:34.148Z</time></trkpt><trkpt lat="46.1253852" lon="12.3638013"><ele>513.5</ele><time>2026-04-04T08:32:35.148Z</time></trkpt><trkpt lat="46.1253172" lon="12.3639376"><ele>514.75</ele><time>2026-04-04T08:32:36.15Z</time></trkpt><trkpt lat="46.1252508" lon="12.3640984"><ele>516.0</ele><time>2026-04-04T08:32:37.149Z</time></trkpt><trkpt lat="46.1251776" lon="12.3642704"><ele>516.0</ele><time>2026-04-04T08:32:38.149Z</time></trkpt><trkpt lat="46.1251057" lon="12.3644511"><ele>516.0</ele><time>2026-04-04T08:32:39.149Z</time></trkpt><trkpt lat="46.1250401" lon="12.3646096"><ele>516.0</ele><time>2026-04-04T08:32:40.148Z</time></trkpt><trkpt lat="46.1249845" lon="12.3647421"><ele>516.0</ele><time>2026-04-04T08:32:41.149Z</time></trkpt><trkpt lat="46.1249404" lon="12.3648597"><ele>517.6666666666666</ele><time>2026-04-04T08:32:42.148Z</time></trkpt><trkpt lat="46.124916" lon="12.3649827"><ele>519.3333333333334</ele><time>2026-04-04T08:32:43.15Z</time></trkpt><trkpt lat="46.1249336" lon="12.3651024"><ele>521.0</ele><time>2026-04-04T08:32:44.149Z</time></trkpt><trkpt lat="46.1249877" lon="12.3651876"><ele>522.6666666666667</ele><time>2026-04-04T08:32:45.148Z</time></trkpt><trkpt lat="46.1250644" lon="12.3652286"><ele>524.3333333333334</ele><time>2026-04-04T08:32:46.149Z</time></trkpt><trkpt lat="46.1251497" lon="12.3652267"><ele>526.0</ele><time>2026-04-04T08:32:47.148Z</time></trkpt><trkpt lat="46.1252302" lon="12.3652167"><ele>526.0</ele><time>2026-04-04T08:32:48.148Z</time></trkpt><trkpt lat="46.1252958" lon="12.3652261"><ele>526.0</ele><time>2026-04-04T08:32:49.148Z</time></trkpt><trkpt lat="46.1253706" lon="12.3652546"><ele>526.0</ele><time>2026-04-04T08:32:50.149Z</time></trkpt><trkpt lat="46.1254443" lon="12.3653043"><ele>526.0</ele><time>2026-04-04T08:32:51.148Z</time></trkpt><trkpt lat="46.1255153" lon="12.3653807"><ele>526.0</ele><time>2026-04-04T08:32:52.149Z</time></trkpt><trkpt lat="46.1255792" lon="12.3654857"><ele>526.0</ele><time>2026-04-04T08:32:53.148Z</time></trkpt><trkpt lat="46.1256309" lon="12.3656207"><ele>529.6</ele><time>2026-04-04T08:32:54.149Z</time></trkpt><trkpt lat="46.1256688" lon="12.3657624"><ele>533.2</ele><time>2026-04-04T08:32:55.149Z</time></trkpt><trkpt lat="46.1257179" lon="12.3659336"><ele>536.8</ele><time>2026-04-04T08:32:56.148Z</time></trkpt><trkpt lat="46.1257778" lon="12.366069"><ele>540.4</ele><time>2026-04-04T08:32:57.148Z</time></trkpt><trkpt lat="46.1258536" lon="12.3661584"><ele>544.0</ele><time>2026-04-04T08:32:58.148Z</time></trkpt><trkpt lat="46.1260083" lon="12.3661304"><ele>544.2</ele><time>2026-04-04T08:32:59.149Z</time></trkpt><trkpt lat="46.1261077" lon="12.3661617"><ele>544.4</ele><time>2026-04-04T08:33:00.15Z</time></trkpt><trkpt lat="46.126217" lon="12.3661855"><ele>544.6</ele><time>2026-04-04T08:33:01.148Z</time></trkpt><trkpt lat="46.1263237" lon="12.3662118"><ele>544.8</ele><time>2026-04-04T08:33:02.149Z</time></trkpt><trkpt lat="46.1264393" lon="12.3662459"><ele>545.0</ele><time>2026-04-04T08:33:03.149Z</time></trkpt><trkpt lat="46.1265579" lon="12.3662931"><ele>545.0</ele><time>2026-04-04T08:33:04.149Z</time></trkpt><trkpt lat="46.1266612" lon="12.3663419"><ele>545.0</ele><time>2026-04-04T08:33:05.149Z</time></trkpt><trkpt lat="46.1267466" lon="12.3663831"><ele>545.0</ele><time>2026-04-04T08:33:06.149Z</time></trkpt><trkpt lat="46.126816" lon="12.3664339"><ele>545.0</ele><time>2026-04-04T08:33:07.149Z</time></trkpt><trkpt lat="46.1268734" lon="12.36659"><ele>545.0</ele><time>2026-04-04T08:33:09.148Z</time></trkpt><trkpt lat="46.1267983" lon="12.3667116"><ele>547.2</ele><time>2026-04-04T08:33:11.149Z</time></trkpt><trkpt lat="46.1267286" lon="12.3667043"><ele>549.4</ele><time>2026-04-04T08:33:12.149Z</time></trkpt><trkpt lat="46.1266466" lon="12.3666617"><ele>551.6</ele><time>2026-04-04T08:33:13.148Z</time></trkpt><trkpt lat="46.1265482" lon="12.3666405"><ele>553.8</ele><time>2026-04-04T08:33:14.148Z</time></trkpt><trkpt lat="46.1264386" lon="12.3666609"><ele>556.0</ele><time>2026-04-04T08:33:15.149Z</time></trkpt><trkpt lat="46.1263255" lon="12.3667241"><ele>556.0</ele><time>2026-04-04T08:33:16.148Z</time></trkpt><trkpt lat="46.1262199" lon="12.3668365"><ele>556.0</ele><time>2026-04-04T08:33:17.148Z</time></trkpt><trkpt lat="46.1261226" lon="12.3669752"><ele>556.0</ele><time>2026-04-04T08:33:18.148Z</time></trkpt><trkpt lat="46.1260265" lon="12.3671117"><ele>556.0</ele><time>2026-04-04T08:33:19.149Z</time></trkpt><trkpt lat="46.1259281" lon="12.3672252"><ele>560.0</ele><time>2026-04-04T08:33:20.149Z</time></trkpt><trkpt lat="46.125815" lon="12.3672969"><ele>564.0</ele><time>2026-04-04T08:33:21.148Z</time></trkpt><trkpt lat="46.1256968" lon="12.3673372"><ele>568.0</ele><time>2026-04-04T08:33:22.148Z</time></trkpt><trkpt lat="46.1255848" lon="12.3673805"><ele>572.0</ele><time>2026-04-04T08:33:23.148Z</time></trkpt><trkpt lat="46.1254802" lon="12.3674526"><ele>572.0</ele><time>2026-04-04T08:33:24.148Z</time></trkpt><trkpt lat="46.1253796" lon="12.3675395"><ele>572.0</ele><time>2026-04-04T08:33:25.148Z</time></trkpt><trkpt lat="46.1252876" lon="12.3676437"><ele>572.0</ele><time>2026-04-04T08:33:26.148Z</time></trkpt><trkpt lat="46.1252104" lon="12.3677613"><ele>572.0</ele><time>2026-04-04T08:33:27.149Z</time></trkpt><trkpt lat="46.1251311" lon="12.3678601"><ele>572.0</ele><time>2026-04-04T08:33:28.149Z</time></trkpt><trkpt lat="46.1250394" lon="12.3679252"><ele>572.0</ele><time>2026-04-04T08:33:29.148Z</time></trkpt><trkpt lat="46.1249456" lon="12.3679545"><ele>572.0</ele><time>2026-04-04T08:33:30.148Z</time></trkpt><trkpt lat="46.1248535" lon="12.3679639"><ele>572.0</ele><time>2026-04-04T08:33:31.148Z</time></trkpt><trkpt lat="46.1247753" lon="12.3679471"><ele>572.0</ele><time>2026-04-04T08:33:32.148Z</time></trkpt><trkpt lat="46.1247057" lon="12.3679268"><ele>572.0</ele><time>2026-04-04T08:33:33.148Z</time></trkpt><trkpt lat="46.1246338" lon="12.3679199"><ele>572.8000000000001</ele><time>2026-04-04T08:33:34.149Z</time></trkpt><trkpt lat="46.1245767" lon="12.3679675"><ele>573.6</ele><time>2026-04-04T08:33:35.149Z</time></trkpt><trkpt lat="46.1245473" lon="12.3681318"><ele>574.4000000000001</ele><time>2026-04-04T08:33:37.149Z</time></trkpt><trkpt lat="46.1245905" lon="12.3682107"><ele>575.2</ele><time>2026-04-04T08:33:38.149Z</time></trkpt><trkpt lat="46.1246679" lon="12.3682809"><ele>576.0</ele><time>2026-04-04T08:33:39.15Z</time></trkpt><trkpt lat="46.1247616" lon="12.3683532"><ele>579.5</ele><time>2026-04-04T08:33:40.149Z</time></trkpt><trkpt lat="46.1248698" lon="12.3684218"><ele>583.0</ele><time>2026-04-04T08:33:41.149Z</time></trkpt><trkpt lat="46.1249984" lon="12.3684745"><ele>586.5</ele><time>2026-04-04T08:33:42.148Z</time></trkpt><trkpt lat="46.1251398" lon="12.3685028"><ele>590.0</ele><time>2026-04-04T08:33:43.149Z</time></trkpt><trkpt lat="46.1252827" lon="12.3684981"><ele>590.0</ele><time>2026-04-04T08:33:44.148Z</time></trkpt><trkpt lat="46.1254174" lon="12.3684586"><ele>590.0</ele><time>2026-04-04T08:33:45.149Z</time></trkpt><trkpt lat="46.1255345" lon="12.3683739"><ele>590.0</ele><time>2026-04-04T08:33:46.15Z</time></trkpt><trkpt lat="46.1256478" lon="12.368304"><ele>590.0</ele><time>2026-04-04T08:33:47.148Z</time></trkpt><trkpt lat="46.1257639" lon="12.3682561"><ele>592.5</ele><time>2026-04-04T08:33:48.148Z</time></trkpt><trkpt lat="46.1258786" lon="12.3682361"><ele>595.0</ele><time>2026-04-04T08:33:49.148Z</time></trkpt><trkpt lat="46.1259952" lon="12.36823"><ele>597.5</ele><time>2026-04-04T08:33:50.148Z</time></trkpt><trkpt lat="46.1261135" lon="12.3682507"><ele>600.0</ele><time>2026-04-04T08:33:51.149Z</time></trkpt><trkpt lat="46.1262008" lon="12.368406"><ele>600.0</ele><time>2026-04-04T08:33:52.148Z</time></trkpt><trkpt lat="46.1262835" lon="12.3685243"><ele>600.0</ele><time>2026-04-04T08:33:53.148Z</time></trkpt><trkpt lat="46.1263472" lon="12.3686824"><ele>600.0</ele><time>2026-04-04T08:33:54.149Z</time></trkpt><trkpt lat="46.1263815" lon="12.3688501"><ele>600.0</ele><time>2026-04-04T08:33:55.149Z</time></trkpt><trkpt lat="46.1263868" lon="12.3690172"><ele>604.75</ele><time>2026-04-04T08:33:56.148Z</time></trkpt><trkpt lat="46.1263617" lon="12.3691876"><ele>609.5</ele><time>2026-04-04T08:33:57.148Z</time></trkpt><trkpt lat="46.12631" lon="12.3693547"><ele>614.25</ele><time>2026-04-04T08:33:58.149Z</time></trkpt><trkpt lat="46.126261" lon="12.3695156"><ele>619.0</ele><time>2026-04-04T08:33:59.148Z</time></trkpt><trkpt lat="46.1262441" lon="12.3696785"><ele>620.5</ele><time>2026-04-04T08:34:00.149Z</time></trkpt><trkpt lat="46.1262622" lon="12.3698272"><ele>622.0</ele><time>2026-04-04T08:34:01.148Z</time></trkpt><trkpt lat="46.1262935" lon="12.3699593"><ele>623.5</ele><time>2026-04-04T08:34:02.149Z</time></trkpt><trkpt lat="46.1263285" lon="12.3700679"><ele>625.0</ele><time>2026-04-04T08:34:03.15Z</time></trkpt><trkpt lat="46.1263563" lon="12.3701676"><ele>626.5</ele><time>2026-04-04T08:34:04.148Z</time></trkpt><trkpt lat="46.1263715" lon="12.3702708"><ele>628.0</ele><time>2026-04-04T08:34:05.149Z</time></trkpt><trkpt lat="46.126355" lon="12.3703728"><ele>628.0</ele><time>2026-04-04T08:34:06.149Z</time></trkpt><trkpt lat="46.1263045" lon="12.3704533"><ele>628.0</ele><time>2026-04-04T08:34:07.15Z</time></trkpt><trkpt lat="46.1262355" lon="12.3704868"><ele>628.0</ele><time>2026-04-04T08:34:08.148Z</time></trkpt><trkpt lat="46.1261624" lon="12.3704761"><ele>628.0</ele><time>2026-04-04T08:34:09.148Z</time></trkpt><trkpt lat="46.1260858" lon="12.3704007"><ele>628.0</ele><time>2026-04-04T08:34:10.148Z</time></trkpt><trkpt lat="46.1260156" lon="12.3703003"><ele>628.0</ele><time>2026-04-04T08:34:11.149Z</time></trkpt><trkpt lat="46.1259459" lon="12.3701855"><ele>628.0</ele><time>2026-04-04T08:34:12.149Z</time></trkpt><trkpt lat="46.125884" lon="12.3700731"><ele>628.0</ele><time>2026-04-04T08:34:13.148Z</time></trkpt><trkpt lat="46.1258482" lon="12.3699464"><ele>628.0</ele><time>2026-04-04T08:34:14.148Z</time></trkpt><trkpt lat="46.1258392" lon="12.3698181"><ele>628.0</ele><time>2026-04-04T08:34:15.149Z</time></trkpt><trkpt lat="46.1258511" lon="12.3696972"><ele>628.0</ele><time>2026-04-04T08:34:16.148Z</time></trkpt><trkpt lat="46.1258773" lon="12.3695908"><ele>628.0</ele><time>2026-04-04T08:34:17.148Z</time></trkpt><trkpt lat="46.1259001" lon="12.3694915"><ele>626.5</ele><time>2026-04-04T08:34:18.149Z</time></trkpt><trkpt lat="46.1258983" lon="12.3693984"><ele>625.0</ele><time>2026-04-04T08:34:19.148Z</time></trkpt><trkpt lat="46.125861" lon="12.3693228"><ele>623.5</ele><time>2026-04-04T08:34:20.148Z</time></trkpt><trkpt lat="46.1257518" lon="12.3693234"><ele>622.0</ele><time>2026-04-04T08:34:22.148Z</time></trkpt><trkpt lat="46.1256732" lon="12.3694699"><ele>620.5</ele><time>2026-04-04T08:34:24.148Z</time></trkpt><trkpt lat="46.1256384" lon="12.3695607"><ele>619.0</ele><time>2026-04-04T08:34:25.149Z</time></trkpt><trkpt lat="46.1256006" lon="12.3696573"><ele>622.8333333333334</ele><time>2026-04-04T08:34:26.148Z</time></trkpt><trkpt lat="46.1255571" lon="12.3697582"><ele>626.6666666666667</ele><time>2026-04-04T08:34:27.148Z</time></trkpt><trkpt lat="46.1255133" lon="12.3698552"><ele>630.5</ele><time>2026-04-04T08:34:28.148Z</time></trkpt><trkpt lat="46.1254744" lon="12.3699462"><ele>634.3333333333334</ele><time>2026-04-04T08:34:29.148Z</time></trkpt><trkpt lat="46.1254242" lon="12.3700906"><ele>638.1666666666666</ele><time>2026-04-04T08:34:31.148Z</time></trkpt><trkpt lat="46.1254004" lon="12.3701988"><ele>642.0</ele><time>2026-04-04T08:34:33.149Z</time></trkpt><trkpt lat="46.1253719" lon="12.3702909"><ele>642.0</ele><time>2026-04-04T08:34:36.148Z</time></trkpt><trkpt lat="46.1253297" lon="12.3704138"><ele>642.0</ele><time>2026-04-04T08:35:52.149Z</time></trkpt><trkpt lat="46.1253085" lon="12.3705126"><ele>642.0</ele><time>2026-04-04T08:35:53.149Z</time></trkpt><trkpt lat="46.125258" lon="12.3706081"><ele>642.0</ele><time>2026-04-04T08:35:54.149Z</time></trkpt><trkpt lat="46.125176" lon="12.3706918"><ele>642.0</ele><time>2026-04-04T08:35:55.148Z</time></trkpt><trkpt lat="46.1250729" lon="12.370758"><ele>643.0</ele><time>2026-04-04T08:35:56.148Z</time></trkpt><trkpt lat="46.124974" lon="12.3708035"><ele>644.0</ele><time>2026-04-04T08:35:57.148Z</time></trkpt><trkpt lat="46.1248814" lon="12.3708362"><ele>645.0</ele><time>2026-04-04T08:35:58.148Z</time></trkpt><trkpt lat="46.1247853" lon="12.3708746"><ele>646.0</ele><time>2026-04-04T08:35:59.148Z</time></trkpt><trkpt lat="46.1246853" lon="12.3709218"><ele>647.0</ele><time>2026-04-04T08:36:00.148Z</time></trkpt><trkpt lat="46.1245929" lon="12.3709894"><ele>650.4000000000001</ele><time>2026-04-04T08:36:01.149Z</time></trkpt><trkpt lat="46.124509" lon="12.3710601"><ele>653.8000000000001</ele><time>2026-04-04T08:36:02.149Z</time></trkpt><trkpt lat="46.1244324" lon="12.3711363"><ele>657.2</ele><time>2026-04-04T08:36:03.148Z</time></trkpt><trkpt lat="46.1243555" lon="12.3712234"><ele>660.6</ele><time>2026-04-04T08:36:04.149Z</time></trkpt><trkpt lat="46.1242793" lon="12.3713236"><ele>664.0</ele><time>2026-04-04T08:36:05.149Z</time></trkpt><trkpt lat="46.124205" lon="12.3714328"><ele>664.0</ele><time>2026-04-04T08:36:06.148Z</time></trkpt><trkpt lat="46.1241395" lon="12.3715222"><ele>664.0</ele><time>2026-04-04T08:36:07.149Z</time></trkpt><trkpt lat="46.1240823" lon="12.3716144"><ele>664.0</ele><time>2026-04-04T08:36:08.148Z</time></trkpt><trkpt lat="46.1240337" lon="12.3717035"><ele>664.0</ele><time>2026-04-04T08:36:09.148Z</time></trkpt><trkpt lat="46.1239811" lon="12.3717967"><ele>664.0</ele><time>2026-04-04T08:36:10.148Z</time></trkpt><trkpt lat="46.1239272" lon="12.3718899"><ele>664.0</ele><time>2026-04-04T08:36:11.149Z</time></trkpt><trkpt lat="46.1238721" lon="12.3719812"><ele>667.8000000000001</ele><time>2026-04-04T08:36:12.149Z</time></trkpt><trkpt lat="46.1238077" lon="12.3720733"><ele>671.6</ele><time>2026-04-04T08:36:13.149Z</time></trkpt><trkpt lat="46.1237235" lon="12.3721532"><ele>675.4</ele><time>2026-04-04T08:36:14.148Z</time></trkpt><trkpt lat="46.1236234" lon="12.3722307"><ele>679.2</ele><time>2026-04-04T08:36:15.15Z</time></trkpt><trkpt lat="46.1235085" lon="12.3723066"><ele>683.0</ele><time>2026-04-04T08:36:16.148Z</time></trkpt><trkpt lat="46.1233915" lon="12.3723897"><ele>683.0</ele><time>2026-04-04T08:36:17.148Z</time></trkpt><trkpt lat="46.1232831" lon="12.372488"><ele>683.0</ele><time>2026-04-04T08:36:18.149Z</time></trkpt><trkpt lat="46.1231933" lon="12.3726106"><ele>683.0</ele><time>2026-04-04T08:36:19.149Z</time></trkpt><trkpt lat="46.1231142" lon="12.372737"><ele>683.0</ele><time>2026-04-04T08:36:20.148Z</time></trkpt><trkpt lat="46.1230448" lon="12.3728678"><ele>686.0</ele><time>2026-04-04T08:36:21.148Z</time></trkpt><trkpt lat="46.1229812" lon="12.3729999"><ele>689.0</ele><time>2026-04-04T08:36:22.149Z</time></trkpt><trkpt lat="46.1229242" lon="12.373121"><ele>692.0</ele><time>2026-04-04T08:36:23.149Z</time></trkpt><trkpt lat="46.1228677" lon="12.3732246"><ele>695.0</ele><time>2026-04-04T08:36:24.148Z</time></trkpt><trkpt lat="46.122795" lon="12.3733347"><ele>698.0</ele><time>2026-04-04T08:36:25.149Z</time></trkpt><trkpt lat="46.1227049" lon="12.3734293"><ele>698.0</ele><time>2026-04-04T08:36:26.148Z</time></trkpt><trkpt lat="46.1225957" lon="12.3735148"><ele>698.0</ele><time>2026-04-04T08:36:27.148Z</time></trkpt><trkpt lat="46.1224787" lon="12.3735883"><ele>698.0</ele><time>2026-04-04T08:36:28.148Z</time></trkpt><trkpt lat="46.1223502" lon="12.3736753"><ele>698.0</ele><time>2026-04-04T08:36:29.148Z</time></trkpt><trkpt lat="46.1222241" lon="12.37378"><ele>699.3333333333333</ele><time>2026-04-04T08:36:30.148Z</time></trkpt><trkpt lat="46.1221115" lon="12.3738948"><ele>700.6666666666666</ele><time>2026-04-04T08:36:31.148Z</time></trkpt><trkpt lat="46.121993" lon="12.3740377"><ele>702.0</ele><time>2026-04-04T08:36:32.148Z</time></trkpt><trkpt lat="46.121872" lon="12.374192"><ele>702.0</ele><time>2026-04-04T08:36:33.149Z</time></trkpt><trkpt lat="46.1217473" lon="12.3743527"><ele>702.0</ele><time>2026-04-04T08:36:34.149Z</time></trkpt><trkpt lat="46.1216136" lon="12.3745334"><ele>702.0</ele><time>2026-04-04T08:36:35.148Z</time></trkpt><trkpt lat="46.12147" lon="12.3747221"><ele>706.0</ele><time>2026-04-04T08:36:36.149Z</time></trkpt><trkpt lat="46.1213176" lon="12.3749047"><ele>710.0</ele><time>2026-04-04T08:36:37.148Z</time></trkpt><trkpt lat="46.1211845" lon="12.375056"><ele>714.0</ele><time>2026-04-04T08:36:38.148Z</time></trkpt><trkpt lat="46.121061" lon="12.3751921"><ele>714.0</ele><time>2026-04-04T08:36:39.148Z</time></trkpt><trkpt lat="46.1209458" lon="12.3752919"><ele>714.0</ele><time>2026-04-04T08:36:40.149Z</time></trkpt><trkpt lat="46.1208253" lon="12.3753483"><ele>714.0</ele><time>2026-04-04T08:36:41.149Z</time></trkpt><trkpt lat="46.1206958" lon="12.3753843"><ele>714.0</ele><time>2026-04-04T08:36:42.149Z</time></trkpt><trkpt lat="46.1205946" lon="12.3754278"><ele>714.0</ele><time>2026-04-04T08:36:43.148Z</time></trkpt><trkpt lat="46.1205089" lon="12.3755067"><ele>714.0</ele><time>2026-04-04T08:36:44.148Z</time></trkpt><trkpt lat="46.1204466" lon="12.3756326"><ele>714.0</ele><time>2026-04-04T08:36:45.15Z</time></trkpt><trkpt lat="46.1204232" lon="12.3757921"><ele>714.0</ele><time>2026-04-04T08:36:46.148Z</time></trkpt><trkpt lat="46.1204442" lon="12.3759684"><ele>714.0</ele><time>2026-04-04T08:36:47.148Z</time></trkpt><trkpt lat="46.1205074" lon="12.3761307"><ele>714.0</ele><time>2026-04-04T08:36:48.149Z</time></trkpt><trkpt lat="46.1206135" lon="12.3762799"><ele>714.0</ele><time>2026-04-04T08:36:49.149Z</time></trkpt><trkpt lat="46.1207395" lon="12.3764394"><ele>714.0</ele><time>2026-04-04T08:36:50.149Z</time></trkpt><trkpt lat="46.1208702" lon="12.3766151"><ele>722.3333333333334</ele><time>2026-04-04T08:36:51.148Z</time></trkpt><trkpt lat="46.1209917" lon="12.3767898"><ele>730.6666666666667</ele><time>2026-04-04T08:36:52.148Z</time></trkpt><trkpt lat="46.121088" lon="12.3769766"><ele>739.0</ele><time>2026-04-04T08:36:53.148Z</time></trkpt><trkpt lat="46.1211686" lon="12.3772013"><ele>744.6666666666667</ele><time>2026-04-04T08:36:54.149Z</time></trkpt><trkpt lat="46.1212441" lon="12.377433"><ele>750.3333333333334</ele><time>2026-04-04T08:36:55.148Z</time></trkpt><trkpt lat="46.1213299" lon="12.3776497"><ele>756.0</ele><time>2026-04-04T08:36:56.149Z</time></trkpt><trkpt lat="46.1214358" lon="12.3778478"><ele>758.0</ele><time>2026-04-04T08:36:57.148Z</time></trkpt><trkpt lat="46.1215644" lon="12.378049"><ele>760.0</ele><time>2026-04-04T08:36:58.149Z</time></trkpt><trkpt lat="46.1216829" lon="12.3782764"><ele>762.0</ele><time>2026-04-04T08:36:59.15Z</time></trkpt><trkpt lat="46.121793" lon="12.3785198"><ele>762.0</ele><time>2026-04-04T08:37:00.148Z</time></trkpt><trkpt lat="46.1219022" lon="12.3787525"><ele>762.0</ele><time>2026-04-04T08:37:01.149Z</time></trkpt><trkpt lat="46.1219932" lon="12.3789555"><ele>762.0</ele><time>2026-04-04T08:37:02.148Z</time></trkpt><trkpt lat="46.122066" lon="12.3791279"><ele>766.75</ele><time>2026-04-04T08:37:03.148Z</time></trkpt><trkpt lat="46.1221415" lon="12.3792883"><ele>771.5</ele><time>2026-04-04T08:37:04.149Z</time></trkpt><trkpt lat="46.1222153" lon="12.3794279"><ele>776.25</ele><time>2026-04-04T08:37:05.149Z</time></trkpt><trkpt lat="46.1222933" lon="12.3795369"><ele>781.0</ele><time>2026-04-04T08:37:06.15Z</time></trkpt><trkpt lat="46.1223715" lon="12.3796174"><ele>781.4</ele><time>2026-04-04T08:37:07.149Z</time></trkpt><trkpt lat="46.1224467" lon="12.3796741"><ele>781.8</ele><time>2026-04-04T08:37:08.149Z</time></trkpt><trkpt lat="46.1225405" lon="12.3797567"><ele>782.1999999999999</ele><time>2026-04-04T08:37:10.148Z</time></trkpt><trkpt lat="46.1225632" lon="12.3798912"><ele>782.5999999999999</ele><time>2026-04-04T08:37:12.149Z</time></trkpt><trkpt lat="46.122457" lon="12.379961"><ele>783.0</ele><time>2026-04-04T08:37:14.149Z</time></trkpt><trkpt lat="46.122368" lon="12.3799247"><ele>782.5</ele><time>2026-04-04T08:37:15.149Z</time></trkpt><trkpt lat="46.1222608" lon="12.3798477"><ele>782.0</ele><time>2026-04-04T08:37:16.149Z</time></trkpt><trkpt lat="46.1221339" lon="12.3797713"><ele>781.5</ele><time>2026-04-04T08:37:17.149Z</time></trkpt><trkpt lat="46.1219849" lon="12.3797038"><ele>781.0</ele><time>2026-04-04T08:37:18.149Z</time></trkpt><trkpt lat="46.1218196" lon="12.3796475"><ele>781.0</ele><time>2026-04-04T08:37:19.149Z</time></trkpt><trkpt lat="46.1216471" lon="12.3795901"><ele>781.0</ele><time>2026-04-04T08:37:20.149Z</time></trkpt><trkpt lat="46.1214717" lon="12.3795388"><ele>781.0</ele><time>2026-04-04T08:37:21.149Z</time></trkpt><trkpt lat="46.1213108" lon="12.3794922"><ele>782.5</ele><time>2026-04-04T08:37:22.149Z</time></trkpt><trkpt lat="46.1211751" lon="12.3794546"><ele>784.0</ele><time>2026-04-04T08:37:23.149Z</time></trkpt><trkpt lat="46.1210623" lon="12.3794254"><ele>785.5</ele><time>2026-04-04T08:37:24.149Z</time></trkpt><trkpt lat="46.1209611" lon="12.3793961"><ele>787.0</ele><time>2026-04-04T08:37:25.148Z</time></trkpt><trkpt lat="46.1208638" lon="12.3793864"><ele>787.0</ele><time>2026-04-04T08:37:26.149Z</time></trkpt><trkpt lat="46.1207738" lon="12.3794218"><ele>787.0</ele><time>2026-04-04T08:37:27.148Z</time></trkpt><trkpt lat="46.1207057" lon="12.3795067"><ele>787.0</ele><time>2026-04-04T08:37:28.149Z</time></trkpt><trkpt lat="46.1206602" lon="12.3796389"><ele>787.0</ele><time>2026-04-04T08:37:29.148Z</time></trkpt><trkpt lat="46.1206419" lon="12.3798144"><ele>787.0</ele><time>2026-04-04T08:37:30.148Z</time></trkpt><trkpt lat="46.1206365" lon="12.3800126"><ele>785.8333333333333</ele><time>2026-04-04T08:37:31.149Z</time></trkpt><trkpt lat="46.1206307" lon="12.3801264"><ele>784.6666666666666</ele><time>2026-04-04T08:37:32.15Z</time></trkpt><trkpt lat="46.1206247" lon="12.3802272"><ele>783.5</ele><time>2026-04-04T08:37:33.149Z</time></trkpt><trkpt lat="46.1206158" lon="12.3803874"><ele>782.3333333333333</ele><time>2026-04-04T08:37:35.148Z</time></trkpt><trkpt lat="46.1206086" lon="12.3804789"><ele>781.1666666666666</ele><time>2026-04-04T08:37:36.148Z</time></trkpt><trkpt lat="46.1205973" lon="12.3805945"><ele>780.0</ele><time>2026-04-04T08:37:37.148Z</time></trkpt><trkpt lat="46.1205875" lon="12.3807317"><ele>778.75</ele><time>2026-04-04T08:37:38.149Z</time></trkpt><trkpt lat="46.1205794" lon="12.3809"><ele>777.5</ele><time>2026-04-04T08:37:39.149Z</time></trkpt><trkpt lat="46.1205695" lon="12.3810939"><ele>776.25</ele><time>2026-04-04T08:37:40.148Z</time></trkpt><trkpt lat="46.1205715" lon="12.3813027"><ele>775.0</ele><time>2026-04-04T08:37:41.148Z</time></trkpt><trkpt lat="46.1205853" lon="12.3815054"><ele>774.0</ele><time>2026-04-04T08:37:42.148Z</time></trkpt><trkpt lat="46.1206112" lon="12.3817055"><ele>773.0</ele><time>2026-04-04T08:37:43.15Z</time></trkpt><trkpt lat="46.1206478" lon="12.3819122"><ele>772.0</ele><time>2026-04-04T08:37:44.148Z</time></trkpt><trkpt lat="46.1207035" lon="12.3821247"><ele>771.0</ele><time>2026-04-04T08:37:45.148Z</time></trkpt><trkpt lat="46.1207729" lon="12.3823289"><ele>786.3333333333333</ele><time>2026-04-04T08:37:46.149Z</time></trkpt><trkpt lat="46.1208549" lon="12.3825378"><ele>801.6666666666666</ele><time>2026-04-04T08:37:47.148Z</time></trkpt><trkpt lat="46.1209455" lon="12.3827534"><ele>817.0</ele><time>2026-04-04T08:37:48.148Z</time></trkpt><trkpt lat="46.1210365" lon="12.3829728"><ele>817.5</ele><time>2026-04-04T08:37:49.148Z</time></trkpt><trkpt lat="46.121123" lon="12.3831868"><ele>818.0</ele><time>2026-04-04T08:37:50.149Z</time></trkpt><trkpt lat="46.1211976" lon="12.3833691"><ele>818.5</ele><time>2026-04-04T08:37:51.149Z</time></trkpt><trkpt lat="46.121266" lon="12.3835293"><ele>819.0</ele><time>2026-04-04T08:37:52.148Z</time></trkpt><trkpt lat="46.1213261" lon="12.3836785"><ele>819.0</ele><time>2026-04-04T08:37:53.149Z</time></trkpt><trkpt lat="46.1213825" lon="12.3838184"><ele>819.0</ele><time>2026-04-04T08:37:54.149Z</time></trkpt><trkpt lat="46.1214342" lon="12.3839442"><ele>819.0</ele><time>2026-04-04T08:37:55.148Z</time></trkpt><trkpt lat="46.1214904" lon="12.3840692"><ele>819.0</ele><time>2026-04-04T08:37:56.148Z</time></trkpt><trkpt lat="46.1215424" lon="12.3841777"><ele>819.0</ele><time>2026-04-04T08:37:57.15Z</time></trkpt><trkpt lat="46.1216054" lon="12.3842967"><ele>821.75</ele><time>2026-04-04T08:37:58.148Z</time></trkpt><trkpt lat="46.121684" lon="12.3844357"><ele>824.5</ele><time>2026-04-04T08:37:59.149Z</time></trkpt><trkpt lat="46.1217686" lon="12.3845832"><ele>827.25</ele><time>2026-04-04T08:38:00.149Z</time></trkpt><trkpt lat="46.121858" lon="12.3847407"><ele>830.0</ele><time>2026-04-04T08:38:01.148Z</time></trkpt><trkpt lat="46.1219536" lon="12.3849033"><ele>830.0</ele><time>2026-04-04T08:38:02.149Z</time></trkpt><trkpt lat="46.1220406" lon="12.3850799"><ele>830.0</ele><time>2026-04-04T08:38:03.148Z</time></trkpt><trkpt lat="46.1221081" lon="12.3852599"><ele>830.0</ele><time>2026-04-04T08:38:04.149Z</time></trkpt><trkpt lat="46.1221669" lon="12.3854281"><ele>830.0</ele><time>2026-04-04T08:38:05.149Z</time></trkpt><trkpt lat="46.1222255" lon="12.3855854"><ele>831.5</ele><time>2026-04-04T08:38:06.148Z</time></trkpt><trkpt lat="46.1222931" lon="12.3857321"><ele>833.0</ele><time>2026-04-04T08:38:07.149Z</time></trkpt><trkpt lat="46.1223715" lon="12.385868"><ele>834.5</ele><time>2026-04-04T08:38:08.149Z</time></trkpt><trkpt lat="46.1224572" lon="12.3859853"><ele>836.0</ele><time>2026-04-04T08:38:09.15Z</time></trkpt><trkpt lat="46.1225483" lon="12.3860865"><ele>838.0</ele><time>2026-04-04T08:38:10.148Z</time></trkpt><trkpt lat="46.1226524" lon="12.3861728"><ele>840.0</ele><time>2026-04-04T08:38:11.148Z</time></trkpt><trkpt lat="46.1227613" lon="12.3862564"><ele>842.0</ele><time>2026-04-04T08:38:12.149Z</time></trkpt><trkpt lat="46.1228604" lon="12.3863586"><ele>844.0</ele><time>2026-04-04T08:38:13.149Z</time></trkpt><trkpt lat="46.1229407" lon="12.3864781"><ele>844.0</ele><time>2026-04-04T08:38:14.149Z</time></trkpt><trkpt lat="46.1230133" lon="12.3866186"><ele>844.0</ele><time>2026-04-04T08:38:15.149Z</time></trkpt><trkpt lat="46.1230816" lon="12.3867741"><ele>844.0</ele><time>2026-04-04T08:38:16.148Z</time></trkpt><trkpt lat="46.1231439" lon="12.3869235"><ele>844.0</ele><time>2026-04-04T08:38:17.149Z</time></trkpt><trkpt lat="46.1231871" lon="12.3870623"><ele>846.2</ele><time>2026-04-04T08:38:18.149Z</time></trkpt><trkpt lat="46.1232196" lon="12.3872032"><ele>848.4000000000001</ele><time>2026-04-04T08:38:19.148Z</time></trkpt><trkpt lat="46.1232478" lon="12.3873475"><ele>850.6</ele><time>2026-04-04T08:38:20.149Z</time></trkpt><trkpt lat="46.123279" lon="12.3874985"><ele>852.8</ele><time>2026-04-04T08:38:21.149Z</time></trkpt><trkpt lat="46.1232987" lon="12.3876551"><ele>855.0</ele><time>2026-04-04T08:38:22.148Z</time></trkpt><trkpt lat="46.1233018" lon="12.3878193"><ele>855.0</ele><time>2026-04-04T08:38:23.148Z</time></trkpt><trkpt lat="46.1233063" lon="12.387992"><ele>855.0</ele><time>2026-04-04T08:38:24.148Z</time></trkpt><trkpt lat="46.123324" lon="12.3881605"><ele>855.0</ele><time>2026-04-04T08:38:25.148Z</time></trkpt><trkpt lat="46.1233511" lon="12.3883303"><ele>855.0</ele><time>2026-04-04T08:38:26.149Z</time></trkpt><trkpt lat="46.1233779" lon="12.3884851"><ele>854.8</ele><time>2026-04-04T08:38:27.149Z</time></trkpt><trkpt lat="46.1233937" lon="12.3886287"><ele>854.6</ele><time>2026-04-04T08:38:28.148Z</time></trkpt><trkpt lat="46.1234009" lon="12.3887659"><ele>854.4000000000001</ele><time>2026-04-04T08:38:29.148Z</time></trkpt><trkpt lat="46.1233946" lon="12.3889046"><ele>854.2</ele><time>2026-04-04T08:38:30.149Z</time></trkpt><trkpt lat="46.1233672" lon="12.389036"><ele>854.0</ele><time>2026-04-04T08:38:31.148Z</time></trkpt><trkpt lat="46.123323" lon="12.3891557"><ele>853.75</ele><time>2026-04-04T08:38:32.149Z</time></trkpt><trkpt lat="46.1232468" lon="12.3892648"><ele>853.5</ele><time>2026-04-04T08:38:33.148Z</time></trkpt><trkpt lat="46.1231422" lon="12.3893687"><ele>853.25</ele><time>2026-04-04T08:38:34.149Z</time></trkpt><trkpt lat="46.1230232" lon="12.3894656"><ele>853.0</ele><time>2026-04-04T08:38:35.149Z</time></trkpt><trkpt lat="46.1229" lon="12.3895665"><ele>854.75</ele><time>2026-04-04T08:38:36.149Z</time></trkpt><trkpt lat="46.1227849" lon="12.3896637"><ele>856.5</ele><time>2026-04-04T08:38:37.149Z</time></trkpt><trkpt lat="46.1226785" lon="12.3897528"><ele>858.25</ele><time>2026-04-04T08:38:38.149Z</time></trkpt><trkpt lat="46.1225758" lon="12.3898428"><ele>860.0</ele><time>2026-04-04T08:38:39.148Z</time></trkpt><trkpt lat="46.1224713" lon="12.3899424"><ele>860.75</ele><time>2026-04-04T08:38:40.149Z</time></trkpt><trkpt lat="46.1223641" lon="12.3900491"><ele>861.5</ele><time>2026-04-04T08:38:41.149Z</time></trkpt><trkpt lat="46.1222554" lon="12.3901588"><ele>862.25</ele><time>2026-04-04T08:38:42.15Z</time></trkpt><trkpt lat="46.1221484" lon="12.3902736"><ele>863.0</ele><time>2026-04-04T08:38:43.149Z</time></trkpt><trkpt lat="46.122052" lon="12.3903988"><ele>863.0</ele><time>2026-04-04T08:38:44.149Z</time></trkpt><trkpt lat="46.1219655" lon="12.3905303"><ele>863.0</ele><time>2026-04-04T08:38:45.149Z</time></trkpt><trkpt lat="46.1218799" lon="12.3906729"><ele>863.0</ele><time>2026-04-04T08:38:46.15Z</time></trkpt><trkpt lat="46.1217954" lon="12.3908301"><ele>863.0</ele><time>2026-04-04T08:38:47.15Z</time></trkpt><trkpt lat="46.1217134" lon="12.3909938"><ele>863.0</ele><time>2026-04-04T08:38:48.149Z</time></trkpt><trkpt lat="46.1216317" lon="12.3911589"><ele>863.0</ele><time>2026-04-04T08:38:49.15Z</time></trkpt><trkpt lat="46.1215476" lon="12.3913229"><ele>863.0</ele><time>2026-04-04T08:38:50.151Z</time></trkpt><trkpt lat="46.1214645" lon="12.3914881"><ele>863.0</ele><time>2026-04-04T08:38:51.149Z</time></trkpt><trkpt lat="46.121381" lon="12.3916618"><ele>861.0</ele><time>2026-04-04T08:38:52.15Z</time></trkpt><trkpt lat="46.1212981" lon="12.3918395"><ele>859.0</ele><time>2026-04-04T08:38:53.15Z</time></trkpt><trkpt lat="46.1212175" lon="12.3920161"><ele>857.0</ele><time>2026-04-04T08:38:54.15Z</time></trkpt><trkpt lat="46.1211391" lon="12.3921885"><ele>855.0</ele><time>2026-04-04T08:38:55.15Z</time></trkpt><trkpt lat="46.1210522" lon="12.3923631"><ele>855.0</ele><time>2026-04-04T08:38:56.149Z</time></trkpt><trkpt lat="46.120963" lon="12.392529"><ele>855.0</ele><time>2026-04-04T08:38:57.15Z</time></trkpt><trkpt lat="46.1208694" lon="12.3926832"><ele>855.0</ele><time>2026-04-04T08:38:58.151Z</time></trkpt><trkpt lat="46.1207607" lon="12.3928257"><ele>855.0</ele><time>2026-04-04T08:38:59.149Z</time></trkpt><trkpt lat="46.120648" lon="12.3929682"><ele>851.0</ele><time>2026-04-04T08:39:00.15Z</time></trkpt><trkpt lat="46.1205375" lon="12.3931205"><ele>847.0</ele><time>2026-04-04T08:39:01.149Z</time></trkpt><trkpt lat="46.1204385" lon="12.3932908"><ele>843.0</ele><time>2026-04-04T08:39:02.15Z</time></trkpt><trkpt lat="46.1203556" lon="12.3934757"><ele>843.0</ele><time>2026-04-04T08:39:03.149Z</time></trkpt><trkpt lat="46.1202867" lon="12.393673"><ele>843.0</ele><time>2026-04-04T08:39:04.151Z</time></trkpt><trkpt lat="46.1202263" lon="12.3938751"><ele>843.0</ele><time>2026-04-04T08:39:05.149Z</time></trkpt><trkpt lat="46.1201803" lon="12.3940735"><ele>844.0</ele><time>2026-04-04T08:39:06.151Z</time></trkpt><trkpt lat="46.1201428" lon="12.3942613"><ele>845.0</ele><time>2026-04-04T08:39:07.149Z</time></trkpt><trkpt lat="46.1201064" lon="12.3944424"><ele>846.0</ele><time>2026-04-04T08:39:08.15Z</time></trkpt><trkpt lat="46.1200699" lon="12.3946217"><ele>847.0</ele><time>2026-04-04T08:39:09.15Z</time></trkpt><trkpt lat="46.1200234" lon="12.3948076"><ele>849.0</ele><time>2026-04-04T08:39:10.149Z</time></trkpt><trkpt lat="46.1199596" lon="12.3949955"><ele>851.0</ele><time>2026-04-04T08:39:11.15Z</time></trkpt><trkpt lat="46.1198782" lon="12.3951765"><ele>853.0</ele><time>2026-04-04T08:39:12.149Z</time></trkpt><trkpt lat="46.1197802" lon="12.3953519"><ele>854.0</ele><time>2026-04-04T08:39:13.149Z</time></trkpt><trkpt lat="46.1196726" lon="12.3955165"><ele>855.0</ele><time>2026-04-04T08:39:14.15Z</time></trkpt><trkpt lat="46.1195689" lon="12.3956912"><ele>856.0</ele><time>2026-04-04T08:39:15.15Z</time></trkpt><trkpt lat="46.119479" lon="12.3958751"><ele>856.0</ele><time>2026-04-04T08:39:16.149Z</time></trkpt><trkpt lat="46.1193907" lon="12.3960552"><ele>856.0</ele><time>2026-04-04T08:39:17.15Z</time></trkpt><trkpt lat="46.1193065" lon="12.3962359"><ele>856.0</ele><time>2026-04-04T08:39:18.149Z</time></trkpt><trkpt lat="46.1192253" lon="12.3964165"><ele>853.5</ele><time>2026-04-04T08:39:19.149Z</time></trkpt><trkpt lat="46.1191487" lon="12.3965892"><ele>851.0</ele><time>2026-04-04T08:39:20.15Z</time></trkpt><trkpt lat="46.1190762" lon="12.3967557"><ele>848.5</ele><time>2026-04-04T08:39:21.15Z</time></trkpt><trkpt lat="46.11901" lon="12.3969363"><ele>846.0</ele><time>2026-04-04T08:39:22.15Z</time></trkpt><trkpt lat="46.118955" lon="12.3971281"><ele>848.75</ele><time>2026-04-04T08:39:23.151Z</time></trkpt><trkpt lat="46.1189125" lon="12.3973274"><ele>851.5</ele><time>2026-04-04T08:39:24.15Z</time></trkpt><trkpt lat="46.118877" lon="12.3975342"><ele>854.25</ele><time>2026-04-04T08:39:25.15Z</time></trkpt><trkpt lat="46.1188387" lon="12.3977394"><ele>857.0</ele><time>2026-04-04T08:39:26.15Z</time></trkpt><trkpt lat="46.1187851" lon="12.3979353"><ele>860.3333333333334</ele><time>2026-04-04T08:39:27.149Z</time></trkpt><trkpt lat="46.1187223" lon="12.3981298"><ele>863.6666666666667</ele><time>2026-04-04T08:39:28.15Z</time></trkpt><trkpt lat="46.1186469" lon="12.3983174"><ele>867.0</ele><time>2026-04-04T08:39:29.149Z</time></trkpt><trkpt lat="46.1185628" lon="12.3985015"><ele>867.0</ele><time>2026-04-04T08:39:30.15Z</time></trkpt><trkpt lat="46.1184742" lon="12.3986812"><ele>867.0</ele><time>2026-04-04T08:39:31.15Z</time></trkpt><trkpt lat="46.1183851" lon="12.3988564"><ele>867.0</ele><time>2026-04-04T08:39:32.15Z</time></trkpt><trkpt lat="46.1183025" lon="12.3990146"><ele>867.0</ele><time>2026-04-04T08:39:33.15Z</time></trkpt><trkpt lat="46.118225" lon="12.3991611"><ele>869.75</ele><time>2026-04-04T08:39:34.149Z</time></trkpt><trkpt lat="46.118143" lon="12.3992984"><ele>872.5</ele><time>2026-04-04T08:39:35.149Z</time></trkpt><trkpt lat="46.1180451" lon="12.3994222"><ele>875.25</ele><time>2026-04-04T08:39:36.149Z</time></trkpt><trkpt lat="46.1179273" lon="12.3995182"><ele>878.0</ele><time>2026-04-04T08:39:37.149Z</time></trkpt><trkpt lat="46.1177915" lon="12.3995915"><ele>878.0</ele><time>2026-04-04T08:39:38.15Z</time></trkpt><trkpt lat="46.1176466" lon="12.3996592"><ele>878.0</ele><time>2026-04-04T08:39:39.15Z</time></trkpt><trkpt lat="46.1174975" lon="12.3997359"><ele>878.0</ele><time>2026-04-04T08:39:40.151Z</time></trkpt><trkpt lat="46.1173455" lon="12.3998374"><ele>882.0</ele><time>2026-04-04T08:39:41.15Z</time></trkpt><trkpt lat="46.117197" lon="12.3999625"><ele>886.0</ele><time>2026-04-04T08:39:42.15Z</time></trkpt><trkpt lat="46.1170616" lon="12.4001069"><ele>890.0</ele><time>2026-04-04T08:39:43.151Z</time></trkpt><trkpt lat="46.1169253" lon="12.400275"><ele>890.0</ele><time>2026-04-04T08:39:44.15Z</time></trkpt><trkpt lat="46.1168127" lon="12.400469"><ele>890.0</ele><time>2026-04-04T08:39:45.149Z</time></trkpt><trkpt lat="46.116716" lon="12.4006788"><ele>890.0</ele><time>2026-04-04T08:39:46.149Z</time></trkpt><trkpt lat="46.1166306" lon="12.4009157"><ele>893.6666666666667</ele><time>2026-04-04T08:39:47.149Z</time></trkpt><trkpt lat="46.1165584" lon="12.4011787"><ele>897.3333333333333</ele><time>2026-04-04T08:39:48.149Z</time></trkpt><trkpt lat="46.1165023" lon="12.4014398"><ele>901.0</ele><time>2026-04-04T08:39:49.149Z</time></trkpt><trkpt lat="46.1164579" lon="12.4016608"><ele>902.0</ele><time>2026-04-04T08:39:50.151Z</time></trkpt><trkpt lat="46.1164188" lon="12.4018386"><ele>902.9999999999999</ele><time>2026-04-04T08:39:51.151Z</time></trkpt><trkpt lat="46.1163798" lon="12.4019896"><ele>903.9999999999999</ele><time>2026-04-04T08:39:52.149Z</time></trkpt><trkpt lat="46.1163184" lon="12.4020933"><ele>905.0</ele><time>2026-04-04T08:39:53.149Z</time></trkpt><trkpt lat="46.1162304" lon="12.402173"><ele>906.0</ele><time>2026-04-04T08:39:54.15Z</time></trkpt><trkpt lat="46.1161308" lon="12.402232"><ele>907.4</ele><time>2026-04-04T08:39:55.149Z</time></trkpt><trkpt lat="46.1160319" lon="12.4022883"><ele>908.8</ele><time>2026-04-04T08:39:56.15Z</time></trkpt><trkpt lat="46.1159448" lon="12.4023472"><ele>910.1999999999999</ele><time>2026-04-04T08:39:57.15Z</time></trkpt><trkpt lat="46.1158724" lon="12.4024062"><ele>911.5999999999999</ele><time>2026-04-04T08:39:58.15Z</time></trkpt><trkpt lat="46.1157997" lon="12.4024792"><ele>913.0</ele><time>2026-04-04T08:39:59.149Z</time></trkpt><trkpt lat="46.1157358" lon="12.4025524"><ele>913.6666666666666</ele><time>2026-04-04T08:40:00.149Z</time></trkpt><trkpt lat="46.1156825" lon="12.4026159"><ele>914.3333333333333</ele><time>2026-04-04T08:40:01.149Z</time></trkpt><trkpt lat="46.1156308" lon="12.4026805"><ele>915.0</ele><time>2026-04-04T08:40:02.149Z</time></trkpt><trkpt lat="46.1155816" lon="12.4027399"><ele>915.6666666666667</ele><time>2026-04-04T08:40:03.149Z</time></trkpt><trkpt lat="46.115521" lon="12.4028149"><ele>916.3333333333334</ele><time>2026-04-04T08:40:04.149Z</time></trkpt><trkpt lat="46.1154485" lon="12.4028754"><ele>917.0</ele><time>2026-04-04T08:40:05.149Z</time></trkpt><trkpt lat="46.1153581" lon="12.4029095"><ele>917.0000000000001</ele><time>2026-04-04T08:40:06.149Z</time></trkpt><trkpt lat="46.1152767" lon="12.4029278"><ele>917.0</ele><time>2026-04-04T08:40:07.15Z</time></trkpt><trkpt lat="46.1152032" lon="12.4029255"><ele>917.0</ele><time>2026-04-04T08:40:08.15Z</time></trkpt><trkpt lat="46.1151297" lon="12.4029059"><ele>917.0</ele><time>2026-04-04T08:40:09.15Z</time></trkpt><trkpt lat="46.1150567" lon="12.4028716"><ele>917.0000000000001</ele><time>2026-04-04T08:40:10.15Z</time></trkpt><trkpt lat="46.1149861" lon="12.4028171"><ele>917.0</ele><time>2026-04-04T08:40:11.151Z</time></trkpt><trkpt lat="46.1149242" lon="12.4027371"><ele>917.8333333333334</ele><time>2026-04-04T08:40:12.149Z</time></trkpt><trkpt lat="46.1148742" lon="12.4026594"><ele>918.6666666666667</ele><time>2026-04-04T08:40:13.149Z</time></trkpt><trkpt lat="46.1148071" lon="12.4025614"><ele>919.5</ele><time>2026-04-04T08:40:15.15Z</time></trkpt><trkpt lat="46.1147694" lon="12.4024877"><ele>920.3333333333333</ele><time>2026-04-04T08:40:19.15Z</time></trkpt><trkpt lat="46.1146983" lon="12.4024329"><ele>921.1666666666666</ele><time>2026-04-04T08:40:31.149Z</time></trkpt><trkpt lat="46.114639" lon="12.4023899"><ele>922.0</ele><time>2026-04-04T08:40:32.15Z</time></trkpt><trkpt lat="46.1145653" lon="12.4023544"><ele>921.9999999999999</ele><time>2026-04-04T08:40:33.149Z</time></trkpt><trkpt lat="46.1144881" lon="12.4023225"><ele>922.0</ele><time>2026-04-04T08:40:34.149Z</time></trkpt><trkpt lat="46.1144142" lon="12.4023004"><ele>922.0</ele><time>2026-04-04T08:40:35.15Z</time></trkpt><trkpt lat="46.1143082" lon="12.4022823"><ele>922.0</ele><time>2026-04-04T08:40:37.149Z</time></trkpt><trkpt lat="46.1142444" lon="12.4022633"><ele>921.9999999999999</ele><time>2026-04-04T08:40:39.149Z</time></trkpt><trkpt lat="46.1141658" lon="12.4022403"><ele>922.0</ele><time>2026-04-04T08:40:43.149Z</time></trkpt><trkpt lat="46.1140615" lon="12.4022706"><ele>921.8</ele><time>2026-04-04T08:40:45.149Z</time></trkpt><trkpt lat="46.1139832" lon="12.4022986"><ele>921.6</ele><time>2026-04-04T08:40:46.15Z</time></trkpt><trkpt lat="46.1138902" lon="12.4023118"><ele>921.3999999999999</ele><time>2026-04-04T08:40:47.149Z</time></trkpt><trkpt lat="46.1137903" lon="12.4023128"><ele>921.1999999999999</ele><time>2026-04-04T08:40:48.15Z</time></trkpt><trkpt lat="46.1136864" lon="12.4023151"><ele>921.0</ele><time>2026-04-04T08:40:49.149Z</time></trkpt><trkpt lat="46.1135919" lon="12.4023182"><ele>921.0000000000001</ele><time>2026-04-04T08:40:50.149Z</time></trkpt><trkpt lat="46.1135101" lon="12.4023152"><ele>921.0</ele><time>2026-04-04T08:40:51.149Z</time></trkpt><trkpt lat="46.1134291" lon="12.4022955"><ele>921.0000000000001</ele><time>2026-04-04T08:40:52.15Z</time></trkpt><trkpt lat="46.1133545" lon="12.4022911"><ele>921.0000000000001</ele><time>2026-04-04T08:40:53.15Z</time></trkpt><trkpt lat="46.1132951" lon="12.4023213"><ele>921.0</ele><time>2026-04-04T08:40:54.15Z</time></trkpt><trkpt lat="46.1132467" lon="12.402389"><ele>921.0000000000001</ele><time>2026-04-04T08:40:55.149Z</time></trkpt><trkpt lat="46.1132028" lon="12.4024863"><ele>921.0000000000001</ele><time>2026-04-04T08:40:56.149Z</time></trkpt><trkpt lat="46.1131432" lon="12.4025917"><ele>921.75</ele><time>2026-04-04T08:40:57.149Z</time></trkpt><trkpt lat="46.113086" lon="12.402725"><ele>922.5</ele><time>2026-04-04T08:40:58.15Z</time></trkpt><trkpt lat="46.1130362" lon="12.4028816"><ele>923.25</ele><time>2026-04-04T08:40:59.149Z</time></trkpt><trkpt lat="46.113002" lon="12.4030581"><ele>924.0</ele><time>2026-04-04T08:41:00.149Z</time></trkpt><trkpt lat="46.1129934" lon="12.4032748"><ele>924.0</ele><time>2026-04-04T08:41:01.15Z</time></trkpt><trkpt lat="46.1130065" lon="12.4035118"><ele>924.0</ele><time>2026-04-04T08:41:02.149Z</time></trkpt><trkpt lat="46.113028" lon="12.4037584"><ele>924.0</ele><time>2026-04-04T08:41:03.149Z</time></trkpt><trkpt lat="46.1130373" lon="12.4040154"><ele>926.0</ele><time>2026-04-04T08:41:04.149Z</time></trkpt><trkpt lat="46.113031" lon="12.4042805"><ele>928.0</ele><time>2026-04-04T08:41:05.149Z</time></trkpt><trkpt lat="46.1130081" lon="12.4045603"><ele>930.0</ele><time>2026-04-04T08:41:06.149Z</time></trkpt><trkpt lat="46.112973" lon="12.4048621"><ele>932.0</ele><time>2026-04-04T08:41:07.15Z</time></trkpt><trkpt lat="46.1129306" lon="12.4051801"><ele>934.0</ele><time>2026-04-04T08:41:08.149Z</time></trkpt><trkpt lat="46.1129043" lon="12.4054675"><ele>936.0</ele><time>2026-04-04T08:41:09.149Z</time></trkpt><trkpt lat="46.1128804" lon="12.4057362"><ele>938.3333333333333</ele><time>2026-04-04T08:41:10.15Z</time></trkpt><trkpt lat="46.1128531" lon="12.4059688"><ele>940.6666666666666</ele><time>2026-04-04T08:41:11.149Z</time></trkpt><trkpt lat="46.1128142" lon="12.4061739"><ele>943.0</ele><time>2026-04-04T08:41:12.15Z</time></trkpt><trkpt lat="46.1127579" lon="12.4063577"><ele>944.5</ele><time>2026-04-04T08:41:13.15Z</time></trkpt><trkpt lat="46.1126801" lon="12.406525"><ele>946.0</ele><time>2026-04-04T08:41:14.15Z</time></trkpt><trkpt lat="46.1125778" lon="12.406678"><ele>947.5</ele><time>2026-04-04T08:41:15.149Z</time></trkpt><trkpt lat="46.1124541" lon="12.4068068"><ele>949.0</ele><time>2026-04-04T08:41:16.15Z</time></trkpt><trkpt lat="46.1123219" lon="12.4069272"><ele>949.5</ele><time>2026-04-04T08:41:17.15Z</time></trkpt><trkpt lat="46.1121927" lon="12.4070418"><ele>950.0</ele><time>2026-04-04T08:41:18.149Z</time></trkpt><trkpt lat="46.1120781" lon="12.4071702"><ele>950.5</ele><time>2026-04-04T08:41:19.149Z</time></trkpt><trkpt lat="46.1119792" lon="12.4073235"><ele>951.0</ele><time>2026-04-04T08:41:20.149Z</time></trkpt><trkpt lat="46.1118905" lon="12.4074868"><ele>951.0</ele><time>2026-04-04T08:41:21.15Z</time></trkpt><trkpt lat="46.1117973" lon="12.407635"><ele>951.0</ele><time>2026-04-04T08:41:22.149Z</time></trkpt><trkpt lat="46.1116829" lon="12.407765"><ele>951.0</ele><time>2026-04-04T08:41:23.149Z</time></trkpt><trkpt lat="46.1115516" lon="12.407885"><ele>951.0</ele><time>2026-04-04T08:41:24.149Z</time></trkpt><trkpt lat="46.1114104" lon="12.4079898"><ele>953.3333333333333</ele><time>2026-04-04T08:41:25.149Z</time></trkpt><trkpt lat="46.111263" lon="12.4080745"><ele>955.6666666666666</ele><time>2026-04-04T08:41:26.151Z</time></trkpt><trkpt lat="46.111106" lon="12.4081327"><ele>958.0</ele><time>2026-04-04T08:41:27.149Z</time></trkpt><trkpt lat="46.1109464" lon="12.4081578"><ele>958.0</ele><time>2026-04-04T08:41:28.149Z</time></trkpt><trkpt lat="46.1107796" lon="12.4081465"><ele>958.0</ele><time>2026-04-04T08:41:29.151Z</time></trkpt><trkpt lat="46.1106125" lon="12.4081016"><ele>958.0</ele><time>2026-04-04T08:41:30.149Z</time></trkpt><trkpt lat="46.110447" lon="12.408027"><ele>958.6666666666666</ele><time>2026-04-04T08:41:31.149Z</time></trkpt><trkpt lat="46.1102815" lon="12.4079464"><ele>959.3333333333333</ele><time>2026-04-04T08:41:32.15Z</time></trkpt><trkpt lat="46.1101229" lon="12.4078736"><ele>960.0</ele><time>2026-04-04T08:41:33.15Z</time></trkpt><trkpt lat="46.1099763" lon="12.4078112"><ele>958.25</ele><time>2026-04-04T08:41:34.149Z</time></trkpt><trkpt lat="46.1098382" lon="12.4077613"><ele>956.5</ele><time>2026-04-04T08:41:35.149Z</time></trkpt><trkpt lat="46.1097078" lon="12.4077309"><ele>954.75</ele><time>2026-04-04T08:41:36.149Z</time></trkpt><trkpt lat="46.1095856" lon="12.4077396"><ele>953.0</ele><time>2026-04-04T08:41:37.149Z</time></trkpt><trkpt lat="46.1094756" lon="12.4078063"><ele>953.0</ele><time>2026-04-04T08:41:38.15Z</time></trkpt><trkpt lat="46.109385" lon="12.4079087"><ele>953.0</ele><time>2026-04-04T08:41:39.149Z</time></trkpt><trkpt lat="46.1093203" lon="12.4080345"><ele>953.0</ele><time>2026-04-04T08:41:40.149Z</time></trkpt><trkpt lat="46.109288" lon="12.408187"><ele>953.0</ele><time>2026-04-04T08:41:41.149Z</time></trkpt><trkpt lat="46.1092807" lon="12.4083699"><ele>952.3333333333334</ele><time>2026-04-04T08:41:42.149Z</time></trkpt><trkpt lat="46.1092917" lon="12.4085839"><ele>951.6666666666667</ele><time>2026-04-04T08:41:43.15Z</time></trkpt><trkpt lat="46.1093127" lon="12.4088232"><ele>951.0</ele><time>2026-04-04T08:41:44.15Z</time></trkpt><trkpt lat="46.1093287" lon="12.4090798"><ele>951.0</ele><time>2026-04-04T08:41:45.15Z</time></trkpt><trkpt lat="46.1093305" lon="12.4093472"><ele>951.0</ele><time>2026-04-04T08:41:46.15Z</time></trkpt><trkpt lat="46.109317" lon="12.4096062"><ele>951.0</ele><time>2026-04-04T08:41:47.15Z</time></trkpt><trkpt lat="46.1092825" lon="12.4098574"><ele>950.6666666666667</ele><time>2026-04-04T08:41:48.151Z</time></trkpt><trkpt lat="46.1092313" lon="12.4101035"><ele>950.3333333333334</ele><time>2026-04-04T08:41:49.15Z</time></trkpt><trkpt lat="46.109178" lon="12.4103312"><ele>950.0</ele><time>2026-04-04T08:41:50.149Z</time></trkpt><trkpt lat="46.10913" lon="12.4105521"><ele>950.6666666666667</ele><time>2026-04-04T08:41:51.149Z</time></trkpt><trkpt lat="46.1090997" lon="12.4107776"><ele>951.3333333333333</ele><time>2026-04-04T08:41:52.151Z</time></trkpt><trkpt lat="46.1090872" lon="12.4109979"><ele>952.0</ele><time>2026-04-04T08:41:53.149Z</time></trkpt><trkpt lat="46.1090879" lon="12.4112118"><ele>951.0</ele><time>2026-04-04T08:41:54.149Z</time></trkpt><trkpt lat="46.1091104" lon="12.4114111"><ele>950.0</ele><time>2026-04-04T08:41:55.149Z</time></trkpt><trkpt lat="46.1091584" lon="12.4115962"><ele>949.0</ele><time>2026-04-04T08:41:56.149Z</time></trkpt><trkpt lat="46.1092325" lon="12.4117455"><ele>948.0</ele><time>2026-04-04T08:41:57.149Z</time></trkpt><trkpt lat="46.1093329" lon="12.4118629"><ele>948.0</ele><time>2026-04-04T08:41:58.15Z</time></trkpt><trkpt lat="46.1094587" lon="12.4119612"><ele>948.0</ele><time>2026-04-04T08:41:59.149Z</time></trkpt><trkpt lat="46.1096009" lon="12.4120505"><ele>948.0</ele><time>2026-04-04T08:42:00.149Z</time></trkpt><trkpt lat="46.1097473" lon="12.4121428"><ele>949.3333333333333</ele><time>2026-04-04T08:42:01.149Z</time></trkpt><trkpt lat="46.1098862" lon="12.4122682"><ele>950.6666666666666</ele><time>2026-04-04T08:42:02.149Z</time></trkpt><trkpt lat="46.110015" lon="12.4124238"><ele>952.0</ele><time>2026-04-04T08:42:03.149Z</time></trkpt><trkpt lat="46.1101353" lon="12.4126077"><ele>952.0</ele><time>2026-04-04T08:42:04.149Z</time></trkpt><trkpt lat="46.1102435" lon="12.4128137"><ele>952.0</ele><time>2026-04-04T08:42:05.149Z</time></trkpt><trkpt lat="46.1103432" lon="12.4130293"><ele>952.0</ele><time>2026-04-04T08:42:06.149Z</time></trkpt><trkpt lat="46.1104554" lon="12.4132385"><ele>954.0</ele><time>2026-04-04T08:42:07.15Z</time></trkpt><trkpt lat="46.1105706" lon="12.4134319"><ele>956.0</ele><time>2026-04-04T08:42:08.15Z</time></trkpt><trkpt lat="46.1106827" lon="12.4136211"><ele>958.0</ele><time>2026-04-04T08:42:09.15Z</time></trkpt><trkpt lat="46.1107887" lon="12.413808"><ele>952.3333333333333</ele><time>2026-04-04T08:42:10.151Z</time></trkpt><trkpt lat="46.1108918" lon="12.4139921"><ele>946.6666666666667</ele><time>2026-04-04T08:42:11.151Z</time></trkpt><trkpt lat="46.1109946" lon="12.4141642"><ele>941.0</ele><time>2026-04-04T08:42:12.15Z</time></trkpt><trkpt lat="46.1111007" lon="12.4143241"><ele>941.0</ele><time>2026-04-04T08:42:13.151Z</time></trkpt><trkpt lat="46.1111964" lon="12.4144498"><ele>941.0</ele><time>2026-04-04T08:42:14.149Z</time></trkpt><trkpt lat="46.1112752" lon="12.4145722"><ele>941.0</ele><time>2026-04-04T08:42:15.149Z</time></trkpt><trkpt lat="46.1113392" lon="12.4147046"><ele>941.0</ele><time>2026-04-04T08:42:16.149Z</time></trkpt><trkpt lat="46.1113703" lon="12.4148514"><ele>938.25</ele><time>2026-04-04T08:42:17.15Z</time></trkpt><trkpt lat="46.1113544" lon="12.4150018"><ele>935.5</ele><time>2026-04-04T08:42:18.149Z</time></trkpt><trkpt lat="46.1112969" lon="12.4151403"><ele>932.75</ele><time>2026-04-04T08:42:19.15Z</time></trkpt><trkpt lat="46.1112173" lon="12.4152763"><ele>930.0</ele><time>2026-04-04T08:42:20.15Z</time></trkpt><trkpt lat="46.1111399" lon="12.4154398"><ele>931.6666666666667</ele><time>2026-04-04T08:42:21.149Z</time></trkpt><trkpt lat="46.1110845" lon="12.4156415"><ele>933.3333333333334</ele><time>2026-04-04T08:42:22.15Z</time></trkpt><trkpt lat="46.111042" lon="12.415851"><ele>935.0</ele><time>2026-04-04T08:42:23.149Z</time></trkpt><trkpt lat="46.1110042" lon="12.4160596"><ele>935.0</ele><time>2026-04-04T08:42:24.15Z</time></trkpt><trkpt lat="46.110976" lon="12.4162618"><ele>935.0</ele><time>2026-04-04T08:42:25.149Z</time></trkpt><trkpt lat="46.1109785" lon="12.4164585"><ele>935.0</ele><time>2026-04-04T08:42:26.149Z</time></trkpt><trkpt lat="46.111006" lon="12.416642"><ele>935.0</ele><time>2026-04-04T08:42:27.149Z</time></trkpt><trkpt lat="46.1110402" lon="12.4168307"><ele>935.5</ele><time>2026-04-04T08:42:28.149Z</time></trkpt><trkpt lat="46.1110517" lon="12.4170315"><ele>936.0</ele><time>2026-04-04T08:42:29.15Z</time></trkpt><trkpt lat="46.1110426" lon="12.4172308"><ele>936.5</ele><time>2026-04-04T08:42:30.15Z</time></trkpt><trkpt lat="46.1110205" lon="12.4174201"><ele>937.0</ele><time>2026-04-04T08:42:31.149Z</time></trkpt><trkpt lat="46.1109822" lon="12.4175941"><ele>937.1666666666666</ele><time>2026-04-04T08:42:32.149Z</time></trkpt><trkpt lat="46.1109391" lon="12.4177352"><ele>937.3333333333333</ele><time>2026-04-04T08:42:33.149Z</time></trkpt><trkpt lat="46.1108973" lon="12.4178504"><ele>937.5</ele><time>2026-04-04T08:42:34.15Z</time></trkpt><trkpt lat="46.1108472" lon="12.4179405"><ele>937.6666666666667</ele><time>2026-04-04T08:42:35.149Z</time></trkpt><trkpt lat="46.110782" lon="12.4180043"><ele>937.8333333333334</ele><time>2026-04-04T08:42:36.149Z</time></trkpt><trkpt lat="46.1106964" lon="12.4180242"><ele>938.0</ele><time>2026-04-04T08:42:37.149Z</time></trkpt><trkpt lat="46.1106074" lon="12.4179935"><ele>944.0</ele><time>2026-04-04T08:42:38.15Z</time></trkpt><trkpt lat="46.1105312" lon="12.4179087"><ele>950.0</ele><time>2026-04-04T08:42:39.149Z</time></trkpt><trkpt lat="46.1104837" lon="12.4177766"><ele>956.0</ele><time>2026-04-04T08:42:40.149Z</time></trkpt><trkpt lat="46.1104668" lon="12.4176163"><ele>962.0</ele><time>2026-04-04T08:42:41.151Z</time></trkpt><trkpt lat="46.1104646" lon="12.4174421"><ele>968.0</ele><time>2026-04-04T08:42:42.149Z</time></trkpt><trkpt lat="46.1104412" lon="12.4172483"><ele>967.0</ele><time>2026-04-04T08:42:43.149Z</time></trkpt><trkpt lat="46.1103927" lon="12.4170455"><ele>966.0</ele><time>2026-04-04T08:42:44.151Z</time></trkpt><trkpt lat="46.1103325" lon="12.4168284"><ele>965.0</ele><time>2026-04-04T08:42:45.149Z</time></trkpt><trkpt lat="46.1102553" lon="12.4165866"><ele>962.3333333333334</ele><time>2026-04-04T08:42:46.149Z</time></trkpt><trkpt lat="46.1101773" lon="12.4163041"><ele>959.6666666666667</ele><time>2026-04-04T08:42:47.149Z</time></trkpt><trkpt lat="46.1100958" lon="12.4160231"><ele>957.0</ele><time>2026-04-04T08:42:48.15Z</time></trkpt><trkpt lat="46.110017" lon="12.4157698"><ele>957.0</ele><time>2026-04-04T08:42:49.15Z</time></trkpt><trkpt lat="46.1099551" lon="12.4155506"><ele>957.0</ele><time>2026-04-04T08:42:50.149Z</time></trkpt><trkpt lat="46.1099048" lon="12.4153685"><ele>957.0</ele><time>2026-04-04T08:42:51.149Z</time></trkpt><trkpt lat="46.1098613" lon="12.4152065"><ele>957.0</ele><time>2026-04-04T08:42:52.15Z</time></trkpt><trkpt lat="46.1097975" lon="12.4150589"><ele>955.0</ele><time>2026-04-04T08:42:53.15Z</time></trkpt><trkpt lat="46.1097095" lon="12.4149253"><ele>953.0</ele><time>2026-04-04T08:42:54.15Z</time></trkpt><trkpt lat="46.1095946" lon="12.4148111"><ele>951.0</ele><time>2026-04-04T08:42:55.15Z</time></trkpt><trkpt lat="46.1094644" lon="12.4147182"><ele>949.0</ele><time>2026-04-04T08:42:56.149Z</time></trkpt><trkpt lat="46.1093283" lon="12.4146299"><ele>949.0</ele><time>2026-04-04T08:42:57.149Z</time></trkpt><trkpt lat="46.1091912" lon="12.4145394"><ele>949.0</ele><time>2026-04-04T08:42:58.149Z</time></trkpt><trkpt lat="46.1090414" lon="12.4144428"><ele>949.0</ele><time>2026-04-04T08:42:59.15Z</time></trkpt><trkpt lat="46.1088906" lon="12.4143435"><ele>958.3333333333333</ele><time>2026-04-04T08:43:00.15Z</time></trkpt><trkpt lat="46.1087406" lon="12.4142467"><ele>967.6666666666667</ele><time>2026-04-04T08:43:01.15Z</time></trkpt><trkpt lat="46.1085944" lon="12.4141538"><ele>977.0</ele><time>2026-04-04T08:43:02.149Z</time></trkpt><trkpt lat="46.1084492" lon="12.4140673"><ele>977.0</ele><time>2026-04-04T08:43:03.15Z</time></trkpt><trkpt lat="46.1082979" lon="12.4139905"><ele>977.0</ele><time>2026-04-04T08:43:04.149Z</time></trkpt><trkpt lat="46.1081365" lon="12.4139456"><ele>977.0</ele><time>2026-04-04T08:43:05.149Z</time></trkpt><trkpt lat="46.1079658" lon="12.4139431"><ele>975.6666666666667</ele><time>2026-04-04T08:43:06.151Z</time></trkpt><trkpt lat="46.1078048" lon="12.4139116"><ele>974.3333333333333</ele><time>2026-04-04T08:43:07.15Z</time></trkpt><trkpt lat="46.107643" lon="12.4138429"><ele>973.0</ele><time>2026-04-04T08:43:08.149Z</time></trkpt><trkpt lat="46.1074796" lon="12.4137704"><ele>988.0</ele><time>2026-04-04T08:43:09.15Z</time></trkpt><trkpt lat="46.1073362" lon="12.4136492"><ele>1003.0</ele><time>2026-04-04T08:43:10.151Z</time></trkpt><trkpt lat="46.1072044" lon="12.4134851"><ele>1018.0</ele><time>2026-04-04T08:43:11.149Z</time></trkpt><trkpt lat="46.1070815" lon="12.4132972"><ele>1018.0</ele><time>2026-04-04T08:43:12.15Z</time></trkpt><trkpt lat="46.1069684" lon="12.4130726"><ele>1018.0</ele><time>2026-04-04T08:43:13.149Z</time></trkpt><trkpt lat="46.1068645" lon="12.4128237"><ele>1018.0</ele><time>2026-04-04T08:43:14.15Z</time></trkpt><trkpt lat="46.1067627" lon="12.4125583"><ele>1022.3333333333333</ele><time>2026-04-04T08:43:15.149Z</time></trkpt><trkpt lat="46.106665" lon="12.4122835"><ele>1026.6666666666667</ele><time>2026-04-04T08:43:16.149Z</time></trkpt><trkpt lat="46.1065831" lon="12.4120184"><ele>1031.0</ele><time>2026-04-04T08:43:17.15Z</time></trkpt><trkpt lat="46.1065018" lon="12.4117821"><ele>1031.0</ele><time>2026-04-04T08:43:18.149Z</time></trkpt><trkpt lat="46.1064227" lon="12.4115696"><ele>1031.0</ele><time>2026-04-04T08:43:19.149Z</time></trkpt><trkpt lat="46.106327" lon="12.4114114"><ele>1031.0</ele><time>2026-04-04T08:43:20.149Z</time></trkpt><trkpt lat="46.106213" lon="12.4112894"><ele>1028.25</ele><time>2026-04-04T08:43:21.15Z</time></trkpt><trkpt lat="46.1061039" lon="12.4111818"><ele>1025.5</ele><time>2026-04-04T08:43:22.151Z</time></trkpt><trkpt lat="46.1060224" lon="12.411052"><ele>1022.75</ele><time>2026-04-04T08:43:23.149Z</time></trkpt><trkpt lat="46.1059738" lon="12.410884"><ele>1020.0</ele><time>2026-04-04T08:43:24.149Z</time></trkpt><trkpt lat="46.1059554" lon="12.4107048"><ele>1020.0</ele><time>2026-04-04T08:43:25.149Z</time></trkpt><trkpt lat="46.1059497" lon="12.4105298"><ele>1020.0</ele><time>2026-04-04T08:43:26.149Z</time></trkpt><trkpt lat="46.1059227" lon="12.4103467"><ele>1020.0</ele><time>2026-04-04T08:43:27.149Z</time></trkpt><trkpt lat="46.1058862" lon="12.4101803"><ele>1020.0</ele><time>2026-04-04T08:43:28.149Z</time></trkpt><trkpt lat="46.1058437" lon="12.4100348"><ele>1021.2</ele><time>2026-04-04T08:43:29.15Z</time></trkpt><trkpt lat="46.1057647" lon="12.4099387"><ele>1022.4</ele><time>2026-04-04T08:43:30.149Z</time></trkpt><trkpt lat="46.1056847" lon="12.4098789"><ele>1023.5999999999999</ele><time>2026-04-04T08:43:31.149Z</time></trkpt><trkpt lat="46.1055853" lon="12.4098661"><ele>1024.8</ele><time>2026-04-04T08:43:32.149Z</time></trkpt><trkpt lat="46.1054763" lon="12.40988"><ele>1026.0</ele><time>2026-04-04T08:43:33.151Z</time></trkpt><trkpt lat="46.1053548" lon="12.4099066"><ele>1026.0</ele><time>2026-04-04T08:43:34.151Z</time></trkpt><trkpt lat="46.1052324" lon="12.4099528"><ele>1026.0</ele><time>2026-04-04T08:43:35.149Z</time></trkpt><trkpt lat="46.105107" lon="12.4099996"><ele>1026.0</ele><time>2026-04-04T08:43:36.15Z</time></trkpt><trkpt lat="46.1049811" lon="12.4100451"><ele>1026.0</ele><time>2026-04-04T08:43:37.149Z</time></trkpt><trkpt lat="46.1048557" lon="12.4100861"><ele>1028.75</ele><time>2026-04-04T08:43:38.149Z</time></trkpt><trkpt lat="46.1047344" lon="12.4101231"><ele>1031.5</ele><time>2026-04-04T08:43:39.149Z</time></trkpt><trkpt lat="46.1046064" lon="12.4101337"><ele>1034.25</ele><time>2026-04-04T08:43:40.149Z</time></trkpt><trkpt lat="46.1044769" lon="12.4101146"><ele>1037.0</ele><time>2026-04-04T08:43:41.149Z</time></trkpt><trkpt lat="46.1043536" lon="12.410048"><ele>1037.0</ele><time>2026-04-04T08:43:42.149Z</time></trkpt><trkpt lat="46.1042337" lon="12.4099463"><ele>1037.0</ele><time>2026-04-04T08:43:43.149Z</time></trkpt><trkpt lat="46.1041074" lon="12.4098309"><ele>1037.0</ele><time>2026-04-04T08:43:44.15Z</time></trkpt><trkpt lat="46.1039765" lon="12.4097143"><ele>1037.0</ele><time>2026-04-04T08:43:45.151Z</time></trkpt><trkpt lat="46.1038364" lon="12.4095936"><ele>1038.6666666666667</ele><time>2026-04-04T08:43:46.149Z</time></trkpt><trkpt lat="46.1036919" lon="12.4094988"><ele>1040.3333333333333</ele><time>2026-04-04T08:43:47.149Z</time></trkpt><trkpt lat="46.10354" lon="12.4094327"><ele>1042.0</ele><time>2026-04-04T08:43:48.15Z</time></trkpt><trkpt lat="46.1033821" lon="12.4094"><ele>1045.0</ele><time>2026-04-04T08:43:49.149Z</time></trkpt><trkpt lat="46.103218" lon="12.4093891"><ele>1048.0</ele><time>2026-04-04T08:43:50.149Z</time></trkpt><trkpt lat="46.1030563" lon="12.4093766"><ele>1051.0</ele><time>2026-04-04T08:43:51.149Z</time></trkpt><trkpt lat="46.1028963" lon="12.4093612"><ele>1051.0</ele><time>2026-04-04T08:43:52.151Z</time></trkpt><trkpt lat="46.1027377" lon="12.4093392"><ele>1051.0</ele><time>2026-04-04T08:43:53.149Z</time></trkpt><trkpt lat="46.1025848" lon="12.4093249"><ele>1051.0</ele><time>2026-04-04T08:43:54.149Z</time></trkpt><trkpt lat="46.1024425" lon="12.4093157"><ele>1053.0</ele><time>2026-04-04T08:43:55.149Z</time></trkpt><trkpt lat="46.1023112" lon="12.4093092"><ele>1055.0</ele><time>2026-04-04T08:43:56.15Z</time></trkpt><trkpt lat="46.1021869" lon="12.4093051"><ele>1057.0</ele><time>2026-04-04T08:43:57.15Z</time></trkpt><trkpt lat="46.1020636" lon="12.4092953"><ele>1059.0</ele><time>2026-04-04T08:43:58.15Z</time></trkpt><trkpt lat="46.1019343" lon="12.4092807"><ele>1059.0</ele><time>2026-04-04T08:43:59.15Z</time></trkpt><trkpt lat="46.1018003" lon="12.4092806"><ele>1059.0</ele><time>2026-04-04T08:44:00.151Z</time></trkpt><trkpt lat="46.1016616" lon="12.4093154"><ele>1059.0</ele><time>2026-04-04T08:44:01.15Z</time></trkpt><trkpt lat="46.1015313" lon="12.4093953"><ele>1059.0</ele><time>2026-04-04T08:44:02.15Z</time></trkpt><trkpt lat="46.101417" lon="12.4095211"><ele>1061.0</ele><time>2026-04-04T08:44:03.151Z</time></trkpt><trkpt lat="46.1013196" lon="12.4096764"><ele>1063.0</ele><time>2026-04-04T08:44:04.151Z</time></trkpt><trkpt lat="46.1012251" lon="12.4098522"><ele>1065.0</ele><time>2026-04-04T08:44:05.149Z</time></trkpt><trkpt lat="46.1011251" lon="12.4100356"><ele>1065.0</ele><time>2026-04-04T08:44:06.15Z</time></trkpt><trkpt lat="46.1010183" lon="12.4102221"><ele>1065.0</ele><time>2026-04-04T08:44:07.151Z</time></trkpt><trkpt lat="46.100908" lon="12.4104111"><ele>1065.0</ele><time>2026-04-04T08:44:08.15Z</time></trkpt><trkpt lat="46.1008023" lon="12.4106002"><ele>1066.0</ele><time>2026-04-04T08:44:09.149Z</time></trkpt><trkpt lat="46.1007052" lon="12.4107749"><ele>1067.0</ele><time>2026-04-04T08:44:10.149Z</time></trkpt><trkpt lat="46.1006146" lon="12.4109319"><ele>1068.0</ele><time>2026-04-04T08:44:11.15Z</time></trkpt><trkpt lat="46.1005299" lon="12.4110793"><ele>1069.0</ele><time>2026-04-04T08:44:12.149Z</time></trkpt><trkpt lat="46.1004494" lon="12.4112245"><ele>1064.5</ele><time>2026-04-04T08:44:13.15Z</time></trkpt><trkpt lat="46.1003769" lon="12.4113574"><ele>1060.0</ele><time>2026-04-04T08:44:14.15Z</time></trkpt><trkpt lat="46.1003025" lon="12.4114718"><ele>1055.5</ele><time>2026-04-04T08:44:15.15Z</time></trkpt><trkpt lat="46.1002121" lon="12.4115723"><ele>1051.0</ele><time>2026-04-04T08:44:16.149Z</time></trkpt><trkpt lat="46.1001167" lon="12.4116602"><ele>1051.0</ele><time>2026-04-04T08:44:17.149Z</time></trkpt><trkpt lat="46.0999911" lon="12.4117119"><ele>1051.0</ele><time>2026-04-04T08:44:18.149Z</time></trkpt><trkpt lat="46.0998591" lon="12.4117529"><ele>1051.0</ele><time>2026-04-04T08:44:19.15Z</time></trkpt><trkpt lat="46.099722" lon="12.4117706"><ele>1051.0</ele><time>2026-04-04T08:44:20.149Z</time></trkpt><trkpt lat="46.0995785" lon="12.4117676"><ele>1051.0</ele><time>2026-04-04T08:44:21.149Z</time></trkpt><trkpt lat="46.0994238" lon="12.4117414"><ele>1051.0</ele><time>2026-04-04T08:44:22.15Z</time></trkpt><trkpt lat="46.0992746" lon="12.4116883"><ele>1051.0</ele><time>2026-04-04T08:44:23.149Z</time></trkpt><trkpt lat="46.0991365" lon="12.4116011"><ele>1053.0</ele><time>2026-04-04T08:44:24.149Z</time></trkpt><trkpt lat="46.0990093" lon="12.4114825"><ele>1055.0</ele><time>2026-04-04T08:44:25.149Z</time></trkpt><trkpt lat="46.0988861" lon="12.4113462"><ele>1057.0</ele><time>2026-04-04T08:44:26.15Z</time></trkpt><trkpt lat="46.0987719" lon="12.4111872"><ele>1057.0</ele><time>2026-04-04T08:44:27.151Z</time></trkpt><trkpt lat="46.0986635" lon="12.4110161"><ele>1057.0</ele><time>2026-04-04T08:44:28.149Z</time></trkpt><trkpt lat="46.0985623" lon="12.4108365"><ele>1057.0</ele><time>2026-04-04T08:44:29.149Z</time></trkpt><trkpt lat="46.0984669" lon="12.4106579"><ele>1057.25</ele><time>2026-04-04T08:44:30.149Z</time></trkpt><trkpt lat="46.098375" lon="12.4104845"><ele>1057.5</ele><time>2026-04-04T08:44:31.149Z</time></trkpt><trkpt lat="46.0982852" lon="12.4103167"><ele>1057.75</ele><time>2026-04-04T08:44:32.15Z</time></trkpt><trkpt lat="46.0982043" lon="12.4101431"><ele>1058.0</ele><time>2026-04-04T08:44:33.15Z</time></trkpt><trkpt lat="46.0981352" lon="12.4099672"><ele>1058.5</ele><time>2026-04-04T08:44:34.149Z</time></trkpt><trkpt lat="46.0980749" lon="12.4097838"><ele>1059.0</ele><time>2026-04-04T08:44:35.149Z</time></trkpt><trkpt lat="46.0980167" lon="12.4096022"><ele>1059.5</ele><time>2026-04-04T08:44:36.15Z</time></trkpt><trkpt lat="46.0979557" lon="12.4094252"><ele>1060.0</ele><time>2026-04-04T08:44:37.15Z</time></trkpt><trkpt lat="46.0978972" lon="12.4092501"><ele>1060.0</ele><time>2026-04-04T08:44:38.149Z</time></trkpt><trkpt lat="46.0978383" lon="12.4090728"><ele>1060.0</ele><time>2026-04-04T08:44:39.149Z</time></trkpt><trkpt lat="46.0977868" lon="12.4089029"><ele>1060.0</ele><time>2026-04-04T08:44:40.151Z</time></trkpt><trkpt lat="46.0977396" lon="12.4087445"><ele>1060.0</ele><time>2026-04-04T08:44:41.15Z</time></trkpt><trkpt lat="46.0976856" lon="12.4085988"><ele>1057.0</ele><time>2026-04-04T08:44:42.149Z</time></trkpt><trkpt lat="46.0976255" lon="12.4084586"><ele>1054.0</ele><time>2026-04-04T08:44:43.149Z</time></trkpt><trkpt lat="46.0975447" lon="12.4083388"><ele>1051.0</ele><time>2026-04-04T08:44:44.149Z</time></trkpt><trkpt lat="46.0974434" lon="12.4082474"><ele>1048.0</ele><time>2026-04-04T08:44:45.151Z</time></trkpt><trkpt lat="46.0973241" lon="12.4081817"><ele>1047.25</ele><time>2026-04-04T08:44:46.149Z</time></trkpt><trkpt lat="46.0971897" lon="12.4081444"><ele>1046.5</ele><time>2026-04-04T08:44:47.15Z</time></trkpt><trkpt lat="46.0970438" lon="12.408122"><ele>1045.75</ele><time>2026-04-04T08:44:48.149Z</time></trkpt><trkpt lat="46.0968835" lon="12.4081015"><ele>1045.0</ele><time>2026-04-04T08:44:49.15Z</time></trkpt><trkpt lat="46.0967078" lon="12.4081035"><ele>1045.6666666666665</ele><time>2026-04-04T08:44:50.15Z</time></trkpt><trkpt lat="46.0965171" lon="12.4081326"><ele>1046.3333333333333</ele><time>2026-04-04T08:44:51.15Z</time></trkpt><trkpt lat="46.0963185" lon="12.4081877"><ele>1047.0</ele><time>2026-04-04T08:44:52.149Z</time></trkpt><trkpt lat="46.0961205" lon="12.4082704"><ele>1047.0</ele><time>2026-04-04T08:44:53.151Z</time></trkpt><trkpt lat="46.0959345" lon="12.4083577"><ele>1047.0</ele><time>2026-04-04T08:44:54.15Z</time></trkpt><trkpt lat="46.0957722" lon="12.408431"><ele>1047.0</ele><time>2026-04-04T08:44:55.15Z</time></trkpt><trkpt lat="46.0956216" lon="12.4084949"><ele>1049.0</ele><time>2026-04-04T08:44:56.151Z</time></trkpt><trkpt lat="46.0954854" lon="12.4085584"><ele>1051.0</ele><time>2026-04-04T08:44:57.151Z</time></trkpt><trkpt lat="46.0953617" lon="12.4086199"><ele>1053.0</ele><time>2026-04-04T08:44:58.151Z</time></trkpt><trkpt lat="46.0952423" lon="12.4086882"><ele>1055.0</ele><time>2026-04-04T08:44:59.151Z</time></trkpt><trkpt lat="46.0951303" lon="12.4087554"><ele>1055.0</ele><time>2026-04-04T08:45:00.151Z</time></trkpt><trkpt lat="46.0950189" lon="12.4088212"><ele>1055.0</ele><time>2026-04-04T08:45:01.15Z</time></trkpt><trkpt lat="46.0949036" lon="12.4088927"><ele>1055.0</ele><time>2026-04-04T08:45:02.15Z</time></trkpt><trkpt lat="46.0947812" lon="12.4089712"><ele>1055.0</ele><time>2026-04-04T08:45:03.151Z</time></trkpt><trkpt lat="46.0946555" lon="12.4090529"><ele>1051.5</ele><time>2026-04-04T08:45:04.151Z</time></trkpt><trkpt lat="46.0945223" lon="12.4091322"><ele>1048.0</ele><time>2026-04-04T08:45:05.15Z</time></trkpt><trkpt lat="46.0943828" lon="12.4092077"><ele>1044.5</ele><time>2026-04-04T08:45:06.15Z</time></trkpt><trkpt lat="46.094237" lon="12.4092743"><ele>1041.0</ele><time>2026-04-04T08:45:07.151Z</time></trkpt><trkpt lat="46.0940864" lon="12.4093185"><ele>1041.0</ele><time>2026-04-04T08:45:08.151Z</time></trkpt><trkpt lat="46.093933" lon="12.4093489"><ele>1041.0</ele><time>2026-04-04T08:45:09.15Z</time></trkpt><trkpt lat="46.0937779" lon="12.4093892"><ele>1041.0</ele><time>2026-04-04T08:45:10.151Z</time></trkpt><trkpt lat="46.0936292" lon="12.4094542"><ele>1041.0</ele><time>2026-04-04T08:45:11.15Z</time></trkpt><trkpt lat="46.0934844" lon="12.4095458"><ele>1041.0</ele><time>2026-04-04T08:45:12.151Z</time></trkpt><trkpt lat="46.0933453" lon="12.4096732"><ele>1041.0</ele><time>2026-04-04T08:45:13.151Z</time></trkpt><trkpt lat="46.0932162" lon="12.4098288"><ele>1041.3333333333333</ele><time>2026-04-04T08:45:14.15Z</time></trkpt><trkpt lat="46.0930998" lon="12.4100016"><ele>1041.6666666666665</ele><time>2026-04-04T08:45:15.15Z</time></trkpt><trkpt lat="46.0929922" lon="12.41018"><ele>1042.0</ele><time>2026-04-04T08:45:16.151Z</time></trkpt><trkpt lat="46.0928912" lon="12.4103525"><ele>1038.0</ele><time>2026-04-04T08:45:17.15Z</time></trkpt><trkpt lat="46.0927947" lon="12.4105102"><ele>1034.0</ele><time>2026-04-04T08:45:18.15Z</time></trkpt><trkpt lat="46.0927007" lon="12.4106621"><ele>1030.0</ele><time>2026-04-04T08:45:19.152Z</time></trkpt><trkpt lat="46.0926073" lon="12.4108107"><ele>1026.0</ele><time>2026-04-04T08:45:20.15Z</time></trkpt><trkpt lat="46.0925101" lon="12.4109508"><ele>1027.25</ele><time>2026-04-04T08:45:21.151Z</time></trkpt><trkpt lat="46.0923979" lon="12.4110779"><ele>1028.5</ele><time>2026-04-04T08:45:22.151Z</time></trkpt><trkpt lat="46.0922665" lon="12.411175"><ele>1029.75</ele><time>2026-04-04T08:45:23.15Z</time></trkpt><trkpt lat="46.0921207" lon="12.411242"><ele>1031.0</ele><time>2026-04-04T08:45:24.15Z</time></trkpt><trkpt lat="46.0919687" lon="12.411286"><ele>1031.0</ele><time>2026-04-04T08:45:25.15Z</time></trkpt><trkpt lat="46.091817" lon="12.4113213"><ele>1031.0</ele><time>2026-04-04T08:45:26.15Z</time></trkpt><trkpt lat="46.0916647" lon="12.4113556"><ele>1031.0</ele><time>2026-04-04T08:45:27.15Z</time></trkpt><trkpt lat="46.0915125" lon="12.4113935"><ele>1025.0</ele><time>2026-04-04T08:45:28.15Z</time></trkpt><trkpt lat="46.0913668" lon="12.4114342"><ele>1019.0</ele><time>2026-04-04T08:45:29.152Z</time></trkpt><trkpt lat="46.0912231" lon="12.4114733"><ele>1013.0</ele><time>2026-04-04T08:45:30.151Z</time></trkpt><trkpt lat="46.0910787" lon="12.4115121"><ele>1007.0</ele><time>2026-04-04T08:45:31.151Z</time></trkpt><trkpt lat="46.0909387" lon="12.4115464"><ele>1007.0</ele><time>2026-04-04T08:45:32.151Z</time></trkpt><trkpt lat="46.090803" lon="12.4115787"><ele>1007.0</ele><time>2026-04-04T08:45:33.151Z</time></trkpt><trkpt lat="46.090669" lon="12.4116101"><ele>1007.0</ele><time>2026-04-04T08:45:34.15Z</time></trkpt><trkpt lat="46.0905395" lon="12.4116441"><ele>1007.0</ele><time>2026-04-04T08:45:35.15Z</time></trkpt><trkpt lat="46.0904126" lon="12.4116813"><ele>1006.25</ele><time>2026-04-04T08:45:36.15Z</time></trkpt><trkpt lat="46.0902874" lon="12.4117161"><ele>1005.5</ele><time>2026-04-04T08:45:37.15Z</time></trkpt><trkpt lat="46.0901625" lon="12.4117493"><ele>1004.75</ele><time>2026-04-04T08:45:38.15Z</time></trkpt><trkpt lat="46.0900357" lon="12.4117701"><ele>1004.0</ele><time>2026-04-04T08:45:39.151Z</time></trkpt><trkpt lat="46.089906" lon="12.4117647"><ele>1005.75</ele><time>2026-04-04T08:45:40.151Z</time></trkpt><trkpt lat="46.089775" lon="12.4117282"><ele>1007.5</ele><time>2026-04-04T08:45:41.15Z</time></trkpt><trkpt lat="46.0896423" lon="12.4116589"><ele>1009.25</ele><time>2026-04-04T08:45:42.151Z</time></trkpt><trkpt lat="46.0895074" lon="12.4115763"><ele>1011.0</ele><time>2026-04-04T08:45:43.15Z</time></trkpt><trkpt lat="46.089358" lon="12.4115143"><ele>1011.0</ele><time>2026-04-04T08:45:44.151Z</time></trkpt><trkpt lat="46.0891962" lon="12.4114773"><ele>1011.0</ele><time>2026-04-04T08:45:45.15Z</time></trkpt><trkpt lat="46.0890296" lon="12.4114859"><ele>1011.0</ele><time>2026-04-04T08:45:46.151Z</time></trkpt><trkpt lat="46.0888653" lon="12.4115434"><ele>1014.6666666666667</ele><time>2026-04-04T08:45:47.151Z</time></trkpt><trkpt lat="46.0887037" lon="12.4116426"><ele>1018.3333333333334</ele><time>2026-04-04T08:45:48.151Z</time></trkpt><trkpt lat="46.0885434" lon="12.4117551"><ele>1022.0</ele><time>2026-04-04T08:45:49.151Z</time></trkpt><trkpt lat="46.0883773" lon="12.4118429"><ele>1022.6666666666667</ele><time>2026-04-04T08:45:50.15Z</time></trkpt><trkpt lat="46.0882095" lon="12.4119094"><ele>1023.3333333333333</ele><time>2026-04-04T08:45:51.151Z</time></trkpt><trkpt lat="46.0880366" lon="12.4119729"><ele>1024.0</ele><time>2026-04-04T08:45:52.15Z</time></trkpt><trkpt lat="46.0878624" lon="12.4120301"><ele>1024.0</ele><time>2026-04-04T08:45:53.15Z</time></trkpt><trkpt lat="46.0876861" lon="12.4120889"><ele>1024.0</ele><time>2026-04-04T08:45:54.151Z</time></trkpt><trkpt lat="46.0875149" lon="12.4121454"><ele>1024.0</ele><time>2026-04-04T08:45:55.151Z</time></trkpt><trkpt lat="46.0873475" lon="12.4122037"><ele>1015.3333333333333</ele><time>2026-04-04T08:45:56.15Z</time></trkpt><trkpt lat="46.0871872" lon="12.4122595"><ele>1006.6666666666667</ele><time>2026-04-04T08:45:57.151Z</time></trkpt><trkpt lat="46.0870352" lon="12.4123168"><ele>998.0</ele><time>2026-04-04T08:45:58.15Z</time></trkpt><trkpt lat="46.0868896" lon="12.4123669"><ele>998.0</ele><time>2026-04-04T08:45:59.15Z</time></trkpt><trkpt lat="46.0867415" lon="12.4124141"><ele>998.0</ele><time>2026-04-04T08:46:00.152Z</time></trkpt><trkpt lat="46.0865939" lon="12.4124443"><ele>998.0</ele><time>2026-04-04T08:46:01.151Z</time></trkpt><trkpt lat="46.0864436" lon="12.4124515"><ele>995.6666666666667</ele><time>2026-04-04T08:46:02.151Z</time></trkpt><trkpt lat="46.0862928" lon="12.4124263"><ele>993.3333333333333</ele><time>2026-04-04T08:46:03.15Z</time></trkpt><trkpt lat="46.0861455" lon="12.412363"><ele>991.0</ele><time>2026-04-04T08:46:04.15Z</time></trkpt><trkpt lat="46.0860035" lon="12.4122641"><ele>990.6666666666666</ele><time>2026-04-04T08:46:05.15Z</time></trkpt><trkpt lat="46.0858741" lon="12.4121297"><ele>990.3333333333333</ele><time>2026-04-04T08:46:06.151Z</time></trkpt><trkpt lat="46.0857499" lon="12.411965"><ele>990.0</ele><time>2026-04-04T08:46:07.151Z</time></trkpt><trkpt lat="46.0856343" lon="12.4117821"><ele>990.0</ele><time>2026-04-04T08:46:08.151Z</time></trkpt><trkpt lat="46.0855304" lon="12.4116014"><ele>990.0</ele><time>2026-04-04T08:46:09.151Z</time></trkpt><trkpt lat="46.0854353" lon="12.4114345"><ele>990.0</ele><time>2026-04-04T08:46:10.15Z</time></trkpt><trkpt lat="46.0853333" lon="12.4112834"><ele>994.75</ele><time>2026-04-04T08:46:11.151Z</time></trkpt><trkpt lat="46.085223" lon="12.4111627"><ele>999.5</ele><time>2026-04-04T08:46:12.151Z</time></trkpt><trkpt lat="46.085103" lon="12.4110833"><ele>1004.25</ele><time>2026-04-04T08:46:13.151Z</time></trkpt><trkpt lat="46.0849842" lon="12.411049"><ele>1009.0</ele><time>2026-04-04T08:46:14.15Z</time></trkpt><trkpt lat="46.0848653" lon="12.4110789"><ele>1009.5</ele><time>2026-04-04T08:46:15.15Z</time></trkpt><trkpt lat="46.084756" lon="12.4111633"><ele>1010.0</ele><time>2026-04-04T08:46:16.15Z</time></trkpt><trkpt lat="46.0846615" lon="12.4112886"><ele>1010.5</ele><time>2026-04-04T08:46:17.15Z</time></trkpt><trkpt lat="46.0845888" lon="12.4114547"><ele>1011.0</ele><time>2026-04-04T08:46:18.151Z</time></trkpt><trkpt lat="46.0845432" lon="12.411654"><ele>1007.25</ele><time>2026-04-04T08:46:19.151Z</time></trkpt><trkpt lat="46.0845108" lon="12.4118585"><ele>1003.5</ele><time>2026-04-04T08:46:20.15Z</time></trkpt><trkpt lat="46.0844769" lon="12.4120648"><ele>999.75</ele><time>2026-04-04T08:46:21.151Z</time></trkpt><trkpt lat="46.0844384" lon="12.4122721"><ele>996.0</ele><time>2026-04-04T08:46:22.151Z</time></trkpt><trkpt lat="46.0843798" lon="12.4124691"><ele>996.6666666666667</ele><time>2026-04-04T08:46:23.15Z</time></trkpt><trkpt lat="46.0843016" lon="12.4126571"><ele>997.3333333333334</ele><time>2026-04-04T08:46:24.151Z</time></trkpt><trkpt lat="46.0841981" lon="12.4128319"><ele>998.0</ele><time>2026-04-04T08:46:25.151Z</time></trkpt><trkpt lat="46.0840674" lon="12.4129933"><ele>998.0</ele><time>2026-04-04T08:46:26.15Z</time></trkpt><trkpt lat="46.0839105" lon="12.4131327"><ele>998.0</ele><time>2026-04-04T08:46:27.15Z</time></trkpt><trkpt lat="46.083741" lon="12.413265"><ele>998.0</ele><time>2026-04-04T08:46:28.15Z</time></trkpt><trkpt lat="46.0835681" lon="12.4134034"><ele>998.0</ele><time>2026-04-04T08:46:29.15Z</time></trkpt><trkpt lat="46.0834044" lon="12.4135386"><ele>998.0</ele><time>2026-04-04T08:46:30.151Z</time></trkpt><trkpt lat="46.0832507" lon="12.4136695"><ele>998.0</ele><time>2026-04-04T08:46:31.151Z</time></trkpt><trkpt lat="46.0831031" lon="12.4137934"><ele>999.3333333333334</ele><time>2026-04-04T08:46:32.15Z</time></trkpt><trkpt lat="46.0829605" lon="12.413916"><ele>1000.6666666666667</ele><time>2026-04-04T08:46:33.151Z</time></trkpt><trkpt lat="46.0828191" lon="12.4140406"><ele>1002.0</ele><time>2026-04-04T08:46:34.151Z</time></trkpt><trkpt lat="46.0826766" lon="12.4141596"><ele>1002.0</ele><time>2026-04-04T08:46:35.151Z</time></trkpt><trkpt lat="46.0825344" lon="12.4142799"><ele>1002.0</ele><time>2026-04-04T08:46:36.151Z</time></trkpt><trkpt lat="46.0823928" lon="12.4143986"><ele>1002.0</ele><time>2026-04-04T08:46:37.15Z</time></trkpt><trkpt lat="46.082253" lon="12.4145195"><ele>1002.0</ele><time>2026-04-04T08:46:38.151Z</time></trkpt><trkpt lat="46.0821103" lon="12.4146286"><ele>1002.0</ele><time>2026-04-04T08:46:39.15Z</time></trkpt><trkpt lat="46.0819649" lon="12.4147194"><ele>1002.0</ele><time>2026-04-04T08:46:40.15Z</time></trkpt><trkpt lat="46.0818125" lon="12.4147812"><ele>1002.0</ele><time>2026-04-04T08:46:41.15Z</time></trkpt><trkpt lat="46.0816556" lon="12.414815"><ele>1002.0</ele><time>2026-04-04T08:46:42.151Z</time></trkpt><trkpt lat="46.0814873" lon="12.4148326"><ele>1002.0</ele><time>2026-04-04T08:46:43.152Z</time></trkpt><trkpt lat="46.081312" lon="12.4148439"><ele>1004.6666666666667</ele><time>2026-04-04T08:46:44.151Z</time></trkpt><trkpt lat="46.081135" lon="12.4148609"><ele>1007.3333333333334</ele><time>2026-04-04T08:46:45.15Z</time></trkpt><trkpt lat="46.0809589" lon="12.414882"><ele>1010.0</ele><time>2026-04-04T08:46:46.15Z</time></trkpt><trkpt lat="46.0807843" lon="12.4149088"><ele>1011.3333333333334</ele><time>2026-04-04T08:46:47.15Z</time></trkpt><trkpt lat="46.0806137" lon="12.4149341"><ele>1012.6666666666667</ele><time>2026-04-04T08:46:48.152Z</time></trkpt><trkpt lat="46.0804481" lon="12.414939"><ele>1014.0</ele><time>2026-04-04T08:46:49.151Z</time></trkpt><trkpt lat="46.0802912" lon="12.4149177"><ele>1014.0</ele><time>2026-04-04T08:46:50.15Z</time></trkpt><trkpt lat="46.0801439" lon="12.4148686"><ele>1014.0</ele><time>2026-04-04T08:46:51.151Z</time></trkpt><trkpt lat="46.0800001" lon="12.4147844"><ele>1014.0</ele><time>2026-04-04T08:46:52.15Z</time></trkpt><trkpt lat="46.0798594" lon="12.4146727"><ele>1018.0</ele><time>2026-04-04T08:46:53.15Z</time></trkpt><trkpt lat="46.0797198" lon="12.4145422"><ele>1022.0</ele><time>2026-04-04T08:46:54.15Z</time></trkpt><trkpt lat="46.0795744" lon="12.4144233"><ele>1026.0</ele><time>2026-04-04T08:46:55.15Z</time></trkpt><trkpt lat="46.079415" lon="12.4143396"><ele>1026.0</ele><time>2026-04-04T08:46:56.151Z</time></trkpt><trkpt lat="46.0792463" lon="12.4142837"><ele>1026.0</ele><time>2026-04-04T08:46:57.15Z</time></trkpt><trkpt lat="46.0790729" lon="12.4142457"><ele>1026.0</ele><time>2026-04-04T08:46:58.15Z</time></trkpt><trkpt lat="46.0788915" lon="12.4142252"><ele>1025.6666666666667</ele><time>2026-04-04T08:46:59.151Z</time></trkpt><trkpt lat="46.0787082" lon="12.4142108"><ele>1025.3333333333335</ele><time>2026-04-04T08:47:00.15Z</time></trkpt><trkpt lat="46.0785295" lon="12.414201"><ele>1025.0</ele><time>2026-04-04T08:47:01.151Z</time></trkpt><trkpt lat="46.0783659" lon="12.4141952"><ele>1024.25</ele><time>2026-04-04T08:47:02.15Z</time></trkpt><trkpt lat="46.0782131" lon="12.4141888"><ele>1023.5</ele><time>2026-04-04T08:47:03.15Z</time></trkpt><trkpt lat="46.0780697" lon="12.4141754"><ele>1022.75</ele><time>2026-04-04T08:47:04.15Z</time></trkpt><trkpt lat="46.0779316" lon="12.4141425"><ele>1022.0</ele><time>2026-04-04T08:47:05.15Z</time></trkpt><trkpt lat="46.0778" lon="12.4140803"><ele>1022.0</ele><time>2026-04-04T08:47:06.15Z</time></trkpt><trkpt lat="46.0776705" lon="12.4139904"><ele>1022.0</ele><time>2026-04-04T08:47:07.15Z</time></trkpt><trkpt lat="46.0775547" lon="12.4138652"><ele>1022.0</ele><time>2026-04-04T08:47:08.15Z</time></trkpt><trkpt lat="46.0774539" lon="12.4137132"><ele>1022.0</ele><time>2026-04-04T08:47:09.151Z</time></trkpt><trkpt lat="46.0773584" lon="12.4135369"><ele>1019.0</ele><time>2026-04-04T08:47:10.15Z</time></trkpt><trkpt lat="46.0772572" lon="12.4133504"><ele>1016.0</ele><time>2026-04-04T08:47:11.15Z</time></trkpt><trkpt lat="46.0771458" lon="12.4131658"><ele>1013.0</ele><time>2026-04-04T08:47:12.15Z</time></trkpt><trkpt lat="46.0770316" lon="12.4129831"><ele>1013.0</ele><time>2026-04-04T08:47:13.15Z</time></trkpt><trkpt lat="46.0769202" lon="12.4128074"><ele>1013.0</ele><time>2026-04-04T08:47:14.151Z</time></trkpt><trkpt lat="46.0768125" lon="12.4126439"><ele>1013.0</ele><time>2026-04-04T08:47:15.15Z</time></trkpt><trkpt lat="46.0767097" lon="12.4124948"><ele>1013.0</ele><time>2026-04-04T08:47:16.15Z</time></trkpt><trkpt lat="46.0766105" lon="12.4123544"><ele>1013.0</ele><time>2026-04-04T08:47:17.15Z</time></trkpt><trkpt lat="46.0765138" lon="12.4122192"><ele>1013.0</ele><time>2026-04-04T08:47:18.151Z</time></trkpt><trkpt lat="46.0764193" lon="12.4120913"><ele>1013.0</ele><time>2026-04-04T08:47:19.151Z</time></trkpt><trkpt lat="46.0763271" lon="12.4119639"><ele>1011.5</ele><time>2026-04-04T08:47:20.15Z</time></trkpt><trkpt lat="46.0762381" lon="12.411846"><ele>1010.0</ele><time>2026-04-04T08:47:21.151Z</time></trkpt><trkpt lat="46.0761535" lon="12.4117275"><ele>1008.5</ele><time>2026-04-04T08:47:22.151Z</time></trkpt><trkpt lat="46.0760657" lon="12.4116052"><ele>1007.0</ele><time>2026-04-04T08:47:23.15Z</time></trkpt><trkpt lat="46.0759722" lon="12.4114757"><ele>1007.0</ele><time>2026-04-04T08:47:24.15Z</time></trkpt><trkpt lat="46.0758671" lon="12.411334"><ele>1007.0</ele><time>2026-04-04T08:47:25.151Z</time></trkpt><trkpt lat="46.0757471" lon="12.4111921"><ele>1007.0</ele><time>2026-04-04T08:47:26.151Z</time></trkpt><trkpt lat="46.0756151" lon="12.4110619"><ele>1006.6666666666667</ele><time>2026-04-04T08:47:27.151Z</time></trkpt><trkpt lat="46.0754768" lon="12.4109335"><ele>1006.3333333333333</ele><time>2026-04-04T08:47:28.15Z</time></trkpt><trkpt lat="46.0753308" lon="12.4108084"><ele>1006.0</ele><time>2026-04-04T08:47:29.15Z</time></trkpt><trkpt lat="46.0751817" lon="12.4106984"><ele>1006.0</ele><time>2026-04-04T08:47:30.15Z</time></trkpt><trkpt lat="46.0750307" lon="12.4105987"><ele>1006.0</ele><time>2026-04-04T08:47:31.15Z</time></trkpt><trkpt lat="46.074882" lon="12.4105031"><ele>1006.0</ele><time>2026-04-04T08:47:32.15Z</time></trkpt><trkpt lat="46.0747316" lon="12.4104111"><ele>1005.0</ele><time>2026-04-04T08:47:33.15Z</time></trkpt><trkpt lat="46.0745794" lon="12.410321"><ele>1004.0</ele><time>2026-04-04T08:47:34.15Z</time></trkpt><trkpt lat="46.0744195" lon="12.4102263"><ele>1003.0</ele><time>2026-04-04T08:47:35.15Z</time></trkpt><trkpt lat="46.0742555" lon="12.4101304"><ele>1003.0</ele><time>2026-04-04T08:47:36.151Z</time></trkpt><trkpt lat="46.0740928" lon="12.4100359"><ele>1003.0</ele><time>2026-04-04T08:47:37.15Z</time></trkpt><trkpt lat="46.07394" lon="12.4099449"><ele>1003.0</ele><time>2026-04-04T08:47:38.151Z</time></trkpt><trkpt lat="46.0737946" lon="12.409857"><ele>1003.0</ele><time>2026-04-04T08:47:39.151Z</time></trkpt><trkpt lat="46.0736516" lon="12.4097698"><ele>1003.0</ele><time>2026-04-04T08:47:40.15Z</time></trkpt><trkpt lat="46.0735091" lon="12.409683"><ele>1003.0</ele><time>2026-04-04T08:47:41.15Z</time></trkpt><trkpt lat="46.0733616" lon="12.4095958"><ele>1003.6666666666666</ele><time>2026-04-04T08:47:42.15Z</time></trkpt><trkpt lat="46.0732132" lon="12.4095093"><ele>1004.3333333333333</ele><time>2026-04-04T08:47:43.151Z</time></trkpt><trkpt lat="46.0730653" lon="12.4094197"><ele>1005.0</ele><time>2026-04-04T08:47:44.15Z</time></trkpt><trkpt lat="46.0729167" lon="12.4093276"><ele>1005.0</ele><time>2026-04-04T08:47:45.151Z</time></trkpt><trkpt lat="46.0727683" lon="12.4092371"><ele>1005.0</ele><time>2026-04-04T08:47:46.15Z</time></trkpt><trkpt lat="46.0726179" lon="12.4091467"><ele>1005.0</ele><time>2026-04-04T08:47:47.15Z</time></trkpt><trkpt lat="46.0724665" lon="12.4090566"><ele>1005.0</ele><time>2026-04-04T08:47:48.151Z</time></trkpt><trkpt lat="46.0723228" lon="12.4089734"><ele>1005.0</ele><time>2026-04-04T08:47:49.15Z</time></trkpt><trkpt lat="46.0721874" lon="12.4088915"><ele>1005.0</ele><time>2026-04-04T08:47:50.15Z</time></trkpt><trkpt lat="46.0720501" lon="12.4088089"><ele>1005.25</ele><time>2026-04-04T08:47:51.15Z</time></trkpt><trkpt lat="46.071913" lon="12.4087276"><ele>1005.5</ele><time>2026-04-04T08:47:52.15Z</time></trkpt><trkpt lat="46.0717733" lon="12.4086448"><ele>1005.75</ele><time>2026-04-04T08:47:53.15Z</time></trkpt><trkpt lat="46.0716347" lon="12.4085623"><ele>1006.0</ele><time>2026-04-04T08:47:54.15Z</time></trkpt><trkpt lat="46.0714985" lon="12.4084796"><ele>1006.0</ele><time>2026-04-04T08:47:55.15Z</time></trkpt><trkpt lat="46.0713635" lon="12.4083964"><ele>1006.0</ele><time>2026-04-04T08:47:56.151Z</time></trkpt><trkpt lat="46.0712264" lon="12.4083139"><ele>1006.0</ele><time>2026-04-04T08:47:57.15Z</time></trkpt><trkpt lat="46.0710875" lon="12.4082318"><ele>1006.0</ele><time>2026-04-04T08:47:58.151Z</time></trkpt><trkpt lat="46.0709467" lon="12.4081488"><ele>1006.0</ele><time>2026-04-04T08:47:59.15Z</time></trkpt><trkpt lat="46.0708097" lon="12.4080663"><ele>1006.0</ele><time>2026-04-04T08:48:00.152Z</time></trkpt><trkpt lat="46.0706716" lon="12.4079839"><ele>1006.0</ele><time>2026-04-04T08:48:01.151Z</time></trkpt><trkpt lat="46.0705356" lon="12.4079018"><ele>1006.0</ele><time>2026-04-04T08:48:02.151Z</time></trkpt><trkpt lat="46.0703994" lon="12.407818"><ele>1005.3333333333333</ele><time>2026-04-04T08:48:03.15Z</time></trkpt><trkpt lat="46.0702621" lon="12.4077351"><ele>1004.6666666666667</ele><time>2026-04-04T08:48:04.15Z</time></trkpt><trkpt lat="46.070122" lon="12.4076518"><ele>1004.0</ele><time>2026-04-04T08:48:05.151Z</time></trkpt><trkpt lat="46.0699809" lon="12.4075643"><ele>1005.0</ele><time>2026-04-04T08:48:06.152Z</time></trkpt><trkpt lat="46.069838" lon="12.4074801"><ele>1006.0</ele><time>2026-04-04T08:48:07.15Z</time></trkpt><trkpt lat="46.0696943" lon="12.4073951"><ele>1007.0</ele><time>2026-04-04T08:48:08.15Z</time></trkpt><trkpt lat="46.0695499" lon="12.4073081"><ele>1007.0</ele><time>2026-04-04T08:48:09.15Z</time></trkpt><trkpt lat="46.0694036" lon="12.4072192"><ele>1007.0</ele><time>2026-04-04T08:48:10.151Z</time></trkpt><trkpt lat="46.069256" lon="12.4071293"><ele>1007.0</ele><time>2026-04-04T08:48:11.15Z</time></trkpt><trkpt lat="46.0691097" lon="12.4070414"><ele>1007.0</ele><time>2026-04-04T08:48:12.151Z</time></trkpt><trkpt lat="46.0689653" lon="12.4069517"><ele>1007.0</ele><time>2026-04-04T08:48:13.15Z</time></trkpt><trkpt lat="46.0688221" lon="12.4068655"><ele>1007.0</ele><time>2026-04-04T08:48:14.151Z</time></trkpt><trkpt lat="46.0686776" lon="12.4067809"><ele>1007.0</ele><time>2026-04-04T08:48:15.151Z</time></trkpt><trkpt lat="46.0685339" lon="12.4066955"><ele>1007.0</ele><time>2026-04-04T08:48:16.151Z</time></trkpt><trkpt lat="46.0683914" lon="12.4066115"><ele>1007.0</ele><time>2026-04-04T08:48:17.151Z</time></trkpt><trkpt lat="46.0682482" lon="12.4065252"><ele>1006.6666666666667</ele><time>2026-04-04T08:48:18.15Z</time></trkpt><trkpt lat="46.0681071" lon="12.4064368"><ele>1006.3333333333333</ele><time>2026-04-04T08:48:19.151Z</time></trkpt><trkpt lat="46.0679629" lon="12.406351"><ele>1006.0</ele><time>2026-04-04T08:48:20.151Z</time></trkpt><trkpt lat="46.0678194" lon="12.4062637"><ele>1007.0</ele><time>2026-04-04T08:48:21.151Z</time></trkpt><trkpt lat="46.0676744" lon="12.4061782"><ele>1008.0</ele><time>2026-04-04T08:48:22.15Z</time></trkpt><trkpt lat="46.0675271" lon="12.4060918"><ele>1009.0</ele><time>2026-04-04T08:48:23.151Z</time></trkpt><trkpt lat="46.0673771" lon="12.4060037"><ele>1010.0</ele><time>2026-04-04T08:48:24.15Z</time></trkpt><trkpt lat="46.0672269" lon="12.4059121"><ele>1011.0</ele><time>2026-04-04T08:48:25.15Z</time></trkpt><trkpt lat="46.067076" lon="12.4058182"><ele>1012.0</ele><time>2026-04-04T08:48:26.15Z</time></trkpt><trkpt lat="46.0669258" lon="12.4057295"><ele>1012.0</ele><time>2026-04-04T08:48:27.15Z</time></trkpt><trkpt lat="46.0667734" lon="12.405642"><ele>1012.0</ele><time>2026-04-04T08:48:28.151Z</time></trkpt><trkpt lat="46.0666218" lon="12.405551"><ele>1012.0</ele><time>2026-04-04T08:48:29.15Z</time></trkpt><trkpt lat="46.0664728" lon="12.4054611"><ele>1012.3333333333333</ele><time>2026-04-04T08:48:30.15Z</time></trkpt><trkpt lat="46.0663225" lon="12.4053717"><ele>1012.6666666666667</ele><time>2026-04-04T08:48:31.15Z</time></trkpt><trkpt lat="46.0661746" lon="12.4052817"><ele>1013.0</ele><time>2026-04-04T08:48:32.151Z</time></trkpt><trkpt lat="46.0660278" lon="12.4051927"><ele>1013.0</ele><time>2026-04-04T08:48:33.15Z</time></trkpt><trkpt lat="46.0658861" lon="12.4051025"><ele>1013.0</ele><time>2026-04-04T08:48:34.15Z</time></trkpt><trkpt lat="46.0657402" lon="12.4050131"><ele>1013.0</ele><time>2026-04-04T08:48:35.151Z</time></trkpt><trkpt lat="46.0655962" lon="12.4049308"><ele>1013.6666666666667</ele><time>2026-04-04T08:48:36.15Z</time></trkpt><trkpt lat="46.0654535" lon="12.4048464"><ele>1014.3333333333333</ele><time>2026-04-04T08:48:37.15Z</time></trkpt><trkpt lat="46.0653079" lon="12.4047632"><ele>1015.0</ele><time>2026-04-04T08:48:38.151Z</time></trkpt><trkpt lat="46.0651635" lon="12.4046784"><ele>1014.6666666666666</ele><time>2026-04-04T08:48:39.15Z</time></trkpt><trkpt lat="46.0650193" lon="12.404593"><ele>1014.3333333333333</ele><time>2026-04-04T08:48:40.15Z</time></trkpt><trkpt lat="46.06488" lon="12.404508"><ele>1014.0</ele><time>2026-04-04T08:48:41.151Z</time></trkpt><trkpt lat="46.0647425" lon="12.4044246"><ele>1014.0</ele><time>2026-04-04T08:48:42.15Z</time></trkpt><trkpt lat="46.0646076" lon="12.4043419"><ele>1014.0</ele><time>2026-04-04T08:48:43.151Z</time></trkpt><trkpt lat="46.0644695" lon="12.4042599"><ele>1014.0</ele><time>2026-04-04T08:48:44.15Z</time></trkpt><trkpt lat="46.0643282" lon="12.4041761"><ele>1014.0</ele><time>2026-04-04T08:48:45.15Z</time></trkpt><trkpt lat="46.0641844" lon="12.40409"><ele>1014.0</ele><time>2026-04-04T08:48:46.15Z</time></trkpt><trkpt lat="46.0640392" lon="12.404002"><ele>1014.0</ele><time>2026-04-04T08:48:47.151Z</time></trkpt><trkpt lat="46.0638922" lon="12.4039158"><ele>1014.0</ele><time>2026-04-04T08:48:48.15Z</time></trkpt><trkpt lat="46.0637417" lon="12.4038274"><ele>1014.0</ele><time>2026-04-04T08:48:49.151Z</time></trkpt><trkpt lat="46.0635925" lon="12.4037387"><ele>1014.0</ele><time>2026-04-04T08:48:50.15Z</time></trkpt><trkpt lat="46.0634408" lon="12.4036472"><ele>1014.0</ele><time>2026-04-04T08:48:51.15Z</time></trkpt><trkpt lat="46.0632908" lon="12.4035552"><ele>1014.0</ele><time>2026-04-04T08:48:52.15Z</time></trkpt><trkpt lat="46.0631424" lon="12.4034671"><ele>1014.0</ele><time>2026-04-04T08:48:53.151Z</time></trkpt><trkpt lat="46.0630033" lon="12.4033842"><ele>1014.0</ele><time>2026-04-04T08:48:54.151Z</time></trkpt><trkpt lat="46.0628707" lon="12.4033062"><ele>1014.0</ele><time>2026-04-04T08:48:55.151Z</time></trkpt><trkpt lat="46.0627401" lon="12.4032275"><ele>1014.0</ele><time>2026-04-04T08:48:56.151Z</time></trkpt><trkpt lat="46.0626105" lon="12.4031498"><ele>1014.0</ele><time>2026-04-04T08:48:57.15Z</time></trkpt><trkpt lat="46.0624807" lon="12.4030714"><ele>1014.0</ele><time>2026-04-04T08:48:58.15Z</time></trkpt><trkpt lat="46.0623513" lon="12.4029897"><ele>1014.75</ele><time>2026-04-04T08:48:59.15Z</time></trkpt><trkpt lat="46.0622194" lon="12.4029083"><ele>1015.5</ele><time>2026-04-04T08:49:00.15Z</time></trkpt><trkpt lat="46.0620857" lon="12.4028254"><ele>1016.25</ele><time>2026-04-04T08:49:01.151Z</time></trkpt><trkpt lat="46.0619518" lon="12.4027435"><ele>1017.0</ele><time>2026-04-04T08:49:02.15Z</time></trkpt><trkpt lat="46.0618156" lon="12.4026603"><ele>1017.0</ele><time>2026-04-04T08:49:03.15Z</time></trkpt><trkpt lat="46.0616765" lon="12.4025763"><ele>1017.0</ele><time>2026-04-04T08:49:04.151Z</time></trkpt><trkpt lat="46.0615348" lon="12.4024901"><ele>1017.0</ele><time>2026-04-04T08:49:05.15Z</time></trkpt><trkpt lat="46.0613909" lon="12.4024057"><ele>1017.0</ele><time>2026-04-04T08:49:06.151Z</time></trkpt><trkpt lat="46.0612449" lon="12.4023176"><ele>1017.0</ele><time>2026-04-04T08:49:07.15Z</time></trkpt><trkpt lat="46.0610989" lon="12.4022291"><ele>1017.0</ele><time>2026-04-04T08:49:08.151Z</time></trkpt><trkpt lat="46.060952" lon="12.4021384"><ele>1017.0</ele><time>2026-04-04T08:49:09.151Z</time></trkpt><trkpt lat="46.0608056" lon="12.4020487"><ele>1017.0</ele><time>2026-04-04T08:49:10.152Z</time></trkpt><trkpt lat="46.0606628" lon="12.4019637"><ele>1017.0</ele><time>2026-04-04T08:49:11.151Z</time></trkpt><trkpt lat="46.0605278" lon="12.4018812"><ele>1016.5</ele><time>2026-04-04T08:49:12.151Z</time></trkpt><trkpt lat="46.0603955" lon="12.4018"><ele>1016.0</ele><time>2026-04-04T08:49:13.151Z</time></trkpt><trkpt lat="46.0602626" lon="12.4017194"><ele>1015.5</ele><time>2026-04-04T08:49:14.15Z</time></trkpt><trkpt lat="46.0601289" lon="12.401639"><ele>1015.0</ele><time>2026-04-04T08:49:15.151Z</time></trkpt><trkpt lat="46.0599959" lon="12.4015595"><ele>1015.0</ele><time>2026-04-04T08:49:16.151Z</time></trkpt><trkpt lat="46.0598596" lon="12.4014784"><ele>1015.0</ele><time>2026-04-04T08:49:17.151Z</time></trkpt><trkpt lat="46.059725" lon="12.4013931"><ele>1015.0</ele><time>2026-04-04T08:49:18.15Z</time></trkpt><trkpt lat="46.0595885" lon="12.4013092"><ele>1015.0</ele><time>2026-04-04T08:49:19.151Z</time></trkpt><trkpt lat="46.0594528" lon="12.4012252"><ele>1015.3333333333333</ele><time>2026-04-04T08:49:20.15Z</time></trkpt><trkpt lat="46.0593121" lon="12.40114"><ele>1015.6666666666667</ele><time>2026-04-04T08:49:21.151Z</time></trkpt><trkpt lat="46.0591696" lon="12.4010498"><ele>1016.0</ele><time>2026-04-04T08:49:22.151Z</time></trkpt><trkpt lat="46.059022" lon="12.4009606"><ele>1016.0</ele><time>2026-04-04T08:49:23.15Z</time></trkpt><trkpt lat="46.0588776" lon="12.4008683"><ele>1016.0</ele><time>2026-04-04T08:49:24.151Z</time></trkpt><trkpt lat="46.0587309" lon="12.4007781"><ele>1016.0</ele><time>2026-04-04T08:49:25.151Z</time></trkpt><trkpt lat="46.0585827" lon="12.4006914"><ele>1016.0</ele><time>2026-04-04T08:49:26.15Z</time></trkpt><trkpt lat="46.0584367" lon="12.400601"><ele>1016.0</ele><time>2026-04-04T08:49:27.15Z</time></trkpt><trkpt lat="46.0582905" lon="12.4005108"><ele>1016.0</ele><time>2026-04-04T08:49:28.15Z</time></trkpt><trkpt lat="46.0581393" lon="12.4004304"><ele>1022.3333333333334</ele><time>2026-04-04T08:49:29.15Z</time></trkpt><trkpt lat="46.0579797" lon="12.4003723"><ele>1028.6666666666667</ele><time>2026-04-04T08:49:30.151Z</time></trkpt><trkpt lat="46.0578106" lon="12.4003388"><ele>1035.0</ele><time>2026-04-04T08:49:31.151Z</time></trkpt><trkpt lat="46.0576343" lon="12.4003296"><ele>1035.0</ele><time>2026-04-04T08:49:32.151Z</time></trkpt><trkpt lat="46.0574522" lon="12.4003322"><ele>1035.0</ele><time>2026-04-04T08:49:33.152Z</time></trkpt><trkpt lat="46.057268" lon="12.4003429"><ele>1035.0</ele><time>2026-04-04T08:49:34.15Z</time></trkpt><trkpt lat="46.0570811" lon="12.4003544"><ele>1039.0</ele><time>2026-04-04T08:49:35.15Z</time></trkpt><trkpt lat="46.0568882" lon="12.4003725"><ele>1043.0</ele><time>2026-04-04T08:49:36.151Z</time></trkpt><trkpt lat="46.0566938" lon="12.4003911"><ele>1047.0</ele><time>2026-04-04T08:49:37.151Z</time></trkpt><trkpt lat="46.0564922" lon="12.4004321"><ele>1050.0</ele><time>2026-04-04T08:49:38.15Z</time></trkpt><trkpt lat="46.0562883" lon="12.4004781"><ele>1053.0</ele><time>2026-04-04T08:49:39.151Z</time></trkpt><trkpt lat="46.0560844" lon="12.4005195"><ele>1056.0</ele><time>2026-04-04T08:49:40.151Z</time></trkpt><trkpt lat="46.0558786" lon="12.4005692"><ele>1051.3333333333333</ele><time>2026-04-04T08:49:41.15Z</time></trkpt><trkpt lat="46.0556802" lon="12.4006518"><ele>1046.6666666666665</ele><time>2026-04-04T08:49:42.15Z</time></trkpt><trkpt lat="46.0554796" lon="12.4007205"><ele>1042.0</ele><time>2026-04-04T08:49:43.15Z</time></trkpt><trkpt lat="46.0552749" lon="12.4007839"><ele>1042.0</ele><time>2026-04-04T08:49:44.15Z</time></trkpt><trkpt lat="46.0550731" lon="12.4008292"><ele>1042.0</ele><time>2026-04-04T08:49:45.151Z</time></trkpt><trkpt lat="46.054874" lon="12.4008669"><ele>1042.0</ele><time>2026-04-04T08:49:46.15Z</time></trkpt><trkpt lat="46.0546726" lon="12.4008889"><ele>1045.0</ele><time>2026-04-04T08:49:47.15Z</time></trkpt><trkpt lat="46.0544667" lon="12.4008844"><ele>1048.0</ele><time>2026-04-04T08:49:48.151Z</time></trkpt><trkpt lat="46.0542557" lon="12.4008742"><ele>1051.0</ele><time>2026-04-04T08:49:49.151Z</time></trkpt><trkpt lat="46.054045" lon="12.4008616"><ele>1052.0</ele><time>2026-04-04T08:49:50.151Z</time></trkpt><trkpt lat="46.0538341" lon="12.4008405"><ele>1053.0</ele><time>2026-04-04T08:49:51.151Z</time></trkpt><trkpt lat="46.0536275" lon="12.4008209"><ele>1054.0</ele><time>2026-04-04T08:49:52.15Z</time></trkpt><trkpt lat="46.0534255" lon="12.4008006"><ele>1054.0</ele><time>2026-04-04T08:49:53.15Z</time></trkpt><trkpt lat="46.0532304" lon="12.4007883"><ele>1054.0</ele><time>2026-04-04T08:49:54.15Z</time></trkpt><trkpt lat="46.0530412" lon="12.4007842"><ele>1054.0</ele><time>2026-04-04T08:49:55.15Z</time></trkpt><trkpt lat="46.0528539" lon="12.4007982"><ele>1054.0</ele><time>2026-04-04T08:49:56.15Z</time></trkpt><trkpt lat="46.0526675" lon="12.4007973"><ele>1054.0</ele><time>2026-04-04T08:49:57.151Z</time></trkpt><trkpt lat="46.0524832" lon="12.4007709"><ele>1054.0</ele><time>2026-04-04T08:49:58.15Z</time></trkpt><trkpt lat="46.052298" lon="12.4007334"><ele>1049.3333333333333</ele><time>2026-04-04T08:49:59.151Z</time></trkpt><trkpt lat="46.0521115" lon="12.4006827"><ele>1044.6666666666667</ele><time>2026-04-04T08:50:00.15Z</time></trkpt><trkpt lat="46.0519297" lon="12.4006114"><ele>1040.0</ele><time>2026-04-04T08:50:01.151Z</time></trkpt><trkpt lat="46.0517519" lon="12.4005274"><ele>1044.0</ele><time>2026-04-04T08:50:02.15Z</time></trkpt><trkpt lat="46.0516104" lon="12.4003795"><ele>1048.0</ele><time>2026-04-04T08:50:03.15Z</time></trkpt><trkpt lat="46.0514658" lon="12.4002237"><ele>1052.0</ele><time>2026-04-04T08:50:04.15Z</time></trkpt><trkpt lat="46.0513106" lon="12.4000708"><ele>1052.0</ele><time>2026-04-04T08:50:05.15Z</time></trkpt><trkpt lat="46.0511459" lon="12.399935"><ele>1052.0</ele><time>2026-04-04T08:50:06.151Z</time></trkpt><trkpt lat="46.0509761" lon="12.399804"><ele>1052.0</ele><time>2026-04-04T08:50:07.151Z</time></trkpt><trkpt lat="46.050805" lon="12.3996774"><ele>1056.0</ele><time>2026-04-04T08:50:08.151Z</time></trkpt><trkpt lat="46.0506258" lon="12.3995733"><ele>1060.0</ele><time>2026-04-04T08:50:09.151Z</time></trkpt><trkpt lat="46.0504554" lon="12.3994611"><ele>1064.0</ele><time>2026-04-04T08:50:10.151Z</time></trkpt><trkpt lat="46.0503027" lon="12.3993389"><ele>1064.0</ele><time>2026-04-04T08:50:11.151Z</time></trkpt><trkpt lat="46.0501553" lon="12.3992004"><ele>1064.0</ele><time>2026-04-04T08:50:12.151Z</time></trkpt><trkpt lat="46.0500148" lon="12.3990392"><ele>1064.0</ele><time>2026-04-04T08:50:13.151Z</time></trkpt><trkpt lat="46.0498719" lon="12.3988678"><ele>1066.0</ele><time>2026-04-04T08:50:14.151Z</time></trkpt><trkpt lat="46.049714" lon="12.3987047"><ele>1068.0</ele><time>2026-04-04T08:50:15.152Z</time></trkpt><trkpt lat="46.0495476" lon="12.3985426"><ele>1070.0</ele><time>2026-04-04T08:50:16.152Z</time></trkpt><trkpt lat="46.0493766" lon="12.3983879"><ele>1070.0</ele><time>2026-04-04T08:50:17.151Z</time></trkpt><trkpt lat="46.0492149" lon="12.3982412"><ele>1070.0</ele><time>2026-04-04T08:50:18.151Z</time></trkpt><trkpt lat="46.0490732" lon="12.3981118"><ele>1070.0</ele><time>2026-04-04T08:50:19.152Z</time></trkpt><trkpt lat="46.0489403" lon="12.3980009"><ele>1072.75</ele><time>2026-04-04T08:50:20.153Z</time></trkpt><trkpt lat="46.0488238" lon="12.3979044"><ele>1075.5</ele><time>2026-04-04T08:50:21.153Z</time></trkpt><trkpt lat="46.0487215" lon="12.3978192"><ele>1078.25</ele><time>2026-04-04T08:50:22.151Z</time></trkpt><trkpt lat="46.0486271" lon="12.3977441"><ele>1081.0</ele><time>2026-04-04T08:50:23.151Z</time></trkpt><trkpt lat="46.0485379" lon="12.3976954"><ele>1081.0</ele><time>2026-04-04T08:50:24.151Z</time></trkpt><trkpt lat="46.0484524" lon="12.3976934"><ele>1081.0</ele><time>2026-04-04T08:50:25.152Z</time></trkpt><trkpt lat="46.0483717" lon="12.3977417"><ele>1081.0</ele><time>2026-04-04T08:50:26.151Z</time></trkpt><trkpt lat="46.0483036" lon="12.3978299"><ele>1081.0</ele><time>2026-04-04T08:50:27.152Z</time></trkpt><trkpt lat="46.0482562" lon="12.3979546"><ele>1081.0</ele><time>2026-04-04T08:50:28.151Z</time></trkpt><trkpt lat="46.0482356" lon="12.3981047"><ele>1086.0</ele><time>2026-04-04T08:50:29.151Z</time></trkpt><trkpt lat="46.048235" lon="12.3982777"><ele>1091.0</ele><time>2026-04-04T08:50:30.151Z</time></trkpt><trkpt lat="46.0482346" lon="12.3984673"><ele>1096.0</ele><time>2026-04-04T08:50:31.151Z</time></trkpt><trkpt lat="46.0482215" lon="12.3986836"><ele>1101.0</ele><time>2026-04-04T08:50:32.153Z</time></trkpt><trkpt lat="46.0482084" lon="12.3989176"><ele>1102.3333333333333</ele><time>2026-04-04T08:50:33.152Z</time></trkpt><trkpt lat="46.0481927" lon="12.3991639"><ele>1103.6666666666665</ele><time>2026-04-04T08:50:34.151Z</time></trkpt><trkpt lat="46.0481672" lon="12.3994076"><ele>1105.0</ele><time>2026-04-04T08:50:35.151Z</time></trkpt><trkpt lat="46.0481316" lon="12.3996523"><ele>1105.0</ele><time>2026-04-04T08:50:36.152Z</time></trkpt><trkpt lat="46.0480998" lon="12.3998981"><ele>1105.0</ele><time>2026-04-04T08:50:37.151Z</time></trkpt><trkpt lat="46.0480832" lon="12.4001463"><ele>1105.0</ele><time>2026-04-04T08:50:38.151Z</time></trkpt><trkpt lat="46.0480857" lon="12.4003925"><ele>1105.6666666666665</ele><time>2026-04-04T08:50:39.152Z</time></trkpt><trkpt lat="46.0480968" lon="12.4006305"><ele>1106.3333333333333</ele><time>2026-04-04T08:50:40.151Z</time></trkpt><trkpt lat="46.0481026" lon="12.4008486"><ele>1107.0</ele><time>2026-04-04T08:50:41.151Z</time></trkpt><trkpt lat="46.0481032" lon="12.401053"><ele>1107.0</ele><time>2026-04-04T08:50:42.152Z</time></trkpt><trkpt lat="46.0480896" lon="12.4012328"><ele>1107.0</ele><time>2026-04-04T08:50:43.152Z</time></trkpt><trkpt lat="46.0480557" lon="12.4013849"><ele>1107.0</ele><time>2026-04-04T08:50:44.151Z</time></trkpt><trkpt lat="46.0479965" lon="12.4015156"><ele>1107.0</ele><time>2026-04-04T08:50:45.151Z</time></trkpt><trkpt lat="46.0479163" lon="12.4016404"><ele>1102.5</ele><time>2026-04-04T08:50:46.151Z</time></trkpt><trkpt lat="46.0478259" lon="12.4017559"><ele>1098.0</ele><time>2026-04-04T08:50:47.151Z</time></trkpt><trkpt lat="46.0477288" lon="12.4018683"><ele>1093.5</ele><time>2026-04-04T08:50:48.152Z</time></trkpt><trkpt lat="46.047623" lon="12.4019576"><ele>1089.0</ele><time>2026-04-04T08:50:49.151Z</time></trkpt><trkpt lat="46.0475053" lon="12.4020073"><ele>1093.75</ele><time>2026-04-04T08:50:50.151Z</time></trkpt><trkpt lat="46.0473652" lon="12.4020398"><ele>1098.5</ele><time>2026-04-04T08:50:51.152Z</time></trkpt><trkpt lat="46.0472161" lon="12.4020517"><ele>1103.25</ele><time>2026-04-04T08:50:52.151Z</time></trkpt><trkpt lat="46.047059" lon="12.4020564"><ele>1108.0</ele><time>2026-04-04T08:50:53.151Z</time></trkpt><trkpt lat="46.0468887" lon="12.4020732"><ele>1108.0</ele><time>2026-04-04T08:50:54.151Z</time></trkpt><trkpt lat="46.0467174" lon="12.4020809"><ele>1108.0</ele><time>2026-04-04T08:50:55.151Z</time></trkpt><trkpt lat="46.0465468" lon="12.4020829"><ele>1108.0</ele><time>2026-04-04T08:50:56.151Z</time></trkpt><trkpt lat="46.0463864" lon="12.4020805"><ele>1106.6666666666665</ele><time>2026-04-04T08:50:57.151Z</time></trkpt><trkpt lat="46.046225" lon="12.40207"><ele>1105.3333333333333</ele><time>2026-04-04T08:50:58.151Z</time></trkpt><trkpt lat="46.0460637" lon="12.4020461"><ele>1104.0</ele><time>2026-04-04T08:50:59.151Z</time></trkpt><trkpt lat="46.0459084" lon="12.4020139"><ele>1099.25</ele><time>2026-04-04T08:51:00.152Z</time></trkpt><trkpt lat="46.0457572" lon="12.4019702"><ele>1094.5</ele><time>2026-04-04T08:51:01.151Z</time></trkpt><trkpt lat="46.0456146" lon="12.4019185"><ele>1089.75</ele><time>2026-04-04T08:51:02.151Z</time></trkpt><trkpt lat="46.0454743" lon="12.4018636"><ele>1085.0</ele><time>2026-04-04T08:51:03.153Z</time></trkpt><trkpt lat="46.0453368" lon="12.4018067"><ele>1085.0</ele><time>2026-04-04T08:51:04.152Z</time></trkpt><trkpt lat="46.045208" lon="12.4017385"><ele>1085.0</ele><time>2026-04-04T08:51:05.152Z</time></trkpt><trkpt lat="46.0450851" lon="12.4016535"><ele>1085.0</ele><time>2026-04-04T08:51:06.152Z</time></trkpt><trkpt lat="46.0449561" lon="12.4015677"><ele>1085.0</ele><time>2026-04-04T08:51:07.152Z</time></trkpt><trkpt lat="46.0448356" lon="12.4014852"><ele>1088.5</ele><time>2026-04-04T08:51:08.151Z</time></trkpt><trkpt lat="46.0447122" lon="12.401406"><ele>1092.0</ele><time>2026-04-04T08:51:09.151Z</time></trkpt><trkpt lat="46.0445887" lon="12.4013211"><ele>1095.5</ele><time>2026-04-04T08:51:10.151Z</time></trkpt><trkpt lat="46.0444687" lon="12.4012295"><ele>1099.0</ele><time>2026-04-04T08:51:11.151Z</time></trkpt><trkpt lat="46.0443515" lon="12.4011349"><ele>1099.0</ele><time>2026-04-04T08:51:12.151Z</time></trkpt><trkpt lat="46.0442312" lon="12.4010406"><ele>1099.0</ele><time>2026-04-04T08:51:13.152Z</time></trkpt><trkpt lat="46.0441125" lon="12.4009513"><ele>1099.0</ele><time>2026-04-04T08:51:14.152Z</time></trkpt><trkpt lat="46.0440017" lon="12.400869"><ele>1099.0</ele><time>2026-04-04T08:51:15.151Z</time></trkpt><trkpt lat="46.04389" lon="12.4007868"><ele>1099.5</ele><time>2026-04-04T08:51:16.151Z</time></trkpt><trkpt lat="46.043779" lon="12.4006985"><ele>1100.0</ele><time>2026-04-04T08:51:17.152Z</time></trkpt><trkpt lat="46.0436653" lon="12.4005917"><ele>1100.5</ele><time>2026-04-04T08:51:18.152Z</time></trkpt><trkpt lat="46.0435473" lon="12.4004629"><ele>1101.0</ele><time>2026-04-04T08:51:19.151Z</time></trkpt><trkpt lat="46.043422" lon="12.400327"><ele>1092.3333333333333</ele><time>2026-04-04T08:51:20.152Z</time></trkpt><trkpt lat="46.0432965" lon="12.4001858"><ele>1083.6666666666665</ele><time>2026-04-04T08:51:21.152Z</time></trkpt><trkpt lat="46.0431711" lon="12.4000435"><ele>1075.0</ele><time>2026-04-04T08:51:22.152Z</time></trkpt><trkpt lat="46.0430546" lon="12.3999084"><ele>1075.0</ele><time>2026-04-04T08:51:23.152Z</time></trkpt><trkpt lat="46.0429458" lon="12.3997786"><ele>1075.0</ele><time>2026-04-04T08:51:24.152Z</time></trkpt><trkpt lat="46.0428325" lon="12.3996512"><ele>1075.0</ele><time>2026-04-04T08:51:25.152Z</time></trkpt><trkpt lat="46.0427153" lon="12.3995256"><ele>1075.0</ele><time>2026-04-04T08:51:26.151Z</time></trkpt><trkpt lat="46.0425762" lon="12.3993866"><ele>1076.3333333333333</ele><time>2026-04-04T08:51:27.151Z</time></trkpt><trkpt lat="46.0424298" lon="12.3992162"><ele>1077.6666666666667</ele><time>2026-04-04T08:51:28.151Z</time></trkpt><trkpt lat="46.0422851" lon="12.3990141"><ele>1079.0</ele><time>2026-04-04T08:51:29.151Z</time></trkpt><trkpt lat="46.0421438" lon="12.398811"><ele>1084.6666666666667</ele><time>2026-04-04T08:51:30.151Z</time></trkpt><trkpt lat="46.0419923" lon="12.3986177"><ele>1090.3333333333333</ele><time>2026-04-04T08:51:31.153Z</time></trkpt><trkpt lat="46.0418482" lon="12.398415"><ele>1096.0</ele><time>2026-04-04T08:51:32.151Z</time></trkpt><trkpt lat="46.0417182" lon="12.3982011"><ele>1093.6666666666665</ele><time>2026-04-04T08:51:33.152Z</time></trkpt><trkpt lat="46.0415965" lon="12.3979844"><ele>1091.3333333333333</ele><time>2026-04-04T08:51:34.152Z</time></trkpt><trkpt lat="46.0414748" lon="12.3977749"><ele>1089.0</ele><time>2026-04-04T08:51:35.153Z</time></trkpt><trkpt lat="46.0413589" lon="12.3975628"><ele>1089.0</ele><time>2026-04-04T08:51:36.152Z</time></trkpt><trkpt lat="46.041257" lon="12.3973579"><ele>1089.0</ele><time>2026-04-04T08:51:37.152Z</time></trkpt><trkpt lat="46.0411589" lon="12.397176"><ele>1089.0</ele><time>2026-04-04T08:51:38.151Z</time></trkpt><trkpt lat="46.0410597" lon="12.3970114"><ele>1092.3333333333333</ele><time>2026-04-04T08:51:39.152Z</time></trkpt><trkpt lat="46.0409464" lon="12.396869"><ele>1095.6666666666665</ele><time>2026-04-04T08:51:40.151Z</time></trkpt><trkpt lat="46.0408062" lon="12.3967433"><ele>1099.0</ele><time>2026-04-04T08:51:41.152Z</time></trkpt><trkpt lat="46.0406547" lon="12.3966181"><ele>1099.0</ele><time>2026-04-04T08:51:42.151Z</time></trkpt><trkpt lat="46.0404993" lon="12.3964894"><ele>1099.0</ele><time>2026-04-04T08:51:43.151Z</time></trkpt><trkpt lat="46.0403403" lon="12.3963592"><ele>1099.0</ele><time>2026-04-04T08:51:44.151Z</time></trkpt><trkpt lat="46.040194" lon="12.3962296"><ele>1102.75</ele><time>2026-04-04T08:51:45.152Z</time></trkpt><trkpt lat="46.0400692" lon="12.396121"><ele>1106.5</ele><time>2026-04-04T08:51:46.152Z</time></trkpt><trkpt lat="46.039956" lon="12.3960317"><ele>1110.25</ele><time>2026-04-04T08:51:47.152Z</time></trkpt><trkpt lat="46.0398581" lon="12.395979"><ele>1114.0</ele><time>2026-04-04T08:51:48.152Z</time></trkpt><trkpt lat="46.0397722" lon="12.3959479"><ele>1114.0</ele><time>2026-04-04T08:51:49.151Z</time></trkpt><trkpt lat="46.0396885" lon="12.3959362"><ele>1114.0</ele><time>2026-04-04T08:51:50.151Z</time></trkpt><trkpt lat="46.039608" lon="12.3959627"><ele>1114.0</ele><time>2026-04-04T08:51:51.151Z</time></trkpt><trkpt lat="46.0395402" lon="12.3960224"><ele>1114.0</ele><time>2026-04-04T08:51:52.151Z</time></trkpt><trkpt lat="46.0394824" lon="12.396118"><ele>1114.0</ele><time>2026-04-04T08:51:53.152Z</time></trkpt><trkpt lat="46.0394362" lon="12.3962482"><ele>1114.0</ele><time>2026-04-04T08:51:54.151Z</time></trkpt><trkpt lat="46.0394054" lon="12.3963995"><ele>1114.25</ele><time>2026-04-04T08:51:55.151Z</time></trkpt><trkpt lat="46.0393889" lon="12.3965788"><ele>1114.5</ele><time>2026-04-04T08:51:56.152Z</time></trkpt><trkpt lat="46.0393808" lon="12.3967726"><ele>1114.75</ele><time>2026-04-04T08:51:57.152Z</time></trkpt><trkpt lat="46.0393651" lon="12.3969823"><ele>1115.0</ele><time>2026-04-04T08:51:58.153Z</time></trkpt><trkpt lat="46.0393432" lon="12.397206"><ele>1117.0</ele><time>2026-04-04T08:51:59.151Z</time></trkpt><trkpt lat="46.0393274" lon="12.3974377"><ele>1119.0</ele><time>2026-04-04T08:52:00.152Z</time></trkpt><trkpt lat="46.0393217" lon="12.3976633"><ele>1121.0</ele><time>2026-04-04T08:52:01.151Z</time></trkpt><trkpt lat="46.0393272" lon="12.3978727"><ele>1120.25</ele><time>2026-04-04T08:52:02.153Z</time></trkpt><trkpt lat="46.0393337" lon="12.3980675"><ele>1119.5</ele><time>2026-04-04T08:52:03.151Z</time></trkpt><trkpt lat="46.0393263" lon="12.3982642"><ele>1118.75</ele><time>2026-04-04T08:52:04.152Z</time></trkpt><trkpt lat="46.0392938" lon="12.3984641"><ele>1118.0</ele><time>2026-04-04T08:52:05.153Z</time></trkpt><trkpt lat="46.0392462" lon="12.3986641"><ele>1118.0</ele><time>2026-04-04T08:52:06.152Z</time></trkpt><trkpt lat="46.0391911" lon="12.3988624"><ele>1118.0</ele><time>2026-04-04T08:52:07.152Z</time></trkpt><trkpt lat="46.0391335" lon="12.39906"><ele>1118.0</ele><time>2026-04-04T08:52:08.152Z</time></trkpt><trkpt lat="46.0390845" lon="12.3992604"><ele>1118.0</ele><time>2026-04-04T08:52:09.151Z</time></trkpt><trkpt lat="46.0390488" lon="12.3994671"><ele>1121.75</ele><time>2026-04-04T08:52:10.151Z</time></trkpt><trkpt lat="46.0390344" lon="12.399678"><ele>1125.5</ele><time>2026-04-04T08:52:11.151Z</time></trkpt><trkpt lat="46.0390441" lon="12.3998876"><ele>1129.25</ele><time>2026-04-04T08:52:12.151Z</time></trkpt><trkpt lat="46.039073" lon="12.4000903"><ele>1133.0</ele><time>2026-04-04T08:52:13.151Z</time></trkpt><trkpt lat="46.0391034" lon="12.4002794"><ele>1133.0</ele><time>2026-04-04T08:52:14.151Z</time></trkpt><trkpt lat="46.0391306" lon="12.4004495"><ele>1133.0</ele><time>2026-04-04T08:52:15.152Z</time></trkpt><trkpt lat="46.0391498" lon="12.4006053"><ele>1133.0</ele><time>2026-04-04T08:52:16.152Z</time></trkpt><trkpt lat="46.0391515" lon="12.4007514"><ele>1133.0</ele><time>2026-04-04T08:52:17.151Z</time></trkpt><trkpt lat="46.0391292" lon="12.4009062"><ele>1133.0</ele><time>2026-04-04T08:52:18.152Z</time></trkpt><trkpt lat="46.0390759" lon="12.4010578"><ele>1132.0</ele><time>2026-04-04T08:52:19.151Z</time></trkpt><trkpt lat="46.0390118" lon="12.4012206"><ele>1131.0</ele><time>2026-04-04T08:52:20.152Z</time></trkpt><trkpt lat="46.0389415" lon="12.401393"><ele>1130.0</ele><time>2026-04-04T08:52:21.151Z</time></trkpt><trkpt lat="46.0388666" lon="12.4015737"><ele>1129.0</ele><time>2026-04-04T08:52:22.152Z</time></trkpt><trkpt lat="46.0387919" lon="12.4017611"><ele>1125.3333333333333</ele><time>2026-04-04T08:52:23.151Z</time></trkpt><trkpt lat="46.0387128" lon="12.4019569"><ele>1121.6666666666667</ele><time>2026-04-04T08:52:24.151Z</time></trkpt><trkpt lat="46.0386286" lon="12.402158"><ele>1118.0</ele><time>2026-04-04T08:52:25.152Z</time></trkpt><trkpt lat="46.0385365" lon="12.4023511"><ele>1117.25</ele><time>2026-04-04T08:52:26.152Z</time></trkpt><trkpt lat="46.038446" lon="12.4025257"><ele>1116.5</ele><time>2026-04-04T08:52:27.152Z</time></trkpt><trkpt lat="46.038354" lon="12.4026848"><ele>1115.75</ele><time>2026-04-04T08:52:28.152Z</time></trkpt><trkpt lat="46.0382625" lon="12.4028281"><ele>1115.0</ele><time>2026-04-04T08:52:29.151Z</time></trkpt><trkpt lat="46.0381718" lon="12.4029582"><ele>1116.0</ele><time>2026-04-04T08:52:30.152Z</time></trkpt><trkpt lat="46.038069" lon="12.4030871"><ele>1117.0</ele><time>2026-04-04T08:52:31.151Z</time></trkpt><trkpt lat="46.0379511" lon="12.4032315"><ele>1118.0</ele><time>2026-04-04T08:52:32.153Z</time></trkpt><trkpt lat="46.0378224" lon="12.4033834"><ele>1118.0</ele><time>2026-04-04T08:52:33.153Z</time></trkpt><trkpt lat="46.0376856" lon="12.4035378"><ele>1118.0</ele><time>2026-04-04T08:52:34.151Z</time></trkpt><trkpt lat="46.0375405" lon="12.4036813"><ele>1118.0</ele><time>2026-04-04T08:52:35.151Z</time></trkpt><trkpt lat="46.0373946" lon="12.4037996"><ele>1117.75</ele><time>2026-04-04T08:52:36.151Z</time></trkpt><trkpt lat="46.0372591" lon="12.4039116"><ele>1117.5</ele><time>2026-04-04T08:52:37.152Z</time></trkpt><trkpt lat="46.0371441" lon="12.4040398"><ele>1117.25</ele><time>2026-04-04T08:52:38.152Z</time></trkpt><trkpt lat="46.037038" lon="12.4041853"><ele>1117.0</ele><time>2026-04-04T08:52:39.152Z</time></trkpt><trkpt lat="46.0369338" lon="12.4043334"><ele>1117.0</ele><time>2026-04-04T08:52:40.151Z</time></trkpt><trkpt lat="46.0368172" lon="12.4044658"><ele>1117.0</ele><time>2026-04-04T08:52:41.151Z</time></trkpt><trkpt lat="46.0366945" lon="12.4045876"><ele>1117.0</ele><time>2026-04-04T08:52:42.151Z</time></trkpt><trkpt lat="46.0365767" lon="12.404719"><ele>1117.0</ele><time>2026-04-04T08:52:43.153Z</time></trkpt><trkpt lat="46.0364688" lon="12.404857"><ele>1117.5</ele><time>2026-04-04T08:52:44.151Z</time></trkpt><trkpt lat="46.0363698" lon="12.4049981"><ele>1118.0</ele><time>2026-04-04T08:52:45.151Z</time></trkpt><trkpt lat="46.0362728" lon="12.4051398"><ele>1118.5</ele><time>2026-04-04T08:52:46.151Z</time></trkpt><trkpt lat="46.0361712" lon="12.405267"><ele>1119.0</ele><time>2026-04-04T08:52:47.152Z</time></trkpt><trkpt lat="46.03606" lon="12.4053658"><ele>1119.0</ele><time>2026-04-04T08:52:48.151Z</time></trkpt><trkpt lat="46.0359318" lon="12.4054187"><ele>1119.0</ele><time>2026-04-04T08:52:49.152Z</time></trkpt><trkpt lat="46.0357989" lon="12.4054392"><ele>1119.0</ele><time>2026-04-04T08:52:50.151Z</time></trkpt><trkpt lat="46.0356702" lon="12.4054509"><ele>1119.0</ele><time>2026-04-04T08:52:51.151Z</time></trkpt><trkpt lat="46.0355523" lon="12.4054658"><ele>1121.75</ele><time>2026-04-04T08:52:52.152Z</time></trkpt><trkpt lat="46.0354382" lon="12.4054891"><ele>1124.5</ele><time>2026-04-04T08:52:53.152Z</time></trkpt><trkpt lat="46.0353262" lon="12.4055375"><ele>1127.25</ele><time>2026-04-04T08:52:54.152Z</time></trkpt><trkpt lat="46.0352203" lon="12.405609"><ele>1130.0</ele><time>2026-04-04T08:52:55.151Z</time></trkpt><trkpt lat="46.0351207" lon="12.4057007"><ele>1130.0</ele><time>2026-04-04T08:52:56.152Z</time></trkpt><trkpt lat="46.0350407" lon="12.4058295"><ele>1130.0</ele><time>2026-04-04T08:52:57.151Z</time></trkpt><trkpt lat="46.0349857" lon="12.4059892"><ele>1130.0</ele><time>2026-04-04T08:52:58.152Z</time></trkpt><trkpt lat="46.0349488" lon="12.4061698"><ele>1130.0</ele><time>2026-04-04T08:52:59.152Z</time></trkpt><trkpt lat="46.0349169" lon="12.406361"><ele>1128.0</ele><time>2026-04-04T08:53:00.152Z</time></trkpt><trkpt lat="46.0348782" lon="12.4065616"><ele>1126.0</ele><time>2026-04-04T08:53:01.151Z</time></trkpt><trkpt lat="46.0348337" lon="12.4067662"><ele>1124.0</ele><time>2026-04-04T08:53:02.152Z</time></trkpt><trkpt lat="46.0347829" lon="12.4069734"><ele>1122.0</ele><time>2026-04-04T08:53:03.152Z</time></trkpt><trkpt lat="46.0347254" lon="12.4071897"><ele>1121.0</ele><time>2026-04-04T08:53:04.151Z</time></trkpt><trkpt lat="46.0346642" lon="12.4074096"><ele>1120.0</ele><time>2026-04-04T08:53:05.152Z</time></trkpt><trkpt lat="46.0345962" lon="12.4076371"><ele>1119.0</ele><time>2026-04-04T08:53:06.151Z</time></trkpt><trkpt lat="46.0345276" lon="12.4078667"><ele>1117.6666666666667</ele><time>2026-04-04T08:53:07.151Z</time></trkpt><trkpt lat="46.0344539" lon="12.4080981"><ele>1116.3333333333335</ele><time>2026-04-04T08:53:08.152Z</time></trkpt><trkpt lat="46.0343664" lon="12.4083145"><ele>1115.0</ele><time>2026-04-04T08:53:09.151Z</time></trkpt><trkpt lat="46.0342588" lon="12.4085063"><ele>1115.0</ele><time>2026-04-04T08:53:10.151Z</time></trkpt><trkpt lat="46.0341403" lon="12.4086844"><ele>1115.0</ele><time>2026-04-04T08:53:11.151Z</time></trkpt><trkpt lat="46.0340032" lon="12.4088422"><ele>1115.0</ele><time>2026-04-04T08:53:12.151Z</time></trkpt><trkpt lat="46.0338525" lon="12.4089901"><ele>1112.6666666666667</ele><time>2026-04-04T08:53:13.151Z</time></trkpt><trkpt lat="46.0337019" lon="12.4091458"><ele>1110.3333333333333</ele><time>2026-04-04T08:53:14.151Z</time></trkpt><trkpt lat="46.0335504" lon="12.4093145"><ele>1108.0</ele><time>2026-04-04T08:53:15.151Z</time></trkpt><trkpt lat="46.0333978" lon="12.4094899"><ele>1106.0</ele><time>2026-04-04T08:53:16.151Z</time></trkpt><trkpt lat="46.0332537" lon="12.4096765"><ele>1104.0</ele><time>2026-04-04T08:53:17.152Z</time></trkpt><trkpt lat="46.0331143" lon="12.4098715"><ele>1102.0</ele><time>2026-04-04T08:53:18.153Z</time></trkpt><trkpt lat="46.0329855" lon="12.4100672"><ele>1102.0</ele><time>2026-04-04T08:53:19.151Z</time></trkpt><trkpt lat="46.0328611" lon="12.410256"><ele>1102.0</ele><time>2026-04-04T08:53:20.151Z</time></trkpt><trkpt lat="46.0327367" lon="12.4104361"><ele>1102.0</ele><time>2026-04-04T08:53:21.151Z</time></trkpt><trkpt lat="46.0326062" lon="12.4105946"><ele>1101.0</ele><time>2026-04-04T08:53:22.151Z</time></trkpt><trkpt lat="46.0324666" lon="12.4107272"><ele>1100.0</ele><time>2026-04-04T08:53:23.151Z</time></trkpt><trkpt lat="46.0323155" lon="12.4108326"><ele>1099.0</ele><time>2026-04-04T08:53:24.151Z</time></trkpt><trkpt lat="46.0321591" lon="12.4109156"><ele>1099.0</ele><time>2026-04-04T08:53:25.151Z</time></trkpt><trkpt lat="46.0320026" lon="12.4109968"><ele>1099.0</ele><time>2026-04-04T08:53:26.151Z</time></trkpt><trkpt lat="46.0318535" lon="12.4110906"><ele>1099.0</ele><time>2026-04-04T08:53:27.152Z</time></trkpt><trkpt lat="46.0317186" lon="12.411182"><ele>1100.5</ele><time>2026-04-04T08:53:28.153Z</time></trkpt><trkpt lat="46.0315911" lon="12.4112678"><ele>1102.0</ele><time>2026-04-04T08:53:29.151Z</time></trkpt><trkpt lat="46.0314634" lon="12.4113477"><ele>1103.5</ele><time>2026-04-04T08:53:30.151Z</time></trkpt><trkpt lat="46.0313348" lon="12.4114208"><ele>1105.0</ele><time>2026-04-04T08:53:31.151Z</time></trkpt><trkpt lat="46.0311959" lon="12.4114918"><ele>1105.0</ele><time>2026-04-04T08:53:32.151Z</time></trkpt><trkpt lat="46.0310445" lon="12.4115342"><ele>1105.0</ele><time>2026-04-04T08:53:33.151Z</time></trkpt><trkpt lat="46.0308876" lon="12.411537"><ele>1105.0</ele><time>2026-04-04T08:53:34.151Z</time></trkpt><trkpt lat="46.0307283" lon="12.4115144"><ele>1101.75</ele><time>2026-04-04T08:53:35.152Z</time></trkpt><trkpt lat="46.0305728" lon="12.4114821"><ele>1098.5</ele><time>2026-04-04T08:53:36.151Z</time></trkpt><trkpt lat="46.0304284" lon="12.4114549"><ele>1095.25</ele><time>2026-04-04T08:53:37.151Z</time></trkpt><trkpt lat="46.0302894" lon="12.4114342"><ele>1092.0</ele><time>2026-04-04T08:53:38.151Z</time></trkpt><trkpt lat="46.0301507" lon="12.4114335"><ele>1092.0</ele><time>2026-04-04T08:53:39.152Z</time></trkpt><trkpt lat="46.0300219" lon="12.4114741"><ele>1092.0</ele><time>2026-04-04T08:53:40.151Z</time></trkpt><trkpt lat="46.0299074" lon="12.4115475"><ele>1092.0</ele><time>2026-04-04T08:53:41.152Z</time></trkpt><trkpt lat="46.0298049" lon="12.4116282"><ele>1092.0</ele><time>2026-04-04T08:53:42.151Z</time></trkpt><trkpt lat="46.0297253" lon="12.4117044"><ele>1091.6666666666667</ele><time>2026-04-04T08:53:43.152Z</time></trkpt><trkpt lat="46.0296682" lon="12.4117926"><ele>1091.3333333333333</ele><time>2026-04-04T08:53:44.151Z</time></trkpt><trkpt lat="46.0296318" lon="12.411896"><ele>1091.0</ele><time>2026-04-04T08:53:45.152Z</time></trkpt><trkpt lat="46.0296174" lon="12.4119973"><ele>1090.6666666666665</ele><time>2026-04-04T08:53:46.151Z</time></trkpt><trkpt lat="46.0295508" lon="12.412153"><ele>1090.3333333333333</ele><time>2026-04-04T08:53:48.151Z</time></trkpt><trkpt lat="46.0294815" lon="12.4122071"><ele>1090.0</ele><time>2026-04-04T08:53:49.151Z</time></trkpt><trkpt lat="46.0293992" lon="12.4122636"><ele>1090.0</ele><time>2026-04-04T08:53:50.151Z</time></trkpt><trkpt lat="46.0293149" lon="12.4123329"><ele>1090.0</ele><time>2026-04-04T08:53:51.151Z</time></trkpt><trkpt lat="46.0292385" lon="12.4124213"><ele>1090.0</ele><time>2026-04-04T08:53:52.151Z</time></trkpt><trkpt lat="46.0291546" lon="12.4125246"><ele>1090.0</ele><time>2026-04-04T08:53:53.151Z</time></trkpt><trkpt lat="46.0290782" lon="12.412642"><ele>1090.0</ele><time>2026-04-04T08:53:54.151Z</time></trkpt><trkpt lat="46.0289898" lon="12.4127522"><ele>1089.0</ele><time>2026-04-04T08:53:55.152Z</time></trkpt><trkpt lat="46.0288939" lon="12.4128522"><ele>1088.0</ele><time>2026-04-04T08:53:56.151Z</time></trkpt><trkpt lat="46.0287852" lon="12.4129252"><ele>1087.0</ele><time>2026-04-04T08:53:57.151Z</time></trkpt><trkpt lat="46.0286739" lon="12.4129953"><ele>1086.0</ele><time>2026-04-04T08:53:58.151Z</time></trkpt><trkpt lat="46.0285733" lon="12.4130828"><ele>1086.0</ele><time>2026-04-04T08:53:59.151Z</time></trkpt><trkpt lat="46.0284738" lon="12.4131701"><ele>1086.0</ele><time>2026-04-04T08:54:00.151Z</time></trkpt><trkpt lat="46.0283667" lon="12.4132464"><ele>1086.0</ele><time>2026-04-04T08:54:01.152Z</time></trkpt><trkpt lat="46.0282508" lon="12.413308"><ele>1086.0</ele><time>2026-04-04T08:54:02.151Z</time></trkpt><trkpt lat="46.0281411" lon="12.4133962"><ele>1085.5</ele><time>2026-04-04T08:54:03.151Z</time></trkpt><trkpt lat="46.0280313" lon="12.413517"><ele>1085.0</ele><time>2026-04-04T08:54:04.152Z</time></trkpt><trkpt lat="46.0279287" lon="12.4136532"><ele>1084.5</ele><time>2026-04-04T08:54:05.151Z</time></trkpt><trkpt lat="46.0278295" lon="12.413804"><ele>1084.0</ele><time>2026-04-04T08:54:06.151Z</time></trkpt><trkpt lat="46.0277276" lon="12.4139377"><ele>1084.0</ele><time>2026-04-04T08:54:07.151Z</time></trkpt><trkpt lat="46.0276117" lon="12.4140456"><ele>1084.0</ele><time>2026-04-04T08:54:08.152Z</time></trkpt><trkpt lat="46.0274878" lon="12.4141427"><ele>1084.0</ele><time>2026-04-04T08:54:09.151Z</time></trkpt><trkpt lat="46.0273708" lon="12.4142654"><ele>1084.0</ele><time>2026-04-04T08:54:10.152Z</time></trkpt><trkpt lat="46.027261" lon="12.4143837"><ele>1082.4</ele><time>2026-04-04T08:54:11.151Z</time></trkpt><trkpt lat="46.0271631" lon="12.4144975"><ele>1080.8000000000002</ele><time>2026-04-04T08:54:12.151Z</time></trkpt><trkpt lat="46.0271053" lon="12.4146209"><ele>1079.1999999999998</ele><time>2026-04-04T08:54:13.152Z</time></trkpt><trkpt lat="46.027038" lon="12.4147373"><ele>1077.6</ele><time>2026-04-04T08:54:14.151Z</time></trkpt><trkpt lat="46.0269749" lon="12.4148508"><ele>1076.0</ele><time>2026-04-04T08:54:15.152Z</time></trkpt><trkpt lat="46.02691" lon="12.4149405"><ele>1076.0</ele><time>2026-04-04T08:54:16.152Z</time></trkpt><trkpt lat="46.0268622" lon="12.4150229"><ele>1076.0</ele><time>2026-04-04T08:54:17.152Z</time></trkpt><trkpt lat="46.0268276" lon="12.415108"><ele>1076.0</ele><time>2026-04-04T08:54:18.152Z</time></trkpt><trkpt lat="46.0268124" lon="12.4152002"><ele>1076.0</ele><time>2026-04-04T08:54:19.153Z</time></trkpt><trkpt lat="46.0268149" lon="12.415306"><ele>1076.0</ele><time>2026-04-04T08:54:20.153Z</time></trkpt><trkpt lat="46.0268306" lon="12.415411"><ele>1076.0</ele><time>2026-04-04T08:54:21.152Z</time></trkpt><trkpt lat="46.026844" lon="12.4155218"><ele>1076.0</ele><time>2026-04-04T08:54:22.152Z</time></trkpt><trkpt lat="46.0268434" lon="12.4156355"><ele>1078.0</ele><time>2026-04-04T08:54:23.152Z</time></trkpt><trkpt lat="46.0268255" lon="12.4157458"><ele>1080.0</ele><time>2026-04-04T08:54:24.153Z</time></trkpt><trkpt lat="46.0267904" lon="12.4158624"><ele>1082.0</ele><time>2026-04-04T08:54:25.152Z</time></trkpt><trkpt lat="46.0267435" lon="12.4159804"><ele>1084.0</ele><time>2026-04-04T08:54:26.152Z</time></trkpt><trkpt lat="46.0266904" lon="12.4161025"><ele>1086.0</ele><time>2026-04-04T08:54:27.151Z</time></trkpt><trkpt lat="46.0266362" lon="12.4162271"><ele>1088.0</ele><time>2026-04-04T08:54:28.153Z</time></trkpt><trkpt lat="46.0265792" lon="12.4163407"><ele>1090.0</ele><time>2026-04-04T08:54:29.151Z</time></trkpt><trkpt lat="46.0265136" lon="12.4164151"><ele>1092.0</ele><time>2026-04-04T08:54:30.152Z</time></trkpt><trkpt lat="46.0264439" lon="12.4164669"><ele>1094.0</ele><time>2026-04-04T08:54:31.151Z</time></trkpt><trkpt lat="46.0263708" lon="12.4164955"><ele>1096.0</ele><time>2026-04-04T08:54:32.153Z</time></trkpt><trkpt lat="46.0262992" lon="12.4165208"><ele>1098.0</ele><time>2026-04-04T08:54:33.151Z</time></trkpt><trkpt lat="46.0262263" lon="12.4165255"><ele>1098.0</ele><time>2026-04-04T08:54:34.152Z</time></trkpt><trkpt lat="46.0261628" lon="12.4165111"><ele>1098.0</ele><time>2026-04-04T08:54:35.152Z</time></trkpt><trkpt lat="46.0260992" lon="12.4164654"><ele>1098.0</ele><time>2026-04-04T08:54:36.151Z</time></trkpt><trkpt lat="46.0260518" lon="12.4163515"><ele>1098.0</ele><time>2026-04-04T08:54:38.152Z</time></trkpt><trkpt lat="46.0260401" lon="12.4162087"><ele>1098.0</ele><time>2026-04-04T08:54:40.151Z</time></trkpt><trkpt lat="46.0260407" lon="12.4160589"><ele>1098.0</ele><time>2026-04-04T08:54:42.151Z</time></trkpt><trkpt lat="46.0260178" lon="12.4159241"><ele>1096.6</ele><time>2026-04-04T08:54:44.152Z</time></trkpt><trkpt lat="46.0259382" lon="12.4158138"><ele>1095.1999999999998</ele><time>2026-04-04T08:54:46.151Z</time></trkpt><trkpt lat="46.02586" lon="12.4158"><ele>1093.8</ele><time>2026-04-04T08:54:47.151Z</time></trkpt><trkpt lat="46.0257796" lon="12.4157793"><ele>1092.3999999999999</ele><time>2026-04-04T08:54:48.152Z</time></trkpt><trkpt lat="46.0256872" lon="12.4157533"><ele>1091.0</ele><time>2026-04-04T08:54:49.152Z</time></trkpt><trkpt lat="46.0255983" lon="12.4157221"><ele>1091.0</ele><time>2026-04-04T08:54:50.151Z</time></trkpt><trkpt lat="46.0255107" lon="12.4156828"><ele>1091.0</ele><time>2026-04-04T08:54:51.152Z</time></trkpt><trkpt lat="46.025436" lon="12.4156332"><ele>1091.0</ele><time>2026-04-04T08:54:52.152Z</time></trkpt><trkpt lat="46.0253639" lon="12.4155856"><ele>1091.0</ele><time>2026-04-04T08:54:53.151Z</time></trkpt><trkpt lat="46.0252948" lon="12.4155613"><ele>1091.0</ele><time>2026-04-04T08:54:54.152Z</time></trkpt><trkpt lat="46.0252187" lon="12.4155429"><ele>1091.0</ele><time>2026-04-04T08:54:55.152Z</time></trkpt><trkpt lat="46.025131" lon="12.4155372"><ele>1091.0</ele><time>2026-04-04T08:54:56.152Z</time></trkpt><trkpt lat="46.0250478" lon="12.4155434"><ele>1091.0</ele><time>2026-04-04T08:54:57.153Z</time></trkpt><trkpt lat="46.024956" lon="12.4155465"><ele>1091.0</ele><time>2026-04-04T08:54:58.152Z</time></trkpt><trkpt lat="46.0248643" lon="12.4155566"><ele>1091.0</ele><time>2026-04-04T08:54:59.152Z</time></trkpt><trkpt lat="46.0247741" lon="12.4155791"><ele>1091.0</ele><time>2026-04-04T08:55:00.153Z</time></trkpt><trkpt lat="46.024681" lon="12.4156093"><ele>1089.0</ele><time>2026-04-04T08:55:01.151Z</time></trkpt><trkpt lat="46.0245897" lon="12.415644"><ele>1087.0</ele><time>2026-04-04T08:55:02.151Z</time></trkpt><trkpt lat="46.0244949" lon="12.4156766"><ele>1085.0</ele><time>2026-04-04T08:55:03.153Z</time></trkpt><trkpt lat="46.024395" lon="12.4157073"><ele>1083.0</ele><time>2026-04-04T08:55:04.151Z</time></trkpt><trkpt lat="46.0242998" lon="12.4157613"><ele>1081.0</ele><time>2026-04-04T08:55:05.152Z</time></trkpt><trkpt lat="46.0242086" lon="12.4158288"><ele>1080.8</ele><time>2026-04-04T08:55:06.153Z</time></trkpt><trkpt lat="46.0241161" lon="12.4159007"><ele>1080.6</ele><time>2026-04-04T08:55:07.153Z</time></trkpt><trkpt lat="46.0240282" lon="12.4159743"><ele>1080.4</ele><time>2026-04-04T08:55:08.152Z</time></trkpt><trkpt lat="46.023961" lon="12.4160444"><ele>1080.2</ele><time>2026-04-04T08:55:09.152Z</time></trkpt><trkpt lat="46.0238789" lon="12.4161023"><ele>1080.0</ele><time>2026-04-04T08:55:10.152Z</time></trkpt><trkpt lat="46.0237874" lon="12.4161676"><ele>1080.0</ele><time>2026-04-04T08:55:11.152Z</time></trkpt><trkpt lat="46.0236962" lon="12.4162132"><ele>1080.0</ele><time>2026-04-04T08:55:12.151Z</time></trkpt><trkpt lat="46.0236061" lon="12.4162407"><ele>1080.0</ele><time>2026-04-04T08:55:13.152Z</time></trkpt><trkpt lat="46.0235354" lon="12.4162218"><ele>1080.0</ele><time>2026-04-04T08:55:14.152Z</time></trkpt><trkpt lat="46.0234757" lon="12.4161443"><ele>1080.0</ele><time>2026-04-04T08:55:15.152Z</time></trkpt><trkpt lat="46.0234224" lon="12.4160384"><ele>1080.0</ele><time>2026-04-04T08:55:16.152Z</time></trkpt><trkpt lat="46.0233837" lon="12.4159343"><ele>1080.0</ele><time>2026-04-04T08:55:17.151Z</time></trkpt><trkpt lat="46.0233484" lon="12.4158417"><ele>1080.0</ele><time>2026-04-04T08:55:18.153Z</time></trkpt><trkpt lat="46.0232751" lon="12.4157418"><ele>1080.0</ele><time>2026-04-04T08:55:20.153Z</time></trkpt><trkpt lat="46.0231534" lon="12.4157128"><ele>1080.0</ele><time>2026-04-04T08:55:22.153Z</time></trkpt><trkpt lat="46.0230799" lon="12.4157233"><ele>1080.0</ele><time>2026-04-04T08:55:23.153Z</time></trkpt><trkpt lat="46.0230023" lon="12.4157475"><ele>1079.2</ele><time>2026-04-04T08:55:24.153Z</time></trkpt><trkpt lat="46.0229251" lon="12.4157768"><ele>1078.4</ele><time>2026-04-04T08:55:25.152Z</time></trkpt><trkpt lat="46.0228417" lon="12.4158175"><ele>1077.6</ele><time>2026-04-04T08:55:26.152Z</time></trkpt><trkpt lat="46.0227523" lon="12.4158599"><ele>1076.8</ele><time>2026-04-04T08:55:27.152Z</time></trkpt><trkpt lat="46.0226595" lon="12.4159173"><ele>1076.0</ele><time>2026-04-04T08:55:28.152Z</time></trkpt><trkpt lat="46.0225848" lon="12.41599"><ele>1076.0</ele><time>2026-04-04T08:55:29.153Z</time></trkpt><trkpt lat="46.0225117" lon="12.4160657"><ele>1076.0</ele><time>2026-04-04T08:55:30.152Z</time></trkpt><trkpt lat="46.0224363" lon="12.4161315"><ele>1076.0</ele><time>2026-04-04T08:55:31.152Z</time></trkpt><trkpt lat="46.0223607" lon="12.4161853"><ele>1076.0</ele><time>2026-04-04T08:55:32.153Z</time></trkpt><trkpt lat="46.0222683" lon="12.4161955"><ele>1076.0</ele><time>2026-04-04T08:55:33.152Z</time></trkpt><trkpt lat="46.0221861" lon="12.4162071"><ele>1076.0</ele><time>2026-04-04T08:55:34.152Z</time></trkpt><trkpt lat="46.022074" lon="12.4161818"><ele>1076.6666666666667</ele><time>2026-04-04T08:55:35.153Z</time></trkpt><trkpt lat="46.0219347" lon="12.4161502"><ele>1077.3333333333333</ele><time>2026-04-04T08:55:36.154Z</time></trkpt><trkpt lat="46.0217733" lon="12.4161093"><ele>1078.0</ele><time>2026-04-04T08:55:37.152Z</time></trkpt><trkpt lat="46.0216019" lon="12.4160224"><ele>1081.0</ele><time>2026-04-04T08:55:38.152Z</time></trkpt><trkpt lat="46.0214307" lon="12.415907"><ele>1084.0</ele><time>2026-04-04T08:55:39.152Z</time></trkpt><trkpt lat="46.0212678" lon="12.4158033"><ele>1087.0</ele><time>2026-04-04T08:55:40.152Z</time></trkpt><trkpt lat="46.0210954" lon="12.4157177"><ele>1087.0</ele><time>2026-04-04T08:55:41.152Z</time></trkpt><trkpt lat="46.0209385" lon="12.415637"><ele>1087.0</ele><time>2026-04-04T08:55:42.152Z</time></trkpt><trkpt lat="46.0208007" lon="12.4156442"><ele>1087.0</ele><time>2026-04-04T08:55:43.152Z</time></trkpt><trkpt lat="46.0206865" lon="12.4156065"><ele>1087.0</ele><time>2026-04-04T08:55:44.153Z</time></trkpt><trkpt lat="46.0205691" lon="12.4155614"><ele>1087.6</ele><time>2026-04-04T08:55:45.154Z</time></trkpt><trkpt lat="46.0204608" lon="12.4155135"><ele>1088.2</ele><time>2026-04-04T08:55:46.154Z</time></trkpt><trkpt lat="46.0203949" lon="12.415438"><ele>1088.8</ele><time>2026-04-04T08:55:47.152Z</time></trkpt><trkpt lat="46.0203203" lon="12.4153663"><ele>1089.4</ele><time>2026-04-04T08:55:48.153Z</time></trkpt><trkpt lat="46.0202537" lon="12.4152758"><ele>1090.0</ele><time>2026-04-04T08:55:49.153Z</time></trkpt><trkpt lat="46.0201958" lon="12.4151789"><ele>1089.8333333333333</ele><time>2026-04-04T08:55:50.152Z</time></trkpt><trkpt lat="46.0201372" lon="12.4150989"><ele>1089.6666666666665</ele><time>2026-04-04T08:55:51.153Z</time></trkpt><trkpt lat="46.02007" lon="12.4150441"><ele>1089.5</ele><time>2026-04-04T08:55:52.152Z</time></trkpt><trkpt lat="46.0199882" lon="12.4150211"><ele>1089.3333333333333</ele><time>2026-04-04T08:55:53.152Z</time></trkpt><trkpt lat="46.0199139" lon="12.4150323"><ele>1089.1666666666667</ele><time>2026-04-04T08:55:54.152Z</time></trkpt><trkpt lat="46.019816" lon="12.4150588"><ele>1089.0</ele><time>2026-04-04T08:55:55.152Z</time></trkpt><trkpt lat="46.0197087" lon="12.415105"><ele>1089.0</ele><time>2026-04-04T08:55:56.152Z</time></trkpt><trkpt lat="46.0195998" lon="12.415173"><ele>1089.0</ele><time>2026-04-04T08:55:57.152Z</time></trkpt><trkpt lat="46.0194816" lon="12.4152584"><ele>1089.0</ele><time>2026-04-04T08:55:58.152Z</time></trkpt><trkpt lat="46.0193669" lon="12.4153868"><ele>1089.0</ele><time>2026-04-04T08:55:59.152Z</time></trkpt><trkpt lat="46.019259" lon="12.4155232"><ele>1086.0</ele><time>2026-04-04T08:56:00.153Z</time></trkpt><trkpt lat="46.0191354" lon="12.4156401"><ele>1083.0</ele><time>2026-04-04T08:56:01.152Z</time></trkpt><trkpt lat="46.0189926" lon="12.4157378"><ele>1080.0</ele><time>2026-04-04T08:56:02.153Z</time></trkpt><trkpt lat="46.0188479" lon="12.4158168"><ele>1080.0</ele><time>2026-04-04T08:56:03.154Z</time></trkpt><trkpt lat="46.0186826" lon="12.415908"><ele>1080.0</ele><time>2026-04-04T08:56:04.153Z</time></trkpt><trkpt lat="46.0185201" lon="12.4160049"><ele>1080.0</ele><time>2026-04-04T08:56:05.153Z</time></trkpt><trkpt lat="46.0183672" lon="12.4161191"><ele>1079.5</ele><time>2026-04-04T08:56:06.153Z</time></trkpt><trkpt lat="46.0182329" lon="12.4162367"><ele>1079.0</ele><time>2026-04-04T08:56:07.152Z</time></trkpt><trkpt lat="46.0181228" lon="12.4163619"><ele>1078.5</ele><time>2026-04-04T08:56:08.152Z</time></trkpt><trkpt lat="46.0180183" lon="12.416461"><ele>1078.0</ele><time>2026-04-04T08:56:09.152Z</time></trkpt><trkpt lat="46.0179386" lon="12.4165151"><ele>1075.6</ele><time>2026-04-04T08:56:10.153Z</time></trkpt><trkpt lat="46.0178438" lon="12.4165484"><ele>1073.1999999999998</ele><time>2026-04-04T08:56:11.154Z</time></trkpt><trkpt lat="46.0177515" lon="12.4165749"><ele>1070.8</ele><time>2026-04-04T08:56:12.152Z</time></trkpt><trkpt lat="46.0176339" lon="12.4165576"><ele>1068.3999999999999</ele><time>2026-04-04T08:56:13.153Z</time></trkpt><trkpt lat="46.0175175" lon="12.4165704"><ele>1066.0</ele><time>2026-04-04T08:56:14.152Z</time></trkpt><trkpt lat="46.0174032" lon="12.4165999"><ele>1065.0</ele><time>2026-04-04T08:56:15.152Z</time></trkpt><trkpt lat="46.0172899" lon="12.4166304"><ele>1064.0</ele><time>2026-04-04T08:56:16.152Z</time></trkpt><trkpt lat="46.0171778" lon="12.4166658"><ele>1063.0</ele><time>2026-04-04T08:56:17.153Z</time></trkpt><trkpt lat="46.0170688" lon="12.4167034"><ele>1062.0</ele><time>2026-04-04T08:56:18.153Z</time></trkpt><trkpt lat="46.0169614" lon="12.4167436"><ele>1062.0</ele><time>2026-04-04T08:56:19.152Z</time></trkpt><trkpt lat="46.0168745" lon="12.416813"><ele>1062.0</ele><time>2026-04-04T08:56:20.153Z</time></trkpt><trkpt lat="46.0167946" lon="12.4168972"><ele>1062.0</ele><time>2026-04-04T08:56:21.153Z</time></trkpt><trkpt lat="46.0167276" lon="12.4169994"><ele>1062.0</ele><time>2026-04-04T08:56:22.152Z</time></trkpt><trkpt lat="46.0166813" lon="12.4171142"><ele>1062.0</ele><time>2026-04-04T08:56:23.152Z</time></trkpt><trkpt lat="46.016659" lon="12.4172353"><ele>1060.6</ele><time>2026-04-04T08:56:24.152Z</time></trkpt><trkpt lat="46.0166422" lon="12.4173498"><ele>1059.2</ele><time>2026-04-04T08:56:25.152Z</time></trkpt><trkpt lat="46.0166344" lon="12.4174462"><ele>1057.8</ele><time>2026-04-04T08:56:26.152Z</time></trkpt><trkpt lat="46.016566" lon="12.4175901"><ele>1056.4</ele><time>2026-04-04T08:56:28.153Z</time></trkpt><trkpt lat="46.0164309" lon="12.4176261"><ele>1055.0</ele><time>2026-04-04T08:56:30.153Z</time></trkpt><trkpt lat="46.016345" lon="12.4176222"><ele>1055.0</ele><time>2026-04-04T08:56:31.152Z</time></trkpt><trkpt lat="46.0162423" lon="12.4176164"><ele>1055.0</ele><time>2026-04-04T08:56:32.152Z</time></trkpt><trkpt lat="46.0161253" lon="12.417621"><ele>1055.0</ele><time>2026-04-04T08:56:33.153Z</time></trkpt><trkpt lat="46.0160034" lon="12.4176487"><ele>1055.0</ele><time>2026-04-04T08:56:34.154Z</time></trkpt><trkpt lat="46.015894" lon="12.4176973"><ele>1053.6666666666667</ele><time>2026-04-04T08:56:35.152Z</time></trkpt><trkpt lat="46.0158022" lon="12.4177433"><ele>1052.3333333333335</ele><time>2026-04-04T08:56:36.152Z</time></trkpt><trkpt lat="46.0157236" lon="12.4178057"><ele>1051.0</ele><time>2026-04-04T08:56:37.153Z</time></trkpt><trkpt lat="46.0156715" lon="12.4178975"><ele>1049.6666666666667</ele><time>2026-04-04T08:56:38.153Z</time></trkpt><trkpt lat="46.0156361" lon="12.4180018"><ele>1048.3333333333333</ele><time>2026-04-04T08:56:39.153Z</time></trkpt><trkpt lat="46.0156068" lon="12.4181209"><ele>1047.0</ele><time>2026-04-04T08:56:40.152Z</time></trkpt><trkpt lat="46.0155822" lon="12.4182357"><ele>1046.8333333333333</ele><time>2026-04-04T08:56:41.152Z</time></trkpt><trkpt lat="46.0155444" lon="12.418338"><ele>1046.6666666666667</ele><time>2026-04-04T08:56:42.152Z</time></trkpt><trkpt lat="46.0154957" lon="12.4184179"><ele>1046.5</ele><time>2026-04-04T08:56:43.154Z</time></trkpt><trkpt lat="46.0154363" lon="12.4184857"><ele>1046.3333333333335</ele><time>2026-04-04T08:56:44.154Z</time></trkpt><trkpt lat="46.015368" lon="12.4185303"><ele>1046.1666666666667</ele><time>2026-04-04T08:56:45.152Z</time></trkpt><trkpt lat="46.015296" lon="12.4185658"><ele>1046.0</ele><time>2026-04-04T08:56:46.152Z</time></trkpt><trkpt lat="46.0152271" lon="12.4186089"><ele>1046.0</ele><time>2026-04-04T08:56:47.152Z</time></trkpt><trkpt lat="46.015177" lon="12.4186832"><ele>1046.0</ele><time>2026-04-04T08:56:48.152Z</time></trkpt><trkpt lat="46.0151529" lon="12.4187781"><ele>1046.0</ele><time>2026-04-04T08:56:49.152Z</time></trkpt><trkpt lat="46.0151437" lon="12.4188825"><ele>1046.0</ele><time>2026-04-04T08:56:50.153Z</time></trkpt><trkpt lat="46.0151351" lon="12.4189977"><ele>1046.0</ele><time>2026-04-04T08:56:51.153Z</time></trkpt><trkpt lat="46.0151247" lon="12.4191248"><ele>1046.0</ele><time>2026-04-04T08:56:52.152Z</time></trkpt><trkpt lat="46.0150929" lon="12.4192475"><ele>1045.3333333333335</ele><time>2026-04-04T08:56:53.153Z</time></trkpt><trkpt lat="46.0150407" lon="12.4193514"><ele>1044.6666666666667</ele><time>2026-04-04T08:56:54.152Z</time></trkpt><trkpt lat="46.0149821" lon="12.419441"><ele>1044.0</ele><time>2026-04-04T08:56:55.152Z</time></trkpt><trkpt lat="46.0149132" lon="12.4195179"><ele>1043.3333333333333</ele><time>2026-04-04T08:56:56.152Z</time></trkpt><trkpt lat="46.0148364" lon="12.4195915"><ele>1042.6666666666665</ele><time>2026-04-04T08:56:57.153Z</time></trkpt><trkpt lat="46.0147666" lon="12.4196732"><ele>1042.0</ele><time>2026-04-04T08:56:58.153Z</time></trkpt><trkpt lat="46.0147141" lon="12.419771"><ele>1039.2</ele><time>2026-04-04T08:56:59.152Z</time></trkpt><trkpt lat="46.0146767" lon="12.419888"><ele>1036.4</ele><time>2026-04-04T08:57:00.152Z</time></trkpt><trkpt lat="46.0146641" lon="12.4200216"><ele>1033.6</ele><time>2026-04-04T08:57:01.152Z</time></trkpt><trkpt lat="46.0146638" lon="12.4201587"><ele>1030.8</ele><time>2026-04-04T08:57:02.152Z</time></trkpt><trkpt lat="46.0146671" lon="12.4202941"><ele>1028.0</ele><time>2026-04-04T08:57:03.153Z</time></trkpt><trkpt lat="46.0146639" lon="12.4204314"><ele>1026.0</ele><time>2026-04-04T08:57:04.153Z</time></trkpt><trkpt lat="46.0146373" lon="12.4205701"><ele>1024.0</ele><time>2026-04-04T08:57:05.152Z</time></trkpt><trkpt lat="46.0146018" lon="12.4207065"><ele>1022.0</ele><time>2026-04-04T08:57:06.153Z</time></trkpt><trkpt lat="46.0145163" lon="12.4208743"><ele>1020.0</ele><time>2026-04-04T08:57:07.152Z</time></trkpt><trkpt lat="46.0144368" lon="12.421063"><ele>1020.0</ele><time>2026-04-04T08:57:08.152Z</time></trkpt><trkpt lat="46.0143618" lon="12.4212759"><ele>1020.0</ele><time>2026-04-04T08:57:09.152Z</time></trkpt><trkpt lat="46.0142527" lon="12.4215117"><ele>1020.0</ele><time>2026-04-04T08:57:10.153Z</time></trkpt><trkpt lat="46.014174" lon="12.4217123"><ele>1015.25</ele><time>2026-04-04T08:57:11.154Z</time></trkpt><trkpt lat="46.0140838" lon="12.4218782"><ele>1010.5</ele><time>2026-04-04T08:57:12.152Z</time></trkpt><trkpt lat="46.0139719" lon="12.422"><ele>1005.75</ele><time>2026-04-04T08:57:13.153Z</time></trkpt><trkpt lat="46.0138658" lon="12.4221058"><ele>1001.0</ele><time>2026-04-04T08:57:14.153Z</time></trkpt><trkpt lat="46.0137892" lon="12.4222302"><ele>1001.0</ele><time>2026-04-04T08:57:15.152Z</time></trkpt><trkpt lat="46.0137509" lon="12.4223485"><ele>1000.9999999999999</ele><time>2026-04-04T08:57:16.154Z</time></trkpt><trkpt lat="46.0137475" lon="12.4224835"><ele>1000.9999999999999</ele><time>2026-04-04T08:57:17.153Z</time></trkpt><trkpt lat="46.0137419" lon="12.4226099"><ele>1001.0</ele><time>2026-04-04T08:57:18.153Z</time></trkpt><trkpt lat="46.0137525" lon="12.4227518"><ele>1001.0</ele><time>2026-04-04T08:57:19.153Z</time></trkpt><trkpt lat="46.0137154" lon="12.4228591"><ele>1001.0000000000001</ele><time>2026-04-04T08:57:20.153Z</time></trkpt><trkpt lat="46.0136652" lon="12.4229464"><ele>1001.0</ele><time>2026-04-04T08:57:21.152Z</time></trkpt><trkpt lat="46.013596" lon="12.4229919"><ele>1001.0</ele><time>2026-04-04T08:57:22.152Z</time></trkpt><trkpt lat="46.013516" lon="12.4230377"><ele>1001.0</ele><time>2026-04-04T08:57:23.152Z</time></trkpt><trkpt lat="46.0134109" lon="12.4229823"><ele>1001.0000000000001</ele><time>2026-04-04T08:57:24.154Z</time></trkpt><trkpt lat="46.0133173" lon="12.4229889"><ele>1001.0</ele><time>2026-04-04T08:57:25.152Z</time></trkpt><trkpt lat="46.0132047" lon="12.4230574"><ele>998.8</ele><time>2026-04-04T08:57:26.152Z</time></trkpt><trkpt lat="46.0131099" lon="12.4231293"><ele>996.5999999999999</ele><time>2026-04-04T08:57:27.152Z</time></trkpt><trkpt lat="46.013027" lon="12.4232357"><ele>994.4</ele><time>2026-04-04T08:57:28.153Z</time></trkpt><trkpt lat="46.0129704" lon="12.4233719"><ele>992.2</ele><time>2026-04-04T08:57:29.152Z</time></trkpt><trkpt lat="46.0129386" lon="12.4235128"><ele>990.0</ele><time>2026-04-04T08:57:30.152Z</time></trkpt><trkpt lat="46.0129195" lon="12.4236296"><ele>990.0</ele><time>2026-04-04T08:57:31.153Z</time></trkpt><trkpt lat="46.0128499" lon="12.4237438"><ele>990.0</ele><time>2026-04-04T08:57:33.152Z</time></trkpt><trkpt lat="46.0127678" lon="12.4236837"><ele>990.0</ele><time>2026-04-04T08:57:35.152Z</time></trkpt><trkpt lat="46.0127543" lon="12.423592"><ele>990.0</ele><time>2026-04-04T08:57:36.154Z</time></trkpt><trkpt lat="46.0127768" lon="12.423497"><ele>990.0</ele><time>2026-04-04T08:57:37.152Z</time></trkpt><trkpt lat="46.0128173" lon="12.423403"><ele>990.0</ele><time>2026-04-04T08:57:38.153Z</time></trkpt><trkpt lat="46.0128583" lon="12.4232934"><ele>990.0</ele><time>2026-04-04T08:57:39.154Z</time></trkpt><trkpt lat="46.0129021" lon="12.4231855"><ele>990.0</ele><time>2026-04-04T08:57:40.153Z</time></trkpt><trkpt lat="46.0129467" lon="12.4230817"><ele>990.0</ele><time>2026-04-04T08:57:41.153Z</time></trkpt><trkpt lat="46.0129956" lon="12.4229788"><ele>990.0</ele><time>2026-04-04T08:57:42.152Z</time></trkpt><trkpt lat="46.013048" lon="12.4228788"><ele>990.0</ele><time>2026-04-04T08:57:43.153Z</time></trkpt><trkpt lat="46.0131046" lon="12.4227815"><ele>990.0</ele><time>2026-04-04T08:57:44.153Z</time></trkpt><trkpt lat="46.0131638" lon="12.4226858"><ele>988.4</ele><time>2026-04-04T08:57:45.152Z</time></trkpt><trkpt lat="46.0132222" lon="12.4225755"><ele>986.8</ele><time>2026-04-04T08:57:46.152Z</time></trkpt><trkpt lat="46.0132561" lon="12.422446"><ele>985.2</ele><time>2026-04-04T08:57:47.152Z</time></trkpt><trkpt lat="46.0132846" lon="12.4223156"><ele>983.6</ele><time>2026-04-04T08:57:48.153Z</time></trkpt><trkpt lat="46.0133104" lon="12.4221879"><ele>982.0</ele><time>2026-04-04T08:57:49.152Z</time></trkpt><trkpt lat="46.013322" lon="12.422052"><ele>982.0</ele><time>2026-04-04T08:57:50.152Z</time></trkpt><trkpt lat="46.0132763" lon="12.4219272"><ele>982.0</ele><time>2026-04-04T08:57:51.152Z</time></trkpt><trkpt lat="46.0132295" lon="12.4218358"><ele>982.0</ele><time>2026-04-04T08:57:52.153Z</time></trkpt><trkpt lat="46.0131685" lon="12.4217462"><ele>982.0</ele><time>2026-04-04T08:57:53.153Z</time></trkpt><trkpt lat="46.0130855" lon="12.421722"><ele>982.0</ele><time>2026-04-04T08:57:54.152Z</time></trkpt><trkpt lat="46.0129846" lon="12.4217551"><ele>981.9999999999999</ele><time>2026-04-04T08:57:55.152Z</time></trkpt><trkpt lat="46.0129098" lon="12.4217839"><ele>982.0</ele><time>2026-04-04T08:57:56.153Z</time></trkpt><trkpt lat="46.012829" lon="12.421811"><ele>982.0</ele><time>2026-04-04T08:57:57.152Z</time></trkpt><trkpt lat="46.0127425" lon="12.4218288"><ele>982.0</ele><time>2026-04-04T08:57:58.152Z</time></trkpt><trkpt lat="46.0126481" lon="12.4218163"><ele>981.9999999999999</ele><time>2026-04-04T08:57:59.153Z</time></trkpt><trkpt lat="46.0125767" lon="12.421758"><ele>982.0</ele><time>2026-04-04T08:58:00.153Z</time></trkpt><trkpt lat="46.0125564" lon="12.4216452"><ele>981.9999999999999</ele><time>2026-04-04T08:58:01.153Z</time></trkpt><trkpt lat="46.0125312" lon="12.4215538"><ele>982.0</ele><time>2026-04-04T08:58:02.153Z</time></trkpt><trkpt lat="46.012523" lon="12.4214584"><ele>982.0</ele><time>2026-04-04T08:58:03.152Z</time></trkpt><trkpt lat="46.0124553" lon="12.4213579"><ele>982.0</ele><time>2026-04-04T08:58:05.153Z</time></trkpt><trkpt lat="46.0123654" lon="12.4213325"><ele>981.9999999999999</ele><time>2026-04-04T08:58:07.152Z</time></trkpt><trkpt lat="46.0123074" lon="12.4214473"><ele>982.0</ele><time>2026-04-04T08:58:08.152Z</time></trkpt><trkpt lat="46.0123264" lon="12.4215457"><ele>979.4000000000001</ele><time>2026-04-04T08:58:09.153Z</time></trkpt><trkpt lat="46.0123646" lon="12.4216307"><ele>976.8000000000001</ele><time>2026-04-04T08:58:10.153Z</time></trkpt><trkpt lat="46.0123834" lon="12.4217196"><ele>974.2</ele><time>2026-04-04T08:58:11.153Z</time></trkpt><trkpt lat="46.0124138" lon="12.4218239"><ele>971.6</ele><time>2026-04-04T08:58:12.153Z</time></trkpt><trkpt lat="46.0124017" lon="12.422023"><ele>969.0</ele><time>2026-04-04T08:58:14.152Z</time></trkpt><trkpt lat="46.0123557" lon="12.4221632"><ele>968.8000000000001</ele><time>2026-04-04T08:58:15.153Z</time></trkpt><trkpt lat="46.0123271" lon="12.4223001"><ele>968.6000000000001</ele><time>2026-04-04T08:58:16.153Z</time></trkpt><trkpt lat="46.0122871" lon="12.4224304"><ele>968.4</ele><time>2026-04-04T08:58:17.153Z</time></trkpt><trkpt lat="46.0122407" lon="12.4225593"><ele>968.2</ele><time>2026-04-04T08:58:18.153Z</time></trkpt><trkpt lat="46.0121792" lon="12.4226741"><ele>968.0</ele><time>2026-04-04T08:58:19.152Z</time></trkpt><trkpt lat="46.0121067" lon="12.4227754"><ele>968.0</ele><time>2026-04-04T08:58:20.153Z</time></trkpt><trkpt lat="46.0120213" lon="12.4228789"><ele>968.0</ele><time>2026-04-04T08:58:21.152Z</time></trkpt><trkpt lat="46.0119318" lon="12.4229796"><ele>968.0</ele><time>2026-04-04T08:58:22.154Z</time></trkpt><trkpt lat="46.0118422" lon="12.4230829"><ele>968.0</ele><time>2026-04-04T08:58:23.153Z</time></trkpt><trkpt lat="46.0117442" lon="12.4231866"><ele>968.5999999999999</ele><time>2026-04-04T08:58:24.153Z</time></trkpt><trkpt lat="46.0116571" lon="12.4232999"><ele>969.1999999999999</ele><time>2026-04-04T08:58:25.153Z</time></trkpt><trkpt lat="46.011576" lon="12.4234075"><ele>969.8</ele><time>2026-04-04T08:58:26.152Z</time></trkpt><trkpt lat="46.0114685" lon="12.4234721"><ele>970.4</ele><time>2026-04-04T08:58:27.153Z</time></trkpt><trkpt lat="46.0113867" lon="12.4234803"><ele>971.0</ele><time>2026-04-04T08:58:28.153Z</time></trkpt><trkpt lat="46.0113009" lon="12.4234944"><ele>968.4</ele><time>2026-04-04T08:58:29.154Z</time></trkpt><trkpt lat="46.0112173" lon="12.4235238"><ele>965.8</ele><time>2026-04-04T08:58:30.152Z</time></trkpt><trkpt lat="46.0111596" lon="12.4236218"><ele>963.1999999999999</ele><time>2026-04-04T08:58:31.152Z</time></trkpt><trkpt lat="46.0111109" lon="12.4237463"><ele>960.5999999999999</ele><time>2026-04-04T08:58:32.152Z</time></trkpt><trkpt lat="46.011071" lon="12.4238939"><ele>958.0</ele><time>2026-04-04T08:58:33.152Z</time></trkpt><trkpt lat="46.0110296" lon="12.4240508"><ele>958.0</ele><time>2026-04-04T08:58:34.152Z</time></trkpt><trkpt lat="46.0109883" lon="12.4242017"><ele>958.0</ele><time>2026-04-04T08:58:35.153Z</time></trkpt><trkpt lat="46.0108891" lon="12.4243098"><ele>958.0</ele><time>2026-04-04T08:58:36.152Z</time></trkpt><trkpt lat="46.010814" lon="12.424442"><ele>958.0</ele><time>2026-04-04T08:58:37.152Z</time></trkpt><trkpt lat="46.0107369" lon="12.4245618"><ele>954.8</ele><time>2026-04-04T08:58:38.152Z</time></trkpt><trkpt lat="46.0106295" lon="12.4246641"><ele>951.5999999999999</ele><time>2026-04-04T08:58:39.152Z</time></trkpt><trkpt lat="46.0105441" lon="12.4247673"><ele>948.4000000000001</ele><time>2026-04-04T08:58:40.152Z</time></trkpt><trkpt lat="46.0104643" lon="12.4248691"><ele>945.2</ele><time>2026-04-04T08:58:41.152Z</time></trkpt><trkpt lat="46.0103937" lon="12.4249557"><ele>942.0</ele><time>2026-04-04T08:58:42.153Z</time></trkpt><trkpt lat="46.0103568" lon="12.4250524"><ele>942.0</ele><time>2026-04-04T08:58:43.153Z</time></trkpt><trkpt lat="46.0103536" lon="12.4251672"><ele>942.0</ele><time>2026-04-04T08:58:44.153Z</time></trkpt><trkpt lat="46.010345" lon="12.4252619"><ele>942.0</ele><time>2026-04-04T08:58:45.152Z</time></trkpt><trkpt lat="46.0103981" lon="12.4253954"><ele>942.0</ele><time>2026-04-04T08:58:46.152Z</time></trkpt><trkpt lat="46.0104082" lon="12.425521"><ele>942.0</ele><time>2026-04-04T08:58:47.154Z</time></trkpt><trkpt lat="46.0104242" lon="12.4256444"><ele>942.0</ele><time>2026-04-04T08:58:48.152Z</time></trkpt><trkpt lat="46.0104251" lon="12.4257856"><ele>941.0</ele><time>2026-04-04T08:58:49.153Z</time></trkpt><trkpt lat="46.0103861" lon="12.4259444"><ele>940.0</ele><time>2026-04-04T08:58:50.153Z</time></trkpt><trkpt lat="46.0103549" lon="12.4260957"><ele>939.0</ele><time>2026-04-04T08:58:51.152Z</time></trkpt><trkpt lat="46.0103066" lon="12.4262348"><ele>938.0</ele><time>2026-04-04T08:58:52.153Z</time></trkpt><trkpt lat="46.0102459" lon="12.4263626"><ele>937.0</ele><time>2026-04-04T08:58:53.152Z</time></trkpt><trkpt lat="46.0101913" lon="12.4264937"><ele>936.4000000000001</ele><time>2026-04-04T08:58:54.152Z</time></trkpt><trkpt lat="46.01015" lon="12.4266364"><ele>935.8000000000001</ele><time>2026-04-04T08:58:55.153Z</time></trkpt><trkpt lat="46.0101341" lon="12.4267935"><ele>935.2</ele><time>2026-04-04T08:58:56.152Z</time></trkpt><trkpt lat="46.0101188" lon="12.4269554"><ele>934.6</ele><time>2026-04-04T08:58:57.153Z</time></trkpt><trkpt lat="46.0101026" lon="12.4270975"><ele>934.0</ele><time>2026-04-04T08:58:58.152Z</time></trkpt><trkpt lat="46.0100555" lon="12.4272162"><ele>928.4000000000001</ele><time>2026-04-04T08:58:59.153Z</time></trkpt><trkpt lat="46.0099903" lon="12.4273024"><ele>922.8000000000001</ele><time>2026-04-04T08:59:00.152Z</time></trkpt><trkpt lat="46.0099244" lon="12.4273805"><ele>917.1999999999999</ele><time>2026-04-04T08:59:01.153Z</time></trkpt><trkpt lat="46.0098343" lon="12.4274296"><ele>911.5999999999999</ele><time>2026-04-04T08:59:02.154Z</time></trkpt><trkpt lat="46.0097538" lon="12.4274737"><ele>906.0</ele><time>2026-04-04T08:59:03.153Z</time></trkpt><trkpt lat="46.0097026" lon="12.4276415"><ele>906.0</ele><time>2026-04-04T08:59:05.153Z</time></trkpt><trkpt lat="46.0097075" lon="12.4277545"><ele>906.0</ele><time>2026-04-04T08:59:06.152Z</time></trkpt><trkpt lat="46.0097285" lon="12.427867"><ele>906.0</ele><time>2026-04-04T08:59:07.152Z</time></trkpt><trkpt lat="46.0097602" lon="12.4279846"><ele>906.0</ele><time>2026-04-04T08:59:08.152Z</time></trkpt><trkpt lat="46.0098164" lon="12.4280838"><ele>906.0</ele><time>2026-04-04T08:59:09.154Z</time></trkpt><trkpt lat="46.0098892" lon="12.4281593"><ele>906.0</ele><time>2026-04-04T08:59:10.153Z</time></trkpt><trkpt lat="46.0099586" lon="12.4282369"><ele>908.8333333333334</ele><time>2026-04-04T08:59:11.152Z</time></trkpt><trkpt lat="46.0100417" lon="12.4282598"><ele>911.6666666666667</ele><time>2026-04-04T08:59:12.152Z</time></trkpt><trkpt lat="46.0101117" lon="12.4283081"><ele>914.5</ele><time>2026-04-04T08:59:13.152Z</time></trkpt><trkpt lat="46.0101778" lon="12.4283536"><ele>917.3333333333334</ele><time>2026-04-04T08:59:14.153Z</time></trkpt><trkpt lat="46.0101942" lon="12.4284577"><ele>920.1666666666667</ele><time>2026-04-04T08:59:15.152Z</time></trkpt><trkpt lat="46.0101941" lon="12.4285813"><ele>923.0</ele><time>2026-04-04T08:59:16.152Z</time></trkpt><trkpt lat="46.0101815" lon="12.4287118"><ele>922.0</ele><time>2026-04-04T08:59:17.152Z</time></trkpt><trkpt lat="46.0101755" lon="12.4288625"><ele>921.0</ele><time>2026-04-04T08:59:18.152Z</time></trkpt><trkpt lat="46.0101684" lon="12.4290134"><ele>920.0</ele><time>2026-04-04T08:59:19.152Z</time></trkpt><trkpt lat="46.0100945" lon="12.4291934"><ele>919.0</ele><time>2026-04-04T08:59:20.153Z</time></trkpt><trkpt lat="46.0100286" lon="12.4293363"><ele>913.25</ele><time>2026-04-04T08:59:21.153Z</time></trkpt><trkpt lat="46.0099605" lon="12.4294811"><ele>907.5</ele><time>2026-04-04T08:59:22.152Z</time></trkpt><trkpt lat="46.0098892" lon="12.4296108"><ele>901.75</ele><time>2026-04-04T08:59:23.154Z</time></trkpt><trkpt lat="46.0098096" lon="12.4297269"><ele>896.0</ele><time>2026-04-04T08:59:24.153Z</time></trkpt><trkpt lat="46.0097366" lon="12.4298488"><ele>896.0</ele><time>2026-04-04T08:59:25.154Z</time></trkpt><trkpt lat="46.0096708" lon="12.4299707"><ele>895.9999999999999</ele><time>2026-04-04T08:59:26.152Z</time></trkpt><trkpt lat="46.0096173" lon="12.4300971"><ele>895.9999999999999</ele><time>2026-04-04T08:59:27.153Z</time></trkpt><trkpt lat="46.0095619" lon="12.4302164"><ele>896.0</ele><time>2026-04-04T08:59:28.153Z</time></trkpt><trkpt lat="46.0094885" lon="12.4303088"><ele>896.0</ele><time>2026-04-04T08:59:29.152Z</time></trkpt><trkpt lat="46.0094018" lon="12.4303825"><ele>896.0</ele><time>2026-04-04T08:59:30.152Z</time></trkpt><trkpt lat="46.0093076" lon="12.4304387"><ele>895.9999999999999</ele><time>2026-04-04T08:59:31.153Z</time></trkpt><trkpt lat="46.0092156" lon="12.4304981"><ele>895.9999999999999</ele><time>2026-04-04T08:59:32.152Z</time></trkpt><trkpt lat="46.0091323" lon="12.430572"><ele>896.0</ele><time>2026-04-04T08:59:33.152Z</time></trkpt><trkpt lat="46.0090586" lon="12.4306634"><ele>896.0</ele><time>2026-04-04T08:59:34.152Z</time></trkpt><trkpt lat="46.0089895" lon="12.4307582"><ele>895.0</ele><time>2026-04-04T08:59:35.152Z</time></trkpt><trkpt lat="46.0089235" lon="12.4308611"><ele>893.9999999999999</ele><time>2026-04-04T08:59:36.153Z</time></trkpt><trkpt lat="46.0088568" lon="12.4309666"><ele>892.9999999999999</ele><time>2026-04-04T08:59:37.152Z</time></trkpt><trkpt lat="46.008783" lon="12.4310695"><ele>892.0</ele><time>2026-04-04T08:59:38.152Z</time></trkpt><trkpt lat="46.0086909" lon="12.4311581"><ele>891.0</ele><time>2026-04-04T08:59:39.152Z</time></trkpt><trkpt lat="46.0085835" lon="12.4312204"><ele>891.0</ele><time>2026-04-04T08:59:40.153Z</time></trkpt><trkpt lat="46.0084705" lon="12.4312641"><ele>891.0</ele><time>2026-04-04T08:59:41.152Z</time></trkpt><trkpt lat="46.0083527" lon="12.4312891"><ele>891.0</ele><time>2026-04-04T08:59:42.152Z</time></trkpt><trkpt lat="46.0082318" lon="12.431296"><ele>891.0</ele><time>2026-04-04T08:59:43.152Z</time></trkpt><trkpt lat="46.0081144" lon="12.4313002"><ele>889.8</ele><time>2026-04-04T08:59:44.152Z</time></trkpt><trkpt lat="46.0080026" lon="12.4313045"><ele>888.5999999999999</ele><time>2026-04-04T08:59:45.153Z</time></trkpt><trkpt lat="46.007897" lon="12.4312898"><ele>887.4</ele><time>2026-04-04T08:59:46.153Z</time></trkpt><trkpt lat="46.0078018" lon="12.4312332"><ele>886.2</ele><time>2026-04-04T08:59:47.154Z</time></trkpt><trkpt lat="46.0077191" lon="12.4311369"><ele>885.0</ele><time>2026-04-04T08:59:48.153Z</time></trkpt><trkpt lat="46.0076452" lon="12.4310312"><ele>885.0</ele><time>2026-04-04T08:59:49.152Z</time></trkpt><trkpt lat="46.0075469" lon="12.4309731"><ele>885.0</ele><time>2026-04-04T08:59:50.152Z</time></trkpt><trkpt lat="46.0074412" lon="12.4309263"><ele>885.0</ele><time>2026-04-04T08:59:51.154Z</time></trkpt><trkpt lat="46.0073409" lon="12.4308843"><ele>885.0</ele><time>2026-04-04T08:59:52.152Z</time></trkpt><trkpt lat="46.0072414" lon="12.4308593"><ele>885.0</ele><time>2026-04-04T08:59:53.153Z</time></trkpt><trkpt lat="46.0071435" lon="12.4308687"><ele>884.0</ele><time>2026-04-04T08:59:54.154Z</time></trkpt><trkpt lat="46.0070509" lon="12.4309136"><ele>883.0</ele><time>2026-04-04T08:59:55.152Z</time></trkpt><trkpt lat="46.0069779" lon="12.4309769"><ele>882.0</ele><time>2026-04-04T08:59:56.153Z</time></trkpt><trkpt lat="46.0069218" lon="12.4310568"><ele>881.0</ele><time>2026-04-04T08:59:57.152Z</time></trkpt><trkpt lat="46.0068842" lon="12.4311366"><ele>880.0</ele><time>2026-04-04T08:59:58.154Z</time></trkpt><trkpt lat="46.0068518" lon="12.431234"><ele>879.0</ele><time>2026-04-04T09:00:00.152Z</time></trkpt><trkpt lat="46.00684" lon="12.431339"><ele>878.5</ele><time>2026-04-04T09:00:03.153Z</time></trkpt><trkpt lat="46.0068265" lon="12.4314321"><ele>878.0</ele><time>2026-04-04T09:00:08.152Z</time></trkpt><trkpt lat="46.0068801" lon="12.4315023"><ele>877.5</ele><time>2026-04-04T09:02:00.153Z</time></trkpt><trkpt lat="46.0069692" lon="12.4316098"><ele>877.0</ele><time>2026-04-04T09:02:03.154Z</time></trkpt><trkpt lat="46.0070265" lon="12.4316735"><ele>876.5</ele><time>2026-04-04T09:02:04.153Z</time></trkpt><trkpt lat="46.0070789" lon="12.431733"><ele>876.0</ele><time>2026-04-04T09:02:05.153Z</time></trkpt><trkpt lat="46.0071302" lon="12.4317953"><ele>876.0</ele><time>2026-04-04T09:02:06.154Z</time></trkpt><trkpt lat="46.0071806" lon="12.4318568"><ele>875.9999999999999</ele><time>2026-04-04T09:02:07.153Z</time></trkpt><trkpt lat="46.0072703" lon="12.4319703"><ele>875.9999999999999</ele><time>2026-04-04T09:02:09.154Z</time></trkpt><trkpt lat="46.0073374" lon="12.4320862"><ele>876.0</ele><time>2026-04-04T09:02:11.153Z</time></trkpt><trkpt lat="46.00738" lon="12.4322092"><ele>876.0</ele><time>2026-04-04T09:02:13.154Z</time></trkpt><trkpt lat="46.0073594" lon="12.4323327"><ele>876.0</ele><time>2026-04-04T09:02:15.154Z</time></trkpt><trkpt lat="46.0072788" lon="12.4323743"><ele>875.9999999999999</ele><time>2026-04-04T09:02:17.154Z</time></trkpt><trkpt lat="46.0071903" lon="12.4322737"><ele>875.9999999999999</ele><time>2026-04-04T09:02:19.153Z</time></trkpt><trkpt lat="46.0071433" lon="12.4321788"><ele>876.0</ele><time>2026-04-04T09:02:20.154Z</time></trkpt><trkpt lat="46.0070818" lon="12.4320759"><ele>876.0</ele><time>2026-04-04T09:02:21.153Z</time></trkpt><trkpt lat="46.0070124" lon="12.4319845"><ele>876.0</ele><time>2026-04-04T09:02:22.153Z</time></trkpt><trkpt lat="46.0069345" lon="12.4319231"><ele>875.9999999999999</ele><time>2026-04-04T09:02:23.153Z</time></trkpt><trkpt lat="46.0068526" lon="12.4318936"><ele>875.9999999999999</ele><time>2026-04-04T09:02:24.154Z</time></trkpt><trkpt lat="46.0067641" lon="12.4318979"><ele>876.0</ele><time>2026-04-04T09:02:25.153Z</time></trkpt><trkpt lat="46.0066764" lon="12.4319398"><ele>876.0</ele><time>2026-04-04T09:02:26.153Z</time></trkpt><trkpt lat="46.0065915" lon="12.432012"><ele>878.1999999999999</ele><time>2026-04-04T09:02:27.153Z</time></trkpt><trkpt lat="46.0065119" lon="12.4320948"><ele>880.3999999999999</ele><time>2026-04-04T09:02:28.153Z</time></trkpt><trkpt lat="46.0064325" lon="12.4321764"><ele>882.6</ele><time>2026-04-04T09:02:29.153Z</time></trkpt><trkpt lat="46.0063501" lon="12.4322473"><ele>884.8</ele><time>2026-04-04T09:02:30.153Z</time></trkpt><trkpt lat="46.006249" lon="12.4323112"><ele>887.0</ele><time>2026-04-04T09:02:31.153Z</time></trkpt><trkpt lat="46.0061316" lon="12.4323757"><ele>882.0</ele><time>2026-04-04T09:02:32.153Z</time></trkpt><trkpt lat="46.0060062" lon="12.4324337"><ele>877.0</ele><time>2026-04-04T09:02:33.153Z</time></trkpt><trkpt lat="46.0058824" lon="12.4324828"><ele>872.0</ele><time>2026-04-04T09:02:34.153Z</time></trkpt><trkpt lat="46.0057593" lon="12.432528"><ele>867.0</ele><time>2026-04-04T09:02:35.153Z</time></trkpt><trkpt lat="46.005639" lon="12.4325728"><ele>867.0</ele><time>2026-04-04T09:02:36.153Z</time></trkpt><trkpt lat="46.0055232" lon="12.4326256"><ele>867.0</ele><time>2026-04-04T09:02:37.153Z</time></trkpt><trkpt lat="46.0054146" lon="12.4326976"><ele>867.0</ele><time>2026-04-04T09:02:38.153Z</time></trkpt><trkpt lat="46.005321" lon="12.4327898"><ele>867.0</ele><time>2026-04-04T09:02:39.153Z</time></trkpt><trkpt lat="46.0052449" lon="12.4329051"><ele>864.2</ele><time>2026-04-04T09:02:40.153Z</time></trkpt><trkpt lat="46.0051822" lon="12.4330349"><ele>861.4000000000001</ele><time>2026-04-04T09:02:41.153Z</time></trkpt><trkpt lat="46.0051279" lon="12.4331694"><ele>858.5999999999999</ele><time>2026-04-04T09:02:42.154Z</time></trkpt><trkpt lat="46.0050836" lon="12.433298"><ele>855.8</ele><time>2026-04-04T09:02:43.153Z</time></trkpt><trkpt lat="46.0050503" lon="12.4334259"><ele>853.0</ele><time>2026-04-04T09:02:44.153Z</time></trkpt><trkpt lat="46.005036" lon="12.4335535"><ele>853.0</ele><time>2026-04-04T09:02:45.154Z</time></trkpt><trkpt lat="46.0050448" lon="12.433671"><ele>853.0</ele><time>2026-04-04T09:02:46.153Z</time></trkpt><trkpt lat="46.0050785" lon="12.4337755"><ele>853.0</ele><time>2026-04-04T09:02:47.154Z</time></trkpt><trkpt lat="46.005117" lon="12.4338634"><ele>853.0</ele><time>2026-04-04T09:02:48.153Z</time></trkpt><trkpt lat="46.00517" lon="12.4340013"><ele>853.0</ele><time>2026-04-04T09:02:50.154Z</time></trkpt><trkpt lat="46.005114" lon="12.4341795"><ele>851.5999999999999</ele><time>2026-04-04T09:02:52.153Z</time></trkpt><trkpt lat="46.0050615" lon="12.434291"><ele>850.1999999999999</ele><time>2026-04-04T09:02:53.155Z</time></trkpt><trkpt lat="46.0050087" lon="12.434405"><ele>848.8</ele><time>2026-04-04T09:02:54.153Z</time></trkpt><trkpt lat="46.0049187" lon="12.4345281"><ele>847.4</ele><time>2026-04-04T09:02:55.153Z</time></trkpt><trkpt lat="46.0048326" lon="12.4346424"><ele>846.0</ele><time>2026-04-04T09:02:56.153Z</time></trkpt><trkpt lat="46.00475" lon="12.4347487"><ele>845.4</ele><time>2026-04-04T09:02:57.153Z</time></trkpt><trkpt lat="46.0046672" lon="12.4348562"><ele>844.8</ele><time>2026-04-04T09:02:58.153Z</time></trkpt><trkpt lat="46.0045842" lon="12.4349488"><ele>844.1999999999999</ele><time>2026-04-04T09:02:59.153Z</time></trkpt><trkpt lat="46.0045053" lon="12.4350332"><ele>843.5999999999999</ele><time>2026-04-04T09:03:00.153Z</time></trkpt><trkpt lat="46.0044269" lon="12.4351132"><ele>843.0</ele><time>2026-04-04T09:03:01.154Z</time></trkpt><trkpt lat="46.0043493" lon="12.4351847"><ele>843.0</ele><time>2026-04-04T09:03:02.153Z</time></trkpt><trkpt lat="46.0042711" lon="12.4352531"><ele>843.0</ele><time>2026-04-04T09:03:03.153Z</time></trkpt><trkpt lat="46.0041923" lon="12.4353167"><ele>843.0</ele><time>2026-04-04T09:03:04.155Z</time></trkpt><trkpt lat="46.0041185" lon="12.4353823"><ele>843.0</ele><time>2026-04-04T09:03:05.154Z</time></trkpt><trkpt lat="46.0040418" lon="12.4354486"><ele>843.0</ele><time>2026-04-04T09:03:06.154Z</time></trkpt><trkpt lat="46.0039574" lon="12.4355131"><ele>835.0</ele><time>2026-04-04T09:03:07.153Z</time></trkpt><trkpt lat="46.0038577" lon="12.4355723"><ele>827.0</ele><time>2026-04-04T09:03:08.153Z</time></trkpt><trkpt lat="46.0037457" lon="12.435612"><ele>819.0</ele><time>2026-04-04T09:03:09.155Z</time></trkpt><trkpt lat="46.0036275" lon="12.4356319"><ele>811.0</ele><time>2026-04-04T09:03:10.153Z</time></trkpt><trkpt lat="46.0035104" lon="12.4356359"><ele>811.0</ele><time>2026-04-04T09:03:11.153Z</time></trkpt><trkpt lat="46.003402" lon="12.4356281"><ele>811.0</ele><time>2026-04-04T09:03:12.153Z</time></trkpt><trkpt lat="46.0032978" lon="12.4356122"><ele>811.0</ele><time>2026-04-04T09:03:13.153Z</time></trkpt><trkpt lat="46.0031992" lon="12.4355819"><ele>811.0</ele><time>2026-04-04T09:03:14.153Z</time></trkpt><trkpt lat="46.003108" lon="12.4355268"><ele>811.0</ele><time>2026-04-04T09:03:15.153Z</time></trkpt><trkpt lat="46.0030245" lon="12.4354313"><ele>810.4</ele><time>2026-04-04T09:03:16.153Z</time></trkpt><trkpt lat="46.002948" lon="12.435324"><ele>809.8</ele><time>2026-04-04T09:03:17.153Z</time></trkpt><trkpt lat="46.0028557" lon="12.4352408"><ele>809.1999999999999</ele><time>2026-04-04T09:03:18.153Z</time></trkpt><trkpt lat="46.0027562" lon="12.4351787"><ele>808.5999999999999</ele><time>2026-04-04T09:03:19.154Z</time></trkpt><trkpt lat="46.002675" lon="12.4350822"><ele>808.0</ele><time>2026-04-04T09:03:20.153Z</time></trkpt><trkpt lat="46.002603" lon="12.4349634"><ele>808.0</ele><time>2026-04-04T09:03:21.153Z</time></trkpt><trkpt lat="46.0025384" lon="12.4348525"><ele>808.0</ele><time>2026-04-04T09:03:22.154Z</time></trkpt><trkpt lat="46.002463" lon="12.4347585"><ele>808.0</ele><time>2026-04-04T09:03:23.153Z</time></trkpt><trkpt lat="46.0023782" lon="12.4346961"><ele>808.0</ele><time>2026-04-04T09:03:24.153Z</time></trkpt><trkpt lat="46.0022944" lon="12.4346836"><ele>808.0</ele><time>2026-04-04T09:03:25.154Z</time></trkpt><trkpt lat="46.0022099" lon="12.4346842"><ele>808.3333333333333</ele><time>2026-04-04T09:03:26.153Z</time></trkpt><trkpt lat="46.0021262" lon="12.4346898"><ele>808.6666666666666</ele><time>2026-04-04T09:03:27.154Z</time></trkpt><trkpt lat="46.0020406" lon="12.4346895"><ele>809.0</ele><time>2026-04-04T09:03:28.153Z</time></trkpt><trkpt lat="46.0019544" lon="12.4346743"><ele>809.3333333333333</ele><time>2026-04-04T09:03:29.153Z</time></trkpt><trkpt lat="46.0018694" lon="12.4346501"><ele>809.6666666666666</ele><time>2026-04-04T09:03:30.154Z</time></trkpt><trkpt lat="46.0017826" lon="12.4346189"><ele>810.0</ele><time>2026-04-04T09:03:31.154Z</time></trkpt><trkpt lat="46.0017015" lon="12.4345712"><ele>805.1666666666666</ele><time>2026-04-04T09:03:32.153Z</time></trkpt><trkpt lat="46.0016231" lon="12.4345144"><ele>800.3333333333333</ele><time>2026-04-04T09:03:33.154Z</time></trkpt><trkpt lat="46.0015401" lon="12.4344499"><ele>795.5</ele><time>2026-04-04T09:03:34.154Z</time></trkpt><trkpt lat="46.0014569" lon="12.4343938"><ele>790.6666666666666</ele><time>2026-04-04T09:03:35.154Z</time></trkpt><trkpt lat="46.001376" lon="12.4343492"><ele>785.8333333333333</ele><time>2026-04-04T09:03:36.153Z</time></trkpt><trkpt lat="46.0012944" lon="12.4343113"><ele>781.0</ele><time>2026-04-04T09:03:37.154Z</time></trkpt><trkpt lat="46.0012156" lon="12.4342785"><ele>780.9999999999999</ele><time>2026-04-04T09:03:38.154Z</time></trkpt><trkpt lat="46.0011402" lon="12.4342435"><ele>781.0</ele><time>2026-04-04T09:03:39.153Z</time></trkpt><trkpt lat="46.0010704" lon="12.4341995"><ele>781.0</ele><time>2026-04-04T09:03:40.154Z</time></trkpt><trkpt lat="46.0010173" lon="12.4341338"><ele>781.0</ele><time>2026-04-04T09:03:41.153Z</time></trkpt><trkpt lat="46.0009894" lon="12.434037"><ele>780.9999999999999</ele><time>2026-04-04T09:03:42.154Z</time></trkpt><trkpt lat="46.0009829" lon="12.4339225"><ele>781.0</ele><time>2026-04-04T09:03:43.153Z</time></trkpt><trkpt lat="46.0009834" lon="12.4338028"><ele>781.6666666666666</ele><time>2026-04-04T09:03:44.153Z</time></trkpt><trkpt lat="46.0009791" lon="12.4336763"><ele>782.3333333333333</ele><time>2026-04-04T09:03:45.154Z</time></trkpt><trkpt lat="46.0009694" lon="12.4335535"><ele>783.0</ele><time>2026-04-04T09:03:46.153Z</time></trkpt><trkpt lat="46.000942" lon="12.4334274"><ele>783.6666666666667</ele><time>2026-04-04T09:03:47.155Z</time></trkpt><trkpt lat="46.0008978" lon="12.4333153"><ele>784.3333333333334</ele><time>2026-04-04T09:03:48.153Z</time></trkpt><trkpt lat="46.0008398" lon="12.433217"><ele>785.0</ele><time>2026-04-04T09:03:49.154Z</time></trkpt><trkpt lat="46.0007789" lon="12.4331264"><ele>779.6666666666667</ele><time>2026-04-04T09:03:50.153Z</time></trkpt><trkpt lat="46.0007203" lon="12.4330411"><ele>774.3333333333334</ele><time>2026-04-04T09:03:51.153Z</time></trkpt><trkpt lat="46.0006777" lon="12.4329411"><ele>769.0</ele><time>2026-04-04T09:03:52.154Z</time></trkpt><trkpt lat="46.0006606" lon="12.4328233"><ele>763.6666666666667</ele><time>2026-04-04T09:03:53.153Z</time></trkpt><trkpt lat="46.0006644" lon="12.43269"><ele>758.3333333333334</ele><time>2026-04-04T09:03:54.154Z</time></trkpt><trkpt lat="46.0006681" lon="12.4325452"><ele>753.0</ele><time>2026-04-04T09:03:55.153Z</time></trkpt><trkpt lat="46.0006484" lon="12.4323916"><ele>753.2</ele><time>2026-04-04T09:03:56.154Z</time></trkpt><trkpt lat="46.0006376" lon="12.4322473"><ele>753.4</ele><time>2026-04-04T09:03:57.153Z</time></trkpt><trkpt lat="46.0006411" lon="12.4321032"><ele>753.6</ele><time>2026-04-04T09:03:58.154Z</time></trkpt><trkpt lat="46.0006441" lon="12.4319624"><ele>753.8000000000001</ele><time>2026-04-04T09:03:59.153Z</time></trkpt><trkpt lat="46.0006493" lon="12.4318293"><ele>754.0</ele><time>2026-04-04T09:04:00.155Z</time></trkpt><trkpt lat="46.0006553" lon="12.4317029"><ele>754.0</ele><time>2026-04-04T09:04:01.153Z</time></trkpt><trkpt lat="46.0006535" lon="12.4315776"><ele>754.0</ele><time>2026-04-04T09:04:02.155Z</time></trkpt><trkpt lat="46.0006321" lon="12.4314581"><ele>754.0</ele><time>2026-04-04T09:04:03.153Z</time></trkpt><trkpt lat="46.0005933" lon="12.4313485"><ele>754.0</ele><time>2026-04-04T09:04:04.153Z</time></trkpt><trkpt lat="46.0005321" lon="12.4312553"><ele>754.0</ele><time>2026-04-04T09:04:05.154Z</time></trkpt><trkpt lat="46.0004592" lon="12.4311833"><ele>754.0</ele><time>2026-04-04T09:04:06.154Z</time></trkpt><trkpt lat="46.0003833" lon="12.431118"><ele>756.4000000000001</ele><time>2026-04-04T09:04:07.154Z</time></trkpt><trkpt lat="46.0002991" lon="12.4310603"><ele>758.8</ele><time>2026-04-04T09:04:08.153Z</time></trkpt><trkpt lat="46.0002115" lon="12.4310115"><ele>761.2</ele><time>2026-04-04T09:04:09.153Z</time></trkpt><trkpt lat="46.000121" lon="12.4309843"><ele>763.5999999999999</ele><time>2026-04-04T09:04:10.153Z</time></trkpt><trkpt lat="46.0000331" lon="12.4309694"><ele>766.0</ele><time>2026-04-04T09:04:11.153Z</time></trkpt><trkpt lat="45.9999457" lon="12.4309572"><ele>766.0</ele><time>2026-04-04T09:04:12.154Z</time></trkpt><trkpt lat="45.9998641" lon="12.4309501"><ele>766.0</ele><time>2026-04-04T09:04:13.153Z</time></trkpt><trkpt lat="45.9997902" lon="12.4309485"><ele>766.0</ele><time>2026-04-04T09:04:14.154Z</time></trkpt><trkpt lat="45.9997268" lon="12.4309424"><ele>766.0</ele><time>2026-04-04T09:04:15.154Z</time></trkpt><trkpt lat="45.9996201" lon="12.4308927"><ele>766.0</ele><time>2026-04-04T09:04:17.153Z</time></trkpt><trkpt lat="45.99958" lon="12.4307435"><ele>766.0</ele><time>2026-04-04T09:04:19.154Z</time></trkpt><trkpt lat="45.9995957" lon="12.4306438"><ele>766.0</ele><time>2026-04-04T09:04:20.153Z</time></trkpt><trkpt lat="45.9996235" lon="12.4305358"><ele>766.0</ele><time>2026-04-04T09:04:21.153Z</time></trkpt><trkpt lat="45.9996555" lon="12.4304196"><ele>766.0</ele><time>2026-04-04T09:04:22.154Z</time></trkpt><trkpt lat="45.9996842" lon="12.4303002"><ele>766.0</ele><time>2026-04-04T09:04:23.153Z</time></trkpt><trkpt lat="45.9997133" lon="12.4301905"><ele>766.0</ele><time>2026-04-04T09:04:24.153Z</time></trkpt><trkpt lat="45.9997536" lon="12.4300887"><ele>766.0</ele><time>2026-04-04T09:04:25.153Z</time></trkpt><trkpt lat="45.9998034" lon="12.4299923"><ele>765.5</ele><time>2026-04-04T09:04:26.153Z</time></trkpt><trkpt lat="45.9998617" lon="12.4299187"><ele>765.0</ele><time>2026-04-04T09:04:27.154Z</time></trkpt><trkpt lat="45.9999236" lon="12.4298663"><ele>764.5</ele><time>2026-04-04T09:04:28.153Z</time></trkpt><trkpt lat="45.9999857" lon="12.4298238"><ele>764.0</ele><time>2026-04-04T09:04:29.154Z</time></trkpt><trkpt lat="46.0000421" lon="12.4297745"><ele>763.5</ele><time>2026-04-04T09:04:30.155Z</time></trkpt><trkpt lat="46.0000762" lon="12.4296981"><ele>763.0</ele><time>2026-04-04T09:04:31.153Z</time></trkpt><trkpt lat="46.0000823" lon="12.4295399"><ele>763.0</ele><time>2026-04-04T09:04:33.154Z</time></trkpt><trkpt lat="45.999983" lon="12.4294375"><ele>763.0</ele><time>2026-04-04T09:04:35.153Z</time></trkpt><trkpt lat="45.9999104" lon="12.4294545"><ele>763.0</ele><time>2026-04-04T09:04:36.154Z</time></trkpt><trkpt lat="45.9998381" lon="12.4294858"><ele>763.0</ele><time>2026-04-04T09:04:37.153Z</time></trkpt><trkpt lat="45.9997808" lon="12.4295356"><ele>763.0</ele><time>2026-04-04T09:04:38.154Z</time></trkpt><trkpt lat="45.9997081" lon="12.4296886"><ele>763.0</ele><time>2026-04-04T09:04:39.153Z</time></trkpt><trkpt lat="45.9996324" lon="12.4298123"><ele>763.0</ele><time>2026-04-04T09:04:40.153Z</time></trkpt><trkpt lat="45.9995567" lon="12.4299419"><ele>763.0</ele><time>2026-04-04T09:04:41.153Z</time></trkpt><trkpt lat="45.9994845" lon="12.4300658"><ele>763.0</ele><time>2026-04-04T09:04:42.153Z</time></trkpt><trkpt lat="45.9994163" lon="12.4301899"><ele>763.0</ele><time>2026-04-04T09:04:43.154Z</time></trkpt><trkpt lat="45.9993503" lon="12.4303062"><ele>763.0</ele><time>2026-04-04T09:04:44.153Z</time></trkpt><trkpt lat="45.9992839" lon="12.4304199"><ele>763.0</ele><time>2026-04-04T09:04:45.153Z</time></trkpt><trkpt lat="45.9992214" lon="12.4305327"><ele>763.0</ele><time>2026-04-04T09:04:46.153Z</time></trkpt><trkpt lat="45.9991641" lon="12.4306492"><ele>763.0</ele><time>2026-04-04T09:04:47.153Z</time></trkpt><trkpt lat="45.9991113" lon="12.4307503"><ele>759.8571428571429</ele><time>2026-04-04T09:04:48.155Z</time></trkpt><trkpt lat="45.9990676" lon="12.4308388"><ele>756.7142857142858</ele><time>2026-04-04T09:04:49.154Z</time></trkpt><trkpt lat="45.9990292" lon="12.430916"><ele>753.5714285714286</ele><time>2026-04-04T09:04:50.154Z</time></trkpt><trkpt lat="45.9990126" lon="12.431005"><ele>750.4285714285714</ele><time>2026-04-04T09:04:51.153Z</time></trkpt><trkpt lat="45.9990222" lon="12.431104"><ele>747.2857142857143</ele><time>2026-04-04T09:04:52.153Z</time></trkpt><trkpt lat="45.9990578" lon="12.4311964"><ele>744.1428571428571</ele><time>2026-04-04T09:04:53.153Z</time></trkpt><trkpt lat="45.9991099" lon="12.4312752"><ele>741.0</ele><time>2026-04-04T09:04:54.153Z</time></trkpt><trkpt lat="45.9991672" lon="12.4313442"><ele>743.1666666666666</ele><time>2026-04-04T09:04:55.153Z</time></trkpt><trkpt lat="45.9992281" lon="12.4314111"><ele>745.3333333333334</ele><time>2026-04-04T09:04:56.153Z</time></trkpt><trkpt lat="45.9992912" lon="12.4314822"><ele>747.5</ele><time>2026-04-04T09:04:57.153Z</time></trkpt><trkpt lat="45.9993596" lon="12.4315571"><ele>749.6666666666667</ele><time>2026-04-04T09:04:58.153Z</time></trkpt><trkpt lat="45.9994295" lon="12.4316365"><ele>751.8333333333334</ele><time>2026-04-04T09:04:59.153Z</time></trkpt><trkpt lat="45.9994939" lon="12.4317228"><ele>754.0</ele><time>2026-04-04T09:05:00.153Z</time></trkpt><trkpt lat="45.9995461" lon="12.431822"><ele>754.0</ele><time>2026-04-04T09:05:01.154Z</time></trkpt><trkpt lat="45.9995777" lon="12.4319281"><ele>754.0</ele><time>2026-04-04T09:05:02.154Z</time></trkpt><trkpt lat="45.9995854" lon="12.4320478"><ele>754.0</ele><time>2026-04-04T09:05:03.153Z</time></trkpt><trkpt lat="45.9995735" lon="12.432177"><ele>754.0</ele><time>2026-04-04T09:05:04.154Z</time></trkpt><trkpt lat="45.9995538" lon="12.4323002"><ele>754.0</ele><time>2026-04-04T09:05:05.153Z</time></trkpt><trkpt lat="45.9995307" lon="12.4324106"><ele>754.0</ele><time>2026-04-04T09:05:06.155Z</time></trkpt><trkpt lat="45.9995084" lon="12.4325159"><ele>753.8333333333334</ele><time>2026-04-04T09:05:07.154Z</time></trkpt><trkpt lat="45.9994808" lon="12.4326309"><ele>753.6666666666667</ele><time>2026-04-04T09:05:08.153Z</time></trkpt><trkpt lat="45.9994485" lon="12.4327511"><ele>753.5</ele><time>2026-04-04T09:05:09.154Z</time></trkpt><trkpt lat="45.9994156" lon="12.4328717"><ele>753.3333333333334</ele><time>2026-04-04T09:05:10.153Z</time></trkpt><trkpt lat="45.9993809" lon="12.4329937"><ele>753.1666666666666</ele><time>2026-04-04T09:05:11.153Z</time></trkpt><trkpt lat="45.9993423" lon="12.4331142"><ele>753.0</ele><time>2026-04-04T09:05:12.153Z</time></trkpt><trkpt lat="45.9993018" lon="12.4332273"><ele>753.0</ele><time>2026-04-04T09:05:13.154Z</time></trkpt><trkpt lat="45.9992613" lon="12.4333391"><ele>753.0</ele><time>2026-04-04T09:05:14.153Z</time></trkpt><trkpt lat="45.9992152" lon="12.4334369"><ele>753.0</ele><time>2026-04-04T09:05:15.154Z</time></trkpt><trkpt lat="45.9991406" lon="12.4334918"><ele>753.0</ele><time>2026-04-04T09:05:16.154Z</time></trkpt><trkpt lat="45.9990712" lon="12.433543"><ele>753.0</ele><time>2026-04-04T09:05:17.153Z</time></trkpt><trkpt lat="45.9990012" lon="12.4335825"><ele>753.0</ele><time>2026-04-04T09:05:18.153Z</time></trkpt><trkpt lat="45.9989309" lon="12.4336215"><ele>748.0</ele><time>2026-04-04T09:05:19.154Z</time></trkpt><trkpt lat="45.9988601" lon="12.4336706"><ele>743.0</ele><time>2026-04-04T09:05:20.153Z</time></trkpt><trkpt lat="45.9988015" lon="12.433748"><ele>738.0</ele><time>2026-04-04T09:05:21.154Z</time></trkpt><trkpt lat="45.9987558" lon="12.4338536"><ele>733.0</ele><time>2026-04-04T09:05:22.153Z</time></trkpt><trkpt lat="45.9987211" lon="12.4339702"><ele>728.0</ele><time>2026-04-04T09:05:23.153Z</time></trkpt><trkpt lat="45.9986926" lon="12.4340886"><ele>723.0</ele><time>2026-04-04T09:05:24.154Z</time></trkpt><trkpt lat="45.9986685" lon="12.4341978"><ele>722.8571428571429</ele><time>2026-04-04T09:05:25.154Z</time></trkpt><trkpt lat="45.9986459" lon="12.4342962"><ele>722.7142857142858</ele><time>2026-04-04T09:05:26.153Z</time></trkpt><trkpt lat="45.9986338" lon="12.4343921"><ele>722.5714285714287</ele><time>2026-04-04T09:05:27.154Z</time></trkpt><trkpt lat="45.9986375" lon="12.4344897"><ele>722.4285714285714</ele><time>2026-04-04T09:05:28.153Z</time></trkpt><trkpt lat="45.9986627" lon="12.4345841"><ele>722.2857142857142</ele><time>2026-04-04T09:05:29.154Z</time></trkpt><trkpt lat="45.9987092" lon="12.4346657"><ele>722.1428571428572</ele><time>2026-04-04T09:05:30.154Z</time></trkpt><trkpt lat="45.9987672" lon="12.4347408"><ele>722.0</ele><time>2026-04-04T09:05:31.153Z</time></trkpt><trkpt lat="45.9988359" lon="12.4348162"><ele>724.6</ele><time>2026-04-04T09:05:32.153Z</time></trkpt><trkpt lat="45.9989062" lon="12.4348859"><ele>727.2</ele><time>2026-04-04T09:05:33.154Z</time></trkpt><trkpt lat="45.9989834" lon="12.4349495"><ele>729.8</ele><time>2026-04-04T09:05:34.154Z</time></trkpt><trkpt lat="45.9990658" lon="12.4350082"><ele>732.4</ele><time>2026-04-04T09:05:35.154Z</time></trkpt><trkpt lat="45.9991502" lon="12.4350665"><ele>735.0</ele><time>2026-04-04T09:05:36.154Z</time></trkpt><trkpt lat="45.9992289" lon="12.4351411"><ele>735.0</ele><time>2026-04-04T09:05:37.154Z</time></trkpt><trkpt lat="45.9992946" lon="12.4352368"><ele>735.0</ele><time>2026-04-04T09:05:38.154Z</time></trkpt><trkpt lat="45.9993451" lon="12.4353429"><ele>735.0</ele><time>2026-04-04T09:05:39.154Z</time></trkpt><trkpt lat="45.99938" lon="12.4354512"><ele>735.0</ele><time>2026-04-04T09:05:40.153Z</time></trkpt><trkpt lat="45.999409" lon="12.4355648"><ele>735.0</ele><time>2026-04-04T09:05:41.153Z</time></trkpt><trkpt lat="45.9994322" lon="12.4356821"><ele>735.0</ele><time>2026-04-04T09:05:42.153Z</time></trkpt><trkpt lat="45.9994518" lon="12.4357956"><ele>731.1666666666666</ele><time>2026-04-04T09:05:43.153Z</time></trkpt><trkpt lat="45.9994852" lon="12.4359008"><ele>727.3333333333334</ele><time>2026-04-04T09:05:44.153Z</time></trkpt><trkpt lat="45.9995383" lon="12.4359962"><ele>723.5</ele><time>2026-04-04T09:05:45.154Z</time></trkpt><trkpt lat="45.9996038" lon="12.4360784"><ele>719.6666666666667</ele><time>2026-04-04T09:05:46.153Z</time></trkpt><trkpt lat="45.9996669" lon="12.4361533"><ele>715.8333333333334</ele><time>2026-04-04T09:05:47.154Z</time></trkpt><trkpt lat="45.9997337" lon="12.4362424"><ele>712.0</ele><time>2026-04-04T09:05:48.154Z</time></trkpt><trkpt lat="45.9998187" lon="12.4363432"><ele>703.3333333333334</ele><time>2026-04-04T09:05:49.153Z</time></trkpt><trkpt lat="45.999944" lon="12.436462"><ele>694.6666666666666</ele><time>2026-04-04T09:05:50.153Z</time></trkpt><trkpt lat="46.0000978" lon="12.436591"><ele>686.0</ele><time>2026-04-04T09:05:51.153Z</time></trkpt><trkpt lat="46.0002416" lon="12.4367277"><ele>686.0</ele><time>2026-04-04T09:05:52.153Z</time></trkpt><trkpt lat="46.0003794" lon="12.4368642"><ele>686.0</ele><time>2026-04-04T09:05:53.153Z</time></trkpt><trkpt lat="46.0004946" lon="12.4369946"><ele>686.0</ele><time>2026-04-04T09:05:54.155Z</time></trkpt><trkpt lat="46.0005725" lon="12.4371505"><ele>686.0</ele><time>2026-04-04T09:05:55.153Z</time></trkpt><trkpt lat="46.0006201" lon="12.4373163"><ele>687.0</ele><time>2026-04-04T09:05:56.153Z</time></trkpt><trkpt lat="46.0006619" lon="12.4374433"><ele>688.0</ele><time>2026-04-04T09:05:57.153Z</time></trkpt><trkpt lat="46.000733" lon="12.4375314"><ele>689.0</ele><time>2026-04-04T09:05:58.153Z</time></trkpt><trkpt lat="46.0008328" lon="12.4375881"><ele>690.0</ele><time>2026-04-04T09:05:59.153Z</time></trkpt><trkpt lat="46.0009608" lon="12.4376144"><ele>691.0</ele><time>2026-04-04T09:06:00.153Z</time></trkpt><trkpt lat="46.0011067" lon="12.4376373"><ele>691.0</ele><time>2026-04-04T09:06:01.153Z</time></trkpt><trkpt lat="46.0012557" lon="12.4377062"><ele>691.0</ele><time>2026-04-04T09:06:02.155Z</time></trkpt><trkpt lat="46.0014027" lon="12.4378126"><ele>691.0</ele><time>2026-04-04T09:06:03.153Z</time></trkpt><trkpt lat="46.0015442" lon="12.4379413"><ele>685.6666666666667</ele><time>2026-04-04T09:06:04.154Z</time></trkpt><trkpt lat="46.001679" lon="12.438072"><ele>680.3333333333334</ele><time>2026-04-04T09:06:05.154Z</time></trkpt><trkpt lat="46.0018111" lon="12.4381974"><ele>675.0</ele><time>2026-04-04T09:06:06.153Z</time></trkpt><trkpt lat="46.0019455" lon="12.4383088"><ele>675.0</ele><time>2026-04-04T09:06:07.154Z</time></trkpt><trkpt lat="46.0020886" lon="12.4383974"><ele>675.0</ele><time>2026-04-04T09:06:08.153Z</time></trkpt><trkpt lat="46.0022356" lon="12.4384739"><ele>675.0</ele><time>2026-04-04T09:06:09.154Z</time></trkpt><trkpt lat="46.0023791" lon="12.4385584"><ele>678.3333333333334</ele><time>2026-04-04T09:06:10.153Z</time></trkpt><trkpt lat="46.0025226" lon="12.4386518"><ele>681.6666666666667</ele><time>2026-04-04T09:06:11.154Z</time></trkpt><trkpt lat="46.0026653" lon="12.4387467"><ele>685.0</ele><time>2026-04-04T09:06:12.154Z</time></trkpt><trkpt lat="46.0028051" lon="12.4388457"><ele>678.25</ele><time>2026-04-04T09:06:13.154Z</time></trkpt><trkpt lat="46.0029359" lon="12.4389406"><ele>671.5</ele><time>2026-04-04T09:06:14.153Z</time></trkpt><trkpt lat="46.0030519" lon="12.4390305"><ele>664.75</ele><time>2026-04-04T09:06:15.153Z</time></trkpt><trkpt lat="46.0031592" lon="12.4391249"><ele>658.0</ele><time>2026-04-04T09:06:16.153Z</time></trkpt><trkpt lat="46.0032532" lon="12.4392435"><ele>658.0</ele><time>2026-04-04T09:06:17.154Z</time></trkpt><trkpt lat="46.0033208" lon="12.4393908"><ele>658.0</ele><time>2026-04-04T09:06:18.153Z</time></trkpt><trkpt lat="46.0033612" lon="12.4395382"><ele>658.0</ele><time>2026-04-04T09:06:19.153Z</time></trkpt><trkpt lat="46.0034011" lon="12.4396567"><ele>658.0</ele><time>2026-04-04T09:06:20.153Z</time></trkpt><trkpt lat="46.003464" lon="12.4397432"><ele>658.0</ele><time>2026-04-04T09:06:21.154Z</time></trkpt><trkpt lat="46.0035368" lon="12.4397933"><ele>656.0</ele><time>2026-04-04T09:06:22.153Z</time></trkpt><trkpt lat="46.0036052" lon="12.4398244"><ele>654.0</ele><time>2026-04-04T09:06:23.153Z</time></trkpt><trkpt lat="46.0036858" lon="12.4399273"><ele>652.0</ele><time>2026-04-04T09:06:25.154Z</time></trkpt><trkpt lat="46.0036413" lon="12.4400486"><ele>650.0</ele><time>2026-04-04T09:06:27.153Z</time></trkpt><trkpt lat="46.0035103" lon="12.4400223"><ele>648.0</ele><time>2026-04-04T09:06:29.154Z</time></trkpt><trkpt lat="46.0034172" lon="12.4399723"><ele>644.5</ele><time>2026-04-04T09:06:30.154Z</time></trkpt><trkpt lat="46.0033101" lon="12.4398977"><ele>641.0</ele><time>2026-04-04T09:06:31.154Z</time></trkpt><trkpt lat="46.0032079" lon="12.43979"><ele>637.5</ele><time>2026-04-04T09:06:32.153Z</time></trkpt><trkpt lat="46.003099" lon="12.439697"><ele>634.0</ele><time>2026-04-04T09:06:33.154Z</time></trkpt><trkpt lat="46.0029715" lon="12.4396475"><ele>638.25</ele><time>2026-04-04T09:06:34.153Z</time></trkpt><trkpt lat="46.0028395" lon="12.4396175"><ele>642.5</ele><time>2026-04-04T09:06:35.153Z</time></trkpt><trkpt lat="46.0027111" lon="12.4395984"><ele>646.75</ele><time>2026-04-04T09:06:36.154Z</time></trkpt><trkpt lat="46.0025833" lon="12.4395856"><ele>651.0</ele><time>2026-04-04T09:06:37.153Z</time></trkpt><trkpt lat="46.0024525" lon="12.4395863"><ele>651.0</ele><time>2026-04-04T09:06:38.153Z</time></trkpt><trkpt lat="46.0023244" lon="12.4396076"><ele>651.0</ele><time>2026-04-04T09:06:39.153Z</time></trkpt><trkpt lat="46.0021977" lon="12.4396482"><ele>651.0</ele><time>2026-04-04T09:06:40.153Z</time></trkpt><trkpt lat="46.0020729" lon="12.4396916"><ele>651.0</ele><time>2026-04-04T09:06:41.153Z</time></trkpt><trkpt lat="46.0019473" lon="12.4397235"><ele>647.8</ele><time>2026-04-04T09:06:42.153Z</time></trkpt><trkpt lat="46.0018294" lon="12.4397497"><ele>644.5999999999999</ele><time>2026-04-04T09:06:43.153Z</time></trkpt><trkpt lat="46.0017206" lon="12.439766"><ele>641.4</ele><time>2026-04-04T09:06:44.153Z</time></trkpt><trkpt lat="46.0016176" lon="12.4397641"><ele>638.2</ele><time>2026-04-04T09:06:45.155Z</time></trkpt><trkpt lat="46.0015243" lon="12.4397213"><ele>635.0</ele><time>2026-04-04T09:06:46.154Z</time></trkpt><trkpt lat="46.0014324" lon="12.4396295"><ele>635.0</ele><time>2026-04-04T09:06:47.154Z</time></trkpt><trkpt lat="46.0013416" lon="12.4395061"><ele>635.0</ele><time>2026-04-04T09:06:48.153Z</time></trkpt><trkpt lat="46.0012405" lon="12.43941"><ele>635.0</ele><time>2026-04-04T09:06:49.153Z</time></trkpt><trkpt lat="46.0011354" lon="12.4393512"><ele>635.0</ele><time>2026-04-04T09:06:50.153Z</time></trkpt><trkpt lat="46.0010218" lon="12.4393228"><ele>635.0</ele><time>2026-04-04T09:06:51.153Z</time></trkpt><trkpt lat="46.0008974" lon="12.439315"><ele>635.0</ele><time>2026-04-04T09:06:52.153Z</time></trkpt><trkpt lat="46.000771" lon="12.4393187"><ele>635.0</ele><time>2026-04-04T09:06:53.153Z</time></trkpt><trkpt lat="46.000643" lon="12.4393331"><ele>635.0</ele><time>2026-04-04T09:06:54.154Z</time></trkpt><trkpt lat="46.0005248" lon="12.4393498"><ele>631.0</ele><time>2026-04-04T09:06:55.153Z</time></trkpt><trkpt lat="46.0004058" lon="12.439366"><ele>627.0</ele><time>2026-04-04T09:06:56.153Z</time></trkpt><trkpt lat="46.0002892" lon="12.4393708"><ele>623.0</ele><time>2026-04-04T09:06:57.153Z</time></trkpt><trkpt lat="46.0001737" lon="12.4393535"><ele>619.0</ele><time>2026-04-04T09:06:58.153Z</time></trkpt><trkpt lat="46.0000622" lon="12.4393209"><ele>619.0</ele><time>2026-04-04T09:06:59.154Z</time></trkpt><trkpt lat="45.9999553" lon="12.4392636"><ele>619.0</ele><time>2026-04-04T09:07:00.154Z</time></trkpt><trkpt lat="45.9998512" lon="12.4391809"><ele>619.0</ele><time>2026-04-04T09:07:01.153Z</time></trkpt><trkpt lat="45.9997417" lon="12.4390933"><ele>619.0</ele><time>2026-04-04T09:07:02.153Z</time></trkpt><trkpt lat="45.9996325" lon="12.439005"><ele>619.0</ele><time>2026-04-04T09:07:03.153Z</time></trkpt><trkpt lat="45.9995265" lon="12.4389293"><ele>619.0</ele><time>2026-04-04T09:07:04.153Z</time></trkpt><trkpt lat="45.9994309" lon="12.4388598"><ele>619.0</ele><time>2026-04-04T09:07:05.154Z</time></trkpt><trkpt lat="45.9993443" lon="12.438798"><ele>619.0</ele><time>2026-04-04T09:07:06.154Z</time></trkpt><trkpt lat="45.9992606" lon="12.4387076"><ele>619.0</ele><time>2026-04-04T09:07:07.154Z</time></trkpt><trkpt lat="45.999185" lon="12.4385794"><ele>617.0</ele><time>2026-04-04T09:07:08.153Z</time></trkpt><trkpt lat="45.9991211" lon="12.4384396"><ele>615.0</ele><time>2026-04-04T09:07:09.153Z</time></trkpt><trkpt lat="45.9990401" lon="12.4383203"><ele>613.0</ele><time>2026-04-04T09:07:10.154Z</time></trkpt><trkpt lat="45.9989482" lon="12.4382165"><ele>611.0</ele><time>2026-04-04T09:07:11.153Z</time></trkpt><trkpt lat="45.9988591" lon="12.4381283"><ele>611.0</ele><time>2026-04-04T09:07:12.153Z</time></trkpt><trkpt lat="45.9987697" lon="12.4380635"><ele>611.0</ele><time>2026-04-04T09:07:13.153Z</time></trkpt><trkpt lat="45.9986792" lon="12.4380207"><ele>611.0</ele><time>2026-04-04T09:07:14.154Z</time></trkpt><trkpt lat="45.9985918" lon="12.4380197"><ele>611.0</ele><time>2026-04-04T09:07:15.154Z</time></trkpt><trkpt lat="45.9984982" lon="12.4380593"><ele>611.0</ele><time>2026-04-04T09:07:16.154Z</time></trkpt><trkpt lat="45.9984005" lon="12.438121"><ele>606.75</ele><time>2026-04-04T09:07:17.154Z</time></trkpt><trkpt lat="45.9982984" lon="12.4381975"><ele>602.5</ele><time>2026-04-04T09:07:18.154Z</time></trkpt><trkpt lat="45.9981976" lon="12.4382886"><ele>598.25</ele><time>2026-04-04T09:07:19.153Z</time></trkpt><trkpt lat="45.9981065" lon="12.4383876"><ele>594.0</ele><time>2026-04-04T09:07:20.153Z</time></trkpt><trkpt lat="45.9980093" lon="12.4384769"><ele>594.0</ele><time>2026-04-04T09:07:21.154Z</time></trkpt><trkpt lat="45.9979003" lon="12.4385454"><ele>594.0</ele><time>2026-04-04T09:07:22.154Z</time></trkpt><trkpt lat="45.9977829" lon="12.4385832"><ele>594.0</ele><time>2026-04-04T09:07:23.153Z</time></trkpt><trkpt lat="45.997667" lon="12.4386025"><ele>594.0</ele><time>2026-04-04T09:07:24.154Z</time></trkpt><trkpt lat="45.9975452" lon="12.4386122"><ele>592.8</ele><time>2026-04-04T09:07:25.153Z</time></trkpt><trkpt lat="45.9974239" lon="12.438603"><ele>591.5999999999999</ele><time>2026-04-04T09:07:26.153Z</time></trkpt><trkpt lat="45.9973164" lon="12.4385788"><ele>590.4</ele><time>2026-04-04T09:07:27.155Z</time></trkpt><trkpt lat="45.9972355" lon="12.4385407"><ele>589.1999999999999</ele><time>2026-04-04T09:07:28.153Z</time></trkpt><trkpt lat="45.9971706" lon="12.4384798"><ele>588.0</ele><time>2026-04-04T09:07:29.153Z</time></trkpt><trkpt lat="45.9971295" lon="12.4383847"><ele>588.0</ele><time>2026-04-04T09:07:30.153Z</time></trkpt><trkpt lat="45.9971006" lon="12.4382666"><ele>588.0</ele><time>2026-04-04T09:07:31.153Z</time></trkpt><trkpt lat="45.99705" lon="12.4381413"><ele>588.0</ele><time>2026-04-04T09:07:32.153Z</time></trkpt><trkpt lat="45.9969768" lon="12.4380325"><ele>588.0</ele><time>2026-04-04T09:07:33.154Z</time></trkpt><trkpt lat="45.9968817" lon="12.4379529"><ele>588.0</ele><time>2026-04-04T09:07:34.153Z</time></trkpt><trkpt lat="45.9967767" lon="12.4379033"><ele>586.8</ele><time>2026-04-04T09:07:35.153Z</time></trkpt><trkpt lat="45.9966746" lon="12.4378409"><ele>585.5999999999999</ele><time>2026-04-04T09:07:36.153Z</time></trkpt><trkpt lat="45.9965828" lon="12.4377703"><ele>584.4000000000001</ele><time>2026-04-04T09:07:37.154Z</time></trkpt><trkpt lat="45.9964967" lon="12.4376977"><ele>583.2</ele><time>2026-04-04T09:07:38.153Z</time></trkpt><trkpt lat="45.996408" lon="12.4376477"><ele>582.0</ele><time>2026-04-04T09:07:39.153Z</time></trkpt><trkpt lat="45.9963118" lon="12.4376462"><ele>582.0</ele><time>2026-04-04T09:07:40.153Z</time></trkpt><trkpt lat="45.9962156" lon="12.4376466"><ele>582.0</ele><time>2026-04-04T09:07:41.155Z</time></trkpt><trkpt lat="45.9961215" lon="12.4376454"><ele>582.0</ele><time>2026-04-04T09:07:42.153Z</time></trkpt><trkpt lat="45.9960282" lon="12.4376486"><ele>582.0</ele><time>2026-04-04T09:07:43.153Z</time></trkpt><trkpt lat="45.9959372" lon="12.4376297"><ele>582.0</ele><time>2026-04-04T09:07:44.155Z</time></trkpt><trkpt lat="45.9958559" lon="12.4375819"><ele>580.0</ele><time>2026-04-04T09:07:45.153Z</time></trkpt><trkpt lat="45.9957917" lon="12.4374996"><ele>578.0</ele><time>2026-04-04T09:07:46.154Z</time></trkpt><trkpt lat="45.9957291" lon="12.437403"><ele>576.0</ele><time>2026-04-04T09:07:47.154Z</time></trkpt><trkpt lat="45.9956625" lon="12.4372984"><ele>574.0</ele><time>2026-04-04T09:07:48.153Z</time></trkpt><trkpt lat="45.9955855" lon="12.437196"><ele>572.0</ele><time>2026-04-04T09:07:49.153Z</time></trkpt><trkpt lat="45.9955064" lon="12.4371159"><ele>572.0</ele><time>2026-04-04T09:07:50.153Z</time></trkpt><trkpt lat="45.9954424" lon="12.4370242"><ele>572.0</ele><time>2026-04-04T09:07:51.154Z</time></trkpt><trkpt lat="45.9954048" lon="12.4369095"><ele>572.0</ele><time>2026-04-04T09:07:52.154Z</time></trkpt><trkpt lat="45.9953835" lon="12.4367941"><ele>572.0</ele><time>2026-04-04T09:07:53.154Z</time></trkpt><trkpt lat="45.9953542" lon="12.436681"><ele>572.0</ele><time>2026-04-04T09:07:54.153Z</time></trkpt><trkpt lat="45.9953208" lon="12.436572"><ele>572.0</ele><time>2026-04-04T09:07:55.153Z</time></trkpt><trkpt lat="45.9952192" lon="12.4365164"><ele>572.0</ele><time>2026-04-04T09:07:56.153Z</time></trkpt><trkpt lat="45.9951266" lon="12.4364777"><ele>572.0</ele><time>2026-04-04T09:07:57.153Z</time></trkpt><trkpt lat="45.995036" lon="12.4364275"><ele>572.0</ele><time>2026-04-04T09:07:58.153Z</time></trkpt><trkpt lat="45.9949713" lon="12.4364715"><ele>572.0</ele><time>2026-04-04T09:07:59.153Z</time></trkpt><trkpt lat="45.9948954" lon="12.4364698"><ele>572.0</ele><time>2026-04-04T09:08:00.154Z</time></trkpt><trkpt lat="45.9948252" lon="12.4365002"><ele>572.0</ele><time>2026-04-04T09:08:01.153Z</time></trkpt><trkpt lat="45.9947628" lon="12.4365483"><ele>568.8333333333333</ele><time>2026-04-04T09:08:02.153Z</time></trkpt><trkpt lat="45.9947089" lon="12.4366178"><ele>565.6666666666666</ele><time>2026-04-04T09:08:03.155Z</time></trkpt><trkpt lat="45.9946656" lon="12.4367057"><ele>562.5</ele><time>2026-04-04T09:08:04.154Z</time></trkpt><trkpt lat="45.9946413" lon="12.4368301"><ele>559.3333333333334</ele><time>2026-04-04T09:08:05.153Z</time></trkpt><trkpt lat="45.9946243" lon="12.4369472"><ele>556.1666666666667</ele><time>2026-04-04T09:08:06.153Z</time></trkpt><trkpt lat="45.994615" lon="12.4370545"><ele>553.0</ele><time>2026-04-04T09:08:07.154Z</time></trkpt><trkpt lat="45.9946233" lon="12.437155"><ele>554.1999999999999</ele><time>2026-04-04T09:08:08.153Z</time></trkpt><trkpt lat="45.99466" lon="12.4372511"><ele>555.4</ele><time>2026-04-04T09:08:09.153Z</time></trkpt><trkpt lat="45.9947305" lon="12.4373363"><ele>556.5999999999999</ele><time>2026-04-04T09:08:10.153Z</time></trkpt><trkpt lat="45.9948211" lon="12.4374215"><ele>557.8</ele><time>2026-04-04T09:08:11.154Z</time></trkpt><trkpt lat="45.9949187" lon="12.4375151"><ele>559.0</ele><time>2026-04-04T09:08:12.154Z</time></trkpt><trkpt lat="45.9950099" lon="12.4376275"><ele>559.0</ele><time>2026-04-04T09:08:13.154Z</time></trkpt><trkpt lat="45.9950923" lon="12.4377358"><ele>559.0</ele><time>2026-04-04T09:08:14.154Z</time></trkpt><trkpt lat="45.9951777" lon="12.4378437"><ele>559.0</ele><time>2026-04-04T09:08:15.154Z</time></trkpt><trkpt lat="45.995249" lon="12.4379607"><ele>559.0</ele><time>2026-04-04T09:08:16.153Z</time></trkpt><trkpt lat="45.9953032" lon="12.4380807"><ele>559.0</ele><time>2026-04-04T09:08:17.153Z</time></trkpt><trkpt lat="45.9953583" lon="12.4381856"><ele>552.75</ele><time>2026-04-04T09:08:18.153Z</time></trkpt><trkpt lat="45.9954348" lon="12.4382722"><ele>546.5</ele><time>2026-04-04T09:08:19.153Z</time></trkpt><trkpt lat="45.9955358" lon="12.4383443"><ele>540.25</ele><time>2026-04-04T09:08:20.153Z</time></trkpt><trkpt lat="45.995654" lon="12.4384077"><ele>534.0</ele><time>2026-04-04T09:08:21.154Z</time></trkpt><trkpt lat="45.9957807" lon="12.4384601"><ele>534.6</ele><time>2026-04-04T09:08:22.153Z</time></trkpt><trkpt lat="45.9959017" lon="12.4384893"><ele>535.2</ele><time>2026-04-04T09:08:23.154Z</time></trkpt><trkpt lat="45.9959957" lon="12.4385354"><ele>535.8000000000001</ele><time>2026-04-04T09:08:24.153Z</time></trkpt><trkpt lat="45.9960742" lon="12.4386279"><ele>536.4</ele><time>2026-04-04T09:08:25.153Z</time></trkpt><trkpt lat="45.9961271" lon="12.4387436"><ele>537.0</ele><time>2026-04-04T09:08:26.153Z</time></trkpt><trkpt lat="45.9961719" lon="12.4388597"><ele>537.0</ele><time>2026-04-04T09:08:27.153Z</time></trkpt><trkpt lat="45.9962126" lon="12.4389848"><ele>537.0</ele><time>2026-04-04T09:08:28.155Z</time></trkpt><trkpt lat="45.9962518" lon="12.4391081"><ele>537.0</ele><time>2026-04-04T09:08:29.154Z</time></trkpt><trkpt lat="45.996291" lon="12.4392293"><ele>537.0</ele><time>2026-04-04T09:08:31.052Z</time></trkpt><trkpt lat="45.9963271" lon="12.4393463"><ele>537.0</ele><time>2026-04-04T09:08:32.053Z</time></trkpt><trkpt lat="45.9963601" lon="12.4394643"><ele>537.0</ele><time>2026-04-04T09:08:33.052Z</time></trkpt><trkpt lat="45.9963943" lon="12.4395799"><ele>537.0</ele><time>2026-04-04T09:08:34.053Z</time></trkpt><trkpt lat="45.996438" lon="12.439689"><ele>537.0</ele><time>2026-04-04T09:08:35.054Z</time></trkpt><trkpt lat="45.9965003" lon="12.439788"><ele>537.0</ele><time>2026-04-04T09:08:36.052Z</time></trkpt><trkpt lat="45.9965842" lon="12.4398845"><ele>537.0</ele><time>2026-04-04T09:08:37.052Z</time></trkpt><trkpt lat="45.9966863" lon="12.4399799"><ele>535.5</ele><time>2026-04-04T09:08:38.053Z</time></trkpt><trkpt lat="45.9967983" lon="12.4400787"><ele>534.0</ele><time>2026-04-04T09:08:39.052Z</time></trkpt><trkpt lat="45.9969139" lon="12.4401764"><ele>532.5</ele><time>2026-04-04T09:08:40.053Z</time></trkpt><trkpt lat="45.997021" lon="12.4402749"><ele>531.0</ele><time>2026-04-04T09:08:41.053Z</time></trkpt><trkpt lat="45.9971212" lon="12.440385"><ele>524.0</ele><time>2026-04-04T09:08:42.052Z</time></trkpt><trkpt lat="45.9972127" lon="12.4404961"><ele>517.0</ele><time>2026-04-04T09:08:43.054Z</time></trkpt><trkpt lat="45.9973054" lon="12.4405906"><ele>510.0</ele><time>2026-04-04T09:08:44.053Z</time></trkpt><trkpt lat="45.9973991" lon="12.4406771"><ele>503.0</ele><time>2026-04-04T09:08:45.052Z</time></trkpt><trkpt lat="45.9974966" lon="12.4407466"><ele>506.79999999999995</ele><time>2026-04-04T09:08:46.053Z</time></trkpt><trkpt lat="45.997596" lon="12.4407968"><ele>510.59999999999997</ele><time>2026-04-04T09:08:47.053Z</time></trkpt><trkpt lat="45.997691" lon="12.440829"><ele>514.4000000000001</ele><time>2026-04-04T09:08:48.052Z</time></trkpt><trkpt lat="45.9977686" lon="12.4408779"><ele>518.2</ele><time>2026-04-04T09:08:49.052Z</time></trkpt><trkpt lat="45.9978272" lon="12.4409626"><ele>522.0</ele><time>2026-04-04T09:08:50.052Z</time></trkpt><trkpt lat="45.9978654" lon="12.441092"><ele>522.0</ele><time>2026-04-04T09:08:51.054Z</time></trkpt><trkpt lat="45.9978881" lon="12.4412307"><ele>522.0</ele><time>2026-04-04T09:08:52.053Z</time></trkpt><trkpt lat="45.9979165" lon="12.4413627"><ele>522.0</ele><time>2026-04-04T09:08:53.053Z</time></trkpt><trkpt lat="45.9979563" lon="12.4414852"><ele>522.0</ele><time>2026-04-04T09:08:54.054Z</time></trkpt><trkpt lat="45.9980102" lon="12.4415992"><ele>522.0</ele><time>2026-04-04T09:08:55.052Z</time></trkpt><trkpt lat="45.998083" lon="12.4416921"><ele>519.25</ele><time>2026-04-04T09:08:56.054Z</time></trkpt><trkpt lat="45.9981814" lon="12.441767"><ele>516.5</ele><time>2026-04-04T09:08:57.052Z</time></trkpt><trkpt lat="45.9982947" lon="12.4418233"><ele>513.75</ele><time>2026-04-04T09:08:58.053Z</time></trkpt><trkpt lat="45.9984152" lon="12.4418687"><ele>511.0</ele><time>2026-04-04T09:08:59.053Z</time></trkpt><trkpt lat="45.9985283" lon="12.4419176"><ele>511.0</ele><time>2026-04-04T09:09:00.053Z</time></trkpt><trkpt lat="45.9986331" lon="12.4419798"><ele>511.0</ele><time>2026-04-04T09:09:01.052Z</time></trkpt><trkpt lat="45.9987276" lon="12.4420589"><ele>511.0</ele><time>2026-04-04T09:09:02.053Z</time></trkpt><trkpt lat="45.9988102" lon="12.4421641"><ele>511.0</ele><time>2026-04-04T09:09:03.052Z</time></trkpt><trkpt lat="45.998877" lon="12.4422967"><ele>511.0</ele><time>2026-04-04T09:09:04.052Z</time></trkpt><trkpt lat="45.998924" lon="12.4424472"><ele>506.0</ele><time>2026-04-04T09:09:05.052Z</time></trkpt><trkpt lat="45.9989617" lon="12.4426039"><ele>501.0</ele><time>2026-04-04T09:09:06.052Z</time></trkpt><trkpt lat="45.999009" lon="12.4427508"><ele>496.0</ele><time>2026-04-04T09:09:07.053Z</time></trkpt><trkpt lat="45.999079" lon="12.4428758"><ele>491.0</ele><time>2026-04-04T09:09:08.054Z</time></trkpt><trkpt lat="45.9991672" lon="12.4429792"><ele>488.5</ele><time>2026-04-04T09:09:09.053Z</time></trkpt><trkpt lat="45.9992662" lon="12.4430692"><ele>486.0</ele><time>2026-04-04T09:09:10.054Z</time></trkpt><trkpt lat="45.9993711" lon="12.4431579"><ele>483.5</ele><time>2026-04-04T09:09:11.053Z</time></trkpt><trkpt lat="45.9994812" lon="12.4432376"><ele>481.0</ele><time>2026-04-04T09:09:12.053Z</time></trkpt><trkpt lat="45.999593" lon="12.4433034"><ele>481.0</ele><time>2026-04-04T09:09:13.052Z</time></trkpt><trkpt lat="45.9997071" lon="12.4433516"><ele>481.0</ele><time>2026-04-04T09:09:14.053Z</time></trkpt><trkpt lat="45.999812" lon="12.4434181"><ele>481.0</ele><time>2026-04-04T09:09:15.053Z</time></trkpt><trkpt lat="45.9999067" lon="12.4435274"><ele>481.0</ele><time>2026-04-04T09:09:16.053Z</time></trkpt><trkpt lat="45.9999761" lon="12.4436659"><ele>476.0</ele><time>2026-04-04T09:09:17.052Z</time></trkpt><trkpt lat="46.0000321" lon="12.4438246"><ele>471.0</ele><time>2026-04-04T09:09:18.053Z</time></trkpt><trkpt lat="46.0000821" lon="12.4439908"><ele>466.0</ele><time>2026-04-04T09:09:19.053Z</time></trkpt><trkpt lat="46.00013" lon="12.4441567"><ele>461.0</ele><time>2026-04-04T09:09:20.052Z</time></trkpt><trkpt lat="46.0001805" lon="12.4443102"><ele>461.0</ele><time>2026-04-04T09:09:21.052Z</time></trkpt><trkpt lat="46.0002435" lon="12.4444357"><ele>461.0</ele><time>2026-04-04T09:09:22.053Z</time></trkpt><trkpt lat="46.0003165" lon="12.4445451"><ele>461.0</ele><time>2026-04-04T09:09:23.053Z</time></trkpt><trkpt lat="46.0004022" lon="12.4446259"><ele>461.0</ele><time>2026-04-04T09:09:24.052Z</time></trkpt><trkpt lat="46.0005001" lon="12.4446887"><ele>461.0</ele><time>2026-04-04T09:09:25.053Z</time></trkpt><trkpt lat="46.0005967" lon="12.4447431"><ele>459.66666666666663</ele><time>2026-04-04T09:09:26.053Z</time></trkpt><trkpt lat="46.0006813" lon="12.444795"><ele>458.3333333333333</ele><time>2026-04-04T09:09:27.054Z</time></trkpt><trkpt lat="46.0007442" lon="12.4448558"><ele>457.0</ele><time>2026-04-04T09:09:28.055Z</time></trkpt><trkpt lat="46.0007833" lon="12.4449387"><ele>455.66666666666663</ele><time>2026-04-04T09:09:29.053Z</time></trkpt><trkpt lat="46.0007915" lon="12.4450364"><ele>454.3333333333333</ele><time>2026-04-04T09:09:30.054Z</time></trkpt><trkpt lat="46.000769" lon="12.4451359"><ele>453.0</ele><time>2026-04-04T09:09:31.053Z</time></trkpt><trkpt lat="46.0007219" lon="12.4452159"><ele>453.0</ele><time>2026-04-04T09:09:32.054Z</time></trkpt><trkpt lat="46.0006521" lon="12.4452477"><ele>452.99999999999994</ele><time>2026-04-04T09:09:33.055Z</time></trkpt><trkpt lat="46.0005647" lon="12.4452316"><ele>452.99999999999994</ele><time>2026-04-04T09:09:34.054Z</time></trkpt><trkpt lat="46.0004628" lon="12.4451725"><ele>453.0</ele><time>2026-04-04T09:09:35.054Z</time></trkpt><trkpt lat="46.0003361" lon="12.4451026"><ele>453.0</ele><time>2026-04-04T09:09:36.054Z</time></trkpt><trkpt lat="46.0001983" lon="12.4450665"><ele>453.0</ele><time>2026-04-04T09:09:37.055Z</time></trkpt><trkpt lat="46.0000706" lon="12.4450433"><ele>452.99999999999994</ele><time>2026-04-04T09:09:38.054Z</time></trkpt><trkpt lat="45.9999563" lon="12.4450225"><ele>452.99999999999994</ele><time>2026-04-04T09:09:39.053Z</time></trkpt><trkpt lat="45.9998525" lon="12.4450125"><ele>453.0</ele><time>2026-04-04T09:09:40.054Z</time></trkpt><trkpt lat="45.9997525" lon="12.4449992"><ele>453.0</ele><time>2026-04-04T09:09:41.054Z</time></trkpt><trkpt lat="45.9996554" lon="12.4449925"><ele>453.0</ele><time>2026-04-04T09:09:42.053Z</time></trkpt><trkpt lat="45.9995621" lon="12.4449801"><ele>452.99999999999994</ele><time>2026-04-04T09:09:43.053Z</time></trkpt><trkpt lat="45.9994692" lon="12.444965"><ele>452.99999999999994</ele><time>2026-04-04T09:09:44.054Z</time></trkpt><trkpt lat="45.9993765" lon="12.4449503"><ele>453.0</ele><time>2026-04-04T09:09:45.053Z</time></trkpt><trkpt lat="45.9992795" lon="12.4449368"><ele>453.0</ele><time>2026-04-04T09:09:46.054Z</time></trkpt><trkpt lat="45.9991833" lon="12.4449244"><ele>450.2</ele><time>2026-04-04T09:09:47.055Z</time></trkpt><trkpt lat="45.9990858" lon="12.4449114"><ele>447.4</ele><time>2026-04-04T09:09:48.054Z</time></trkpt><trkpt lat="45.9989897" lon="12.4449019"><ele>444.59999999999997</ele><time>2026-04-04T09:09:49.053Z</time></trkpt><trkpt lat="45.9988941" lon="12.4448981"><ele>441.79999999999995</ele><time>2026-04-04T09:09:50.053Z</time></trkpt><trkpt lat="45.9987999" lon="12.4449017"><ele>439.0</ele><time>2026-04-04T09:09:51.054Z</time></trkpt><trkpt lat="45.9987114" lon="12.444916"><ele>439.0</ele><time>2026-04-04T09:09:52.055Z</time></trkpt><trkpt lat="45.9986181" lon="12.4449365"><ele>439.0</ele><time>2026-04-04T09:09:53.053Z</time></trkpt><trkpt lat="45.9985183" lon="12.4449581"><ele>439.0</ele><time>2026-04-04T09:09:54.054Z</time></trkpt><trkpt lat="45.9984167" lon="12.4449791"><ele>439.0</ele><time>2026-04-04T09:09:55.055Z</time></trkpt><trkpt lat="45.998312" lon="12.4449984"><ele>439.0</ele><time>2026-04-04T09:09:56.055Z</time></trkpt><trkpt lat="45.9981982" lon="12.445017"><ele>438.0</ele><time>2026-04-04T09:09:57.054Z</time></trkpt><trkpt lat="45.9980868" lon="12.4450301"><ele>437.0</ele><time>2026-04-04T09:09:58.053Z</time></trkpt><trkpt lat="45.9979786" lon="12.4450427"><ele>436.0</ele><time>2026-04-04T09:09:59.054Z</time></trkpt><trkpt lat="45.9978656" lon="12.4450633"><ele>435.0</ele><time>2026-04-04T09:10:00.055Z</time></trkpt><trkpt lat="45.9977652" lon="12.4450771"><ele>434.0</ele><time>2026-04-04T09:10:01.053Z</time></trkpt><trkpt lat="45.9976569" lon="12.4450946"><ele>433.0</ele><time>2026-04-04T09:10:02.054Z</time></trkpt><trkpt lat="45.997444" lon="12.4451288"><ele>432.0</ele><time>2026-04-04T09:10:04.054Z</time></trkpt><trkpt lat="45.997344" lon="12.4451517"><ele>431.0</ele><time>2026-04-04T09:10:05.055Z</time></trkpt><trkpt lat="45.9972446" lon="12.4451891"><ele>430.0</ele><time>2026-04-04T09:10:06.054Z</time></trkpt><trkpt lat="45.9971406" lon="12.4452479"><ele>430.0</ele><time>2026-04-04T09:10:07.053Z</time></trkpt><trkpt lat="45.9970441" lon="12.4453214"><ele>430.0</ele><time>2026-04-04T09:10:08.053Z</time></trkpt><trkpt lat="45.9969668" lon="12.4454118"><ele>430.0</ele><time>2026-04-04T09:10:09.054Z</time></trkpt><trkpt lat="45.9968951" lon="12.4454861"><ele>430.0</ele><time>2026-04-04T09:10:10.053Z</time></trkpt><trkpt lat="45.9968279" lon="12.4455503"><ele>430.0</ele><time>2026-04-04T09:10:11.053Z</time></trkpt><trkpt lat="45.9967658" lon="12.4456054"><ele>428.33333333333337</ele><time>2026-04-04T09:10:12.054Z</time></trkpt><trkpt lat="45.99671" lon="12.4456534"><ele>426.6666666666667</ele><time>2026-04-04T09:10:13.053Z</time></trkpt><trkpt lat="45.9966523" lon="12.4457035"><ele>425.0</ele><time>2026-04-04T09:10:14.054Z</time></trkpt><trkpt lat="45.9965495" lon="12.4457898"><ele>423.33333333333337</ele><time>2026-04-04T09:10:16.055Z</time></trkpt><trkpt lat="45.9964492" lon="12.4458649"><ele>421.6666666666667</ele><time>2026-04-04T09:10:18.053Z</time></trkpt><trkpt lat="45.9963921" lon="12.4459051"><ele>420.0</ele><time>2026-04-04T09:10:19.053Z</time></trkpt><trkpt lat="45.9963282" lon="12.4459447"><ele>418.6666666666667</ele><time>2026-04-04T09:10:20.053Z</time></trkpt><trkpt lat="45.9962566" lon="12.4459841"><ele>417.33333333333337</ele><time>2026-04-04T09:10:21.054Z</time></trkpt><trkpt lat="45.9961829" lon="12.4460173"><ele>416.0</ele><time>2026-04-04T09:10:22.054Z</time></trkpt><trkpt lat="45.9961114" lon="12.4460503"><ele>414.6666666666667</ele><time>2026-04-04T09:10:23.054Z</time></trkpt><trkpt lat="45.9960353" lon="12.446085"><ele>413.33333333333337</ele><time>2026-04-04T09:10:24.055Z</time></trkpt><trkpt lat="45.9959597" lon="12.4461209"><ele>412.0</ele><time>2026-04-04T09:10:25.053Z</time></trkpt><trkpt lat="45.9958826" lon="12.4461577"><ele>411.20000000000005</ele><time>2026-04-04T09:10:26.055Z</time></trkpt><trkpt lat="45.9958001" lon="12.446179"><ele>410.4</ele><time>2026-04-04T09:10:27.055Z</time></trkpt><trkpt lat="45.9957155" lon="12.4461802"><ele>409.6</ele><time>2026-04-04T09:10:28.054Z</time></trkpt><trkpt lat="45.9956287" lon="12.4461581"><ele>408.79999999999995</ele><time>2026-04-04T09:10:29.053Z</time></trkpt><trkpt lat="45.9955369" lon="12.4461134"><ele>408.0</ele><time>2026-04-04T09:10:30.053Z</time></trkpt><trkpt lat="45.9954415" lon="12.4460591"><ele>408.0</ele><time>2026-04-04T09:10:31.053Z</time></trkpt><trkpt lat="45.9953484" lon="12.4460046"><ele>408.0</ele><time>2026-04-04T09:10:32.053Z</time></trkpt><trkpt lat="45.9952577" lon="12.4459569"><ele>408.0</ele><time>2026-04-04T09:10:33.055Z</time></trkpt><trkpt lat="45.9951728" lon="12.4459159"><ele>408.0</ele><time>2026-04-04T09:10:34.055Z</time></trkpt><trkpt lat="45.9950935" lon="12.4458694"><ele>408.0</ele><time>2026-04-04T09:10:35.054Z</time></trkpt><trkpt lat="45.9950268" lon="12.4457978"><ele>405.7142857142857</ele><time>2026-04-04T09:10:36.054Z</time></trkpt><trkpt lat="45.9949811" lon="12.4457132"><ele>403.42857142857144</ele><time>2026-04-04T09:10:37.054Z</time></trkpt><trkpt lat="45.9949405" lon="12.4456337"><ele>401.1428571428571</ele><time>2026-04-04T09:10:38.054Z</time></trkpt><trkpt lat="45.9948914" lon="12.4455609"><ele>398.8571428571429</ele><time>2026-04-04T09:10:39.055Z</time></trkpt><trkpt lat="45.994832" lon="12.4455194"><ele>396.57142857142856</ele><time>2026-04-04T09:10:40.054Z</time></trkpt><trkpt lat="45.9947638" lon="12.4454999"><ele>394.2857142857143</ele><time>2026-04-04T09:10:41.054Z</time></trkpt><trkpt lat="45.9946947" lon="12.4454917"><ele>392.0</ele><time>2026-04-04T09:10:42.055Z</time></trkpt><trkpt lat="45.9946285" lon="12.4454625"><ele>394.49999999999994</ele><time>2026-04-04T09:10:43.055Z</time></trkpt><trkpt lat="45.9945771" lon="12.4454"><ele>397.0</ele><time>2026-04-04T09:10:44.053Z</time></trkpt><trkpt lat="45.9945367" lon="12.4453192"><ele>399.5</ele><time>2026-04-04T09:10:45.053Z</time></trkpt><trkpt lat="45.9944863" lon="12.4452191"><ele>402.0</ele><time>2026-04-04T09:10:46.054Z</time></trkpt><trkpt lat="45.9944179" lon="12.4451201"><ele>404.49999999999994</ele><time>2026-04-04T09:10:47.054Z</time></trkpt><trkpt lat="45.9943333" lon="12.445051"><ele>407.0</ele><time>2026-04-04T09:10:48.053Z</time></trkpt><trkpt lat="45.9942389" lon="12.4450023"><ele>404.16666666666663</ele><time>2026-04-04T09:10:49.054Z</time></trkpt><trkpt lat="45.9941437" lon="12.4449699"><ele>401.3333333333333</ele><time>2026-04-04T09:10:50.055Z</time></trkpt><trkpt lat="45.9940532" lon="12.4449606"><ele>398.5</ele><time>2026-04-04T09:10:51.055Z</time></trkpt><trkpt lat="45.9939689" lon="12.4449417"><ele>395.66666666666663</ele><time>2026-04-04T09:10:52.054Z</time></trkpt><trkpt lat="45.9938926" lon="12.4448975"><ele>392.8333333333333</ele><time>2026-04-04T09:10:53.055Z</time></trkpt><trkpt lat="45.9938232" lon="12.444835"><ele>390.0</ele><time>2026-04-04T09:10:54.054Z</time></trkpt><trkpt lat="45.9937541" lon="12.4447824"><ele>390.0</ele><time>2026-04-04T09:10:55.054Z</time></trkpt><trkpt lat="45.9936849" lon="12.4447619"><ele>390.0</ele><time>2026-04-04T09:10:56.054Z</time></trkpt><trkpt lat="45.9936209" lon="12.4447836"><ele>390.0</ele><time>2026-04-04T09:10:57.054Z</time></trkpt><trkpt lat="45.9935812" lon="12.444912"><ele>390.0</ele><time>2026-04-04T09:10:59.054Z</time></trkpt><trkpt lat="45.9936255" lon="12.4450095"><ele>390.0</ele><time>2026-04-04T09:11:01.055Z</time></trkpt><trkpt lat="45.9937076" lon="12.4450781"><ele>390.0</ele><time>2026-04-04T09:11:03.053Z</time></trkpt><trkpt lat="45.9938346" lon="12.4451259"><ele>390.0</ele><time>2026-04-04T09:11:05.054Z</time></trkpt><trkpt lat="45.9939021" lon="12.4451466"><ele>390.0</ele><time>2026-04-04T09:11:06.053Z</time></trkpt><trkpt lat="45.9939669" lon="12.445164"><ele>390.0</ele><time>2026-04-04T09:11:07.055Z</time></trkpt><trkpt lat="45.994026" lon="12.4452028"><ele>390.0</ele><time>2026-04-04T09:11:08.054Z</time></trkpt><trkpt lat="45.9940764" lon="12.4452632"><ele>390.0</ele><time>2026-04-04T09:11:09.054Z</time></trkpt><trkpt lat="45.9941048" lon="12.4453485"><ele>390.0</ele><time>2026-04-04T09:11:10.054Z</time></trkpt><trkpt lat="45.9941128" lon="12.445448"><ele>390.0</ele><time>2026-04-04T09:11:11.054Z</time></trkpt><trkpt lat="45.9940989" lon="12.4455489"><ele>390.3333333333333</ele><time>2026-04-04T09:11:12.054Z</time></trkpt><trkpt lat="45.9940803" lon="12.4456494"><ele>390.66666666666663</ele><time>2026-04-04T09:11:13.054Z</time></trkpt><trkpt lat="45.9940792" lon="12.4457488"><ele>391.0</ele><time>2026-04-04T09:11:14.054Z</time></trkpt><trkpt lat="45.9941104" lon="12.4458312"><ele>391.3333333333333</ele><time>2026-04-04T09:11:15.053Z</time></trkpt><trkpt lat="45.9941745" lon="12.4458873"><ele>391.66666666666663</ele><time>2026-04-04T09:11:16.054Z</time></trkpt><trkpt lat="45.9942554" lon="12.445923"><ele>392.0</ele><time>2026-04-04T09:11:17.054Z</time></trkpt><trkpt lat="45.9943433" lon="12.4459539"><ele>392.0</ele><time>2026-04-04T09:11:18.054Z</time></trkpt><trkpt lat="45.9944298" lon="12.4460178"><ele>392.0</ele><time>2026-04-04T09:11:19.053Z</time></trkpt><trkpt lat="45.9945002" lon="12.4461143"><ele>392.0</ele><time>2026-04-04T09:11:20.053Z</time></trkpt><trkpt lat="45.9945503" lon="12.4462333"><ele>392.0</ele><time>2026-04-04T09:11:21.055Z</time></trkpt><trkpt lat="45.9945895" lon="12.4463631"><ele>392.0</ele><time>2026-04-04T09:11:22.055Z</time></trkpt><trkpt lat="45.9946297" lon="12.4464964"><ele>389.20000000000005</ele><time>2026-04-04T09:11:23.053Z</time></trkpt><trkpt lat="45.994672" lon="12.4466251"><ele>386.4</ele><time>2026-04-04T09:11:24.055Z</time></trkpt><trkpt lat="45.9947126" lon="12.4467484"><ele>383.6</ele><time>2026-04-04T09:11:25.054Z</time></trkpt><trkpt lat="45.9947511" lon="12.4468725"><ele>380.79999999999995</ele><time>2026-04-04T09:11:26.054Z</time></trkpt><trkpt lat="45.9947841" lon="12.446995"><ele>378.0</ele><time>2026-04-04T09:11:27.054Z</time></trkpt><trkpt lat="45.9948013" lon="12.447112"><ele>374.59999999999997</ele><time>2026-04-04T09:11:28.055Z</time></trkpt><trkpt lat="45.9947974" lon="12.4472321"><ele>371.2</ele><time>2026-04-04T09:11:29.054Z</time></trkpt><trkpt lat="45.994784" lon="12.4473445"><ele>367.8</ele><time>2026-04-04T09:11:30.054Z</time></trkpt><trkpt lat="45.9947743" lon="12.4474427"><ele>364.4</ele><time>2026-04-04T09:11:31.053Z</time></trkpt><trkpt lat="45.9948218" lon="12.4475931"><ele>361.0</ele><time>2026-04-04T09:11:33.053Z</time></trkpt><trkpt lat="45.9949552" lon="12.4476246"><ele>360.5</ele><time>2026-04-04T09:11:35.054Z</time></trkpt><trkpt lat="45.9950393" lon="12.4476212"><ele>360.0</ele><time>2026-04-04T09:11:36.055Z</time></trkpt><trkpt lat="45.9951163" lon="12.4476509"><ele>359.5</ele><time>2026-04-04T09:11:37.054Z</time></trkpt><trkpt lat="45.9951827" lon="12.4477191"><ele>359.0</ele><time>2026-04-04T09:11:38.054Z</time></trkpt><trkpt lat="45.9952431" lon="12.4478227"><ele>358.5</ele><time>2026-04-04T09:11:39.053Z</time></trkpt><trkpt lat="45.9952924" lon="12.447948"><ele>358.0</ele><time>2026-04-04T09:11:40.054Z</time></trkpt><trkpt lat="45.9953521" lon="12.4480687"><ele>358.0</ele><time>2026-04-04T09:11:41.053Z</time></trkpt><trkpt lat="45.9954216" lon="12.4481758"><ele>358.0</ele><time>2026-04-04T09:11:42.053Z</time></trkpt><trkpt lat="45.9954701" lon="12.4482992"><ele>358.0</ele><time>2026-04-04T09:11:43.054Z</time></trkpt><trkpt lat="45.9955031" lon="12.44843"><ele>358.0</ele><time>2026-04-04T09:11:44.053Z</time></trkpt><trkpt lat="45.9955308" lon="12.4485625"><ele>358.0</ele><time>2026-04-04T09:11:45.054Z</time></trkpt><trkpt lat="45.9955541" lon="12.4486981"><ele>355.0</ele><time>2026-04-04T09:11:46.054Z</time></trkpt><trkpt lat="45.9955802" lon="12.4488312"><ele>352.0</ele><time>2026-04-04T09:11:47.053Z</time></trkpt><trkpt lat="45.9956325" lon="12.4489485"><ele>349.0</ele><time>2026-04-04T09:11:48.053Z</time></trkpt><trkpt lat="45.9957047" lon="12.4490485"><ele>346.0</ele><time>2026-04-04T09:11:49.054Z</time></trkpt><trkpt lat="45.995777" lon="12.4491317"><ele>343.0</ele><time>2026-04-04T09:11:50.054Z</time></trkpt><trkpt lat="45.9958353" lon="12.4492107"><ele>343.0</ele><time>2026-04-04T09:11:51.054Z</time></trkpt><trkpt lat="45.9958755" lon="12.449302"><ele>343.0</ele><time>2026-04-04T09:11:52.054Z</time></trkpt><trkpt lat="45.9958946" lon="12.4493994"><ele>343.0</ele><time>2026-04-04T09:11:53.054Z</time></trkpt><trkpt lat="45.9958777" lon="12.4494984"><ele>343.0</ele><time>2026-04-04T09:11:54.054Z</time></trkpt><trkpt lat="45.9958266" lon="12.4495713"><ele>343.0</ele><time>2026-04-04T09:11:55.053Z</time></trkpt><trkpt lat="45.9957568" lon="12.4496058"><ele>343.0</ele><time>2026-04-04T09:11:56.054Z</time></trkpt><trkpt lat="45.9956893" lon="12.4495872"><ele>343.0</ele><time>2026-04-04T09:11:57.054Z</time></trkpt><trkpt lat="45.9956342" lon="12.4495282"><ele>343.0</ele><time>2026-04-04T09:11:58.055Z</time></trkpt><trkpt lat="45.9955832" lon="12.4494327"><ele>343.0</ele><time>2026-04-04T09:11:59.054Z</time></trkpt><trkpt lat="45.9955307" lon="12.4493104"><ele>343.0</ele><time>2026-04-04T09:12:00.055Z</time></trkpt><trkpt lat="45.9954621" lon="12.4491854"><ele>343.0</ele><time>2026-04-04T09:12:01.053Z</time></trkpt><trkpt lat="45.9953958" lon="12.4490665"><ele>343.0</ele><time>2026-04-04T09:12:02.054Z</time></trkpt><trkpt lat="45.9953152" lon="12.4489784"><ele>343.0</ele><time>2026-04-04T09:12:03.054Z</time></trkpt><trkpt lat="45.9952334" lon="12.4488955"><ele>343.0</ele><time>2026-04-04T09:12:04.054Z</time></trkpt><trkpt lat="45.9951516" lon="12.4488219"><ele>343.0</ele><time>2026-04-04T09:12:05.054Z</time></trkpt><trkpt lat="45.9950693" lon="12.4487598"><ele>343.0</ele><time>2026-04-04T09:12:06.053Z</time></trkpt><trkpt lat="45.9949849" lon="12.4487091"><ele>343.0</ele><time>2026-04-04T09:12:07.053Z</time></trkpt><trkpt lat="45.9949013" lon="12.4486648"><ele>342.59999999999997</ele><time>2026-04-04T09:12:08.054Z</time></trkpt><trkpt lat="45.9948179" lon="12.4486256"><ele>342.2</ele><time>2026-04-04T09:12:09.053Z</time></trkpt><trkpt lat="45.9947342" lon="12.4485853"><ele>341.8</ele><time>2026-04-04T09:12:10.054Z</time></trkpt><trkpt lat="45.9946455" lon="12.4485522"><ele>341.4</ele><time>2026-04-04T09:12:11.054Z</time></trkpt><trkpt lat="45.9945545" lon="12.4485256"><ele>341.0</ele><time>2026-04-04T09:12:12.054Z</time></trkpt><trkpt lat="45.9944635" lon="12.4485115"><ele>341.0</ele><time>2026-04-04T09:12:13.053Z</time></trkpt><trkpt lat="45.9943816" lon="12.4484844"><ele>341.0</ele><time>2026-04-04T09:12:14.055Z</time></trkpt><trkpt lat="45.9943142" lon="12.4484213"><ele>341.0</ele><time>2026-04-04T09:12:15.053Z</time></trkpt><trkpt lat="45.9942662" lon="12.4483298"><ele>341.0</ele><time>2026-04-04T09:12:16.054Z</time></trkpt><trkpt lat="45.994212" lon="12.4482402"><ele>341.0</ele><time>2026-04-04T09:12:17.054Z</time></trkpt><trkpt lat="45.9941426" lon="12.4481907"><ele>341.0</ele><time>2026-04-04T09:12:18.054Z</time></trkpt><trkpt lat="45.9940622" lon="12.4481905"><ele>337.4</ele><time>2026-04-04T09:12:19.054Z</time></trkpt><trkpt lat="45.9939818" lon="12.4482382"><ele>333.8</ele><time>2026-04-04T09:12:20.053Z</time></trkpt><trkpt lat="45.9938977" lon="12.4483112"><ele>330.2</ele><time>2026-04-04T09:12:21.054Z</time></trkpt><trkpt lat="45.9938028" lon="12.4483762"><ele>326.59999999999997</ele><time>2026-04-04T09:12:22.053Z</time></trkpt><trkpt lat="45.9937006" lon="12.4484405"><ele>323.0</ele><time>2026-04-04T09:12:23.054Z</time></trkpt><trkpt lat="45.9936025" lon="12.4485015"><ele>323.0</ele><time>2026-04-04T09:12:24.053Z</time></trkpt><trkpt lat="45.9935087" lon="12.4485643"><ele>323.0</ele><time>2026-04-04T09:12:25.053Z</time></trkpt><trkpt lat="45.993418" lon="12.4486231"><ele>323.0</ele><time>2026-04-04T09:12:26.054Z</time></trkpt><trkpt lat="45.9933214" lon="12.4486518"><ele>323.0</ele><time>2026-04-04T09:12:27.054Z</time></trkpt><trkpt lat="45.9932146" lon="12.4486252"><ele>323.0</ele><time>2026-04-04T09:12:28.054Z</time></trkpt><trkpt lat="45.9931024" lon="12.4485694"><ele>321.4</ele><time>2026-04-04T09:12:29.054Z</time></trkpt><trkpt lat="45.9929878" lon="12.4485107"><ele>319.79999999999995</ele><time>2026-04-04T09:12:30.053Z</time></trkpt><trkpt lat="45.9928742" lon="12.4484794"><ele>318.2</ele><time>2026-04-04T09:12:31.054Z</time></trkpt><trkpt lat="45.9927626" lon="12.4484768"><ele>316.6</ele><time>2026-04-04T09:12:32.054Z</time></trkpt><trkpt lat="45.9926641" lon="12.4484886"><ele>315.0</ele><time>2026-04-04T09:12:33.055Z</time></trkpt><trkpt lat="45.9925726" lon="12.4485119"><ele>313.5</ele><time>2026-04-04T09:12:34.053Z</time></trkpt><trkpt lat="45.9924921" lon="12.4485608"><ele>312.0</ele><time>2026-04-04T09:12:35.053Z</time></trkpt><trkpt lat="45.9924239" lon="12.4486219"><ele>310.5</ele><time>2026-04-04T09:12:36.054Z</time></trkpt><trkpt lat="45.9923601" lon="12.4486875"><ele>309.0</ele><time>2026-04-04T09:12:37.055Z</time></trkpt><trkpt lat="45.992299" lon="12.4487362"><ele>307.5</ele><time>2026-04-04T09:12:38.053Z</time></trkpt><trkpt lat="45.9922304" lon="12.4487451"><ele>306.0</ele><time>2026-04-04T09:12:39.054Z</time></trkpt><trkpt lat="45.9921598" lon="12.4487094"><ele>306.0</ele><time>2026-04-04T09:12:40.055Z</time></trkpt><trkpt lat="45.9921083" lon="12.4486354"><ele>306.0</ele><time>2026-04-04T09:12:41.054Z</time></trkpt><trkpt lat="45.9920747" lon="12.4485526"><ele>306.0</ele><time>2026-04-04T09:12:42.053Z</time></trkpt><trkpt lat="45.9920055" lon="12.4484546"><ele>306.0</ele><time>2026-04-04T09:12:44.054Z</time></trkpt><trkpt lat="45.9919346" lon="12.4484318"><ele>306.0</ele><time>2026-04-04T09:12:47.054Z</time></trkpt><trkpt lat="45.991871" lon="12.4484427"><ele>306.0</ele><time>2026-04-04T09:12:50.055Z</time></trkpt><trkpt lat="45.9918194" lon="12.4485013"><ele>306.0</ele><time>2026-04-04T09:13:02.054Z</time></trkpt><trkpt lat="45.9917952" lon="12.4486055"><ele>306.0</ele><time>2026-04-04T09:13:06.055Z</time></trkpt><trkpt lat="45.9918096" lon="12.4486957"><ele>306.0</ele><time>2026-04-04T09:13:27.054Z</time></trkpt><trkpt lat="45.9918363" lon="12.4487808"><ele>306.0</ele><time>2026-04-04T09:13:32.054Z</time></trkpt><trkpt lat="45.9918978" lon="12.4488283"><ele>306.0</ele><time>2026-04-04T09:21:36.053Z</time></trkpt><trkpt lat="45.9919618" lon="12.4488872"><ele>306.0</ele><time>2026-04-04T09:21:38.053Z</time></trkpt><trkpt lat="45.9920433" lon="12.4489655"><ele>306.0</ele><time>2026-04-04T09:21:40.053Z</time></trkpt><trkpt lat="45.9921426" lon="12.44905"><ele>304.0</ele><time>2026-04-04T09:21:42.053Z</time></trkpt><trkpt lat="45.992202" lon="12.4490896"><ele>302.0</ele><time>2026-04-04T09:21:43.055Z</time></trkpt><trkpt lat="45.9922728" lon="12.4491153"><ele>300.0</ele><time>2026-04-04T09:21:44.055Z</time></trkpt><trkpt lat="45.9923574" lon="12.4491005"><ele>298.0</ele><time>2026-04-04T09:21:45.052Z</time></trkpt><trkpt lat="45.9924407" lon="12.4490793"><ele>296.0</ele><time>2026-04-04T09:21:46.054Z</time></trkpt><trkpt lat="45.9925189" lon="12.4490437"><ele>294.0</ele><time>2026-04-04T09:21:47.054Z</time></trkpt><trkpt lat="45.9925929" lon="12.4490353"><ele>294.0</ele><time>2026-04-04T09:21:48.054Z</time></trkpt><trkpt lat="45.9926579" lon="12.4490759"><ele>294.0</ele><time>2026-04-04T09:21:49.054Z</time></trkpt><trkpt lat="45.9927185" lon="12.4491461"><ele>294.0</ele><time>2026-04-04T09:21:50.054Z</time></trkpt><trkpt lat="45.9927596" lon="12.4492503"><ele>294.0</ele><time>2026-04-04T09:21:51.054Z</time></trkpt><trkpt lat="45.9927971" lon="12.4493601"><ele>294.0</ele><time>2026-04-04T09:21:52.053Z</time></trkpt><trkpt lat="45.9928555" lon="12.4494559"><ele>294.0</ele><time>2026-04-04T09:21:53.054Z</time></trkpt><trkpt lat="45.992927" lon="12.4495138"><ele>294.0</ele><time>2026-04-04T09:21:54.053Z</time></trkpt><trkpt lat="45.9930012" lon="12.4495447"><ele>294.0</ele><time>2026-04-04T09:21:55.053Z</time></trkpt><trkpt lat="45.9930747" lon="12.4495665"><ele>294.0</ele><time>2026-04-04T09:21:56.054Z</time></trkpt><trkpt lat="45.9931394" lon="12.4495722"><ele>294.0</ele><time>2026-04-04T09:21:57.054Z</time></trkpt><trkpt lat="45.993234" lon="12.4496013"><ele>294.0</ele><time>2026-04-04T09:21:59.054Z</time></trkpt><trkpt lat="45.9932391" lon="12.4497054"><ele>294.0</ele><time>2026-04-04T09:22:01.055Z</time></trkpt><trkpt lat="45.9931627" lon="12.4497402"><ele>294.0</ele><time>2026-04-04T09:22:03.054Z</time></trkpt><trkpt lat="45.9930322" lon="12.4497079"><ele>294.0</ele><time>2026-04-04T09:22:05.055Z</time></trkpt><trkpt lat="45.9929633" lon="12.449695"><ele>294.0</ele><time>2026-04-04T09:22:06.053Z</time></trkpt><trkpt lat="45.9928905" lon="12.4496807"><ele>294.0</ele><time>2026-04-04T09:22:07.054Z</time></trkpt><trkpt lat="45.9928128" lon="12.4496672"><ele>294.0</ele><time>2026-04-04T09:22:08.053Z</time></trkpt><trkpt lat="45.9927459" lon="12.4496409"><ele>294.0</ele><time>2026-04-04T09:22:09.054Z</time></trkpt><trkpt lat="45.9926849" lon="12.4495912"><ele>294.0</ele><time>2026-04-04T09:22:10.053Z</time></trkpt><trkpt lat="45.9926207" lon="12.4495335"><ele>294.0</ele><time>2026-04-04T09:22:11.053Z</time></trkpt><trkpt lat="45.9925596" lon="12.4494861"><ele>294.0</ele><time>2026-04-04T09:22:12.054Z</time></trkpt><trkpt lat="45.9924876" lon="12.4494817"><ele>294.0</ele><time>2026-04-04T09:22:13.053Z</time></trkpt><trkpt lat="45.9924141" lon="12.4495227"><ele>294.0</ele><time>2026-04-04T09:22:14.053Z</time></trkpt><trkpt lat="45.9923458" lon="12.4495766"><ele>294.0</ele><time>2026-04-04T09:22:15.053Z</time></trkpt><trkpt lat="45.9922772" lon="12.44963"><ele>289.0</ele><time>2026-04-04T09:22:16.053Z</time></trkpt><trkpt lat="45.9922077" lon="12.4496875"><ele>284.0</ele><time>2026-04-04T09:22:17.053Z</time></trkpt><trkpt lat="45.9921241" lon="12.4497302"><ele>279.0</ele><time>2026-04-04T09:22:18.054Z</time></trkpt><trkpt lat="45.992036" lon="12.4497643"><ele>274.0</ele><time>2026-04-04T09:22:19.054Z</time></trkpt><trkpt lat="45.9919417" lon="12.4497772"><ele>269.0</ele><time>2026-04-04T09:22:20.054Z</time></trkpt><trkpt lat="45.9918502" lon="12.4497699"><ele>264.0</ele><time>2026-04-04T09:22:21.053Z</time></trkpt><trkpt lat="45.9917713" lon="12.4497579"><ele>264.0</ele><time>2026-04-04T09:22:22.053Z</time></trkpt><trkpt lat="45.99169" lon="12.4497403"><ele>264.0</ele><time>2026-04-04T09:22:23.054Z</time></trkpt><trkpt lat="45.9916118" lon="12.4497237"><ele>264.0</ele><time>2026-04-04T09:22:24.052Z</time></trkpt><trkpt lat="45.991535" lon="12.449714"><ele>264.0</ele><time>2026-04-04T09:22:25.052Z</time></trkpt><trkpt lat="45.9914513" lon="12.4497013"><ele>264.0</ele><time>2026-04-04T09:22:26.053Z</time></trkpt><trkpt lat="45.9913711" lon="12.4496852"><ele>264.0</ele><time>2026-04-04T09:22:27.053Z</time></trkpt><trkpt lat="45.9912829" lon="12.4496577"><ele>266.8333333333333</ele><time>2026-04-04T09:22:28.054Z</time></trkpt><trkpt lat="45.991198" lon="12.4496087"><ele>269.6666666666667</ele><time>2026-04-04T09:22:29.054Z</time></trkpt><trkpt lat="45.9911229" lon="12.4495327"><ele>272.5</ele><time>2026-04-04T09:22:30.054Z</time></trkpt><trkpt lat="45.991064" lon="12.4494407"><ele>275.33333333333337</ele><time>2026-04-04T09:22:31.054Z</time></trkpt><trkpt lat="45.9910203" lon="12.4493427"><ele>278.1666666666667</ele><time>2026-04-04T09:22:32.054Z</time></trkpt><trkpt lat="45.9909882" lon="12.4492464"><ele>281.0</ele><time>2026-04-04T09:22:33.053Z</time></trkpt><trkpt lat="45.9909535" lon="12.4491646"><ele>281.0</ele><time>2026-04-04T09:22:34.053Z</time></trkpt><trkpt lat="45.9908558" lon="12.4490996"><ele>281.0</ele><time>2026-04-04T09:22:36.054Z</time></trkpt><trkpt lat="45.9907842" lon="12.4492204"><ele>281.0</ele><time>2026-04-04T09:22:38.053Z</time></trkpt><trkpt lat="45.990798" lon="12.4493146"><ele>281.0</ele><time>2026-04-04T09:22:39.052Z</time></trkpt><trkpt lat="45.9908361" lon="12.449403"><ele>281.0</ele><time>2026-04-04T09:22:40.053Z</time></trkpt><trkpt lat="45.9908973" lon="12.4494916"><ele>281.0</ele><time>2026-04-04T09:22:41.053Z</time></trkpt><trkpt lat="45.9909579" lon="12.4495859"><ele>275.6</ele><time>2026-04-04T09:22:42.053Z</time></trkpt><trkpt lat="45.9910154" lon="12.4496905"><ele>270.20000000000005</ele><time>2026-04-04T09:22:43.053Z</time></trkpt><trkpt lat="45.9910729" lon="12.4497961"><ele>264.79999999999995</ele><time>2026-04-04T09:22:44.053Z</time></trkpt><trkpt lat="45.9911585" lon="12.4498875"><ele>259.4</ele><time>2026-04-04T09:22:45.053Z</time></trkpt><trkpt lat="45.9912524" lon="12.4499747"><ele>254.0</ele><time>2026-04-04T09:22:46.054Z</time></trkpt><trkpt lat="45.991357" lon="12.450046"><ele>254.0</ele><time>2026-04-04T09:22:47.052Z</time></trkpt><trkpt lat="45.9914595" lon="12.4501167"><ele>253.99999999999997</ele><time>2026-04-04T09:22:48.053Z</time></trkpt><trkpt lat="45.9915571" lon="12.450184"><ele>253.99999999999997</ele><time>2026-04-04T09:22:49.053Z</time></trkpt><trkpt lat="45.9916484" lon="12.4502547"><ele>254.0</ele><time>2026-04-04T09:22:50.053Z</time></trkpt><trkpt lat="45.9917305" lon="12.450338"><ele>254.0</ele><time>2026-04-04T09:22:51.054Z</time></trkpt><trkpt lat="45.9918084" lon="12.4504276"><ele>252.16666666666669</ele><time>2026-04-04T09:22:52.054Z</time></trkpt><trkpt lat="45.9918747" lon="12.4505265"><ele>250.33333333333334</ele><time>2026-04-04T09:22:53.052Z</time></trkpt><trkpt lat="45.9919207" lon="12.4506343"><ele>248.5</ele><time>2026-04-04T09:22:54.054Z</time></trkpt><trkpt lat="45.9919364" lon="12.4507552"><ele>246.66666666666669</ele><time>2026-04-04T09:22:55.053Z</time></trkpt><trkpt lat="45.9919188" lon="12.450876"><ele>244.83333333333334</ele><time>2026-04-04T09:22:56.054Z</time></trkpt><trkpt lat="45.9918636" lon="12.4509771"><ele>243.0</ele><time>2026-04-04T09:22:57.053Z</time></trkpt><trkpt lat="45.9917809" lon="12.4510509"><ele>243.0</ele><time>2026-04-04T09:22:58.054Z</time></trkpt><trkpt lat="45.9916828" lon="12.4511133"><ele>243.0</ele><time>2026-04-04T09:22:59.053Z</time></trkpt><trkpt lat="45.991579" lon="12.4511719"><ele>243.0</ele><time>2026-04-04T09:23:00.054Z</time></trkpt><trkpt lat="45.9914732" lon="12.4512324"><ele>243.0</ele><time>2026-04-04T09:23:01.055Z</time></trkpt><trkpt lat="45.9913685" lon="12.4512959"><ele>243.0</ele><time>2026-04-04T09:23:02.053Z</time></trkpt><trkpt lat="45.9912676" lon="12.4513595"><ele>242.2</ele><time>2026-04-04T09:23:03.054Z</time></trkpt><trkpt lat="45.9911725" lon="12.4514272"><ele>241.4</ele><time>2026-04-04T09:23:04.054Z</time></trkpt><trkpt lat="45.9910969" lon="12.4515164"><ele>240.59999999999997</ele><time>2026-04-04T09:23:05.053Z</time></trkpt><trkpt lat="45.9910499" lon="12.4516318"><ele>239.79999999999998</ele><time>2026-04-04T09:23:06.053Z</time></trkpt><trkpt lat="45.9910314" lon="12.4517726"><ele>239.0</ele><time>2026-04-04T09:23:07.054Z</time></trkpt><trkpt lat="45.991008" lon="12.4519096"><ele>239.0</ele><time>2026-04-04T09:23:08.054Z</time></trkpt><trkpt lat="45.9909871" lon="12.4520622"><ele>238.99999999999997</ele><time>2026-04-04T09:23:09.053Z</time></trkpt><trkpt lat="45.9909584" lon="12.4522147"><ele>238.99999999999997</ele><time>2026-04-04T09:23:10.052Z</time></trkpt><trkpt lat="45.9909147" lon="12.4523566"><ele>239.0</ele><time>2026-04-04T09:23:11.055Z</time></trkpt><trkpt lat="45.9908569" lon="12.4524743"><ele>239.0</ele><time>2026-04-04T09:23:12.054Z</time></trkpt><trkpt lat="45.9907846" lon="12.4525706"><ele>236.6</ele><time>2026-04-04T09:23:13.053Z</time></trkpt><trkpt lat="45.9906975" lon="12.4526363"><ele>234.2</ele><time>2026-04-04T09:23:14.054Z</time></trkpt><trkpt lat="45.9906006" lon="12.4526759"><ele>231.79999999999998</ele><time>2026-04-04T09:23:15.053Z</time></trkpt><trkpt lat="45.9905066" lon="12.4527014"><ele>229.39999999999998</ele><time>2026-04-04T09:23:16.054Z</time></trkpt><trkpt lat="45.9904193" lon="12.4527506"><ele>227.0</ele><time>2026-04-04T09:23:17.053Z</time></trkpt><trkpt lat="45.9903542" lon="12.4528375"><ele>227.00000000000003</ele><time>2026-04-04T09:23:18.053Z</time></trkpt><trkpt lat="45.9903147" lon="12.4529405"><ele>227.0</ele><time>2026-04-04T09:23:19.055Z</time></trkpt><trkpt lat="45.9902916" lon="12.4530668"><ele>227.0</ele><time>2026-04-04T09:23:20.052Z</time></trkpt><trkpt lat="45.9902749" lon="12.4531927"><ele>227.0</ele><time>2026-04-04T09:23:21.053Z</time></trkpt><trkpt lat="45.9902557" lon="12.4533027"><ele>227.00000000000003</ele><time>2026-04-04T09:23:22.053Z</time></trkpt><trkpt lat="45.9902282" lon="12.4534073"><ele>227.0</ele><time>2026-04-04T09:23:23.053Z</time></trkpt><trkpt lat="45.9901942" lon="12.4534876"><ele>228.5</ele><time>2026-04-04T09:23:24.052Z</time></trkpt><trkpt lat="45.9901183" lon="12.4536076"><ele>230.0</ele><time>2026-04-04T09:23:26.054Z</time></trkpt><trkpt lat="45.9900184" lon="12.4536829"><ele>231.5</ele><time>2026-04-04T09:23:28.053Z</time></trkpt><trkpt lat="45.9898915" lon="12.4536467"><ele>233.0</ele><time>2026-04-04T09:23:30.053Z</time></trkpt><trkpt lat="45.9897681" lon="12.4536187"><ele>230.00000000000003</ele><time>2026-04-04T09:23:32.053Z</time></trkpt><trkpt lat="45.9897112" lon="12.4536618"><ele>227.0</ele><time>2026-04-04T09:23:33.054Z</time></trkpt><trkpt lat="45.989683" lon="12.453744"><ele>224.0</ele><time>2026-04-04T09:23:34.053Z</time></trkpt><trkpt lat="45.9896972" lon="12.4539177"><ele>221.0</ele><time>2026-04-04T09:23:36.055Z</time></trkpt><trkpt lat="45.9897385" lon="12.4540016"><ele>218.00000000000003</ele><time>2026-04-04T09:23:37.055Z</time></trkpt><trkpt lat="45.9897823" lon="12.4540926"><ele>215.0</ele><time>2026-04-04T09:23:38.053Z</time></trkpt><trkpt lat="45.9898351" lon="12.4541956"><ele>214.6</ele><time>2026-04-04T09:23:39.053Z</time></trkpt><trkpt lat="45.9898743" lon="12.4543209"><ele>214.2</ele><time>2026-04-04T09:23:40.053Z</time></trkpt><trkpt lat="45.9898833" lon="12.454468"><ele>213.8</ele><time>2026-04-04T09:23:41.055Z</time></trkpt><trkpt lat="45.9899083" lon="12.4546142"><ele>213.4</ele><time>2026-04-04T09:23:42.052Z</time></trkpt><trkpt lat="45.9899439" lon="12.4547799"><ele>213.0</ele><time>2026-04-04T09:23:43.055Z</time></trkpt><trkpt lat="45.9899722" lon="12.4549344"><ele>210.8</ele><time>2026-04-04T09:23:44.053Z</time></trkpt><trkpt lat="45.9900147" lon="12.4550629"><ele>208.60000000000002</ele><time>2026-04-04T09:23:45.053Z</time></trkpt><trkpt lat="45.9900775" lon="12.4551632"><ele>206.39999999999998</ele><time>2026-04-04T09:23:46.054Z</time></trkpt><trkpt lat="45.9901548" lon="12.4552376"><ele>204.2</ele><time>2026-04-04T09:23:47.053Z</time></trkpt><trkpt lat="45.9902529" lon="12.4552795"><ele>202.0</ele><time>2026-04-04T09:23:48.054Z</time></trkpt><trkpt lat="45.9903548" lon="12.4552839"><ele>202.0</ele><time>2026-04-04T09:23:49.054Z</time></trkpt><trkpt lat="45.9904692" lon="12.4552706"><ele>202.0</ele><time>2026-04-04T09:23:50.053Z</time></trkpt><trkpt lat="45.9905889" lon="12.4552491"><ele>202.0</ele><time>2026-04-04T09:23:51.053Z</time></trkpt><trkpt lat="45.9907105" lon="12.4552067"><ele>202.0</ele><time>2026-04-04T09:23:52.054Z</time></trkpt><trkpt lat="45.9908311" lon="12.4551374"><ele>193.25</ele><time>2026-04-04T09:23:53.041Z</time></trkpt><trkpt lat="45.9909481" lon="12.4550584"><ele>184.5</ele><time>2026-04-04T09:23:54.053Z</time></trkpt><trkpt lat="45.9910618" lon="12.4549714"><ele>175.75</ele><time>2026-04-04T09:23:55.052Z</time></trkpt><trkpt lat="45.991167" lon="12.4548722"><ele>167.0</ele><time>2026-04-04T09:23:56.054Z</time></trkpt><trkpt lat="45.9912731" lon="12.4547695"><ele>167.0</ele><time>2026-04-04T09:23:57.054Z</time></trkpt><trkpt lat="45.991369" lon="12.4546571"><ele>167.0</ele><time>2026-04-04T09:23:58.053Z</time></trkpt><trkpt lat="45.9914577" lon="12.45454"><ele>167.0</ele><time>2026-04-04T09:23:59.053Z</time></trkpt><trkpt lat="45.991545" lon="12.4544261"><ele>167.0</ele><time>2026-04-04T09:24:00.053Z</time></trkpt><trkpt lat="45.9916278" lon="12.4543061"><ele>165.6</ele><time>2026-04-04T09:24:01.055Z</time></trkpt><trkpt lat="45.9917069" lon="12.4541924"><ele>164.2</ele><time>2026-04-04T09:24:02.055Z</time></trkpt><trkpt lat="45.9917782" lon="12.4540713"><ele>162.8</ele><time>2026-04-04T09:24:03.053Z</time></trkpt><trkpt lat="45.9918483" lon="12.453955"><ele>161.4</ele><time>2026-04-04T09:24:04.053Z</time></trkpt><trkpt lat="45.9919205" lon="12.453843"><ele>160.0</ele><time>2026-04-04T09:24:05.053Z</time></trkpt><trkpt lat="45.9919967" lon="12.4537272"><ele>163.8</ele><time>2026-04-04T09:24:06.053Z</time></trkpt><trkpt lat="45.9920673" lon="12.4536148"><ele>167.6</ele><time>2026-04-04T09:24:07.054Z</time></trkpt><trkpt lat="45.9921391" lon="12.4535054"><ele>171.39999999999998</ele><time>2026-04-04T09:24:08.053Z</time></trkpt><trkpt lat="45.9922173" lon="12.4533908"><ele>175.2</ele><time>2026-04-04T09:24:09.055Z</time></trkpt><trkpt lat="45.9922846" lon="12.4532772"><ele>179.0</ele><time>2026-04-04T09:24:10.053Z</time></trkpt><trkpt lat="45.9923608" lon="12.453169"><ele>179.0</ele><time>2026-04-04T09:24:11.053Z</time></trkpt><trkpt lat="45.9924342" lon="12.4530653"><ele>179.0</ele><time>2026-04-04T09:24:12.052Z</time></trkpt><trkpt lat="45.9925039" lon="12.4529507"><ele>179.0</ele><time>2026-04-04T09:24:13.054Z</time></trkpt><trkpt lat="45.9925649" lon="12.4528507"><ele>179.0</ele><time>2026-04-04T09:24:14.055Z</time></trkpt><trkpt lat="45.9926199" lon="12.4527461"><ele>179.0</ele><time>2026-04-04T09:24:15.054Z</time></trkpt><trkpt lat="45.9926697" lon="12.4526507"><ele>181.42857142857144</ele><time>2026-04-04T09:24:16.054Z</time></trkpt><trkpt lat="45.9927184" lon="12.4525669"><ele>183.85714285714286</ele><time>2026-04-04T09:24:17.054Z</time></trkpt><trkpt lat="45.9927763" lon="12.4525097"><ele>186.28571428571428</ele><time>2026-04-04T09:24:18.054Z</time></trkpt><trkpt lat="45.9928417" lon="12.4524921"><ele>188.71428571428572</ele><time>2026-04-04T09:24:19.055Z</time></trkpt><trkpt lat="45.9929148" lon="12.4525154"><ele>191.14285714285714</ele><time>2026-04-04T09:24:20.054Z</time></trkpt><trkpt lat="45.9929758" lon="12.452569"><ele>193.57142857142858</ele><time>2026-04-04T09:24:21.054Z</time></trkpt><trkpt lat="45.993016" lon="12.4526596"><ele>196.0</ele><time>2026-04-04T09:24:22.054Z</time></trkpt><trkpt lat="45.993027" lon="12.4527742"><ele>196.0</ele><time>2026-04-04T09:24:23.054Z</time></trkpt><trkpt lat="45.9930191" lon="12.4529075"><ele>196.0</ele><time>2026-04-04T09:24:24.055Z</time></trkpt><trkpt lat="45.9930038" lon="12.4530553"><ele>196.0</ele><time>2026-04-04T09:24:25.053Z</time></trkpt><trkpt lat="45.9929757" lon="12.4532174"><ele>196.0</ele><time>2026-04-04T09:24:26.053Z</time></trkpt><trkpt lat="45.9929545" lon="12.4533931"><ele>196.0</ele><time>2026-04-04T09:24:27.053Z</time></trkpt><trkpt lat="45.9929278" lon="12.4535615"><ele>196.5</ele><time>2026-04-04T09:24:28.053Z</time></trkpt><trkpt lat="45.9929058" lon="12.4537274"><ele>197.0</ele><time>2026-04-04T09:24:29.054Z</time></trkpt><trkpt lat="45.9928887" lon="12.4538944"><ele>197.5</ele><time>2026-04-04T09:24:30.055Z</time></trkpt><trkpt lat="45.9928722" lon="12.4540554"><ele>198.0</ele><time>2026-04-04T09:24:31.053Z</time></trkpt><trkpt lat="45.9928595" lon="12.454221"><ele>196.75</ele><time>2026-04-04T09:24:32.053Z</time></trkpt><trkpt lat="45.9928598" lon="12.4544084"><ele>195.5</ele><time>2026-04-04T09:24:33.052Z</time></trkpt><trkpt lat="45.9928712" lon="12.4546064"><ele>194.25</ele><time>2026-04-04T09:24:34.054Z</time></trkpt><trkpt lat="45.9928911" lon="12.4548079"><ele>193.0</ele><time>2026-04-04T09:24:35.052Z</time></trkpt><trkpt lat="45.9929174" lon="12.4550112"><ele>190.25</ele><time>2026-04-04T09:24:36.054Z</time></trkpt><trkpt lat="45.9929388" lon="12.4552159"><ele>187.5</ele><time>2026-04-04T09:24:37.054Z</time></trkpt><trkpt lat="45.9929591" lon="12.45542"><ele>184.75</ele><time>2026-04-04T09:24:38.053Z</time></trkpt><trkpt lat="45.9929811" lon="12.4556173"><ele>182.0</ele><time>2026-04-04T09:24:39.054Z</time></trkpt><trkpt lat="45.9929939" lon="12.4557969"><ele>180.8</ele><time>2026-04-04T09:24:40.055Z</time></trkpt><trkpt lat="45.9930063" lon="12.4559642"><ele>179.6</ele><time>2026-04-04T09:24:41.055Z</time></trkpt><trkpt lat="45.9930182" lon="12.4561229"><ele>178.4</ele><time>2026-04-04T09:24:42.054Z</time></trkpt><trkpt lat="45.99303" lon="12.4562713"><ele>177.20000000000002</ele><time>2026-04-04T09:24:43.054Z</time></trkpt><trkpt lat="45.9930432" lon="12.4564127"><ele>176.0</ele><time>2026-04-04T09:24:44.053Z</time></trkpt><trkpt lat="45.9930573" lon="12.4565559"><ele>173.0</ele><time>2026-04-04T09:24:45.054Z</time></trkpt><trkpt lat="45.9930823" lon="12.4566935"><ele>170.0</ele><time>2026-04-04T09:24:46.054Z</time></trkpt><trkpt lat="45.993114" lon="12.4568376"><ele>167.0</ele><time>2026-04-04T09:24:47.053Z</time></trkpt><trkpt lat="45.9931504" lon="12.4569699"><ele>164.0</ele><time>2026-04-04T09:24:48.054Z</time></trkpt><trkpt lat="45.993185" lon="12.4570902"><ele>161.0</ele><time>2026-04-04T09:24:49.054Z</time></trkpt><trkpt lat="45.9932113" lon="12.4572026"><ele>158.83333333333331</ele><time>2026-04-04T09:24:50.055Z</time></trkpt><trkpt lat="45.9932233" lon="12.4573191"><ele>156.66666666666666</ele><time>2026-04-04T09:24:51.054Z</time></trkpt><trkpt lat="45.9932254" lon="12.4574381"><ele>154.5</ele><time>2026-04-04T09:24:52.054Z</time></trkpt><trkpt lat="45.9932399" lon="12.4575583"><ele>152.33333333333334</ele><time>2026-04-04T09:24:53.053Z</time></trkpt><trkpt lat="45.9932674" lon="12.4576887"><ele>150.16666666666669</ele><time>2026-04-04T09:24:54.054Z</time></trkpt><trkpt lat="45.9933056" lon="12.4578276"><ele>148.0</ele><time>2026-04-04T09:24:55.053Z</time></trkpt><trkpt lat="45.9933572" lon="12.4579746"><ele>148.0</ele><time>2026-04-04T09:24:56.054Z</time></trkpt><trkpt lat="45.9934248" lon="12.4581314"><ele>148.0</ele><time>2026-04-04T09:24:57.053Z</time></trkpt><trkpt lat="45.9935091" lon="12.4582914"><ele>148.0</ele><time>2026-04-04T09:24:58.054Z</time></trkpt><trkpt lat="45.9936088" lon="12.4584414"><ele>148.0</ele><time>2026-04-04T09:24:59.055Z</time></trkpt><trkpt lat="45.9937268" lon="12.4585834"><ele>148.0</ele><time>2026-04-04T09:25:00.054Z</time></trkpt><trkpt lat="45.9938634" lon="12.4587182"><ele>148.0</ele><time>2026-04-04T09:25:01.054Z</time></trkpt><trkpt lat="45.9940048" lon="12.4588479"><ele>148.0</ele><time>2026-04-04T09:25:02.054Z</time></trkpt><trkpt lat="45.9941412" lon="12.4589661"><ele>148.0</ele><time>2026-04-04T09:25:03.054Z</time></trkpt><trkpt lat="45.9942712" lon="12.4590831"><ele>148.0</ele><time>2026-04-04T09:25:04.054Z</time></trkpt><trkpt lat="45.9943928" lon="12.459202"><ele>148.0</ele><time>2026-04-04T09:25:05.054Z</time></trkpt><trkpt lat="45.994504" lon="12.4593413"><ele>148.0</ele><time>2026-04-04T09:25:06.054Z</time></trkpt><trkpt lat="45.9946095" lon="12.4595108"><ele>145.66666666666669</ele><time>2026-04-04T09:25:07.055Z</time></trkpt><trkpt lat="45.994712" lon="12.4596955"><ele>143.33333333333334</ele><time>2026-04-04T09:25:08.054Z</time></trkpt><trkpt lat="45.9947989" lon="12.4598981"><ele>141.0</ele><time>2026-04-04T09:25:09.054Z</time></trkpt><trkpt lat="45.9948878" lon="12.4600906"><ele>141.0</ele><time>2026-04-04T09:25:10.053Z</time></trkpt><trkpt lat="45.9949766" lon="12.4602748"><ele>141.0</ele><time>2026-04-04T09:25:11.053Z</time></trkpt><trkpt lat="45.9950529" lon="12.4604677"><ele>141.0</ele><time>2026-04-04T09:25:12.054Z</time></trkpt><trkpt lat="45.9951027" lon="12.4606641"><ele>141.5</ele><time>2026-04-04T09:25:13.055Z</time></trkpt><trkpt lat="45.9951491" lon="12.4608414"><ele>142.0</ele><time>2026-04-04T09:25:14.055Z</time></trkpt><trkpt lat="45.995192" lon="12.4610068"><ele>142.5</ele><time>2026-04-04T09:25:15.053Z</time></trkpt><trkpt lat="45.9952282" lon="12.4611686"><ele>143.0</ele><time>2026-04-04T09:25:16.054Z</time></trkpt><trkpt lat="45.9952665" lon="12.4613379"><ele>141.0</ele><time>2026-04-04T09:25:17.055Z</time></trkpt><trkpt lat="45.9953072" lon="12.4615111"><ele>139.0</ele><time>2026-04-04T09:25:18.054Z</time></trkpt><trkpt lat="45.9953499" lon="12.4616959"><ele>137.0</ele><time>2026-04-04T09:25:19.054Z</time></trkpt><trkpt lat="45.9953967" lon="12.461889"><ele>135.0</ele><time>2026-04-04T09:25:20.054Z</time></trkpt><trkpt lat="45.9954477" lon="12.4620878"><ele>132.0</ele><time>2026-04-04T09:25:21.053Z</time></trkpt><trkpt lat="45.9954965" lon="12.4622989"><ele>129.0</ele><time>2026-04-04T09:25:22.055Z</time></trkpt><trkpt lat="45.995548" lon="12.4625061"><ele>126.0</ele><time>2026-04-04T09:25:23.054Z</time></trkpt><trkpt lat="45.9955945" lon="12.4626879"><ele>123.0</ele><time>2026-04-04T09:25:24.054Z</time></trkpt><trkpt lat="45.9956436" lon="12.4628557"><ele>121.60000000000001</ele><time>2026-04-04T09:25:25.053Z</time></trkpt><trkpt lat="45.9956905" lon="12.4630091"><ele>120.20000000000002</ele><time>2026-04-04T09:25:26.053Z</time></trkpt><trkpt lat="45.9957345" lon="12.4631532"><ele>118.8</ele><time>2026-04-04T09:25:27.054Z</time></trkpt><trkpt lat="45.9957768" lon="12.4633003"><ele>117.4</ele><time>2026-04-04T09:25:28.053Z</time></trkpt><trkpt lat="45.995819" lon="12.4634401"><ele>116.0</ele><time>2026-04-04T09:25:29.054Z</time></trkpt><trkpt lat="45.9958602" lon="12.4635636"><ele>115.8</ele><time>2026-04-04T09:25:30.055Z</time></trkpt><trkpt lat="45.9958997" lon="12.4636778"><ele>115.6</ele><time>2026-04-04T09:25:31.054Z</time></trkpt><trkpt lat="45.9959376" lon="12.4637751"><ele>115.4</ele><time>2026-04-04T09:25:32.054Z</time></trkpt><trkpt lat="45.9959756" lon="12.4639332"><ele>115.2</ele><time>2026-04-04T09:25:34.054Z</time></trkpt><trkpt lat="45.9959531" lon="12.4640654"><ele>115.0</ele><time>2026-04-04T09:25:36.052Z</time></trkpt><trkpt lat="45.9958642" lon="12.4641605"><ele>114.16666666666667</ele><time>2026-04-04T09:25:38.053Z</time></trkpt><trkpt lat="45.9957974" lon="12.4641974"><ele>113.33333333333334</ele><time>2026-04-04T09:25:39.053Z</time></trkpt><trkpt lat="45.9957268" lon="12.4642468"><ele>112.5</ele><time>2026-04-04T09:25:40.055Z</time></trkpt><trkpt lat="45.9956517" lon="12.4642989"><ele>111.66666666666666</ele><time>2026-04-04T09:25:41.054Z</time></trkpt><trkpt lat="45.9955746" lon="12.4643426"><ele>110.83333333333333</ele><time>2026-04-04T09:25:42.054Z</time></trkpt><trkpt lat="45.9954938" lon="12.4643785"><ele>110.0</ele><time>2026-04-04T09:25:43.053Z</time></trkpt><trkpt lat="45.9954249" lon="12.4644133"><ele>109.99999999999999</ele><time>2026-04-04T09:25:44.054Z</time></trkpt><trkpt lat="45.9953636" lon="12.4644385"><ele>110.0</ele><time>2026-04-04T09:25:45.055Z</time></trkpt><trkpt lat="45.9952615" lon="12.4644753"><ele>110.0</ele><time>2026-04-04T09:25:47.054Z</time></trkpt><trkpt lat="45.9951902" lon="12.4644827"><ele>110.0</ele><time>2026-04-04T09:25:49.054Z</time></trkpt><trkpt lat="45.9951167" lon="12.464488"><ele>109.99999999999999</ele><time>2026-04-04T09:25:52.054Z</time></trkpt><trkpt lat="45.9950386" lon="12.4645266"><ele>110.0</ele><time>2026-04-04T09:25:54.055Z</time></trkpt><trkpt lat="45.9949386" lon="12.4646328"><ele>109.33333333333333</ele><time>2026-04-04T09:25:56.052Z</time></trkpt><trkpt lat="45.9948763" lon="12.4646829"><ele>108.66666666666666</ele><time>2026-04-04T09:25:57.055Z</time></trkpt><trkpt lat="45.9948057" lon="12.4647245"><ele>108.0</ele><time>2026-04-04T09:25:58.054Z</time></trkpt><trkpt lat="45.9947296" lon="12.4647657"><ele>107.33333333333334</ele><time>2026-04-04T09:25:59.053Z</time></trkpt><trkpt lat="45.9946544" lon="12.4648154"><ele>106.66666666666667</ele><time>2026-04-04T09:26:00.055Z</time></trkpt><trkpt lat="45.994566" lon="12.4648749"><ele>106.0</ele><time>2026-04-04T09:26:01.055Z</time></trkpt><trkpt lat="45.9944809" lon="12.4649214"><ele>106.00000000000001</ele><time>2026-04-04T09:26:02.054Z</time></trkpt><trkpt lat="45.9944016" lon="12.4649716"><ele>106.0</ele><time>2026-04-04T09:26:03.053Z</time></trkpt><trkpt lat="45.9943333" lon="12.4650154"><ele>106.0</ele><time>2026-04-04T09:26:04.055Z</time></trkpt><trkpt lat="45.9942704" lon="12.4650492"><ele>106.0</ele><time>2026-04-04T09:26:05.054Z</time></trkpt><trkpt lat="45.994207" lon="12.4650885"><ele>106.00000000000001</ele><time>2026-04-04T09:26:06.053Z</time></trkpt><trkpt lat="45.9941368" lon="12.4651311"><ele>106.0</ele><time>2026-04-04T09:26:07.055Z</time></trkpt><trkpt lat="45.9940613" lon="12.4651749"><ele>105.6</ele><time>2026-04-04T09:26:08.055Z</time></trkpt><trkpt lat="45.9939877" lon="12.4652183"><ele>105.19999999999999</ele><time>2026-04-04T09:26:09.054Z</time></trkpt><trkpt lat="45.9939164" lon="12.4652597"><ele>104.80000000000001</ele><time>2026-04-04T09:26:10.054Z</time></trkpt><trkpt lat="45.9938473" lon="12.4652913"><ele>104.4</ele><time>2026-04-04T09:26:11.054Z</time></trkpt><trkpt lat="45.993725" lon="12.4653362"><ele>104.0</ele><time>2026-04-04T09:26:13.054Z</time></trkpt><trkpt lat="45.9936122" lon="12.465374"><ele>103.99999999999999</ele><time>2026-04-04T09:26:15.054Z</time></trkpt><trkpt lat="45.9935139" lon="12.4654001"><ele>104.0</ele><time>2026-04-04T09:26:17.054Z</time></trkpt><trkpt lat="45.9934309" lon="12.4654338"><ele>104.0</ele><time>2026-04-04T09:26:19.055Z</time></trkpt><trkpt lat="45.9933375" lon="12.4654885"><ele>104.0</ele><time>2026-04-04T09:26:21.055Z</time></trkpt><trkpt lat="45.9932721" lon="12.4655385"><ele>103.99999999999999</ele><time>2026-04-04T09:26:22.052Z</time></trkpt><trkpt lat="45.9932024" lon="12.4655961"><ele>104.0</ele><time>2026-04-04T09:26:23.054Z</time></trkpt><trkpt lat="45.9931216" lon="12.4656508"><ele>102.80000000000001</ele><time>2026-04-04T09:26:24.055Z</time></trkpt><trkpt lat="45.9930375" lon="12.4657049"><ele>101.60000000000001</ele><time>2026-04-04T09:26:25.053Z</time></trkpt><trkpt lat="45.99295" lon="12.465756"><ele>100.4</ele><time>2026-04-04T09:26:26.055Z</time></trkpt><trkpt lat="45.9928618" lon="12.4658034"><ele>99.2</ele><time>2026-04-04T09:26:27.053Z</time></trkpt><trkpt lat="45.9927575" lon="12.46587"><ele>98.0</ele><time>2026-04-04T09:26:28.055Z</time></trkpt><trkpt lat="45.9926476" lon="12.4659324"><ele>98.0</ele><time>2026-04-04T09:26:29.055Z</time></trkpt><trkpt lat="45.9925185" lon="12.4659955"><ele>98.0</ele><time>2026-04-04T09:26:30.054Z</time></trkpt><trkpt lat="45.992401" lon="12.466063"><ele>98.0</ele><time>2026-04-04T09:26:31.053Z</time></trkpt><trkpt lat="45.9922829" lon="12.4661248"><ele>98.0</ele><time>2026-04-04T09:26:32.054Z</time></trkpt><trkpt lat="45.9921708" lon="12.4661857"><ele>97.5</ele><time>2026-04-04T09:26:33.054Z</time></trkpt><trkpt lat="45.9920617" lon="12.4662468"><ele>97.0</ele><time>2026-04-04T09:26:34.053Z</time></trkpt><trkpt lat="45.9919554" lon="12.4663063"><ele>96.5</ele><time>2026-04-04T09:26:35.055Z</time></trkpt><trkpt lat="45.9918504" lon="12.4663597"><ele>96.0</ele><time>2026-04-04T09:26:36.053Z</time></trkpt><trkpt lat="45.9917451" lon="12.4664212"><ele>93.75</ele><time>2026-04-04T09:26:37.054Z</time></trkpt><trkpt lat="45.9916396" lon="12.4664835"><ele>91.5</ele><time>2026-04-04T09:26:38.054Z</time></trkpt><trkpt lat="45.9915221" lon="12.4665459"><ele>89.25</ele><time>2026-04-04T09:26:39.054Z</time></trkpt><trkpt lat="45.9914039" lon="12.4666078"><ele>87.0</ele><time>2026-04-04T09:26:40.054Z</time></trkpt><trkpt lat="45.9912872" lon="12.466669"><ele>87.0</ele><time>2026-04-04T09:26:41.053Z</time></trkpt><trkpt lat="45.9911791" lon="12.4667298"><ele>87.0</ele><time>2026-04-04T09:26:42.054Z</time></trkpt><trkpt lat="45.991072" lon="12.466788"><ele>87.0</ele><time>2026-04-04T09:26:43.053Z</time></trkpt><trkpt lat="45.9909677" lon="12.4668447"><ele>87.0</ele><time>2026-04-04T09:26:44.053Z</time></trkpt><trkpt lat="45.9908703" lon="12.4668993"><ele>87.0</ele><time>2026-04-04T09:26:45.054Z</time></trkpt><trkpt lat="45.9907758" lon="12.4669492"><ele>85.75</ele><time>2026-04-04T09:26:46.053Z</time></trkpt><trkpt lat="45.9906825" lon="12.4670051"><ele>84.5</ele><time>2026-04-04T09:26:47.053Z</time></trkpt><trkpt lat="45.9905773" lon="12.4670698"><ele>83.25</ele><time>2026-04-04T09:26:48.054Z</time></trkpt><trkpt lat="45.9904619" lon="12.4671504"><ele>82.0</ele><time>2026-04-04T09:26:49.054Z</time></trkpt><trkpt lat="45.9903528" lon="12.4672272"><ele>81.5</ele><time>2026-04-04T09:26:50.053Z</time></trkpt><trkpt lat="45.9902431" lon="12.4673059"><ele>81.0</ele><time>2026-04-04T09:26:51.054Z</time></trkpt><trkpt lat="45.9901253" lon="12.4673862"><ele>80.5</ele><time>2026-04-04T09:26:52.055Z</time></trkpt><trkpt lat="45.9900053" lon="12.4674743"><ele>80.0</ele><time>2026-04-04T09:26:53.054Z</time></trkpt><trkpt lat="45.989884" lon="12.4675603"><ele>79.5</ele><time>2026-04-04T09:26:54.055Z</time></trkpt><trkpt lat="45.9897624" lon="12.4676417"><ele>79.0</ele><time>2026-04-04T09:26:55.054Z</time></trkpt><trkpt lat="45.9896353" lon="12.4677254"><ele>78.5</ele><time>2026-04-04T09:26:56.055Z</time></trkpt><trkpt lat="45.9895059" lon="12.4678069"><ele>78.0</ele><time>2026-04-04T09:26:57.053Z</time></trkpt><trkpt lat="45.9893814" lon="12.4678962"><ele>77.25</ele><time>2026-04-04T09:26:58.054Z</time></trkpt><trkpt lat="45.9892501" lon="12.4679835"><ele>76.5</ele><time>2026-04-04T09:26:59.055Z</time></trkpt><trkpt lat="45.9891216" lon="12.4680775"><ele>75.75</ele><time>2026-04-04T09:27:00.054Z</time></trkpt><trkpt lat="45.9889907" lon="12.4681663"><ele>75.0</ele><time>2026-04-04T09:27:01.054Z</time></trkpt><trkpt lat="45.9888632" lon="12.4682566"><ele>75.0</ele><time>2026-04-04T09:27:02.054Z</time></trkpt><trkpt lat="45.9887369" lon="12.4683433"><ele>75.0</ele><time>2026-04-04T09:27:03.054Z</time></trkpt><trkpt lat="45.9886165" lon="12.4684307"><ele>75.0</ele><time>2026-04-04T09:27:04.054Z</time></trkpt><trkpt lat="45.9885002" lon="12.4685333"><ele>75.0</ele><time>2026-04-04T09:27:05.053Z</time></trkpt><trkpt lat="45.9883998" lon="12.46866"><ele>73.5</ele><time>2026-04-04T09:27:06.054Z</time></trkpt><trkpt lat="45.9883138" lon="12.4687954"><ele>72.0</ele><time>2026-04-04T09:27:07.054Z</time></trkpt><trkpt lat="45.9882444" lon="12.4689473"><ele>70.5</ele><time>2026-04-04T09:27:08.053Z</time></trkpt><trkpt lat="45.9881958" lon="12.4691103"><ele>69.0</ele><time>2026-04-04T09:27:09.054Z</time></trkpt><trkpt lat="45.988164" lon="12.4693034"><ele>69.0</ele><time>2026-04-04T09:27:10.053Z</time></trkpt><trkpt lat="45.9881293" lon="12.469508"><ele>69.0</ele><time>2026-04-04T09:27:11.055Z</time></trkpt><trkpt lat="45.9880895" lon="12.4697253"><ele>69.0</ele><time>2026-04-04T09:27:12.055Z</time></trkpt><trkpt lat="45.9880507" lon="12.4699584"><ele>67.0</ele><time>2026-04-04T09:27:13.054Z</time></trkpt><trkpt lat="45.9880124" lon="12.470197"><ele>65.0</ele><time>2026-04-04T09:27:14.054Z</time></trkpt><trkpt lat="45.9879736" lon="12.4704409"><ele>63.0</ele><time>2026-04-04T09:27:15.054Z</time></trkpt><trkpt lat="45.987936" lon="12.4706904"><ele>62.0</ele><time>2026-04-04T09:27:16.053Z</time></trkpt><trkpt lat="45.9878873" lon="12.4709402"><ele>61.0</ele><time>2026-04-04T09:27:17.054Z</time></trkpt><trkpt lat="45.9878448" lon="12.4711936"><ele>60.0</ele><time>2026-04-04T09:27:18.053Z</time></trkpt><trkpt lat="45.987804" lon="12.471446"><ele>57.33333333333333</ele><time>2026-04-04T09:27:19.055Z</time></trkpt><trkpt lat="45.9877637" lon="12.4716944"><ele>54.666666666666664</ele><time>2026-04-04T09:27:20.053Z</time></trkpt><trkpt lat="45.9877268" lon="12.4719302"><ele>52.0</ele><time>2026-04-04T09:27:21.055Z</time></trkpt><trkpt lat="45.9876822" lon="12.4721627"><ele>52.0</ele><time>2026-04-04T09:27:22.055Z</time></trkpt><trkpt lat="45.9876202" lon="12.4723808"><ele>52.0</ele><time>2026-04-04T09:27:23.054Z</time></trkpt><trkpt lat="45.9875491" lon="12.4725906"><ele>52.0</ele><time>2026-04-04T09:27:24.055Z</time></trkpt><trkpt lat="45.9874482" lon="12.4727499"><ele>52.0</ele><time>2026-04-04T09:27:25.055Z</time></trkpt><trkpt lat="45.9873469" lon="12.4728852"><ele>52.0</ele><time>2026-04-04T09:27:26.056Z</time></trkpt><trkpt lat="45.9872453" lon="12.4729832"><ele>52.0</ele><time>2026-04-04T09:27:27.054Z</time></trkpt><trkpt lat="45.987151" lon="12.4730457"><ele>52.0</ele><time>2026-04-04T09:27:28.055Z</time></trkpt><trkpt lat="45.9870498" lon="12.4730777"><ele>51.5</ele><time>2026-04-04T09:27:29.053Z</time></trkpt><trkpt lat="45.9869444" lon="12.4730815"><ele>51.0</ele><time>2026-04-04T09:27:30.053Z</time></trkpt><trkpt lat="45.9868342" lon="12.4730532"><ele>50.5</ele><time>2026-04-04T09:27:31.054Z</time></trkpt><trkpt lat="45.986711" lon="12.4730154"><ele>50.0</ele><time>2026-04-04T09:27:32.053Z</time></trkpt><trkpt lat="45.986592" lon="12.47297"><ele>50.0</ele><time>2026-04-04T09:27:33.054Z</time></trkpt><trkpt lat="45.9864748" lon="12.4729283"><ele>50.0</ele><time>2026-04-04T09:27:34.053Z</time></trkpt><trkpt lat="45.9863473" lon="12.4729096"><ele>50.0</ele><time>2026-04-04T09:27:35.055Z</time></trkpt><trkpt lat="45.9862205" lon="12.4729217"><ele>50.0</ele><time>2026-04-04T09:27:36.053Z</time></trkpt><trkpt lat="45.9860908" lon="12.472982"><ele>50.0</ele><time>2026-04-04T09:27:37.055Z</time></trkpt><trkpt lat="45.9859686" lon="12.4730847"><ele>50.0</ele><time>2026-04-04T09:27:38.053Z</time></trkpt><trkpt lat="45.9858453" lon="12.4732135"><ele>50.0</ele><time>2026-04-04T09:27:39.054Z</time></trkpt><trkpt lat="45.9857217" lon="12.4733404"><ele>50.0</ele><time>2026-04-04T09:27:40.053Z</time></trkpt><trkpt lat="45.9855969" lon="12.4734724"><ele>48.0</ele><time>2026-04-04T09:27:41.054Z</time></trkpt><trkpt lat="45.9854746" lon="12.4736083"><ele>46.0</ele><time>2026-04-04T09:27:42.056Z</time></trkpt><trkpt lat="45.9853641" lon="12.4737508"><ele>44.0</ele><time>2026-04-04T09:27:43.054Z</time></trkpt><trkpt lat="45.9852641" lon="12.473915"><ele>42.75</ele><time>2026-04-04T09:27:44.054Z</time></trkpt><trkpt lat="45.9851855" lon="12.4740941"><ele>41.5</ele><time>2026-04-04T09:27:45.055Z</time></trkpt><trkpt lat="45.9851226" lon="12.4742737"><ele>40.25</ele><time>2026-04-04T09:27:46.053Z</time></trkpt><trkpt lat="45.9850658" lon="12.4744402"><ele>39.0</ele><time>2026-04-04T09:27:47.053Z</time></trkpt><trkpt lat="45.9850173" lon="12.4745963"><ele>38.8</ele><time>2026-04-04T09:27:48.055Z</time></trkpt><trkpt lat="45.9849599" lon="12.4747439"><ele>38.599999999999994</ele><time>2026-04-04T09:27:49.053Z</time></trkpt><trkpt lat="45.9848989" lon="12.4748683"><ele>38.4</ele><time>2026-04-04T09:27:50.054Z</time></trkpt><trkpt lat="45.9848262" lon="12.4749773"><ele>38.199999999999996</ele><time>2026-04-04T09:27:51.055Z</time></trkpt><trkpt lat="45.9847571" lon="12.4750941"><ele>38.0</ele><time>2026-04-04T09:27:52.053Z</time></trkpt><trkpt lat="45.9846909" lon="12.4752068"><ele>38.0</ele><time>2026-04-04T09:27:53.055Z</time></trkpt><trkpt lat="45.9846352" lon="12.4753313"><ele>38.0</ele><time>2026-04-04T09:27:54.055Z</time></trkpt><trkpt lat="45.9845855" lon="12.4754518"><ele>38.0</ele><time>2026-04-04T09:27:55.055Z</time></trkpt><trkpt lat="45.98455" lon="12.4755646"><ele>38.0</ele><time>2026-04-04T09:27:56.054Z</time></trkpt><trkpt lat="45.9845179" lon="12.4756644"><ele>38.0</ele><time>2026-04-04T09:27:57.054Z</time></trkpt><trkpt lat="45.98447" lon="12.475813"><ele>37.4</ele><time>2026-04-04T09:27:59.053Z</time></trkpt><trkpt lat="45.9844367" lon="12.4759017"><ele>36.8</ele><time>2026-04-04T09:28:01.054Z</time></trkpt><trkpt lat="45.984414" lon="12.476004"><ele>36.2</ele><time>2026-04-04T09:28:04.054Z</time></trkpt><trkpt lat="45.9843643" lon="12.4761616"><ele>35.6</ele><time>2026-04-04T09:28:20.054Z</time></trkpt><trkpt lat="45.9843295" lon="12.4763387"><ele>35.0</ele><time>2026-04-04T09:28:22.054Z</time></trkpt><trkpt lat="45.9843275" lon="12.4764354"><ele>34.83333333333333</ele><time>2026-04-04T09:28:23.055Z</time></trkpt><trkpt lat="45.984365" lon="12.476519"><ele>34.666666666666664</ele><time>2026-04-04T09:28:24.054Z</time></trkpt><trkpt lat="45.9844147" lon="12.4765982"><ele>34.5</ele><time>2026-04-04T09:28:25.054Z</time></trkpt><trkpt lat="45.9844706" lon="12.4766721"><ele>34.333333333333336</ele><time>2026-04-04T09:28:26.054Z</time></trkpt><trkpt lat="45.9845344" lon="12.4767294"><ele>34.16666666666667</ele><time>2026-04-04T09:28:27.054Z</time></trkpt><trkpt lat="45.9845975" lon="12.4767828"><ele>34.0</ele><time>2026-04-04T09:28:28.054Z</time></trkpt><trkpt lat="45.9846874" lon="12.4768639"><ele>34.0</ele><time>2026-04-04T09:28:30.054Z</time></trkpt><trkpt lat="45.9847249" lon="12.4770051"><ele>34.0</ele><time>2026-04-04T09:28:32.054Z</time></trkpt><trkpt lat="45.9847166" lon="12.4771013"><ele>34.0</ele><time>2026-04-04T09:28:33.054Z</time></trkpt><trkpt lat="45.9847118" lon="12.4772172"><ele>34.0</ele><time>2026-04-04T09:28:34.056Z</time></trkpt><trkpt lat="45.9847102" lon="12.4773519"><ele>34.0</ele><time>2026-04-04T09:28:35.055Z</time></trkpt><trkpt lat="45.984721" lon="12.4774958"><ele>34.0</ele><time>2026-04-04T09:28:36.054Z</time></trkpt><trkpt lat="45.9847384" lon="12.4776587"><ele>33.0</ele><time>2026-04-04T09:28:37.055Z</time></trkpt><trkpt lat="45.9847628" lon="12.4778201"><ele>32.0</ele><time>2026-04-04T09:28:38.053Z</time></trkpt><trkpt lat="45.9847967" lon="12.477978"><ele>31.0</ele><time>2026-04-04T09:28:39.054Z</time></trkpt><trkpt lat="45.9848374" lon="12.4781263"><ele>30.0</ele><time>2026-04-04T09:28:40.053Z</time></trkpt><trkpt lat="45.9848741" lon="12.4782833"><ele>29.75</ele><time>2026-04-04T09:28:41.054Z</time></trkpt><trkpt lat="45.9848987" lon="12.4784589"><ele>29.5</ele><time>2026-04-04T09:28:42.053Z</time></trkpt><trkpt lat="45.9848981" lon="12.4786453"><ele>29.25</ele><time>2026-04-04T09:28:43.055Z</time></trkpt><trkpt lat="45.9848839" lon="12.4788407"><ele>29.0</ele><time>2026-04-04T09:28:44.053Z</time></trkpt><trkpt lat="45.984842" lon="12.479051"><ele>28.333333333333332</ele><time>2026-04-04T09:28:45.053Z</time></trkpt><trkpt lat="45.9847861" lon="12.4792627"><ele>27.666666666666664</ele><time>2026-04-04T09:28:46.056Z</time></trkpt><trkpt lat="45.9847302" lon="12.4794692"><ele>27.0</ele><time>2026-04-04T09:28:47.053Z</time></trkpt><trkpt lat="45.9846706" lon="12.4796595"><ele>26.75</ele><time>2026-04-04T09:28:48.054Z</time></trkpt><trkpt lat="45.9846171" lon="12.4798477"><ele>26.5</ele><time>2026-04-04T09:28:49.055Z</time></trkpt><trkpt lat="45.9845639" lon="12.4800215"><ele>26.25</ele><time>2026-04-04T09:28:50.054Z</time></trkpt><trkpt lat="45.9845284" lon="12.4802034"><ele>26.0</ele><time>2026-04-04T09:28:51.054Z</time></trkpt><trkpt lat="45.9845169" lon="12.4803887"><ele>25.75</ele><time>2026-04-04T09:28:52.054Z</time></trkpt><trkpt lat="45.9845376" lon="12.4805751"><ele>25.5</ele><time>2026-04-04T09:28:53.055Z</time></trkpt><trkpt lat="45.9845907" lon="12.4807515"><ele>25.25</ele><time>2026-04-04T09:28:54.054Z</time></trkpt><trkpt lat="45.9846626" lon="12.4809256"><ele>25.0</ele><time>2026-04-04T09:28:55.054Z</time></trkpt><trkpt lat="45.9847365" lon="12.4810825"><ele>25.0</ele><time>2026-04-04T09:28:56.053Z</time></trkpt><trkpt lat="45.9848166" lon="12.4812503"><ele>25.0</ele><time>2026-04-04T09:28:57.055Z</time></trkpt><trkpt lat="45.9848925" lon="12.4814327"><ele>25.0</ele><time>2026-04-04T09:28:58.053Z</time></trkpt><trkpt lat="45.9849631" lon="12.481626"><ele>25.0</ele><time>2026-04-04T09:28:59.056Z</time></trkpt><trkpt lat="45.985021" lon="12.4818321"><ele>24.333333333333336</ele><time>2026-04-04T09:29:00.056Z</time></trkpt><trkpt lat="45.9850729" lon="12.4820541"><ele>23.666666666666668</ele><time>2026-04-04T09:29:01.053Z</time></trkpt><trkpt lat="45.9851254" lon="12.4822877"><ele>23.0</ele><time>2026-04-04T09:29:02.054Z</time></trkpt><trkpt lat="45.9851788" lon="12.4825419"><ele>22.666666666666668</ele><time>2026-04-04T09:29:03.053Z</time></trkpt><trkpt lat="45.9852375" lon="12.4828073"><ele>22.333333333333332</ele><time>2026-04-04T09:29:04.053Z</time></trkpt><trkpt lat="45.9852966" lon="12.4830873"><ele>22.0</ele><time>2026-04-04T09:29:05.054Z</time></trkpt><trkpt lat="45.9853602" lon="12.4833718"><ele>21.666666666666664</ele><time>2026-04-04T09:29:06.055Z</time></trkpt><trkpt lat="45.9854262" lon="12.4836766"><ele>21.333333333333332</ele><time>2026-04-04T09:29:07.053Z</time></trkpt><trkpt lat="45.9855037" lon="12.4839797"><ele>21.0</ele><time>2026-04-04T09:29:08.055Z</time></trkpt><trkpt lat="45.9855939" lon="12.4842767"><ele>22.0</ele><time>2026-04-04T09:29:09.054Z</time></trkpt><trkpt lat="45.9856859" lon="12.4845573"><ele>23.0</ele><time>2026-04-04T09:29:10.054Z</time></trkpt><trkpt lat="45.9857858" lon="12.4848197"><ele>24.0</ele><time>2026-04-04T09:29:11.053Z</time></trkpt><trkpt lat="45.9858752" lon="12.4850672"><ele>25.0</ele><time>2026-04-04T09:29:12.055Z</time></trkpt><trkpt lat="45.9859617" lon="12.4852996"><ele>26.0</ele><time>2026-04-04T09:29:13.055Z</time></trkpt><trkpt lat="45.9860476" lon="12.485523"><ele>27.0</ele><time>2026-04-04T09:29:14.053Z</time></trkpt><trkpt lat="45.9861274" lon="12.4857338"><ele>27.0</ele><time>2026-04-04T09:29:15.055Z</time></trkpt><trkpt lat="45.9862041" lon="12.4859336"><ele>27.0</ele><time>2026-04-04T09:29:16.054Z</time></trkpt><trkpt lat="45.9862784" lon="12.4861324"><ele>27.0</ele><time>2026-04-04T09:29:17.053Z</time></trkpt><trkpt lat="45.9863443" lon="12.4863124"><ele>26.5</ele><time>2026-04-04T09:29:18.054Z</time></trkpt><trkpt lat="45.9864133" lon="12.4864842"><ele>26.0</ele><time>2026-04-04T09:29:19.054Z</time></trkpt><trkpt lat="45.9864786" lon="12.4866486"><ele>25.5</ele><time>2026-04-04T09:29:20.055Z</time></trkpt><trkpt lat="45.9865454" lon="12.4868219"><ele>25.0</ele><time>2026-04-04T09:29:21.053Z</time></trkpt><trkpt lat="45.9866211" lon="12.4870131"><ele>26.0</ele><time>2026-04-04T09:29:22.053Z</time></trkpt><trkpt lat="45.9866935" lon="12.4872049"><ele>27.0</ele><time>2026-04-04T09:29:23.054Z</time></trkpt><trkpt lat="45.9867708" lon="12.4874031"><ele>28.0</ele><time>2026-04-04T09:29:24.056Z</time></trkpt><trkpt lat="45.9868531" lon="12.487621"><ele>28.0</ele><time>2026-04-04T09:29:25.056Z</time></trkpt><trkpt lat="45.9869468" lon="12.4878603"><ele>28.0</ele><time>2026-04-04T09:29:26.054Z</time></trkpt><trkpt lat="45.9870457" lon="12.4881103"><ele>28.0</ele><time>2026-04-04T09:29:27.055Z</time></trkpt><trkpt lat="45.987147" lon="12.4883821"><ele>27.5</ele><time>2026-04-04T09:29:28.055Z</time></trkpt><trkpt lat="45.9872544" lon="12.4886665"><ele>27.0</ele><time>2026-04-04T09:29:29.053Z</time></trkpt><trkpt lat="45.9873666" lon="12.4889591"><ele>27.0</ele><time>2026-04-04T09:29:30.054Z</time></trkpt><trkpt lat="45.9874809" lon="12.4892633"><ele>27.0</ele><time>2026-04-04T09:29:31.053Z</time></trkpt><trkpt lat="45.9875983" lon="12.4895736"><ele>25.5</ele><time>2026-04-04T09:29:32.053Z</time></trkpt><trkpt lat="45.9877212" lon="12.4898902"><ele>24.0</ele><time>2026-04-04T09:29:33.054Z</time></trkpt><trkpt lat="45.9878417" lon="12.490213"><ele>25.5</ele><time>2026-04-04T09:29:34.054Z</time></trkpt><trkpt lat="45.987963" lon="12.4905342"><ele>27.0</ele><time>2026-04-04T09:29:35.053Z</time></trkpt><trkpt lat="45.9880851" lon="12.4908581"><ele>27.0</ele><time>2026-04-04T09:29:36.054Z</time></trkpt><trkpt lat="45.9882075" lon="12.4911821"><ele>27.0</ele><time>2026-04-04T09:29:37.054Z</time></trkpt><trkpt lat="45.9883283" lon="12.4915073"><ele>27.5</ele><time>2026-04-04T09:29:38.054Z</time></trkpt><trkpt lat="45.9884489" lon="12.491827"><ele>28.0</ele><time>2026-04-04T09:29:39.055Z</time></trkpt><trkpt lat="45.9885719" lon="12.4921443"><ele>27.0</ele><time>2026-04-04T09:29:40.054Z</time></trkpt><trkpt lat="45.9886918" lon="12.4924638"><ele>26.0</ele><time>2026-04-04T09:29:41.053Z</time></trkpt><trkpt lat="45.9888124" lon="12.4927761"><ele>26.5</ele><time>2026-04-04T09:29:42.054Z</time></trkpt><trkpt lat="45.9889445" lon="12.4930866"><ele>27.0</ele><time>2026-04-04T09:29:43.055Z</time></trkpt><trkpt lat="45.989092" lon="12.4933945"><ele>27.5</ele><time>2026-04-04T09:29:44.055Z</time></trkpt><trkpt lat="45.9892602" lon="12.4936937"><ele>28.0</ele><time>2026-04-04T09:29:45.054Z</time></trkpt><trkpt lat="45.9894277" lon="12.4939969"><ele>28.0</ele><time>2026-04-04T09:29:46.054Z</time></trkpt><trkpt lat="45.9895951" lon="12.4942979"><ele>28.0</ele><time>2026-04-04T09:29:47.053Z</time></trkpt><trkpt lat="45.9897624" lon="12.4946004"><ele>28.0</ele><time>2026-04-04T09:29:48.053Z</time></trkpt><trkpt lat="45.9899278" lon="12.4948989"><ele>28.0</ele><time>2026-04-04T09:29:49.054Z</time></trkpt><trkpt lat="45.9900915" lon="12.4951945"><ele>28.0</ele><time>2026-04-04T09:29:50.054Z</time></trkpt><trkpt lat="45.9902503" lon="12.4954798"><ele>28.0</ele><time>2026-04-04T09:29:51.055Z</time></trkpt><trkpt lat="45.990403" lon="12.4957494"><ele>28.0</ele><time>2026-04-04T09:29:52.054Z</time></trkpt><trkpt lat="45.9905588" lon="12.4960158"><ele>28.0</ele><time>2026-04-04T09:29:53.055Z</time></trkpt><trkpt lat="45.990713" lon="12.4962766"><ele>27.5</ele><time>2026-04-04T09:29:54.055Z</time></trkpt><trkpt lat="45.9908709" lon="12.4965297"><ele>27.0</ele><time>2026-04-04T09:29:55.053Z</time></trkpt><trkpt lat="45.9910304" lon="12.4967828"><ele>27.0</ele><time>2026-04-04T09:29:56.053Z</time></trkpt><trkpt lat="45.9911844" lon="12.497031"><ele>27.0</ele><time>2026-04-04T09:29:57.054Z</time></trkpt><trkpt lat="45.9913405" lon="12.4972781"><ele>27.0</ele><time>2026-04-04T09:29:58.054Z</time></trkpt><trkpt lat="45.9914937" lon="12.4975272"><ele>27.0</ele><time>2026-04-04T09:29:59.054Z</time></trkpt><trkpt lat="45.9916485" lon="12.4977782"><ele>27.5</ele><time>2026-04-04T09:30:00.055Z</time></trkpt><trkpt lat="45.991807" lon="12.4980323"><ele>28.0</ele><time>2026-04-04T09:30:01.055Z</time></trkpt><trkpt lat="45.9919541" lon="12.4982921"><ele>28.0</ele><time>2026-04-04T09:30:02.054Z</time></trkpt><trkpt lat="45.9920779" lon="12.4985679"><ele>28.0</ele><time>2026-04-04T09:30:03.055Z</time></trkpt><trkpt lat="45.9921799" lon="12.4988606"><ele>28.333333333333336</ele><time>2026-04-04T09:30:04.053Z</time></trkpt><trkpt lat="45.9922636" lon="12.4991667"><ele>28.666666666666664</ele><time>2026-04-04T09:30:05.054Z</time></trkpt><trkpt lat="45.9923416" lon="12.49946"><ele>29.0</ele><time>2026-04-04T09:30:06.054Z</time></trkpt><trkpt lat="45.992419" lon="12.4997399"><ele>29.0</ele><time>2026-04-04T09:30:07.053Z</time></trkpt><trkpt lat="45.9924917" lon="12.500019"><ele>29.0</ele><time>2026-04-04T09:30:08.055Z</time></trkpt><trkpt lat="45.9925701" lon="12.5002887"><ele>29.0</ele><time>2026-04-04T09:30:09.053Z</time></trkpt><trkpt lat="45.9926449" lon="12.5005615"><ele>29.0</ele><time>2026-04-04T09:30:10.054Z</time></trkpt><trkpt lat="45.9927199" lon="12.500832"><ele>29.0</ele><time>2026-04-04T09:30:11.054Z</time></trkpt><trkpt lat="45.9927922" lon="12.5011016"><ele>29.0</ele><time>2026-04-04T09:30:12.053Z</time></trkpt><trkpt lat="45.9928672" lon="12.501372"><ele>29.333333333333332</ele><time>2026-04-04T09:30:13.056Z</time></trkpt><trkpt lat="45.9929496" lon="12.5016354"><ele>29.666666666666664</ele><time>2026-04-04T09:30:14.054Z</time></trkpt><trkpt lat="45.9930388" lon="12.501891"><ele>30.0</ele><time>2026-04-04T09:30:15.055Z</time></trkpt><trkpt lat="45.9931238" lon="12.5021431"><ele>30.0</ele><time>2026-04-04T09:30:16.055Z</time></trkpt><trkpt lat="45.9932191" lon="12.5023845"><ele>30.0</ele><time>2026-04-04T09:30:17.054Z</time></trkpt><trkpt lat="45.9933215" lon="12.5026085"><ele>30.0</ele><time>2026-04-04T09:30:18.054Z</time></trkpt><trkpt lat="45.9934222" lon="12.5028351"><ele>29.666666666666664</ele><time>2026-04-04T09:30:19.053Z</time></trkpt><trkpt lat="45.993518" lon="12.5030663"><ele>29.333333333333332</ele><time>2026-04-04T09:30:20.053Z</time></trkpt><trkpt lat="45.9936069" lon="12.5033005"><ele>29.0</ele><time>2026-04-04T09:30:21.053Z</time></trkpt><trkpt lat="45.9936899" lon="12.5035422"><ele>29.0</ele><time>2026-04-04T09:30:22.054Z</time></trkpt><trkpt lat="45.9937645" lon="12.5037992"><ele>29.0</ele><time>2026-04-04T09:30:23.053Z</time></trkpt><trkpt lat="45.9938321" lon="12.50406"><ele>29.0</ele><time>2026-04-04T09:30:24.055Z</time></trkpt><trkpt lat="45.9938893" lon="12.5043287"><ele>29.0</ele><time>2026-04-04T09:30:25.055Z</time></trkpt><trkpt lat="45.9939396" lon="12.504597"><ele>29.0</ele><time>2026-04-04T09:30:26.056Z</time></trkpt><trkpt lat="45.9939842" lon="12.5048671"><ele>29.0</ele><time>2026-04-04T09:30:27.054Z</time></trkpt><trkpt lat="45.9940237" lon="12.5051251"><ele>29.0</ele><time>2026-04-04T09:30:28.054Z</time></trkpt><trkpt lat="45.9940644" lon="12.5053794"><ele>29.0</ele><time>2026-04-04T09:30:29.054Z</time></trkpt><trkpt lat="45.9941051" lon="12.5056285"><ele>29.0</ele><time>2026-04-04T09:30:30.055Z</time></trkpt><trkpt lat="45.9941479" lon="12.5058781"><ele>29.0</ele><time>2026-04-04T09:30:31.054Z</time></trkpt><trkpt lat="45.9941917" lon="12.5061212"><ele>29.0</ele><time>2026-04-04T09:30:32.054Z</time></trkpt><trkpt lat="45.9942332" lon="12.5063685"><ele>29.0</ele><time>2026-04-04T09:30:33.053Z</time></trkpt><trkpt lat="45.9942712" lon="12.5066202"><ele>29.0</ele><time>2026-04-04T09:30:34.054Z</time></trkpt><trkpt lat="45.9943189" lon="12.5068708"><ele>29.0</ele><time>2026-04-04T09:30:35.054Z</time></trkpt><trkpt lat="45.994374" lon="12.5071224"><ele>29.0</ele><time>2026-04-04T09:30:36.054Z</time></trkpt><trkpt lat="45.9944488" lon="12.5073713"><ele>29.333333333333332</ele><time>2026-04-04T09:30:37.053Z</time></trkpt><trkpt lat="45.9945334" lon="12.5076255"><ele>29.666666666666664</ele><time>2026-04-04T09:30:38.055Z</time></trkpt><trkpt lat="45.9946374" lon="12.5078758"><ele>30.0</ele><time>2026-04-04T09:30:39.055Z</time></trkpt><trkpt lat="45.9947445" lon="12.5081248"><ele>30.333333333333336</ele><time>2026-04-04T09:30:40.054Z</time></trkpt><trkpt lat="45.994858" lon="12.5083657"><ele>30.666666666666668</ele><time>2026-04-04T09:30:41.053Z</time></trkpt><trkpt lat="45.9949739" lon="12.5086116"><ele>31.0</ele><time>2026-04-04T09:30:42.054Z</time></trkpt><trkpt lat="45.9950911" lon="12.5088524"><ele>31.0</ele><time>2026-04-04T09:30:43.056Z</time></trkpt><trkpt lat="45.9952139" lon="12.50909"><ele>31.0</ele><time>2026-04-04T09:30:44.054Z</time></trkpt><trkpt lat="45.9953522" lon="12.5093151"><ele>31.0</ele><time>2026-04-04T09:30:45.056Z</time></trkpt><trkpt lat="45.9954943" lon="12.5095358"><ele>31.333333333333336</ele><time>2026-04-04T09:30:46.053Z</time></trkpt><trkpt lat="45.9956348" lon="12.5097452"><ele>31.666666666666664</ele><time>2026-04-04T09:30:47.054Z</time></trkpt><trkpt lat="45.995782" lon="12.5099512"><ele>32.0</ele><time>2026-04-04T09:30:48.055Z</time></trkpt><trkpt lat="45.9959244" lon="12.5101605"><ele>32.0</ele><time>2026-04-04T09:30:49.054Z</time></trkpt><trkpt lat="45.9960663" lon="12.5103731"><ele>32.0</ele><time>2026-04-04T09:30:50.054Z</time></trkpt><trkpt lat="45.9962017" lon="12.510589"><ele>32.0</ele><time>2026-04-04T09:30:51.056Z</time></trkpt><trkpt lat="45.9963242" lon="12.5108205"><ele>32.33333333333333</ele><time>2026-04-04T09:30:52.055Z</time></trkpt><trkpt lat="45.9964337" lon="12.5110701"><ele>32.666666666666664</ele><time>2026-04-04T09:30:53.055Z</time></trkpt><trkpt lat="45.9965279" lon="12.5113334"><ele>33.0</ele><time>2026-04-04T09:30:54.054Z</time></trkpt><trkpt lat="45.9966057" lon="12.5116089"><ele>33.0</ele><time>2026-04-04T09:30:55.055Z</time></trkpt><trkpt lat="45.9966653" lon="12.5118916"><ele>33.0</ele><time>2026-04-04T09:30:56.054Z</time></trkpt><trkpt lat="45.9967181" lon="12.5121783"><ele>33.0</ele><time>2026-04-04T09:30:57.054Z</time></trkpt><trkpt lat="45.9967695" lon="12.5124631"><ele>33.0</ele><time>2026-04-04T09:30:58.054Z</time></trkpt><trkpt lat="45.9968142" lon="12.5127481"><ele>33.0</ele><time>2026-04-04T09:30:59.054Z</time></trkpt><trkpt lat="45.9968593" lon="12.5130353"><ele>33.0</ele><time>2026-04-04T09:31:00.056Z</time></trkpt><trkpt lat="45.9969044" lon="12.5133185"><ele>33.0</ele><time>2026-04-04T09:31:01.054Z</time></trkpt><trkpt lat="45.9969398" lon="12.5135992"><ele>33.0</ele><time>2026-04-04T09:31:02.054Z</time></trkpt><trkpt lat="45.9969702" lon="12.5138824"><ele>33.0</ele><time>2026-04-04T09:31:03.053Z</time></trkpt><trkpt lat="45.9969925" lon="12.5141586"><ele>33.0</ele><time>2026-04-04T09:31:04.055Z</time></trkpt><trkpt lat="45.9970052" lon="12.5144309"><ele>33.0</ele><time>2026-04-04T09:31:05.055Z</time></trkpt><trkpt lat="45.9970162" lon="12.5147075"><ele>33.0</ele><time>2026-04-04T09:31:06.054Z</time></trkpt><trkpt lat="45.9970192" lon="12.5149833"><ele>33.333333333333336</ele><time>2026-04-04T09:31:07.055Z</time></trkpt><trkpt lat="45.9970136" lon="12.5152568"><ele>33.66666666666667</ele><time>2026-04-04T09:31:08.054Z</time></trkpt><trkpt lat="45.9970023" lon="12.5155434"><ele>34.0</ele><time>2026-04-04T09:31:09.053Z</time></trkpt><trkpt lat="45.9969853" lon="12.515833"><ele>34.333333333333336</ele><time>2026-04-04T09:31:10.055Z</time></trkpt><trkpt lat="45.9969595" lon="12.516119"><ele>34.666666666666664</ele><time>2026-04-04T09:31:11.054Z</time></trkpt><trkpt lat="45.9969262" lon="12.5163931"><ele>35.0</ele><time>2026-04-04T09:31:12.055Z</time></trkpt><trkpt lat="45.9968923" lon="12.5166537"><ele>35.0</ele><time>2026-04-04T09:31:13.055Z</time></trkpt><trkpt lat="45.9968476" lon="12.516914"><ele>35.0</ele><time>2026-04-04T09:31:14.055Z</time></trkpt><trkpt lat="45.9968008" lon="12.517175"><ele>35.0</ele><time>2026-04-04T09:31:15.054Z</time></trkpt><trkpt lat="45.9967537" lon="12.5174414"><ele>35.33333333333333</ele><time>2026-04-04T09:31:16.055Z</time></trkpt><trkpt lat="45.9967015" lon="12.5177162"><ele>35.666666666666664</ele><time>2026-04-04T09:31:17.053Z</time></trkpt><trkpt lat="45.9966525" lon="12.5179933"><ele>36.0</ele><time>2026-04-04T09:31:18.053Z</time></trkpt><trkpt lat="45.9966022" lon="12.51827"><ele>36.0</ele><time>2026-04-04T09:31:19.055Z</time></trkpt><trkpt lat="45.9965484" lon="12.5185401"><ele>36.0</ele><time>2026-04-04T09:31:20.055Z</time></trkpt><trkpt lat="45.9964977" lon="12.5188126"><ele>36.0</ele><time>2026-04-04T09:31:21.055Z</time></trkpt><trkpt lat="45.996444" lon="12.5190871"><ele>36.0</ele><time>2026-04-04T09:31:22.053Z</time></trkpt><trkpt lat="45.9963922" lon="12.5193557"><ele>36.0</ele><time>2026-04-04T09:31:23.055Z</time></trkpt><trkpt lat="45.9963404" lon="12.5196249"><ele>36.0</ele><time>2026-04-04T09:31:24.054Z</time></trkpt><trkpt lat="45.9962879" lon="12.5198961"><ele>36.333333333333336</ele><time>2026-04-04T09:31:25.054Z</time></trkpt><trkpt lat="45.9962374" lon="12.520163"><ele>36.66666666666667</ele><time>2026-04-04T09:31:26.054Z</time></trkpt><trkpt lat="45.9961898" lon="12.5204224"><ele>37.0</ele><time>2026-04-04T09:31:27.055Z</time></trkpt><trkpt lat="45.9961426" lon="12.5206751"><ele>37.0</ele><time>2026-04-04T09:31:28.055Z</time></trkpt><trkpt lat="45.9960979" lon="12.5209142"><ele>37.0</ele><time>2026-04-04T09:31:29.055Z</time></trkpt><trkpt lat="45.9960578" lon="12.52114"><ele>37.0</ele><time>2026-04-04T09:31:30.054Z</time></trkpt><trkpt lat="45.9960171" lon="12.5213688"><ele>37.333333333333336</ele><time>2026-04-04T09:31:31.055Z</time></trkpt><trkpt lat="45.9959844" lon="12.5216003"><ele>37.666666666666664</ele><time>2026-04-04T09:31:32.054Z</time></trkpt><trkpt lat="45.9959576" lon="12.5218353"><ele>38.0</ele><time>2026-04-04T09:31:33.054Z</time></trkpt><trkpt lat="45.9959379" lon="12.5220722"><ele>38.0</ele><time>2026-04-04T09:31:34.055Z</time></trkpt><trkpt lat="45.9959256" lon="12.522317"><ele>38.0</ele><time>2026-04-04T09:31:35.054Z</time></trkpt><trkpt lat="45.9959217" lon="12.52256"><ele>38.0</ele><time>2026-04-04T09:31:36.054Z</time></trkpt><trkpt lat="45.9959421" lon="12.5228042"><ele>37.666666666666664</ele><time>2026-04-04T09:31:37.054Z</time></trkpt><trkpt lat="45.9959851" lon="12.5230468"><ele>37.333333333333336</ele><time>2026-04-04T09:31:38.055Z</time></trkpt><trkpt lat="45.9960487" lon="12.5232885"><ele>37.0</ele><time>2026-04-04T09:31:39.053Z</time></trkpt><trkpt lat="45.9961179" lon="12.5235346"><ele>36.66666666666667</ele><time>2026-04-04T09:31:40.055Z</time></trkpt><trkpt lat="45.9961892" lon="12.5237802"><ele>36.333333333333336</ele><time>2026-04-04T09:31:41.054Z</time></trkpt><trkpt lat="45.9962643" lon="12.524029"><ele>36.0</ele><time>2026-04-04T09:31:42.054Z</time></trkpt><trkpt lat="45.9963415" lon="12.5242862"><ele>36.0</ele><time>2026-04-04T09:31:43.053Z</time></trkpt><trkpt lat="45.9964171" lon="12.5245428"><ele>36.0</ele><time>2026-04-04T09:31:44.053Z</time></trkpt><trkpt lat="45.9964945" lon="12.524808"><ele>36.0</ele><time>2026-04-04T09:31:45.056Z</time></trkpt><trkpt lat="45.9965732" lon="12.5250757"><ele>36.0</ele><time>2026-04-04T09:31:46.054Z</time></trkpt><trkpt lat="45.9966373" lon="12.5253621"><ele>36.0</ele><time>2026-04-04T09:31:47.054Z</time></trkpt><trkpt lat="45.9966952" lon="12.5256526"><ele>36.0</ele><time>2026-04-04T09:31:48.055Z</time></trkpt><trkpt lat="45.9967372" lon="12.5259524"><ele>36.0</ele><time>2026-04-04T09:31:49.056Z</time></trkpt><trkpt lat="45.9967715" lon="12.5262548"><ele>36.0</ele><time>2026-04-04T09:31:50.055Z</time></trkpt><trkpt lat="45.9968019" lon="12.5265609"><ele>36.0</ele><time>2026-04-04T09:31:51.053Z</time></trkpt><trkpt lat="45.9968359" lon="12.5268502"><ele>36.333333333333336</ele><time>2026-04-04T09:31:52.056Z</time></trkpt><trkpt lat="45.9968643" lon="12.5271209"><ele>36.66666666666667</ele><time>2026-04-04T09:31:53.053Z</time></trkpt><trkpt lat="45.9968916" lon="12.5273777"><ele>37.0</ele><time>2026-04-04T09:31:54.056Z</time></trkpt><trkpt lat="45.9969215" lon="12.5276316"><ele>37.0</ele><time>2026-04-04T09:31:55.054Z</time></trkpt><trkpt lat="45.9969517" lon="12.5278835"><ele>37.0</ele><time>2026-04-04T09:31:56.053Z</time></trkpt><trkpt lat="45.9969779" lon="12.5281425"><ele>37.0</ele><time>2026-04-04T09:31:57.054Z</time></trkpt><trkpt lat="45.997006" lon="12.528396"><ele>37.333333333333336</ele><time>2026-04-04T09:31:58.056Z</time></trkpt><trkpt lat="45.9970301" lon="12.5286365"><ele>37.666666666666664</ele><time>2026-04-04T09:31:59.054Z</time></trkpt><trkpt lat="45.9970546" lon="12.5288719"><ele>38.0</ele><time>2026-04-04T09:32:00.053Z</time></trkpt><trkpt lat="45.9970683" lon="12.5291124"><ele>38.0</ele><time>2026-04-04T09:32:01.053Z</time></trkpt><trkpt lat="45.9970659" lon="12.5293545"><ele>38.0</ele><time>2026-04-04T09:32:02.055Z</time></trkpt><trkpt lat="45.9970519" lon="12.5295805"><ele>38.0</ele><time>2026-04-04T09:32:03.054Z</time></trkpt><trkpt lat="45.9970331" lon="12.5297927"><ele>38.0</ele><time>2026-04-04T09:32:04.055Z</time></trkpt><trkpt lat="45.9970023" lon="12.5299844"><ele>38.0</ele><time>2026-04-04T09:32:05.055Z</time></trkpt><trkpt lat="45.9969665" lon="12.5301701"><ele>38.0</ele><time>2026-04-04T09:32:06.054Z</time></trkpt><trkpt lat="45.9969159" lon="12.5303464"><ele>38.0</ele><time>2026-04-04T09:32:07.054Z</time></trkpt><trkpt lat="45.9968599" lon="12.5305173"><ele>38.0</ele><time>2026-04-04T09:32:08.055Z</time></trkpt><trkpt lat="45.9968009" lon="12.5306762"><ele>38.0</ele><time>2026-04-04T09:32:09.055Z</time></trkpt><trkpt lat="45.9967464" lon="12.5308369"><ele>38.0</ele><time>2026-04-04T09:32:10.053Z</time></trkpt><trkpt lat="45.9966991" lon="12.5310044"><ele>38.0</ele><time>2026-04-04T09:32:11.056Z</time></trkpt><trkpt lat="45.9966648" lon="12.5311751"><ele>38.199999999999996</ele><time>2026-04-04T09:32:12.054Z</time></trkpt><trkpt lat="45.9966481" lon="12.5313353"><ele>38.4</ele><time>2026-04-04T09:32:13.054Z</time></trkpt><trkpt lat="45.9966453" lon="12.5314731"><ele>38.599999999999994</ele><time>2026-04-04T09:32:14.056Z</time></trkpt><trkpt lat="45.9966454" lon="12.5316056"><ele>38.8</ele><time>2026-04-04T09:32:15.055Z</time></trkpt><trkpt lat="45.9966474" lon="12.5317203"><ele>39.0</ele><time>2026-04-04T09:32:16.055Z</time></trkpt><trkpt lat="45.9966497" lon="12.5318285"><ele>39.0</ele><time>2026-04-04T09:32:17.054Z</time></trkpt><trkpt lat="45.9966561" lon="12.5319762"><ele>39.0</ele><time>2026-04-04T09:32:19.053Z</time></trkpt><trkpt lat="45.9966392" lon="12.5320784"><ele>39.0</ele><time>2026-04-04T09:32:22.056Z</time></trkpt><trkpt lat="45.9966096" lon="12.5321689"><ele>39.0</ele><time>2026-04-04T09:32:29.054Z</time></trkpt><trkpt lat="45.9966081" lon="12.5322841"><ele>39.0</ele><time>2026-04-04T09:32:33.055Z</time></trkpt><trkpt lat="45.9967177" lon="12.5324166"><ele>39.25</ele><time>2026-04-04T09:32:35.053Z</time></trkpt><trkpt lat="45.996791" lon="12.5325104"><ele>39.5</ele><time>2026-04-04T09:32:36.053Z</time></trkpt><trkpt lat="45.996875" lon="12.5326188"><ele>39.75</ele><time>2026-04-04T09:32:37.055Z</time></trkpt><trkpt lat="45.9969574" lon="12.5327409"><ele>40.0</ele><time>2026-04-04T09:32:38.055Z</time></trkpt><trkpt lat="45.9970385" lon="12.5328857"><ele>40.5</ele><time>2026-04-04T09:32:39.054Z</time></trkpt><trkpt lat="45.9971173" lon="12.5330444"><ele>41.0</ele><time>2026-04-04T09:32:40.054Z</time></trkpt><trkpt lat="45.9971928" lon="12.533212"><ele>41.5</ele><time>2026-04-04T09:32:41.053Z</time></trkpt><trkpt lat="45.997252" lon="12.5333776"><ele>42.0</ele><time>2026-04-04T09:32:42.054Z</time></trkpt><trkpt lat="45.9973157" lon="12.5335335"><ele>42.0</ele><time>2026-04-04T09:32:43.053Z</time></trkpt><trkpt lat="45.9973777" lon="12.5336881"><ele>42.0</ele><time>2026-04-04T09:32:44.054Z</time></trkpt><trkpt lat="45.9974305" lon="12.5338291"><ele>42.0</ele><time>2026-04-04T09:32:45.056Z</time></trkpt><trkpt lat="45.9974795" lon="12.5339559"><ele>42.0</ele><time>2026-04-04T09:32:46.055Z</time></trkpt><trkpt lat="45.997523" lon="12.5340699"><ele>42.0</ele><time>2026-04-04T09:32:47.056Z</time></trkpt><trkpt lat="45.997565" lon="12.5341726"><ele>42.2</ele><time>2026-04-04T09:32:48.056Z</time></trkpt><trkpt lat="45.9976035" lon="12.5342685"><ele>42.400000000000006</ele><time>2026-04-04T09:32:49.055Z</time></trkpt><trkpt lat="45.997641" lon="12.5343654"><ele>42.599999999999994</ele><time>2026-04-04T09:32:50.055Z</time></trkpt><trkpt lat="45.9976876" lon="12.5344804"><ele>42.8</ele><time>2026-04-04T09:32:51.053Z</time></trkpt><trkpt lat="45.9977442" lon="12.5346078"><ele>43.0</ele><time>2026-04-04T09:32:52.055Z</time></trkpt><trkpt lat="45.9978046" lon="12.5347427"><ele>43.16666666666667</ele><time>2026-04-04T09:32:53.053Z</time></trkpt><trkpt lat="45.9978595" lon="12.5348654"><ele>43.333333333333336</ele><time>2026-04-04T09:32:54.054Z</time></trkpt><trkpt lat="45.99791" lon="12.5349855"><ele>43.5</ele><time>2026-04-04T09:32:55.055Z</time></trkpt><trkpt lat="45.9979415" lon="12.5351051"><ele>43.666666666666664</ele><time>2026-04-04T09:32:56.056Z</time></trkpt><trkpt lat="45.9979542" lon="12.5352114"><ele>43.83333333333333</ele><time>2026-04-04T09:32:57.054Z</time></trkpt><trkpt lat="45.9979445" lon="12.5353186"><ele>44.0</ele><time>2026-04-04T09:32:58.055Z</time></trkpt><trkpt lat="45.9979136" lon="12.5354162"><ele>44.0</ele><time>2026-04-04T09:32:59.054Z</time></trkpt><trkpt lat="45.9978681" lon="12.5355076"><ele>44.0</ele><time>2026-04-04T09:33:00.056Z</time></trkpt><trkpt lat="45.9978054" lon="12.5355968"><ele>44.0</ele><time>2026-04-04T09:33:01.055Z</time></trkpt><trkpt lat="45.9977322" lon="12.535692"><ele>44.0</ele><time>2026-04-04T09:33:02.053Z</time></trkpt><trkpt lat="45.9976563" lon="12.5357951"><ele>44.0</ele><time>2026-04-04T09:33:03.054Z</time></trkpt><trkpt lat="45.9975834" lon="12.5359121"><ele>44.0</ele><time>2026-04-04T09:33:04.056Z</time></trkpt><trkpt lat="45.9975154" lon="12.5360412"><ele>44.0</ele><time>2026-04-04T09:33:05.053Z</time></trkpt><trkpt lat="45.9974392" lon="12.5361787"><ele>44.0</ele><time>2026-04-04T09:33:06.055Z</time></trkpt><trkpt lat="45.9973611" lon="12.5363247"><ele>44.0</ele><time>2026-04-04T09:33:07.055Z</time></trkpt><trkpt lat="45.9972957" lon="12.536464"><ele>44.0</ele><time>2026-04-04T09:33:08.053Z</time></trkpt><trkpt lat="45.9972415" lon="12.5366049"><ele>44.0</ele><time>2026-04-04T09:33:09.055Z</time></trkpt><trkpt lat="45.9971891" lon="12.5367431"><ele>44.0</ele><time>2026-04-04T09:33:10.054Z</time></trkpt><trkpt lat="45.9971379" lon="12.5368732"><ele>44.0</ele><time>2026-04-04T09:33:11.055Z</time></trkpt><trkpt lat="45.9970873" lon="12.5369877"><ele>44.0</ele><time>2026-04-04T09:33:12.055Z</time></trkpt><trkpt lat="45.9970392" lon="12.537093"><ele>44.0</ele><time>2026-04-04T09:33:13.055Z</time></trkpt><trkpt lat="45.9969996" lon="12.5371833"><ele>44.0</ele><time>2026-04-04T09:33:14.055Z</time></trkpt><trkpt lat="45.9969581" lon="12.5372819"><ele>44.0</ele><time>2026-04-04T09:33:15.054Z</time></trkpt><trkpt lat="45.9969083" lon="12.5373933"><ele>44.0</ele><time>2026-04-04T09:33:16.054Z</time></trkpt><trkpt lat="45.9968448" lon="12.5375062"><ele>44.0</ele><time>2026-04-04T09:33:17.054Z</time></trkpt><trkpt lat="45.9967727" lon="12.5376315"><ele>44.0</ele><time>2026-04-04T09:33:18.055Z</time></trkpt><trkpt lat="45.9966947" lon="12.5377638"><ele>44.0</ele><time>2026-04-04T09:33:19.054Z</time></trkpt><trkpt lat="45.9966099" lon="12.5379013"><ele>44.0</ele><time>2026-04-04T09:33:20.054Z</time></trkpt><trkpt lat="45.9965264" lon="12.5380324"><ele>44.0</ele><time>2026-04-04T09:33:21.056Z</time></trkpt><trkpt lat="45.9964428" lon="12.5381627"><ele>44.0</ele><time>2026-04-04T09:33:22.054Z</time></trkpt><trkpt lat="45.9963593" lon="12.5382936"><ele>44.0</ele><time>2026-04-04T09:33:23.055Z</time></trkpt><trkpt lat="45.9962725" lon="12.5384208"><ele>44.0</ele><time>2026-04-04T09:33:24.055Z</time></trkpt><trkpt lat="45.9961867" lon="12.5385408"><ele>44.0</ele><time>2026-04-04T09:33:25.053Z</time></trkpt><trkpt lat="45.9960977" lon="12.5386514"><ele>44.0</ele><time>2026-04-04T09:33:26.055Z</time></trkpt><trkpt lat="45.9960023" lon="12.5387506"><ele>44.0</ele><time>2026-04-04T09:33:27.055Z</time></trkpt><trkpt lat="45.9958981" lon="12.5388435"><ele>44.0</ele><time>2026-04-04T09:33:28.054Z</time></trkpt><trkpt lat="45.9957874" lon="12.5389391"><ele>44.0</ele><time>2026-04-04T09:33:29.055Z</time></trkpt><trkpt lat="45.9956775" lon="12.5390272"><ele>43.75</ele><time>2026-04-04T09:33:30.053Z</time></trkpt><trkpt lat="45.9955815" lon="12.539114"><ele>43.5</ele><time>2026-04-04T09:33:31.055Z</time></trkpt><trkpt lat="45.9954891" lon="12.5392163"><ele>43.25</ele><time>2026-04-04T09:33:32.054Z</time></trkpt><trkpt lat="45.9954013" lon="12.5393325"><ele>43.0</ele><time>2026-04-04T09:33:33.054Z</time></trkpt><trkpt lat="45.995319" lon="12.5394605"><ele>43.25</ele><time>2026-04-04T09:33:34.055Z</time></trkpt><trkpt lat="45.9952325" lon="12.5395918"><ele>43.5</ele><time>2026-04-04T09:33:35.054Z</time></trkpt><trkpt lat="45.9951484" lon="12.5397376"><ele>43.75</ele><time>2026-04-04T09:33:36.054Z</time></trkpt><trkpt lat="45.9950547" lon="12.5398809"><ele>44.0</ele><time>2026-04-04T09:33:37.055Z</time></trkpt><trkpt lat="45.9949634" lon="12.5400427"><ele>44.0</ele><time>2026-04-04T09:33:38.055Z</time></trkpt><trkpt lat="45.9948698" lon="12.5401984"><ele>44.0</ele><time>2026-04-04T09:33:39.055Z</time></trkpt><trkpt lat="45.9947751" lon="12.5403532"><ele>44.0</ele><time>2026-04-04T09:33:40.055Z</time></trkpt><trkpt lat="45.9946854" lon="12.5405104"><ele>44.0</ele><time>2026-04-04T09:33:41.054Z</time></trkpt><trkpt lat="45.9945955" lon="12.5406755"><ele>44.33333333333333</ele><time>2026-04-04T09:33:42.054Z</time></trkpt><trkpt lat="45.9945033" lon="12.5408366"><ele>44.666666666666664</ele><time>2026-04-04T09:33:43.055Z</time></trkpt><trkpt lat="45.9944064" lon="12.5410076"><ele>45.0</ele><time>2026-04-04T09:33:44.054Z</time></trkpt><trkpt lat="45.994304" lon="12.541179"><ele>44.666666666666664</ele><time>2026-04-04T09:33:45.055Z</time></trkpt><trkpt lat="45.9942078" lon="12.5413448"><ele>44.33333333333333</ele><time>2026-04-04T09:33:46.054Z</time></trkpt><trkpt lat="45.9941082" lon="12.5415154"><ele>44.0</ele><time>2026-04-04T09:33:47.053Z</time></trkpt><trkpt lat="45.9940112" lon="12.5416864"><ele>44.0</ele><time>2026-04-04T09:33:48.055Z</time></trkpt><trkpt lat="45.9939148" lon="12.5418542"><ele>44.0</ele><time>2026-04-04T09:33:49.056Z</time></trkpt><trkpt lat="45.9938187" lon="12.5420214"><ele>44.0</ele><time>2026-04-04T09:33:50.054Z</time></trkpt><trkpt lat="45.9937262" lon="12.5421855"><ele>44.0</ele><time>2026-04-04T09:33:51.054Z</time></trkpt><trkpt lat="45.9936331" lon="12.5423422"><ele>44.25</ele><time>2026-04-04T09:33:52.055Z</time></trkpt><trkpt lat="45.993548" lon="12.5424901"><ele>44.5</ele><time>2026-04-04T09:33:53.055Z</time></trkpt><trkpt lat="45.9934625" lon="12.5426364"><ele>44.75</ele><time>2026-04-04T09:33:54.055Z</time></trkpt><trkpt lat="45.9933811" lon="12.5427881"><ele>45.0</ele><time>2026-04-04T09:33:55.054Z</time></trkpt><trkpt lat="45.9933015" lon="12.5429371"><ele>45.0</ele><time>2026-04-04T09:33:56.055Z</time></trkpt><trkpt lat="45.9932154" lon="12.5430801"><ele>45.0</ele><time>2026-04-04T09:33:57.054Z</time></trkpt><trkpt lat="45.9931264" lon="12.5432299"><ele>45.0</ele><time>2026-04-04T09:33:58.053Z</time></trkpt><trkpt lat="45.9930424" lon="12.5433776"><ele>45.0</ele><time>2026-04-04T09:33:59.055Z</time></trkpt><trkpt lat="45.9929601" lon="12.5435171"><ele>45.0</ele><time>2026-04-04T09:34:00.054Z</time></trkpt><trkpt lat="45.9928759" lon="12.5436658"><ele>45.0</ele><time>2026-04-04T09:34:01.053Z</time></trkpt><trkpt lat="45.9927958" lon="12.5438163"><ele>45.0</ele><time>2026-04-04T09:34:02.055Z</time></trkpt><trkpt lat="45.9927096" lon="12.5439608"><ele>45.0</ele><time>2026-04-04T09:34:03.054Z</time></trkpt><trkpt lat="45.992622" lon="12.5441049"><ele>45.0</ele><time>2026-04-04T09:34:04.055Z</time></trkpt><trkpt lat="45.9925278" lon="12.5442619"><ele>45.0</ele><time>2026-04-04T09:34:05.054Z</time></trkpt><trkpt lat="45.9924354" lon="12.5444231"><ele>45.0</ele><time>2026-04-04T09:34:06.055Z</time></trkpt><trkpt lat="45.9923404" lon="12.5445802"><ele>45.0</ele><time>2026-04-04T09:34:07.054Z</time></trkpt><trkpt lat="45.9922507" lon="12.5447336"><ele>45.0</ele><time>2026-04-04T09:34:08.055Z</time></trkpt><trkpt lat="45.9921569" lon="12.5448896"><ele>45.0</ele><time>2026-04-04T09:34:09.055Z</time></trkpt><trkpt lat="45.9920627" lon="12.5450471"><ele>45.0</ele><time>2026-04-04T09:34:10.053Z</time></trkpt><trkpt lat="45.9919754" lon="12.5452011"><ele>45.0</ele><time>2026-04-04T09:34:11.055Z</time></trkpt><trkpt lat="45.9918852" lon="12.545351"><ele>45.25</ele><time>2026-04-04T09:34:12.055Z</time></trkpt><trkpt lat="45.9917962" lon="12.5455038"><ele>45.5</ele><time>2026-04-04T09:34:13.055Z</time></trkpt><trkpt lat="45.9917043" lon="12.5456555"><ele>45.75</ele><time>2026-04-04T09:34:14.055Z</time></trkpt><trkpt lat="45.9916183" lon="12.545808"><ele>46.0</ele><time>2026-04-04T09:34:15.054Z</time></trkpt><trkpt lat="45.9915299" lon="12.5459615"><ele>46.0</ele><time>2026-04-04T09:34:16.054Z</time></trkpt><trkpt lat="45.9914416" lon="12.5461119"><ele>46.0</ele><time>2026-04-04T09:34:17.055Z</time></trkpt><trkpt lat="45.9913557" lon="12.5462584"><ele>46.0</ele><time>2026-04-04T09:34:18.056Z</time></trkpt><trkpt lat="45.9912693" lon="12.5464058"><ele>46.0</ele><time>2026-04-04T09:34:19.053Z</time></trkpt><trkpt lat="45.9911845" lon="12.546552"><ele>46.0</ele><time>2026-04-04T09:34:20.056Z</time></trkpt><trkpt lat="45.9911101" lon="12.546691"><ele>46.0</ele><time>2026-04-04T09:34:21.055Z</time></trkpt><trkpt lat="45.9910366" lon="12.5468248"><ele>46.0</ele><time>2026-04-04T09:34:22.056Z</time></trkpt><trkpt lat="45.9909626" lon="12.5469482"><ele>46.0</ele><time>2026-04-04T09:34:23.055Z</time></trkpt><trkpt lat="45.9908772" lon="12.5470644"><ele>46.25</ele><time>2026-04-04T09:34:24.055Z</time></trkpt><trkpt lat="45.9907797" lon="12.5471518"><ele>46.5</ele><time>2026-04-04T09:34:25.055Z</time></trkpt><trkpt lat="45.9906663" lon="12.5472155"><ele>46.75</ele><time>2026-04-04T09:34:26.054Z</time></trkpt><trkpt lat="45.9905516" lon="12.5472607"><ele>47.0</ele><time>2026-04-04T09:34:27.054Z</time></trkpt><trkpt lat="45.9904481" lon="12.5472944"><ele>47.0</ele><time>2026-04-04T09:34:28.055Z</time></trkpt><trkpt lat="45.9903621" lon="12.5473272"><ele>47.0</ele><time>2026-04-04T09:34:29.055Z</time></trkpt><trkpt lat="45.9902994" lon="12.5473597"><ele>47.0</ele><time>2026-04-04T09:34:30.054Z</time></trkpt><trkpt lat="45.9901969" lon="12.5474105"><ele>47.0</ele><time>2026-04-04T09:34:32.055Z</time></trkpt><trkpt lat="45.9900949" lon="12.5474541"><ele>47.0</ele><time>2026-04-04T09:34:34.056Z</time></trkpt><trkpt lat="45.9900152" lon="12.5475118"><ele>47.0</ele><time>2026-04-04T09:34:36.054Z</time></trkpt><trkpt lat="45.9899968" lon="12.5476535"><ele>47.0</ele><time>2026-04-04T09:34:38.054Z</time></trkpt><trkpt lat="45.9900588" lon="12.5477496"><ele>47.0</ele><time>2026-04-04T09:34:39.054Z</time></trkpt><trkpt lat="45.990119" lon="12.5478369"><ele>47.0</ele><time>2026-04-04T09:34:40.055Z</time></trkpt><trkpt lat="45.9901914" lon="12.5479347"><ele>47.0</ele><time>2026-04-04T09:34:41.055Z</time></trkpt><trkpt lat="45.9902723" lon="12.5480362"><ele>47.2</ele><time>2026-04-04T09:34:42.053Z</time></trkpt><trkpt lat="45.9903553" lon="12.5481312"><ele>47.400000000000006</ele><time>2026-04-04T09:34:43.055Z</time></trkpt><trkpt lat="45.9904308" lon="12.5482413"><ele>47.599999999999994</ele><time>2026-04-04T09:34:44.056Z</time></trkpt><trkpt lat="45.9905083" lon="12.5483427"><ele>47.8</ele><time>2026-04-04T09:34:45.054Z</time></trkpt><trkpt lat="45.9905637" lon="12.5484578"><ele>48.0</ele><time>2026-04-04T09:34:46.054Z</time></trkpt><trkpt lat="45.990598" lon="12.5485915"><ele>48.0</ele><time>2026-04-04T09:34:47.056Z</time></trkpt><trkpt lat="45.9906212" lon="12.54874"><ele>48.0</ele><time>2026-04-04T09:34:48.054Z</time></trkpt><trkpt lat="45.9906419" lon="12.5488944"><ele>48.0</ele><time>2026-04-04T09:34:49.055Z</time></trkpt><trkpt lat="45.9906626" lon="12.549073"><ele>48.0</ele><time>2026-04-04T09:34:50.055Z</time></trkpt><trkpt lat="45.9906889" lon="12.549257"><ele>48.0</ele><time>2026-04-04T09:34:51.055Z</time></trkpt><trkpt lat="45.990719" lon="12.5494423"><ele>48.0</ele><time>2026-04-04T09:34:52.054Z</time></trkpt><trkpt lat="45.9907546" lon="12.5496326"><ele>48.0</ele><time>2026-04-04T09:34:53.055Z</time></trkpt><trkpt lat="45.9907943" lon="12.5498151"><ele>48.0</ele><time>2026-04-04T09:34:54.056Z</time></trkpt><trkpt lat="45.990834" lon="12.5499897"><ele>48.0</ele><time>2026-04-04T09:34:55.056Z</time></trkpt><trkpt lat="45.9908742" lon="12.5501569"><ele>48.0</ele><time>2026-04-04T09:34:56.054Z</time></trkpt><trkpt lat="45.9909096" lon="12.550312"><ele>48.0</ele><time>2026-04-04T09:34:57.055Z</time></trkpt><trkpt lat="45.9909441" lon="12.5504557"><ele>48.0</ele><time>2026-04-04T09:34:58.056Z</time></trkpt><trkpt lat="45.9909748" lon="12.5505902"><ele>48.0</ele><time>2026-04-04T09:34:59.053Z</time></trkpt><trkpt lat="45.9910047" lon="12.5507181"><ele>48.2</ele><time>2026-04-04T09:35:00.055Z</time></trkpt><trkpt lat="45.991034" lon="12.5508462"><ele>48.4</ele><time>2026-04-04T09:35:01.054Z</time></trkpt><trkpt lat="45.991062" lon="12.5509853"><ele>48.6</ele><time>2026-04-04T09:35:02.054Z</time></trkpt><trkpt lat="45.9910928" lon="12.5511302"><ele>48.800000000000004</ele><time>2026-04-04T09:35:03.055Z</time></trkpt><trkpt lat="45.9911294" lon="12.5512816"><ele>49.0</ele><time>2026-04-04T09:35:04.054Z</time></trkpt><trkpt lat="45.9911844" lon="12.5514471"><ele>49.0</ele><time>2026-04-04T09:35:05.054Z</time></trkpt><trkpt lat="45.9912566" lon="12.5516184"><ele>49.0</ele><time>2026-04-04T09:35:06.055Z</time></trkpt><trkpt lat="45.9913408" lon="12.5517972"><ele>49.0</ele><time>2026-04-04T09:35:07.055Z</time></trkpt><trkpt lat="45.9914333" lon="12.5519787"><ele>49.0</ele><time>2026-04-04T09:35:08.056Z</time></trkpt><trkpt lat="45.991538" lon="12.5521631"><ele>49.0</ele><time>2026-04-04T09:35:09.055Z</time></trkpt><trkpt lat="45.9916491" lon="12.5523453"><ele>49.0</ele><time>2026-04-04T09:35:10.054Z</time></trkpt><trkpt lat="45.9917627" lon="12.5525271"><ele>49.0</ele><time>2026-04-04T09:35:11.056Z</time></trkpt><trkpt lat="45.9918637" lon="12.5526996"><ele>49.0</ele><time>2026-04-04T09:35:12.055Z</time></trkpt><trkpt lat="45.9919596" lon="12.5528592"><ele>49.0</ele><time>2026-04-04T09:35:13.055Z</time></trkpt><trkpt lat="45.9920531" lon="12.5530133"><ele>49.0</ele><time>2026-04-04T09:35:14.054Z</time></trkpt><trkpt lat="45.992145" lon="12.5531595"><ele>49.0</ele><time>2026-04-04T09:35:15.055Z</time></trkpt><trkpt lat="45.9922397" lon="12.553303"><ele>49.25</ele><time>2026-04-04T09:35:16.055Z</time></trkpt><trkpt lat="45.9923468" lon="12.5534366"><ele>49.5</ele><time>2026-04-04T09:35:17.055Z</time></trkpt><trkpt lat="45.9924559" lon="12.5535709"><ele>49.75</ele><time>2026-04-04T09:35:18.055Z</time></trkpt><trkpt lat="45.9925649" lon="12.5536949"><ele>50.0</ele><time>2026-04-04T09:35:19.054Z</time></trkpt><trkpt lat="45.9926715" lon="12.5538181"><ele>50.25</ele><time>2026-04-04T09:35:20.055Z</time></trkpt><trkpt lat="45.992779" lon="12.5539368"><ele>50.5</ele><time>2026-04-04T09:35:21.055Z</time></trkpt><trkpt lat="45.9928793" lon="12.5540511"><ele>50.75</ele><time>2026-04-04T09:35:22.056Z</time></trkpt><trkpt lat="45.99298" lon="12.5541748"><ele>51.0</ele><time>2026-04-04T09:35:23.054Z</time></trkpt><trkpt lat="45.9930891" lon="12.5542996"><ele>51.0</ele><time>2026-04-04T09:35:24.055Z</time></trkpt><trkpt lat="45.9932011" lon="12.5544326"><ele>51.0</ele><time>2026-04-04T09:35:25.055Z</time></trkpt><trkpt lat="45.9933028" lon="12.5545591"><ele>51.0</ele><time>2026-04-04T09:35:26.055Z</time></trkpt><trkpt lat="45.9933987" lon="12.5546801"><ele>51.0</ele><time>2026-04-04T09:35:27.053Z</time></trkpt><trkpt lat="45.9934865" lon="12.5547948"><ele>51.25</ele><time>2026-04-04T09:35:28.053Z</time></trkpt><trkpt lat="45.993575" lon="12.5549096"><ele>51.5</ele><time>2026-04-04T09:35:29.054Z</time></trkpt><trkpt lat="45.9936561" lon="12.5550276"><ele>51.75</ele><time>2026-04-04T09:35:30.054Z</time></trkpt><trkpt lat="45.9937446" lon="12.5551401"><ele>52.0</ele><time>2026-04-04T09:35:31.054Z</time></trkpt><trkpt lat="45.9938295" lon="12.5552571"><ele>52.0</ele><time>2026-04-04T09:35:32.053Z</time></trkpt><trkpt lat="45.9939171" lon="12.5553697"><ele>52.0</ele><time>2026-04-04T09:35:33.054Z</time></trkpt><trkpt lat="45.9940053" lon="12.5554865"><ele>52.0</ele><time>2026-04-04T09:35:34.055Z</time></trkpt><trkpt lat="45.9941037" lon="12.5556111"><ele>52.0</ele><time>2026-04-04T09:35:35.055Z</time></trkpt><trkpt lat="45.9942038" lon="12.5557332"><ele>52.5</ele><time>2026-04-04T09:35:36.054Z</time></trkpt><trkpt lat="45.9943032" lon="12.5558621"><ele>53.0</ele><time>2026-04-04T09:35:37.054Z</time></trkpt><trkpt lat="45.9943997" lon="12.5559938"><ele>53.5</ele><time>2026-04-04T09:35:38.054Z</time></trkpt><trkpt lat="45.9944952" lon="12.5561211"><ele>54.0</ele><time>2026-04-04T09:35:39.054Z</time></trkpt><trkpt lat="45.9945898" lon="12.5562477"><ele>54.0</ele><time>2026-04-04T09:35:40.055Z</time></trkpt><trkpt lat="45.9946885" lon="12.5563763"><ele>54.0</ele><time>2026-04-04T09:35:41.054Z</time></trkpt><trkpt lat="45.9947915" lon="12.5565102"><ele>54.0</ele><time>2026-04-04T09:35:42.054Z</time></trkpt><trkpt lat="45.9949014" lon="12.5566581"><ele>54.0</ele><time>2026-04-04T09:35:43.054Z</time></trkpt><trkpt lat="45.9950121" lon="12.5568165"><ele>54.0</ele><time>2026-04-04T09:35:44.054Z</time></trkpt><trkpt lat="45.99512" lon="12.5569924"><ele>54.0</ele><time>2026-04-04T09:35:45.055Z</time></trkpt><trkpt lat="45.995226" lon="12.5571797"><ele>54.0</ele><time>2026-04-04T09:35:46.056Z</time></trkpt><trkpt lat="45.9953286" lon="12.5573791"><ele>54.0</ele><time>2026-04-04T09:35:47.056Z</time></trkpt><trkpt lat="45.9954279" lon="12.5575896"><ele>54.0</ele><time>2026-04-04T09:35:48.055Z</time></trkpt><trkpt lat="45.995523" lon="12.5577886"><ele>54.0</ele><time>2026-04-04T09:35:49.054Z</time></trkpt><trkpt lat="45.9956142" lon="12.5579885"><ele>54.0</ele><time>2026-04-04T09:35:50.055Z</time></trkpt><trkpt lat="45.9956977" lon="12.5581835"><ele>54.0</ele><time>2026-04-04T09:35:51.056Z</time></trkpt><trkpt lat="45.9957764" lon="12.5583752"><ele>54.0</ele><time>2026-04-04T09:35:52.056Z</time></trkpt><trkpt lat="45.995848" lon="12.558581"><ele>54.66666666666667</ele><time>2026-04-04T09:35:53.054Z</time></trkpt><trkpt lat="45.9959258" lon="12.5588038"><ele>55.333333333333336</ele><time>2026-04-04T09:35:54.054Z</time></trkpt><trkpt lat="45.9960086" lon="12.5590369"><ele>56.0</ele><time>2026-04-04T09:35:55.055Z</time></trkpt><trkpt lat="45.9960954" lon="12.5592841"><ele>56.0</ele><time>2026-04-04T09:35:56.054Z</time></trkpt><trkpt lat="45.9961894" lon="12.5595215"><ele>56.0</ele><time>2026-04-04T09:35:57.056Z</time></trkpt><trkpt lat="45.9962897" lon="12.5597695"><ele>56.0</ele><time>2026-04-04T09:35:58.054Z</time></trkpt><trkpt lat="45.9963933" lon="12.5600251"><ele>56.333333333333336</ele><time>2026-04-04T09:35:59.055Z</time></trkpt><trkpt lat="45.9965038" lon="12.5602717"><ele>56.66666666666667</ele><time>2026-04-04T09:36:00.056Z</time></trkpt><trkpt lat="45.9966199" lon="12.5605207"><ele>57.0</ele><time>2026-04-04T09:36:01.055Z</time></trkpt><trkpt lat="45.996746" lon="12.5607563"><ele>57.33333333333333</ele><time>2026-04-04T09:36:02.055Z</time></trkpt><trkpt lat="45.9968736" lon="12.5609802"><ele>57.666666666666664</ele><time>2026-04-04T09:36:03.054Z</time></trkpt><trkpt lat="45.997004" lon="12.5611936"><ele>58.0</ele><time>2026-04-04T09:36:04.055Z</time></trkpt><trkpt lat="45.9971273" lon="12.56139"><ele>58.0</ele><time>2026-04-04T09:36:05.054Z</time></trkpt><trkpt lat="45.9972403" lon="12.5615802"><ele>58.0</ele><time>2026-04-04T09:36:06.054Z</time></trkpt><trkpt lat="45.9973463" lon="12.5617723"><ele>58.0</ele><time>2026-04-04T09:36:07.056Z</time></trkpt><trkpt lat="45.9974466" lon="12.5619703"><ele>58.33333333333333</ele><time>2026-04-04T09:36:08.054Z</time></trkpt><trkpt lat="45.9975412" lon="12.5621733"><ele>58.66666666666667</ele><time>2026-04-04T09:36:09.053Z</time></trkpt><trkpt lat="45.9976461" lon="12.5623703"><ele>59.0</ele><time>2026-04-04T09:36:10.054Z</time></trkpt><trkpt lat="45.9977573" lon="12.5625643"><ele>59.0</ele><time>2026-04-04T09:36:11.056Z</time></trkpt><trkpt lat="45.9978689" lon="12.5627641"><ele>59.0</ele><time>2026-04-04T09:36:12.056Z</time></trkpt><trkpt lat="45.9979882" lon="12.5629614"><ele>59.0</ele><time>2026-04-04T09:36:13.055Z</time></trkpt><trkpt lat="45.9981192" lon="12.5631564"><ele>59.66666666666667</ele><time>2026-04-04T09:36:14.053Z</time></trkpt><trkpt lat="45.9982582" lon="12.563346"><ele>60.33333333333333</ele><time>2026-04-04T09:36:15.054Z</time></trkpt><trkpt lat="45.9983911" lon="12.5635384"><ele>61.0</ele><time>2026-04-04T09:36:16.055Z</time></trkpt><trkpt lat="45.9985295" lon="12.5637384"><ele>61.0</ele><time>2026-04-04T09:36:17.054Z</time></trkpt><trkpt lat="45.998651" lon="12.5639114"><ele>61.0</ele><time>2026-04-04T09:36:18.054Z</time></trkpt><trkpt lat="45.9987645" lon="12.5640774"><ele>61.0</ele><time>2026-04-04T09:36:19.054Z</time></trkpt><trkpt lat="45.9988745" lon="12.5642402"><ele>61.0</ele><time>2026-04-04T09:36:20.054Z</time></trkpt><trkpt lat="45.9989893" lon="12.5644026"><ele>61.0</ele><time>2026-04-04T09:36:21.054Z</time></trkpt><trkpt lat="45.9991052" lon="12.5645694"><ele>61.0</ele><time>2026-04-04T09:36:22.056Z</time></trkpt><trkpt lat="45.9992251" lon="12.5647351"><ele>61.33333333333333</ele><time>2026-04-04T09:36:23.055Z</time></trkpt><trkpt lat="45.9993431" lon="12.5648991"><ele>61.66666666666667</ele><time>2026-04-04T09:36:24.054Z</time></trkpt><trkpt lat="45.9994546" lon="12.5650657"><ele>62.0</ele><time>2026-04-04T09:36:25.055Z</time></trkpt><trkpt lat="45.9995628" lon="12.5652246"><ele>62.333333333333336</ele><time>2026-04-04T09:36:26.055Z</time></trkpt><trkpt lat="45.9996715" lon="12.5653765"><ele>62.66666666666667</ele><time>2026-04-04T09:36:27.056Z</time></trkpt><trkpt lat="45.9997772" lon="12.5655232"><ele>63.0</ele><time>2026-04-04T09:36:28.055Z</time></trkpt><trkpt lat="45.999883" lon="12.5656832"><ele>63.0</ele><time>2026-04-04T09:36:29.054Z</time></trkpt><trkpt lat="45.9999957" lon="12.5658509"><ele>63.0</ele><time>2026-04-04T09:36:30.056Z</time></trkpt><trkpt lat="46.0001098" lon="12.5660243"><ele>63.0</ele><time>2026-04-04T09:36:31.055Z</time></trkpt><trkpt lat="46.0002225" lon="12.5662158"><ele>63.66666666666667</ele><time>2026-04-04T09:36:32.054Z</time></trkpt><trkpt lat="46.0003252" lon="12.5664126"><ele>64.33333333333334</ele><time>2026-04-04T09:36:33.055Z</time></trkpt><trkpt lat="46.0004177" lon="12.5666053"><ele>65.0</ele><time>2026-04-04T09:36:34.055Z</time></trkpt><trkpt lat="46.000509" lon="12.5667946"><ele>65.0</ele><time>2026-04-04T09:36:35.055Z</time></trkpt><trkpt lat="46.0005985" lon="12.5669907"><ele>65.0</ele><time>2026-04-04T09:36:36.056Z</time></trkpt><trkpt lat="46.000686" lon="12.5671923"><ele>65.0</ele><time>2026-04-04T09:36:37.056Z</time></trkpt><trkpt lat="46.0007734" lon="12.5673891"><ele>65.0</ele><time>2026-04-04T09:36:38.054Z</time></trkpt><trkpt lat="46.000859" lon="12.5675822"><ele>65.0</ele><time>2026-04-04T09:36:39.056Z</time></trkpt><trkpt lat="46.000949" lon="12.5677733"><ele>65.0</ele><time>2026-04-04T09:36:40.055Z</time></trkpt><trkpt lat="46.0010346" lon="12.5679757"><ele>65.0</ele><time>2026-04-04T09:36:41.055Z</time></trkpt><trkpt lat="46.0011199" lon="12.5681772"><ele>65.0</ele><time>2026-04-04T09:36:42.054Z</time></trkpt><trkpt lat="46.0012046" lon="12.5683706"><ele>65.0</ele><time>2026-04-04T09:36:43.055Z</time></trkpt><trkpt lat="46.0012853" lon="12.5685573"><ele>65.33333333333334</ele><time>2026-04-04T09:36:44.054Z</time></trkpt><trkpt lat="46.0013661" lon="12.5687495"><ele>65.66666666666667</ele><time>2026-04-04T09:36:45.055Z</time></trkpt><trkpt lat="46.0014463" lon="12.568947"><ele>66.0</ele><time>2026-04-04T09:36:46.055Z</time></trkpt><trkpt lat="46.0015247" lon="12.5691559"><ele>66.0</ele><time>2026-04-04T09:36:47.054Z</time></trkpt><trkpt lat="46.0015965" lon="12.5693724"><ele>66.0</ele><time>2026-04-04T09:36:48.056Z</time></trkpt><trkpt lat="46.0016738" lon="12.5695933"><ele>66.0</ele><time>2026-04-04T09:36:49.055Z</time></trkpt><trkpt lat="46.0017529" lon="12.5698176"><ele>66.0</ele><time>2026-04-04T09:36:50.055Z</time></trkpt><trkpt lat="46.0018303" lon="12.5700369"><ele>66.0</ele><time>2026-04-04T09:36:51.054Z</time></trkpt><trkpt lat="46.0019084" lon="12.5702584"><ele>66.0</ele><time>2026-04-04T09:36:52.055Z</time></trkpt><trkpt lat="46.0019878" lon="12.5704768"><ele>66.0</ele><time>2026-04-04T09:36:53.055Z</time></trkpt><trkpt lat="46.0020683" lon="12.570692"><ele>66.0</ele><time>2026-04-04T09:36:54.055Z</time></trkpt><trkpt lat="46.0021471" lon="12.5709128"><ele>66.0</ele><time>2026-04-04T09:36:55.055Z</time></trkpt><trkpt lat="46.0022282" lon="12.5711323"><ele>66.33333333333333</ele><time>2026-04-04T09:36:56.055Z</time></trkpt><trkpt lat="46.0023106" lon="12.5713581"><ele>66.66666666666666</ele><time>2026-04-04T09:36:57.054Z</time></trkpt><trkpt lat="46.0023937" lon="12.5715839"><ele>67.0</ele><time>2026-04-04T09:36:58.056Z</time></trkpt><trkpt lat="46.0024757" lon="12.5718111"><ele>67.66666666666666</ele><time>2026-04-04T09:36:59.055Z</time></trkpt><trkpt lat="46.0025564" lon="12.572033"><ele>68.33333333333333</ele><time>2026-04-04T09:37:00.054Z</time></trkpt><trkpt lat="46.0026319" lon="12.5722564"><ele>69.0</ele><time>2026-04-04T09:37:01.055Z</time></trkpt><trkpt lat="46.0027074" lon="12.5724789"><ele>69.0</ele><time>2026-04-04T09:37:02.055Z</time></trkpt><trkpt lat="46.0027865" lon="12.5726946"><ele>69.0</ele><time>2026-04-04T09:37:03.055Z</time></trkpt><trkpt lat="46.0028719" lon="12.5729122"><ele>69.0</ele><time>2026-04-04T09:37:04.055Z</time></trkpt><trkpt lat="46.0029526" lon="12.5731316"><ele>68.66666666666667</ele><time>2026-04-04T09:37:05.056Z</time></trkpt><trkpt lat="46.0030328" lon="12.5733522"><ele>68.33333333333334</ele><time>2026-04-04T09:37:06.055Z</time></trkpt><trkpt lat="46.0031176" lon="12.5735841"><ele>68.0</ele><time>2026-04-04T09:37:07.056Z</time></trkpt><trkpt lat="46.0032014" lon="12.5738178"><ele>68.0</ele><time>2026-04-04T09:37:08.054Z</time></trkpt><trkpt lat="46.0032834" lon="12.5740556"><ele>68.0</ele><time>2026-04-04T09:37:09.056Z</time></trkpt><trkpt lat="46.0033651" lon="12.5742989"><ele>68.0</ele><time>2026-04-04T09:37:10.054Z</time></trkpt><trkpt lat="46.0034264" lon="12.5745516"><ele>69.0</ele><time>2026-04-04T09:37:11.054Z</time></trkpt><trkpt lat="46.0034773" lon="12.5747962"><ele>70.0</ele><time>2026-04-04T09:37:12.056Z</time></trkpt><trkpt lat="46.0035143" lon="12.57503"><ele>71.0</ele><time>2026-04-04T09:37:13.055Z</time></trkpt><trkpt lat="46.0035401" lon="12.5752302"><ele>71.2</ele><time>2026-04-04T09:37:14.054Z</time></trkpt><trkpt lat="46.0035604" lon="12.5754043"><ele>71.39999999999999</ele><time>2026-04-04T09:37:15.055Z</time></trkpt><trkpt lat="46.0035727" lon="12.5755577"><ele>71.6</ele><time>2026-04-04T09:37:16.055Z</time></trkpt><trkpt lat="46.0035821" lon="12.5756707"><ele>71.8</ele><time>2026-04-04T09:37:17.054Z</time></trkpt><trkpt lat="46.003592" lon="12.5757665"><ele>72.0</ele><time>2026-04-04T09:37:18.056Z</time></trkpt><trkpt lat="46.0036101" lon="12.5759252"><ele>72.0</ele><time>2026-04-04T09:37:20.054Z</time></trkpt><trkpt lat="46.0036179" lon="12.5760288"><ele>72.0</ele><time>2026-04-04T09:37:22.054Z</time></trkpt><trkpt lat="46.0036254" lon="12.5761366"><ele>72.0</ele><time>2026-04-04T09:37:25.054Z</time></trkpt><trkpt lat="46.0036567" lon="12.5762651"><ele>72.0</ele><time>2026-04-04T09:37:40.055Z</time></trkpt><trkpt lat="46.0036713" lon="12.5763715"><ele>72.0</ele><time>2026-04-04T09:37:41.056Z</time></trkpt><trkpt lat="46.0036973" lon="12.5764925"><ele>72.0</ele><time>2026-04-04T09:37:42.055Z</time></trkpt><trkpt lat="46.0037417" lon="12.5766418"><ele>72.0</ele><time>2026-04-04T09:37:43.055Z</time></trkpt><trkpt lat="46.0038034" lon="12.5767909"><ele>72.0</ele><time>2026-04-04T09:37:44.054Z</time></trkpt><trkpt lat="46.0038745" lon="12.5769321"><ele>72.0</ele><time>2026-04-04T09:37:45.054Z</time></trkpt><trkpt lat="46.0039433" lon="12.5770555"><ele>72.0</ele><time>2026-04-04T09:37:46.054Z</time></trkpt><trkpt lat="46.0040004" lon="12.577162"><ele>72.0</ele><time>2026-04-04T09:37:47.054Z</time></trkpt><trkpt lat="46.004054" lon="12.5772604"><ele>72.0</ele><time>2026-04-04T09:37:48.055Z</time></trkpt><trkpt lat="46.00411" lon="12.5773699"><ele>72.0</ele><time>2026-04-04T09:37:49.054Z</time></trkpt><trkpt lat="46.0041752" lon="12.5774949"><ele>72.0</ele><time>2026-04-04T09:37:50.056Z</time></trkpt><trkpt lat="46.0042505" lon="12.5776389"><ele>72.0</ele><time>2026-04-04T09:37:51.055Z</time></trkpt><trkpt lat="46.0043399" lon="12.5778018"><ele>72.33333333333333</ele><time>2026-04-04T09:37:52.055Z</time></trkpt><trkpt lat="46.0044417" lon="12.5779971"><ele>72.66666666666666</ele><time>2026-04-04T09:37:53.057Z</time></trkpt><trkpt lat="46.0045495" lon="12.5782071"><ele>73.0</ele><time>2026-04-04T09:37:54.054Z</time></trkpt><trkpt lat="46.0046677" lon="12.5784325"><ele>73.0</ele><time>2026-04-04T09:37:55.055Z</time></trkpt><trkpt lat="46.004792" lon="12.5786674"><ele>73.0</ele><time>2026-04-04T09:37:56.056Z</time></trkpt><trkpt lat="46.0049202" lon="12.5789041"><ele>73.0</ele><time>2026-04-04T09:37:57.054Z</time></trkpt><trkpt lat="46.0050333" lon="12.5791212"><ele>73.66666666666666</ele><time>2026-04-04T09:37:58.055Z</time></trkpt><trkpt lat="46.005133" lon="12.5793074"><ele>74.33333333333333</ele><time>2026-04-04T09:37:59.055Z</time></trkpt><trkpt lat="46.0052227" lon="12.5794832"><ele>75.0</ele><time>2026-04-04T09:38:00.054Z</time></trkpt><trkpt lat="46.0053128" lon="12.5796485"><ele>75.5</ele><time>2026-04-04T09:38:01.055Z</time></trkpt><trkpt lat="46.005401" lon="12.5798098"><ele>76.0</ele><time>2026-04-04T09:38:02.055Z</time></trkpt><trkpt lat="46.0054905" lon="12.5799719"><ele>76.5</ele><time>2026-04-04T09:38:03.054Z</time></trkpt><trkpt lat="46.005579" lon="12.5801327"><ele>77.0</ele><time>2026-04-04T09:38:04.055Z</time></trkpt><trkpt lat="46.0056674" lon="12.5802911"><ele>77.0</ele><time>2026-04-04T09:38:05.056Z</time></trkpt><trkpt lat="46.0057508" lon="12.5804563"><ele>77.0</ele><time>2026-04-04T09:38:06.056Z</time></trkpt><trkpt lat="46.0058421" lon="12.5806265"><ele>77.0</ele><time>2026-04-04T09:38:07.055Z</time></trkpt><trkpt lat="46.0059366" lon="12.5808093"><ele>77.0</ele><time>2026-04-04T09:38:08.054Z</time></trkpt><trkpt lat="46.0060383" lon="12.5809928"><ele>76.66666666666667</ele><time>2026-04-04T09:38:09.055Z</time></trkpt><trkpt lat="46.0061443" lon="12.5811857"><ele>76.33333333333333</ele><time>2026-04-04T09:38:10.056Z</time></trkpt><trkpt lat="46.0062481" lon="12.5813816"><ele>76.0</ele><time>2026-04-04T09:38:11.056Z</time></trkpt><trkpt lat="46.0063559" lon="12.5815876"><ele>76.0</ele><time>2026-04-04T09:38:12.054Z</time></trkpt><trkpt lat="46.0064643" lon="12.5817953"><ele>76.0</ele><time>2026-04-04T09:38:13.055Z</time></trkpt><trkpt lat="46.0065735" lon="12.581998"><ele>76.0</ele><time>2026-04-04T09:38:14.055Z</time></trkpt><trkpt lat="46.0066726" lon="12.5821956"><ele>76.66666666666666</ele><time>2026-04-04T09:38:15.056Z</time></trkpt><trkpt lat="46.0067663" lon="12.5823793"><ele>77.33333333333333</ele><time>2026-04-04T09:38:16.054Z</time></trkpt><trkpt lat="46.0068623" lon="12.5825593"><ele>78.0</ele><time>2026-04-04T09:38:17.055Z</time></trkpt><trkpt lat="46.0069545" lon="12.5827351"><ele>78.66666666666667</ele><time>2026-04-04T09:38:18.055Z</time></trkpt><trkpt lat="46.0070472" lon="12.5829106"><ele>79.33333333333334</ele><time>2026-04-04T09:38:19.056Z</time></trkpt><trkpt lat="46.0071473" lon="12.5830888"><ele>80.0</ele><time>2026-04-04T09:38:20.054Z</time></trkpt><trkpt lat="46.0072476" lon="12.5832842"><ele>80.0</ele><time>2026-04-04T09:38:21.055Z</time></trkpt><trkpt lat="46.0073516" lon="12.5834792"><ele>80.0</ele><time>2026-04-04T09:38:22.055Z</time></trkpt><trkpt lat="46.007462" lon="12.5836763"><ele>80.0</ele><time>2026-04-04T09:38:23.056Z</time></trkpt><trkpt lat="46.0075726" lon="12.5838743"><ele>80.0</ele><time>2026-04-04T09:38:24.056Z</time></trkpt><trkpt lat="46.0076816" lon="12.5840748"><ele>80.0</ele><time>2026-04-04T09:38:25.055Z</time></trkpt><trkpt lat="46.0077941" lon="12.5842787"><ele>80.0</ele><time>2026-04-04T09:38:26.056Z</time></trkpt><trkpt lat="46.0079111" lon="12.5844902"><ele>80.0</ele><time>2026-04-04T09:38:27.055Z</time></trkpt><trkpt lat="46.0080299" lon="12.5847066"><ele>80.0</ele><time>2026-04-04T09:38:28.055Z</time></trkpt><trkpt lat="46.0081552" lon="12.5849388"><ele>80.0</ele><time>2026-04-04T09:38:29.054Z</time></trkpt><trkpt lat="46.008295" lon="12.5851831"><ele>80.5</ele><time>2026-04-04T09:38:30.055Z</time></trkpt><trkpt lat="46.0084462" lon="12.5854446"><ele>81.0</ele><time>2026-04-04T09:38:31.055Z</time></trkpt><trkpt lat="46.0085948" lon="12.5857176"><ele>81.0</ele><time>2026-04-04T09:38:32.055Z</time></trkpt><trkpt lat="46.0087275" lon="12.5859753"><ele>81.0</ele><time>2026-04-04T09:38:33.056Z</time></trkpt><trkpt lat="46.0088535" lon="12.5862228"><ele>81.0</ele><time>2026-04-04T09:38:34.056Z</time></trkpt><trkpt lat="46.0089761" lon="12.5864728"><ele>81.0</ele><time>2026-04-04T09:38:35.055Z</time></trkpt><trkpt lat="46.0091" lon="12.5867111"><ele>81.0</ele><time>2026-04-04T09:38:36.055Z</time></trkpt><trkpt lat="46.0092256" lon="12.5869415"><ele>81.0</ele><time>2026-04-04T09:38:37.054Z</time></trkpt><trkpt lat="46.0093426" lon="12.587175"><ele>81.66666666666667</ele><time>2026-04-04T09:38:38.056Z</time></trkpt><trkpt lat="46.00946" lon="12.5873995"><ele>82.33333333333334</ele><time>2026-04-04T09:38:39.055Z</time></trkpt><trkpt lat="46.0095788" lon="12.5876254"><ele>83.0</ele><time>2026-04-04T09:38:40.055Z</time></trkpt><trkpt lat="46.0097021" lon="12.5878456"><ele>84.0</ele><time>2026-04-04T09:38:41.057Z</time></trkpt><trkpt lat="46.0098221" lon="12.5880708"><ele>85.0</ele><time>2026-04-04T09:38:42.054Z</time></trkpt><trkpt lat="46.009942" lon="12.5882873"><ele>86.0</ele><time>2026-04-04T09:38:43.054Z</time></trkpt><trkpt lat="46.0100717" lon="12.5884961"><ele>86.0</ele><time>2026-04-04T09:38:44.055Z</time></trkpt><trkpt lat="46.0102014" lon="12.5887054"><ele>86.0</ele><time>2026-04-04T09:38:45.054Z</time></trkpt><trkpt lat="46.0103344" lon="12.5889168"><ele>86.0</ele><time>2026-04-04T09:38:46.054Z</time></trkpt><trkpt lat="46.0104667" lon="12.5891214"><ele>86.0</ele><time>2026-04-04T09:38:47.054Z</time></trkpt><trkpt lat="46.0105987" lon="12.5893314"><ele>86.0</ele><time>2026-04-04T09:38:48.055Z</time></trkpt><trkpt lat="46.0107327" lon="12.5895286"><ele>86.0</ele><time>2026-04-04T09:38:49.056Z</time></trkpt><trkpt lat="46.0108596" lon="12.589729"><ele>86.66666666666667</ele><time>2026-04-04T09:38:50.056Z</time></trkpt><trkpt lat="46.0109886" lon="12.5899256"><ele>87.33333333333333</ele><time>2026-04-04T09:38:51.054Z</time></trkpt><trkpt lat="46.0111206" lon="12.5901307"><ele>88.0</ele><time>2026-04-04T09:38:52.054Z</time></trkpt><trkpt lat="46.0112568" lon="12.590331"><ele>87.33333333333333</ele><time>2026-04-04T09:38:53.054Z</time></trkpt><trkpt lat="46.0113863" lon="12.5905318"><ele>86.66666666666667</ele><time>2026-04-04T09:38:54.056Z</time></trkpt><trkpt lat="46.0115126" lon="12.5907292"><ele>86.0</ele><time>2026-04-04T09:38:55.055Z</time></trkpt><trkpt lat="46.0116348" lon="12.5909185"><ele>86.33333333333334</ele><time>2026-04-04T09:38:56.056Z</time></trkpt><trkpt lat="46.0117488" lon="12.5910889"><ele>86.66666666666667</ele><time>2026-04-04T09:38:57.055Z</time></trkpt><trkpt lat="46.0118533" lon="12.5912508"><ele>87.0</ele><time>2026-04-04T09:38:58.054Z</time></trkpt><trkpt lat="46.0119481" lon="12.5913987"><ele>87.0</ele><time>2026-04-04T09:38:59.055Z</time></trkpt><trkpt lat="46.0120342" lon="12.5915332"><ele>87.0</ele><time>2026-04-04T09:39:00.055Z</time></trkpt><trkpt lat="46.0121078" lon="12.5916524"><ele>87.0</ele><time>2026-04-04T09:39:01.056Z</time></trkpt><trkpt lat="46.0121624" lon="12.5917644"><ele>87.0</ele><time>2026-04-04T09:39:02.055Z</time></trkpt><trkpt lat="46.0121961" lon="12.5918471"><ele>87.0</ele><time>2026-04-04T09:39:03.055Z</time></trkpt><trkpt lat="46.0122409" lon="12.5919937"><ele>87.19999999999999</ele><time>2026-04-04T09:39:05.055Z</time></trkpt><trkpt lat="46.0122552" lon="12.5921877"><ele>87.4</ele><time>2026-04-04T09:39:07.056Z</time></trkpt><trkpt lat="46.0122467" lon="12.5923132"><ele>87.6</ele><time>2026-04-04T09:39:08.055Z</time></trkpt><trkpt lat="46.0122122" lon="12.592442"><ele>87.80000000000001</ele><time>2026-04-04T09:39:09.055Z</time></trkpt><trkpt lat="46.012157" lon="12.592581"><ele>88.0</ele><time>2026-04-04T09:39:10.055Z</time></trkpt><trkpt lat="46.0120848" lon="12.5927262"><ele>88.0</ele><time>2026-04-04T09:39:11.055Z</time></trkpt><trkpt lat="46.0119961" lon="12.592886"><ele>88.0</ele><time>2026-04-04T09:39:12.054Z</time></trkpt><trkpt lat="46.0118851" lon="12.5930679"><ele>88.0</ele><time>2026-04-04T09:39:13.056Z</time></trkpt><trkpt lat="46.0117606" lon="12.5932607"><ele>88.0</ele><time>2026-04-04T09:39:14.056Z</time></trkpt><trkpt lat="46.0116311" lon="12.5934531"><ele>88.0</ele><time>2026-04-04T09:39:15.056Z</time></trkpt><trkpt lat="46.0114901" lon="12.5936725"><ele>88.0</ele><time>2026-04-04T09:39:16.054Z</time></trkpt><trkpt lat="46.0113343" lon="12.5939155"><ele>88.0</ele><time>2026-04-04T09:39:17.055Z</time></trkpt><trkpt lat="46.0111673" lon="12.5941668"><ele>88.0</ele><time>2026-04-04T09:39:18.055Z</time></trkpt><trkpt lat="46.0109959" lon="12.5944216"><ele>88.0</ele><time>2026-04-04T09:39:19.055Z</time></trkpt><trkpt lat="46.0108246" lon="12.5946687"><ele>88.0</ele><time>2026-04-04T09:39:20.054Z</time></trkpt><trkpt lat="46.0106592" lon="12.5949032"><ele>88.0</ele><time>2026-04-04T09:39:21.055Z</time></trkpt><trkpt lat="46.0105005" lon="12.5951301"><ele>88.0</ele><time>2026-04-04T09:39:22.054Z</time></trkpt><trkpt lat="46.0103487" lon="12.5953492"><ele>88.0</ele><time>2026-04-04T09:39:23.054Z</time></trkpt><trkpt lat="46.0101951" lon="12.5955594"><ele>88.0</ele><time>2026-04-04T09:39:24.054Z</time></trkpt><trkpt lat="46.0100383" lon="12.5957646"><ele>88.0</ele><time>2026-04-04T09:39:25.054Z</time></trkpt><trkpt lat="46.0098727" lon="12.5959718"><ele>88.0</ele><time>2026-04-04T09:39:26.056Z</time></trkpt><trkpt lat="46.0097052" lon="12.5961764"><ele>88.0</ele><time>2026-04-04T09:39:27.055Z</time></trkpt><trkpt lat="46.0095317" lon="12.5963879"><ele>88.0</ele><time>2026-04-04T09:39:28.055Z</time></trkpt><trkpt lat="46.0093518" lon="12.5965981"><ele>88.0</ele><time>2026-04-04T09:39:29.055Z</time></trkpt><trkpt lat="46.0091828" lon="12.5968014"><ele>88.0</ele><time>2026-04-04T09:39:30.055Z</time></trkpt><trkpt lat="46.0090213" lon="12.5970019"><ele>88.0</ele><time>2026-04-04T09:39:31.056Z</time></trkpt><trkpt lat="46.0088618" lon="12.5971976"><ele>88.0</ele><time>2026-04-04T09:39:32.055Z</time></trkpt><trkpt lat="46.0087109" lon="12.5973914"><ele>88.0</ele><time>2026-04-04T09:39:33.056Z</time></trkpt><trkpt lat="46.0085576" lon="12.5975751"><ele>88.0</ele><time>2026-04-04T09:39:34.056Z</time></trkpt><trkpt lat="46.008411" lon="12.5977569"><ele>88.0</ele><time>2026-04-04T09:39:35.056Z</time></trkpt><trkpt lat="46.0082594" lon="12.5979394"><ele>88.0</ele><time>2026-04-04T09:39:36.055Z</time></trkpt><trkpt lat="46.0081034" lon="12.5981307"><ele>88.0</ele><time>2026-04-04T09:39:37.056Z</time></trkpt><trkpt lat="46.0079428" lon="12.5983227"><ele>88.0</ele><time>2026-04-04T09:39:38.056Z</time></trkpt><trkpt lat="46.0077797" lon="12.5985231"><ele>88.0</ele><time>2026-04-04T09:39:39.055Z</time></trkpt><trkpt lat="46.0076148" lon="12.5987289"><ele>88.0</ele><time>2026-04-04T09:39:40.055Z</time></trkpt><trkpt lat="46.0074528" lon="12.5989363"><ele>87.5</ele><time>2026-04-04T09:39:41.055Z</time></trkpt><trkpt lat="46.0072883" lon="12.5991573"><ele>87.0</ele><time>2026-04-04T09:39:42.056Z</time></trkpt><trkpt lat="46.0071181" lon="12.5993797"><ele>87.0</ele><time>2026-04-04T09:39:43.056Z</time></trkpt><trkpt lat="46.0069474" lon="12.599602"><ele>87.0</ele><time>2026-04-04T09:39:44.056Z</time></trkpt><trkpt lat="46.0067779" lon="12.5998346"><ele>85.5</ele><time>2026-04-04T09:39:45.056Z</time></trkpt><trkpt lat="46.0066002" lon="12.6000662"><ele>84.0</ele><time>2026-04-04T09:39:46.057Z</time></trkpt><trkpt lat="46.0064262" lon="12.6002968"><ele>83.5</ele><time>2026-04-04T09:39:47.054Z</time></trkpt><trkpt lat="46.0062585" lon="12.6005274"><ele>83.0</ele><time>2026-04-04T09:39:48.055Z</time></trkpt><trkpt lat="46.0060896" lon="12.6007547"><ele>83.0</ele><time>2026-04-04T09:39:49.055Z</time></trkpt><trkpt lat="46.0059181" lon="12.6009802"><ele>83.0</ele><time>2026-04-04T09:39:50.055Z</time></trkpt><trkpt lat="46.0057456" lon="12.6012056"><ele>83.5</ele><time>2026-04-04T09:39:51.057Z</time></trkpt><trkpt lat="46.0055813" lon="12.6014324"><ele>84.0</ele><time>2026-04-04T09:39:52.055Z</time></trkpt><trkpt lat="46.0054133" lon="12.601653"><ele>84.0</ele><time>2026-04-04T09:39:53.054Z</time></trkpt><trkpt lat="46.0052514" lon="12.6018742"><ele>84.0</ele><time>2026-04-04T09:39:54.054Z</time></trkpt><trkpt lat="46.0050875" lon="12.6020908"><ele>84.0</ele><time>2026-04-04T09:39:55.055Z</time></trkpt><trkpt lat="46.0049189" lon="12.6023144"><ele>84.0</ele><time>2026-04-04T09:39:56.054Z</time></trkpt><trkpt lat="46.0047562" lon="12.6025378"><ele>84.0</ele><time>2026-04-04T09:39:57.054Z</time></trkpt><trkpt lat="46.0045941" lon="12.6027557"><ele>84.0</ele><time>2026-04-04T09:39:58.055Z</time></trkpt><trkpt lat="46.0044294" lon="12.6029757"><ele>84.0</ele><time>2026-04-04T09:39:59.054Z</time></trkpt><trkpt lat="46.0042717" lon="12.6031896"><ele>84.0</ele><time>2026-04-04T09:40:00.055Z</time></trkpt><trkpt lat="46.0041202" lon="12.6034037"><ele>84.0</ele><time>2026-04-04T09:40:01.055Z</time></trkpt><trkpt lat="46.0039741" lon="12.603616"><ele>82.33333333333333</ele><time>2026-04-04T09:40:02.054Z</time></trkpt><trkpt lat="46.0038358" lon="12.6038312"><ele>80.66666666666666</ele><time>2026-04-04T09:40:03.056Z</time></trkpt><trkpt lat="46.0037037" lon="12.60405"><ele>79.0</ele><time>2026-04-04T09:40:04.055Z</time></trkpt><trkpt lat="46.0035725" lon="12.6042751"><ele>79.33333333333333</ele><time>2026-04-04T09:40:05.056Z</time></trkpt><trkpt lat="46.003445" lon="12.604501"><ele>79.66666666666667</ele><time>2026-04-04T09:40:06.055Z</time></trkpt><trkpt lat="46.0033169" lon="12.6047317"><ele>80.0</ele><time>2026-04-04T09:40:07.055Z</time></trkpt><trkpt lat="46.0031888" lon="12.6049669"><ele>80.0</ele><time>2026-04-04T09:40:08.055Z</time></trkpt><trkpt lat="46.0030604" lon="12.6051927"><ele>80.0</ele><time>2026-04-04T09:40:09.055Z</time></trkpt><trkpt lat="46.0029346" lon="12.6054204"><ele>80.0</ele><time>2026-04-04T09:40:10.054Z</time></trkpt><trkpt lat="46.0028083" lon="12.6056488"><ele>79.66666666666667</ele><time>2026-04-04T09:40:11.054Z</time></trkpt><trkpt lat="46.0026848" lon="12.6058779"><ele>79.33333333333333</ele><time>2026-04-04T09:40:12.055Z</time></trkpt><trkpt lat="46.0025588" lon="12.60611"><ele>79.0</ele><time>2026-04-04T09:40:13.056Z</time></trkpt><trkpt lat="46.0024297" lon="12.6063397"><ele>79.0</ele><time>2026-04-04T09:40:14.056Z</time></trkpt><trkpt lat="46.0022994" lon="12.6065637"><ele>79.0</ele><time>2026-04-04T09:40:15.055Z</time></trkpt><trkpt lat="46.0021642" lon="12.6067927"><ele>79.0</ele><time>2026-04-04T09:40:16.056Z</time></trkpt><trkpt lat="46.0020284" lon="12.6070109"><ele>79.33333333333333</ele><time>2026-04-04T09:40:17.056Z</time></trkpt><trkpt lat="46.0018891" lon="12.6072234"><ele>79.66666666666667</ele><time>2026-04-04T09:40:18.055Z</time></trkpt><trkpt lat="46.0017505" lon="12.6074307"><ele>80.0</ele><time>2026-04-04T09:40:19.055Z</time></trkpt><trkpt lat="46.0016144" lon="12.6076272"><ele>80.0</ele><time>2026-04-04T09:40:20.054Z</time></trkpt><trkpt lat="46.0014823" lon="12.6078085"><ele>80.0</ele><time>2026-04-04T09:40:21.055Z</time></trkpt><trkpt lat="46.0013528" lon="12.6079863"><ele>80.0</ele><time>2026-04-04T09:40:22.056Z</time></trkpt><trkpt lat="46.0012227" lon="12.6081591"><ele>80.33333333333334</ele><time>2026-04-04T09:40:23.057Z</time></trkpt><trkpt lat="46.001095" lon="12.608332"><ele>80.66666666666667</ele><time>2026-04-04T09:40:24.055Z</time></trkpt><trkpt lat="46.0009713" lon="12.6084969"><ele>81.0</ele><time>2026-04-04T09:40:25.054Z</time></trkpt><trkpt lat="46.0008608" lon="12.6086445"><ele>80.75</ele><time>2026-04-04T09:40:26.054Z</time></trkpt><trkpt lat="46.0007507" lon="12.6087866"><ele>80.5</ele><time>2026-04-04T09:40:27.055Z</time></trkpt><trkpt lat="46.000647" lon="12.6089207"><ele>80.25</ele><time>2026-04-04T09:40:28.055Z</time></trkpt><trkpt lat="46.0005525" lon="12.6090335"><ele>80.0</ele><time>2026-04-04T09:40:29.054Z</time></trkpt><trkpt lat="46.0004614" lon="12.6091325"><ele>80.0</ele><time>2026-04-04T09:40:30.055Z</time></trkpt><trkpt lat="46.0003648" lon="12.6092146"><ele>80.0</ele><time>2026-04-04T09:40:31.055Z</time></trkpt><trkpt lat="46.0002652" lon="12.609271"><ele>80.0</ele><time>2026-04-04T09:40:32.055Z</time></trkpt><trkpt lat="46.0001798" lon="12.6093355"><ele>80.0</ele><time>2026-04-04T09:40:33.054Z</time></trkpt><trkpt lat="46.0001161" lon="12.609443"><ele>80.0</ele><time>2026-04-04T09:40:34.055Z</time></trkpt><trkpt lat="46.0000797" lon="12.6095684"><ele>80.2</ele><time>2026-04-04T09:40:35.055Z</time></trkpt><trkpt lat="46.0000752" lon="12.6097054"><ele>80.4</ele><time>2026-04-04T09:40:36.054Z</time></trkpt><trkpt lat="46.0001067" lon="12.6098365"><ele>80.6</ele><time>2026-04-04T09:40:37.054Z</time></trkpt><trkpt lat="46.000168" lon="12.6099388"><ele>80.8</ele><time>2026-04-04T09:40:38.055Z</time></trkpt><trkpt lat="46.000249" lon="12.6100161"><ele>81.0</ele><time>2026-04-04T09:40:39.056Z</time></trkpt><trkpt lat="46.000318" lon="12.6101116"><ele>81.0</ele><time>2026-04-04T09:40:40.055Z</time></trkpt><trkpt lat="46.00036" lon="12.610235"><ele>81.0</ele><time>2026-04-04T09:40:41.056Z</time></trkpt><trkpt lat="46.0003778" lon="12.6103868"><ele>81.0</ele><time>2026-04-04T09:40:42.055Z</time></trkpt><trkpt lat="46.0004022" lon="12.610557"><ele>81.0</ele><time>2026-04-04T09:40:43.055Z</time></trkpt><trkpt lat="46.0004226" lon="12.610751"><ele>81.33333333333333</ele><time>2026-04-04T09:40:44.054Z</time></trkpt><trkpt lat="46.0004424" lon="12.6109548"><ele>81.66666666666666</ele><time>2026-04-04T09:40:45.054Z</time></trkpt><trkpt lat="46.0004627" lon="12.6111681"><ele>82.0</ele><time>2026-04-04T09:40:46.055Z</time></trkpt><trkpt lat="46.0004868" lon="12.6113922"><ele>82.0</ele><time>2026-04-04T09:40:47.056Z</time></trkpt><trkpt lat="46.0005074" lon="12.6116214"><ele>82.0</ele><time>2026-04-04T09:40:48.056Z</time></trkpt><trkpt lat="46.0005289" lon="12.6118601"><ele>82.0</ele><time>2026-04-04T09:40:49.055Z</time></trkpt><trkpt lat="46.0005464" lon="12.6120958"><ele>81.66666666666666</ele><time>2026-04-04T09:40:50.056Z</time></trkpt><trkpt lat="46.0005757" lon="12.6123172"><ele>81.33333333333333</ele><time>2026-04-04T09:40:51.055Z</time></trkpt><trkpt lat="46.0005968" lon="12.6125307"><ele>81.0</ele><time>2026-04-04T09:40:52.056Z</time></trkpt><trkpt lat="46.000612" lon="12.6127439"><ele>81.33333333333333</ele><time>2026-04-04T09:40:53.056Z</time></trkpt><trkpt lat="46.000629" lon="12.6129573"><ele>81.66666666666666</ele><time>2026-04-04T09:40:54.057Z</time></trkpt><trkpt lat="46.0006477" lon="12.6131804"><ele>82.0</ele><time>2026-04-04T09:40:55.055Z</time></trkpt><trkpt lat="46.000668" lon="12.6134032"><ele>82.0</ele><time>2026-04-04T09:40:56.055Z</time></trkpt><trkpt lat="46.0006878" lon="12.6136281"><ele>82.0</ele><time>2026-04-04T09:40:57.055Z</time></trkpt><trkpt lat="46.0007036" lon="12.613853"><ele>82.0</ele><time>2026-04-04T09:40:58.055Z</time></trkpt><trkpt lat="46.000715" lon="12.6140851"><ele>82.0</ele><time>2026-04-04T09:40:59.054Z</time></trkpt><trkpt lat="46.0007261" lon="12.6143134"><ele>82.0</ele><time>2026-04-04T09:41:00.055Z</time></trkpt><trkpt lat="46.0007333" lon="12.6145478"><ele>82.0</ele><time>2026-04-04T09:41:01.056Z</time></trkpt><trkpt lat="46.0007444" lon="12.6147833"><ele>82.0</ele><time>2026-04-04T09:41:02.054Z</time></trkpt><trkpt lat="46.0007536" lon="12.6150253"><ele>82.0</ele><time>2026-04-04T09:41:03.055Z</time></trkpt><trkpt lat="46.0007646" lon="12.6152582"><ele>82.0</ele><time>2026-04-04T09:41:04.054Z</time></trkpt><trkpt lat="46.0007756" lon="12.6154815"><ele>82.0</ele><time>2026-04-04T09:41:05.057Z</time></trkpt><trkpt lat="46.0007863" lon="12.6156954"><ele>82.0</ele><time>2026-04-04T09:41:06.056Z</time></trkpt><trkpt lat="46.0007972" lon="12.6159089"><ele>82.0</ele><time>2026-04-04T09:41:07.055Z</time></trkpt><trkpt lat="46.0008041" lon="12.6161154"><ele>82.0</ele><time>2026-04-04T09:41:08.056Z</time></trkpt><trkpt lat="46.000818" lon="12.6163065"><ele>82.0</ele><time>2026-04-04T09:41:09.055Z</time></trkpt><trkpt lat="46.0008287" lon="12.6164807"><ele>82.0</ele><time>2026-04-04T09:41:10.056Z</time></trkpt><trkpt lat="46.0008432" lon="12.6166464"><ele>82.0</ele><time>2026-04-04T09:41:11.055Z</time></trkpt><trkpt lat="46.0008571" lon="12.6167978"><ele>82.0</ele><time>2026-04-04T09:41:12.055Z</time></trkpt><trkpt lat="46.0008737" lon="12.6169371"><ele>82.0</ele><time>2026-04-04T09:41:13.056Z</time></trkpt><trkpt lat="46.0008864" lon="12.6170512"><ele>82.39999999999999</ele><time>2026-04-04T09:41:14.056Z</time></trkpt><trkpt lat="46.0008985" lon="12.6171444"><ele>82.8</ele><time>2026-04-04T09:41:15.056Z</time></trkpt><trkpt lat="46.0009058" lon="12.6172672"><ele>83.2</ele><time>2026-04-04T09:41:17.054Z</time></trkpt><trkpt lat="46.0009098" lon="12.6173993"><ele>83.6</ele><time>2026-04-04T09:41:20.055Z</time></trkpt><trkpt lat="46.0009331" lon="12.617537"><ele>84.0</ele><time>2026-04-04T09:41:22.054Z</time></trkpt><trkpt lat="46.0010373" lon="12.6175774"><ele>84.0</ele><time>2026-04-04T09:41:24.056Z</time></trkpt><trkpt lat="46.0011133" lon="12.6175804"><ele>84.0</ele><time>2026-04-04T09:41:25.056Z</time></trkpt><trkpt lat="46.0012083" lon="12.6175829"><ele>84.0</ele><time>2026-04-04T09:41:26.056Z</time></trkpt><trkpt lat="46.0013159" lon="12.6175836"><ele>84.0</ele><time>2026-04-04T09:41:27.054Z</time></trkpt><trkpt lat="46.0014312" lon="12.6175927"><ele>84.0</ele><time>2026-04-04T09:41:28.056Z</time></trkpt><trkpt lat="46.0015548" lon="12.6175984"><ele>84.25</ele><time>2026-04-04T09:41:29.057Z</time></trkpt><trkpt lat="46.0016772" lon="12.6176073"><ele>84.5</ele><time>2026-04-04T09:41:30.057Z</time></trkpt><trkpt lat="46.0017929" lon="12.617614"><ele>84.75</ele><time>2026-04-04T09:41:31.056Z</time></trkpt><trkpt lat="46.0019074" lon="12.6176256"><ele>85.0</ele><time>2026-04-04T09:41:32.054Z</time></trkpt><trkpt lat="46.0020221" lon="12.6176452"><ele>85.0</ele><time>2026-04-04T09:41:33.056Z</time></trkpt><trkpt lat="46.0021312" lon="12.6176724"><ele>85.0</ele><time>2026-04-04T09:41:34.054Z</time></trkpt><trkpt lat="46.0022348" lon="12.6177036"><ele>85.0</ele><time>2026-04-04T09:41:35.055Z</time></trkpt><trkpt lat="46.0023393" lon="12.6177212"><ele>85.0</ele><time>2026-04-04T09:41:36.056Z</time></trkpt><trkpt lat="46.0024384" lon="12.6177414"><ele>85.0</ele><time>2026-04-04T09:41:37.055Z</time></trkpt><trkpt lat="46.0025386" lon="12.617754"><ele>85.16666666666666</ele><time>2026-04-04T09:41:38.054Z</time></trkpt><trkpt lat="46.0026274" lon="12.617766"><ele>85.33333333333333</ele><time>2026-04-04T09:41:39.055Z</time></trkpt><trkpt lat="46.0027055" lon="12.6177823"><ele>85.5</ele><time>2026-04-04T09:41:40.055Z</time></trkpt><trkpt lat="46.0027861" lon="12.6178034"><ele>85.66666666666667</ele><time>2026-04-04T09:41:41.055Z</time></trkpt><trkpt lat="46.0028625" lon="12.6178239"><ele>85.83333333333334</ele><time>2026-04-04T09:41:42.055Z</time></trkpt><trkpt lat="46.0029439" lon="12.6178399"><ele>86.0</ele><time>2026-04-04T09:41:43.056Z</time></trkpt><trkpt lat="46.0030171" lon="12.6178518"><ele>86.0</ele><time>2026-04-04T09:41:44.055Z</time></trkpt><trkpt lat="46.0031149" lon="12.6178827"><ele>86.0</ele><time>2026-04-04T09:41:46.056Z</time></trkpt><trkpt lat="46.0031931" lon="12.6179032"><ele>86.0</ele><time>2026-04-04T09:41:49.056Z</time></trkpt><trkpt lat="46.0032569" lon="12.6179121"><ele>86.0</ele><time>2026-04-04T09:41:53.055Z</time></trkpt><trkpt lat="46.0033639" lon="12.617918"><ele>86.0</ele><time>2026-04-04T09:42:07.055Z</time></trkpt><trkpt lat="46.0034932" lon="12.6179425"><ele>86.19999999999999</ele><time>2026-04-04T09:42:09.056Z</time></trkpt><trkpt lat="46.0035848" lon="12.6179559"><ele>86.39999999999999</ele><time>2026-04-04T09:42:10.056Z</time></trkpt><trkpt lat="46.0036881" lon="12.6179707"><ele>86.6</ele><time>2026-04-04T09:42:11.056Z</time></trkpt><trkpt lat="46.0037944" lon="12.6179917"><ele>86.8</ele><time>2026-04-04T09:42:12.056Z</time></trkpt><trkpt lat="46.0039084" lon="12.6180157"><ele>87.0</ele><time>2026-04-04T09:42:13.055Z</time></trkpt><trkpt lat="46.0040255" lon="12.6180515"><ele>87.0</ele><time>2026-04-04T09:42:14.055Z</time></trkpt><trkpt lat="46.004146" lon="12.618089"><ele>87.0</ele><time>2026-04-04T09:42:15.057Z</time></trkpt><trkpt lat="46.0042707" lon="12.6181338"><ele>87.0</ele><time>2026-04-04T09:42:16.054Z</time></trkpt><trkpt lat="46.0043964" lon="12.6181958"><ele>87.0</ele><time>2026-04-04T09:42:17.056Z</time></trkpt><trkpt lat="46.0045342" lon="12.6182515"><ele>87.66666666666667</ele><time>2026-04-04T09:42:18.057Z</time></trkpt><trkpt lat="46.0046726" lon="12.6183142"><ele>88.33333333333334</ele><time>2026-04-04T09:42:19.055Z</time></trkpt><trkpt lat="46.004813" lon="12.6183881"><ele>89.0</ele><time>2026-04-04T09:42:20.055Z</time></trkpt><trkpt lat="46.0049619" lon="12.6184749"><ele>89.0</ele><time>2026-04-04T09:42:21.056Z</time></trkpt><trkpt lat="46.0051104" lon="12.6185698"><ele>89.0</ele><time>2026-04-04T09:42:22.056Z</time></trkpt><trkpt lat="46.0052618" lon="12.6186592"><ele>89.0</ele><time>2026-04-04T09:42:23.055Z</time></trkpt><trkpt lat="46.0054119" lon="12.6187301"><ele>89.0</ele><time>2026-04-04T09:42:24.055Z</time></trkpt><trkpt lat="46.0055661" lon="12.6187879"><ele>89.0</ele><time>2026-04-04T09:42:25.055Z</time></trkpt><trkpt lat="46.0057104" lon="12.6188376"><ele>89.0</ele><time>2026-04-04T09:42:26.054Z</time></trkpt><trkpt lat="46.0058503" lon="12.6188808"><ele>89.5</ele><time>2026-04-04T09:42:27.055Z</time></trkpt><trkpt lat="46.0059816" lon="12.6189182"><ele>90.0</ele><time>2026-04-04T09:42:28.056Z</time></trkpt><trkpt lat="46.0061083" lon="12.6189519"><ele>90.5</ele><time>2026-04-04T09:42:29.054Z</time></trkpt><trkpt lat="46.0062342" lon="12.6189911"><ele>91.0</ele><time>2026-04-04T09:42:30.055Z</time></trkpt><trkpt lat="46.006362" lon="12.6190202"><ele>91.0</ele><time>2026-04-04T09:42:31.055Z</time></trkpt><trkpt lat="46.0064873" lon="12.6190568"><ele>91.0</ele><time>2026-04-04T09:42:32.056Z</time></trkpt><trkpt lat="46.0066142" lon="12.6190981"><ele>91.0</ele><time>2026-04-04T09:42:33.054Z</time></trkpt><trkpt lat="46.0067436" lon="12.6191386"><ele>91.0</ele><time>2026-04-04T09:42:34.062Z</time></trkpt><trkpt lat="46.0068696" lon="12.6191919"><ele>91.25</ele><time>2026-04-04T09:42:35.055Z</time></trkpt><trkpt lat="46.0069935" lon="12.6192554"><ele>91.5</ele><time>2026-04-04T09:42:36.056Z</time></trkpt><trkpt lat="46.0071239" lon="12.619314"><ele>91.75</ele><time>2026-04-04T09:42:37.055Z</time></trkpt><trkpt lat="46.0072566" lon="12.6193671"><ele>92.0</ele><time>2026-04-04T09:42:38.054Z</time></trkpt><trkpt lat="46.0073866" lon="12.6194145"><ele>92.0</ele><time>2026-04-04T09:42:39.055Z</time></trkpt><trkpt lat="46.0075141" lon="12.6194638"><ele>92.0</ele><time>2026-04-04T09:42:40.055Z</time></trkpt><trkpt lat="46.0076352" lon="12.6195072"><ele>92.0</ele><time>2026-04-04T09:42:41.055Z</time></trkpt><trkpt lat="46.0077501" lon="12.6195655"><ele>92.0</ele><time>2026-04-04T09:42:42.055Z</time></trkpt><trkpt lat="46.0078592" lon="12.6196181"><ele>92.19999999999999</ele><time>2026-04-04T09:42:43.055Z</time></trkpt><trkpt lat="46.0079632" lon="12.6196799"><ele>92.4</ele><time>2026-04-04T09:42:44.055Z</time></trkpt><trkpt lat="46.0080733" lon="12.6197389"><ele>92.6</ele><time>2026-04-04T09:42:45.055Z</time></trkpt><trkpt lat="46.008183" lon="12.6197953"><ele>92.80000000000001</ele><time>2026-04-04T09:42:46.054Z</time></trkpt><trkpt lat="46.0082644" lon="12.6198325"><ele>93.0</ele><time>2026-04-04T09:42:47.055Z</time></trkpt><trkpt lat="46.0083446" lon="12.6198787"><ele>93.4</ele><time>2026-04-04T09:42:49.057Z</time></trkpt><trkpt lat="46.0084253" lon="12.6199151"><ele>93.80000000000001</ele><time>2026-04-04T09:42:57.055Z</time></trkpt><trkpt lat="46.008542" lon="12.6199496"><ele>94.2</ele><time>2026-04-04T09:42:59.054Z</time></trkpt><trkpt lat="46.0086548" lon="12.6200023"><ele>94.6</ele><time>2026-04-04T09:43:01.056Z</time></trkpt><trkpt lat="46.0087521" lon="12.6200477"><ele>95.0</ele><time>2026-04-04T09:43:03.056Z</time></trkpt><trkpt lat="46.0088449" lon="12.6201088"><ele>95.0</ele><time>2026-04-04T09:43:05.056Z</time></trkpt><trkpt lat="46.008953" lon="12.6201751"><ele>95.0</ele><time>2026-04-04T09:43:07.057Z</time></trkpt><trkpt lat="46.009026" lon="12.6202101"><ele>95.0</ele><time>2026-04-04T09:43:08.055Z</time></trkpt><trkpt lat="46.0091093" lon="12.6202331"><ele>95.0</ele><time>2026-04-04T09:43:09.054Z</time></trkpt><trkpt lat="46.0091945" lon="12.6202372"><ele>95.0</ele><time>2026-04-04T09:43:10.057Z</time></trkpt><trkpt lat="46.0092807" lon="12.6202224"><ele>95.16666666666667</ele><time>2026-04-04T09:43:11.055Z</time></trkpt><trkpt lat="46.0093609" lon="12.6202052"><ele>95.33333333333334</ele><time>2026-04-04T09:43:12.054Z</time></trkpt><trkpt lat="46.0094401" lon="12.6201844"><ele>95.5</ele><time>2026-04-04T09:43:13.055Z</time></trkpt><trkpt lat="46.0095286" lon="12.6201668"><ele>95.66666666666667</ele><time>2026-04-04T09:43:14.055Z</time></trkpt><trkpt lat="46.0096207" lon="12.620146"><ele>95.83333333333333</ele><time>2026-04-04T09:43:15.055Z</time></trkpt><trkpt lat="46.0097122" lon="12.6201326"><ele>96.0</ele><time>2026-04-04T09:43:16.055Z</time></trkpt><trkpt lat="46.0098078" lon="12.6201237"><ele>96.0</ele><time>2026-04-04T09:43:17.055Z</time></trkpt><trkpt lat="46.0098893" lon="12.6201123"><ele>96.0</ele><time>2026-04-04T09:43:18.056Z</time></trkpt><trkpt lat="46.0099594" lon="12.6201055"><ele>96.0</ele><time>2026-04-04T09:43:19.056Z</time></trkpt><trkpt lat="46.010028" lon="12.620093"><ele>96.0</ele><time>2026-04-04T09:43:20.055Z</time></trkpt><trkpt lat="46.0101062" lon="12.6200958"><ele>96.0</ele><time>2026-04-04T09:43:21.055Z</time></trkpt><trkpt lat="46.0101882" lon="12.6200904"><ele>96.0</ele><time>2026-04-04T09:43:22.057Z</time></trkpt><trkpt lat="46.0102745" lon="12.620089"><ele>96.0</ele><time>2026-04-04T09:43:23.057Z</time></trkpt><trkpt lat="46.0103682" lon="12.6201042"><ele>96.0</ele><time>2026-04-04T09:43:24.056Z</time></trkpt><trkpt lat="46.0104592" lon="12.6201182"><ele>96.0</ele><time>2026-04-04T09:43:25.056Z</time></trkpt><trkpt lat="46.0105491" lon="12.6201452"><ele>96.0</ele><time>2026-04-04T09:43:26.056Z</time></trkpt><trkpt lat="46.0106323" lon="12.6201608"><ele>96.0</ele><time>2026-04-04T09:43:27.057Z</time></trkpt><trkpt lat="46.010717" lon="12.6201694"><ele>96.0</ele><time>2026-04-04T09:43:28.055Z</time></trkpt><trkpt lat="46.0108017" lon="12.6201657"><ele>96.16666666666667</ele><time>2026-04-04T09:43:29.055Z</time></trkpt><trkpt lat="46.0108929" lon="12.6201623"><ele>96.33333333333334</ele><time>2026-04-04T09:43:30.057Z</time></trkpt><trkpt lat="46.0109729" lon="12.6201514"><ele>96.5</ele><time>2026-04-04T09:43:31.056Z</time></trkpt><trkpt lat="46.0110461" lon="12.6201379"><ele>96.66666666666667</ele><time>2026-04-04T09:43:32.055Z</time></trkpt><trkpt lat="46.0111224" lon="12.6201204"><ele>96.83333333333334</ele><time>2026-04-04T09:43:33.055Z</time></trkpt><trkpt lat="46.0111993" lon="12.6200945"><ele>97.0</ele><time>2026-04-04T09:43:34.056Z</time></trkpt><trkpt lat="46.0112785" lon="12.6200658"><ele>97.00000000000001</ele><time>2026-04-04T09:43:35.054Z</time></trkpt><trkpt lat="46.0113522" lon="12.6200392"><ele>97.0</ele><time>2026-04-04T09:43:36.056Z</time></trkpt><trkpt lat="46.011434" lon="12.6200021"><ele>97.0</ele><time>2026-04-04T09:43:37.056Z</time></trkpt><trkpt lat="46.011516" lon="12.6199691"><ele>97.0</ele><time>2026-04-04T09:43:38.056Z</time></trkpt><trkpt lat="46.0116016" lon="12.6199352"><ele>97.00000000000001</ele><time>2026-04-04T09:43:39.057Z</time></trkpt><trkpt lat="46.0116804" lon="12.6199025"><ele>97.0</ele><time>2026-04-04T09:43:40.056Z</time></trkpt><trkpt lat="46.0117535" lon="12.6198767"><ele>97.0</ele><time>2026-04-04T09:43:41.056Z</time></trkpt><trkpt lat="46.011829" lon="12.6198569"><ele>97.0</ele><time>2026-04-04T09:43:42.055Z</time></trkpt><trkpt lat="46.0119163" lon="12.6198392"><ele>97.0</ele><time>2026-04-04T09:43:43.055Z</time></trkpt><trkpt lat="46.0120146" lon="12.6198301"><ele>97.0</ele><time>2026-04-04T09:43:44.057Z</time></trkpt><trkpt lat="46.012121" lon="12.6198379"><ele>97.0</ele><time>2026-04-04T09:43:45.055Z</time></trkpt><trkpt lat="46.0122326" lon="12.6198506"><ele>97.0</ele><time>2026-04-04T09:43:46.056Z</time></trkpt><trkpt lat="46.0123418" lon="12.6198858"><ele>97.0</ele><time>2026-04-04T09:43:47.054Z</time></trkpt><trkpt lat="46.0124473" lon="12.6199364"><ele>97.0</ele><time>2026-04-04T09:43:48.057Z</time></trkpt><trkpt lat="46.0125552" lon="12.6199978"><ele>97.0</ele><time>2026-04-04T09:43:49.055Z</time></trkpt><trkpt lat="46.0126572" lon="12.6200513"><ele>97.0</ele><time>2026-04-04T09:43:50.056Z</time></trkpt><trkpt lat="46.0127477" lon="12.6201134"><ele>97.19999999999999</ele><time>2026-04-04T09:43:51.055Z</time></trkpt><trkpt lat="46.0128392" lon="12.6201752"><ele>97.4</ele><time>2026-04-04T09:43:52.056Z</time></trkpt><trkpt lat="46.012927" lon="12.6202398"><ele>97.6</ele><time>2026-04-04T09:43:53.054Z</time></trkpt><trkpt lat="46.0130173" lon="12.6203112"><ele>97.80000000000001</ele><time>2026-04-04T09:43:54.057Z</time></trkpt><trkpt lat="46.0131065" lon="12.620386"><ele>98.0</ele><time>2026-04-04T09:43:55.056Z</time></trkpt><trkpt lat="46.013196" lon="12.62046"><ele>97.99999999999999</ele><time>2026-04-04T09:43:56.056Z</time></trkpt><trkpt lat="46.0132808" lon="12.6205255"><ele>98.0</ele><time>2026-04-04T09:43:57.056Z</time></trkpt><trkpt lat="46.0133628" lon="12.6205811"><ele>98.0</ele><time>2026-04-04T09:43:58.056Z</time></trkpt><trkpt lat="46.0134355" lon="12.6206336"><ele>98.0</ele><time>2026-04-04T09:43:59.056Z</time></trkpt><trkpt lat="46.0135054" lon="12.6206869"><ele>97.99999999999999</ele><time>2026-04-04T09:44:00.055Z</time></trkpt><trkpt lat="46.013574" lon="12.6207364"><ele>98.0</ele><time>2026-04-04T09:44:01.054Z</time></trkpt><trkpt lat="46.0136257" lon="12.6208067"><ele>98.4</ele><time>2026-04-04T09:44:02.055Z</time></trkpt><trkpt lat="46.0136607" lon="12.6209088"><ele>98.80000000000001</ele><time>2026-04-04T09:44:03.055Z</time></trkpt><trkpt lat="46.0136711" lon="12.6210467"><ele>99.2</ele><time>2026-04-04T09:44:04.056Z</time></trkpt><trkpt lat="46.0136597" lon="12.6212077"><ele>99.6</ele><time>2026-04-04T09:44:05.055Z</time></trkpt><trkpt lat="46.013635" lon="12.6213839"><ele>100.0</ele><time>2026-04-04T09:44:06.055Z</time></trkpt><trkpt lat="46.0136062" lon="12.6215808"><ele>100.0</ele><time>2026-04-04T09:44:07.056Z</time></trkpt><trkpt lat="46.0135745" lon="12.6217867"><ele>100.0</ele><time>2026-04-04T09:44:08.055Z</time></trkpt><trkpt lat="46.013543" lon="12.621982"><ele>100.0</ele><time>2026-04-04T09:44:09.055Z</time></trkpt><trkpt lat="46.0135138" lon="12.6221735"><ele>100.0</ele><time>2026-04-04T09:44:10.056Z</time></trkpt><trkpt lat="46.0134889" lon="12.6223467"><ele>100.0</ele><time>2026-04-04T09:44:11.056Z</time></trkpt><trkpt lat="46.0134616" lon="12.6225045"><ele>100.0</ele><time>2026-04-04T09:44:12.057Z</time></trkpt><trkpt lat="46.0134385" lon="12.6226486"><ele>100.0</ele><time>2026-04-04T09:44:13.056Z</time></trkpt><trkpt lat="46.0134207" lon="12.6227777"><ele>100.0</ele><time>2026-04-04T09:44:14.056Z</time></trkpt><trkpt lat="46.0134012" lon="12.6228982"><ele>100.0</ele><time>2026-04-04T09:44:15.055Z</time></trkpt><trkpt lat="46.0133763" lon="12.6230024"><ele>100.00000000000001</ele><time>2026-04-04T09:44:16.055Z</time></trkpt><trkpt lat="46.0133533" lon="12.6230869"><ele>100.0</ele><time>2026-04-04T09:44:17.054Z</time></trkpt><trkpt lat="46.0133261" lon="12.6231797"><ele>100.0</ele><time>2026-04-04T09:44:20.055Z</time></trkpt><trkpt lat="46.0132706" lon="12.6233153"><ele>100.0</ele><time>2026-04-04T09:44:23.057Z</time></trkpt><trkpt lat="46.0132491" lon="12.6234055"><ele>100.00000000000001</ele><time>2026-04-04T09:44:24.056Z</time></trkpt><trkpt lat="46.0132448" lon="12.6235145"><ele>100.0</ele><time>2026-04-04T09:44:25.056Z</time></trkpt><trkpt lat="46.0132508" lon="12.6236509"><ele>99.75</ele><time>2026-04-04T09:44:26.056Z</time></trkpt><trkpt lat="46.0132524" lon="12.6238153"><ele>99.5</ele><time>2026-04-04T09:44:27.056Z</time></trkpt><trkpt lat="46.0132459" lon="12.624"><ele>99.25</ele><time>2026-04-04T09:44:28.057Z</time></trkpt><trkpt lat="46.013239" lon="12.6242108"><ele>99.0</ele><time>2026-04-04T09:44:29.056Z</time></trkpt><trkpt lat="46.0132304" lon="12.6244398"><ele>99.33333333333334</ele><time>2026-04-04T09:44:30.056Z</time></trkpt><trkpt lat="46.013226" lon="12.6246842"><ele>99.66666666666667</ele><time>2026-04-04T09:44:31.056Z</time></trkpt><trkpt lat="46.0132196" lon="12.6249386"><ele>100.0</ele><time>2026-04-04T09:44:32.055Z</time></trkpt><trkpt lat="46.0132111" lon="12.6251998"><ele>99.66666666666667</ele><time>2026-04-04T09:44:33.055Z</time></trkpt><trkpt lat="46.0132036" lon="12.6254707"><ele>99.33333333333334</ele><time>2026-04-04T09:44:34.056Z</time></trkpt><trkpt lat="46.0131943" lon="12.6257421"><ele>99.0</ele><time>2026-04-04T09:44:35.055Z</time></trkpt><trkpt lat="46.0131858" lon="12.6260133"><ele>99.0</ele><time>2026-04-04T09:44:36.056Z</time></trkpt><trkpt lat="46.0131774" lon="12.6262861"><ele>99.0</ele><time>2026-04-04T09:44:37.055Z</time></trkpt><trkpt lat="46.0131682" lon="12.6265646"><ele>99.0</ele><time>2026-04-04T09:44:38.056Z</time></trkpt><trkpt lat="46.0131611" lon="12.6268369"><ele>98.66666666666666</ele><time>2026-04-04T09:44:39.056Z</time></trkpt><trkpt lat="46.0131562" lon="12.627105"><ele>98.33333333333333</ele><time>2026-04-04T09:44:40.056Z</time></trkpt><trkpt lat="46.0131605" lon="12.6273739"><ele>98.0</ele><time>2026-04-04T09:44:41.056Z</time></trkpt><trkpt lat="46.0131834" lon="12.6276469"><ele>98.0</ele><time>2026-04-04T09:44:42.056Z</time></trkpt><trkpt lat="46.013221" lon="12.627914"><ele>98.0</ele><time>2026-04-04T09:44:43.056Z</time></trkpt><trkpt lat="46.0132764" lon="12.6281743"><ele>98.0</ele><time>2026-04-04T09:44:44.055Z</time></trkpt><trkpt lat="46.0133418" lon="12.6284385"><ele>99.0</ele><time>2026-04-04T09:44:45.056Z</time></trkpt><trkpt lat="46.0134164" lon="12.6287053"><ele>100.0</ele><time>2026-04-04T09:44:46.055Z</time></trkpt><trkpt lat="46.0134966" lon="12.6289802"><ele>101.0</ele><time>2026-04-04T09:44:47.055Z</time></trkpt><trkpt lat="46.0135748" lon="12.6292533"><ele>100.0</ele><time>2026-04-04T09:44:48.054Z</time></trkpt><trkpt lat="46.0136585" lon="12.6295308"><ele>99.0</ele><time>2026-04-04T09:44:49.055Z</time></trkpt><trkpt lat="46.0137424" lon="12.62981"><ele>98.0</ele><time>2026-04-04T09:44:50.055Z</time></trkpt><trkpt lat="46.0138232" lon="12.6300825"><ele>97.0</ele><time>2026-04-04T09:44:51.055Z</time></trkpt><trkpt lat="46.0138944" lon="12.6303411"><ele>96.0</ele><time>2026-04-04T09:44:52.055Z</time></trkpt><trkpt lat="46.0139658" lon="12.6305877"><ele>95.0</ele><time>2026-04-04T09:44:53.056Z</time></trkpt><trkpt lat="46.0140322" lon="12.6308174"><ele>95.0</ele><time>2026-04-04T09:44:54.055Z</time></trkpt><trkpt lat="46.0140964" lon="12.6310442"><ele>95.0</ele><time>2026-04-04T09:44:55.055Z</time></trkpt><trkpt lat="46.0141613" lon="12.6312652"><ele>95.0</ele><time>2026-04-04T09:44:56.057Z</time></trkpt><trkpt lat="46.0142266" lon="12.6314951"><ele>95.66666666666667</ele><time>2026-04-04T09:44:57.056Z</time></trkpt><trkpt lat="46.0142865" lon="12.6317171"><ele>96.33333333333334</ele><time>2026-04-04T09:44:58.057Z</time></trkpt><trkpt lat="46.014346" lon="12.6319313"><ele>97.0</ele><time>2026-04-04T09:44:59.055Z</time></trkpt><trkpt lat="46.0144084" lon="12.6321383"><ele>97.0</ele><time>2026-04-04T09:45:00.056Z</time></trkpt><trkpt lat="46.0144649" lon="12.6323477"><ele>97.0</ele><time>2026-04-04T09:45:01.057Z</time></trkpt><trkpt lat="46.014523" lon="12.6325567"><ele>97.0</ele><time>2026-04-04T09:45:02.056Z</time></trkpt><trkpt lat="46.0145835" lon="12.6327792"><ele>96.33333333333334</ele><time>2026-04-04T09:45:03.054Z</time></trkpt><trkpt lat="46.0146554" lon="12.6330018"><ele>95.66666666666667</ele><time>2026-04-04T09:45:04.056Z</time></trkpt><trkpt lat="46.0147341" lon="12.6332354"><ele>95.0</ele><time>2026-04-04T09:45:05.055Z</time></trkpt><trkpt lat="46.014813" lon="12.6334768"><ele>95.66666666666667</ele><time>2026-04-04T09:45:06.056Z</time></trkpt><trkpt lat="46.0148962" lon="12.6337343"><ele>96.33333333333334</ele><time>2026-04-04T09:45:07.055Z</time></trkpt><trkpt lat="46.0149837" lon="12.6339945"><ele>97.0</ele><time>2026-04-04T09:45:08.056Z</time></trkpt><trkpt lat="46.0150789" lon="12.6342684"><ele>97.5</ele><time>2026-04-04T09:45:09.055Z</time></trkpt><trkpt lat="46.0151786" lon="12.6345591"><ele>98.0</ele><time>2026-04-04T09:45:10.056Z</time></trkpt><trkpt lat="46.0152781" lon="12.6348571"><ele>98.0</ele><time>2026-04-04T09:45:11.054Z</time></trkpt><trkpt lat="46.0153804" lon="12.6351514"><ele>98.0</ele><time>2026-04-04T09:45:12.056Z</time></trkpt><trkpt lat="46.0154823" lon="12.6354448"><ele>98.0</ele><time>2026-04-04T09:45:13.056Z</time></trkpt><trkpt lat="46.0155805" lon="12.6357299"><ele>98.0</ele><time>2026-04-04T09:45:14.055Z</time></trkpt><trkpt lat="46.0156732" lon="12.6360018"><ele>98.0</ele><time>2026-04-04T09:45:15.056Z</time></trkpt><trkpt lat="46.0157636" lon="12.6362693"><ele>98.33333333333333</ele><time>2026-04-04T09:45:16.057Z</time></trkpt><trkpt lat="46.0158533" lon="12.6365293"><ele>98.66666666666666</ele><time>2026-04-04T09:45:17.056Z</time></trkpt><trkpt lat="46.0159414" lon="12.6367881"><ele>99.0</ele><time>2026-04-04T09:45:18.056Z</time></trkpt><trkpt lat="46.0160239" lon="12.6370358"><ele>99.33333333333334</ele><time>2026-04-04T09:45:19.056Z</time></trkpt><trkpt lat="46.0161055" lon="12.6372675"><ele>99.66666666666667</ele><time>2026-04-04T09:45:20.057Z</time></trkpt><trkpt lat="46.0161898" lon="12.6375004"><ele>100.0</ele><time>2026-04-04T09:45:21.056Z</time></trkpt><trkpt lat="46.0162745" lon="12.6377354"><ele>99.66666666666667</ele><time>2026-04-04T09:45:22.055Z</time></trkpt><trkpt lat="46.0163575" lon="12.6379649"><ele>99.33333333333334</ele><time>2026-04-04T09:45:23.056Z</time></trkpt><trkpt lat="46.0164377" lon="12.638192"><ele>99.0</ele><time>2026-04-04T09:45:24.055Z</time></trkpt><trkpt lat="46.0165158" lon="12.6384168"><ele>98.66666666666666</ele><time>2026-04-04T09:45:25.055Z</time></trkpt><trkpt lat="46.0165902" lon="12.6386381"><ele>98.33333333333333</ele><time>2026-04-04T09:45:26.056Z</time></trkpt><trkpt lat="46.0166649" lon="12.6388557"><ele>98.0</ele><time>2026-04-04T09:45:27.056Z</time></trkpt><trkpt lat="46.0167441" lon="12.6390817"><ele>99.0</ele><time>2026-04-04T09:45:28.057Z</time></trkpt><trkpt lat="46.016825" lon="12.6393171"><ele>100.0</ele><time>2026-04-04T09:45:29.056Z</time></trkpt><trkpt lat="46.0169093" lon="12.6395534"><ele>101.0</ele><time>2026-04-04T09:45:30.056Z</time></trkpt><trkpt lat="46.0169969" lon="12.6397945"><ele>101.0</ele><time>2026-04-04T09:45:31.057Z</time></trkpt><trkpt lat="46.0170816" lon="12.6400412"><ele>101.0</ele><time>2026-04-04T09:45:32.055Z</time></trkpt><trkpt lat="46.0171711" lon="12.6402997"><ele>101.0</ele><time>2026-04-04T09:45:33.056Z</time></trkpt><trkpt lat="46.0172621" lon="12.6405492"><ele>101.0</ele><time>2026-04-04T09:45:34.056Z</time></trkpt><trkpt lat="46.0173485" lon="12.6408068"><ele>101.0</ele><time>2026-04-04T09:45:35.055Z</time></trkpt><trkpt lat="46.0174325" lon="12.6410621"><ele>101.0</ele><time>2026-04-04T09:45:36.056Z</time></trkpt><trkpt lat="46.0175219" lon="12.6413069"><ele>101.0</ele><time>2026-04-04T09:45:37.056Z</time></trkpt><trkpt lat="46.0176037" lon="12.6415555"><ele>101.0</ele><time>2026-04-04T09:45:38.057Z</time></trkpt><trkpt lat="46.0176833" lon="12.6417873"><ele>101.0</ele><time>2026-04-04T09:45:39.055Z</time></trkpt><trkpt lat="46.0177611" lon="12.6420066"><ele>101.0</ele><time>2026-04-04T09:45:40.055Z</time></trkpt><trkpt lat="46.0178381" lon="12.6422301"><ele>101.0</ele><time>2026-04-04T09:45:41.057Z</time></trkpt><trkpt lat="46.0179146" lon="12.642461"><ele>101.0</ele><time>2026-04-04T09:45:42.056Z</time></trkpt><trkpt lat="46.0179951" lon="12.6426967"><ele>100.33333333333333</ele><time>2026-04-04T09:45:43.056Z</time></trkpt><trkpt lat="46.0180776" lon="12.6429332"><ele>99.66666666666666</ele><time>2026-04-04T09:45:44.057Z</time></trkpt><trkpt lat="46.0181596" lon="12.6431731"><ele>99.0</ele><time>2026-04-04T09:45:45.055Z</time></trkpt><trkpt lat="46.0182391" lon="12.6434215"><ele>100.0</ele><time>2026-04-04T09:45:46.057Z</time></trkpt><trkpt lat="46.0183261" lon="12.6436729"><ele>101.0</ele><time>2026-04-04T09:45:47.056Z</time></trkpt><trkpt lat="46.0184103" lon="12.6439324"><ele>102.0</ele><time>2026-04-04T09:45:48.056Z</time></trkpt><trkpt lat="46.0184928" lon="12.6441972"><ele>102.33333333333334</ele><time>2026-04-04T09:45:49.055Z</time></trkpt><trkpt lat="46.0185692" lon="12.6444651"><ele>102.66666666666667</ele><time>2026-04-04T09:45:50.055Z</time></trkpt><trkpt lat="46.0186492" lon="12.6447321"><ele>103.0</ele><time>2026-04-04T09:45:51.055Z</time></trkpt><trkpt lat="46.0187277" lon="12.6450025"><ele>103.0</ele><time>2026-04-04T09:45:52.055Z</time></trkpt><trkpt lat="46.0188082" lon="12.6452728"><ele>103.0</ele><time>2026-04-04T09:45:53.055Z</time></trkpt><trkpt lat="46.0188851" lon="12.645553"><ele>103.0</ele><time>2026-04-04T09:45:54.057Z</time></trkpt><trkpt lat="46.0189624" lon="12.6458355"><ele>103.33333333333334</ele><time>2026-04-04T09:45:55.055Z</time></trkpt><trkpt lat="46.0190399" lon="12.6461243"><ele>103.66666666666666</ele><time>2026-04-04T09:45:56.055Z</time></trkpt><trkpt lat="46.0191205" lon="12.6464234"><ele>104.0</ele><time>2026-04-04T09:45:57.057Z</time></trkpt><trkpt lat="46.0192037" lon="12.6467307"><ele>103.33333333333333</ele><time>2026-04-04T09:45:58.056Z</time></trkpt><trkpt lat="46.0192868" lon="12.6470306"><ele>102.66666666666666</ele><time>2026-04-04T09:45:59.055Z</time></trkpt><trkpt lat="46.0193663" lon="12.6473319"><ele>102.0</ele><time>2026-04-04T09:46:00.056Z</time></trkpt><trkpt lat="46.0194451" lon="12.6476196"><ele>102.0</ele><time>2026-04-04T09:46:01.055Z</time></trkpt><trkpt lat="46.0195276" lon="12.6479104"><ele>102.0</ele><time>2026-04-04T09:46:02.056Z</time></trkpt><trkpt lat="46.0196078" lon="12.6481917"><ele>102.0</ele><time>2026-04-04T09:46:03.055Z</time></trkpt><trkpt lat="46.0196866" lon="12.6484691"><ele>102.0</ele><time>2026-04-04T09:46:04.056Z</time></trkpt><trkpt lat="46.0197637" lon="12.6487436"><ele>102.0</ele><time>2026-04-04T09:46:05.056Z</time></trkpt><trkpt lat="46.0198429" lon="12.6490117"><ele>102.0</ele><time>2026-04-04T09:46:06.056Z</time></trkpt><trkpt lat="46.0199131" lon="12.6492716"><ele>101.66666666666666</ele><time>2026-04-04T09:46:07.055Z</time></trkpt><trkpt lat="46.0199797" lon="12.6495299"><ele>101.33333333333333</ele><time>2026-04-04T09:46:08.056Z</time></trkpt><trkpt lat="46.0200501" lon="12.6497789"><ele>101.0</ele><time>2026-04-04T09:46:09.055Z</time></trkpt><trkpt lat="46.0201183" lon="12.6500236"><ele>101.0</ele><time>2026-04-04T09:46:10.056Z</time></trkpt><trkpt lat="46.0201793" lon="12.6502618"><ele>101.0</ele><time>2026-04-04T09:46:11.055Z</time></trkpt><trkpt lat="46.0202397" lon="12.6504897"><ele>101.0</ele><time>2026-04-04T09:46:12.057Z</time></trkpt><trkpt lat="46.020302" lon="12.6507038"><ele>101.25</ele><time>2026-04-04T09:46:13.056Z</time></trkpt><trkpt lat="46.0203556" lon="12.6509015"><ele>101.5</ele><time>2026-04-04T09:46:14.056Z</time></trkpt><trkpt lat="46.0204086" lon="12.651075"><ele>101.75</ele><time>2026-04-04T09:46:15.056Z</time></trkpt><trkpt lat="46.0204589" lon="12.651235"><ele>102.0</ele><time>2026-04-04T09:46:16.056Z</time></trkpt><trkpt lat="46.0205046" lon="12.651357"><ele>102.16666666666667</ele><time>2026-04-04T09:46:17.055Z</time></trkpt><trkpt lat="46.0205367" lon="12.6514379"><ele>102.33333333333334</ele><time>2026-04-04T09:46:18.057Z</time></trkpt><trkpt lat="46.0205833" lon="12.6515699"><ele>102.5</ele><time>2026-04-04T09:46:20.056Z</time></trkpt><trkpt lat="46.0205965" lon="12.6516693"><ele>102.66666666666667</ele><time>2026-04-04T09:46:22.057Z</time></trkpt><trkpt lat="46.0205846" lon="12.651785"><ele>102.83333333333334</ele><time>2026-04-04T09:46:24.057Z</time></trkpt><trkpt lat="46.0205577" lon="12.6518792"><ele>103.0</ele><time>2026-04-04T09:46:25.056Z</time></trkpt><trkpt lat="46.0205274" lon="12.6519988"><ele>103.0</ele><time>2026-04-04T09:46:26.056Z</time></trkpt><trkpt lat="46.020505" lon="12.652136"><ele>103.0</ele><time>2026-04-04T09:46:27.056Z</time></trkpt><trkpt lat="46.020507" lon="12.6522901"><ele>103.0</ele><time>2026-04-04T09:46:28.055Z</time></trkpt><trkpt lat="46.0205433" lon="12.6524373"><ele>103.0</ele><time>2026-04-04T09:46:29.056Z</time></trkpt><trkpt lat="46.0206157" lon="12.6525696"><ele>103.0</ele><time>2026-04-04T09:46:30.056Z</time></trkpt><trkpt lat="46.0207165" lon="12.6526769"><ele>103.25</ele><time>2026-04-04T09:46:31.056Z</time></trkpt><trkpt lat="46.0208291" lon="12.6527807"><ele>103.5</ele><time>2026-04-04T09:46:32.057Z</time></trkpt><trkpt lat="46.0209493" lon="12.6529074"><ele>103.75</ele><time>2026-04-04T09:46:33.056Z</time></trkpt><trkpt lat="46.0210672" lon="12.6530473"><ele>104.0</ele><time>2026-04-04T09:46:34.055Z</time></trkpt><trkpt lat="46.0211923" lon="12.6531992"><ele>104.0</ele><time>2026-04-04T09:46:35.055Z</time></trkpt><trkpt lat="46.0213171" lon="12.6533707"><ele>104.0</ele><time>2026-04-04T09:46:36.056Z</time></trkpt><trkpt lat="46.0214426" lon="12.6535436"><ele>104.0</ele><time>2026-04-04T09:46:37.057Z</time></trkpt><trkpt lat="46.0215666" lon="12.6537294"><ele>104.33333333333333</ele><time>2026-04-04T09:46:38.056Z</time></trkpt><trkpt lat="46.0216914" lon="12.653916"><ele>104.66666666666666</ele><time>2026-04-04T09:46:39.057Z</time></trkpt><trkpt lat="46.0218154" lon="12.6541055"><ele>105.0</ele><time>2026-04-04T09:46:40.056Z</time></trkpt><trkpt lat="46.0219401" lon="12.6542989"><ele>105.0</ele><time>2026-04-04T09:46:41.055Z</time></trkpt><trkpt lat="46.022064" lon="12.6544922"><ele>105.0</ele><time>2026-04-04T09:46:42.056Z</time></trkpt><trkpt lat="46.0221919" lon="12.6546893"><ele>105.0</ele><time>2026-04-04T09:46:43.056Z</time></trkpt><trkpt lat="46.0223177" lon="12.654888"><ele>105.0</ele><time>2026-04-04T09:46:44.056Z</time></trkpt><trkpt lat="46.0224484" lon="12.6550902"><ele>105.0</ele><time>2026-04-04T09:46:45.055Z</time></trkpt><trkpt lat="46.0225826" lon="12.6552925"><ele>105.0</ele><time>2026-04-04T09:46:46.056Z</time></trkpt><trkpt lat="46.0227187" lon="12.6554988"><ele>105.66666666666666</ele><time>2026-04-04T09:46:47.056Z</time></trkpt><trkpt lat="46.0228542" lon="12.6557064"><ele>106.33333333333333</ele><time>2026-04-04T09:46:48.056Z</time></trkpt><trkpt lat="46.0229867" lon="12.6559156"><ele>107.0</ele><time>2026-04-04T09:46:49.056Z</time></trkpt><trkpt lat="46.0231192" lon="12.6561146"><ele>106.66666666666666</ele><time>2026-04-04T09:46:50.056Z</time></trkpt><trkpt lat="46.0232455" lon="12.6563099"><ele>106.33333333333334</ele><time>2026-04-04T09:46:51.055Z</time></trkpt><trkpt lat="46.0233705" lon="12.6565012"><ele>106.0</ele><time>2026-04-04T09:46:52.057Z</time></trkpt><trkpt lat="46.0234952" lon="12.6566972"><ele>107.0</ele><time>2026-04-04T09:46:53.057Z</time></trkpt><trkpt lat="46.0236211" lon="12.6568918"><ele>108.0</ele><time>2026-04-04T09:46:54.056Z</time></trkpt><trkpt lat="46.0237506" lon="12.6570895"><ele>109.0</ele><time>2026-04-04T09:46:55.056Z</time></trkpt><trkpt lat="46.0238816" lon="12.6572881"><ele>109.0</ele><time>2026-04-04T09:46:56.056Z</time></trkpt><trkpt lat="46.024013" lon="12.6574966"><ele>109.0</ele><time>2026-04-04T09:46:57.055Z</time></trkpt><trkpt lat="46.0241469" lon="12.6577047"><ele>109.0</ele><time>2026-04-04T09:46:58.056Z</time></trkpt><trkpt lat="46.0242836" lon="12.6579174"><ele>109.0</ele><time>2026-04-04T09:46:59.056Z</time></trkpt><trkpt lat="46.0244244" lon="12.6581294"><ele>109.0</ele><time>2026-04-04T09:47:00.055Z</time></trkpt><trkpt lat="46.0245645" lon="12.6583414"><ele>109.0</ele><time>2026-04-04T09:47:01.056Z</time></trkpt><trkpt lat="46.0247038" lon="12.658559"><ele>109.0</ele><time>2026-04-04T09:47:02.056Z</time></trkpt><trkpt lat="46.0248424" lon="12.6587842"><ele>109.0</ele><time>2026-04-04T09:47:03.056Z</time></trkpt><trkpt lat="46.0249765" lon="12.6590157"><ele>109.0</ele><time>2026-04-04T09:47:04.057Z</time></trkpt><trkpt lat="46.0251096" lon="12.65925"><ele>108.66666666666667</ele><time>2026-04-04T09:47:05.057Z</time></trkpt><trkpt lat="46.0252342" lon="12.6594866"><ele>108.33333333333334</ele><time>2026-04-04T09:47:06.057Z</time></trkpt><trkpt lat="46.0253522" lon="12.6597302"><ele>108.0</ele><time>2026-04-04T09:47:07.056Z</time></trkpt><trkpt lat="46.025467" lon="12.6599735"><ele>108.0</ele><time>2026-04-04T09:47:08.057Z</time></trkpt><trkpt lat="46.0255819" lon="12.660217"><ele>108.0</ele><time>2026-04-04T09:47:09.057Z</time></trkpt><trkpt lat="46.0256935" lon="12.660462"><ele>108.0</ele><time>2026-04-04T09:47:10.056Z</time></trkpt><trkpt lat="46.0257983" lon="12.6607086"><ele>108.66666666666666</ele><time>2026-04-04T09:47:11.056Z</time></trkpt><trkpt lat="46.0258937" lon="12.6609732"><ele>109.33333333333333</ele><time>2026-04-04T09:47:12.056Z</time></trkpt><trkpt lat="46.0259903" lon="12.6612332"><ele>110.0</ele><time>2026-04-04T09:47:13.055Z</time></trkpt><trkpt lat="46.0260915" lon="12.6614895"><ele>110.33333333333333</ele><time>2026-04-04T09:47:14.056Z</time></trkpt><trkpt lat="46.0261912" lon="12.6617474"><ele>110.66666666666666</ele><time>2026-04-04T09:47:15.057Z</time></trkpt><trkpt lat="46.0262932" lon="12.6620099"><ele>111.0</ele><time>2026-04-04T09:47:16.056Z</time></trkpt><trkpt lat="46.0263947" lon="12.6622725"><ele>110.33333333333334</ele><time>2026-04-04T09:47:17.055Z</time></trkpt><trkpt lat="46.026494" lon="12.6625385"><ele>109.66666666666667</ele><time>2026-04-04T09:47:18.056Z</time></trkpt><trkpt lat="46.0265911" lon="12.6627948"><ele>109.0</ele><time>2026-04-04T09:47:19.056Z</time></trkpt><trkpt lat="46.0266881" lon="12.6630484"><ele>109.0</ele><time>2026-04-04T09:47:20.056Z</time></trkpt><trkpt lat="46.026783" lon="12.663294"><ele>109.0</ele><time>2026-04-04T09:47:21.056Z</time></trkpt><trkpt lat="46.0268761" lon="12.6635444"><ele>109.0</ele><time>2026-04-04T09:47:22.055Z</time></trkpt><trkpt lat="46.0269676" lon="12.663791"><ele>109.33333333333334</ele><time>2026-04-04T09:47:23.056Z</time></trkpt><trkpt lat="46.0270597" lon="12.6640485"><ele>109.66666666666666</ele><time>2026-04-04T09:47:24.057Z</time></trkpt><trkpt lat="46.0271543" lon="12.664296"><ele>110.0</ele><time>2026-04-04T09:47:25.056Z</time></trkpt><trkpt lat="46.0272474" lon="12.6645457"><ele>110.33333333333333</ele><time>2026-04-04T09:47:26.057Z</time></trkpt><trkpt lat="46.0273293" lon="12.6648038"><ele>110.66666666666666</ele><time>2026-04-04T09:47:27.055Z</time></trkpt><trkpt lat="46.0274039" lon="12.6650708"><ele>111.0</ele><time>2026-04-04T09:47:28.056Z</time></trkpt><trkpt lat="46.027481" lon="12.6653291"><ele>111.33333333333334</ele><time>2026-04-04T09:47:29.056Z</time></trkpt><trkpt lat="46.0275612" lon="12.6655897"><ele>111.66666666666667</ele><time>2026-04-04T09:47:30.056Z</time></trkpt><trkpt lat="46.0276403" lon="12.6658496"><ele>112.0</ele><time>2026-04-04T09:47:31.055Z</time></trkpt><trkpt lat="46.0277183" lon="12.666114"><ele>111.33333333333334</ele><time>2026-04-04T09:47:32.057Z</time></trkpt><trkpt lat="46.0277989" lon="12.6663758"><ele>110.66666666666666</ele><time>2026-04-04T09:47:33.056Z</time></trkpt><trkpt lat="46.0278796" lon="12.6666351"><ele>110.0</ele><time>2026-04-04T09:47:34.056Z</time></trkpt><trkpt lat="46.0279621" lon="12.6668898"><ele>110.0</ele><time>2026-04-04T09:47:35.056Z</time></trkpt><trkpt lat="46.028046" lon="12.6671456"><ele>110.0</ele><time>2026-04-04T09:47:36.055Z</time></trkpt><trkpt lat="46.02814" lon="12.6673994"><ele>110.0</ele><time>2026-04-04T09:47:37.055Z</time></trkpt><trkpt lat="46.0282368" lon="12.667643"><ele>110.33333333333333</ele><time>2026-04-04T09:47:38.056Z</time></trkpt><trkpt lat="46.0283289" lon="12.6678917"><ele>110.66666666666666</ele><time>2026-04-04T09:47:39.056Z</time></trkpt><trkpt lat="46.0284306" lon="12.6681376"><ele>111.0</ele><time>2026-04-04T09:47:40.056Z</time></trkpt><trkpt lat="46.0285316" lon="12.668383"><ele>110.66666666666666</ele><time>2026-04-04T09:47:41.056Z</time></trkpt><trkpt lat="46.0286247" lon="12.6686395"><ele>110.33333333333333</ele><time>2026-04-04T09:47:42.057Z</time></trkpt><trkpt lat="46.0287262" lon="12.6688923"><ele>110.0</ele><time>2026-04-04T09:47:43.056Z</time></trkpt><trkpt lat="46.0288239" lon="12.6691414"><ele>110.0</ele><time>2026-04-04T09:47:44.057Z</time></trkpt><trkpt lat="46.0289254" lon="12.6693949"><ele>110.0</ele><time>2026-04-04T09:47:45.056Z</time></trkpt><trkpt lat="46.0290249" lon="12.6696441"><ele>110.0</ele><time>2026-04-04T09:47:46.055Z</time></trkpt><trkpt lat="46.0291262" lon="12.6698948"><ele>110.66666666666666</ele><time>2026-04-04T09:47:47.057Z</time></trkpt><trkpt lat="46.0292298" lon="12.6701388"><ele>111.33333333333334</ele><time>2026-04-04T09:47:48.056Z</time></trkpt><trkpt lat="46.029331" lon="12.6703918"><ele>112.0</ele><time>2026-04-04T09:47:49.055Z</time></trkpt><trkpt lat="46.0294406" lon="12.6706363"><ele>112.0</ele><time>2026-04-04T09:47:50.057Z</time></trkpt><trkpt lat="46.0295582" lon="12.6708764"><ele>112.0</ele><time>2026-04-04T09:47:51.056Z</time></trkpt><trkpt lat="46.0296754" lon="12.6711057"><ele>112.0</ele><time>2026-04-04T09:47:52.058Z</time></trkpt><trkpt lat="46.029792" lon="12.6713155"><ele>111.66666666666667</ele><time>2026-04-04T09:47:53.055Z</time></trkpt><trkpt lat="46.029902" lon="12.6715168"><ele>111.33333333333334</ele><time>2026-04-04T09:47:54.057Z</time></trkpt><trkpt lat="46.0300088" lon="12.6717039"><ele>111.0</ele><time>2026-04-04T09:47:55.057Z</time></trkpt><trkpt lat="46.0300955" lon="12.6718662"><ele>110.5</ele><time>2026-04-04T09:47:56.055Z</time></trkpt><trkpt lat="46.0301771" lon="12.6720217"><ele>110.0</ele><time>2026-04-04T09:47:57.055Z</time></trkpt><trkpt lat="46.0302519" lon="12.6721676"><ele>109.5</ele><time>2026-04-04T09:47:58.056Z</time></trkpt><trkpt lat="46.0303241" lon="12.672302"><ele>109.0</ele><time>2026-04-04T09:47:59.055Z</time></trkpt><trkpt lat="46.0303872" lon="12.6724167"><ele>109.0</ele><time>2026-04-04T09:48:00.057Z</time></trkpt><trkpt lat="46.0304468" lon="12.672526"><ele>109.0</ele><time>2026-04-04T09:48:01.056Z</time></trkpt><trkpt lat="46.0305105" lon="12.6726387"><ele>109.0</ele><time>2026-04-04T09:48:02.056Z</time></trkpt><trkpt lat="46.0305729" lon="12.6727658"><ele>109.0</ele><time>2026-04-04T09:48:03.056Z</time></trkpt><trkpt lat="46.0306443" lon="12.6728976"><ele>109.0</ele><time>2026-04-04T09:48:04.056Z</time></trkpt><trkpt lat="46.0307249" lon="12.6730519"><ele>110.0</ele><time>2026-04-04T09:48:05.057Z</time></trkpt><trkpt lat="46.0308138" lon="12.6732156"><ele>111.0</ele><time>2026-04-04T09:48:06.056Z</time></trkpt><trkpt lat="46.0309149" lon="12.6733865"><ele>112.0</ele><time>2026-04-04T09:48:07.055Z</time></trkpt><trkpt lat="46.0310222" lon="12.6735674"><ele>111.66666666666667</ele><time>2026-04-04T09:48:08.056Z</time></trkpt><trkpt lat="46.0311309" lon="12.6737517"><ele>111.33333333333334</ele><time>2026-04-04T09:48:09.055Z</time></trkpt><trkpt lat="46.0312389" lon="12.6739376"><ele>111.0</ele><time>2026-04-04T09:48:10.056Z</time></trkpt><trkpt lat="46.0313484" lon="12.6741218"><ele>111.0</ele><time>2026-04-04T09:48:11.056Z</time></trkpt><trkpt lat="46.0314547" lon="12.6742982"><ele>111.0</ele><time>2026-04-04T09:48:12.056Z</time></trkpt><trkpt lat="46.0315552" lon="12.6744638"><ele>111.0</ele><time>2026-04-04T09:48:13.056Z</time></trkpt><trkpt lat="46.0316543" lon="12.6746233"><ele>111.0</ele><time>2026-04-04T09:48:14.057Z</time></trkpt><trkpt lat="46.0317492" lon="12.6747868"><ele>111.0</ele><time>2026-04-04T09:48:15.055Z</time></trkpt><trkpt lat="46.0318459" lon="12.6749485"><ele>111.0</ele><time>2026-04-04T09:48:16.058Z</time></trkpt><trkpt lat="46.0319432" lon="12.6751154"><ele>111.0</ele><time>2026-04-04T09:48:17.057Z</time></trkpt><trkpt lat="46.0320411" lon="12.6752827"><ele>110.75</ele><time>2026-04-04T09:48:18.057Z</time></trkpt><trkpt lat="46.0321368" lon="12.6754437"><ele>110.5</ele><time>2026-04-04T09:48:19.056Z</time></trkpt><trkpt lat="46.0322286" lon="12.6755881"><ele>110.25</ele><time>2026-04-04T09:48:20.056Z</time></trkpt><trkpt lat="46.0323147" lon="12.6757215"><ele>110.0</ele><time>2026-04-04T09:48:21.056Z</time></trkpt><trkpt lat="46.0323902" lon="12.6758319"><ele>109.99999999999999</ele><time>2026-04-04T09:48:22.057Z</time></trkpt><trkpt lat="46.0324449" lon="12.675931"><ele>110.0</ele><time>2026-04-04T09:48:23.057Z</time></trkpt><trkpt lat="46.0324843" lon="12.6760428"><ele>110.0</ele><time>2026-04-04T09:48:24.056Z</time></trkpt><trkpt lat="46.0325173" lon="12.676155"><ele>110.0</ele><time>2026-04-04T09:48:25.055Z</time></trkpt><trkpt lat="46.0325688" lon="12.6762357"><ele>109.99999999999999</ele><time>2026-04-04T09:48:26.056Z</time></trkpt><trkpt lat="46.0326441" lon="12.6762802"><ele>110.0</ele><time>2026-04-04T09:48:27.055Z</time></trkpt><trkpt lat="46.0327437" lon="12.6762977"><ele>110.75</ele><time>2026-04-04T09:48:28.058Z</time></trkpt><trkpt lat="46.0328558" lon="12.67633"><ele>111.5</ele><time>2026-04-04T09:48:29.056Z</time></trkpt><trkpt lat="46.0329795" lon="12.6763754"><ele>112.25</ele><time>2026-04-04T09:48:30.056Z</time></trkpt><trkpt lat="46.0331107" lon="12.6764206"><ele>113.0</ele><time>2026-04-04T09:48:31.056Z</time></trkpt><trkpt lat="46.0332484" lon="12.676472"><ele>112.75</ele><time>2026-04-04T09:48:32.056Z</time></trkpt><trkpt lat="46.033377" lon="12.676521"><ele>112.5</ele><time>2026-04-04T09:48:33.056Z</time></trkpt><trkpt lat="46.0335017" lon="12.676573"><ele>112.25</ele><time>2026-04-04T09:48:34.056Z</time></trkpt><trkpt lat="46.0336279" lon="12.6766218"><ele>112.0</ele><time>2026-04-04T09:48:35.056Z</time></trkpt><trkpt lat="46.0337582" lon="12.6766704"><ele>112.0</ele><time>2026-04-04T09:48:36.056Z</time></trkpt><trkpt lat="46.0338924" lon="12.6767216"><ele>112.0</ele><time>2026-04-04T09:48:37.057Z</time></trkpt><trkpt lat="46.0340262" lon="12.6767778"><ele>112.0</ele><time>2026-04-04T09:48:38.056Z</time></trkpt><trkpt lat="46.0341672" lon="12.6768286"><ele>112.0</ele><time>2026-04-04T09:48:39.058Z</time></trkpt><trkpt lat="46.0342952" lon="12.6768789"><ele>112.25</ele><time>2026-04-04T09:48:40.055Z</time></trkpt><trkpt lat="46.0344143" lon="12.6769179"><ele>112.5</ele><time>2026-04-04T09:48:41.056Z</time></trkpt><trkpt lat="46.0345291" lon="12.6769639"><ele>112.75</ele><time>2026-04-04T09:48:42.055Z</time></trkpt><trkpt lat="46.0346389" lon="12.6770142"><ele>113.0</ele><time>2026-04-04T09:48:43.055Z</time></trkpt><trkpt lat="46.0347461" lon="12.6770708"><ele>113.0</ele><time>2026-04-04T09:48:44.057Z</time></trkpt><trkpt lat="46.0348467" lon="12.6771257"><ele>113.00000000000001</ele><time>2026-04-04T09:48:45.055Z</time></trkpt><trkpt lat="46.0349426" lon="12.6771757"><ele>113.00000000000001</ele><time>2026-04-04T09:48:46.056Z</time></trkpt><trkpt lat="46.0350351" lon="12.6772218"><ele>113.0</ele><time>2026-04-04T09:48:47.057Z</time></trkpt><trkpt lat="46.0351298" lon="12.6772705"><ele>113.0</ele><time>2026-04-04T09:48:48.055Z</time></trkpt><trkpt lat="46.0352193" lon="12.6773206"><ele>113.33333333333333</ele><time>2026-04-04T09:48:49.056Z</time></trkpt><trkpt lat="46.0353063" lon="12.6773724"><ele>113.66666666666666</ele><time>2026-04-04T09:48:50.055Z</time></trkpt><trkpt lat="46.0353938" lon="12.6774151"><ele>114.0</ele><time>2026-04-04T09:48:51.058Z</time></trkpt><trkpt lat="46.0354745" lon="12.6774598"><ele>114.33333333333334</ele><time>2026-04-04T09:48:52.058Z</time></trkpt><trkpt lat="46.0355452" lon="12.6774973"><ele>114.66666666666667</ele><time>2026-04-04T09:48:53.055Z</time></trkpt><trkpt lat="46.0356105" lon="12.6775262"><ele>115.0</ele><time>2026-04-04T09:48:54.055Z</time></trkpt><trkpt lat="46.0356691" lon="12.6775602"><ele>115.00000000000001</ele><time>2026-04-04T09:48:55.056Z</time></trkpt><trkpt lat="46.0357549" lon="12.6776065"><ele>115.0</ele><time>2026-04-04T09:48:57.056Z</time></trkpt><trkpt lat="46.035835" lon="12.6776293"><ele>115.0</ele><time>2026-04-04T09:49:00.056Z</time></trkpt><trkpt lat="46.0359324" lon="12.6776461"><ele>115.0</ele><time>2026-04-04T09:49:31.056Z</time></trkpt><trkpt lat="46.0359961" lon="12.677652"><ele>115.00000000000001</ele><time>2026-04-04T09:49:32.058Z</time></trkpt><trkpt lat="46.036063" lon="12.6776474"><ele>115.0</ele><time>2026-04-04T09:49:33.056Z</time></trkpt><trkpt lat="46.0361711" lon="12.6776378"><ele>115.0</ele><time>2026-04-04T09:49:35.056Z</time></trkpt><trkpt lat="46.0362381" lon="12.6776267"><ele>115.0</ele><time>2026-04-04T09:49:36.056Z</time></trkpt><trkpt lat="46.0363197" lon="12.677626"><ele>115.0</ele><time>2026-04-04T09:49:37.056Z</time></trkpt><trkpt lat="46.0364109" lon="12.6776505"><ele>115.0</ele><time>2026-04-04T09:49:38.058Z</time></trkpt><trkpt lat="46.0365112" lon="12.6777043"><ele>115.0</ele><time>2026-04-04T09:49:39.056Z</time></trkpt><trkpt lat="46.0366153" lon="12.6777692"><ele>115.0</ele><time>2026-04-04T09:49:40.057Z</time></trkpt><trkpt lat="46.0367292" lon="12.6778433"><ele>115.0</ele><time>2026-04-04T09:49:41.056Z</time></trkpt><trkpt lat="46.0368532" lon="12.6779204"><ele>115.0</ele><time>2026-04-04T09:49:42.056Z</time></trkpt><trkpt lat="46.0369895" lon="12.677987"><ele>115.0</ele><time>2026-04-04T09:49:43.056Z</time></trkpt><trkpt lat="46.0371259" lon="12.6780504"><ele>115.0</ele><time>2026-04-04T09:49:44.056Z</time></trkpt><trkpt lat="46.0372581" lon="12.6781162"><ele>115.0</ele><time>2026-04-04T09:49:45.057Z</time></trkpt><trkpt lat="46.0373887" lon="12.6781749"><ele>115.0</ele><time>2026-04-04T09:49:46.056Z</time></trkpt><trkpt lat="46.0375092" lon="12.6782262"><ele>115.0</ele><time>2026-04-04T09:49:47.058Z</time></trkpt><trkpt lat="46.0376214" lon="12.678275"><ele>115.2</ele><time>2026-04-04T09:49:48.056Z</time></trkpt><trkpt lat="46.0377293" lon="12.6783203"><ele>115.4</ele><time>2026-04-04T09:49:49.056Z</time></trkpt><trkpt lat="46.0378292" lon="12.6783592"><ele>115.6</ele><time>2026-04-04T09:49:50.056Z</time></trkpt><trkpt lat="46.0379176" lon="12.678394"><ele>115.8</ele><time>2026-04-04T09:49:51.055Z</time></trkpt><trkpt lat="46.0379988" lon="12.6784281"><ele>116.0</ele><time>2026-04-04T09:49:52.055Z</time></trkpt><trkpt lat="46.0380614" lon="12.6784739"><ele>115.99999999999999</ele><time>2026-04-04T09:49:53.056Z</time></trkpt><trkpt lat="46.0381256" lon="12.6785339"><ele>116.0</ele><time>2026-04-04T09:49:54.056Z</time></trkpt><trkpt lat="46.0381954" lon="12.6785935"><ele>116.0</ele><time>2026-04-04T09:49:55.056Z</time></trkpt><trkpt lat="46.0382781" lon="12.6786213"><ele>116.0</ele><time>2026-04-04T09:49:56.056Z</time></trkpt><trkpt lat="46.0383624" lon="12.6786039"><ele>115.99999999999999</ele><time>2026-04-04T09:49:57.056Z</time></trkpt><trkpt lat="46.0384565" lon="12.6785857"><ele>116.0</ele><time>2026-04-04T09:49:58.055Z</time></trkpt><trkpt lat="46.0385611" lon="12.6785969"><ele>116.0</ele><time>2026-04-04T09:49:59.057Z</time></trkpt><trkpt lat="46.0386738" lon="12.6786263"><ele>116.0</ele><time>2026-04-04T09:50:00.055Z</time></trkpt><trkpt lat="46.0387953" lon="12.67867"><ele>116.0</ele><time>2026-04-04T09:50:01.056Z</time></trkpt><trkpt lat="46.0389273" lon="12.6787233"><ele>116.0</ele><time>2026-04-04T09:50:02.056Z</time></trkpt><trkpt lat="46.0390632" lon="12.678777"><ele>116.66666666666666</ele><time>2026-04-04T09:50:03.055Z</time></trkpt><trkpt lat="46.0392043" lon="12.6788368"><ele>117.33333333333334</ele><time>2026-04-04T09:50:04.055Z</time></trkpt><trkpt lat="46.0393463" lon="12.6789014"><ele>118.0</ele><time>2026-04-04T09:50:05.057Z</time></trkpt><trkpt lat="46.0395026" lon="12.6789604"><ele>118.0</ele><time>2026-04-04T09:50:06.057Z</time></trkpt><trkpt lat="46.0396595" lon="12.6790251"><ele>118.0</ele><time>2026-04-04T09:50:07.056Z</time></trkpt><trkpt lat="46.0398264" lon="12.6790962"><ele>118.0</ele><time>2026-04-04T09:50:08.056Z</time></trkpt><trkpt lat="46.0400029" lon="12.6791724"><ele>118.0</ele><time>2026-04-04T09:50:09.057Z</time></trkpt><trkpt lat="46.040184" lon="12.6792492"><ele>118.0</ele><time>2026-04-04T09:50:10.056Z</time></trkpt><trkpt lat="46.0403716" lon="12.6793319"><ele>118.0</ele><time>2026-04-04T09:50:11.056Z</time></trkpt><trkpt lat="46.0405623" lon="12.679409"><ele>118.33333333333334</ele><time>2026-04-04T09:50:12.056Z</time></trkpt><trkpt lat="46.0407559" lon="12.6794879"><ele>118.66666666666666</ele><time>2026-04-04T09:50:13.056Z</time></trkpt><trkpt lat="46.0409517" lon="12.6795686"><ele>119.0</ele><time>2026-04-04T09:50:14.056Z</time></trkpt><trkpt lat="46.0411486" lon="12.6796501"><ele>119.66666666666666</ele><time>2026-04-04T09:50:15.055Z</time></trkpt><trkpt lat="46.0413416" lon="12.6797306"><ele>120.33333333333334</ele><time>2026-04-04T09:50:16.056Z</time></trkpt><trkpt lat="46.0415276" lon="12.6798117"><ele>121.0</ele><time>2026-04-04T09:50:17.057Z</time></trkpt><trkpt lat="46.0417138" lon="12.6798834"><ele>121.66666666666667</ele><time>2026-04-04T09:50:18.055Z</time></trkpt><trkpt lat="46.0419" lon="12.6799589"><ele>122.33333333333334</ele><time>2026-04-04T09:50:19.056Z</time></trkpt><trkpt lat="46.042085" lon="12.680025"><ele>123.0</ele><time>2026-04-04T09:50:20.056Z</time></trkpt><trkpt lat="46.0422729" lon="12.6801028"><ele>123.0</ele><time>2026-04-04T09:50:21.057Z</time></trkpt><trkpt lat="46.0424671" lon="12.6801799"><ele>123.0</ele><time>2026-04-04T09:50:22.057Z</time></trkpt><trkpt lat="46.0426635" lon="12.68026"><ele>123.0</ele><time>2026-04-04T09:50:23.057Z</time></trkpt><trkpt lat="46.0428537" lon="12.6803454"><ele>123.0</ele><time>2026-04-04T09:50:24.055Z</time></trkpt><trkpt lat="46.0430344" lon="12.680423"><ele>123.0</ele><time>2026-04-04T09:50:25.056Z</time></trkpt><trkpt lat="46.0432128" lon="12.6805005"><ele>123.0</ele><time>2026-04-04T09:50:26.056Z</time></trkpt><trkpt lat="46.043388" lon="12.6805881"><ele>123.0</ele><time>2026-04-04T09:50:27.057Z</time></trkpt><trkpt lat="46.043557" lon="12.6806855"><ele>123.0</ele><time>2026-04-04T09:50:28.056Z</time></trkpt><trkpt lat="46.0437249" lon="12.680798"><ele>123.0</ele><time>2026-04-04T09:50:29.056Z</time></trkpt><trkpt lat="46.0438931" lon="12.6809055"><ele>123.0</ele><time>2026-04-04T09:50:30.056Z</time></trkpt><trkpt lat="46.0440671" lon="12.6809983"><ele>123.0</ele><time>2026-04-04T09:50:31.058Z</time></trkpt><trkpt lat="46.0442482" lon="12.6810685"><ele>123.0</ele><time>2026-04-04T09:50:32.057Z</time></trkpt><trkpt lat="46.0444325" lon="12.6811334"><ele>123.33333333333334</ele><time>2026-04-04T09:50:33.055Z</time></trkpt><trkpt lat="46.0446198" lon="12.6811913"><ele>123.66666666666667</ele><time>2026-04-04T09:50:34.055Z</time></trkpt><trkpt lat="46.0448098" lon="12.6812499"><ele>124.0</ele><time>2026-04-04T09:50:35.055Z</time></trkpt><trkpt lat="46.0450038" lon="12.6813111"><ele>124.0</ele><time>2026-04-04T09:50:36.055Z</time></trkpt><trkpt lat="46.0452014" lon="12.6813688"><ele>124.0</ele><time>2026-04-04T09:50:37.056Z</time></trkpt><trkpt lat="46.0453966" lon="12.6814345"><ele>124.0</ele><time>2026-04-04T09:50:38.056Z</time></trkpt><trkpt lat="46.0455931" lon="12.681493"><ele>124.0</ele><time>2026-04-04T09:50:39.056Z</time></trkpt><trkpt lat="46.0457893" lon="12.6815521"><ele>124.0</ele><time>2026-04-04T09:50:40.057Z</time></trkpt><trkpt lat="46.0459836" lon="12.6816132"><ele>124.0</ele><time>2026-04-04T09:50:41.057Z</time></trkpt><trkpt lat="46.046167" lon="12.6816719"><ele>125.0</ele><time>2026-04-04T09:50:42.056Z</time></trkpt><trkpt lat="46.0463375" lon="12.6817257"><ele>126.0</ele><time>2026-04-04T09:50:43.057Z</time></trkpt><trkpt lat="46.0464969" lon="12.6817969"><ele>127.0</ele><time>2026-04-04T09:50:44.056Z</time></trkpt><trkpt lat="46.0466383" lon="12.6818987"><ele>126.66666666666667</ele><time>2026-04-04T09:50:45.056Z</time></trkpt><trkpt lat="46.0467596" lon="12.6820442"><ele>126.33333333333334</ele><time>2026-04-04T09:50:46.056Z</time></trkpt><trkpt lat="46.0468622" lon="12.6822242"><ele>126.0</ele><time>2026-04-04T09:50:47.056Z</time></trkpt><trkpt lat="46.046947" lon="12.6824321"><ele>126.0</ele><time>2026-04-04T09:50:48.057Z</time></trkpt><trkpt lat="46.0470288" lon="12.6826691"><ele>126.0</ele><time>2026-04-04T09:50:49.057Z</time></trkpt><trkpt lat="46.0471108" lon="12.6829145"><ele>126.0</ele><time>2026-04-04T09:50:50.055Z</time></trkpt><trkpt lat="46.0471963" lon="12.6831648"><ele>126.0</ele><time>2026-04-04T09:50:51.056Z</time></trkpt><trkpt lat="46.0472802" lon="12.6834129"><ele>126.0</ele><time>2026-04-04T09:50:52.056Z</time></trkpt><trkpt lat="46.0473702" lon="12.6836546"><ele>126.0</ele><time>2026-04-04T09:50:53.057Z</time></trkpt><trkpt lat="46.0474627" lon="12.6838915"><ele>126.0</ele><time>2026-04-04T09:50:54.057Z</time></trkpt><trkpt lat="46.0475619" lon="12.6841304"><ele>126.0</ele><time>2026-04-04T09:50:55.056Z</time></trkpt><trkpt lat="46.0476593" lon="12.6843664"><ele>126.0</ele><time>2026-04-04T09:50:56.057Z</time></trkpt><trkpt lat="46.0477546" lon="12.6846043"><ele>126.0</ele><time>2026-04-04T09:50:57.056Z</time></trkpt><trkpt lat="46.047853" lon="12.6848469"><ele>126.0</ele><time>2026-04-04T09:50:58.056Z</time></trkpt><trkpt lat="46.0479496" lon="12.6850903"><ele>126.0</ele><time>2026-04-04T09:50:59.056Z</time></trkpt><trkpt lat="46.0480508" lon="12.6853322"><ele>125.66666666666666</ele><time>2026-04-04T09:51:00.058Z</time></trkpt><trkpt lat="46.0481469" lon="12.6855636"><ele>125.33333333333333</ele><time>2026-04-04T09:51:01.056Z</time></trkpt><trkpt lat="46.0482358" lon="12.6857935"><ele>125.0</ele><time>2026-04-04T09:51:02.056Z</time></trkpt><trkpt lat="46.0483218" lon="12.6860092"><ele>126.66666666666666</ele><time>2026-04-04T09:51:03.055Z</time></trkpt><trkpt lat="46.0484096" lon="12.6862245"><ele>128.33333333333334</ele><time>2026-04-04T09:51:04.057Z</time></trkpt><trkpt lat="46.0485029" lon="12.6864414"><ele>130.0</ele><time>2026-04-04T09:51:05.056Z</time></trkpt><trkpt lat="46.0485932" lon="12.6866624"><ele>130.0</ele><time>2026-04-04T09:51:06.056Z</time></trkpt><trkpt lat="46.0486889" lon="12.6868921"><ele>130.0</ele><time>2026-04-04T09:51:07.055Z</time></trkpt><trkpt lat="46.0487886" lon="12.6871284"><ele>130.0</ele><time>2026-04-04T09:51:08.056Z</time></trkpt><trkpt lat="46.0488836" lon="12.6873684"><ele>129.66666666666669</ele><time>2026-04-04T09:51:09.056Z</time></trkpt><trkpt lat="46.0489797" lon="12.6876163"><ele>129.33333333333334</ele><time>2026-04-04T09:51:10.056Z</time></trkpt><trkpt lat="46.0490608" lon="12.6878763"><ele>129.0</ele><time>2026-04-04T09:51:11.055Z</time></trkpt><trkpt lat="46.0491264" lon="12.6881459"><ele>129.0</ele><time>2026-04-04T09:51:12.057Z</time></trkpt><trkpt lat="46.0491841" lon="12.6884201"><ele>129.0</ele><time>2026-04-04T09:51:13.056Z</time></trkpt><trkpt lat="46.049242" lon="12.6886947"><ele>129.0</ele><time>2026-04-04T09:51:14.058Z</time></trkpt><trkpt lat="46.0493036" lon="12.6889576"><ele>128.33333333333334</ele><time>2026-04-04T09:51:15.057Z</time></trkpt><trkpt lat="46.049362" lon="12.6892129"><ele>127.66666666666667</ele><time>2026-04-04T09:51:16.057Z</time></trkpt><trkpt lat="46.0494266" lon="12.6894568"><ele>127.0</ele><time>2026-04-04T09:51:17.057Z</time></trkpt><trkpt lat="46.0495082" lon="12.6896884"><ele>126.66666666666667</ele><time>2026-04-04T09:51:18.056Z</time></trkpt><trkpt lat="46.0496086" lon="12.6899019"><ele>126.33333333333334</ele><time>2026-04-04T09:51:19.057Z</time></trkpt><trkpt lat="46.0497251" lon="12.690102"><ele>126.0</ele><time>2026-04-04T09:51:20.058Z</time></trkpt><trkpt lat="46.0498602" lon="12.6902776"><ele>126.66666666666666</ele><time>2026-04-04T09:51:21.056Z</time></trkpt><trkpt lat="46.0500062" lon="12.6904408"><ele>127.33333333333333</ele><time>2026-04-04T09:51:22.056Z</time></trkpt><trkpt lat="46.0501662" lon="12.6905917"><ele>128.0</ele><time>2026-04-04T09:51:23.057Z</time></trkpt><trkpt lat="46.0503276" lon="12.6907526"><ele>128.0</ele><time>2026-04-04T09:51:24.055Z</time></trkpt><trkpt lat="46.0504915" lon="12.690909"><ele>128.0</ele><time>2026-04-04T09:51:25.055Z</time></trkpt><trkpt lat="46.0506564" lon="12.6910623"><ele>128.0</ele><time>2026-04-04T09:51:26.056Z</time></trkpt><trkpt lat="46.0508237" lon="12.6912094"><ele>128.33333333333331</ele><time>2026-04-04T09:51:27.056Z</time></trkpt><trkpt lat="46.0509885" lon="12.6913681"><ele>128.66666666666666</ele><time>2026-04-04T09:51:28.057Z</time></trkpt><trkpt lat="46.0511489" lon="12.6915203"><ele>129.0</ele><time>2026-04-04T09:51:29.056Z</time></trkpt><trkpt lat="46.0513041" lon="12.691667"><ele>129.0</ele><time>2026-04-04T09:51:30.056Z</time></trkpt><trkpt lat="46.0514689" lon="12.6917885"><ele>129.0</ele><time>2026-04-04T09:51:31.058Z</time></trkpt><trkpt lat="46.0516374" lon="12.6918849"><ele>129.0</ele><time>2026-04-04T09:51:32.056Z</time></trkpt><trkpt lat="46.0518148" lon="12.691956"><ele>128.66666666666666</ele><time>2026-04-04T09:51:33.056Z</time></trkpt><trkpt lat="46.0519918" lon="12.6920117"><ele>128.33333333333331</ele><time>2026-04-04T09:51:34.058Z</time></trkpt><trkpt lat="46.05217" lon="12.6920668"><ele>128.0</ele><time>2026-04-04T09:51:35.056Z</time></trkpt><trkpt lat="46.052349" lon="12.6921231"><ele>129.0</ele><time>2026-04-04T09:51:36.057Z</time></trkpt><trkpt lat="46.0525278" lon="12.6921831"><ele>130.0</ele><time>2026-04-04T09:51:37.056Z</time></trkpt><trkpt lat="46.0527034" lon="12.6922391"><ele>131.0</ele><time>2026-04-04T09:51:38.056Z</time></trkpt><trkpt lat="46.0528693" lon="12.6922934"><ele>131.0</ele><time>2026-04-04T09:51:39.056Z</time></trkpt><trkpt lat="46.0530282" lon="12.6923438"><ele>131.0</ele><time>2026-04-04T09:51:40.056Z</time></trkpt><trkpt lat="46.0531745" lon="12.6923897"><ele>131.0</ele><time>2026-04-04T09:51:41.058Z</time></trkpt><trkpt lat="46.0533143" lon="12.6924364"><ele>131.5</ele><time>2026-04-04T09:51:42.058Z</time></trkpt><trkpt lat="46.0534471" lon="12.6924669"><ele>132.0</ele><time>2026-04-04T09:51:43.058Z</time></trkpt><trkpt lat="46.0535729" lon="12.6924831"><ele>132.5</ele><time>2026-04-04T09:51:44.057Z</time></trkpt><trkpt lat="46.05368" lon="12.6924925"><ele>133.0</ele><time>2026-04-04T09:51:45.056Z</time></trkpt><trkpt lat="46.0537741" lon="12.6925005"><ele>133.0</ele><time>2026-04-04T09:51:46.056Z</time></trkpt><trkpt lat="46.0538561" lon="12.6925338"><ele>133.0</ele><time>2026-04-04T09:51:47.055Z</time></trkpt><trkpt lat="46.0539273" lon="12.6925877"><ele>133.0</ele><time>2026-04-04T09:51:48.057Z</time></trkpt><trkpt lat="46.0539841" lon="12.6926724"><ele>133.0</ele><time>2026-04-04T09:51:49.057Z</time></trkpt><trkpt lat="46.0540286" lon="12.6927845"><ele>133.0</ele><time>2026-04-04T09:51:50.057Z</time></trkpt><trkpt lat="46.0540897" lon="12.6929045"><ele>133.0</ele><time>2026-04-04T09:51:51.056Z</time></trkpt><trkpt lat="46.0541729" lon="12.6930137"><ele>133.0</ele><time>2026-04-04T09:51:52.056Z</time></trkpt><trkpt lat="46.0542625" lon="12.6931363"><ele>133.0</ele><time>2026-04-04T09:51:53.056Z</time></trkpt><trkpt lat="46.0543368" lon="12.6932884"><ele>133.0</ele><time>2026-04-04T09:51:54.057Z</time></trkpt><trkpt lat="46.0543904" lon="12.6934644"><ele>133.0</ele><time>2026-04-04T09:51:55.057Z</time></trkpt><trkpt lat="46.0544297" lon="12.6936647"><ele>132.66666666666669</ele><time>2026-04-04T09:51:56.057Z</time></trkpt><trkpt lat="46.0544549" lon="12.6938897"><ele>132.33333333333334</ele><time>2026-04-04T09:51:57.056Z</time></trkpt><trkpt lat="46.0544735" lon="12.6941332"><ele>132.0</ele><time>2026-04-04T09:51:58.057Z</time></trkpt><trkpt lat="46.0544859" lon="12.6943924"><ele>131.33333333333334</ele><time>2026-04-04T09:51:59.058Z</time></trkpt><trkpt lat="46.0544965" lon="12.694669"><ele>130.66666666666669</ele><time>2026-04-04T09:52:00.056Z</time></trkpt><trkpt lat="46.0545111" lon="12.6949583"><ele>130.0</ele><time>2026-04-04T09:52:01.056Z</time></trkpt><trkpt lat="46.0545248" lon="12.6952491"><ele>130.0</ele><time>2026-04-04T09:52:02.056Z</time></trkpt><trkpt lat="46.0545396" lon="12.6955397"><ele>130.0</ele><time>2026-04-04T09:52:03.056Z</time></trkpt><trkpt lat="46.0545491" lon="12.6958298"><ele>130.0</ele><time>2026-04-04T09:52:04.058Z</time></trkpt><trkpt lat="46.0545446" lon="12.696114"><ele>131.0</ele><time>2026-04-04T09:52:05.058Z</time></trkpt><trkpt lat="46.0545323" lon="12.6963918"><ele>132.0</ele><time>2026-04-04T09:52:06.056Z</time></trkpt><trkpt lat="46.0545116" lon="12.6966697"><ele>133.0</ele><time>2026-04-04T09:52:07.057Z</time></trkpt><trkpt lat="46.0544884" lon="12.696951"><ele>133.0</ele><time>2026-04-04T09:52:08.057Z</time></trkpt><trkpt lat="46.0544576" lon="12.697236"><ele>133.0</ele><time>2026-04-04T09:52:09.055Z</time></trkpt><trkpt lat="46.0544224" lon="12.6975254"><ele>133.0</ele><time>2026-04-04T09:52:10.057Z</time></trkpt><trkpt lat="46.0543779" lon="12.6978173"><ele>133.33333333333334</ele><time>2026-04-04T09:52:11.057Z</time></trkpt><trkpt lat="46.0543308" lon="12.6981142"><ele>133.66666666666666</ele><time>2026-04-04T09:52:12.057Z</time></trkpt><trkpt lat="46.0542835" lon="12.6984215"><ele>134.0</ele><time>2026-04-04T09:52:13.057Z</time></trkpt><trkpt lat="46.0542371" lon="12.6987295"><ele>133.66666666666666</ele><time>2026-04-04T09:52:14.055Z</time></trkpt><trkpt lat="46.0541887" lon="12.6990381"><ele>133.33333333333334</ele><time>2026-04-04T09:52:15.058Z</time></trkpt><trkpt lat="46.0541377" lon="12.6993468"><ele>133.0</ele><time>2026-04-04T09:52:16.057Z</time></trkpt><trkpt lat="46.0540891" lon="12.6996549"><ele>133.0</ele><time>2026-04-04T09:52:17.058Z</time></trkpt><trkpt lat="46.0540385" lon="12.6999666"><ele>133.0</ele><time>2026-04-04T09:52:18.057Z</time></trkpt><trkpt lat="46.0539954" lon="12.7002798"><ele>133.0</ele><time>2026-04-04T09:52:19.057Z</time></trkpt><trkpt lat="46.0539558" lon="12.7005891"><ele>133.0</ele><time>2026-04-04T09:52:20.057Z</time></trkpt><trkpt lat="46.0539302" lon="12.7009019"><ele>133.0</ele><time>2026-04-04T09:52:21.057Z</time></trkpt><trkpt lat="46.0539137" lon="12.7012236"><ele>133.0</ele><time>2026-04-04T09:52:22.057Z</time></trkpt><trkpt lat="46.0539143" lon="12.7015585"><ele>133.5</ele><time>2026-04-04T09:52:23.056Z</time></trkpt><trkpt lat="46.0539266" lon="12.7018972"><ele>134.0</ele><time>2026-04-04T09:52:24.056Z</time></trkpt><trkpt lat="46.0539494" lon="12.7022485"><ele>134.0</ele><time>2026-04-04T09:52:25.058Z</time></trkpt><trkpt lat="46.0539893" lon="12.7026038"><ele>134.0</ele><time>2026-04-04T09:52:26.058Z</time></trkpt><trkpt lat="46.0540389" lon="12.7029598"><ele>134.0</ele><time>2026-04-04T09:52:27.057Z</time></trkpt><trkpt lat="46.0541036" lon="12.70332"><ele>134.0</ele><time>2026-04-04T09:52:28.056Z</time></trkpt><trkpt lat="46.0541867" lon="12.703679"><ele>135.0</ele><time>2026-04-04T09:52:29.057Z</time></trkpt><trkpt lat="46.0542895" lon="12.7040368"><ele>136.0</ele><time>2026-04-04T09:52:30.056Z</time></trkpt><trkpt lat="46.0544057" lon="12.704384"><ele>137.0</ele><time>2026-04-04T09:52:31.058Z</time></trkpt><trkpt lat="46.0545322" lon="12.7047214"><ele>138.0</ele><time>2026-04-04T09:52:32.055Z</time></trkpt><trkpt lat="46.0546741" lon="12.7050435"><ele>137.5</ele><time>2026-04-04T09:52:33.057Z</time></trkpt><trkpt lat="46.0548322" lon="12.7053494"><ele>137.0</ele><time>2026-04-04T09:52:34.056Z</time></trkpt><trkpt lat="46.0549984" lon="12.7056477"><ele>137.5</ele><time>2026-04-04T09:52:35.056Z</time></trkpt><trkpt lat="46.0551741" lon="12.7059278"><ele>138.0</ele><time>2026-04-04T09:52:36.057Z</time></trkpt><trkpt lat="46.0553639" lon="12.7061913"><ele>138.0</ele><time>2026-04-04T09:52:37.057Z</time></trkpt><trkpt lat="46.0555627" lon="12.7064418"><ele>138.0</ele><time>2026-04-04T09:52:38.056Z</time></trkpt><trkpt lat="46.0557716" lon="12.7066834"><ele>139.5</ele><time>2026-04-04T09:52:39.057Z</time></trkpt><trkpt lat="46.0559829" lon="12.7069178"><ele>141.0</ele><time>2026-04-04T09:52:40.056Z</time></trkpt><trkpt lat="46.0561966" lon="12.7071549"><ele>141.0</ele><time>2026-04-04T09:52:41.057Z</time></trkpt><trkpt lat="46.0564048" lon="12.707392"><ele>141.0</ele><time>2026-04-04T09:52:42.058Z</time></trkpt><trkpt lat="46.0566165" lon="12.7076353"><ele>141.5</ele><time>2026-04-04T09:52:43.058Z</time></trkpt><trkpt lat="46.0568271" lon="12.7078731"><ele>142.0</ele><time>2026-04-04T09:52:44.057Z</time></trkpt><trkpt lat="46.0570352" lon="12.7081101"><ele>142.0</ele><time>2026-04-04T09:52:45.058Z</time></trkpt><trkpt lat="46.0572344" lon="12.7083362"><ele>142.0</ele><time>2026-04-04T09:52:46.057Z</time></trkpt><trkpt lat="46.0574244" lon="12.7085562"><ele>143.0</ele><time>2026-04-04T09:52:47.055Z</time></trkpt><trkpt lat="46.0576072" lon="12.7087672"><ele>144.0</ele><time>2026-04-04T09:52:48.057Z</time></trkpt><trkpt lat="46.0577863" lon="12.7089712"><ele>144.0</ele><time>2026-04-04T09:52:49.058Z</time></trkpt><trkpt lat="46.0579652" lon="12.7091772"><ele>144.0</ele><time>2026-04-04T09:52:50.057Z</time></trkpt><trkpt lat="46.0581414" lon="12.7093875"><ele>144.33333333333334</ele><time>2026-04-04T09:52:51.057Z</time></trkpt><trkpt lat="46.0583124" lon="12.7095896"><ele>144.66666666666669</ele><time>2026-04-04T09:52:52.058Z</time></trkpt><trkpt lat="46.0584798" lon="12.7098027"><ele>145.0</ele><time>2026-04-04T09:52:53.057Z</time></trkpt><trkpt lat="46.0586339" lon="12.7100275"><ele>145.0</ele><time>2026-04-04T09:52:54.057Z</time></trkpt><trkpt lat="46.0587814" lon="12.7102618"><ele>145.0</ele><time>2026-04-04T09:52:55.055Z</time></trkpt><trkpt lat="46.0589217" lon="12.7105053"><ele>145.0</ele><time>2026-04-04T09:52:56.056Z</time></trkpt><trkpt lat="46.0590513" lon="12.7107391"><ele>145.0</ele><time>2026-04-04T09:52:57.056Z</time></trkpt><trkpt lat="46.0591647" lon="12.7109789"><ele>145.0</ele><time>2026-04-04T09:52:58.057Z</time></trkpt><trkpt lat="46.0592682" lon="12.7112222"><ele>145.0</ele><time>2026-04-04T09:52:59.057Z</time></trkpt><trkpt lat="46.0593631" lon="12.7114716"><ele>145.0</ele><time>2026-04-04T09:53:00.057Z</time></trkpt><trkpt lat="46.0594525" lon="12.7117287"><ele>145.0</ele><time>2026-04-04T09:53:01.056Z</time></trkpt><trkpt lat="46.059535" lon="12.7119904"><ele>145.0</ele><time>2026-04-04T09:53:02.058Z</time></trkpt><trkpt lat="46.0596106" lon="12.7122596"><ele>145.66666666666669</ele><time>2026-04-04T09:53:03.057Z</time></trkpt><trkpt lat="46.0596727" lon="12.7125342"><ele>146.33333333333334</ele><time>2026-04-04T09:53:04.057Z</time></trkpt><trkpt lat="46.0597299" lon="12.7128087"><ele>147.0</ele><time>2026-04-04T09:53:05.056Z</time></trkpt><trkpt lat="46.0597833" lon="12.7130813"><ele>147.33333333333334</ele><time>2026-04-04T09:53:06.057Z</time></trkpt><trkpt lat="46.0598263" lon="12.713368"><ele>147.66666666666669</ele><time>2026-04-04T09:53:07.057Z</time></trkpt><trkpt lat="46.0598561" lon="12.7136515"><ele>148.0</ele><time>2026-04-04T09:53:08.058Z</time></trkpt><trkpt lat="46.0598775" lon="12.7139452"><ele>148.0</ele><time>2026-04-04T09:53:09.056Z</time></trkpt><trkpt lat="46.0598971" lon="12.7142475"><ele>148.0</ele><time>2026-04-04T09:53:10.055Z</time></trkpt><trkpt lat="46.0599169" lon="12.714557"><ele>148.0</ele><time>2026-04-04T09:53:11.055Z</time></trkpt><trkpt lat="46.0599386" lon="12.7148663"><ele>148.0</ele><time>2026-04-04T09:53:12.057Z</time></trkpt><trkpt lat="46.0599546" lon="12.7151775"><ele>148.0</ele><time>2026-04-04T09:53:13.057Z</time></trkpt><trkpt lat="46.0599782" lon="12.7154886"><ele>148.0</ele><time>2026-04-04T09:53:14.057Z</time></trkpt><trkpt lat="46.0600006" lon="12.715788"><ele>148.5</ele><time>2026-04-04T09:53:15.056Z</time></trkpt><trkpt lat="46.0600188" lon="12.7161147"><ele>149.0</ele><time>2026-04-04T09:53:16.056Z</time></trkpt><trkpt lat="46.0600403" lon="12.7164539"><ele>149.0</ele><time>2026-04-04T09:53:17.056Z</time></trkpt><trkpt lat="46.0600591" lon="12.7168067"><ele>149.0</ele><time>2026-04-04T09:53:18.057Z</time></trkpt><trkpt lat="46.0600804" lon="12.7171725"><ele>148.5</ele><time>2026-04-04T09:53:19.057Z</time></trkpt><trkpt lat="46.0601012" lon="12.7175354"><ele>148.0</ele><time>2026-04-04T09:53:20.057Z</time></trkpt><trkpt lat="46.0601255" lon="12.7178965"><ele>149.0</ele><time>2026-04-04T09:53:21.057Z</time></trkpt><trkpt lat="46.0601467" lon="12.7182675"><ele>150.0</ele><time>2026-04-04T09:53:22.056Z</time></trkpt><trkpt lat="46.0601705" lon="12.7186347"><ele>150.0</ele><time>2026-04-04T09:53:23.057Z</time></trkpt><trkpt lat="46.060192" lon="12.7189973"><ele>150.0</ele><time>2026-04-04T09:53:24.058Z</time></trkpt><trkpt lat="46.0602163" lon="12.7193481"><ele>149.5</ele><time>2026-04-04T09:53:25.057Z</time></trkpt><trkpt lat="46.0602381" lon="12.7196892"><ele>149.0</ele><time>2026-04-04T09:53:26.058Z</time></trkpt><trkpt lat="46.0602622" lon="12.7200314"><ele>149.5</ele><time>2026-04-04T09:53:27.057Z</time></trkpt><trkpt lat="46.0602874" lon="12.7203683"><ele>150.0</ele><time>2026-04-04T09:53:28.056Z</time></trkpt><trkpt lat="46.0603133" lon="12.7207122"><ele>150.0</ele><time>2026-04-04T09:53:29.057Z</time></trkpt><trkpt lat="46.0603327" lon="12.7210567"><ele>150.0</ele><time>2026-04-04T09:53:30.056Z</time></trkpt><trkpt lat="46.0603503" lon="12.7214065"><ele>150.0</ele><time>2026-04-04T09:53:31.057Z</time></trkpt><trkpt lat="46.0603663" lon="12.7217628"><ele>150.0</ele><time>2026-04-04T09:53:32.057Z</time></trkpt><trkpt lat="46.0603888" lon="12.722112"><ele>149.5</ele><time>2026-04-04T09:53:33.058Z</time></trkpt><trkpt lat="46.060413" lon="12.722464"><ele>149.0</ele><time>2026-04-04T09:53:34.058Z</time></trkpt><trkpt lat="46.0604359" lon="12.722819"><ele>149.0</ele><time>2026-04-04T09:53:35.057Z</time></trkpt><trkpt lat="46.0604614" lon="12.7231722"><ele>149.0</ele><time>2026-04-04T09:53:36.057Z</time></trkpt><trkpt lat="46.0604878" lon="12.7235259"><ele>149.0</ele><time>2026-04-04T09:53:37.057Z</time></trkpt><trkpt lat="46.06052" lon="12.7238809"><ele>149.0</ele><time>2026-04-04T09:53:38.056Z</time></trkpt><trkpt lat="46.0605529" lon="12.7242319"><ele>149.0</ele><time>2026-04-04T09:53:39.058Z</time></trkpt><trkpt lat="46.0605932" lon="12.7245887"><ele>149.0</ele><time>2026-04-04T09:53:40.057Z</time></trkpt><trkpt lat="46.0606417" lon="12.7249438"><ele>149.0</ele><time>2026-04-04T09:53:41.057Z</time></trkpt><trkpt lat="46.0606955" lon="12.7253031"><ele>149.0</ele><time>2026-04-04T09:53:42.058Z</time></trkpt><trkpt lat="46.0607537" lon="12.7256589"><ele>149.5</ele><time>2026-04-04T09:53:43.058Z</time></trkpt><trkpt lat="46.0608192" lon="12.726009"><ele>150.0</ele><time>2026-04-04T09:53:44.057Z</time></trkpt><trkpt lat="46.0608886" lon="12.7263682"><ele>149.5</ele><time>2026-04-04T09:53:45.057Z</time></trkpt><trkpt lat="46.0609683" lon="12.7267292"><ele>149.0</ele><time>2026-04-04T09:53:46.056Z</time></trkpt><trkpt lat="46.0610463" lon="12.7270788"><ele>149.0</ele><time>2026-04-04T09:53:47.058Z</time></trkpt><trkpt lat="46.0611308" lon="12.727429"><ele>149.0</ele><time>2026-04-04T09:53:48.057Z</time></trkpt><trkpt lat="46.0612241" lon="12.7277803"><ele>148.5</ele><time>2026-04-04T09:53:49.056Z</time></trkpt><trkpt lat="46.0613213" lon="12.7281269"><ele>148.0</ele><time>2026-04-04T09:53:50.057Z</time></trkpt><trkpt lat="46.061425" lon="12.7284857"><ele>150.0</ele><time>2026-04-04T09:53:51.058Z</time></trkpt><trkpt lat="46.0615291" lon="12.7288494"><ele>152.0</ele><time>2026-04-04T09:53:52.058Z</time></trkpt><trkpt lat="46.0616336" lon="12.7292177"><ele>152.5</ele><time>2026-04-04T09:53:53.057Z</time></trkpt><trkpt lat="46.0617428" lon="12.7295845"><ele>153.0</ele><time>2026-04-04T09:53:54.057Z</time></trkpt><trkpt lat="46.0618479" lon="12.7299483"><ele>152.0</ele><time>2026-04-04T09:53:55.057Z</time></trkpt><trkpt lat="46.0619502" lon="12.7303034"><ele>151.0</ele><time>2026-04-04T09:53:56.058Z</time></trkpt><trkpt lat="46.0620588" lon="12.7306596"><ele>151.0</ele><time>2026-04-04T09:53:57.056Z</time></trkpt><trkpt lat="46.0621555" lon="12.7310071"><ele>151.0</ele><time>2026-04-04T09:53:58.056Z</time></trkpt><trkpt lat="46.0622567" lon="12.7313442"><ele>150.0</ele><time>2026-04-04T09:53:59.057Z</time></trkpt><trkpt lat="46.0623575" lon="12.7316768"><ele>149.0</ele><time>2026-04-04T09:54:00.058Z</time></trkpt><trkpt lat="46.0624526" lon="12.732012"><ele>148.0</ele><time>2026-04-04T09:54:01.056Z</time></trkpt><trkpt lat="46.0625479" lon="12.7323445"><ele>147.0</ele><time>2026-04-04T09:54:02.057Z</time></trkpt><trkpt lat="46.0626334" lon="12.7326773"><ele>147.5</ele><time>2026-04-04T09:54:03.057Z</time></trkpt><trkpt lat="46.0627227" lon="12.733002"><ele>148.0</ele><time>2026-04-04T09:54:04.056Z</time></trkpt><trkpt lat="46.0628126" lon="12.7333085"><ele>148.0</ele><time>2026-04-04T09:54:05.057Z</time></trkpt><trkpt lat="46.0629014" lon="12.7336095"><ele>148.0</ele><time>2026-04-04T09:54:06.057Z</time></trkpt><trkpt lat="46.0629931" lon="12.7339129"><ele>148.0</ele><time>2026-04-04T09:54:07.057Z</time></trkpt><trkpt lat="46.0630843" lon="12.7342166"><ele>148.0</ele><time>2026-04-04T09:54:08.057Z</time></trkpt><trkpt lat="46.0631696" lon="12.7345172"><ele>148.0</ele><time>2026-04-04T09:54:09.057Z</time></trkpt><trkpt lat="46.0632573" lon="12.7348185"><ele>148.0</ele><time>2026-04-04T09:54:10.056Z</time></trkpt><trkpt lat="46.0633395" lon="12.7351137"><ele>148.0</ele><time>2026-04-04T09:54:11.058Z</time></trkpt><trkpt lat="46.0634232" lon="12.7354075"><ele>148.0</ele><time>2026-04-04T09:54:12.057Z</time></trkpt><trkpt lat="46.0635062" lon="12.7356994"><ele>148.0</ele><time>2026-04-04T09:54:13.056Z</time></trkpt><trkpt lat="46.0635884" lon="12.7359908"><ele>148.0</ele><time>2026-04-04T09:54:14.057Z</time></trkpt><trkpt lat="46.0636694" lon="12.7362788"><ele>148.0</ele><time>2026-04-04T09:54:15.057Z</time></trkpt><trkpt lat="46.0637534" lon="12.7365721"><ele>148.0</ele><time>2026-04-04T09:54:16.057Z</time></trkpt><trkpt lat="46.0638377" lon="12.7368661"><ele>148.0</ele><time>2026-04-04T09:54:17.056Z</time></trkpt><trkpt lat="46.0639241" lon="12.737154"><ele>148.0</ele><time>2026-04-04T09:54:18.057Z</time></trkpt><trkpt lat="46.0640086" lon="12.737449"><ele>148.0</ele><time>2026-04-04T09:54:19.058Z</time></trkpt><trkpt lat="46.0640937" lon="12.7377509"><ele>148.0</ele><time>2026-04-04T09:54:20.057Z</time></trkpt><trkpt lat="46.0641796" lon="12.7380506"><ele>148.5</ele><time>2026-04-04T09:54:21.056Z</time></trkpt><trkpt lat="46.0642645" lon="12.7383538"><ele>149.0</ele><time>2026-04-04T09:54:22.058Z</time></trkpt><trkpt lat="46.0643586" lon="12.7386602"><ele>149.0</ele><time>2026-04-04T09:54:23.057Z</time></trkpt><trkpt lat="46.0644473" lon="12.7389737"><ele>149.0</ele><time>2026-04-04T09:54:24.057Z</time></trkpt><trkpt lat="46.0645325" lon="12.7392922"><ele>148.5</ele><time>2026-04-04T09:54:25.057Z</time></trkpt><trkpt lat="46.0646232" lon="12.7396193"><ele>148.0</ele><time>2026-04-04T09:54:26.056Z</time></trkpt><trkpt lat="46.0647183" lon="12.7399426"><ele>147.5</ele><time>2026-04-04T09:54:27.058Z</time></trkpt><trkpt lat="46.0648126" lon="12.7402733"><ele>147.0</ele><time>2026-04-04T09:54:28.057Z</time></trkpt><trkpt lat="46.0649087" lon="12.7405956"><ele>147.0</ele><time>2026-04-04T09:54:29.057Z</time></trkpt><trkpt lat="46.065006" lon="12.7409263"><ele>147.0</ele><time>2026-04-04T09:54:30.056Z</time></trkpt><trkpt lat="46.065102" lon="12.7412595"><ele>147.0</ele><time>2026-04-04T09:54:31.057Z</time></trkpt><trkpt lat="46.0651974" lon="12.7415953"><ele>147.0</ele><time>2026-04-04T09:54:32.059Z</time></trkpt><trkpt lat="46.0652887" lon="12.7419284"><ele>147.5</ele><time>2026-04-04T09:54:33.058Z</time></trkpt><trkpt lat="46.0653853" lon="12.7422561"><ele>148.0</ele><time>2026-04-04T09:54:34.057Z</time></trkpt><trkpt lat="46.0654804" lon="12.7425766"><ele>148.5</ele><time>2026-04-04T09:54:35.056Z</time></trkpt><trkpt lat="46.0655677" lon="12.7429005"><ele>149.0</ele><time>2026-04-04T09:54:36.057Z</time></trkpt><trkpt lat="46.0656527" lon="12.7432228"><ele>149.0</ele><time>2026-04-04T09:54:37.057Z</time></trkpt><trkpt lat="46.0657395" lon="12.7435459"><ele>149.0</ele><time>2026-04-04T09:54:38.057Z</time></trkpt><trkpt lat="46.0658295" lon="12.7438637"><ele>149.5</ele><time>2026-04-04T09:54:39.057Z</time></trkpt><trkpt lat="46.0659225" lon="12.7441768"><ele>150.0</ele><time>2026-04-04T09:54:40.057Z</time></trkpt><trkpt lat="46.0660171" lon="12.7445023"><ele>150.0</ele><time>2026-04-04T09:54:41.056Z</time></trkpt><trkpt lat="46.0661115" lon="12.7448271"><ele>150.0</ele><time>2026-04-04T09:54:42.056Z</time></trkpt><trkpt lat="46.0662032" lon="12.7451535"><ele>149.5</ele><time>2026-04-04T09:54:43.056Z</time></trkpt><trkpt lat="46.0662961" lon="12.7454712"><ele>149.0</ele><time>2026-04-04T09:54:44.058Z</time></trkpt><trkpt lat="46.0663951" lon="12.7458008"><ele>149.0</ele><time>2026-04-04T09:54:45.056Z</time></trkpt><trkpt lat="46.0664921" lon="12.7461354"><ele>149.0</ele><time>2026-04-04T09:54:46.057Z</time></trkpt><trkpt lat="46.0665872" lon="12.7464685"><ele>149.0</ele><time>2026-04-04T09:54:47.057Z</time></trkpt><trkpt lat="46.0666808" lon="12.7467999"><ele>149.0</ele><time>2026-04-04T09:54:48.057Z</time></trkpt><trkpt lat="46.0667728" lon="12.7471329"><ele>149.0</ele><time>2026-04-04T09:54:49.057Z</time></trkpt><trkpt lat="46.0668656" lon="12.7474553"><ele>149.0</ele><time>2026-04-04T09:54:50.057Z</time></trkpt><trkpt lat="46.0669563" lon="12.7477784"><ele>149.0</ele><time>2026-04-04T09:54:51.056Z</time></trkpt><trkpt lat="46.0670478" lon="12.7480951"><ele>149.0</ele><time>2026-04-04T09:54:52.057Z</time></trkpt><trkpt lat="46.0671381" lon="12.7484136"><ele>149.0</ele><time>2026-04-04T09:54:53.057Z</time></trkpt><trkpt lat="46.0672295" lon="12.748726"><ele>149.0</ele><time>2026-04-04T09:54:54.056Z</time></trkpt><trkpt lat="46.0673168" lon="12.7490396"><ele>149.0</ele><time>2026-04-04T09:54:55.057Z</time></trkpt><trkpt lat="46.0674053" lon="12.74935"><ele>149.0</ele><time>2026-04-04T09:54:56.056Z</time></trkpt><trkpt lat="46.067498" lon="12.7496622"><ele>149.5</ele><time>2026-04-04T09:54:57.057Z</time></trkpt><trkpt lat="46.0675876" lon="12.7499813"><ele>150.0</ele><time>2026-04-04T09:54:58.057Z</time></trkpt><trkpt lat="46.0676908" lon="12.750305"><ele>150.0</ele><time>2026-04-04T09:54:59.056Z</time></trkpt><trkpt lat="46.0677998" lon="12.7506315"><ele>150.0</ele><time>2026-04-04T09:55:00.057Z</time></trkpt><trkpt lat="46.0679086" lon="12.7509549"><ele>150.5</ele><time>2026-04-04T09:55:01.058Z</time></trkpt><trkpt lat="46.0680171" lon="12.7512729"><ele>151.0</ele><time>2026-04-04T09:55:02.056Z</time></trkpt><trkpt lat="46.0681301" lon="12.7516014"><ele>150.5</ele><time>2026-04-04T09:55:03.057Z</time></trkpt><trkpt lat="46.0682423" lon="12.7519246"><ele>150.0</ele><time>2026-04-04T09:55:04.058Z</time></trkpt><trkpt lat="46.0683619" lon="12.7522566"><ele>148.5</ele><time>2026-04-04T09:55:05.057Z</time></trkpt><trkpt lat="46.0684779" lon="12.7525902"><ele>147.0</ele><time>2026-04-04T09:55:06.058Z</time></trkpt><trkpt lat="46.0685924" lon="12.7529229"><ele>147.0</ele><time>2026-04-04T09:55:07.056Z</time></trkpt><trkpt lat="46.0687029" lon="12.7532622"><ele>147.0</ele><time>2026-04-04T09:55:08.057Z</time></trkpt><trkpt lat="46.0688138" lon="12.7536025"><ele>146.0</ele><time>2026-04-04T09:55:09.058Z</time></trkpt><trkpt lat="46.068926" lon="12.7539429"><ele>145.0</ele><time>2026-04-04T09:55:10.057Z</time></trkpt><trkpt lat="46.0690376" lon="12.7542762"><ele>145.5</ele><time>2026-04-04T09:55:11.057Z</time></trkpt><trkpt lat="46.0691461" lon="12.7546051"><ele>146.0</ele><time>2026-04-04T09:55:12.056Z</time></trkpt><trkpt lat="46.0692529" lon="12.7549253"><ele>146.0</ele><time>2026-04-04T09:55:13.058Z</time></trkpt><trkpt lat="46.0693601" lon="12.7552444"><ele>146.0</ele><time>2026-04-04T09:55:14.058Z</time></trkpt><trkpt lat="46.0694643" lon="12.755566"><ele>146.0</ele><time>2026-04-04T09:55:15.057Z</time></trkpt><trkpt lat="46.0695688" lon="12.7558868"><ele>146.0</ele><time>2026-04-04T09:55:16.056Z</time></trkpt><trkpt lat="46.069676" lon="12.7562066"><ele>145.0</ele><time>2026-04-04T09:55:17.057Z</time></trkpt><trkpt lat="46.0697865" lon="12.7565318"><ele>144.0</ele><time>2026-04-04T09:55:18.057Z</time></trkpt><trkpt lat="46.0698948" lon="12.7568565"><ele>145.0</ele><time>2026-04-04T09:55:19.056Z</time></trkpt><trkpt lat="46.0700035" lon="12.7571897"><ele>146.0</ele><time>2026-04-04T09:55:20.057Z</time></trkpt><trkpt lat="46.070109" lon="12.7575206"><ele>145.5</ele><time>2026-04-04T09:55:21.056Z</time></trkpt><trkpt lat="46.0702214" lon="12.7578457"><ele>145.0</ele><time>2026-04-04T09:55:22.056Z</time></trkpt><trkpt lat="46.0703321" lon="12.7581819"><ele>145.0</ele><time>2026-04-04T09:55:23.057Z</time></trkpt><trkpt lat="46.0704449" lon="12.7585229"><ele>145.0</ele><time>2026-04-04T09:55:24.056Z</time></trkpt><trkpt lat="46.0705599" lon="12.7588631"><ele>144.5</ele><time>2026-04-04T09:55:25.057Z</time></trkpt><trkpt lat="46.0706733" lon="12.7592039"><ele>144.0</ele><time>2026-04-04T09:55:26.056Z</time></trkpt><trkpt lat="46.0707875" lon="12.7595484"><ele>144.0</ele><time>2026-04-04T09:55:27.057Z</time></trkpt><trkpt lat="46.0709013" lon="12.7598884"><ele>144.0</ele><time>2026-04-04T09:55:28.056Z</time></trkpt><trkpt lat="46.0710107" lon="12.7602151"><ele>143.0</ele><time>2026-04-04T09:55:29.057Z</time></trkpt><trkpt lat="46.0711154" lon="12.7605351"><ele>142.0</ele><time>2026-04-04T09:55:30.057Z</time></trkpt><trkpt lat="46.0712197" lon="12.7608434"><ele>142.0</ele><time>2026-04-04T09:55:31.057Z</time></trkpt><trkpt lat="46.0713187" lon="12.7611368"><ele>142.0</ele><time>2026-04-04T09:55:32.058Z</time></trkpt><trkpt lat="46.0714088" lon="12.7614105"><ele>142.0</ele><time>2026-04-04T09:55:33.056Z</time></trkpt><trkpt lat="46.0714878" lon="12.7616568"><ele>142.0</ele><time>2026-04-04T09:55:34.056Z</time></trkpt><trkpt lat="46.0715573" lon="12.7618677"><ele>142.0</ele><time>2026-04-04T09:55:35.058Z</time></trkpt><trkpt lat="46.0716229" lon="12.7620587"><ele>142.0</ele><time>2026-04-04T09:55:36.057Z</time></trkpt><trkpt lat="46.0716812" lon="12.7622427"><ele>142.0</ele><time>2026-04-04T09:55:37.056Z</time></trkpt><trkpt lat="46.0717423" lon="12.7624139"><ele>142.0</ele><time>2026-04-04T09:55:38.058Z</time></trkpt><trkpt lat="46.0718018" lon="12.7625786"><ele>142.0</ele><time>2026-04-04T09:55:39.059Z</time></trkpt><trkpt lat="46.071856" lon="12.7627303"><ele>142.0</ele><time>2026-04-04T09:55:40.057Z</time></trkpt><trkpt lat="46.0719035" lon="12.7628801"><ele>141.4</ele><time>2026-04-04T09:55:41.058Z</time></trkpt><trkpt lat="46.0719545" lon="12.7630299"><ele>140.79999999999998</ele><time>2026-04-04T09:55:42.057Z</time></trkpt><trkpt lat="46.0719931" lon="12.7631731"><ele>140.2</ele><time>2026-04-04T09:55:43.057Z</time></trkpt><trkpt lat="46.0720183" lon="12.7633183"><ele>139.6</ele><time>2026-04-04T09:55:44.057Z</time></trkpt><trkpt lat="46.07202" lon="12.7634608"><ele>139.0</ele><time>2026-04-04T09:55:45.057Z</time></trkpt><trkpt lat="46.0720021" lon="12.7636039"><ele>139.0</ele><time>2026-04-04T09:55:46.056Z</time></trkpt><trkpt lat="46.0719985" lon="12.7637289"><ele>139.0</ele><time>2026-04-04T09:55:47.057Z</time></trkpt><trkpt lat="46.0720273" lon="12.7638378"><ele>139.0</ele><time>2026-04-04T09:55:48.058Z</time></trkpt><trkpt lat="46.0720769" lon="12.7639191"><ele>139.0</ele><time>2026-04-04T09:55:49.057Z</time></trkpt><trkpt lat="46.0721423" lon="12.7639731"><ele>139.0</ele><time>2026-04-04T09:55:50.058Z</time></trkpt><trkpt lat="46.0722201" lon="12.7639911"><ele>139.0</ele><time>2026-04-04T09:55:51.058Z</time></trkpt><trkpt lat="46.0722963" lon="12.7639679"><ele>139.0</ele><time>2026-04-04T09:55:52.058Z</time></trkpt><trkpt lat="46.0723654" lon="12.7639034"><ele>139.0</ele><time>2026-04-04T09:55:53.056Z</time></trkpt><trkpt lat="46.0724174" lon="12.763812"><ele>139.0</ele><time>2026-04-04T09:55:54.056Z</time></trkpt><trkpt lat="46.0724675" lon="12.7637022"><ele>139.0</ele><time>2026-04-04T09:55:55.057Z</time></trkpt><trkpt lat="46.0725216" lon="12.7635927"><ele>139.0</ele><time>2026-04-04T09:55:56.057Z</time></trkpt><trkpt lat="46.0726012" lon="12.7634893"><ele>139.25</ele><time>2026-04-04T09:55:57.058Z</time></trkpt><trkpt lat="46.0727016" lon="12.7634026"><ele>139.5</ele><time>2026-04-04T09:55:58.057Z</time></trkpt><trkpt lat="46.0728195" lon="12.7633138"><ele>139.75</ele><time>2026-04-04T09:55:59.057Z</time></trkpt><trkpt lat="46.0729583" lon="12.7632253"><ele>140.0</ele><time>2026-04-04T09:56:00.057Z</time></trkpt><trkpt lat="46.0731131" lon="12.763133"><ele>140.0</ele><time>2026-04-04T09:56:01.056Z</time></trkpt><trkpt lat="46.0732828" lon="12.7630435"><ele>140.0</ele><time>2026-04-04T09:56:02.059Z</time></trkpt><trkpt lat="46.0734636" lon="12.7629651"><ele>140.0</ele><time>2026-04-04T09:56:03.056Z</time></trkpt><trkpt lat="46.0736574" lon="12.7628953"><ele>140.0</ele><time>2026-04-04T09:56:04.057Z</time></trkpt><trkpt lat="46.0738561" lon="12.7628407"><ele>140.0</ele><time>2026-04-04T09:56:05.057Z</time></trkpt><trkpt lat="46.0740608" lon="12.7627893"><ele>140.0</ele><time>2026-04-04T09:56:06.056Z</time></trkpt><trkpt lat="46.074255" lon="12.7627595"><ele>140.33333333333331</ele><time>2026-04-04T09:56:07.057Z</time></trkpt><trkpt lat="46.0744517" lon="12.7627398"><ele>140.66666666666666</ele><time>2026-04-04T09:56:08.056Z</time></trkpt><trkpt lat="46.0746349" lon="12.7627316"><ele>141.0</ele><time>2026-04-04T09:56:09.058Z</time></trkpt><trkpt lat="46.0748221" lon="12.7627368"><ele>141.0</ele><time>2026-04-04T09:56:10.057Z</time></trkpt><trkpt lat="46.0750091" lon="12.7627571"><ele>141.0</ele><time>2026-04-04T09:56:11.057Z</time></trkpt><trkpt lat="46.075199" lon="12.7627857"><ele>141.0</ele><time>2026-04-04T09:56:12.058Z</time></trkpt><trkpt lat="46.0753885" lon="12.762826"><ele>141.0</ele><time>2026-04-04T09:56:13.058Z</time></trkpt><trkpt lat="46.075585" lon="12.762877"><ele>141.0</ele><time>2026-04-04T09:56:14.057Z</time></trkpt><trkpt lat="46.0757861" lon="12.7629413"><ele>141.0</ele><time>2026-04-04T09:56:15.056Z</time></trkpt><trkpt lat="46.07599" lon="12.7630174"><ele>141.66666666666666</ele><time>2026-04-04T09:56:16.058Z</time></trkpt><trkpt lat="46.0761948" lon="12.7631096"><ele>142.33333333333331</ele><time>2026-04-04T09:56:17.057Z</time></trkpt><trkpt lat="46.0763941" lon="12.7632164"><ele>143.0</ele><time>2026-04-04T09:56:18.057Z</time></trkpt><trkpt lat="46.0765922" lon="12.7633414"><ele>143.0</ele><time>2026-04-04T09:56:19.057Z</time></trkpt><trkpt lat="46.0767873" lon="12.7634866"><ele>143.0</ele><time>2026-04-04T09:56:20.056Z</time></trkpt><trkpt lat="46.0769778" lon="12.763646"><ele>143.0</ele><time>2026-04-04T09:56:21.058Z</time></trkpt><trkpt lat="46.0771643" lon="12.7638161"><ele>143.0</ele><time>2026-04-04T09:56:22.058Z</time></trkpt><trkpt lat="46.0773443" lon="12.7639927"><ele>143.0</ele><time>2026-04-04T09:56:23.059Z</time></trkpt><trkpt lat="46.0775127" lon="12.7641848"><ele>143.0</ele><time>2026-04-04T09:56:24.057Z</time></trkpt><trkpt lat="46.0776678" lon="12.764376"><ele>143.0</ele><time>2026-04-04T09:56:25.056Z</time></trkpt><trkpt lat="46.0778208" lon="12.7645746"><ele>143.0</ele><time>2026-04-04T09:56:26.057Z</time></trkpt><trkpt lat="46.0779666" lon="12.7647839"><ele>143.0</ele><time>2026-04-04T09:56:27.057Z</time></trkpt><trkpt lat="46.078111" lon="12.7649955"><ele>142.66666666666666</ele><time>2026-04-04T09:56:28.058Z</time></trkpt><trkpt lat="46.0782589" lon="12.7652112"><ele>142.33333333333334</ele><time>2026-04-04T09:56:29.057Z</time></trkpt><trkpt lat="46.0784143" lon="12.765434"><ele>142.0</ele><time>2026-04-04T09:56:30.057Z</time></trkpt><trkpt lat="46.0785715" lon="12.7656645"><ele>141.66666666666669</ele><time>2026-04-04T09:56:31.057Z</time></trkpt><trkpt lat="46.0787307" lon="12.7658916"><ele>141.33333333333334</ele><time>2026-04-04T09:56:32.058Z</time></trkpt><trkpt lat="46.0788895" lon="12.7661224"><ele>141.0</ele><time>2026-04-04T09:56:33.057Z</time></trkpt><trkpt lat="46.0790537" lon="12.7663547"><ele>142.0</ele><time>2026-04-04T09:56:34.056Z</time></trkpt><trkpt lat="46.0792174" lon="12.7665922"><ele>143.0</ele><time>2026-04-04T09:56:35.056Z</time></trkpt><trkpt lat="46.0793833" lon="12.7668293"><ele>142.5</ele><time>2026-04-04T09:56:36.058Z</time></trkpt><trkpt lat="46.079548" lon="12.7670633"><ele>142.0</ele><time>2026-04-04T09:56:37.056Z</time></trkpt><trkpt lat="46.0797104" lon="12.7672985"><ele>142.0</ele><time>2026-04-04T09:56:38.057Z</time></trkpt><trkpt lat="46.0798714" lon="12.7675367"><ele>142.0</ele><time>2026-04-04T09:56:39.059Z</time></trkpt><trkpt lat="46.0800316" lon="12.7677757"><ele>143.0</ele><time>2026-04-04T09:56:40.056Z</time></trkpt><trkpt lat="46.0801969" lon="12.7680045"><ele>144.0</ele><time>2026-04-04T09:56:41.058Z</time></trkpt><trkpt lat="46.080356" lon="12.7682336"><ele>144.0</ele><time>2026-04-04T09:56:42.057Z</time></trkpt><trkpt lat="46.0805163" lon="12.7684668"><ele>144.0</ele><time>2026-04-04T09:56:43.058Z</time></trkpt><trkpt lat="46.080674" lon="12.7686974"><ele>144.0</ele><time>2026-04-04T09:56:44.058Z</time></trkpt><trkpt lat="46.08083" lon="12.7689299"><ele>144.0</ele><time>2026-04-04T09:56:45.057Z</time></trkpt><trkpt lat="46.0809896" lon="12.769161"><ele>144.0</ele><time>2026-04-04T09:56:46.058Z</time></trkpt><trkpt lat="46.0811529" lon="12.7693941"><ele>144.0</ele><time>2026-04-04T09:56:47.058Z</time></trkpt><trkpt lat="46.0813103" lon="12.7696212"><ele>144.0</ele><time>2026-04-04T09:56:48.056Z</time></trkpt><trkpt lat="46.0814593" lon="12.7698381"><ele>144.0</ele><time>2026-04-04T09:56:49.058Z</time></trkpt><trkpt lat="46.0816045" lon="12.7700388"><ele>144.0</ele><time>2026-04-04T09:56:50.057Z</time></trkpt><trkpt lat="46.0817406" lon="12.770229"><ele>143.33333333333334</ele><time>2026-04-04T09:56:51.057Z</time></trkpt><trkpt lat="46.081862" lon="12.7704118"><ele>142.66666666666669</ele><time>2026-04-04T09:56:52.056Z</time></trkpt><trkpt lat="46.081983" lon="12.7705905"><ele>142.0</ele><time>2026-04-04T09:56:53.056Z</time></trkpt><trkpt lat="46.0820985" lon="12.7707529"><ele>142.0</ele><time>2026-04-04T09:56:54.056Z</time></trkpt><trkpt lat="46.0822017" lon="12.7709141"><ele>142.0</ele><time>2026-04-04T09:56:55.057Z</time></trkpt><trkpt lat="46.082294" lon="12.7710667"><ele>142.0</ele><time>2026-04-04T09:56:56.058Z</time></trkpt><trkpt lat="46.0823712" lon="12.7712115"><ele>142.0</ele><time>2026-04-04T09:56:57.056Z</time></trkpt><trkpt lat="46.0824382" lon="12.771335"><ele>142.0</ele><time>2026-04-04T09:56:58.058Z</time></trkpt><trkpt lat="46.0824932" lon="12.7714553"><ele>142.0</ele><time>2026-04-04T09:56:59.056Z</time></trkpt><trkpt lat="46.0825448" lon="12.7715796"><ele>142.0</ele><time>2026-04-04T09:57:00.057Z</time></trkpt><trkpt lat="46.0825763" lon="12.77171"><ele>142.0</ele><time>2026-04-04T09:57:01.057Z</time></trkpt><trkpt lat="46.0825845" lon="12.7718485"><ele>142.0</ele><time>2026-04-04T09:57:02.059Z</time></trkpt><trkpt lat="46.0825942" lon="12.7719843"><ele>142.0</ele><time>2026-04-04T09:57:03.057Z</time></trkpt><trkpt lat="46.082631" lon="12.7721091"><ele>142.0</ele><time>2026-04-04T09:57:04.057Z</time></trkpt><trkpt lat="46.082687" lon="12.7722095"><ele>142.0</ele><time>2026-04-04T09:57:05.057Z</time></trkpt><trkpt lat="46.0827665" lon="12.7722869"><ele>142.0</ele><time>2026-04-04T09:57:06.058Z</time></trkpt><trkpt lat="46.0828602" lon="12.7723466"><ele>142.0</ele><time>2026-04-04T09:57:07.058Z</time></trkpt><trkpt lat="46.0829524" lon="12.772429"><ele>142.0</ele><time>2026-04-04T09:57:08.058Z</time></trkpt><trkpt lat="46.0830486" lon="12.7725427"><ele>142.0</ele><time>2026-04-04T09:57:09.057Z</time></trkpt><trkpt lat="46.0831526" lon="12.7726718"><ele>142.0</ele><time>2026-04-04T09:57:10.058Z</time></trkpt><trkpt lat="46.0832578" lon="12.7728078"><ele>142.0</ele><time>2026-04-04T09:57:11.058Z</time></trkpt><trkpt lat="46.0833774" lon="12.7729575"><ele>142.0</ele><time>2026-04-04T09:57:12.056Z</time></trkpt><trkpt lat="46.0835027" lon="12.7731218"><ele>142.0</ele><time>2026-04-04T09:57:13.057Z</time></trkpt><trkpt lat="46.0836327" lon="12.773299"><ele>142.0</ele><time>2026-04-04T09:57:14.058Z</time></trkpt><trkpt lat="46.0837657" lon="12.7734851"><ele>141.66666666666669</ele><time>2026-04-04T09:57:15.057Z</time></trkpt><trkpt lat="46.0839104" lon="12.7736715"><ele>141.33333333333334</ele><time>2026-04-04T09:57:16.058Z</time></trkpt><trkpt lat="46.084058" lon="12.7738619"><ele>141.0</ele><time>2026-04-04T09:57:17.058Z</time></trkpt><trkpt lat="46.0842064" lon="12.7740586"><ele>141.33333333333334</ele><time>2026-04-04T09:57:18.057Z</time></trkpt><trkpt lat="46.0843585" lon="12.7742634"><ele>141.66666666666669</ele><time>2026-04-04T09:57:19.058Z</time></trkpt><trkpt lat="46.0845139" lon="12.7744711"><ele>142.0</ele><time>2026-04-04T09:57:20.056Z</time></trkpt><trkpt lat="46.0846749" lon="12.7746797"><ele>142.0</ele><time>2026-04-04T09:57:21.059Z</time></trkpt><trkpt lat="46.0848341" lon="12.7748915"><ele>142.0</ele><time>2026-04-04T09:57:22.059Z</time></trkpt><trkpt lat="46.0850012" lon="12.7751013"><ele>142.0</ele><time>2026-04-04T09:57:23.057Z</time></trkpt><trkpt lat="46.0851725" lon="12.7753151"><ele>142.5</ele><time>2026-04-04T09:57:24.058Z</time></trkpt><trkpt lat="46.0853471" lon="12.7755321"><ele>143.0</ele><time>2026-04-04T09:57:25.057Z</time></trkpt><trkpt lat="46.0855269" lon="12.775748"><ele>143.0</ele><time>2026-04-04T09:57:26.057Z</time></trkpt><trkpt lat="46.085714" lon="12.7759618"><ele>143.0</ele><time>2026-04-04T09:57:27.058Z</time></trkpt><trkpt lat="46.0859048" lon="12.7761781"><ele>142.5</ele><time>2026-04-04T09:57:28.057Z</time></trkpt><trkpt lat="46.0861024" lon="12.7763927"><ele>142.0</ele><time>2026-04-04T09:57:29.057Z</time></trkpt><trkpt lat="46.0863012" lon="12.7766103"><ele>142.0</ele><time>2026-04-04T09:57:30.057Z</time></trkpt><trkpt lat="46.0865038" lon="12.7768281"><ele>142.0</ele><time>2026-04-04T09:57:31.057Z</time></trkpt><trkpt lat="46.0867159" lon="12.7770372"><ele>143.0</ele><time>2026-04-04T09:57:32.058Z</time></trkpt><trkpt lat="46.0869317" lon="12.7772437"><ele>144.0</ele><time>2026-04-04T09:57:33.057Z</time></trkpt><trkpt lat="46.0871501" lon="12.7774501"><ele>144.0</ele><time>2026-04-04T09:57:34.059Z</time></trkpt><trkpt lat="46.0873721" lon="12.7776558"><ele>144.0</ele><time>2026-04-04T09:57:35.056Z</time></trkpt><trkpt lat="46.0875927" lon="12.7778592"><ele>145.0</ele><time>2026-04-04T09:57:36.058Z</time></trkpt><trkpt lat="46.0878158" lon="12.7780609"><ele>146.0</ele><time>2026-04-04T09:57:37.057Z</time></trkpt><trkpt lat="46.088037" lon="12.7782644"><ele>146.0</ele><time>2026-04-04T09:57:38.057Z</time></trkpt><trkpt lat="46.0882549" lon="12.7784672"><ele>146.0</ele><time>2026-04-04T09:57:39.058Z</time></trkpt><trkpt lat="46.0884757" lon="12.7786679"><ele>145.0</ele><time>2026-04-04T09:57:40.058Z</time></trkpt><trkpt lat="46.0887007" lon="12.7788665"><ele>144.0</ele><time>2026-04-04T09:57:41.057Z</time></trkpt><trkpt lat="46.0889226" lon="12.7790653"><ele>144.5</ele><time>2026-04-04T09:57:42.057Z</time></trkpt><trkpt lat="46.0891433" lon="12.7792673"><ele>145.0</ele><time>2026-04-04T09:57:43.057Z</time></trkpt><trkpt lat="46.0893638" lon="12.7794681"><ele>145.0</ele><time>2026-04-04T09:57:44.057Z</time></trkpt><trkpt lat="46.0895815" lon="12.7796685"><ele>145.0</ele><time>2026-04-04T09:57:45.057Z</time></trkpt><trkpt lat="46.0898001" lon="12.7798647"><ele>144.0</ele><time>2026-04-04T09:57:46.057Z</time></trkpt><trkpt lat="46.0900166" lon="12.7800641"><ele>143.0</ele><time>2026-04-04T09:57:47.057Z</time></trkpt><trkpt lat="46.0902315" lon="12.7802659"><ele>142.5</ele><time>2026-04-04T09:57:48.057Z</time></trkpt><trkpt lat="46.0904465" lon="12.7804699"><ele>142.0</ele><time>2026-04-04T09:57:49.058Z</time></trkpt><trkpt lat="46.0906639" lon="12.7806659"><ele>142.0</ele><time>2026-04-04T09:57:50.057Z</time></trkpt><trkpt lat="46.0908716" lon="12.7808579"><ele>142.0</ele><time>2026-04-04T09:57:51.058Z</time></trkpt><trkpt lat="46.0910692" lon="12.7810364"><ele>142.0</ele><time>2026-04-04T09:57:52.058Z</time></trkpt><trkpt lat="46.0912608" lon="12.7812099"><ele>142.0</ele><time>2026-04-04T09:57:53.058Z</time></trkpt><trkpt lat="46.0914448" lon="12.7813836"><ele>142.0</ele><time>2026-04-04T09:57:54.057Z</time></trkpt><trkpt lat="46.0916286" lon="12.7815568"><ele>142.33333333333334</ele><time>2026-04-04T09:57:55.058Z</time></trkpt><trkpt lat="46.0918087" lon="12.7817376"><ele>142.66666666666666</ele><time>2026-04-04T09:57:56.057Z</time></trkpt><trkpt lat="46.0919841" lon="12.781929"><ele>143.0</ele><time>2026-04-04T09:57:57.057Z</time></trkpt><trkpt lat="46.0921581" lon="12.7821364"><ele>143.5</ele><time>2026-04-04T09:57:58.056Z</time></trkpt><trkpt lat="46.092332" lon="12.7823632"><ele>144.0</ele><time>2026-04-04T09:57:59.058Z</time></trkpt><trkpt lat="46.0924948" lon="12.7826171"><ele>145.0</ele><time>2026-04-04T09:58:00.057Z</time></trkpt><trkpt lat="46.092656" lon="12.7828771"><ele>146.0</ele><time>2026-04-04T09:58:01.058Z</time></trkpt><trkpt lat="46.0928066" lon="12.7831536"><ele>146.0</ele><time>2026-04-04T09:58:02.057Z</time></trkpt><trkpt lat="46.0929458" lon="12.783446"><ele>146.0</ele><time>2026-04-04T09:58:03.057Z</time></trkpt><trkpt lat="46.0930723" lon="12.7837616"><ele>145.5</ele><time>2026-04-04T09:58:04.058Z</time></trkpt><trkpt lat="46.093187" lon="12.7840876"><ele>145.0</ele><time>2026-04-04T09:58:05.057Z</time></trkpt><trkpt lat="46.0932919" lon="12.7844258"><ele>146.0</ele><time>2026-04-04T09:58:06.058Z</time></trkpt><trkpt lat="46.0933849" lon="12.7847648"><ele>147.0</ele><time>2026-04-04T09:58:07.058Z</time></trkpt><trkpt lat="46.0934674" lon="12.7851017"><ele>146.5</ele><time>2026-04-04T09:58:08.056Z</time></trkpt><trkpt lat="46.0935395" lon="12.7854289"><ele>146.0</ele><time>2026-04-04T09:58:09.057Z</time></trkpt><trkpt lat="46.0935989" lon="12.7857395"><ele>145.66666666666666</ele><time>2026-04-04T09:58:10.057Z</time></trkpt><trkpt lat="46.0936567" lon="12.7860422"><ele>145.33333333333334</ele><time>2026-04-04T09:58:11.057Z</time></trkpt><trkpt lat="46.0937054" lon="12.7863145"><ele>145.0</ele><time>2026-04-04T09:58:12.058Z</time></trkpt><trkpt lat="46.0937561" lon="12.7865749"><ele>145.0</ele><time>2026-04-04T09:58:13.058Z</time></trkpt><trkpt lat="46.0938011" lon="12.7868251"><ele>145.0</ele><time>2026-04-04T09:58:14.058Z</time></trkpt><trkpt lat="46.0938474" lon="12.7870536"><ele>145.0</ele><time>2026-04-04T09:58:15.057Z</time></trkpt><trkpt lat="46.0938866" lon="12.787283"><ele>145.0</ele><time>2026-04-04T09:58:16.058Z</time></trkpt><trkpt lat="46.0939324" lon="12.787504"><ele>145.0</ele><time>2026-04-04T09:58:17.058Z</time></trkpt><trkpt lat="46.0939791" lon="12.7877325"><ele>145.0</ele><time>2026-04-04T09:58:18.058Z</time></trkpt><trkpt lat="46.0940229" lon="12.7879504"><ele>144.75</ele><time>2026-04-04T09:58:19.057Z</time></trkpt><trkpt lat="46.094067" lon="12.7881599"><ele>144.5</ele><time>2026-04-04T09:58:20.057Z</time></trkpt><trkpt lat="46.0941055" lon="12.7883636"><ele>144.25</ele><time>2026-04-04T09:58:21.057Z</time></trkpt><trkpt lat="46.0941418" lon="12.7885542"><ele>144.0</ele><time>2026-04-04T09:58:22.058Z</time></trkpt><trkpt lat="46.0941753" lon="12.7887366"><ele>143.75</ele><time>2026-04-04T09:58:23.056Z</time></trkpt><trkpt lat="46.094211" lon="12.7889091"><ele>143.5</ele><time>2026-04-04T09:58:24.057Z</time></trkpt><trkpt lat="46.0942404" lon="12.7890798"><ele>143.25</ele><time>2026-04-04T09:58:25.057Z</time></trkpt><trkpt lat="46.0942625" lon="12.789233"><ele>143.0</ele><time>2026-04-04T09:58:26.058Z</time></trkpt><trkpt lat="46.0942784" lon="12.7893826"><ele>142.8</ele><time>2026-04-04T09:58:27.056Z</time></trkpt><trkpt lat="46.0942896" lon="12.7895306"><ele>142.60000000000002</ele><time>2026-04-04T09:58:28.059Z</time></trkpt><trkpt lat="46.094285" lon="12.7896674"><ele>142.39999999999998</ele><time>2026-04-04T09:58:29.058Z</time></trkpt><trkpt lat="46.0942632" lon="12.7898064"><ele>142.2</ele><time>2026-04-04T09:58:30.058Z</time></trkpt><trkpt lat="46.0942326" lon="12.7899401"><ele>142.0</ele><time>2026-04-04T09:58:31.057Z</time></trkpt><trkpt lat="46.0942203" lon="12.7900555"><ele>141.6</ele><time>2026-04-04T09:58:32.057Z</time></trkpt><trkpt lat="46.0942359" lon="12.7901774"><ele>141.2</ele><time>2026-04-04T09:58:33.056Z</time></trkpt><trkpt lat="46.0942809" lon="12.7902941"><ele>140.8</ele><time>2026-04-04T09:58:34.057Z</time></trkpt><trkpt lat="46.0943549" lon="12.7904007"><ele>140.4</ele><time>2026-04-04T09:58:35.057Z</time></trkpt><trkpt lat="46.0944292" lon="12.7905219"><ele>140.0</ele><time>2026-04-04T09:58:36.058Z</time></trkpt><trkpt lat="46.0944944" lon="12.7906729"><ele>140.0</ele><time>2026-04-04T09:58:37.057Z</time></trkpt><trkpt lat="46.0945504" lon="12.7908546"><ele>140.0</ele><time>2026-04-04T09:58:38.059Z</time></trkpt><trkpt lat="46.094605" lon="12.791048"><ele>140.0</ele><time>2026-04-04T09:58:39.056Z</time></trkpt><trkpt lat="46.0946537" lon="12.7912661"><ele>140.0</ele><time>2026-04-04T09:58:40.057Z</time></trkpt><trkpt lat="46.0946895" lon="12.7914558"><ele>140.0</ele><time>2026-04-04T09:58:41.058Z</time></trkpt><trkpt lat="46.0947057" lon="12.7915985"><ele>140.0</ele><time>2026-04-04T09:58:42.057Z</time></trkpt><trkpt lat="46.09471" lon="12.7916936"><ele>140.0</ele><time>2026-04-04T09:58:43.057Z</time></trkpt><trkpt lat="46.0947126" lon="12.7918164"><ele>140.0</ele><time>2026-04-04T09:58:45.057Z</time></trkpt><trkpt lat="46.0947289" lon="12.7919061"><ele>140.0</ele><time>2026-04-04T09:58:48.058Z</time></trkpt><trkpt lat="46.0947519" lon="12.7920018"><ele>140.0</ele><time>2026-04-04T10:00:03.058Z</time></trkpt><trkpt lat="46.0948104" lon="12.7921806"><ele>140.0</ele><time>2026-04-04T10:00:05.058Z</time></trkpt><trkpt lat="46.0948451" lon="12.7923214"><ele>140.0</ele><time>2026-04-04T10:00:06.059Z</time></trkpt><trkpt lat="46.0948838" lon="12.7924978"><ele>140.0</ele><time>2026-04-04T10:00:07.057Z</time></trkpt><trkpt lat="46.0949195" lon="12.7927314"><ele>140.0</ele><time>2026-04-04T10:00:08.056Z</time></trkpt><trkpt lat="46.094955" lon="12.7929726"><ele>140.0</ele><time>2026-04-04T10:00:09.057Z</time></trkpt><trkpt lat="46.0949813" lon="12.7932359"><ele>140.0</ele><time>2026-04-04T10:00:10.057Z</time></trkpt><trkpt lat="46.0949981" lon="12.7935159"><ele>140.0</ele><time>2026-04-04T10:00:11.058Z</time></trkpt><trkpt lat="46.0950062" lon="12.7938092"><ele>140.0</ele><time>2026-04-04T10:00:12.059Z</time></trkpt><trkpt lat="46.0950119" lon="12.7941203"><ele>140.0</ele><time>2026-04-04T10:00:13.057Z</time></trkpt><trkpt lat="46.0950039" lon="12.7944528"><ele>140.0</ele><time>2026-04-04T10:00:14.059Z</time></trkpt><trkpt lat="46.0949844" lon="12.7948111"><ele>140.0</ele><time>2026-04-04T10:00:15.059Z</time></trkpt><trkpt lat="46.0949498" lon="12.7951876"><ele>140.0</ele><time>2026-04-04T10:00:16.057Z</time></trkpt><trkpt lat="46.0948991" lon="12.7955757"><ele>140.0</ele><time>2026-04-04T10:00:17.057Z</time></trkpt><trkpt lat="46.0948185" lon="12.7959714"><ele>140.0</ele><time>2026-04-04T10:00:18.058Z</time></trkpt><trkpt lat="46.0947215" lon="12.7963621"><ele>139.0</ele><time>2026-04-04T10:00:19.059Z</time></trkpt><trkpt lat="46.0946085" lon="12.7967421"><ele>138.0</ele><time>2026-04-04T10:00:20.057Z</time></trkpt><trkpt lat="46.0944875" lon="12.7971182"><ele>138.0</ele><time>2026-04-04T10:00:21.058Z</time></trkpt><trkpt lat="46.0943533" lon="12.7974909"><ele>138.0</ele><time>2026-04-04T10:00:22.058Z</time></trkpt><trkpt lat="46.0942233" lon="12.7978579"><ele>137.5</ele><time>2026-04-04T10:00:23.057Z</time></trkpt><trkpt lat="46.0940929" lon="12.7982239"><ele>137.0</ele><time>2026-04-04T10:00:24.058Z</time></trkpt><trkpt lat="46.093965" lon="12.7985824"><ele>136.0</ele><time>2026-04-04T10:00:25.058Z</time></trkpt><trkpt lat="46.0938371" lon="12.7989383"><ele>135.0</ele><time>2026-04-04T10:00:26.059Z</time></trkpt><trkpt lat="46.0937096" lon="12.7992883"><ele>135.5</ele><time>2026-04-04T10:00:27.058Z</time></trkpt><trkpt lat="46.093589" lon="12.799636"><ele>136.0</ele><time>2026-04-04T10:00:28.056Z</time></trkpt><trkpt lat="46.0934689" lon="12.7999855"><ele>135.5</ele><time>2026-04-04T10:00:29.058Z</time></trkpt><trkpt lat="46.0933478" lon="12.8003178"><ele>135.0</ele><time>2026-04-04T10:00:30.058Z</time></trkpt><trkpt lat="46.0932375" lon="12.800634"><ele>135.0</ele><time>2026-04-04T10:00:31.058Z</time></trkpt><trkpt lat="46.0931282" lon="12.8009404"><ele>135.0</ele><time>2026-04-04T10:00:32.057Z</time></trkpt><trkpt lat="46.0930263" lon="12.8012376"><ele>134.5</ele><time>2026-04-04T10:00:33.057Z</time></trkpt><trkpt lat="46.0929201" lon="12.8015302"><ele>134.0</ele><time>2026-04-04T10:00:34.058Z</time></trkpt><trkpt lat="46.0928129" lon="12.8018196"><ele>134.0</ele><time>2026-04-04T10:00:35.056Z</time></trkpt><trkpt lat="46.0927119" lon="12.8021109"><ele>134.0</ele><time>2026-04-04T10:00:36.058Z</time></trkpt><trkpt lat="46.09261" lon="12.8024085"><ele>135.0</ele><time>2026-04-04T10:00:37.058Z</time></trkpt><trkpt lat="46.092516" lon="12.802711"><ele>136.0</ele><time>2026-04-04T10:00:38.058Z</time></trkpt><trkpt lat="46.0924264" lon="12.8030169"><ele>135.0</ele><time>2026-04-04T10:00:39.058Z</time></trkpt><trkpt lat="46.0923351" lon="12.8033323"><ele>134.0</ele><time>2026-04-04T10:00:40.057Z</time></trkpt><trkpt lat="46.0922484" lon="12.8036536"><ele>134.0</ele><time>2026-04-04T10:00:41.057Z</time></trkpt><trkpt lat="46.0921632" lon="12.8039872"><ele>134.0</ele><time>2026-04-04T10:00:42.059Z</time></trkpt><trkpt lat="46.0920835" lon="12.8043212"><ele>133.5</ele><time>2026-04-04T10:00:43.058Z</time></trkpt><trkpt lat="46.0920101" lon="12.8046655"><ele>133.0</ele><time>2026-04-04T10:00:44.057Z</time></trkpt><trkpt lat="46.0919359" lon="12.8050094"><ele>133.5</ele><time>2026-04-04T10:00:45.058Z</time></trkpt><trkpt lat="46.0918677" lon="12.8053575"><ele>134.0</ele><time>2026-04-04T10:00:46.058Z</time></trkpt><trkpt lat="46.0918063" lon="12.8057007"><ele>134.0</ele><time>2026-04-04T10:00:47.058Z</time></trkpt><trkpt lat="46.0917521" lon="12.8060442"><ele>134.0</ele><time>2026-04-04T10:00:48.058Z</time></trkpt><trkpt lat="46.0917029" lon="12.8063866"><ele>134.0</ele><time>2026-04-04T10:00:49.057Z</time></trkpt><trkpt lat="46.091659" lon="12.8067371"><ele>134.0</ele><time>2026-04-04T10:00:50.058Z</time></trkpt><trkpt lat="46.0916183" lon="12.8070912"><ele>133.5</ele><time>2026-04-04T10:00:51.058Z</time></trkpt><trkpt lat="46.091587" lon="12.8074475"><ele>133.0</ele><time>2026-04-04T10:00:52.057Z</time></trkpt><trkpt lat="46.0915605" lon="12.8078095"><ele>133.0</ele><time>2026-04-04T10:00:53.058Z</time></trkpt><trkpt lat="46.0915399" lon="12.8081741"><ele>133.0</ele><time>2026-04-04T10:00:54.057Z</time></trkpt><trkpt lat="46.0915233" lon="12.8085332"><ele>132.5</ele><time>2026-04-04T10:00:55.058Z</time></trkpt><trkpt lat="46.091506" lon="12.808894"><ele>132.0</ele><time>2026-04-04T10:00:56.058Z</time></trkpt><trkpt lat="46.0914914" lon="12.8092446"><ele>132.5</ele><time>2026-04-04T10:00:57.057Z</time></trkpt><trkpt lat="46.0914806" lon="12.8095813"><ele>133.0</ele><time>2026-04-04T10:00:58.056Z</time></trkpt><trkpt lat="46.0914788" lon="12.8099155"><ele>133.5</ele><time>2026-04-04T10:00:59.058Z</time></trkpt><trkpt lat="46.091484" lon="12.8102435"><ele>134.0</ele><time>2026-04-04T10:01:00.058Z</time></trkpt><trkpt lat="46.0914998" lon="12.8105706"><ele>134.0</ele><time>2026-04-04T10:01:01.059Z</time></trkpt><trkpt lat="46.0915191" lon="12.8108974"><ele>134.0</ele><time>2026-04-04T10:01:02.058Z</time></trkpt><trkpt lat="46.0915359" lon="12.81122"><ele>133.5</ele><time>2026-04-04T10:01:03.058Z</time></trkpt><trkpt lat="46.0915589" lon="12.8115441"><ele>133.0</ele><time>2026-04-04T10:01:04.056Z</time></trkpt><trkpt lat="46.0915839" lon="12.8118656"><ele>133.0</ele><time>2026-04-04T10:01:05.058Z</time></trkpt><trkpt lat="46.0916177" lon="12.8121851"><ele>133.0</ele><time>2026-04-04T10:01:06.058Z</time></trkpt><trkpt lat="46.0916531" lon="12.8125028"><ele>133.0</ele><time>2026-04-04T10:01:07.058Z</time></trkpt><trkpt lat="46.0916929" lon="12.8128184"><ele>134.5</ele><time>2026-04-04T10:01:08.058Z</time></trkpt><trkpt lat="46.0917356" lon="12.8131391"><ele>136.0</ele><time>2026-04-04T10:01:09.058Z</time></trkpt><trkpt lat="46.0917829" lon="12.8134588"><ele>135.5</ele><time>2026-04-04T10:01:10.059Z</time></trkpt><trkpt lat="46.0918364" lon="12.8137772"><ele>135.0</ele><time>2026-04-04T10:01:11.057Z</time></trkpt><trkpt lat="46.0918952" lon="12.8140948"><ele>135.0</ele><time>2026-04-04T10:01:12.057Z</time></trkpt><trkpt lat="46.0919576" lon="12.8144064"><ele>135.0</ele><time>2026-04-04T10:01:13.058Z</time></trkpt><trkpt lat="46.0920221" lon="12.8147151"><ele>135.0</ele><time>2026-04-04T10:01:14.059Z</time></trkpt><trkpt lat="46.0920942" lon="12.815028"><ele>135.0</ele><time>2026-04-04T10:01:15.058Z</time></trkpt><trkpt lat="46.0921738" lon="12.8153418"><ele>135.0</ele><time>2026-04-04T10:01:16.059Z</time></trkpt><trkpt lat="46.0922567" lon="12.8156498"><ele>135.0</ele><time>2026-04-04T10:01:17.058Z</time></trkpt><trkpt lat="46.0923408" lon="12.815962"><ele>135.0</ele><time>2026-04-04T10:01:18.056Z</time></trkpt><trkpt lat="46.0924264" lon="12.8162715"><ele>136.5</ele><time>2026-04-04T10:01:19.057Z</time></trkpt><trkpt lat="46.0925177" lon="12.8165781"><ele>138.0</ele><time>2026-04-04T10:01:20.057Z</time></trkpt><trkpt lat="46.0926148" lon="12.8168755"><ele>138.5</ele><time>2026-04-04T10:01:21.057Z</time></trkpt><trkpt lat="46.0927129" lon="12.8171787"><ele>139.0</ele><time>2026-04-04T10:01:22.057Z</time></trkpt><trkpt lat="46.0928064" lon="12.8174814"><ele>138.5</ele><time>2026-04-04T10:01:23.057Z</time></trkpt><trkpt lat="46.0929043" lon="12.8177761"><ele>138.0</ele><time>2026-04-04T10:01:24.056Z</time></trkpt><trkpt lat="46.0930064" lon="12.8180744"><ele>138.0</ele><time>2026-04-04T10:01:25.057Z</time></trkpt><trkpt lat="46.0931" lon="12.8183641"><ele>138.0</ele><time>2026-04-04T10:01:26.058Z</time></trkpt><trkpt lat="46.0932049" lon="12.8186544"><ele>138.0</ele><time>2026-04-04T10:01:27.057Z</time></trkpt><trkpt lat="46.0933092" lon="12.8189387"><ele>138.0</ele><time>2026-04-04T10:01:28.058Z</time></trkpt><trkpt lat="46.0934102" lon="12.8192198"><ele>138.0</ele><time>2026-04-04T10:01:29.057Z</time></trkpt><trkpt lat="46.0935104" lon="12.8194979"><ele>138.0</ele><time>2026-04-04T10:01:30.056Z</time></trkpt><trkpt lat="46.0936106" lon="12.819779"><ele>138.33333333333334</ele><time>2026-04-04T10:01:31.058Z</time></trkpt><trkpt lat="46.0937096" lon="12.8200602"><ele>138.66666666666669</ele><time>2026-04-04T10:01:32.059Z</time></trkpt><trkpt lat="46.0938035" lon="12.8203398"><ele>139.0</ele><time>2026-04-04T10:01:33.058Z</time></trkpt><trkpt lat="46.0939039" lon="12.8206314"><ele>139.0</ele><time>2026-04-04T10:01:34.057Z</time></trkpt><trkpt lat="46.0940029" lon="12.8209176"><ele>139.0</ele><time>2026-04-04T10:01:35.06Z</time></trkpt><trkpt lat="46.0941076" lon="12.821202"><ele>139.0</ele><time>2026-04-04T10:01:36.059Z</time></trkpt><trkpt lat="46.0942087" lon="12.8214914"><ele>138.33333333333334</ele><time>2026-04-04T10:01:37.056Z</time></trkpt><trkpt lat="46.0943092" lon="12.8217772"><ele>137.66666666666666</ele><time>2026-04-04T10:01:38.058Z</time></trkpt><trkpt lat="46.0944066" lon="12.8220707"><ele>137.0</ele><time>2026-04-04T10:01:39.058Z</time></trkpt><trkpt lat="46.0945078" lon="12.8223643"><ele>138.0</ele><time>2026-04-04T10:01:40.058Z</time></trkpt><trkpt lat="46.0946085" lon="12.8226606"><ele>139.0</ele><time>2026-04-04T10:01:41.057Z</time></trkpt><trkpt lat="46.094714" lon="12.8229596"><ele>139.0</ele><time>2026-04-04T10:01:42.057Z</time></trkpt><trkpt lat="46.0948182" lon="12.8232617"><ele>139.0</ele><time>2026-04-04T10:01:43.058Z</time></trkpt><trkpt lat="46.0949179" lon="12.8235587"><ele>139.5</ele><time>2026-04-04T10:01:44.057Z</time></trkpt><trkpt lat="46.0950224" lon="12.8238612"><ele>140.0</ele><time>2026-04-04T10:01:45.058Z</time></trkpt><trkpt lat="46.0951252" lon="12.8241526"><ele>140.0</ele><time>2026-04-04T10:01:46.058Z</time></trkpt><trkpt lat="46.0952216" lon="12.8244375"><ele>140.0</ele><time>2026-04-04T10:01:47.058Z</time></trkpt><trkpt lat="46.0953003" lon="12.8247145"><ele>140.0</ele><time>2026-04-04T10:01:48.058Z</time></trkpt><trkpt lat="46.0953574" lon="12.8249966"><ele>140.0</ele><time>2026-04-04T10:01:49.058Z</time></trkpt><trkpt lat="46.0953921" lon="12.82529"><ele>140.0</ele><time>2026-04-04T10:01:50.058Z</time></trkpt><trkpt lat="46.0954038" lon="12.8255807"><ele>140.0</ele><time>2026-04-04T10:01:51.057Z</time></trkpt><trkpt lat="46.0953955" lon="12.8258596"><ele>140.0</ele><time>2026-04-04T10:01:52.058Z</time></trkpt><trkpt lat="46.0953656" lon="12.826115"><ele>140.0</ele><time>2026-04-04T10:01:53.058Z</time></trkpt><trkpt lat="46.0953294" lon="12.8263391"><ele>140.0</ele><time>2026-04-04T10:01:54.058Z</time></trkpt><trkpt lat="46.0952892" lon="12.8265332"><ele>140.0</ele><time>2026-04-04T10:01:55.059Z</time></trkpt><trkpt lat="46.0952591" lon="12.8267004"><ele>140.0</ele><time>2026-04-04T10:01:56.057Z</time></trkpt><trkpt lat="46.0952567" lon="12.8268483"><ele>140.0</ele><time>2026-04-04T10:01:57.058Z</time></trkpt><trkpt lat="46.0952765" lon="12.8269794"><ele>140.0</ele><time>2026-04-04T10:01:58.058Z</time></trkpt><trkpt lat="46.0953223" lon="12.8270887"><ele>140.0</ele><time>2026-04-04T10:01:59.057Z</time></trkpt><trkpt lat="46.0953762" lon="12.8271823"><ele>139.8</ele><time>2026-04-04T10:02:00.058Z</time></trkpt><trkpt lat="46.0954372" lon="12.827265"><ele>139.6</ele><time>2026-04-04T10:02:01.057Z</time></trkpt><trkpt lat="46.0954944" lon="12.8273528"><ele>139.4</ele><time>2026-04-04T10:02:02.058Z</time></trkpt><trkpt lat="46.0955686" lon="12.8274538"><ele>139.2</ele><time>2026-04-04T10:02:03.058Z</time></trkpt><trkpt lat="46.095656" lon="12.8275648"><ele>139.0</ele><time>2026-04-04T10:02:04.057Z</time></trkpt><trkpt lat="46.095762" lon="12.8276699"><ele>138.25</ele><time>2026-04-04T10:02:05.059Z</time></trkpt><trkpt lat="46.0958631" lon="12.8277817"><ele>137.5</ele><time>2026-04-04T10:02:06.058Z</time></trkpt><trkpt lat="46.0959469" lon="12.8279202"><ele>136.75</ele><time>2026-04-04T10:02:07.058Z</time></trkpt><trkpt lat="46.0960104" lon="12.8280929"><ele>136.0</ele><time>2026-04-04T10:02:08.058Z</time></trkpt><trkpt lat="46.0960593" lon="12.8282848"><ele>136.33333333333334</ele><time>2026-04-04T10:02:09.059Z</time></trkpt><trkpt lat="46.0960901" lon="12.8284902"><ele>136.66666666666666</ele><time>2026-04-04T10:02:10.058Z</time></trkpt><trkpt lat="46.0961131" lon="12.8287095"><ele>137.0</ele><time>2026-04-04T10:02:11.057Z</time></trkpt><trkpt lat="46.0961368" lon="12.8289432"><ele>137.0</ele><time>2026-04-04T10:02:12.058Z</time></trkpt><trkpt lat="46.0961647" lon="12.8291848"><ele>137.0</ele><time>2026-04-04T10:02:13.058Z</time></trkpt><trkpt lat="46.0961942" lon="12.8294392"><ele>137.0</ele><time>2026-04-04T10:02:14.058Z</time></trkpt><trkpt lat="46.0962194" lon="12.8296989"><ele>137.0</ele><time>2026-04-04T10:02:15.058Z</time></trkpt><trkpt lat="46.0962501" lon="12.8299627"><ele>137.0</ele><time>2026-04-04T10:02:16.058Z</time></trkpt><trkpt lat="46.0962772" lon="12.8302298"><ele>137.0</ele><time>2026-04-04T10:02:17.058Z</time></trkpt><trkpt lat="46.0963019" lon="12.8304825"><ele>137.0</ele><time>2026-04-04T10:02:18.057Z</time></trkpt><trkpt lat="46.0963271" lon="12.8307186"><ele>137.0</ele><time>2026-04-04T10:02:19.058Z</time></trkpt><trkpt lat="46.0963542" lon="12.8309463"><ele>137.0</ele><time>2026-04-04T10:02:20.058Z</time></trkpt><trkpt lat="46.0963786" lon="12.8311801"><ele>137.0</ele><time>2026-04-04T10:02:21.058Z</time></trkpt><trkpt lat="46.0964034" lon="12.8314218"><ele>137.0</ele><time>2026-04-04T10:02:22.057Z</time></trkpt><trkpt lat="46.0964212" lon="12.8316765"><ele>137.0</ele><time>2026-04-04T10:02:23.057Z</time></trkpt><trkpt lat="46.0964427" lon="12.8319182"><ele>137.0</ele><time>2026-04-04T10:02:24.058Z</time></trkpt><trkpt lat="46.0964532" lon="12.8321309"><ele>137.0</ele><time>2026-04-04T10:02:25.058Z</time></trkpt><trkpt lat="46.0964634" lon="12.8323242"><ele>137.0</ele><time>2026-04-04T10:02:26.058Z</time></trkpt><trkpt lat="46.0964665" lon="12.8325089"><ele>137.0</ele><time>2026-04-04T10:02:27.058Z</time></trkpt><trkpt lat="46.0964722" lon="12.832684"><ele>137.0</ele><time>2026-04-04T10:02:28.058Z</time></trkpt><trkpt lat="46.0964736" lon="12.8328496"><ele>137.0</ele><time>2026-04-04T10:02:29.057Z</time></trkpt><trkpt lat="46.0964713" lon="12.8330019"><ele>137.0</ele><time>2026-04-04T10:02:30.058Z</time></trkpt><trkpt lat="46.0964696" lon="12.8331553"><ele>137.0</ele><time>2026-04-04T10:02:31.057Z</time></trkpt><trkpt lat="46.0964649" lon="12.8333098"><ele>137.0</ele><time>2026-04-04T10:02:32.057Z</time></trkpt><trkpt lat="46.0964663" lon="12.8334725"><ele>137.0</ele><time>2026-04-04T10:02:33.059Z</time></trkpt><trkpt lat="46.0964648" lon="12.833634"><ele>137.0</ele><time>2026-04-04T10:02:34.058Z</time></trkpt><trkpt lat="46.0964651" lon="12.8337909"><ele>137.0</ele><time>2026-04-04T10:02:35.059Z</time></trkpt><trkpt lat="46.0964607" lon="12.8339577"><ele>137.0</ele><time>2026-04-04T10:02:36.058Z</time></trkpt><trkpt lat="46.096461" lon="12.83413"><ele>137.0</ele><time>2026-04-04T10:02:37.057Z</time></trkpt><trkpt lat="46.0964649" lon="12.8342946"><ele>137.0</ele><time>2026-04-04T10:02:38.058Z</time></trkpt><trkpt lat="46.0964685" lon="12.8344491"><ele>137.0</ele><time>2026-04-04T10:02:39.058Z</time></trkpt><trkpt lat="46.0964692" lon="12.8345958"><ele>137.0</ele><time>2026-04-04T10:02:40.058Z</time></trkpt><trkpt lat="46.0964688" lon="12.8347495"><ele>137.0</ele><time>2026-04-04T10:02:41.059Z</time></trkpt><trkpt lat="46.0964653" lon="12.8349171"><ele>137.0</ele><time>2026-04-04T10:02:42.057Z</time></trkpt><trkpt lat="46.0964639" lon="12.8350948"><ele>137.0</ele><time>2026-04-04T10:02:43.059Z</time></trkpt><trkpt lat="46.0964622" lon="12.8352801"><ele>137.0</ele><time>2026-04-04T10:02:44.057Z</time></trkpt><trkpt lat="46.0964604" lon="12.8354736"><ele>137.0</ele><time>2026-04-04T10:02:45.058Z</time></trkpt><trkpt lat="46.0964629" lon="12.83567"><ele>136.75</ele><time>2026-04-04T10:02:46.059Z</time></trkpt><trkpt lat="46.0964622" lon="12.8358751"><ele>136.5</ele><time>2026-04-04T10:02:47.059Z</time></trkpt><trkpt lat="46.0964638" lon="12.8360631"><ele>136.25</ele><time>2026-04-04T10:02:48.057Z</time></trkpt><trkpt lat="46.0964647" lon="12.8362247"><ele>136.0</ele><time>2026-04-04T10:02:49.057Z</time></trkpt><trkpt lat="46.0964686" lon="12.8363746"><ele>135.83333333333334</ele><time>2026-04-04T10:02:50.059Z</time></trkpt><trkpt lat="46.0964682" lon="12.8365109"><ele>135.66666666666669</ele><time>2026-04-04T10:02:51.057Z</time></trkpt><trkpt lat="46.0964679" lon="12.8366363"><ele>135.5</ele><time>2026-04-04T10:02:52.058Z</time></trkpt><trkpt lat="46.0964696" lon="12.8367531"><ele>135.33333333333334</ele><time>2026-04-04T10:02:53.058Z</time></trkpt><trkpt lat="46.0964698" lon="12.8368652"><ele>135.16666666666666</ele><time>2026-04-04T10:02:54.057Z</time></trkpt><trkpt lat="46.096473" lon="12.8369734"><ele>135.0</ele><time>2026-04-04T10:02:55.058Z</time></trkpt><trkpt lat="46.0964784" lon="12.8370789"><ele>135.0</ele><time>2026-04-04T10:02:56.057Z</time></trkpt><trkpt lat="46.0964828" lon="12.8371834"><ele>135.0</ele><time>2026-04-04T10:02:57.058Z</time></trkpt><trkpt lat="46.0964887" lon="12.8373042"><ele>135.0</ele><time>2026-04-04T10:02:58.058Z</time></trkpt><trkpt lat="46.0964985" lon="12.8374302"><ele>135.0</ele><time>2026-04-04T10:02:59.059Z</time></trkpt><trkpt lat="46.0965118" lon="12.8375612"><ele>135.0</ele><time>2026-04-04T10:03:00.058Z</time></trkpt><trkpt lat="46.0965212" lon="12.8376888"><ele>135.0</ele><time>2026-04-04T10:03:01.059Z</time></trkpt><trkpt lat="46.0965327" lon="12.8378134"><ele>135.0</ele><time>2026-04-04T10:03:02.058Z</time></trkpt><trkpt lat="46.0965498" lon="12.8379348"><ele>135.0</ele><time>2026-04-04T10:03:03.058Z</time></trkpt><trkpt lat="46.0965644" lon="12.8380592"><ele>135.0</ele><time>2026-04-04T10:03:04.057Z</time></trkpt><trkpt lat="46.0965824" lon="12.8381872"><ele>135.0</ele><time>2026-04-04T10:03:05.059Z</time></trkpt><trkpt lat="46.0966045" lon="12.8383242"><ele>135.0</ele><time>2026-04-04T10:03:06.058Z</time></trkpt><trkpt lat="46.0966255" lon="12.838476"><ele>135.0</ele><time>2026-04-04T10:03:07.058Z</time></trkpt><trkpt lat="46.0966502" lon="12.8386325"><ele>135.0</ele><time>2026-04-04T10:03:08.058Z</time></trkpt><trkpt lat="46.0966766" lon="12.8387993"><ele>135.0</ele><time>2026-04-04T10:03:09.057Z</time></trkpt><trkpt lat="46.0966972" lon="12.8389544"><ele>135.0</ele><time>2026-04-04T10:03:10.058Z</time></trkpt><trkpt lat="46.0967151" lon="12.8390839"><ele>135.0</ele><time>2026-04-04T10:03:11.058Z</time></trkpt><trkpt lat="46.0967314" lon="12.8391836"><ele>135.16666666666666</ele><time>2026-04-04T10:03:12.058Z</time></trkpt><trkpt lat="46.0967551" lon="12.8393329"><ele>135.33333333333334</ele><time>2026-04-04T10:03:14.058Z</time></trkpt><trkpt lat="46.0967739" lon="12.8394531"><ele>135.5</ele><time>2026-04-04T10:03:16.058Z</time></trkpt><trkpt lat="46.0967914" lon="12.839563"><ele>135.66666666666669</ele><time>2026-04-04T10:03:19.059Z</time></trkpt><trkpt lat="46.096839" lon="12.8396454"><ele>135.83333333333334</ele><time>2026-04-04T10:03:22.058Z</time></trkpt><trkpt lat="46.0969046" lon="12.8396154"><ele>136.0</ele><time>2026-04-04T10:03:25.059Z</time></trkpt><trkpt lat="46.0969679" lon="12.8395969"><ele>136.0</ele><time>2026-04-04T10:03:28.059Z</time></trkpt><trkpt lat="46.0970333" lon="12.839592"><ele>136.0</ele><time>2026-04-04T10:03:31.059Z</time></trkpt><trkpt lat="46.0970317" lon="12.8394832"><ele>136.0</ele><time>2026-04-04T10:03:35.057Z</time></trkpt><trkpt lat="46.0969627" lon="12.8394796"><ele>136.0</ele><time>2026-04-04T10:03:39.057Z</time></trkpt><trkpt lat="46.0968955" lon="12.8395168"><ele>136.0</ele><time>2026-04-04T10:04:19.059Z</time></trkpt><trkpt lat="46.0968283" lon="12.8395003"><ele>136.0</ele><time>2026-04-04T10:04:29.058Z</time></trkpt><trkpt lat="46.0968101" lon="12.839323"><ele>135.75</ele><time>2026-04-04T10:04:31.057Z</time></trkpt><trkpt lat="46.0967887" lon="12.8391918"><ele>135.5</ele><time>2026-04-04T10:04:32.06Z</time></trkpt><trkpt lat="46.0967676" lon="12.8390415"><ele>135.25</ele><time>2026-04-04T10:04:33.059Z</time></trkpt><trkpt lat="46.0967259" lon="12.8388362"><ele>135.0</ele><time>2026-04-04T10:04:34.06Z</time></trkpt><trkpt lat="46.0966932" lon="12.8386124"><ele>134.66666666666666</ele><time>2026-04-04T10:04:35.058Z</time></trkpt><trkpt lat="46.0966573" lon="12.8383661"><ele>134.33333333333331</ele><time>2026-04-04T10:04:36.059Z</time></trkpt><trkpt lat="46.0966256" lon="12.8381045"><ele>134.0</ele><time>2026-04-04T10:04:37.058Z</time></trkpt><trkpt lat="46.0965964" lon="12.8378246"><ele>134.0</ele><time>2026-04-04T10:04:38.058Z</time></trkpt><trkpt lat="46.0965666" lon="12.8375123"><ele>134.0</ele><time>2026-04-04T10:04:39.058Z</time></trkpt><trkpt lat="46.0965378" lon="12.837162"><ele>134.5</ele><time>2026-04-04T10:04:40.058Z</time></trkpt><trkpt lat="46.0965213" lon="12.836775"><ele>135.0</ele><time>2026-04-04T10:04:41.058Z</time></trkpt><trkpt lat="46.0965103" lon="12.8363524"><ele>135.5</ele><time>2026-04-04T10:04:42.058Z</time></trkpt><trkpt lat="46.0965089" lon="12.8359114"><ele>136.0</ele><time>2026-04-04T10:04:43.058Z</time></trkpt><trkpt lat="46.0965094" lon="12.8354722"><ele>136.5</ele><time>2026-04-04T10:04:44.057Z</time></trkpt><trkpt lat="46.0965101" lon="12.835061"><ele>137.0</ele><time>2026-04-04T10:04:45.057Z</time></trkpt><trkpt lat="46.0965151" lon="12.8346738"><ele>137.0</ele><time>2026-04-04T10:04:46.06Z</time></trkpt><trkpt lat="46.0965125" lon="12.8343137"><ele>137.0</ele><time>2026-04-04T10:04:47.058Z</time></trkpt><trkpt lat="46.0965129" lon="12.8339865"><ele>137.0</ele><time>2026-04-04T10:04:48.058Z</time></trkpt><trkpt lat="46.0965141" lon="12.8337132"><ele>137.0</ele><time>2026-04-04T10:04:49.058Z</time></trkpt><trkpt lat="46.0965154" lon="12.8334695"><ele>137.0</ele><time>2026-04-04T10:04:50.059Z</time></trkpt><trkpt lat="46.0965166" lon="12.8332492"><ele>137.0</ele><time>2026-04-04T10:04:51.057Z</time></trkpt><trkpt lat="46.0965164" lon="12.8330537"><ele>137.0</ele><time>2026-04-04T10:04:52.057Z</time></trkpt><trkpt lat="46.0965165" lon="12.8328866"><ele>137.0</ele><time>2026-04-04T10:04:53.058Z</time></trkpt><trkpt lat="46.0965174" lon="12.8327366"><ele>137.0</ele><time>2026-04-04T10:04:54.058Z</time></trkpt><trkpt lat="46.0965136" lon="12.8326122"><ele>137.0</ele><time>2026-04-04T10:04:55.058Z</time></trkpt><trkpt lat="46.09651" lon="12.8325163"><ele>137.0</ele><time>2026-04-04T10:04:56.06Z</time></trkpt><trkpt lat="46.0964813" lon="12.8323729"><ele>137.0</ele><time>2026-04-04T10:04:58.059Z</time></trkpt><trkpt lat="46.0964272" lon="12.8322932"><ele>137.0</ele><time>2026-04-04T10:05:00.059Z</time></trkpt><trkpt lat="46.0963639" lon="12.8323101"><ele>137.0</ele><time>2026-04-04T10:05:02.059Z</time></trkpt><trkpt lat="46.0963061" lon="12.8323909"><ele>137.0</ele><time>2026-04-04T10:05:04.057Z</time></trkpt><trkpt lat="46.0962348" lon="12.8324396"><ele>137.0</ele><time>2026-04-04T10:05:06.059Z</time></trkpt><trkpt lat="46.096176" lon="12.8324866"><ele>137.00000000000003</ele><time>2026-04-04T10:05:08.058Z</time></trkpt><trkpt lat="46.0961253" lon="12.8325856"><ele>137.0</ele><time>2026-04-04T10:05:11.058Z</time></trkpt><trkpt lat="46.0961234" lon="12.8326937"><ele>137.0</ele><time>2026-04-04T10:05:15.058Z</time></trkpt><trkpt lat="46.0961495" lon="12.8327783"><ele>137.0</ele><time>2026-04-04T10:05:33.058Z</time></trkpt><trkpt lat="46.0961664" lon="12.8328944"><ele>137.0</ele><time>2026-04-04T10:06:36.059Z</time></trkpt><trkpt lat="46.096173" lon="12.8329975"><ele>137.00000000000003</ele><time>2026-04-04T10:06:38.057Z</time></trkpt><trkpt lat="46.0961776" lon="12.8330914"><ele>137.0</ele><time>2026-04-04T10:06:40.058Z</time></trkpt><trkpt lat="46.0962" lon="12.8332152"><ele>136.85714285714286</ele><time>2026-04-04T10:06:43.059Z</time></trkpt><trkpt lat="46.0962293" lon="12.8333187"><ele>136.71428571428572</ele><time>2026-04-04T10:06:46.059Z</time></trkpt><trkpt lat="46.09616" lon="12.8333322"><ele>136.57142857142856</ele><time>2026-04-04T10:06:49.059Z</time></trkpt><trkpt lat="46.0961537" lon="12.8332408"><ele>136.42857142857144</ele><time>2026-04-04T10:06:51.058Z</time></trkpt><trkpt lat="46.0961779" lon="12.8331464"><ele>136.28571428571428</ele><time>2026-04-04T10:06:53.059Z</time></trkpt><trkpt lat="46.0961861" lon="12.8330491"><ele>136.14285714285714</ele><time>2026-04-04T10:06:55.057Z</time></trkpt><trkpt lat="46.0961793" lon="12.8329197"><ele>136.0</ele><time>2026-04-04T10:06:58.058Z</time></trkpt><trkpt lat="46.096176" lon="12.8328215"><ele>136.0</ele><time>2026-04-04T10:07:01.058Z</time></trkpt><trkpt lat="46.0961614" lon="12.8327264"><ele>136.0</ele><time>2026-04-04T10:08:11.059Z</time></trkpt><trkpt lat="46.0961285" lon="12.8326417"><ele>136.0</ele><time>2026-04-04T10:08:14.058Z</time></trkpt><trkpt lat="46.0961633" lon="12.8325443"><ele>136.0</ele><time>2026-04-04T10:08:16.059Z</time></trkpt><trkpt lat="46.096218" lon="12.8324943"><ele>136.0</ele><time>2026-04-04T10:08:17.058Z</time></trkpt><trkpt lat="46.0963031" lon="12.8324349"><ele>136.0</ele><time>2026-04-04T10:08:19.058Z</time></trkpt><trkpt lat="46.0963853" lon="12.8323925"><ele>136.0</ele><time>2026-04-04T10:08:21.058Z</time></trkpt><trkpt lat="46.0964493" lon="12.8324051"><ele>136.0</ele><time>2026-04-04T10:08:23.057Z</time></trkpt><trkpt lat="46.0964798" lon="12.832516"><ele>136.0</ele><time>2026-04-04T10:08:25.059Z</time></trkpt><trkpt lat="46.0964847" lon="12.832702"><ele>136.0</ele><time>2026-04-04T10:08:27.058Z</time></trkpt><trkpt lat="46.0964827" lon="12.8328108"><ele>136.0</ele><time>2026-04-04T10:08:28.057Z</time></trkpt><trkpt lat="46.0964847" lon="12.8329303"><ele>136.0</ele><time>2026-04-04T10:08:29.057Z</time></trkpt><trkpt lat="46.0964867" lon="12.8330602"><ele>136.0</ele><time>2026-04-04T10:08:30.057Z</time></trkpt><trkpt lat="46.0964849" lon="12.8332157"><ele>136.0</ele><time>2026-04-04T10:08:31.058Z</time></trkpt><trkpt lat="46.0964846" lon="12.8334014"><ele>136.0</ele><time>2026-04-04T10:08:32.058Z</time></trkpt><trkpt lat="46.0964912" lon="12.833637"><ele>136.0</ele><time>2026-04-04T10:08:33.058Z</time></trkpt><trkpt lat="46.0964934" lon="12.833924"><ele>136.33333333333334</ele><time>2026-04-04T10:08:34.059Z</time></trkpt><trkpt lat="46.0964916" lon="12.8342349"><ele>136.66666666666666</ele><time>2026-04-04T10:08:35.058Z</time></trkpt><trkpt lat="46.0964871" lon="12.8345373"><ele>137.0</ele><time>2026-04-04T10:08:36.059Z</time></trkpt><trkpt lat="46.0964811" lon="12.8348241"><ele>137.0</ele><time>2026-04-04T10:08:37.059Z</time></trkpt><trkpt lat="46.0964761" lon="12.8351276"><ele>137.0</ele><time>2026-04-04T10:08:38.058Z</time></trkpt><trkpt lat="46.0964702" lon="12.8354584"><ele>137.0</ele><time>2026-04-04T10:08:39.059Z</time></trkpt><trkpt lat="46.0964676" lon="12.8358069"><ele>136.0</ele><time>2026-04-04T10:08:40.058Z</time></trkpt><trkpt lat="46.0964706" lon="12.8361648"><ele>135.0</ele><time>2026-04-04T10:08:41.058Z</time></trkpt><trkpt lat="46.0964766" lon="12.8365254"><ele>134.5</ele><time>2026-04-04T10:08:42.058Z</time></trkpt><trkpt lat="46.0964854" lon="12.8368876"><ele>134.0</ele><time>2026-04-04T10:08:43.059Z</time></trkpt><trkpt lat="46.0965041" lon="12.8372479"><ele>134.0</ele><time>2026-04-04T10:08:44.058Z</time></trkpt><trkpt lat="46.0965311" lon="12.8376051"><ele>134.0</ele><time>2026-04-04T10:08:45.058Z</time></trkpt><trkpt lat="46.0965656" lon="12.8379604"><ele>134.0</ele><time>2026-04-04T10:08:46.059Z</time></trkpt><trkpt lat="46.0966034" lon="12.8383021"><ele>134.0</ele><time>2026-04-04T10:08:47.058Z</time></trkpt><trkpt lat="46.0966521" lon="12.8386426"><ele>134.5</ele><time>2026-04-04T10:08:48.057Z</time></trkpt><trkpt lat="46.096701" lon="12.8389761"><ele>135.0</ele><time>2026-04-04T10:08:49.058Z</time></trkpt><trkpt lat="46.0967482" lon="12.8392983"><ele>135.0</ele><time>2026-04-04T10:08:50.06Z</time></trkpt><trkpt lat="46.0967942" lon="12.8396125"><ele>135.0</ele><time>2026-04-04T10:08:51.058Z</time></trkpt><trkpt lat="46.0968411" lon="12.8399138"><ele>135.0</ele><time>2026-04-04T10:08:52.059Z</time></trkpt><trkpt lat="46.0968868" lon="12.8402028"><ele>135.0</ele><time>2026-04-04T10:08:53.06Z</time></trkpt><trkpt lat="46.0969275" lon="12.8404904"><ele>135.0</ele><time>2026-04-04T10:08:54.059Z</time></trkpt><trkpt lat="46.0969662" lon="12.8407699"><ele>135.0</ele><time>2026-04-04T10:08:55.059Z</time></trkpt><trkpt lat="46.0970062" lon="12.8410482"><ele>134.66666666666666</ele><time>2026-04-04T10:08:56.059Z</time></trkpt><trkpt lat="46.0970457" lon="12.8413225"><ele>134.33333333333331</ele><time>2026-04-04T10:08:57.058Z</time></trkpt><trkpt lat="46.0970815" lon="12.8415927"><ele>134.0</ele><time>2026-04-04T10:08:58.059Z</time></trkpt><trkpt lat="46.0971178" lon="12.8418594"><ele>134.0</ele><time>2026-04-04T10:08:59.059Z</time></trkpt><trkpt lat="46.0971554" lon="12.8421266"><ele>134.0</ele><time>2026-04-04T10:09:00.06Z</time></trkpt><trkpt lat="46.0971938" lon="12.84239"><ele>134.0</ele><time>2026-04-04T10:09:01.058Z</time></trkpt><trkpt lat="46.0972272" lon="12.842651"><ele>134.33333333333331</ele><time>2026-04-04T10:09:02.059Z</time></trkpt><trkpt lat="46.0972648" lon="12.8429133"><ele>134.66666666666666</ele><time>2026-04-04T10:09:03.059Z</time></trkpt><trkpt lat="46.097303" lon="12.8431732"><ele>135.0</ele><time>2026-04-04T10:09:04.06Z</time></trkpt><trkpt lat="46.0973411" lon="12.8434311"><ele>135.0</ele><time>2026-04-04T10:09:05.057Z</time></trkpt><trkpt lat="46.0973816" lon="12.84369"><ele>135.0</ele><time>2026-04-04T10:09:06.059Z</time></trkpt><trkpt lat="46.0974188" lon="12.8439489"><ele>135.0</ele><time>2026-04-04T10:09:07.058Z</time></trkpt><trkpt lat="46.0974579" lon="12.8442103"><ele>134.33333333333334</ele><time>2026-04-04T10:09:08.059Z</time></trkpt><trkpt lat="46.0975036" lon="12.8444809"><ele>133.66666666666669</ele><time>2026-04-04T10:09:09.058Z</time></trkpt><trkpt lat="46.0975451" lon="12.8447514"><ele>133.0</ele><time>2026-04-04T10:09:10.059Z</time></trkpt><trkpt lat="46.097586" lon="12.8450251"><ele>133.0</ele><time>2026-04-04T10:09:11.058Z</time></trkpt><trkpt lat="46.0976272" lon="12.8453076"><ele>133.0</ele><time>2026-04-04T10:09:12.059Z</time></trkpt><trkpt lat="46.0976692" lon="12.8455908"><ele>133.0</ele><time>2026-04-04T10:09:13.058Z</time></trkpt><trkpt lat="46.0977081" lon="12.8458797"><ele>132.66666666666669</ele><time>2026-04-04T10:09:14.058Z</time></trkpt><trkpt lat="46.0977539" lon="12.8461672"><ele>132.33333333333334</ele><time>2026-04-04T10:09:15.058Z</time></trkpt><trkpt lat="46.0977932" lon="12.8464492"><ele>132.0</ele><time>2026-04-04T10:09:16.058Z</time></trkpt><trkpt lat="46.0978353" lon="12.8467278"><ele>132.66666666666666</ele><time>2026-04-04T10:09:17.059Z</time></trkpt><trkpt lat="46.0978768" lon="12.8470004"><ele>133.33333333333331</ele><time>2026-04-04T10:09:18.059Z</time></trkpt><trkpt lat="46.0979162" lon="12.84727"><ele>134.0</ele><time>2026-04-04T10:09:19.057Z</time></trkpt><trkpt lat="46.0979539" lon="12.8475322"><ele>133.33333333333331</ele><time>2026-04-04T10:09:20.058Z</time></trkpt><trkpt lat="46.0979918" lon="12.8477993"><ele>132.66666666666666</ele><time>2026-04-04T10:09:21.059Z</time></trkpt><trkpt lat="46.0980325" lon="12.8480658"><ele>132.0</ele><time>2026-04-04T10:09:22.058Z</time></trkpt><trkpt lat="46.0980755" lon="12.8483405"><ele>131.33333333333334</ele><time>2026-04-04T10:09:23.057Z</time></trkpt><trkpt lat="46.0981185" lon="12.8486097"><ele>130.66666666666669</ele><time>2026-04-04T10:09:24.057Z</time></trkpt><trkpt lat="46.0981584" lon="12.8488822"><ele>130.0</ele><time>2026-04-04T10:09:25.059Z</time></trkpt><trkpt lat="46.0981973" lon="12.8491611"><ele>129.66666666666669</ele><time>2026-04-04T10:09:26.059Z</time></trkpt><trkpt lat="46.0982351" lon="12.8494362"><ele>129.33333333333334</ele><time>2026-04-04T10:09:27.058Z</time></trkpt><trkpt lat="46.0982755" lon="12.8497078"><ele>129.0</ele><time>2026-04-04T10:09:28.059Z</time></trkpt><trkpt lat="46.0983165" lon="12.8499775"><ele>129.66666666666666</ele><time>2026-04-04T10:09:29.059Z</time></trkpt><trkpt lat="46.0983536" lon="12.8502402"><ele>130.33333333333331</ele><time>2026-04-04T10:09:30.058Z</time></trkpt><trkpt lat="46.0983913" lon="12.8504854"><ele>131.0</ele><time>2026-04-04T10:09:31.059Z</time></trkpt><trkpt lat="46.0984282" lon="12.8507268"><ele>131.0</ele><time>2026-04-04T10:09:32.057Z</time></trkpt><trkpt lat="46.0984599" lon="12.8509619"><ele>131.0</ele><time>2026-04-04T10:09:33.058Z</time></trkpt><trkpt lat="46.098487" lon="12.8511883"><ele>131.0</ele><time>2026-04-04T10:09:34.058Z</time></trkpt><trkpt lat="46.0985159" lon="12.8514113"><ele>131.0</ele><time>2026-04-04T10:09:35.059Z</time></trkpt><trkpt lat="46.0985408" lon="12.8516256"><ele>131.0</ele><time>2026-04-04T10:09:36.057Z</time></trkpt><trkpt lat="46.0985626" lon="12.851853"><ele>131.0</ele><time>2026-04-04T10:09:37.058Z</time></trkpt><trkpt lat="46.0985868" lon="12.8520917"><ele>131.0</ele><time>2026-04-04T10:09:38.057Z</time></trkpt><trkpt lat="46.0986106" lon="12.8523343"><ele>131.0</ele><time>2026-04-04T10:09:39.06Z</time></trkpt><trkpt lat="46.0986315" lon="12.8525765"><ele>131.0</ele><time>2026-04-04T10:09:40.059Z</time></trkpt><trkpt lat="46.098645" lon="12.8528241"><ele>131.0</ele><time>2026-04-04T10:09:41.059Z</time></trkpt><trkpt lat="46.0986557" lon="12.8530775"><ele>131.0</ele><time>2026-04-04T10:09:42.058Z</time></trkpt><trkpt lat="46.0986612" lon="12.8533334"><ele>131.0</ele><time>2026-04-04T10:09:43.058Z</time></trkpt><trkpt lat="46.0986673" lon="12.8535932"><ele>130.33333333333331</ele><time>2026-04-04T10:09:44.059Z</time></trkpt><trkpt lat="46.098672" lon="12.8538598"><ele>129.66666666666666</ele><time>2026-04-04T10:09:45.058Z</time></trkpt><trkpt lat="46.0986754" lon="12.8541382"><ele>129.0</ele><time>2026-04-04T10:09:46.058Z</time></trkpt><trkpt lat="46.0986784" lon="12.8544228"><ele>128.66666666666666</ele><time>2026-04-04T10:09:47.058Z</time></trkpt><trkpt lat="46.0986831" lon="12.8547125"><ele>128.33333333333331</ele><time>2026-04-04T10:09:48.058Z</time></trkpt><trkpt lat="46.098688" lon="12.8550193"><ele>128.0</ele><time>2026-04-04T10:09:49.059Z</time></trkpt><trkpt lat="46.0986958" lon="12.8553378"><ele>128.0</ele><time>2026-04-04T10:09:50.058Z</time></trkpt><trkpt lat="46.0987003" lon="12.8556864"><ele>128.0</ele><time>2026-04-04T10:09:51.057Z</time></trkpt><trkpt lat="46.0987068" lon="12.8560479"><ele>128.0</ele><time>2026-04-04T10:09:52.058Z</time></trkpt><trkpt lat="46.0987135" lon="12.8564002"><ele>128.0</ele><time>2026-04-04T10:09:53.058Z</time></trkpt><trkpt lat="46.0987197" lon="12.8567427"><ele>128.33333333333331</ele><time>2026-04-04T10:09:54.058Z</time></trkpt><trkpt lat="46.0987245" lon="12.857073"><ele>128.66666666666666</ele><time>2026-04-04T10:09:55.059Z</time></trkpt><trkpt lat="46.0987323" lon="12.8573868"><ele>129.0</ele><time>2026-04-04T10:09:56.06Z</time></trkpt><trkpt lat="46.0987331" lon="12.857689"><ele>129.0</ele><time>2026-04-04T10:09:57.059Z</time></trkpt><trkpt lat="46.0987388" lon="12.8579725"><ele>129.0</ele><time>2026-04-04T10:09:58.059Z</time></trkpt><trkpt lat="46.0987433" lon="12.8582492"><ele>129.0</ele><time>2026-04-04T10:09:59.058Z</time></trkpt><trkpt lat="46.0987466" lon="12.8585152"><ele>128.33333333333334</ele><time>2026-04-04T10:10:00.059Z</time></trkpt><trkpt lat="46.0987548" lon="12.8587733"><ele>127.66666666666667</ele><time>2026-04-04T10:10:01.057Z</time></trkpt><trkpt lat="46.0987636" lon="12.8590303"><ele>127.0</ele><time>2026-04-04T10:10:02.059Z</time></trkpt><trkpt lat="46.0987685" lon="12.8592887"><ele>127.0</ele><time>2026-04-04T10:10:03.058Z</time></trkpt><trkpt lat="46.0987726" lon="12.8595458"><ele>127.0</ele><time>2026-04-04T10:10:04.057Z</time></trkpt><trkpt lat="46.0987789" lon="12.8598055"><ele>127.0</ele><time>2026-04-04T10:10:05.059Z</time></trkpt><trkpt lat="46.0987793" lon="12.8600665"><ele>127.0</ele><time>2026-04-04T10:10:06.059Z</time></trkpt><trkpt lat="46.0987818" lon="12.8603306"><ele>127.0</ele><time>2026-04-04T10:10:07.06Z</time></trkpt><trkpt lat="46.0987821" lon="12.8606093"><ele>127.0</ele><time>2026-04-04T10:10:08.059Z</time></trkpt><trkpt lat="46.0987805" lon="12.8608859"><ele>127.0</ele><time>2026-04-04T10:10:09.059Z</time></trkpt><trkpt lat="46.0987727" lon="12.8611658"><ele>127.0</ele><time>2026-04-04T10:10:10.059Z</time></trkpt><trkpt lat="46.0987582" lon="12.8614504"><ele>127.0</ele><time>2026-04-04T10:10:11.059Z</time></trkpt><trkpt lat="46.0987395" lon="12.8617371"><ele>127.33333333333334</ele><time>2026-04-04T10:10:12.058Z</time></trkpt><trkpt lat="46.0987211" lon="12.8620184"><ele>127.66666666666666</ele><time>2026-04-04T10:10:13.058Z</time></trkpt><trkpt lat="46.0987002" lon="12.8622887"><ele>128.0</ele><time>2026-04-04T10:10:14.06Z</time></trkpt><trkpt lat="46.0986669" lon="12.8625466"><ele>127.33333333333333</ele><time>2026-04-04T10:10:15.058Z</time></trkpt><trkpt lat="46.0986413" lon="12.8627939"><ele>126.66666666666666</ele><time>2026-04-04T10:10:16.057Z</time></trkpt><trkpt lat="46.0986134" lon="12.8630275"><ele>126.0</ele><time>2026-04-04T10:10:17.059Z</time></trkpt><trkpt lat="46.09858" lon="12.863255"><ele>125.66666666666666</ele><time>2026-04-04T10:10:18.057Z</time></trkpt><trkpt lat="46.0985436" lon="12.8634803"><ele>125.33333333333333</ele><time>2026-04-04T10:10:19.059Z</time></trkpt><trkpt lat="46.0985047" lon="12.8637184"><ele>125.0</ele><time>2026-04-04T10:10:20.06Z</time></trkpt><trkpt lat="46.0984624" lon="12.8639584"><ele>125.0</ele><time>2026-04-04T10:10:21.058Z</time></trkpt><trkpt lat="46.098418" lon="12.8642019"><ele>125.0</ele><time>2026-04-04T10:10:22.059Z</time></trkpt><trkpt lat="46.0983758" lon="12.8644482"><ele>125.0</ele><time>2026-04-04T10:10:23.059Z</time></trkpt><trkpt lat="46.098331" lon="12.8646951"><ele>124.66666666666666</ele><time>2026-04-04T10:10:24.059Z</time></trkpt><trkpt lat="46.0982799" lon="12.8649506"><ele>124.33333333333334</ele><time>2026-04-04T10:10:25.059Z</time></trkpt><trkpt lat="46.0982342" lon="12.8652198"><ele>124.0</ele><time>2026-04-04T10:10:26.058Z</time></trkpt><trkpt lat="46.0981854" lon="12.865516"><ele>122.5</ele><time>2026-04-04T10:10:27.058Z</time></trkpt><trkpt lat="46.0981385" lon="12.8658352"><ele>121.0</ele><time>2026-04-04T10:10:28.058Z</time></trkpt><trkpt lat="46.0980795" lon="12.8661809"><ele>121.0</ele><time>2026-04-04T10:10:29.06Z</time></trkpt><trkpt lat="46.0980136" lon="12.866533"><ele>121.0</ele><time>2026-04-04T10:10:30.06Z</time></trkpt><trkpt lat="46.097936" lon="12.8668819"><ele>120.5</ele><time>2026-04-04T10:10:31.057Z</time></trkpt><trkpt lat="46.0978569" lon="12.8672361"><ele>120.0</ele><time>2026-04-04T10:10:32.058Z</time></trkpt><trkpt lat="46.0977894" lon="12.8675697"><ele>119.0</ele><time>2026-04-04T10:10:33.057Z</time></trkpt><trkpt lat="46.0977266" lon="12.8679045"><ele>118.0</ele><time>2026-04-04T10:10:34.057Z</time></trkpt><trkpt lat="46.0976591" lon="12.8682278"><ele>119.0</ele><time>2026-04-04T10:10:35.058Z</time></trkpt><trkpt lat="46.0975951" lon="12.8685501"><ele>120.0</ele><time>2026-04-04T10:10:36.058Z</time></trkpt><trkpt lat="46.0975286" lon="12.8688711"><ele>120.0</ele><time>2026-04-04T10:10:37.058Z</time></trkpt><trkpt lat="46.0974608" lon="12.8691986"><ele>120.0</ele><time>2026-04-04T10:10:38.058Z</time></trkpt><trkpt lat="46.0973936" lon="12.8695378"><ele>120.0</ele><time>2026-04-04T10:10:39.057Z</time></trkpt><trkpt lat="46.0973278" lon="12.8698761"><ele>120.0</ele><time>2026-04-04T10:10:40.058Z</time></trkpt><trkpt lat="46.0972639" lon="12.8702132"><ele>120.0</ele><time>2026-04-04T10:10:41.058Z</time></trkpt><trkpt lat="46.0972015" lon="12.8705572"><ele>120.0</ele><time>2026-04-04T10:10:42.058Z</time></trkpt><trkpt lat="46.0971393" lon="12.8708997"><ele>119.0</ele><time>2026-04-04T10:10:43.06Z</time></trkpt><trkpt lat="46.0970799" lon="12.8712397"><ele>118.0</ele><time>2026-04-04T10:10:44.058Z</time></trkpt><trkpt lat="46.0970214" lon="12.8715737"><ele>116.5</ele><time>2026-04-04T10:10:45.058Z</time></trkpt><trkpt lat="46.0969631" lon="12.8719087"><ele>115.0</ele><time>2026-04-04T10:10:46.059Z</time></trkpt><trkpt lat="46.0969037" lon="12.8722374"><ele>115.0</ele><time>2026-04-04T10:10:47.058Z</time></trkpt><trkpt lat="46.0968434" lon="12.8725641"><ele>115.0</ele><time>2026-04-04T10:10:48.058Z</time></trkpt><trkpt lat="46.0967845" lon="12.8728899"><ele>114.5</ele><time>2026-04-04T10:10:49.059Z</time></trkpt><trkpt lat="46.0967246" lon="12.8732177"><ele>114.0</ele><time>2026-04-04T10:10:50.058Z</time></trkpt><trkpt lat="46.0966604" lon="12.8735472"><ele>112.5</ele><time>2026-04-04T10:10:51.058Z</time></trkpt><trkpt lat="46.0966011" lon="12.8738772"><ele>111.0</ele><time>2026-04-04T10:10:52.059Z</time></trkpt><trkpt lat="46.0965388" lon="12.8742131"><ele>111.0</ele><time>2026-04-04T10:10:53.058Z</time></trkpt><trkpt lat="46.0964736" lon="12.8745497"><ele>111.0</ele><time>2026-04-04T10:10:54.058Z</time></trkpt><trkpt lat="46.0964111" lon="12.8748838"><ele>111.5</ele><time>2026-04-04T10:10:55.058Z</time></trkpt><trkpt lat="46.0963446" lon="12.8752213"><ele>112.0</ele><time>2026-04-04T10:10:56.057Z</time></trkpt><trkpt lat="46.0962846" lon="12.8755608"><ele>112.0</ele><time>2026-04-04T10:10:57.058Z</time></trkpt><trkpt lat="46.0962198" lon="12.8759005"><ele>112.0</ele><time>2026-04-04T10:10:58.058Z</time></trkpt><trkpt lat="46.096156" lon="12.8762422"><ele>112.5</ele><time>2026-04-04T10:10:59.059Z</time></trkpt><trkpt lat="46.0960923" lon="12.8765845"><ele>113.0</ele><time>2026-04-04T10:11:00.058Z</time></trkpt><trkpt lat="46.0960289" lon="12.8769296"><ele>113.5</ele><time>2026-04-04T10:11:01.058Z</time></trkpt><trkpt lat="46.0959637" lon="12.8772754"><ele>114.0</ele><time>2026-04-04T10:11:02.057Z</time></trkpt><trkpt lat="46.0958981" lon="12.8776242"><ele>114.5</ele><time>2026-04-04T10:11:03.06Z</time></trkpt><trkpt lat="46.0958297" lon="12.877972"><ele>115.0</ele><time>2026-04-04T10:11:04.058Z</time></trkpt><trkpt lat="46.0957626" lon="12.8783141"><ele>114.0</ele><time>2026-04-04T10:11:05.058Z</time></trkpt><trkpt lat="46.0956967" lon="12.8786559"><ele>113.0</ele><time>2026-04-04T10:11:06.058Z</time></trkpt><trkpt lat="46.0956338" lon="12.8789946"><ele>113.5</ele><time>2026-04-04T10:11:07.059Z</time></trkpt><trkpt lat="46.0955684" lon="12.8793347"><ele>114.0</ele><time>2026-04-04T10:11:08.058Z</time></trkpt><trkpt lat="46.0955034" lon="12.8796733"><ele>114.0</ele><time>2026-04-04T10:11:09.059Z</time></trkpt><trkpt lat="46.09544" lon="12.8800137"><ele>114.0</ele><time>2026-04-04T10:11:10.059Z</time></trkpt><trkpt lat="46.0953797" lon="12.8803462"><ele>113.5</ele><time>2026-04-04T10:11:11.059Z</time></trkpt><trkpt lat="46.0953188" lon="12.8806682"><ele>113.0</ele><time>2026-04-04T10:11:12.058Z</time></trkpt><trkpt lat="46.0952592" lon="12.8809756"><ele>113.66666666666666</ele><time>2026-04-04T10:11:13.058Z</time></trkpt><trkpt lat="46.0952037" lon="12.8812776"><ele>114.33333333333334</ele><time>2026-04-04T10:11:14.059Z</time></trkpt><trkpt lat="46.0951518" lon="12.8815629"><ele>115.0</ele><time>2026-04-04T10:11:15.058Z</time></trkpt><trkpt lat="46.0951046" lon="12.8818167"><ele>114.0</ele><time>2026-04-04T10:11:16.058Z</time></trkpt><trkpt lat="46.0950637" lon="12.8820261"><ele>113.0</ele><time>2026-04-04T10:11:17.059Z</time></trkpt><trkpt lat="46.0950282" lon="12.8821937"><ele>112.0</ele><time>2026-04-04T10:11:18.057Z</time></trkpt><trkpt lat="46.094998" lon="12.8823266"><ele>111.0</ele><time>2026-04-04T10:11:19.058Z</time></trkpt><trkpt lat="46.094968" lon="12.8824419"><ele>111.0</ele><time>2026-04-04T10:11:20.059Z</time></trkpt><trkpt lat="46.0949283" lon="12.8825416"><ele>111.0</ele><time>2026-04-04T10:11:21.058Z</time></trkpt><trkpt lat="46.0948761" lon="12.8826283"><ele>111.0</ele><time>2026-04-04T10:11:22.059Z</time></trkpt><trkpt lat="46.0948111" lon="12.8826994"><ele>111.0</ele><time>2026-04-04T10:11:23.059Z</time></trkpt><trkpt lat="46.0947382" lon="12.8827599"><ele>111.0</ele><time>2026-04-04T10:11:24.059Z</time></trkpt><trkpt lat="46.0946738" lon="12.8828319"><ele>111.0</ele><time>2026-04-04T10:11:25.058Z</time></trkpt><trkpt lat="46.094642" lon="12.8829323"><ele>111.4</ele><time>2026-04-04T10:11:26.059Z</time></trkpt><trkpt lat="46.0946429" lon="12.883036"><ele>111.8</ele><time>2026-04-04T10:11:27.058Z</time></trkpt><trkpt lat="46.0946758" lon="12.8831414"><ele>112.20000000000002</ele><time>2026-04-04T10:11:28.059Z</time></trkpt><trkpt lat="46.0947373" lon="12.8832305"><ele>112.60000000000001</ele><time>2026-04-04T10:11:29.058Z</time></trkpt><trkpt lat="46.0948081" lon="12.8833385"><ele>113.0</ele><time>2026-04-04T10:11:30.058Z</time></trkpt><trkpt lat="46.0948737" lon="12.8834686"><ele>113.5</ele><time>2026-04-04T10:11:31.06Z</time></trkpt><trkpt lat="46.094948" lon="12.883608"><ele>114.0</ele><time>2026-04-04T10:11:32.059Z</time></trkpt><trkpt lat="46.0950427" lon="12.8837525"><ele>114.5</ele><time>2026-04-04T10:11:33.059Z</time></trkpt><trkpt lat="46.095149" lon="12.8839129"><ele>115.0</ele><time>2026-04-04T10:11:34.058Z</time></trkpt><trkpt lat="46.0952585" lon="12.8840797"><ele>115.0</ele><time>2026-04-04T10:11:35.059Z</time></trkpt><trkpt lat="46.0953731" lon="12.8842583"><ele>115.0</ele><time>2026-04-04T10:11:36.059Z</time></trkpt><trkpt lat="46.0954908" lon="12.8844389"><ele>115.0</ele><time>2026-04-04T10:11:37.059Z</time></trkpt><trkpt lat="46.0956137" lon="12.884632"><ele>115.0</ele><time>2026-04-04T10:11:38.06Z</time></trkpt><trkpt lat="46.0957431" lon="12.8848183"><ele>115.0</ele><time>2026-04-04T10:11:39.057Z</time></trkpt><trkpt lat="46.09587" lon="12.8850173"><ele>115.0</ele><time>2026-04-04T10:11:40.057Z</time></trkpt><trkpt lat="46.0960034" lon="12.8852208"><ele>115.66666666666667</ele><time>2026-04-04T10:11:41.059Z</time></trkpt><trkpt lat="46.0961306" lon="12.885425"><ele>116.33333333333334</ele><time>2026-04-04T10:11:42.058Z</time></trkpt><trkpt lat="46.096265" lon="12.8856302"><ele>117.0</ele><time>2026-04-04T10:11:43.06Z</time></trkpt><trkpt lat="46.096403" lon="12.8858331"><ele>117.0</ele><time>2026-04-04T10:11:44.06Z</time></trkpt><trkpt lat="46.0965444" lon="12.8860384"><ele>117.0</ele><time>2026-04-04T10:11:45.059Z</time></trkpt><trkpt lat="46.0966814" lon="12.8862474"><ele>117.0</ele><time>2026-04-04T10:11:46.059Z</time></trkpt><trkpt lat="46.0968167" lon="12.8864576"><ele>117.0</ele><time>2026-04-04T10:11:47.058Z</time></trkpt><trkpt lat="46.0969539" lon="12.8866645"><ele>117.0</ele><time>2026-04-04T10:11:48.059Z</time></trkpt><trkpt lat="46.0970944" lon="12.8868791"><ele>117.0</ele><time>2026-04-04T10:11:49.057Z</time></trkpt><trkpt lat="46.0972358" lon="12.8870917"><ele>117.0</ele><time>2026-04-04T10:11:50.059Z</time></trkpt><trkpt lat="46.0973772" lon="12.8873069"><ele>117.0</ele><time>2026-04-04T10:11:51.058Z</time></trkpt><trkpt lat="46.0975133" lon="12.8875121"><ele>117.0</ele><time>2026-04-04T10:11:52.058Z</time></trkpt><trkpt lat="46.0976652" lon="12.8876987"><ele>116.66666666666666</ele><time>2026-04-04T10:11:53.059Z</time></trkpt><trkpt lat="46.0978338" lon="12.8878727"><ele>116.33333333333333</ele><time>2026-04-04T10:11:54.058Z</time></trkpt><trkpt lat="46.098018" lon="12.8880399"><ele>116.0</ele><time>2026-04-04T10:11:55.059Z</time></trkpt><trkpt lat="46.0982056" lon="12.8882065"><ele>116.0</ele><time>2026-04-04T10:11:56.058Z</time></trkpt><trkpt lat="46.098393" lon="12.8883754"><ele>116.0</ele><time>2026-04-04T10:11:57.059Z</time></trkpt><trkpt lat="46.0985752" lon="12.8885448"><ele>116.0</ele><time>2026-04-04T10:11:58.057Z</time></trkpt><trkpt lat="46.0987474" lon="12.8887062"><ele>116.0</ele><time>2026-04-04T10:11:59.059Z</time></trkpt><trkpt lat="46.0989135" lon="12.8888563"><ele>116.0</ele><time>2026-04-04T10:12:00.058Z</time></trkpt><trkpt lat="46.0990723" lon="12.8890008"><ele>116.0</ele><time>2026-04-04T10:12:01.058Z</time></trkpt><trkpt lat="46.0992274" lon="12.8891408"><ele>116.66666666666666</ele><time>2026-04-04T10:12:02.058Z</time></trkpt><trkpt lat="46.0993858" lon="12.8892874"><ele>117.33333333333334</ele><time>2026-04-04T10:12:03.059Z</time></trkpt><trkpt lat="46.0995351" lon="12.8894437"><ele>118.0</ele><time>2026-04-04T10:12:04.059Z</time></trkpt><trkpt lat="46.0996681" lon="12.8896108"><ele>118.0</ele><time>2026-04-04T10:12:05.06Z</time></trkpt><trkpt lat="46.0997907" lon="12.8897952"><ele>118.0</ele><time>2026-04-04T10:12:06.059Z</time></trkpt><trkpt lat="46.0999047" lon="12.8899877"><ele>118.0</ele><time>2026-04-04T10:12:07.059Z</time></trkpt><trkpt lat="46.1000104" lon="12.8901724"><ele>118.5</ele><time>2026-04-04T10:12:08.058Z</time></trkpt><trkpt lat="46.100108" lon="12.8903405"><ele>119.0</ele><time>2026-04-04T10:12:09.059Z</time></trkpt><trkpt lat="46.1002003" lon="12.890506"><ele>119.5</ele><time>2026-04-04T10:12:10.059Z</time></trkpt><trkpt lat="46.100298" lon="12.8906616"><ele>120.0</ele><time>2026-04-04T10:12:11.058Z</time></trkpt><trkpt lat="46.1003914" lon="12.89082"><ele>120.0</ele><time>2026-04-04T10:12:12.059Z</time></trkpt><trkpt lat="46.100486" lon="12.8909575"><ele>120.0</ele><time>2026-04-04T10:12:13.059Z</time></trkpt><trkpt lat="46.100597" lon="12.8910796"><ele>120.0</ele><time>2026-04-04T10:12:14.058Z</time></trkpt><trkpt lat="46.1007219" lon="12.8911746"><ele>120.0</ele><time>2026-04-04T10:12:15.059Z</time></trkpt><trkpt lat="46.1008643" lon="12.8912485"><ele>120.66666666666666</ele><time>2026-04-04T10:12:16.058Z</time></trkpt><trkpt lat="46.101022" lon="12.8912996"><ele>121.33333333333333</ele><time>2026-04-04T10:12:17.057Z</time></trkpt><trkpt lat="46.1011955" lon="12.8913365"><ele>122.0</ele><time>2026-04-04T10:12:18.058Z</time></trkpt><trkpt lat="46.1013734" lon="12.8913701"><ele>122.0</ele><time>2026-04-04T10:12:19.058Z</time></trkpt><trkpt lat="46.1015397" lon="12.8913955"><ele>122.0</ele><time>2026-04-04T10:12:20.058Z</time></trkpt><trkpt lat="46.1016946" lon="12.8914188"><ele>122.0</ele><time>2026-04-04T10:12:21.058Z</time></trkpt><trkpt lat="46.1018423" lon="12.8914432"><ele>122.0</ele><time>2026-04-04T10:12:22.058Z</time></trkpt><trkpt lat="46.101991" lon="12.8914605"><ele>122.0</ele><time>2026-04-04T10:12:23.058Z</time></trkpt><trkpt lat="46.102142" lon="12.8914687"><ele>122.0</ele><time>2026-04-04T10:12:24.06Z</time></trkpt><trkpt lat="46.1022958" lon="12.8914693"><ele>122.0</ele><time>2026-04-04T10:12:25.058Z</time></trkpt><trkpt lat="46.1024525" lon="12.8914637"><ele>122.0</ele><time>2026-04-04T10:12:26.057Z</time></trkpt><trkpt lat="46.1026134" lon="12.8914588"><ele>122.0</ele><time>2026-04-04T10:12:27.058Z</time></trkpt><trkpt lat="46.1027775" lon="12.8914569"><ele>122.0</ele><time>2026-04-04T10:12:28.059Z</time></trkpt><trkpt lat="46.1029378" lon="12.8914651"><ele>122.0</ele><time>2026-04-04T10:12:29.058Z</time></trkpt><trkpt lat="46.1031011" lon="12.8915056"><ele>122.0</ele><time>2026-04-04T10:12:30.059Z</time></trkpt><trkpt lat="46.10326" lon="12.8915716"><ele>122.33333333333333</ele><time>2026-04-04T10:12:31.059Z</time></trkpt><trkpt lat="46.1034174" lon="12.8916607"><ele>122.66666666666666</ele><time>2026-04-04T10:12:32.059Z</time></trkpt><trkpt lat="46.1035831" lon="12.8917479"><ele>123.0</ele><time>2026-04-04T10:12:33.059Z</time></trkpt><trkpt lat="46.1037557" lon="12.8918281"><ele>123.0</ele><time>2026-04-04T10:12:34.059Z</time></trkpt><trkpt lat="46.1039284" lon="12.8919138"><ele>123.0</ele><time>2026-04-04T10:12:35.058Z</time></trkpt><trkpt lat="46.1040883" lon="12.8919952"><ele>123.0</ele><time>2026-04-04T10:12:36.059Z</time></trkpt><trkpt lat="46.1042446" lon="12.8920718"><ele>123.5</ele><time>2026-04-04T10:12:37.059Z</time></trkpt><trkpt lat="46.1043841" lon="12.8921521"><ele>124.0</ele><time>2026-04-04T10:12:38.059Z</time></trkpt><trkpt lat="46.104508" lon="12.892251"><ele>124.5</ele><time>2026-04-04T10:12:39.059Z</time></trkpt><trkpt lat="46.10463" lon="12.8923657"><ele>125.0</ele><time>2026-04-04T10:12:40.059Z</time></trkpt><trkpt lat="46.1047513" lon="12.8924888"><ele>124.75</ele><time>2026-04-04T10:12:41.058Z</time></trkpt><trkpt lat="46.10486" lon="12.8926125"><ele>124.5</ele><time>2026-04-04T10:12:42.058Z</time></trkpt><trkpt lat="46.104955" lon="12.8927339"><ele>124.25</ele><time>2026-04-04T10:12:43.059Z</time></trkpt><trkpt lat="46.105041" lon="12.8928452"><ele>124.0</ele><time>2026-04-04T10:12:44.058Z</time></trkpt><trkpt lat="46.1051086" lon="12.8929413"><ele>123.85714285714286</ele><time>2026-04-04T10:12:45.059Z</time></trkpt><trkpt lat="46.1051705" lon="12.893029"><ele>123.71428571428572</ele><time>2026-04-04T10:12:46.06Z</time></trkpt><trkpt lat="46.1052231" lon="12.8931083"><ele>123.57142857142858</ele><time>2026-04-04T10:12:47.058Z</time></trkpt><trkpt lat="46.1052573" lon="12.8931971"><ele>123.42857142857144</ele><time>2026-04-04T10:12:48.06Z</time></trkpt><trkpt lat="46.1052759" lon="12.8932873"><ele>123.28571428571429</ele><time>2026-04-04T10:12:49.059Z</time></trkpt><trkpt lat="46.1052883" lon="12.8933842"><ele>123.14285714285717</ele><time>2026-04-04T10:12:50.058Z</time></trkpt><trkpt lat="46.1053035" lon="12.8934901"><ele>123.00000000000001</ele><time>2026-04-04T10:12:51.058Z</time></trkpt><trkpt lat="46.1053204" lon="12.8935972"><ele>123.0</ele><time>2026-04-04T10:12:52.058Z</time></trkpt><trkpt lat="46.1053245" lon="12.8937142"><ele>123.00000000000001</ele><time>2026-04-04T10:12:53.059Z</time></trkpt><trkpt lat="46.1053071" lon="12.8938395"><ele>123.00000000000001</ele><time>2026-04-04T10:12:54.06Z</time></trkpt><trkpt lat="46.1052714" lon="12.8939814"><ele>123.0</ele><time>2026-04-04T10:12:55.059Z</time></trkpt><trkpt lat="46.1052285" lon="12.8941415"><ele>123.0</ele><time>2026-04-04T10:12:56.059Z</time></trkpt><trkpt lat="46.1051834" lon="12.8943176"><ele>123.33333333333334</ele><time>2026-04-04T10:12:57.059Z</time></trkpt><trkpt lat="46.1051243" lon="12.8945148"><ele>123.66666666666667</ele><time>2026-04-04T10:12:58.059Z</time></trkpt><trkpt lat="46.1050577" lon="12.8947334"><ele>124.0</ele><time>2026-04-04T10:12:59.058Z</time></trkpt><trkpt lat="46.1049825" lon="12.8949594"><ele>124.33333333333334</ele><time>2026-04-04T10:13:00.058Z</time></trkpt><trkpt lat="46.1049072" lon="12.8951729"><ele>124.66666666666666</ele><time>2026-04-04T10:13:01.058Z</time></trkpt><trkpt lat="46.1048338" lon="12.8953865"><ele>125.0</ele><time>2026-04-04T10:13:02.059Z</time></trkpt><trkpt lat="46.1047634" lon="12.8955984"><ele>125.0</ele><time>2026-04-04T10:13:03.06Z</time></trkpt><trkpt lat="46.1046901" lon="12.8958026"><ele>125.0</ele><time>2026-04-04T10:13:04.058Z</time></trkpt><trkpt lat="46.1046207" lon="12.8960072"><ele>125.0</ele><time>2026-04-04T10:13:05.06Z</time></trkpt><trkpt lat="46.104553" lon="12.8962164"><ele>124.66666666666666</ele><time>2026-04-04T10:13:06.057Z</time></trkpt><trkpt lat="46.1044834" lon="12.896422"><ele>124.33333333333334</ele><time>2026-04-04T10:13:07.058Z</time></trkpt><trkpt lat="46.1044139" lon="12.896622"><ele>124.0</ele><time>2026-04-04T10:13:08.058Z</time></trkpt><trkpt lat="46.1043512" lon="12.8968132"><ele>124.0</ele><time>2026-04-04T10:13:09.059Z</time></trkpt><trkpt lat="46.1042996" lon="12.8969959"><ele>124.0</ele><time>2026-04-04T10:13:10.058Z</time></trkpt><trkpt lat="46.104252" lon="12.8971744"><ele>124.0</ele><time>2026-04-04T10:13:11.06Z</time></trkpt><trkpt lat="46.1042096" lon="12.8973499"><ele>124.0</ele><time>2026-04-04T10:13:12.058Z</time></trkpt><trkpt lat="46.1041694" lon="12.8975322"><ele>124.0</ele><time>2026-04-04T10:13:13.059Z</time></trkpt><trkpt lat="46.104136" lon="12.8977158"><ele>124.0</ele><time>2026-04-04T10:13:14.06Z</time></trkpt><trkpt lat="46.1041026" lon="12.8978981"><ele>124.0</ele><time>2026-04-04T10:13:15.059Z</time></trkpt><trkpt lat="46.1040737" lon="12.8980802"><ele>124.0</ele><time>2026-04-04T10:13:16.06Z</time></trkpt><trkpt lat="46.1040489" lon="12.8982708"><ele>124.0</ele><time>2026-04-04T10:13:17.059Z</time></trkpt><trkpt lat="46.1040314" lon="12.8984557"><ele>124.0</ele><time>2026-04-04T10:13:18.059Z</time></trkpt><trkpt lat="46.1040231" lon="12.8986405"><ele>124.0</ele><time>2026-04-04T10:13:19.058Z</time></trkpt><trkpt lat="46.1040154" lon="12.8987886"><ele>124.0</ele><time>2026-04-04T10:13:20.058Z</time></trkpt><trkpt lat="46.1040041" lon="12.8989277"><ele>124.0</ele><time>2026-04-04T10:13:21.059Z</time></trkpt><trkpt lat="46.1039979" lon="12.8990615"><ele>124.0</ele><time>2026-04-04T10:13:22.059Z</time></trkpt><trkpt lat="46.1039907" lon="12.8991859"><ele>124.0</ele><time>2026-04-04T10:13:23.059Z</time></trkpt><trkpt lat="46.1039832" lon="12.8993007"><ele>124.0</ele><time>2026-04-04T10:13:24.058Z</time></trkpt><trkpt lat="46.1039753" lon="12.8994146"><ele>124.0</ele><time>2026-04-04T10:13:25.059Z</time></trkpt><trkpt lat="46.1039667" lon="12.8995782"><ele>124.00000000000001</ele><time>2026-04-04T10:13:27.059Z</time></trkpt><trkpt lat="46.1039602" lon="12.8997118"><ele>124.0</ele><time>2026-04-04T10:13:29.059Z</time></trkpt><trkpt lat="46.1039555" lon="12.8998039"><ele>124.0</ele><time>2026-04-04T10:13:31.059Z</time></trkpt><trkpt lat="46.1039455" lon="12.8999199"><ele>124.0</ele><time>2026-04-04T10:14:03.058Z</time></trkpt><trkpt lat="46.1039277" lon="12.9000954"><ele>124.00000000000001</ele><time>2026-04-04T10:14:05.058Z</time></trkpt><trkpt lat="46.1039189" lon="12.9002006"><ele>124.0</ele><time>2026-04-04T10:14:06.059Z</time></trkpt><trkpt lat="46.1039145" lon="12.9003215"><ele>124.0</ele><time>2026-04-04T10:14:07.06Z</time></trkpt><trkpt lat="46.1039079" lon="12.9004424"><ele>124.0</ele><time>2026-04-04T10:14:08.058Z</time></trkpt><trkpt lat="46.1039061" lon="12.9005805"><ele>124.0</ele><time>2026-04-04T10:14:09.059Z</time></trkpt><trkpt lat="46.103899" lon="12.9007188"><ele>124.0</ele><time>2026-04-04T10:14:10.06Z</time></trkpt><trkpt lat="46.103895" lon="12.9008704"><ele>124.0</ele><time>2026-04-04T10:14:11.058Z</time></trkpt><trkpt lat="46.1038888" lon="12.9010161"><ele>124.25</ele><time>2026-04-04T10:14:12.06Z</time></trkpt><trkpt lat="46.1038853" lon="12.9011716"><ele>124.5</ele><time>2026-04-04T10:14:13.059Z</time></trkpt><trkpt lat="46.1038753" lon="12.9013326"><ele>124.75</ele><time>2026-04-04T10:14:14.059Z</time></trkpt><trkpt lat="46.1038727" lon="12.9015045"><ele>125.0</ele><time>2026-04-04T10:14:15.059Z</time></trkpt><trkpt lat="46.10386" lon="12.9016821"><ele>124.8</ele><time>2026-04-04T10:14:16.058Z</time></trkpt><trkpt lat="46.1038535" lon="12.9018529"><ele>124.6</ele><time>2026-04-04T10:14:17.06Z</time></trkpt><trkpt lat="46.1038438" lon="12.9020195"><ele>124.4</ele><time>2026-04-04T10:14:18.058Z</time></trkpt><trkpt lat="46.1038387" lon="12.9021682"><ele>124.2</ele><time>2026-04-04T10:14:19.059Z</time></trkpt><trkpt lat="46.1038321" lon="12.9023225"><ele>124.0</ele><time>2026-04-04T10:14:20.059Z</time></trkpt><trkpt lat="46.1038317" lon="12.9024883"><ele>124.0</ele><time>2026-04-04T10:14:21.059Z</time></trkpt><trkpt lat="46.1038231" lon="12.9026579"><ele>124.0</ele><time>2026-04-04T10:14:22.059Z</time></trkpt><trkpt lat="46.1038174" lon="12.9028341"><ele>124.0</ele><time>2026-04-04T10:14:23.06Z</time></trkpt><trkpt lat="46.1038142" lon="12.9030072"><ele>124.0</ele><time>2026-04-04T10:14:24.059Z</time></trkpt><trkpt lat="46.1038126" lon="12.903181"><ele>124.0</ele><time>2026-04-04T10:14:25.059Z</time></trkpt><trkpt lat="46.1038097" lon="12.9033508"><ele>124.0</ele><time>2026-04-04T10:14:26.059Z</time></trkpt><trkpt lat="46.1038034" lon="12.9035219"><ele>124.0</ele><time>2026-04-04T10:14:27.058Z</time></trkpt><trkpt lat="46.1037929" lon="12.9037336"><ele>124.0</ele><time>2026-04-04T10:14:28.059Z</time></trkpt><trkpt lat="46.1037753" lon="12.9039554"><ele>124.0</ele><time>2026-04-04T10:14:29.059Z</time></trkpt><trkpt lat="46.103744" lon="12.9041723"><ele>124.0</ele><time>2026-04-04T10:14:30.058Z</time></trkpt><trkpt lat="46.103695" lon="12.9043845"><ele>124.0</ele><time>2026-04-04T10:14:31.06Z</time></trkpt><trkpt lat="46.1036296" lon="12.9045884"><ele>124.0</ele><time>2026-04-04T10:14:32.06Z</time></trkpt><trkpt lat="46.1035555" lon="12.9047693"><ele>124.0</ele><time>2026-04-04T10:14:33.058Z</time></trkpt><trkpt lat="46.1034796" lon="12.9049296"><ele>124.0</ele><time>2026-04-04T10:14:34.059Z</time></trkpt><trkpt lat="46.1034004" lon="12.9050693"><ele>124.0</ele><time>2026-04-04T10:14:35.058Z</time></trkpt><trkpt lat="46.1033187" lon="12.9051998"><ele>124.0</ele><time>2026-04-04T10:14:36.059Z</time></trkpt><trkpt lat="46.1032392" lon="12.9053178"><ele>124.0</ele><time>2026-04-04T10:14:37.059Z</time></trkpt><trkpt lat="46.1031658" lon="12.9054216"><ele>124.0</ele><time>2026-04-04T10:14:38.058Z</time></trkpt><trkpt lat="46.1030923" lon="12.905514"><ele>124.0</ele><time>2026-04-04T10:14:39.058Z</time></trkpt><trkpt lat="46.1030259" lon="12.9055986"><ele>124.0</ele><time>2026-04-04T10:14:40.06Z</time></trkpt><trkpt lat="46.1029662" lon="12.9056698"><ele>124.00000000000001</ele><time>2026-04-04T10:14:41.058Z</time></trkpt><trkpt lat="46.1029104" lon="12.9057292"><ele>124.0</ele><time>2026-04-04T10:14:42.06Z</time></trkpt><trkpt lat="46.1028592" lon="12.9057828"><ele>124.0</ele><time>2026-04-04T10:14:43.058Z</time></trkpt><trkpt lat="46.1027818" lon="12.905845"><ele>124.0</ele><time>2026-04-04T10:14:45.059Z</time></trkpt><trkpt lat="46.1027208" lon="12.905891"><ele>124.00000000000001</ele><time>2026-04-04T10:14:47.06Z</time></trkpt><trkpt lat="46.1026344" lon="12.9059288"><ele>124.0</ele><time>2026-04-04T10:14:50.058Z</time></trkpt><trkpt lat="46.1025235" lon="12.9059321"><ele>124.00000000000001</ele><time>2026-04-04T10:14:52.059Z</time></trkpt><trkpt lat="46.1024001" lon="12.9059505"><ele>124.0</ele><time>2026-04-04T10:14:54.058Z</time></trkpt><trkpt lat="46.1023324" lon="12.9059999"><ele>124.0</ele><time>2026-04-04T10:14:55.06Z</time></trkpt><trkpt lat="46.1022712" lon="12.9060775"><ele>124.0</ele><time>2026-04-04T10:14:56.06Z</time></trkpt><trkpt lat="46.1022225" lon="12.9061788"><ele>124.00000000000001</ele><time>2026-04-04T10:14:57.059Z</time></trkpt><trkpt lat="46.10218" lon="12.906269"><ele>124.0</ele><time>2026-04-04T10:14:58.059Z</time></trkpt><trkpt lat="46.102116" lon="12.9063511"><ele>124.0</ele><time>2026-04-04T10:14:59.058Z</time></trkpt><trkpt lat="46.1020384" lon="12.9064147"><ele>124.0</ele><time>2026-04-04T10:15:00.059Z</time></trkpt><trkpt lat="46.1019479" lon="12.9064726"><ele>124.0</ele><time>2026-04-04T10:15:01.06Z</time></trkpt><trkpt lat="46.1018523" lon="12.9065228"><ele>124.0</ele><time>2026-04-04T10:15:02.059Z</time></trkpt><trkpt lat="46.101744" lon="12.9065625"><ele>124.0</ele><time>2026-04-04T10:15:03.058Z</time></trkpt><trkpt lat="46.1016325" lon="12.9065945"><ele>123.5</ele><time>2026-04-04T10:15:04.058Z</time></trkpt><trkpt lat="46.1015116" lon="12.9066203"><ele>123.0</ele><time>2026-04-04T10:15:05.058Z</time></trkpt><trkpt lat="46.1013842" lon="12.9066369"><ele>122.5</ele><time>2026-04-04T10:15:06.06Z</time></trkpt><trkpt lat="46.1012527" lon="12.906652"><ele>122.0</ele><time>2026-04-04T10:15:07.059Z</time></trkpt><trkpt lat="46.1011146" lon="12.9066524"><ele>122.0</ele><time>2026-04-04T10:15:08.059Z</time></trkpt><trkpt lat="46.1009497" lon="12.9066587"><ele>122.0</ele><time>2026-04-04T10:15:09.06Z</time></trkpt><trkpt lat="46.1007607" lon="12.9066543"><ele>122.0</ele><time>2026-04-04T10:15:10.059Z</time></trkpt><trkpt lat="46.100518" lon="12.906621"><ele>121.5</ele><time>2026-04-04T10:15:11.061Z</time></trkpt><trkpt lat="46.1002712" lon="12.9065894"><ele>121.0</ele><time>2026-04-04T10:15:12.06Z</time></trkpt><trkpt lat="46.1000289" lon="12.9065701"><ele>119.5</ele><time>2026-04-04T10:15:13.06Z</time></trkpt><trkpt lat="46.0997905" lon="12.9065689"><ele>118.0</ele><time>2026-04-04T10:15:14.06Z</time></trkpt><trkpt lat="46.0995629" lon="12.906573"><ele>118.0</ele><time>2026-04-04T10:15:15.058Z</time></trkpt><trkpt lat="46.0993371" lon="12.9065783"><ele>118.0</ele><time>2026-04-04T10:15:16.059Z</time></trkpt><trkpt lat="46.0991283" lon="12.9065717"><ele>118.0</ele><time>2026-04-04T10:15:17.059Z</time></trkpt><trkpt lat="46.0989284" lon="12.9065624"><ele>117.0</ele><time>2026-04-04T10:15:18.059Z</time></trkpt><trkpt lat="46.0987075" lon="12.9065469"><ele>116.0</ele><time>2026-04-04T10:15:19.059Z</time></trkpt><trkpt lat="46.0984725" lon="12.9065104"><ele>115.0</ele><time>2026-04-04T10:15:20.058Z</time></trkpt><trkpt lat="46.0982366" lon="12.9064842"><ele>114.0</ele><time>2026-04-04T10:15:21.06Z</time></trkpt><trkpt lat="46.0980033" lon="12.9064817"><ele>114.0</ele><time>2026-04-04T10:15:22.059Z</time></trkpt><trkpt lat="46.0977705" lon="12.9065056"><ele>114.0</ele><time>2026-04-04T10:15:23.06Z</time></trkpt><trkpt lat="46.0975512" lon="12.9065265"><ele>114.66666666666666</ele><time>2026-04-04T10:15:24.058Z</time></trkpt><trkpt lat="46.0973437" lon="12.9065564"><ele>115.33333333333333</ele><time>2026-04-04T10:15:25.06Z</time></trkpt><trkpt lat="46.0971392" lon="12.9066003"><ele>116.0</ele><time>2026-04-04T10:15:26.058Z</time></trkpt><trkpt lat="46.0969493" lon="12.9066558"><ele>116.0</ele><time>2026-04-04T10:15:27.06Z</time></trkpt><trkpt lat="46.0967619" lon="12.9067253"><ele>116.0</ele><time>2026-04-04T10:15:28.059Z</time></trkpt><trkpt lat="46.0965791" lon="12.9068142"><ele>116.0</ele><time>2026-04-04T10:15:29.059Z</time></trkpt><trkpt lat="46.0963987" lon="12.9069296"><ele>115.0</ele><time>2026-04-04T10:15:30.059Z</time></trkpt><trkpt lat="46.0962221" lon="12.9070586"><ele>114.0</ele><time>2026-04-04T10:15:31.058Z</time></trkpt><trkpt lat="46.0960544" lon="12.9072003"><ele>113.0</ele><time>2026-04-04T10:15:32.06Z</time></trkpt><trkpt lat="46.0958934" lon="12.9073487"><ele>113.66666666666666</ele><time>2026-04-04T10:15:33.059Z</time></trkpt><trkpt lat="46.0957363" lon="12.9074869"><ele>114.33333333333334</ele><time>2026-04-04T10:15:34.058Z</time></trkpt><trkpt lat="46.0955907" lon="12.9076103"><ele>115.0</ele><time>2026-04-04T10:15:35.06Z</time></trkpt><trkpt lat="46.0954346" lon="12.9077101"><ele>111.0</ele><time>2026-04-04T10:15:36.059Z</time></trkpt><trkpt lat="46.0952756" lon="12.9077923"><ele>107.0</ele><time>2026-04-04T10:15:37.058Z</time></trkpt><trkpt lat="46.0951113" lon="12.9078685"><ele>103.0</ele><time>2026-04-04T10:15:38.058Z</time></trkpt><trkpt lat="46.0949383" lon="12.9079289"><ele>105.33333333333334</ele><time>2026-04-04T10:15:39.059Z</time></trkpt><trkpt lat="46.0947638" lon="12.9079836"><ele>107.66666666666666</ele><time>2026-04-04T10:15:40.059Z</time></trkpt><trkpt lat="46.0945953" lon="12.9080255"><ele>110.0</ele><time>2026-04-04T10:15:41.059Z</time></trkpt><trkpt lat="46.0944365" lon="12.9080818"><ele>110.0</ele><time>2026-04-04T10:15:42.058Z</time></trkpt><trkpt lat="46.0942772" lon="12.9081477"><ele>110.0</ele><time>2026-04-04T10:15:43.059Z</time></trkpt><trkpt lat="46.0941183" lon="12.9082445"><ele>110.0</ele><time>2026-04-04T10:15:44.06Z</time></trkpt><trkpt lat="46.0939645" lon="12.9083507"><ele>106.66666666666666</ele><time>2026-04-04T10:15:45.06Z</time></trkpt><trkpt lat="46.0938041" lon="12.9084569"><ele>103.33333333333334</ele><time>2026-04-04T10:15:46.06Z</time></trkpt><trkpt lat="46.0936429" lon="12.9085579"><ele>100.0</ele><time>2026-04-04T10:15:47.058Z</time></trkpt><trkpt lat="46.0934837" lon="12.9086409"><ele>100.0</ele><time>2026-04-04T10:15:48.058Z</time></trkpt><trkpt lat="46.0933194" lon="12.9086945"><ele>100.0</ele><time>2026-04-04T10:15:49.06Z</time></trkpt><trkpt lat="46.0931518" lon="12.9087181"><ele>100.0</ele><time>2026-04-04T10:15:50.058Z</time></trkpt><trkpt lat="46.0929777" lon="12.908723"><ele>101.0</ele><time>2026-04-04T10:15:51.06Z</time></trkpt><trkpt lat="46.0928012" lon="12.9087228"><ele>102.0</ele><time>2026-04-04T10:15:52.058Z</time></trkpt><trkpt lat="46.0926272" lon="12.9087191"><ele>103.0</ele><time>2026-04-04T10:15:53.06Z</time></trkpt><trkpt lat="46.0924607" lon="12.9087257"><ele>102.33333333333334</ele><time>2026-04-04T10:15:54.059Z</time></trkpt><trkpt lat="46.0923032" lon="12.9087495"><ele>101.66666666666666</ele><time>2026-04-04T10:15:55.059Z</time></trkpt><trkpt lat="46.0921565" lon="12.9087872"><ele>101.0</ele><time>2026-04-04T10:15:56.058Z</time></trkpt><trkpt lat="46.0920097" lon="12.9088315"><ele>101.0</ele><time>2026-04-04T10:15:57.059Z</time></trkpt><trkpt lat="46.0918713" lon="12.9088855"><ele>101.0</ele><time>2026-04-04T10:15:58.059Z</time></trkpt><trkpt lat="46.0917428" lon="12.9089456"><ele>101.0</ele><time>2026-04-04T10:15:59.06Z</time></trkpt><trkpt lat="46.0916293" lon="12.9090083"><ele>101.0</ele><time>2026-04-04T10:16:00.059Z</time></trkpt><trkpt lat="46.0915179" lon="12.9090774"><ele>100.19999999999999</ele><time>2026-04-04T10:16:01.059Z</time></trkpt><trkpt lat="46.0914128" lon="12.9091485"><ele>99.39999999999999</ele><time>2026-04-04T10:16:02.06Z</time></trkpt><trkpt lat="46.0913204" lon="12.9092229"><ele>98.6</ele><time>2026-04-04T10:16:03.059Z</time></trkpt><trkpt lat="46.0912378" lon="12.9092918"><ele>97.8</ele><time>2026-04-04T10:16:04.058Z</time></trkpt><trkpt lat="46.0911589" lon="12.9093663"><ele>97.0</ele><time>2026-04-04T10:16:05.058Z</time></trkpt><trkpt lat="46.0910805" lon="12.9094481"><ele>97.0</ele><time>2026-04-04T10:16:06.059Z</time></trkpt><trkpt lat="46.0909954" lon="12.9095399"><ele>97.0</ele><time>2026-04-04T10:16:07.058Z</time></trkpt><trkpt lat="46.0909044" lon="12.9096508"><ele>97.0</ele><time>2026-04-04T10:16:08.058Z</time></trkpt><trkpt lat="46.0908039" lon="12.9097713"><ele>97.0</ele><time>2026-04-04T10:16:09.059Z</time></trkpt><trkpt lat="46.0906939" lon="12.909916"><ele>95.33333333333334</ele><time>2026-04-04T10:16:10.059Z</time></trkpt><trkpt lat="46.0905857" lon="12.9100807"><ele>93.66666666666667</ele><time>2026-04-04T10:16:11.059Z</time></trkpt><trkpt lat="46.0904737" lon="12.9102605"><ele>92.0</ele><time>2026-04-04T10:16:12.059Z</time></trkpt><trkpt lat="46.0903732" lon="12.9104605"><ele>92.0</ele><time>2026-04-04T10:16:13.058Z</time></trkpt><trkpt lat="46.0902786" lon="12.9106657"><ele>92.0</ele><time>2026-04-04T10:16:14.059Z</time></trkpt><trkpt lat="46.0901877" lon="12.9109085"><ele>92.0</ele><time>2026-04-04T10:16:15.06Z</time></trkpt><trkpt lat="46.0900973" lon="12.9111908"><ele>92.5</ele><time>2026-04-04T10:16:16.058Z</time></trkpt><trkpt lat="46.0900109" lon="12.9115058"><ele>93.0</ele><time>2026-04-04T10:16:17.059Z</time></trkpt><trkpt lat="46.0899262" lon="12.9118404"><ele>93.5</ele><time>2026-04-04T10:16:18.058Z</time></trkpt><trkpt lat="46.0898461" lon="12.9121736"><ele>94.0</ele><time>2026-04-04T10:16:19.059Z</time></trkpt><trkpt lat="46.0897613" lon="12.9124955"><ele>94.5</ele><time>2026-04-04T10:16:20.058Z</time></trkpt><trkpt lat="46.0896797" lon="12.912809"><ele>95.0</ele><time>2026-04-04T10:16:21.058Z</time></trkpt><trkpt lat="46.0895907" lon="12.913122"><ele>95.0</ele><time>2026-04-04T10:16:22.06Z</time></trkpt><trkpt lat="46.0894985" lon="12.9134366"><ele>95.0</ele><time>2026-04-04T10:16:23.058Z</time></trkpt><trkpt lat="46.0894024" lon="12.9137573"><ele>95.0</ele><time>2026-04-04T10:16:24.06Z</time></trkpt><trkpt lat="46.0893126" lon="12.9140804"><ele>95.0</ele><time>2026-04-04T10:16:25.059Z</time></trkpt><trkpt lat="46.0892241" lon="12.9143998"><ele>95.0</ele><time>2026-04-04T10:16:26.059Z</time></trkpt><trkpt lat="46.0891319" lon="12.9147216"><ele>95.0</ele><time>2026-04-04T10:16:27.059Z</time></trkpt><trkpt lat="46.0890413" lon="12.9150416"><ele>94.0</ele><time>2026-04-04T10:16:28.06Z</time></trkpt><trkpt lat="46.0889465" lon="12.9153608"><ele>93.0</ele><time>2026-04-04T10:16:29.06Z</time></trkpt><trkpt lat="46.0888547" lon="12.9156768"><ele>93.0</ele><time>2026-04-04T10:16:30.059Z</time></trkpt><trkpt lat="46.0887635" lon="12.9159983"><ele>93.0</ele><time>2026-04-04T10:16:31.06Z</time></trkpt><trkpt lat="46.0886728" lon="12.9163167"><ele>93.0</ele><time>2026-04-04T10:16:32.059Z</time></trkpt><trkpt lat="46.0885834" lon="12.9166323"><ele>93.0</ele><time>2026-04-04T10:16:33.059Z</time></trkpt><trkpt lat="46.0884953" lon="12.9169435"><ele>93.66666666666667</ele><time>2026-04-04T10:16:34.06Z</time></trkpt><trkpt lat="46.0884125" lon="12.9172411"><ele>94.33333333333334</ele><time>2026-04-04T10:16:35.059Z</time></trkpt><trkpt lat="46.0883369" lon="12.9175201"><ele>95.0</ele><time>2026-04-04T10:16:36.06Z</time></trkpt><trkpt lat="46.0882605" lon="12.9177846"><ele>95.0</ele><time>2026-04-04T10:16:37.059Z</time></trkpt><trkpt lat="46.0881904" lon="12.9180401"><ele>95.0</ele><time>2026-04-04T10:16:38.06Z</time></trkpt><trkpt lat="46.0881219" lon="12.9182725"><ele>95.0</ele><time>2026-04-04T10:16:39.06Z</time></trkpt><trkpt lat="46.0880582" lon="12.91851"><ele>94.66666666666667</ele><time>2026-04-04T10:16:40.059Z</time></trkpt><trkpt lat="46.0879948" lon="12.9187317"><ele>94.33333333333333</ele><time>2026-04-04T10:16:41.059Z</time></trkpt><trkpt lat="46.0879317" lon="12.9189513"><ele>94.0</ele><time>2026-04-04T10:16:42.06Z</time></trkpt><trkpt lat="46.0878691" lon="12.9191695"><ele>93.33333333333333</ele><time>2026-04-04T10:16:43.058Z</time></trkpt><trkpt lat="46.0878106" lon="12.9193726"><ele>92.66666666666667</ele><time>2026-04-04T10:16:44.059Z</time></trkpt><trkpt lat="46.0877514" lon="12.9195734"><ele>92.0</ele><time>2026-04-04T10:16:45.06Z</time></trkpt><trkpt lat="46.0876913" lon="12.91978"><ele>92.0</ele><time>2026-04-04T10:16:46.059Z</time></trkpt><trkpt lat="46.087633" lon="12.9199889"><ele>92.0</ele><time>2026-04-04T10:16:47.059Z</time></trkpt><trkpt lat="46.0875768" lon="12.9201973"><ele>92.0</ele><time>2026-04-04T10:16:48.058Z</time></trkpt><trkpt lat="46.0875155" lon="12.9203999"><ele>92.0</ele><time>2026-04-04T10:16:49.06Z</time></trkpt><trkpt lat="46.0874557" lon="12.9205994"><ele>92.0</ele><time>2026-04-04T10:16:50.061Z</time></trkpt><trkpt lat="46.0873955" lon="12.9208023"><ele>92.0</ele><time>2026-04-04T10:16:51.06Z</time></trkpt><trkpt lat="46.0873355" lon="12.9210048"><ele>92.33333333333334</ele><time>2026-04-04T10:16:52.059Z</time></trkpt><trkpt lat="46.0872777" lon="12.9212154"><ele>92.66666666666667</ele><time>2026-04-04T10:16:53.06Z</time></trkpt><trkpt lat="46.087219" lon="12.9214253"><ele>93.0</ele><time>2026-04-04T10:16:54.058Z</time></trkpt><trkpt lat="46.0871608" lon="12.9216307"><ele>93.33333333333333</ele><time>2026-04-04T10:16:55.061Z</time></trkpt><trkpt lat="46.0871035" lon="12.9218367"><ele>93.66666666666666</ele><time>2026-04-04T10:16:56.059Z</time></trkpt><trkpt lat="46.0870395" lon="12.9220448"><ele>94.0</ele><time>2026-04-04T10:16:57.06Z</time></trkpt><trkpt lat="46.0869769" lon="12.9222583"><ele>94.0</ele><time>2026-04-04T10:16:58.059Z</time></trkpt><trkpt lat="46.0869144" lon="12.9224732"><ele>94.0</ele><time>2026-04-04T10:16:59.06Z</time></trkpt><trkpt lat="46.0868549" lon="12.922688"><ele>94.0</ele><time>2026-04-04T10:17:00.059Z</time></trkpt><trkpt lat="46.086799" lon="12.922902"><ele>93.66666666666666</ele><time>2026-04-04T10:17:01.059Z</time></trkpt><trkpt lat="46.086738" lon="12.9231139"><ele>93.33333333333333</ele><time>2026-04-04T10:17:02.059Z</time></trkpt><trkpt lat="46.0866806" lon="12.9233345"><ele>93.0</ele><time>2026-04-04T10:17:03.06Z</time></trkpt><trkpt lat="46.0866144" lon="12.9235384"><ele>93.33333333333333</ele><time>2026-04-04T10:17:04.059Z</time></trkpt><trkpt lat="46.0865521" lon="12.923751"><ele>93.66666666666666</ele><time>2026-04-04T10:17:05.06Z</time></trkpt><trkpt lat="46.0864936" lon="12.9239584"><ele>94.0</ele><time>2026-04-04T10:17:06.059Z</time></trkpt><trkpt lat="46.0864312" lon="12.9241751"><ele>93.66666666666666</ele><time>2026-04-04T10:17:07.059Z</time></trkpt><trkpt lat="46.0863691" lon="12.9243886"><ele>93.33333333333333</ele><time>2026-04-04T10:17:08.06Z</time></trkpt><trkpt lat="46.0863041" lon="12.9245981"><ele>93.0</ele><time>2026-04-04T10:17:09.058Z</time></trkpt><trkpt lat="46.0862442" lon="12.92481"><ele>93.0</ele><time>2026-04-04T10:17:10.06Z</time></trkpt><trkpt lat="46.0861813" lon="12.9250198"><ele>93.0</ele><time>2026-04-04T10:17:11.059Z</time></trkpt><trkpt lat="46.0861245" lon="12.925233"><ele>93.0</ele><time>2026-04-04T10:17:12.059Z</time></trkpt><trkpt lat="46.0860676" lon="12.9254406"><ele>92.0</ele><time>2026-04-04T10:17:13.059Z</time></trkpt><trkpt lat="46.0860073" lon="12.9256471"><ele>91.0</ele><time>2026-04-04T10:17:14.058Z</time></trkpt><trkpt lat="46.0859464" lon="12.9258549"><ele>90.0</ele><time>2026-04-04T10:17:15.058Z</time></trkpt><trkpt lat="46.0858905" lon="12.9260631"><ele>90.0</ele><time>2026-04-04T10:17:16.059Z</time></trkpt><trkpt lat="46.0858283" lon="12.9262758"><ele>90.0</ele><time>2026-04-04T10:17:17.058Z</time></trkpt><trkpt lat="46.0857694" lon="12.9264871"><ele>90.0</ele><time>2026-04-04T10:17:18.058Z</time></trkpt><trkpt lat="46.0857068" lon="12.9266981"><ele>90.33333333333333</ele><time>2026-04-04T10:17:19.061Z</time></trkpt><trkpt lat="46.0856478" lon="12.9269115"><ele>90.66666666666666</ele><time>2026-04-04T10:17:20.059Z</time></trkpt><trkpt lat="46.0855891" lon="12.9271263"><ele>91.0</ele><time>2026-04-04T10:17:21.059Z</time></trkpt><trkpt lat="46.0855265" lon="12.9273376"><ele>91.0</ele><time>2026-04-04T10:17:22.059Z</time></trkpt><trkpt lat="46.0854673" lon="12.9275534"><ele>91.0</ele><time>2026-04-04T10:17:23.059Z</time></trkpt><trkpt lat="46.0854053" lon="12.9277671"><ele>91.0</ele><time>2026-04-04T10:17:24.058Z</time></trkpt><trkpt lat="46.085342" lon="12.9279763"><ele>91.0</ele><time>2026-04-04T10:17:25.06Z</time></trkpt><trkpt lat="46.0852831" lon="12.92819"><ele>91.0</ele><time>2026-04-04T10:17:26.059Z</time></trkpt><trkpt lat="46.0852206" lon="12.9284093"><ele>91.0</ele><time>2026-04-04T10:17:27.06Z</time></trkpt><trkpt lat="46.0851588" lon="12.9286264"><ele>91.0</ele><time>2026-04-04T10:17:28.058Z</time></trkpt><trkpt lat="46.0850957" lon="12.9288394"><ele>91.0</ele><time>2026-04-04T10:17:29.06Z</time></trkpt><trkpt lat="46.085033" lon="12.9290608"><ele>91.0</ele><time>2026-04-04T10:17:30.06Z</time></trkpt><trkpt lat="46.0849725" lon="12.9292908"><ele>92.0</ele><time>2026-04-04T10:17:31.059Z</time></trkpt><trkpt lat="46.0849063" lon="12.9295127"><ele>93.0</ele><time>2026-04-04T10:17:32.058Z</time></trkpt><trkpt lat="46.0848428" lon="12.9297352"><ele>94.0</ele><time>2026-04-04T10:17:33.059Z</time></trkpt><trkpt lat="46.084777" lon="12.9299583"><ele>94.33333333333333</ele><time>2026-04-04T10:17:34.061Z</time></trkpt><trkpt lat="46.0847141" lon="12.9301872"><ele>94.66666666666667</ele><time>2026-04-04T10:17:35.059Z</time></trkpt><trkpt lat="46.0846526" lon="12.9304112"><ele>95.0</ele><time>2026-04-04T10:17:36.06Z</time></trkpt><trkpt lat="46.0845901" lon="12.9306338"><ele>95.0</ele><time>2026-04-04T10:17:37.06Z</time></trkpt><trkpt lat="46.0845284" lon="12.9308485"><ele>95.0</ele><time>2026-04-04T10:17:38.058Z</time></trkpt><trkpt lat="46.0844643" lon="12.9310449"><ele>95.0</ele><time>2026-04-04T10:17:39.06Z</time></trkpt><trkpt lat="46.0843972" lon="12.9312312"><ele>95.0</ele><time>2026-04-04T10:17:40.06Z</time></trkpt><trkpt lat="46.0843305" lon="12.93141"><ele>95.0</ele><time>2026-04-04T10:17:41.058Z</time></trkpt><trkpt lat="46.084261" lon="12.9315721"><ele>95.0</ele><time>2026-04-04T10:17:42.059Z</time></trkpt><trkpt lat="46.0841848" lon="12.9317339"><ele>95.0</ele><time>2026-04-04T10:17:43.058Z</time></trkpt><trkpt lat="46.084105" lon="12.9318752"><ele>95.2</ele><time>2026-04-04T10:17:44.059Z</time></trkpt><trkpt lat="46.0840149" lon="12.9319962"><ele>95.4</ele><time>2026-04-04T10:17:45.06Z</time></trkpt><trkpt lat="46.0839302" lon="12.9321059"><ele>95.6</ele><time>2026-04-04T10:17:46.058Z</time></trkpt><trkpt lat="46.0838789" lon="12.9322417"><ele>95.8</ele><time>2026-04-04T10:17:47.058Z</time></trkpt><trkpt lat="46.0838658" lon="12.9323882"><ele>96.0</ele><time>2026-04-04T10:17:48.059Z</time></trkpt><trkpt lat="46.0838838" lon="12.9325595"><ele>95.75</ele><time>2026-04-04T10:17:49.059Z</time></trkpt><trkpt lat="46.0838847" lon="12.9327544"><ele>95.5</ele><time>2026-04-04T10:17:50.06Z</time></trkpt><trkpt lat="46.083878" lon="12.932966"><ele>95.25</ele><time>2026-04-04T10:17:51.06Z</time></trkpt><trkpt lat="46.0838682" lon="12.9331862"><ele>95.0</ele><time>2026-04-04T10:17:52.059Z</time></trkpt><trkpt lat="46.0838541" lon="12.9334158"><ele>95.0</ele><time>2026-04-04T10:17:53.06Z</time></trkpt><trkpt lat="46.0838379" lon="12.9336435"><ele>95.0</ele><time>2026-04-04T10:17:54.06Z</time></trkpt><trkpt lat="46.0838323" lon="12.9338624"><ele>95.0</ele><time>2026-04-04T10:17:55.06Z</time></trkpt><trkpt lat="46.0838386" lon="12.9340751"><ele>96.33333333333334</ele><time>2026-04-04T10:17:56.058Z</time></trkpt><trkpt lat="46.0838619" lon="12.9342929"><ele>97.66666666666667</ele><time>2026-04-04T10:17:57.06Z</time></trkpt><trkpt lat="46.0838983" lon="12.934512"><ele>99.0</ele><time>2026-04-04T10:17:58.06Z</time></trkpt><trkpt lat="46.0839434" lon="12.9347232"><ele>99.0</ele><time>2026-04-04T10:17:59.059Z</time></trkpt><trkpt lat="46.0840052" lon="12.9349189"><ele>99.0</ele><time>2026-04-04T10:18:00.058Z</time></trkpt><trkpt lat="46.08407" lon="12.9350935"><ele>99.0</ele><time>2026-04-04T10:18:01.059Z</time></trkpt><trkpt lat="46.0841369" lon="12.9352476"><ele>99.0</ele><time>2026-04-04T10:18:02.059Z</time></trkpt><trkpt lat="46.0841983" lon="12.9353864"><ele>100.25</ele><time>2026-04-04T10:18:03.061Z</time></trkpt><trkpt lat="46.0842594" lon="12.9355184"><ele>101.5</ele><time>2026-04-04T10:18:04.06Z</time></trkpt><trkpt lat="46.0843261" lon="12.9356504"><ele>102.75</ele><time>2026-04-04T10:18:05.059Z</time></trkpt><trkpt lat="46.0843941" lon="12.9357873"><ele>104.0</ele><time>2026-04-04T10:18:06.059Z</time></trkpt><trkpt lat="46.0844584" lon="12.9359218"><ele>104.99999999999999</ele><time>2026-04-04T10:18:07.06Z</time></trkpt><trkpt lat="46.0845198" lon="12.9360437"><ele>106.0</ele><time>2026-04-04T10:18:08.06Z</time></trkpt><trkpt lat="46.0845714" lon="12.936147"><ele>107.0</ele><time>2026-04-04T10:18:09.059Z</time></trkpt><trkpt lat="46.0846169" lon="12.9362334"><ele>108.0</ele><time>2026-04-04T10:18:10.06Z</time></trkpt><trkpt lat="46.0846581" lon="12.9363176"><ele>108.99999999999999</ele><time>2026-04-04T10:18:11.06Z</time></trkpt><trkpt lat="46.0846971" lon="12.9363938"><ele>110.0</ele><time>2026-04-04T10:18:12.061Z</time></trkpt><trkpt lat="46.0847627" lon="12.9365093"><ele>109.99999999999999</ele><time>2026-04-04T10:18:14.059Z</time></trkpt><trkpt lat="46.0848032" lon="12.9365955"><ele>110.0</ele><time>2026-04-04T10:18:16.059Z</time></trkpt><trkpt lat="46.0848392" lon="12.9366819"><ele>110.0</ele><time>2026-04-04T10:18:19.06Z</time></trkpt><trkpt lat="46.0848753" lon="12.9367769"><ele>110.0</ele><time>2026-04-04T10:18:24.059Z</time></trkpt><trkpt lat="46.0849118" lon="12.9368552"><ele>110.0</ele><time>2026-04-04T10:18:27.061Z</time></trkpt><trkpt lat="46.084946" lon="12.9369572"><ele>109.99999999999999</ele><time>2026-04-04T10:18:30.059Z</time></trkpt><trkpt lat="46.0849596" lon="12.937056"><ele>110.0</ele><time>2026-04-04T10:18:32.06Z</time></trkpt><trkpt lat="46.0849672" lon="12.9371675"><ele>110.6</ele><time>2026-04-04T10:18:34.058Z</time></trkpt><trkpt lat="46.0849715" lon="12.9373072"><ele>111.2</ele><time>2026-04-04T10:18:36.061Z</time></trkpt><trkpt lat="46.0849919" lon="12.9374012"><ele>111.80000000000001</ele><time>2026-04-04T10:18:37.059Z</time></trkpt><trkpt lat="46.084991" lon="12.9374989"><ele>112.4</ele><time>2026-04-04T10:18:38.06Z</time></trkpt><trkpt lat="46.0849985" lon="12.9376839"><ele>113.0</ele><time>2026-04-04T10:18:40.059Z</time></trkpt><trkpt lat="46.0849965" lon="12.9378589"><ele>112.99999999999999</ele><time>2026-04-04T10:18:42.061Z</time></trkpt><trkpt lat="46.0849849" lon="12.9379651"><ele>113.0</ele><time>2026-04-04T10:18:43.059Z</time></trkpt><trkpt lat="46.0849764" lon="12.9380676"><ele>113.0</ele><time>2026-04-04T10:18:44.059Z</time></trkpt><trkpt lat="46.0849479" lon="12.938171"><ele>113.0</ele><time>2026-04-04T10:18:45.059Z</time></trkpt><trkpt lat="46.084924" lon="12.9382691"><ele>112.99999999999999</ele><time>2026-04-04T10:18:46.058Z</time></trkpt><trkpt lat="46.0849076" lon="12.938357"><ele>113.0</ele><time>2026-04-04T10:18:47.061Z</time></trkpt><trkpt lat="46.0848761" lon="12.9385137"><ele>112.66666666666666</ele><time>2026-04-04T10:18:49.06Z</time></trkpt><trkpt lat="46.0848597" lon="12.9386056"><ele>112.33333333333333</ele><time>2026-04-04T10:18:50.058Z</time></trkpt><trkpt lat="46.084842" lon="12.9387006"><ele>112.0</ele><time>2026-04-04T10:18:51.06Z</time></trkpt><trkpt lat="46.0848194" lon="12.9388076"><ele>111.66666666666666</ele><time>2026-04-04T10:18:52.059Z</time></trkpt><trkpt lat="46.0847979" lon="12.9389252"><ele>111.33333333333333</ele><time>2026-04-04T10:18:53.06Z</time></trkpt><trkpt lat="46.0847849" lon="12.9390515"><ele>111.0</ele><time>2026-04-04T10:18:54.059Z</time></trkpt><trkpt lat="46.0847835" lon="12.9391864"><ele>110.6</ele><time>2026-04-04T10:18:55.059Z</time></trkpt><trkpt lat="46.0847885" lon="12.9393249"><ele>110.19999999999999</ele><time>2026-04-04T10:18:56.058Z</time></trkpt><trkpt lat="46.0847932" lon="12.9394624"><ele>109.80000000000001</ele><time>2026-04-04T10:18:57.06Z</time></trkpt><trkpt lat="46.0848064" lon="12.9395968"><ele>109.4</ele><time>2026-04-04T10:18:58.06Z</time></trkpt><trkpt lat="46.0848133" lon="12.9397308"><ele>109.0</ele><time>2026-04-04T10:18:59.06Z</time></trkpt><trkpt lat="46.0848147" lon="12.9398659"><ele>109.00000000000001</ele><time>2026-04-04T10:19:00.06Z</time></trkpt><trkpt lat="46.0848304" lon="12.9399909"><ele>109.0</ele><time>2026-04-04T10:19:01.06Z</time></trkpt><trkpt lat="46.0848456" lon="12.940115"><ele>109.0</ele><time>2026-04-04T10:19:02.059Z</time></trkpt><trkpt lat="46.0848631" lon="12.9402321"><ele>109.0</ele><time>2026-04-04T10:19:03.058Z</time></trkpt><trkpt lat="46.0848864" lon="12.940334"><ele>109.00000000000001</ele><time>2026-04-04T10:19:04.059Z</time></trkpt><trkpt lat="46.0849252" lon="12.9404336"><ele>109.0</ele><time>2026-04-04T10:19:05.059Z</time></trkpt><trkpt lat="46.0849767" lon="12.9405374"><ele>109.6</ele><time>2026-04-04T10:19:06.059Z</time></trkpt><trkpt lat="46.0850315" lon="12.9406438"><ele>110.2</ele><time>2026-04-04T10:19:07.06Z</time></trkpt><trkpt lat="46.0850922" lon="12.9407405"><ele>110.79999999999998</ele><time>2026-04-04T10:19:08.058Z</time></trkpt><trkpt lat="46.0851451" lon="12.9408408"><ele>111.39999999999999</ele><time>2026-04-04T10:19:09.059Z</time></trkpt><trkpt lat="46.085202" lon="12.940942"><ele>112.0</ele><time>2026-04-04T10:19:10.06Z</time></trkpt><trkpt lat="46.0852591" lon="12.9410467"><ele>112.0</ele><time>2026-04-04T10:19:11.06Z</time></trkpt><trkpt lat="46.0853016" lon="12.9411643"><ele>111.99999999999999</ele><time>2026-04-04T10:19:12.06Z</time></trkpt><trkpt lat="46.0853487" lon="12.9412925"><ele>111.99999999999999</ele><time>2026-04-04T10:19:13.059Z</time></trkpt><trkpt lat="46.0853905" lon="12.9414326"><ele>112.0</ele><time>2026-04-04T10:19:14.06Z</time></trkpt><trkpt lat="46.0854263" lon="12.9415753"><ele>112.0</ele><time>2026-04-04T10:19:15.059Z</time></trkpt><trkpt lat="46.085454" lon="12.9417264"><ele>112.0</ele><time>2026-04-04T10:19:16.06Z</time></trkpt><trkpt lat="46.0854758" lon="12.9418689"><ele>111.99999999999999</ele><time>2026-04-04T10:19:17.059Z</time></trkpt><trkpt lat="46.0854955" lon="12.9420042"><ele>111.99999999999999</ele><time>2026-04-04T10:19:18.059Z</time></trkpt><trkpt lat="46.0855159" lon="12.9421352"><ele>112.0</ele><time>2026-04-04T10:19:19.059Z</time></trkpt><trkpt lat="46.085537" lon="12.9422621"><ele>112.0</ele><time>2026-04-04T10:19:20.06Z</time></trkpt><trkpt lat="46.0855566" lon="12.9423798"><ele>112.00000000000001</ele><time>2026-04-04T10:19:21.059Z</time></trkpt><trkpt lat="46.0855713" lon="12.9424879"><ele>112.0</ele><time>2026-04-04T10:19:22.06Z</time></trkpt><trkpt lat="46.0855822" lon="12.9425929"><ele>112.0</ele><time>2026-04-04T10:19:23.058Z</time></trkpt><trkpt lat="46.0855954" lon="12.9426949"><ele>112.0</ele><time>2026-04-04T10:19:24.059Z</time></trkpt><trkpt lat="46.0856081" lon="12.9427942"><ele>112.00000000000001</ele><time>2026-04-04T10:19:25.06Z</time></trkpt><trkpt lat="46.0856196" lon="12.9428899"><ele>112.0</ele><time>2026-04-04T10:19:26.059Z</time></trkpt><trkpt lat="46.0856448" lon="12.9430566"><ele>112.0</ele><time>2026-04-04T10:19:28.06Z</time></trkpt><trkpt lat="46.0856536" lon="12.9431975"><ele>112.0</ele><time>2026-04-04T10:19:30.061Z</time></trkpt><trkpt lat="46.0856668" lon="12.9433613"><ele>112.0</ele><time>2026-04-04T10:19:32.059Z</time></trkpt><trkpt lat="46.0856781" lon="12.9435521"><ele>112.0</ele><time>2026-04-04T10:19:34.059Z</time></trkpt><trkpt lat="46.0856916" lon="12.9437077"><ele>112.0</ele><time>2026-04-04T10:19:35.06Z</time></trkpt><trkpt lat="46.0857025" lon="12.9438688"><ele>112.0</ele><time>2026-04-04T10:19:36.058Z</time></trkpt><trkpt lat="46.0857113" lon="12.9440356"><ele>112.0</ele><time>2026-04-04T10:19:37.059Z</time></trkpt><trkpt lat="46.0857195" lon="12.9442075"><ele>112.0</ele><time>2026-04-04T10:19:38.059Z</time></trkpt><trkpt lat="46.0857281" lon="12.9443764"><ele>112.25</ele><time>2026-04-04T10:19:39.059Z</time></trkpt><trkpt lat="46.0857344" lon="12.9445484"><ele>112.5</ele><time>2026-04-04T10:19:40.06Z</time></trkpt><trkpt lat="46.0857397" lon="12.9447327"><ele>112.75</ele><time>2026-04-04T10:19:41.059Z</time></trkpt><trkpt lat="46.0857463" lon="12.9449239"><ele>113.0</ele><time>2026-04-04T10:19:42.06Z</time></trkpt><trkpt lat="46.0857607" lon="12.9451169"><ele>112.5</ele><time>2026-04-04T10:19:43.059Z</time></trkpt><trkpt lat="46.0857691" lon="12.9453173"><ele>112.0</ele><time>2026-04-04T10:19:44.059Z</time></trkpt><trkpt lat="46.0857761" lon="12.9455246"><ele>111.5</ele><time>2026-04-04T10:19:45.06Z</time></trkpt><trkpt lat="46.0857813" lon="12.9457427"><ele>111.0</ele><time>2026-04-04T10:19:46.058Z</time></trkpt><trkpt lat="46.085783" lon="12.9459624"><ele>110.66666666666666</ele><time>2026-04-04T10:19:47.059Z</time></trkpt><trkpt lat="46.0857874" lon="12.9461813"><ele>110.33333333333333</ele><time>2026-04-04T10:19:48.059Z</time></trkpt><trkpt lat="46.0857821" lon="12.9464041"><ele>110.0</ele><time>2026-04-04T10:19:49.058Z</time></trkpt><trkpt lat="46.0857736" lon="12.9466257"><ele>110.0</ele><time>2026-04-04T10:19:50.059Z</time></trkpt><trkpt lat="46.0857709" lon="12.9468326"><ele>110.0</ele><time>2026-04-04T10:19:51.06Z</time></trkpt><trkpt lat="46.085758" lon="12.9470236"><ele>110.0</ele><time>2026-04-04T10:19:52.059Z</time></trkpt><trkpt lat="46.0857474" lon="12.9472055"><ele>110.0</ele><time>2026-04-04T10:19:53.06Z</time></trkpt><trkpt lat="46.0857364" lon="12.9473738"><ele>110.0</ele><time>2026-04-04T10:19:54.06Z</time></trkpt><trkpt lat="46.0857386" lon="12.9475209"><ele>110.0</ele><time>2026-04-04T10:19:55.059Z</time></trkpt><trkpt lat="46.0857383" lon="12.9476682"><ele>110.0</ele><time>2026-04-04T10:19:56.061Z</time></trkpt><trkpt lat="46.0857257" lon="12.9478068"><ele>110.0</ele><time>2026-04-04T10:19:57.058Z</time></trkpt><trkpt lat="46.0857192" lon="12.9479509"><ele>110.0</ele><time>2026-04-04T10:19:58.06Z</time></trkpt><trkpt lat="46.0857111" lon="12.9480699"><ele>109.83333333333333</ele><time>2026-04-04T10:19:59.06Z</time></trkpt><trkpt lat="46.0857035" lon="12.9481891"><ele>109.66666666666666</ele><time>2026-04-04T10:20:00.059Z</time></trkpt><trkpt lat="46.0856729" lon="12.9483059"><ele>109.5</ele><time>2026-04-04T10:20:01.058Z</time></trkpt><trkpt lat="46.0856262" lon="12.9484137"><ele>109.33333333333334</ele><time>2026-04-04T10:20:02.059Z</time></trkpt><trkpt lat="46.0855609" lon="12.9485146"><ele>109.16666666666667</ele><time>2026-04-04T10:20:03.059Z</time></trkpt><trkpt lat="46.0854892" lon="12.9486046"><ele>109.0</ele><time>2026-04-04T10:20:04.059Z</time></trkpt><trkpt lat="46.0854268" lon="12.9487096"><ele>109.2</ele><time>2026-04-04T10:20:05.059Z</time></trkpt><trkpt lat="46.0853706" lon="12.9488338"><ele>109.4</ele><time>2026-04-04T10:20:06.059Z</time></trkpt><trkpt lat="46.0853325" lon="12.9489705"><ele>109.6</ele><time>2026-04-04T10:20:07.06Z</time></trkpt><trkpt lat="46.0853196" lon="12.9491134"><ele>109.8</ele><time>2026-04-04T10:20:08.06Z</time></trkpt><trkpt lat="46.0853311" lon="12.9492586"><ele>110.0</ele><time>2026-04-04T10:20:09.06Z</time></trkpt><trkpt lat="46.0853666" lon="12.9493889"><ele>110.0</ele><time>2026-04-04T10:20:10.061Z</time></trkpt><trkpt lat="46.0854172" lon="12.9495064"><ele>110.0</ele><time>2026-04-04T10:20:11.06Z</time></trkpt><trkpt lat="46.0854813" lon="12.9496217"><ele>110.0</ele><time>2026-04-04T10:20:12.061Z</time></trkpt><trkpt lat="46.0855438" lon="12.9497308"><ele>110.0</ele><time>2026-04-04T10:20:13.059Z</time></trkpt><trkpt lat="46.0855959" lon="12.9498508"><ele>110.0</ele><time>2026-04-04T10:20:14.058Z</time></trkpt><trkpt lat="46.0856292" lon="12.9499732"><ele>109.8</ele><time>2026-04-04T10:20:15.059Z</time></trkpt><trkpt lat="46.0856473" lon="12.9501058"><ele>109.6</ele><time>2026-04-04T10:20:16.06Z</time></trkpt><trkpt lat="46.0856518" lon="12.9502567"><ele>109.4</ele><time>2026-04-04T10:20:17.059Z</time></trkpt><trkpt lat="46.0856505" lon="12.9504235"><ele>109.2</ele><time>2026-04-04T10:20:18.06Z</time></trkpt><trkpt lat="46.0856443" lon="12.9506033"><ele>109.0</ele><time>2026-04-04T10:20:19.059Z</time></trkpt><trkpt lat="46.0856382" lon="12.9507913"><ele>109.0</ele><time>2026-04-04T10:20:20.058Z</time></trkpt><trkpt lat="46.0856269" lon="12.9509819"><ele>109.0</ele><time>2026-04-04T10:20:21.059Z</time></trkpt><trkpt lat="46.085612" lon="12.9511767"><ele>109.0</ele><time>2026-04-04T10:20:22.058Z</time></trkpt><trkpt lat="46.0855951" lon="12.9513655"><ele>109.0</ele><time>2026-04-04T10:20:23.059Z</time></trkpt><trkpt lat="46.0855799" lon="12.9515502"><ele>109.0</ele><time>2026-04-04T10:20:24.059Z</time></trkpt><trkpt lat="46.0855605" lon="12.9517332"><ele>109.0</ele><time>2026-04-04T10:20:25.061Z</time></trkpt><trkpt lat="46.0855414" lon="12.9519108"><ele>109.0</ele><time>2026-04-04T10:20:26.06Z</time></trkpt><trkpt lat="46.0855254" lon="12.9520987"><ele>109.0</ele><time>2026-04-04T10:20:27.061Z</time></trkpt><trkpt lat="46.0855114" lon="12.9522971"><ele>109.66666666666667</ele><time>2026-04-04T10:20:28.059Z</time></trkpt><trkpt lat="46.0855012" lon="12.9525461"><ele>110.33333333333334</ele><time>2026-04-04T10:20:29.06Z</time></trkpt><trkpt lat="46.0854776" lon="12.9528328"><ele>111.0</ele><time>2026-04-04T10:20:30.061Z</time></trkpt><trkpt lat="46.0854399" lon="12.9531601"><ele>111.5</ele><time>2026-04-04T10:20:31.06Z</time></trkpt><trkpt lat="46.0854134" lon="12.9535136"><ele>112.0</ele><time>2026-04-04T10:20:32.06Z</time></trkpt><trkpt lat="46.0853935" lon="12.9538692"><ele>113.0</ele><time>2026-04-04T10:20:33.06Z</time></trkpt><trkpt lat="46.0853801" lon="12.9542077"><ele>114.0</ele><time>2026-04-04T10:20:34.061Z</time></trkpt><trkpt lat="46.0853729" lon="12.9545299"><ele>114.0</ele><time>2026-04-04T10:20:35.059Z</time></trkpt><trkpt lat="46.085372" lon="12.9548565"><ele>114.0</ele><time>2026-04-04T10:20:36.06Z</time></trkpt><trkpt lat="46.0853712" lon="12.9551519"><ele>114.0</ele><time>2026-04-04T10:20:37.06Z</time></trkpt><trkpt lat="46.0853757" lon="12.9554432"><ele>113.66666666666666</ele><time>2026-04-04T10:20:38.06Z</time></trkpt><trkpt lat="46.0853825" lon="12.955717"><ele>113.33333333333333</ele><time>2026-04-04T10:20:39.06Z</time></trkpt><trkpt lat="46.0853861" lon="12.9559801"><ele>113.0</ele><time>2026-04-04T10:20:40.059Z</time></trkpt><trkpt lat="46.0853904" lon="12.9562379"><ele>113.0</ele><time>2026-04-04T10:20:41.059Z</time></trkpt><trkpt lat="46.0853908" lon="12.9564928"><ele>113.0</ele><time>2026-04-04T10:20:42.06Z</time></trkpt><trkpt lat="46.0853939" lon="12.9567384"><ele>113.0</ele><time>2026-04-04T10:20:43.059Z</time></trkpt><trkpt lat="46.0853933" lon="12.9569805"><ele>113.0</ele><time>2026-04-04T10:20:44.059Z</time></trkpt><trkpt lat="46.085397" lon="12.9572142"><ele>113.0</ele><time>2026-04-04T10:20:45.061Z</time></trkpt><trkpt lat="46.0854017" lon="12.9574479"><ele>113.0</ele><time>2026-04-04T10:20:46.061Z</time></trkpt><trkpt lat="46.0854039" lon="12.9576801"><ele>113.33333333333333</ele><time>2026-04-04T10:20:47.061Z</time></trkpt><trkpt lat="46.0854083" lon="12.9579164"><ele>113.66666666666666</ele><time>2026-04-04T10:20:48.06Z</time></trkpt><trkpt lat="46.0854132" lon="12.9581539"><ele>114.0</ele><time>2026-04-04T10:20:49.059Z</time></trkpt><trkpt lat="46.0854127" lon="12.9584002"><ele>114.0</ele><time>2026-04-04T10:20:50.06Z</time></trkpt><trkpt lat="46.0854086" lon="12.958663"><ele>114.0</ele><time>2026-04-04T10:20:51.059Z</time></trkpt><trkpt lat="46.0854041" lon="12.9589595"><ele>114.0</ele><time>2026-04-04T10:20:52.06Z</time></trkpt><trkpt lat="46.0853883" lon="12.9592859"><ele>114.0</ele><time>2026-04-04T10:20:53.06Z</time></trkpt><trkpt lat="46.0853681" lon="12.9596406"><ele>114.0</ele><time>2026-04-04T10:20:54.059Z</time></trkpt><trkpt lat="46.0853477" lon="12.9600215"><ele>114.0</ele><time>2026-04-04T10:20:55.06Z</time></trkpt><trkpt lat="46.0853294" lon="12.9604368"><ele>114.0</ele><time>2026-04-04T10:20:56.059Z</time></trkpt><trkpt lat="46.0853028" lon="12.9608854"><ele>114.0</ele><time>2026-04-04T10:20:57.06Z</time></trkpt><trkpt lat="46.0852673" lon="12.9613533"><ele>114.0</ele><time>2026-04-04T10:20:58.058Z</time></trkpt><trkpt lat="46.0852269" lon="12.9618444"><ele>114.0</ele><time>2026-04-04T10:20:59.059Z</time></trkpt><trkpt lat="46.085179" lon="12.9623467"><ele>114.0</ele><time>2026-04-04T10:21:00.058Z</time></trkpt><trkpt lat="46.0851392" lon="12.9628405"><ele>114.0</ele><time>2026-04-04T10:21:01.061Z</time></trkpt><trkpt lat="46.0851107" lon="12.9633136"><ele>114.0</ele><time>2026-04-04T10:21:02.06Z</time></trkpt><trkpt lat="46.0850741" lon="12.9637693"><ele>114.0</ele><time>2026-04-04T10:21:03.061Z</time></trkpt><trkpt lat="46.0850431" lon="12.9642055"><ele>114.0</ele><time>2026-04-04T10:21:04.061Z</time></trkpt><trkpt lat="46.0850122" lon="12.9646212"><ele>114.0</ele><time>2026-04-04T10:21:05.059Z</time></trkpt><trkpt lat="46.084985" lon="12.9650108"><ele>114.0</ele><time>2026-04-04T10:21:06.06Z</time></trkpt><trkpt lat="46.0849608" lon="12.9653835"><ele>114.5</ele><time>2026-04-04T10:21:07.061Z</time></trkpt><trkpt lat="46.0849323" lon="12.9657527"><ele>115.0</ele><time>2026-04-04T10:21:08.06Z</time></trkpt><trkpt lat="46.084906" lon="12.9661235"><ele>115.0</ele><time>2026-04-04T10:21:09.06Z</time></trkpt><trkpt lat="46.0848708" lon="12.9664999"><ele>115.0</ele><time>2026-04-04T10:21:10.061Z</time></trkpt><trkpt lat="46.0848291" lon="12.9668855"><ele>114.5</ele><time>2026-04-04T10:21:11.059Z</time></trkpt><trkpt lat="46.0847829" lon="12.9672747"><ele>114.0</ele><time>2026-04-04T10:21:12.059Z</time></trkpt><trkpt lat="46.084737" lon="12.9676592"><ele>114.0</ele><time>2026-04-04T10:21:13.058Z</time></trkpt><trkpt lat="46.084693" lon="12.9680295"><ele>114.0</ele><time>2026-04-04T10:21:14.061Z</time></trkpt><trkpt lat="46.0846497" lon="12.9683895"><ele>115.0</ele><time>2026-04-04T10:21:15.06Z</time></trkpt><trkpt lat="46.0846065" lon="12.9687509"><ele>116.0</ele><time>2026-04-04T10:21:16.06Z</time></trkpt><trkpt lat="46.0845659" lon="12.9690995"><ele>116.0</ele><time>2026-04-04T10:21:17.06Z</time></trkpt><trkpt lat="46.084523" lon="12.9694468"><ele>116.0</ele><time>2026-04-04T10:21:18.06Z</time></trkpt><trkpt lat="46.0844819" lon="12.9697817"><ele>115.5</ele><time>2026-04-04T10:21:19.06Z</time></trkpt><trkpt lat="46.0844388" lon="12.9701131"><ele>115.0</ele><time>2026-04-04T10:21:20.059Z</time></trkpt><trkpt lat="46.0843999" lon="12.9704437"><ele>115.0</ele><time>2026-04-04T10:21:21.06Z</time></trkpt><trkpt lat="46.0843571" lon="12.9707784"><ele>115.0</ele><time>2026-04-04T10:21:22.061Z</time></trkpt><trkpt lat="46.0843242" lon="12.9711074"><ele>115.0</ele><time>2026-04-04T10:21:23.06Z</time></trkpt><trkpt lat="46.0842876" lon="12.9714276"><ele>115.0</ele><time>2026-04-04T10:21:24.059Z</time></trkpt><trkpt lat="46.0842477" lon="12.9717359"><ele>115.0</ele><time>2026-04-04T10:21:25.061Z</time></trkpt><trkpt lat="46.0842123" lon="12.9720298"><ele>115.33333333333334</ele><time>2026-04-04T10:21:26.06Z</time></trkpt><trkpt lat="46.0841759" lon="12.9723206"><ele>115.66666666666666</ele><time>2026-04-04T10:21:27.058Z</time></trkpt><trkpt lat="46.0841388" lon="12.9726067"><ele>116.0</ele><time>2026-04-04T10:21:28.059Z</time></trkpt><trkpt lat="46.0841025" lon="12.9728753"><ele>116.33333333333333</ele><time>2026-04-04T10:21:29.06Z</time></trkpt><trkpt lat="46.0840734" lon="12.9731246"><ele>116.66666666666666</ele><time>2026-04-04T10:21:30.06Z</time></trkpt><trkpt lat="46.0840427" lon="12.9733522"><ele>117.0</ele><time>2026-04-04T10:21:31.06Z</time></trkpt><trkpt lat="46.0840117" lon="12.9735885"><ele>117.0</ele><time>2026-04-04T10:21:32.06Z</time></trkpt><trkpt lat="46.0839801" lon="12.9738343"><ele>117.0</ele><time>2026-04-04T10:21:33.06Z</time></trkpt><trkpt lat="46.0839479" lon="12.974089"><ele>117.0</ele><time>2026-04-04T10:21:34.059Z</time></trkpt><trkpt lat="46.0839147" lon="12.9743446"><ele>117.0</ele><time>2026-04-04T10:21:35.059Z</time></trkpt><trkpt lat="46.0838822" lon="12.9746058"><ele>117.0</ele><time>2026-04-04T10:21:36.06Z</time></trkpt><trkpt lat="46.0838485" lon="12.9748701"><ele>117.0</ele><time>2026-04-04T10:21:37.058Z</time></trkpt><trkpt lat="46.0838081" lon="12.9751387"><ele>117.33333333333334</ele><time>2026-04-04T10:21:38.058Z</time></trkpt><trkpt lat="46.083769" lon="12.9754136"><ele>117.66666666666667</ele><time>2026-04-04T10:21:39.059Z</time></trkpt><trkpt lat="46.0837234" lon="12.9756968"><ele>118.0</ele><time>2026-04-04T10:21:40.06Z</time></trkpt><trkpt lat="46.0836832" lon="12.9759849"><ele>118.0</ele><time>2026-04-04T10:21:41.058Z</time></trkpt><trkpt lat="46.0836405" lon="12.9762791"><ele>118.0</ele><time>2026-04-04T10:21:42.06Z</time></trkpt><trkpt lat="46.0835996" lon="12.9765584"><ele>118.0</ele><time>2026-04-04T10:21:43.061Z</time></trkpt><trkpt lat="46.0835589" lon="12.9768232"><ele>118.33333333333334</ele><time>2026-04-04T10:21:44.061Z</time></trkpt><trkpt lat="46.0835153" lon="12.9770764"><ele>118.66666666666666</ele><time>2026-04-04T10:21:45.059Z</time></trkpt><trkpt lat="46.0834784" lon="12.9773143"><ele>119.0</ele><time>2026-04-04T10:21:46.061Z</time></trkpt><trkpt lat="46.0834401" lon="12.9775426"><ele>119.0</ele><time>2026-04-04T10:21:47.059Z</time></trkpt><trkpt lat="46.0834074" lon="12.9777647"><ele>119.0</ele><time>2026-04-04T10:21:48.06Z</time></trkpt><trkpt lat="46.0833708" lon="12.9779942"><ele>119.0</ele><time>2026-04-04T10:21:49.06Z</time></trkpt><trkpt lat="46.0833368" lon="12.9782274"><ele>118.66666666666666</ele><time>2026-04-04T10:21:50.059Z</time></trkpt><trkpt lat="46.083299" lon="12.9784765"><ele>118.33333333333334</ele><time>2026-04-04T10:21:51.06Z</time></trkpt><trkpt lat="46.0832596" lon="12.9787379"><ele>118.0</ele><time>2026-04-04T10:21:52.059Z</time></trkpt><trkpt lat="46.0832191" lon="12.9790089"><ele>117.66666666666667</ele><time>2026-04-04T10:21:53.06Z</time></trkpt><trkpt lat="46.0831748" lon="12.9792857"><ele>117.33333333333334</ele><time>2026-04-04T10:21:54.059Z</time></trkpt><trkpt lat="46.0831293" lon="12.9795853"><ele>117.0</ele><time>2026-04-04T10:21:55.061Z</time></trkpt><trkpt lat="46.0830803" lon="12.9799172"><ele>118.0</ele><time>2026-04-04T10:21:56.06Z</time></trkpt><trkpt lat="46.0830258" lon="12.980268"><ele>119.0</ele><time>2026-04-04T10:21:57.06Z</time></trkpt><trkpt lat="46.0829685" lon="12.9806355"><ele>119.0</ele><time>2026-04-04T10:21:58.059Z</time></trkpt><trkpt lat="46.0829134" lon="12.9810028"><ele>119.0</ele><time>2026-04-04T10:21:59.06Z</time></trkpt><trkpt lat="46.0828567" lon="12.9813718"><ele>118.0</ele><time>2026-04-04T10:22:00.059Z</time></trkpt><trkpt lat="46.0828016" lon="12.9817403"><ele>117.0</ele><time>2026-04-04T10:22:01.059Z</time></trkpt><trkpt lat="46.0827495" lon="12.9820878"><ele>117.0</ele><time>2026-04-04T10:22:02.059Z</time></trkpt><trkpt lat="46.0826962" lon="12.9824192"><ele>117.0</ele><time>2026-04-04T10:22:03.06Z</time></trkpt><trkpt lat="46.0826451" lon="12.982738"><ele>117.33333333333334</ele><time>2026-04-04T10:22:04.06Z</time></trkpt><trkpt lat="46.0825959" lon="12.9830444"><ele>117.66666666666667</ele><time>2026-04-04T10:22:05.059Z</time></trkpt><trkpt lat="46.0825489" lon="12.9833362"><ele>118.0</ele><time>2026-04-04T10:22:06.06Z</time></trkpt><trkpt lat="46.0825055" lon="12.9836196"><ele>118.33333333333334</ele><time>2026-04-04T10:22:07.06Z</time></trkpt><trkpt lat="46.0824622" lon="12.9838897"><ele>118.66666666666666</ele><time>2026-04-04T10:22:08.059Z</time></trkpt><trkpt lat="46.0824235" lon="12.9841488"><ele>119.0</ele><time>2026-04-04T10:22:09.059Z</time></trkpt><trkpt lat="46.0823857" lon="12.9843942"><ele>119.0</ele><time>2026-04-04T10:22:10.059Z</time></trkpt><trkpt lat="46.0823478" lon="12.9846251"><ele>119.0</ele><time>2026-04-04T10:22:11.06Z</time></trkpt><trkpt lat="46.0823077" lon="12.9848533"><ele>119.0</ele><time>2026-04-04T10:22:12.061Z</time></trkpt><trkpt lat="46.0822748" lon="12.9850651"><ele>119.0</ele><time>2026-04-04T10:22:13.059Z</time></trkpt><trkpt lat="46.0822431" lon="12.9852592"><ele>119.0</ele><time>2026-04-04T10:22:14.06Z</time></trkpt><trkpt lat="46.0822161" lon="12.9854494"><ele>119.0</ele><time>2026-04-04T10:22:15.061Z</time></trkpt><trkpt lat="46.0821894" lon="12.9856415"><ele>119.0</ele><time>2026-04-04T10:22:16.061Z</time></trkpt><trkpt lat="46.0821684" lon="12.9858423"><ele>118.66666666666666</ele><time>2026-04-04T10:22:17.059Z</time></trkpt><trkpt lat="46.0821401" lon="12.9860527"><ele>118.33333333333334</ele><time>2026-04-04T10:22:18.06Z</time></trkpt><trkpt lat="46.0821093" lon="12.9862693"><ele>118.0</ele><time>2026-04-04T10:22:19.06Z</time></trkpt><trkpt lat="46.082081" lon="12.9864962"><ele>118.33333333333334</ele><time>2026-04-04T10:22:20.059Z</time></trkpt><trkpt lat="46.082051" lon="12.9867234"><ele>118.66666666666666</ele><time>2026-04-04T10:22:21.059Z</time></trkpt><trkpt lat="46.0820208" lon="12.9869563"><ele>119.0</ele><time>2026-04-04T10:22:22.06Z</time></trkpt><trkpt lat="46.0819918" lon="12.987188"><ele>119.0</ele><time>2026-04-04T10:22:23.06Z</time></trkpt><trkpt lat="46.0819587" lon="12.9874161"><ele>119.0</ele><time>2026-04-04T10:22:24.06Z</time></trkpt><trkpt lat="46.0819335" lon="12.9876374"><ele>119.0</ele><time>2026-04-04T10:22:25.06Z</time></trkpt><trkpt lat="46.0819091" lon="12.987845"><ele>119.0</ele><time>2026-04-04T10:22:26.059Z</time></trkpt><trkpt lat="46.0818841" lon="12.9880381"><ele>119.0</ele><time>2026-04-04T10:22:27.061Z</time></trkpt><trkpt lat="46.0818631" lon="12.9882125"><ele>119.0</ele><time>2026-04-04T10:22:28.061Z</time></trkpt><trkpt lat="46.0818456" lon="12.9883688"><ele>119.0</ele><time>2026-04-04T10:22:29.059Z</time></trkpt><trkpt lat="46.0818297" lon="12.9885073"><ele>119.16666666666666</ele><time>2026-04-04T10:22:30.059Z</time></trkpt><trkpt lat="46.0818127" lon="12.9886244"><ele>119.33333333333333</ele><time>2026-04-04T10:22:31.059Z</time></trkpt><trkpt lat="46.0817878" lon="12.9887282"><ele>119.5</ele><time>2026-04-04T10:22:32.059Z</time></trkpt><trkpt lat="46.0817444" lon="12.9888246"><ele>119.66666666666666</ele><time>2026-04-04T10:22:33.059Z</time></trkpt><trkpt lat="46.0817008" lon="12.988919"><ele>119.83333333333333</ele><time>2026-04-04T10:22:34.06Z</time></trkpt><trkpt lat="46.0816719" lon="12.989031"><ele>120.0</ele><time>2026-04-04T10:22:35.059Z</time></trkpt><trkpt lat="46.0816632" lon="12.9891394"><ele>120.0</ele><time>2026-04-04T10:22:36.059Z</time></trkpt><trkpt lat="46.0816891" lon="12.9892373"><ele>120.0</ele><time>2026-04-04T10:22:37.059Z</time></trkpt><trkpt lat="46.0818017" lon="12.9893094"><ele>120.0</ele><time>2026-04-04T10:22:39.059Z</time></trkpt><trkpt lat="46.0818638" lon="12.9892896"><ele>120.0</ele><time>2026-04-04T10:22:40.06Z</time></trkpt><trkpt lat="46.0819636" lon="12.9891688"><ele>120.0</ele><time>2026-04-04T10:22:42.061Z</time></trkpt><trkpt lat="46.0820175" lon="12.9891012"><ele>120.0</ele><time>2026-04-04T10:22:43.061Z</time></trkpt><trkpt lat="46.0820867" lon="12.9890381"><ele>120.0</ele><time>2026-04-04T10:22:44.059Z</time></trkpt><trkpt lat="46.0821616" lon="12.988996"><ele>120.0</ele><time>2026-04-04T10:22:45.06Z</time></trkpt><trkpt lat="46.082257" lon="12.9889535"><ele>120.0</ele><time>2026-04-04T10:22:46.06Z</time></trkpt><trkpt lat="46.0823797" lon="12.9889074"><ele>120.0</ele><time>2026-04-04T10:22:47.06Z</time></trkpt><trkpt lat="46.0825039" lon="12.9888698"><ele>119.8</ele><time>2026-04-04T10:22:48.061Z</time></trkpt><trkpt lat="46.0826184" lon="12.9888455"><ele>119.6</ele><time>2026-04-04T10:22:49.059Z</time></trkpt><trkpt lat="46.0827192" lon="12.9888296"><ele>119.4</ele><time>2026-04-04T10:22:50.061Z</time></trkpt><trkpt lat="46.0828271" lon="12.9888152"><ele>119.2</ele><time>2026-04-04T10:22:51.06Z</time></trkpt><trkpt lat="46.0829395" lon="12.9888178"><ele>119.0</ele><time>2026-04-04T10:22:52.06Z</time></trkpt><trkpt lat="46.083059" lon="12.9888247"><ele>119.0</ele><time>2026-04-04T10:22:53.059Z</time></trkpt><trkpt lat="46.0831854" lon="12.9888449"><ele>119.0</ele><time>2026-04-04T10:22:54.061Z</time></trkpt><trkpt lat="46.0833134" lon="12.9888613"><ele>119.0</ele><time>2026-04-04T10:22:55.06Z</time></trkpt><trkpt lat="46.0834428" lon="12.9888756"><ele>119.0</ele><time>2026-04-04T10:22:56.061Z</time></trkpt><trkpt lat="46.0835661" lon="12.9888877"><ele>119.5</ele><time>2026-04-04T10:22:57.06Z</time></trkpt><trkpt lat="46.083693" lon="12.9889083"><ele>120.0</ele><time>2026-04-04T10:22:58.06Z</time></trkpt><trkpt lat="46.0838055" lon="12.9889088"><ele>120.5</ele><time>2026-04-04T10:22:59.061Z</time></trkpt><trkpt lat="46.0839155" lon="12.9889067"><ele>121.0</ele><time>2026-04-04T10:23:00.06Z</time></trkpt><trkpt lat="46.084019" lon="12.9889036"><ele>121.19999999999999</ele><time>2026-04-04T10:23:01.06Z</time></trkpt><trkpt lat="46.0841255" lon="12.9888853"><ele>121.39999999999999</ele><time>2026-04-04T10:23:02.061Z</time></trkpt><trkpt lat="46.0842296" lon="12.9888574"><ele>121.6</ele><time>2026-04-04T10:23:03.061Z</time></trkpt><trkpt lat="46.0843366" lon="12.9888259"><ele>121.8</ele><time>2026-04-04T10:23:04.06Z</time></trkpt><trkpt lat="46.084445" lon="12.9887936"><ele>122.0</ele><time>2026-04-04T10:23:05.06Z</time></trkpt><trkpt lat="46.0845563" lon="12.9887644"><ele>122.0</ele><time>2026-04-04T10:23:06.059Z</time></trkpt><trkpt lat="46.0846704" lon="12.9887371"><ele>121.99999999999999</ele><time>2026-04-04T10:23:07.06Z</time></trkpt><trkpt lat="46.0847732" lon="12.9887341"><ele>121.99999999999999</ele><time>2026-04-04T10:23:08.06Z</time></trkpt><trkpt lat="46.0848723" lon="12.9887294"><ele>122.0</ele><time>2026-04-04T10:23:09.06Z</time></trkpt><trkpt lat="46.0849692" lon="12.9887679"><ele>122.0</ele><time>2026-04-04T10:23:10.06Z</time></trkpt><trkpt lat="46.0850521" lon="12.9888105"><ele>122.16666666666666</ele><time>2026-04-04T10:23:11.059Z</time></trkpt><trkpt lat="46.085124" lon="12.9888624"><ele>122.33333333333333</ele><time>2026-04-04T10:23:12.06Z</time></trkpt><trkpt lat="46.0851891" lon="12.9889096"><ele>122.5</ele><time>2026-04-04T10:23:13.06Z</time></trkpt><trkpt lat="46.0852535" lon="12.9889597"><ele>122.66666666666666</ele><time>2026-04-04T10:23:14.059Z</time></trkpt><trkpt lat="46.0853293" lon="12.9890178"><ele>122.83333333333333</ele><time>2026-04-04T10:23:15.06Z</time></trkpt><trkpt lat="46.0854099" lon="12.9890883"><ele>123.0</ele><time>2026-04-04T10:23:16.06Z</time></trkpt><trkpt lat="46.0854923" lon="12.9891647"><ele>122.80000000000001</ele><time>2026-04-04T10:23:17.059Z</time></trkpt><trkpt lat="46.0855862" lon="12.9892478"><ele>122.60000000000001</ele><time>2026-04-04T10:23:18.06Z</time></trkpt><trkpt lat="46.0856771" lon="12.9893352"><ele>122.39999999999999</ele><time>2026-04-04T10:23:19.061Z</time></trkpt><trkpt lat="46.0857758" lon="12.9894102"><ele>122.19999999999999</ele><time>2026-04-04T10:23:20.06Z</time></trkpt><trkpt lat="46.0858653" lon="12.9894829"><ele>122.0</ele><time>2026-04-04T10:23:21.061Z</time></trkpt><trkpt lat="46.0859568" lon="12.9895369"><ele>122.39999999999999</ele><time>2026-04-04T10:23:22.06Z</time></trkpt><trkpt lat="46.0860457" lon="12.9895842"><ele>122.79999999999998</ele><time>2026-04-04T10:23:23.06Z</time></trkpt><trkpt lat="46.0861346" lon="12.9896187"><ele>123.2</ele><time>2026-04-04T10:23:24.06Z</time></trkpt><trkpt lat="46.0862209" lon="12.989649"><ele>123.6</ele><time>2026-04-04T10:23:25.06Z</time></trkpt><trkpt lat="46.0863117" lon="12.9896852"><ele>124.0</ele><time>2026-04-04T10:23:26.06Z</time></trkpt><trkpt lat="46.0864" lon="12.9897145"><ele>124.00000000000001</ele><time>2026-04-04T10:23:27.059Z</time></trkpt><trkpt lat="46.086481" lon="12.9897489"><ele>124.0</ele><time>2026-04-04T10:23:28.061Z</time></trkpt><trkpt lat="46.0865547" lon="12.9897779"><ele>124.0</ele><time>2026-04-04T10:23:29.06Z</time></trkpt><trkpt lat="46.0866201" lon="12.9898155"><ele>124.0</ele><time>2026-04-04T10:23:30.06Z</time></trkpt><trkpt lat="46.0866821" lon="12.9898557"><ele>124.00000000000001</ele><time>2026-04-04T10:23:31.06Z</time></trkpt><trkpt lat="46.0867381" lon="12.9899287"><ele>124.0</ele><time>2026-04-04T10:23:32.06Z</time></trkpt><trkpt lat="46.0867802" lon="12.9900371"><ele>124.0</ele><time>2026-04-04T10:23:33.059Z</time></trkpt><trkpt lat="46.0868084" lon="12.9901697"><ele>124.0</ele><time>2026-04-04T10:23:34.059Z</time></trkpt><trkpt lat="46.0868407" lon="12.9903181"><ele>124.0</ele><time>2026-04-04T10:23:35.061Z</time></trkpt><trkpt lat="46.0868693" lon="12.9904958"><ele>124.0</ele><time>2026-04-04T10:23:36.06Z</time></trkpt><trkpt lat="46.0868987" lon="12.9906903"><ele>124.0</ele><time>2026-04-04T10:23:37.059Z</time></trkpt><trkpt lat="46.0869227" lon="12.9908651"><ele>124.0</ele><time>2026-04-04T10:23:38.059Z</time></trkpt><trkpt lat="46.0869474" lon="12.9910276"><ele>124.0</ele><time>2026-04-04T10:23:39.059Z</time></trkpt><trkpt lat="46.0869695" lon="12.9911742"><ele>124.0</ele><time>2026-04-04T10:23:40.059Z</time></trkpt><trkpt lat="46.0869884" lon="12.9913188"><ele>124.0</ele><time>2026-04-04T10:23:41.059Z</time></trkpt><trkpt lat="46.0870053" lon="12.9914499"><ele>124.0</ele><time>2026-04-04T10:23:42.06Z</time></trkpt><trkpt lat="46.0870243" lon="12.9915809"><ele>124.0</ele><time>2026-04-04T10:23:43.061Z</time></trkpt><trkpt lat="46.0870458" lon="12.9917186"><ele>124.0</ele><time>2026-04-04T10:23:44.061Z</time></trkpt><trkpt lat="46.0870672" lon="12.9918541"><ele>124.0</ele><time>2026-04-04T10:23:45.059Z</time></trkpt><trkpt lat="46.0870889" lon="12.9920003"><ele>124.0</ele><time>2026-04-04T10:23:46.06Z</time></trkpt><trkpt lat="46.0871112" lon="12.9921491"><ele>123.80000000000001</ele><time>2026-04-04T10:23:47.059Z</time></trkpt><trkpt lat="46.0871301" lon="12.9922999"><ele>123.60000000000001</ele><time>2026-04-04T10:23:48.059Z</time></trkpt><trkpt lat="46.0871515" lon="12.9924484"><ele>123.4</ele><time>2026-04-04T10:23:49.06Z</time></trkpt><trkpt lat="46.0871727" lon="12.9926055"><ele>123.2</ele><time>2026-04-04T10:23:50.06Z</time></trkpt><trkpt lat="46.0871913" lon="12.9927578"><ele>123.0</ele><time>2026-04-04T10:23:51.059Z</time></trkpt><trkpt lat="46.0872123" lon="12.9929047"><ele>123.0</ele><time>2026-04-04T10:23:52.06Z</time></trkpt><trkpt lat="46.0872341" lon="12.9930626"><ele>123.0</ele><time>2026-04-04T10:23:53.059Z</time></trkpt><trkpt lat="46.0872611" lon="12.9932285"><ele>123.0</ele><time>2026-04-04T10:23:54.06Z</time></trkpt><trkpt lat="46.0872865" lon="12.9934107"><ele>123.0</ele><time>2026-04-04T10:23:55.06Z</time></trkpt><trkpt lat="46.0873187" lon="12.9936195"><ele>122.66666666666666</ele><time>2026-04-04T10:23:56.06Z</time></trkpt><trkpt lat="46.087355" lon="12.9938571"><ele>122.33333333333333</ele><time>2026-04-04T10:23:57.06Z</time></trkpt><trkpt lat="46.0874011" lon="12.9941172"><ele>122.0</ele><time>2026-04-04T10:23:58.061Z</time></trkpt><trkpt lat="46.0874436" lon="12.9943868"><ele>123.0</ele><time>2026-04-04T10:23:59.06Z</time></trkpt><trkpt lat="46.0874853" lon="12.9946492"><ele>124.0</ele><time>2026-04-04T10:24:00.06Z</time></trkpt><trkpt lat="46.0875262" lon="12.9948957"><ele>125.0</ele><time>2026-04-04T10:24:01.06Z</time></trkpt><trkpt lat="46.0875634" lon="12.995129"><ele>125.33333333333333</ele><time>2026-04-04T10:24:02.06Z</time></trkpt><trkpt lat="46.0876012" lon="12.9953583"><ele>125.66666666666666</ele><time>2026-04-04T10:24:03.06Z</time></trkpt><trkpt lat="46.0876417" lon="12.9956095"><ele>126.0</ele><time>2026-04-04T10:24:04.06Z</time></trkpt><trkpt lat="46.0876783" lon="12.9958581"><ele>125.0</ele><time>2026-04-04T10:24:05.061Z</time></trkpt><trkpt lat="46.0877182" lon="12.996123"><ele>124.0</ele><time>2026-04-04T10:24:06.061Z</time></trkpt><trkpt lat="46.087765" lon="12.9964094"><ele>123.0</ele><time>2026-04-04T10:24:07.059Z</time></trkpt><trkpt lat="46.0878135" lon="12.9967203"><ele>123.0</ele><time>2026-04-04T10:24:08.062Z</time></trkpt><trkpt lat="46.0878641" lon="12.9970525"><ele>123.0</ele><time>2026-04-04T10:24:09.06Z</time></trkpt><trkpt lat="46.0879113" lon="12.9973871"><ele>123.0</ele><time>2026-04-04T10:24:10.06Z</time></trkpt><trkpt lat="46.087961" lon="12.9977207"><ele>123.0</ele><time>2026-04-04T10:24:11.059Z</time></trkpt><trkpt lat="46.0880065" lon="12.9980442"><ele>124.0</ele><time>2026-04-04T10:24:12.06Z</time></trkpt><trkpt lat="46.0880565" lon="12.9983625"><ele>125.0</ele><time>2026-04-04T10:24:13.06Z</time></trkpt><trkpt lat="46.088107" lon="12.9986809"><ele>125.0</ele><time>2026-04-04T10:24:14.06Z</time></trkpt><trkpt lat="46.0881673" lon="12.9989855"><ele>125.0</ele><time>2026-04-04T10:24:15.061Z</time></trkpt><trkpt lat="46.08825" lon="12.9992876"><ele>125.0</ele><time>2026-04-04T10:24:16.061Z</time></trkpt><trkpt lat="46.0883594" lon="12.9995913"><ele>125.5</ele><time>2026-04-04T10:24:17.059Z</time></trkpt><trkpt lat="46.0885018" lon="12.9999056"><ele>126.0</ele><time>2026-04-04T10:24:18.061Z</time></trkpt><trkpt lat="46.0886637" lon="13.0002256"><ele>126.0</ele><time>2026-04-04T10:24:19.059Z</time></trkpt><trkpt lat="46.0888364" lon="13.0005699"><ele>126.0</ele><time>2026-04-04T10:24:20.061Z</time></trkpt><trkpt lat="46.0890114" lon="13.0009351"><ele>126.0</ele><time>2026-04-04T10:24:21.06Z</time></trkpt><trkpt lat="46.089197" lon="13.0013184"><ele>126.0</ele><time>2026-04-04T10:24:22.06Z</time></trkpt><trkpt lat="46.089391" lon="13.0017143"><ele>126.0</ele><time>2026-04-04T10:24:23.06Z</time></trkpt><trkpt lat="46.0895756" lon="13.0021206"><ele>126.0</ele><time>2026-04-04T10:24:24.06Z</time></trkpt><trkpt lat="46.0897473" lon="13.0025064"><ele>125.5</ele><time>2026-04-04T10:24:25.059Z</time></trkpt><trkpt lat="46.0899233" lon="13.0028646"><ele>125.0</ele><time>2026-04-04T10:24:26.06Z</time></trkpt><trkpt lat="46.0900925" lon="13.0031995"><ele>126.5</ele><time>2026-04-04T10:24:27.061Z</time></trkpt><trkpt lat="46.0902759" lon="13.0035048"><ele>128.0</ele><time>2026-04-04T10:24:28.06Z</time></trkpt><trkpt lat="46.0904874" lon="13.0037823"><ele>128.0</ele><time>2026-04-04T10:24:29.061Z</time></trkpt><trkpt lat="46.0907161" lon="13.0040566"><ele>128.0</ele><time>2026-04-04T10:24:30.06Z</time></trkpt><trkpt lat="46.0909486" lon="13.0043168"><ele>128.5</ele><time>2026-04-04T10:24:31.06Z</time></trkpt><trkpt lat="46.0911834" lon="13.0045561"><ele>129.0</ele><time>2026-04-04T10:24:32.061Z</time></trkpt><trkpt lat="46.0914203" lon="13.0047745"><ele>128.5</ele><time>2026-04-04T10:24:33.06Z</time></trkpt><trkpt lat="46.0916463" lon="13.0049673"><ele>128.0</ele><time>2026-04-04T10:24:34.061Z</time></trkpt><trkpt lat="46.0918552" lon="13.0051402"><ele>128.0</ele><time>2026-04-04T10:24:35.06Z</time></trkpt><trkpt lat="46.0920401" lon="13.0053235"><ele>128.0</ele><time>2026-04-04T10:24:36.06Z</time></trkpt><trkpt lat="46.0922165" lon="13.0055451"><ele>128.0</ele><time>2026-04-04T10:24:37.06Z</time></trkpt><trkpt lat="46.0923738" lon="13.0058141"><ele>128.0</ele><time>2026-04-04T10:24:38.061Z</time></trkpt><trkpt lat="46.0925069" lon="13.0061168"><ele>128.5</ele><time>2026-04-04T10:24:39.06Z</time></trkpt><trkpt lat="46.0926089" lon="13.0064617"><ele>129.0</ele><time>2026-04-04T10:24:40.059Z</time></trkpt><trkpt lat="46.0926939" lon="13.0068252"><ele>129.0</ele><time>2026-04-04T10:24:41.06Z</time></trkpt><trkpt lat="46.0927487" lon="13.007215"><ele>129.0</ele><time>2026-04-04T10:24:42.059Z</time></trkpt><trkpt lat="46.0927772" lon="13.0075904"><ele>129.0</ele><time>2026-04-04T10:24:43.059Z</time></trkpt><trkpt lat="46.0927911" lon="13.0079515"><ele>129.0</ele><time>2026-04-04T10:24:44.061Z</time></trkpt><trkpt lat="46.0927994" lon="13.008291"><ele>129.0</ele><time>2026-04-04T10:24:45.06Z</time></trkpt><trkpt lat="46.0928099" lon="13.0086193"><ele>129.0</ele><time>2026-04-04T10:24:46.06Z</time></trkpt><trkpt lat="46.0928223" lon="13.0089294"><ele>129.0</ele><time>2026-04-04T10:24:47.06Z</time></trkpt><trkpt lat="46.0928346" lon="13.00923"><ele>129.0</ele><time>2026-04-04T10:24:48.061Z</time></trkpt><trkpt lat="46.0928463" lon="13.0095298"><ele>129.0</ele><time>2026-04-04T10:24:49.061Z</time></trkpt><trkpt lat="46.0928622" lon="13.0098268"><ele>129.0</ele><time>2026-04-04T10:24:50.059Z</time></trkpt><trkpt lat="46.0928755" lon="13.0101122"><ele>129.33333333333334</ele><time>2026-04-04T10:24:51.06Z</time></trkpt><trkpt lat="46.092885" lon="13.0103938"><ele>129.66666666666669</ele><time>2026-04-04T10:24:52.06Z</time></trkpt><trkpt lat="46.0928933" lon="13.0106718"><ele>130.0</ele><time>2026-04-04T10:24:53.06Z</time></trkpt><trkpt lat="46.0929007" lon="13.0109378"><ele>130.0</ele><time>2026-04-04T10:24:54.06Z</time></trkpt><trkpt lat="46.0929108" lon="13.0111946"><ele>130.0</ele><time>2026-04-04T10:24:55.059Z</time></trkpt><trkpt lat="46.092919" lon="13.0114486"><ele>130.0</ele><time>2026-04-04T10:24:56.06Z</time></trkpt><trkpt lat="46.0929284" lon="13.0116937"><ele>130.0</ele><time>2026-04-04T10:24:57.06Z</time></trkpt><trkpt lat="46.0929425" lon="13.0119207"><ele>130.0</ele><time>2026-04-04T10:24:58.059Z</time></trkpt><trkpt lat="46.0929608" lon="13.0121378"><ele>130.0</ele><time>2026-04-04T10:24:59.059Z</time></trkpt><trkpt lat="46.0929823" lon="13.0123418"><ele>129.75</ele><time>2026-04-04T10:25:00.06Z</time></trkpt><trkpt lat="46.0930158" lon="13.0125249"><ele>129.5</ele><time>2026-04-04T10:25:01.061Z</time></trkpt><trkpt lat="46.0930579" lon="13.0127"><ele>129.25</ele><time>2026-04-04T10:25:02.06Z</time></trkpt><trkpt lat="46.0931061" lon="13.0128587"><ele>129.0</ele><time>2026-04-04T10:25:03.061Z</time></trkpt><trkpt lat="46.093163" lon="13.0130089"><ele>129.0</ele><time>2026-04-04T10:25:04.059Z</time></trkpt><trkpt lat="46.0932318" lon="13.0131328"><ele>129.0</ele><time>2026-04-04T10:25:05.061Z</time></trkpt><trkpt lat="46.0933085" lon="13.013236"><ele>129.0</ele><time>2026-04-04T10:25:06.06Z</time></trkpt><trkpt lat="46.0933953" lon="13.0133194"><ele>129.0</ele><time>2026-04-04T10:25:07.059Z</time></trkpt><trkpt lat="46.0934799" lon="13.0133906"><ele>129.0</ele><time>2026-04-04T10:25:08.061Z</time></trkpt><trkpt lat="46.0935661" lon="13.0134369"><ele>129.16666666666666</ele><time>2026-04-04T10:25:09.059Z</time></trkpt><trkpt lat="46.0936448" lon="13.0134682"><ele>129.33333333333334</ele><time>2026-04-04T10:25:10.059Z</time></trkpt><trkpt lat="46.0937228" lon="13.0134957"><ele>129.5</ele><time>2026-04-04T10:25:11.06Z</time></trkpt><trkpt lat="46.0937944" lon="13.0135146"><ele>129.66666666666669</ele><time>2026-04-04T10:25:12.059Z</time></trkpt><trkpt lat="46.0939042" lon="13.0135547"><ele>129.83333333333334</ele><time>2026-04-04T10:25:14.062Z</time></trkpt><trkpt lat="46.0939807" lon="13.0135831"><ele>130.0</ele><time>2026-04-04T10:25:16.061Z</time></trkpt><trkpt lat="46.0940555" lon="13.0136284"><ele>129.5</ele><time>2026-04-04T10:25:19.06Z</time></trkpt><trkpt lat="46.0941168" lon="13.0136672"><ele>129.0</ele><time>2026-04-04T10:25:22.061Z</time></trkpt><trkpt lat="46.0941997" lon="13.0136914"><ele>128.5</ele><time>2026-04-04T10:25:46.06Z</time></trkpt><trkpt lat="46.0942868" lon="13.0135815"><ele>128.0</ele><time>2026-04-04T10:25:48.06Z</time></trkpt><trkpt lat="46.0943229" lon="13.0134845"><ele>127.50000000000001</ele><time>2026-04-04T10:25:49.061Z</time></trkpt><trkpt lat="46.0943645" lon="13.0133896"><ele>127.0</ele><time>2026-04-04T10:25:50.061Z</time></trkpt><trkpt lat="46.0944118" lon="13.0133109"><ele>127.0</ele><time>2026-04-04T10:25:51.06Z</time></trkpt><trkpt lat="46.0944593" lon="13.0132357"><ele>126.99999999999999</ele><time>2026-04-04T10:25:52.059Z</time></trkpt><trkpt lat="46.0945481" lon="13.0130721"><ele>126.99999999999999</ele><time>2026-04-04T10:25:54.059Z</time></trkpt><trkpt lat="46.0946142" lon="13.0129471"><ele>127.0</ele><time>2026-04-04T10:25:55.06Z</time></trkpt><trkpt lat="46.0946861" lon="13.0128002"><ele>127.0</ele><time>2026-04-04T10:25:56.061Z</time></trkpt><trkpt lat="46.0947662" lon="13.0126513"><ele>127.0</ele><time>2026-04-04T10:25:57.06Z</time></trkpt><trkpt lat="46.0948435" lon="13.0125044"><ele>127.0</ele><time>2026-04-04T10:25:58.061Z</time></trkpt><trkpt lat="46.0949229" lon="13.012361"><ele>127.0</ele><time>2026-04-04T10:25:59.059Z</time></trkpt><trkpt lat="46.095004" lon="13.0122341"><ele>127.0</ele><time>2026-04-04T10:26:00.059Z</time></trkpt><trkpt lat="46.0950916" lon="13.0121198"><ele>127.25</ele><time>2026-04-04T10:26:01.06Z</time></trkpt><trkpt lat="46.0951882" lon="13.0120056"><ele>127.5</ele><time>2026-04-04T10:26:02.06Z</time></trkpt><trkpt lat="46.0952863" lon="13.0119048"><ele>127.75</ele><time>2026-04-04T10:26:03.061Z</time></trkpt><trkpt lat="46.0953865" lon="13.011809"><ele>128.0</ele><time>2026-04-04T10:26:04.062Z</time></trkpt><trkpt lat="46.0954879" lon="13.0117228"><ele>128.25</ele><time>2026-04-04T10:26:05.061Z</time></trkpt><trkpt lat="46.0955898" lon="13.0116461"><ele>128.5</ele><time>2026-04-04T10:26:06.061Z</time></trkpt><trkpt lat="46.0956965" lon="13.0115813"><ele>128.75</ele><time>2026-04-04T10:26:07.061Z</time></trkpt><trkpt lat="46.0958144" lon="13.0115077"><ele>129.0</ele><time>2026-04-04T10:26:08.06Z</time></trkpt><trkpt lat="46.0959546" lon="13.0114361"><ele>130.33333333333334</ele><time>2026-04-04T10:26:09.059Z</time></trkpt><trkpt lat="46.0960973" lon="13.0113591"><ele>131.66666666666669</ele><time>2026-04-04T10:26:10.06Z</time></trkpt><trkpt lat="46.0962428" lon="13.0112777"><ele>133.0</ele><time>2026-04-04T10:26:11.062Z</time></trkpt><trkpt lat="46.0963917" lon="13.0111999"><ele>133.0</ele><time>2026-04-04T10:26:12.06Z</time></trkpt><trkpt lat="46.0965477" lon="13.0111222"><ele>133.0</ele><time>2026-04-04T10:26:13.059Z</time></trkpt><trkpt lat="46.0967057" lon="13.011046"><ele>133.0</ele><time>2026-04-04T10:26:14.06Z</time></trkpt><trkpt lat="46.0968725" lon="13.0109596"><ele>132.33333333333334</ele><time>2026-04-04T10:26:15.06Z</time></trkpt><trkpt lat="46.0970352" lon="13.010882"><ele>131.66666666666666</ele><time>2026-04-04T10:26:16.059Z</time></trkpt><trkpt lat="46.097191" lon="13.010803"><ele>131.0</ele><time>2026-04-04T10:26:17.061Z</time></trkpt><trkpt lat="46.0973482" lon="13.0107197"><ele>131.0</ele><time>2026-04-04T10:26:18.06Z</time></trkpt><trkpt lat="46.0975072" lon="13.0106393"><ele>131.0</ele><time>2026-04-04T10:26:19.061Z</time></trkpt><trkpt lat="46.0976848" lon="13.0105445"><ele>131.0</ele><time>2026-04-04T10:26:20.061Z</time></trkpt><trkpt lat="46.0978857" lon="13.0104385"><ele>131.0</ele><time>2026-04-04T10:26:21.059Z</time></trkpt><trkpt lat="46.0980823" lon="13.0103455"><ele>131.0</ele><time>2026-04-04T10:26:22.06Z</time></trkpt><trkpt lat="46.0982852" lon="13.0102631"><ele>131.0</ele><time>2026-04-04T10:26:23.06Z</time></trkpt><trkpt lat="46.0984832" lon="13.0101918"><ele>131.33333333333331</ele><time>2026-04-04T10:26:24.061Z</time></trkpt><trkpt lat="46.0986868" lon="13.0101274"><ele>131.66666666666666</ele><time>2026-04-04T10:26:25.059Z</time></trkpt><trkpt lat="46.0989084" lon="13.0100701"><ele>132.0</ele><time>2026-04-04T10:26:26.061Z</time></trkpt><trkpt lat="46.0991384" lon="13.0100325"><ele>132.66666666666666</ele><time>2026-04-04T10:26:27.06Z</time></trkpt><trkpt lat="46.0993652" lon="13.0100068"><ele>133.33333333333331</ele><time>2026-04-04T10:26:28.06Z</time></trkpt><trkpt lat="46.0995839" lon="13.0099753"><ele>134.0</ele><time>2026-04-04T10:26:29.06Z</time></trkpt><trkpt lat="46.0997961" lon="13.0099426"><ele>134.66666666666666</ele><time>2026-04-04T10:26:30.061Z</time></trkpt><trkpt lat="46.0999996" lon="13.0099129"><ele>135.33333333333334</ele><time>2026-04-04T10:26:31.06Z</time></trkpt><trkpt lat="46.1001888" lon="13.0098854"><ele>136.0</ele><time>2026-04-04T10:26:32.06Z</time></trkpt><trkpt lat="46.1003704" lon="13.0098615"><ele>136.0</ele><time>2026-04-04T10:26:33.061Z</time></trkpt><trkpt lat="46.1005459" lon="13.0098268"><ele>136.0</ele><time>2026-04-04T10:26:34.061Z</time></trkpt><trkpt lat="46.1007201" lon="13.0097752"><ele>136.0</ele><time>2026-04-04T10:26:35.061Z</time></trkpt><trkpt lat="46.1008944" lon="13.0096995"><ele>135.66666666666669</ele><time>2026-04-04T10:26:36.061Z</time></trkpt><trkpt lat="46.1010661" lon="13.0096027"><ele>135.33333333333334</ele><time>2026-04-04T10:26:37.06Z</time></trkpt><trkpt lat="46.1012347" lon="13.0094901"><ele>135.0</ele><time>2026-04-04T10:26:38.06Z</time></trkpt><trkpt lat="46.1014063" lon="13.0093568"><ele>135.0</ele><time>2026-04-04T10:26:39.059Z</time></trkpt><trkpt lat="46.1015703" lon="13.0092182"><ele>135.0</ele><time>2026-04-04T10:26:40.061Z</time></trkpt><trkpt lat="46.1017409" lon="13.0090837"><ele>135.0</ele><time>2026-04-04T10:26:41.06Z</time></trkpt><trkpt lat="46.1019067" lon="13.0089467"><ele>135.33333333333334</ele><time>2026-04-04T10:26:42.061Z</time></trkpt><trkpt lat="46.1020767" lon="13.0088049"><ele>135.66666666666669</ele><time>2026-04-04T10:26:43.06Z</time></trkpt><trkpt lat="46.1022464" lon="13.0086709"><ele>136.0</ele><time>2026-04-04T10:26:44.06Z</time></trkpt><trkpt lat="46.1024116" lon="13.008531"><ele>135.33333333333334</ele><time>2026-04-04T10:26:45.061Z</time></trkpt><trkpt lat="46.1025783" lon="13.0083917"><ele>134.66666666666666</ele><time>2026-04-04T10:26:46.061Z</time></trkpt><trkpt lat="46.1027508" lon="13.0082504"><ele>134.0</ele><time>2026-04-04T10:26:47.06Z</time></trkpt><trkpt lat="46.1029267" lon="13.0081082"><ele>134.0</ele><time>2026-04-04T10:26:48.062Z</time></trkpt><trkpt lat="46.103106" lon="13.007968"><ele>134.0</ele><time>2026-04-04T10:26:49.059Z</time></trkpt><trkpt lat="46.103276" lon="13.0078285"><ele>134.0</ele><time>2026-04-04T10:26:50.059Z</time></trkpt><trkpt lat="46.1034469" lon="13.0076876"><ele>134.33333333333331</ele><time>2026-04-04T10:26:51.061Z</time></trkpt><trkpt lat="46.1036204" lon="13.0075456"><ele>134.66666666666666</ele><time>2026-04-04T10:26:52.06Z</time></trkpt><trkpt lat="46.1037888" lon="13.0074062"><ele>135.0</ele><time>2026-04-04T10:26:53.06Z</time></trkpt><trkpt lat="46.1039637" lon="13.0072633"><ele>135.0</ele><time>2026-04-04T10:26:54.059Z</time></trkpt><trkpt lat="46.1041397" lon="13.0071168"><ele>135.0</ele><time>2026-04-04T10:26:55.06Z</time></trkpt><trkpt lat="46.1043144" lon="13.006972"><ele>135.0</ele><time>2026-04-04T10:26:56.06Z</time></trkpt><trkpt lat="46.1044873" lon="13.006834"><ele>135.0</ele><time>2026-04-04T10:26:57.06Z</time></trkpt><trkpt lat="46.1046616" lon="13.0067002"><ele>135.0</ele><time>2026-04-04T10:26:58.06Z</time></trkpt><trkpt lat="46.1048273" lon="13.0065561"><ele>135.0</ele><time>2026-04-04T10:26:59.062Z</time></trkpt><trkpt lat="46.104993" lon="13.006421"><ele>136.33333333333334</ele><time>2026-04-04T10:27:00.06Z</time></trkpt><trkpt lat="46.1051621" lon="13.0062824"><ele>137.66666666666669</ele><time>2026-04-04T10:27:01.061Z</time></trkpt><trkpt lat="46.1053304" lon="13.006153"><ele>139.0</ele><time>2026-04-04T10:27:02.06Z</time></trkpt><trkpt lat="46.1054988" lon="13.0060382"><ele>139.0</ele><time>2026-04-04T10:27:03.061Z</time></trkpt><trkpt lat="46.1056712" lon="13.0059432"><ele>139.0</ele><time>2026-04-04T10:27:04.06Z</time></trkpt><trkpt lat="46.1058487" lon="13.0058643"><ele>139.0</ele><time>2026-04-04T10:27:05.06Z</time></trkpt><trkpt lat="46.1060242" lon="13.005805"><ele>139.0</ele><time>2026-04-04T10:27:06.061Z</time></trkpt><trkpt lat="46.1062024" lon="13.0057725"><ele>139.0</ele><time>2026-04-04T10:27:07.059Z</time></trkpt><trkpt lat="46.1063846" lon="13.0057532"><ele>139.0</ele><time>2026-04-04T10:27:08.06Z</time></trkpt><trkpt lat="46.1065644" lon="13.0057535"><ele>139.33333333333334</ele><time>2026-04-04T10:27:09.06Z</time></trkpt><trkpt lat="46.1067462" lon="13.0057664"><ele>139.66666666666666</ele><time>2026-04-04T10:27:10.06Z</time></trkpt><trkpt lat="46.1069268" lon="13.0057857"><ele>140.0</ele><time>2026-04-04T10:27:11.06Z</time></trkpt><trkpt lat="46.1070957" lon="13.0058009"><ele>140.0</ele><time>2026-04-04T10:27:12.06Z</time></trkpt><trkpt lat="46.1072609" lon="13.0058162"><ele>140.0</ele><time>2026-04-04T10:27:13.06Z</time></trkpt><trkpt lat="46.1074247" lon="13.0058353"><ele>140.0</ele><time>2026-04-04T10:27:14.06Z</time></trkpt><trkpt lat="46.1075841" lon="13.0058504"><ele>140.33333333333331</ele><time>2026-04-04T10:27:15.06Z</time></trkpt><trkpt lat="46.1077368" lon="13.0058715"><ele>140.66666666666666</ele><time>2026-04-04T10:27:16.06Z</time></trkpt><trkpt lat="46.1078873" lon="13.0058838"><ele>141.0</ele><time>2026-04-04T10:27:17.061Z</time></trkpt><trkpt lat="46.1080329" lon="13.0058985"><ele>141.0</ele><time>2026-04-04T10:27:18.061Z</time></trkpt><trkpt lat="46.1081743" lon="13.005902"><ele>141.0</ele><time>2026-04-04T10:27:19.06Z</time></trkpt><trkpt lat="46.1083108" lon="13.0059128"><ele>141.0</ele><time>2026-04-04T10:27:20.059Z</time></trkpt><trkpt lat="46.1084482" lon="13.0059164"><ele>141.0</ele><time>2026-04-04T10:27:21.06Z</time></trkpt><trkpt lat="46.1085871" lon="13.0059034"><ele>141.0</ele><time>2026-04-04T10:27:22.059Z</time></trkpt><trkpt lat="46.1087219" lon="13.0058661"><ele>141.0</ele><time>2026-04-04T10:27:23.061Z</time></trkpt><trkpt lat="46.1088552" lon="13.0057958"><ele>141.0</ele><time>2026-04-04T10:27:24.061Z</time></trkpt><trkpt lat="46.1089812" lon="13.0056885"><ele>141.0</ele><time>2026-04-04T10:27:25.061Z</time></trkpt><trkpt lat="46.1091036" lon="13.0055677"><ele>141.75</ele><time>2026-04-04T10:27:26.062Z</time></trkpt><trkpt lat="46.1092192" lon="13.005452"><ele>142.5</ele><time>2026-04-04T10:27:27.06Z</time></trkpt><trkpt lat="46.109332" lon="13.0053284"><ele>143.25</ele><time>2026-04-04T10:27:28.061Z</time></trkpt><trkpt lat="46.1094381" lon="13.005212"><ele>144.0</ele><time>2026-04-04T10:27:29.06Z</time></trkpt><trkpt lat="46.1095445" lon="13.0050967"><ele>144.0</ele><time>2026-04-04T10:27:30.06Z</time></trkpt><trkpt lat="46.1096566" lon="13.0049805"><ele>144.0</ele><time>2026-04-04T10:27:31.061Z</time></trkpt><trkpt lat="46.109766" lon="13.0048562"><ele>144.0</ele><time>2026-04-04T10:27:32.059Z</time></trkpt><trkpt lat="46.1098742" lon="13.0047444"><ele>144.0</ele><time>2026-04-04T10:27:33.06Z</time></trkpt><trkpt lat="46.1099888" lon="13.0046201"><ele>144.0</ele><time>2026-04-04T10:27:34.061Z</time></trkpt><trkpt lat="46.1100976" lon="13.0045013"><ele>144.0</ele><time>2026-04-04T10:27:35.06Z</time></trkpt><trkpt lat="46.1102101" lon="13.0043786"><ele>144.0</ele><time>2026-04-04T10:27:36.061Z</time></trkpt><trkpt lat="46.1103221" lon="13.0042586"><ele>144.0</ele><time>2026-04-04T10:27:37.06Z</time></trkpt><trkpt lat="46.1104305" lon="13.004141"><ele>144.25</ele><time>2026-04-04T10:27:38.061Z</time></trkpt><trkpt lat="46.1105338" lon="13.0040328"><ele>144.5</ele><time>2026-04-04T10:27:39.061Z</time></trkpt><trkpt lat="46.1106419" lon="13.003923"><ele>144.75</ele><time>2026-04-04T10:27:40.061Z</time></trkpt><trkpt lat="46.1107557" lon="13.0038297"><ele>145.0</ele><time>2026-04-04T10:27:41.059Z</time></trkpt><trkpt lat="46.1108734" lon="13.0037422"><ele>145.25</ele><time>2026-04-04T10:27:42.06Z</time></trkpt><trkpt lat="46.1109923" lon="13.0036817"><ele>145.5</ele><time>2026-04-04T10:27:43.059Z</time></trkpt><trkpt lat="46.1111176" lon="13.003636"><ele>145.75</ele><time>2026-04-04T10:27:44.06Z</time></trkpt><trkpt lat="46.111244" lon="13.0036204"><ele>146.0</ele><time>2026-04-04T10:27:45.061Z</time></trkpt><trkpt lat="46.1113716" lon="13.0036204"><ele>146.0</ele><time>2026-04-04T10:27:46.06Z</time></trkpt><trkpt lat="46.1114863" lon="13.0036275"><ele>146.0</ele><time>2026-04-04T10:27:47.06Z</time></trkpt><trkpt lat="46.1115901" lon="13.0036301"><ele>146.0</ele><time>2026-04-04T10:27:48.06Z</time></trkpt><trkpt lat="46.1116606" lon="13.0036529"><ele>146.0</ele><time>2026-04-04T10:27:49.061Z</time></trkpt><trkpt lat="46.1117307" lon="13.0036933"><ele>146.0</ele><time>2026-04-04T10:27:50.059Z</time></trkpt><trkpt lat="46.1117849" lon="13.0037423"><ele>146.0</ele><time>2026-04-04T10:27:52.06Z</time></trkpt><trkpt lat="46.1118522" lon="13.0037824"><ele>146.0</ele><time>2026-04-04T10:28:03.061Z</time></trkpt><trkpt lat="46.111931" lon="13.0037844"><ele>146.0</ele><time>2026-04-04T10:28:07.061Z</time></trkpt><trkpt lat="46.1119831" lon="13.0037223"><ele>146.0</ele><time>2026-04-04T10:28:09.06Z</time></trkpt><trkpt lat="46.1120239" lon="13.003611"><ele>146.0</ele><time>2026-04-04T10:28:11.06Z</time></trkpt><trkpt lat="46.1120987" lon="13.0035223"><ele>146.0</ele><time>2026-04-04T10:28:13.062Z</time></trkpt><trkpt lat="46.1122102" lon="13.0034925"><ele>146.0</ele><time>2026-04-04T10:28:15.062Z</time></trkpt><trkpt lat="46.1123233" lon="13.0035074"><ele>146.0</ele><time>2026-04-04T10:28:17.059Z</time></trkpt><trkpt lat="46.1123969" lon="13.0035343"><ele>146.0</ele><time>2026-04-04T10:28:18.062Z</time></trkpt><trkpt lat="46.1124774" lon="13.0035526"><ele>146.0</ele><time>2026-04-04T10:28:19.06Z</time></trkpt><trkpt lat="46.1125661" lon="13.0035512"><ele>146.0</ele><time>2026-04-04T10:28:20.06Z</time></trkpt><trkpt lat="46.1126577" lon="13.0035384"><ele>146.0</ele><time>2026-04-04T10:28:21.061Z</time></trkpt><trkpt lat="46.1127578" lon="13.0035111"><ele>146.0</ele><time>2026-04-04T10:28:22.06Z</time></trkpt><trkpt lat="46.1128575" lon="13.0034845"><ele>145.8</ele><time>2026-04-04T10:28:23.06Z</time></trkpt><trkpt lat="46.1129645" lon="13.0034568"><ele>145.6</ele><time>2026-04-04T10:28:24.059Z</time></trkpt><trkpt lat="46.11307" lon="13.0034301"><ele>145.4</ele><time>2026-04-04T10:28:25.06Z</time></trkpt><trkpt lat="46.1131806" lon="13.0033977"><ele>145.2</ele><time>2026-04-04T10:28:26.059Z</time></trkpt><trkpt lat="46.1132938" lon="13.0033692"><ele>145.0</ele><time>2026-04-04T10:28:27.061Z</time></trkpt><trkpt lat="46.1134086" lon="13.0033324"><ele>145.25</ele><time>2026-04-04T10:28:28.059Z</time></trkpt><trkpt lat="46.1135232" lon="13.0032943"><ele>145.5</ele><time>2026-04-04T10:28:29.061Z</time></trkpt><trkpt lat="46.113643" lon="13.0032514"><ele>145.75</ele><time>2026-04-04T10:28:30.061Z</time></trkpt><trkpt lat="46.1137631" lon="13.0032087"><ele>146.0</ele><time>2026-04-04T10:28:31.061Z</time></trkpt><trkpt lat="46.1138881" lon="13.0031668"><ele>146.0</ele><time>2026-04-04T10:28:32.061Z</time></trkpt><trkpt lat="46.1140112" lon="13.0031299"><ele>146.0</ele><time>2026-04-04T10:28:33.061Z</time></trkpt><trkpt lat="46.1141351" lon="13.00309"><ele>146.0</ele><time>2026-04-04T10:28:34.06Z</time></trkpt><trkpt lat="46.114248" lon="13.0030546"><ele>146.0</ele><time>2026-04-04T10:28:35.061Z</time></trkpt><trkpt lat="46.1143581" lon="13.0030162"><ele>146.25</ele><time>2026-04-04T10:28:36.061Z</time></trkpt><trkpt lat="46.1144594" lon="13.0029838"><ele>146.5</ele><time>2026-04-04T10:28:37.06Z</time></trkpt><trkpt lat="46.1145683" lon="13.0029278"><ele>146.75</ele><time>2026-04-04T10:28:38.059Z</time></trkpt><trkpt lat="46.1146737" lon="13.0028423"><ele>147.0</ele><time>2026-04-04T10:28:39.06Z</time></trkpt><trkpt lat="46.1147779" lon="13.0027338"><ele>147.0</ele><time>2026-04-04T10:28:40.06Z</time></trkpt><trkpt lat="46.1148791" lon="13.0026152"><ele>147.0</ele><time>2026-04-04T10:28:41.061Z</time></trkpt><trkpt lat="46.1149866" lon="13.0025072"><ele>147.0</ele><time>2026-04-04T10:28:42.061Z</time></trkpt><trkpt lat="46.115098" lon="13.0024072"><ele>147.0</ele><time>2026-04-04T10:28:43.061Z</time></trkpt><trkpt lat="46.1152154" lon="13.0023053"><ele>147.0</ele><time>2026-04-04T10:28:44.062Z</time></trkpt><trkpt lat="46.1153306" lon="13.0022143"><ele>147.0</ele><time>2026-04-04T10:28:45.061Z</time></trkpt><trkpt lat="46.115448" lon="13.0021351"><ele>147.0</ele><time>2026-04-04T10:28:46.061Z</time></trkpt><trkpt lat="46.1155725" lon="13.0020578"><ele>147.0</ele><time>2026-04-04T10:28:47.06Z</time></trkpt><trkpt lat="46.1157084" lon="13.0019889"><ele>147.66666666666666</ele><time>2026-04-04T10:28:48.059Z</time></trkpt><trkpt lat="46.1158513" lon="13.0019225"><ele>148.33333333333331</ele><time>2026-04-04T10:28:49.06Z</time></trkpt><trkpt lat="46.1159977" lon="13.0018534"><ele>149.0</ele><time>2026-04-04T10:28:50.061Z</time></trkpt><trkpt lat="46.1161519" lon="13.0017903"><ele>149.0</ele><time>2026-04-04T10:28:51.059Z</time></trkpt><trkpt lat="46.1163107" lon="13.0017403"><ele>149.0</ele><time>2026-04-04T10:28:52.061Z</time></trkpt><trkpt lat="46.1164707" lon="13.0017017"><ele>149.0</ele><time>2026-04-04T10:28:53.06Z</time></trkpt><trkpt lat="46.1166326" lon="13.0016807"><ele>149.0</ele><time>2026-04-04T10:28:54.061Z</time></trkpt><trkpt lat="46.1167978" lon="13.001667"><ele>149.0</ele><time>2026-04-04T10:28:55.06Z</time></trkpt><trkpt lat="46.1169671" lon="13.0016552"><ele>149.0</ele><time>2026-04-04T10:28:56.061Z</time></trkpt><trkpt lat="46.1171385" lon="13.0016459"><ele>149.0</ele><time>2026-04-04T10:28:57.061Z</time></trkpt><trkpt lat="46.117318" lon="13.001639"><ele>149.0</ele><time>2026-04-04T10:28:58.06Z</time></trkpt><trkpt lat="46.1174963" lon="13.001634"><ele>149.0</ele><time>2026-04-04T10:28:59.06Z</time></trkpt><trkpt lat="46.1176749" lon="13.001628"><ele>149.0</ele><time>2026-04-04T10:29:00.062Z</time></trkpt><trkpt lat="46.1178567" lon="13.0016292"><ele>149.0</ele><time>2026-04-04T10:29:01.06Z</time></trkpt><trkpt lat="46.1180344" lon="13.0016208"><ele>149.0</ele><time>2026-04-04T10:29:02.06Z</time></trkpt><trkpt lat="46.1182072" lon="13.0016095"><ele>148.33333333333331</ele><time>2026-04-04T10:29:03.059Z</time></trkpt><trkpt lat="46.1183882" lon="13.0016035"><ele>147.66666666666666</ele><time>2026-04-04T10:29:04.061Z</time></trkpt><trkpt lat="46.1185706" lon="13.0015935"><ele>147.0</ele><time>2026-04-04T10:29:05.061Z</time></trkpt><trkpt lat="46.1187565" lon="13.0015873"><ele>147.0</ele><time>2026-04-04T10:29:06.06Z</time></trkpt><trkpt lat="46.1189388" lon="13.0015833"><ele>147.0</ele><time>2026-04-04T10:29:07.061Z</time></trkpt><trkpt lat="46.1191245" lon="13.0015767"><ele>147.0</ele><time>2026-04-04T10:29:08.059Z</time></trkpt><trkpt lat="46.1193125" lon="13.0015632"><ele>147.33333333333334</ele><time>2026-04-04T10:29:09.061Z</time></trkpt><trkpt lat="46.1195171" lon="13.0015333"><ele>147.66666666666669</ele><time>2026-04-04T10:29:10.059Z</time></trkpt><trkpt lat="46.1197345" lon="13.0014825"><ele>148.0</ele><time>2026-04-04T10:29:11.061Z</time></trkpt><trkpt lat="46.1199734" lon="13.0014204"><ele>148.5</ele><time>2026-04-04T10:29:12.061Z</time></trkpt><trkpt lat="46.1202135" lon="13.0013523"><ele>149.0</ele><time>2026-04-04T10:29:13.061Z</time></trkpt><trkpt lat="46.1204523" lon="13.0012815"><ele>149.0</ele><time>2026-04-04T10:29:14.059Z</time></trkpt><trkpt lat="46.1206859" lon="13.0012059"><ele>149.0</ele><time>2026-04-04T10:29:15.061Z</time></trkpt><trkpt lat="46.1209039" lon="13.0011354"><ele>149.66666666666666</ele><time>2026-04-04T10:29:16.059Z</time></trkpt><trkpt lat="46.1211122" lon="13.0010707"><ele>150.33333333333334</ele><time>2026-04-04T10:29:17.061Z</time></trkpt><trkpt lat="46.1213122" lon="13.0010037"><ele>151.0</ele><time>2026-04-04T10:29:18.06Z</time></trkpt><trkpt lat="46.1215068" lon="13.000939"><ele>150.33333333333334</ele><time>2026-04-04T10:29:19.061Z</time></trkpt><trkpt lat="46.1216942" lon="13.0008775"><ele>149.66666666666666</ele><time>2026-04-04T10:29:20.06Z</time></trkpt><trkpt lat="46.1218774" lon="13.0008197"><ele>149.0</ele><time>2026-04-04T10:29:21.06Z</time></trkpt><trkpt lat="46.1220628" lon="13.0007584"><ele>149.0</ele><time>2026-04-04T10:29:22.06Z</time></trkpt><trkpt lat="46.1222521" lon="13.0006944"><ele>149.0</ele><time>2026-04-04T10:29:23.06Z</time></trkpt><trkpt lat="46.1224379" lon="13.0006383"><ele>149.0</ele><time>2026-04-04T10:29:24.061Z</time></trkpt><trkpt lat="46.1226304" lon="13.0005819"><ele>149.66666666666666</ele><time>2026-04-04T10:29:25.06Z</time></trkpt><trkpt lat="46.1228173" lon="13.0005336"><ele>150.33333333333334</ele><time>2026-04-04T10:29:26.061Z</time></trkpt><trkpt lat="46.1230093" lon="13.0004955"><ele>151.0</ele><time>2026-04-04T10:29:27.061Z</time></trkpt><trkpt lat="46.1231964" lon="13.000456"><ele>151.33333333333334</ele><time>2026-04-04T10:29:28.059Z</time></trkpt><trkpt lat="46.1233853" lon="13.000421"><ele>151.66666666666666</ele><time>2026-04-04T10:29:29.06Z</time></trkpt><trkpt lat="46.1235717" lon="13.0003854"><ele>152.0</ele><time>2026-04-04T10:29:30.062Z</time></trkpt><trkpt lat="46.1237584" lon="13.0003577"><ele>152.0</ele><time>2026-04-04T10:29:31.062Z</time></trkpt><trkpt lat="46.1239413" lon="13.0003226"><ele>152.0</ele><time>2026-04-04T10:29:32.061Z</time></trkpt><trkpt lat="46.1241199" lon="13.0002836"><ele>152.0</ele><time>2026-04-04T10:29:33.061Z</time></trkpt><trkpt lat="46.1242951" lon="13.00025"><ele>151.66666666666666</ele><time>2026-04-04T10:29:34.06Z</time></trkpt><trkpt lat="46.1244736" lon="13.0002104"><ele>151.33333333333334</ele><time>2026-04-04T10:29:35.06Z</time></trkpt><trkpt lat="46.1246517" lon="13.0001792"><ele>151.0</ele><time>2026-04-04T10:29:36.059Z</time></trkpt><trkpt lat="46.1248291" lon="13.0001527"><ele>152.0</ele><time>2026-04-04T10:29:37.06Z</time></trkpt><trkpt lat="46.1250037" lon="13.0001243"><ele>153.0</ele><time>2026-04-04T10:29:38.059Z</time></trkpt><trkpt lat="46.1251742" lon="13.000093"><ele>154.0</ele><time>2026-04-04T10:29:39.06Z</time></trkpt><trkpt lat="46.1253483" lon="13.0000599"><ele>154.0</ele><time>2026-04-04T10:29:40.062Z</time></trkpt><trkpt lat="46.1255168" lon="13.0000297"><ele>154.0</ele><time>2026-04-04T10:29:41.059Z</time></trkpt><trkpt lat="46.1256898" lon="12.9999999"><ele>154.0</ele><time>2026-04-04T10:29:42.061Z</time></trkpt><trkpt lat="46.1258615" lon="12.9999637"><ele>154.33333333333334</ele><time>2026-04-04T10:29:43.06Z</time></trkpt><trkpt lat="46.1260338" lon="12.999931"><ele>154.66666666666666</ele><time>2026-04-04T10:29:44.061Z</time></trkpt><trkpt lat="46.1262084" lon="12.9998984"><ele>155.0</ele><time>2026-04-04T10:29:45.062Z</time></trkpt><trkpt lat="46.1263854" lon="12.9998678"><ele>155.33333333333331</ele><time>2026-04-04T10:29:46.06Z</time></trkpt><trkpt lat="46.126563" lon="12.9998358"><ele>155.66666666666666</ele><time>2026-04-04T10:29:47.06Z</time></trkpt><trkpt lat="46.1267394" lon="12.9998059"><ele>156.0</ele><time>2026-04-04T10:29:48.06Z</time></trkpt><trkpt lat="46.1269139" lon="12.9997738"><ele>156.0</ele><time>2026-04-04T10:29:49.06Z</time></trkpt><trkpt lat="46.1270934" lon="12.9997444"><ele>156.0</ele><time>2026-04-04T10:29:50.061Z</time></trkpt><trkpt lat="46.1272674" lon="12.9997096"><ele>156.0</ele><time>2026-04-04T10:29:51.06Z</time></trkpt><trkpt lat="46.1274413" lon="12.9996783"><ele>156.66666666666666</ele><time>2026-04-04T10:29:52.059Z</time></trkpt><trkpt lat="46.1276022" lon="12.9996436"><ele>157.33333333333331</ele><time>2026-04-04T10:29:53.061Z</time></trkpt><trkpt lat="46.1277603" lon="12.9996141"><ele>158.0</ele><time>2026-04-04T10:29:54.06Z</time></trkpt><trkpt lat="46.1279111" lon="12.9995807"><ele>158.0</ele><time>2026-04-04T10:29:55.061Z</time></trkpt><trkpt lat="46.1280648" lon="12.9995463"><ele>158.0</ele><time>2026-04-04T10:29:56.061Z</time></trkpt><trkpt lat="46.1282168" lon="12.9995184"><ele>158.0</ele><time>2026-04-04T10:29:57.062Z</time></trkpt><trkpt lat="46.1283664" lon="12.9994945"><ele>156.66666666666666</ele><time>2026-04-04T10:29:58.06Z</time></trkpt><trkpt lat="46.1285153" lon="12.9994669"><ele>155.33333333333334</ele><time>2026-04-04T10:29:59.06Z</time></trkpt><trkpt lat="46.1286656" lon="12.9994426"><ele>154.0</ele><time>2026-04-04T10:30:00.061Z</time></trkpt><trkpt lat="46.1288183" lon="12.9994164"><ele>154.0</ele><time>2026-04-04T10:30:01.061Z</time></trkpt><trkpt lat="46.1289753" lon="12.999396"><ele>154.0</ele><time>2026-04-04T10:30:02.059Z</time></trkpt><trkpt lat="46.1291371" lon="12.9993823"><ele>154.0</ele><time>2026-04-04T10:30:03.061Z</time></trkpt><trkpt lat="46.129303" lon="12.9993775"><ele>154.66666666666669</ele><time>2026-04-04T10:30:04.061Z</time></trkpt><trkpt lat="46.1294725" lon="12.9993711"><ele>155.33333333333334</ele><time>2026-04-04T10:30:05.06Z</time></trkpt><trkpt lat="46.1296452" lon="12.9993715"><ele>156.0</ele><time>2026-04-04T10:30:06.061Z</time></trkpt><trkpt lat="46.129816" lon="12.9993763"><ele>157.33333333333334</ele><time>2026-04-04T10:30:07.061Z</time></trkpt><trkpt lat="46.1299893" lon="12.9993783"><ele>158.66666666666669</ele><time>2026-04-04T10:30:08.061Z</time></trkpt><trkpt lat="46.1301632" lon="12.9993796"><ele>160.0</ele><time>2026-04-04T10:30:09.06Z</time></trkpt><trkpt lat="46.1303329" lon="12.9993788"><ele>160.0</ele><time>2026-04-04T10:30:10.059Z</time></trkpt><trkpt lat="46.1304977" lon="12.9993787"><ele>160.0</ele><time>2026-04-04T10:30:11.059Z</time></trkpt><trkpt lat="46.1306583" lon="12.9993866"><ele>160.0</ele><time>2026-04-04T10:30:12.06Z</time></trkpt><trkpt lat="46.1308085" lon="12.999393"><ele>160.0</ele><time>2026-04-04T10:30:13.061Z</time></trkpt><trkpt lat="46.1309573" lon="12.9993999"><ele>160.0</ele><time>2026-04-04T10:30:14.061Z</time></trkpt><trkpt lat="46.1311153" lon="12.9994023"><ele>160.0</ele><time>2026-04-04T10:30:15.061Z</time></trkpt><trkpt lat="46.1312778" lon="12.9994046"><ele>160.0</ele><time>2026-04-04T10:30:16.059Z</time></trkpt><trkpt lat="46.1314374" lon="12.9994098"><ele>160.0</ele><time>2026-04-04T10:30:17.06Z</time></trkpt><trkpt lat="46.1316021" lon="12.9994114"><ele>160.0</ele><time>2026-04-04T10:30:18.06Z</time></trkpt><trkpt lat="46.1317656" lon="12.999413"><ele>160.0</ele><time>2026-04-04T10:30:19.06Z</time></trkpt><trkpt lat="46.1319312" lon="12.9994154"><ele>160.0</ele><time>2026-04-04T10:30:20.061Z</time></trkpt><trkpt lat="46.1321012" lon="12.9994162"><ele>160.0</ele><time>2026-04-04T10:30:21.06Z</time></trkpt><trkpt lat="46.1322755" lon="12.9994168"><ele>159.66666666666669</ele><time>2026-04-04T10:30:22.061Z</time></trkpt><trkpt lat="46.132447" lon="12.9994098"><ele>159.33333333333334</ele><time>2026-04-04T10:30:23.06Z</time></trkpt><trkpt lat="46.1326131" lon="12.9994116"><ele>159.0</ele><time>2026-04-04T10:30:24.06Z</time></trkpt><trkpt lat="46.1327774" lon="12.9994147"><ele>159.0</ele><time>2026-04-04T10:30:25.06Z</time></trkpt><trkpt lat="46.1329477" lon="12.9994155"><ele>159.0</ele><time>2026-04-04T10:30:26.059Z</time></trkpt><trkpt lat="46.1331175" lon="12.9994246"><ele>159.0</ele><time>2026-04-04T10:30:27.06Z</time></trkpt><trkpt lat="46.1332918" lon="12.9994236"><ele>160.0</ele><time>2026-04-04T10:30:28.062Z</time></trkpt><trkpt lat="46.13347" lon="12.9994288"><ele>161.0</ele><time>2026-04-04T10:30:29.06Z</time></trkpt><trkpt lat="46.1336442" lon="12.9994387"><ele>162.0</ele><time>2026-04-04T10:30:30.062Z</time></trkpt><trkpt lat="46.1338163" lon="12.999462"><ele>162.0</ele><time>2026-04-04T10:30:31.059Z</time></trkpt><trkpt lat="46.1339905" lon="12.9994933"><ele>162.0</ele><time>2026-04-04T10:30:32.06Z</time></trkpt><trkpt lat="46.1341616" lon="12.9995394"><ele>162.0</ele><time>2026-04-04T10:30:33.06Z</time></trkpt><trkpt lat="46.1343323" lon="12.9995959"><ele>162.66666666666666</ele><time>2026-04-04T10:30:34.061Z</time></trkpt><trkpt lat="46.134502" lon="12.9996638"><ele>163.33333333333331</ele><time>2026-04-04T10:30:35.06Z</time></trkpt><trkpt lat="46.1346634" lon="12.9997351"><ele>164.0</ele><time>2026-04-04T10:30:36.06Z</time></trkpt><trkpt lat="46.1348255" lon="12.9997998"><ele>164.0</ele><time>2026-04-04T10:30:37.061Z</time></trkpt><trkpt lat="46.1349788" lon="12.9998665"><ele>164.0</ele><time>2026-04-04T10:30:38.06Z</time></trkpt><trkpt lat="46.1351269" lon="12.9999324"><ele>164.0</ele><time>2026-04-04T10:30:39.06Z</time></trkpt><trkpt lat="46.1352766" lon="13.0000003"><ele>164.0</ele><time>2026-04-04T10:30:40.061Z</time></trkpt><trkpt lat="46.1354265" lon="13.0000614"><ele>164.0</ele><time>2026-04-04T10:30:41.06Z</time></trkpt><trkpt lat="46.1355698" lon="13.0001223"><ele>164.0</ele><time>2026-04-04T10:30:42.059Z</time></trkpt><trkpt lat="46.135719" lon="13.0001879"><ele>164.0</ele><time>2026-04-04T10:30:43.059Z</time></trkpt><trkpt lat="46.1358725" lon="13.0002539"><ele>164.0</ele><time>2026-04-04T10:30:44.061Z</time></trkpt><trkpt lat="46.1360283" lon="13.0003246"><ele>164.0</ele><time>2026-04-04T10:30:45.062Z</time></trkpt><trkpt lat="46.1361871" lon="13.0003929"><ele>164.0</ele><time>2026-04-04T10:30:46.06Z</time></trkpt><trkpt lat="46.1363531" lon="13.0004677"><ele>164.0</ele><time>2026-04-04T10:30:47.061Z</time></trkpt><trkpt lat="46.1365204" lon="13.0005393"><ele>164.0</ele><time>2026-04-04T10:30:48.06Z</time></trkpt><trkpt lat="46.1366909" lon="13.0006074"><ele>164.66666666666666</ele><time>2026-04-04T10:30:49.062Z</time></trkpt><trkpt lat="46.1368657" lon="13.0006693"><ele>165.33333333333334</ele><time>2026-04-04T10:30:50.06Z</time></trkpt><trkpt lat="46.1370573" lon="13.0007333"><ele>166.0</ele><time>2026-04-04T10:30:51.06Z</time></trkpt><trkpt lat="46.1372601" lon="13.0008292"><ele>166.33333333333334</ele><time>2026-04-04T10:30:52.06Z</time></trkpt><trkpt lat="46.1374601" lon="13.0009276"><ele>166.66666666666666</ele><time>2026-04-04T10:30:53.06Z</time></trkpt><trkpt lat="46.1376491" lon="13.0010271"><ele>167.0</ele><time>2026-04-04T10:30:54.059Z</time></trkpt><trkpt lat="46.1378264" lon="13.0011254"><ele>167.0</ele><time>2026-04-04T10:30:55.06Z</time></trkpt><trkpt lat="46.1379919" lon="13.0012194"><ele>167.0</ele><time>2026-04-04T10:30:56.06Z</time></trkpt><trkpt lat="46.1381512" lon="13.0013125"><ele>167.0</ele><time>2026-04-04T10:30:57.059Z</time></trkpt><trkpt lat="46.1382955" lon="13.0013981"><ele>167.0</ele><time>2026-04-04T10:30:58.061Z</time></trkpt><trkpt lat="46.1384364" lon="13.00148"><ele>167.0</ele><time>2026-04-04T10:30:59.061Z</time></trkpt><trkpt lat="46.1385758" lon="13.0015578"><ele>167.0</ele><time>2026-04-04T10:31:00.06Z</time></trkpt><trkpt lat="46.1387118" lon="13.0016409"><ele>167.0</ele><time>2026-04-04T10:31:01.061Z</time></trkpt><trkpt lat="46.1388499" lon="13.0017166"><ele>167.0</ele><time>2026-04-04T10:31:02.06Z</time></trkpt><trkpt lat="46.138985" lon="13.0017964"><ele>167.0</ele><time>2026-04-04T10:31:03.059Z</time></trkpt><trkpt lat="46.1391228" lon="13.0018717"><ele>167.0</ele><time>2026-04-04T10:31:04.06Z</time></trkpt><trkpt lat="46.1392499" lon="13.0019492"><ele>167.0</ele><time>2026-04-04T10:31:05.061Z</time></trkpt><trkpt lat="46.1393759" lon="13.0020254"><ele>167.0</ele><time>2026-04-04T10:31:06.061Z</time></trkpt><trkpt lat="46.1394991" lon="13.0021036"><ele>167.0</ele><time>2026-04-04T10:31:07.061Z</time></trkpt><trkpt lat="46.1396224" lon="13.0021813"><ele>167.0</ele><time>2026-04-04T10:31:08.059Z</time></trkpt><trkpt lat="46.1397564" lon="13.0022637"><ele>167.0</ele><time>2026-04-04T10:31:09.062Z</time></trkpt><trkpt lat="46.1398839" lon="13.0023517"><ele>167.0</ele><time>2026-04-04T10:31:10.062Z</time></trkpt><trkpt lat="46.1400139" lon="13.0024449"><ele>167.0</ele><time>2026-04-04T10:31:11.06Z</time></trkpt><trkpt lat="46.1401418" lon="13.0025521"><ele>167.0</ele><time>2026-04-04T10:31:12.061Z</time></trkpt><trkpt lat="46.1402782" lon="13.0026728"><ele>167.33333333333331</ele><time>2026-04-04T10:31:13.06Z</time></trkpt><trkpt lat="46.1404313" lon="13.0028082"><ele>167.66666666666666</ele><time>2026-04-04T10:31:14.06Z</time></trkpt><trkpt lat="46.1405922" lon="13.0029688"><ele>168.0</ele><time>2026-04-04T10:31:15.062Z</time></trkpt><trkpt lat="46.1407778" lon="13.0031491"><ele>169.5</ele><time>2026-04-04T10:31:16.062Z</time></trkpt><trkpt lat="46.1409585" lon="13.0033549"><ele>171.0</ele><time>2026-04-04T10:31:17.06Z</time></trkpt><trkpt lat="46.14114" lon="13.0035634"><ele>171.0</ele><time>2026-04-04T10:31:18.06Z</time></trkpt><trkpt lat="46.1413182" lon="13.0037676"><ele>171.0</ele><time>2026-04-04T10:31:19.06Z</time></trkpt><trkpt lat="46.1414919" lon="13.0039705"><ele>171.0</ele><time>2026-04-04T10:31:20.06Z</time></trkpt><trkpt lat="46.1416621" lon="13.0041595"><ele>171.0</ele><time>2026-04-04T10:31:21.061Z</time></trkpt><trkpt lat="46.1418309" lon="13.0043485"><ele>171.0</ele><time>2026-04-04T10:31:22.061Z</time></trkpt><trkpt lat="46.1419944" lon="13.0045311"><ele>171.33333333333334</ele><time>2026-04-04T10:31:23.06Z</time></trkpt><trkpt lat="46.1421525" lon="13.0047141"><ele>171.66666666666669</ele><time>2026-04-04T10:31:24.059Z</time></trkpt><trkpt lat="46.1423098" lon="13.0048913"><ele>172.0</ele><time>2026-04-04T10:31:25.06Z</time></trkpt><trkpt lat="46.1424614" lon="13.0050664"><ele>172.33333333333334</ele><time>2026-04-04T10:31:26.06Z</time></trkpt><trkpt lat="46.1426115" lon="13.0052357"><ele>172.66666666666666</ele><time>2026-04-04T10:31:27.06Z</time></trkpt><trkpt lat="46.1427613" lon="13.0054012"><ele>173.0</ele><time>2026-04-04T10:31:28.06Z</time></trkpt><trkpt lat="46.1429135" lon="13.0055567"><ele>173.0</ele><time>2026-04-04T10:31:29.062Z</time></trkpt><trkpt lat="46.1430664" lon="13.0056948"><ele>173.0</ele><time>2026-04-04T10:31:30.06Z</time></trkpt><trkpt lat="46.1432255" lon="13.0058022"><ele>173.0</ele><time>2026-04-04T10:31:31.062Z</time></trkpt><trkpt lat="46.1433855" lon="13.0058977"><ele>174.33333333333331</ele><time>2026-04-04T10:31:32.061Z</time></trkpt><trkpt lat="46.1435523" lon="13.0059729"><ele>175.66666666666666</ele><time>2026-04-04T10:31:33.061Z</time></trkpt><trkpt lat="46.1437229" lon="13.006021"><ele>177.0</ele><time>2026-04-04T10:31:34.06Z</time></trkpt><trkpt lat="46.1438874" lon="13.0060586"><ele>177.0</ele><time>2026-04-04T10:31:35.061Z</time></trkpt><trkpt lat="46.1440433" lon="13.0060925"><ele>177.0</ele><time>2026-04-04T10:31:36.059Z</time></trkpt><trkpt lat="46.1441961" lon="13.006119"><ele>177.0</ele><time>2026-04-04T10:31:37.062Z</time></trkpt><trkpt lat="46.1443455" lon="13.0061424"><ele>177.0</ele><time>2026-04-04T10:31:38.062Z</time></trkpt><trkpt lat="46.1444906" lon="13.0061671"><ele>177.0</ele><time>2026-04-04T10:31:39.061Z</time></trkpt><trkpt lat="46.1446378" lon="13.0061938"><ele>177.0</ele><time>2026-04-04T10:31:40.059Z</time></trkpt><trkpt lat="46.1447803" lon="13.0062142"><ele>177.0</ele><time>2026-04-04T10:31:41.06Z</time></trkpt><trkpt lat="46.1449219" lon="13.0062372"><ele>177.0</ele><time>2026-04-04T10:31:42.059Z</time></trkpt><trkpt lat="46.1450673" lon="13.0062585"><ele>177.0</ele><time>2026-04-04T10:31:43.062Z</time></trkpt><trkpt lat="46.1452125" lon="13.0062781"><ele>177.0</ele><time>2026-04-04T10:31:44.06Z</time></trkpt><trkpt lat="46.1453633" lon="13.0063011"><ele>177.0</ele><time>2026-04-04T10:31:45.059Z</time></trkpt><trkpt lat="46.1455105" lon="13.0063157"><ele>177.0</ele><time>2026-04-04T10:31:46.061Z</time></trkpt><trkpt lat="46.1456449" lon="13.0063304"><ele>177.0</ele><time>2026-04-04T10:31:47.06Z</time></trkpt><trkpt lat="46.1457651" lon="13.0063409"><ele>177.0</ele><time>2026-04-04T10:31:48.059Z</time></trkpt><trkpt lat="46.1458724" lon="13.0063445"><ele>177.0</ele><time>2026-04-04T10:31:49.06Z</time></trkpt><trkpt lat="46.1459643" lon="13.0063509"><ele>177.33333333333334</ele><time>2026-04-04T10:31:50.06Z</time></trkpt><trkpt lat="46.146046" lon="13.0063559"><ele>177.66666666666666</ele><time>2026-04-04T10:31:51.06Z</time></trkpt><trkpt lat="46.1461105" lon="13.0063553"><ele>178.0</ele><time>2026-04-04T10:31:52.06Z</time></trkpt><trkpt lat="46.1462151" lon="13.0063631"><ele>178.33333333333331</ele><time>2026-04-04T10:31:54.06Z</time></trkpt><trkpt lat="46.1462985" lon="13.0064003"><ele>178.66666666666666</ele><time>2026-04-04T10:31:56.06Z</time></trkpt><trkpt lat="46.1463956" lon="13.0064163"><ele>179.0</ele><time>2026-04-04T10:31:58.06Z</time></trkpt><trkpt lat="46.1464582" lon="13.0063297"><ele>179.0</ele><time>2026-04-04T10:32:00.061Z</time></trkpt><trkpt lat="46.1465003" lon="13.0061985"><ele>179.0</ele><time>2026-04-04T10:32:02.06Z</time></trkpt><trkpt lat="46.1465819" lon="13.006049"><ele>179.0</ele><time>2026-04-04T10:32:04.06Z</time></trkpt><trkpt lat="46.1466465" lon="13.0059846"><ele>179.0</ele><time>2026-04-04T10:32:05.06Z</time></trkpt><trkpt lat="46.1467199" lon="13.0059249"><ele>179.0</ele><time>2026-04-04T10:32:06.062Z</time></trkpt><trkpt lat="46.1468022" lon="13.0058491"><ele>179.75</ele><time>2026-04-04T10:32:07.059Z</time></trkpt><trkpt lat="46.146886" lon="13.0057696"><ele>180.5</ele><time>2026-04-04T10:32:08.061Z</time></trkpt><trkpt lat="46.1469778" lon="13.0056745"><ele>181.25</ele><time>2026-04-04T10:32:09.061Z</time></trkpt><trkpt lat="46.1470701" lon="13.0055673"><ele>182.0</ele><time>2026-04-04T10:32:10.061Z</time></trkpt><trkpt lat="46.1471672" lon="13.0054564"><ele>182.0</ele><time>2026-04-04T10:32:11.06Z</time></trkpt><trkpt lat="46.1472704" lon="13.0053411"><ele>182.0</ele><time>2026-04-04T10:32:12.06Z</time></trkpt><trkpt lat="46.14737" lon="13.0052248"><ele>182.0</ele><time>2026-04-04T10:32:13.061Z</time></trkpt><trkpt lat="46.1474752" lon="13.005109"><ele>182.0</ele><time>2026-04-04T10:32:14.061Z</time></trkpt><trkpt lat="46.1475693" lon="13.0049918"><ele>181.75</ele><time>2026-04-04T10:32:15.06Z</time></trkpt><trkpt lat="46.1476677" lon="13.0048775"><ele>181.5</ele><time>2026-04-04T10:32:16.059Z</time></trkpt><trkpt lat="46.1477624" lon="13.004767"><ele>181.25</ele><time>2026-04-04T10:32:17.061Z</time></trkpt><trkpt lat="46.1478587" lon="13.0046623"><ele>181.0</ele><time>2026-04-04T10:32:18.062Z</time></trkpt><trkpt lat="46.1479472" lon="13.00456"><ele>181.0</ele><time>2026-04-04T10:32:19.061Z</time></trkpt><trkpt lat="46.1480402" lon="13.0044614"><ele>181.0</ele><time>2026-04-04T10:32:20.061Z</time></trkpt><trkpt lat="46.1481239" lon="13.0043679"><ele>181.0</ele><time>2026-04-04T10:32:21.06Z</time></trkpt><trkpt lat="46.1482074" lon="13.0042735"><ele>181.0</ele><time>2026-04-04T10:32:22.059Z</time></trkpt><trkpt lat="46.148299" lon="13.0041701"><ele>181.0</ele><time>2026-04-04T10:32:23.06Z</time></trkpt><trkpt lat="46.1483848" lon="13.004063"><ele>181.25</ele><time>2026-04-04T10:32:24.06Z</time></trkpt><trkpt lat="46.1484809" lon="13.0039402"><ele>181.5</ele><time>2026-04-04T10:32:25.061Z</time></trkpt><trkpt lat="46.1485841" lon="13.0038302"><ele>181.75</ele><time>2026-04-04T10:32:26.059Z</time></trkpt><trkpt lat="46.1486857" lon="13.0037064"><ele>182.0</ele><time>2026-04-04T10:32:27.061Z</time></trkpt><trkpt lat="46.148795" lon="13.0035815"><ele>182.0</ele><time>2026-04-04T10:32:28.059Z</time></trkpt><trkpt lat="46.1489136" lon="13.003454"><ele>182.0</ele><time>2026-04-04T10:32:29.061Z</time></trkpt><trkpt lat="46.1490244" lon="13.0033241"><ele>182.0</ele><time>2026-04-04T10:32:30.061Z</time></trkpt><trkpt lat="46.1491369" lon="13.0031872"><ele>182.0</ele><time>2026-04-04T10:32:31.061Z</time></trkpt><trkpt lat="46.1492538" lon="13.0030543"><ele>182.5</ele><time>2026-04-04T10:32:32.061Z</time></trkpt><trkpt lat="46.1493707" lon="13.0029245"><ele>183.0</ele><time>2026-04-04T10:32:33.062Z</time></trkpt><trkpt lat="46.1494896" lon="13.0027924"><ele>183.5</ele><time>2026-04-04T10:32:34.06Z</time></trkpt><trkpt lat="46.1496054" lon="13.0026526"><ele>184.0</ele><time>2026-04-04T10:32:35.06Z</time></trkpt><trkpt lat="46.1497171" lon="13.0025181"><ele>184.25</ele><time>2026-04-04T10:32:36.061Z</time></trkpt><trkpt lat="46.1498398" lon="13.0023794"><ele>184.5</ele><time>2026-04-04T10:32:37.06Z</time></trkpt><trkpt lat="46.149951" lon="13.0022485"><ele>184.75</ele><time>2026-04-04T10:32:38.06Z</time></trkpt><trkpt lat="46.1500616" lon="13.0021148"><ele>185.0</ele><time>2026-04-04T10:32:39.062Z</time></trkpt><trkpt lat="46.150174" lon="13.0019881"><ele>185.0</ele><time>2026-04-04T10:32:40.061Z</time></trkpt><trkpt lat="46.1502921" lon="13.0018546"><ele>185.0</ele><time>2026-04-04T10:32:41.061Z</time></trkpt><trkpt lat="46.150404" lon="13.0017251"><ele>185.0</ele><time>2026-04-04T10:32:42.061Z</time></trkpt><trkpt lat="46.1505126" lon="13.0015932"><ele>185.0</ele><time>2026-04-04T10:32:43.06Z</time></trkpt><trkpt lat="46.1506261" lon="13.0014693"><ele>185.0</ele><time>2026-04-04T10:32:44.06Z</time></trkpt><trkpt lat="46.1507318" lon="13.0013454"><ele>185.0</ele><time>2026-04-04T10:32:45.061Z</time></trkpt><trkpt lat="46.1508376" lon="13.0012217"><ele>185.0</ele><time>2026-04-04T10:32:46.06Z</time></trkpt><trkpt lat="46.1509439" lon="13.0010962"><ele>185.0</ele><time>2026-04-04T10:32:47.059Z</time></trkpt><trkpt lat="46.1510512" lon="13.0009745"><ele>185.0</ele><time>2026-04-04T10:32:48.06Z</time></trkpt><trkpt lat="46.1511565" lon="13.0008427"><ele>185.0</ele><time>2026-04-04T10:32:49.06Z</time></trkpt><trkpt lat="46.1512695" lon="13.0007168"><ele>185.0</ele><time>2026-04-04T10:32:50.061Z</time></trkpt><trkpt lat="46.1513711" lon="13.0005904"><ele>185.0</ele><time>2026-04-04T10:32:51.06Z</time></trkpt><trkpt lat="46.1514705" lon="13.0004541"><ele>184.5</ele><time>2026-04-04T10:32:52.061Z</time></trkpt><trkpt lat="46.1515682" lon="13.0003015"><ele>184.0</ele><time>2026-04-04T10:32:53.062Z</time></trkpt><trkpt lat="46.1516552" lon="13.00015"><ele>183.5</ele><time>2026-04-04T10:32:54.06Z</time></trkpt><trkpt lat="46.1517431" lon="13.0000017"><ele>183.0</ele><time>2026-04-04T10:32:55.061Z</time></trkpt><trkpt lat="46.1518207" lon="12.9998338"><ele>183.0</ele><time>2026-04-04T10:32:56.06Z</time></trkpt><trkpt lat="46.1518955" lon="12.9996661"><ele>183.0</ele><time>2026-04-04T10:32:57.061Z</time></trkpt><trkpt lat="46.1519606" lon="12.9994977"><ele>183.0</ele><time>2026-04-04T10:32:58.06Z</time></trkpt><trkpt lat="46.1520154" lon="12.9993472"><ele>183.0</ele><time>2026-04-04T10:32:59.061Z</time></trkpt><trkpt lat="46.1520709" lon="12.9991948"><ele>183.0</ele><time>2026-04-04T10:33:00.06Z</time></trkpt><trkpt lat="46.1521155" lon="12.9990418"><ele>183.0</ele><time>2026-04-04T10:33:01.06Z</time></trkpt><trkpt lat="46.1521508" lon="12.9988784"><ele>183.0</ele><time>2026-04-04T10:33:02.06Z</time></trkpt><trkpt lat="46.1521833" lon="12.9987119"><ele>183.0</ele><time>2026-04-04T10:33:03.062Z</time></trkpt><trkpt lat="46.1522203" lon="12.9985469"><ele>183.0</ele><time>2026-04-04T10:33:04.061Z</time></trkpt><trkpt lat="46.1522586" lon="12.9983855"><ele>183.0</ele><time>2026-04-04T10:33:05.061Z</time></trkpt><trkpt lat="46.1522948" lon="12.9982184"><ele>183.0</ele><time>2026-04-04T10:33:06.06Z</time></trkpt><trkpt lat="46.1523282" lon="12.9980582"><ele>183.0</ele><time>2026-04-04T10:33:07.061Z</time></trkpt><trkpt lat="46.1523653" lon="12.997889"><ele>183.0</ele><time>2026-04-04T10:33:08.06Z</time></trkpt><trkpt lat="46.1524007" lon="12.9977333"><ele>183.0</ele><time>2026-04-04T10:33:09.061Z</time></trkpt><trkpt lat="46.1524353" lon="12.9975727"><ele>183.0</ele><time>2026-04-04T10:33:10.06Z</time></trkpt><trkpt lat="46.152473" lon="12.9974069"><ele>183.0</ele><time>2026-04-04T10:33:11.061Z</time></trkpt><trkpt lat="46.152511" lon="12.997252"><ele>183.0</ele><time>2026-04-04T10:33:12.061Z</time></trkpt><trkpt lat="46.1525454" lon="12.9971011"><ele>183.0</ele><time>2026-04-04T10:33:13.06Z</time></trkpt><trkpt lat="46.152587" lon="12.996966"><ele>183.0</ele><time>2026-04-04T10:33:14.059Z</time></trkpt><trkpt lat="46.1526362" lon="12.9968471"><ele>183.0</ele><time>2026-04-04T10:33:15.061Z</time></trkpt><trkpt lat="46.1526988" lon="12.9967657"><ele>183.0</ele><time>2026-04-04T10:33:16.06Z</time></trkpt><trkpt lat="46.1527617" lon="12.9966994"><ele>183.0</ele><time>2026-04-04T10:33:17.061Z</time></trkpt><trkpt lat="46.152825" lon="12.9966577"><ele>183.0</ele><time>2026-04-04T10:33:18.06Z</time></trkpt><trkpt lat="46.1528984" lon="12.9966418"><ele>183.0</ele><time>2026-04-04T10:33:19.061Z</time></trkpt><trkpt lat="46.1529802" lon="12.9966667"><ele>183.0</ele><time>2026-04-04T10:33:20.06Z</time></trkpt><trkpt lat="46.1530632" lon="12.9967221"><ele>183.0</ele><time>2026-04-04T10:33:21.061Z</time></trkpt><trkpt lat="46.1531561" lon="12.9967871"><ele>183.0</ele><time>2026-04-04T10:33:22.062Z</time></trkpt><trkpt lat="46.1532642" lon="12.9968516"><ele>183.5</ele><time>2026-04-04T10:33:23.061Z</time></trkpt><trkpt lat="46.1533777" lon="12.9969243"><ele>184.0</ele><time>2026-04-04T10:33:24.059Z</time></trkpt><trkpt lat="46.1534889" lon="12.9969952"><ele>184.5</ele><time>2026-04-04T10:33:25.061Z</time></trkpt><trkpt lat="46.1536031" lon="12.9970708"><ele>185.0</ele><time>2026-04-04T10:33:26.062Z</time></trkpt><trkpt lat="46.1537207" lon="12.9971499"><ele>185.0</ele><time>2026-04-04T10:33:27.061Z</time></trkpt><trkpt lat="46.153841" lon="12.9972237"><ele>185.0</ele><time>2026-04-04T10:33:28.06Z</time></trkpt><trkpt lat="46.1539645" lon="12.9972973"><ele>185.0</ele><time>2026-04-04T10:33:29.062Z</time></trkpt><trkpt lat="46.1540933" lon="12.9973804"><ele>185.0</ele><time>2026-04-04T10:33:30.06Z</time></trkpt><trkpt lat="46.1542247" lon="12.997467"><ele>187.0</ele><time>2026-04-04T10:33:31.062Z</time></trkpt><trkpt lat="46.1543567" lon="12.9975509"><ele>189.0</ele><time>2026-04-04T10:33:32.061Z</time></trkpt><trkpt lat="46.1544988" lon="12.9976417"><ele>191.0</ele><time>2026-04-04T10:33:33.062Z</time></trkpt><trkpt lat="46.1546459" lon="12.9977365"><ele>191.0</ele><time>2026-04-04T10:33:34.061Z</time></trkpt><trkpt lat="46.1547896" lon="12.9978289"><ele>191.0</ele><time>2026-04-04T10:33:35.061Z</time></trkpt><trkpt lat="46.1549423" lon="12.997922"><ele>191.0</ele><time>2026-04-04T10:33:36.061Z</time></trkpt><trkpt lat="46.1550906" lon="12.9980473"><ele>191.33333333333331</ele><time>2026-04-04T10:33:37.06Z</time></trkpt><trkpt lat="46.1552385" lon="12.9981748"><ele>191.66666666666666</ele><time>2026-04-04T10:33:38.06Z</time></trkpt><trkpt lat="46.1553847" lon="12.9982926"><ele>192.0</ele><time>2026-04-04T10:33:39.06Z</time></trkpt><trkpt lat="46.1555182" lon="12.9984243"><ele>192.0</ele><time>2026-04-04T10:33:40.06Z</time></trkpt><trkpt lat="46.1556485" lon="12.9985481"><ele>192.0</ele><time>2026-04-04T10:33:41.06Z</time></trkpt><trkpt lat="46.1557816" lon="12.9986691"><ele>192.0</ele><time>2026-04-04T10:33:42.061Z</time></trkpt><trkpt lat="46.1559108" lon="12.9987905"><ele>192.0</ele><time>2026-04-04T10:33:43.061Z</time></trkpt><trkpt lat="46.1560349" lon="12.9989092"><ele>192.0</ele><time>2026-04-04T10:33:44.06Z</time></trkpt><trkpt lat="46.1561578" lon="12.999019"><ele>192.0</ele><time>2026-04-04T10:33:45.059Z</time></trkpt><trkpt lat="46.156278" lon="12.9991297"><ele>192.0</ele><time>2026-04-04T10:33:46.061Z</time></trkpt><trkpt lat="46.1563887" lon="12.9992372"><ele>192.2</ele><time>2026-04-04T10:33:47.062Z</time></trkpt><trkpt lat="46.1564877" lon="12.9993354"><ele>192.39999999999998</ele><time>2026-04-04T10:33:48.061Z</time></trkpt><trkpt lat="46.1565804" lon="12.9994181"><ele>192.60000000000002</ele><time>2026-04-04T10:33:49.061Z</time></trkpt><trkpt lat="46.1566622" lon="12.9994914"><ele>192.8</ele><time>2026-04-04T10:33:50.06Z</time></trkpt><trkpt lat="46.1567292" lon="12.9995524"><ele>193.0</ele><time>2026-04-04T10:33:51.061Z</time></trkpt><trkpt lat="46.1567947" lon="12.9996474"><ele>193.00000000000003</ele><time>2026-04-04T10:33:53.062Z</time></trkpt><trkpt lat="46.1567447" lon="12.9997499"><ele>193.0</ele><time>2026-04-04T10:33:56.06Z</time></trkpt><trkpt lat="46.1566764" lon="12.9997581"><ele>193.0</ele><time>2026-04-04T10:33:58.061Z</time></trkpt><trkpt lat="46.1566153" lon="12.999736"><ele>193.0</ele><time>2026-04-04T10:34:00.061Z</time></trkpt><trkpt lat="46.156539" lon="12.9996854"><ele>193.0</ele><time>2026-04-04T10:34:03.061Z</time></trkpt><trkpt lat="46.1564723" lon="12.9997202"><ele>193.00000000000003</ele><time>2026-04-04T10:34:06.06Z</time></trkpt><trkpt lat="46.1564074" lon="12.9997154"><ele>193.0</ele><time>2026-04-04T10:37:58.061Z</time></trkpt><trkpt lat="46.1564081" lon="12.9998081"><ele>193.0</ele><time>2026-04-04T10:38:50.066Z</time></trkpt><trkpt lat="46.156436" lon="12.9998925"><ele>193.0</ele><time>2026-04-04T10:39:18.984Z</time></trkpt><trkpt lat="46.1564828" lon="12.9998279"><ele>193.0</ele><time>2026-04-04T10:39:25.066Z</time></trkpt><trkpt lat="46.1564812" lon="12.999921"><ele>193.0</ele><time>2026-04-04T10:39:34.135Z</time></trkpt><trkpt lat="46.1564146" lon="12.9998887"><ele>193.0</ele><time>2026-04-04T10:39:39.15Z</time></trkpt></trkseg><trkseg><trkpt lat="46.1565393" lon="12.9997254"><ele>191.0</ele><time>2026-04-04T11:48:18.064Z</time></trkpt><trkpt lat="46.1565276" lon="12.9996238"><ele>191.0</ele><time>2026-04-04T11:48:22.065Z</time></trkpt><trkpt lat="46.156579" lon="12.9995357"><ele>191.0</ele><time>2026-04-04T11:48:24.979Z</time></trkpt><trkpt lat="46.1566529" lon="12.9995519"><ele>191.0</ele><time>2026-04-04T11:48:27.066Z</time></trkpt><trkpt lat="46.1567866" lon="12.9997403"><ele>191.0</ele><time>2026-04-04T11:48:29.065Z</time></trkpt><trkpt lat="46.1567978" lon="12.9996491"><ele>191.0</ele><time>2026-04-04T11:48:34.066Z</time></trkpt><trkpt lat="46.1567764" lon="12.9995626"><ele>191.0</ele><time>2026-04-04T11:48:40.066Z</time></trkpt><trkpt lat="46.1567254" lon="12.9995029"><ele>191.0</ele><time>2026-04-04T11:48:41.065Z</time></trkpt><trkpt lat="46.1566509" lon="12.9994253"><ele>191.0</ele><time>2026-04-04T11:48:42.065Z</time></trkpt><trkpt lat="46.1565791" lon="12.9993609"><ele>191.0</ele><time>2026-04-04T11:48:43.065Z</time></trkpt><trkpt lat="46.1565174" lon="12.9993097"><ele>191.0</ele><time>2026-04-04T11:48:44.066Z</time></trkpt><trkpt lat="46.1564386" lon="12.9992328"><ele>191.33333333333331</ele><time>2026-04-04T11:48:46.066Z</time></trkpt><trkpt lat="46.1563768" lon="12.9991836"><ele>191.66666666666666</ele><time>2026-04-04T11:48:49.065Z</time></trkpt><trkpt lat="46.1563072" lon="12.9991981"><ele>192.0</ele><time>2026-04-04T11:48:51.064Z</time></trkpt><trkpt lat="46.1562604" lon="12.9992618"><ele>192.33333333333331</ele><time>2026-04-04T11:48:52.065Z</time></trkpt><trkpt lat="46.1562002" lon="12.9993752"><ele>192.66666666666666</ele><time>2026-04-04T11:48:53.064Z</time></trkpt><trkpt lat="46.1561414" lon="12.9995245"><ele>193.0</ele><time>2026-04-04T11:48:54.065Z</time></trkpt><trkpt lat="46.1560928" lon="12.9996546"><ele>193.00000000000003</ele><time>2026-04-04T11:48:55.065Z</time></trkpt><trkpt lat="46.1560478" lon="12.9997648"><ele>193.0</ele><time>2026-04-04T11:48:56.065Z</time></trkpt><trkpt lat="46.1560096" lon="12.9998611"><ele>193.0</ele><time>2026-04-04T11:48:57.066Z</time></trkpt><trkpt lat="46.1559748" lon="12.9999467"><ele>193.0</ele><time>2026-04-04T11:48:58.066Z</time></trkpt><trkpt lat="46.1559428" lon="13.000025"><ele>193.0</ele><time>2026-04-04T11:48:59.065Z</time></trkpt><trkpt lat="46.1559097" lon="13.0001082"><ele>193.00000000000003</ele><time>2026-04-04T11:49:00.066Z</time></trkpt><trkpt lat="46.1558778" lon="13.0001942"><ele>193.0</ele><time>2026-04-04T11:49:01.064Z</time></trkpt><trkpt lat="46.1558427" lon="13.0002759"><ele>192.99999999999997</ele><time>2026-04-04T11:49:02.064Z</time></trkpt><trkpt lat="46.1558118" lon="13.000369"><ele>193.0</ele><time>2026-04-04T11:49:03.066Z</time></trkpt><trkpt lat="46.1557635" lon="13.00052"><ele>193.0</ele><time>2026-04-04T11:49:05.064Z</time></trkpt><trkpt lat="46.1557406" lon="13.0006071"><ele>193.0</ele><time>2026-04-04T11:49:06.066Z</time></trkpt><trkpt lat="46.1557134" lon="13.0007077"><ele>192.99999999999997</ele><time>2026-04-04T11:49:07.065Z</time></trkpt><trkpt lat="46.155694" lon="13.0008141"><ele>193.0</ele><time>2026-04-04T11:49:08.064Z</time></trkpt><trkpt lat="46.1556702" lon="13.0009399"><ele>192.8</ele><time>2026-04-04T11:49:09.064Z</time></trkpt><trkpt lat="46.1556474" lon="13.0010642"><ele>192.60000000000002</ele><time>2026-04-04T11:49:10.064Z</time></trkpt><trkpt lat="46.1556267" lon="13.0011936"><ele>192.39999999999998</ele><time>2026-04-04T11:49:11.065Z</time></trkpt><trkpt lat="46.1556007" lon="13.0013224"><ele>192.2</ele><time>2026-04-04T11:49:12.065Z</time></trkpt><trkpt lat="46.1555753" lon="13.0014549"><ele>192.0</ele><time>2026-04-04T11:49:13.064Z</time></trkpt><trkpt lat="46.1555479" lon="13.0015925"><ele>191.75</ele><time>2026-04-04T11:49:14.064Z</time></trkpt><trkpt lat="46.1555204" lon="13.0017491"><ele>191.5</ele><time>2026-04-04T11:49:15.064Z</time></trkpt><trkpt lat="46.1554828" lon="13.0019211"><ele>191.25</ele><time>2026-04-04T11:49:16.065Z</time></trkpt><trkpt lat="46.1554421" lon="13.0020878"><ele>191.0</ele><time>2026-04-04T11:49:17.064Z</time></trkpt><trkpt lat="46.1553987" lon="13.0022378"><ele>191.0</ele><time>2026-04-04T11:49:18.066Z</time></trkpt><trkpt lat="46.1553525" lon="13.0023876"><ele>191.0</ele><time>2026-04-04T11:49:19.066Z</time></trkpt><trkpt lat="46.1553024" lon="13.0025299"><ele>191.0</ele><time>2026-04-04T11:49:20.065Z</time></trkpt><trkpt lat="46.1552472" lon="13.002676"><ele>191.0</ele><time>2026-04-04T11:49:21.065Z</time></trkpt><trkpt lat="46.1551942" lon="13.002818"><ele>191.60000000000002</ele><time>2026-04-04T11:49:22.065Z</time></trkpt><trkpt lat="46.1551403" lon="13.0029624"><ele>192.2</ele><time>2026-04-04T11:49:23.064Z</time></trkpt><trkpt lat="46.1550844" lon="13.0030856"><ele>192.8</ele><time>2026-04-04T11:49:24.065Z</time></trkpt><trkpt lat="46.1550297" lon="13.0032137"><ele>193.39999999999998</ele><time>2026-04-04T11:49:25.064Z</time></trkpt><trkpt lat="46.1549805" lon="13.0033409"><ele>194.0</ele><time>2026-04-04T11:49:26.066Z</time></trkpt><trkpt lat="46.1549294" lon="13.003462"><ele>194.0</ele><time>2026-04-04T11:49:27.065Z</time></trkpt><trkpt lat="46.1548844" lon="13.0035822"><ele>194.0</ele><time>2026-04-04T11:49:28.065Z</time></trkpt><trkpt lat="46.1548599" lon="13.0037243"><ele>194.0</ele><time>2026-04-04T11:49:29.064Z</time></trkpt><trkpt lat="46.1548308" lon="13.0038781"><ele>194.0</ele><time>2026-04-04T11:49:30.066Z</time></trkpt><trkpt lat="46.1548032" lon="13.0040412"><ele>194.0</ele><time>2026-04-04T11:49:31.065Z</time></trkpt><trkpt lat="46.1547861" lon="13.0041912"><ele>193.33333333333334</ele><time>2026-04-04T11:49:32.066Z</time></trkpt><trkpt lat="46.1547685" lon="13.0043309"><ele>192.66666666666669</ele><time>2026-04-04T11:49:33.064Z</time></trkpt><trkpt lat="46.1547514" lon="13.0044623"><ele>192.0</ele><time>2026-04-04T11:49:34.064Z</time></trkpt><trkpt lat="46.1547322" lon="13.0045868"><ele>191.33333333333334</ele><time>2026-04-04T11:49:35.065Z</time></trkpt><trkpt lat="46.1547047" lon="13.0046972"><ele>190.66666666666669</ele><time>2026-04-04T11:49:36.065Z</time></trkpt><trkpt lat="46.1546815" lon="13.0048118"><ele>190.0</ele><time>2026-04-04T11:49:37.064Z</time></trkpt><trkpt lat="46.1546464" lon="13.0049174"><ele>189.83333333333334</ele><time>2026-04-04T11:49:38.065Z</time></trkpt><trkpt lat="46.1546174" lon="13.0050051"><ele>189.66666666666669</ele><time>2026-04-04T11:49:39.066Z</time></trkpt><trkpt lat="46.1545703" lon="13.0051119"><ele>189.5</ele><time>2026-04-04T11:49:41.066Z</time></trkpt><trkpt lat="46.1545373" lon="13.0051969"><ele>189.33333333333334</ele><time>2026-04-04T11:49:43.064Z</time></trkpt><trkpt lat="46.1545007" lon="13.0052836"><ele>189.16666666666666</ele><time>2026-04-04T11:49:46.065Z</time></trkpt><trkpt lat="46.1545228" lon="13.0054345"><ele>189.0</ele><time>2026-04-04T11:49:48.065Z</time></trkpt><trkpt lat="46.1545511" lon="13.0055524"><ele>189.0</ele><time>2026-04-04T11:49:49.065Z</time></trkpt><trkpt lat="46.1545743" lon="13.0056723"><ele>189.0</ele><time>2026-04-04T11:49:50.066Z</time></trkpt><trkpt lat="46.1545928" lon="13.0057792"><ele>189.0</ele><time>2026-04-04T11:49:51.065Z</time></trkpt><trkpt lat="46.1546085" lon="13.0058927"><ele>189.0</ele><time>2026-04-04T11:49:52.065Z</time></trkpt><trkpt lat="46.1546153" lon="13.0060083"><ele>189.0</ele><time>2026-04-04T11:49:53.065Z</time></trkpt><trkpt lat="46.1546467" lon="13.0061308"><ele>189.0</ele><time>2026-04-04T11:49:54.064Z</time></trkpt><trkpt lat="46.1546856" lon="13.0062492"><ele>189.6</ele><time>2026-04-04T11:49:55.064Z</time></trkpt><trkpt lat="46.1547327" lon="13.0063597"><ele>190.2</ele><time>2026-04-04T11:49:56.066Z</time></trkpt><trkpt lat="46.1547877" lon="13.0064667"><ele>190.79999999999998</ele><time>2026-04-04T11:49:57.065Z</time></trkpt><trkpt lat="46.1548584" lon="13.0065852"><ele>191.39999999999998</ele><time>2026-04-04T11:49:58.064Z</time></trkpt><trkpt lat="46.1549348" lon="13.0067068"><ele>192.0</ele><time>2026-04-04T11:49:59.064Z</time></trkpt><trkpt lat="46.1550008" lon="13.0068168"><ele>193.0</ele><time>2026-04-04T11:50:00.064Z</time></trkpt><trkpt lat="46.1550552" lon="13.0069129"><ele>194.0</ele><time>2026-04-04T11:50:01.065Z</time></trkpt><trkpt lat="46.155099" lon="13.0069866"><ele>195.0</ele><time>2026-04-04T11:50:02.064Z</time></trkpt><trkpt lat="46.1551894" lon="13.0071069"><ele>196.0</ele><time>2026-04-04T11:50:04.065Z</time></trkpt><trkpt lat="46.1552351" lon="13.0071772"><ele>197.0</ele><time>2026-04-04T11:50:05.064Z</time></trkpt><trkpt lat="46.1552847" lon="13.0072415"><ele>198.0</ele><time>2026-04-04T11:50:06.065Z</time></trkpt><trkpt lat="46.1553383" lon="13.0073062"><ele>198.0</ele><time>2026-04-04T11:50:07.065Z</time></trkpt><trkpt lat="46.1553853" lon="13.0073706"><ele>198.0</ele><time>2026-04-04T11:50:08.065Z</time></trkpt><trkpt lat="46.1554286" lon="13.0074424"><ele>198.0</ele><time>2026-04-04T11:50:09.066Z</time></trkpt><trkpt lat="46.155471" lon="13.0075169"><ele>198.0</ele><time>2026-04-04T11:50:10.066Z</time></trkpt><trkpt lat="46.1555245" lon="13.0075992"><ele>198.0</ele><time>2026-04-04T11:50:11.064Z</time></trkpt><trkpt lat="46.1555703" lon="13.0076841"><ele>198.0</ele><time>2026-04-04T11:50:12.064Z</time></trkpt><trkpt lat="46.1556173" lon="13.0077761"><ele>198.0</ele><time>2026-04-04T11:50:13.066Z</time></trkpt><trkpt lat="46.1556641" lon="13.0078735"><ele>199.0</ele><time>2026-04-04T11:50:14.065Z</time></trkpt><trkpt lat="46.1557098" lon="13.0079706"><ele>200.0</ele><time>2026-04-04T11:50:15.064Z</time></trkpt><trkpt lat="46.1557572" lon="13.0080679"><ele>201.0</ele><time>2026-04-04T11:50:16.064Z</time></trkpt><trkpt lat="46.1557976" lon="13.0081705"><ele>202.0</ele><time>2026-04-04T11:50:17.065Z</time></trkpt><trkpt lat="46.1558334" lon="13.0082649"><ele>203.0</ele><time>2026-04-04T11:50:18.064Z</time></trkpt><trkpt lat="46.1558745" lon="13.0083465"><ele>204.0</ele><time>2026-04-04T11:50:19.064Z</time></trkpt><trkpt lat="46.1559221" lon="13.0084304"><ele>204.5</ele><time>2026-04-04T11:50:20.065Z</time></trkpt><trkpt lat="46.1559735" lon="13.0085025"><ele>205.0</ele><time>2026-04-04T11:50:21.066Z</time></trkpt><trkpt lat="46.1560295" lon="13.0085723"><ele>205.5</ele><time>2026-04-04T11:50:22.064Z</time></trkpt><trkpt lat="46.1560889" lon="13.0086337"><ele>206.0</ele><time>2026-04-04T11:50:23.066Z</time></trkpt><trkpt lat="46.1561422" lon="13.0086916"><ele>206.5</ele><time>2026-04-04T11:50:24.064Z</time></trkpt><trkpt lat="46.1562276" lon="13.0087863"><ele>207.0</ele><time>2026-04-04T11:50:26.064Z</time></trkpt><trkpt lat="46.1563106" lon="13.008881"><ele>207.0</ele><time>2026-04-04T11:50:28.065Z</time></trkpt><trkpt lat="46.1563464" lon="13.0090264"><ele>207.0</ele><time>2026-04-04T11:50:30.064Z</time></trkpt><trkpt lat="46.1563493" lon="13.009119"><ele>207.0</ele><time>2026-04-04T11:50:31.065Z</time></trkpt><trkpt lat="46.1563013" lon="13.0092657"><ele>207.0</ele><time>2026-04-04T11:50:33.065Z</time></trkpt><trkpt lat="46.1562733" lon="13.0093524"><ele>207.0</ele><time>2026-04-04T11:50:34.065Z</time></trkpt><trkpt lat="46.1562438" lon="13.0094521"><ele>207.0</ele><time>2026-04-04T11:50:35.065Z</time></trkpt><trkpt lat="46.1562086" lon="13.0096388"><ele>207.16666666666666</ele><time>2026-04-04T11:50:37.064Z</time></trkpt><trkpt lat="46.1561904" lon="13.0097371"><ele>207.33333333333331</ele><time>2026-04-04T11:50:38.064Z</time></trkpt><trkpt lat="46.1561794" lon="13.0098269"><ele>207.5</ele><time>2026-04-04T11:50:39.066Z</time></trkpt><trkpt lat="46.1561648" lon="13.009918"><ele>207.66666666666666</ele><time>2026-04-04T11:50:40.065Z</time></trkpt><trkpt lat="46.1561467" lon="13.0100743"><ele>207.83333333333331</ele><time>2026-04-04T11:50:42.064Z</time></trkpt><trkpt lat="46.1561232" lon="13.0102069"><ele>208.0</ele><time>2026-04-04T11:50:44.065Z</time></trkpt><trkpt lat="46.1561045" lon="13.0103717"><ele>207.66666666666666</ele><time>2026-04-04T11:50:46.066Z</time></trkpt><trkpt lat="46.156092" lon="13.010528"><ele>207.33333333333331</ele><time>2026-04-04T11:50:48.065Z</time></trkpt><trkpt lat="46.1560738" lon="13.0106169"><ele>207.0</ele><time>2026-04-04T11:50:49.064Z</time></trkpt><trkpt lat="46.1559939" lon="13.0107572"><ele>206.66666666666669</ele><time>2026-04-04T11:50:51.066Z</time></trkpt><trkpt lat="46.1559313" lon="13.0107897"><ele>206.33333333333334</ele><time>2026-04-04T11:50:52.064Z</time></trkpt><trkpt lat="46.1558658" lon="13.0107972"><ele>206.0</ele><time>2026-04-04T11:50:53.065Z</time></trkpt><trkpt lat="46.1557771" lon="13.0107738"><ele>203.8</ele><time>2026-04-04T11:50:54.064Z</time></trkpt><trkpt lat="46.1556835" lon="13.0107386"><ele>201.60000000000002</ele><time>2026-04-04T11:50:55.065Z</time></trkpt><trkpt lat="46.1555933" lon="13.0106976"><ele>199.4</ele><time>2026-04-04T11:50:56.065Z</time></trkpt><trkpt lat="46.1555063" lon="13.0106545"><ele>197.2</ele><time>2026-04-04T11:50:57.064Z</time></trkpt><trkpt lat="46.1554176" lon="13.0106093"><ele>195.0</ele><time>2026-04-04T11:50:58.065Z</time></trkpt><trkpt lat="46.155333" lon="13.0105499"><ele>195.0</ele><time>2026-04-04T11:50:59.065Z</time></trkpt><trkpt lat="46.1552539" lon="13.0104711"><ele>195.0</ele><time>2026-04-04T11:51:00.064Z</time></trkpt><trkpt lat="46.1551837" lon="13.0103783"><ele>195.0</ele><time>2026-04-04T11:51:01.065Z</time></trkpt><trkpt lat="46.1551137" lon="13.0102796"><ele>195.0</ele><time>2026-04-04T11:51:02.065Z</time></trkpt><trkpt lat="46.1550515" lon="13.0101934"><ele>195.0</ele><time>2026-04-04T11:51:03.064Z</time></trkpt><trkpt lat="46.1549935" lon="13.0101177"><ele>195.0</ele><time>2026-04-04T11:51:04.064Z</time></trkpt><trkpt lat="46.1549329" lon="13.0100316"><ele>195.0</ele><time>2026-04-04T11:51:05.065Z</time></trkpt><trkpt lat="46.154867" lon="13.0099664"><ele>195.0</ele><time>2026-04-04T11:51:06.065Z</time></trkpt><trkpt lat="46.1547858" lon="13.0098984"><ele>195.0</ele><time>2026-04-04T11:51:07.064Z</time></trkpt><trkpt lat="46.1546956" lon="13.0098462"><ele>195.0</ele><time>2026-04-04T11:51:08.065Z</time></trkpt><trkpt lat="46.1545953" lon="13.0097935"><ele>194.75</ele><time>2026-04-04T11:51:09.064Z</time></trkpt><trkpt lat="46.1544847" lon="13.0097316"><ele>194.5</ele><time>2026-04-04T11:51:10.064Z</time></trkpt><trkpt lat="46.1543706" lon="13.0096689"><ele>194.25</ele><time>2026-04-04T11:51:11.064Z</time></trkpt><trkpt lat="46.154265" lon="13.0096127"><ele>194.0</ele><time>2026-04-04T11:51:12.064Z</time></trkpt><trkpt lat="46.1541722" lon="13.0095625"><ele>194.00000000000003</ele><time>2026-04-04T11:51:13.065Z</time></trkpt><trkpt lat="46.1540932" lon="13.009523"><ele>194.0</ele><time>2026-04-04T11:51:14.064Z</time></trkpt><trkpt lat="46.1540144" lon="13.0094786"><ele>194.0</ele><time>2026-04-04T11:51:15.065Z</time></trkpt><trkpt lat="46.1539457" lon="13.0094414"><ele>194.0</ele><time>2026-04-04T11:51:16.064Z</time></trkpt><trkpt lat="46.1538761" lon="13.0094019"><ele>194.00000000000003</ele><time>2026-04-04T11:51:17.065Z</time></trkpt><trkpt lat="46.1538031" lon="13.0093628"><ele>194.0</ele><time>2026-04-04T11:51:18.065Z</time></trkpt><trkpt lat="46.1537328" lon="13.0093272"><ele>193.66666666666669</ele><time>2026-04-04T11:51:19.064Z</time></trkpt><trkpt lat="46.1536709" lon="13.0092886"><ele>193.33333333333334</ele><time>2026-04-04T11:51:20.065Z</time></trkpt><trkpt lat="46.1535711" lon="13.0092401"><ele>193.0</ele><time>2026-04-04T11:51:22.065Z</time></trkpt><trkpt lat="46.1535116" lon="13.0092091"><ele>192.66666666666669</ele><time>2026-04-04T11:51:24.066Z</time></trkpt><trkpt lat="46.1534501" lon="13.0091802"><ele>192.33333333333334</ele><time>2026-04-04T11:51:29.065Z</time></trkpt><trkpt lat="46.1533676" lon="13.0091378"><ele>192.0</ele><time>2026-04-04T11:52:11.065Z</time></trkpt><trkpt lat="46.1532796" lon="13.0091028"><ele>192.0</ele><time>2026-04-04T11:52:14.064Z</time></trkpt><trkpt lat="46.1532212" lon="13.0091549"><ele>192.0</ele><time>2026-04-04T11:52:16.064Z</time></trkpt><trkpt lat="46.1531958" lon="13.0093144"><ele>192.0</ele><time>2026-04-04T11:52:18.065Z</time></trkpt><trkpt lat="46.1531788" lon="13.0095176"><ele>192.0</ele><time>2026-04-04T11:52:20.065Z</time></trkpt><trkpt lat="46.1531769" lon="13.0096426"><ele>192.0</ele><time>2026-04-04T11:52:21.065Z</time></trkpt><trkpt lat="46.15317" lon="13.0097764"><ele>191.66666666666666</ele><time>2026-04-04T11:52:22.065Z</time></trkpt><trkpt lat="46.1531656" lon="13.0099092"><ele>191.33333333333334</ele><time>2026-04-04T11:52:23.065Z</time></trkpt><trkpt lat="46.1531684" lon="13.0100315"><ele>191.0</ele><time>2026-04-04T11:52:24.064Z</time></trkpt><trkpt lat="46.1531689" lon="13.0101477"><ele>190.66666666666669</ele><time>2026-04-04T11:52:25.066Z</time></trkpt><trkpt lat="46.1531732" lon="13.0102679"><ele>190.33333333333334</ele><time>2026-04-04T11:52:26.065Z</time></trkpt><trkpt lat="46.1531757" lon="13.0103997"><ele>190.0</ele><time>2026-04-04T11:52:27.065Z</time></trkpt><trkpt lat="46.1531807" lon="13.0105246"><ele>190.0</ele><time>2026-04-04T11:52:28.064Z</time></trkpt><trkpt lat="46.1531784" lon="13.0106606"><ele>190.0</ele><time>2026-04-04T11:52:29.064Z</time></trkpt><trkpt lat="46.1531625" lon="13.0108014"><ele>190.0</ele><time>2026-04-04T11:52:30.064Z</time></trkpt><trkpt lat="46.1531456" lon="13.0109362"><ele>190.0</ele><time>2026-04-04T11:52:31.064Z</time></trkpt><trkpt lat="46.1531335" lon="13.0110872"><ele>190.0</ele><time>2026-04-04T11:52:32.065Z</time></trkpt><trkpt lat="46.1531183" lon="13.011242"><ele>190.4</ele><time>2026-04-04T11:52:33.066Z</time></trkpt><trkpt lat="46.1530976" lon="13.0113725"><ele>190.8</ele><time>2026-04-04T11:52:34.065Z</time></trkpt><trkpt lat="46.1530806" lon="13.0115056"><ele>191.2</ele><time>2026-04-04T11:52:35.065Z</time></trkpt><trkpt lat="46.1530623" lon="13.0116408"><ele>191.6</ele><time>2026-04-04T11:52:36.065Z</time></trkpt><trkpt lat="46.1530454" lon="13.0117731"><ele>192.0</ele><time>2026-04-04T11:52:37.064Z</time></trkpt><trkpt lat="46.1530268" lon="13.0118907"><ele>192.0</ele><time>2026-04-04T11:52:38.065Z</time></trkpt><trkpt lat="46.15301" lon="13.0120058"><ele>192.0</ele><time>2026-04-04T11:52:39.065Z</time></trkpt><trkpt lat="46.1529926" lon="13.0121101"><ele>192.0</ele><time>2026-04-04T11:52:40.064Z</time></trkpt><trkpt lat="46.1529806" lon="13.0122168"><ele>192.0</ele><time>2026-04-04T11:52:41.065Z</time></trkpt><trkpt lat="46.1529717" lon="13.0123289"><ele>192.0</ele><time>2026-04-04T11:52:42.065Z</time></trkpt><trkpt lat="46.152964" lon="13.0124302"><ele>192.0</ele><time>2026-04-04T11:52:43.064Z</time></trkpt><trkpt lat="46.1529528" lon="13.0125316"><ele>192.0</ele><time>2026-04-04T11:52:44.066Z</time></trkpt><trkpt lat="46.1529335" lon="13.0126329"><ele>192.0</ele><time>2026-04-04T11:52:45.066Z</time></trkpt><trkpt lat="46.1529083" lon="13.0127224"><ele>192.0</ele><time>2026-04-04T11:52:46.066Z</time></trkpt><trkpt lat="46.1528721" lon="13.0128148"><ele>192.0</ele><time>2026-04-04T11:52:47.065Z</time></trkpt><trkpt lat="46.152826" lon="13.0129093"><ele>192.0</ele><time>2026-04-04T11:52:48.065Z</time></trkpt><trkpt lat="46.152773" lon="13.013007"><ele>192.0</ele><time>2026-04-04T11:52:49.064Z</time></trkpt><trkpt lat="46.1527089" lon="13.0131113"><ele>192.0</ele><time>2026-04-04T11:52:50.065Z</time></trkpt><trkpt lat="46.15264" lon="13.0132197"><ele>192.0</ele><time>2026-04-04T11:52:51.065Z</time></trkpt><trkpt lat="46.1525516" lon="13.0133288"><ele>192.0</ele><time>2026-04-04T11:52:52.065Z</time></trkpt><trkpt lat="46.1524479" lon="13.0134379"><ele>192.0</ele><time>2026-04-04T11:52:53.064Z</time></trkpt><trkpt lat="46.1523317" lon="13.0135357"><ele>192.5</ele><time>2026-04-04T11:52:54.066Z</time></trkpt><trkpt lat="46.1522114" lon="13.0136211"><ele>193.0</ele><time>2026-04-04T11:52:55.065Z</time></trkpt><trkpt lat="46.1520977" lon="13.0136902"><ele>193.5</ele><time>2026-04-04T11:52:56.065Z</time></trkpt><trkpt lat="46.1519816" lon="13.0137571"><ele>194.0</ele><time>2026-04-04T11:52:57.064Z</time></trkpt><trkpt lat="46.1518578" lon="13.0138182"><ele>194.0</ele><time>2026-04-04T11:52:58.065Z</time></trkpt><trkpt lat="46.1517282" lon="13.0138756"><ele>194.0</ele><time>2026-04-04T11:52:59.065Z</time></trkpt><trkpt lat="46.1516023" lon="13.0139249"><ele>194.0</ele><time>2026-04-04T11:53:00.066Z</time></trkpt><trkpt lat="46.1514814" lon="13.0139747"><ele>194.0</ele><time>2026-04-04T11:53:01.065Z</time></trkpt><trkpt lat="46.1513667" lon="13.0140444"><ele>194.0</ele><time>2026-04-04T11:53:02.065Z</time></trkpt><trkpt lat="46.15126" lon="13.0141388"><ele>194.0</ele><time>2026-04-04T11:53:03.064Z</time></trkpt><trkpt lat="46.1511566" lon="13.0142274"><ele>194.0</ele><time>2026-04-04T11:53:04.064Z</time></trkpt><trkpt lat="46.1510436" lon="13.0143275"><ele>194.0</ele><time>2026-04-04T11:53:05.065Z</time></trkpt><trkpt lat="46.1509248" lon="13.0144348"><ele>194.0</ele><time>2026-04-04T11:53:06.065Z</time></trkpt><trkpt lat="46.1508025" lon="13.0145517"><ele>194.0</ele><time>2026-04-04T11:53:07.066Z</time></trkpt><trkpt lat="46.150674" lon="13.0146743"><ele>194.0</ele><time>2026-04-04T11:53:08.064Z</time></trkpt><trkpt lat="46.1505388" lon="13.0148057"><ele>193.0</ele><time>2026-04-04T11:53:09.066Z</time></trkpt><trkpt lat="46.1504031" lon="13.0149279"><ele>192.0</ele><time>2026-04-04T11:53:10.065Z</time></trkpt><trkpt lat="46.1502695" lon="13.0150441"><ele>191.0</ele><time>2026-04-04T11:53:11.064Z</time></trkpt><trkpt lat="46.1501325" lon="13.0151665"><ele>190.66666666666666</ele><time>2026-04-04T11:53:12.064Z</time></trkpt><trkpt lat="46.1499946" lon="13.0152996"><ele>190.33333333333334</ele><time>2026-04-04T11:53:13.064Z</time></trkpt><trkpt lat="46.1498597" lon="13.0154495"><ele>190.0</ele><time>2026-04-04T11:53:14.065Z</time></trkpt><trkpt lat="46.1497262" lon="13.0156098"><ele>189.0</ele><time>2026-04-04T11:53:15.066Z</time></trkpt><trkpt lat="46.1496015" lon="13.0157909"><ele>188.0</ele><time>2026-04-04T11:53:16.065Z</time></trkpt><trkpt lat="46.1494686" lon="13.0159704"><ele>187.0</ele><time>2026-04-04T11:53:17.065Z</time></trkpt><trkpt lat="46.1493277" lon="13.0161358"><ele>186.66666666666669</ele><time>2026-04-04T11:53:18.065Z</time></trkpt><trkpt lat="46.1491737" lon="13.0162809"><ele>186.33333333333334</ele><time>2026-04-04T11:53:19.066Z</time></trkpt><trkpt lat="46.1490225" lon="13.0164011"><ele>186.0</ele><time>2026-04-04T11:53:20.065Z</time></trkpt><trkpt lat="46.1488681" lon="13.0164942"><ele>185.33333333333334</ele><time>2026-04-04T11:53:21.064Z</time></trkpt><trkpt lat="46.1487093" lon="13.0165588"><ele>184.66666666666669</ele><time>2026-04-04T11:53:22.065Z</time></trkpt><trkpt lat="46.1485435" lon="13.0166012"><ele>184.0</ele><time>2026-04-04T11:53:23.065Z</time></trkpt><trkpt lat="46.1483788" lon="13.0166213"><ele>183.33333333333334</ele><time>2026-04-04T11:53:24.064Z</time></trkpt><trkpt lat="46.1482084" lon="13.0166216"><ele>182.66666666666666</ele><time>2026-04-04T11:53:25.065Z</time></trkpt><trkpt lat="46.1480412" lon="13.0166207"><ele>182.0</ele><time>2026-04-04T11:53:26.066Z</time></trkpt><trkpt lat="46.1478731" lon="13.0166301"><ele>182.0</ele><time>2026-04-04T11:53:27.065Z</time></trkpt><trkpt lat="46.1477034" lon="13.0166403"><ele>182.0</ele><time>2026-04-04T11:53:28.064Z</time></trkpt><trkpt lat="46.1475353" lon="13.0166572"><ele>182.0</ele><time>2026-04-04T11:53:29.065Z</time></trkpt><trkpt lat="46.1473745" lon="13.0166824"><ele>182.0</ele><time>2026-04-04T11:53:30.065Z</time></trkpt><trkpt lat="46.1472199" lon="13.0167054"><ele>182.0</ele><time>2026-04-04T11:53:31.064Z</time></trkpt><trkpt lat="46.1470741" lon="13.0167428"><ele>182.0</ele><time>2026-04-04T11:53:32.066Z</time></trkpt><trkpt lat="46.1469272" lon="13.0168031"><ele>182.0</ele><time>2026-04-04T11:53:33.064Z</time></trkpt><trkpt lat="46.1467889" lon="13.0168879"><ele>182.0</ele><time>2026-04-04T11:53:34.066Z</time></trkpt><trkpt lat="46.1466539" lon="13.0169969"><ele>182.0</ele><time>2026-04-04T11:53:35.064Z</time></trkpt><trkpt lat="46.1465233" lon="13.0171242"><ele>183.33333333333331</ele><time>2026-04-04T11:53:36.065Z</time></trkpt><trkpt lat="46.1463892" lon="13.0172417"><ele>184.66666666666666</ele><time>2026-04-04T11:53:37.064Z</time></trkpt><trkpt lat="46.1462565" lon="13.0173682"><ele>186.0</ele><time>2026-04-04T11:53:38.065Z</time></trkpt><trkpt lat="46.1461341" lon="13.0174962"><ele>186.0</ele><time>2026-04-04T11:53:39.065Z</time></trkpt><trkpt lat="46.1460168" lon="13.0176338"><ele>186.0</ele><time>2026-04-04T11:53:40.064Z</time></trkpt><trkpt lat="46.145898" lon="13.0177761"><ele>186.0</ele><time>2026-04-04T11:53:41.065Z</time></trkpt><trkpt lat="46.145778" lon="13.0179291"><ele>185.66666666666666</ele><time>2026-04-04T11:53:42.065Z</time></trkpt><trkpt lat="46.1456586" lon="13.0180895"><ele>185.33333333333331</ele><time>2026-04-04T11:53:43.066Z</time></trkpt><trkpt lat="46.145527" lon="13.0182475"><ele>185.0</ele><time>2026-04-04T11:53:44.064Z</time></trkpt><trkpt lat="46.145382" lon="13.0183903"><ele>185.0</ele><time>2026-04-04T11:53:45.066Z</time></trkpt><trkpt lat="46.1452236" lon="13.0185025"><ele>185.0</ele><time>2026-04-04T11:53:46.066Z</time></trkpt><trkpt lat="46.1450546" lon="13.0186063"><ele>185.0</ele><time>2026-04-04T11:53:47.066Z</time></trkpt><trkpt lat="46.1448851" lon="13.018697"><ele>185.66666666666666</ele><time>2026-04-04T11:53:48.064Z</time></trkpt><trkpt lat="46.1447284" lon="13.0188145"><ele>186.33333333333334</ele><time>2026-04-04T11:53:49.064Z</time></trkpt><trkpt lat="46.1445825" lon="13.0189692"><ele>187.0</ele><time>2026-04-04T11:53:50.065Z</time></trkpt><trkpt lat="46.144452" lon="13.0191595"><ele>185.66666666666669</ele><time>2026-04-04T11:53:51.064Z</time></trkpt><trkpt lat="46.1443365" lon="13.0193666"><ele>184.33333333333334</ele><time>2026-04-04T11:53:52.065Z</time></trkpt><trkpt lat="46.1442242" lon="13.0195825"><ele>183.0</ele><time>2026-04-04T11:53:53.065Z</time></trkpt><trkpt lat="46.1441036" lon="13.0197941"><ele>184.0</ele><time>2026-04-04T11:53:54.065Z</time></trkpt><trkpt lat="46.1439741" lon="13.0200109"><ele>185.0</ele><time>2026-04-04T11:53:55.065Z</time></trkpt><trkpt lat="46.1438361" lon="13.0202256"><ele>186.0</ele><time>2026-04-04T11:53:56.064Z</time></trkpt><trkpt lat="46.1436883" lon="13.020435"><ele>186.0</ele><time>2026-04-04T11:53:57.066Z</time></trkpt><trkpt lat="46.1435388" lon="13.0206449"><ele>186.0</ele><time>2026-04-04T11:53:58.064Z</time></trkpt><trkpt lat="46.143392" lon="13.0208467"><ele>186.0</ele><time>2026-04-04T11:53:59.064Z</time></trkpt><trkpt lat="46.143249" lon="13.0210562"><ele>185.33333333333334</ele><time>2026-04-04T11:54:00.065Z</time></trkpt><trkpt lat="46.1431065" lon="13.021246"><ele>184.66666666666669</ele><time>2026-04-04T11:54:01.065Z</time></trkpt><trkpt lat="46.1429597" lon="13.0214057"><ele>184.0</ele><time>2026-04-04T11:54:02.065Z</time></trkpt><trkpt lat="46.1427992" lon="13.0215245"><ele>184.0</ele><time>2026-04-04T11:54:03.065Z</time></trkpt><trkpt lat="46.142627" lon="13.0216138"><ele>184.0</ele><time>2026-04-04T11:54:04.065Z</time></trkpt><trkpt lat="46.1424449" lon="13.0216827"><ele>184.0</ele><time>2026-04-04T11:54:05.065Z</time></trkpt><trkpt lat="46.1422557" lon="13.0217395"><ele>182.66666666666669</ele><time>2026-04-04T11:54:06.065Z</time></trkpt><trkpt lat="46.1420605" lon="13.0217964"><ele>181.33333333333334</ele><time>2026-04-04T11:54:07.064Z</time></trkpt><trkpt lat="46.1418641" lon="13.0218593"><ele>180.0</ele><time>2026-04-04T11:54:08.064Z</time></trkpt><trkpt lat="46.1416627" lon="13.0219324"><ele>180.0</ele><time>2026-04-04T11:54:09.064Z</time></trkpt><trkpt lat="46.14146" lon="13.022015"><ele>180.0</ele><time>2026-04-04T11:54:10.064Z</time></trkpt><trkpt lat="46.1412545" lon="13.0221131"><ele>180.0</ele><time>2026-04-04T11:54:11.064Z</time></trkpt><trkpt lat="46.1410625" lon="13.0222162"><ele>180.0</ele><time>2026-04-04T11:54:12.065Z</time></trkpt><trkpt lat="46.1408879" lon="13.0223156"><ele>180.0</ele><time>2026-04-04T11:54:13.064Z</time></trkpt><trkpt lat="46.1407261" lon="13.0224026"><ele>180.0</ele><time>2026-04-04T11:54:14.066Z</time></trkpt><trkpt lat="46.1405664" lon="13.0224797"><ele>179.0</ele><time>2026-04-04T11:54:15.065Z</time></trkpt><trkpt lat="46.1404053" lon="13.0225408"><ele>178.0</ele><time>2026-04-04T11:54:16.065Z</time></trkpt><trkpt lat="46.140236" lon="13.0225835"><ele>177.0</ele><time>2026-04-04T11:54:17.065Z</time></trkpt><trkpt lat="46.1400621" lon="13.0226076"><ele>177.0</ele><time>2026-04-04T11:54:18.064Z</time></trkpt><trkpt lat="46.1398918" lon="13.0226345"><ele>177.0</ele><time>2026-04-04T11:54:19.065Z</time></trkpt><trkpt lat="46.1397194" lon="13.0226568"><ele>177.0</ele><time>2026-04-04T11:54:20.065Z</time></trkpt><trkpt lat="46.1395405" lon="13.0226867"><ele>177.0</ele><time>2026-04-04T11:54:21.065Z</time></trkpt><trkpt lat="46.1393638" lon="13.0227142"><ele>177.0</ele><time>2026-04-04T11:54:22.064Z</time></trkpt><trkpt lat="46.1391933" lon="13.0227394"><ele>177.0</ele><time>2026-04-04T11:54:23.065Z</time></trkpt><trkpt lat="46.1390266" lon="13.0227651"><ele>175.66666666666666</ele><time>2026-04-04T11:54:24.064Z</time></trkpt><trkpt lat="46.1388638" lon="13.0227945"><ele>174.33333333333331</ele><time>2026-04-04T11:54:25.065Z</time></trkpt><trkpt lat="46.1387096" lon="13.0228155"><ele>173.0</ele><time>2026-04-04T11:54:26.065Z</time></trkpt><trkpt lat="46.138566" lon="13.0228314"><ele>173.0</ele><time>2026-04-04T11:54:27.066Z</time></trkpt><trkpt lat="46.1384234" lon="13.02285"><ele>173.0</ele><time>2026-04-04T11:54:28.065Z</time></trkpt><trkpt lat="46.1382894" lon="13.0228644"><ele>173.0</ele><time>2026-04-04T11:54:29.065Z</time></trkpt><trkpt lat="46.1381697" lon="13.0228527"><ele>173.0</ele><time>2026-04-04T11:54:30.065Z</time></trkpt><trkpt lat="46.1380539" lon="13.0228174"><ele>171.25</ele><time>2026-04-04T11:54:31.065Z</time></trkpt><trkpt lat="46.137947" lon="13.0227533"><ele>169.5</ele><time>2026-04-04T11:54:32.064Z</time></trkpt><trkpt lat="46.137849" lon="13.0226779"><ele>167.75</ele><time>2026-04-04T11:54:33.066Z</time></trkpt><trkpt lat="46.1377486" lon="13.022605"><ele>166.0</ele><time>2026-04-04T11:54:34.064Z</time></trkpt><trkpt lat="46.1376405" lon="13.0225214"><ele>166.25</ele><time>2026-04-04T11:54:35.064Z</time></trkpt><trkpt lat="46.1375257" lon="13.022428"><ele>166.5</ele><time>2026-04-04T11:54:36.065Z</time></trkpt><trkpt lat="46.1374097" lon="13.0223258"><ele>166.75</ele><time>2026-04-04T11:54:37.066Z</time></trkpt><trkpt lat="46.1372791" lon="13.0222012"><ele>167.0</ele><time>2026-04-04T11:54:38.066Z</time></trkpt><trkpt lat="46.1371427" lon="13.0220663"><ele>167.0</ele><time>2026-04-04T11:54:39.066Z</time></trkpt><trkpt lat="46.1370064" lon="13.0219187"><ele>167.0</ele><time>2026-04-04T11:54:40.064Z</time></trkpt><trkpt lat="46.1368631" lon="13.0217665"><ele>167.0</ele><time>2026-04-04T11:54:41.066Z</time></trkpt><trkpt lat="46.1367141" lon="13.021608"><ele>165.66666666666666</ele><time>2026-04-04T11:54:42.065Z</time></trkpt><trkpt lat="46.1365675" lon="13.0214524"><ele>164.33333333333334</ele><time>2026-04-04T11:54:43.065Z</time></trkpt><trkpt lat="46.1364246" lon="13.0213034"><ele>163.0</ele><time>2026-04-04T11:54:44.065Z</time></trkpt><trkpt lat="46.1362935" lon="13.0211541"><ele>163.0</ele><time>2026-04-04T11:54:45.064Z</time></trkpt><trkpt lat="46.1361675" lon="13.0210023"><ele>163.0</ele><time>2026-04-04T11:54:46.064Z</time></trkpt><trkpt lat="46.1360484" lon="13.0208519"><ele>163.0</ele><time>2026-04-04T11:54:47.065Z</time></trkpt><trkpt lat="46.1359401" lon="13.0207117"><ele>162.0</ele><time>2026-04-04T11:54:48.064Z</time></trkpt><trkpt lat="46.1358494" lon="13.0205665"><ele>161.0</ele><time>2026-04-04T11:54:49.064Z</time></trkpt><trkpt lat="46.1357683" lon="13.0204189"><ele>160.0</ele><time>2026-04-04T11:54:50.065Z</time></trkpt><trkpt lat="46.1356877" lon="13.0202727"><ele>159.0</ele><time>2026-04-04T11:54:51.065Z</time></trkpt><trkpt lat="46.1356106" lon="13.0201343"><ele>159.0</ele><time>2026-04-04T11:54:52.066Z</time></trkpt><trkpt lat="46.1355302" lon="13.0199857"><ele>159.0</ele><time>2026-04-04T11:54:53.066Z</time></trkpt><trkpt lat="46.1354447" lon="13.0198245"><ele>159.0</ele><time>2026-04-04T11:54:54.065Z</time></trkpt><trkpt lat="46.13536" lon="13.0196554"><ele>159.0</ele><time>2026-04-04T11:54:55.066Z</time></trkpt><trkpt lat="46.1352719" lon="13.0194715"><ele>160.0</ele><time>2026-04-04T11:54:56.065Z</time></trkpt><trkpt lat="46.1351786" lon="13.0192761"><ele>161.0</ele><time>2026-04-04T11:54:57.064Z</time></trkpt><trkpt lat="46.1350819" lon="13.0190761"><ele>162.0</ele><time>2026-04-04T11:54:58.064Z</time></trkpt><trkpt lat="46.1349869" lon="13.0188805"><ele>163.66666666666666</ele><time>2026-04-04T11:54:59.066Z</time></trkpt><trkpt lat="46.1348881" lon="13.0186887"><ele>165.33333333333331</ele><time>2026-04-04T11:55:00.066Z</time></trkpt><trkpt lat="46.1347882" lon="13.0185037"><ele>167.0</ele><time>2026-04-04T11:55:01.065Z</time></trkpt><trkpt lat="46.1346754" lon="13.0183348"><ele>162.0</ele><time>2026-04-04T11:55:02.064Z</time></trkpt><trkpt lat="46.1345492" lon="13.0181967"><ele>157.0</ele><time>2026-04-04T11:55:03.066Z</time></trkpt><trkpt lat="46.1344101" lon="13.0180885"><ele>152.0</ele><time>2026-04-04T11:55:04.065Z</time></trkpt><trkpt lat="46.134272" lon="13.0179989"><ele>152.0</ele><time>2026-04-04T11:55:05.064Z</time></trkpt><trkpt lat="46.1341341" lon="13.0179342"><ele>152.0</ele><time>2026-04-04T11:55:06.064Z</time></trkpt><trkpt lat="46.1339962" lon="13.0178886"><ele>152.0</ele><time>2026-04-04T11:55:07.064Z</time></trkpt><trkpt lat="46.1338641" lon="13.017844"><ele>152.0</ele><time>2026-04-04T11:55:08.066Z</time></trkpt><trkpt lat="46.133729" lon="13.0177914"><ele>150.5</ele><time>2026-04-04T11:55:09.066Z</time></trkpt><trkpt lat="46.1336037" lon="13.0177396"><ele>149.0</ele><time>2026-04-04T11:55:10.064Z</time></trkpt><trkpt lat="46.1334816" lon="13.0176955"><ele>147.5</ele><time>2026-04-04T11:55:11.065Z</time></trkpt><trkpt lat="46.1333583" lon="13.0176571"><ele>146.0</ele><time>2026-04-04T11:55:12.066Z</time></trkpt><trkpt lat="46.1332407" lon="13.0176172"><ele>145.75</ele><time>2026-04-04T11:55:13.066Z</time></trkpt><trkpt lat="46.1331281" lon="13.0175726"><ele>145.5</ele><time>2026-04-04T11:55:14.064Z</time></trkpt><trkpt lat="46.1330167" lon="13.0175253"><ele>145.25</ele><time>2026-04-04T11:55:15.065Z</time></trkpt><trkpt lat="46.1329071" lon="13.0174784"><ele>145.0</ele><time>2026-04-04T11:55:16.065Z</time></trkpt><trkpt lat="46.1328027" lon="13.01743"><ele>145.0</ele><time>2026-04-04T11:55:17.066Z</time></trkpt><trkpt lat="46.1327038" lon="13.0173932"><ele>145.0</ele><time>2026-04-04T11:55:18.064Z</time></trkpt><trkpt lat="46.1326112" lon="13.0173792"><ele>145.0</ele><time>2026-04-04T11:55:19.065Z</time></trkpt><trkpt lat="46.132519" lon="13.0173871"><ele>145.0</ele><time>2026-04-04T11:55:20.065Z</time></trkpt><trkpt lat="46.1324312" lon="13.0174355"><ele>145.0</ele><time>2026-04-04T11:55:21.064Z</time></trkpt><trkpt lat="46.1323361" lon="13.0174879"><ele>143.5</ele><time>2026-04-04T11:55:22.065Z</time></trkpt><trkpt lat="46.1322375" lon="13.0175611"><ele>142.0</ele><time>2026-04-04T11:55:23.064Z</time></trkpt><trkpt lat="46.1321398" lon="13.0176739"><ele>140.5</ele><time>2026-04-04T11:55:24.066Z</time></trkpt><trkpt lat="46.1320588" lon="13.0178123"><ele>139.0</ele><time>2026-04-04T11:55:25.065Z</time></trkpt><trkpt lat="46.1319792" lon="13.017977"><ele>139.0</ele><time>2026-04-04T11:55:26.066Z</time></trkpt><trkpt lat="46.131912" lon="13.0181662"><ele>139.0</ele><time>2026-04-04T11:55:27.065Z</time></trkpt><trkpt lat="46.1318465" lon="13.0183678"><ele>139.0</ele><time>2026-04-04T11:55:28.064Z</time></trkpt><trkpt lat="46.1317786" lon="13.018562"><ele>138.33333333333334</ele><time>2026-04-04T11:55:29.066Z</time></trkpt><trkpt lat="46.1317088" lon="13.0187718"><ele>137.66666666666666</ele><time>2026-04-04T11:55:30.064Z</time></trkpt><trkpt lat="46.1316384" lon="13.0189751"><ele>137.0</ele><time>2026-04-04T11:55:31.064Z</time></trkpt><trkpt lat="46.1315642" lon="13.0191821"><ele>137.33333333333331</ele><time>2026-04-04T11:55:32.064Z</time></trkpt><trkpt lat="46.1314928" lon="13.019397"><ele>137.66666666666666</ele><time>2026-04-04T11:55:33.064Z</time></trkpt><trkpt lat="46.1314249" lon="13.0196064"><ele>138.0</ele><time>2026-04-04T11:55:34.066Z</time></trkpt><trkpt lat="46.1313602" lon="13.0198089"><ele>138.0</ele><time>2026-04-04T11:55:35.065Z</time></trkpt><trkpt lat="46.1312975" lon="13.0200037"><ele>138.0</ele><time>2026-04-04T11:55:36.065Z</time></trkpt><trkpt lat="46.1312352" lon="13.0201866"><ele>138.0</ele><time>2026-04-04T11:55:37.064Z</time></trkpt><trkpt lat="46.1311671" lon="13.0203467"><ele>138.0</ele><time>2026-04-04T11:55:38.066Z</time></trkpt><trkpt lat="46.1310826" lon="13.0204969"><ele>138.0</ele><time>2026-04-04T11:55:39.066Z</time></trkpt><trkpt lat="46.1309822" lon="13.0206277"><ele>138.0</ele><time>2026-04-04T11:55:40.065Z</time></trkpt><trkpt lat="46.130872" lon="13.0207334"><ele>138.0</ele><time>2026-04-04T11:55:41.066Z</time></trkpt><trkpt lat="46.1307614" lon="13.0208257"><ele>138.0</ele><time>2026-04-04T11:55:42.065Z</time></trkpt><trkpt lat="46.1306548" lon="13.0209084"><ele>137.6</ele><time>2026-04-04T11:55:43.064Z</time></trkpt><trkpt lat="46.1305567" lon="13.0209866"><ele>137.20000000000002</ele><time>2026-04-04T11:55:44.065Z</time></trkpt><trkpt lat="46.1304635" lon="13.0210614"><ele>136.8</ele><time>2026-04-04T11:55:45.065Z</time></trkpt><trkpt lat="46.1303781" lon="13.0211292"><ele>136.4</ele><time>2026-04-04T11:55:46.065Z</time></trkpt><trkpt lat="46.1302953" lon="13.0211933"><ele>136.0</ele><time>2026-04-04T11:55:47.064Z</time></trkpt><trkpt lat="46.130207" lon="13.0212643"><ele>136.0</ele><time>2026-04-04T11:55:48.064Z</time></trkpt><trkpt lat="46.1301012" lon="13.021353"><ele>136.0</ele><time>2026-04-04T11:55:49.065Z</time></trkpt><trkpt lat="46.1299687" lon="13.021465"><ele>136.0</ele><time>2026-04-04T11:55:50.064Z</time></trkpt><trkpt lat="46.1298131" lon="13.0215929"><ele>136.0</ele><time>2026-04-04T11:55:51.065Z</time></trkpt><trkpt lat="46.1296384" lon="13.0217408"><ele>136.0</ele><time>2026-04-04T11:55:52.065Z</time></trkpt><trkpt lat="46.1294466" lon="13.0219187"><ele>136.0</ele><time>2026-04-04T11:55:53.065Z</time></trkpt><trkpt lat="46.1292477" lon="13.0221232"><ele>135.5</ele><time>2026-04-04T11:55:54.064Z</time></trkpt><trkpt lat="46.1290501" lon="13.0223408"><ele>135.0</ele><time>2026-04-04T11:55:55.064Z</time></trkpt><trkpt lat="46.1288511" lon="13.0225533"><ele>135.0</ele><time>2026-04-04T11:55:56.066Z</time></trkpt><trkpt lat="46.12866" lon="13.0227593"><ele>135.0</ele><time>2026-04-04T11:55:57.064Z</time></trkpt><trkpt lat="46.1284746" lon="13.0229638"><ele>135.0</ele><time>2026-04-04T11:55:58.067Z</time></trkpt><trkpt lat="46.1282975" lon="13.0231566"><ele>135.0</ele><time>2026-04-04T11:55:59.065Z</time></trkpt><trkpt lat="46.1281202" lon="13.023317"><ele>135.0</ele><time>2026-04-04T11:56:00.067Z</time></trkpt><trkpt lat="46.1279378" lon="13.0234427"><ele>135.66666666666666</ele><time>2026-04-04T11:56:01.065Z</time></trkpt><trkpt lat="46.1277508" lon="13.0235339"><ele>136.33333333333331</ele><time>2026-04-04T11:56:02.067Z</time></trkpt><trkpt lat="46.1275707" lon="13.0236081"><ele>137.0</ele><time>2026-04-04T11:56:03.065Z</time></trkpt><trkpt lat="46.1274044" lon="13.0236892"><ele>136.66666666666666</ele><time>2026-04-04T11:56:04.066Z</time></trkpt><trkpt lat="46.1272528" lon="13.0238016"><ele>136.33333333333334</ele><time>2026-04-04T11:56:05.065Z</time></trkpt><trkpt lat="46.1271135" lon="13.0239434"><ele>136.0</ele><time>2026-04-04T11:56:06.064Z</time></trkpt><trkpt lat="46.1269772" lon="13.0240936"><ele>136.0</ele><time>2026-04-04T11:56:07.066Z</time></trkpt><trkpt lat="46.1268392" lon="13.0242312"><ele>136.0</ele><time>2026-04-04T11:56:08.066Z</time></trkpt><trkpt lat="46.1266874" lon="13.0243381"><ele>136.0</ele><time>2026-04-04T11:56:09.066Z</time></trkpt><trkpt lat="46.1265263" lon="13.0244097"><ele>136.0</ele><time>2026-04-04T11:56:10.065Z</time></trkpt><trkpt lat="46.1263634" lon="13.0244481"><ele>136.0</ele><time>2026-04-04T11:56:11.065Z</time></trkpt><trkpt lat="46.1262019" lon="13.0244667"><ele>136.0</ele><time>2026-04-04T11:56:12.065Z</time></trkpt><trkpt lat="46.126046" lon="13.024494"><ele>136.0</ele><time>2026-04-04T11:56:13.065Z</time></trkpt><trkpt lat="46.1258982" lon="13.0245227"><ele>136.0</ele><time>2026-04-04T11:56:14.065Z</time></trkpt><trkpt lat="46.1257586" lon="13.0245714"><ele>136.0</ele><time>2026-04-04T11:56:15.066Z</time></trkpt><trkpt lat="46.125633" lon="13.0246573"><ele>136.0</ele><time>2026-04-04T11:56:16.066Z</time></trkpt><trkpt lat="46.1255232" lon="13.0247733"><ele>136.33333333333334</ele><time>2026-04-04T11:56:17.066Z</time></trkpt><trkpt lat="46.1254266" lon="13.0249248"><ele>136.66666666666666</ele><time>2026-04-04T11:56:18.065Z</time></trkpt><trkpt lat="46.125329" lon="13.0250944"><ele>137.0</ele><time>2026-04-04T11:56:19.064Z</time></trkpt><trkpt lat="46.1252294" lon="13.0252692"><ele>137.0</ele><time>2026-04-04T11:56:20.066Z</time></trkpt><trkpt lat="46.1251365" lon="13.0254262"><ele>137.0</ele><time>2026-04-04T11:56:21.065Z</time></trkpt><trkpt lat="46.1250671" lon="13.0255682"><ele>137.0</ele><time>2026-04-04T11:56:22.064Z</time></trkpt><trkpt lat="46.125015" lon="13.0257073"><ele>137.0</ele><time>2026-04-04T11:56:23.065Z</time></trkpt><trkpt lat="46.1249907" lon="13.0258678"><ele>138.0</ele><time>2026-04-04T11:56:24.064Z</time></trkpt><trkpt lat="46.1249956" lon="13.0260382"><ele>139.0</ele><time>2026-04-04T11:56:25.064Z</time></trkpt><trkpt lat="46.1250231" lon="13.0262202"><ele>140.0</ele><time>2026-04-04T11:56:26.065Z</time></trkpt><trkpt lat="46.1250552" lon="13.0264118"><ele>141.0</ele><time>2026-04-04T11:56:27.066Z</time></trkpt><trkpt lat="46.1250926" lon="13.026621"><ele>142.33333333333334</ele><time>2026-04-04T11:56:28.065Z</time></trkpt><trkpt lat="46.1251289" lon="13.0268324"><ele>143.66666666666669</ele><time>2026-04-04T11:56:29.065Z</time></trkpt><trkpt lat="46.1251646" lon="13.027045"><ele>145.0</ele><time>2026-04-04T11:56:30.066Z</time></trkpt><trkpt lat="46.125188" lon="13.027258"><ele>145.0</ele><time>2026-04-04T11:56:31.066Z</time></trkpt><trkpt lat="46.1251853" lon="13.0274704"><ele>145.0</ele><time>2026-04-04T11:56:32.065Z</time></trkpt><trkpt lat="46.1251937" lon="13.0277004"><ele>145.0</ele><time>2026-04-04T11:56:33.065Z</time></trkpt><trkpt lat="46.1252094" lon="13.0279187"><ele>145.75</ele><time>2026-04-04T11:56:34.067Z</time></trkpt><trkpt lat="46.1252373" lon="13.0281401"><ele>146.5</ele><time>2026-04-04T11:56:35.065Z</time></trkpt><trkpt lat="46.1252757" lon="13.0283451"><ele>147.25</ele><time>2026-04-04T11:56:36.067Z</time></trkpt><trkpt lat="46.1253156" lon="13.0285389"><ele>148.0</ele><time>2026-04-04T11:56:37.065Z</time></trkpt><trkpt lat="46.1253616" lon="13.0287294"><ele>149.8</ele><time>2026-04-04T11:56:38.066Z</time></trkpt><trkpt lat="46.1254061" lon="13.0289109"><ele>151.60000000000002</ele><time>2026-04-04T11:56:39.065Z</time></trkpt><trkpt lat="46.1254388" lon="13.0290698"><ele>153.39999999999998</ele><time>2026-04-04T11:56:40.064Z</time></trkpt><trkpt lat="46.1254739" lon="13.0292137"><ele>155.2</ele><time>2026-04-04T11:56:41.066Z</time></trkpt><trkpt lat="46.1255008" lon="13.0293346"><ele>157.0</ele><time>2026-04-04T11:56:42.066Z</time></trkpt><trkpt lat="46.1255292" lon="13.0294597"><ele>158.0</ele><time>2026-04-04T11:56:43.066Z</time></trkpt><trkpt lat="46.1255596" lon="13.0295946"><ele>159.0</ele><time>2026-04-04T11:56:44.064Z</time></trkpt><trkpt lat="46.1255961" lon="13.0297424"><ele>160.0</ele><time>2026-04-04T11:56:45.066Z</time></trkpt><trkpt lat="46.1256329" lon="13.0298801"><ele>161.0</ele><time>2026-04-04T11:56:46.064Z</time></trkpt><trkpt lat="46.1256669" lon="13.0300115"><ele>162.0</ele><time>2026-04-04T11:56:47.064Z</time></trkpt><trkpt lat="46.1257" lon="13.0301458"><ele>162.0</ele><time>2026-04-04T11:56:48.065Z</time></trkpt><trkpt lat="46.1257349" lon="13.0302895"><ele>162.0</ele><time>2026-04-04T11:56:49.065Z</time></trkpt><trkpt lat="46.125778" lon="13.0304352"><ele>162.0</ele><time>2026-04-04T11:56:50.064Z</time></trkpt><trkpt lat="46.1258181" lon="13.0305929"><ele>162.0</ele><time>2026-04-04T11:56:51.065Z</time></trkpt><trkpt lat="46.1258616" lon="13.0307571"><ele>162.2</ele><time>2026-04-04T11:56:52.064Z</time></trkpt><trkpt lat="46.1259031" lon="13.0309193"><ele>162.39999999999998</ele><time>2026-04-04T11:56:53.065Z</time></trkpt><trkpt lat="46.1259419" lon="13.0310679"><ele>162.60000000000002</ele><time>2026-04-04T11:56:54.064Z</time></trkpt><trkpt lat="46.125975" lon="13.0311993"><ele>162.8</ele><time>2026-04-04T11:56:55.065Z</time></trkpt><trkpt lat="46.1259933" lon="13.031314"><ele>163.0</ele><time>2026-04-04T11:56:56.066Z</time></trkpt><trkpt lat="46.1259986" lon="13.0314249"><ele>163.0</ele><time>2026-04-04T11:56:57.065Z</time></trkpt><trkpt lat="46.125978" lon="13.0315301"><ele>163.0</ele><time>2026-04-04T11:56:58.065Z</time></trkpt><trkpt lat="46.1259295" lon="13.0316152"><ele>163.0</ele><time>2026-04-04T11:56:59.065Z</time></trkpt><trkpt lat="46.1258564" lon="13.031679"><ele>163.0</ele><time>2026-04-04T11:57:00.065Z</time></trkpt><trkpt lat="46.1257652" lon="13.0317376"><ele>163.0</ele><time>2026-04-04T11:57:01.065Z</time></trkpt><trkpt lat="46.1256542" lon="13.0317956"><ele>163.0</ele><time>2026-04-04T11:57:02.066Z</time></trkpt><trkpt lat="46.1255304" lon="13.0318581"><ele>163.0</ele><time>2026-04-04T11:57:03.066Z</time></trkpt><trkpt lat="46.1253861" lon="13.031925"><ele>163.0</ele><time>2026-04-04T11:57:04.064Z</time></trkpt><trkpt lat="46.125241" lon="13.0319933"><ele>163.0</ele><time>2026-04-04T11:57:05.065Z</time></trkpt><trkpt lat="46.1251026" lon="13.0320665"><ele>163.0</ele><time>2026-04-04T11:57:06.065Z</time></trkpt><trkpt lat="46.1249543" lon="13.032138"><ele>163.0</ele><time>2026-04-04T11:57:07.066Z</time></trkpt><trkpt lat="46.1248017" lon="13.0321972"><ele>163.0</ele><time>2026-04-04T11:57:08.065Z</time></trkpt><trkpt lat="46.1246535" lon="13.0322757"><ele>162.66666666666669</ele><time>2026-04-04T11:57:09.065Z</time></trkpt><trkpt lat="46.1245056" lon="13.0323516"><ele>162.33333333333334</ele><time>2026-04-04T11:57:10.065Z</time></trkpt><trkpt lat="46.1243581" lon="13.0324256"><ele>162.0</ele><time>2026-04-04T11:57:11.065Z</time></trkpt><trkpt lat="46.124203" lon="13.0325032"><ele>161.66666666666666</ele><time>2026-04-04T11:57:12.064Z</time></trkpt><trkpt lat="46.1240521" lon="13.0325805"><ele>161.33333333333331</ele><time>2026-04-04T11:57:13.064Z</time></trkpt><trkpt lat="46.1239051" lon="13.0326513"><ele>161.0</ele><time>2026-04-04T11:57:14.065Z</time></trkpt><trkpt lat="46.1237583" lon="13.0327243"><ele>161.0</ele><time>2026-04-04T11:57:15.065Z</time></trkpt><trkpt lat="46.1236119" lon="13.0327964"><ele>161.0</ele><time>2026-04-04T11:57:16.064Z</time></trkpt><trkpt lat="46.1234713" lon="13.0328824"><ele>161.0</ele><time>2026-04-04T11:57:17.066Z</time></trkpt><trkpt lat="46.1233285" lon="13.0329745"><ele>160.33333333333331</ele><time>2026-04-04T11:57:18.064Z</time></trkpt><trkpt lat="46.1231867" lon="13.0330642"><ele>159.66666666666666</ele><time>2026-04-04T11:57:19.064Z</time></trkpt><trkpt lat="46.1230406" lon="13.0331588"><ele>159.0</ele><time>2026-04-04T11:57:20.065Z</time></trkpt><trkpt lat="46.1228964" lon="13.0332527"><ele>159.25</ele><time>2026-04-04T11:57:21.064Z</time></trkpt><trkpt lat="46.1227573" lon="13.0333438"><ele>159.5</ele><time>2026-04-04T11:57:22.066Z</time></trkpt><trkpt lat="46.1226239" lon="13.0334299"><ele>159.75</ele><time>2026-04-04T11:57:23.064Z</time></trkpt><trkpt lat="46.1224932" lon="13.0335222"><ele>160.0</ele><time>2026-04-04T11:57:24.065Z</time></trkpt><trkpt lat="46.1223663" lon="13.0336126"><ele>160.0</ele><time>2026-04-04T11:57:25.065Z</time></trkpt><trkpt lat="46.1222396" lon="13.0336994"><ele>160.0</ele><time>2026-04-04T11:57:26.065Z</time></trkpt><trkpt lat="46.1221108" lon="13.0337896"><ele>160.0</ele><time>2026-04-04T11:57:27.066Z</time></trkpt><trkpt lat="46.1219834" lon="13.0338764"><ele>160.0</ele><time>2026-04-04T11:57:28.066Z</time></trkpt><trkpt lat="46.1218538" lon="13.033964"><ele>160.0</ele><time>2026-04-04T11:57:29.064Z</time></trkpt><trkpt lat="46.1217241" lon="13.034051"><ele>160.0</ele><time>2026-04-04T11:57:30.066Z</time></trkpt><trkpt lat="46.1215918" lon="13.0341403"><ele>160.0</ele><time>2026-04-04T11:57:31.067Z</time></trkpt><trkpt lat="46.1214583" lon="13.0342266"><ele>160.0</ele><time>2026-04-04T11:57:32.064Z</time></trkpt><trkpt lat="46.121324" lon="13.0343229"><ele>160.0</ele><time>2026-04-04T11:57:33.064Z</time></trkpt><trkpt lat="46.1211895" lon="13.0344133"><ele>160.0</ele><time>2026-04-04T11:57:34.064Z</time></trkpt><trkpt lat="46.1210463" lon="13.0345112"><ele>160.0</ele><time>2026-04-04T11:57:35.066Z</time></trkpt><trkpt lat="46.1209007" lon="13.0346142"><ele>160.0</ele><time>2026-04-04T11:57:36.064Z</time></trkpt><trkpt lat="46.120747" lon="13.0347283"><ele>160.0</ele><time>2026-04-04T11:57:37.065Z</time></trkpt><trkpt lat="46.1205839" lon="13.0348419"><ele>160.0</ele><time>2026-04-04T11:57:38.064Z</time></trkpt><trkpt lat="46.1204106" lon="13.0349605"><ele>160.0</ele><time>2026-04-04T11:57:39.065Z</time></trkpt><trkpt lat="46.1202311" lon="13.0350795"><ele>160.0</ele><time>2026-04-04T11:57:40.065Z</time></trkpt><trkpt lat="46.1200448" lon="13.0352109"><ele>160.0</ele><time>2026-04-04T11:57:41.066Z</time></trkpt><trkpt lat="46.1198571" lon="13.0353456"><ele>159.33333333333334</ele><time>2026-04-04T11:57:42.066Z</time></trkpt><trkpt lat="46.119659" lon="13.0354767"><ele>158.66666666666666</ele><time>2026-04-04T11:57:43.064Z</time></trkpt><trkpt lat="46.1194634" lon="13.0356104"><ele>158.0</ele><time>2026-04-04T11:57:44.066Z</time></trkpt><trkpt lat="46.1192682" lon="13.0357463"><ele>158.33333333333331</ele><time>2026-04-04T11:57:45.065Z</time></trkpt><trkpt lat="46.1190762" lon="13.035876"><ele>158.66666666666666</ele><time>2026-04-04T11:57:46.065Z</time></trkpt><trkpt lat="46.1188872" lon="13.0360014"><ele>159.0</ele><time>2026-04-04T11:57:47.065Z</time></trkpt><trkpt lat="46.1187006" lon="13.0361285"><ele>158.33333333333334</ele><time>2026-04-04T11:57:48.064Z</time></trkpt><trkpt lat="46.1185127" lon="13.0362538"><ele>157.66666666666669</ele><time>2026-04-04T11:57:49.066Z</time></trkpt><trkpt lat="46.1183233" lon="13.036379"><ele>157.0</ele><time>2026-04-04T11:57:50.065Z</time></trkpt><trkpt lat="46.1181424" lon="13.0365095"><ele>156.33333333333334</ele><time>2026-04-04T11:57:51.065Z</time></trkpt><trkpt lat="46.117961" lon="13.0366558"><ele>155.66666666666666</ele><time>2026-04-04T11:57:52.065Z</time></trkpt><trkpt lat="46.1177809" lon="13.0368079"><ele>155.0</ele><time>2026-04-04T11:57:53.066Z</time></trkpt><trkpt lat="46.1176019" lon="13.0369836"><ele>155.0</ele><time>2026-04-04T11:57:54.064Z</time></trkpt><trkpt lat="46.1174179" lon="13.0371754"><ele>155.0</ele><time>2026-04-04T11:57:55.064Z</time></trkpt><trkpt lat="46.1172287" lon="13.0373778"><ele>155.0</ele><time>2026-04-04T11:57:56.066Z</time></trkpt><trkpt lat="46.117035" lon="13.0375929"><ele>155.0</ele><time>2026-04-04T11:57:57.066Z</time></trkpt><trkpt lat="46.116838" lon="13.037814"><ele>155.0</ele><time>2026-04-04T11:57:58.065Z</time></trkpt><trkpt lat="46.1166297" lon="13.0380465"><ele>155.0</ele><time>2026-04-04T11:57:59.066Z</time></trkpt><trkpt lat="46.1164133" lon="13.0382863"><ele>154.5</ele><time>2026-04-04T11:58:00.066Z</time></trkpt><trkpt lat="46.1161963" lon="13.0385265"><ele>154.0</ele><time>2026-04-04T11:58:01.064Z</time></trkpt><trkpt lat="46.1159824" lon="13.038758"><ele>154.0</ele><time>2026-04-04T11:58:02.064Z</time></trkpt><trkpt lat="46.115775" lon="13.0389835"><ele>154.0</ele><time>2026-04-04T11:58:03.065Z</time></trkpt><trkpt lat="46.1155746" lon="13.0392066"><ele>153.0</ele><time>2026-04-04T11:58:04.064Z</time></trkpt><trkpt lat="46.115376" lon="13.0394257"><ele>152.0</ele><time>2026-04-04T11:58:05.065Z</time></trkpt><trkpt lat="46.1151739" lon="13.0396404"><ele>152.0</ele><time>2026-04-04T11:58:06.066Z</time></trkpt><trkpt lat="46.1149772" lon="13.0398572"><ele>152.0</ele><time>2026-04-04T11:58:07.065Z</time></trkpt><trkpt lat="46.1147787" lon="13.0400747"><ele>151.5</ele><time>2026-04-04T11:58:08.064Z</time></trkpt><trkpt lat="46.1145813" lon="13.0402947"><ele>151.0</ele><time>2026-04-04T11:58:09.065Z</time></trkpt><trkpt lat="46.1143855" lon="13.0405044"><ele>151.0</ele><time>2026-04-04T11:58:10.066Z</time></trkpt><trkpt lat="46.1141948" lon="13.0407058"><ele>151.0</ele><time>2026-04-04T11:58:11.066Z</time></trkpt><trkpt lat="46.1139982" lon="13.0408834"><ele>151.5</ele><time>2026-04-04T11:58:12.067Z</time></trkpt><trkpt lat="46.113796" lon="13.0410422"><ele>152.0</ele><time>2026-04-04T11:58:13.065Z</time></trkpt><trkpt lat="46.1135884" lon="13.0411792"><ele>152.0</ele><time>2026-04-04T11:58:14.065Z</time></trkpt><trkpt lat="46.1133747" lon="13.0413017"><ele>152.0</ele><time>2026-04-04T11:58:15.065Z</time></trkpt><trkpt lat="46.1131516" lon="13.0414204"><ele>151.5</ele><time>2026-04-04T11:58:16.064Z</time></trkpt><trkpt lat="46.1129184" lon="13.0415538"><ele>151.0</ele><time>2026-04-04T11:58:17.064Z</time></trkpt><trkpt lat="46.1126815" lon="13.0416845"><ele>151.0</ele><time>2026-04-04T11:58:18.065Z</time></trkpt><trkpt lat="46.1124445" lon="13.0418214"><ele>151.0</ele><time>2026-04-04T11:58:19.064Z</time></trkpt><trkpt lat="46.1122025" lon="13.0419633"><ele>150.5</ele><time>2026-04-04T11:58:20.064Z</time></trkpt><trkpt lat="46.1119631" lon="13.0420998"><ele>150.0</ele><time>2026-04-04T11:58:21.064Z</time></trkpt><trkpt lat="46.1117253" lon="13.0422402"><ele>149.0</ele><time>2026-04-04T11:58:22.064Z</time></trkpt><trkpt lat="46.111483" lon="13.0423797"><ele>148.0</ele><time>2026-04-04T11:58:23.064Z</time></trkpt><trkpt lat="46.1112485" lon="13.0425182"><ele>147.5</ele><time>2026-04-04T11:58:24.066Z</time></trkpt><trkpt lat="46.1110144" lon="13.0426489"><ele>147.0</ele><time>2026-04-04T11:58:25.064Z</time></trkpt><trkpt lat="46.1107812" lon="13.0427861"><ele>147.0</ele><time>2026-04-04T11:58:26.065Z</time></trkpt><trkpt lat="46.1105447" lon="13.0429191"><ele>147.0</ele><time>2026-04-04T11:58:27.065Z</time></trkpt><trkpt lat="46.1103192" lon="13.0430478"><ele>147.0</ele><time>2026-04-04T11:58:28.066Z</time></trkpt><trkpt lat="46.1101077" lon="13.0431639"><ele>147.0</ele><time>2026-04-04T11:58:29.066Z</time></trkpt><trkpt lat="46.1099026" lon="13.0432832"><ele>147.0</ele><time>2026-04-04T11:58:30.065Z</time></trkpt><trkpt lat="46.1097033" lon="13.0433962"><ele>146.66666666666666</ele><time>2026-04-04T11:58:31.066Z</time></trkpt><trkpt lat="46.1095073" lon="13.043508"><ele>146.33333333333331</ele><time>2026-04-04T11:58:32.065Z</time></trkpt><trkpt lat="46.1093168" lon="13.043615"><ele>146.0</ele><time>2026-04-04T11:58:33.064Z</time></trkpt><trkpt lat="46.1091246" lon="13.0437247"><ele>146.33333333333331</ele><time>2026-04-04T11:58:34.064Z</time></trkpt><trkpt lat="46.1089305" lon="13.0438344"><ele>146.66666666666666</ele><time>2026-04-04T11:58:35.064Z</time></trkpt><trkpt lat="46.1087347" lon="13.0439471"><ele>147.0</ele><time>2026-04-04T11:58:36.065Z</time></trkpt><trkpt lat="46.1085438" lon="13.0440541"><ele>146.0</ele><time>2026-04-04T11:58:37.066Z</time></trkpt><trkpt lat="46.108365" lon="13.0441492"><ele>145.0</ele><time>2026-04-04T11:58:38.065Z</time></trkpt><trkpt lat="46.1081966" lon="13.0442467"><ele>144.0</ele><time>2026-04-04T11:58:39.065Z</time></trkpt><trkpt lat="46.1080364" lon="13.0443411"><ele>144.0</ele><time>2026-04-04T11:58:40.065Z</time></trkpt><trkpt lat="46.1078922" lon="13.0444255"><ele>144.0</ele><time>2026-04-04T11:58:41.066Z</time></trkpt><trkpt lat="46.1077591" lon="13.0444982"><ele>144.0</ele><time>2026-04-04T11:58:42.066Z</time></trkpt><trkpt lat="46.107653" lon="13.0445547"><ele>144.0</ele><time>2026-04-04T11:58:43.066Z</time></trkpt><trkpt lat="46.1075692" lon="13.0446065"><ele>144.0</ele><time>2026-04-04T11:58:44.064Z</time></trkpt><trkpt lat="46.1075062" lon="13.0446464"><ele>144.0</ele><time>2026-04-04T11:58:45.065Z</time></trkpt><trkpt lat="46.1074271" lon="13.0446891"><ele>144.0</ele><time>2026-04-04T11:58:47.065Z</time></trkpt><trkpt lat="46.1073587" lon="13.0447113"><ele>144.0</ele><time>2026-04-04T11:58:51.066Z</time></trkpt><trkpt lat="46.1072484" lon="13.0447972"><ele>144.0</ele><time>2026-04-04T11:59:03.065Z</time></trkpt><trkpt lat="46.1072134" lon="13.0448965"><ele>144.0</ele><time>2026-04-04T11:59:04.065Z</time></trkpt><trkpt lat="46.1071923" lon="13.0450168"><ele>144.2</ele><time>2026-04-04T11:59:05.066Z</time></trkpt><trkpt lat="46.1071725" lon="13.0451573"><ele>144.4</ele><time>2026-04-04T11:59:06.064Z</time></trkpt><trkpt lat="46.107153" lon="13.0452861"><ele>144.6</ele><time>2026-04-04T11:59:07.065Z</time></trkpt><trkpt lat="46.1071337" lon="13.0454031"><ele>144.8</ele><time>2026-04-04T11:59:08.065Z</time></trkpt><trkpt lat="46.1071101" lon="13.0455228"><ele>145.0</ele><time>2026-04-04T11:59:09.066Z</time></trkpt><trkpt lat="46.1070828" lon="13.0456632"><ele>144.75</ele><time>2026-04-04T11:59:10.066Z</time></trkpt><trkpt lat="46.1070584" lon="13.0458294"><ele>144.5</ele><time>2026-04-04T11:59:11.066Z</time></trkpt><trkpt lat="46.1070248" lon="13.0460087"><ele>144.25</ele><time>2026-04-04T11:59:12.066Z</time></trkpt><trkpt lat="46.1069925" lon="13.0461996"><ele>144.0</ele><time>2026-04-04T11:59:13.064Z</time></trkpt><trkpt lat="46.1069551" lon="13.0464018"><ele>144.0</ele><time>2026-04-04T11:59:14.065Z</time></trkpt><trkpt lat="46.1069192" lon="13.0466076"><ele>144.0</ele><time>2026-04-04T11:59:15.065Z</time></trkpt><trkpt lat="46.1068836" lon="13.0468149"><ele>144.0</ele><time>2026-04-04T11:59:16.066Z</time></trkpt><trkpt lat="46.1068503" lon="13.047023"><ele>144.0</ele><time>2026-04-04T11:59:17.064Z</time></trkpt><trkpt lat="46.1068118" lon="13.0472425"><ele>144.33333333333334</ele><time>2026-04-04T11:59:18.065Z</time></trkpt><trkpt lat="46.1067709" lon="13.0474777"><ele>144.66666666666669</ele><time>2026-04-04T11:59:19.065Z</time></trkpt><trkpt lat="46.1067285" lon="13.0477217"><ele>145.0</ele><time>2026-04-04T11:59:20.065Z</time></trkpt><trkpt lat="46.1066849" lon="13.0479802"><ele>145.0</ele><time>2026-04-04T11:59:21.065Z</time></trkpt><trkpt lat="46.1066381" lon="13.0482494"><ele>145.0</ele><time>2026-04-04T11:59:22.065Z</time></trkpt><trkpt lat="46.1065925" lon="13.0485252"><ele>145.0</ele><time>2026-04-04T11:59:23.064Z</time></trkpt><trkpt lat="46.1065419" lon="13.0488045"><ele>144.33333333333334</ele><time>2026-04-04T11:59:24.065Z</time></trkpt><trkpt lat="46.1064909" lon="13.0490966"><ele>143.66666666666666</ele><time>2026-04-04T11:59:25.066Z</time></trkpt><trkpt lat="46.1064399" lon="13.0494008"><ele>143.0</ele><time>2026-04-04T11:59:26.066Z</time></trkpt><trkpt lat="46.1063854" lon="13.0497077"><ele>143.33333333333331</ele><time>2026-04-04T11:59:27.066Z</time></trkpt><trkpt lat="46.106331" lon="13.0500195"><ele>143.66666666666666</ele><time>2026-04-04T11:59:28.065Z</time></trkpt><trkpt lat="46.1062787" lon="13.0503297"><ele>144.0</ele><time>2026-04-04T11:59:29.066Z</time></trkpt><trkpt lat="46.1062374" lon="13.0506379"><ele>144.0</ele><time>2026-04-04T11:59:30.064Z</time></trkpt><trkpt lat="46.1062182" lon="13.050946"><ele>144.0</ele><time>2026-04-04T11:59:31.066Z</time></trkpt><trkpt lat="46.1062149" lon="13.0512533"><ele>144.0</ele><time>2026-04-04T11:59:32.066Z</time></trkpt><trkpt lat="46.1062366" lon="13.051559"><ele>144.33333333333334</ele><time>2026-04-04T11:59:33.064Z</time></trkpt><trkpt lat="46.1062819" lon="13.0518645"><ele>144.66666666666669</ele><time>2026-04-04T11:59:34.066Z</time></trkpt><trkpt lat="46.1063445" lon="13.0521572"><ele>145.0</ele><time>2026-04-04T11:59:35.065Z</time></trkpt><trkpt lat="46.1064177" lon="13.0524464"><ele>145.0</ele><time>2026-04-04T11:59:36.064Z</time></trkpt><trkpt lat="46.1064911" lon="13.0527341"><ele>145.0</ele><time>2026-04-04T11:59:37.064Z</time></trkpt><trkpt lat="46.1065615" lon="13.0530275"><ele>145.0</ele><time>2026-04-04T11:59:38.065Z</time></trkpt><trkpt lat="46.1066336" lon="13.0533227"><ele>145.0</ele><time>2026-04-04T11:59:39.066Z</time></trkpt><trkpt lat="46.1067053" lon="13.053621"><ele>145.0</ele><time>2026-04-04T11:59:40.065Z</time></trkpt><trkpt lat="46.1067777" lon="13.0539148"><ele>145.0</ele><time>2026-04-04T11:59:41.065Z</time></trkpt><trkpt lat="46.1068478" lon="13.0542107"><ele>145.33333333333334</ele><time>2026-04-04T11:59:42.064Z</time></trkpt><trkpt lat="46.1069237" lon="13.0545072"><ele>145.66666666666666</ele><time>2026-04-04T11:59:43.064Z</time></trkpt><trkpt lat="46.1069961" lon="13.0547961"><ele>146.0</ele><time>2026-04-04T11:59:44.067Z</time></trkpt><trkpt lat="46.1070673" lon="13.0550805"><ele>146.0</ele><time>2026-04-04T11:59:45.065Z</time></trkpt><trkpt lat="46.1071354" lon="13.05536"><ele>146.0</ele><time>2026-04-04T11:59:46.065Z</time></trkpt><trkpt lat="46.1072065" lon="13.0556353"><ele>146.0</ele><time>2026-04-04T11:59:47.065Z</time></trkpt><trkpt lat="46.1072777" lon="13.0559165"><ele>146.0</ele><time>2026-04-04T11:59:48.066Z</time></trkpt><trkpt lat="46.1073479" lon="13.0562039"><ele>146.0</ele><time>2026-04-04T11:59:49.067Z</time></trkpt><trkpt lat="46.1074201" lon="13.0564991"><ele>146.0</ele><time>2026-04-04T11:59:50.065Z</time></trkpt><trkpt lat="46.1074937" lon="13.0567977"><ele>146.5</ele><time>2026-04-04T11:59:51.065Z</time></trkpt><trkpt lat="46.1075671" lon="13.0571021"><ele>147.0</ele><time>2026-04-04T11:59:52.065Z</time></trkpt><trkpt lat="46.1076444" lon="13.0574218"><ele>147.5</ele><time>2026-04-04T11:59:53.067Z</time></trkpt><trkpt lat="46.1077198" lon="13.0577681"><ele>148.0</ele><time>2026-04-04T11:59:54.066Z</time></trkpt><trkpt lat="46.1077834" lon="13.0581332"><ele>149.5</ele><time>2026-04-04T11:59:55.067Z</time></trkpt><trkpt lat="46.1078303" lon="13.058494"><ele>151.0</ele><time>2026-04-04T11:59:56.065Z</time></trkpt><trkpt lat="46.1078654" lon="13.0588415"><ele>151.5</ele><time>2026-04-04T11:59:57.067Z</time></trkpt><trkpt lat="46.1078928" lon="13.0591791"><ele>152.0</ele><time>2026-04-04T11:59:58.067Z</time></trkpt><trkpt lat="46.1079243" lon="13.0594988"><ele>152.0</ele><time>2026-04-04T11:59:59.066Z</time></trkpt><trkpt lat="46.1079552" lon="13.0598108"><ele>152.0</ele><time>2026-04-04T12:00:00.065Z</time></trkpt><trkpt lat="46.1079861" lon="13.0601095"><ele>152.0</ele><time>2026-04-04T12:00:01.064Z</time></trkpt><trkpt lat="46.1080135" lon="13.0604042"><ele>151.66666666666666</ele><time>2026-04-04T12:00:02.066Z</time></trkpt><trkpt lat="46.108035" lon="13.0606913"><ele>151.33333333333334</ele><time>2026-04-04T12:00:03.067Z</time></trkpt><trkpt lat="46.1080618" lon="13.0609709"><ele>151.0</ele><time>2026-04-04T12:00:04.065Z</time></trkpt><trkpt lat="46.1080868" lon="13.0612435"><ele>151.0</ele><time>2026-04-04T12:00:05.064Z</time></trkpt><trkpt lat="46.108109" lon="13.061506"><ele>151.0</ele><time>2026-04-04T12:00:06.066Z</time></trkpt><trkpt lat="46.1081337" lon="13.0617634"><ele>151.0</ele><time>2026-04-04T12:00:07.066Z</time></trkpt><trkpt lat="46.1081538" lon="13.0620125"><ele>151.0</ele><time>2026-04-04T12:00:08.064Z</time></trkpt><trkpt lat="46.1081762" lon="13.0622586"><ele>151.0</ele><time>2026-04-04T12:00:09.064Z</time></trkpt><trkpt lat="46.1081943" lon="13.0624767"><ele>151.0</ele><time>2026-04-04T12:00:10.067Z</time></trkpt><trkpt lat="46.1082139" lon="13.0627043"><ele>151.33333333333334</ele><time>2026-04-04T12:00:11.065Z</time></trkpt><trkpt lat="46.1082372" lon="13.0629437"><ele>151.66666666666666</ele><time>2026-04-04T12:00:12.064Z</time></trkpt><trkpt lat="46.1082636" lon="13.0632001"><ele>152.0</ele><time>2026-04-04T12:00:13.064Z</time></trkpt><trkpt lat="46.1082897" lon="13.0634685"><ele>153.0</ele><time>2026-04-04T12:00:14.064Z</time></trkpt><trkpt lat="46.1083172" lon="13.0637512"><ele>154.0</ele><time>2026-04-04T12:00:15.065Z</time></trkpt><trkpt lat="46.1083462" lon="13.0640519"><ele>155.0</ele><time>2026-04-04T12:00:16.065Z</time></trkpt><trkpt lat="46.1083756" lon="13.0643679"><ele>155.0</ele><time>2026-04-04T12:00:17.065Z</time></trkpt><trkpt lat="46.1084045" lon="13.0646949"><ele>155.0</ele><time>2026-04-04T12:00:18.064Z</time></trkpt><trkpt lat="46.1084343" lon="13.0650322"><ele>155.0</ele><time>2026-04-04T12:00:19.064Z</time></trkpt><trkpt lat="46.1084667" lon="13.0653733"><ele>155.0</ele><time>2026-04-04T12:00:20.066Z</time></trkpt><trkpt lat="46.1084995" lon="13.0657199"><ele>156.0</ele><time>2026-04-04T12:00:21.064Z</time></trkpt><trkpt lat="46.1085337" lon="13.0660711"><ele>157.0</ele><time>2026-04-04T12:00:22.064Z</time></trkpt><trkpt lat="46.1085698" lon="13.066426"><ele>156.5</ele><time>2026-04-04T12:00:23.065Z</time></trkpt><trkpt lat="46.1086046" lon="13.066781"><ele>156.0</ele><time>2026-04-04T12:00:24.064Z</time></trkpt><trkpt lat="46.1086358" lon="13.0671345"><ele>155.5</ele><time>2026-04-04T12:00:25.066Z</time></trkpt><trkpt lat="46.1086659" lon="13.0674894"><ele>155.0</ele><time>2026-04-04T12:00:26.065Z</time></trkpt><trkpt lat="46.1086971" lon="13.0678431"><ele>155.0</ele><time>2026-04-04T12:00:27.064Z</time></trkpt><trkpt lat="46.1087286" lon="13.0681969"><ele>155.0</ele><time>2026-04-04T12:00:28.065Z</time></trkpt><trkpt lat="46.1087608" lon="13.0685483"><ele>156.0</ele><time>2026-04-04T12:00:29.065Z</time></trkpt><trkpt lat="46.1087985" lon="13.0688976"><ele>157.0</ele><time>2026-04-04T12:00:30.064Z</time></trkpt><trkpt lat="46.1088463" lon="13.0692408"><ele>157.0</ele><time>2026-04-04T12:00:31.065Z</time></trkpt><trkpt lat="46.1089128" lon="13.0695736"><ele>157.0</ele><time>2026-04-04T12:00:32.065Z</time></trkpt><trkpt lat="46.1089846" lon="13.0699005"><ele>157.0</ele><time>2026-04-04T12:00:33.065Z</time></trkpt><trkpt lat="46.1090539" lon="13.0702209"><ele>157.0</ele><time>2026-04-04T12:00:34.065Z</time></trkpt><trkpt lat="46.109122" lon="13.0705397"><ele>157.5</ele><time>2026-04-04T12:00:35.064Z</time></trkpt><trkpt lat="46.1091872" lon="13.0708526"><ele>158.0</ele><time>2026-04-04T12:00:36.066Z</time></trkpt><trkpt lat="46.1092531" lon="13.0711636"><ele>158.0</ele><time>2026-04-04T12:00:37.065Z</time></trkpt><trkpt lat="46.1093164" lon="13.0714737"><ele>158.0</ele><time>2026-04-04T12:00:38.066Z</time></trkpt><trkpt lat="46.1093803" lon="13.0717814"><ele>158.0</ele><time>2026-04-04T12:00:39.064Z</time></trkpt><trkpt lat="46.1094454" lon="13.0720907"><ele>158.5</ele><time>2026-04-04T12:00:40.064Z</time></trkpt><trkpt lat="46.1095127" lon="13.0724018"><ele>159.0</ele><time>2026-04-04T12:00:41.065Z</time></trkpt><trkpt lat="46.1095789" lon="13.0727126"><ele>159.0</ele><time>2026-04-04T12:00:42.064Z</time></trkpt><trkpt lat="46.1096447" lon="13.0730293"><ele>159.0</ele><time>2026-04-04T12:00:43.065Z</time></trkpt><trkpt lat="46.1097099" lon="13.073348"><ele>159.0</ele><time>2026-04-04T12:00:44.064Z</time></trkpt><trkpt lat="46.1097758" lon="13.0736647"><ele>159.0</ele><time>2026-04-04T12:00:45.064Z</time></trkpt><trkpt lat="46.1098392" lon="13.073971"><ele>159.0</ele><time>2026-04-04T12:00:46.066Z</time></trkpt><trkpt lat="46.1099009" lon="13.0742577"><ele>159.0</ele><time>2026-04-04T12:00:47.065Z</time></trkpt><trkpt lat="46.1099575" lon="13.074532"><ele>159.0</ele><time>2026-04-04T12:00:48.064Z</time></trkpt><trkpt lat="46.1100133" lon="13.0747909"><ele>160.0</ele><time>2026-04-04T12:00:49.064Z</time></trkpt><trkpt lat="46.1100653" lon="13.0750335"><ele>161.0</ele><time>2026-04-04T12:00:50.064Z</time></trkpt><trkpt lat="46.1101166" lon="13.0752626"><ele>162.0</ele><time>2026-04-04T12:00:51.065Z</time></trkpt><trkpt lat="46.1101651" lon="13.0754827"><ele>162.0</ele><time>2026-04-04T12:00:52.066Z</time></trkpt><trkpt lat="46.1102098" lon="13.0756999"><ele>162.0</ele><time>2026-04-04T12:00:53.064Z</time></trkpt><trkpt lat="46.1102505" lon="13.0759019"><ele>162.0</ele><time>2026-04-04T12:00:54.064Z</time></trkpt><trkpt lat="46.110287" lon="13.0760819"><ele>162.0</ele><time>2026-04-04T12:00:55.065Z</time></trkpt><trkpt lat="46.1103198" lon="13.0762441"><ele>161.83333333333334</ele><time>2026-04-04T12:00:56.065Z</time></trkpt><trkpt lat="46.110347" lon="13.0763855"><ele>161.66666666666666</ele><time>2026-04-04T12:00:57.065Z</time></trkpt><trkpt lat="46.1103741" lon="13.0765043"><ele>161.5</ele><time>2026-04-04T12:00:58.065Z</time></trkpt><trkpt lat="46.1104097" lon="13.076599"><ele>161.33333333333331</ele><time>2026-04-04T12:00:59.064Z</time></trkpt><trkpt lat="46.1104631" lon="13.0766658"><ele>161.16666666666666</ele><time>2026-04-04T12:01:00.064Z</time></trkpt><trkpt lat="46.1105352" lon="13.0766938"><ele>161.0</ele><time>2026-04-04T12:01:01.065Z</time></trkpt><trkpt lat="46.1106197" lon="13.0766786"><ele>161.0</ele><time>2026-04-04T12:01:02.065Z</time></trkpt><trkpt lat="46.1107179" lon="13.0766208"><ele>161.0</ele><time>2026-04-04T12:01:03.064Z</time></trkpt><trkpt lat="46.1108332" lon="13.0765434"><ele>161.0</ele><time>2026-04-04T12:01:04.064Z</time></trkpt><trkpt lat="46.1109694" lon="13.0764609"><ele>161.0</ele><time>2026-04-04T12:01:05.064Z</time></trkpt><trkpt lat="46.1111231" lon="13.0763724"><ele>162.33333333333331</ele><time>2026-04-04T12:01:06.064Z</time></trkpt><trkpt lat="46.1112941" lon="13.076282"><ele>163.66666666666666</ele><time>2026-04-04T12:01:07.064Z</time></trkpt><trkpt lat="46.1114779" lon="13.0761884"><ele>165.0</ele><time>2026-04-04T12:01:08.065Z</time></trkpt><trkpt lat="46.1116736" lon="13.0760873"><ele>166.0</ele><time>2026-04-04T12:01:09.065Z</time></trkpt><trkpt lat="46.1118754" lon="13.0760023"><ele>167.0</ele><time>2026-04-04T12:01:10.064Z</time></trkpt><trkpt lat="46.1120786" lon="13.0759526"><ele>168.0</ele><time>2026-04-04T12:01:11.064Z</time></trkpt><trkpt lat="46.1122832" lon="13.0759495"><ele>168.66666666666666</ele><time>2026-04-04T12:01:12.065Z</time></trkpt><trkpt lat="46.1124794" lon="13.0759865"><ele>169.33333333333331</ele><time>2026-04-04T12:01:13.065Z</time></trkpt><trkpt lat="46.1126656" lon="13.0760525"><ele>170.0</ele><time>2026-04-04T12:01:14.065Z</time></trkpt><trkpt lat="46.1128422" lon="13.0761532"><ele>170.0</ele><time>2026-04-04T12:01:15.065Z</time></trkpt><trkpt lat="46.1130149" lon="13.0762793"><ele>170.0</ele><time>2026-04-04T12:01:16.064Z</time></trkpt><trkpt lat="46.1131883" lon="13.0764086"><ele>170.0</ele><time>2026-04-04T12:01:17.065Z</time></trkpt><trkpt lat="46.1133674" lon="13.0765374"><ele>171.0</ele><time>2026-04-04T12:01:18.065Z</time></trkpt><trkpt lat="46.1135495" lon="13.0766672"><ele>172.0</ele><time>2026-04-04T12:01:19.066Z</time></trkpt><trkpt lat="46.1137306" lon="13.0767936"><ele>173.0</ele><time>2026-04-04T12:01:20.064Z</time></trkpt><trkpt lat="46.1139063" lon="13.0769173"><ele>172.66666666666666</ele><time>2026-04-04T12:01:21.065Z</time></trkpt><trkpt lat="46.1140745" lon="13.0770371"><ele>172.33333333333334</ele><time>2026-04-04T12:01:22.065Z</time></trkpt><trkpt lat="46.114237" lon="13.0771482"><ele>172.0</ele><time>2026-04-04T12:01:23.066Z</time></trkpt><trkpt lat="46.1144008" lon="13.0772605"><ele>172.0</ele><time>2026-04-04T12:01:24.065Z</time></trkpt><trkpt lat="46.1145644" lon="13.0773729"><ele>172.0</ele><time>2026-04-04T12:01:25.066Z</time></trkpt><trkpt lat="46.1147279" lon="13.0774861"><ele>172.0</ele><time>2026-04-04T12:01:26.065Z</time></trkpt><trkpt lat="46.114889" lon="13.0775995"><ele>172.66666666666669</ele><time>2026-04-04T12:01:27.065Z</time></trkpt><trkpt lat="46.1150421" lon="13.0777102"><ele>173.33333333333334</ele><time>2026-04-04T12:01:28.065Z</time></trkpt><trkpt lat="46.1151829" lon="13.0778134"><ele>174.0</ele><time>2026-04-04T12:01:29.064Z</time></trkpt><trkpt lat="46.115308" lon="13.0779042"><ele>174.0</ele><time>2026-04-04T12:01:30.065Z</time></trkpt><trkpt lat="46.1154238" lon="13.0779882"><ele>174.0</ele><time>2026-04-04T12:01:31.064Z</time></trkpt><trkpt lat="46.1155284" lon="13.0780653"><ele>174.0</ele><time>2026-04-04T12:01:32.066Z</time></trkpt><trkpt lat="46.1156253" lon="13.0781409"><ele>174.0</ele><time>2026-04-04T12:01:33.065Z</time></trkpt><trkpt lat="46.1157072" lon="13.0782269"><ele>174.39999999999998</ele><time>2026-04-04T12:01:34.065Z</time></trkpt><trkpt lat="46.1157723" lon="13.0783406"><ele>174.8</ele><time>2026-04-04T12:01:35.065Z</time></trkpt><trkpt lat="46.1158267" lon="13.0784787"><ele>175.2</ele><time>2026-04-04T12:01:36.064Z</time></trkpt><trkpt lat="46.1158649" lon="13.0786322"><ele>175.60000000000002</ele><time>2026-04-04T12:01:37.065Z</time></trkpt><trkpt lat="46.1158822" lon="13.0787858"><ele>176.0</ele><time>2026-04-04T12:01:38.064Z</time></trkpt><trkpt lat="46.1158799" lon="13.0789446"><ele>176.5</ele><time>2026-04-04T12:01:39.064Z</time></trkpt><trkpt lat="46.115862" lon="13.079119"><ele>177.0</ele><time>2026-04-04T12:01:40.064Z</time></trkpt><trkpt lat="46.115838" lon="13.07931"><ele>177.5</ele><time>2026-04-04T12:01:41.066Z</time></trkpt><trkpt lat="46.1158181" lon="13.0795153"><ele>178.0</ele><time>2026-04-04T12:01:42.064Z</time></trkpt><trkpt lat="46.1157953" lon="13.0797326"><ele>177.25</ele><time>2026-04-04T12:01:43.065Z</time></trkpt><trkpt lat="46.1157742" lon="13.0799468"><ele>176.5</ele><time>2026-04-04T12:01:44.064Z</time></trkpt><trkpt lat="46.1157559" lon="13.0801387"><ele>175.75</ele><time>2026-04-04T12:01:45.065Z</time></trkpt><trkpt lat="46.1157382" lon="13.0803068"><ele>175.0</ele><time>2026-04-04T12:01:46.065Z</time></trkpt><trkpt lat="46.1157228" lon="13.0804573"><ele>175.66666666666669</ele><time>2026-04-04T12:01:47.064Z</time></trkpt><trkpt lat="46.1157104" lon="13.0805926"><ele>176.33333333333334</ele><time>2026-04-04T12:01:48.065Z</time></trkpt><trkpt lat="46.1157008" lon="13.0807245"><ele>177.0</ele><time>2026-04-04T12:01:49.065Z</time></trkpt><trkpt lat="46.1156914" lon="13.0808365"><ele>177.66666666666666</ele><time>2026-04-04T12:01:50.064Z</time></trkpt><trkpt lat="46.1156767" lon="13.0809877"><ele>178.33333333333331</ele><time>2026-04-04T12:01:52.064Z</time></trkpt><trkpt lat="46.1156687" lon="13.0810842"><ele>179.0</ele><time>2026-04-04T12:01:55.065Z</time></trkpt><trkpt lat="46.1156756" lon="13.081178"><ele>179.0</ele><time>2026-04-04T12:02:04.065Z</time></trkpt><trkpt lat="46.1157108" lon="13.0812605"><ele>179.0</ele><time>2026-04-04T12:02:06.064Z</time></trkpt><trkpt lat="46.1157755" lon="13.0812954"><ele>179.0</ele><time>2026-04-04T12:02:07.065Z</time></trkpt><trkpt lat="46.1158517" lon="13.0813256"><ele>179.0</ele><time>2026-04-04T12:02:08.064Z</time></trkpt><trkpt lat="46.1159415" lon="13.0813628"><ele>179.0</ele><time>2026-04-04T12:02:09.065Z</time></trkpt><trkpt lat="46.1160455" lon="13.0814128"><ele>179.0</ele><time>2026-04-04T12:02:10.066Z</time></trkpt><trkpt lat="46.1161582" lon="13.0814743"><ele>178.75</ele><time>2026-04-04T12:02:11.066Z</time></trkpt><trkpt lat="46.1162828" lon="13.0815392"><ele>178.5</ele><time>2026-04-04T12:02:12.066Z</time></trkpt><trkpt lat="46.1164077" lon="13.0816044"><ele>178.25</ele><time>2026-04-04T12:02:13.064Z</time></trkpt><trkpt lat="46.116524" lon="13.0816639"><ele>178.0</ele><time>2026-04-04T12:02:14.065Z</time></trkpt><trkpt lat="46.1166302" lon="13.0817182"><ele>178.0</ele><time>2026-04-04T12:02:15.065Z</time></trkpt><trkpt lat="46.1167295" lon="13.0817657"><ele>178.0</ele><time>2026-04-04T12:02:16.064Z</time></trkpt><trkpt lat="46.1168196" lon="13.0818118"><ele>178.0</ele><time>2026-04-04T12:02:17.065Z</time></trkpt><trkpt lat="46.116909" lon="13.0818563"><ele>178.0</ele><time>2026-04-04T12:02:18.065Z</time></trkpt><trkpt lat="46.1170005" lon="13.0819027"><ele>178.0</ele><time>2026-04-04T12:02:19.065Z</time></trkpt><trkpt lat="46.1170944" lon="13.0819476"><ele>178.0</ele><time>2026-04-04T12:02:20.064Z</time></trkpt><trkpt lat="46.1171897" lon="13.0819895"><ele>178.0</ele><time>2026-04-04T12:02:21.064Z</time></trkpt><trkpt lat="46.1172874" lon="13.0820205"><ele>178.0</ele><time>2026-04-04T12:02:22.066Z</time></trkpt><trkpt lat="46.1173727" lon="13.0820395"><ele>178.0</ele><time>2026-04-04T12:02:23.065Z</time></trkpt><trkpt lat="46.1174481" lon="13.0820503"><ele>178.0</ele><time>2026-04-04T12:02:24.064Z</time></trkpt><trkpt lat="46.1175157" lon="13.0820609"><ele>178.0</ele><time>2026-04-04T12:02:25.065Z</time></trkpt><trkpt lat="46.1175941" lon="13.082087"><ele>177.8</ele><time>2026-04-04T12:02:27.064Z</time></trkpt><trkpt lat="46.1176755" lon="13.0820961"><ele>177.60000000000002</ele><time>2026-04-04T12:02:31.065Z</time></trkpt><trkpt lat="46.1177773" lon="13.0820841"><ele>177.39999999999998</ele><time>2026-04-04T12:02:33.064Z</time></trkpt><trkpt lat="46.1178592" lon="13.0820764"><ele>177.2</ele><time>2026-04-04T12:02:34.065Z</time></trkpt><trkpt lat="46.1179526" lon="13.0820775"><ele>177.0</ele><time>2026-04-04T12:02:35.066Z</time></trkpt><trkpt lat="46.1180677" lon="13.0820835"><ele>177.0</ele><time>2026-04-04T12:02:36.064Z</time></trkpt><trkpt lat="46.1181935" lon="13.0820982"><ele>177.0</ele><time>2026-04-04T12:02:37.066Z</time></trkpt><trkpt lat="46.1183287" lon="13.08212"><ele>177.0</ele><time>2026-04-04T12:02:38.065Z</time></trkpt><trkpt lat="46.118474" lon="13.0821498"><ele>177.0</ele><time>2026-04-04T12:02:39.066Z</time></trkpt><trkpt lat="46.118619" lon="13.0822111"><ele>176.66666666666666</ele><time>2026-04-04T12:02:40.065Z</time></trkpt><trkpt lat="46.1187642" lon="13.0822931"><ele>176.33333333333331</ele><time>2026-04-04T12:02:41.065Z</time></trkpt><trkpt lat="46.1189176" lon="13.0823815"><ele>176.0</ele><time>2026-04-04T12:02:42.065Z</time></trkpt><trkpt lat="46.119087" lon="13.0824543"><ele>176.66666666666666</ele><time>2026-04-04T12:02:43.064Z</time></trkpt><trkpt lat="46.1192641" lon="13.0825215"><ele>177.33333333333334</ele><time>2026-04-04T12:02:44.065Z</time></trkpt><trkpt lat="46.1194505" lon="13.082582"><ele>178.0</ele><time>2026-04-04T12:02:45.065Z</time></trkpt><trkpt lat="46.1196366" lon="13.0826377"><ele>178.0</ele><time>2026-04-04T12:02:46.064Z</time></trkpt><trkpt lat="46.1198269" lon="13.0826905"><ele>178.0</ele><time>2026-04-04T12:02:47.065Z</time></trkpt><trkpt lat="46.1200147" lon="13.0827425"><ele>178.0</ele><time>2026-04-04T12:02:48.065Z</time></trkpt><trkpt lat="46.1201954" lon="13.0827919"><ele>177.0</ele><time>2026-04-04T12:02:49.064Z</time></trkpt><trkpt lat="46.1203711" lon="13.0828408"><ele>176.0</ele><time>2026-04-04T12:02:50.065Z</time></trkpt><trkpt lat="46.1205394" lon="13.0828905"><ele>175.0</ele><time>2026-04-04T12:02:51.065Z</time></trkpt><trkpt lat="46.1207026" lon="13.0829396"><ele>174.66666666666669</ele><time>2026-04-04T12:02:52.065Z</time></trkpt><trkpt lat="46.120868" lon="13.0829875"><ele>174.33333333333334</ele><time>2026-04-04T12:02:53.065Z</time></trkpt><trkpt lat="46.1210359" lon="13.0830362"><ele>174.0</ele><time>2026-04-04T12:02:54.065Z</time></trkpt><trkpt lat="46.1212058" lon="13.0830845"><ele>174.0</ele><time>2026-04-04T12:02:55.064Z</time></trkpt><trkpt lat="46.1213779" lon="13.0831322"><ele>174.0</ele><time>2026-04-04T12:02:56.064Z</time></trkpt><trkpt lat="46.1215521" lon="13.0831805"><ele>174.0</ele><time>2026-04-04T12:02:57.064Z</time></trkpt><trkpt lat="46.1217272" lon="13.0832274"><ele>173.33333333333334</ele><time>2026-04-04T12:02:58.064Z</time></trkpt><trkpt lat="46.1219024" lon="13.0832782"><ele>172.66666666666669</ele><time>2026-04-04T12:02:59.064Z</time></trkpt><trkpt lat="46.1220721" lon="13.0833264"><ele>172.0</ele><time>2026-04-04T12:03:00.064Z</time></trkpt><trkpt lat="46.1222367" lon="13.0833763"><ele>172.0</ele><time>2026-04-04T12:03:01.065Z</time></trkpt><trkpt lat="46.1223953" lon="13.0834226"><ele>172.0</ele><time>2026-04-04T12:03:02.064Z</time></trkpt><trkpt lat="46.1225464" lon="13.0834666"><ele>172.0</ele><time>2026-04-04T12:03:03.064Z</time></trkpt><trkpt lat="46.1226898" lon="13.0835067"><ele>172.0</ele><time>2026-04-04T12:03:04.065Z</time></trkpt><trkpt lat="46.1228291" lon="13.0835457"><ele>172.0</ele><time>2026-04-04T12:03:05.065Z</time></trkpt><trkpt lat="46.1229651" lon="13.0835837"><ele>172.0</ele><time>2026-04-04T12:03:06.065Z</time></trkpt><trkpt lat="46.1230989" lon="13.0836196"><ele>172.0</ele><time>2026-04-04T12:03:07.065Z</time></trkpt><trkpt lat="46.1232361" lon="13.0836583"><ele>172.0</ele><time>2026-04-04T12:03:08.064Z</time></trkpt><trkpt lat="46.1233745" lon="13.083698"><ele>172.0</ele><time>2026-04-04T12:03:09.066Z</time></trkpt><trkpt lat="46.1235152" lon="13.0837391"><ele>172.0</ele><time>2026-04-04T12:03:10.066Z</time></trkpt><trkpt lat="46.1236587" lon="13.0837801"><ele>172.0</ele><time>2026-04-04T12:03:11.065Z</time></trkpt><trkpt lat="46.1238041" lon="13.0838204"><ele>172.0</ele><time>2026-04-04T12:03:12.065Z</time></trkpt><trkpt lat="46.1239515" lon="13.0838628"><ele>172.0</ele><time>2026-04-04T12:03:13.065Z</time></trkpt><trkpt lat="46.1241041" lon="13.0839093"><ele>172.0</ele><time>2026-04-04T12:03:14.066Z</time></trkpt><trkpt lat="46.1242607" lon="13.0839519"><ele>172.0</ele><time>2026-04-04T12:03:15.064Z</time></trkpt><trkpt lat="46.1244198" lon="13.0839963"><ele>172.0</ele><time>2026-04-04T12:03:16.066Z</time></trkpt><trkpt lat="46.1245819" lon="13.0840433"><ele>172.0</ele><time>2026-04-04T12:03:17.065Z</time></trkpt><trkpt lat="46.1247465" lon="13.0840937"><ele>170.66666666666669</ele><time>2026-04-04T12:03:18.065Z</time></trkpt><trkpt lat="46.1249191" lon="13.0841416"><ele>169.33333333333334</ele><time>2026-04-04T12:03:19.065Z</time></trkpt><trkpt lat="46.1250969" lon="13.0841927"><ele>168.0</ele><time>2026-04-04T12:03:20.065Z</time></trkpt><trkpt lat="46.1252807" lon="13.0842432"><ele>168.0</ele><time>2026-04-04T12:03:21.064Z</time></trkpt><trkpt lat="46.125469" lon="13.0842956"><ele>168.0</ele><time>2026-04-04T12:03:22.065Z</time></trkpt><trkpt lat="46.1256591" lon="13.0843542"><ele>168.0</ele><time>2026-04-04T12:03:23.064Z</time></trkpt><trkpt lat="46.1258442" lon="13.0844103"><ele>168.33333333333334</ele><time>2026-04-04T12:03:24.064Z</time></trkpt><trkpt lat="46.126021" lon="13.0844568"><ele>168.66666666666669</ele><time>2026-04-04T12:03:25.065Z</time></trkpt><trkpt lat="46.1261814" lon="13.0845146"><ele>169.0</ele><time>2026-04-04T12:03:26.064Z</time></trkpt><trkpt lat="46.1263306" lon="13.0845948"><ele>169.0</ele><time>2026-04-04T12:03:27.066Z</time></trkpt><trkpt lat="46.1264688" lon="13.084708"><ele>169.0</ele><time>2026-04-04T12:03:28.065Z</time></trkpt><trkpt lat="46.1265969" lon="13.084852"><ele>169.0</ele><time>2026-04-04T12:03:29.065Z</time></trkpt><trkpt lat="46.1267159" lon="13.0850245"><ele>169.66666666666669</ele><time>2026-04-04T12:03:30.064Z</time></trkpt><trkpt lat="46.1268231" lon="13.085212"><ele>170.33333333333334</ele><time>2026-04-04T12:03:31.064Z</time></trkpt><trkpt lat="46.1269267" lon="13.0854056"><ele>171.0</ele><time>2026-04-04T12:03:32.066Z</time></trkpt><trkpt lat="46.12702" lon="13.0855807"><ele>171.0</ele><time>2026-04-04T12:03:33.065Z</time></trkpt><trkpt lat="46.1271052" lon="13.0857429"><ele>171.0</ele><time>2026-04-04T12:03:34.065Z</time></trkpt><trkpt lat="46.1271827" lon="13.0858933"><ele>171.0</ele><time>2026-04-04T12:03:35.065Z</time></trkpt><trkpt lat="46.1272605" lon="13.0860376"><ele>171.0</ele><time>2026-04-04T12:03:36.066Z</time></trkpt><trkpt lat="46.1273361" lon="13.0861782"><ele>170.75</ele><time>2026-04-04T12:03:37.064Z</time></trkpt><trkpt lat="46.1274161" lon="13.0863225"><ele>170.5</ele><time>2026-04-04T12:03:38.065Z</time></trkpt><trkpt lat="46.1274963" lon="13.0864691"><ele>170.25</ele><time>2026-04-04T12:03:39.065Z</time></trkpt><trkpt lat="46.1275802" lon="13.0866156"><ele>170.0</ele><time>2026-04-04T12:03:40.065Z</time></trkpt><trkpt lat="46.1276686" lon="13.0867581"><ele>170.0</ele><time>2026-04-04T12:03:41.064Z</time></trkpt><trkpt lat="46.1277647" lon="13.086898"><ele>170.0</ele><time>2026-04-04T12:03:42.065Z</time></trkpt><trkpt lat="46.1278691" lon="13.0870337"><ele>170.0</ele><time>2026-04-04T12:03:43.065Z</time></trkpt><trkpt lat="46.1279751" lon="13.0871612"><ele>170.0</ele><time>2026-04-04T12:03:44.064Z</time></trkpt><trkpt lat="46.1280857" lon="13.0872847"><ele>170.0</ele><time>2026-04-04T12:03:45.065Z</time></trkpt><trkpt lat="46.1281927" lon="13.0873978"><ele>170.0</ele><time>2026-04-04T12:03:46.065Z</time></trkpt><trkpt lat="46.1282924" lon="13.0875023"><ele>170.0</ele><time>2026-04-04T12:03:47.066Z</time></trkpt><trkpt lat="46.1283894" lon="13.0875929"><ele>170.0</ele><time>2026-04-04T12:03:48.065Z</time></trkpt><trkpt lat="46.1284831" lon="13.0876757"><ele>170.4</ele><time>2026-04-04T12:03:49.064Z</time></trkpt><trkpt lat="46.128572" lon="13.0877476"><ele>170.8</ele><time>2026-04-04T12:03:50.064Z</time></trkpt><trkpt lat="46.1286591" lon="13.0878121"><ele>171.2</ele><time>2026-04-04T12:03:51.065Z</time></trkpt><trkpt lat="46.1287432" lon="13.0878753"><ele>171.6</ele><time>2026-04-04T12:03:52.064Z</time></trkpt><trkpt lat="46.128829" lon="13.0879342"><ele>172.0</ele><time>2026-04-04T12:03:53.065Z</time></trkpt><trkpt lat="46.128921" lon="13.0879906"><ele>172.0</ele><time>2026-04-04T12:03:54.065Z</time></trkpt><trkpt lat="46.1290071" lon="13.0880444"><ele>172.0</ele><time>2026-04-04T12:03:55.066Z</time></trkpt><trkpt lat="46.1290932" lon="13.0880933"><ele>172.0</ele><time>2026-04-04T12:03:56.064Z</time></trkpt><trkpt lat="46.1291806" lon="13.0881417"><ele>172.0</ele><time>2026-04-04T12:03:57.064Z</time></trkpt><trkpt lat="46.1292658" lon="13.0881819"><ele>172.0</ele><time>2026-04-04T12:03:58.066Z</time></trkpt><trkpt lat="46.1293541" lon="13.0882202"><ele>171.33333333333334</ele><time>2026-04-04T12:03:59.064Z</time></trkpt><trkpt lat="46.1294424" lon="13.0882532"><ele>170.66666666666669</ele><time>2026-04-04T12:04:00.064Z</time></trkpt><trkpt lat="46.1295136" lon="13.0882762"><ele>170.0</ele><time>2026-04-04T12:04:01.065Z</time></trkpt><trkpt lat="46.1295965" lon="13.0883068"><ele>169.33333333333334</ele><time>2026-04-04T12:04:03.064Z</time></trkpt><trkpt lat="46.1296627" lon="13.0883384"><ele>168.66666666666666</ele><time>2026-04-04T12:04:06.064Z</time></trkpt><trkpt lat="46.1297203" lon="13.0883948"><ele>168.0</ele><time>2026-04-04T12:04:11.064Z</time></trkpt><trkpt lat="46.1297928" lon="13.0883226"><ele>168.0</ele><time>2026-04-04T12:05:55.065Z</time></trkpt><trkpt lat="46.1298684" lon="13.0883409"><ele>168.0</ele><time>2026-04-04T12:05:57.065Z</time></trkpt><trkpt lat="46.1299408" lon="13.0883662"><ele>168.0</ele><time>2026-04-04T12:05:59.065Z</time></trkpt><trkpt lat="46.130051" lon="13.0883846"><ele>168.0</ele><time>2026-04-04T12:06:01.065Z</time></trkpt><trkpt lat="46.1301218" lon="13.0883861"><ele>168.0</ele><time>2026-04-04T12:06:02.065Z</time></trkpt><trkpt lat="46.1301989" lon="13.0883883"><ele>168.0</ele><time>2026-04-04T12:06:03.064Z</time></trkpt><trkpt lat="46.1302823" lon="13.0883897"><ele>168.33333333333334</ele><time>2026-04-04T12:06:04.065Z</time></trkpt><trkpt lat="46.1303689" lon="13.0883846"><ele>168.66666666666666</ele><time>2026-04-04T12:06:05.064Z</time></trkpt><trkpt lat="46.1304542" lon="13.0883762"><ele>169.0</ele><time>2026-04-04T12:06:06.064Z</time></trkpt><trkpt lat="46.1305378" lon="13.0883736"><ele>169.33333333333331</ele><time>2026-04-04T12:06:07.064Z</time></trkpt><trkpt lat="46.13062" lon="13.0883681"><ele>169.66666666666666</ele><time>2026-04-04T12:06:08.065Z</time></trkpt><trkpt lat="46.1307123" lon="13.0883564"><ele>170.0</ele><time>2026-04-04T12:06:09.065Z</time></trkpt><trkpt lat="46.1308175" lon="13.0883374"><ele>170.25</ele><time>2026-04-04T12:06:10.065Z</time></trkpt><trkpt lat="46.1309394" lon="13.0883204"><ele>170.5</ele><time>2026-04-04T12:06:11.064Z</time></trkpt><trkpt lat="46.1310726" lon="13.0882997"><ele>170.75</ele><time>2026-04-04T12:06:12.065Z</time></trkpt><trkpt lat="46.1312189" lon="13.088274"><ele>171.0</ele><time>2026-04-04T12:06:13.065Z</time></trkpt><trkpt lat="46.1313758" lon="13.0882447"><ele>171.0</ele><time>2026-04-04T12:06:14.065Z</time></trkpt><trkpt lat="46.131541" lon="13.08822"><ele>171.0</ele><time>2026-04-04T12:06:15.064Z</time></trkpt><trkpt lat="46.1317076" lon="13.0881893"><ele>171.0</ele><time>2026-04-04T12:06:16.064Z</time></trkpt><trkpt lat="46.131875" lon="13.0881556"><ele>171.0</ele><time>2026-04-04T12:06:17.064Z</time></trkpt><trkpt lat="46.1320432" lon="13.0881277"><ele>171.0</ele><time>2026-04-04T12:06:18.065Z</time></trkpt><trkpt lat="46.1322141" lon="13.0880952"><ele>171.0</ele><time>2026-04-04T12:06:19.064Z</time></trkpt><trkpt lat="46.1323884" lon="13.0880682"><ele>170.66666666666666</ele><time>2026-04-04T12:06:20.064Z</time></trkpt><trkpt lat="46.1325735" lon="13.0880378"><ele>170.33333333333331</ele><time>2026-04-04T12:06:21.064Z</time></trkpt><trkpt lat="46.1327642" lon="13.0880067"><ele>170.0</ele><time>2026-04-04T12:06:22.064Z</time></trkpt><trkpt lat="46.1329582" lon="13.0879734"><ele>170.0</ele><time>2026-04-04T12:06:23.065Z</time></trkpt><trkpt lat="46.1331577" lon="13.0879392"><ele>170.0</ele><time>2026-04-04T12:06:24.064Z</time></trkpt><trkpt lat="46.1333591" lon="13.087903"><ele>170.0</ele><time>2026-04-04T12:06:25.065Z</time></trkpt><trkpt lat="46.1335635" lon="13.0878675"><ele>171.33333333333331</ele><time>2026-04-04T12:06:26.066Z</time></trkpt><trkpt lat="46.1337702" lon="13.0878315"><ele>172.66666666666666</ele><time>2026-04-04T12:06:27.064Z</time></trkpt><trkpt lat="46.1339756" lon="13.0877932"><ele>174.0</ele><time>2026-04-04T12:06:28.065Z</time></trkpt><trkpt lat="46.1341803" lon="13.0877563"><ele>174.33333333333334</ele><time>2026-04-04T12:06:29.064Z</time></trkpt><trkpt lat="46.134385" lon="13.0877182"><ele>174.66666666666669</ele><time>2026-04-04T12:06:30.065Z</time></trkpt><trkpt lat="46.1345876" lon="13.0876802"><ele>175.0</ele><time>2026-04-04T12:06:31.065Z</time></trkpt><trkpt lat="46.1347909" lon="13.0876477"><ele>174.66666666666669</ele><time>2026-04-04T12:06:32.065Z</time></trkpt><trkpt lat="46.1349963" lon="13.087618"><ele>174.33333333333334</ele><time>2026-04-04T12:06:33.065Z</time></trkpt><trkpt lat="46.1352028" lon="13.0875968"><ele>174.0</ele><time>2026-04-04T12:06:34.065Z</time></trkpt><trkpt lat="46.1354107" lon="13.0875946"><ele>174.0</ele><time>2026-04-04T12:06:35.065Z</time></trkpt><trkpt lat="46.1356181" lon="13.087604"><ele>174.0</ele><time>2026-04-04T12:06:36.064Z</time></trkpt><trkpt lat="46.1358268" lon="13.08762"><ele>174.0</ele><time>2026-04-04T12:06:37.065Z</time></trkpt><trkpt lat="46.1360344" lon="13.0876387"><ele>173.66666666666666</ele><time>2026-04-04T12:06:38.064Z</time></trkpt><trkpt lat="46.1362329" lon="13.0876614"><ele>173.33333333333331</ele><time>2026-04-04T12:06:39.065Z</time></trkpt><trkpt lat="46.1364237" lon="13.0876829"><ele>173.0</ele><time>2026-04-04T12:06:40.064Z</time></trkpt><trkpt lat="46.1366124" lon="13.0877053"><ele>173.0</ele><time>2026-04-04T12:06:41.064Z</time></trkpt><trkpt lat="46.1367984" lon="13.0877283"><ele>173.0</ele><time>2026-04-04T12:06:42.065Z</time></trkpt><trkpt lat="46.1369851" lon="13.0877523"><ele>173.0</ele><time>2026-04-04T12:06:43.064Z</time></trkpt><trkpt lat="46.1371688" lon="13.0877812"><ele>173.0</ele><time>2026-04-04T12:06:44.065Z</time></trkpt><trkpt lat="46.1373449" lon="13.0878206"><ele>173.0</ele><time>2026-04-04T12:06:45.065Z</time></trkpt><trkpt lat="46.1375165" lon="13.0878741"><ele>173.0</ele><time>2026-04-04T12:06:46.065Z</time></trkpt><trkpt lat="46.13769" lon="13.0879453"><ele>174.66666666666666</ele><time>2026-04-04T12:06:47.064Z</time></trkpt><trkpt lat="46.1378681" lon="13.0880284"><ele>176.33333333333334</ele><time>2026-04-04T12:06:48.065Z</time></trkpt><trkpt lat="46.1380499" lon="13.0881178"><ele>178.0</ele><time>2026-04-04T12:06:49.065Z</time></trkpt><trkpt lat="46.1382358" lon="13.0882111"><ele>177.66666666666669</ele><time>2026-04-04T12:06:50.064Z</time></trkpt><trkpt lat="46.1384264" lon="13.0883061"><ele>177.33333333333334</ele><time>2026-04-04T12:06:51.064Z</time></trkpt><trkpt lat="46.1386186" lon="13.0884051"><ele>177.0</ele><time>2026-04-04T12:06:52.064Z</time></trkpt><trkpt lat="46.1388071" lon="13.0884959"><ele>177.0</ele><time>2026-04-04T12:06:53.065Z</time></trkpt><trkpt lat="46.1389844" lon="13.0885825"><ele>177.0</ele><time>2026-04-04T12:06:54.066Z</time></trkpt><trkpt lat="46.1391554" lon="13.0886667"><ele>177.0</ele><time>2026-04-04T12:06:55.064Z</time></trkpt><trkpt lat="46.1393215" lon="13.0887496"><ele>177.33333333333334</ele><time>2026-04-04T12:06:56.064Z</time></trkpt><trkpt lat="46.1394805" lon="13.0888296"><ele>177.66666666666669</ele><time>2026-04-04T12:06:57.065Z</time></trkpt><trkpt lat="46.1396393" lon="13.0889083"><ele>178.0</ele><time>2026-04-04T12:06:58.066Z</time></trkpt><trkpt lat="46.1398004" lon="13.0889857"><ele>177.33333333333334</ele><time>2026-04-04T12:06:59.064Z</time></trkpt><trkpt lat="46.1399633" lon="13.0890653"><ele>176.66666666666666</ele><time>2026-04-04T12:07:00.065Z</time></trkpt><trkpt lat="46.1401266" lon="13.0891448"><ele>176.0</ele><time>2026-04-04T12:07:01.064Z</time></trkpt><trkpt lat="46.1402891" lon="13.0892263"><ele>176.0</ele><time>2026-04-04T12:07:02.064Z</time></trkpt><trkpt lat="46.1404533" lon="13.08931"><ele>176.0</ele><time>2026-04-04T12:07:03.065Z</time></trkpt><trkpt lat="46.1406167" lon="13.0893902"><ele>176.0</ele><time>2026-04-04T12:07:04.066Z</time></trkpt><trkpt lat="46.1407813" lon="13.0894699"><ele>175.66666666666666</ele><time>2026-04-04T12:07:05.066Z</time></trkpt><trkpt lat="46.1409465" lon="13.0895528"><ele>175.33333333333334</ele><time>2026-04-04T12:07:06.065Z</time></trkpt><trkpt lat="46.1411135" lon="13.0896348"><ele>175.0</ele><time>2026-04-04T12:07:07.064Z</time></trkpt><trkpt lat="46.1412758" lon="13.089715"><ele>175.0</ele><time>2026-04-04T12:07:08.065Z</time></trkpt><trkpt lat="46.141428" lon="13.0897919"><ele>175.0</ele><time>2026-04-04T12:07:09.065Z</time></trkpt><trkpt lat="46.1415751" lon="13.0898639"><ele>175.0</ele><time>2026-04-04T12:07:10.065Z</time></trkpt><trkpt lat="46.141721" lon="13.0899334"><ele>176.33333333333334</ele><time>2026-04-04T12:07:11.065Z</time></trkpt><trkpt lat="46.1418689" lon="13.090002"><ele>177.66666666666666</ele><time>2026-04-04T12:07:12.064Z</time></trkpt><trkpt lat="46.1420223" lon="13.0900553"><ele>179.0</ele><time>2026-04-04T12:07:13.065Z</time></trkpt><trkpt lat="46.1421852" lon="13.0900857"><ele>179.0</ele><time>2026-04-04T12:07:14.065Z</time></trkpt><trkpt lat="46.1423488" lon="13.0900889"><ele>179.0</ele><time>2026-04-04T12:07:15.065Z</time></trkpt><trkpt lat="46.1425121" lon="13.0900676"><ele>179.0</ele><time>2026-04-04T12:07:16.065Z</time></trkpt><trkpt lat="46.1426687" lon="13.090019"><ele>179.75</ele><time>2026-04-04T12:07:17.065Z</time></trkpt><trkpt lat="46.1428205" lon="13.0899706"><ele>180.5</ele><time>2026-04-04T12:07:18.064Z</time></trkpt><trkpt lat="46.1429593" lon="13.0899397"><ele>181.25</ele><time>2026-04-04T12:07:19.064Z</time></trkpt><trkpt lat="46.1430926" lon="13.089946"><ele>182.0</ele><time>2026-04-04T12:07:20.065Z</time></trkpt><trkpt lat="46.1432282" lon="13.0899882"><ele>184.0</ele><time>2026-04-04T12:07:21.065Z</time></trkpt><trkpt lat="46.1433633" lon="13.090069"><ele>186.0</ele><time>2026-04-04T12:07:22.065Z</time></trkpt><trkpt lat="46.1434931" lon="13.0901829"><ele>188.0</ele><time>2026-04-04T12:07:23.066Z</time></trkpt><trkpt lat="46.1436259" lon="13.0903155"><ele>188.0</ele><time>2026-04-04T12:07:24.064Z</time></trkpt><trkpt lat="46.1437605" lon="13.0904535"><ele>188.0</ele><time>2026-04-04T12:07:25.064Z</time></trkpt><trkpt lat="46.1438956" lon="13.0905898"><ele>188.0</ele><time>2026-04-04T12:07:26.065Z</time></trkpt><trkpt lat="46.144028" lon="13.0907193"><ele>189.25</ele><time>2026-04-04T12:07:27.065Z</time></trkpt><trkpt lat="46.1441475" lon="13.0908463"><ele>190.5</ele><time>2026-04-04T12:07:28.065Z</time></trkpt><trkpt lat="46.1442529" lon="13.090971"><ele>191.75</ele><time>2026-04-04T12:07:29.065Z</time></trkpt><trkpt lat="46.1443414" lon="13.0911047"><ele>193.0</ele><time>2026-04-04T12:07:30.064Z</time></trkpt><trkpt lat="46.1444146" lon="13.0912553"><ele>193.0</ele><time>2026-04-04T12:07:31.064Z</time></trkpt><trkpt lat="46.1444718" lon="13.0914218"><ele>193.0</ele><time>2026-04-04T12:07:32.065Z</time></trkpt><trkpt lat="46.1445185" lon="13.0915981"><ele>193.0</ele><time>2026-04-04T12:07:33.064Z</time></trkpt><trkpt lat="46.1445645" lon="13.0917782"><ele>193.0</ele><time>2026-04-04T12:07:34.064Z</time></trkpt><trkpt lat="46.1446101" lon="13.0919552"><ele>193.0</ele><time>2026-04-04T12:07:35.064Z</time></trkpt><trkpt lat="46.14465" lon="13.0921083"><ele>193.0</ele><time>2026-04-04T12:07:36.066Z</time></trkpt><trkpt lat="46.1446832" lon="13.0922408"><ele>193.0</ele><time>2026-04-04T12:07:37.066Z</time></trkpt><trkpt lat="46.1447131" lon="13.0923561"><ele>193.0</ele><time>2026-04-04T12:07:38.064Z</time></trkpt><trkpt lat="46.1447446" lon="13.0924607"><ele>193.0</ele><time>2026-04-04T12:07:39.065Z</time></trkpt><trkpt lat="46.1447689" lon="13.0925745"><ele>193.2</ele><time>2026-04-04T12:07:40.064Z</time></trkpt><trkpt lat="46.1447767" lon="13.0926985"><ele>193.4</ele><time>2026-04-04T12:07:41.064Z</time></trkpt><trkpt lat="46.1447652" lon="13.0928358"><ele>193.6</ele><time>2026-04-04T12:07:42.065Z</time></trkpt><trkpt lat="46.1447435" lon="13.0929815"><ele>193.79999999999998</ele><time>2026-04-04T12:07:43.065Z</time></trkpt><trkpt lat="46.1447192" lon="13.093142"><ele>194.0</ele><time>2026-04-04T12:07:44.065Z</time></trkpt><trkpt lat="46.1446934" lon="13.0933088"><ele>194.0</ele><time>2026-04-04T12:07:45.065Z</time></trkpt><trkpt lat="46.1446681" lon="13.0934595"><ele>194.0</ele><time>2026-04-04T12:07:46.065Z</time></trkpt><trkpt lat="46.1446436" lon="13.0935894"><ele>194.0</ele><time>2026-04-04T12:07:47.065Z</time></trkpt><trkpt lat="46.1446257" lon="13.0937075"><ele>194.0</ele><time>2026-04-04T12:07:48.065Z</time></trkpt><trkpt lat="46.1446246" lon="13.0938231"><ele>194.0</ele><time>2026-04-04T12:07:49.064Z</time></trkpt><trkpt lat="46.1446524" lon="13.0939453"><ele>194.0</ele><time>2026-04-04T12:07:50.065Z</time></trkpt><trkpt lat="46.1447029" lon="13.0940709"><ele>194.0</ele><time>2026-04-04T12:07:51.064Z</time></trkpt><trkpt lat="46.1447656" lon="13.0942067"><ele>194.0</ele><time>2026-04-04T12:07:52.065Z</time></trkpt><trkpt lat="46.1448349" lon="13.0943579"><ele>194.0</ele><time>2026-04-04T12:07:53.065Z</time></trkpt><trkpt lat="46.1449073" lon="13.0945081"><ele>194.25</ele><time>2026-04-04T12:07:54.065Z</time></trkpt><trkpt lat="46.1449761" lon="13.0946588"><ele>194.5</ele><time>2026-04-04T12:07:55.066Z</time></trkpt><trkpt lat="46.1450303" lon="13.0948187"><ele>194.75</ele><time>2026-04-04T12:07:56.064Z</time></trkpt><trkpt lat="46.14507" lon="13.094986"><ele>195.0</ele><time>2026-04-04T12:07:57.065Z</time></trkpt><trkpt lat="46.1450995" lon="13.0951645"><ele>195.0</ele><time>2026-04-04T12:07:58.064Z</time></trkpt><trkpt lat="46.1451282" lon="13.0953505"><ele>195.0</ele><time>2026-04-04T12:07:59.065Z</time></trkpt><trkpt lat="46.1451594" lon="13.0955362"><ele>195.0</ele><time>2026-04-04T12:08:00.066Z</time></trkpt><trkpt lat="46.145193" lon="13.0957115"><ele>195.0</ele><time>2026-04-04T12:08:01.065Z</time></trkpt><trkpt lat="46.1452228" lon="13.0958779"><ele>195.0</ele><time>2026-04-04T12:08:02.065Z</time></trkpt><trkpt lat="46.1452514" lon="13.0960344"><ele>195.0</ele><time>2026-04-04T12:08:03.065Z</time></trkpt><trkpt lat="46.1452824" lon="13.0961908"><ele>195.0</ele><time>2026-04-04T12:08:04.064Z</time></trkpt><trkpt lat="46.1453222" lon="13.0963444"><ele>195.0</ele><time>2026-04-04T12:08:05.064Z</time></trkpt><trkpt lat="46.1453607" lon="13.0964944"><ele>195.0</ele><time>2026-04-04T12:08:06.066Z</time></trkpt><trkpt lat="46.1454078" lon="13.0966429"><ele>194.25</ele><time>2026-04-04T12:08:07.066Z</time></trkpt><trkpt lat="46.1454609" lon="13.0967851"><ele>193.5</ele><time>2026-04-04T12:08:08.064Z</time></trkpt><trkpt lat="46.1455208" lon="13.0969281"><ele>192.75</ele><time>2026-04-04T12:08:09.066Z</time></trkpt><trkpt lat="46.1455853" lon="13.097071"><ele>192.0</ele><time>2026-04-04T12:08:10.064Z</time></trkpt><trkpt lat="46.1456533" lon="13.0972188"><ele>191.25</ele><time>2026-04-04T12:08:11.066Z</time></trkpt><trkpt lat="46.1457222" lon="13.0973649"><ele>190.5</ele><time>2026-04-04T12:08:12.065Z</time></trkpt><trkpt lat="46.1457866" lon="13.097514"><ele>189.75</ele><time>2026-04-04T12:08:13.064Z</time></trkpt><trkpt lat="46.1458467" lon="13.0976615"><ele>189.0</ele><time>2026-04-04T12:08:14.064Z</time></trkpt><trkpt lat="46.1458978" lon="13.0978159"><ele>189.0</ele><time>2026-04-04T12:08:15.065Z</time></trkpt><trkpt lat="46.1459405" lon="13.0979773"><ele>189.0</ele><time>2026-04-04T12:08:16.065Z</time></trkpt><trkpt lat="46.1459715" lon="13.0981425"><ele>189.0</ele><time>2026-04-04T12:08:17.064Z</time></trkpt><trkpt lat="46.1459909" lon="13.0983171"><ele>189.0</ele><time>2026-04-04T12:08:18.065Z</time></trkpt><trkpt lat="46.1459952" lon="13.0985036"><ele>189.25</ele><time>2026-04-04T12:08:19.065Z</time></trkpt><trkpt lat="46.1459907" lon="13.0986925"><ele>189.5</ele><time>2026-04-04T12:08:20.064Z</time></trkpt><trkpt lat="46.1459811" lon="13.0988848"><ele>189.75</ele><time>2026-04-04T12:08:21.064Z</time></trkpt><trkpt lat="46.1459728" lon="13.0990789"><ele>190.0</ele><time>2026-04-04T12:08:22.064Z</time></trkpt><trkpt lat="46.1459646" lon="13.0992707"><ele>190.0</ele><time>2026-04-04T12:08:23.065Z</time></trkpt><trkpt lat="46.1459544" lon="13.0994636"><ele>190.0</ele><time>2026-04-04T12:08:24.065Z</time></trkpt><trkpt lat="46.1459419" lon="13.0996635"><ele>190.0</ele><time>2026-04-04T12:08:25.064Z</time></trkpt><trkpt lat="46.1459319" lon="13.0998687"><ele>190.0</ele><time>2026-04-04T12:08:26.065Z</time></trkpt><trkpt lat="46.1459295" lon="13.1000719"><ele>190.0</ele><time>2026-04-04T12:08:27.064Z</time></trkpt><trkpt lat="46.1459379" lon="13.1002765"><ele>190.0</ele><time>2026-04-04T12:08:28.065Z</time></trkpt><trkpt lat="46.1459621" lon="13.1004803"><ele>190.0</ele><time>2026-04-04T12:08:29.065Z</time></trkpt><trkpt lat="46.1460018" lon="13.1006843"><ele>190.0</ele><time>2026-04-04T12:08:30.065Z</time></trkpt><trkpt lat="46.1460546" lon="13.1008862"><ele>190.0</ele><time>2026-04-04T12:08:31.065Z</time></trkpt><trkpt lat="46.146124" lon="13.101076"><ele>190.0</ele><time>2026-04-04T12:08:32.065Z</time></trkpt><trkpt lat="46.1462108" lon="13.1012605"><ele>190.0</ele><time>2026-04-04T12:08:33.064Z</time></trkpt><trkpt lat="46.1463087" lon="13.1014384"><ele>190.0</ele><time>2026-04-04T12:08:34.064Z</time></trkpt><trkpt lat="46.1464112" lon="13.1016073"><ele>190.0</ele><time>2026-04-04T12:08:35.065Z</time></trkpt><trkpt lat="46.146515" lon="13.1017798"><ele>190.0</ele><time>2026-04-04T12:08:36.065Z</time></trkpt><trkpt lat="46.146614" lon="13.1019665"><ele>190.0</ele><time>2026-04-04T12:08:37.065Z</time></trkpt><trkpt lat="46.1467034" lon="13.102171"><ele>190.0</ele><time>2026-04-04T12:08:38.065Z</time></trkpt><trkpt lat="46.1467844" lon="13.1023884"><ele>190.0</ele><time>2026-04-04T12:08:39.064Z</time></trkpt><trkpt lat="46.1468589" lon="13.1026146"><ele>189.66666666666669</ele><time>2026-04-04T12:08:40.064Z</time></trkpt><trkpt lat="46.1469273" lon="13.1028466"><ele>189.33333333333334</ele><time>2026-04-04T12:08:41.064Z</time></trkpt><trkpt lat="46.1469872" lon="13.1030814"><ele>189.0</ele><time>2026-04-04T12:08:42.066Z</time></trkpt><trkpt lat="46.1470425" lon="13.1033167"><ele>188.66666666666666</ele><time>2026-04-04T12:08:43.064Z</time></trkpt><trkpt lat="46.1470973" lon="13.1035484"><ele>188.33333333333331</ele><time>2026-04-04T12:08:44.065Z</time></trkpt><trkpt lat="46.1471523" lon="13.1037746"><ele>188.0</ele><time>2026-04-04T12:08:45.064Z</time></trkpt><trkpt lat="46.1472056" lon="13.1039989"><ele>188.0</ele><time>2026-04-04T12:08:46.064Z</time></trkpt><trkpt lat="46.1472616" lon="13.1042239"><ele>188.0</ele><time>2026-04-04T12:08:47.065Z</time></trkpt><trkpt lat="46.1473152" lon="13.1044457"><ele>188.0</ele><time>2026-04-04T12:08:48.065Z</time></trkpt><trkpt lat="46.1473715" lon="13.1046675"><ele>189.33333333333331</ele><time>2026-04-04T12:08:49.066Z</time></trkpt><trkpt lat="46.1474251" lon="13.1048933"><ele>190.66666666666666</ele><time>2026-04-04T12:08:50.064Z</time></trkpt><trkpt lat="46.1474769" lon="13.1051209"><ele>192.0</ele><time>2026-04-04T12:08:51.065Z</time></trkpt><trkpt lat="46.1475298" lon="13.1053503"><ele>192.0</ele><time>2026-04-04T12:08:52.064Z</time></trkpt><trkpt lat="46.1475796" lon="13.1055846"><ele>192.0</ele><time>2026-04-04T12:08:53.065Z</time></trkpt><trkpt lat="46.1476243" lon="13.1058245"><ele>192.0</ele><time>2026-04-04T12:08:54.065Z</time></trkpt><trkpt lat="46.147665" lon="13.1060697"><ele>192.0</ele><time>2026-04-04T12:08:55.064Z</time></trkpt><trkpt lat="46.1476997" lon="13.1063135"><ele>192.0</ele><time>2026-04-04T12:08:56.065Z</time></trkpt><trkpt lat="46.147735" lon="13.1065474"><ele>192.0</ele><time>2026-04-04T12:08:57.065Z</time></trkpt><trkpt lat="46.1477843" lon="13.1067622"><ele>192.0</ele><time>2026-04-04T12:08:58.065Z</time></trkpt><trkpt lat="46.1478511" lon="13.1069594"><ele>192.0</ele><time>2026-04-04T12:08:59.064Z</time></trkpt><trkpt lat="46.1479393" lon="13.1071394"><ele>192.0</ele><time>2026-04-04T12:09:00.066Z</time></trkpt><trkpt lat="46.1480489" lon="13.1072953"><ele>192.33333333333331</ele><time>2026-04-04T12:09:01.065Z</time></trkpt><trkpt lat="46.1481776" lon="13.1074246"><ele>192.66666666666666</ele><time>2026-04-04T12:09:02.066Z</time></trkpt><trkpt lat="46.1483217" lon="13.1075356"><ele>193.0</ele><time>2026-04-04T12:09:03.065Z</time></trkpt><trkpt lat="46.1484723" lon="13.1076386"><ele>193.0</ele><time>2026-04-04T12:09:04.065Z</time></trkpt><trkpt lat="46.148626" lon="13.1077477"><ele>193.0</ele><time>2026-04-04T12:09:05.064Z</time></trkpt><trkpt lat="46.1487841" lon="13.1078598"><ele>193.0</ele><time>2026-04-04T12:09:06.064Z</time></trkpt><trkpt lat="46.1489427" lon="13.1079692"><ele>192.66666666666666</ele><time>2026-04-04T12:09:07.065Z</time></trkpt><trkpt lat="46.149095" lon="13.1080749"><ele>192.33333333333331</ele><time>2026-04-04T12:09:08.066Z</time></trkpt><trkpt lat="46.1492361" lon="13.1081707"><ele>192.0</ele><time>2026-04-04T12:09:09.065Z</time></trkpt><trkpt lat="46.1493674" lon="13.1082607"><ele>192.0</ele><time>2026-04-04T12:09:10.065Z</time></trkpt><trkpt lat="46.1494919" lon="13.1083453"><ele>192.0</ele><time>2026-04-04T12:09:11.065Z</time></trkpt><trkpt lat="46.1496196" lon="13.1084306"><ele>192.0</ele><time>2026-04-04T12:09:12.065Z</time></trkpt><trkpt lat="46.1497547" lon="13.1085131"><ele>192.0</ele><time>2026-04-04T12:09:13.066Z</time></trkpt><trkpt lat="46.1499018" lon="13.1085775"><ele>193.0</ele><time>2026-04-04T12:09:14.064Z</time></trkpt><trkpt lat="46.1500555" lon="13.1086296"><ele>194.0</ele><time>2026-04-04T12:09:15.064Z</time></trkpt><trkpt lat="46.1502134" lon="13.1086687"><ele>195.0</ele><time>2026-04-04T12:09:16.065Z</time></trkpt><trkpt lat="46.1503713" lon="13.1087003"><ele>195.0</ele><time>2026-04-04T12:09:17.066Z</time></trkpt><trkpt lat="46.1505214" lon="13.1087323"><ele>195.0</ele><time>2026-04-04T12:09:18.065Z</time></trkpt><trkpt lat="46.1506613" lon="13.1087625"><ele>195.0</ele><time>2026-04-04T12:09:19.064Z</time></trkpt><trkpt lat="46.1507993" lon="13.1087959"><ele>195.0</ele><time>2026-04-04T12:09:20.064Z</time></trkpt><trkpt lat="46.1509339" lon="13.108833"><ele>196.25</ele><time>2026-04-04T12:09:21.066Z</time></trkpt><trkpt lat="46.1510683" lon="13.1088694"><ele>197.5</ele><time>2026-04-04T12:09:22.065Z</time></trkpt><trkpt lat="46.1511993" lon="13.1089068"><ele>198.75</ele><time>2026-04-04T12:09:23.065Z</time></trkpt><trkpt lat="46.1513256" lon="13.1089468"><ele>200.0</ele><time>2026-04-04T12:09:24.066Z</time></trkpt><trkpt lat="46.1514493" lon="13.1089902"><ele>200.75</ele><time>2026-04-04T12:09:25.065Z</time></trkpt><trkpt lat="46.1515643" lon="13.1090495"><ele>201.5</ele><time>2026-04-04T12:09:26.065Z</time></trkpt><trkpt lat="46.151669" lon="13.109124"><ele>202.25</ele><time>2026-04-04T12:09:27.064Z</time></trkpt><trkpt lat="46.1517671" lon="13.1092202"><ele>203.0</ele><time>2026-04-04T12:09:28.065Z</time></trkpt><trkpt lat="46.1518606" lon="13.1093376"><ele>203.0</ele><time>2026-04-04T12:09:29.065Z</time></trkpt><trkpt lat="46.1519558" lon="13.1094695"><ele>203.0</ele><time>2026-04-04T12:09:30.064Z</time></trkpt><trkpt lat="46.1520582" lon="13.1096041"><ele>203.0</ele><time>2026-04-04T12:09:31.065Z</time></trkpt><trkpt lat="46.1521614" lon="13.1097422"><ele>203.0</ele><time>2026-04-04T12:09:32.065Z</time></trkpt><trkpt lat="46.1522607" lon="13.1098863"><ele>202.75</ele><time>2026-04-04T12:09:33.065Z</time></trkpt><trkpt lat="46.1523449" lon="13.11005"><ele>202.5</ele><time>2026-04-04T12:09:34.065Z</time></trkpt><trkpt lat="46.152415" lon="13.1102355"><ele>202.25</ele><time>2026-04-04T12:09:35.064Z</time></trkpt><trkpt lat="46.1524774" lon="13.1104359"><ele>202.0</ele><time>2026-04-04T12:09:36.065Z</time></trkpt><trkpt lat="46.1525406" lon="13.1106475"><ele>202.33333333333331</ele><time>2026-04-04T12:09:37.065Z</time></trkpt><trkpt lat="46.1526051" lon="13.1108615"><ele>202.66666666666669</ele><time>2026-04-04T12:09:38.065Z</time></trkpt><trkpt lat="46.152668" lon="13.1110782"><ele>203.0</ele><time>2026-04-04T12:09:39.066Z</time></trkpt><trkpt lat="46.1527314" lon="13.1112902"><ele>203.0</ele><time>2026-04-04T12:09:40.065Z</time></trkpt><trkpt lat="46.1527964" lon="13.1115006"><ele>203.0</ele><time>2026-04-04T12:09:41.064Z</time></trkpt><trkpt lat="46.1528596" lon="13.1117099"><ele>203.0</ele><time>2026-04-04T12:09:42.065Z</time></trkpt><trkpt lat="46.152921" lon="13.1119158"><ele>202.66666666666669</ele><time>2026-04-04T12:09:43.064Z</time></trkpt><trkpt lat="46.152982" lon="13.1121176"><ele>202.33333333333331</ele><time>2026-04-04T12:09:44.064Z</time></trkpt><trkpt lat="46.1530429" lon="13.1123184"><ele>202.0</ele><time>2026-04-04T12:09:45.065Z</time></trkpt><trkpt lat="46.1531045" lon="13.1125175"><ele>202.66666666666666</ele><time>2026-04-04T12:09:46.064Z</time></trkpt><trkpt lat="46.1531635" lon="13.11272"><ele>203.33333333333331</ele><time>2026-04-04T12:09:47.065Z</time></trkpt><trkpt lat="46.1532242" lon="13.1129268"><ele>204.0</ele><time>2026-04-04T12:09:48.065Z</time></trkpt><trkpt lat="46.1532866" lon="13.1131411"><ele>205.33333333333331</ele><time>2026-04-04T12:09:49.065Z</time></trkpt><trkpt lat="46.1533531" lon="13.1133653"><ele>206.66666666666666</ele><time>2026-04-04T12:09:50.065Z</time></trkpt><trkpt lat="46.1534244" lon="13.1135991"><ele>208.0</ele><time>2026-04-04T12:09:51.065Z</time></trkpt><trkpt lat="46.1534961" lon="13.1138355"><ele>207.66666666666666</ele><time>2026-04-04T12:09:52.065Z</time></trkpt><trkpt lat="46.1535662" lon="13.1140729"><ele>207.33333333333331</ele><time>2026-04-04T12:09:53.066Z</time></trkpt><trkpt lat="46.1536332" lon="13.1143007"><ele>207.0</ele><time>2026-04-04T12:09:54.065Z</time></trkpt><trkpt lat="46.1536979" lon="13.1145177"><ele>207.0</ele><time>2026-04-04T12:09:55.065Z</time></trkpt><trkpt lat="46.1537611" lon="13.1147243"><ele>207.0</ele><time>2026-04-04T12:09:56.064Z</time></trkpt><trkpt lat="46.1538234" lon="13.1149216"><ele>207.0</ele><time>2026-04-04T12:09:57.064Z</time></trkpt><trkpt lat="46.153882" lon="13.1151194"><ele>206.66666666666669</ele><time>2026-04-04T12:09:58.065Z</time></trkpt><trkpt lat="46.15394" lon="13.1153177"><ele>206.33333333333334</ele><time>2026-04-04T12:09:59.065Z</time></trkpt><trkpt lat="46.1539994" lon="13.1155168"><ele>206.0</ele><time>2026-04-04T12:10:00.065Z</time></trkpt><trkpt lat="46.1540587" lon="13.1157207"><ele>207.66666666666669</ele><time>2026-04-04T12:10:01.066Z</time></trkpt><trkpt lat="46.1541205" lon="13.1159237"><ele>209.33333333333331</ele><time>2026-04-04T12:10:02.065Z</time></trkpt><trkpt lat="46.1541928" lon="13.1161237"><ele>211.0</ele><time>2026-04-04T12:10:03.064Z</time></trkpt><trkpt lat="46.1542738" lon="13.1163222"><ele>211.0</ele><time>2026-04-04T12:10:04.065Z</time></trkpt><trkpt lat="46.154363" lon="13.116521"><ele>211.0</ele><time>2026-04-04T12:10:05.065Z</time></trkpt><trkpt lat="46.1544625" lon="13.1167151"><ele>211.0</ele><time>2026-04-04T12:10:06.065Z</time></trkpt><trkpt lat="46.1545716" lon="13.1169065"><ele>210.66666666666666</ele><time>2026-04-04T12:10:07.064Z</time></trkpt><trkpt lat="46.1546864" lon="13.1170927"><ele>210.33333333333331</ele><time>2026-04-04T12:10:08.066Z</time></trkpt><trkpt lat="46.1548045" lon="13.1172729"><ele>210.0</ele><time>2026-04-04T12:10:09.064Z</time></trkpt><trkpt lat="46.1549188" lon="13.1174353"><ele>209.5</ele><time>2026-04-04T12:10:10.065Z</time></trkpt><trkpt lat="46.1550255" lon="13.1175882"><ele>209.0</ele><time>2026-04-04T12:10:11.065Z</time></trkpt><trkpt lat="46.1551306" lon="13.1177359"><ele>208.5</ele><time>2026-04-04T12:10:12.066Z</time></trkpt><trkpt lat="46.1552333" lon="13.1178828"><ele>208.0</ele><time>2026-04-04T12:10:13.065Z</time></trkpt><trkpt lat="46.1553369" lon="13.1180311"><ele>208.0</ele><time>2026-04-04T12:10:14.065Z</time></trkpt><trkpt lat="46.1554372" lon="13.1181707"><ele>208.0</ele><time>2026-04-04T12:10:15.065Z</time></trkpt><trkpt lat="46.1555328" lon="13.1183072"><ele>208.0</ele><time>2026-04-04T12:10:16.065Z</time></trkpt><trkpt lat="46.1556183" lon="13.1184641"><ele>208.0</ele><time>2026-04-04T12:10:17.066Z</time></trkpt><trkpt lat="46.1556963" lon="13.1186388"><ele>207.5</ele><time>2026-04-04T12:10:18.065Z</time></trkpt><trkpt lat="46.1557593" lon="13.1188285"><ele>207.0</ele><time>2026-04-04T12:10:19.064Z</time></trkpt><trkpt lat="46.1558052" lon="13.1190319"><ele>206.5</ele><time>2026-04-04T12:10:20.066Z</time></trkpt><trkpt lat="46.1558335" lon="13.1192399"><ele>206.0</ele><time>2026-04-04T12:10:21.064Z</time></trkpt><trkpt lat="46.1558427" lon="13.1194575"><ele>205.75</ele><time>2026-04-04T12:10:22.064Z</time></trkpt><trkpt lat="46.1558365" lon="13.1196755"><ele>205.5</ele><time>2026-04-04T12:10:23.066Z</time></trkpt><trkpt lat="46.155825" lon="13.1198915"><ele>205.25</ele><time>2026-04-04T12:10:24.065Z</time></trkpt><trkpt lat="46.1558089" lon="13.1201041"><ele>205.0</ele><time>2026-04-04T12:10:25.065Z</time></trkpt><trkpt lat="46.1557914" lon="13.1203137"><ele>204.5</ele><time>2026-04-04T12:10:26.066Z</time></trkpt><trkpt lat="46.1557797" lon="13.1205187"><ele>204.0</ele><time>2026-04-04T12:10:27.064Z</time></trkpt><trkpt lat="46.155775" lon="13.1207254"><ele>203.5</ele><time>2026-04-04T12:10:28.066Z</time></trkpt><trkpt lat="46.1557816" lon="13.1209353"><ele>203.0</ele><time>2026-04-04T12:10:29.065Z</time></trkpt><trkpt lat="46.1558056" lon="13.1211492"><ele>203.0</ele><time>2026-04-04T12:10:30.066Z</time></trkpt><trkpt lat="46.1558496" lon="13.1213637"><ele>203.0</ele><time>2026-04-04T12:10:31.065Z</time></trkpt><trkpt lat="46.1559132" lon="13.1215724"><ele>203.0</ele><time>2026-04-04T12:10:32.066Z</time></trkpt><trkpt lat="46.1559925" lon="13.1217741"><ele>202.33333333333334</ele><time>2026-04-04T12:10:33.064Z</time></trkpt><trkpt lat="46.1560854" lon="13.1219678"><ele>201.66666666666669</ele><time>2026-04-04T12:10:34.066Z</time></trkpt><trkpt lat="46.1561881" lon="13.1221539"><ele>201.0</ele><time>2026-04-04T12:10:35.065Z</time></trkpt><trkpt lat="46.1562969" lon="13.1223394"><ele>200.66666666666669</ele><time>2026-04-04T12:10:36.064Z</time></trkpt><trkpt lat="46.1564059" lon="13.1225225"><ele>200.33333333333334</ele><time>2026-04-04T12:10:37.065Z</time></trkpt><trkpt lat="46.1565158" lon="13.1226971"><ele>200.0</ele><time>2026-04-04T12:10:38.065Z</time></trkpt><trkpt lat="46.1566227" lon="13.1228662"><ele>199.75</ele><time>2026-04-04T12:10:39.065Z</time></trkpt><trkpt lat="46.1567254" lon="13.1230279"><ele>199.5</ele><time>2026-04-04T12:10:40.064Z</time></trkpt><trkpt lat="46.1568219" lon="13.1231815"><ele>199.25</ele><time>2026-04-04T12:10:41.066Z</time></trkpt><trkpt lat="46.1569058" lon="13.123337"><ele>199.0</ele><time>2026-04-04T12:10:42.064Z</time></trkpt><trkpt lat="46.1569718" lon="13.1235038"><ele>199.0</ele><time>2026-04-04T12:10:43.065Z</time></trkpt><trkpt lat="46.1570209" lon="13.1236859"><ele>199.0</ele><time>2026-04-04T12:10:44.064Z</time></trkpt><trkpt lat="46.1570554" lon="13.123885"><ele>199.0</ele><time>2026-04-04T12:10:45.064Z</time></trkpt><trkpt lat="46.1570769" lon="13.1240835"><ele>199.0</ele><time>2026-04-04T12:10:46.064Z</time></trkpt><trkpt lat="46.1570967" lon="13.1242763"><ele>198.75</ele><time>2026-04-04T12:10:47.065Z</time></trkpt><trkpt lat="46.1571283" lon="13.1244635"><ele>198.5</ele><time>2026-04-04T12:10:48.064Z</time></trkpt><trkpt lat="46.1571691" lon="13.1246402"><ele>198.25</ele><time>2026-04-04T12:10:49.064Z</time></trkpt><trkpt lat="46.1572167" lon="13.1248076"><ele>198.0</ele><time>2026-04-04T12:10:50.065Z</time></trkpt><trkpt lat="46.1572729" lon="13.1249709"><ele>197.75</ele><time>2026-04-04T12:10:51.065Z</time></trkpt><trkpt lat="46.1573384" lon="13.1251186"><ele>197.5</ele><time>2026-04-04T12:10:52.064Z</time></trkpt><trkpt lat="46.1574094" lon="13.1252497"><ele>197.25</ele><time>2026-04-04T12:10:53.065Z</time></trkpt><trkpt lat="46.1574875" lon="13.1253652"><ele>197.0</ele><time>2026-04-04T12:10:54.065Z</time></trkpt><trkpt lat="46.1575661" lon="13.1254599"><ele>197.0</ele><time>2026-04-04T12:10:55.065Z</time></trkpt><trkpt lat="46.157649" lon="13.125531"><ele>197.0</ele><time>2026-04-04T12:10:56.064Z</time></trkpt><trkpt lat="46.1577346" lon="13.1255787"><ele>197.0</ele><time>2026-04-04T12:10:57.065Z</time></trkpt><trkpt lat="46.1578305" lon="13.1256043"><ele>197.0</ele><time>2026-04-04T12:10:58.065Z</time></trkpt><trkpt lat="46.1579177" lon="13.1256179"><ele>197.0</ele><time>2026-04-04T12:10:59.064Z</time></trkpt><trkpt lat="46.1580009" lon="13.1256466"><ele>197.0</ele><time>2026-04-04T12:11:00.064Z</time></trkpt><trkpt lat="46.1580729" lon="13.1256454"><ele>197.0</ele><time>2026-04-04T12:11:01.065Z</time></trkpt><trkpt lat="46.1581407" lon="13.1256428"><ele>197.0</ele><time>2026-04-04T12:11:02.065Z</time></trkpt><trkpt lat="46.158205" lon="13.1256347"><ele>197.0</ele><time>2026-04-04T12:11:03.065Z</time></trkpt><trkpt lat="46.1582756" lon="13.1256249"><ele>197.0</ele><time>2026-04-04T12:11:04.065Z</time></trkpt><trkpt lat="46.1583541" lon="13.1256153"><ele>197.0</ele><time>2026-04-04T12:11:05.064Z</time></trkpt><trkpt lat="46.1584269" lon="13.1256109"><ele>197.0</ele><time>2026-04-04T12:11:06.065Z</time></trkpt><trkpt lat="46.1584946" lon="13.1256081"><ele>196.85714285714286</ele><time>2026-04-04T12:11:07.066Z</time></trkpt><trkpt lat="46.1585605" lon="13.1256063"><ele>196.71428571428572</ele><time>2026-04-04T12:11:08.064Z</time></trkpt><trkpt lat="46.1586239" lon="13.1256058"><ele>196.57142857142856</ele><time>2026-04-04T12:11:09.064Z</time></trkpt><trkpt lat="46.1586983" lon="13.1256034"><ele>196.42857142857144</ele><time>2026-04-04T12:11:10.065Z</time></trkpt><trkpt lat="46.1587769" lon="13.1255923"><ele>196.28571428571428</ele><time>2026-04-04T12:11:11.066Z</time></trkpt><trkpt lat="46.1588542" lon="13.1255875"><ele>196.14285714285714</ele><time>2026-04-04T12:11:12.065Z</time></trkpt><trkpt lat="46.1589183" lon="13.1256164"><ele>196.0</ele><time>2026-04-04T12:11:13.064Z</time></trkpt><trkpt lat="46.1590006" lon="13.1257479"><ele>196.0</ele><time>2026-04-04T12:11:15.064Z</time></trkpt><trkpt lat="46.1590325" lon="13.1258562"><ele>196.0</ele><time>2026-04-04T12:11:16.065Z</time></trkpt><trkpt lat="46.1590632" lon="13.125977"><ele>196.0</ele><time>2026-04-04T12:11:17.065Z</time></trkpt><trkpt lat="46.1590951" lon="13.1261013"><ele>196.0</ele><time>2026-04-04T12:11:18.064Z</time></trkpt><trkpt lat="46.1591261" lon="13.1262384"><ele>196.0</ele><time>2026-04-04T12:11:19.066Z</time></trkpt><trkpt lat="46.1591593" lon="13.1263813"><ele>196.5</ele><time>2026-04-04T12:11:20.065Z</time></trkpt><trkpt lat="46.1591972" lon="13.1265289"><ele>197.0</ele><time>2026-04-04T12:11:21.065Z</time></trkpt><trkpt lat="46.1592363" lon="13.1266835"><ele>197.5</ele><time>2026-04-04T12:11:22.066Z</time></trkpt><trkpt lat="46.1592646" lon="13.1268516"><ele>198.0</ele><time>2026-04-04T12:11:23.066Z</time></trkpt><trkpt lat="46.1592777" lon="13.1270298"><ele>198.0</ele><time>2026-04-04T12:11:24.065Z</time></trkpt><trkpt lat="46.1592862" lon="13.127214"><ele>198.0</ele><time>2026-04-04T12:11:25.066Z</time></trkpt><trkpt lat="46.1592999" lon="13.1274031"><ele>198.0</ele><time>2026-04-04T12:11:26.065Z</time></trkpt><trkpt lat="46.1593192" lon="13.1275808"><ele>198.0</ele><time>2026-04-04T12:11:27.066Z</time></trkpt><trkpt lat="46.1593286" lon="13.1277566"><ele>198.25</ele><time>2026-04-04T12:11:28.066Z</time></trkpt><trkpt lat="46.1593282" lon="13.1279395"><ele>198.5</ele><time>2026-04-04T12:11:29.065Z</time></trkpt><trkpt lat="46.1593148" lon="13.1281296"><ele>198.75</ele><time>2026-04-04T12:11:30.065Z</time></trkpt><trkpt lat="46.159294" lon="13.1283297"><ele>199.0</ele><time>2026-04-04T12:11:31.065Z</time></trkpt><trkpt lat="46.1592748" lon="13.1285365"><ele>199.0</ele><time>2026-04-04T12:11:32.065Z</time></trkpt><trkpt lat="46.1592547" lon="13.1287485"><ele>199.0</ele><time>2026-04-04T12:11:33.064Z</time></trkpt><trkpt lat="46.1592344" lon="13.1289666"><ele>199.0</ele><time>2026-04-04T12:11:34.064Z</time></trkpt><trkpt lat="46.1592124" lon="13.1291887"><ele>198.66666666666666</ele><time>2026-04-04T12:11:35.066Z</time></trkpt><trkpt lat="46.1591918" lon="13.1294133"><ele>198.33333333333331</ele><time>2026-04-04T12:11:36.066Z</time></trkpt><trkpt lat="46.1591711" lon="13.1296358"><ele>198.0</ele><time>2026-04-04T12:11:37.064Z</time></trkpt><trkpt lat="46.1591481" lon="13.1298465"><ele>197.75</ele><time>2026-04-04T12:11:38.066Z</time></trkpt><trkpt lat="46.1591249" lon="13.1300465"><ele>197.5</ele><time>2026-04-04T12:11:39.065Z</time></trkpt><trkpt lat="46.1591037" lon="13.1302242"><ele>197.25</ele><time>2026-04-04T12:11:40.065Z</time></trkpt><trkpt lat="46.1590851" lon="13.1303852"><ele>197.0</ele><time>2026-04-04T12:11:41.064Z</time></trkpt><trkpt lat="46.1590692" lon="13.130546"><ele>197.0</ele><time>2026-04-04T12:11:42.064Z</time></trkpt><trkpt lat="46.1590607" lon="13.1307028"><ele>197.0</ele><time>2026-04-04T12:11:43.066Z</time></trkpt><trkpt lat="46.1590785" lon="13.1308677"><ele>197.0</ele><time>2026-04-04T12:11:44.064Z</time></trkpt><trkpt lat="46.1591211" lon="13.131045"><ele>197.0</ele><time>2026-04-04T12:11:45.064Z</time></trkpt><trkpt lat="46.1591867" lon="13.1312289"><ele>196.66666666666669</ele><time>2026-04-04T12:11:46.066Z</time></trkpt><trkpt lat="46.1592729" lon="13.13142"><ele>196.33333333333331</ele><time>2026-04-04T12:11:47.065Z</time></trkpt><trkpt lat="46.1593697" lon="13.131606"><ele>196.0</ele><time>2026-04-04T12:11:48.065Z</time></trkpt><trkpt lat="46.1594818" lon="13.1317756"><ele>196.0</ele><time>2026-04-04T12:11:49.065Z</time></trkpt><trkpt lat="46.1596046" lon="13.1319227"><ele>196.0</ele><time>2026-04-04T12:11:50.066Z</time></trkpt><trkpt lat="46.1597285" lon="13.1320455"><ele>196.0</ele><time>2026-04-04T12:11:51.064Z</time></trkpt><trkpt lat="46.1598394" lon="13.1321547"><ele>196.0</ele><time>2026-04-04T12:11:52.065Z</time></trkpt><trkpt lat="46.1599417" lon="13.1322571"><ele>196.75</ele><time>2026-04-04T12:11:53.066Z</time></trkpt><trkpt lat="46.1600372" lon="13.1323582"><ele>197.5</ele><time>2026-04-04T12:11:54.066Z</time></trkpt><trkpt lat="46.1601275" lon="13.1324687"><ele>198.25</ele><time>2026-04-04T12:11:55.065Z</time></trkpt><trkpt lat="46.1602213" lon="13.132585"><ele>199.0</ele><time>2026-04-04T12:11:56.064Z</time></trkpt><trkpt lat="46.1603152" lon="13.1327178"><ele>199.0</ele><time>2026-04-04T12:11:57.066Z</time></trkpt><trkpt lat="46.1604083" lon="13.1328651"><ele>199.0</ele><time>2026-04-04T12:11:58.065Z</time></trkpt><trkpt lat="46.1604961" lon="13.1330245"><ele>199.0</ele><time>2026-04-04T12:11:59.066Z</time></trkpt><trkpt lat="46.1605808" lon="13.1331913"><ele>199.0</ele><time>2026-04-04T12:12:00.066Z</time></trkpt><trkpt lat="46.1606552" lon="13.1333531"><ele>198.25</ele><time>2026-04-04T12:12:01.066Z</time></trkpt><trkpt lat="46.1607211" lon="13.1335087"><ele>197.5</ele><time>2026-04-04T12:12:02.065Z</time></trkpt><trkpt lat="46.160782" lon="13.1336602"><ele>196.75</ele><time>2026-04-04T12:12:03.065Z</time></trkpt><trkpt lat="46.1608455" lon="13.133808"><ele>196.0</ele><time>2026-04-04T12:12:04.065Z</time></trkpt><trkpt lat="46.1609206" lon="13.1339554"><ele>196.0</ele><time>2026-04-04T12:12:05.064Z</time></trkpt><trkpt lat="46.1610131" lon="13.1340968"><ele>196.0</ele><time>2026-04-04T12:12:06.064Z</time></trkpt><trkpt lat="46.1611268" lon="13.134229"><ele>196.0</ele><time>2026-04-04T12:12:07.066Z</time></trkpt><trkpt lat="46.1612533" lon="13.1343531"><ele>196.0</ele><time>2026-04-04T12:12:08.064Z</time></trkpt><trkpt lat="46.1613817" lon="13.1344765"><ele>196.0</ele><time>2026-04-04T12:12:09.064Z</time></trkpt><trkpt lat="46.1615082" lon="13.1345905"><ele>196.0</ele><time>2026-04-04T12:12:10.065Z</time></trkpt><trkpt lat="46.1616259" lon="13.1346886"><ele>196.0</ele><time>2026-04-04T12:12:11.064Z</time></trkpt><trkpt lat="46.1617385" lon="13.1347847"><ele>196.0</ele><time>2026-04-04T12:12:12.066Z</time></trkpt><trkpt lat="46.1618482" lon="13.1348821"><ele>195.25</ele><time>2026-04-04T12:12:13.064Z</time></trkpt><trkpt lat="46.1619598" lon="13.1349801"><ele>194.5</ele><time>2026-04-04T12:12:14.065Z</time></trkpt><trkpt lat="46.16207" lon="13.1350795"><ele>193.75</ele><time>2026-04-04T12:12:15.065Z</time></trkpt><trkpt lat="46.1621777" lon="13.1351862"><ele>193.0</ele><time>2026-04-04T12:12:16.064Z</time></trkpt><trkpt lat="46.1622883" lon="13.1352976"><ele>194.25</ele><time>2026-04-04T12:12:17.064Z</time></trkpt><trkpt lat="46.1624068" lon="13.135403"><ele>195.5</ele><time>2026-04-04T12:12:18.065Z</time></trkpt><trkpt lat="46.1625256" lon="13.1355069"><ele>196.75</ele><time>2026-04-04T12:12:19.064Z</time></trkpt><trkpt lat="46.1626401" lon="13.1356054"><ele>198.0</ele><time>2026-04-04T12:12:20.064Z</time></trkpt><trkpt lat="46.1627452" lon="13.1357026"><ele>197.0</ele><time>2026-04-04T12:12:21.064Z</time></trkpt><trkpt lat="46.1628434" lon="13.1357967"><ele>196.0</ele><time>2026-04-04T12:12:22.065Z</time></trkpt><trkpt lat="46.1629357" lon="13.1358754"><ele>195.0</ele><time>2026-04-04T12:12:23.064Z</time></trkpt><trkpt lat="46.1630206" lon="13.1359513"><ele>194.0</ele><time>2026-04-04T12:12:24.065Z</time></trkpt><trkpt lat="46.163101" lon="13.1360257"><ele>193.0</ele><time>2026-04-04T12:12:25.065Z</time></trkpt><trkpt lat="46.1631778" lon="13.1360937"><ele>193.66666666666666</ele><time>2026-04-04T12:12:26.065Z</time></trkpt><trkpt lat="46.1632525" lon="13.1361612"><ele>194.33333333333331</ele><time>2026-04-04T12:12:27.065Z</time></trkpt><trkpt lat="46.1633183" lon="13.136227"><ele>195.0</ele><time>2026-04-04T12:12:28.065Z</time></trkpt><trkpt lat="46.1633783" lon="13.1362818"><ele>195.66666666666669</ele><time>2026-04-04T12:12:29.065Z</time></trkpt><trkpt lat="46.1634364" lon="13.1363295"><ele>196.33333333333334</ele><time>2026-04-04T12:12:30.064Z</time></trkpt><trkpt lat="46.1635535" lon="13.136397"><ele>197.0</ele><time>2026-04-04T12:12:32.065Z</time></trkpt><trkpt lat="46.1636166" lon="13.1364046"><ele>197.00000000000003</ele><time>2026-04-04T12:12:33.065Z</time></trkpt><trkpt lat="46.1636784" lon="13.1364222"><ele>197.0</ele><time>2026-04-04T12:12:34.064Z</time></trkpt><trkpt lat="46.1637425" lon="13.1364715"><ele>197.0</ele><time>2026-04-04T12:12:35.064Z</time></trkpt><trkpt lat="46.1638203" lon="13.1365386"><ele>197.0</ele><time>2026-04-04T12:12:36.065Z</time></trkpt><trkpt lat="46.1639113" lon="13.1366123"><ele>197.00000000000003</ele><time>2026-04-04T12:12:37.065Z</time></trkpt><trkpt lat="46.1640056" lon="13.1366822"><ele>197.0</ele><time>2026-04-04T12:12:38.064Z</time></trkpt><trkpt lat="46.1641057" lon="13.1367288"><ele>197.39999999999998</ele><time>2026-04-04T12:12:39.066Z</time></trkpt><trkpt lat="46.1642063" lon="13.1367715"><ele>197.79999999999998</ele><time>2026-04-04T12:12:40.064Z</time></trkpt><trkpt lat="46.1643064" lon="13.1368168"><ele>198.2</ele><time>2026-04-04T12:12:41.064Z</time></trkpt><trkpt lat="46.1644091" lon="13.1368607"><ele>198.6</ele><time>2026-04-04T12:12:42.064Z</time></trkpt><trkpt lat="46.1645125" lon="13.1369023"><ele>199.0</ele><time>2026-04-04T12:12:43.065Z</time></trkpt><trkpt lat="46.1646222" lon="13.1369397"><ele>199.0</ele><time>2026-04-04T12:12:44.065Z</time></trkpt><trkpt lat="46.1647403" lon="13.1369744"><ele>199.0</ele><time>2026-04-04T12:12:45.065Z</time></trkpt><trkpt lat="46.1648624" lon="13.1370069"><ele>199.0</ele><time>2026-04-04T12:12:46.065Z</time></trkpt><trkpt lat="46.1649786" lon="13.1370308"><ele>199.0</ele><time>2026-04-04T12:12:47.065Z</time></trkpt><trkpt lat="46.1650829" lon="13.1370547"><ele>199.6</ele><time>2026-04-04T12:12:48.065Z</time></trkpt><trkpt lat="46.1651804" lon="13.1370934"><ele>200.2</ele><time>2026-04-04T12:12:49.064Z</time></trkpt><trkpt lat="46.1652743" lon="13.1371555"><ele>200.79999999999998</ele><time>2026-04-04T12:12:50.065Z</time></trkpt><trkpt lat="46.1653605" lon="13.1372388"><ele>201.39999999999998</ele><time>2026-04-04T12:12:51.065Z</time></trkpt><trkpt lat="46.1654406" lon="13.1373351"><ele>202.0</ele><time>2026-04-04T12:12:52.065Z</time></trkpt><trkpt lat="46.1655123" lon="13.1374254"><ele>201.99999999999997</ele><time>2026-04-04T12:12:53.064Z</time></trkpt><trkpt lat="46.1655793" lon="13.13751"><ele>202.0</ele><time>2026-04-04T12:12:54.066Z</time></trkpt><trkpt lat="46.1656427" lon="13.137596"><ele>202.0</ele><time>2026-04-04T12:12:55.064Z</time></trkpt><trkpt lat="46.1657068" lon="13.1376745"><ele>202.0</ele><time>2026-04-04T12:12:56.065Z</time></trkpt><trkpt lat="46.1657694" lon="13.1377375"><ele>201.99999999999997</ele><time>2026-04-04T12:12:57.064Z</time></trkpt><trkpt lat="46.1658359" lon="13.1377895"><ele>202.0</ele><time>2026-04-04T12:12:58.066Z</time></trkpt><trkpt lat="46.1659024" lon="13.1378502"><ele>202.16666666666666</ele><time>2026-04-04T12:12:59.065Z</time></trkpt><trkpt lat="46.1659682" lon="13.1379173"><ele>202.33333333333331</ele><time>2026-04-04T12:13:00.066Z</time></trkpt><trkpt lat="46.1660113" lon="13.1379972"><ele>202.5</ele><time>2026-04-04T12:13:01.066Z</time></trkpt><trkpt lat="46.1660431" lon="13.13808"><ele>202.66666666666669</ele><time>2026-04-04T12:13:02.065Z</time></trkpt><trkpt lat="46.1660926" lon="13.1382167"><ele>202.83333333333334</ele><time>2026-04-04T12:13:04.064Z</time></trkpt><trkpt lat="46.1661163" lon="13.1383188"><ele>203.0</ele><time>2026-04-04T12:13:06.064Z</time></trkpt><trkpt lat="46.166135" lon="13.1384334"><ele>203.16666666666669</ele><time>2026-04-04T12:13:09.066Z</time></trkpt><trkpt lat="46.1661293" lon="13.1385374"><ele>203.33333333333334</ele><time>2026-04-04T12:13:18.064Z</time></trkpt><trkpt lat="46.1661524" lon="13.1386266"><ele>203.5</ele><time>2026-04-04T12:14:32.065Z</time></trkpt><trkpt lat="46.1661953" lon="13.1387081"><ele>203.66666666666669</ele><time>2026-04-04T12:14:34.064Z</time></trkpt><trkpt lat="46.1662329" lon="13.1388215"><ele>203.83333333333334</ele><time>2026-04-04T12:14:36.065Z</time></trkpt><trkpt lat="46.1662606" lon="13.1389335"><ele>204.0</ele><time>2026-04-04T12:14:38.065Z</time></trkpt><trkpt lat="46.1662954" lon="13.1390586"><ele>203.2</ele><time>2026-04-04T12:14:40.065Z</time></trkpt><trkpt lat="46.1663337" lon="13.1391665"><ele>202.39999999999998</ele><time>2026-04-04T12:14:42.065Z</time></trkpt><trkpt lat="46.1663793" lon="13.1392797"><ele>201.6</ele><time>2026-04-04T12:14:44.065Z</time></trkpt><trkpt lat="46.1664193" lon="13.1394358"><ele>200.8</ele><time>2026-04-04T12:14:46.064Z</time></trkpt><trkpt lat="46.1664623" lon="13.1395994"><ele>200.0</ele><time>2026-04-04T12:14:48.065Z</time></trkpt><trkpt lat="46.1664832" lon="13.1396858"><ele>200.00000000000003</ele><time>2026-04-04T12:14:49.065Z</time></trkpt><trkpt lat="46.1664984" lon="13.1397802"><ele>200.0</ele><time>2026-04-04T12:14:50.064Z</time></trkpt><trkpt lat="46.1665063" lon="13.1398718"><ele>200.0</ele><time>2026-04-04T12:14:51.065Z</time></trkpt><trkpt lat="46.1665063" lon="13.1400327"><ele>200.0</ele><time>2026-04-04T12:14:53.064Z</time></trkpt><trkpt lat="46.1665203" lon="13.1401885"><ele>200.00000000000003</ele><time>2026-04-04T12:14:55.065Z</time></trkpt><trkpt lat="46.1665546" lon="13.1402701"><ele>200.0</ele><time>2026-04-04T12:14:56.065Z</time></trkpt><trkpt lat="46.1666049" lon="13.140342"><ele>200.4</ele><time>2026-04-04T12:14:57.065Z</time></trkpt><trkpt lat="46.1666713" lon="13.1404138"><ele>200.8</ele><time>2026-04-04T12:14:58.065Z</time></trkpt><trkpt lat="46.1667488" lon="13.1405042"><ele>201.2</ele><time>2026-04-04T12:14:59.065Z</time></trkpt><trkpt lat="46.1668368" lon="13.1406128"><ele>201.6</ele><time>2026-04-04T12:15:00.065Z</time></trkpt><trkpt lat="46.1669341" lon="13.1407339"><ele>202.0</ele><time>2026-04-04T12:15:01.064Z</time></trkpt><trkpt lat="46.1670403" lon="13.1408609"><ele>202.0</ele><time>2026-04-04T12:15:02.064Z</time></trkpt><trkpt lat="46.1671437" lon="13.1409882"><ele>202.0</ele><time>2026-04-04T12:15:03.065Z</time></trkpt><trkpt lat="46.1672448" lon="13.1411184"><ele>202.0</ele><time>2026-04-04T12:15:04.065Z</time></trkpt><trkpt lat="46.1673451" lon="13.1412417"><ele>202.0</ele><time>2026-04-04T12:15:05.065Z</time></trkpt><trkpt lat="46.167445" lon="13.1413656"><ele>200.75</ele><time>2026-04-04T12:15:06.064Z</time></trkpt><trkpt lat="46.1675388" lon="13.1414865"><ele>199.5</ele><time>2026-04-04T12:15:07.064Z</time></trkpt><trkpt lat="46.1676329" lon="13.1416041"><ele>198.25</ele><time>2026-04-04T12:15:08.065Z</time></trkpt><trkpt lat="46.1677251" lon="13.1417183"><ele>197.0</ele><time>2026-04-04T12:15:09.065Z</time></trkpt><trkpt lat="46.1678149" lon="13.141826"><ele>197.0</ele><time>2026-04-04T12:15:10.065Z</time></trkpt><trkpt lat="46.1678992" lon="13.1419318"><ele>197.0</ele><time>2026-04-04T12:15:11.064Z</time></trkpt><trkpt lat="46.1679829" lon="13.1420394"><ele>197.0</ele><time>2026-04-04T12:15:12.064Z</time></trkpt><trkpt lat="46.1680738" lon="13.1421477"><ele>197.0</ele><time>2026-04-04T12:15:13.065Z</time></trkpt><trkpt lat="46.168168" lon="13.1422642"><ele>192.33333333333334</ele><time>2026-04-04T12:15:14.064Z</time></trkpt><trkpt lat="46.1682717" lon="13.1423953"><ele>187.66666666666669</ele><time>2026-04-04T12:15:15.064Z</time></trkpt><trkpt lat="46.1683866" lon="13.1425365"><ele>183.0</ele><time>2026-04-04T12:15:16.065Z</time></trkpt><trkpt lat="46.1685122" lon="13.142686"><ele>183.0</ele><time>2026-04-04T12:15:17.066Z</time></trkpt><trkpt lat="46.1686451" lon="13.1428469"><ele>183.0</ele><time>2026-04-04T12:15:18.066Z</time></trkpt><trkpt lat="46.1687832" lon="13.1430163"><ele>183.0</ele><time>2026-04-04T12:15:19.065Z</time></trkpt><trkpt lat="46.1689251" lon="13.1431916"><ele>180.66666666666666</ele><time>2026-04-04T12:15:20.065Z</time></trkpt><trkpt lat="46.1690732" lon="13.1433699"><ele>178.33333333333331</ele><time>2026-04-04T12:15:21.064Z</time></trkpt><trkpt lat="46.1692232" lon="13.1435545"><ele>176.0</ele><time>2026-04-04T12:15:22.066Z</time></trkpt><trkpt lat="46.169374" lon="13.1437417"><ele>176.0</ele><time>2026-04-04T12:15:23.065Z</time></trkpt><trkpt lat="46.1695271" lon="13.1439273"><ele>176.0</ele><time>2026-04-04T12:15:24.065Z</time></trkpt><trkpt lat="46.1696791" lon="13.1441183"><ele>176.0</ele><time>2026-04-04T12:15:25.064Z</time></trkpt><trkpt lat="46.1698325" lon="13.1443056"><ele>174.0</ele><time>2026-04-04T12:15:26.065Z</time></trkpt><trkpt lat="46.1699837" lon="13.1444854"><ele>172.0</ele><time>2026-04-04T12:15:27.064Z</time></trkpt><trkpt lat="46.1701306" lon="13.1446603"><ele>170.0</ele><time>2026-04-04T12:15:28.065Z</time></trkpt><trkpt lat="46.1702825" lon="13.1448189"><ele>170.0</ele><time>2026-04-04T12:15:29.065Z</time></trkpt><trkpt lat="46.1704485" lon="13.1449295"><ele>170.0</ele><time>2026-04-04T12:15:30.066Z</time></trkpt><trkpt lat="46.1706191" lon="13.1450013"><ele>170.0</ele><time>2026-04-04T12:15:31.064Z</time></trkpt><trkpt lat="46.1707911" lon="13.1450479"><ele>169.66666666666666</ele><time>2026-04-04T12:15:32.066Z</time></trkpt><trkpt lat="46.1709639" lon="13.1450891"><ele>169.33333333333334</ele><time>2026-04-04T12:15:33.064Z</time></trkpt><trkpt lat="46.1711367" lon="13.1451276"><ele>169.0</ele><time>2026-04-04T12:15:34.064Z</time></trkpt><trkpt lat="46.1713084" lon="13.1451635"><ele>169.0</ele><time>2026-04-04T12:15:35.064Z</time></trkpt><trkpt lat="46.1714832" lon="13.1451992"><ele>169.0</ele><time>2026-04-04T12:15:36.065Z</time></trkpt><trkpt lat="46.1716568" lon="13.1452342"><ele>169.0</ele><time>2026-04-04T12:15:37.065Z</time></trkpt><trkpt lat="46.1718227" lon="13.1452675"><ele>168.66666666666669</ele><time>2026-04-04T12:15:38.066Z</time></trkpt><trkpt lat="46.1719844" lon="13.1453007"><ele>168.33333333333334</ele><time>2026-04-04T12:15:39.066Z</time></trkpt><trkpt lat="46.1721397" lon="13.1453301"><ele>168.0</ele><time>2026-04-04T12:15:40.065Z</time></trkpt><trkpt lat="46.1722853" lon="13.1453653"><ele>168.5</ele><time>2026-04-04T12:15:41.065Z</time></trkpt><trkpt lat="46.1724217" lon="13.145422"><ele>169.0</ele><time>2026-04-04T12:15:42.065Z</time></trkpt><trkpt lat="46.1725457" lon="13.1455179"><ele>169.5</ele><time>2026-04-04T12:15:43.065Z</time></trkpt><trkpt lat="46.1726621" lon="13.1456516"><ele>170.0</ele><time>2026-04-04T12:15:44.066Z</time></trkpt><trkpt lat="46.1727767" lon="13.1458052"><ele>168.66666666666666</ele><time>2026-04-04T12:15:45.065Z</time></trkpt><trkpt lat="46.1728908" lon="13.1459618"><ele>167.33333333333334</ele><time>2026-04-04T12:15:46.066Z</time></trkpt><trkpt lat="46.1730047" lon="13.1461334"><ele>166.0</ele><time>2026-04-04T12:15:47.064Z</time></trkpt><trkpt lat="46.1731291" lon="13.1463223"><ele>166.66666666666669</ele><time>2026-04-04T12:15:48.065Z</time></trkpt><trkpt lat="46.1732461" lon="13.1465015"><ele>167.33333333333334</ele><time>2026-04-04T12:15:49.065Z</time></trkpt><trkpt lat="46.1733653" lon="13.1466803"><ele>168.0</ele><time>2026-04-04T12:15:50.064Z</time></trkpt><trkpt lat="46.1734856" lon="13.1468575"><ele>166.33333333333334</ele><time>2026-04-04T12:15:51.065Z</time></trkpt><trkpt lat="46.1736037" lon="13.1470334"><ele>164.66666666666669</ele><time>2026-04-04T12:15:52.065Z</time></trkpt><trkpt lat="46.1737209" lon="13.1472099"><ele>163.0</ele><time>2026-04-04T12:15:53.064Z</time></trkpt><trkpt lat="46.1738346" lon="13.1473789"><ele>162.66666666666669</ele><time>2026-04-04T12:15:54.064Z</time></trkpt><trkpt lat="46.1739472" lon="13.1475385"><ele>162.33333333333334</ele><time>2026-04-04T12:15:55.065Z</time></trkpt><trkpt lat="46.1740619" lon="13.147681"><ele>162.0</ele><time>2026-04-04T12:15:56.065Z</time></trkpt><trkpt lat="46.1741864" lon="13.1477965"><ele>161.33333333333334</ele><time>2026-04-04T12:15:57.065Z</time></trkpt><trkpt lat="46.1743252" lon="13.1478811"><ele>160.66666666666669</ele><time>2026-04-04T12:15:58.065Z</time></trkpt><trkpt lat="46.1744744" lon="13.1479536"><ele>160.0</ele><time>2026-04-04T12:15:59.065Z</time></trkpt><trkpt lat="46.1746324" lon="13.1480231"><ele>160.0</ele><time>2026-04-04T12:16:00.064Z</time></trkpt><trkpt lat="46.1747952" lon="13.1480871"><ele>160.0</ele><time>2026-04-04T12:16:01.065Z</time></trkpt><trkpt lat="46.174963" lon="13.1481578"><ele>160.0</ele><time>2026-04-04T12:16:02.064Z</time></trkpt><trkpt lat="46.1751248" lon="13.1482213"><ele>159.66666666666669</ele><time>2026-04-04T12:16:03.064Z</time></trkpt><trkpt lat="46.1752778" lon="13.1482898"><ele>159.33333333333334</ele><time>2026-04-04T12:16:04.066Z</time></trkpt><trkpt lat="46.1754254" lon="13.1483779"><ele>159.0</ele><time>2026-04-04T12:16:05.065Z</time></trkpt><trkpt lat="46.1755707" lon="13.1484912"><ele>159.33333333333334</ele><time>2026-04-04T12:16:06.064Z</time></trkpt><trkpt lat="46.1757115" lon="13.1486286"><ele>159.66666666666669</ele><time>2026-04-04T12:16:07.064Z</time></trkpt><trkpt lat="46.1758517" lon="13.1487899"><ele>160.0</ele><time>2026-04-04T12:16:08.064Z</time></trkpt><trkpt lat="46.1759888" lon="13.1489614"><ele>160.33333333333334</ele><time>2026-04-04T12:16:09.064Z</time></trkpt><trkpt lat="46.176129" lon="13.1491332"><ele>160.66666666666666</ele><time>2026-04-04T12:16:10.064Z</time></trkpt><trkpt lat="46.1762661" lon="13.1492963"><ele>161.0</ele><time>2026-04-04T12:16:11.064Z</time></trkpt><trkpt lat="46.1763984" lon="13.149448"><ele>160.66666666666666</ele><time>2026-04-04T12:16:12.064Z</time></trkpt><trkpt lat="46.1765231" lon="13.1495961"><ele>160.33333333333334</ele><time>2026-04-04T12:16:13.064Z</time></trkpt><trkpt lat="46.1766423" lon="13.1497442"><ele>160.0</ele><time>2026-04-04T12:16:14.066Z</time></trkpt><trkpt lat="46.1767561" lon="13.1498987"><ele>161.0</ele><time>2026-04-04T12:16:15.065Z</time></trkpt><trkpt lat="46.176866" lon="13.1500617"><ele>162.0</ele><time>2026-04-04T12:16:16.065Z</time></trkpt><trkpt lat="46.1769718" lon="13.1502284"><ele>163.0</ele><time>2026-04-04T12:16:17.064Z</time></trkpt><trkpt lat="46.1770793" lon="13.1503832"><ele>163.0</ele><time>2026-04-04T12:16:18.065Z</time></trkpt><trkpt lat="46.177192" lon="13.1505012"><ele>163.0</ele><time>2026-04-04T12:16:19.064Z</time></trkpt><trkpt lat="46.1773095" lon="13.1505716"><ele>163.0</ele><time>2026-04-04T12:16:20.066Z</time></trkpt><trkpt lat="46.177429" lon="13.1506015"><ele>163.0</ele><time>2026-04-04T12:16:21.066Z</time></trkpt><trkpt lat="46.1775553" lon="13.1505983"><ele>163.5</ele><time>2026-04-04T12:16:22.064Z</time></trkpt><trkpt lat="46.1776862" lon="13.1505722"><ele>164.0</ele><time>2026-04-04T12:16:23.065Z</time></trkpt><trkpt lat="46.1778179" lon="13.1505198"><ele>164.5</ele><time>2026-04-04T12:16:24.065Z</time></trkpt><trkpt lat="46.177948" lon="13.1504499"><ele>165.0</ele><time>2026-04-04T12:16:25.065Z</time></trkpt><trkpt lat="46.1780764" lon="13.1503708"><ele>166.0</ele><time>2026-04-04T12:16:26.064Z</time></trkpt><trkpt lat="46.1782086" lon="13.1502967"><ele>167.0</ele><time>2026-04-04T12:16:27.064Z</time></trkpt><trkpt lat="46.1783453" lon="13.1502237"><ele>168.0</ele><time>2026-04-04T12:16:28.064Z</time></trkpt><trkpt lat="46.1784809" lon="13.1501639"><ele>169.0</ele><time>2026-04-04T12:16:29.064Z</time></trkpt><trkpt lat="46.1786088" lon="13.1501134"><ele>169.0</ele><time>2026-04-04T12:16:30.065Z</time></trkpt><trkpt lat="46.1787336" lon="13.150082"><ele>169.0</ele><time>2026-04-04T12:16:31.066Z</time></trkpt><trkpt lat="46.1788596" lon="13.1500743"><ele>169.0</ele><time>2026-04-04T12:16:32.066Z</time></trkpt><trkpt lat="46.178988" lon="13.1500747"><ele>169.0</ele><time>2026-04-04T12:16:33.065Z</time></trkpt><trkpt lat="46.1791143" lon="13.1500509"><ele>170.0</ele><time>2026-04-04T12:16:34.065Z</time></trkpt><trkpt lat="46.1792253" lon="13.1500177"><ele>171.0</ele><time>2026-04-04T12:16:35.065Z</time></trkpt><trkpt lat="46.1793268" lon="13.1499816"><ele>172.0</ele><time>2026-04-04T12:16:36.064Z</time></trkpt><trkpt lat="46.1794224" lon="13.149954"><ele>173.0</ele><time>2026-04-04T12:16:37.064Z</time></trkpt><trkpt lat="46.179517" lon="13.1499461"><ele>174.0</ele><time>2026-04-04T12:16:38.064Z</time></trkpt><trkpt lat="46.1796141" lon="13.1499554"><ele>174.0</ele><time>2026-04-04T12:16:39.064Z</time></trkpt><trkpt lat="46.1797096" lon="13.1499785"><ele>174.0</ele><time>2026-04-04T12:16:40.064Z</time></trkpt><trkpt lat="46.179806" lon="13.1500156"><ele>174.0</ele><time>2026-04-04T12:16:41.064Z</time></trkpt><trkpt lat="46.1799016" lon="13.1500646"><ele>174.0</ele><time>2026-04-04T12:16:42.064Z</time></trkpt><trkpt lat="46.1800006" lon="13.1501105"><ele>174.0</ele><time>2026-04-04T12:16:43.065Z</time></trkpt><trkpt lat="46.1801014" lon="13.1501431"><ele>175.6</ele><time>2026-04-04T12:16:44.065Z</time></trkpt><trkpt lat="46.1801984" lon="13.150147"><ele>177.2</ele><time>2026-04-04T12:16:45.064Z</time></trkpt><trkpt lat="46.1802839" lon="13.1501266"><ele>178.79999999999998</ele><time>2026-04-04T12:16:46.065Z</time></trkpt><trkpt lat="46.1803513" lon="13.1500969"><ele>180.39999999999998</ele><time>2026-04-04T12:16:47.064Z</time></trkpt><trkpt lat="46.180457" lon="13.1500444"><ele>182.0</ele><time>2026-04-04T12:16:49.066Z</time></trkpt><trkpt lat="46.1805843" lon="13.150017"><ele>182.0</ele><time>2026-04-04T12:16:51.065Z</time></trkpt><trkpt lat="46.180669" lon="13.1500145"><ele>182.0</ele><time>2026-04-04T12:16:52.065Z</time></trkpt><trkpt lat="46.1807553" lon="13.150025"><ele>182.0</ele><time>2026-04-04T12:16:53.064Z</time></trkpt><trkpt lat="46.1808354" lon="13.1500499"><ele>182.0</ele><time>2026-04-04T12:16:54.064Z</time></trkpt><trkpt lat="46.180915" lon="13.1500953"><ele>182.0</ele><time>2026-04-04T12:16:55.065Z</time></trkpt><trkpt lat="46.1809861" lon="13.1501401"><ele>182.0</ele><time>2026-04-04T12:16:56.065Z</time></trkpt><trkpt lat="46.1810519" lon="13.1501921"><ele>182.16666666666666</ele><time>2026-04-04T12:16:57.064Z</time></trkpt><trkpt lat="46.1811185" lon="13.150245"><ele>182.33333333333331</ele><time>2026-04-04T12:16:58.064Z</time></trkpt><trkpt lat="46.1811894" lon="13.1502879"><ele>182.5</ele><time>2026-04-04T12:16:59.064Z</time></trkpt><trkpt lat="46.18127" lon="13.1503161"><ele>182.66666666666666</ele><time>2026-04-04T12:17:00.065Z</time></trkpt><trkpt lat="46.1813591" lon="13.150324"><ele>182.83333333333334</ele><time>2026-04-04T12:17:01.064Z</time></trkpt><trkpt lat="46.1814575" lon="13.1503249"><ele>183.0</ele><time>2026-04-04T12:17:02.065Z</time></trkpt><trkpt lat="46.1815493" lon="13.1503235"><ele>183.60000000000002</ele><time>2026-04-04T12:17:03.065Z</time></trkpt><trkpt lat="46.1816326" lon="13.1503403"><ele>184.20000000000002</ele><time>2026-04-04T12:17:04.064Z</time></trkpt><trkpt lat="46.1817175" lon="13.1503774"><ele>184.8</ele><time>2026-04-04T12:17:05.064Z</time></trkpt><trkpt lat="46.1818057" lon="13.1504404"><ele>185.4</ele><time>2026-04-04T12:17:06.065Z</time></trkpt><trkpt lat="46.1819021" lon="13.1505261"><ele>186.0</ele><time>2026-04-04T12:17:07.066Z</time></trkpt><trkpt lat="46.1820079" lon="13.1506254"><ele>185.75</ele><time>2026-04-04T12:17:08.066Z</time></trkpt><trkpt lat="46.1821087" lon="13.1507374"><ele>185.5</ele><time>2026-04-04T12:17:09.064Z</time></trkpt><trkpt lat="46.1821918" lon="13.1508599"><ele>185.25</ele><time>2026-04-04T12:17:10.065Z</time></trkpt><trkpt lat="46.1822591" lon="13.1509848"><ele>185.0</ele><time>2026-04-04T12:17:11.065Z</time></trkpt><trkpt lat="46.1823097" lon="13.1511146"><ele>184.8</ele><time>2026-04-04T12:17:12.066Z</time></trkpt><trkpt lat="46.1823509" lon="13.1512518"><ele>184.6</ele><time>2026-04-04T12:17:13.065Z</time></trkpt><trkpt lat="46.1823748" lon="13.1513987"><ele>184.39999999999998</ele><time>2026-04-04T12:17:14.064Z</time></trkpt><trkpt lat="46.1823855" lon="13.1515625"><ele>184.2</ele><time>2026-04-04T12:17:15.064Z</time></trkpt><trkpt lat="46.1823925" lon="13.1517411"><ele>184.0</ele><time>2026-04-04T12:17:16.064Z</time></trkpt><trkpt lat="46.1824007" lon="13.1519286"><ele>183.75</ele><time>2026-04-04T12:17:17.065Z</time></trkpt><trkpt lat="46.1824066" lon="13.1521126"><ele>183.5</ele><time>2026-04-04T12:17:18.065Z</time></trkpt><trkpt lat="46.1824115" lon="13.1522787"><ele>183.25</ele><time>2026-04-04T12:17:19.065Z</time></trkpt><trkpt lat="46.1824137" lon="13.1524325"><ele>183.0</ele><time>2026-04-04T12:17:20.065Z</time></trkpt><trkpt lat="46.1824137" lon="13.1525785"><ele>183.0</ele><time>2026-04-04T12:17:21.066Z</time></trkpt><trkpt lat="46.1824132" lon="13.1527302"><ele>183.0</ele><time>2026-04-04T12:17:22.065Z</time></trkpt><trkpt lat="46.182405" lon="13.1528836"><ele>183.0</ele><time>2026-04-04T12:17:23.065Z</time></trkpt><trkpt lat="46.1823948" lon="13.1530375"><ele>183.0</ele><time>2026-04-04T12:17:24.065Z</time></trkpt><trkpt lat="46.1823875" lon="13.1531815"><ele>183.0</ele><time>2026-04-04T12:17:25.065Z</time></trkpt><trkpt lat="46.1823795" lon="13.15332"><ele>183.60000000000002</ele><time>2026-04-04T12:17:26.064Z</time></trkpt><trkpt lat="46.1823704" lon="13.1534578"><ele>184.20000000000002</ele><time>2026-04-04T12:17:27.065Z</time></trkpt><trkpt lat="46.1823612" lon="13.1536031"><ele>184.8</ele><time>2026-04-04T12:17:28.065Z</time></trkpt><trkpt lat="46.1823564" lon="13.1537583"><ele>185.4</ele><time>2026-04-04T12:17:29.065Z</time></trkpt><trkpt lat="46.18236" lon="13.1539227"><ele>186.0</ele><time>2026-04-04T12:17:30.064Z</time></trkpt><trkpt lat="46.1823772" lon="13.1540869"><ele>187.5</ele><time>2026-04-04T12:17:31.065Z</time></trkpt><trkpt lat="46.1824121" lon="13.154251"><ele>189.0</ele><time>2026-04-04T12:17:32.066Z</time></trkpt><trkpt lat="46.1824621" lon="13.1544114"><ele>190.5</ele><time>2026-04-04T12:17:33.064Z</time></trkpt><trkpt lat="46.1825082" lon="13.1545639"><ele>192.0</ele><time>2026-04-04T12:17:34.064Z</time></trkpt><trkpt lat="46.182551" lon="13.1547099"><ele>192.0</ele><time>2026-04-04T12:17:35.064Z</time></trkpt><trkpt lat="46.1825965" lon="13.1548436"><ele>192.0</ele><time>2026-04-04T12:17:36.065Z</time></trkpt><trkpt lat="46.1826421" lon="13.1549819"><ele>192.0</ele><time>2026-04-04T12:17:37.064Z</time></trkpt><trkpt lat="46.1826793" lon="13.1551263"><ele>192.0</ele><time>2026-04-04T12:17:38.065Z</time></trkpt><trkpt lat="46.1827069" lon="13.1552727"><ele>192.0</ele><time>2026-04-04T12:17:39.065Z</time></trkpt><trkpt lat="46.182717" lon="13.155418"><ele>192.5</ele><time>2026-04-04T12:17:40.064Z</time></trkpt><trkpt lat="46.1827098" lon="13.1555704"><ele>193.0</ele><time>2026-04-04T12:17:41.064Z</time></trkpt><trkpt lat="46.182678" lon="13.155727"><ele>193.5</ele><time>2026-04-04T12:17:42.065Z</time></trkpt><trkpt lat="46.182628" lon="13.1558807"><ele>194.0</ele><time>2026-04-04T12:17:43.064Z</time></trkpt><trkpt lat="46.1825635" lon="13.1560422"><ele>194.0</ele><time>2026-04-04T12:17:44.065Z</time></trkpt><trkpt lat="46.1824904" lon="13.1562025"><ele>194.0</ele><time>2026-04-04T12:17:45.065Z</time></trkpt><trkpt lat="46.1824127" lon="13.1563493"><ele>194.0</ele><time>2026-04-04T12:17:46.066Z</time></trkpt><trkpt lat="46.1823346" lon="13.1564827"><ele>194.0</ele><time>2026-04-04T12:17:47.065Z</time></trkpt><trkpt lat="46.1822589" lon="13.1566048"><ele>193.6</ele><time>2026-04-04T12:17:48.065Z</time></trkpt><trkpt lat="46.1821899" lon="13.1567192"><ele>193.2</ele><time>2026-04-04T12:17:49.065Z</time></trkpt><trkpt lat="46.182127" lon="13.1568279"><ele>192.79999999999998</ele><time>2026-04-04T12:17:50.065Z</time></trkpt><trkpt lat="46.1820667" lon="13.1569298"><ele>192.39999999999998</ele><time>2026-04-04T12:17:51.065Z</time></trkpt><trkpt lat="46.1820129" lon="13.1570391"><ele>192.0</ele><time>2026-04-04T12:17:52.065Z</time></trkpt><trkpt lat="46.1819593" lon="13.1571546"><ele>192.0</ele><time>2026-04-04T12:17:53.064Z</time></trkpt><trkpt lat="46.1819115" lon="13.1572765"><ele>192.0</ele><time>2026-04-04T12:17:54.064Z</time></trkpt><trkpt lat="46.1818736" lon="13.1573955"><ele>192.0</ele><time>2026-04-04T12:17:55.064Z</time></trkpt><trkpt lat="46.1818508" lon="13.1575149"><ele>192.0</ele><time>2026-04-04T12:17:56.065Z</time></trkpt><trkpt lat="46.181847" lon="13.1576356"><ele>192.0</ele><time>2026-04-04T12:17:57.066Z</time></trkpt><trkpt lat="46.1818604" lon="13.157751"><ele>192.0</ele><time>2026-04-04T12:17:58.064Z</time></trkpt><trkpt lat="46.1818973" lon="13.1578615"><ele>191.2</ele><time>2026-04-04T12:17:59.064Z</time></trkpt><trkpt lat="46.1819533" lon="13.157962"><ele>190.39999999999998</ele><time>2026-04-04T12:18:00.064Z</time></trkpt><trkpt lat="46.1820243" lon="13.1580559"><ele>189.60000000000002</ele><time>2026-04-04T12:18:01.065Z</time></trkpt><trkpt lat="46.1821031" lon="13.1581496"><ele>188.8</ele><time>2026-04-04T12:18:02.064Z</time></trkpt><trkpt lat="46.1821878" lon="13.1582482"><ele>188.0</ele><time>2026-04-04T12:18:03.065Z</time></trkpt><trkpt lat="46.182278" lon="13.1583593"><ele>187.25</ele><time>2026-04-04T12:18:04.064Z</time></trkpt><trkpt lat="46.182364" lon="13.1584901"><ele>186.5</ele><time>2026-04-04T12:18:05.065Z</time></trkpt><trkpt lat="46.1824544" lon="13.158635"><ele>185.75</ele><time>2026-04-04T12:18:06.064Z</time></trkpt><trkpt lat="46.1825404" lon="13.1587962"><ele>185.0</ele><time>2026-04-04T12:18:07.064Z</time></trkpt><trkpt lat="46.1826228" lon="13.1589726"><ele>185.0</ele><time>2026-04-04T12:18:08.065Z</time></trkpt><trkpt lat="46.1827107" lon="13.1591553"><ele>185.0</ele><time>2026-04-04T12:18:09.066Z</time></trkpt><trkpt lat="46.1827918" lon="13.1593533"><ele>185.0</ele><time>2026-04-04T12:18:10.064Z</time></trkpt><trkpt lat="46.1828592" lon="13.1595671"><ele>185.0</ele><time>2026-04-04T12:18:11.065Z</time></trkpt><trkpt lat="46.1828979" lon="13.1597903"><ele>185.0</ele><time>2026-04-04T12:18:12.064Z</time></trkpt><trkpt lat="46.1829091" lon="13.1600177"><ele>185.0</ele><time>2026-04-04T12:18:13.065Z</time></trkpt><trkpt lat="46.1829099" lon="13.1602408"><ele>185.5</ele><time>2026-04-04T12:18:14.065Z</time></trkpt><trkpt lat="46.1829096" lon="13.1604543"><ele>186.0</ele><time>2026-04-04T12:18:15.065Z</time></trkpt><trkpt lat="46.1829069" lon="13.1606586"><ele>186.5</ele><time>2026-04-04T12:18:16.064Z</time></trkpt><trkpt lat="46.1829035" lon="13.1608574"><ele>187.0</ele><time>2026-04-04T12:18:17.064Z</time></trkpt><trkpt lat="46.1829017" lon="13.1610496"><ele>188.0</ele><time>2026-04-04T12:18:18.065Z</time></trkpt><trkpt lat="46.1829088" lon="13.1612271"><ele>189.0</ele><time>2026-04-04T12:18:19.064Z</time></trkpt><trkpt lat="46.1829302" lon="13.1614009"><ele>190.0</ele><time>2026-04-04T12:18:20.065Z</time></trkpt><trkpt lat="46.1829649" lon="13.1615715"><ele>191.0</ele><time>2026-04-04T12:18:21.064Z</time></trkpt><trkpt lat="46.1830062" lon="13.1617366"><ele>192.0</ele><time>2026-04-04T12:18:22.064Z</time></trkpt><trkpt lat="46.1830492" lon="13.1619036"><ele>193.0</ele><time>2026-04-04T12:18:23.064Z</time></trkpt><trkpt lat="46.1830884" lon="13.1620615"><ele>194.0</ele><time>2026-04-04T12:18:24.065Z</time></trkpt><trkpt lat="46.1831207" lon="13.1622229"><ele>195.0</ele><time>2026-04-04T12:18:25.065Z</time></trkpt><trkpt lat="46.1831464" lon="13.1623893"><ele>195.75</ele><time>2026-04-04T12:18:26.065Z</time></trkpt><trkpt lat="46.1831623" lon="13.1625582"><ele>196.5</ele><time>2026-04-04T12:18:27.065Z</time></trkpt><trkpt lat="46.1831706" lon="13.1627268"><ele>197.25</ele><time>2026-04-04T12:18:28.065Z</time></trkpt><trkpt lat="46.1831802" lon="13.1628941"><ele>198.0</ele><time>2026-04-04T12:18:29.065Z</time></trkpt><trkpt lat="46.183198" lon="13.1630634"><ele>200.25</ele><time>2026-04-04T12:18:30.064Z</time></trkpt><trkpt lat="46.1832244" lon="13.1632324"><ele>202.5</ele><time>2026-04-04T12:18:31.064Z</time></trkpt><trkpt lat="46.1832676" lon="13.1634"><ele>204.75</ele><time>2026-04-04T12:18:32.064Z</time></trkpt><trkpt lat="46.1833158" lon="13.1635693"><ele>207.0</ele><time>2026-04-04T12:18:33.064Z</time></trkpt><trkpt lat="46.1833646" lon="13.1637442"><ele>207.0</ele><time>2026-04-04T12:18:34.064Z</time></trkpt><trkpt lat="46.1834118" lon="13.1639176"><ele>207.0</ele><time>2026-04-04T12:18:35.065Z</time></trkpt><trkpt lat="46.1834552" lon="13.1640809"><ele>207.0</ele><time>2026-04-04T12:18:36.065Z</time></trkpt><trkpt lat="46.183488" lon="13.1642377"><ele>207.0</ele><time>2026-04-04T12:18:37.064Z</time></trkpt><trkpt lat="46.1835111" lon="13.1643924"><ele>207.0</ele><time>2026-04-04T12:18:38.065Z</time></trkpt><trkpt lat="46.1835405" lon="13.1645486"><ele>207.0</ele><time>2026-04-04T12:18:39.066Z</time></trkpt><trkpt lat="46.183579" lon="13.1647083"><ele>207.0</ele><time>2026-04-04T12:18:40.065Z</time></trkpt><trkpt lat="46.1836095" lon="13.1648739"><ele>207.0</ele><time>2026-04-04T12:18:41.064Z</time></trkpt><trkpt lat="46.1836345" lon="13.1650461"><ele>206.25</ele><time>2026-04-04T12:18:42.065Z</time></trkpt><trkpt lat="46.1836548" lon="13.1652253"><ele>205.5</ele><time>2026-04-04T12:18:43.065Z</time></trkpt><trkpt lat="46.1836764" lon="13.1654066"><ele>204.75</ele><time>2026-04-04T12:18:44.066Z</time></trkpt><trkpt lat="46.1837002" lon="13.165587"><ele>204.0</ele><time>2026-04-04T12:18:45.064Z</time></trkpt><trkpt lat="46.1837212" lon="13.1657693"><ele>202.75</ele><time>2026-04-04T12:18:46.065Z</time></trkpt><trkpt lat="46.1837396" lon="13.1659439"><ele>201.5</ele><time>2026-04-04T12:18:47.064Z</time></trkpt><trkpt lat="46.1837552" lon="13.1661198"><ele>200.25</ele><time>2026-04-04T12:18:48.064Z</time></trkpt><trkpt lat="46.1837714" lon="13.1662916"><ele>199.0</ele><time>2026-04-04T12:18:49.064Z</time></trkpt><trkpt lat="46.1837823" lon="13.1664383"><ele>197.83333333333331</ele><time>2026-04-04T12:18:50.065Z</time></trkpt><trkpt lat="46.1837917" lon="13.1665571"><ele>196.66666666666666</ele><time>2026-04-04T12:18:51.065Z</time></trkpt><trkpt lat="46.1837979" lon="13.1666634"><ele>195.5</ele><time>2026-04-04T12:18:52.064Z</time></trkpt><trkpt lat="46.1837974" lon="13.1667589"><ele>194.33333333333331</ele><time>2026-04-04T12:18:53.065Z</time></trkpt><trkpt lat="46.1837998" lon="13.1669192"><ele>193.16666666666666</ele><time>2026-04-04T12:18:55.064Z</time></trkpt><trkpt lat="46.1837933" lon="13.1670498"><ele>192.0</ele><time>2026-04-04T12:18:57.065Z</time></trkpt><trkpt lat="46.1837776" lon="13.1672511"><ele>191.0</ele><time>2026-04-04T12:18:59.065Z</time></trkpt><trkpt lat="46.1837697" lon="13.167405"><ele>190.0</ele><time>2026-04-04T12:19:00.065Z</time></trkpt><trkpt lat="46.1837603" lon="13.1675844"><ele>189.0</ele><time>2026-04-04T12:19:01.065Z</time></trkpt><trkpt lat="46.1837494" lon="13.1677892"><ele>188.0</ele><time>2026-04-04T12:19:02.064Z</time></trkpt><trkpt lat="46.1837346" lon="13.1680238"><ele>188.0</ele><time>2026-04-04T12:19:03.064Z</time></trkpt><trkpt lat="46.1837119" lon="13.1682918"><ele>188.0</ele><time>2026-04-04T12:19:04.065Z</time></trkpt><trkpt lat="46.1836917" lon="13.1685905"><ele>188.0</ele><time>2026-04-04T12:19:05.066Z</time></trkpt><trkpt lat="46.1836781" lon="13.168914"><ele>188.0</ele><time>2026-04-04T12:19:06.065Z</time></trkpt><trkpt lat="46.1836813" lon="13.1692571"><ele>188.0</ele><time>2026-04-04T12:19:07.064Z</time></trkpt><trkpt lat="46.1837054" lon="13.1696111"><ele>190.0</ele><time>2026-04-04T12:19:08.064Z</time></trkpt><trkpt lat="46.1837474" lon="13.1699609"><ele>192.0</ele><time>2026-04-04T12:19:09.064Z</time></trkpt><trkpt lat="46.1837846" lon="13.1703035"><ele>192.0</ele><time>2026-04-04T12:19:10.066Z</time></trkpt><trkpt lat="46.1838032" lon="13.1706243"><ele>192.0</ele><time>2026-04-04T12:19:11.064Z</time></trkpt><trkpt lat="46.183808" lon="13.1709258"><ele>192.0</ele><time>2026-04-04T12:19:12.064Z</time></trkpt><trkpt lat="46.1837947" lon="13.1712134"><ele>192.0</ele><time>2026-04-04T12:19:13.065Z</time></trkpt><trkpt lat="46.1837679" lon="13.1714986"><ele>192.0</ele><time>2026-04-04T12:19:14.064Z</time></trkpt><trkpt lat="46.1837373" lon="13.1717848"><ele>192.0</ele><time>2026-04-04T12:19:15.064Z</time></trkpt><trkpt lat="46.1837027" lon="13.1720728"><ele>191.66666666666666</ele><time>2026-04-04T12:19:16.064Z</time></trkpt><trkpt lat="46.1836691" lon="13.1723621"><ele>191.33333333333331</ele><time>2026-04-04T12:19:17.065Z</time></trkpt><trkpt lat="46.1836374" lon="13.1726368"><ele>191.0</ele><time>2026-04-04T12:19:18.065Z</time></trkpt><trkpt lat="46.1836075" lon="13.1728987"><ele>191.0</ele><time>2026-04-04T12:19:19.065Z</time></trkpt><trkpt lat="46.1835791" lon="13.1731489"><ele>191.0</ele><time>2026-04-04T12:19:20.064Z</time></trkpt><trkpt lat="46.1835509" lon="13.1733919"><ele>191.0</ele><time>2026-04-04T12:19:21.065Z</time></trkpt><trkpt lat="46.1835236" lon="13.1736318"><ele>190.66666666666666</ele><time>2026-04-04T12:19:22.064Z</time></trkpt><trkpt lat="46.1834967" lon="13.1738711"><ele>190.33333333333334</ele><time>2026-04-04T12:19:23.064Z</time></trkpt><trkpt lat="46.1834673" lon="13.1741086"><ele>190.0</ele><time>2026-04-04T12:19:24.065Z</time></trkpt><trkpt lat="46.1834341" lon="13.1743428"><ele>190.0</ele><time>2026-04-04T12:19:25.065Z</time></trkpt><trkpt lat="46.183394" lon="13.1745663"><ele>190.0</ele><time>2026-04-04T12:19:26.065Z</time></trkpt><trkpt lat="46.1833453" lon="13.1747735"><ele>190.0</ele><time>2026-04-04T12:19:27.066Z</time></trkpt><trkpt lat="46.1832888" lon="13.174964"><ele>189.8</ele><time>2026-04-04T12:19:28.064Z</time></trkpt><trkpt lat="46.183232" lon="13.1751289"><ele>189.6</ele><time>2026-04-04T12:19:29.064Z</time></trkpt><trkpt lat="46.1831739" lon="13.1752818"><ele>189.39999999999998</ele><time>2026-04-04T12:19:30.064Z</time></trkpt><trkpt lat="46.1831172" lon="13.1754115"><ele>189.2</ele><time>2026-04-04T12:19:31.066Z</time></trkpt><trkpt lat="46.1830659" lon="13.1755208"><ele>189.0</ele><time>2026-04-04T12:19:32.065Z</time></trkpt><trkpt lat="46.1830203" lon="13.1756104"><ele>189.0</ele><time>2026-04-04T12:19:33.064Z</time></trkpt><trkpt lat="46.1829878" lon="13.1756913"><ele>189.0</ele><time>2026-04-04T12:19:34.065Z</time></trkpt><trkpt lat="46.1829868" lon="13.1758661"><ele>189.0</ele><time>2026-04-04T12:19:36.064Z</time></trkpt><trkpt lat="46.1830166" lon="13.1759542"><ele>189.0</ele><time>2026-04-04T12:19:37.064Z</time></trkpt><trkpt lat="46.1830598" lon="13.1760505"><ele>189.0</ele><time>2026-04-04T12:19:38.064Z</time></trkpt><trkpt lat="46.1831154" lon="13.1761628"><ele>189.0</ele><time>2026-04-04T12:19:39.065Z</time></trkpt><trkpt lat="46.1831755" lon="13.1762918"><ele>189.5</ele><time>2026-04-04T12:19:40.064Z</time></trkpt><trkpt lat="46.1832428" lon="13.1764318"><ele>190.0</ele><time>2026-04-04T12:19:41.065Z</time></trkpt><trkpt lat="46.1833071" lon="13.1765786"><ele>190.5</ele><time>2026-04-04T12:19:42.065Z</time></trkpt><trkpt lat="46.1833589" lon="13.176736"><ele>191.0</ele><time>2026-04-04T12:19:43.064Z</time></trkpt><trkpt lat="46.1833878" lon="13.1769093"><ele>191.5</ele><time>2026-04-04T12:19:44.064Z</time></trkpt><trkpt lat="46.1833873" lon="13.1770908"><ele>192.0</ele><time>2026-04-04T12:19:45.064Z</time></trkpt><trkpt lat="46.1833572" lon="13.1772734"><ele>192.5</ele><time>2026-04-04T12:19:46.065Z</time></trkpt><trkpt lat="46.1832936" lon="13.1774405"><ele>193.0</ele><time>2026-04-04T12:19:47.066Z</time></trkpt><trkpt lat="46.1832083" lon="13.1776028"><ele>192.5</ele><time>2026-04-04T12:19:48.064Z</time></trkpt><trkpt lat="46.1831157" lon="13.177769"><ele>192.0</ele><time>2026-04-04T12:19:49.065Z</time></trkpt><trkpt lat="46.1830219" lon="13.1779402"><ele>191.5</ele><time>2026-04-04T12:19:50.065Z</time></trkpt><trkpt lat="46.1829416" lon="13.1781094"><ele>191.0</ele><time>2026-04-04T12:19:51.065Z</time></trkpt><trkpt lat="46.1828782" lon="13.1782744"><ele>192.0</ele><time>2026-04-04T12:19:52.064Z</time></trkpt><trkpt lat="46.1828279" lon="13.1784392"><ele>193.0</ele><time>2026-04-04T12:19:53.066Z</time></trkpt><trkpt lat="46.1827937" lon="13.1786074"><ele>194.0</ele><time>2026-04-04T12:19:54.066Z</time></trkpt><trkpt lat="46.1827694" lon="13.1787806"><ele>195.0</ele><time>2026-04-04T12:19:55.066Z</time></trkpt><trkpt lat="46.1827587" lon="13.178961"><ele>196.25</ele><time>2026-04-04T12:19:56.065Z</time></trkpt><trkpt lat="46.182761" lon="13.1791463"><ele>197.5</ele><time>2026-04-04T12:19:57.065Z</time></trkpt><trkpt lat="46.18278" lon="13.179334"><ele>198.75</ele><time>2026-04-04T12:19:58.064Z</time></trkpt><trkpt lat="46.1828185" lon="13.1795208"><ele>200.0</ele><time>2026-04-04T12:19:59.066Z</time></trkpt><trkpt lat="46.1828708" lon="13.1797031"><ele>200.75</ele><time>2026-04-04T12:20:00.065Z</time></trkpt><trkpt lat="46.1829283" lon="13.1798759"><ele>201.5</ele><time>2026-04-04T12:20:01.064Z</time></trkpt><trkpt lat="46.1829837" lon="13.1800361"><ele>202.25</ele><time>2026-04-04T12:20:02.065Z</time></trkpt><trkpt lat="46.183025" lon="13.1801816"><ele>203.0</ele><time>2026-04-04T12:20:03.064Z</time></trkpt><trkpt lat="46.1830608" lon="13.1803115"><ele>203.0</ele><time>2026-04-04T12:20:04.065Z</time></trkpt><trkpt lat="46.183089" lon="13.1804416"><ele>203.0</ele><time>2026-04-04T12:20:05.065Z</time></trkpt><trkpt lat="46.1831091" lon="13.1805737"><ele>203.0</ele><time>2026-04-04T12:20:06.065Z</time></trkpt><trkpt lat="46.1831177" lon="13.1806978"><ele>203.0</ele><time>2026-04-04T12:20:07.065Z</time></trkpt><trkpt lat="46.1831128" lon="13.1808414"><ele>203.0</ele><time>2026-04-04T12:20:09.065Z</time></trkpt><trkpt lat="46.183096" lon="13.1809503"><ele>204.0</ele><time>2026-04-04T12:20:13.064Z</time></trkpt><trkpt lat="46.1831225" lon="13.181058"><ele>205.0</ele><time>2026-04-04T12:20:16.065Z</time></trkpt><trkpt lat="46.1832428" lon="13.1811499"><ele>206.0</ele><time>2026-04-04T12:20:18.065Z</time></trkpt><trkpt lat="46.1833129" lon="13.1812312"><ele>207.0</ele><time>2026-04-04T12:20:19.065Z</time></trkpt><trkpt lat="46.1833873" lon="13.1813373"><ele>208.0</ele><time>2026-04-04T12:20:20.064Z</time></trkpt><trkpt lat="46.1834601" lon="13.1814592"><ele>209.5</ele><time>2026-04-04T12:20:21.065Z</time></trkpt><trkpt lat="46.1835295" lon="13.1815825"><ele>211.0</ele><time>2026-04-04T12:20:22.065Z</time></trkpt><trkpt lat="46.1836052" lon="13.1817023"><ele>212.5</ele><time>2026-04-04T12:20:23.065Z</time></trkpt><trkpt lat="46.1836977" lon="13.1818149"><ele>214.0</ele><time>2026-04-04T12:20:24.064Z</time></trkpt><trkpt lat="46.1838081" lon="13.1819162"><ele>214.0</ele><time>2026-04-04T12:20:25.065Z</time></trkpt><trkpt lat="46.1839317" lon="13.1820025"><ele>214.0</ele><time>2026-04-04T12:20:26.064Z</time></trkpt><trkpt lat="46.1840584" lon="13.1820874"><ele>214.0</ele><time>2026-04-04T12:20:27.065Z</time></trkpt><trkpt lat="46.1841805" lon="13.1821736"><ele>214.0</ele><time>2026-04-04T12:20:28.065Z</time></trkpt><trkpt lat="46.1843048" lon="13.1822591"><ele>214.0</ele><time>2026-04-04T12:20:29.065Z</time></trkpt><trkpt lat="46.1844244" lon="13.1823443"><ele>214.0</ele><time>2026-04-04T12:20:30.065Z</time></trkpt><trkpt lat="46.184544" lon="13.1824306"><ele>214.0</ele><time>2026-04-04T12:20:31.065Z</time></trkpt><trkpt lat="46.1846622" lon="13.1825257"><ele>214.0</ele><time>2026-04-04T12:20:32.066Z</time></trkpt><trkpt lat="46.1847754" lon="13.1826381"><ele>214.75</ele><time>2026-04-04T12:20:33.064Z</time></trkpt><trkpt lat="46.1848843" lon="13.1827732"><ele>215.5</ele><time>2026-04-04T12:20:34.065Z</time></trkpt><trkpt lat="46.1849881" lon="13.1829173"><ele>216.25</ele><time>2026-04-04T12:20:35.065Z</time></trkpt><trkpt lat="46.1850828" lon="13.1830575"><ele>217.0</ele><time>2026-04-04T12:20:36.065Z</time></trkpt><trkpt lat="46.1851672" lon="13.1831861"><ele>217.49999999999997</ele><time>2026-04-04T12:20:37.064Z</time></trkpt><trkpt lat="46.1852392" lon="13.1833003"><ele>218.0</ele><time>2026-04-04T12:20:38.064Z</time></trkpt><trkpt lat="46.1852998" lon="13.1833933"><ele>218.5</ele><time>2026-04-04T12:20:39.064Z</time></trkpt><trkpt lat="46.1853515" lon="13.1834698"><ele>219.0</ele><time>2026-04-04T12:20:40.065Z</time></trkpt><trkpt lat="46.1853962" lon="13.1835404"><ele>219.49999999999997</ele><time>2026-04-04T12:20:41.065Z</time></trkpt><trkpt lat="46.1854688" lon="13.1836498"><ele>220.0</ele><time>2026-04-04T12:20:43.065Z</time></trkpt><trkpt lat="46.1855478" lon="13.183742"><ele>219.99999999999997</ele><time>2026-04-04T12:20:45.065Z</time></trkpt><trkpt lat="46.1856421" lon="13.1838141"><ele>220.0</ele><time>2026-04-04T12:20:47.065Z</time></trkpt><trkpt lat="46.1857045" lon="13.1838342"><ele>220.0</ele><time>2026-04-04T12:20:48.066Z</time></trkpt><trkpt lat="46.1857808" lon="13.1838612"><ele>220.0</ele><time>2026-04-04T12:20:49.066Z</time></trkpt><trkpt lat="46.1858463" lon="13.1838913"><ele>219.99999999999997</ele><time>2026-04-04T12:20:50.064Z</time></trkpt><trkpt lat="46.1859093" lon="13.1839153"><ele>220.0</ele><time>2026-04-04T12:20:51.065Z</time></trkpt><trkpt lat="46.186023" lon="13.1839602"><ele>220.8</ele><time>2026-04-04T12:20:53.066Z</time></trkpt><trkpt lat="46.186148" lon="13.1840003"><ele>221.6</ele><time>2026-04-04T12:20:55.064Z</time></trkpt><trkpt lat="46.1862112" lon="13.1840215"><ele>222.39999999999998</ele><time>2026-04-04T12:20:56.065Z</time></trkpt><trkpt lat="46.1863177" lon="13.184057"><ele>223.2</ele><time>2026-04-04T12:20:58.066Z</time></trkpt><trkpt lat="46.1864079" lon="13.1840799"><ele>224.0</ele><time>2026-04-04T12:21:00.065Z</time></trkpt><trkpt lat="46.1864979" lon="13.1840983"><ele>224.66666666666669</ele><time>2026-04-04T12:21:02.066Z</time></trkpt><trkpt lat="46.1866077" lon="13.1841129"><ele>225.33333333333334</ele><time>2026-04-04T12:21:04.066Z</time></trkpt><trkpt lat="46.1867235" lon="13.1841054"><ele>226.0</ele><time>2026-04-04T12:21:06.066Z</time></trkpt><trkpt lat="46.1867915" lon="13.1840893"><ele>226.66666666666669</ele><time>2026-04-04T12:21:07.065Z</time></trkpt><trkpt lat="46.1868644" lon="13.1840818"><ele>227.33333333333334</ele><time>2026-04-04T12:21:08.064Z</time></trkpt><trkpt lat="46.1869306" lon="13.1840803"><ele>228.0</ele><time>2026-04-04T12:21:09.066Z</time></trkpt><trkpt lat="46.1869937" lon="13.1840837"><ele>228.0</ele><time>2026-04-04T12:21:10.064Z</time></trkpt><trkpt lat="46.187121" lon="13.1840955"><ele>228.0</ele><time>2026-04-04T12:21:12.065Z</time></trkpt><trkpt lat="46.1871965" lon="13.1840941"><ele>228.0</ele><time>2026-04-04T12:21:13.066Z</time></trkpt><trkpt lat="46.1872754" lon="13.1840908"><ele>228.0</ele><time>2026-04-04T12:21:14.066Z</time></trkpt><trkpt lat="46.1873586" lon="13.1840883"><ele>228.0</ele><time>2026-04-04T12:21:15.065Z</time></trkpt><trkpt lat="46.1874419" lon="13.1840808"><ele>228.0</ele><time>2026-04-04T12:21:16.064Z</time></trkpt><trkpt lat="46.1875192" lon="13.1840763"><ele>227.16666666666666</ele><time>2026-04-04T12:21:17.065Z</time></trkpt><trkpt lat="46.1875916" lon="13.1840753"><ele>226.33333333333331</ele><time>2026-04-04T12:21:18.065Z</time></trkpt><trkpt lat="46.1876634" lon="13.1840805"><ele>225.5</ele><time>2026-04-04T12:21:19.064Z</time></trkpt><trkpt lat="46.1877326" lon="13.184088"><ele>224.66666666666666</ele><time>2026-04-04T12:21:20.066Z</time></trkpt><trkpt lat="46.1878031" lon="13.184101"><ele>223.83333333333331</ele><time>2026-04-04T12:21:21.065Z</time></trkpt><trkpt lat="46.1878851" lon="13.1841201"><ele>223.0</ele><time>2026-04-04T12:21:22.065Z</time></trkpt><trkpt lat="46.187975" lon="13.1841422"><ele>223.0</ele><time>2026-04-04T12:21:23.065Z</time></trkpt><trkpt lat="46.1880716" lon="13.1841723"><ele>223.0</ele><time>2026-04-04T12:21:24.064Z</time></trkpt><trkpt lat="46.1881718" lon="13.1842034"><ele>223.0</ele><time>2026-04-04T12:21:25.065Z</time></trkpt><trkpt lat="46.188272" lon="13.184233"><ele>223.0</ele><time>2026-04-04T12:21:26.066Z</time></trkpt><trkpt lat="46.188371" lon="13.1842653"><ele>223.0</ele><time>2026-04-04T12:21:27.065Z</time></trkpt><trkpt lat="46.1884659" lon="13.1843081"><ele>222.2</ele><time>2026-04-04T12:21:28.064Z</time></trkpt><trkpt lat="46.1885567" lon="13.184366"><ele>221.4</ele><time>2026-04-04T12:21:29.065Z</time></trkpt><trkpt lat="46.1886399" lon="13.1844448"><ele>220.59999999999997</ele><time>2026-04-04T12:21:30.064Z</time></trkpt><trkpt lat="46.1887108" lon="13.1845422"><ele>219.79999999999998</ele><time>2026-04-04T12:21:31.065Z</time></trkpt><trkpt lat="46.1887694" lon="13.1846446"><ele>219.0</ele><time>2026-04-04T12:21:32.066Z</time></trkpt><trkpt lat="46.1888283" lon="13.1847526"><ele>218.66666666666666</ele><time>2026-04-04T12:21:33.065Z</time></trkpt><trkpt lat="46.1888824" lon="13.1848596"><ele>218.33333333333331</ele><time>2026-04-04T12:21:34.065Z</time></trkpt><trkpt lat="46.188937" lon="13.1849714"><ele>218.0</ele><time>2026-04-04T12:21:35.065Z</time></trkpt><trkpt lat="46.1889903" lon="13.1850811"><ele>217.66666666666666</ele><time>2026-04-04T12:21:36.064Z</time></trkpt><trkpt lat="46.1890408" lon="13.1851795"><ele>217.33333333333331</ele><time>2026-04-04T12:21:37.064Z</time></trkpt><trkpt lat="46.1890921" lon="13.1852716"><ele>217.0</ele><time>2026-04-04T12:21:38.066Z</time></trkpt><trkpt lat="46.1891575" lon="13.1853528"><ele>216.75</ele><time>2026-04-04T12:21:39.066Z</time></trkpt><trkpt lat="46.1892707" lon="13.1854219"><ele>216.5</ele><time>2026-04-04T12:21:40.066Z</time></trkpt><trkpt lat="46.1894055" lon="13.185509"><ele>216.25</ele><time>2026-04-04T12:21:41.064Z</time></trkpt><trkpt lat="46.1895442" lon="13.1856143"><ele>216.0</ele><time>2026-04-04T12:21:42.065Z</time></trkpt><trkpt lat="46.189688" lon="13.1857391"><ele>216.66666666666669</ele><time>2026-04-04T12:21:43.066Z</time></trkpt><trkpt lat="46.1898365" lon="13.1858782"><ele>217.33333333333334</ele><time>2026-04-04T12:21:44.065Z</time></trkpt><trkpt lat="46.1899866" lon="13.1860358"><ele>218.0</ele><time>2026-04-04T12:21:45.066Z</time></trkpt><trkpt lat="46.190135" lon="13.1862139"><ele>215.0</ele><time>2026-04-04T12:21:46.066Z</time></trkpt><trkpt lat="46.1902821" lon="13.1864052"><ele>212.0</ele><time>2026-04-04T12:21:47.065Z</time></trkpt><trkpt lat="46.1904223" lon="13.1865978"><ele>209.0</ele><time>2026-04-04T12:21:48.065Z</time></trkpt><trkpt lat="46.1905586" lon="13.1867865"><ele>205.66666666666669</ele><time>2026-04-04T12:21:49.065Z</time></trkpt><trkpt lat="46.190692" lon="13.1869699"><ele>202.33333333333331</ele><time>2026-04-04T12:21:50.065Z</time></trkpt><trkpt lat="46.1908232" lon="13.1871437"><ele>199.0</ele><time>2026-04-04T12:21:51.064Z</time></trkpt><trkpt lat="46.1909425" lon="13.1872926"><ele>198.75</ele><time>2026-04-04T12:21:52.064Z</time></trkpt><trkpt lat="46.1910553" lon="13.187424"><ele>198.5</ele><time>2026-04-04T12:21:53.064Z</time></trkpt><trkpt lat="46.1911564" lon="13.1875335"><ele>198.25</ele><time>2026-04-04T12:21:54.064Z</time></trkpt><trkpt lat="46.1912397" lon="13.1876134"><ele>198.0</ele><time>2026-04-04T12:21:55.065Z</time></trkpt><trkpt lat="46.1913132" lon="13.1876785"><ele>198.0</ele><time>2026-04-04T12:21:56.065Z</time></trkpt><trkpt lat="46.1913682" lon="13.1877262"><ele>198.0</ele><time>2026-04-04T12:21:57.066Z</time></trkpt><trkpt lat="46.1914656" lon="13.1878297"><ele>198.0</ele><time>2026-04-04T12:21:59.064Z</time></trkpt><trkpt lat="46.1915128" lon="13.187917"><ele>198.0</ele><time>2026-04-04T12:22:00.065Z</time></trkpt><trkpt lat="46.1915502" lon="13.1880433"><ele>198.0</ele><time>2026-04-04T12:22:01.065Z</time></trkpt><trkpt lat="46.1915758" lon="13.1882015"><ele>195.25</ele><time>2026-04-04T12:22:02.065Z</time></trkpt><trkpt lat="46.1915949" lon="13.188391"><ele>192.5</ele><time>2026-04-04T12:22:03.066Z</time></trkpt><trkpt lat="46.191611" lon="13.1886032"><ele>189.75</ele><time>2026-04-04T12:22:04.064Z</time></trkpt><trkpt lat="46.1916253" lon="13.1888298"><ele>187.0</ele><time>2026-04-04T12:22:05.065Z</time></trkpt><trkpt lat="46.1916368" lon="13.1890625"><ele>187.0</ele><time>2026-04-04T12:22:06.065Z</time></trkpt><trkpt lat="46.1916461" lon="13.1893047"><ele>187.0</ele><time>2026-04-04T12:22:07.065Z</time></trkpt><trkpt lat="46.1916545" lon="13.1895474"><ele>187.0</ele><time>2026-04-04T12:22:08.064Z</time></trkpt><trkpt lat="46.1916641" lon="13.1897949"><ele>186.33333333333334</ele><time>2026-04-04T12:22:09.065Z</time></trkpt><trkpt lat="46.1916788" lon="13.1900444"><ele>185.66666666666666</ele><time>2026-04-04T12:22:10.064Z</time></trkpt><trkpt lat="46.1917099" lon="13.1902897"><ele>185.0</ele><time>2026-04-04T12:22:11.065Z</time></trkpt><trkpt lat="46.1917542" lon="13.190531"><ele>185.0</ele><time>2026-04-04T12:22:12.065Z</time></trkpt><trkpt lat="46.1918016" lon="13.1907724"><ele>185.0</ele><time>2026-04-04T12:22:13.064Z</time></trkpt><trkpt lat="46.1918468" lon="13.1910132"><ele>185.0</ele><time>2026-04-04T12:22:14.064Z</time></trkpt><trkpt lat="46.1919027" lon="13.1912516"><ele>185.0</ele><time>2026-04-04T12:22:15.065Z</time></trkpt><trkpt lat="46.1919571" lon="13.1914857"><ele>185.0</ele><time>2026-04-04T12:22:16.065Z</time></trkpt><trkpt lat="46.1920196" lon="13.1917133"><ele>185.0</ele><time>2026-04-04T12:22:17.065Z</time></trkpt><trkpt lat="46.192091" lon="13.1919309"><ele>185.5</ele><time>2026-04-04T12:22:18.065Z</time></trkpt><trkpt lat="46.1921623" lon="13.1921319"><ele>186.0</ele><time>2026-04-04T12:22:19.064Z</time></trkpt><trkpt lat="46.1922322" lon="13.1923109"><ele>186.5</ele><time>2026-04-04T12:22:20.066Z</time></trkpt><trkpt lat="46.1922984" lon="13.192477"><ele>187.0</ele><time>2026-04-04T12:22:21.065Z</time></trkpt><trkpt lat="46.1923639" lon="13.1926321"><ele>187.25</ele><time>2026-04-04T12:22:22.066Z</time></trkpt><trkpt lat="46.1924289" lon="13.1927852"><ele>187.5</ele><time>2026-04-04T12:22:23.064Z</time></trkpt><trkpt lat="46.1924951" lon="13.1929407"><ele>187.75</ele><time>2026-04-04T12:22:24.065Z</time></trkpt><trkpt lat="46.1925584" lon="13.193094"><ele>188.0</ele><time>2026-04-04T12:22:25.064Z</time></trkpt><trkpt lat="46.1926201" lon="13.1932382"><ele>188.75</ele><time>2026-04-04T12:22:26.064Z</time></trkpt><trkpt lat="46.1926794" lon="13.1933797"><ele>189.5</ele><time>2026-04-04T12:22:27.064Z</time></trkpt><trkpt lat="46.19274" lon="13.1935184"><ele>190.25</ele><time>2026-04-04T12:22:28.065Z</time></trkpt><trkpt lat="46.1928077" lon="13.1936575"><ele>191.0</ele><time>2026-04-04T12:22:29.065Z</time></trkpt><trkpt lat="46.1928677" lon="13.1938005"><ele>191.0</ele><time>2026-04-04T12:22:30.065Z</time></trkpt><trkpt lat="46.1929214" lon="13.1939287"><ele>191.0</ele><time>2026-04-04T12:22:31.065Z</time></trkpt><trkpt lat="46.1929707" lon="13.1940421"><ele>191.0</ele><time>2026-04-04T12:22:32.064Z</time></trkpt><trkpt lat="46.1930112" lon="13.1941396"><ele>191.0</ele><time>2026-04-04T12:22:33.064Z</time></trkpt><trkpt lat="46.1930449" lon="13.1942175"><ele>191.0</ele><time>2026-04-04T12:22:34.066Z</time></trkpt><trkpt lat="46.1930982" lon="13.1943534"><ele>191.0</ele><time>2026-04-04T12:22:36.065Z</time></trkpt><trkpt lat="46.1931475" lon="13.1944714"><ele>191.0</ele><time>2026-04-04T12:22:38.064Z</time></trkpt><trkpt lat="46.1931718" lon="13.194558"><ele>191.0</ele><time>2026-04-04T12:22:40.065Z</time></trkpt><trkpt lat="46.1931763" lon="13.1946611"><ele>191.0</ele><time>2026-04-04T12:22:42.064Z</time></trkpt><trkpt lat="46.1931831" lon="13.1948236"><ele>191.0</ele><time>2026-04-04T12:22:44.066Z</time></trkpt><trkpt lat="46.1932669" lon="13.1949216"><ele>191.0</ele><time>2026-04-04T12:22:46.066Z</time></trkpt><trkpt lat="46.1933808" lon="13.194869"><ele>191.33333333333331</ele><time>2026-04-04T12:22:48.064Z</time></trkpt><trkpt lat="46.1934918" lon="13.1948626"><ele>191.66666666666666</ele><time>2026-04-04T12:22:50.066Z</time></trkpt><trkpt lat="46.1935398" lon="13.1949229"><ele>192.0</ele><time>2026-04-04T12:22:51.065Z</time></trkpt><trkpt lat="46.1935816" lon="13.1950148"><ele>192.33333333333331</ele><time>2026-04-04T12:22:52.064Z</time></trkpt><trkpt lat="46.1936138" lon="13.1951227"><ele>192.66666666666666</ele><time>2026-04-04T12:22:53.064Z</time></trkpt><trkpt lat="46.1936423" lon="13.1952154"><ele>193.0</ele><time>2026-04-04T12:22:54.065Z</time></trkpt><trkpt lat="46.1936656" lon="13.1953164"><ele>192.99999999999997</ele><time>2026-04-04T12:22:55.064Z</time></trkpt><trkpt lat="46.1936943" lon="13.1954252"><ele>193.0</ele><time>2026-04-04T12:22:56.065Z</time></trkpt><trkpt lat="46.1937267" lon="13.1955311"><ele>193.0</ele><time>2026-04-04T12:22:57.065Z</time></trkpt><trkpt lat="46.1937573" lon="13.1956487"><ele>193.0</ele><time>2026-04-04T12:22:58.065Z</time></trkpt><trkpt lat="46.1937895" lon="13.1957725"><ele>192.99999999999997</ele><time>2026-04-04T12:22:59.065Z</time></trkpt><trkpt lat="46.1938224" lon="13.1958956"><ele>193.0</ele><time>2026-04-04T12:23:00.065Z</time></trkpt><trkpt lat="46.1938444" lon="13.1960209"><ele>193.0</ele><time>2026-04-04T12:23:01.066Z</time></trkpt><trkpt lat="46.1938484" lon="13.1961609"><ele>193.0</ele><time>2026-04-04T12:23:02.066Z</time></trkpt><trkpt lat="46.1938397" lon="13.1963077"><ele>193.0</ele><time>2026-04-04T12:23:03.066Z</time></trkpt><trkpt lat="46.1938286" lon="13.1964645"><ele>193.0</ele><time>2026-04-04T12:23:04.065Z</time></trkpt><trkpt lat="46.1938161" lon="13.1966285"><ele>193.0</ele><time>2026-04-04T12:23:05.066Z</time></trkpt><trkpt lat="46.1938043" lon="13.1967978"><ele>193.0</ele><time>2026-04-04T12:23:06.065Z</time></trkpt><trkpt lat="46.1937967" lon="13.1969594"><ele>193.0</ele><time>2026-04-04T12:23:07.065Z</time></trkpt><trkpt lat="46.1937998" lon="13.1971191"><ele>193.0</ele><time>2026-04-04T12:23:08.065Z</time></trkpt><trkpt lat="46.1938217" lon="13.1972859"><ele>193.0</ele><time>2026-04-04T12:23:09.064Z</time></trkpt><trkpt lat="46.1938653" lon="13.1974552"><ele>192.25</ele><time>2026-04-04T12:23:10.066Z</time></trkpt><trkpt lat="46.1939197" lon="13.1976255"><ele>191.5</ele><time>2026-04-04T12:23:11.065Z</time></trkpt><trkpt lat="46.1939828" lon="13.1977957"><ele>190.75</ele><time>2026-04-04T12:23:12.065Z</time></trkpt><trkpt lat="46.1940508" lon="13.1979715"><ele>190.0</ele><time>2026-04-04T12:23:13.064Z</time></trkpt><trkpt lat="46.1941222" lon="13.1981522"><ele>189.75</ele><time>2026-04-04T12:23:14.065Z</time></trkpt><trkpt lat="46.1941907" lon="13.1983235"><ele>189.5</ele><time>2026-04-04T12:23:15.065Z</time></trkpt><trkpt lat="46.1942523" lon="13.1984805"><ele>189.25</ele><time>2026-04-04T12:23:16.065Z</time></trkpt><trkpt lat="46.194308" lon="13.1986137"><ele>189.0</ele><time>2026-04-04T12:23:17.064Z</time></trkpt><trkpt lat="46.1943553" lon="13.1987225"><ele>189.0</ele><time>2026-04-04T12:23:18.065Z</time></trkpt><trkpt lat="46.1943972" lon="13.1988091"><ele>189.0</ele><time>2026-04-04T12:23:19.064Z</time></trkpt><trkpt lat="46.1944433" lon="13.1988769"><ele>189.0</ele><time>2026-04-04T12:23:20.066Z</time></trkpt><trkpt lat="46.1945563" lon="13.1989571"><ele>189.0</ele><time>2026-04-04T12:23:22.065Z</time></trkpt><trkpt lat="46.1946453" lon="13.1989835"><ele>189.0</ele><time>2026-04-04T12:23:23.065Z</time></trkpt><trkpt lat="46.1947547" lon="13.1990061"><ele>190.33333333333331</ele><time>2026-04-04T12:23:24.065Z</time></trkpt><trkpt lat="46.1948876" lon="13.1990267"><ele>191.66666666666666</ele><time>2026-04-04T12:23:25.065Z</time></trkpt><trkpt lat="46.1950396" lon="13.1990411"><ele>193.0</ele><time>2026-04-04T12:23:26.064Z</time></trkpt><trkpt lat="46.1952047" lon="13.1990514"><ele>193.0</ele><time>2026-04-04T12:23:27.065Z</time></trkpt><trkpt lat="46.1953784" lon="13.199065"><ele>193.0</ele><time>2026-04-04T12:23:28.064Z</time></trkpt><trkpt lat="46.1955557" lon="13.1990787"><ele>193.0</ele><time>2026-04-04T12:23:29.065Z</time></trkpt><trkpt lat="46.1957362" lon="13.1990913"><ele>194.0</ele><time>2026-04-04T12:23:30.064Z</time></trkpt><trkpt lat="46.1959214" lon="13.199117"><ele>195.0</ele><time>2026-04-04T12:23:31.065Z</time></trkpt><trkpt lat="46.1961073" lon="13.199162"><ele>196.0</ele><time>2026-04-04T12:23:32.064Z</time></trkpt><trkpt lat="46.196292" lon="13.1992297"><ele>196.0</ele><time>2026-04-04T12:23:33.065Z</time></trkpt><trkpt lat="46.1964727" lon="13.199324"><ele>196.0</ele><time>2026-04-04T12:23:34.065Z</time></trkpt><trkpt lat="46.1966507" lon="13.1994404"><ele>196.0</ele><time>2026-04-04T12:23:35.066Z</time></trkpt><trkpt lat="46.196823" lon="13.1995795"><ele>196.0</ele><time>2026-04-04T12:23:36.066Z</time></trkpt><trkpt lat="46.1969886" lon="13.1997429"><ele>196.0</ele><time>2026-04-04T12:23:37.065Z</time></trkpt><trkpt lat="46.1971471" lon="13.1999319"><ele>196.0</ele><time>2026-04-04T12:23:38.065Z</time></trkpt><trkpt lat="46.1972963" lon="13.2001423"><ele>196.33333333333331</ele><time>2026-04-04T12:23:39.066Z</time></trkpt><trkpt lat="46.1974366" lon="13.200366"><ele>196.66666666666669</ele><time>2026-04-04T12:23:40.064Z</time></trkpt><trkpt lat="46.1975724" lon="13.2005961"><ele>197.0</ele><time>2026-04-04T12:23:41.065Z</time></trkpt><trkpt lat="46.197704" lon="13.200828"><ele>197.0</ele><time>2026-04-04T12:23:42.065Z</time></trkpt><trkpt lat="46.1978344" lon="13.2010549"><ele>197.0</ele><time>2026-04-04T12:23:43.066Z</time></trkpt><trkpt lat="46.1979633" lon="13.201279"><ele>197.0</ele><time>2026-04-04T12:23:44.064Z</time></trkpt><trkpt lat="46.1980894" lon="13.2014998"><ele>197.0</ele><time>2026-04-04T12:23:45.064Z</time></trkpt><trkpt lat="46.1982122" lon="13.2017159"><ele>197.0</ele><time>2026-04-04T12:23:46.065Z</time></trkpt><trkpt lat="46.1983324" lon="13.2019286"><ele>197.0</ele><time>2026-04-04T12:23:47.065Z</time></trkpt><trkpt lat="46.1984513" lon="13.2021377"><ele>198.0</ele><time>2026-04-04T12:23:48.064Z</time></trkpt><trkpt lat="46.1985717" lon="13.2023435"><ele>199.0</ele><time>2026-04-04T12:23:49.065Z</time></trkpt><trkpt lat="46.1986927" lon="13.2025535"><ele>200.0</ele><time>2026-04-04T12:23:50.065Z</time></trkpt><trkpt lat="46.1988126" lon="13.2027624"><ele>200.0</ele><time>2026-04-04T12:23:51.066Z</time></trkpt><trkpt lat="46.1989342" lon="13.2029695"><ele>200.0</ele><time>2026-04-04T12:23:52.064Z</time></trkpt><trkpt lat="46.1990585" lon="13.2031705"><ele>200.0</ele><time>2026-04-04T12:23:53.064Z</time></trkpt><trkpt lat="46.1991904" lon="13.2033533"><ele>200.0</ele><time>2026-04-04T12:23:54.065Z</time></trkpt><trkpt lat="46.199332" lon="13.2035119"><ele>200.0</ele><time>2026-04-04T12:23:55.065Z</time></trkpt><trkpt lat="46.1994856" lon="13.2036488"><ele>200.0</ele><time>2026-04-04T12:23:56.064Z</time></trkpt><trkpt lat="46.1996513" lon="13.2037667"><ele>200.0</ele><time>2026-04-04T12:23:57.066Z</time></trkpt><trkpt lat="46.199827" lon="13.203865"><ele>200.0</ele><time>2026-04-04T12:23:58.064Z</time></trkpt><trkpt lat="46.2000081" lon="13.2039518"><ele>200.0</ele><time>2026-04-04T12:23:59.064Z</time></trkpt><trkpt lat="46.2001833" lon="13.2040319"><ele>201.0</ele><time>2026-04-04T12:24:00.065Z</time></trkpt><trkpt lat="46.2003509" lon="13.2041095"><ele>202.0</ele><time>2026-04-04T12:24:01.065Z</time></trkpt><trkpt lat="46.2005073" lon="13.204182"><ele>203.0</ele><time>2026-04-04T12:24:02.066Z</time></trkpt><trkpt lat="46.2006511" lon="13.2042475"><ele>202.4</ele><time>2026-04-04T12:24:03.064Z</time></trkpt><trkpt lat="46.2007818" lon="13.2043043"><ele>201.8</ele><time>2026-04-04T12:24:04.065Z</time></trkpt><trkpt lat="46.2008952" lon="13.2043509"><ele>201.2</ele><time>2026-04-04T12:24:05.065Z</time></trkpt><trkpt lat="46.200993" lon="13.2043915"><ele>200.6</ele><time>2026-04-04T12:24:06.064Z</time></trkpt><trkpt lat="46.2010669" lon="13.2044376"><ele>200.0</ele><time>2026-04-04T12:24:07.065Z</time></trkpt><trkpt lat="46.2011237" lon="13.2045015"><ele>200.0</ele><time>2026-04-04T12:24:08.066Z</time></trkpt><trkpt lat="46.2011652" lon="13.2045861"><ele>200.0</ele><time>2026-04-04T12:24:09.065Z</time></trkpt><trkpt lat="46.2011909" lon="13.2046932"><ele>200.0</ele><time>2026-04-04T12:24:10.065Z</time></trkpt><trkpt lat="46.2012054" lon="13.2048217"><ele>200.0</ele><time>2026-04-04T12:24:11.065Z</time></trkpt><trkpt lat="46.201208" lon="13.2049685"><ele>200.0</ele><time>2026-04-04T12:24:12.065Z</time></trkpt><trkpt lat="46.2012031" lon="13.2051353"><ele>201.5</ele><time>2026-04-04T12:24:13.064Z</time></trkpt><trkpt lat="46.2011959" lon="13.2053159"><ele>203.0</ele><time>2026-04-04T12:24:14.065Z</time></trkpt><trkpt lat="46.2011909" lon="13.2055111"><ele>204.5</ele><time>2026-04-04T12:24:15.065Z</time></trkpt><trkpt lat="46.20119" lon="13.2057172"><ele>206.0</ele><time>2026-04-04T12:24:16.064Z</time></trkpt><trkpt lat="46.2011901" lon="13.2059311"><ele>207.33333333333334</ele><time>2026-04-04T12:24:17.065Z</time></trkpt><trkpt lat="46.2011878" lon="13.2061543"><ele>208.66666666666669</ele><time>2026-04-04T12:24:18.064Z</time></trkpt><trkpt lat="46.2011822" lon="13.2063793"><ele>210.0</ele><time>2026-04-04T12:24:19.064Z</time></trkpt><trkpt lat="46.2011786" lon="13.2066113"><ele>210.66666666666669</ele><time>2026-04-04T12:24:20.065Z</time></trkpt><trkpt lat="46.2011828" lon="13.2068418"><ele>211.33333333333334</ele><time>2026-04-04T12:24:21.066Z</time></trkpt><trkpt lat="46.2012007" lon="13.2070706"><ele>212.0</ele><time>2026-04-04T12:24:22.065Z</time></trkpt><trkpt lat="46.2012339" lon="13.2073002"><ele>212.66666666666669</ele><time>2026-04-04T12:24:23.066Z</time></trkpt><trkpt lat="46.2012766" lon="13.2075297"><ele>213.33333333333331</ele><time>2026-04-04T12:24:24.064Z</time></trkpt><trkpt lat="46.2013216" lon="13.207766"><ele>214.0</ele><time>2026-04-04T12:24:25.063Z</time></trkpt><trkpt lat="46.2013628" lon="13.2080078"><ele>215.33333333333331</ele><time>2026-04-04T12:24:26.065Z</time></trkpt><trkpt lat="46.2014032" lon="13.2082427"><ele>216.66666666666669</ele><time>2026-04-04T12:24:27.064Z</time></trkpt><trkpt lat="46.2014388" lon="13.2084602"><ele>218.0</ele><time>2026-04-04T12:24:28.064Z</time></trkpt><trkpt lat="46.2014717" lon="13.2086699"><ele>218.75</ele><time>2026-04-04T12:24:29.065Z</time></trkpt><trkpt lat="46.2015113" lon="13.2088729"><ele>219.5</ele><time>2026-04-04T12:24:30.065Z</time></trkpt><trkpt lat="46.2015662" lon="13.2090645"><ele>220.25</ele><time>2026-04-04T12:24:31.064Z</time></trkpt><trkpt lat="46.2016395" lon="13.2092417"><ele>221.0</ele><time>2026-04-04T12:24:32.064Z</time></trkpt><trkpt lat="46.2017341" lon="13.209404"><ele>222.0</ele><time>2026-04-04T12:24:33.065Z</time></trkpt><trkpt lat="46.2018391" lon="13.2095478"><ele>223.0</ele><time>2026-04-04T12:24:34.065Z</time></trkpt><trkpt lat="46.2019371" lon="13.2096873"><ele>224.0</ele><time>2026-04-04T12:24:35.065Z</time></trkpt><trkpt lat="46.202028" lon="13.2098317"><ele>225.0</ele><time>2026-04-04T12:24:36.064Z</time></trkpt><trkpt lat="46.2020961" lon="13.209988"><ele>226.0</ele><time>2026-04-04T12:24:37.066Z</time></trkpt><trkpt lat="46.2021366" lon="13.2101553"><ele>227.0</ele><time>2026-04-04T12:24:38.065Z</time></trkpt><trkpt lat="46.2021447" lon="13.2103392"><ele>228.0</ele><time>2026-04-04T12:24:39.065Z</time></trkpt><trkpt lat="46.2021299" lon="13.210527"><ele>229.0</ele><time>2026-04-04T12:24:40.066Z</time></trkpt><trkpt lat="46.2020982" lon="13.2107195"><ele>229.5</ele><time>2026-04-04T12:24:41.065Z</time></trkpt><trkpt lat="46.2020681" lon="13.2109089"><ele>230.0</ele><time>2026-04-04T12:24:42.064Z</time></trkpt><trkpt lat="46.2020361" lon="13.2110962"><ele>230.5</ele><time>2026-04-04T12:24:43.064Z</time></trkpt><trkpt lat="46.202009" lon="13.211283"><ele>231.0</ele><time>2026-04-04T12:24:44.065Z</time></trkpt><trkpt lat="46.2019834" lon="13.2114679"><ele>231.5</ele><time>2026-04-04T12:24:45.066Z</time></trkpt><trkpt lat="46.2019558" lon="13.2116539"><ele>232.0</ele><time>2026-04-04T12:24:46.065Z</time></trkpt><trkpt lat="46.2019306" lon="13.2118403"><ele>232.5</ele><time>2026-04-04T12:24:47.066Z</time></trkpt><trkpt lat="46.2019124" lon="13.2120183"><ele>233.0</ele><time>2026-04-04T12:24:48.064Z</time></trkpt><trkpt lat="46.2018953" lon="13.212191"><ele>233.5</ele><time>2026-04-04T12:24:49.064Z</time></trkpt><trkpt lat="46.2018805" lon="13.2123626"><ele>234.0</ele><time>2026-04-04T12:24:50.065Z</time></trkpt><trkpt lat="46.2018676" lon="13.2125368"><ele>234.5</ele><time>2026-04-04T12:24:51.065Z</time></trkpt><trkpt lat="46.2018546" lon="13.212713"><ele>235.0</ele><time>2026-04-04T12:24:52.066Z</time></trkpt><trkpt lat="46.2018349" lon="13.2128893"><ele>235.0</ele><time>2026-04-04T12:24:53.064Z</time></trkpt><trkpt lat="46.201809" lon="13.2130645"><ele>235.0</ele><time>2026-04-04T12:24:54.064Z</time></trkpt><trkpt lat="46.2017807" lon="13.2132389"><ele>235.0</ele><time>2026-04-04T12:24:55.064Z</time></trkpt><trkpt lat="46.2017533" lon="13.213407"><ele>235.0</ele><time>2026-04-04T12:24:56.065Z</time></trkpt><trkpt lat="46.2017184" lon="13.2135748"><ele>235.75</ele><time>2026-04-04T12:24:57.064Z</time></trkpt><trkpt lat="46.2016925" lon="13.2137526"><ele>236.5</ele><time>2026-04-04T12:24:58.065Z</time></trkpt><trkpt lat="46.2016814" lon="13.2139405"><ele>237.25</ele><time>2026-04-04T12:24:59.065Z</time></trkpt><trkpt lat="46.2016782" lon="13.214138"><ele>238.0</ele><time>2026-04-04T12:25:00.064Z</time></trkpt><trkpt lat="46.2016895" lon="13.2143444"><ele>238.0</ele><time>2026-04-04T12:25:01.064Z</time></trkpt><trkpt lat="46.2017121" lon="13.2145589"><ele>238.0</ele><time>2026-04-04T12:25:02.065Z</time></trkpt><trkpt lat="46.2017339" lon="13.2147765"><ele>238.0</ele><time>2026-04-04T12:25:03.065Z</time></trkpt><trkpt lat="46.2017574" lon="13.2149967"><ele>239.0</ele><time>2026-04-04T12:25:04.064Z</time></trkpt><trkpt lat="46.201782" lon="13.2152173"><ele>240.0</ele><time>2026-04-04T12:25:05.065Z</time></trkpt><trkpt lat="46.201807" lon="13.2154216"><ele>241.0</ele><time>2026-04-04T12:25:06.065Z</time></trkpt><trkpt lat="46.2018243" lon="13.2156168"><ele>242.0</ele><time>2026-04-04T12:25:07.066Z</time></trkpt><trkpt lat="46.201819" lon="13.2158146"><ele>242.2</ele><time>2026-04-04T12:25:08.066Z</time></trkpt><trkpt lat="46.2017996" lon="13.2159886"><ele>242.39999999999998</ele><time>2026-04-04T12:25:09.066Z</time></trkpt><trkpt lat="46.2017798" lon="13.2161394"><ele>242.60000000000002</ele><time>2026-04-04T12:25:10.065Z</time></trkpt><trkpt lat="46.2017577" lon="13.216286"><ele>242.8</ele><time>2026-04-04T12:25:11.065Z</time></trkpt><trkpt lat="46.2017387" lon="13.2164216"><ele>243.0</ele><time>2026-04-04T12:25:12.066Z</time></trkpt><trkpt lat="46.2017219" lon="13.2165476"><ele>243.0</ele><time>2026-04-04T12:25:13.065Z</time></trkpt><trkpt lat="46.2017083" lon="13.2166805"><ele>243.0</ele><time>2026-04-04T12:25:14.064Z</time></trkpt><trkpt lat="46.2016956" lon="13.2168208"><ele>243.0</ele><time>2026-04-04T12:25:15.064Z</time></trkpt><trkpt lat="46.201701" lon="13.2169629"><ele>243.0</ele><time>2026-04-04T12:25:16.065Z</time></trkpt><trkpt lat="46.2016909" lon="13.217103"><ele>243.0</ele><time>2026-04-04T12:25:17.065Z</time></trkpt><trkpt lat="46.2016818" lon="13.2172527"><ele>243.0</ele><time>2026-04-04T12:25:18.066Z</time></trkpt><trkpt lat="46.2016738" lon="13.2174045"><ele>243.0</ele><time>2026-04-04T12:25:19.065Z</time></trkpt><trkpt lat="46.2016717" lon="13.2175589"><ele>243.0</ele><time>2026-04-04T12:25:20.065Z</time></trkpt><trkpt lat="46.2016735" lon="13.2177147"><ele>243.0</ele><time>2026-04-04T12:25:21.066Z</time></trkpt><trkpt lat="46.2016754" lon="13.2178684"><ele>243.0</ele><time>2026-04-04T12:25:22.066Z</time></trkpt><trkpt lat="46.2016773" lon="13.218019"><ele>242.8</ele><time>2026-04-04T12:25:23.065Z</time></trkpt><trkpt lat="46.2016698" lon="13.2181662"><ele>242.60000000000002</ele><time>2026-04-04T12:25:24.065Z</time></trkpt><trkpt lat="46.2016526" lon="13.2183059"><ele>242.39999999999998</ele><time>2026-04-04T12:25:25.064Z</time></trkpt><trkpt lat="46.2016134" lon="13.2184398"><ele>242.2</ele><time>2026-04-04T12:25:26.065Z</time></trkpt><trkpt lat="46.2015611" lon="13.2185735"><ele>242.0</ele><time>2026-04-04T12:25:27.066Z</time></trkpt><trkpt lat="46.2014939" lon="13.2187065"><ele>240.25</ele><time>2026-04-04T12:25:28.065Z</time></trkpt><trkpt lat="46.201419" lon="13.2188394"><ele>238.5</ele><time>2026-04-04T12:25:29.066Z</time></trkpt><trkpt lat="46.2013408" lon="13.2189753"><ele>236.75</ele><time>2026-04-04T12:25:30.066Z</time></trkpt><trkpt lat="46.2012534" lon="13.2191111"><ele>235.0</ele><time>2026-04-04T12:25:31.065Z</time></trkpt><trkpt lat="46.2011603" lon="13.2192496"><ele>235.0</ele><time>2026-04-04T12:25:32.064Z</time></trkpt><trkpt lat="46.2010695" lon="13.2193944"><ele>235.0</ele><time>2026-04-04T12:25:33.065Z</time></trkpt><trkpt lat="46.2009837" lon="13.2195436"><ele>235.0</ele><time>2026-04-04T12:25:34.066Z</time></trkpt><trkpt lat="46.2008941" lon="13.2196878"><ele>235.0</ele><time>2026-04-04T12:25:35.065Z</time></trkpt><trkpt lat="46.2007984" lon="13.2198235"><ele>236.25</ele><time>2026-04-04T12:25:36.065Z</time></trkpt><trkpt lat="46.2006995" lon="13.2199623"><ele>237.5</ele><time>2026-04-04T12:25:37.064Z</time></trkpt><trkpt lat="46.2005998" lon="13.2201015"><ele>238.75</ele><time>2026-04-04T12:25:38.064Z</time></trkpt><trkpt lat="46.2005031" lon="13.2202373"><ele>240.0</ele><time>2026-04-04T12:25:39.065Z</time></trkpt><trkpt lat="46.2004062" lon="13.2203665"><ele>238.5</ele><time>2026-04-04T12:25:40.065Z</time></trkpt><trkpt lat="46.2003105" lon="13.2204945"><ele>237.0</ele><time>2026-04-04T12:25:41.064Z</time></trkpt><trkpt lat="46.2002169" lon="13.2206222"><ele>235.5</ele><time>2026-04-04T12:25:42.065Z</time></trkpt><trkpt lat="46.2001225" lon="13.2207457"><ele>234.0</ele><time>2026-04-04T12:25:43.065Z</time></trkpt><trkpt lat="46.2000343" lon="13.2208691"><ele>234.0</ele><time>2026-04-04T12:25:44.064Z</time></trkpt><trkpt lat="46.1999502" lon="13.2210025"><ele>234.0</ele><time>2026-04-04T12:25:45.064Z</time></trkpt><trkpt lat="46.1998735" lon="13.2211464"><ele>234.0</ele><time>2026-04-04T12:25:46.066Z</time></trkpt><trkpt lat="46.199802" lon="13.2212962"><ele>234.0</ele><time>2026-04-04T12:25:47.064Z</time></trkpt><trkpt lat="46.1997308" lon="13.2214419"><ele>230.75</ele><time>2026-04-04T12:25:48.065Z</time></trkpt><trkpt lat="46.1996612" lon="13.2215865"><ele>227.5</ele><time>2026-04-04T12:25:49.064Z</time></trkpt><trkpt lat="46.1995993" lon="13.2217386"><ele>224.25</ele><time>2026-04-04T12:25:50.064Z</time></trkpt><trkpt lat="46.1995454" lon="13.2218993"><ele>221.0</ele><time>2026-04-04T12:25:51.064Z</time></trkpt><trkpt lat="46.1995189" lon="13.2220692"><ele>221.0</ele><time>2026-04-04T12:25:52.065Z</time></trkpt><trkpt lat="46.1995241" lon="13.2222359"><ele>221.0</ele><time>2026-04-04T12:25:53.065Z</time></trkpt><trkpt lat="46.1995608" lon="13.2223953"><ele>221.0</ele><time>2026-04-04T12:25:54.065Z</time></trkpt><trkpt lat="46.1996277" lon="13.222544"><ele>221.0</ele><time>2026-04-04T12:25:55.066Z</time></trkpt><trkpt lat="46.1997217" lon="13.222686"><ele>219.75</ele><time>2026-04-04T12:25:56.065Z</time></trkpt><trkpt lat="46.1998277" lon="13.2228283"><ele>218.5</ele><time>2026-04-04T12:25:57.065Z</time></trkpt><trkpt lat="46.1999312" lon="13.2229771"><ele>217.25</ele><time>2026-04-04T12:25:58.065Z</time></trkpt><trkpt lat="46.2000258" lon="13.2231309"><ele>216.0</ele><time>2026-04-04T12:25:59.065Z</time></trkpt><trkpt lat="46.2001073" lon="13.2232892"><ele>215.5</ele><time>2026-04-04T12:26:00.064Z</time></trkpt><trkpt lat="46.2001836" lon="13.2234417"><ele>215.0</ele><time>2026-04-04T12:26:01.064Z</time></trkpt><trkpt lat="46.200254" lon="13.223585"><ele>214.5</ele><time>2026-04-04T12:26:02.065Z</time></trkpt><trkpt lat="46.2003148" lon="13.2237278"><ele>214.0</ele><time>2026-04-04T12:26:03.066Z</time></trkpt><trkpt lat="46.2003526" lon="13.2238794"><ele>212.79999999999998</ele><time>2026-04-04T12:26:04.066Z</time></trkpt><trkpt lat="46.2003661" lon="13.2240295"><ele>211.59999999999997</ele><time>2026-04-04T12:26:05.064Z</time></trkpt><trkpt lat="46.2003526" lon="13.2241737"><ele>210.4</ele><time>2026-04-04T12:26:06.064Z</time></trkpt><trkpt lat="46.2003149" lon="13.2243243"><ele>209.2</ele><time>2026-04-04T12:26:07.064Z</time></trkpt><trkpt lat="46.2002671" lon="13.2244894"><ele>208.0</ele><time>2026-04-04T12:26:08.064Z</time></trkpt><trkpt lat="46.2002186" lon="13.2246662"><ele>207.5</ele><time>2026-04-04T12:26:09.065Z</time></trkpt><trkpt lat="46.2001725" lon="13.2248337"><ele>207.0</ele><time>2026-04-04T12:26:10.064Z</time></trkpt><trkpt lat="46.2001286" lon="13.2249944"><ele>206.5</ele><time>2026-04-04T12:26:11.064Z</time></trkpt><trkpt lat="46.2000885" lon="13.2251501"><ele>206.0</ele><time>2026-04-04T12:26:12.064Z</time></trkpt><trkpt lat="46.200059" lon="13.2253058"><ele>206.0</ele><time>2026-04-04T12:26:13.066Z</time></trkpt><trkpt lat="46.200039" lon="13.2254572"><ele>206.0</ele><time>2026-04-04T12:26:14.064Z</time></trkpt><trkpt lat="46.200029" lon="13.2255919"><ele>206.0</ele><time>2026-04-04T12:26:15.065Z</time></trkpt><trkpt lat="46.2000168" lon="13.2257162"><ele>206.0</ele><time>2026-04-04T12:26:16.066Z</time></trkpt><trkpt lat="46.2000053" lon="13.2258424"><ele>206.0</ele><time>2026-04-04T12:26:17.065Z</time></trkpt><trkpt lat="46.1999925" lon="13.2259756"><ele>206.0</ele><time>2026-04-04T12:26:18.065Z</time></trkpt><trkpt lat="46.1999752" lon="13.2261168"><ele>206.0</ele><time>2026-04-04T12:26:19.065Z</time></trkpt><trkpt lat="46.1999549" lon="13.2262668"><ele>206.0</ele><time>2026-04-04T12:26:20.066Z</time></trkpt><trkpt lat="46.1999337" lon="13.2264177"><ele>206.0</ele><time>2026-04-04T12:26:21.065Z</time></trkpt><trkpt lat="46.1999142" lon="13.2265649"><ele>206.0</ele><time>2026-04-04T12:26:22.065Z</time></trkpt><trkpt lat="46.1998954" lon="13.2267001"><ele>205.83333333333334</ele><time>2026-04-04T12:26:23.065Z</time></trkpt><trkpt lat="46.1998777" lon="13.2268238"><ele>205.66666666666669</ele><time>2026-04-04T12:26:24.065Z</time></trkpt><trkpt lat="46.1998633" lon="13.2269278"><ele>205.5</ele><time>2026-04-04T12:26:25.065Z</time></trkpt><trkpt lat="46.1998462" lon="13.2270744"><ele>205.33333333333331</ele><time>2026-04-04T12:26:27.065Z</time></trkpt><trkpt lat="46.1998378" lon="13.2271729"><ele>205.16666666666666</ele><time>2026-04-04T12:26:29.066Z</time></trkpt><trkpt lat="46.1998376" lon="13.2272681"><ele>205.0</ele><time>2026-04-04T12:26:39.066Z</time></trkpt><trkpt lat="46.1998558" lon="13.2273561"><ele>205.0</ele><time>2026-04-04T12:26:52.064Z</time></trkpt><trkpt lat="46.1999324" lon="13.2273817"><ele>205.0</ele><time>2026-04-04T12:26:54.065Z</time></trkpt><trkpt lat="46.2000083" lon="13.2273552"><ele>205.0</ele><time>2026-04-04T12:26:55.065Z</time></trkpt><trkpt lat="46.2001066" lon="13.2273155"><ele>205.0</ele><time>2026-04-04T12:26:56.065Z</time></trkpt><trkpt lat="46.200227" lon="13.2272762"><ele>205.0</ele><time>2026-04-04T12:26:57.065Z</time></trkpt><trkpt lat="46.2003668" lon="13.2272388"><ele>205.0</ele><time>2026-04-04T12:26:58.064Z</time></trkpt><trkpt lat="46.2005204" lon="13.2272057"><ele>205.0</ele><time>2026-04-04T12:26:59.065Z</time></trkpt><trkpt lat="46.2006856" lon="13.2271804"><ele>205.0</ele><time>2026-04-04T12:27:00.065Z</time></trkpt><trkpt lat="46.2008574" lon="13.2271658"><ele>206.0</ele><time>2026-04-04T12:27:01.066Z</time></trkpt><trkpt lat="46.2010219" lon="13.2271507"><ele>207.0</ele><time>2026-04-04T12:27:02.065Z</time></trkpt><trkpt lat="46.2011781" lon="13.2271321"><ele>208.0</ele><time>2026-04-04T12:27:03.065Z</time></trkpt><trkpt lat="46.2013338" lon="13.2271085"><ele>208.0</ele><time>2026-04-04T12:27:04.064Z</time></trkpt><trkpt lat="46.2014813" lon="13.2270987"><ele>208.0</ele><time>2026-04-04T12:27:05.065Z</time></trkpt><trkpt lat="46.2016231" lon="13.2271069"><ele>208.0</ele><time>2026-04-04T12:27:06.065Z</time></trkpt><trkpt lat="46.2017618" lon="13.2271308"><ele>208.0</ele><time>2026-04-04T12:27:07.064Z</time></trkpt><trkpt lat="46.2019013" lon="13.2271824"><ele>208.0</ele><time>2026-04-04T12:27:08.064Z</time></trkpt><trkpt lat="46.2020384" lon="13.2272537"><ele>208.0</ele><time>2026-04-04T12:27:09.065Z</time></trkpt><trkpt lat="46.2021668" lon="13.2273281"><ele>208.0</ele><time>2026-04-04T12:27:10.064Z</time></trkpt><trkpt lat="46.2022866" lon="13.2274001"><ele>208.0</ele><time>2026-04-04T12:27:11.064Z</time></trkpt><trkpt lat="46.2023994" lon="13.2274684"><ele>208.2</ele><time>2026-04-04T12:27:12.065Z</time></trkpt><trkpt lat="46.2025017" lon="13.2275342"><ele>208.4</ele><time>2026-04-04T12:27:13.064Z</time></trkpt><trkpt lat="46.2025869" lon="13.2275971"><ele>208.6</ele><time>2026-04-04T12:27:14.064Z</time></trkpt><trkpt lat="46.2026643" lon="13.2276527"><ele>208.79999999999998</ele><time>2026-04-04T12:27:15.064Z</time></trkpt><trkpt lat="46.2027454" lon="13.2277143"><ele>209.0</ele><time>2026-04-04T12:27:16.065Z</time></trkpt><trkpt lat="46.20283" lon="13.2277724"><ele>209.00000000000003</ele><time>2026-04-04T12:27:17.065Z</time></trkpt><trkpt lat="46.2029149" lon="13.2278305"><ele>209.0</ele><time>2026-04-04T12:27:18.065Z</time></trkpt><trkpt lat="46.2029925" lon="13.2278841"><ele>209.0</ele><time>2026-04-04T12:27:19.065Z</time></trkpt><trkpt lat="46.2030629" lon="13.2279364"><ele>209.0</ele><time>2026-04-04T12:27:20.065Z</time></trkpt><trkpt lat="46.2031261" lon="13.2279854"><ele>209.00000000000003</ele><time>2026-04-04T12:27:21.065Z</time></trkpt><trkpt lat="46.2031837" lon="13.228028"><ele>209.0</ele><time>2026-04-04T12:27:22.065Z</time></trkpt><trkpt lat="46.2032572" lon="13.2281187"><ele>209.0</ele><time>2026-04-04T12:27:24.066Z</time></trkpt><trkpt lat="46.2032645" lon="13.2282404"><ele>209.0</ele><time>2026-04-04T12:27:27.064Z</time></trkpt><trkpt lat="46.2032673" lon="13.2283789"><ele>209.0</ele><time>2026-04-04T12:27:30.064Z</time></trkpt><trkpt lat="46.2032525" lon="13.2285543"><ele>209.0</ele><time>2026-04-04T12:27:32.064Z</time></trkpt><trkpt lat="46.2032527" lon="13.228737"><ele>209.0</ele><time>2026-04-04T12:27:34.065Z</time></trkpt><trkpt lat="46.2032576" lon="13.2288345"><ele>209.00000000000003</ele><time>2026-04-04T12:27:35.066Z</time></trkpt><trkpt lat="46.203257" lon="13.2289419"><ele>209.0</ele><time>2026-04-04T12:27:36.065Z</time></trkpt><trkpt lat="46.2032553" lon="13.2290573"><ele>209.0</ele><time>2026-04-04T12:27:37.064Z</time></trkpt><trkpt lat="46.2032537" lon="13.2291779"><ele>209.0</ele><time>2026-04-04T12:27:38.065Z</time></trkpt><trkpt lat="46.2032518" lon="13.2292994"><ele>209.00000000000003</ele><time>2026-04-04T12:27:39.066Z</time></trkpt><trkpt lat="46.2032512" lon="13.229426"><ele>209.0</ele><time>2026-04-04T12:27:40.065Z</time></trkpt><trkpt lat="46.2032516" lon="13.2295623"><ele>209.00000000000003</ele><time>2026-04-04T12:27:41.065Z</time></trkpt><trkpt lat="46.2032455" lon="13.2296955"><ele>209.0</ele><time>2026-04-04T12:27:42.064Z</time></trkpt><trkpt lat="46.2032212" lon="13.2298161"><ele>209.0</ele><time>2026-04-04T12:27:43.064Z</time></trkpt><trkpt lat="46.2031789" lon="13.2299118"><ele>209.0</ele><time>2026-04-04T12:27:44.065Z</time></trkpt><trkpt lat="46.203124" lon="13.2299813"><ele>209.00000000000003</ele><time>2026-04-04T12:27:45.064Z</time></trkpt><trkpt lat="46.2030614" lon="13.2300309"><ele>209.0</ele><time>2026-04-04T12:27:46.065Z</time></trkpt><trkpt lat="46.2030038" lon="13.2300709"><ele>208.79999999999998</ele><time>2026-04-04T12:27:47.066Z</time></trkpt><trkpt lat="46.2029066" lon="13.2301576"><ele>208.6</ele><time>2026-04-04T12:27:49.064Z</time></trkpt><trkpt lat="46.2028816" lon="13.2303299"><ele>208.4</ele><time>2026-04-04T12:27:51.065Z</time></trkpt><trkpt lat="46.2029011" lon="13.2304258"><ele>208.2</ele><time>2026-04-04T12:27:52.066Z</time></trkpt><trkpt lat="46.2029254" lon="13.2305252"><ele>208.0</ele><time>2026-04-04T12:27:53.065Z</time></trkpt><trkpt lat="46.2029559" lon="13.2306385"><ele>209.83333333333331</ele><time>2026-04-04T12:27:54.065Z</time></trkpt><trkpt lat="46.2029858" lon="13.2307652"><ele>211.66666666666666</ele><time>2026-04-04T12:27:55.065Z</time></trkpt><trkpt lat="46.2030106" lon="13.2308945"><ele>213.5</ele><time>2026-04-04T12:27:56.065Z</time></trkpt><trkpt lat="46.2030311" lon="13.2310061"><ele>215.33333333333331</ele><time>2026-04-04T12:27:57.065Z</time></trkpt><trkpt lat="46.2030459" lon="13.2311063"><ele>217.16666666666666</ele><time>2026-04-04T12:27:58.066Z</time></trkpt><trkpt lat="46.2030211" lon="13.2312488"><ele>219.0</ele><time>2026-04-04T12:28:00.065Z</time></trkpt><trkpt lat="46.2029361" lon="13.2312671"><ele>219.0</ele><time>2026-04-04T12:28:02.065Z</time></trkpt><trkpt lat="46.2028471" lon="13.231145"><ele>218.99999999999997</ele><time>2026-04-04T12:28:04.065Z</time></trkpt><trkpt lat="46.2027982" lon="13.2310531"><ele>218.99999999999997</ele><time>2026-04-04T12:28:05.066Z</time></trkpt><trkpt lat="46.202751" lon="13.2309707"><ele>219.0</ele><time>2026-04-04T12:28:06.064Z</time></trkpt><trkpt lat="46.202703" lon="13.2309085"><ele>219.0</ele><time>2026-04-04T12:28:07.065Z</time></trkpt><trkpt lat="46.2025918" lon="13.2308588"><ele>219.0</ele><time>2026-04-04T12:28:09.066Z</time></trkpt><trkpt lat="46.2025347" lon="13.2308981"><ele>219.0</ele><time>2026-04-04T12:28:10.065Z</time></trkpt><trkpt lat="46.2024853" lon="13.2309702"><ele>219.0</ele><time>2026-04-04T12:28:11.066Z</time></trkpt><trkpt lat="46.2024355" lon="13.2310672"><ele>219.0</ele><time>2026-04-04T12:28:12.065Z</time></trkpt><trkpt lat="46.202378" lon="13.2311769"><ele>219.0</ele><time>2026-04-04T12:28:13.066Z</time></trkpt><trkpt lat="46.2023071" lon="13.2312863"><ele>219.0</ele><time>2026-04-04T12:28:14.064Z</time></trkpt><trkpt lat="46.2022152" lon="13.2313744"><ele>217.6</ele><time>2026-04-04T12:28:15.065Z</time></trkpt><trkpt lat="46.2021114" lon="13.2314364"><ele>216.2</ele><time>2026-04-04T12:28:16.065Z</time></trkpt><trkpt lat="46.2020036" lon="13.2314913"><ele>214.79999999999998</ele><time>2026-04-04T12:28:17.065Z</time></trkpt><trkpt lat="46.2019022" lon="13.2315562"><ele>213.39999999999998</ele><time>2026-04-04T12:28:18.065Z</time></trkpt><trkpt lat="46.2018141" lon="13.2316441"><ele>212.0</ele><time>2026-04-04T12:28:19.064Z</time></trkpt><trkpt lat="46.2017397" lon="13.2317551"><ele>216.25</ele><time>2026-04-04T12:28:20.064Z</time></trkpt><trkpt lat="46.2016846" lon="13.2318903"><ele>220.5</ele><time>2026-04-04T12:28:21.064Z</time></trkpt><trkpt lat="46.2016391" lon="13.2320401"><ele>224.75</ele><time>2026-04-04T12:28:22.065Z</time></trkpt><trkpt lat="46.2015972" lon="13.2321964"><ele>229.0</ele><time>2026-04-04T12:28:23.064Z</time></trkpt><trkpt lat="46.2015534" lon="13.2323584"><ele>229.6</ele><time>2026-04-04T12:28:24.064Z</time></trkpt><trkpt lat="46.2015088" lon="13.2325126"><ele>230.2</ele><time>2026-04-04T12:28:25.064Z</time></trkpt><trkpt lat="46.2014673" lon="13.2326489"><ele>230.79999999999998</ele><time>2026-04-04T12:28:26.064Z</time></trkpt><trkpt lat="46.2014292" lon="13.232777"><ele>231.39999999999998</ele><time>2026-04-04T12:28:27.065Z</time></trkpt><trkpt lat="46.2013982" lon="13.2328946"><ele>232.0</ele><time>2026-04-04T12:28:28.065Z</time></trkpt><trkpt lat="46.2013754" lon="13.2330049"><ele>231.99999999999997</ele><time>2026-04-04T12:28:29.065Z</time></trkpt><trkpt lat="46.2013321" lon="13.2330956"><ele>232.0</ele><time>2026-04-04T12:28:30.064Z</time></trkpt><trkpt lat="46.2012773" lon="13.2331666"><ele>232.0</ele><time>2026-04-04T12:28:31.064Z</time></trkpt><trkpt lat="46.2012061" lon="13.2332039"><ele>232.0</ele><time>2026-04-04T12:28:32.065Z</time></trkpt><trkpt lat="46.201125" lon="13.2332253"><ele>231.99999999999997</ele><time>2026-04-04T12:28:33.064Z</time></trkpt><trkpt lat="46.2010375" lon="13.2332461"><ele>232.0</ele><time>2026-04-04T12:28:34.065Z</time></trkpt><trkpt lat="46.2009512" lon="13.2332939"><ele>233.8</ele><time>2026-04-04T12:28:35.064Z</time></trkpt><trkpt lat="46.2008749" lon="13.2333717"><ele>235.6</ele><time>2026-04-04T12:28:36.065Z</time></trkpt><trkpt lat="46.2008015" lon="13.2334695"><ele>237.40000000000003</ele><time>2026-04-04T12:28:37.065Z</time></trkpt><trkpt lat="46.2007167" lon="13.23356"><ele>239.20000000000002</ele><time>2026-04-04T12:28:38.065Z</time></trkpt><trkpt lat="46.2006198" lon="13.2336365"><ele>241.0</ele><time>2026-04-04T12:28:39.065Z</time></trkpt><trkpt lat="46.2005187" lon="13.2336869"><ele>241.0</ele><time>2026-04-04T12:28:40.065Z</time></trkpt><trkpt lat="46.2004194" lon="13.2337433"><ele>241.00000000000003</ele><time>2026-04-04T12:28:41.065Z</time></trkpt><trkpt lat="46.2003265" lon="13.233819"><ele>241.00000000000003</ele><time>2026-04-04T12:28:42.066Z</time></trkpt><trkpt lat="46.2002424" lon="13.2339103"><ele>241.0</ele><time>2026-04-04T12:28:43.066Z</time></trkpt><trkpt lat="46.2001775" lon="13.2340234"><ele>241.0</ele><time>2026-04-04T12:28:44.066Z</time></trkpt><trkpt lat="46.200137" lon="13.2341535"><ele>243.4</ele><time>2026-04-04T12:28:45.066Z</time></trkpt><trkpt lat="46.2001294" lon="13.2342829"><ele>245.8</ele><time>2026-04-04T12:28:46.064Z</time></trkpt><trkpt lat="46.2001484" lon="13.234399"><ele>248.20000000000002</ele><time>2026-04-04T12:28:47.064Z</time></trkpt><trkpt lat="46.2001911" lon="13.2345106"><ele>250.60000000000002</ele><time>2026-04-04T12:28:48.064Z</time></trkpt><trkpt lat="46.2002486" lon="13.2346211"><ele>253.0</ele><time>2026-04-04T12:28:49.064Z</time></trkpt><trkpt lat="46.2003174" lon="13.2347296"><ele>253.25</ele><time>2026-04-04T12:28:50.065Z</time></trkpt><trkpt lat="46.2003932" lon="13.2348431"><ele>253.5</ele><time>2026-04-04T12:28:51.064Z</time></trkpt><trkpt lat="46.2004699" lon="13.2349657"><ele>253.75</ele><time>2026-04-04T12:28:52.065Z</time></trkpt><trkpt lat="46.2005492" lon="13.2350966"><ele>254.0</ele><time>2026-04-04T12:28:53.064Z</time></trkpt><trkpt lat="46.2006377" lon="13.2352229"><ele>255.0</ele><time>2026-04-04T12:28:54.064Z</time></trkpt><trkpt lat="46.2007358" lon="13.2353381"><ele>256.0</ele><time>2026-04-04T12:28:55.065Z</time></trkpt><trkpt lat="46.2008369" lon="13.2354472"><ele>257.0</ele><time>2026-04-04T12:28:56.065Z</time></trkpt><trkpt lat="46.2009358" lon="13.2355506"><ele>258.0</ele><time>2026-04-04T12:28:57.064Z</time></trkpt><trkpt lat="46.2010306" lon="13.2356443"><ele>258.0</ele><time>2026-04-04T12:28:58.065Z</time></trkpt><trkpt lat="46.2011302" lon="13.2357104"><ele>258.0</ele><time>2026-04-04T12:28:59.065Z</time></trkpt><trkpt lat="46.2012343" lon="13.2357377"><ele>258.0</ele><time>2026-04-04T12:29:00.064Z</time></trkpt><trkpt lat="46.2013443" lon="13.2357385"><ele>258.0</ele><time>2026-04-04T12:29:01.065Z</time></trkpt><trkpt lat="46.201451" lon="13.2357371"><ele>258.0</ele><time>2026-04-04T12:29:02.064Z</time></trkpt><trkpt lat="46.2015652" lon="13.2357229"><ele>260.8</ele><time>2026-04-04T12:29:03.065Z</time></trkpt><trkpt lat="46.2016794" lon="13.2357164"><ele>263.6</ele><time>2026-04-04T12:29:04.064Z</time></trkpt><trkpt lat="46.2017857" lon="13.2357259"><ele>266.4</ele><time>2026-04-04T12:29:05.065Z</time></trkpt><trkpt lat="46.201897" lon="13.2357248"><ele>269.2</ele><time>2026-04-04T12:29:06.065Z</time></trkpt><trkpt lat="46.2020001" lon="13.235737"><ele>272.0</ele><time>2026-04-04T12:29:07.065Z</time></trkpt><trkpt lat="46.2020965" lon="13.2357802"><ele>272.0</ele><time>2026-04-04T12:29:08.065Z</time></trkpt><trkpt lat="46.2021879" lon="13.2358524"><ele>272.0</ele><time>2026-04-04T12:29:09.064Z</time></trkpt><trkpt lat="46.2022683" lon="13.2359572"><ele>272.0</ele><time>2026-04-04T12:29:10.066Z</time></trkpt><trkpt lat="46.2023338" lon="13.2360861"><ele>272.0</ele><time>2026-04-04T12:29:11.065Z</time></trkpt><trkpt lat="46.2023918" lon="13.2362317"><ele>272.0</ele><time>2026-04-04T12:29:12.064Z</time></trkpt><trkpt lat="46.2024483" lon="13.2363814"><ele>271.75</ele><time>2026-04-04T12:29:13.064Z</time></trkpt><trkpt lat="46.2025075" lon="13.2365255"><ele>271.5</ele><time>2026-04-04T12:29:14.064Z</time></trkpt><trkpt lat="46.2025743" lon="13.236658"><ele>271.25</ele><time>2026-04-04T12:29:15.064Z</time></trkpt><trkpt lat="46.2026466" lon="13.2367785"><ele>271.0</ele><time>2026-04-04T12:29:16.065Z</time></trkpt><trkpt lat="46.2027212" lon="13.236901"><ele>271.0</ele><time>2026-04-04T12:29:17.065Z</time></trkpt><trkpt lat="46.2027886" lon="13.2370366"><ele>271.0</ele><time>2026-04-04T12:29:18.064Z</time></trkpt><trkpt lat="46.2028465" lon="13.2371714"><ele>271.0</ele><time>2026-04-04T12:29:19.066Z</time></trkpt><trkpt lat="46.2028953" lon="13.2372901"><ele>271.0</ele><time>2026-04-04T12:29:20.065Z</time></trkpt><trkpt lat="46.2029408" lon="13.2373938"><ele>271.0</ele><time>2026-04-04T12:29:21.064Z</time></trkpt><trkpt lat="46.2029968" lon="13.2374683"><ele>269.7142857142857</ele><time>2026-04-04T12:29:22.064Z</time></trkpt><trkpt lat="46.2030583" lon="13.2375194"><ele>268.42857142857144</ele><time>2026-04-04T12:29:23.064Z</time></trkpt><trkpt lat="46.2031316" lon="13.2375357"><ele>267.14285714285717</ele><time>2026-04-04T12:29:24.065Z</time></trkpt><trkpt lat="46.2032047" lon="13.2375338"><ele>265.8571428571429</ele><time>2026-04-04T12:29:25.064Z</time></trkpt><trkpt lat="46.2032772" lon="13.2375462"><ele>264.5714285714286</ele><time>2026-04-04T12:29:26.066Z</time></trkpt><trkpt lat="46.2033474" lon="13.2375847"><ele>263.2857142857143</ele><time>2026-04-04T12:29:27.064Z</time></trkpt><trkpt lat="46.2034091" lon="13.2376613"><ele>262.0</ele><time>2026-04-04T12:29:28.065Z</time></trkpt><trkpt lat="46.2034584" lon="13.2377623"><ele>263.2</ele><time>2026-04-04T12:29:29.066Z</time></trkpt><trkpt lat="46.2035043" lon="13.2378837"><ele>264.4</ele><time>2026-04-04T12:29:30.065Z</time></trkpt><trkpt lat="46.2035532" lon="13.2380148"><ele>265.6</ele><time>2026-04-04T12:29:31.065Z</time></trkpt><trkpt lat="46.2036022" lon="13.2381611"><ele>266.8</ele><time>2026-04-04T12:29:32.065Z</time></trkpt><trkpt lat="46.2036469" lon="13.2383125"><ele>268.0</ele><time>2026-04-04T12:29:33.065Z</time></trkpt><trkpt lat="46.2036823" lon="13.238466"><ele>268.0</ele><time>2026-04-04T12:29:34.065Z</time></trkpt><trkpt lat="46.2037097" lon="13.238609"><ele>268.0</ele><time>2026-04-04T12:29:35.066Z</time></trkpt><trkpt lat="46.2037365" lon="13.2387482"><ele>268.0</ele><time>2026-04-04T12:29:36.066Z</time></trkpt><trkpt lat="46.2037436" lon="13.2388872"><ele>268.0</ele><time>2026-04-04T12:29:37.065Z</time></trkpt><trkpt lat="46.2037328" lon="13.2390222"><ele>268.0</ele><time>2026-04-04T12:29:38.064Z</time></trkpt><trkpt lat="46.2037212" lon="13.2391593"><ele>268.0</ele><time>2026-04-04T12:29:39.064Z</time></trkpt><trkpt lat="46.2037095" lon="13.2392981"><ele>268.0</ele><time>2026-04-04T12:29:40.064Z</time></trkpt><trkpt lat="46.2036973" lon="13.2394314"><ele>268.0</ele><time>2026-04-04T12:29:41.064Z</time></trkpt><trkpt lat="46.2036718" lon="13.2395617"><ele>268.0</ele><time>2026-04-04T12:29:42.065Z</time></trkpt><trkpt lat="46.2036351" lon="13.2396905"><ele>268.0</ele><time>2026-04-04T12:29:43.065Z</time></trkpt><trkpt lat="46.2035927" lon="13.2398178"><ele>268.8333333333333</ele><time>2026-04-04T12:29:44.065Z</time></trkpt><trkpt lat="46.2035441" lon="13.2399409"><ele>269.66666666666663</ele><time>2026-04-04T12:29:45.066Z</time></trkpt><trkpt lat="46.2034859" lon="13.2400492"><ele>270.5</ele><time>2026-04-04T12:29:46.065Z</time></trkpt><trkpt lat="46.2034299" lon="13.2401357"><ele>271.3333333333333</ele><time>2026-04-04T12:29:47.064Z</time></trkpt><trkpt lat="46.2033762" lon="13.2402039"><ele>272.1666666666667</ele><time>2026-04-04T12:29:48.064Z</time></trkpt><trkpt lat="46.2033253" lon="13.2402618"><ele>273.0</ele><time>2026-04-04T12:29:49.064Z</time></trkpt><trkpt lat="46.2032763" lon="13.2403905"><ele>273.0</ele><time>2026-04-04T12:29:51.065Z</time></trkpt><trkpt lat="46.2033469" lon="13.2404712"><ele>273.0</ele><time>2026-04-04T12:29:53.066Z</time></trkpt><trkpt lat="46.2034213" lon="13.2404849"><ele>273.0</ele><time>2026-04-04T12:29:55.065Z</time></trkpt><trkpt lat="46.2035316" lon="13.2404903"><ele>273.0</ele><time>2026-04-04T12:29:57.065Z</time></trkpt><trkpt lat="46.2036026" lon="13.2404889"><ele>273.0</ele><time>2026-04-04T12:29:58.064Z</time></trkpt><trkpt lat="46.2036807" lon="13.2404742"><ele>273.0</ele><time>2026-04-04T12:29:59.064Z</time></trkpt><trkpt lat="46.2037588" lon="13.240427"><ele>273.0</ele><time>2026-04-04T12:30:00.064Z</time></trkpt><trkpt lat="46.2038346" lon="13.2403463"><ele>273.0</ele><time>2026-04-04T12:30:01.064Z</time></trkpt><trkpt lat="46.2039028" lon="13.2402422"><ele>273.0</ele><time>2026-04-04T12:30:02.065Z</time></trkpt><trkpt lat="46.2039651" lon="13.2401217"><ele>273.0</ele><time>2026-04-04T12:30:03.064Z</time></trkpt><trkpt lat="46.2040296" lon="13.2399996"><ele>273.0</ele><time>2026-04-04T12:30:04.064Z</time></trkpt><trkpt lat="46.2040901" lon="13.2398864"><ele>275.6</ele><time>2026-04-04T12:30:05.065Z</time></trkpt><trkpt lat="46.2041401" lon="13.2397672"><ele>278.20000000000005</ele><time>2026-04-04T12:30:06.064Z</time></trkpt><trkpt lat="46.204169" lon="13.2396324"><ele>280.8</ele><time>2026-04-04T12:30:07.064Z</time></trkpt><trkpt lat="46.2041687" lon="13.2395068"><ele>283.40000000000003</ele><time>2026-04-04T12:30:08.065Z</time></trkpt><trkpt lat="46.2041573" lon="13.2393819"><ele>286.0</ele><time>2026-04-04T12:30:09.065Z</time></trkpt><trkpt lat="46.2041458" lon="13.2392572"><ele>286.0</ele><time>2026-04-04T12:30:10.065Z</time></trkpt><trkpt lat="46.2041501" lon="13.2391232"><ele>286.0</ele><time>2026-04-04T12:30:11.064Z</time></trkpt><trkpt lat="46.2041625" lon="13.2389834"><ele>286.0</ele><time>2026-04-04T12:30:12.064Z</time></trkpt><trkpt lat="46.2041805" lon="13.2388401"><ele>286.0</ele><time>2026-04-04T12:30:13.065Z</time></trkpt><trkpt lat="46.2042107" lon="13.2386968"><ele>286.0</ele><time>2026-04-04T12:30:14.065Z</time></trkpt><trkpt lat="46.2042501" lon="13.2385549"><ele>286.8</ele><time>2026-04-04T12:30:15.065Z</time></trkpt><trkpt lat="46.2043" lon="13.2384165"><ele>287.6</ele><time>2026-04-04T12:30:16.065Z</time></trkpt><trkpt lat="46.2043673" lon="13.2382978"><ele>288.4</ele><time>2026-04-04T12:30:17.065Z</time></trkpt><trkpt lat="46.2044464" lon="13.2381913"><ele>289.2</ele><time>2026-04-04T12:30:18.066Z</time></trkpt><trkpt lat="46.2045315" lon="13.2381016"><ele>290.0</ele><time>2026-04-04T12:30:19.064Z</time></trkpt><trkpt lat="46.2046166" lon="13.2380259"><ele>292.2</ele><time>2026-04-04T12:30:20.064Z</time></trkpt><trkpt lat="46.2046972" lon="13.2379778"><ele>294.4</ele><time>2026-04-04T12:30:21.066Z</time></trkpt><trkpt lat="46.2047845" lon="13.2379591"><ele>296.6</ele><time>2026-04-04T12:30:22.064Z</time></trkpt><trkpt lat="46.2048724" lon="13.2379717"><ele>298.8</ele><time>2026-04-04T12:30:23.064Z</time></trkpt><trkpt lat="46.2049638" lon="13.2380134"><ele>301.0</ele><time>2026-04-04T12:30:24.066Z</time></trkpt><trkpt lat="46.205058" lon="13.2380733"><ele>300.0</ele><time>2026-04-04T12:30:25.064Z</time></trkpt><trkpt lat="46.2051541" lon="13.2381353"><ele>299.0</ele><time>2026-04-04T12:30:26.064Z</time></trkpt><trkpt lat="46.205247" lon="13.2382012"><ele>298.0</ele><time>2026-04-04T12:30:27.064Z</time></trkpt><trkpt lat="46.2053328" lon="13.2382578"><ele>297.0</ele><time>2026-04-04T12:30:28.065Z</time></trkpt><trkpt lat="46.2054209" lon="13.2383021"><ele>296.0</ele><time>2026-04-04T12:30:29.065Z</time></trkpt><trkpt lat="46.2055134" lon="13.2383156"><ele>296.0</ele><time>2026-04-04T12:30:30.065Z</time></trkpt><trkpt lat="46.205613" lon="13.238313"><ele>296.0</ele><time>2026-04-04T12:30:31.066Z</time></trkpt><trkpt lat="46.2057182" lon="13.2382938"><ele>296.0</ele><time>2026-04-04T12:30:32.065Z</time></trkpt><trkpt lat="46.2058254" lon="13.2382676"><ele>296.0</ele><time>2026-04-04T12:30:33.066Z</time></trkpt><trkpt lat="46.2059309" lon="13.2382381"><ele>296.0</ele><time>2026-04-04T12:30:34.065Z</time></trkpt><trkpt lat="46.2060381" lon="13.238212"><ele>296.2</ele><time>2026-04-04T12:30:35.065Z</time></trkpt><trkpt lat="46.2061498" lon="13.2381923"><ele>296.40000000000003</ele><time>2026-04-04T12:30:36.065Z</time></trkpt><trkpt lat="46.2062613" lon="13.2381849"><ele>296.6</ele><time>2026-04-04T12:30:37.065Z</time></trkpt><trkpt lat="46.2063669" lon="13.2382004"><ele>296.8</ele><time>2026-04-04T12:30:38.065Z</time></trkpt><trkpt lat="46.2064669" lon="13.2382401"><ele>297.0</ele><time>2026-04-04T12:30:39.064Z</time></trkpt><trkpt lat="46.2065637" lon="13.2383034"><ele>298.6</ele><time>2026-04-04T12:30:40.065Z</time></trkpt><trkpt lat="46.2066561" lon="13.2383726"><ele>300.2</ele><time>2026-04-04T12:30:41.064Z</time></trkpt><trkpt lat="46.2067413" lon="13.2384351"><ele>301.8</ele><time>2026-04-04T12:30:42.065Z</time></trkpt><trkpt lat="46.206821" lon="13.2384993"><ele>303.4</ele><time>2026-04-04T12:30:43.064Z</time></trkpt><trkpt lat="46.2068973" lon="13.2385679"><ele>305.0</ele><time>2026-04-04T12:30:44.064Z</time></trkpt><trkpt lat="46.206974" lon="13.2386438"><ele>305.0</ele><time>2026-04-04T12:30:45.064Z</time></trkpt><trkpt lat="46.2070555" lon="13.2387234"><ele>305.0</ele><time>2026-04-04T12:30:46.064Z</time></trkpt><trkpt lat="46.2071398" lon="13.2388156"><ele>305.0</ele><time>2026-04-04T12:30:47.064Z</time></trkpt><trkpt lat="46.2072327" lon="13.2389125"><ele>305.0</ele><time>2026-04-04T12:30:48.066Z</time></trkpt><trkpt lat="46.2073302" lon="13.2390121"><ele>305.0</ele><time>2026-04-04T12:30:49.065Z</time></trkpt><trkpt lat="46.2074307" lon="13.2391002"><ele>305.2</ele><time>2026-04-04T12:30:50.065Z</time></trkpt><trkpt lat="46.2075343" lon="13.239178"><ele>305.4</ele><time>2026-04-04T12:30:51.064Z</time></trkpt><trkpt lat="46.2076348" lon="13.2392372"><ele>305.6</ele><time>2026-04-04T12:30:52.066Z</time></trkpt><trkpt lat="46.207733" lon="13.2392894"><ele>305.8</ele><time>2026-04-04T12:30:53.065Z</time></trkpt><trkpt lat="46.2078319" lon="13.2393451"><ele>306.0</ele><time>2026-04-04T12:30:54.065Z</time></trkpt><trkpt lat="46.2079334" lon="13.2394005"><ele>306.0</ele><time>2026-04-04T12:30:55.066Z</time></trkpt><trkpt lat="46.2080343" lon="13.2394463"><ele>306.0</ele><time>2026-04-04T12:30:56.065Z</time></trkpt><trkpt lat="46.2081345" lon="13.2394653"><ele>306.0</ele><time>2026-04-04T12:30:57.065Z</time></trkpt><trkpt lat="46.2082346" lon="13.2394644"><ele>306.0</ele><time>2026-04-04T12:30:58.065Z</time></trkpt><trkpt lat="46.2083398" lon="13.2394628"><ele>306.0</ele><time>2026-04-04T12:30:59.065Z</time></trkpt><trkpt lat="46.2084488" lon="13.2394653"><ele>308.40000000000003</ele><time>2026-04-04T12:31:00.065Z</time></trkpt><trkpt lat="46.208553" lon="13.239464"><ele>310.8</ele><time>2026-04-04T12:31:01.064Z</time></trkpt><trkpt lat="46.2086513" lon="13.2394343"><ele>313.20000000000005</ele><time>2026-04-04T12:31:02.065Z</time></trkpt><trkpt lat="46.2087554" lon="13.239384"><ele>315.6</ele><time>2026-04-04T12:31:03.064Z</time></trkpt><trkpt lat="46.2088537" lon="13.2393236"><ele>318.0</ele><time>2026-04-04T12:31:04.065Z</time></trkpt><trkpt lat="46.2089494" lon="13.2392753"><ele>319.0</ele><time>2026-04-04T12:31:05.065Z</time></trkpt><trkpt lat="46.2090368" lon="13.239254"><ele>320.0</ele><time>2026-04-04T12:31:06.066Z</time></trkpt><trkpt lat="46.2091165" lon="13.2392542"><ele>321.0</ele><time>2026-04-04T12:31:07.066Z</time></trkpt><trkpt lat="46.209188" lon="13.2393138"><ele>322.0</ele><time>2026-04-04T12:31:08.064Z</time></trkpt><trkpt lat="46.2092602" lon="13.2393949"><ele>323.0</ele><time>2026-04-04T12:31:09.064Z</time></trkpt><trkpt lat="46.2093316" lon="13.239493"><ele>324.0</ele><time>2026-04-04T12:31:10.065Z</time></trkpt><trkpt lat="46.209414" lon="13.2395606"><ele>324.0</ele><time>2026-04-04T12:31:11.064Z</time></trkpt><trkpt lat="46.2095091" lon="13.2395913"><ele>324.0</ele><time>2026-04-04T12:31:12.066Z</time></trkpt><trkpt lat="46.2096196" lon="13.2395943"><ele>324.0</ele><time>2026-04-04T12:31:13.065Z</time></trkpt><trkpt lat="46.209737" lon="13.2395976"><ele>324.0</ele><time>2026-04-04T12:31:14.065Z</time></trkpt><trkpt lat="46.2098607" lon="13.2395915"><ele>324.0</ele><time>2026-04-04T12:31:15.065Z</time></trkpt><trkpt lat="46.2099786" lon="13.2395863"><ele>321.59999999999997</ele><time>2026-04-04T12:31:16.065Z</time></trkpt><trkpt lat="46.2100876" lon="13.2395796"><ele>319.2</ele><time>2026-04-04T12:31:17.065Z</time></trkpt><trkpt lat="46.2101889" lon="13.2395915"><ele>316.79999999999995</ele><time>2026-04-04T12:31:18.066Z</time></trkpt><trkpt lat="46.2102811" lon="13.2396407"><ele>314.4</ele><time>2026-04-04T12:31:19.065Z</time></trkpt><trkpt lat="46.2103631" lon="13.2397278"><ele>312.0</ele><time>2026-04-04T12:31:20.065Z</time></trkpt><trkpt lat="46.2104344" lon="13.2398326"><ele>311.3333333333333</ele><time>2026-04-04T12:31:21.065Z</time></trkpt><trkpt lat="46.2104936" lon="13.2399346"><ele>310.6666666666667</ele><time>2026-04-04T12:31:22.064Z</time></trkpt><trkpt lat="46.2105424" lon="13.2400207"><ele>310.0</ele><time>2026-04-04T12:31:23.065Z</time></trkpt><trkpt lat="46.2105939" lon="13.2401047"><ele>309.33333333333337</ele><time>2026-04-04T12:31:24.065Z</time></trkpt><trkpt lat="46.2106486" lon="13.2401853"><ele>308.6666666666667</ele><time>2026-04-04T12:31:25.065Z</time></trkpt><trkpt lat="46.2107081" lon="13.240261"><ele>308.0</ele><time>2026-04-04T12:31:26.066Z</time></trkpt><trkpt lat="46.2107691" lon="13.2403352"><ele>309.83333333333337</ele><time>2026-04-04T12:31:27.064Z</time></trkpt><trkpt lat="46.2108303" lon="13.2404108"><ele>311.6666666666667</ele><time>2026-04-04T12:31:28.065Z</time></trkpt><trkpt lat="46.2108879" lon="13.2404881"><ele>313.5</ele><time>2026-04-04T12:31:29.064Z</time></trkpt><trkpt lat="46.210939" lon="13.2405661"><ele>315.3333333333333</ele><time>2026-04-04T12:31:30.065Z</time></trkpt><trkpt lat="46.210979" lon="13.2406588"><ele>317.16666666666663</ele><time>2026-04-04T12:31:31.065Z</time></trkpt><trkpt lat="46.2110012" lon="13.2407633"><ele>319.0</ele><time>2026-04-04T12:31:32.065Z</time></trkpt><trkpt lat="46.2110055" lon="13.2408669"><ele>319.0</ele><time>2026-04-04T12:31:33.064Z</time></trkpt><trkpt lat="46.2110203" lon="13.2409646"><ele>319.0</ele><time>2026-04-04T12:31:34.066Z</time></trkpt><trkpt lat="46.2110596" lon="13.2410461"><ele>319.0</ele><time>2026-04-04T12:31:35.065Z</time></trkpt><trkpt lat="46.2111143" lon="13.2411067"><ele>319.0</ele><time>2026-04-04T12:31:36.066Z</time></trkpt><trkpt lat="46.211185" lon="13.2411556"><ele>319.0</ele><time>2026-04-04T12:31:37.066Z</time></trkpt><trkpt lat="46.2112633" lon="13.241198"><ele>319.0</ele><time>2026-04-04T12:31:38.064Z</time></trkpt><trkpt lat="46.2113508" lon="13.2412352"><ele>319.0</ele><time>2026-04-04T12:31:39.064Z</time></trkpt><trkpt lat="46.2114338" lon="13.2412755"><ele>319.0</ele><time>2026-04-04T12:31:40.065Z</time></trkpt><trkpt lat="46.2115081" lon="13.2413201"><ele>319.0</ele><time>2026-04-04T12:31:41.065Z</time></trkpt><trkpt lat="46.2115695" lon="13.2413735"><ele>319.0</ele><time>2026-04-04T12:31:42.064Z</time></trkpt><trkpt lat="46.2116227" lon="13.2414413"><ele>319.0</ele><time>2026-04-04T12:31:43.064Z</time></trkpt><trkpt lat="46.2116678" lon="13.2415323"><ele>319.0</ele><time>2026-04-04T12:31:44.066Z</time></trkpt><trkpt lat="46.2117004" lon="13.241647"><ele>319.16666666666663</ele><time>2026-04-04T12:31:45.065Z</time></trkpt><trkpt lat="46.2117277" lon="13.2417721"><ele>319.3333333333333</ele><time>2026-04-04T12:31:46.066Z</time></trkpt><trkpt lat="46.2117541" lon="13.2418897"><ele>319.5</ele><time>2026-04-04T12:31:47.064Z</time></trkpt><trkpt lat="46.2117866" lon="13.2419846"><ele>319.6666666666667</ele><time>2026-04-04T12:31:48.065Z</time></trkpt><trkpt lat="46.2118708" lon="13.2421026"><ele>319.83333333333337</ele><time>2026-04-04T12:31:50.065Z</time></trkpt><trkpt lat="46.2119343" lon="13.2421235"><ele>320.0</ele><time>2026-04-04T12:31:51.064Z</time></trkpt><trkpt lat="46.2120113" lon="13.2421263"><ele>320.0</ele><time>2026-04-04T12:31:52.066Z</time></trkpt><trkpt lat="46.212094" lon="13.2421218"><ele>320.0</ele><time>2026-04-04T12:31:53.064Z</time></trkpt><trkpt lat="46.2121736" lon="13.2421344"><ele>320.0</ele><time>2026-04-04T12:31:54.065Z</time></trkpt><trkpt lat="46.2122412" lon="13.2421704"><ele>320.0</ele><time>2026-04-04T12:31:55.065Z</time></trkpt><trkpt lat="46.2123069" lon="13.2422266"><ele>320.0</ele><time>2026-04-04T12:31:56.065Z</time></trkpt><trkpt lat="46.2123793" lon="13.2422957"><ele>320.0</ele><time>2026-04-04T12:31:57.064Z</time></trkpt><trkpt lat="46.2124574" lon="13.2423713"><ele>319.8</ele><time>2026-04-04T12:31:58.064Z</time></trkpt><trkpt lat="46.2125419" lon="13.2424473"><ele>319.6</ele><time>2026-04-04T12:31:59.064Z</time></trkpt><trkpt lat="46.2126293" lon="13.2425308"><ele>319.4</ele><time>2026-04-04T12:32:00.065Z</time></trkpt><trkpt lat="46.2127103" lon="13.2426399"><ele>319.2</ele><time>2026-04-04T12:32:01.066Z</time></trkpt><trkpt lat="46.2127939" lon="13.2427588"><ele>319.0</ele><time>2026-04-04T12:32:02.065Z</time></trkpt><trkpt lat="46.2128918" lon="13.2428711"><ele>319.0</ele><time>2026-04-04T12:32:03.065Z</time></trkpt><trkpt lat="46.2130035" lon="13.2429643"><ele>319.0</ele><time>2026-04-04T12:32:04.064Z</time></trkpt><trkpt lat="46.2131036" lon="13.2430408"><ele>319.0</ele><time>2026-04-04T12:32:05.065Z</time></trkpt><trkpt lat="46.2131832" lon="13.2431248"><ele>319.0</ele><time>2026-04-04T12:32:06.065Z</time></trkpt><trkpt lat="46.2132608" lon="13.2432134"><ele>319.0</ele><time>2026-04-04T12:32:07.065Z</time></trkpt><trkpt lat="46.2133404" lon="13.243304"><ele>320.6</ele><time>2026-04-04T12:32:08.065Z</time></trkpt><trkpt lat="46.2134268" lon="13.2433781"><ele>322.2</ele><time>2026-04-04T12:32:09.064Z</time></trkpt><trkpt lat="46.2135149" lon="13.2434345"><ele>323.8</ele><time>2026-04-04T12:32:10.065Z</time></trkpt><trkpt lat="46.2136036" lon="13.24348"><ele>325.40000000000003</ele><time>2026-04-04T12:32:11.064Z</time></trkpt><trkpt lat="46.2136954" lon="13.2435243"><ele>327.0</ele><time>2026-04-04T12:32:12.064Z</time></trkpt><trkpt lat="46.2137866" lon="13.2435639"><ele>327.0</ele><time>2026-04-04T12:32:13.064Z</time></trkpt><trkpt lat="46.2138771" lon="13.2436012"><ele>327.0</ele><time>2026-04-04T12:32:14.065Z</time></trkpt><trkpt lat="46.2139695" lon="13.2436254"><ele>327.0</ele><time>2026-04-04T12:32:15.064Z</time></trkpt><trkpt lat="46.2140607" lon="13.2436425"><ele>327.0</ele><time>2026-04-04T12:32:16.064Z</time></trkpt><trkpt lat="46.2141441" lon="13.2436729"><ele>327.0</ele><time>2026-04-04T12:32:17.065Z</time></trkpt><trkpt lat="46.2142205" lon="13.2437215"><ele>327.0</ele><time>2026-04-04T12:32:18.065Z</time></trkpt><trkpt lat="46.2142847" lon="13.2437804"><ele>329.8333333333333</ele><time>2026-04-04T12:32:19.065Z</time></trkpt><trkpt lat="46.2143745" lon="13.2438626"><ele>332.6666666666667</ele><time>2026-04-04T12:32:21.065Z</time></trkpt><trkpt lat="46.2144425" lon="13.2438899"><ele>335.5</ele><time>2026-04-04T12:32:23.065Z</time></trkpt><trkpt lat="46.2145449" lon="13.2439246"><ele>338.33333333333337</ele><time>2026-04-04T12:32:32.065Z</time></trkpt><trkpt lat="46.2146092" lon="13.2439387"><ele>341.1666666666667</ele><time>2026-04-04T12:32:33.065Z</time></trkpt><trkpt lat="46.2146779" lon="13.2439565"><ele>344.0</ele><time>2026-04-04T12:32:34.065Z</time></trkpt><trkpt lat="46.2147466" lon="13.2439885"><ele>344.0</ele><time>2026-04-04T12:32:35.064Z</time></trkpt><trkpt lat="46.2148159" lon="13.2440389"><ele>344.0</ele><time>2026-04-04T12:32:36.064Z</time></trkpt><trkpt lat="46.2148755" lon="13.2441202"><ele>344.0</ele><time>2026-04-04T12:32:37.065Z</time></trkpt><trkpt lat="46.2149278" lon="13.2442256"><ele>344.0</ele><time>2026-04-04T12:32:38.064Z</time></trkpt><trkpt lat="46.2149709" lon="13.2443311"><ele>344.0</ele><time>2026-04-04T12:32:39.065Z</time></trkpt><trkpt lat="46.2150064" lon="13.2444145"><ele>344.0</ele><time>2026-04-04T12:32:40.064Z</time></trkpt><trkpt lat="46.2150809" lon="13.2445478"><ele>345.83333333333337</ele><time>2026-04-04T12:32:42.065Z</time></trkpt><trkpt lat="46.2151426" lon="13.2446015"><ele>347.6666666666667</ele><time>2026-04-04T12:32:43.065Z</time></trkpt><trkpt lat="46.2152159" lon="13.2446296"><ele>349.5</ele><time>2026-04-04T12:32:44.064Z</time></trkpt><trkpt lat="46.2153042" lon="13.2446462"><ele>351.3333333333333</ele><time>2026-04-04T12:32:45.065Z</time></trkpt><trkpt lat="46.2153995" lon="13.2446579"><ele>353.16666666666663</ele><time>2026-04-04T12:32:46.065Z</time></trkpt><trkpt lat="46.2154939" lon="13.2446708"><ele>355.0</ele><time>2026-04-04T12:32:47.065Z</time></trkpt><trkpt lat="46.215572" lon="13.2446953"><ele>355.0</ele><time>2026-04-04T12:32:48.064Z</time></trkpt><trkpt lat="46.2156366" lon="13.2447206"><ele>355.0</ele><time>2026-04-04T12:32:49.065Z</time></trkpt><trkpt lat="46.2157057" lon="13.2447551"><ele>355.0</ele><time>2026-04-04T12:32:51.064Z</time></trkpt><trkpt lat="46.2157782" lon="13.2447713"><ele>355.0</ele><time>2026-04-04T12:32:55.066Z</time></trkpt><trkpt lat="46.2158464" lon="13.2447917"><ele>355.0</ele><time>2026-04-04T12:33:16.064Z</time></trkpt><trkpt lat="46.2159511" lon="13.2447556"><ele>355.0</ele><time>2026-04-04T12:33:18.064Z</time></trkpt><trkpt lat="46.2160258" lon="13.2447342"><ele>355.2</ele><time>2026-04-04T12:33:19.065Z</time></trkpt><trkpt lat="46.2161067" lon="13.2447083"><ele>355.4</ele><time>2026-04-04T12:33:20.065Z</time></trkpt><trkpt lat="46.2161978" lon="13.2446827"><ele>355.6</ele><time>2026-04-04T12:33:21.065Z</time></trkpt><trkpt lat="46.2162906" lon="13.244663"><ele>355.8</ele><time>2026-04-04T12:33:22.064Z</time></trkpt><trkpt lat="46.216384" lon="13.2446392"><ele>356.0</ele><time>2026-04-04T12:33:23.066Z</time></trkpt><trkpt lat="46.2164726" lon="13.2446146"><ele>355.83333333333337</ele><time>2026-04-04T12:33:24.065Z</time></trkpt><trkpt lat="46.21655" lon="13.2445888"><ele>355.6666666666667</ele><time>2026-04-04T12:33:25.065Z</time></trkpt><trkpt lat="46.2166222" lon="13.24457"><ele>355.5</ele><time>2026-04-04T12:33:26.064Z</time></trkpt><trkpt lat="46.2166957" lon="13.2445566"><ele>355.3333333333333</ele><time>2026-04-04T12:33:27.065Z</time></trkpt><trkpt lat="46.2167728" lon="13.2445459"><ele>355.16666666666663</ele><time>2026-04-04T12:33:28.065Z</time></trkpt><trkpt lat="46.2168568" lon="13.2445468"><ele>355.0</ele><time>2026-04-04T12:33:29.064Z</time></trkpt><trkpt lat="46.2169443" lon="13.2445567"><ele>355.0</ele><time>2026-04-04T12:33:30.066Z</time></trkpt><trkpt lat="46.2170308" lon="13.2445774"><ele>355.0</ele><time>2026-04-04T12:33:31.065Z</time></trkpt><trkpt lat="46.2171247" lon="13.2446085"><ele>355.0</ele><time>2026-04-04T12:33:32.064Z</time></trkpt><trkpt lat="46.2172146" lon="13.2446551"><ele>355.0</ele><time>2026-04-04T12:33:33.064Z</time></trkpt><trkpt lat="46.2173033" lon="13.2447062"><ele>355.0</ele><time>2026-04-04T12:33:34.065Z</time></trkpt><trkpt lat="46.2174008" lon="13.2447529"><ele>355.2</ele><time>2026-04-04T12:33:35.065Z</time></trkpt><trkpt lat="46.2175" lon="13.2447896"><ele>355.4</ele><time>2026-04-04T12:33:36.065Z</time></trkpt><trkpt lat="46.2176012" lon="13.2448192"><ele>355.6</ele><time>2026-04-04T12:33:37.065Z</time></trkpt><trkpt lat="46.2177052" lon="13.2448322"><ele>355.8</ele><time>2026-04-04T12:33:38.064Z</time></trkpt><trkpt lat="46.2178103" lon="13.2448299"><ele>356.0</ele><time>2026-04-04T12:33:39.064Z</time></trkpt><trkpt lat="46.217914" lon="13.2448111"><ele>356.6</ele><time>2026-04-04T12:33:40.064Z</time></trkpt><trkpt lat="46.2180133" lon="13.2447823"><ele>357.20000000000005</ele><time>2026-04-04T12:33:41.064Z</time></trkpt><trkpt lat="46.2181095" lon="13.2447709"><ele>357.79999999999995</ele><time>2026-04-04T12:33:42.064Z</time></trkpt><trkpt lat="46.2181981" lon="13.2447889"><ele>358.4</ele><time>2026-04-04T12:33:43.065Z</time></trkpt><trkpt lat="46.2182808" lon="13.2448233"><ele>359.0</ele><time>2026-04-04T12:33:44.065Z</time></trkpt><trkpt lat="46.2183594" lon="13.2448672"><ele>359.0</ele><time>2026-04-04T12:33:45.065Z</time></trkpt><trkpt lat="46.2184349" lon="13.2449126"><ele>359.0</ele><time>2026-04-04T12:33:46.064Z</time></trkpt><trkpt lat="46.2185121" lon="13.2449336"><ele>359.0</ele><time>2026-04-04T12:33:47.065Z</time></trkpt><trkpt lat="46.2185972" lon="13.2449191"><ele>359.0</ele><time>2026-04-04T12:33:48.065Z</time></trkpt><trkpt lat="46.2186827" lon="13.2448817"><ele>359.0</ele><time>2026-04-04T12:33:49.065Z</time></trkpt><trkpt lat="46.2187679" lon="13.2448343"><ele>359.0</ele><time>2026-04-04T12:33:50.065Z</time></trkpt><trkpt lat="46.2188519" lon="13.2447871"><ele>360.33333333333337</ele><time>2026-04-04T12:33:51.066Z</time></trkpt><trkpt lat="46.2189305" lon="13.2447345"><ele>361.6666666666667</ele><time>2026-04-04T12:33:52.065Z</time></trkpt><trkpt lat="46.2189998" lon="13.2446699"><ele>363.0</ele><time>2026-04-04T12:33:53.065Z</time></trkpt><trkpt lat="46.2190593" lon="13.2445878"><ele>364.3333333333333</ele><time>2026-04-04T12:33:54.064Z</time></trkpt><trkpt lat="46.2191067" lon="13.2444834"><ele>365.66666666666663</ele><time>2026-04-04T12:33:55.065Z</time></trkpt><trkpt lat="46.2191522" lon="13.2443668"><ele>367.0</ele><time>2026-04-04T12:33:56.064Z</time></trkpt><trkpt lat="46.2192184" lon="13.2442577"><ele>367.0</ele><time>2026-04-04T12:33:57.066Z</time></trkpt><trkpt lat="46.2193055" lon="13.2441621"><ele>367.0</ele><time>2026-04-04T12:33:58.065Z</time></trkpt><trkpt lat="46.219399" lon="13.2440776"><ele>367.0</ele><time>2026-04-04T12:33:59.064Z</time></trkpt><trkpt lat="46.2194858" lon="13.2439955"><ele>367.0</ele><time>2026-04-04T12:34:00.065Z</time></trkpt><trkpt lat="46.2195657" lon="13.2439232"><ele>367.0</ele><time>2026-04-04T12:34:01.065Z</time></trkpt><trkpt lat="46.2196393" lon="13.243871"><ele>367.0</ele><time>2026-04-04T12:34:02.064Z</time></trkpt><trkpt lat="46.2197145" lon="13.2438456"><ele>367.0</ele><time>2026-04-04T12:34:03.065Z</time></trkpt><trkpt lat="46.2197835" lon="13.2438511"><ele>367.0</ele><time>2026-04-04T12:34:04.064Z</time></trkpt><trkpt lat="46.2198704" lon="13.2438655"><ele>367.0</ele><time>2026-04-04T12:34:06.065Z</time></trkpt><trkpt lat="46.2199336" lon="13.2438912"><ele>367.0</ele><time>2026-04-04T12:34:08.065Z</time></trkpt><trkpt lat="46.2200042" lon="13.2439895"><ele>367.0</ele><time>2026-04-04T12:34:11.064Z</time></trkpt><trkpt lat="46.2200613" lon="13.2441591"><ele>365.0</ele><time>2026-04-04T12:34:13.064Z</time></trkpt><trkpt lat="46.2200947" lon="13.2442654"><ele>363.0</ele><time>2026-04-04T12:34:14.064Z</time></trkpt><trkpt lat="46.2201362" lon="13.2443859"><ele>361.0</ele><time>2026-04-04T12:34:15.066Z</time></trkpt><trkpt lat="46.2201862" lon="13.2445047"><ele>359.0</ele><time>2026-04-04T12:34:16.065Z</time></trkpt><trkpt lat="46.220258" lon="13.2446144"><ele>357.0</ele><time>2026-04-04T12:34:17.065Z</time></trkpt><trkpt lat="46.2203508" lon="13.2447067"><ele>357.0</ele><time>2026-04-04T12:34:18.065Z</time></trkpt><trkpt lat="46.2204554" lon="13.2447947"><ele>357.0</ele><time>2026-04-04T12:34:19.065Z</time></trkpt><trkpt lat="46.2205705" lon="13.2448877"><ele>357.0</ele><time>2026-04-04T12:34:20.065Z</time></trkpt><trkpt lat="46.2206959" lon="13.2449794"><ele>357.0</ele><time>2026-04-04T12:34:21.064Z</time></trkpt><trkpt lat="46.220832" lon="13.2450693"><ele>354.75</ele><time>2026-04-04T12:34:22.065Z</time></trkpt><trkpt lat="46.22097" lon="13.2451605"><ele>352.5</ele><time>2026-04-04T12:34:23.064Z</time></trkpt><trkpt lat="46.2211008" lon="13.245251"><ele>350.25</ele><time>2026-04-04T12:34:24.065Z</time></trkpt><trkpt lat="46.2212224" lon="13.2453399"><ele>348.0</ele><time>2026-04-04T12:34:25.064Z</time></trkpt><trkpt lat="46.2213346" lon="13.2454411"><ele>348.0</ele><time>2026-04-04T12:34:26.064Z</time></trkpt><trkpt lat="46.2214411" lon="13.2455666"><ele>348.0</ele><time>2026-04-04T12:34:27.065Z</time></trkpt><trkpt lat="46.2215415" lon="13.2457056"><ele>348.0</ele><time>2026-04-04T12:34:28.066Z</time></trkpt><trkpt lat="46.2216434" lon="13.2458389"><ele>348.0</ele><time>2026-04-04T12:34:29.065Z</time></trkpt><trkpt lat="46.2217375" lon="13.2459654"><ele>347.5</ele><time>2026-04-04T12:34:30.064Z</time></trkpt><trkpt lat="46.2218197" lon="13.2460919"><ele>347.0</ele><time>2026-04-04T12:34:31.064Z</time></trkpt><trkpt lat="46.2218972" lon="13.2462229"><ele>346.5</ele><time>2026-04-04T12:34:32.065Z</time></trkpt><trkpt lat="46.2219648" lon="13.2463611"><ele>346.0</ele><time>2026-04-04T12:34:33.066Z</time></trkpt><trkpt lat="46.2220276" lon="13.2465006"><ele>345.5</ele><time>2026-04-04T12:34:34.065Z</time></trkpt><trkpt lat="46.2220904" lon="13.2466396"><ele>345.0</ele><time>2026-04-04T12:34:35.065Z</time></trkpt><trkpt lat="46.222164" lon="13.2467674"><ele>344.5</ele><time>2026-04-04T12:34:36.065Z</time></trkpt><trkpt lat="46.2222568" lon="13.2468746"><ele>344.0</ele><time>2026-04-04T12:34:37.065Z</time></trkpt><trkpt lat="46.2223634" lon="13.2469631"><ele>346.5</ele><time>2026-04-04T12:34:38.065Z</time></trkpt><trkpt lat="46.2224782" lon="13.2470404"><ele>349.0</ele><time>2026-04-04T12:34:39.064Z</time></trkpt><trkpt lat="46.2226038" lon="13.2471019"><ele>351.5</ele><time>2026-04-04T12:34:40.064Z</time></trkpt><trkpt lat="46.2227334" lon="13.247151"><ele>354.0</ele><time>2026-04-04T12:34:41.065Z</time></trkpt><trkpt lat="46.2228657" lon="13.2471986"><ele>354.0</ele><time>2026-04-04T12:34:42.065Z</time></trkpt><trkpt lat="46.2229989" lon="13.2472441"><ele>354.0</ele><time>2026-04-04T12:34:43.064Z</time></trkpt><trkpt lat="46.2231288" lon="13.2472979"><ele>354.0</ele><time>2026-04-04T12:34:44.064Z</time></trkpt><trkpt lat="46.223244" lon="13.2473508"><ele>354.0</ele><time>2026-04-04T12:34:45.064Z</time></trkpt><trkpt lat="46.2233419" lon="13.2474026"><ele>355.6666666666667</ele><time>2026-04-04T12:34:46.065Z</time></trkpt><trkpt lat="46.2234216" lon="13.2474521"><ele>357.3333333333333</ele><time>2026-04-04T12:34:47.065Z</time></trkpt><trkpt lat="46.2234911" lon="13.2474946"><ele>359.0</ele><time>2026-04-04T12:34:48.065Z</time></trkpt><trkpt lat="46.2235536" lon="13.2475293"><ele>360.66666666666663</ele><time>2026-04-04T12:34:49.065Z</time></trkpt><trkpt lat="46.2236469" lon="13.2475813"><ele>362.3333333333333</ele><time>2026-04-04T12:34:51.065Z</time></trkpt><trkpt lat="46.223742" lon="13.2476526"><ele>364.0</ele><time>2026-04-04T12:34:53.065Z</time></trkpt><trkpt lat="46.2238038" lon="13.247808"><ele>364.0</ele><time>2026-04-04T12:34:55.064Z</time></trkpt><trkpt lat="46.223817" lon="13.2479128"><ele>364.0</ele><time>2026-04-04T12:34:56.065Z</time></trkpt><trkpt lat="46.2238226" lon="13.2480366"><ele>364.0</ele><time>2026-04-04T12:34:57.065Z</time></trkpt><trkpt lat="46.223825" lon="13.2481762"><ele>364.0</ele><time>2026-04-04T12:34:58.064Z</time></trkpt><trkpt lat="46.2238225" lon="13.2483221"><ele>364.0</ele><time>2026-04-04T12:34:59.064Z</time></trkpt><trkpt lat="46.2238206" lon="13.2484719"><ele>363.0</ele><time>2026-04-04T12:35:00.065Z</time></trkpt><trkpt lat="46.2238161" lon="13.2486248"><ele>362.0</ele><time>2026-04-04T12:35:01.065Z</time></trkpt><trkpt lat="46.2237952" lon="13.2487819"><ele>361.0</ele><time>2026-04-04T12:35:02.064Z</time></trkpt><trkpt lat="46.223759" lon="13.2489223"><ele>360.0</ele><time>2026-04-04T12:35:03.064Z</time></trkpt><trkpt lat="46.2237208" lon="13.2490555"><ele>359.0</ele><time>2026-04-04T12:35:04.065Z</time></trkpt><trkpt lat="46.2236919" lon="13.2491936"><ele>358.79999999999995</ele><time>2026-04-04T12:35:05.065Z</time></trkpt><trkpt lat="46.2236688" lon="13.249337"><ele>358.59999999999997</ele><time>2026-04-04T12:35:06.065Z</time></trkpt><trkpt lat="46.2236331" lon="13.2494614"><ele>358.4</ele><time>2026-04-04T12:35:07.064Z</time></trkpt><trkpt lat="46.2235806" lon="13.2495625"><ele>358.2</ele><time>2026-04-04T12:35:08.065Z</time></trkpt><trkpt lat="46.2235103" lon="13.2496558"><ele>358.0</ele><time>2026-04-04T12:35:09.065Z</time></trkpt><trkpt lat="46.2234303" lon="13.249742"><ele>361.0</ele><time>2026-04-04T12:35:10.064Z</time></trkpt><trkpt lat="46.2233575" lon="13.2498578"><ele>364.0</ele><time>2026-04-04T12:35:11.065Z</time></trkpt><trkpt lat="46.2233039" lon="13.2500051"><ele>367.0</ele><time>2026-04-04T12:35:12.064Z</time></trkpt><trkpt lat="46.223252" lon="13.2501561"><ele>370.0</ele><time>2026-04-04T12:35:13.066Z</time></trkpt><trkpt lat="46.2231685" lon="13.250298"><ele>364.0</ele><time>2026-04-04T12:35:14.065Z</time></trkpt><trkpt lat="46.2230748" lon="13.2504333"><ele>358.0</ele><time>2026-04-04T12:35:15.066Z</time></trkpt><trkpt lat="46.2229782" lon="13.2505491"><ele>352.0</ele><time>2026-04-04T12:35:16.065Z</time></trkpt><trkpt lat="46.22288" lon="13.2506334"><ele>346.0</ele><time>2026-04-04T12:35:17.066Z</time></trkpt><trkpt lat="46.2227774" lon="13.2506958"><ele>346.0</ele><time>2026-04-04T12:35:18.065Z</time></trkpt><trkpt lat="46.2226884" lon="13.2507377"><ele>346.0</ele><time>2026-04-04T12:35:19.064Z</time></trkpt><trkpt lat="46.222619" lon="13.2507914"><ele>346.0</ele><time>2026-04-04T12:35:20.066Z</time></trkpt><trkpt lat="46.2225675" lon="13.2508687"><ele>346.0</ele><time>2026-04-04T12:35:21.064Z</time></trkpt><trkpt lat="46.2225459" lon="13.2509689"><ele>346.0</ele><time>2026-04-04T12:35:22.065Z</time></trkpt><trkpt lat="46.222554" lon="13.2510773"><ele>346.0</ele><time>2026-04-04T12:35:23.065Z</time></trkpt><trkpt lat="46.2225919" lon="13.251181"><ele>346.0</ele><time>2026-04-04T12:35:24.065Z</time></trkpt><trkpt lat="46.2226416" lon="13.2512868"><ele>346.0</ele><time>2026-04-04T12:35:25.065Z</time></trkpt><trkpt lat="46.2226808" lon="13.2514198"><ele>346.0</ele><time>2026-04-04T12:35:26.064Z</time></trkpt><trkpt lat="46.2226903" lon="13.2515683"><ele>346.0</ele><time>2026-04-04T12:35:27.064Z</time></trkpt><trkpt lat="46.2226811" lon="13.2517144"><ele>346.0</ele><time>2026-04-04T12:35:28.065Z</time></trkpt><trkpt lat="46.2226544" lon="13.2518509"><ele>345.4</ele><time>2026-04-04T12:35:29.064Z</time></trkpt><trkpt lat="46.2226073" lon="13.2519721"><ele>344.8</ele><time>2026-04-04T12:35:30.065Z</time></trkpt><trkpt lat="46.2225628" lon="13.2520847"><ele>344.2</ele><time>2026-04-04T12:35:31.065Z</time></trkpt><trkpt lat="46.2225399" lon="13.2522111"><ele>343.59999999999997</ele><time>2026-04-04T12:35:32.065Z</time></trkpt><trkpt lat="46.2225351" lon="13.2523408"><ele>343.0</ele><time>2026-04-04T12:35:33.064Z</time></trkpt><trkpt lat="46.2225494" lon="13.2524828"><ele>343.4</ele><time>2026-04-04T12:35:34.065Z</time></trkpt><trkpt lat="46.2225711" lon="13.2526372"><ele>343.79999999999995</ele><time>2026-04-04T12:35:35.064Z</time></trkpt><trkpt lat="46.2225934" lon="13.2527984"><ele>344.2</ele><time>2026-04-04T12:35:36.065Z</time></trkpt><trkpt lat="46.2226073" lon="13.2529604"><ele>344.6</ele><time>2026-04-04T12:35:37.065Z</time></trkpt><trkpt lat="46.2226005" lon="13.2531212"><ele>345.0</ele><time>2026-04-04T12:35:38.065Z</time></trkpt><trkpt lat="46.2225642" lon="13.2532721"><ele>345.0</ele><time>2026-04-04T12:35:39.065Z</time></trkpt><trkpt lat="46.2225078" lon="13.2534036"><ele>345.0</ele><time>2026-04-04T12:35:40.064Z</time></trkpt><trkpt lat="46.2224325" lon="13.2535121"><ele>345.0</ele><time>2026-04-04T12:35:41.065Z</time></trkpt><trkpt lat="46.2223396" lon="13.2535835"><ele>345.0</ele><time>2026-04-04T12:35:42.065Z</time></trkpt><trkpt lat="46.2222414" lon="13.2536278"><ele>345.0</ele><time>2026-04-04T12:35:43.064Z</time></trkpt><trkpt lat="46.2221418" lon="13.2536585"><ele>341.3333333333333</ele><time>2026-04-04T12:35:44.065Z</time></trkpt><trkpt lat="46.2220598" lon="13.2536821"><ele>337.6666666666667</ele><time>2026-04-04T12:35:45.064Z</time></trkpt><trkpt lat="46.2219894" lon="13.2537201"><ele>334.0</ele><time>2026-04-04T12:35:46.066Z</time></trkpt><trkpt lat="46.2219324" lon="13.2537933"><ele>330.33333333333337</ele><time>2026-04-04T12:35:47.065Z</time></trkpt><trkpt lat="46.2219056" lon="13.2538922"><ele>326.6666666666667</ele><time>2026-04-04T12:35:48.065Z</time></trkpt><trkpt lat="46.2219102" lon="13.2540082"><ele>323.0</ele><time>2026-04-04T12:35:49.064Z</time></trkpt><trkpt lat="46.2219282" lon="13.2541422"><ele>323.0</ele><time>2026-04-04T12:35:50.064Z</time></trkpt><trkpt lat="46.221945" lon="13.2542889"><ele>323.0</ele><time>2026-04-04T12:35:51.065Z</time></trkpt><trkpt lat="46.2219606" lon="13.2544257"><ele>323.0</ele><time>2026-04-04T12:35:52.064Z</time></trkpt><trkpt lat="46.2219773" lon="13.2545391"><ele>323.0</ele><time>2026-04-04T12:35:53.065Z</time></trkpt><trkpt lat="46.2220005" lon="13.2546436"><ele>323.0</ele><time>2026-04-04T12:35:54.064Z</time></trkpt><trkpt lat="46.2220369" lon="13.254738"><ele>323.0</ele><time>2026-04-04T12:35:55.064Z</time></trkpt><trkpt lat="46.2220871" lon="13.2548007"><ele>322.5</ele><time>2026-04-04T12:35:56.064Z</time></trkpt><trkpt lat="46.2221485" lon="13.2548536"><ele>322.0</ele><time>2026-04-04T12:35:57.064Z</time></trkpt><trkpt lat="46.2222052" lon="13.2549262"><ele>321.5</ele><time>2026-04-04T12:35:58.065Z</time></trkpt><trkpt lat="46.2222538" lon="13.2550192"><ele>321.0</ele><time>2026-04-04T12:35:59.064Z</time></trkpt><trkpt lat="46.2222807" lon="13.2551375"><ele>320.5</ele><time>2026-04-04T12:36:00.064Z</time></trkpt><trkpt lat="46.2223" lon="13.2552666"><ele>320.0</ele><time>2026-04-04T12:36:01.064Z</time></trkpt><trkpt lat="46.2223202" lon="13.2554013"><ele>325.4</ele><time>2026-04-04T12:36:02.065Z</time></trkpt><trkpt lat="46.2223362" lon="13.2555339"><ele>330.8</ele><time>2026-04-04T12:36:03.064Z</time></trkpt><trkpt lat="46.222358" lon="13.2556698"><ele>336.20000000000005</ele><time>2026-04-04T12:36:04.064Z</time></trkpt><trkpt lat="46.2223846" lon="13.2557995"><ele>341.6</ele><time>2026-04-04T12:36:05.064Z</time></trkpt><trkpt lat="46.2224102" lon="13.2559278"><ele>347.0</ele><time>2026-04-04T12:36:06.064Z</time></trkpt><trkpt lat="46.222426" lon="13.2560645"><ele>347.0</ele><time>2026-04-04T12:36:07.064Z</time></trkpt><trkpt lat="46.222427" lon="13.2562051"><ele>347.0</ele><time>2026-04-04T12:36:08.064Z</time></trkpt><trkpt lat="46.222415" lon="13.2563466"><ele>347.0</ele><time>2026-04-04T12:36:09.065Z</time></trkpt><trkpt lat="46.2224011" lon="13.2564891"><ele>347.0</ele><time>2026-04-04T12:36:10.066Z</time></trkpt><trkpt lat="46.2223895" lon="13.256635"><ele>347.0</ele><time>2026-04-04T12:36:11.064Z</time></trkpt><trkpt lat="46.2223748" lon="13.2567846"><ele>347.6</ele><time>2026-04-04T12:36:12.064Z</time></trkpt><trkpt lat="46.2223613" lon="13.2569353"><ele>348.20000000000005</ele><time>2026-04-04T12:36:13.065Z</time></trkpt><trkpt lat="46.2223553" lon="13.2570815"><ele>348.8</ele><time>2026-04-04T12:36:14.065Z</time></trkpt><trkpt lat="46.2223534" lon="13.2572198"><ele>349.4</ele><time>2026-04-04T12:36:15.066Z</time></trkpt><trkpt lat="46.2223545" lon="13.2573613"><ele>350.0</ele><time>2026-04-04T12:36:16.064Z</time></trkpt><trkpt lat="46.2223538" lon="13.2574983"><ele>351.0</ele><time>2026-04-04T12:36:17.065Z</time></trkpt><trkpt lat="46.2223523" lon="13.2576406"><ele>352.0</ele><time>2026-04-04T12:36:18.065Z</time></trkpt><trkpt lat="46.2223465" lon="13.2577716"><ele>353.0</ele><time>2026-04-04T12:36:19.064Z</time></trkpt><trkpt lat="46.2223311" lon="13.2578939"><ele>354.0</ele><time>2026-04-04T12:36:20.065Z</time></trkpt><trkpt lat="46.2223087" lon="13.2580173"><ele>355.0</ele><time>2026-04-04T12:36:21.064Z</time></trkpt><trkpt lat="46.2222797" lon="13.2581359"><ele>349.2</ele><time>2026-04-04T12:36:22.064Z</time></trkpt><trkpt lat="46.2222506" lon="13.2582499"><ele>343.4</ele><time>2026-04-04T12:36:23.065Z</time></trkpt><trkpt lat="46.2222215" lon="13.2583654"><ele>337.6</ele><time>2026-04-04T12:36:24.065Z</time></trkpt><trkpt lat="46.2221889" lon="13.2584891"><ele>331.8</ele><time>2026-04-04T12:36:25.065Z</time></trkpt><trkpt lat="46.2221493" lon="13.2586147"><ele>326.0</ele><time>2026-04-04T12:36:26.065Z</time></trkpt><trkpt lat="46.2221028" lon="13.2587389"><ele>326.0</ele><time>2026-04-04T12:36:27.066Z</time></trkpt><trkpt lat="46.2220514" lon="13.2588641"><ele>326.0</ele><time>2026-04-04T12:36:28.065Z</time></trkpt><trkpt lat="46.221996" lon="13.2589781"><ele>326.0</ele><time>2026-04-04T12:36:29.065Z</time></trkpt><trkpt lat="46.2219419" lon="13.2590703"><ele>326.0</ele><time>2026-04-04T12:36:30.066Z</time></trkpt><trkpt lat="46.221892" lon="13.2591456"><ele>326.0</ele><time>2026-04-04T12:36:31.066Z</time></trkpt><trkpt lat="46.2218441" lon="13.2592267"><ele>326.0</ele><time>2026-04-04T12:36:32.066Z</time></trkpt><trkpt lat="46.2217969" lon="13.2593202"><ele>329.20000000000005</ele><time>2026-04-04T12:36:33.064Z</time></trkpt><trkpt lat="46.2217656" lon="13.2594304"><ele>332.40000000000003</ele><time>2026-04-04T12:36:34.066Z</time></trkpt><trkpt lat="46.2217571" lon="13.259552"><ele>335.6</ele><time>2026-04-04T12:36:35.065Z</time></trkpt><trkpt lat="46.2217698" lon="13.2596851"><ele>338.8</ele><time>2026-04-04T12:36:36.064Z</time></trkpt><trkpt lat="46.2217917" lon="13.2598246"><ele>342.0</ele><time>2026-04-04T12:36:37.065Z</time></trkpt><trkpt lat="46.2218149" lon="13.2599725"><ele>344.5</ele><time>2026-04-04T12:36:38.065Z</time></trkpt><trkpt lat="46.2218282" lon="13.2601261"><ele>347.0</ele><time>2026-04-04T12:36:39.065Z</time></trkpt><trkpt lat="46.2218224" lon="13.2602861"><ele>349.5</ele><time>2026-04-04T12:36:40.066Z</time></trkpt><trkpt lat="46.2218059" lon="13.260453"><ele>352.0</ele><time>2026-04-04T12:36:41.066Z</time></trkpt><trkpt lat="46.2217862" lon="13.2606258"><ele>353.8</ele><time>2026-04-04T12:36:42.064Z</time></trkpt><trkpt lat="46.2217706" lon="13.2608008"><ele>355.6</ele><time>2026-04-04T12:36:43.064Z</time></trkpt><trkpt lat="46.2217683" lon="13.2609648"><ele>357.40000000000003</ele><time>2026-04-04T12:36:44.064Z</time></trkpt><trkpt lat="46.2217756" lon="13.2611153"><ele>359.20000000000005</ele><time>2026-04-04T12:36:45.065Z</time></trkpt><trkpt lat="46.2217796" lon="13.2612624"><ele>361.0</ele><time>2026-04-04T12:36:46.064Z</time></trkpt><trkpt lat="46.2217735" lon="13.2614112"><ele>363.20000000000005</ele><time>2026-04-04T12:36:47.065Z</time></trkpt><trkpt lat="46.2217591" lon="13.2615652"><ele>365.40000000000003</ele><time>2026-04-04T12:36:48.065Z</time></trkpt><trkpt lat="46.2217362" lon="13.2617224"><ele>367.6</ele><time>2026-04-04T12:36:49.064Z</time></trkpt><trkpt lat="46.2217111" lon="13.261866"><ele>369.8</ele><time>2026-04-04T12:36:50.065Z</time></trkpt><trkpt lat="46.2216842" lon="13.2620053"><ele>372.0</ele><time>2026-04-04T12:36:51.064Z</time></trkpt><trkpt lat="46.2216591" lon="13.2621449"><ele>373.0</ele><time>2026-04-04T12:36:52.065Z</time></trkpt><trkpt lat="46.2216357" lon="13.2622868"><ele>374.0</ele><time>2026-04-04T12:36:53.064Z</time></trkpt><trkpt lat="46.2216135" lon="13.2624307"><ele>375.0</ele><time>2026-04-04T12:36:54.065Z</time></trkpt><trkpt lat="46.2215915" lon="13.2625762"><ele>376.0</ele><time>2026-04-04T12:36:55.065Z</time></trkpt><trkpt lat="46.2215677" lon="13.2627214"><ele>377.0</ele><time>2026-04-04T12:36:56.065Z</time></trkpt><trkpt lat="46.2215422" lon="13.2628631"><ele>377.0</ele><time>2026-04-04T12:36:57.064Z</time></trkpt><trkpt lat="46.2215311" lon="13.2629981"><ele>377.0</ele><time>2026-04-04T12:36:58.064Z</time></trkpt><trkpt lat="46.2215323" lon="13.2631458"><ele>377.0</ele><time>2026-04-04T12:36:59.065Z</time></trkpt><trkpt lat="46.2215396" lon="13.2632987"><ele>377.0</ele><time>2026-04-04T12:37:00.066Z</time></trkpt><trkpt lat="46.2215439" lon="13.2634568"><ele>377.0</ele><time>2026-04-04T12:37:01.065Z</time></trkpt><trkpt lat="46.22155" lon="13.2635997"><ele>376.6</ele><time>2026-04-04T12:37:02.065Z</time></trkpt><trkpt lat="46.2215571" lon="13.2637303"><ele>376.20000000000005</ele><time>2026-04-04T12:37:03.065Z</time></trkpt><trkpt lat="46.2215662" lon="13.2638524"><ele>375.8</ele><time>2026-04-04T12:37:04.065Z</time></trkpt><trkpt lat="46.2215939" lon="13.2639805"><ele>375.4</ele><time>2026-04-04T12:37:05.064Z</time></trkpt><trkpt lat="46.221638" lon="13.2641091"><ele>375.0</ele><time>2026-04-04T12:37:06.065Z</time></trkpt><trkpt lat="46.2216923" lon="13.2642339"><ele>376.75</ele><time>2026-04-04T12:37:07.065Z</time></trkpt><trkpt lat="46.22175" lon="13.2643686"><ele>378.5</ele><time>2026-04-04T12:37:08.065Z</time></trkpt><trkpt lat="46.2217896" lon="13.2645171"><ele>380.25</ele><time>2026-04-04T12:37:09.065Z</time></trkpt><trkpt lat="46.2218112" lon="13.2646832"><ele>382.0</ele><time>2026-04-04T12:37:10.064Z</time></trkpt><trkpt lat="46.2218214" lon="13.2648637"><ele>382.75</ele><time>2026-04-04T12:37:11.065Z</time></trkpt><trkpt lat="46.2218325" lon="13.2650469"><ele>383.5</ele><time>2026-04-04T12:37:12.065Z</time></trkpt><trkpt lat="46.2218447" lon="13.2652305"><ele>384.25</ele><time>2026-04-04T12:37:13.065Z</time></trkpt><trkpt lat="46.2218576" lon="13.2654153"><ele>385.0</ele><time>2026-04-04T12:37:14.064Z</time></trkpt><trkpt lat="46.2218687" lon="13.2655934"><ele>384.0</ele><time>2026-04-04T12:37:15.064Z</time></trkpt><trkpt lat="46.221879" lon="13.2657564"><ele>383.0</ele><time>2026-04-04T12:37:16.066Z</time></trkpt><trkpt lat="46.2218877" lon="13.2659146"><ele>382.0</ele><time>2026-04-04T12:37:17.065Z</time></trkpt><trkpt lat="46.2218933" lon="13.2660696"><ele>381.0</ele><time>2026-04-04T12:37:18.064Z</time></trkpt><trkpt lat="46.2218938" lon="13.2662357"><ele>380.0</ele><time>2026-04-04T12:37:19.065Z</time></trkpt><trkpt lat="46.2218952" lon="13.266411"><ele>380.75</ele><time>2026-04-04T12:37:20.064Z</time></trkpt><trkpt lat="46.2219097" lon="13.2666052"><ele>381.5</ele><time>2026-04-04T12:37:21.064Z</time></trkpt><trkpt lat="46.2219328" lon="13.2668061"><ele>382.25</ele><time>2026-04-04T12:37:22.064Z</time></trkpt><trkpt lat="46.2219552" lon="13.2670046"><ele>383.0</ele><time>2026-04-04T12:37:23.065Z</time></trkpt><trkpt lat="46.2219768" lon="13.2671965"><ele>382.5</ele><time>2026-04-04T12:37:24.066Z</time></trkpt><trkpt lat="46.2220027" lon="13.2673713"><ele>382.0</ele><time>2026-04-04T12:37:25.065Z</time></trkpt><trkpt lat="46.2220259" lon="13.2675428"><ele>381.5</ele><time>2026-04-04T12:37:26.064Z</time></trkpt><trkpt lat="46.2220413" lon="13.2677089"><ele>381.0</ele><time>2026-04-04T12:37:27.065Z</time></trkpt><trkpt lat="46.2220462" lon="13.2678858"><ele>381.0</ele><time>2026-04-04T12:37:28.064Z</time></trkpt><trkpt lat="46.2220493" lon="13.2680672"><ele>381.0</ele><time>2026-04-04T12:37:29.064Z</time></trkpt><trkpt lat="46.2220546" lon="13.2682527"><ele>381.0</ele><time>2026-04-04T12:37:30.065Z</time></trkpt><trkpt lat="46.2220689" lon="13.2684385"><ele>381.0</ele><time>2026-04-04T12:37:31.064Z</time></trkpt><trkpt lat="46.2220914" lon="13.2686309"><ele>376.75</ele><time>2026-04-04T12:37:32.065Z</time></trkpt><trkpt lat="46.2221282" lon="13.2688307"><ele>372.5</ele><time>2026-04-04T12:37:33.065Z</time></trkpt><trkpt lat="46.2221699" lon="13.2690246"><ele>368.25</ele><time>2026-04-04T12:37:34.064Z</time></trkpt><trkpt lat="46.2222072" lon="13.2691927"><ele>364.0</ele><time>2026-04-04T12:37:35.064Z</time></trkpt><trkpt lat="46.222241" lon="13.2693415"><ele>362.2857142857143</ele><time>2026-04-04T12:37:36.065Z</time></trkpt><trkpt lat="46.2222717" lon="13.2694693"><ele>360.57142857142856</ele><time>2026-04-04T12:37:37.064Z</time></trkpt><trkpt lat="46.2222939" lon="13.2695808"><ele>358.8571428571429</ele><time>2026-04-04T12:37:38.064Z</time></trkpt><trkpt lat="46.2223115" lon="13.2696789"><ele>357.1428571428571</ele><time>2026-04-04T12:37:39.066Z</time></trkpt><trkpt lat="46.2223288" lon="13.269771"><ele>355.42857142857144</ele><time>2026-04-04T12:37:40.065Z</time></trkpt><trkpt lat="46.22234" lon="13.2698633"><ele>353.7142857142857</ele><time>2026-04-04T12:37:41.066Z</time></trkpt><trkpt lat="46.2223499" lon="13.2699636"><ele>352.0</ele><time>2026-04-04T12:37:42.064Z</time></trkpt><trkpt lat="46.2223633" lon="13.2700685"><ele>352.0</ele><time>2026-04-04T12:37:43.065Z</time></trkpt><trkpt lat="46.2223747" lon="13.2701815"><ele>352.0</ele><time>2026-04-04T12:37:44.065Z</time></trkpt><trkpt lat="46.2223874" lon="13.2703004"><ele>352.0</ele><time>2026-04-04T12:37:45.065Z</time></trkpt><trkpt lat="46.2224005" lon="13.2704224"><ele>352.0</ele><time>2026-04-04T12:37:46.064Z</time></trkpt><trkpt lat="46.2224133" lon="13.2705368"><ele>352.0</ele><time>2026-04-04T12:37:47.064Z</time></trkpt><trkpt lat="46.2224234" lon="13.2706313"><ele>352.0</ele><time>2026-04-04T12:37:48.064Z</time></trkpt><trkpt lat="46.2224403" lon="13.2707649"><ele>352.0</ele><time>2026-04-04T12:37:50.066Z</time></trkpt><trkpt lat="46.2224531" lon="13.2708544"><ele>352.0</ele><time>2026-04-04T12:37:52.064Z</time></trkpt><trkpt lat="46.2224674" lon="13.2709582"><ele>352.0</ele><time>2026-04-04T12:37:57.064Z</time></trkpt><trkpt lat="46.2224924" lon="13.2710473"><ele>352.0</ele><time>2026-04-04T12:43:45.064Z</time></trkpt><trkpt lat="46.22252" lon="13.2712255"><ele>352.0</ele><time>2026-04-04T12:43:47.063Z</time></trkpt><trkpt lat="46.2225454" lon="13.2713346"><ele>352.0</ele><time>2026-04-04T12:43:48.063Z</time></trkpt><trkpt lat="46.2225819" lon="13.2714526"><ele>352.0</ele><time>2026-04-04T12:43:49.065Z</time></trkpt><trkpt lat="46.222622" lon="13.2715703"><ele>352.0</ele><time>2026-04-04T12:43:50.064Z</time></trkpt><trkpt lat="46.2226539" lon="13.2716616"><ele>352.0</ele><time>2026-04-04T12:43:51.063Z</time></trkpt><trkpt lat="46.2227094" lon="13.2718249"><ele>352.0</ele><time>2026-04-04T12:43:53.063Z</time></trkpt><trkpt lat="46.2227464" lon="13.2719186"><ele>352.0</ele><time>2026-04-04T12:43:54.063Z</time></trkpt><trkpt lat="46.2227889" lon="13.2720167"><ele>352.0</ele><time>2026-04-04T12:43:55.063Z</time></trkpt><trkpt lat="46.2228292" lon="13.2721283"><ele>352.0</ele><time>2026-04-04T12:43:56.065Z</time></trkpt><trkpt lat="46.222862" lon="13.2722498"><ele>352.0</ele><time>2026-04-04T12:43:57.064Z</time></trkpt><trkpt lat="46.2228878" lon="13.2723841"><ele>352.0</ele><time>2026-04-04T12:43:58.063Z</time></trkpt><trkpt lat="46.2229121" lon="13.2725221"><ele>352.0</ele><time>2026-04-04T12:43:59.064Z</time></trkpt><trkpt lat="46.2229372" lon="13.2726624"><ele>352.0</ele><time>2026-04-04T12:44:00.063Z</time></trkpt><trkpt lat="46.2229639" lon="13.2727981"><ele>352.0</ele><time>2026-04-04T12:44:01.063Z</time></trkpt><trkpt lat="46.2230054" lon="13.2729248"><ele>352.0</ele><time>2026-04-04T12:44:02.063Z</time></trkpt><trkpt lat="46.2230658" lon="13.2730368"><ele>352.0</ele><time>2026-04-04T12:44:03.064Z</time></trkpt><trkpt lat="46.223132" lon="13.2731389"><ele>352.0</ele><time>2026-04-04T12:44:04.063Z</time></trkpt><trkpt lat="46.223195" lon="13.2732431"><ele>352.0</ele><time>2026-04-04T12:44:05.065Z</time></trkpt><trkpt lat="46.2232454" lon="13.2733525"><ele>352.0</ele><time>2026-04-04T12:44:06.063Z</time></trkpt><trkpt lat="46.2232845" lon="13.2734637"><ele>352.0</ele><time>2026-04-04T12:44:07.065Z</time></trkpt><trkpt lat="46.2233381" lon="13.2735613"><ele>352.0</ele><time>2026-04-04T12:44:08.065Z</time></trkpt><trkpt lat="46.2234096" lon="13.2736313"><ele>352.0</ele><time>2026-04-04T12:44:09.064Z</time></trkpt><trkpt lat="46.2234955" lon="13.2736662"><ele>352.0</ele><time>2026-04-04T12:44:10.064Z</time></trkpt><trkpt lat="46.2235885" lon="13.2736846"><ele>352.0</ele><time>2026-04-04T12:44:11.063Z</time></trkpt><trkpt lat="46.2236887" lon="13.2736908"><ele>352.0</ele><time>2026-04-04T12:44:12.064Z</time></trkpt><trkpt lat="46.2237928" lon="13.2736929"><ele>352.0</ele><time>2026-04-04T12:44:13.063Z</time></trkpt><trkpt lat="46.2239029" lon="13.2736944"><ele>352.0</ele><time>2026-04-04T12:44:14.065Z</time></trkpt><trkpt lat="46.2240181" lon="13.2736915"><ele>352.0</ele><time>2026-04-04T12:44:15.064Z</time></trkpt><trkpt lat="46.2241332" lon="13.2736716"><ele>352.0</ele><time>2026-04-04T12:44:16.064Z</time></trkpt><trkpt lat="46.2242495" lon="13.2736447"><ele>352.0</ele><time>2026-04-04T12:44:17.063Z</time></trkpt><trkpt lat="46.2243655" lon="13.2736167"><ele>352.0</ele><time>2026-04-04T12:44:18.063Z</time></trkpt><trkpt lat="46.2244801" lon="13.2735905"><ele>352.0</ele><time>2026-04-04T12:44:19.063Z</time></trkpt><trkpt lat="46.2245953" lon="13.2735629"><ele>352.0</ele><time>2026-04-04T12:44:20.063Z</time></trkpt><trkpt lat="46.2247143" lon="13.2735319"><ele>380.0</ele><time>2026-04-04T12:44:21.065Z</time></trkpt><trkpt lat="46.2248341" lon="13.2735002"><ele>408.0</ele><time>2026-04-04T12:44:22.064Z</time></trkpt><trkpt lat="46.2249506" lon="13.2734731"><ele>436.0</ele><time>2026-04-04T12:44:23.064Z</time></trkpt><trkpt lat="46.2250625" lon="13.2734494"><ele>464.0</ele><time>2026-04-04T12:44:24.063Z</time></trkpt><trkpt lat="46.2251642" lon="13.2734273"><ele>464.0</ele><time>2026-04-04T12:44:25.064Z</time></trkpt><trkpt lat="46.2252594" lon="13.2733998"><ele>464.0</ele><time>2026-04-04T12:44:26.063Z</time></trkpt><trkpt lat="46.2253435" lon="13.2733704"><ele>464.0</ele><time>2026-04-04T12:44:27.063Z</time></trkpt><trkpt lat="46.2254189" lon="13.2733509"><ele>464.0</ele><time>2026-04-04T12:44:28.064Z</time></trkpt><trkpt lat="46.225484" lon="13.2733387"><ele>464.0</ele><time>2026-04-04T12:44:29.063Z</time></trkpt><trkpt lat="46.2256065" lon="13.2733139"><ele>463.0</ele><time>2026-04-04T12:44:31.064Z</time></trkpt><trkpt lat="46.2256862" lon="13.273296"><ele>462.0</ele><time>2026-04-04T12:44:32.064Z</time></trkpt><trkpt lat="46.2257755" lon="13.2732747"><ele>461.0</ele><time>2026-04-04T12:44:33.063Z</time></trkpt><trkpt lat="46.2258719" lon="13.2732518"><ele>460.0</ele><time>2026-04-04T12:44:34.063Z</time></trkpt><trkpt lat="46.2259743" lon="13.2732283"><ele>459.0</ele><time>2026-04-04T12:44:35.064Z</time></trkpt><trkpt lat="46.2260765" lon="13.2732132"><ele>459.0</ele><time>2026-04-04T12:44:36.063Z</time></trkpt><trkpt lat="46.2261763" lon="13.273209"><ele>459.0</ele><time>2026-04-04T12:44:37.064Z</time></trkpt><trkpt lat="46.2262716" lon="13.2732204"><ele>459.0</ele><time>2026-04-04T12:44:38.063Z</time></trkpt><trkpt lat="46.2263616" lon="13.2732636"><ele>459.0</ele><time>2026-04-04T12:44:39.064Z</time></trkpt><trkpt lat="46.2264415" lon="13.2733303"><ele>459.0</ele><time>2026-04-04T12:44:40.064Z</time></trkpt><trkpt lat="46.2265149" lon="13.2734223"><ele>461.0</ele><time>2026-04-04T12:44:41.065Z</time></trkpt><trkpt lat="46.2265644" lon="13.2735436"><ele>463.0</ele><time>2026-04-04T12:44:42.063Z</time></trkpt><trkpt lat="46.2265933" lon="13.2736932"><ele>465.0</ele><time>2026-04-04T12:44:43.063Z</time></trkpt><trkpt lat="46.226612" lon="13.2738575"><ele>467.0</ele><time>2026-04-04T12:44:44.064Z</time></trkpt><trkpt lat="46.2266282" lon="13.2740165"><ele>469.0</ele><time>2026-04-04T12:44:45.063Z</time></trkpt><trkpt lat="46.2266441" lon="13.274161"><ele>469.0</ele><time>2026-04-04T12:44:46.064Z</time></trkpt><trkpt lat="46.2266575" lon="13.2742969"><ele>469.0</ele><time>2026-04-04T12:44:47.064Z</time></trkpt><trkpt lat="46.2266662" lon="13.2744204"><ele>469.0</ele><time>2026-04-04T12:44:48.063Z</time></trkpt><trkpt lat="46.2266721" lon="13.2745574"><ele>469.0</ele><time>2026-04-04T12:44:49.064Z</time></trkpt><trkpt lat="46.2266727" lon="13.2747105"><ele>469.0</ele><time>2026-04-04T12:44:50.064Z</time></trkpt><trkpt lat="46.2266748" lon="13.2748681"><ele>465.4</ele><time>2026-04-04T12:44:51.065Z</time></trkpt><trkpt lat="46.2266766" lon="13.2750341"><ele>461.79999999999995</ele><time>2026-04-04T12:44:52.065Z</time></trkpt><trkpt lat="46.226683" lon="13.2752009"><ele>458.20000000000005</ele><time>2026-04-04T12:44:53.064Z</time></trkpt><trkpt lat="46.2266924" lon="13.2753551"><ele>454.6</ele><time>2026-04-04T12:44:54.065Z</time></trkpt><trkpt lat="46.2267244" lon="13.2754957"><ele>451.0</ele><time>2026-04-04T12:44:55.064Z</time></trkpt><trkpt lat="46.2267825" lon="13.2756062"><ele>451.0</ele><time>2026-04-04T12:44:56.063Z</time></trkpt><trkpt lat="46.2268599" lon="13.275676"><ele>451.0</ele><time>2026-04-04T12:44:57.063Z</time></trkpt><trkpt lat="46.2269514" lon="13.2756975"><ele>451.0</ele><time>2026-04-04T12:44:58.065Z</time></trkpt><trkpt lat="46.2270508" lon="13.2756752"><ele>451.0</ele><time>2026-04-04T12:44:59.064Z</time></trkpt><trkpt lat="46.2271581" lon="13.2756518"><ele>451.0</ele><time>2026-04-04T12:45:00.063Z</time></trkpt><trkpt lat="46.2272778" lon="13.2756576"><ele>451.0</ele><time>2026-04-04T12:45:01.064Z</time></trkpt><trkpt lat="46.2274029" lon="13.2756967"><ele>451.0</ele><time>2026-04-04T12:45:02.064Z</time></trkpt><trkpt lat="46.2275324" lon="13.2757584"><ele>451.0</ele><time>2026-04-04T12:45:03.064Z</time></trkpt><trkpt lat="46.2276691" lon="13.2758381"><ele>451.0</ele><time>2026-04-04T12:45:04.064Z</time></trkpt><trkpt lat="46.2278044" lon="13.2759255"><ele>451.0</ele><time>2026-04-04T12:45:05.063Z</time></trkpt><trkpt lat="46.2279458" lon="13.2760025"><ele>451.0</ele><time>2026-04-04T12:45:06.064Z</time></trkpt><trkpt lat="46.2280926" lon="13.276063"><ele>451.0</ele><time>2026-04-04T12:45:07.063Z</time></trkpt><trkpt lat="46.228235" lon="13.2761388"><ele>451.0</ele><time>2026-04-04T12:45:08.065Z</time></trkpt><trkpt lat="46.2283672" lon="13.2762349"><ele>451.0</ele><time>2026-04-04T12:45:09.064Z</time></trkpt><trkpt lat="46.2284917" lon="13.2763332"><ele>451.0</ele><time>2026-04-04T12:45:10.063Z</time></trkpt><trkpt lat="46.2286021" lon="13.27642"><ele>451.0</ele><time>2026-04-04T12:45:11.064Z</time></trkpt><trkpt lat="46.2287007" lon="13.2764952"><ele>451.0</ele><time>2026-04-04T12:45:12.064Z</time></trkpt><trkpt lat="46.2287912" lon="13.2765632"><ele>451.0</ele><time>2026-04-04T12:45:13.065Z</time></trkpt><trkpt lat="46.2288843" lon="13.2766161"><ele>451.0</ele><time>2026-04-04T12:45:14.064Z</time></trkpt><trkpt lat="46.2289723" lon="13.276652"><ele>451.0</ele><time>2026-04-04T12:45:15.063Z</time></trkpt><trkpt lat="46.2290587" lon="13.2766766"><ele>451.0</ele><time>2026-04-04T12:45:16.064Z</time></trkpt><trkpt lat="46.2291507" lon="13.2767057"><ele>451.0</ele><time>2026-04-04T12:45:17.064Z</time></trkpt><trkpt lat="46.2292466" lon="13.2767517"><ele>451.0</ele><time>2026-04-04T12:45:18.065Z</time></trkpt><trkpt lat="46.2293439" lon="13.2768211"><ele>451.0</ele><time>2026-04-04T12:45:19.064Z</time></trkpt><trkpt lat="46.2294494" lon="13.2768882"><ele>451.0</ele><time>2026-04-04T12:45:20.064Z</time></trkpt><trkpt lat="46.2295623" lon="13.276935"><ele>451.0</ele><time>2026-04-04T12:45:21.065Z</time></trkpt><trkpt lat="46.2296801" lon="13.2769598"><ele>451.0</ele><time>2026-04-04T12:45:22.065Z</time></trkpt><trkpt lat="46.2297944" lon="13.276995"><ele>451.0</ele><time>2026-04-04T12:45:23.063Z</time></trkpt><trkpt lat="46.2298975" lon="13.2770688"><ele>451.0</ele><time>2026-04-04T12:45:24.064Z</time></trkpt><trkpt lat="46.2299929" lon="13.2771487"><ele>451.0</ele><time>2026-04-04T12:45:25.063Z</time></trkpt><trkpt lat="46.2300819" lon="13.2772172"><ele>451.0</ele><time>2026-04-04T12:45:26.063Z</time></trkpt><trkpt lat="46.2301717" lon="13.2772775"><ele>451.0</ele><time>2026-04-04T12:45:27.064Z</time></trkpt><trkpt lat="46.2302668" lon="13.277316"><ele>451.0</ele><time>2026-04-04T12:45:28.064Z</time></trkpt><trkpt lat="46.2303683" lon="13.2773358"><ele>451.0</ele><time>2026-04-04T12:45:29.065Z</time></trkpt><trkpt lat="46.2304761" lon="13.2773491"><ele>451.0</ele><time>2026-04-04T12:45:30.065Z</time></trkpt><trkpt lat="46.2305834" lon="13.2773664"><ele>451.0</ele><time>2026-04-04T12:45:31.064Z</time></trkpt><trkpt lat="46.2306921" lon="13.2773834"><ele>451.0</ele><time>2026-04-04T12:45:32.064Z</time></trkpt><trkpt lat="46.2307951" lon="13.2773996"><ele>451.0</ele><time>2026-04-04T12:45:33.064Z</time></trkpt><trkpt lat="46.2308944" lon="13.2774162"><ele>451.0</ele><time>2026-04-04T12:45:34.064Z</time></trkpt><trkpt lat="46.2309866" lon="13.2774299"><ele>451.0</ele><time>2026-04-04T12:45:35.064Z</time></trkpt><trkpt lat="46.2310671" lon="13.2774454"><ele>451.0</ele><time>2026-04-04T12:45:36.064Z</time></trkpt><trkpt lat="46.2311398" lon="13.277457"><ele>464.33333333333337</ele><time>2026-04-04T12:45:37.064Z</time></trkpt><trkpt lat="46.2312542" lon="13.2774746"><ele>477.6666666666667</ele><time>2026-04-04T12:45:39.064Z</time></trkpt><trkpt lat="46.2313666" lon="13.2774912"><ele>491.0</ele><time>2026-04-04T12:45:41.064Z</time></trkpt><trkpt lat="46.2314328" lon="13.2774957"><ele>504.33333333333337</ele><time>2026-04-04T12:45:42.063Z</time></trkpt><trkpt lat="46.2315066" lon="13.277502"><ele>517.6666666666666</ele><time>2026-04-04T12:45:43.063Z</time></trkpt><trkpt lat="46.2315873" lon="13.2775132"><ele>531.0</ele><time>2026-04-04T12:45:44.063Z</time></trkpt><trkpt lat="46.231673" lon="13.2775283"><ele>531.0</ele><time>2026-04-04T12:45:45.064Z</time></trkpt><trkpt lat="46.2317658" lon="13.2775507"><ele>531.0</ele><time>2026-04-04T12:45:46.064Z</time></trkpt><trkpt lat="46.2318588" lon="13.2775854"><ele>531.0</ele><time>2026-04-04T12:45:47.065Z</time></trkpt><trkpt lat="46.2319484" lon="13.2776255"><ele>531.0</ele><time>2026-04-04T12:45:48.063Z</time></trkpt><trkpt lat="46.2320295" lon="13.2776737"><ele>531.0</ele><time>2026-04-04T12:45:49.064Z</time></trkpt><trkpt lat="46.2321043" lon="13.2777266"><ele>531.0</ele><time>2026-04-04T12:45:50.064Z</time></trkpt><trkpt lat="46.2321712" lon="13.2777871"><ele>531.0</ele><time>2026-04-04T12:45:51.063Z</time></trkpt><trkpt lat="46.2322323" lon="13.2778449"><ele>531.0</ele><time>2026-04-04T12:45:52.065Z</time></trkpt><trkpt lat="46.2323011" lon="13.2778826"><ele>531.0</ele><time>2026-04-04T12:45:53.065Z</time></trkpt><trkpt lat="46.2323777" lon="13.2778729"><ele>531.0</ele><time>2026-04-04T12:45:54.064Z</time></trkpt><trkpt lat="46.2324582" lon="13.2778142"><ele>531.0</ele><time>2026-04-04T12:45:55.064Z</time></trkpt><trkpt lat="46.2325411" lon="13.2777381"><ele>529.8</ele><time>2026-04-04T12:45:56.064Z</time></trkpt><trkpt lat="46.2326193" lon="13.277651"><ele>528.6</ele><time>2026-04-04T12:45:57.064Z</time></trkpt><trkpt lat="46.2326956" lon="13.2775389"><ele>527.4</ele><time>2026-04-04T12:45:58.063Z</time></trkpt><trkpt lat="46.2327757" lon="13.2774261"><ele>526.2</ele><time>2026-04-04T12:45:59.064Z</time></trkpt><trkpt lat="46.2328792" lon="13.2773407"><ele>525.0</ele><time>2026-04-04T12:46:00.063Z</time></trkpt><trkpt lat="46.2329692" lon="13.2772766"><ele>529.6</ele><time>2026-04-04T12:46:01.064Z</time></trkpt><trkpt lat="46.2330557" lon="13.2772317"><ele>534.2</ele><time>2026-04-04T12:46:02.063Z</time></trkpt><trkpt lat="46.2331245" lon="13.2771658"><ele>538.8</ele><time>2026-04-04T12:46:03.064Z</time></trkpt><trkpt lat="46.2331843" lon="13.2770612"><ele>543.4</ele><time>2026-04-04T12:46:04.063Z</time></trkpt><trkpt lat="46.2332411" lon="13.2769487"><ele>548.0</ele><time>2026-04-04T12:46:05.063Z</time></trkpt><trkpt lat="46.2332817" lon="13.2768156"><ele>548.0</ele><time>2026-04-04T12:46:06.064Z</time></trkpt><trkpt lat="46.2333406" lon="13.2767002"><ele>548.0</ele><time>2026-04-04T12:46:07.063Z</time></trkpt><trkpt lat="46.2334077" lon="13.2765917"><ele>548.0</ele><time>2026-04-04T12:46:08.063Z</time></trkpt><trkpt lat="46.2334955" lon="13.2765144"><ele>548.0</ele><time>2026-04-04T12:46:09.064Z</time></trkpt><trkpt lat="46.2335966" lon="13.2764489"><ele>548.0</ele><time>2026-04-04T12:46:10.064Z</time></trkpt><trkpt lat="46.2337075" lon="13.276385"><ele>552.6</ele><time>2026-04-04T12:46:11.064Z</time></trkpt><trkpt lat="46.2338189" lon="13.276333"><ele>557.1999999999999</ele><time>2026-04-04T12:46:12.065Z</time></trkpt><trkpt lat="46.2339299" lon="13.276269"><ele>561.8</ele><time>2026-04-04T12:46:13.065Z</time></trkpt><trkpt lat="46.2340306" lon="13.2762123"><ele>566.4</ele><time>2026-04-04T12:46:14.064Z</time></trkpt><trkpt lat="46.234129" lon="13.2761751"><ele>571.0</ele><time>2026-04-04T12:46:15.065Z</time></trkpt><trkpt lat="46.2342185" lon="13.2761842"><ele>571.0</ele><time>2026-04-04T12:46:16.064Z</time></trkpt><trkpt lat="46.2342919" lon="13.2762608"><ele>571.0</ele><time>2026-04-04T12:46:17.063Z</time></trkpt><trkpt lat="46.2343559" lon="13.2762964"><ele>571.0</ele><time>2026-04-04T12:46:18.063Z</time></trkpt><trkpt lat="46.2344784" lon="13.276322"><ele>571.0</ele><time>2026-04-04T12:46:20.065Z</time></trkpt><trkpt lat="46.2345391" lon="13.2762837"><ele>571.0</ele><time>2026-04-04T12:46:21.063Z</time></trkpt><trkpt lat="46.234606" lon="13.2762189"><ele>571.0</ele><time>2026-04-04T12:46:22.065Z</time></trkpt><trkpt lat="46.2346778" lon="13.2761418"><ele>571.0</ele><time>2026-04-04T12:46:23.063Z</time></trkpt><trkpt lat="46.2347506" lon="13.2760494"><ele>571.0</ele><time>2026-04-04T12:46:24.064Z</time></trkpt><trkpt lat="46.2348214" lon="13.2759556"><ele>571.0</ele><time>2026-04-04T12:46:25.064Z</time></trkpt><trkpt lat="46.2348931" lon="13.2758646"><ele>571.0</ele><time>2026-04-04T12:46:26.064Z</time></trkpt><trkpt lat="46.2349717" lon="13.2757861"><ele>571.0</ele><time>2026-04-04T12:46:27.064Z</time></trkpt><trkpt lat="46.2350582" lon="13.2757168"><ele>567.0</ele><time>2026-04-04T12:46:28.065Z</time></trkpt><trkpt lat="46.2351497" lon="13.2756573"><ele>563.0</ele><time>2026-04-04T12:46:29.064Z</time></trkpt><trkpt lat="46.2352509" lon="13.2756137"><ele>559.0</ele><time>2026-04-04T12:46:30.064Z</time></trkpt><trkpt lat="46.2353523" lon="13.2755687"><ele>555.0</ele><time>2026-04-04T12:46:31.063Z</time></trkpt><trkpt lat="46.2354496" lon="13.2755264"><ele>551.0</ele><time>2026-04-04T12:46:32.063Z</time></trkpt><trkpt lat="46.2355423" lon="13.2755034"><ele>556.3333333333333</ele><time>2026-04-04T12:46:33.064Z</time></trkpt><trkpt lat="46.2356325" lon="13.2755017"><ele>561.6666666666666</ele><time>2026-04-04T12:46:34.064Z</time></trkpt><trkpt lat="46.2357136" lon="13.2755141"><ele>567.0</ele><time>2026-04-04T12:46:35.065Z</time></trkpt><trkpt lat="46.2357791" lon="13.2755053"><ele>572.3333333333334</ele><time>2026-04-04T12:46:36.064Z</time></trkpt><trkpt lat="46.2358599" lon="13.2754772"><ele>577.6666666666667</ele><time>2026-04-04T12:46:37.065Z</time></trkpt><trkpt lat="46.235941" lon="13.2754391"><ele>583.0</ele><time>2026-04-04T12:46:38.063Z</time></trkpt><trkpt lat="46.2360335" lon="13.2753874"><ele>583.0</ele><time>2026-04-04T12:46:39.064Z</time></trkpt><trkpt lat="46.2361262" lon="13.2753439"><ele>583.0</ele><time>2026-04-04T12:46:40.063Z</time></trkpt><trkpt lat="46.2362288" lon="13.2753018"><ele>583.0</ele><time>2026-04-04T12:46:41.063Z</time></trkpt><trkpt lat="46.236341" lon="13.2752899"><ele>583.0</ele><time>2026-04-04T12:46:42.064Z</time></trkpt><trkpt lat="46.2364601" lon="13.2752864"><ele>583.0</ele><time>2026-04-04T12:46:43.064Z</time></trkpt><trkpt lat="46.2365861" lon="13.2752875"><ele>582.6</ele><time>2026-04-04T12:46:44.065Z</time></trkpt><trkpt lat="46.2367073" lon="13.2752791"><ele>582.1999999999999</ele><time>2026-04-04T12:46:45.063Z</time></trkpt><trkpt lat="46.2368145" lon="13.2752673"><ele>581.8</ele><time>2026-04-04T12:46:46.064Z</time></trkpt><trkpt lat="46.2369072" lon="13.2752607"><ele>581.4</ele><time>2026-04-04T12:46:47.064Z</time></trkpt><trkpt lat="46.2369835" lon="13.2752804"><ele>581.0</ele><time>2026-04-04T12:46:48.063Z</time></trkpt><trkpt lat="46.2370469" lon="13.2753231"><ele>581.0</ele><time>2026-04-04T12:46:49.064Z</time></trkpt><trkpt lat="46.2370995" lon="13.2753991"><ele>581.0</ele><time>2026-04-04T12:46:50.064Z</time></trkpt><trkpt lat="46.2371431" lon="13.2755046"><ele>581.0</ele><time>2026-04-04T12:46:51.064Z</time></trkpt><trkpt lat="46.2371293" lon="13.2756235"><ele>581.0</ele><time>2026-04-04T12:46:52.065Z</time></trkpt><trkpt lat="46.2371094" lon="13.2757214"><ele>581.0</ele><time>2026-04-04T12:46:53.065Z</time></trkpt><trkpt lat="46.2371603" lon="13.275864"><ele>581.0</ele><time>2026-04-04T12:46:55.064Z</time></trkpt><trkpt lat="46.2372178" lon="13.2759052"><ele>579.8333333333333</ele><time>2026-04-04T12:46:56.064Z</time></trkpt><trkpt lat="46.2373129" lon="13.2758288"><ele>578.6666666666666</ele><time>2026-04-04T12:46:58.064Z</time></trkpt><trkpt lat="46.2373291" lon="13.2757296"><ele>577.5</ele><time>2026-04-04T12:46:59.063Z</time></trkpt><trkpt lat="46.2373322" lon="13.2756076"><ele>576.3333333333334</ele><time>2026-04-04T12:47:00.064Z</time></trkpt><trkpt lat="46.237328" lon="13.2754752"><ele>575.1666666666667</ele><time>2026-04-04T12:47:01.064Z</time></trkpt><trkpt lat="46.2373169" lon="13.2753568"><ele>574.0</ele><time>2026-04-04T12:47:02.063Z</time></trkpt><trkpt lat="46.2373061" lon="13.275258"><ele>575.1666666666667</ele><time>2026-04-04T12:47:03.063Z</time></trkpt><trkpt lat="46.23728" lon="13.27517"><ele>576.3333333333334</ele><time>2026-04-04T12:47:04.064Z</time></trkpt><trkpt lat="46.2372351" lon="13.2750963"><ele>577.5</ele><time>2026-04-04T12:47:05.064Z</time></trkpt><trkpt lat="46.2371689" lon="13.2750406"><ele>578.6666666666666</ele><time>2026-04-04T12:47:06.063Z</time></trkpt><trkpt lat="46.2370858" lon="13.2750037"><ele>579.8333333333333</ele><time>2026-04-04T12:47:07.063Z</time></trkpt><trkpt lat="46.236993" lon="13.274967"><ele>581.0</ele><time>2026-04-04T12:47:08.063Z</time></trkpt><trkpt lat="46.2368928" lon="13.2749218"><ele>581.0</ele><time>2026-04-04T12:47:09.064Z</time></trkpt><trkpt lat="46.2367718" lon="13.2748815"><ele>581.0</ele><time>2026-04-04T12:47:10.063Z</time></trkpt><trkpt lat="46.2366559" lon="13.2748361"><ele>581.0</ele><time>2026-04-04T12:47:11.065Z</time></trkpt><trkpt lat="46.2365387" lon="13.274798"><ele>581.0</ele><time>2026-04-04T12:47:12.064Z</time></trkpt><trkpt lat="46.236417" lon="13.2747702"><ele>590.0</ele><time>2026-04-04T12:47:13.065Z</time></trkpt><trkpt lat="46.2363056" lon="13.2747439"><ele>599.0</ele><time>2026-04-04T12:47:14.065Z</time></trkpt><trkpt lat="46.2362032" lon="13.2747172"><ele>608.0</ele><time>2026-04-04T12:47:15.064Z</time></trkpt><trkpt lat="46.2361195" lon="13.274712"><ele>617.0</ele><time>2026-04-04T12:47:16.064Z</time></trkpt><trkpt lat="46.2360523" lon="13.2747211"><ele>626.0</ele><time>2026-04-04T12:47:17.065Z</time></trkpt><trkpt lat="46.2359523" lon="13.2747184"><ele>626.0</ele><time>2026-04-04T12:47:19.064Z</time></trkpt><trkpt lat="46.2358811" lon="13.2746319"><ele>626.0</ele><time>2026-04-04T12:47:22.063Z</time></trkpt><trkpt lat="46.2359078" lon="13.2745241"><ele>626.0</ele><time>2026-04-04T12:47:24.063Z</time></trkpt><trkpt lat="46.2360174" lon="13.2745137"><ele>626.0</ele><time>2026-04-04T12:47:26.065Z</time></trkpt><trkpt lat="46.2360863" lon="13.2745265"><ele>626.0</ele><time>2026-04-04T12:47:27.065Z</time></trkpt><trkpt lat="46.2361724" lon="13.2745369"><ele>626.0</ele><time>2026-04-04T12:47:28.064Z</time></trkpt><trkpt lat="46.2362687" lon="13.2745416"><ele>626.0</ele><time>2026-04-04T12:47:29.063Z</time></trkpt><trkpt lat="46.2363815" lon="13.2745387"><ele>626.0</ele><time>2026-04-04T12:47:30.064Z</time></trkpt><trkpt lat="46.2365065" lon="13.2745474"><ele>626.0</ele><time>2026-04-04T12:47:31.063Z</time></trkpt><trkpt lat="46.2366363" lon="13.274553"><ele>626.0</ele><time>2026-04-04T12:47:32.065Z</time></trkpt><trkpt lat="46.2367735" lon="13.2745602"><ele>623.25</ele><time>2026-04-04T12:47:33.063Z</time></trkpt><trkpt lat="46.236915" lon="13.2745596"><ele>620.5</ele><time>2026-04-04T12:47:34.064Z</time></trkpt><trkpt lat="46.2370549" lon="13.2745582"><ele>617.75</ele><time>2026-04-04T12:47:35.064Z</time></trkpt><trkpt lat="46.2371826" lon="13.2745636"><ele>615.0</ele><time>2026-04-04T12:47:36.063Z</time></trkpt><trkpt lat="46.2372939" lon="13.2745716"><ele>616.6</ele><time>2026-04-04T12:47:37.064Z</time></trkpt><trkpt lat="46.2373931" lon="13.2745773"><ele>618.2</ele><time>2026-04-04T12:47:38.064Z</time></trkpt><trkpt lat="46.2374822" lon="13.2745833"><ele>619.8</ele><time>2026-04-04T12:47:39.065Z</time></trkpt><trkpt lat="46.2375657" lon="13.2745973"><ele>621.4</ele><time>2026-04-04T12:47:40.064Z</time></trkpt><trkpt lat="46.2376497" lon="13.2746319"><ele>623.0</ele><time>2026-04-04T12:47:41.064Z</time></trkpt><trkpt lat="46.2377339" lon="13.2746936"><ele>617.8</ele><time>2026-04-04T12:47:42.064Z</time></trkpt><trkpt lat="46.237813" lon="13.274785"><ele>612.5999999999999</ele><time>2026-04-04T12:47:43.063Z</time></trkpt><trkpt lat="46.2378907" lon="13.2748964"><ele>607.4000000000001</ele><time>2026-04-04T12:47:44.064Z</time></trkpt><trkpt lat="46.23796" lon="13.2750171"><ele>602.2</ele><time>2026-04-04T12:47:45.064Z</time></trkpt><trkpt lat="46.2380127" lon="13.2751279"><ele>597.0</ele><time>2026-04-04T12:47:46.063Z</time></trkpt><trkpt lat="46.2380449" lon="13.275233"><ele>597.0</ele><time>2026-04-04T12:47:47.063Z</time></trkpt><trkpt lat="46.2380709" lon="13.2753315"><ele>597.0</ele><time>2026-04-04T12:47:48.064Z</time></trkpt><trkpt lat="46.2380977" lon="13.2754344"><ele>597.0</ele><time>2026-04-04T12:47:49.063Z</time></trkpt><trkpt lat="46.2381325" lon="13.2755306"><ele>597.0</ele><time>2026-04-04T12:47:50.065Z</time></trkpt><trkpt lat="46.2381704" lon="13.2756169"><ele>597.0</ele><time>2026-04-04T12:47:51.064Z</time></trkpt><trkpt lat="46.2382469" lon="13.2757138"><ele>597.0</ele><time>2026-04-04T12:47:53.063Z</time></trkpt><trkpt lat="46.2383672" lon="13.2756699"><ele>599.3333333333334</ele><time>2026-04-04T12:47:54.064Z</time></trkpt><trkpt lat="46.2384624" lon="13.2756634"><ele>601.6666666666666</ele><time>2026-04-04T12:47:55.064Z</time></trkpt><trkpt lat="46.2385628" lon="13.2756596"><ele>604.0</ele><time>2026-04-04T12:47:56.064Z</time></trkpt><trkpt lat="46.2386534" lon="13.2756606"><ele>606.3333333333333</ele><time>2026-04-04T12:47:57.064Z</time></trkpt><trkpt lat="46.2387316" lon="13.2756821"><ele>608.6666666666666</ele><time>2026-04-04T12:47:58.063Z</time></trkpt><trkpt lat="46.2387933" lon="13.2757292"><ele>611.0</ele><time>2026-04-04T12:47:59.064Z</time></trkpt><trkpt lat="46.2388371" lon="13.2758659"><ele>611.0</ele><time>2026-04-04T12:48:01.064Z</time></trkpt><trkpt lat="46.238776" lon="13.2760351"><ele>611.0</ele><time>2026-04-04T12:48:03.063Z</time></trkpt><trkpt lat="46.2387268" lon="13.2761199"><ele>611.0</ele><time>2026-04-04T12:48:04.063Z</time></trkpt><trkpt lat="46.2386806" lon="13.2762181"><ele>611.0</ele><time>2026-04-04T12:48:05.063Z</time></trkpt><trkpt lat="46.238646" lon="13.2763138"><ele>611.0</ele><time>2026-04-04T12:48:06.064Z</time></trkpt><trkpt lat="46.2386187" lon="13.2763961"><ele>611.0</ele><time>2026-04-04T12:48:07.064Z</time></trkpt><trkpt lat="46.2386001" lon="13.2765589"><ele>610.0</ele><time>2026-04-04T12:48:09.065Z</time></trkpt><trkpt lat="46.2386239" lon="13.2766536"><ele>609.0</ele><time>2026-04-04T12:48:10.063Z</time></trkpt><trkpt lat="46.2386615" lon="13.2767587"><ele>608.0</ele><time>2026-04-04T12:48:11.063Z</time></trkpt><trkpt lat="46.2387061" lon="13.2768742"><ele>607.0</ele><time>2026-04-04T12:48:12.064Z</time></trkpt><trkpt lat="46.2387377" lon="13.2770032"><ele>606.0</ele><time>2026-04-04T12:48:13.063Z</time></trkpt><trkpt lat="46.2387496" lon="13.2771471"><ele>605.0</ele><time>2026-04-04T12:48:14.063Z</time></trkpt><trkpt lat="46.2387435" lon="13.2773044"><ele>605.0</ele><time>2026-04-04T12:48:15.064Z</time></trkpt><trkpt lat="46.2387206" lon="13.2774606"><ele>605.0</ele><time>2026-04-04T12:48:16.064Z</time></trkpt><trkpt lat="46.2386882" lon="13.2776128"><ele>605.0</ele><time>2026-04-04T12:48:17.065Z</time></trkpt><trkpt lat="46.2386488" lon="13.2777506"><ele>605.0</ele><time>2026-04-04T12:48:18.064Z</time></trkpt><trkpt lat="46.238615" lon="13.2778799"><ele>605.0</ele><time>2026-04-04T12:48:19.063Z</time></trkpt><trkpt lat="46.2385977" lon="13.2780055"><ele>606.3333333333333</ele><time>2026-04-04T12:48:20.063Z</time></trkpt><trkpt lat="46.2385924" lon="13.2781262"><ele>607.6666666666666</ele><time>2026-04-04T12:48:21.065Z</time></trkpt><trkpt lat="46.2386013" lon="13.2782435"><ele>609.0</ele><time>2026-04-04T12:48:22.063Z</time></trkpt><trkpt lat="46.2386268" lon="13.2783578"><ele>610.3333333333334</ele><time>2026-04-04T12:48:23.065Z</time></trkpt><trkpt lat="46.238663" lon="13.2784662"><ele>611.6666666666667</ele><time>2026-04-04T12:48:24.063Z</time></trkpt><trkpt lat="46.238696" lon="13.2785682"><ele>613.0</ele><time>2026-04-04T12:48:25.064Z</time></trkpt><trkpt lat="46.2387275" lon="13.2786673"><ele>613.0</ele><time>2026-04-04T12:48:26.065Z</time></trkpt><trkpt lat="46.2387732" lon="13.278747"><ele>613.0</ele><time>2026-04-04T12:48:27.064Z</time></trkpt><trkpt lat="46.2388412" lon="13.2787925"><ele>613.0</ele><time>2026-04-04T12:48:28.064Z</time></trkpt><trkpt lat="46.2389033" lon="13.2788289"><ele>613.0</ele><time>2026-04-04T12:48:29.063Z</time></trkpt><trkpt lat="46.2389797" lon="13.2789495"><ele>613.0</ele><time>2026-04-04T12:48:31.064Z</time></trkpt><trkpt lat="46.2389851" lon="13.279042"><ele>613.0</ele><time>2026-04-04T12:48:32.063Z</time></trkpt><trkpt lat="46.2389716" lon="13.2791451"><ele>612.8333333333334</ele><time>2026-04-04T12:48:33.065Z</time></trkpt><trkpt lat="46.2389547" lon="13.2792581"><ele>612.6666666666667</ele><time>2026-04-04T12:48:34.064Z</time></trkpt><trkpt lat="46.2389437" lon="13.2793776"><ele>612.5</ele><time>2026-04-04T12:48:35.064Z</time></trkpt><trkpt lat="46.2389457" lon="13.2794984"><ele>612.3333333333334</ele><time>2026-04-04T12:48:36.063Z</time></trkpt><trkpt lat="46.2389476" lon="13.2796163"><ele>612.1666666666666</ele><time>2026-04-04T12:48:37.064Z</time></trkpt><trkpt lat="46.2389448" lon="13.2797196"><ele>612.0</ele><time>2026-04-04T12:48:38.063Z</time></trkpt><trkpt lat="46.2389488" lon="13.2798199"><ele>616.6</ele><time>2026-04-04T12:48:39.065Z</time></trkpt><trkpt lat="46.2389921" lon="13.2799669"><ele>621.2</ele><time>2026-04-04T12:48:41.064Z</time></trkpt><trkpt lat="46.2391132" lon="13.2800179"><ele>625.8</ele><time>2026-04-04T12:48:43.064Z</time></trkpt><trkpt lat="46.2391947" lon="13.280016"><ele>630.4</ele><time>2026-04-04T12:48:44.065Z</time></trkpt><trkpt lat="46.2392902" lon="13.2800229"><ele>635.0</ele><time>2026-04-04T12:48:45.064Z</time></trkpt><trkpt lat="46.2393994" lon="13.2800373"><ele>635.0</ele><time>2026-04-04T12:48:46.063Z</time></trkpt><trkpt lat="46.2395131" lon="13.2800553"><ele>635.0</ele><time>2026-04-04T12:48:47.064Z</time></trkpt><trkpt lat="46.2396213" lon="13.2800794"><ele>635.0</ele><time>2026-04-04T12:48:48.064Z</time></trkpt><trkpt lat="46.2397174" lon="13.2801116"><ele>635.0</ele><time>2026-04-04T12:48:49.063Z</time></trkpt><trkpt lat="46.2398047" lon="13.2801419"><ele>635.0</ele><time>2026-04-04T12:48:50.063Z</time></trkpt><trkpt lat="46.239874" lon="13.2801957"><ele>637.4</ele><time>2026-04-04T12:48:51.064Z</time></trkpt><trkpt lat="46.2399268" lon="13.2802772"><ele>639.8</ele><time>2026-04-04T12:48:52.064Z</time></trkpt><trkpt lat="46.2399779" lon="13.2803723"><ele>642.2</ele><time>2026-04-04T12:48:53.064Z</time></trkpt><trkpt lat="46.2400216" lon="13.2804944"><ele>644.6</ele><time>2026-04-04T12:48:54.063Z</time></trkpt><trkpt lat="46.2400561" lon="13.2806239"><ele>647.0</ele><time>2026-04-04T12:48:55.063Z</time></trkpt><trkpt lat="46.2400991" lon="13.2807548"><ele>647.0</ele><time>2026-04-04T12:48:56.063Z</time></trkpt><trkpt lat="46.2401567" lon="13.2808696"><ele>647.0</ele><time>2026-04-04T12:48:57.065Z</time></trkpt><trkpt lat="46.2402377" lon="13.2809626"><ele>647.0</ele><time>2026-04-04T12:48:58.064Z</time></trkpt><trkpt lat="46.2403281" lon="13.2810403"><ele>647.0</ele><time>2026-04-04T12:48:59.064Z</time></trkpt><trkpt lat="46.2404254" lon="13.2810994"><ele>647.0</ele><time>2026-04-04T12:49:00.063Z</time></trkpt><trkpt lat="46.2405062" lon="13.2811369"><ele>647.0</ele><time>2026-04-04T12:49:01.064Z</time></trkpt><trkpt lat="46.2406016" lon="13.2811355"><ele>647.0</ele><time>2026-04-04T12:49:02.064Z</time></trkpt><trkpt lat="46.2406957" lon="13.2811004"><ele>647.0</ele><time>2026-04-04T12:49:03.063Z</time></trkpt><trkpt lat="46.2407877" lon="13.2810405"><ele>647.0</ele><time>2026-04-04T12:49:04.063Z</time></trkpt><trkpt lat="46.2408819" lon="13.2809802"><ele>647.0</ele><time>2026-04-04T12:49:05.065Z</time></trkpt><trkpt lat="46.2409692" lon="13.2809233"><ele>650.8</ele><time>2026-04-04T12:49:06.064Z</time></trkpt><trkpt lat="46.2410654" lon="13.2808894"><ele>654.6</ele><time>2026-04-04T12:49:07.064Z</time></trkpt><trkpt lat="46.2411603" lon="13.2808828"><ele>658.4</ele><time>2026-04-04T12:49:08.063Z</time></trkpt><trkpt lat="46.24125" lon="13.2809158"><ele>662.1999999999999</ele><time>2026-04-04T12:49:09.064Z</time></trkpt><trkpt lat="46.2413357" lon="13.2809795"><ele>666.0</ele><time>2026-04-04T12:49:10.063Z</time></trkpt><trkpt lat="46.2414179" lon="13.2810645"><ele>664.1999999999999</ele><time>2026-04-04T12:49:11.064Z</time></trkpt><trkpt lat="46.2414998" lon="13.2811612"><ele>662.4</ele><time>2026-04-04T12:49:12.063Z</time></trkpt><trkpt lat="46.2415823" lon="13.2812593"><ele>660.6</ele><time>2026-04-04T12:49:13.065Z</time></trkpt><trkpt lat="46.2416618" lon="13.2813503"><ele>658.8</ele><time>2026-04-04T12:49:14.064Z</time></trkpt><trkpt lat="46.2417283" lon="13.2814404"><ele>657.0</ele><time>2026-04-04T12:49:15.063Z</time></trkpt><trkpt lat="46.2418009" lon="13.2814976"><ele>657.0</ele><time>2026-04-04T12:49:16.063Z</time></trkpt><trkpt lat="46.24187" lon="13.2815198"><ele>657.0</ele><time>2026-04-04T12:49:17.064Z</time></trkpt><trkpt lat="46.2419581" lon="13.2814923"><ele>657.0</ele><time>2026-04-04T12:49:18.063Z</time></trkpt><trkpt lat="46.2420323" lon="13.2814648"><ele>657.0</ele><time>2026-04-04T12:49:19.064Z</time></trkpt><trkpt lat="46.2421433" lon="13.2814251"><ele>657.0</ele><time>2026-04-04T12:49:21.064Z</time></trkpt><trkpt lat="46.242216" lon="13.2814759"><ele>657.0</ele><time>2026-04-04T12:49:23.063Z</time></trkpt><trkpt lat="46.2422583" lon="13.2816051"><ele>657.0</ele><time>2026-04-04T12:49:25.063Z</time></trkpt><trkpt lat="46.2422661" lon="13.2817023"><ele>657.0</ele><time>2026-04-04T12:49:26.063Z</time></trkpt><trkpt lat="46.242274" lon="13.2818092"><ele>657.0</ele><time>2026-04-04T12:49:27.063Z</time></trkpt><trkpt lat="46.2422829" lon="13.2819276"><ele>657.0</ele><time>2026-04-04T12:49:28.064Z</time></trkpt><trkpt lat="46.2422949" lon="13.2820551"><ele>657.0</ele><time>2026-04-04T12:49:29.064Z</time></trkpt><trkpt lat="46.2423048" lon="13.2821922"><ele>657.0</ele><time>2026-04-04T12:49:30.064Z</time></trkpt><trkpt lat="46.2423105" lon="13.2823325"><ele>660.0</ele><time>2026-04-04T12:49:31.064Z</time></trkpt><trkpt lat="46.2423131" lon="13.2824697"><ele>663.0</ele><time>2026-04-04T12:49:32.063Z</time></trkpt><trkpt lat="46.2423164" lon="13.2825994"><ele>666.0</ele><time>2026-04-04T12:49:33.065Z</time></trkpt><trkpt lat="46.2423098" lon="13.2827312"><ele>669.0</ele><time>2026-04-04T12:49:34.063Z</time></trkpt><trkpt lat="46.242287" lon="13.2828562"><ele>672.0</ele><time>2026-04-04T12:49:35.064Z</time></trkpt><trkpt lat="46.2422607" lon="13.282978"><ele>671.8333333333334</ele><time>2026-04-04T12:49:36.064Z</time></trkpt><trkpt lat="46.2422399" lon="13.2830905"><ele>671.6666666666666</ele><time>2026-04-04T12:49:37.064Z</time></trkpt><trkpt lat="46.2422351" lon="13.2831901"><ele>671.5</ele><time>2026-04-04T12:49:38.064Z</time></trkpt><trkpt lat="46.2423104" lon="13.2833402"><ele>671.3333333333333</ele><time>2026-04-04T12:49:40.063Z</time></trkpt><trkpt lat="46.2423769" lon="13.2833658"><ele>671.1666666666666</ele><time>2026-04-04T12:49:41.064Z</time></trkpt><trkpt lat="46.2424435" lon="13.2833418"><ele>671.0</ele><time>2026-04-04T12:49:42.065Z</time></trkpt><trkpt lat="46.2424922" lon="13.2832801"><ele>671.0</ele><time>2026-04-04T12:49:43.063Z</time></trkpt><trkpt lat="46.2425279" lon="13.2831854"><ele>671.0</ele><time>2026-04-04T12:49:44.063Z</time></trkpt><trkpt lat="46.2425637" lon="13.2830822"><ele>671.0</ele><time>2026-04-04T12:49:45.063Z</time></trkpt><trkpt lat="46.2426034" lon="13.2829694"><ele>671.0</ele><time>2026-04-04T12:49:46.064Z</time></trkpt><trkpt lat="46.2426458" lon="13.2828472"><ele>671.0</ele><time>2026-04-04T12:49:47.064Z</time></trkpt><trkpt lat="46.2426926" lon="13.2827165"><ele>671.0</ele><time>2026-04-04T12:49:48.065Z</time></trkpt><trkpt lat="46.2427392" lon="13.2825829"><ele>671.1666666666666</ele><time>2026-04-04T12:49:49.064Z</time></trkpt><trkpt lat="46.2427885" lon="13.2824487"><ele>671.3333333333333</ele><time>2026-04-04T12:49:50.065Z</time></trkpt><trkpt lat="46.2428337" lon="13.2823269"><ele>671.5</ele><time>2026-04-04T12:49:51.064Z</time></trkpt><trkpt lat="46.2428782" lon="13.2822201"><ele>671.6666666666666</ele><time>2026-04-04T12:49:52.064Z</time></trkpt><trkpt lat="46.2429189" lon="13.2821245"><ele>671.8333333333334</ele><time>2026-04-04T12:49:53.064Z</time></trkpt><trkpt lat="46.242963" lon="13.2820414"><ele>672.0</ele><time>2026-04-04T12:49:54.064Z</time></trkpt><trkpt lat="46.2430206" lon="13.281984"><ele>672.7142857142857</ele><time>2026-04-04T12:49:55.064Z</time></trkpt><trkpt lat="46.2430903" lon="13.2819544"><ele>673.4285714285714</ele><time>2026-04-04T12:49:56.063Z</time></trkpt><trkpt lat="46.2431612" lon="13.2819626"><ele>674.1428571428571</ele><time>2026-04-04T12:49:57.064Z</time></trkpt><trkpt lat="46.2432215" lon="13.2820046"><ele>674.8571428571429</ele><time>2026-04-04T12:49:58.064Z</time></trkpt><trkpt lat="46.2432648" lon="13.2820795"><ele>675.5714285714286</ele><time>2026-04-04T12:49:59.064Z</time></trkpt><trkpt lat="46.2433074" lon="13.2821653"><ele>676.2857142857142</ele><time>2026-04-04T12:50:00.064Z</time></trkpt><trkpt lat="46.24337" lon="13.2822361"><ele>677.0</ele><time>2026-04-04T12:50:01.064Z</time></trkpt><trkpt lat="46.2434487" lon="13.2822764"><ele>677.0</ele><time>2026-04-04T12:50:02.063Z</time></trkpt><trkpt lat="46.2435324" lon="13.2822961"><ele>677.0</ele><time>2026-04-04T12:50:03.064Z</time></trkpt><trkpt lat="46.243619" lon="13.2823043"><ele>677.0</ele><time>2026-04-04T12:50:04.063Z</time></trkpt><trkpt lat="46.2436967" lon="13.2823182"><ele>677.0</ele><time>2026-04-04T12:50:05.064Z</time></trkpt><trkpt lat="46.2437582" lon="13.2823559"><ele>677.0</ele><time>2026-04-04T12:50:06.063Z</time></trkpt><trkpt lat="46.2438438" lon="13.2824822"><ele>677.0</ele><time>2026-04-04T12:50:08.063Z</time></trkpt><trkpt lat="46.2439229" lon="13.2826225"><ele>679.0</ele><time>2026-04-04T12:50:10.063Z</time></trkpt><trkpt lat="46.2439711" lon="13.2826875"><ele>681.0</ele><time>2026-04-04T12:50:11.065Z</time></trkpt><trkpt lat="46.2440291" lon="13.2827399"><ele>683.0</ele><time>2026-04-04T12:50:12.065Z</time></trkpt><trkpt lat="46.2440982" lon="13.2827688"><ele>685.0</ele><time>2026-04-04T12:50:13.064Z</time></trkpt><trkpt lat="46.2441727" lon="13.2827728"><ele>687.0</ele><time>2026-04-04T12:50:14.063Z</time></trkpt><trkpt lat="46.2442546" lon="13.2827596"><ele>689.0</ele><time>2026-04-04T12:50:15.064Z</time></trkpt><trkpt lat="46.2443445" lon="13.2827243"><ele>689.0</ele><time>2026-04-04T12:50:16.064Z</time></trkpt><trkpt lat="46.24444" lon="13.2826901"><ele>689.0</ele><time>2026-04-04T12:50:17.063Z</time></trkpt><trkpt lat="46.2445475" lon="13.2826528"><ele>689.0</ele><time>2026-04-04T12:50:18.063Z</time></trkpt><trkpt lat="46.244656" lon="13.2826195"><ele>689.0</ele><time>2026-04-04T12:50:19.063Z</time></trkpt><trkpt lat="46.2447582" lon="13.2825883"><ele>689.0</ele><time>2026-04-04T12:50:20.064Z</time></trkpt><trkpt lat="46.2448558" lon="13.282563"><ele>688.5</ele><time>2026-04-04T12:50:21.065Z</time></trkpt><trkpt lat="46.2449457" lon="13.2825474"><ele>688.0</ele><time>2026-04-04T12:50:22.064Z</time></trkpt><trkpt lat="46.245026" lon="13.2825258"><ele>687.5</ele><time>2026-04-04T12:50:23.065Z</time></trkpt><trkpt lat="46.2450979" lon="13.2824891"><ele>687.0</ele><time>2026-04-04T12:50:24.063Z</time></trkpt><trkpt lat="46.2451655" lon="13.282434"><ele>686.5</ele><time>2026-04-04T12:50:25.064Z</time></trkpt><trkpt lat="46.2452223" lon="13.2823356"><ele>686.0</ele><time>2026-04-04T12:50:26.064Z</time></trkpt><trkpt lat="46.2452719" lon="13.2822209"><ele>688.1666666666666</ele><time>2026-04-04T12:50:27.063Z</time></trkpt><trkpt lat="46.2453226" lon="13.2820968"><ele>690.3333333333333</ele><time>2026-04-04T12:50:28.063Z</time></trkpt><trkpt lat="46.2453689" lon="13.281977"><ele>692.5</ele><time>2026-04-04T12:50:29.064Z</time></trkpt><trkpt lat="46.2454084" lon="13.2818639"><ele>694.6666666666666</ele><time>2026-04-04T12:50:30.064Z</time></trkpt><trkpt lat="46.2454408" lon="13.2817596"><ele>696.8333333333334</ele><time>2026-04-04T12:50:31.064Z</time></trkpt><trkpt lat="46.2454626" lon="13.2816584"><ele>699.0</ele><time>2026-04-04T12:50:32.063Z</time></trkpt><trkpt lat="46.2454695" lon="13.2815571"><ele>699.0</ele><time>2026-04-04T12:50:33.064Z</time></trkpt><trkpt lat="46.2454528" lon="13.2814533"><ele>699.0</ele><time>2026-04-04T12:50:34.064Z</time></trkpt><trkpt lat="46.2454116" lon="13.2813541"><ele>699.0</ele><time>2026-04-04T12:50:35.063Z</time></trkpt><trkpt lat="46.2453523" lon="13.2812634"><ele>699.0</ele><time>2026-04-04T12:50:36.064Z</time></trkpt><trkpt lat="46.2453065" lon="13.2811543"><ele>699.0</ele><time>2026-04-04T12:50:37.063Z</time></trkpt><trkpt lat="46.2452956" lon="13.2810341"><ele>699.0</ele><time>2026-04-04T12:50:38.063Z</time></trkpt><trkpt lat="46.2452862" lon="13.2809222"><ele>700.3333333333334</ele><time>2026-04-04T12:50:39.064Z</time></trkpt><trkpt lat="46.2453448" lon="13.2808135"><ele>701.6666666666666</ele><time>2026-04-04T12:50:40.064Z</time></trkpt><trkpt lat="46.2454022" lon="13.2807335"><ele>703.0</ele><time>2026-04-04T12:50:41.064Z</time></trkpt><trkpt lat="46.2454781" lon="13.2806976"><ele>704.3333333333333</ele><time>2026-04-04T12:50:42.064Z</time></trkpt><trkpt lat="46.2455552" lon="13.2806591"><ele>705.6666666666666</ele><time>2026-04-04T12:50:43.064Z</time></trkpt><trkpt lat="46.2456236" lon="13.2806061"><ele>707.0</ele><time>2026-04-04T12:50:44.064Z</time></trkpt><trkpt lat="46.2456836" lon="13.28054"><ele>703.3333333333333</ele><time>2026-04-04T12:50:45.063Z</time></trkpt><trkpt lat="46.24571" lon="13.2804563"><ele>699.6666666666666</ele><time>2026-04-04T12:50:46.063Z</time></trkpt><trkpt lat="46.2457282" lon="13.2803457"><ele>696.0</ele><time>2026-04-04T12:50:47.063Z</time></trkpt><trkpt lat="46.2457401" lon="13.2802352"><ele>692.3333333333334</ele><time>2026-04-04T12:50:48.064Z</time></trkpt><trkpt lat="46.2457558" lon="13.2801138"><ele>688.6666666666667</ele><time>2026-04-04T12:50:49.063Z</time></trkpt><trkpt lat="46.2457715" lon="13.2799893"><ele>685.0</ele><time>2026-04-04T12:50:50.063Z</time></trkpt><trkpt lat="46.2458076" lon="13.2798736"><ele>685.0</ele><time>2026-04-04T12:50:51.063Z</time></trkpt><trkpt lat="46.2458597" lon="13.2797708"><ele>685.0</ele><time>2026-04-04T12:50:52.063Z</time></trkpt><trkpt lat="46.2459119" lon="13.2796724"><ele>685.0</ele><time>2026-04-04T12:50:53.064Z</time></trkpt><trkpt lat="46.2459597" lon="13.2795592"><ele>685.0</ele><time>2026-04-04T12:50:54.063Z</time></trkpt><trkpt lat="46.2459954" lon="13.2794381"><ele>685.0</ele><time>2026-04-04T12:50:55.064Z</time></trkpt><trkpt lat="46.2460229" lon="13.2792994"><ele>687.3333333333334</ele><time>2026-04-04T12:50:56.063Z</time></trkpt><trkpt lat="46.246053" lon="13.2791666"><ele>689.6666666666667</ele><time>2026-04-04T12:50:57.063Z</time></trkpt><trkpt lat="46.246062" lon="13.2790359"><ele>692.0</ele><time>2026-04-04T12:50:58.063Z</time></trkpt><trkpt lat="46.2460587" lon="13.2789143"><ele>694.3333333333334</ele><time>2026-04-04T12:50:59.064Z</time></trkpt><trkpt lat="46.2460555" lon="13.2787991"><ele>696.6666666666666</ele><time>2026-04-04T12:51:00.064Z</time></trkpt><trkpt lat="46.2460603" lon="13.2787024"><ele>699.0</ele><time>2026-04-04T12:51:01.064Z</time></trkpt><trkpt lat="46.2461174" lon="13.2785654"><ele>700.6666666666666</ele><time>2026-04-04T12:51:03.063Z</time></trkpt><trkpt lat="46.2461801" lon="13.2785519"><ele>702.3333333333334</ele><time>2026-04-04T12:51:04.064Z</time></trkpt><trkpt lat="46.2462435" lon="13.2785714"><ele>704.0</ele><time>2026-04-04T12:51:05.063Z</time></trkpt><trkpt lat="46.2463107" lon="13.2786494"><ele>705.6666666666667</ele><time>2026-04-04T12:51:06.064Z</time></trkpt><trkpt lat="46.2463866" lon="13.2787451"><ele>707.3333333333334</ele><time>2026-04-04T12:51:07.064Z</time></trkpt><trkpt lat="46.2464634" lon="13.2788549"><ele>709.0</ele><time>2026-04-04T12:51:08.063Z</time></trkpt><trkpt lat="46.2465301" lon="13.2789799"><ele>705.6666666666667</ele><time>2026-04-04T12:51:09.063Z</time></trkpt><trkpt lat="46.2465704" lon="13.2791133"><ele>702.3333333333334</ele><time>2026-04-04T12:51:10.064Z</time></trkpt><trkpt lat="46.2466036" lon="13.2792331"><ele>699.0</ele><time>2026-04-04T12:51:11.064Z</time></trkpt><trkpt lat="46.2466507" lon="13.2793374"><ele>695.6666666666666</ele><time>2026-04-04T12:51:12.064Z</time></trkpt><trkpt lat="46.2467096" lon="13.2794273"><ele>692.3333333333333</ele><time>2026-04-04T12:51:13.065Z</time></trkpt><trkpt lat="46.2467797" lon="13.2794832"><ele>689.0</ele><time>2026-04-04T12:51:14.065Z</time></trkpt><trkpt lat="46.2468696" lon="13.279499"><ele>689.0</ele><time>2026-04-04T12:51:15.065Z</time></trkpt><trkpt lat="46.2469623" lon="13.2795001"><ele>689.0</ele><time>2026-04-04T12:51:16.063Z</time></trkpt><trkpt lat="46.247061" lon="13.2795015"><ele>689.0</ele><time>2026-04-04T12:51:17.064Z</time></trkpt><trkpt lat="46.2471602" lon="13.2795226"><ele>689.0</ele><time>2026-04-04T12:51:18.063Z</time></trkpt><trkpt lat="46.2472484" lon="13.2795484"><ele>689.0</ele><time>2026-04-04T12:51:19.064Z</time></trkpt><trkpt lat="46.24732" lon="13.279541"><ele>689.5</ele><time>2026-04-04T12:51:20.063Z</time></trkpt><trkpt lat="46.2473856" lon="13.2794862"><ele>690.0</ele><time>2026-04-04T12:51:21.065Z</time></trkpt><trkpt lat="46.2474335" lon="13.2794041"><ele>690.5</ele><time>2026-04-04T12:51:22.065Z</time></trkpt><trkpt lat="46.2474686" lon="13.2792906"><ele>691.0</ele><time>2026-04-04T12:51:23.064Z</time></trkpt><trkpt lat="46.2475024" lon="13.2791658"><ele>691.5</ele><time>2026-04-04T12:51:24.065Z</time></trkpt><trkpt lat="46.247532" lon="13.2790337"><ele>692.0</ele><time>2026-04-04T12:51:25.065Z</time></trkpt><trkpt lat="46.2475611" lon="13.2789101"><ele>694.0</ele><time>2026-04-04T12:51:26.065Z</time></trkpt><trkpt lat="46.247601" lon="13.278804"><ele>696.0</ele><time>2026-04-04T12:51:27.063Z</time></trkpt><trkpt lat="46.2476514" lon="13.2787246"><ele>698.0</ele><time>2026-04-04T12:51:28.063Z</time></trkpt><trkpt lat="46.2477132" lon="13.27867"><ele>700.0</ele><time>2026-04-04T12:51:29.064Z</time></trkpt><trkpt lat="46.2477905" lon="13.2786461"><ele>702.0</ele><time>2026-04-04T12:51:30.064Z</time></trkpt><trkpt lat="46.2478721" lon="13.2786538"><ele>704.0</ele><time>2026-04-04T12:51:31.064Z</time></trkpt><trkpt lat="46.2479593" lon="13.2786952"><ele>704.0</ele><time>2026-04-04T12:51:32.064Z</time></trkpt><trkpt lat="46.2480425" lon="13.2787394"><ele>704.0</ele><time>2026-04-04T12:51:33.063Z</time></trkpt><trkpt lat="46.2481248" lon="13.2787631"><ele>704.0</ele><time>2026-04-04T12:51:34.063Z</time></trkpt><trkpt lat="46.2482002" lon="13.2787645"><ele>704.0</ele><time>2026-04-04T12:51:35.064Z</time></trkpt><trkpt lat="46.2482611" lon="13.278733"><ele>704.0</ele><time>2026-04-04T12:51:36.064Z</time></trkpt><trkpt lat="46.2483256" lon="13.2786862"><ele>704.0</ele><time>2026-04-04T12:51:37.064Z</time></trkpt><trkpt lat="46.2483957" lon="13.2786755"><ele>703.2857142857143</ele><time>2026-04-04T12:51:38.063Z</time></trkpt><trkpt lat="46.2484612" lon="13.2786999"><ele>702.5714285714286</ele><time>2026-04-04T12:51:39.065Z</time></trkpt><trkpt lat="46.2485139" lon="13.2787577"><ele>701.8571428571429</ele><time>2026-04-04T12:51:40.063Z</time></trkpt><trkpt lat="46.2485494" lon="13.2788472"><ele>701.1428571428571</ele><time>2026-04-04T12:51:41.063Z</time></trkpt><trkpt lat="46.2485664" lon="13.2789602"><ele>700.4285714285714</ele><time>2026-04-04T12:51:42.064Z</time></trkpt><trkpt lat="46.2485814" lon="13.279071"><ele>699.7142857142857</ele><time>2026-04-04T12:51:43.064Z</time></trkpt><trkpt lat="46.2486225" lon="13.2791758"><ele>699.0</ele><time>2026-04-04T12:51:44.063Z</time></trkpt><trkpt lat="46.2486852" lon="13.27926"><ele>699.2</ele><time>2026-04-04T12:51:45.063Z</time></trkpt><trkpt lat="46.2487611" lon="13.2793329"><ele>699.4000000000001</ele><time>2026-04-04T12:51:46.065Z</time></trkpt><trkpt lat="46.2488481" lon="13.2793856"><ele>699.6</ele><time>2026-04-04T12:51:47.065Z</time></trkpt><trkpt lat="46.2489412" lon="13.2793991"><ele>699.8</ele><time>2026-04-04T12:51:48.065Z</time></trkpt><trkpt lat="46.2490339" lon="13.2793994"><ele>700.0</ele><time>2026-04-04T12:51:49.065Z</time></trkpt><trkpt lat="46.2491163" lon="13.2793963"><ele>700.0</ele><time>2026-04-04T12:51:50.063Z</time></trkpt><trkpt lat="46.2491916" lon="13.2794155"><ele>700.0</ele><time>2026-04-04T12:51:51.064Z</time></trkpt><trkpt lat="46.2492653" lon="13.2794703"><ele>700.0</ele><time>2026-04-04T12:51:52.063Z</time></trkpt><trkpt lat="46.2493238" lon="13.279559"><ele>700.0</ele><time>2026-04-04T12:51:53.064Z</time></trkpt><trkpt lat="46.2493854" lon="13.2796542"><ele>700.0</ele><time>2026-04-04T12:51:54.065Z</time></trkpt><trkpt lat="46.2494638" lon="13.2797333"><ele>700.0</ele><time>2026-04-04T12:51:55.063Z</time></trkpt><trkpt lat="46.2495479" lon="13.2798107"><ele>697.6</ele><time>2026-04-04T12:51:56.064Z</time></trkpt><trkpt lat="46.2496195" lon="13.2798804"><ele>695.2</ele><time>2026-04-04T12:51:57.063Z</time></trkpt><trkpt lat="46.2496759" lon="13.2799525"><ele>692.8</ele><time>2026-04-04T12:51:58.064Z</time></trkpt><trkpt lat="46.2497084" lon="13.2801481"><ele>690.4</ele><time>2026-04-04T12:52:00.063Z</time></trkpt><trkpt lat="46.2497004" lon="13.280264"><ele>688.0</ele><time>2026-04-04T12:52:01.065Z</time></trkpt><trkpt lat="46.2497008" lon="13.2803662"><ele>688.0</ele><time>2026-04-04T12:52:02.063Z</time></trkpt><trkpt lat="46.2497683" lon="13.2805236"><ele>688.0</ele><time>2026-04-04T12:52:04.064Z</time></trkpt><trkpt lat="46.2498342" lon="13.2805853"><ele>688.0</ele><time>2026-04-04T12:52:05.064Z</time></trkpt><trkpt lat="46.2499186" lon="13.2806431"><ele>688.0</ele><time>2026-04-04T12:52:06.064Z</time></trkpt><trkpt lat="46.2500128" lon="13.2806995"><ele>688.0</ele><time>2026-04-04T12:52:07.063Z</time></trkpt><trkpt lat="46.2501133" lon="13.2807589"><ele>689.3333333333334</ele><time>2026-04-04T12:52:08.064Z</time></trkpt><trkpt lat="46.250212" lon="13.2808182"><ele>690.6666666666667</ele><time>2026-04-04T12:52:09.063Z</time></trkpt><trkpt lat="46.2503" lon="13.2808761"><ele>692.0</ele><time>2026-04-04T12:52:10.064Z</time></trkpt><trkpt lat="46.2503752" lon="13.2809129"><ele>693.3333333333334</ele><time>2026-04-04T12:52:11.063Z</time></trkpt><trkpt lat="46.2504557" lon="13.280921"><ele>694.6666666666666</ele><time>2026-04-04T12:52:12.064Z</time></trkpt><trkpt lat="46.2505387" lon="13.2809021"><ele>696.0</ele><time>2026-04-04T12:52:13.063Z</time></trkpt><trkpt lat="46.2506241" lon="13.280845"><ele>695.5</ele><time>2026-04-04T12:52:14.063Z</time></trkpt><trkpt lat="46.2507135" lon="13.2807603"><ele>695.0</ele><time>2026-04-04T12:52:15.064Z</time></trkpt><trkpt lat="46.2508033" lon="13.2806534"><ele>694.5</ele><time>2026-04-04T12:52:16.064Z</time></trkpt><trkpt lat="46.2509022" lon="13.2805411"><ele>694.0</ele><time>2026-04-04T12:52:17.064Z</time></trkpt><trkpt lat="46.251001" lon="13.2804264"><ele>692.8000000000001</ele><time>2026-04-04T12:52:18.063Z</time></trkpt><trkpt lat="46.2510936" lon="13.2803224"><ele>691.6</ele><time>2026-04-04T12:52:19.064Z</time></trkpt><trkpt lat="46.2511909" lon="13.2802463"><ele>690.4</ele><time>2026-04-04T12:52:20.064Z</time></trkpt><trkpt lat="46.2512945" lon="13.2802003"><ele>689.2</ele><time>2026-04-04T12:52:21.063Z</time></trkpt><trkpt lat="46.2514034" lon="13.2801617"><ele>688.0</ele><time>2026-04-04T12:52:22.064Z</time></trkpt><trkpt lat="46.2515119" lon="13.280123"><ele>688.0</ele><time>2026-04-04T12:52:23.063Z</time></trkpt><trkpt lat="46.2516144" lon="13.2800687"><ele>688.0</ele><time>2026-04-04T12:52:24.064Z</time></trkpt><trkpt lat="46.2517259" lon="13.2799972"><ele>688.0</ele><time>2026-04-04T12:52:25.064Z</time></trkpt><trkpt lat="46.2518352" lon="13.2799115"><ele>688.0</ele><time>2026-04-04T12:52:26.063Z</time></trkpt><trkpt lat="46.2519452" lon="13.2798195"><ele>687.75</ele><time>2026-04-04T12:52:27.064Z</time></trkpt><trkpt lat="46.2520571" lon="13.2797236"><ele>687.5</ele><time>2026-04-04T12:52:28.064Z</time></trkpt><trkpt lat="46.252159" lon="13.2796301"><ele>687.25</ele><time>2026-04-04T12:52:29.064Z</time></trkpt><trkpt lat="46.2522548" lon="13.2795436"><ele>687.0</ele><time>2026-04-04T12:52:30.064Z</time></trkpt><trkpt lat="46.2523467" lon="13.2794592"><ele>687.0</ele><time>2026-04-04T12:52:31.064Z</time></trkpt><trkpt lat="46.2524313" lon="13.2793861"><ele>687.0</ele><time>2026-04-04T12:52:32.065Z</time></trkpt><trkpt lat="46.2525152" lon="13.2793266"><ele>687.0</ele><time>2026-04-04T12:52:33.063Z</time></trkpt><trkpt lat="46.2526025" lon="13.2792894"><ele>687.0</ele><time>2026-04-04T12:52:34.064Z</time></trkpt><trkpt lat="46.2526935" lon="13.2792796"><ele>687.0</ele><time>2026-04-04T12:52:35.065Z</time></trkpt><trkpt lat="46.252789" lon="13.2792855"><ele>687.0</ele><time>2026-04-04T12:52:36.064Z</time></trkpt><trkpt lat="46.252884" lon="13.279304"><ele>687.0</ele><time>2026-04-04T12:52:37.064Z</time></trkpt><trkpt lat="46.2529852" lon="13.2793273"><ele>687.0</ele><time>2026-04-04T12:52:38.064Z</time></trkpt><trkpt lat="46.2530878" lon="13.279351"><ele>687.0</ele><time>2026-04-04T12:52:39.065Z</time></trkpt><trkpt lat="46.2531913" lon="13.279372"><ele>687.0</ele><time>2026-04-04T12:52:40.063Z</time></trkpt><trkpt lat="46.253297" lon="13.2793942"><ele>685.8</ele><time>2026-04-04T12:52:41.064Z</time></trkpt><trkpt lat="46.2534015" lon="13.2794135"><ele>684.6</ele><time>2026-04-04T12:52:42.064Z</time></trkpt><trkpt lat="46.2535016" lon="13.2794299"><ele>683.4</ele><time>2026-04-04T12:52:43.065Z</time></trkpt><trkpt lat="46.2535975" lon="13.2794499"><ele>682.1999999999999</ele><time>2026-04-04T12:52:44.065Z</time></trkpt><trkpt lat="46.2536855" lon="13.2794701"><ele>681.0</ele><time>2026-04-04T12:52:45.064Z</time></trkpt><trkpt lat="46.2537657" lon="13.2794831"><ele>681.0</ele><time>2026-04-04T12:52:46.064Z</time></trkpt><trkpt lat="46.2538365" lon="13.2794981"><ele>681.0</ele><time>2026-04-04T12:52:47.064Z</time></trkpt><trkpt lat="46.2539059" lon="13.2795119"><ele>681.0</ele><time>2026-04-04T12:52:48.063Z</time></trkpt><trkpt lat="46.2539732" lon="13.2795195"><ele>681.0</ele><time>2026-04-04T12:52:49.064Z</time></trkpt><trkpt lat="46.2540859" lon="13.2794816"><ele>681.0</ele><time>2026-04-04T12:52:51.064Z</time></trkpt><trkpt lat="46.2541794" lon="13.2794736"><ele>681.0</ele><time>2026-04-04T12:52:53.064Z</time></trkpt><trkpt lat="46.2542566" lon="13.2795308"><ele>678.6666666666666</ele><time>2026-04-04T12:52:55.065Z</time></trkpt><trkpt lat="46.2543165" lon="13.2796418"><ele>676.3333333333334</ele><time>2026-04-04T12:52:57.063Z</time></trkpt><trkpt lat="46.2543647" lon="13.2798006"><ele>674.0</ele><time>2026-04-04T12:52:59.064Z</time></trkpt><trkpt lat="46.2543931" lon="13.2798971"><ele>671.6666666666667</ele><time>2026-04-04T12:53:00.064Z</time></trkpt><trkpt lat="46.2544251" lon="13.2799919"><ele>669.3333333333334</ele><time>2026-04-04T12:53:01.063Z</time></trkpt><trkpt lat="46.2544593" lon="13.2800962"><ele>667.0</ele><time>2026-04-04T12:53:02.063Z</time></trkpt><trkpt lat="46.2544947" lon="13.2802002"><ele>667.0</ele><time>2026-04-04T12:53:03.064Z</time></trkpt><trkpt lat="46.2545324" lon="13.2803038"><ele>667.0</ele><time>2026-04-04T12:53:04.064Z</time></trkpt><trkpt lat="46.2545664" lon="13.2803935"><ele>667.0</ele><time>2026-04-04T12:53:05.064Z</time></trkpt><trkpt lat="46.2545937" lon="13.2804819"><ele>667.0</ele><time>2026-04-04T12:53:06.064Z</time></trkpt><trkpt lat="46.2546078" lon="13.2805773"><ele>667.0</ele><time>2026-04-04T12:53:07.064Z</time></trkpt><trkpt lat="46.2546081" lon="13.280672"><ele>667.0</ele><time>2026-04-04T12:53:08.063Z</time></trkpt><trkpt lat="46.2545749" lon="13.2808074"><ele>667.0</ele><time>2026-04-04T12:53:10.063Z</time></trkpt><trkpt lat="46.2544911" lon="13.2808617"><ele>667.0</ele><time>2026-04-04T12:53:12.063Z</time></trkpt><trkpt lat="46.2543757" lon="13.2809107"><ele>667.0</ele><time>2026-04-04T12:53:14.064Z</time></trkpt><trkpt lat="46.2543119" lon="13.2809674"><ele>667.0</ele><time>2026-04-04T12:53:15.064Z</time></trkpt><trkpt lat="46.2542464" lon="13.2810413"><ele>667.0</ele><time>2026-04-04T12:53:16.063Z</time></trkpt><trkpt lat="46.2541856" lon="13.2811216"><ele>667.0</ele><time>2026-04-04T12:53:17.064Z</time></trkpt><trkpt lat="46.2541326" lon="13.2812201"><ele>667.0</ele><time>2026-04-04T12:53:18.064Z</time></trkpt><trkpt lat="46.2540912" lon="13.2813472"><ele>667.0</ele><time>2026-04-04T12:53:19.064Z</time></trkpt><trkpt lat="46.2540686" lon="13.2814918"><ele>667.0</ele><time>2026-04-04T12:53:20.063Z</time></trkpt><trkpt lat="46.2540632" lon="13.2816412"><ele>667.0</ele><time>2026-04-04T12:53:21.064Z</time></trkpt><trkpt lat="46.2540636" lon="13.2817828"><ele>665.6666666666667</ele><time>2026-04-04T12:53:22.064Z</time></trkpt><trkpt lat="46.2540624" lon="13.2819149"><ele>664.3333333333334</ele><time>2026-04-04T12:53:23.064Z</time></trkpt><trkpt lat="46.2540463" lon="13.2820286"><ele>663.0</ele><time>2026-04-04T12:53:24.064Z</time></trkpt><trkpt lat="46.2540107" lon="13.2821323"><ele>661.6666666666666</ele><time>2026-04-04T12:53:25.064Z</time></trkpt><trkpt lat="46.2539686" lon="13.2822136"><ele>660.3333333333333</ele><time>2026-04-04T12:53:26.064Z</time></trkpt><trkpt lat="46.2539369" lon="13.2822944"><ele>659.0</ele><time>2026-04-04T12:53:27.063Z</time></trkpt><trkpt lat="46.2539648" lon="13.2824416"><ele>659.0</ele><time>2026-04-04T12:53:29.063Z</time></trkpt><trkpt lat="46.2540579" lon="13.2824232"><ele>659.0</ele><time>2026-04-04T12:53:31.064Z</time></trkpt><trkpt lat="46.2541055" lon="13.282353"><ele>659.0</ele><time>2026-04-04T12:53:32.063Z</time></trkpt><trkpt lat="46.2541574" lon="13.2822528"><ele>659.0</ele><time>2026-04-04T12:53:33.065Z</time></trkpt><trkpt lat="46.2542047" lon="13.2821285"><ele>659.0</ele><time>2026-04-04T12:53:34.064Z</time></trkpt><trkpt lat="46.2542416" lon="13.2819889"><ele>659.0</ele><time>2026-04-04T12:53:35.063Z</time></trkpt><trkpt lat="46.2542715" lon="13.2818448"><ele>659.0</ele><time>2026-04-04T12:53:36.064Z</time></trkpt><trkpt lat="46.2543243" lon="13.2817046"><ele>659.0</ele><time>2026-04-04T12:53:37.064Z</time></trkpt><trkpt lat="46.2544073" lon="13.2815801"><ele>659.0</ele><time>2026-04-04T12:53:38.064Z</time></trkpt><trkpt lat="46.2545026" lon="13.2814751"><ele>660.6</ele><time>2026-04-04T12:53:39.064Z</time></trkpt><trkpt lat="46.2545861" lon="13.2813644"><ele>662.2</ele><time>2026-04-04T12:53:40.063Z</time></trkpt><trkpt lat="46.254673" lon="13.2812712"><ele>663.8000000000001</ele><time>2026-04-04T12:53:41.063Z</time></trkpt><trkpt lat="46.2547661" lon="13.2812198"><ele>665.4000000000001</ele><time>2026-04-04T12:53:42.064Z</time></trkpt><trkpt lat="46.2548533" lon="13.2811558"><ele>667.0</ele><time>2026-04-04T12:53:43.063Z</time></trkpt><trkpt lat="46.2549365" lon="13.281076"><ele>663.6</ele><time>2026-04-04T12:53:44.063Z</time></trkpt><trkpt lat="46.2550006" lon="13.2809705"><ele>660.2</ele><time>2026-04-04T12:53:45.064Z</time></trkpt><trkpt lat="46.2550412" lon="13.2808483"><ele>656.8</ele><time>2026-04-04T12:53:46.064Z</time></trkpt><trkpt lat="46.2550662" lon="13.2807222"><ele>653.4</ele><time>2026-04-04T12:53:47.065Z</time></trkpt><trkpt lat="46.2550837" lon="13.2805955"><ele>650.0</ele><time>2026-04-04T12:53:48.064Z</time></trkpt><trkpt lat="46.2551" lon="13.2804711"><ele>649.8333333333333</ele><time>2026-04-04T12:53:49.063Z</time></trkpt><trkpt lat="46.2551114" lon="13.2803526"><ele>649.6666666666666</ele><time>2026-04-04T12:53:50.063Z</time></trkpt><trkpt lat="46.2551049" lon="13.2802362"><ele>649.5</ele><time>2026-04-04T12:53:51.064Z</time></trkpt><trkpt lat="46.2550749" lon="13.2801264"><ele>649.3333333333334</ele><time>2026-04-04T12:53:52.063Z</time></trkpt><trkpt lat="46.2550248" lon="13.2800247"><ele>649.1666666666667</ele><time>2026-04-04T12:53:53.063Z</time></trkpt><trkpt lat="46.2549649" lon="13.2799249"><ele>649.0</ele><time>2026-04-04T12:53:54.065Z</time></trkpt><trkpt lat="46.2549074" lon="13.2798228"><ele>647.5</ele><time>2026-04-04T12:53:55.064Z</time></trkpt><trkpt lat="46.2548524" lon="13.2797217"><ele>646.0</ele><time>2026-04-04T12:53:56.064Z</time></trkpt><trkpt lat="46.2548033" lon="13.2796179"><ele>644.5</ele><time>2026-04-04T12:53:57.065Z</time></trkpt><trkpt lat="46.2547688" lon="13.2795042"><ele>643.0</ele><time>2026-04-04T12:53:58.064Z</time></trkpt><trkpt lat="46.2547608" lon="13.2793769"><ele>641.5</ele><time>2026-04-04T12:53:59.064Z</time></trkpt><trkpt lat="46.254765" lon="13.2792353"><ele>640.0</ele><time>2026-04-04T12:54:00.064Z</time></trkpt><trkpt lat="46.2547612" lon="13.2790787"><ele>644.8</ele><time>2026-04-04T12:54:01.064Z</time></trkpt><trkpt lat="46.2547416" lon="13.2789166"><ele>649.6</ele><time>2026-04-04T12:54:02.064Z</time></trkpt><trkpt lat="46.2547208" lon="13.2787605"><ele>654.4000000000001</ele><time>2026-04-04T12:54:03.063Z</time></trkpt><trkpt lat="46.2547006" lon="13.2786154"><ele>659.2</ele><time>2026-04-04T12:54:04.064Z</time></trkpt><trkpt lat="46.2546804" lon="13.2784833"><ele>664.0</ele><time>2026-04-04T12:54:05.064Z</time></trkpt><trkpt lat="46.2546616" lon="13.2783534"><ele>664.0</ele><time>2026-04-04T12:54:06.063Z</time></trkpt><trkpt lat="46.2546377" lon="13.2782373"><ele>664.0</ele><time>2026-04-04T12:54:07.064Z</time></trkpt><trkpt lat="46.2546142" lon="13.2781524"><ele>664.0</ele><time>2026-04-04T12:54:08.063Z</time></trkpt><trkpt lat="46.2545675" lon="13.2780318"><ele>664.0</ele><time>2026-04-04T12:54:10.065Z</time></trkpt><trkpt lat="46.2545456" lon="13.2779326"><ele>664.0</ele><time>2026-04-04T12:54:12.064Z</time></trkpt><trkpt lat="46.2546101" lon="13.2778589"><ele>664.0</ele><time>2026-04-04T12:54:15.064Z</time></trkpt><trkpt lat="46.2546599" lon="13.277976"><ele>664.0</ele><time>2026-04-04T12:54:18.065Z</time></trkpt><trkpt lat="46.2546877" lon="13.2781234"><ele>664.0</ele><time>2026-04-04T12:54:20.064Z</time></trkpt><trkpt lat="46.2547092" lon="13.2782151"><ele>664.0</ele><time>2026-04-04T12:54:21.064Z</time></trkpt><trkpt lat="46.2547377" lon="13.2783261"><ele>664.0</ele><time>2026-04-04T12:54:22.063Z</time></trkpt><trkpt lat="46.2547688" lon="13.2784498"><ele>664.0</ele><time>2026-04-04T12:54:23.065Z</time></trkpt><trkpt lat="46.2548051" lon="13.2785757"><ele>664.0</ele><time>2026-04-04T12:54:24.065Z</time></trkpt><trkpt lat="46.2548418" lon="13.2787081"><ele>660.0</ele><time>2026-04-04T12:54:25.064Z</time></trkpt><trkpt lat="46.2548737" lon="13.2788372"><ele>656.0</ele><time>2026-04-04T12:54:26.064Z</time></trkpt><trkpt lat="46.2549097" lon="13.2789602"><ele>652.0</ele><time>2026-04-04T12:54:27.064Z</time></trkpt><trkpt lat="46.2549451" lon="13.2790757"><ele>648.0</ele><time>2026-04-04T12:54:28.064Z</time></trkpt><trkpt lat="46.2549832" lon="13.2791801"><ele>644.0</ele><time>2026-04-04T12:54:29.064Z</time></trkpt><trkpt lat="46.2550345" lon="13.2792663"><ele>640.0</ele><time>2026-04-04T12:54:30.064Z</time></trkpt><trkpt lat="46.2551007" lon="13.2793232"><ele>640.0</ele><time>2026-04-04T12:54:31.064Z</time></trkpt><trkpt lat="46.2551729" lon="13.2793591"><ele>640.0</ele><time>2026-04-04T12:54:32.064Z</time></trkpt><trkpt lat="46.255248" lon="13.2793981"><ele>640.0</ele><time>2026-04-04T12:54:33.065Z</time></trkpt><trkpt lat="46.2553217" lon="13.2794821"><ele>640.0</ele><time>2026-04-04T12:54:34.065Z</time></trkpt><trkpt lat="46.2553916" lon="13.2795952"><ele>640.0</ele><time>2026-04-04T12:54:35.064Z</time></trkpt><trkpt lat="46.2554594" lon="13.2797297"><ele>642.25</ele><time>2026-04-04T12:54:36.064Z</time></trkpt><trkpt lat="46.2555241" lon="13.2798779"><ele>644.5</ele><time>2026-04-04T12:54:37.065Z</time></trkpt><trkpt lat="46.255573" lon="13.2800355"><ele>646.75</ele><time>2026-04-04T12:54:38.064Z</time></trkpt><trkpt lat="46.2556059" lon="13.2801924"><ele>649.0</ele><time>2026-04-04T12:54:39.064Z</time></trkpt><trkpt lat="46.2556427" lon="13.280341"><ele>646.8000000000001</ele><time>2026-04-04T12:54:40.065Z</time></trkpt><trkpt lat="46.255699" lon="13.2804699"><ele>644.6</ele><time>2026-04-04T12:54:41.064Z</time></trkpt><trkpt lat="46.2557732" lon="13.280579"><ele>642.4</ele><time>2026-04-04T12:54:42.064Z</time></trkpt><trkpt lat="46.2558546" lon="13.2806877"><ele>640.2</ele><time>2026-04-04T12:54:43.064Z</time></trkpt><trkpt lat="46.255928" lon="13.2808068"><ele>638.0</ele><time>2026-04-04T12:54:44.063Z</time></trkpt><trkpt lat="46.2559952" lon="13.2809329"><ele>638.0</ele><time>2026-04-04T12:54:45.063Z</time></trkpt><trkpt lat="46.2560623" lon="13.2810467"><ele>638.0</ele><time>2026-04-04T12:54:46.064Z</time></trkpt><trkpt lat="46.2561428" lon="13.2811315"><ele>638.0</ele><time>2026-04-04T12:54:47.063Z</time></trkpt><trkpt lat="46.2562283" lon="13.281188"><ele>638.0</ele><time>2026-04-04T12:54:48.064Z</time></trkpt><trkpt lat="46.256315" lon="13.2812289"><ele>638.0</ele><time>2026-04-04T12:54:49.065Z</time></trkpt><trkpt lat="46.2563896" lon="13.2812814"><ele>638.0</ele><time>2026-04-04T12:54:50.063Z</time></trkpt><trkpt lat="46.2564463" lon="13.2813636"><ele>638.0</ele><time>2026-04-04T12:54:51.064Z</time></trkpt><trkpt lat="46.2564751" lon="13.2814816"><ele>638.0</ele><time>2026-04-04T12:54:52.064Z</time></trkpt><trkpt lat="46.2564797" lon="13.2816233"><ele>638.0</ele><time>2026-04-04T12:54:53.064Z</time></trkpt><trkpt lat="46.2564679" lon="13.2817815"><ele>638.0</ele><time>2026-04-04T12:54:54.064Z</time></trkpt><trkpt lat="46.2564501" lon="13.2819481"><ele>637.8</ele><time>2026-04-04T12:54:55.064Z</time></trkpt><trkpt lat="46.2564337" lon="13.2820909"><ele>637.5999999999999</ele><time>2026-04-04T12:54:56.064Z</time></trkpt><trkpt lat="46.2564258" lon="13.2822108"><ele>637.4000000000001</ele><time>2026-04-04T12:54:57.063Z</time></trkpt><trkpt lat="46.256418" lon="13.282306"><ele>637.2</ele><time>2026-04-04T12:54:58.064Z</time></trkpt><trkpt lat="46.2563646" lon="13.2824535"><ele>637.0</ele><time>2026-04-04T12:55:00.064Z</time></trkpt><trkpt lat="46.2562632" lon="13.2825356"><ele>635.8333333333334</ele><time>2026-04-04T12:55:02.064Z</time></trkpt><trkpt lat="46.2561728" lon="13.2825952"><ele>634.6666666666667</ele><time>2026-04-04T12:55:04.063Z</time></trkpt><trkpt lat="46.2561027" lon="13.2826479"><ele>633.5</ele><time>2026-04-04T12:55:06.064Z</time></trkpt><trkpt lat="46.2560442" lon="13.2826961"><ele>632.3333333333334</ele><time>2026-04-04T12:55:08.064Z</time></trkpt><trkpt lat="46.2559945" lon="13.2827559"><ele>631.1666666666666</ele><time>2026-04-04T12:55:10.063Z</time></trkpt><trkpt lat="46.2559699" lon="13.2828685"><ele>630.0</ele><time>2026-04-04T12:55:13.064Z</time></trkpt><trkpt lat="46.2560154" lon="13.2829665"><ele>630.0</ele><time>2026-04-04T12:55:17.064Z</time></trkpt><trkpt lat="46.2560819" lon="13.2829767"><ele>630.0</ele><time>2026-04-04T12:55:21.064Z</time></trkpt><trkpt lat="46.2560625" lon="13.2828849"><ele>630.0</ele><time>2026-04-04T12:56:08.065Z</time></trkpt><trkpt lat="46.2560826" lon="13.2829725"><ele>630.0</ele><time>2026-04-04T12:57:55.064Z</time></trkpt><trkpt lat="46.2561283" lon="13.283044"><ele>630.0</ele><time>2026-04-04T12:58:25.063Z</time></trkpt><trkpt lat="46.2561915" lon="13.2830442"><ele>630.0</ele><time>2026-04-04T12:58:31.065Z</time></trkpt><trkpt lat="46.2562542" lon="13.2830602"><ele>630.0</ele><time>2026-04-04T12:58:37.064Z</time></trkpt><trkpt lat="46.2563246" lon="13.2830816"><ele>630.0</ele><time>2026-04-04T12:58:44.065Z</time></trkpt><trkpt lat="46.2563116" lon="13.2831767"><ele>630.0</ele><time>2026-04-04T13:06:09.063Z</time></trkpt><trkpt lat="46.2563651" lon="13.2831056"><ele>630.0</ele><time>2026-04-04T13:07:52.064Z</time></trkpt><trkpt lat="46.2563025" lon="13.2830625"><ele>630.0</ele><time>2026-04-04T13:08:08.063Z</time></trkpt><trkpt lat="46.2562411" lon="13.2830248"><ele>630.0</ele><time>2026-04-04T13:08:29.062Z</time></trkpt><trkpt lat="46.2561714" lon="13.2830362"><ele>630.0</ele><time>2026-04-04T13:08:36.063Z</time></trkpt><trkpt lat="46.2561071" lon="13.2830556"><ele>630.0</ele><time>2026-04-04T13:08:42.062Z</time></trkpt><trkpt lat="46.2560527" lon="13.2830092"><ele>630.0</ele><time>2026-04-04T13:08:48.062Z</time></trkpt><trkpt lat="46.2560626" lon="13.2829142"><ele>630.0</ele><time>2026-04-04T13:08:57.994Z</time></trkpt><trkpt lat="46.2560634" lon="13.2828172"><ele>630.0</ele><time>2026-04-04T13:13:39.063Z</time></trkpt><trkpt lat="46.2559895" lon="13.2827381"><ele>630.0</ele><time>2026-04-04T13:13:42.063Z</time></trkpt><trkpt lat="46.2558906" lon="13.2828115"><ele>630.0</ele><time>2026-04-04T13:13:44.062Z</time></trkpt><trkpt lat="46.2557864" lon="13.2829191"><ele>630.0</ele><time>2026-04-04T13:13:46.062Z</time></trkpt><trkpt lat="46.2557308" lon="13.28301"><ele>630.0</ele><time>2026-04-04T13:13:47.063Z</time></trkpt><trkpt lat="46.2556815" lon="13.2831175"><ele>630.0</ele><time>2026-04-04T13:13:48.062Z</time></trkpt><trkpt lat="46.2556351" lon="13.2832357"><ele>630.0</ele><time>2026-04-04T13:13:49.062Z</time></trkpt><trkpt lat="46.2555887" lon="13.2833527"><ele>630.0</ele><time>2026-04-04T13:13:50.063Z</time></trkpt><trkpt lat="46.2555384" lon="13.2834713"><ele>629.0</ele><time>2026-04-04T13:13:51.062Z</time></trkpt><trkpt lat="46.2554795" lon="13.2835824"><ele>628.0</ele><time>2026-04-04T13:13:52.063Z</time></trkpt><trkpt lat="46.2554109" lon="13.2836865"><ele>627.0</ele><time>2026-04-04T13:13:53.064Z</time></trkpt><trkpt lat="46.2553352" lon="13.2837876"><ele>626.0</ele><time>2026-04-04T13:13:54.063Z</time></trkpt><trkpt lat="46.2552601" lon="13.2838842"><ele>625.0</ele><time>2026-04-04T13:13:55.063Z</time></trkpt><trkpt lat="46.2551878" lon="13.2839765"><ele>623.8333333333334</ele><time>2026-04-04T13:13:56.063Z</time></trkpt><trkpt lat="46.255121" lon="13.2840681"><ele>622.6666666666667</ele><time>2026-04-04T13:13:57.062Z</time></trkpt><trkpt lat="46.2550624" lon="13.2841645"><ele>621.5</ele><time>2026-04-04T13:13:58.063Z</time></trkpt><trkpt lat="46.2550291" lon="13.2842854"><ele>620.3333333333334</ele><time>2026-04-04T13:13:59.063Z</time></trkpt><trkpt lat="46.2550212" lon="13.2844123"><ele>619.1666666666666</ele><time>2026-04-04T13:14:00.064Z</time></trkpt><trkpt lat="46.2550192" lon="13.2845421"><ele>618.0</ele><time>2026-04-04T13:14:01.062Z</time></trkpt><trkpt lat="46.2550135" lon="13.2846736"><ele>617.0</ele><time>2026-04-04T13:14:02.063Z</time></trkpt><trkpt lat="46.2549785" lon="13.2848068"><ele>616.0</ele><time>2026-04-04T13:14:03.062Z</time></trkpt><trkpt lat="46.2549206" lon="13.2849276"><ele>615.0</ele><time>2026-04-04T13:14:04.063Z</time></trkpt><trkpt lat="46.2548555" lon="13.2850514"><ele>614.0</ele><time>2026-04-04T13:14:05.064Z</time></trkpt><trkpt lat="46.2548088" lon="13.2851864"><ele>613.0</ele><time>2026-04-04T13:14:06.062Z</time></trkpt><trkpt lat="46.2547848" lon="13.2853319"><ele>612.1999999999999</ele><time>2026-04-04T13:14:07.063Z</time></trkpt><trkpt lat="46.2547716" lon="13.2854688"><ele>611.4</ele><time>2026-04-04T13:14:08.062Z</time></trkpt><trkpt lat="46.2547683" lon="13.2856002"><ele>610.5999999999999</ele><time>2026-04-04T13:14:09.063Z</time></trkpt><trkpt lat="46.2547743" lon="13.2857287"><ele>609.8</ele><time>2026-04-04T13:14:10.063Z</time></trkpt><trkpt lat="46.2547962" lon="13.2858518"><ele>609.0</ele><time>2026-04-04T13:14:11.062Z</time></trkpt><trkpt lat="46.2548138" lon="13.2859803"><ele>609.0</ele><time>2026-04-04T13:14:12.063Z</time></trkpt><trkpt lat="46.254806" lon="13.2861176"><ele>609.0</ele><time>2026-04-04T13:14:13.063Z</time></trkpt><trkpt lat="46.2547791" lon="13.2862653"><ele>609.0</ele><time>2026-04-04T13:14:14.063Z</time></trkpt><trkpt lat="46.25474" lon="13.2864188"><ele>609.0</ele><time>2026-04-04T13:14:15.062Z</time></trkpt><trkpt lat="46.2546938" lon="13.2865807"><ele>609.0</ele><time>2026-04-04T13:14:16.064Z</time></trkpt><trkpt lat="46.2546511" lon="13.2867492"><ele>608.8</ele><time>2026-04-04T13:14:17.062Z</time></trkpt><trkpt lat="46.2546096" lon="13.2869084"><ele>608.5999999999999</ele><time>2026-04-04T13:14:18.064Z</time></trkpt><trkpt lat="46.2545707" lon="13.287064"><ele>608.4</ele><time>2026-04-04T13:14:19.063Z</time></trkpt><trkpt lat="46.2545312" lon="13.2872037"><ele>608.1999999999999</ele><time>2026-04-04T13:14:20.062Z</time></trkpt><trkpt lat="46.2544814" lon="13.2873319"><ele>608.0</ele><time>2026-04-04T13:14:21.062Z</time></trkpt><trkpt lat="46.2544109" lon="13.2874404"><ele>608.0</ele><time>2026-04-04T13:14:22.062Z</time></trkpt><trkpt lat="46.25432" lon="13.2875283"><ele>608.0</ele><time>2026-04-04T13:14:23.062Z</time></trkpt><trkpt lat="46.2542159" lon="13.2876041"><ele>608.0</ele><time>2026-04-04T13:14:24.062Z</time></trkpt><trkpt lat="46.2541034" lon="13.2876747"><ele>608.0</ele><time>2026-04-04T13:14:25.063Z</time></trkpt><trkpt lat="46.2539834" lon="13.2877429"><ele>608.0</ele><time>2026-04-04T13:14:26.062Z</time></trkpt><trkpt lat="46.2538584" lon="13.2878093"><ele>608.0</ele><time>2026-04-04T13:14:27.063Z</time></trkpt><trkpt lat="46.2537334" lon="13.2878668"><ele>608.0</ele><time>2026-04-04T13:14:28.063Z</time></trkpt><trkpt lat="46.2536098" lon="13.2879173"><ele>608.0</ele><time>2026-04-04T13:14:29.063Z</time></trkpt><trkpt lat="46.2534884" lon="13.2879594"><ele>608.0</ele><time>2026-04-04T13:14:30.062Z</time></trkpt><trkpt lat="46.2533704" lon="13.2879989"><ele>608.0</ele><time>2026-04-04T13:14:31.063Z</time></trkpt><trkpt lat="46.2532562" lon="13.2880327"><ele>608.0</ele><time>2026-04-04T13:14:32.064Z</time></trkpt><trkpt lat="46.2531396" lon="13.2880409"><ele>608.0</ele><time>2026-04-04T13:14:33.063Z</time></trkpt><trkpt lat="46.2530316" lon="13.2880179"><ele>607.6</ele><time>2026-04-04T13:14:34.062Z</time></trkpt><trkpt lat="46.2529246" lon="13.2879787"><ele>607.1999999999999</ele><time>2026-04-04T13:14:35.062Z</time></trkpt><trkpt lat="46.2528226" lon="13.2879282"><ele>606.8</ele><time>2026-04-04T13:14:36.062Z</time></trkpt><trkpt lat="46.2527177" lon="13.2878638"><ele>606.4</ele><time>2026-04-04T13:14:37.063Z</time></trkpt><trkpt lat="46.2526188" lon="13.2877983"><ele>606.0</ele><time>2026-04-04T13:14:38.063Z</time></trkpt><trkpt lat="46.2525239" lon="13.2877328"><ele>606.0</ele><time>2026-04-04T13:14:39.062Z</time></trkpt><trkpt lat="46.252431" lon="13.2876728"><ele>606.0</ele><time>2026-04-04T13:14:40.063Z</time></trkpt><trkpt lat="46.2523392" lon="13.2875972"><ele>606.0</ele><time>2026-04-04T13:14:41.062Z</time></trkpt><trkpt lat="46.2522527" lon="13.2875284"><ele>606.0</ele><time>2026-04-04T13:14:42.063Z</time></trkpt><trkpt lat="46.2521628" lon="13.2874539"><ele>606.0</ele><time>2026-04-04T13:14:43.063Z</time></trkpt><trkpt lat="46.2520759" lon="13.2873903"><ele>605.5714285714286</ele><time>2026-04-04T13:14:44.063Z</time></trkpt><trkpt lat="46.2519992" lon="13.2873483"><ele>605.1428571428571</ele><time>2026-04-04T13:14:45.062Z</time></trkpt><trkpt lat="46.251928" lon="13.2873141"><ele>604.7142857142858</ele><time>2026-04-04T13:14:46.063Z</time></trkpt><trkpt lat="46.2518603" lon="13.2872896"><ele>604.2857142857142</ele><time>2026-04-04T13:14:47.062Z</time></trkpt><trkpt lat="46.2517881" lon="13.2872817"><ele>603.8571428571428</ele><time>2026-04-04T13:14:48.064Z</time></trkpt><trkpt lat="46.251714" lon="13.2872889"><ele>603.4285714285714</ele><time>2026-04-04T13:14:49.062Z</time></trkpt><trkpt lat="46.2516452" lon="13.287298"><ele>603.0</ele><time>2026-04-04T13:14:50.063Z</time></trkpt><trkpt lat="46.2515722" lon="13.287305"><ele>603.0</ele><time>2026-04-04T13:14:51.063Z</time></trkpt><trkpt lat="46.2514922" lon="13.2873091"><ele>603.0</ele><time>2026-04-04T13:14:52.063Z</time></trkpt><trkpt lat="46.2514126" lon="13.2873081"><ele>603.0</ele><time>2026-04-04T13:14:53.063Z</time></trkpt><trkpt lat="46.2513314" lon="13.2872961"><ele>603.0</ele><time>2026-04-04T13:14:54.063Z</time></trkpt><trkpt lat="46.2512505" lon="13.2872746"><ele>603.0</ele><time>2026-04-04T13:14:55.063Z</time></trkpt><trkpt lat="46.251169" lon="13.287273"><ele>603.0</ele><time>2026-04-04T13:14:56.063Z</time></trkpt><trkpt lat="46.251079" lon="13.287279"><ele>600.8</ele><time>2026-04-04T13:14:57.063Z</time></trkpt><trkpt lat="46.250983" lon="13.2872833"><ele>598.5999999999999</ele><time>2026-04-04T13:14:58.062Z</time></trkpt><trkpt lat="46.2508818" lon="13.2873042"><ele>596.4000000000001</ele><time>2026-04-04T13:14:59.063Z</time></trkpt><trkpt lat="46.2507921" lon="13.2873369"><ele>594.2</ele><time>2026-04-04T13:15:00.063Z</time></trkpt><trkpt lat="46.2507038" lon="13.2873769"><ele>592.0</ele><time>2026-04-04T13:15:01.063Z</time></trkpt><trkpt lat="46.2506213" lon="13.2874086"><ele>589.8000000000001</ele><time>2026-04-04T13:15:02.063Z</time></trkpt><trkpt lat="46.2505252" lon="13.2874258"><ele>587.6</ele><time>2026-04-04T13:15:03.063Z</time></trkpt><trkpt lat="46.2504272" lon="13.287441"><ele>585.4000000000001</ele><time>2026-04-04T13:15:04.062Z</time></trkpt><trkpt lat="46.2503331" lon="13.2874585"><ele>583.2</ele><time>2026-04-04T13:15:05.062Z</time></trkpt><trkpt lat="46.2502251" lon="13.2874473"><ele>581.0</ele><time>2026-04-04T13:15:06.063Z</time></trkpt><trkpt lat="46.2501177" lon="13.2874385"><ele>581.0</ele><time>2026-04-04T13:15:07.062Z</time></trkpt><trkpt lat="46.2500046" lon="13.2874114"><ele>581.0</ele><time>2026-04-04T13:15:08.062Z</time></trkpt><trkpt lat="46.2498913" lon="13.2873798"><ele>581.0</ele><time>2026-04-04T13:15:09.063Z</time></trkpt><trkpt lat="46.2497773" lon="13.2873656"><ele>581.0</ele><time>2026-04-04T13:15:10.064Z</time></trkpt><trkpt lat="46.2496659" lon="13.2873613"><ele>579.8</ele><time>2026-04-04T13:15:11.063Z</time></trkpt><trkpt lat="46.2495524" lon="13.2873812"><ele>578.6</ele><time>2026-04-04T13:15:12.062Z</time></trkpt><trkpt lat="46.249445" lon="13.2874164"><ele>577.4</ele><time>2026-04-04T13:15:13.063Z</time></trkpt><trkpt lat="46.2493399" lon="13.2874579"><ele>576.2</ele><time>2026-04-04T13:15:14.064Z</time></trkpt><trkpt lat="46.2492445" lon="13.2874659"><ele>575.0</ele><time>2026-04-04T13:15:15.063Z</time></trkpt><trkpt lat="46.24914" lon="13.2874729"><ele>575.0</ele><time>2026-04-04T13:15:16.062Z</time></trkpt><trkpt lat="46.2490426" lon="13.2874564"><ele>575.0</ele><time>2026-04-04T13:15:17.062Z</time></trkpt><trkpt lat="46.2489391" lon="13.2874465"><ele>575.0</ele><time>2026-04-04T13:15:18.064Z</time></trkpt><trkpt lat="46.2488403" lon="13.2874791"><ele>575.0</ele><time>2026-04-04T13:15:19.063Z</time></trkpt><trkpt lat="46.2487376" lon="13.2874987"><ele>575.0</ele><time>2026-04-04T13:15:20.063Z</time></trkpt><trkpt lat="46.2486304" lon="13.2875828"><ele>571.75</ele><time>2026-04-04T13:15:21.063Z</time></trkpt><trkpt lat="46.2485211" lon="13.2876341"><ele>568.5</ele><time>2026-04-04T13:15:22.062Z</time></trkpt><trkpt lat="46.2484193" lon="13.2877196"><ele>565.25</ele><time>2026-04-04T13:15:23.062Z</time></trkpt><trkpt lat="46.2483001" lon="13.2877926"><ele>562.0</ele><time>2026-04-04T13:15:24.064Z</time></trkpt><trkpt lat="46.2481735" lon="13.2878492"><ele>561.75</ele><time>2026-04-04T13:15:25.063Z</time></trkpt><trkpt lat="46.2480448" lon="13.2878927"><ele>561.5</ele><time>2026-04-04T13:15:26.063Z</time></trkpt><trkpt lat="46.2479352" lon="13.2880046"><ele>561.25</ele><time>2026-04-04T13:15:27.062Z</time></trkpt><trkpt lat="46.2478155" lon="13.288084"><ele>561.0</ele><time>2026-04-04T13:15:28.064Z</time></trkpt><trkpt lat="46.2477116" lon="13.2881725"><ele>560.75</ele><time>2026-04-04T13:15:29.063Z</time></trkpt><trkpt lat="46.2476006" lon="13.2882882"><ele>560.5</ele><time>2026-04-04T13:15:30.062Z</time></trkpt><trkpt lat="46.2475086" lon="13.2883795"><ele>560.25</ele><time>2026-04-04T13:15:31.062Z</time></trkpt><trkpt lat="46.2474025" lon="13.2884689"><ele>560.0</ele><time>2026-04-04T13:15:32.062Z</time></trkpt><trkpt lat="46.2472874" lon="13.2885603"><ele>560.0</ele><time>2026-04-04T13:15:33.063Z</time></trkpt><trkpt lat="46.2471755" lon="13.2886556"><ele>560.0</ele><time>2026-04-04T13:15:34.062Z</time></trkpt><trkpt lat="46.247071" lon="13.2887363"><ele>560.0</ele><time>2026-04-04T13:15:35.063Z</time></trkpt><trkpt lat="46.246968" lon="13.2888298"><ele>560.0</ele><time>2026-04-04T13:15:36.063Z</time></trkpt><trkpt lat="46.2468729" lon="13.2889424"><ele>559.6</ele><time>2026-04-04T13:15:37.062Z</time></trkpt><trkpt lat="46.2467848" lon="13.2890602"><ele>559.2</ele><time>2026-04-04T13:15:38.064Z</time></trkpt><trkpt lat="46.2466936" lon="13.2891552"><ele>558.8</ele><time>2026-04-04T13:15:39.063Z</time></trkpt><trkpt lat="46.2465986" lon="13.289234"><ele>558.4</ele><time>2026-04-04T13:15:40.063Z</time></trkpt><trkpt lat="46.246499" lon="13.2892806"><ele>558.0</ele><time>2026-04-04T13:15:41.062Z</time></trkpt><trkpt lat="46.2464126" lon="13.2893117"><ele>558.0</ele><time>2026-04-04T13:15:42.064Z</time></trkpt><trkpt lat="46.2463258" lon="13.2893578"><ele>558.0</ele><time>2026-04-04T13:15:43.064Z</time></trkpt><trkpt lat="46.2462579" lon="13.2894309"><ele>558.0</ele><time>2026-04-04T13:15:44.063Z</time></trkpt><trkpt lat="46.2461874" lon="13.2895281"><ele>558.0</ele><time>2026-04-04T13:15:45.062Z</time></trkpt><trkpt lat="46.2461356" lon="13.2896485"><ele>558.0</ele><time>2026-04-04T13:15:46.063Z</time></trkpt><trkpt lat="46.2460716" lon="13.2897717"><ele>561.8</ele><time>2026-04-04T13:15:47.061Z</time></trkpt><trkpt lat="46.2460084" lon="13.289922"><ele>565.5999999999999</ele><time>2026-04-04T13:15:48.062Z</time></trkpt><trkpt lat="46.2459538" lon="13.2900437"><ele>569.4000000000001</ele><time>2026-04-04T13:15:49.064Z</time></trkpt><trkpt lat="46.2458956" lon="13.2901603"><ele>573.2</ele><time>2026-04-04T13:15:50.064Z</time></trkpt><trkpt lat="46.2458214" lon="13.2902592"><ele>577.0</ele><time>2026-04-04T13:15:51.063Z</time></trkpt><trkpt lat="46.2457585" lon="13.2903803"><ele>577.0</ele><time>2026-04-04T13:15:52.062Z</time></trkpt><trkpt lat="46.2456833" lon="13.2904699"><ele>577.0</ele><time>2026-04-04T13:15:53.063Z</time></trkpt><trkpt lat="46.2455952" lon="13.290516"><ele>577.0</ele><time>2026-04-04T13:15:54.063Z</time></trkpt><trkpt lat="46.2455128" lon="13.2905534"><ele>577.0</ele><time>2026-04-04T13:15:55.064Z</time></trkpt><trkpt lat="46.2454337" lon="13.2905908"><ele>577.0</ele><time>2026-04-04T13:15:56.063Z</time></trkpt><trkpt lat="46.2453549" lon="13.2906639"><ele>578.3333333333334</ele><time>2026-04-04T13:15:57.063Z</time></trkpt><trkpt lat="46.2452873" lon="13.2907321"><ele>579.6666666666667</ele><time>2026-04-04T13:15:58.063Z</time></trkpt><trkpt lat="46.2452168" lon="13.2907932"><ele>581.0</ele><time>2026-04-04T13:15:59.063Z</time></trkpt><trkpt lat="46.24515" lon="13.290819"><ele>582.3333333333334</ele><time>2026-04-04T13:16:00.063Z</time></trkpt><trkpt lat="46.2450748" lon="13.2908219"><ele>583.6666666666666</ele><time>2026-04-04T13:16:01.063Z</time></trkpt><trkpt lat="46.2450029" lon="13.2908189"><ele>585.0</ele><time>2026-04-04T13:16:02.064Z</time></trkpt><trkpt lat="46.244934" lon="13.2908195"><ele>585.0</ele><time>2026-04-04T13:16:03.062Z</time></trkpt><trkpt lat="46.2448657" lon="13.2908214"><ele>585.0</ele><time>2026-04-04T13:16:04.064Z</time></trkpt><trkpt lat="46.2447559" lon="13.2908235"><ele>585.0</ele><time>2026-04-04T13:16:06.064Z</time></trkpt><trkpt lat="46.2446667" lon="13.2908557"><ele>585.0</ele><time>2026-04-04T13:16:08.062Z</time></trkpt><trkpt lat="46.2445797" lon="13.290921"><ele>585.0</ele><time>2026-04-04T13:16:10.064Z</time></trkpt><trkpt lat="46.244526" lon="13.2910279"><ele>584.1666666666666</ele><time>2026-04-04T13:16:12.062Z</time></trkpt><trkpt lat="46.2444905" lon="13.2911669"><ele>583.3333333333334</ele><time>2026-04-04T13:16:14.064Z</time></trkpt><trkpt lat="46.2444843" lon="13.2912918"><ele>582.5</ele><time>2026-04-04T13:16:16.063Z</time></trkpt><trkpt lat="46.2444977" lon="13.2914241"><ele>581.6666666666667</ele><time>2026-04-04T13:16:19.063Z</time></trkpt><trkpt lat="46.2445353" lon="13.2915393"><ele>580.8333333333334</ele><time>2026-04-04T13:16:22.063Z</time></trkpt><trkpt lat="46.2445604" lon="13.2916303"><ele>580.0</ele><time>2026-04-04T13:16:24.064Z</time></trkpt><trkpt lat="46.2445679" lon="13.2917265"><ele>580.0</ele><time>2026-04-04T13:16:27.062Z</time></trkpt><trkpt lat="46.2445759" lon="13.2918177"><ele>580.0</ele><time>2026-04-04T13:16:30.062Z</time></trkpt><trkpt lat="46.2445117" lon="13.2918177"><ele>580.0</ele><time>2026-04-04T13:16:36.061Z</time></trkpt><trkpt lat="46.2445535" lon="13.2917428"><ele>580.0</ele><time>2026-04-04T13:21:52.063Z</time></trkpt><trkpt lat="46.2445444" lon="13.2916383"><ele>580.0</ele><time>2026-04-04T13:21:58.067Z</time></trkpt><trkpt lat="46.2445205" lon="13.291554"><ele>580.0</ele><time>2026-04-04T13:22:03.047Z</time></trkpt><trkpt lat="46.2444617" lon="13.2914954"><ele>580.0</ele><time>2026-04-04T13:22:10.062Z</time></trkpt><trkpt lat="46.2443979" lon="13.2914689"><ele>579.1428571428571</ele><time>2026-04-04T13:22:17.065Z</time></trkpt><trkpt lat="46.2443461" lon="13.2914034"><ele>578.2857142857143</ele><time>2026-04-04T13:22:25.063Z</time></trkpt><trkpt lat="46.2443187" lon="13.2913205"><ele>577.4285714285714</ele><time>2026-04-04T13:22:33.062Z</time></trkpt><trkpt lat="46.2443567" lon="13.2912431"><ele>576.5714285714286</ele><time>2026-04-04T13:22:43.062Z</time></trkpt><trkpt lat="46.244314" lon="13.29117"><ele>575.7142857142858</ele><time>2026-04-04T13:22:54.13Z</time></trkpt><trkpt lat="46.2442969" lon="13.2910743"><ele>574.8571428571429</ele><time>2026-04-04T13:23:05.063Z</time></trkpt><trkpt lat="46.2442726" lon="13.2909871"><ele>574.0</ele><time>2026-04-04T13:23:15.064Z</time></trkpt><trkpt lat="46.2442419" lon="13.2909046"><ele>574.0</ele><time>2026-04-04T13:23:25.969Z</time></trkpt><trkpt lat="46.2442284" lon="13.2908088"><ele>574.0</ele><time>2026-04-04T13:23:40.063Z</time></trkpt><trkpt lat="46.2442027" lon="13.2907125"><ele>574.0</ele><time>2026-04-04T13:23:54.155Z</time></trkpt><trkpt lat="46.2441964" lon="13.2906188"><ele>574.0</ele><time>2026-04-04T13:24:04.062Z</time></trkpt><trkpt lat="46.2441892" lon="13.2905208"><ele>574.0</ele><time>2026-04-04T13:24:14.063Z</time></trkpt><trkpt lat="46.2441872" lon="13.2904233"><ele>574.0</ele><time>2026-04-04T13:24:25.064Z</time></trkpt><trkpt lat="46.2442057" lon="13.2903333"><ele>574.0</ele><time>2026-04-04T13:24:35.063Z</time></trkpt><trkpt lat="46.2442138" lon="13.2902421"><ele>572.2857142857143</ele><time>2026-04-04T13:24:43.967Z</time></trkpt><trkpt lat="46.2442302" lon="13.2901403"><ele>570.5714285714286</ele><time>2026-04-04T13:25:02.002Z</time></trkpt><trkpt lat="46.2442292" lon="13.2900367"><ele>568.8571428571429</ele><time>2026-04-04T13:25:11.062Z</time></trkpt><trkpt lat="46.2442392" lon="13.289941"><ele>567.1428571428571</ele><time>2026-04-04T13:25:22.006Z</time></trkpt><trkpt lat="46.2442775" lon="13.2898569"><ele>565.4285714285714</ele><time>2026-04-04T13:25:30.063Z</time></trkpt><trkpt lat="46.2443328" lon="13.2897969"><ele>563.7142857142858</ele><time>2026-04-04T13:25:40.068Z</time></trkpt><trkpt lat="46.2443849" lon="13.2897403"><ele>562.0</ele><time>2026-04-04T13:25:49.062Z</time></trkpt><trkpt lat="46.2443776" lon="13.2896469"><ele>562.0000000000001</ele><time>2026-04-04T13:26:00.063Z</time></trkpt><trkpt lat="46.2444437" lon="13.2896393"><ele>562.0</ele><time>2026-04-04T13:26:12.066Z</time></trkpt><trkpt lat="46.2444956" lon="13.2896997"><ele>562.0</ele><time>2026-04-04T13:26:26.064Z</time></trkpt><trkpt lat="46.2445603" lon="13.2897078"><ele>562.0</ele><time>2026-04-04T13:26:33.027Z</time></trkpt><trkpt lat="46.2446299" lon="13.2896669"><ele>562.0</ele><time>2026-04-04T13:26:44.063Z</time></trkpt><trkpt lat="46.2446972" lon="13.2896873"><ele>562.0000000000001</ele><time>2026-04-04T13:26:51.062Z</time></trkpt><trkpt lat="46.2447607" lon="13.2896946"><ele>562.0</ele><time>2026-04-04T13:26:58.063Z</time></trkpt><trkpt lat="46.2447661" lon="13.2895982"><ele>562.0</ele><time>2026-04-04T13:27:07.063Z</time></trkpt></trkseg><trkseg><trkpt lat="46.2445475" lon="13.29172"><ele>580.0</ele><time>2026-04-04T13:55:40.064Z</time></trkpt><trkpt lat="46.2445455" lon="13.2915973"><ele>580.0</ele><time>2026-04-04T13:55:42.065Z</time></trkpt><trkpt lat="46.2445249" lon="13.2914962"><ele>580.0</ele><time>2026-04-04T13:55:44.064Z</time></trkpt><trkpt lat="46.2444995" lon="13.2913931"><ele>580.0</ele><time>2026-04-04T13:55:46.064Z</time></trkpt><trkpt lat="46.2444892" lon="13.2912857"><ele>580.0</ele><time>2026-04-04T13:55:48.064Z</time></trkpt><trkpt lat="46.2445001" lon="13.2911755"><ele>580.0</ele><time>2026-04-04T13:55:50.065Z</time></trkpt><trkpt lat="46.2445264" lon="13.2910691"><ele>581.0</ele><time>2026-04-04T13:55:52.065Z</time></trkpt><trkpt lat="46.2445588" lon="13.2909832"><ele>582.0</ele><time>2026-04-04T13:55:54.066Z</time></trkpt><trkpt lat="46.2446144" lon="13.2909041"><ele>583.0</ele><time>2026-04-04T13:55:56.064Z</time></trkpt><trkpt lat="46.2446891" lon="13.2908571"><ele>584.0</ele><time>2026-04-04T13:55:58.064Z</time></trkpt><trkpt lat="46.2447954" lon="13.2908436"><ele>585.0</ele><time>2026-04-04T13:56:00.065Z</time></trkpt><trkpt lat="46.2449266" lon="13.2908363"><ele>585.0</ele><time>2026-04-04T13:56:02.065Z</time></trkpt><trkpt lat="46.2450072" lon="13.2908345"><ele>585.0</ele><time>2026-04-04T13:56:03.065Z</time></trkpt><trkpt lat="46.2450838" lon="13.2908308"><ele>585.0</ele><time>2026-04-04T13:56:04.065Z</time></trkpt><trkpt lat="46.2451599" lon="13.2908169"><ele>585.0</ele><time>2026-04-04T13:56:05.065Z</time></trkpt><trkpt lat="46.2452331" lon="13.2907824"><ele>585.0</ele><time>2026-04-04T13:56:06.066Z</time></trkpt><trkpt lat="46.2453033" lon="13.2907212"><ele>585.0</ele><time>2026-04-04T13:56:07.064Z</time></trkpt><trkpt lat="46.2453695" lon="13.2906471"><ele>583.6666666666666</ele><time>2026-04-04T13:56:08.064Z</time></trkpt><trkpt lat="46.2454323" lon="13.2905742"><ele>582.3333333333334</ele><time>2026-04-04T13:56:09.065Z</time></trkpt><trkpt lat="46.2455085" lon="13.2905298"><ele>581.0</ele><time>2026-04-04T13:56:10.065Z</time></trkpt><trkpt lat="46.2455843" lon="13.2905132"><ele>579.6666666666667</ele><time>2026-04-04T13:56:11.065Z</time></trkpt><trkpt lat="46.2456546" lon="13.2904823"><ele>578.3333333333334</ele><time>2026-04-04T13:56:12.065Z</time></trkpt><trkpt lat="46.2457195" lon="13.2904051"><ele>577.0</ele><time>2026-04-04T13:56:13.064Z</time></trkpt><trkpt lat="46.2457831" lon="13.2903169"><ele>577.0</ele><time>2026-04-04T13:56:14.065Z</time></trkpt><trkpt lat="46.2458471" lon="13.2902235"><ele>577.0</ele><time>2026-04-04T13:56:15.065Z</time></trkpt><trkpt lat="46.2459167" lon="13.2901281"><ele>577.0</ele><time>2026-04-04T13:56:16.064Z</time></trkpt><trkpt lat="46.2459715" lon="13.2900107"><ele>577.0</ele><time>2026-04-04T13:56:17.065Z</time></trkpt><trkpt lat="46.2460188" lon="13.2898883"><ele>577.0</ele><time>2026-04-04T13:56:18.066Z</time></trkpt><trkpt lat="46.2460713" lon="13.2897721"><ele>573.2</ele><time>2026-04-04T13:56:19.064Z</time></trkpt><trkpt lat="46.2461306" lon="13.2896634"><ele>569.4000000000001</ele><time>2026-04-04T13:56:20.065Z</time></trkpt><trkpt lat="46.2461848" lon="13.2895566"><ele>565.5999999999999</ele><time>2026-04-04T13:56:21.064Z</time></trkpt><trkpt lat="46.2462501" lon="13.2894665"><ele>561.8</ele><time>2026-04-04T13:56:22.065Z</time></trkpt><trkpt lat="46.2463271" lon="13.289389"><ele>558.0</ele><time>2026-04-04T13:56:23.065Z</time></trkpt><trkpt lat="46.2464207" lon="13.2893263"><ele>561.8</ele><time>2026-04-04T13:56:24.064Z</time></trkpt><trkpt lat="46.2465222" lon="13.2892794"><ele>565.5999999999999</ele><time>2026-04-04T13:56:25.065Z</time></trkpt><trkpt lat="46.2466167" lon="13.2892293"><ele>569.4000000000001</ele><time>2026-04-04T13:56:26.065Z</time></trkpt><trkpt lat="46.2467059" lon="13.2891663"><ele>573.2</ele><time>2026-04-04T13:56:27.064Z</time></trkpt><trkpt lat="46.2467874" lon="13.2890982"><ele>577.0</ele><time>2026-04-04T13:56:28.064Z</time></trkpt><trkpt lat="46.2468512" lon="13.2889952"><ele>575.4</ele><time>2026-04-04T13:56:29.065Z</time></trkpt><trkpt lat="46.246928" lon="13.2888998"><ele>573.8000000000001</ele><time>2026-04-04T13:56:30.064Z</time></trkpt><trkpt lat="46.2470183" lon="13.2888235"><ele>572.2</ele><time>2026-04-04T13:56:31.065Z</time></trkpt><trkpt lat="46.2471114" lon="13.2887606"><ele>570.6</ele><time>2026-04-04T13:56:32.064Z</time></trkpt><trkpt lat="46.2472071" lon="13.2886943"><ele>569.0</ele><time>2026-04-04T13:56:33.065Z</time></trkpt><trkpt lat="46.2473042" lon="13.2886171"><ele>569.0</ele><time>2026-04-04T13:56:34.064Z</time></trkpt><trkpt lat="46.2474017" lon="13.2885375"><ele>569.0</ele><time>2026-04-04T13:56:35.065Z</time></trkpt><trkpt lat="46.2474997" lon="13.2884533"><ele>569.0</ele><time>2026-04-04T13:56:36.064Z</time></trkpt><trkpt lat="46.2475965" lon="13.2883672"><ele>569.0</ele><time>2026-04-04T13:56:37.065Z</time></trkpt><trkpt lat="46.2476899" lon="13.2882819"><ele>569.0</ele><time>2026-04-04T13:56:38.064Z</time></trkpt><trkpt lat="46.2477798" lon="13.2881948"><ele>569.0</ele><time>2026-04-04T13:56:39.066Z</time></trkpt><trkpt lat="46.2478656" lon="13.2881292"><ele>569.0</ele><time>2026-04-04T13:56:40.065Z</time></trkpt><trkpt lat="46.2479554" lon="13.288053"><ele>569.0</ele><time>2026-04-04T13:56:41.064Z</time></trkpt><trkpt lat="46.2480468" lon="13.2879843"><ele>569.0</ele><time>2026-04-04T13:56:42.065Z</time></trkpt><trkpt lat="46.2481431" lon="13.2879255"><ele>567.6</ele><time>2026-04-04T13:56:43.066Z</time></trkpt><trkpt lat="46.2482461" lon="13.287877"><ele>566.2</ele><time>2026-04-04T13:56:44.065Z</time></trkpt><trkpt lat="46.2483528" lon="13.2878176"><ele>564.8000000000001</ele><time>2026-04-04T13:56:45.065Z</time></trkpt><trkpt lat="46.2484569" lon="13.2877447"><ele>563.4</ele><time>2026-04-04T13:56:46.064Z</time></trkpt><trkpt lat="46.2485536" lon="13.2876814"><ele>562.0</ele><time>2026-04-04T13:56:47.065Z</time></trkpt><trkpt lat="46.2486443" lon="13.2876179"><ele>562.0</ele><time>2026-04-04T13:56:48.064Z</time></trkpt><trkpt lat="46.2487371" lon="13.2875601"><ele>562.0</ele><time>2026-04-04T13:56:49.064Z</time></trkpt><trkpt lat="46.2488271" lon="13.2875089"><ele>562.0</ele><time>2026-04-04T13:56:50.065Z</time></trkpt><trkpt lat="46.2489252" lon="13.2874768"><ele>562.0</ele><time>2026-04-04T13:56:51.065Z</time></trkpt><trkpt lat="46.2490282" lon="13.2874721"><ele>562.0</ele><time>2026-04-04T13:56:52.064Z</time></trkpt><trkpt lat="46.2491351" lon="13.2874822"><ele>564.6</ele><time>2026-04-04T13:56:53.065Z</time></trkpt><trkpt lat="46.2492407" lon="13.2874835"><ele>567.2</ele><time>2026-04-04T13:56:54.064Z</time></trkpt><trkpt lat="46.2493569" lon="13.2874646"><ele>569.8</ele><time>2026-04-04T13:56:55.064Z</time></trkpt><trkpt lat="46.249468" lon="13.287427"><ele>572.4</ele><time>2026-04-04T13:56:56.064Z</time></trkpt><trkpt lat="46.2495776" lon="13.2873982"><ele>575.0</ele><time>2026-04-04T13:56:57.064Z</time></trkpt><trkpt lat="46.2496916" lon="13.2873838"><ele>576.2</ele><time>2026-04-04T13:56:58.065Z</time></trkpt><trkpt lat="46.2498018" lon="13.2873911"><ele>577.4</ele><time>2026-04-04T13:56:59.064Z</time></trkpt><trkpt lat="46.2499134" lon="13.2874016"><ele>578.6</ele><time>2026-04-04T13:57:00.065Z</time></trkpt><trkpt lat="46.2500231" lon="13.287429"><ele>579.8</ele><time>2026-04-04T13:57:01.065Z</time></trkpt><trkpt lat="46.2501348" lon="13.2874518"><ele>581.0</ele><time>2026-04-04T13:57:02.065Z</time></trkpt><trkpt lat="46.2502427" lon="13.2874648"><ele>581.0</ele><time>2026-04-04T13:57:03.064Z</time></trkpt><trkpt lat="46.2503485" lon="13.2874649"><ele>581.0</ele><time>2026-04-04T13:57:04.065Z</time></trkpt><trkpt lat="46.2504523" lon="13.2874517"><ele>581.0</ele><time>2026-04-04T13:57:05.064Z</time></trkpt><trkpt lat="46.2505547" lon="13.2874347"><ele>581.0</ele><time>2026-04-04T13:57:06.064Z</time></trkpt><trkpt lat="46.2506562" lon="13.2874061"><ele>581.0</ele><time>2026-04-04T13:57:07.064Z</time></trkpt><trkpt lat="46.2507605" lon="13.2873647"><ele>583.2</ele><time>2026-04-04T13:57:08.065Z</time></trkpt><trkpt lat="46.2508683" lon="13.2873282"><ele>585.4000000000001</ele><time>2026-04-04T13:57:09.064Z</time></trkpt><trkpt lat="46.2509791" lon="13.2873077"><ele>587.6</ele><time>2026-04-04T13:57:10.064Z</time></trkpt><trkpt lat="46.2510901" lon="13.2872934"><ele>589.8000000000001</ele><time>2026-04-04T13:57:11.065Z</time></trkpt><trkpt lat="46.2512005" lon="13.287286"><ele>592.0</ele><time>2026-04-04T13:57:12.066Z</time></trkpt><trkpt lat="46.251311" lon="13.2873048"><ele>592.0</ele><time>2026-04-04T13:57:13.065Z</time></trkpt><trkpt lat="46.251422" lon="13.2873264"><ele>592.0</ele><time>2026-04-04T13:57:14.065Z</time></trkpt><trkpt lat="46.2515322" lon="13.2873269"><ele>592.0</ele><time>2026-04-04T13:57:15.065Z</time></trkpt><trkpt lat="46.2516372" lon="13.2873089"><ele>592.0</ele><time>2026-04-04T13:57:16.064Z</time></trkpt><trkpt lat="46.2517221" lon="13.2872962"><ele>592.0</ele><time>2026-04-04T13:57:17.065Z</time></trkpt><trkpt lat="46.2518049" lon="13.2872942"><ele>594.2</ele><time>2026-04-04T13:57:18.064Z</time></trkpt><trkpt lat="46.2518905" lon="13.2873089"><ele>596.4000000000001</ele><time>2026-04-04T13:57:19.066Z</time></trkpt><trkpt lat="46.2519754" lon="13.2873357"><ele>598.5999999999999</ele><time>2026-04-04T13:57:20.064Z</time></trkpt><trkpt lat="46.2520607" lon="13.2873812"><ele>600.8</ele><time>2026-04-04T13:57:21.064Z</time></trkpt><trkpt lat="46.2521486" lon="13.2874445"><ele>603.0</ele><time>2026-04-04T13:57:22.065Z</time></trkpt><trkpt lat="46.2522392" lon="13.287517"><ele>603.6</ele><time>2026-04-04T13:57:23.064Z</time></trkpt><trkpt lat="46.2523302" lon="13.2875902"><ele>604.1999999999999</ele><time>2026-04-04T13:57:24.065Z</time></trkpt><trkpt lat="46.2524237" lon="13.2876619"><ele>604.8</ele><time>2026-04-04T13:57:25.065Z</time></trkpt><trkpt lat="46.2525196" lon="13.2877309"><ele>605.4</ele><time>2026-04-04T13:57:26.066Z</time></trkpt><trkpt lat="46.2526182" lon="13.2877956"><ele>606.0</ele><time>2026-04-04T13:57:27.065Z</time></trkpt><trkpt lat="46.2527173" lon="13.2878538"><ele>606.0</ele><time>2026-04-04T13:57:28.066Z</time></trkpt><trkpt lat="46.2528118" lon="13.2879092"><ele>606.0</ele><time>2026-04-04T13:57:29.065Z</time></trkpt><trkpt lat="46.2529013" lon="13.2879595"><ele>606.0</ele><time>2026-04-04T13:57:30.064Z</time></trkpt><trkpt lat="46.2529949" lon="13.2880035"><ele>606.0</ele><time>2026-04-04T13:57:31.065Z</time></trkpt><trkpt lat="46.2530912" lon="13.2880286"><ele>606.0</ele><time>2026-04-04T13:57:32.064Z</time></trkpt><trkpt lat="46.2531915" lon="13.2880317"><ele>606.4</ele><time>2026-04-04T13:57:33.064Z</time></trkpt><trkpt lat="46.2532951" lon="13.288017"><ele>606.8</ele><time>2026-04-04T13:57:34.064Z</time></trkpt><trkpt lat="46.2534014" lon="13.2879869"><ele>607.1999999999999</ele><time>2026-04-04T13:57:35.066Z</time></trkpt><trkpt lat="46.25351" lon="13.28795"><ele>607.6</ele><time>2026-04-04T13:57:36.064Z</time></trkpt><trkpt lat="46.2536211" lon="13.2879136"><ele>608.0</ele><time>2026-04-04T13:57:37.065Z</time></trkpt><trkpt lat="46.253733" lon="13.2878709"><ele>608.0</ele><time>2026-04-04T13:57:38.065Z</time></trkpt><trkpt lat="46.253843" lon="13.2878198"><ele>608.0</ele><time>2026-04-04T13:57:39.066Z</time></trkpt><trkpt lat="46.2539517" lon="13.2877615"><ele>608.0</ele><time>2026-04-04T13:57:40.066Z</time></trkpt><trkpt lat="46.2540598" lon="13.287699"><ele>608.0</ele><time>2026-04-04T13:57:41.065Z</time></trkpt><trkpt lat="46.2541645" lon="13.2876376"><ele>608.0</ele><time>2026-04-04T13:57:42.065Z</time></trkpt><trkpt lat="46.2542569" lon="13.2875769"><ele>608.0</ele><time>2026-04-04T13:57:43.065Z</time></trkpt><trkpt lat="46.2543411" lon="13.2875156"><ele>608.0</ele><time>2026-04-04T13:57:44.065Z</time></trkpt><trkpt lat="46.2544141" lon="13.2874328"><ele>608.0</ele><time>2026-04-04T13:57:45.064Z</time></trkpt><trkpt lat="46.2544722" lon="13.287327"><ele>608.0</ele><time>2026-04-04T13:57:46.065Z</time></trkpt><trkpt lat="46.254518" lon="13.2872024"><ele>612.0</ele><time>2026-04-04T13:57:47.065Z</time></trkpt><trkpt lat="46.2545599" lon="13.2870547"><ele>616.0</ele><time>2026-04-04T13:57:48.065Z</time></trkpt><trkpt lat="46.2546065" lon="13.2868914"><ele>620.0</ele><time>2026-04-04T13:57:49.065Z</time></trkpt><trkpt lat="46.2546533" lon="13.286716"><ele>624.0</ele><time>2026-04-04T13:57:50.064Z</time></trkpt><trkpt lat="46.254703" lon="13.2865408"><ele>625.4</ele><time>2026-04-04T13:57:51.065Z</time></trkpt><trkpt lat="46.2547464" lon="13.2863916"><ele>626.8</ele><time>2026-04-04T13:57:52.064Z</time></trkpt><trkpt lat="46.254783" lon="13.2862644"><ele>628.2</ele><time>2026-04-04T13:57:53.064Z</time></trkpt><trkpt lat="46.2548041" lon="13.2861356"><ele>629.6</ele><time>2026-04-04T13:57:54.065Z</time></trkpt><trkpt lat="46.2547995" lon="13.2859923"><ele>631.0</ele><time>2026-04-04T13:57:55.064Z</time></trkpt><trkpt lat="46.2547766" lon="13.2858451"><ele>631.0</ele><time>2026-04-04T13:57:56.064Z</time></trkpt><trkpt lat="46.25476" lon="13.2856923"><ele>631.0</ele><time>2026-04-04T13:57:57.064Z</time></trkpt><trkpt lat="46.2547624" lon="13.2855267"><ele>631.0</ele><time>2026-04-04T13:57:58.065Z</time></trkpt><trkpt lat="46.2547744" lon="13.285364"><ele>631.0</ele><time>2026-04-04T13:57:59.064Z</time></trkpt><trkpt lat="46.2548071" lon="13.2852072"><ele>631.0</ele><time>2026-04-04T13:58:00.064Z</time></trkpt><trkpt lat="46.2548557" lon="13.28505"><ele>628.4</ele><time>2026-04-04T13:58:01.064Z</time></trkpt><trkpt lat="46.2549209" lon="13.284928"><ele>625.8</ele><time>2026-04-04T13:58:02.064Z</time></trkpt><trkpt lat="46.2549702" lon="13.2848168"><ele>623.1999999999999</ele><time>2026-04-04T13:58:03.065Z</time></trkpt><trkpt lat="46.254991" lon="13.2846963"><ele>620.6</ele><time>2026-04-04T13:58:04.065Z</time></trkpt><trkpt lat="46.2549951" lon="13.284563"><ele>618.0</ele><time>2026-04-04T13:58:05.065Z</time></trkpt><trkpt lat="46.2549943" lon="13.2844192"><ele>618.0</ele><time>2026-04-04T13:58:06.065Z</time></trkpt><trkpt lat="46.2550137" lon="13.2842892"><ele>618.0</ele><time>2026-04-04T13:58:07.064Z</time></trkpt><trkpt lat="46.2550643" lon="13.2841729"><ele>618.0</ele><time>2026-04-04T13:58:08.064Z</time></trkpt><trkpt lat="46.2551304" lon="13.2840699"><ele>618.0</ele><time>2026-04-04T13:58:09.064Z</time></trkpt><trkpt lat="46.255206" lon="13.2839746"><ele>618.0</ele><time>2026-04-04T13:58:10.064Z</time></trkpt><trkpt lat="46.2552844" lon="13.2838678"><ele>619.4</ele><time>2026-04-04T13:58:11.064Z</time></trkpt><trkpt lat="46.2553599" lon="13.2837636"><ele>620.8</ele><time>2026-04-04T13:58:12.064Z</time></trkpt><trkpt lat="46.2554289" lon="13.2836686"><ele>622.2</ele><time>2026-04-04T13:58:13.065Z</time></trkpt><trkpt lat="46.2554897" lon="13.2835756"><ele>623.6</ele><time>2026-04-04T13:58:14.064Z</time></trkpt><trkpt lat="46.2555444" lon="13.2834683"><ele>625.0</ele><time>2026-04-04T13:58:15.065Z</time></trkpt><trkpt lat="46.2555923" lon="13.2833569"><ele>624.3333333333334</ele><time>2026-04-04T13:58:16.066Z</time></trkpt><trkpt lat="46.2556337" lon="13.2832543"><ele>623.6666666666667</ele><time>2026-04-04T13:58:17.065Z</time></trkpt><trkpt lat="46.2556763" lon="13.2831588"><ele>623.0</ele><time>2026-04-04T13:58:18.066Z</time></trkpt><trkpt lat="46.2557163" lon="13.2830791"><ele>622.3333333333334</ele><time>2026-04-04T13:58:19.066Z</time></trkpt><trkpt lat="46.2557873" lon="13.2829723"><ele>621.6666666666666</ele><time>2026-04-04T13:58:21.064Z</time></trkpt><trkpt lat="46.2558411" lon="13.2829072"><ele>621.0</ele><time>2026-04-04T13:58:23.065Z</time></trkpt><trkpt lat="46.2559168" lon="13.2828215"><ele>622.8</ele><time>2026-04-04T13:58:25.065Z</time></trkpt><trkpt lat="46.256031" lon="13.2827237"><ele>624.6</ele><time>2026-04-04T13:58:27.065Z</time></trkpt><trkpt lat="46.2560964" lon="13.2826692"><ele>626.4</ele><time>2026-04-04T13:58:28.065Z</time></trkpt><trkpt lat="46.2561558" lon="13.2826197"><ele>628.2</ele><time>2026-04-04T13:58:29.065Z</time></trkpt><trkpt lat="46.2562551" lon="13.2825441"><ele>630.0</ele><time>2026-04-04T13:58:31.064Z</time></trkpt><trkpt lat="46.2563437" lon="13.2825405"><ele>630.0</ele><time>2026-04-04T13:58:33.065Z</time></trkpt><trkpt lat="46.2563992" lon="13.2826741"><ele>630.0</ele><time>2026-04-04T13:58:35.065Z</time></trkpt><trkpt lat="46.2564062" lon="13.2827844"><ele>630.0</ele><time>2026-04-04T13:58:36.065Z</time></trkpt><trkpt lat="46.2564111" lon="13.2829014"><ele>630.0</ele><time>2026-04-04T13:58:37.066Z</time></trkpt><trkpt lat="46.2564164" lon="13.2830221"><ele>630.0</ele><time>2026-04-04T13:58:38.066Z</time></trkpt><trkpt lat="46.2564265" lon="13.2831563"><ele>630.0</ele><time>2026-04-04T13:58:39.064Z</time></trkpt><trkpt lat="46.2564565" lon="13.2832962"><ele>628.1666666666666</ele><time>2026-04-04T13:58:40.065Z</time></trkpt><trkpt lat="46.256501" lon="13.2834253"><ele>626.3333333333334</ele><time>2026-04-04T13:58:41.064Z</time></trkpt><trkpt lat="46.2565533" lon="13.2835383"><ele>624.5</ele><time>2026-04-04T13:58:42.065Z</time></trkpt><trkpt lat="46.2566174" lon="13.283629"><ele>622.6666666666667</ele><time>2026-04-04T13:58:43.065Z</time></trkpt><trkpt lat="46.256688" lon="13.2837017"><ele>620.8333333333334</ele><time>2026-04-04T13:58:44.064Z</time></trkpt><trkpt lat="46.2567556" lon="13.283754"><ele>619.0</ele><time>2026-04-04T13:58:45.065Z</time></trkpt><trkpt lat="46.2568647" lon="13.2838087"><ele>619.0</ele><time>2026-04-04T13:58:47.065Z</time></trkpt><trkpt lat="46.256969" lon="13.2838674"><ele>619.0</ele><time>2026-04-04T13:58:49.064Z</time></trkpt><trkpt lat="46.2570926" lon="13.2839449"><ele>619.0</ele><time>2026-04-04T13:58:51.066Z</time></trkpt><trkpt lat="46.257174" lon="13.2839968"><ele>619.0</ele><time>2026-04-04T13:58:52.065Z</time></trkpt><trkpt lat="46.2572512" lon="13.2840547"><ele>619.0</ele><time>2026-04-04T13:58:53.065Z</time></trkpt><trkpt lat="46.2573243" lon="13.2841302"><ele>618.0</ele><time>2026-04-04T13:58:54.065Z</time></trkpt><trkpt lat="46.2573923" lon="13.2842238"><ele>617.0</ele><time>2026-04-04T13:58:55.065Z</time></trkpt><trkpt lat="46.2574529" lon="13.2843307"><ele>616.0</ele><time>2026-04-04T13:58:56.065Z</time></trkpt><trkpt lat="46.2575097" lon="13.2844575"><ele>615.0</ele><time>2026-04-04T13:58:57.064Z</time></trkpt><trkpt lat="46.2575527" lon="13.2846003"><ele>614.0</ele><time>2026-04-04T13:58:58.065Z</time></trkpt><trkpt lat="46.2575862" lon="13.2847507"><ele>616.25</ele><time>2026-04-04T13:58:59.064Z</time></trkpt><trkpt lat="46.2576142" lon="13.2849129"><ele>618.5</ele><time>2026-04-04T13:59:00.065Z</time></trkpt><trkpt lat="46.2576303" lon="13.2850839"><ele>620.75</ele><time>2026-04-04T13:59:01.065Z</time></trkpt><trkpt lat="46.257653" lon="13.2852548"><ele>623.0</ele><time>2026-04-04T13:59:02.065Z</time></trkpt><trkpt lat="46.2576708" lon="13.2854219"><ele>623.0</ele><time>2026-04-04T13:59:03.065Z</time></trkpt><trkpt lat="46.2576909" lon="13.2855788"><ele>623.0</ele><time>2026-04-04T13:59:04.064Z</time></trkpt><trkpt lat="46.2577237" lon="13.2857245"><ele>623.0</ele><time>2026-04-04T13:59:05.066Z</time></trkpt><trkpt lat="46.2577776" lon="13.2858709"><ele>623.0</ele><time>2026-04-04T13:59:06.065Z</time></trkpt><trkpt lat="46.2578384" lon="13.2860223"><ele>622.0</ele><time>2026-04-04T13:59:07.064Z</time></trkpt><trkpt lat="46.2579087" lon="13.2861762"><ele>621.0</ele><time>2026-04-04T13:59:08.065Z</time></trkpt><trkpt lat="46.2579851" lon="13.2863424"><ele>620.0</ele><time>2026-04-04T13:59:09.064Z</time></trkpt><trkpt lat="46.2580665" lon="13.2865186"><ele>619.0</ele><time>2026-04-04T13:59:10.064Z</time></trkpt><trkpt lat="46.2581502" lon="13.2867018"><ele>617.0</ele><time>2026-04-04T13:59:11.066Z</time></trkpt><trkpt lat="46.2582376" lon="13.2868883"><ele>615.0</ele><time>2026-04-04T13:59:12.065Z</time></trkpt><trkpt lat="46.2583191" lon="13.287072"><ele>613.0</ele><time>2026-04-04T13:59:13.065Z</time></trkpt><trkpt lat="46.2584002" lon="13.2872492"><ele>613.25</ele><time>2026-04-04T13:59:14.064Z</time></trkpt><trkpt lat="46.2584748" lon="13.2874202"><ele>613.5</ele><time>2026-04-04T13:59:15.064Z</time></trkpt><trkpt lat="46.2585481" lon="13.287583"><ele>613.75</ele><time>2026-04-04T13:59:16.064Z</time></trkpt><trkpt lat="46.2586198" lon="13.2877431"><ele>614.0</ele><time>2026-04-04T13:59:17.064Z</time></trkpt><trkpt lat="46.2586944" lon="13.2879061"><ele>614.0</ele><time>2026-04-04T13:59:18.066Z</time></trkpt><trkpt lat="46.2587762" lon="13.2880737"><ele>614.0</ele><time>2026-04-04T13:59:19.064Z</time></trkpt><trkpt lat="46.2588729" lon="13.2882281"><ele>614.0</ele><time>2026-04-04T13:59:20.065Z</time></trkpt><trkpt lat="46.2589937" lon="13.2883588"><ele>614.0</ele><time>2026-04-04T13:59:21.065Z</time></trkpt><trkpt lat="46.2591229" lon="13.28848"><ele>613.6666666666666</ele><time>2026-04-04T13:59:22.064Z</time></trkpt><trkpt lat="46.2592619" lon="13.2886091"><ele>613.3333333333334</ele><time>2026-04-04T13:59:23.065Z</time></trkpt><trkpt lat="46.2593866" lon="13.288752"><ele>613.0</ele><time>2026-04-04T13:59:24.064Z</time></trkpt><trkpt lat="46.2595099" lon="13.2889094"><ele>613.5</ele><time>2026-04-04T13:59:25.065Z</time></trkpt><trkpt lat="46.2596433" lon="13.2890331"><ele>614.0</ele><time>2026-04-04T13:59:26.064Z</time></trkpt><trkpt lat="46.2597661" lon="13.2891412"><ele>614.5</ele><time>2026-04-04T13:59:27.065Z</time></trkpt><trkpt lat="46.2598732" lon="13.2892331"><ele>615.0</ele><time>2026-04-04T13:59:28.066Z</time></trkpt><trkpt lat="46.2599479" lon="13.2893109"><ele>615.0</ele><time>2026-04-04T13:59:29.064Z</time></trkpt><trkpt lat="46.259992" lon="13.2893974"><ele>615.0</ele><time>2026-04-04T13:59:30.066Z</time></trkpt><trkpt lat="46.2600076" lon="13.2894967"><ele>615.0</ele><time>2026-04-04T13:59:31.065Z</time></trkpt><trkpt lat="46.2600244" lon="13.2896016"><ele>615.0</ele><time>2026-04-04T13:59:32.065Z</time></trkpt><trkpt lat="46.260078" lon="13.2896949"><ele>615.0</ele><time>2026-04-04T13:59:33.065Z</time></trkpt><trkpt lat="46.2601529" lon="13.2897661"><ele>615.0</ele><time>2026-04-04T13:59:34.064Z</time></trkpt><trkpt lat="46.2602502" lon="13.2898069"><ele>620.25</ele><time>2026-04-04T13:59:35.065Z</time></trkpt><trkpt lat="46.2603539" lon="13.289847"><ele>625.5</ele><time>2026-04-04T13:59:36.065Z</time></trkpt><trkpt lat="46.2604663" lon="13.2898791"><ele>630.75</ele><time>2026-04-04T13:59:37.065Z</time></trkpt><trkpt lat="46.2605869" lon="13.2898846"><ele>636.0</ele><time>2026-04-04T13:59:38.064Z</time></trkpt><trkpt lat="46.2607122" lon="13.2898785"><ele>636.5</ele><time>2026-04-04T13:59:39.064Z</time></trkpt><trkpt lat="46.2608349" lon="13.2898764"><ele>637.0</ele><time>2026-04-04T13:59:40.065Z</time></trkpt><trkpt lat="46.2609589" lon="13.2898626"><ele>637.5</ele><time>2026-04-04T13:59:41.064Z</time></trkpt><trkpt lat="46.2610749" lon="13.2898378"><ele>638.0</ele><time>2026-04-04T13:59:42.064Z</time></trkpt><trkpt lat="46.2611785" lon="13.2898231"><ele>638.0</ele><time>2026-04-04T13:59:43.064Z</time></trkpt><trkpt lat="46.2612735" lon="13.2898161"><ele>638.0</ele><time>2026-04-04T13:59:44.066Z</time></trkpt><trkpt lat="46.2613629" lon="13.2898277"><ele>638.0</ele><time>2026-04-04T13:59:45.065Z</time></trkpt><trkpt lat="46.261457" lon="13.2898716"><ele>638.0</ele><time>2026-04-04T13:59:46.064Z</time></trkpt><trkpt lat="46.2615572" lon="13.2899258"><ele>638.0</ele><time>2026-04-04T13:59:47.065Z</time></trkpt><trkpt lat="46.2616793" lon="13.2899389"><ele>637.0</ele><time>2026-04-04T13:59:48.064Z</time></trkpt><trkpt lat="46.2618002" lon="13.2899285"><ele>636.0</ele><time>2026-04-04T13:59:49.065Z</time></trkpt><trkpt lat="46.2619159" lon="13.2899262"><ele>635.0</ele><time>2026-04-04T13:59:50.065Z</time></trkpt><trkpt lat="46.2620297" lon="13.2899391"><ele>634.0</ele><time>2026-04-04T13:59:51.066Z</time></trkpt><trkpt lat="46.262142" lon="13.2899985"><ele>634.0</ele><time>2026-04-04T13:59:52.065Z</time></trkpt><trkpt lat="46.2622524" lon="13.2900852"><ele>634.0</ele><time>2026-04-04T13:59:53.065Z</time></trkpt><trkpt lat="46.2623649" lon="13.2901855"><ele>634.0</ele><time>2026-04-04T13:59:54.065Z</time></trkpt><trkpt lat="46.262483" lon="13.2902787"><ele>634.0</ele><time>2026-04-04T13:59:55.064Z</time></trkpt><trkpt lat="46.2625941" lon="13.2903536"><ele>631.0</ele><time>2026-04-04T13:59:56.064Z</time></trkpt><trkpt lat="46.2627058" lon="13.2904124"><ele>628.0</ele><time>2026-04-04T13:59:57.064Z</time></trkpt><trkpt lat="46.2628158" lon="13.2904525"><ele>625.0</ele><time>2026-04-04T13:59:58.065Z</time></trkpt><trkpt lat="46.2629121" lon="13.2905072"><ele>622.0</ele><time>2026-04-04T13:59:59.064Z</time></trkpt><trkpt lat="46.2630039" lon="13.2905884"><ele>619.0</ele><time>2026-04-04T14:00:00.064Z</time></trkpt><trkpt lat="46.2630814" lon="13.290674"><ele>616.2</ele><time>2026-04-04T14:00:01.064Z</time></trkpt><trkpt lat="46.2631809" lon="13.290724"><ele>613.4</ele><time>2026-04-04T14:00:02.064Z</time></trkpt><trkpt lat="46.2632821" lon="13.290724"><ele>610.6</ele><time>2026-04-04T14:00:03.066Z</time></trkpt><trkpt lat="46.2633749" lon="13.2906966"><ele>607.8</ele><time>2026-04-04T14:00:04.065Z</time></trkpt><trkpt lat="46.2634451" lon="13.290607"><ele>605.0</ele><time>2026-04-04T14:00:05.064Z</time></trkpt><trkpt lat="46.263499" lon="13.2905089"><ele>605.0</ele><time>2026-04-04T14:00:06.064Z</time></trkpt><trkpt lat="46.2635441" lon="13.2904212"><ele>605.0</ele><time>2026-04-04T14:00:07.064Z</time></trkpt><trkpt lat="46.2636043" lon="13.2903498"><ele>605.0</ele><time>2026-04-04T14:00:08.065Z</time></trkpt><trkpt lat="46.2636736" lon="13.2902836"><ele>605.0</ele><time>2026-04-04T14:00:09.065Z</time></trkpt><trkpt lat="46.2637496" lon="13.2902222"><ele>605.0</ele><time>2026-04-04T14:00:10.065Z</time></trkpt><trkpt lat="46.2638275" lon="13.2901683"><ele>605.0</ele><time>2026-04-04T14:00:11.066Z</time></trkpt><trkpt lat="46.26391" lon="13.2901287"><ele>607.0</ele><time>2026-04-04T14:00:12.064Z</time></trkpt><trkpt lat="46.2639949" lon="13.2900989"><ele>609.0</ele><time>2026-04-04T14:00:13.065Z</time></trkpt><trkpt lat="46.2641108" lon="13.2901243"><ele>611.0</ele><time>2026-04-04T14:00:14.064Z</time></trkpt><trkpt lat="46.2642269" lon="13.2901424"><ele>613.0</ele><time>2026-04-04T14:00:15.066Z</time></trkpt><trkpt lat="46.2643419" lon="13.290155"><ele>615.0</ele><time>2026-04-04T14:00:16.065Z</time></trkpt><trkpt lat="46.2644504" lon="13.2901565"><ele>615.0</ele><time>2026-04-04T14:00:17.065Z</time></trkpt><trkpt lat="46.2645476" lon="13.290124"><ele>615.0</ele><time>2026-04-04T14:00:18.066Z</time></trkpt><trkpt lat="46.2646418" lon="13.2900884"><ele>615.0</ele><time>2026-04-04T14:00:19.066Z</time></trkpt><trkpt lat="46.2647492" lon="13.2901012"><ele>615.0</ele><time>2026-04-04T14:00:20.066Z</time></trkpt><trkpt lat="46.2648576" lon="13.2901344"><ele>615.0</ele><time>2026-04-04T14:00:21.064Z</time></trkpt><trkpt lat="46.2649833" lon="13.2901822"><ele>614.5</ele><time>2026-04-04T14:00:22.066Z</time></trkpt><trkpt lat="46.2651141" lon="13.2901977"><ele>614.0</ele><time>2026-04-04T14:00:23.064Z</time></trkpt><trkpt lat="46.2652518" lon="13.2902148"><ele>613.5</ele><time>2026-04-04T14:00:24.065Z</time></trkpt><trkpt lat="46.2653846" lon="13.2902454"><ele>613.0</ele><time>2026-04-04T14:00:25.064Z</time></trkpt><trkpt lat="46.2655147" lon="13.290296"><ele>612.25</ele><time>2026-04-04T14:00:26.064Z</time></trkpt><trkpt lat="46.2656408" lon="13.2903615"><ele>611.5</ele><time>2026-04-04T14:00:27.065Z</time></trkpt><trkpt lat="46.2657671" lon="13.2904334"><ele>610.75</ele><time>2026-04-04T14:00:28.065Z</time></trkpt><trkpt lat="46.265899" lon="13.2905078"><ele>610.0</ele><time>2026-04-04T14:00:29.064Z</time></trkpt><trkpt lat="46.2660252" lon="13.2905809"><ele>614.75</ele><time>2026-04-04T14:00:30.065Z</time></trkpt><trkpt lat="46.2661552" lon="13.2906589"><ele>619.5</ele><time>2026-04-04T14:00:31.066Z</time></trkpt><trkpt lat="46.2662897" lon="13.2907429"><ele>624.25</ele><time>2026-04-04T14:00:32.065Z</time></trkpt><trkpt lat="46.2664239" lon="13.2908238"><ele>629.0</ele><time>2026-04-04T14:00:33.065Z</time></trkpt><trkpt lat="46.2665553" lon="13.2909081"><ele>629.0</ele><time>2026-04-04T14:00:34.065Z</time></trkpt><trkpt lat="46.2666818" lon="13.290987"><ele>629.0</ele><time>2026-04-04T14:00:35.065Z</time></trkpt><trkpt lat="46.2668046" lon="13.2910621"><ele>629.0</ele><time>2026-04-04T14:00:36.066Z</time></trkpt><trkpt lat="46.2669242" lon="13.2911329"><ele>629.0</ele><time>2026-04-04T14:00:37.066Z</time></trkpt><trkpt lat="46.2670365" lon="13.2912027"><ele>629.0</ele><time>2026-04-04T14:00:38.064Z</time></trkpt><trkpt lat="46.2671424" lon="13.2912713"><ele>629.0</ele><time>2026-04-04T14:00:39.064Z</time></trkpt><trkpt lat="46.2672444" lon="13.2913359"><ele>629.0</ele><time>2026-04-04T14:00:40.064Z</time></trkpt><trkpt lat="46.2673453" lon="13.2913632"><ele>629.0</ele><time>2026-04-04T14:00:41.064Z</time></trkpt><trkpt lat="46.2674395" lon="13.2913448"><ele>629.0</ele><time>2026-04-04T14:00:42.064Z</time></trkpt><trkpt lat="46.2675139" lon="13.2912784"><ele>628.3333333333333</ele><time>2026-04-04T14:00:43.065Z</time></trkpt><trkpt lat="46.2675695" lon="13.2911782"><ele>627.6666666666666</ele><time>2026-04-04T14:00:44.065Z</time></trkpt><trkpt lat="46.2676058" lon="13.2910648"><ele>627.0</ele><time>2026-04-04T14:00:45.064Z</time></trkpt><trkpt lat="46.2676431" lon="13.2909729"><ele>626.3333333333334</ele><time>2026-04-04T14:00:46.065Z</time></trkpt><trkpt lat="46.2677031" lon="13.290905"><ele>625.6666666666667</ele><time>2026-04-04T14:00:47.066Z</time></trkpt><trkpt lat="46.2677812" lon="13.2908709"><ele>625.0</ele><time>2026-04-04T14:00:48.064Z</time></trkpt><trkpt lat="46.2678664" lon="13.2908509"><ele>625.0</ele><time>2026-04-04T14:00:49.066Z</time></trkpt><trkpt lat="46.2679541" lon="13.2908452"><ele>625.0</ele><time>2026-04-04T14:00:50.064Z</time></trkpt><trkpt lat="46.2680414" lon="13.2908663"><ele>625.0</ele><time>2026-04-04T14:00:51.065Z</time></trkpt><trkpt lat="46.2681244" lon="13.2909327"><ele>625.0</ele><time>2026-04-04T14:00:52.064Z</time></trkpt><trkpt lat="46.2682029" lon="13.2910188"><ele>625.0</ele><time>2026-04-04T14:00:53.066Z</time></trkpt><trkpt lat="46.2682849" lon="13.2910935"><ele>626.2</ele><time>2026-04-04T14:00:54.064Z</time></trkpt><trkpt lat="46.2683756" lon="13.2911406"><ele>627.4</ele><time>2026-04-04T14:00:55.065Z</time></trkpt><trkpt lat="46.2684768" lon="13.291146"><ele>628.6</ele><time>2026-04-04T14:00:56.065Z</time></trkpt><trkpt lat="46.2685815" lon="13.2911219"><ele>629.8</ele><time>2026-04-04T14:00:57.065Z</time></trkpt><trkpt lat="46.2686791" lon="13.2911038"><ele>631.0</ele><time>2026-04-04T14:00:58.065Z</time></trkpt><trkpt lat="46.268774" lon="13.2911217"><ele>631.0</ele><time>2026-04-04T14:00:59.066Z</time></trkpt><trkpt lat="46.2688681" lon="13.2911666"><ele>631.0</ele><time>2026-04-04T14:01:00.064Z</time></trkpt><trkpt lat="46.2689622" lon="13.291239"><ele>631.0</ele><time>2026-04-04T14:01:01.064Z</time></trkpt><trkpt lat="46.2690679" lon="13.2913085"><ele>631.0</ele><time>2026-04-04T14:01:02.065Z</time></trkpt><trkpt lat="46.2691786" lon="13.2913788"><ele>631.0</ele><time>2026-04-04T14:01:03.064Z</time></trkpt><trkpt lat="46.2692884" lon="13.2914393"><ele>628.0</ele><time>2026-04-04T14:01:04.065Z</time></trkpt><trkpt lat="46.2694035" lon="13.2914808"><ele>625.0</ele><time>2026-04-04T14:01:05.066Z</time></trkpt><trkpt lat="46.2695292" lon="13.2914966"><ele>622.0</ele><time>2026-04-04T14:01:06.065Z</time></trkpt><trkpt lat="46.2696603" lon="13.291485"><ele>619.0</ele><time>2026-04-04T14:01:07.064Z</time></trkpt><trkpt lat="46.269793" lon="13.2914792"><ele>617.5</ele><time>2026-04-04T14:01:08.065Z</time></trkpt><trkpt lat="46.2699224" lon="13.2914772"><ele>616.0</ele><time>2026-04-04T14:01:09.065Z</time></trkpt><trkpt lat="46.270045" lon="13.2914899"><ele>614.5</ele><time>2026-04-04T14:01:10.065Z</time></trkpt><trkpt lat="46.2701649" lon="13.2915236"><ele>613.0</ele><time>2026-04-04T14:01:11.066Z</time></trkpt><trkpt lat="46.2702776" lon="13.2915852"><ele>613.0</ele><time>2026-04-04T14:01:12.064Z</time></trkpt><trkpt lat="46.2703833" lon="13.2916568"><ele>613.0</ele><time>2026-04-04T14:01:13.066Z</time></trkpt><trkpt lat="46.2704821" lon="13.2917289"><ele>613.0</ele><time>2026-04-04T14:01:14.064Z</time></trkpt><trkpt lat="46.2705789" lon="13.2917762"><ele>613.0</ele><time>2026-04-04T14:01:15.065Z</time></trkpt><trkpt lat="46.270674" lon="13.2917698"><ele>613.0</ele><time>2026-04-04T14:01:16.064Z</time></trkpt><trkpt lat="46.2707687" lon="13.2917355"><ele>614.4</ele><time>2026-04-04T14:01:17.064Z</time></trkpt><trkpt lat="46.270866" lon="13.2916915"><ele>615.8</ele><time>2026-04-04T14:01:18.064Z</time></trkpt><trkpt lat="46.2709709" lon="13.2916499"><ele>617.2</ele><time>2026-04-04T14:01:19.065Z</time></trkpt><trkpt lat="46.2710832" lon="13.2916051"><ele>618.6</ele><time>2026-04-04T14:01:20.064Z</time></trkpt><trkpt lat="46.2711994" lon="13.2915653"><ele>620.0</ele><time>2026-04-04T14:01:21.064Z</time></trkpt><trkpt lat="46.2713103" lon="13.2915329"><ele>620.0</ele><time>2026-04-04T14:01:22.065Z</time></trkpt><trkpt lat="46.2714164" lon="13.2915094"><ele>620.0</ele><time>2026-04-04T14:01:23.065Z</time></trkpt><trkpt lat="46.2715182" lon="13.2914863"><ele>620.0</ele><time>2026-04-04T14:01:24.065Z</time></trkpt><trkpt lat="46.2716207" lon="13.2914667"><ele>620.0</ele><time>2026-04-04T14:01:25.065Z</time></trkpt><trkpt lat="46.2717231" lon="13.2914694"><ele>620.0</ele><time>2026-04-04T14:01:26.064Z</time></trkpt><trkpt lat="46.2718228" lon="13.2915003"><ele>620.2</ele><time>2026-04-04T14:01:27.065Z</time></trkpt><trkpt lat="46.2719183" lon="13.2915565"><ele>620.4</ele><time>2026-04-04T14:01:28.064Z</time></trkpt><trkpt lat="46.2720109" lon="13.2916327"><ele>620.6</ele><time>2026-04-04T14:01:29.064Z</time></trkpt><trkpt lat="46.2721076" lon="13.2917114"><ele>620.8</ele><time>2026-04-04T14:01:30.065Z</time></trkpt><trkpt lat="46.2722109" lon="13.2917743"><ele>621.0</ele><time>2026-04-04T14:01:31.065Z</time></trkpt><trkpt lat="46.2723214" lon="13.2918091"><ele>621.8</ele><time>2026-04-04T14:01:32.065Z</time></trkpt><trkpt lat="46.2724368" lon="13.2918343"><ele>622.6</ele><time>2026-04-04T14:01:33.064Z</time></trkpt><trkpt lat="46.2725443" lon="13.291854"><ele>623.4</ele><time>2026-04-04T14:01:34.065Z</time></trkpt><trkpt lat="46.2726442" lon="13.2918689"><ele>624.2</ele><time>2026-04-04T14:01:35.065Z</time></trkpt><trkpt lat="46.272734" lon="13.2918947"><ele>625.0</ele><time>2026-04-04T14:01:36.065Z</time></trkpt><trkpt lat="46.2728142" lon="13.29193"><ele>625.0</ele><time>2026-04-04T14:01:37.065Z</time></trkpt><trkpt lat="46.272885" lon="13.2919832"><ele>625.0</ele><time>2026-04-04T14:01:38.065Z</time></trkpt><trkpt lat="46.2729576" lon="13.2920514"><ele>625.0</ele><time>2026-04-04T14:01:39.066Z</time></trkpt><trkpt lat="46.2730297" lon="13.2921262"><ele>625.0</ele><time>2026-04-04T14:01:40.066Z</time></trkpt><trkpt lat="46.2731077" lon="13.2921979"><ele>625.0</ele><time>2026-04-04T14:01:41.064Z</time></trkpt><trkpt lat="46.2731917" lon="13.2922707"><ele>625.0</ele><time>2026-04-04T14:01:42.064Z</time></trkpt><trkpt lat="46.2732674" lon="13.2923545"><ele>625.4</ele><time>2026-04-04T14:01:43.066Z</time></trkpt><trkpt lat="46.2733219" lon="13.2924529"><ele>625.8</ele><time>2026-04-04T14:01:44.066Z</time></trkpt><trkpt lat="46.273363" lon="13.2925715"><ele>626.2</ele><time>2026-04-04T14:01:45.065Z</time></trkpt><trkpt lat="46.2733865" lon="13.2927071"><ele>626.6</ele><time>2026-04-04T14:01:46.065Z</time></trkpt><trkpt lat="46.2733952" lon="13.292842"><ele>627.0</ele><time>2026-04-04T14:01:47.065Z</time></trkpt><trkpt lat="46.2734098" lon="13.292962"><ele>627.0</ele><time>2026-04-04T14:01:48.064Z</time></trkpt><trkpt lat="46.2734472" lon="13.2930576"><ele>627.0</ele><time>2026-04-04T14:01:49.065Z</time></trkpt><trkpt lat="46.2735045" lon="13.2931078"><ele>627.0</ele><time>2026-04-04T14:01:50.065Z</time></trkpt><trkpt lat="46.2735779" lon="13.293119"><ele>627.0</ele><time>2026-04-04T14:01:51.064Z</time></trkpt><trkpt lat="46.273666" lon="13.2930971"><ele>627.0</ele><time>2026-04-04T14:01:52.065Z</time></trkpt><trkpt lat="46.2737674" lon="13.2930648"><ele>627.0</ele><time>2026-04-04T14:01:53.064Z</time></trkpt><trkpt lat="46.2738824" lon="13.2930415"><ele>626.0</ele><time>2026-04-04T14:01:54.065Z</time></trkpt><trkpt lat="46.2740029" lon="13.2930296"><ele>625.0</ele><time>2026-04-04T14:01:55.065Z</time></trkpt><trkpt lat="46.2741265" lon="13.2930337"><ele>624.0</ele><time>2026-04-04T14:01:56.065Z</time></trkpt><trkpt lat="46.2742494" lon="13.293053"><ele>623.0</ele><time>2026-04-04T14:01:57.066Z</time></trkpt><trkpt lat="46.2743673" lon="13.2930907"><ele>623.0</ele><time>2026-04-04T14:01:58.064Z</time></trkpt><trkpt lat="46.2744678" lon="13.2931545"><ele>623.0</ele><time>2026-04-04T14:01:59.065Z</time></trkpt><trkpt lat="46.2745383" lon="13.2932508"><ele>623.0</ele><time>2026-04-04T14:02:00.066Z</time></trkpt><trkpt lat="46.2745952" lon="13.2933551"><ele>623.0</ele><time>2026-04-04T14:02:01.064Z</time></trkpt><trkpt lat="46.2746553" lon="13.2934474"><ele>623.0</ele><time>2026-04-04T14:02:02.064Z</time></trkpt><trkpt lat="46.2747319" lon="13.2935"><ele>626.3333333333333</ele><time>2026-04-04T14:02:03.065Z</time></trkpt><trkpt lat="46.274812" lon="13.2935242"><ele>629.6666666666666</ele><time>2026-04-04T14:02:04.065Z</time></trkpt><trkpt lat="46.2748908" lon="13.2935438"><ele>633.0</ele><time>2026-04-04T14:02:05.064Z</time></trkpt><trkpt lat="46.2749688" lon="13.2935705"><ele>636.3333333333334</ele><time>2026-04-04T14:02:06.064Z</time></trkpt><trkpt lat="46.2750445" lon="13.2936047"><ele>639.6666666666667</ele><time>2026-04-04T14:02:07.065Z</time></trkpt><trkpt lat="46.2751142" lon="13.2936406"><ele>643.0</ele><time>2026-04-04T14:02:08.064Z</time></trkpt><trkpt lat="46.2751962" lon="13.2936611"><ele>643.0</ele><time>2026-04-04T14:02:09.064Z</time></trkpt><trkpt lat="46.2752752" lon="13.2936753"><ele>643.0</ele><time>2026-04-04T14:02:10.065Z</time></trkpt><trkpt lat="46.2753484" lon="13.2937114"><ele>643.0</ele><time>2026-04-04T14:02:11.064Z</time></trkpt><trkpt lat="46.2754086" lon="13.2937676"><ele>643.0</ele><time>2026-04-04T14:02:12.065Z</time></trkpt><trkpt lat="46.2754493" lon="13.2938601"><ele>643.0</ele><time>2026-04-04T14:02:13.066Z</time></trkpt><trkpt lat="46.2754725" lon="13.2939719"><ele>643.0</ele><time>2026-04-04T14:02:14.064Z</time></trkpt><trkpt lat="46.2754952" lon="13.2940849"><ele>638.8333333333334</ele><time>2026-04-04T14:02:15.064Z</time></trkpt><trkpt lat="46.2755196" lon="13.2941903"><ele>634.6666666666667</ele><time>2026-04-04T14:02:16.064Z</time></trkpt><trkpt lat="46.2755477" lon="13.2942945"><ele>630.5</ele><time>2026-04-04T14:02:17.065Z</time></trkpt><trkpt lat="46.2755684" lon="13.2944044"><ele>626.3333333333334</ele><time>2026-04-04T14:02:18.065Z</time></trkpt><trkpt lat="46.2755746" lon="13.2945096"><ele>622.1666666666666</ele><time>2026-04-04T14:02:19.065Z</time></trkpt><trkpt lat="46.2755565" lon="13.2946144"><ele>618.0</ele><time>2026-04-04T14:02:20.064Z</time></trkpt><trkpt lat="46.2755136" lon="13.2947243"><ele>617.25</ele><time>2026-04-04T14:02:21.065Z</time></trkpt><trkpt lat="46.2754552" lon="13.2948474"><ele>616.5</ele><time>2026-04-04T14:02:22.065Z</time></trkpt><trkpt lat="46.2753888" lon="13.2949873"><ele>615.75</ele><time>2026-04-04T14:02:23.065Z</time></trkpt><trkpt lat="46.2753146" lon="13.2951422"><ele>615.0</ele><time>2026-04-04T14:02:24.065Z</time></trkpt><trkpt lat="46.2752393" lon="13.295298"><ele>615.0</ele><time>2026-04-04T14:02:25.065Z</time></trkpt><trkpt lat="46.2751652" lon="13.2954549"><ele>615.0</ele><time>2026-04-04T14:02:26.065Z</time></trkpt><trkpt lat="46.2750894" lon="13.295604"><ele>615.0</ele><time>2026-04-04T14:02:27.065Z</time></trkpt><trkpt lat="46.2750151" lon="13.2957486"><ele>615.0</ele><time>2026-04-04T14:02:28.065Z</time></trkpt><trkpt lat="46.2749497" lon="13.2958784"><ele>614.8</ele><time>2026-04-04T14:02:29.065Z</time></trkpt><trkpt lat="46.2749084" lon="13.2960066"><ele>614.6</ele><time>2026-04-04T14:02:30.065Z</time></trkpt><trkpt lat="46.2749004" lon="13.2961368"><ele>614.4</ele><time>2026-04-04T14:02:31.065Z</time></trkpt><trkpt lat="46.2749324" lon="13.296253"><ele>614.2</ele><time>2026-04-04T14:02:32.064Z</time></trkpt><trkpt lat="46.2749982" lon="13.2963481"><ele>614.0</ele><time>2026-04-04T14:02:33.065Z</time></trkpt><trkpt lat="46.2750899" lon="13.2964351"><ele>614.0</ele><time>2026-04-04T14:02:34.065Z</time></trkpt><trkpt lat="46.2751968" lon="13.2965213"><ele>614.0</ele><time>2026-04-04T14:02:35.066Z</time></trkpt><trkpt lat="46.2753072" lon="13.2966133"><ele>614.0</ele><time>2026-04-04T14:02:36.065Z</time></trkpt><trkpt lat="46.2754128" lon="13.2967058"><ele>614.0</ele><time>2026-04-04T14:02:37.064Z</time></trkpt><trkpt lat="46.2755177" lon="13.2967787"><ele>618.6</ele><time>2026-04-04T14:02:38.065Z</time></trkpt><trkpt lat="46.2756132" lon="13.2968434"><ele>623.2</ele><time>2026-04-04T14:02:39.064Z</time></trkpt><trkpt lat="46.275728" lon="13.2967826"><ele>627.8000000000001</ele><time>2026-04-04T14:02:40.065Z</time></trkpt><trkpt lat="46.2758187" lon="13.2967655"><ele>632.4</ele><time>2026-04-04T14:02:41.064Z</time></trkpt><trkpt lat="46.2759137" lon="13.2967242"><ele>637.0</ele><time>2026-04-04T14:02:42.064Z</time></trkpt><trkpt lat="46.2760128" lon="13.2967199"><ele>637.0</ele><time>2026-04-04T14:02:43.065Z</time></trkpt><trkpt lat="46.2761114" lon="13.2967635"><ele>637.0</ele><time>2026-04-04T14:02:44.065Z</time></trkpt><trkpt lat="46.2761992" lon="13.2968345"><ele>637.0</ele><time>2026-04-04T14:02:45.065Z</time></trkpt><trkpt lat="46.2762954" lon="13.2968873"><ele>637.0</ele><time>2026-04-04T14:02:46.065Z</time></trkpt><trkpt lat="46.2763959" lon="13.2968966"><ele>637.0</ele><time>2026-04-04T14:02:47.065Z</time></trkpt><trkpt lat="46.2764873" lon="13.2968846"><ele>638.1666666666667</ele><time>2026-04-04T14:02:48.065Z</time></trkpt><trkpt lat="46.2765662" lon="13.2968857"><ele>639.3333333333334</ele><time>2026-04-04T14:02:49.064Z</time></trkpt><trkpt lat="46.2766421" lon="13.2969085"><ele>640.5</ele><time>2026-04-04T14:02:50.064Z</time></trkpt><trkpt lat="46.2767088" lon="13.2969625"><ele>641.6666666666666</ele><time>2026-04-04T14:02:51.065Z</time></trkpt><trkpt lat="46.2767719" lon="13.2970331"><ele>642.8333333333333</ele><time>2026-04-04T14:02:52.065Z</time></trkpt><trkpt lat="46.2768144" lon="13.2971289"><ele>644.0</ele><time>2026-04-04T14:02:53.064Z</time></trkpt><trkpt lat="46.2768231" lon="13.2972508"><ele>640.5</ele><time>2026-04-04T14:02:54.065Z</time></trkpt><trkpt lat="46.276807" lon="13.2973922"><ele>637.0</ele><time>2026-04-04T14:02:55.066Z</time></trkpt><trkpt lat="46.2767678" lon="13.2975532"><ele>633.5</ele><time>2026-04-04T14:02:56.065Z</time></trkpt><trkpt lat="46.2767102" lon="13.2977225"><ele>630.0</ele><time>2026-04-04T14:02:57.064Z</time></trkpt><trkpt lat="46.2766444" lon="13.2979042"><ele>632.5</ele><time>2026-04-04T14:02:58.065Z</time></trkpt><trkpt lat="46.2765787" lon="13.2980852"><ele>635.0</ele><time>2026-04-04T14:02:59.064Z</time></trkpt><trkpt lat="46.2765174" lon="13.2982405"><ele>637.5</ele><time>2026-04-04T14:03:00.064Z</time></trkpt><trkpt lat="46.276457" lon="13.2983612"><ele>640.0</ele><time>2026-04-04T14:03:01.065Z</time></trkpt><trkpt lat="46.2764146" lon="13.2984677"><ele>640.0</ele><time>2026-04-04T14:03:02.064Z</time></trkpt><trkpt lat="46.2764016" lon="13.298573"><ele>640.0</ele><time>2026-04-04T14:03:03.065Z</time></trkpt><trkpt lat="46.2764185" lon="13.2986765"><ele>640.0</ele><time>2026-04-04T14:03:04.065Z</time></trkpt><trkpt lat="46.2764448" lon="13.2987758"><ele>640.0</ele><time>2026-04-04T14:03:05.065Z</time></trkpt><trkpt lat="46.2764608" lon="13.2988776"><ele>640.0</ele><time>2026-04-04T14:03:06.065Z</time></trkpt><trkpt lat="46.276459" lon="13.2989817"><ele>640.0</ele><time>2026-04-04T14:03:07.065Z</time></trkpt><trkpt lat="46.2764393" lon="13.299087"><ele>640.0</ele><time>2026-04-04T14:03:08.066Z</time></trkpt><trkpt lat="46.2763951" lon="13.2991732"><ele>635.2</ele><time>2026-04-04T14:03:09.065Z</time></trkpt><trkpt lat="46.2763303" lon="13.2992472"><ele>630.4</ele><time>2026-04-04T14:03:10.066Z</time></trkpt><trkpt lat="46.2762504" lon="13.2993205"><ele>625.6</ele><time>2026-04-04T14:03:11.065Z</time></trkpt><trkpt lat="46.2761651" lon="13.2994173"><ele>620.8</ele><time>2026-04-04T14:03:12.064Z</time></trkpt><trkpt lat="46.2760826" lon="13.2995365"><ele>616.0</ele><time>2026-04-04T14:03:13.064Z</time></trkpt><trkpt lat="46.2760008" lon="13.2996744"><ele>620.4</ele><time>2026-04-04T14:03:14.064Z</time></trkpt><trkpt lat="46.2759166" lon="13.2997986"><ele>624.8</ele><time>2026-04-04T14:03:15.064Z</time></trkpt><trkpt lat="46.2758333" lon="13.2998965"><ele>629.1999999999999</ele><time>2026-04-04T14:03:16.064Z</time></trkpt><trkpt lat="46.2757617" lon="13.2999919"><ele>633.6</ele><time>2026-04-04T14:03:17.064Z</time></trkpt><trkpt lat="46.2757096" lon="13.300093"><ele>638.0</ele><time>2026-04-04T14:03:18.064Z</time></trkpt><trkpt lat="46.2756869" lon="13.3002102"><ele>638.0</ele><time>2026-04-04T14:03:19.065Z</time></trkpt><trkpt lat="46.2756844" lon="13.3003473"><ele>638.0</ele><time>2026-04-04T14:03:20.065Z</time></trkpt><trkpt lat="46.2756982" lon="13.3004981"><ele>638.0</ele><time>2026-04-04T14:03:21.065Z</time></trkpt><trkpt lat="46.2757225" lon="13.3006546"><ele>638.0</ele><time>2026-04-04T14:03:22.066Z</time></trkpt><trkpt lat="46.275765" lon="13.3008076"><ele>638.0</ele><time>2026-04-04T14:03:23.065Z</time></trkpt><trkpt lat="46.2758245" lon="13.300945"><ele>638.8333333333333</ele><time>2026-04-04T14:03:24.066Z</time></trkpt><trkpt lat="46.2758886" lon="13.3010546"><ele>639.6666666666666</ele><time>2026-04-04T14:03:25.066Z</time></trkpt><trkpt lat="46.275953" lon="13.30115"><ele>640.5</ele><time>2026-04-04T14:03:26.066Z</time></trkpt><trkpt lat="46.2760087" lon="13.3012304"><ele>641.3333333333334</ele><time>2026-04-04T14:03:27.064Z</time></trkpt><trkpt lat="46.276054" lon="13.3013193"><ele>642.1666666666667</ele><time>2026-04-04T14:03:28.064Z</time></trkpt><trkpt lat="46.2760827" lon="13.3014186"><ele>643.0</ele><time>2026-04-04T14:03:29.065Z</time></trkpt><trkpt lat="46.2760771" lon="13.3015313"><ele>644.2</ele><time>2026-04-04T14:03:30.065Z</time></trkpt><trkpt lat="46.2760436" lon="13.3016386"><ele>645.4</ele><time>2026-04-04T14:03:31.066Z</time></trkpt><trkpt lat="46.2759852" lon="13.3017271"><ele>646.6</ele><time>2026-04-04T14:03:32.065Z</time></trkpt><trkpt lat="46.2759164" lon="13.3018034"><ele>647.8000000000001</ele><time>2026-04-04T14:03:33.065Z</time></trkpt><trkpt lat="46.2758" lon="13.301797"><ele>649.0</ele><time>2026-04-04T14:03:34.064Z</time></trkpt><trkpt lat="46.2756775" lon="13.301796"><ele>646.5</ele><time>2026-04-04T14:03:35.066Z</time></trkpt><trkpt lat="46.2755509" lon="13.3017956"><ele>644.0</ele><time>2026-04-04T14:03:36.066Z</time></trkpt><trkpt lat="46.2754103" lon="13.3018268"><ele>641.5</ele><time>2026-04-04T14:03:37.065Z</time></trkpt><trkpt lat="46.2752678" lon="13.3018684"><ele>639.0</ele><time>2026-04-04T14:03:38.065Z</time></trkpt><trkpt lat="46.2751405" lon="13.3019202"><ele>639.0</ele><time>2026-04-04T14:03:39.064Z</time></trkpt><trkpt lat="46.2750284" lon="13.3019581"><ele>639.0</ele><time>2026-04-04T14:03:40.066Z</time></trkpt><trkpt lat="46.2749256" lon="13.3019492"><ele>639.0</ele><time>2026-04-04T14:03:41.066Z</time></trkpt><trkpt lat="46.2748239" lon="13.3019116"><ele>639.0</ele><time>2026-04-04T14:03:42.065Z</time></trkpt><trkpt lat="46.2747288" lon="13.3018207"><ele>639.0</ele><time>2026-04-04T14:03:43.065Z</time></trkpt><trkpt lat="46.2746368" lon="13.3017222"><ele>638.4</ele><time>2026-04-04T14:03:44.065Z</time></trkpt><trkpt lat="46.2745466" lon="13.3016468"><ele>637.8</ele><time>2026-04-04T14:03:45.064Z</time></trkpt><trkpt lat="46.2744646" lon="13.3015706"><ele>637.2</ele><time>2026-04-04T14:03:46.065Z</time></trkpt><trkpt lat="46.2743602" lon="13.3015421"><ele>636.6</ele><time>2026-04-04T14:03:47.065Z</time></trkpt><trkpt lat="46.2742618" lon="13.3015433"><ele>636.0</ele><time>2026-04-04T14:03:48.066Z</time></trkpt><trkpt lat="46.2741712" lon="13.3015679"><ele>636.0</ele><time>2026-04-04T14:03:49.064Z</time></trkpt><trkpt lat="46.2740848" lon="13.3016155"><ele>636.0</ele><time>2026-04-04T14:03:50.064Z</time></trkpt><trkpt lat="46.2740095" lon="13.3017018"><ele>636.0</ele><time>2026-04-04T14:03:51.064Z</time></trkpt><trkpt lat="46.2739516" lon="13.3018155"><ele>636.0</ele><time>2026-04-04T14:03:52.065Z</time></trkpt><trkpt lat="46.2739021" lon="13.3019438"><ele>636.0</ele><time>2026-04-04T14:03:53.066Z</time></trkpt><trkpt lat="46.2738531" lon="13.3020897"><ele>634.75</ele><time>2026-04-04T14:03:54.064Z</time></trkpt><trkpt lat="46.2737956" lon="13.3022404"><ele>633.5</ele><time>2026-04-04T14:03:55.065Z</time></trkpt><trkpt lat="46.2737222" lon="13.3023847"><ele>632.25</ele><time>2026-04-04T14:03:56.064Z</time></trkpt><trkpt lat="46.2736351" lon="13.302509"><ele>631.0</ele><time>2026-04-04T14:03:57.065Z</time></trkpt><trkpt lat="46.2735461" lon="13.3026162"><ele>631.0</ele><time>2026-04-04T14:03:58.066Z</time></trkpt><trkpt lat="46.2734622" lon="13.3027165"><ele>631.0</ele><time>2026-04-04T14:03:59.064Z</time></trkpt><trkpt lat="46.273377" lon="13.3028218"><ele>631.0</ele><time>2026-04-04T14:04:00.066Z</time></trkpt><trkpt lat="46.2732995" lon="13.3029379"><ele>631.0</ele><time>2026-04-04T14:04:01.065Z</time></trkpt><trkpt lat="46.2732442" lon="13.3030391"><ele>631.0</ele><time>2026-04-04T14:04:02.065Z</time></trkpt><trkpt lat="46.2732089" lon="13.3031247"><ele>631.3333333333334</ele><time>2026-04-04T14:04:03.064Z</time></trkpt><trkpt lat="46.2732027" lon="13.303227"><ele>631.6666666666667</ele><time>2026-04-04T14:04:04.065Z</time></trkpt><trkpt lat="46.2732289" lon="13.3033254"><ele>632.0</ele><time>2026-04-04T14:04:05.064Z</time></trkpt><trkpt lat="46.2732771" lon="13.3034181"><ele>632.3333333333334</ele><time>2026-04-04T14:04:06.064Z</time></trkpt><trkpt lat="46.2733449" lon="13.3035053"><ele>632.6666666666666</ele><time>2026-04-04T14:04:07.065Z</time></trkpt><trkpt lat="46.273413" lon="13.3036089"><ele>633.0</ele><time>2026-04-04T14:04:08.065Z</time></trkpt><trkpt lat="46.2734635" lon="13.3037445"><ele>633.0</ele><time>2026-04-04T14:04:09.065Z</time></trkpt><trkpt lat="46.2734991" lon="13.3038887"><ele>633.0</ele><time>2026-04-04T14:04:10.065Z</time></trkpt><trkpt lat="46.2735288" lon="13.304029"><ele>633.0</ele><time>2026-04-04T14:04:11.065Z</time></trkpt><trkpt lat="46.2735451" lon="13.3041553"><ele>633.0</ele><time>2026-04-04T14:04:12.065Z</time></trkpt><trkpt lat="46.2735272" lon="13.3042775"><ele>633.0</ele><time>2026-04-04T14:04:13.064Z</time></trkpt><trkpt lat="46.2734807" lon="13.3043732"><ele>632.4</ele><time>2026-04-04T14:04:14.065Z</time></trkpt><trkpt lat="46.2734137" lon="13.3044448"><ele>631.8</ele><time>2026-04-04T14:04:15.065Z</time></trkpt><trkpt lat="46.2733397" lon="13.3045126"><ele>631.2</ele><time>2026-04-04T14:04:16.064Z</time></trkpt><trkpt lat="46.273281" lon="13.3046185"><ele>630.6</ele><time>2026-04-04T14:04:17.064Z</time></trkpt><trkpt lat="46.2732396" lon="13.3047543"><ele>630.0</ele><time>2026-04-04T14:04:18.066Z</time></trkpt><trkpt lat="46.2732044" lon="13.304909"><ele>630.0</ele><time>2026-04-04T14:04:19.065Z</time></trkpt><trkpt lat="46.2731546" lon="13.305071"><ele>630.0</ele><time>2026-04-04T14:04:20.065Z</time></trkpt><trkpt lat="46.2730936" lon="13.3052307"><ele>630.0</ele><time>2026-04-04T14:04:21.065Z</time></trkpt><trkpt lat="46.2730325" lon="13.3053752"><ele>630.0</ele><time>2026-04-04T14:04:22.065Z</time></trkpt><trkpt lat="46.2729748" lon="13.3055077"><ele>628.4</ele><time>2026-04-04T14:04:23.064Z</time></trkpt><trkpt lat="46.2729206" lon="13.3056344"><ele>626.8</ele><time>2026-04-04T14:04:24.065Z</time></trkpt><trkpt lat="46.2728664" lon="13.3057532"><ele>625.2</ele><time>2026-04-04T14:04:25.064Z</time></trkpt><trkpt lat="46.2728107" lon="13.3058695"><ele>623.6</ele><time>2026-04-04T14:04:26.064Z</time></trkpt><trkpt lat="46.2727567" lon="13.3059856"><ele>622.0</ele><time>2026-04-04T14:04:27.066Z</time></trkpt><trkpt lat="46.2727056" lon="13.3060986"><ele>622.0</ele><time>2026-04-04T14:04:28.064Z</time></trkpt><trkpt lat="46.2726559" lon="13.3062133"><ele>622.0</ele><time>2026-04-04T14:04:29.064Z</time></trkpt><trkpt lat="46.2726132" lon="13.3063358"><ele>622.0</ele><time>2026-04-04T14:04:30.064Z</time></trkpt><trkpt lat="46.2725809" lon="13.3064683"><ele>622.0</ele><time>2026-04-04T14:04:31.065Z</time></trkpt><trkpt lat="46.2725595" lon="13.3066215"><ele>622.0</ele><time>2026-04-04T14:04:32.064Z</time></trkpt><trkpt lat="46.2725481" lon="13.306784"><ele>622.0</ele><time>2026-04-04T14:04:33.064Z</time></trkpt><trkpt lat="46.2725483" lon="13.3069575"><ele>622.0</ele><time>2026-04-04T14:04:34.065Z</time></trkpt><trkpt lat="46.2725482" lon="13.3071312"><ele>622.0</ele><time>2026-04-04T14:04:35.065Z</time></trkpt><trkpt lat="46.2725459" lon="13.3073072"><ele>622.0</ele><time>2026-04-04T14:04:36.065Z</time></trkpt><trkpt lat="46.2725396" lon="13.3074722"><ele>621.0</ele><time>2026-04-04T14:04:37.064Z</time></trkpt><trkpt lat="46.2725398" lon="13.3076356"><ele>620.0</ele><time>2026-04-04T14:04:38.064Z</time></trkpt><trkpt lat="46.2725567" lon="13.3078063"><ele>619.0</ele><time>2026-04-04T14:04:39.066Z</time></trkpt><trkpt lat="46.2725971" lon="13.3079799"><ele>618.0</ele><time>2026-04-04T14:04:40.065Z</time></trkpt><trkpt lat="46.2726532" lon="13.3081558"><ele>617.25</ele><time>2026-04-04T14:04:41.064Z</time></trkpt><trkpt lat="46.2727066" lon="13.3083251"><ele>616.5</ele><time>2026-04-04T14:04:42.065Z</time></trkpt><trkpt lat="46.2727491" lon="13.3084916"><ele>615.75</ele><time>2026-04-04T14:04:43.064Z</time></trkpt><trkpt lat="46.2727864" lon="13.3086537"><ele>615.0</ele><time>2026-04-04T14:04:44.065Z</time></trkpt><trkpt lat="46.2728205" lon="13.3088097"><ele>614.2</ele><time>2026-04-04T14:04:45.066Z</time></trkpt><trkpt lat="46.2728505" lon="13.3089536"><ele>613.4</ele><time>2026-04-04T14:04:46.065Z</time></trkpt><trkpt lat="46.2728636" lon="13.3090889"><ele>612.6</ele><time>2026-04-04T14:04:47.065Z</time></trkpt><trkpt lat="46.2728771" lon="13.3092212"><ele>611.8</ele><time>2026-04-04T14:04:48.065Z</time></trkpt><trkpt lat="46.2728981" lon="13.3093488"><ele>611.0</ele><time>2026-04-04T14:04:49.065Z</time></trkpt><trkpt lat="46.2729266" lon="13.3094661"><ele>611.0</ele><time>2026-04-04T14:04:50.065Z</time></trkpt><trkpt lat="46.2729556" lon="13.3095756"><ele>611.0</ele><time>2026-04-04T14:04:51.065Z</time></trkpt><trkpt lat="46.2729846" lon="13.3096675"><ele>611.0</ele><time>2026-04-04T14:04:52.064Z</time></trkpt><trkpt lat="46.2730184" lon="13.3097484"><ele>611.0</ele><time>2026-04-04T14:04:53.065Z</time></trkpt><trkpt lat="46.2730854" lon="13.3098585"><ele>611.0</ele><time>2026-04-04T14:04:55.064Z</time></trkpt><trkpt lat="46.2731556" lon="13.3099533"><ele>611.0</ele><time>2026-04-04T14:04:57.065Z</time></trkpt><trkpt lat="46.2732163" lon="13.3100542"><ele>611.0</ele><time>2026-04-04T14:04:59.064Z</time></trkpt><trkpt lat="46.2732558" lon="13.3101802"><ele>611.0</ele><time>2026-04-04T14:05:01.066Z</time></trkpt><trkpt lat="46.2732662" lon="13.3103285"><ele>611.0</ele><time>2026-04-04T14:05:03.065Z</time></trkpt><trkpt lat="46.273255" lon="13.3104465"><ele>611.0</ele><time>2026-04-04T14:05:05.064Z</time></trkpt><trkpt lat="46.2732538" lon="13.3105767"><ele>611.0</ele><time>2026-04-04T14:05:07.064Z</time></trkpt><trkpt lat="46.2732684" lon="13.3106929"><ele>611.0</ele><time>2026-04-04T14:05:09.064Z</time></trkpt><trkpt lat="46.2732883" lon="13.3107886"><ele>611.0</ele><time>2026-04-04T14:05:11.065Z</time></trkpt><trkpt lat="46.2733185" lon="13.3108981"><ele>611.0</ele><time>2026-04-04T14:05:13.064Z</time></trkpt><trkpt lat="46.273371" lon="13.3110495"><ele>611.0</ele><time>2026-04-04T14:05:15.065Z</time></trkpt><trkpt lat="46.2734297" lon="13.3111876"><ele>611.0</ele><time>2026-04-04T14:05:17.064Z</time></trkpt><trkpt lat="46.2734807" lon="13.3113131"><ele>609.3333333333333</ele><time>2026-04-04T14:05:19.064Z</time></trkpt><trkpt lat="46.2735114" lon="13.311441"><ele>607.6666666666666</ele><time>2026-04-04T14:05:21.065Z</time></trkpt><trkpt lat="46.2735054" lon="13.3115669"><ele>606.0</ele><time>2026-04-04T14:05:23.065Z</time></trkpt><trkpt lat="46.2734363" lon="13.3116989"><ele>604.3333333333334</ele><time>2026-04-04T14:05:25.065Z</time></trkpt><trkpt lat="46.2733822" lon="13.3117483"><ele>602.6666666666667</ele><time>2026-04-04T14:05:26.065Z</time></trkpt><trkpt lat="46.2733249" lon="13.3117926"><ele>601.0</ele><time>2026-04-04T14:05:27.066Z</time></trkpt><trkpt lat="46.2732657" lon="13.311843"><ele>601.0</ele><time>2026-04-04T14:05:28.064Z</time></trkpt><trkpt lat="46.27321" lon="13.3119088"><ele>601.0</ele><time>2026-04-04T14:05:29.065Z</time></trkpt><trkpt lat="46.2731583" lon="13.3119929"><ele>601.0</ele><time>2026-04-04T14:05:30.065Z</time></trkpt><trkpt lat="46.2731085" lon="13.3120863"><ele>601.0</ele><time>2026-04-04T14:05:31.065Z</time></trkpt><trkpt lat="46.2730532" lon="13.3121718"><ele>601.0</ele><time>2026-04-04T14:05:32.064Z</time></trkpt><trkpt lat="46.2729917" lon="13.312246"><ele>601.0</ele><time>2026-04-04T14:05:33.066Z</time></trkpt><trkpt lat="46.2729338" lon="13.3123097"><ele>598.3333333333334</ele><time>2026-04-04T14:05:34.066Z</time></trkpt><trkpt lat="46.2728737" lon="13.3123782"><ele>595.6666666666667</ele><time>2026-04-04T14:05:35.065Z</time></trkpt><trkpt lat="46.2728218" lon="13.3124445"><ele>593.0</ele><time>2026-04-04T14:05:36.066Z</time></trkpt><trkpt lat="46.2727816" lon="13.3125226"><ele>590.3333333333334</ele><time>2026-04-04T14:05:37.065Z</time></trkpt><trkpt lat="46.2727511" lon="13.3126299"><ele>587.6666666666666</ele><time>2026-04-04T14:05:38.065Z</time></trkpt><trkpt lat="46.2727364" lon="13.3127663"><ele>585.0</ele><time>2026-04-04T14:05:39.065Z</time></trkpt><trkpt lat="46.2727345" lon="13.3129294"><ele>584.6666666666666</ele><time>2026-04-04T14:05:40.064Z</time></trkpt><trkpt lat="46.2727227" lon="13.3131325"><ele>584.3333333333333</ele><time>2026-04-04T14:05:41.065Z</time></trkpt><trkpt lat="46.2726926" lon="13.3133657"><ele>584.0</ele><time>2026-04-04T14:05:42.065Z</time></trkpt><trkpt lat="46.272653" lon="13.3136098"><ele>584.0</ele><time>2026-04-04T14:05:43.064Z</time></trkpt><trkpt lat="46.2726178" lon="13.3138556"><ele>584.0</ele><time>2026-04-04T14:05:44.064Z</time></trkpt><trkpt lat="46.2725934" lon="13.3140938"><ele>584.0</ele><time>2026-04-04T14:05:45.065Z</time></trkpt><trkpt lat="46.2725791" lon="13.3143161"><ele>582.8</ele><time>2026-04-04T14:05:46.065Z</time></trkpt><trkpt lat="46.2725707" lon="13.3145148"><ele>581.5999999999999</ele><time>2026-04-04T14:05:47.064Z</time></trkpt><trkpt lat="46.2725638" lon="13.3146911"><ele>580.4</ele><time>2026-04-04T14:05:48.064Z</time></trkpt><trkpt lat="46.2725596" lon="13.314836"><ele>579.1999999999999</ele><time>2026-04-04T14:05:49.065Z</time></trkpt><trkpt lat="46.2725543" lon="13.3149544"><ele>578.0</ele><time>2026-04-04T14:05:50.065Z</time></trkpt><trkpt lat="46.2725429" lon="13.3150495"><ele>577.1999999999999</ele><time>2026-04-04T14:05:51.065Z</time></trkpt><trkpt lat="46.2724995" lon="13.3151767"><ele>576.4</ele><time>2026-04-04T14:05:53.064Z</time></trkpt><trkpt lat="46.2724311" lon="13.3151969"><ele>575.5999999999999</ele><time>2026-04-04T14:05:55.064Z</time></trkpt><trkpt lat="46.272373" lon="13.3150832"><ele>574.8</ele><time>2026-04-04T14:05:57.064Z</time></trkpt><trkpt lat="46.2723054" lon="13.3149377"><ele>574.0</ele><time>2026-04-04T14:05:59.064Z</time></trkpt><trkpt lat="46.2721977" lon="13.3148818"><ele>570.2</ele><time>2026-04-04T14:06:01.066Z</time></trkpt><trkpt lat="46.2721074" lon="13.3149777"><ele>566.4</ele><time>2026-04-04T14:06:03.064Z</time></trkpt><trkpt lat="46.2720709" lon="13.315073"><ele>562.6</ele><time>2026-04-04T14:06:04.064Z</time></trkpt><trkpt lat="46.272035" lon="13.3151932"><ele>558.8</ele><time>2026-04-04T14:06:05.065Z</time></trkpt><trkpt lat="46.2720055" lon="13.3153432"><ele>555.0</ele><time>2026-04-04T14:06:06.064Z</time></trkpt><trkpt lat="46.2719945" lon="13.3155301"><ele>554.25</ele><time>2026-04-04T14:06:07.064Z</time></trkpt><trkpt lat="46.2719929" lon="13.3157329"><ele>553.5</ele><time>2026-04-04T14:06:08.064Z</time></trkpt><trkpt lat="46.2719968" lon="13.315951"><ele>552.75</ele><time>2026-04-04T14:06:09.066Z</time></trkpt><trkpt lat="46.2720036" lon="13.316172"><ele>552.0</ele><time>2026-04-04T14:06:10.066Z</time></trkpt><trkpt lat="46.2720143" lon="13.3163785"><ele>551.25</ele><time>2026-04-04T14:06:11.065Z</time></trkpt><trkpt lat="46.2720226" lon="13.3165772"><ele>550.5</ele><time>2026-04-04T14:06:12.064Z</time></trkpt><trkpt lat="46.2720319" lon="13.316769"><ele>549.75</ele><time>2026-04-04T14:06:13.064Z</time></trkpt><trkpt lat="46.2720461" lon="13.3169519"><ele>549.0</ele><time>2026-04-04T14:06:14.066Z</time></trkpt><trkpt lat="46.2720571" lon="13.3171307"><ele>548.8</ele><time>2026-04-04T14:06:15.065Z</time></trkpt><trkpt lat="46.2720621" lon="13.3173019"><ele>548.5999999999999</ele><time>2026-04-04T14:06:16.064Z</time></trkpt><trkpt lat="46.2720652" lon="13.3174649"><ele>548.4</ele><time>2026-04-04T14:06:17.065Z</time></trkpt><trkpt lat="46.2720785" lon="13.3176141"><ele>548.1999999999999</ele><time>2026-04-04T14:06:18.065Z</time></trkpt><trkpt lat="46.2721137" lon="13.3177446"><ele>548.0</ele><time>2026-04-04T14:06:19.065Z</time></trkpt><trkpt lat="46.27217" lon="13.3178557"><ele>548.0</ele><time>2026-04-04T14:06:20.064Z</time></trkpt><trkpt lat="46.2722379" lon="13.3179556"><ele>548.0</ele><time>2026-04-04T14:06:21.064Z</time></trkpt><trkpt lat="46.2722903" lon="13.3180648"><ele>548.0</ele><time>2026-04-04T14:06:22.064Z</time></trkpt><trkpt lat="46.2723204" lon="13.3181733"><ele>548.0</ele><time>2026-04-04T14:06:23.065Z</time></trkpt><trkpt lat="46.272328" lon="13.3182828"><ele>548.0</ele><time>2026-04-04T14:06:24.066Z</time></trkpt><trkpt lat="46.272304" lon="13.3183801"><ele>548.0</ele><time>2026-04-04T14:06:25.066Z</time></trkpt><trkpt lat="46.2722282" lon="13.318476"><ele>548.0</ele><time>2026-04-04T14:06:27.065Z</time></trkpt><trkpt lat="46.2722017" lon="13.3185987"><ele>548.0</ele><time>2026-04-04T14:06:29.065Z</time></trkpt><trkpt lat="46.2722488" lon="13.3187545"><ele>548.0</ele><time>2026-04-04T14:06:31.065Z</time></trkpt><trkpt lat="46.2722947" lon="13.3188443"><ele>548.0</ele><time>2026-04-04T14:06:32.064Z</time></trkpt><trkpt lat="46.2723476" lon="13.3189447"><ele>548.0</ele><time>2026-04-04T14:06:33.065Z</time></trkpt><trkpt lat="46.2724092" lon="13.3190569"><ele>548.0</ele><time>2026-04-04T14:06:34.065Z</time></trkpt><trkpt lat="46.2724797" lon="13.319176"><ele>548.0</ele><time>2026-04-04T14:06:35.065Z</time></trkpt><trkpt lat="46.2725558" lon="13.3192926"><ele>548.0</ele><time>2026-04-04T14:06:36.065Z</time></trkpt><trkpt lat="46.2726341" lon="13.3194007"><ele>548.0</ele><time>2026-04-04T14:06:37.064Z</time></trkpt><trkpt lat="46.2727174" lon="13.3195108"><ele>548.0</ele><time>2026-04-04T14:06:38.066Z</time></trkpt><trkpt lat="46.2727988" lon="13.3196326"><ele>546.75</ele><time>2026-04-04T14:06:39.065Z</time></trkpt><trkpt lat="46.2728519" lon="13.3197747"><ele>545.5</ele><time>2026-04-04T14:06:40.065Z</time></trkpt><trkpt lat="46.2728677" lon="13.3199314"><ele>544.25</ele><time>2026-04-04T14:06:41.064Z</time></trkpt><trkpt lat="46.2728645" lon="13.320102"><ele>543.0</ele><time>2026-04-04T14:06:42.065Z</time></trkpt><trkpt lat="46.2728435" lon="13.3202851"><ele>543.0</ele><time>2026-04-04T14:06:43.065Z</time></trkpt><trkpt lat="46.2728175" lon="13.3204747"><ele>543.0</ele><time>2026-04-04T14:06:44.065Z</time></trkpt><trkpt lat="46.2727923" lon="13.3206668"><ele>543.0</ele><time>2026-04-04T14:06:45.066Z</time></trkpt><trkpt lat="46.2727693" lon="13.3208487"><ele>543.0</ele><time>2026-04-04T14:06:46.065Z</time></trkpt><trkpt lat="46.2727532" lon="13.3210193"><ele>542.8</ele><time>2026-04-04T14:06:47.066Z</time></trkpt><trkpt lat="46.2727564" lon="13.3211655"><ele>542.5999999999999</ele><time>2026-04-04T14:06:48.065Z</time></trkpt><trkpt lat="46.2727841" lon="13.321289"><ele>542.4000000000001</ele><time>2026-04-04T14:06:49.066Z</time></trkpt><trkpt lat="46.2728312" lon="13.3213972"><ele>542.2</ele><time>2026-04-04T14:06:50.065Z</time></trkpt><trkpt lat="46.2728979" lon="13.3214916"><ele>542.0</ele><time>2026-04-04T14:06:51.065Z</time></trkpt><trkpt lat="46.2729864" lon="13.3215684"><ele>540.2</ele><time>2026-04-04T14:06:52.065Z</time></trkpt><trkpt lat="46.2730895" lon="13.3216283"><ele>538.4000000000001</ele><time>2026-04-04T14:06:53.064Z</time></trkpt><trkpt lat="46.2731813" lon="13.3217026"><ele>536.5999999999999</ele><time>2026-04-04T14:06:54.064Z</time></trkpt><trkpt lat="46.2732638" lon="13.3218034"><ele>534.8</ele><time>2026-04-04T14:06:55.065Z</time></trkpt><trkpt lat="46.2733291" lon="13.3219375"><ele>533.0</ele><time>2026-04-04T14:06:56.065Z</time></trkpt><trkpt lat="46.273382" lon="13.3220946"><ele>537.25</ele><time>2026-04-04T14:06:57.064Z</time></trkpt><trkpt lat="46.2734294" lon="13.3222623"><ele>541.5</ele><time>2026-04-04T14:06:58.064Z</time></trkpt><trkpt lat="46.2734746" lon="13.3224268"><ele>545.75</ele><time>2026-04-04T14:06:59.064Z</time></trkpt><trkpt lat="46.2735089" lon="13.3225933"><ele>550.0</ele><time>2026-04-04T14:07:00.065Z</time></trkpt><trkpt lat="46.2735183" lon="13.3227544"><ele>550.0</ele><time>2026-04-04T14:07:01.065Z</time></trkpt><trkpt lat="46.2734963" lon="13.3229045"><ele>550.0</ele><time>2026-04-04T14:07:02.064Z</time></trkpt><trkpt lat="46.2734433" lon="13.3230393"><ele>550.0</ele><time>2026-04-04T14:07:03.064Z</time></trkpt><trkpt lat="46.2733714" lon="13.323145"><ele>550.0</ele><time>2026-04-04T14:07:04.065Z</time></trkpt><trkpt lat="46.273312" lon="13.3232464"><ele>550.0</ele><time>2026-04-04T14:07:05.064Z</time></trkpt><trkpt lat="46.2732746" lon="13.3233681"><ele>550.8</ele><time>2026-04-04T14:07:06.064Z</time></trkpt><trkpt lat="46.2732558" lon="13.3235096"><ele>551.6</ele><time>2026-04-04T14:07:07.064Z</time></trkpt><trkpt lat="46.273252" lon="13.323668"><ele>552.4</ele><time>2026-04-04T14:07:08.064Z</time></trkpt><trkpt lat="46.2732502" lon="13.3238345"><ele>553.2</ele><time>2026-04-04T14:07:09.066Z</time></trkpt><trkpt lat="46.2732524" lon="13.3240129"><ele>554.0</ele><time>2026-04-04T14:07:10.065Z</time></trkpt><trkpt lat="46.2732524" lon="13.3241936"><ele>554.0</ele><time>2026-04-04T14:07:11.064Z</time></trkpt><trkpt lat="46.2732536" lon="13.324368"><ele>554.0</ele><time>2026-04-04T14:07:12.065Z</time></trkpt><trkpt lat="46.273234" lon="13.3245411"><ele>554.0</ele><time>2026-04-04T14:07:13.064Z</time></trkpt><trkpt lat="46.2731867" lon="13.32471"><ele>554.0</ele><time>2026-04-04T14:07:14.065Z</time></trkpt><trkpt lat="46.273132" lon="13.3248767"><ele>555.25</ele><time>2026-04-04T14:07:15.064Z</time></trkpt><trkpt lat="46.2730799" lon="13.3250516"><ele>556.5</ele><time>2026-04-04T14:07:16.064Z</time></trkpt><trkpt lat="46.2730265" lon="13.3252284"><ele>557.75</ele><time>2026-04-04T14:07:17.064Z</time></trkpt><trkpt lat="46.272959" lon="13.3253871"><ele>559.0</ele><time>2026-04-04T14:07:18.064Z</time></trkpt><trkpt lat="46.2728793" lon="13.325499"><ele>562.75</ele><time>2026-04-04T14:07:19.064Z</time></trkpt><trkpt lat="46.2727871" lon="13.325605"><ele>566.5</ele><time>2026-04-04T14:07:20.065Z</time></trkpt><trkpt lat="46.2727028" lon="13.325707"><ele>570.25</ele><time>2026-04-04T14:07:21.064Z</time></trkpt><trkpt lat="46.2726247" lon="13.3258372"><ele>574.0</ele><time>2026-04-04T14:07:22.065Z</time></trkpt><trkpt lat="46.2725416" lon="13.3259615"><ele>574.0</ele><time>2026-04-04T14:07:23.065Z</time></trkpt><trkpt lat="46.2724616" lon="13.3260945"><ele>574.0</ele><time>2026-04-04T14:07:24.065Z</time></trkpt><trkpt lat="46.2723845" lon="13.3262396"><ele>574.0</ele><time>2026-04-04T14:07:25.065Z</time></trkpt><trkpt lat="46.2723092" lon="13.3263882"><ele>574.0</ele><time>2026-04-04T14:07:26.065Z</time></trkpt><trkpt lat="46.2722415" lon="13.3265359"><ele>571.75</ele><time>2026-04-04T14:07:27.064Z</time></trkpt><trkpt lat="46.2721775" lon="13.3266821"><ele>569.5</ele><time>2026-04-04T14:07:28.064Z</time></trkpt><trkpt lat="46.2721148" lon="13.326827"><ele>567.25</ele><time>2026-04-04T14:07:29.065Z</time></trkpt><trkpt lat="46.2720657" lon="13.3270011"><ele>565.0</ele><time>2026-04-04T14:07:30.065Z</time></trkpt><trkpt lat="46.2720189" lon="13.3271663"><ele>562.0</ele><time>2026-04-04T14:07:31.064Z</time></trkpt><trkpt lat="46.2719699" lon="13.3273372"><ele>559.0</ele><time>2026-04-04T14:07:32.064Z</time></trkpt><trkpt lat="46.2719194" lon="13.3275088"><ele>556.0</ele><time>2026-04-04T14:07:33.066Z</time></trkpt><trkpt lat="46.271868" lon="13.3276762"><ele>553.0</ele><time>2026-04-04T14:07:34.065Z</time></trkpt><trkpt lat="46.2718214" lon="13.3278416"><ele>553.0</ele><time>2026-04-04T14:07:35.065Z</time></trkpt><trkpt lat="46.2717808" lon="13.3280034"><ele>553.0</ele><time>2026-04-04T14:07:36.064Z</time></trkpt><trkpt lat="46.2717494" lon="13.3281694"><ele>553.0</ele><time>2026-04-04T14:07:37.064Z</time></trkpt><trkpt lat="46.2717308" lon="13.3283237"><ele>553.0</ele><time>2026-04-04T14:07:38.064Z</time></trkpt><trkpt lat="46.2717159" lon="13.3284723"><ele>552.0</ele><time>2026-04-04T14:07:39.064Z</time></trkpt><trkpt lat="46.271721" lon="13.3286207"><ele>551.0</ele><time>2026-04-04T14:07:40.064Z</time></trkpt><trkpt lat="46.2717493" lon="13.328774"><ele>550.0</ele><time>2026-04-04T14:07:41.065Z</time></trkpt><trkpt lat="46.2717864" lon="13.3289363"><ele>549.0</ele><time>2026-04-04T14:07:42.064Z</time></trkpt><trkpt lat="46.2718251" lon="13.3290991"><ele>546.8</ele><time>2026-04-04T14:07:43.064Z</time></trkpt><trkpt lat="46.2718605" lon="13.3292619"><ele>544.5999999999999</ele><time>2026-04-04T14:07:44.065Z</time></trkpt><trkpt lat="46.2718816" lon="13.3294141"><ele>542.4</ele><time>2026-04-04T14:07:45.064Z</time></trkpt><trkpt lat="46.2718891" lon="13.329566"><ele>540.1999999999999</ele><time>2026-04-04T14:07:46.066Z</time></trkpt><trkpt lat="46.271914" lon="13.3297164"><ele>538.0</ele><time>2026-04-04T14:07:47.064Z</time></trkpt><trkpt lat="46.2719618" lon="13.3298733"><ele>535.0</ele><time>2026-04-04T14:07:48.065Z</time></trkpt><trkpt lat="46.272016" lon="13.3300389"><ele>532.0</ele><time>2026-04-04T14:07:49.065Z</time></trkpt><trkpt lat="46.2720684" lon="13.330199"><ele>529.0</ele><time>2026-04-04T14:07:50.065Z</time></trkpt><trkpt lat="46.2721112" lon="13.3303419"><ele>526.0</ele><time>2026-04-04T14:07:51.064Z</time></trkpt><trkpt lat="46.2721497" lon="13.3304695"><ele>522.8</ele><time>2026-04-04T14:07:52.065Z</time></trkpt><trkpt lat="46.2722108" lon="13.3305796"><ele>519.6</ele><time>2026-04-04T14:07:53.064Z</time></trkpt><trkpt lat="46.272287" lon="13.3306711"><ele>516.4</ele><time>2026-04-04T14:07:54.065Z</time></trkpt><trkpt lat="46.2723776" lon="13.3307433"><ele>513.2</ele><time>2026-04-04T14:07:55.064Z</time></trkpt><trkpt lat="46.2724663" lon="13.330809"><ele>510.0</ele><time>2026-04-04T14:07:56.066Z</time></trkpt><trkpt lat="46.2725473" lon="13.3308901"><ele>515.0</ele><time>2026-04-04T14:07:57.066Z</time></trkpt><trkpt lat="46.2726083" lon="13.330992"><ele>520.0</ele><time>2026-04-04T14:07:58.064Z</time></trkpt><trkpt lat="46.2726487" lon="13.3311016"><ele>525.0</ele><time>2026-04-04T14:07:59.065Z</time></trkpt><trkpt lat="46.2726607" lon="13.3312239"><ele>530.0</ele><time>2026-04-04T14:08:00.065Z</time></trkpt><trkpt lat="46.2726413" lon="13.3313627"><ele>535.0</ele><time>2026-04-04T14:08:01.064Z</time></trkpt><trkpt lat="46.2726076" lon="13.3315185"><ele>535.0</ele><time>2026-04-04T14:08:02.064Z</time></trkpt><trkpt lat="46.2725557" lon="13.3316856"><ele>535.0</ele><time>2026-04-04T14:08:03.064Z</time></trkpt><trkpt lat="46.2725075" lon="13.331876"><ele>535.0</ele><time>2026-04-04T14:08:04.066Z</time></trkpt><trkpt lat="46.2724694" lon="13.3320517"><ele>535.0</ele><time>2026-04-04T14:08:05.064Z</time></trkpt><trkpt lat="46.272437" lon="13.3321998"><ele>534.1666666666667</ele><time>2026-04-04T14:08:06.065Z</time></trkpt><trkpt lat="46.272412" lon="13.3323324"><ele>533.3333333333334</ele><time>2026-04-04T14:08:07.064Z</time></trkpt><trkpt lat="46.2723911" lon="13.3324428"><ele>532.5</ele><time>2026-04-04T14:08:08.066Z</time></trkpt><trkpt lat="46.2723839" lon="13.3325477"><ele>531.6666666666666</ele><time>2026-04-04T14:08:09.065Z</time></trkpt><trkpt lat="46.2723997" lon="13.332643"><ele>530.8333333333333</ele><time>2026-04-04T14:08:10.065Z</time></trkpt><trkpt lat="46.2724427" lon="13.3327274"><ele>530.0</ele><time>2026-04-04T14:08:11.064Z</time></trkpt><trkpt lat="46.27251" lon="13.3328104"><ele>530.0</ele><time>2026-04-04T14:08:12.064Z</time></trkpt><trkpt lat="46.2725932" lon="13.3328842"><ele>530.0</ele><time>2026-04-04T14:08:13.064Z</time></trkpt><trkpt lat="46.2726912" lon="13.3329505"><ele>530.0</ele><time>2026-04-04T14:08:14.064Z</time></trkpt><trkpt lat="46.2727986" lon="13.3330052"><ele>530.0</ele><time>2026-04-04T14:08:15.065Z</time></trkpt><trkpt lat="46.2729121" lon="13.3330372"><ele>530.0</ele><time>2026-04-04T14:08:16.065Z</time></trkpt><trkpt lat="46.2730206" lon="13.3330541"><ele>528.8</ele><time>2026-04-04T14:08:17.064Z</time></trkpt><trkpt lat="46.2731257" lon="13.3330548"><ele>527.6</ele><time>2026-04-04T14:08:18.065Z</time></trkpt><trkpt lat="46.2732231" lon="13.3330432"><ele>526.4</ele><time>2026-04-04T14:08:19.066Z</time></trkpt><trkpt lat="46.2733052" lon="13.3330338"><ele>525.2</ele><time>2026-04-04T14:08:20.064Z</time></trkpt><trkpt lat="46.2733762" lon="13.333049"><ele>524.0</ele><time>2026-04-04T14:08:21.064Z</time></trkpt><trkpt lat="46.2734674" lon="13.3331573"><ele>524.0</ele><time>2026-04-04T14:08:23.064Z</time></trkpt><trkpt lat="46.2735078" lon="13.3333398"><ele>524.0</ele><time>2026-04-04T14:08:25.065Z</time></trkpt><trkpt lat="46.2735017" lon="13.3334513"><ele>524.0</ele><time>2026-04-04T14:08:26.065Z</time></trkpt><trkpt lat="46.2734779" lon="13.3335641"><ele>524.0</ele><time>2026-04-04T14:08:27.065Z</time></trkpt><trkpt lat="46.2734493" lon="13.3336714"><ele>524.0</ele><time>2026-04-04T14:08:28.065Z</time></trkpt><trkpt lat="46.2734299" lon="13.3337805"><ele>524.0</ele><time>2026-04-04T14:08:29.064Z</time></trkpt><trkpt lat="46.2734234" lon="13.3339045"><ele>522.6</ele><time>2026-04-04T14:08:30.065Z</time></trkpt><trkpt lat="46.2734321" lon="13.3340452"><ele>521.2</ele><time>2026-04-04T14:08:31.065Z</time></trkpt><trkpt lat="46.2734421" lon="13.3341996"><ele>519.8000000000001</ele><time>2026-04-04T14:08:32.066Z</time></trkpt><trkpt lat="46.2734417" lon="13.3343659"><ele>518.4</ele><time>2026-04-04T14:08:33.065Z</time></trkpt><trkpt lat="46.273444" lon="13.3345242"><ele>517.0</ele><time>2026-04-04T14:08:34.065Z</time></trkpt><trkpt lat="46.2734414" lon="13.3346641"><ele>515.2</ele><time>2026-04-04T14:08:35.064Z</time></trkpt><trkpt lat="46.273455" lon="13.3347928"><ele>513.4000000000001</ele><time>2026-04-04T14:08:36.065Z</time></trkpt><trkpt lat="46.2734879" lon="13.3349097"><ele>511.59999999999997</ele><time>2026-04-04T14:08:37.065Z</time></trkpt><trkpt lat="46.273545" lon="13.3350228"><ele>509.79999999999995</ele><time>2026-04-04T14:08:38.065Z</time></trkpt><trkpt lat="46.2736234" lon="13.3351149"><ele>508.0</ele><time>2026-04-04T14:08:39.064Z</time></trkpt><trkpt lat="46.2737184" lon="13.3351871"><ele>508.0</ele><time>2026-04-04T14:08:40.066Z</time></trkpt><trkpt lat="46.2738192" lon="13.3352614"><ele>507.99999999999994</ele><time>2026-04-04T14:08:41.065Z</time></trkpt><trkpt lat="46.2739166" lon="13.3353413"><ele>507.99999999999994</ele><time>2026-04-04T14:08:42.065Z</time></trkpt><trkpt lat="46.2740087" lon="13.3354173"><ele>508.0</ele><time>2026-04-04T14:08:43.065Z</time></trkpt><trkpt lat="46.27408" lon="13.3354823"><ele>508.0</ele><time>2026-04-04T14:08:44.065Z</time></trkpt><trkpt lat="46.274159" lon="13.3355227"><ele>509.2</ele><time>2026-04-04T14:08:45.064Z</time></trkpt><trkpt lat="46.2742347" lon="13.3355453"><ele>510.4</ele><time>2026-04-04T14:08:46.064Z</time></trkpt><trkpt lat="46.2743222" lon="13.3355676"><ele>511.59999999999997</ele><time>2026-04-04T14:08:47.064Z</time></trkpt><trkpt lat="46.2744154" lon="13.3355512"><ele>512.8</ele><time>2026-04-04T14:08:48.065Z</time></trkpt><trkpt lat="46.2745077" lon="13.3355277"><ele>514.0</ele><time>2026-04-04T14:08:49.064Z</time></trkpt><trkpt lat="46.2745981" lon="13.3354813"><ele>518.4</ele><time>2026-04-04T14:08:50.064Z</time></trkpt><trkpt lat="46.2746845" lon="13.335434"><ele>522.8</ele><time>2026-04-04T14:08:51.065Z</time></trkpt><trkpt lat="46.2747583" lon="13.3353955"><ele>527.2</ele><time>2026-04-04T14:08:52.065Z</time></trkpt><trkpt lat="46.274822" lon="13.3353597"><ele>531.6</ele><time>2026-04-04T14:08:53.064Z</time></trkpt><trkpt lat="46.2749329" lon="13.3353703"><ele>536.0</ele><time>2026-04-04T14:08:55.065Z</time></trkpt><trkpt lat="46.2749783" lon="13.3354999"><ele>535.8333333333333</ele><time>2026-04-04T14:08:57.064Z</time></trkpt><trkpt lat="46.2749687" lon="13.3355929"><ele>535.6666666666666</ele><time>2026-04-04T14:08:58.064Z</time></trkpt><trkpt lat="46.2749373" lon="13.3356916"><ele>535.5</ele><time>2026-04-04T14:08:59.065Z</time></trkpt><trkpt lat="46.2748925" lon="13.3357991"><ele>535.3333333333334</ele><time>2026-04-04T14:09:00.065Z</time></trkpt><trkpt lat="46.2748499" lon="13.3359272"><ele>535.1666666666667</ele><time>2026-04-04T14:09:01.064Z</time></trkpt><trkpt lat="46.2748037" lon="13.3360542"><ele>535.0</ele><time>2026-04-04T14:09:02.065Z</time></trkpt><trkpt lat="46.2747463" lon="13.3361592"><ele>534.0</ele><time>2026-04-04T14:09:03.064Z</time></trkpt><trkpt lat="46.2746717" lon="13.3362346"><ele>533.0</ele><time>2026-04-04T14:09:04.064Z</time></trkpt><trkpt lat="46.2745855" lon="13.3362887"><ele>532.0</ele><time>2026-04-04T14:09:05.066Z</time></trkpt><trkpt lat="46.2744868" lon="13.3363301"><ele>531.0</ele><time>2026-04-04T14:09:06.066Z</time></trkpt><trkpt lat="46.274378" lon="13.3363861"><ele>530.0</ele><time>2026-04-04T14:09:07.065Z</time></trkpt><trkpt lat="46.2742547" lon="13.3364603"><ele>530.0</ele><time>2026-04-04T14:09:08.065Z</time></trkpt><trkpt lat="46.2741485" lon="13.3365463"><ele>530.0</ele><time>2026-04-04T14:09:09.065Z</time></trkpt><trkpt lat="46.2740622" lon="13.3366439"><ele>530.0</ele><time>2026-04-04T14:09:10.064Z</time></trkpt><trkpt lat="46.2739861" lon="13.3367435"><ele>530.0</ele><time>2026-04-04T14:09:11.064Z</time></trkpt><trkpt lat="46.2739034" lon="13.3368346"><ele>530.0</ele><time>2026-04-04T14:09:12.065Z</time></trkpt><trkpt lat="46.2738105" lon="13.3369073"><ele>525.5</ele><time>2026-04-04T14:09:13.065Z</time></trkpt><trkpt lat="46.2736949" lon="13.3369533"><ele>521.0</ele><time>2026-04-04T14:09:14.064Z</time></trkpt><trkpt lat="46.2735751" lon="13.3369958"><ele>516.5</ele><time>2026-04-04T14:09:15.065Z</time></trkpt><trkpt lat="46.2734572" lon="13.337037"><ele>512.0</ele><time>2026-04-04T14:09:16.065Z</time></trkpt><trkpt lat="46.2733414" lon="13.3370786"><ele>512.0</ele><time>2026-04-04T14:09:17.065Z</time></trkpt><trkpt lat="46.2732298" lon="13.3371175"><ele>512.0</ele><time>2026-04-04T14:09:18.064Z</time></trkpt><trkpt lat="46.2731256" lon="13.3371449"><ele>512.0</ele><time>2026-04-04T14:09:19.064Z</time></trkpt><trkpt lat="46.2730298" lon="13.3371528"><ele>512.0</ele><time>2026-04-04T14:09:20.066Z</time></trkpt><trkpt lat="46.2729446" lon="13.3371563"><ele>512.0</ele><time>2026-04-04T14:09:21.064Z</time></trkpt><trkpt lat="46.2728631" lon="13.3371693"><ele>512.3333333333333</ele><time>2026-04-04T14:09:22.064Z</time></trkpt><trkpt lat="46.2727879" lon="13.3371978"><ele>512.6666666666666</ele><time>2026-04-04T14:09:23.065Z</time></trkpt><trkpt lat="46.2727115" lon="13.3372436"><ele>513.0</ele><time>2026-04-04T14:09:24.065Z</time></trkpt><trkpt lat="46.2726437" lon="13.3373105"><ele>513.3333333333334</ele><time>2026-04-04T14:09:25.064Z</time></trkpt><trkpt lat="46.2725923" lon="13.3374096"><ele>513.6666666666667</ele><time>2026-04-04T14:09:26.065Z</time></trkpt><trkpt lat="46.2725526" lon="13.3375227"><ele>514.0</ele><time>2026-04-04T14:09:27.065Z</time></trkpt><trkpt lat="46.2725222" lon="13.337637"><ele>514.0</ele><time>2026-04-04T14:09:28.065Z</time></trkpt><trkpt lat="46.2724947" lon="13.337737"><ele>514.0</ele><time>2026-04-04T14:09:29.065Z</time></trkpt><trkpt lat="46.2724713" lon="13.3378323"><ele>514.0</ele><time>2026-04-04T14:09:30.065Z</time></trkpt><trkpt lat="46.2724369" lon="13.337972"><ele>514.0</ele><time>2026-04-04T14:09:32.065Z</time></trkpt><trkpt lat="46.2723659" lon="13.3380253"><ele>514.0</ele><time>2026-04-04T14:09:34.064Z</time></trkpt><trkpt lat="46.2722987" lon="13.3379706"><ele>514.0</ele><time>2026-04-04T14:09:36.065Z</time></trkpt><trkpt lat="46.2722813" lon="13.3378103"><ele>512.4285714285714</ele><time>2026-04-04T14:09:38.064Z</time></trkpt><trkpt lat="46.2722709" lon="13.3377075"><ele>510.8571428571429</ele><time>2026-04-04T14:09:39.065Z</time></trkpt><trkpt lat="46.2722631" lon="13.3375988"><ele>509.28571428571433</ele><time>2026-04-04T14:09:40.064Z</time></trkpt><trkpt lat="46.2722574" lon="13.3374882"><ele>507.7142857142857</ele><time>2026-04-04T14:09:41.065Z</time></trkpt><trkpt lat="46.2722555" lon="13.3373825"><ele>506.1428571428572</ele><time>2026-04-04T14:09:42.065Z</time></trkpt><trkpt lat="46.2722587" lon="13.3372801"><ele>504.5714285714286</ele><time>2026-04-04T14:09:43.064Z</time></trkpt><trkpt lat="46.2722737" lon="13.3371802"><ele>503.0</ele><time>2026-04-04T14:09:44.065Z</time></trkpt><trkpt lat="46.2723221" lon="13.3370269"><ele>502.99999999999994</ele><time>2026-04-04T14:09:46.066Z</time></trkpt><trkpt lat="46.2723301" lon="13.3368932"><ele>503.0</ele><time>2026-04-04T14:09:48.064Z</time></trkpt><trkpt lat="46.2722548" lon="13.3368872"><ele>503.0</ele><time>2026-04-04T14:09:50.064Z</time></trkpt><trkpt lat="46.2721803" lon="13.3370231"><ele>503.0</ele><time>2026-04-04T14:09:52.064Z</time></trkpt><trkpt lat="46.2721467" lon="13.3371306"><ele>502.99999999999994</ele><time>2026-04-04T14:09:53.066Z</time></trkpt><trkpt lat="46.272119" lon="13.3372368"><ele>503.0</ele><time>2026-04-04T14:09:54.065Z</time></trkpt><trkpt lat="46.2720934" lon="13.3373256"><ele>501.2</ele><time>2026-04-04T14:09:55.065Z</time></trkpt><trkpt lat="46.2720462" lon="13.3374619"><ele>499.4</ele><time>2026-04-04T14:09:57.064Z</time></trkpt><trkpt lat="46.2719702" lon="13.3374872"><ele>497.59999999999997</ele><time>2026-04-04T14:09:59.065Z</time></trkpt><trkpt lat="46.2719454" lon="13.3373844"><ele>495.79999999999995</ele><time>2026-04-04T14:10:01.064Z</time></trkpt><trkpt lat="46.2719859" lon="13.3371916"><ele>494.0</ele><time>2026-04-04T14:10:03.065Z</time></trkpt><trkpt lat="46.2720089" lon="13.3370606"><ele>493.2</ele><time>2026-04-04T14:10:04.064Z</time></trkpt><trkpt lat="46.2720316" lon="13.3369201"><ele>492.4</ele><time>2026-04-04T14:10:05.065Z</time></trkpt><trkpt lat="46.2720467" lon="13.3367911"><ele>491.6</ele><time>2026-04-04T14:10:06.064Z</time></trkpt><trkpt lat="46.2720627" lon="13.3366674"><ele>490.8</ele><time>2026-04-04T14:10:07.065Z</time></trkpt><trkpt lat="46.2720746" lon="13.3365622"><ele>490.0</ele><time>2026-04-04T14:10:08.064Z</time></trkpt><trkpt lat="46.2720808" lon="13.3363925"><ele>490.00000000000006</ele><time>2026-04-04T14:10:10.066Z</time></trkpt><trkpt lat="46.2720206" lon="13.336317"><ele>490.0</ele><time>2026-04-04T14:10:12.065Z</time></trkpt><trkpt lat="46.2719554" lon="13.3364043"><ele>490.0</ele><time>2026-04-04T14:10:14.064Z</time></trkpt><trkpt lat="46.2719444" lon="13.3365055"><ele>490.0</ele><time>2026-04-04T14:10:15.065Z</time></trkpt><trkpt lat="46.2719331" lon="13.3366326"><ele>490.00000000000006</ele><time>2026-04-04T14:10:16.065Z</time></trkpt><trkpt lat="46.2719091" lon="13.3367738"><ele>490.0</ele><time>2026-04-04T14:10:17.066Z</time></trkpt><trkpt lat="46.2718612" lon="13.3368985"><ele>490.0</ele><time>2026-04-04T14:10:18.065Z</time></trkpt><trkpt lat="46.2717927" lon="13.3370109"><ele>490.0</ele><time>2026-04-04T14:10:19.065Z</time></trkpt><trkpt lat="46.2717064" lon="13.3371105"><ele>490.0</ele><time>2026-04-04T14:10:20.065Z</time></trkpt><trkpt lat="46.2716079" lon="13.3372026"><ele>490.0</ele><time>2026-04-04T14:10:21.064Z</time></trkpt><trkpt lat="46.2715124" lon="13.337295"><ele>490.0</ele><time>2026-04-04T14:10:22.064Z</time></trkpt><trkpt lat="46.2714205" lon="13.3373865"><ele>485.4</ele><time>2026-04-04T14:10:23.066Z</time></trkpt><trkpt lat="46.2713353" lon="13.3374781"><ele>480.8</ele><time>2026-04-04T14:10:24.065Z</time></trkpt><trkpt lat="46.2712702" lon="13.3375692"><ele>476.20000000000005</ele><time>2026-04-04T14:10:25.064Z</time></trkpt><trkpt lat="46.2712229" lon="13.3376736"><ele>471.6</ele><time>2026-04-04T14:10:26.064Z</time></trkpt><trkpt lat="46.2711959" lon="13.3377965"><ele>467.0</ele><time>2026-04-04T14:10:27.065Z</time></trkpt><trkpt lat="46.2711828" lon="13.3379218"><ele>466.99999999999994</ele><time>2026-04-04T14:10:28.065Z</time></trkpt><trkpt lat="46.2711814" lon="13.3380508"><ele>467.0</ele><time>2026-04-04T14:10:29.065Z</time></trkpt><trkpt lat="46.2711817" lon="13.3381634"><ele>467.0</ele><time>2026-04-04T14:10:30.064Z</time></trkpt><trkpt lat="46.2711823" lon="13.338256"><ele>467.0</ele><time>2026-04-04T14:10:31.065Z</time></trkpt><trkpt lat="46.2711323" lon="13.3383624"><ele>466.99999999999994</ele><time>2026-04-04T14:10:33.064Z</time></trkpt><trkpt lat="46.2710595" lon="13.3383199"><ele>467.0</ele><time>2026-04-04T14:10:35.066Z</time></trkpt><trkpt lat="46.2710243" lon="13.3381291"><ele>467.0</ele><time>2026-04-04T14:10:37.064Z</time></trkpt><trkpt lat="46.2710022" lon="13.3379946"><ele>467.00000000000006</ele><time>2026-04-04T14:10:38.064Z</time></trkpt><trkpt lat="46.2709768" lon="13.3378503"><ele>467.00000000000006</ele><time>2026-04-04T14:10:39.065Z</time></trkpt><trkpt lat="46.2709508" lon="13.3377058"><ele>467.0</ele><time>2026-04-04T14:10:40.066Z</time></trkpt><trkpt lat="46.2709287" lon="13.3375634"><ele>467.0</ele><time>2026-04-04T14:10:41.065Z</time></trkpt><trkpt lat="46.2709208" lon="13.3374213"><ele>467.0</ele><time>2026-04-04T14:10:42.066Z</time></trkpt><trkpt lat="46.2709357" lon="13.337277"><ele>467.0</ele><time>2026-04-04T14:10:43.065Z</time></trkpt><trkpt lat="46.2709751" lon="13.337128"><ele>467.0</ele><time>2026-04-04T14:10:44.065Z</time></trkpt><trkpt lat="46.2710052" lon="13.3369683"><ele>467.0</ele><time>2026-04-04T14:10:45.064Z</time></trkpt><trkpt lat="46.2710062" lon="13.3367881"><ele>466.66666666666663</ele><time>2026-04-04T14:10:46.066Z</time></trkpt><trkpt lat="46.2710025" lon="13.3366159"><ele>466.3333333333333</ele><time>2026-04-04T14:10:47.065Z</time></trkpt><trkpt lat="46.2709961" lon="13.3364701"><ele>466.0</ele><time>2026-04-04T14:10:48.065Z</time></trkpt><trkpt lat="46.2710041" lon="13.3363453"><ele>465.66666666666663</ele><time>2026-04-04T14:10:49.065Z</time></trkpt><trkpt lat="46.2710204" lon="13.3362472"><ele>465.3333333333333</ele><time>2026-04-04T14:10:50.065Z</time></trkpt><trkpt lat="46.2710237" lon="13.3361525"><ele>465.0</ele><time>2026-04-04T14:10:51.064Z</time></trkpt><trkpt lat="46.2709478" lon="13.3360624"><ele>465.0</ele><time>2026-04-04T14:10:53.064Z</time></trkpt><trkpt lat="46.2708533" lon="13.336177"><ele>465.0</ele><time>2026-04-04T14:10:55.064Z</time></trkpt><trkpt lat="46.2708055" lon="13.3362783"><ele>465.0</ele><time>2026-04-04T14:10:56.065Z</time></trkpt><trkpt lat="46.2707622" lon="13.3364028"><ele>465.0</ele><time>2026-04-04T14:10:57.065Z</time></trkpt><trkpt lat="46.2707231" lon="13.3365389"><ele>465.0</ele><time>2026-04-04T14:10:58.066Z</time></trkpt><trkpt lat="46.2706871" lon="13.3366815"><ele>465.0</ele><time>2026-04-04T14:10:59.065Z</time></trkpt><trkpt lat="46.2706535" lon="13.3368062"><ele>465.0</ele><time>2026-04-04T14:11:00.065Z</time></trkpt><trkpt lat="46.2706239" lon="13.3369146"><ele>465.0</ele><time>2026-04-04T14:11:01.064Z</time></trkpt><trkpt lat="46.2706102" lon="13.3370163"><ele>465.0</ele><time>2026-04-04T14:11:02.064Z</time></trkpt><trkpt lat="46.2706192" lon="13.3371735"><ele>465.0</ele><time>2026-04-04T14:11:04.066Z</time></trkpt><trkpt lat="46.2705718" lon="13.3372564"><ele>465.0</ele><time>2026-04-04T14:11:06.065Z</time></trkpt><trkpt lat="46.2704985" lon="13.3371804"><ele>462.2</ele><time>2026-04-04T14:11:08.065Z</time></trkpt><trkpt lat="46.2704661" lon="13.3370999"><ele>459.4</ele><time>2026-04-04T14:11:09.065Z</time></trkpt><trkpt lat="46.2704436" lon="13.3369822"><ele>456.6</ele><time>2026-04-04T14:11:10.064Z</time></trkpt><trkpt lat="46.2704389" lon="13.3368426"><ele>453.8</ele><time>2026-04-04T14:11:11.064Z</time></trkpt><trkpt lat="46.2704557" lon="13.3366909"><ele>451.0</ele><time>2026-04-04T14:11:12.065Z</time></trkpt><trkpt lat="46.2704948" lon="13.336525"><ele>452.25</ele><time>2026-04-04T14:11:13.065Z</time></trkpt><trkpt lat="46.2705384" lon="13.3363438"><ele>453.5</ele><time>2026-04-04T14:11:14.065Z</time></trkpt><trkpt lat="46.2705846" lon="13.3361594"><ele>454.75</ele><time>2026-04-04T14:11:15.065Z</time></trkpt><trkpt lat="46.2706281" lon="13.335976"><ele>456.0</ele><time>2026-04-04T14:11:16.064Z</time></trkpt><trkpt lat="46.2706666" lon="13.3357966"><ele>456.0</ele><time>2026-04-04T14:11:17.064Z</time></trkpt><trkpt lat="46.2706895" lon="13.3356349"><ele>456.0</ele><time>2026-04-04T14:11:18.064Z</time></trkpt><trkpt lat="46.2707157" lon="13.3354993"><ele>456.0</ele><time>2026-04-04T14:11:19.064Z</time></trkpt><trkpt lat="46.2707555" lon="13.3353877"><ele>456.0</ele><time>2026-04-04T14:11:20.066Z</time></trkpt><trkpt lat="46.2708054" lon="13.3353049"><ele>456.0</ele><time>2026-04-04T14:11:21.065Z</time></trkpt><trkpt lat="46.2708695" lon="13.335239"><ele>453.4</ele><time>2026-04-04T14:11:22.065Z</time></trkpt><trkpt lat="46.2709426" lon="13.3351924"><ele>450.8</ele><time>2026-04-04T14:11:23.065Z</time></trkpt><trkpt lat="46.2710263" lon="13.335177"><ele>448.19999999999993</ele><time>2026-04-04T14:11:24.065Z</time></trkpt><trkpt lat="46.2710996" lon="13.3351675"><ele>445.59999999999997</ele><time>2026-04-04T14:11:25.065Z</time></trkpt><trkpt lat="46.2711898" lon="13.3350678"><ele>443.0</ele><time>2026-04-04T14:11:27.064Z</time></trkpt><trkpt lat="46.2711557" lon="13.3349299"><ele>442.99999999999994</ele><time>2026-04-04T14:11:29.065Z</time></trkpt><trkpt lat="46.2711116" lon="13.3348513"><ele>443.0</ele><time>2026-04-04T14:11:30.065Z</time></trkpt><trkpt lat="46.2710581" lon="13.3347672"><ele>443.0</ele><time>2026-04-04T14:11:31.065Z</time></trkpt><trkpt lat="46.2709855" lon="13.3346866"><ele>443.0</ele><time>2026-04-04T14:11:32.066Z</time></trkpt><trkpt lat="46.2709034" lon="13.3346073"><ele>442.99999999999994</ele><time>2026-04-04T14:11:33.065Z</time></trkpt><trkpt lat="46.2708134" lon="13.3345319"><ele>443.0</ele><time>2026-04-04T14:11:34.065Z</time></trkpt><trkpt lat="46.2707214" lon="13.3344559"><ele>442.3333333333333</ele><time>2026-04-04T14:11:35.064Z</time></trkpt><trkpt lat="46.270638" lon="13.334381"><ele>441.66666666666663</ele><time>2026-04-04T14:11:36.065Z</time></trkpt><trkpt lat="46.2705667" lon="13.3343056"><ele>441.0</ele><time>2026-04-04T14:11:37.065Z</time></trkpt><trkpt lat="46.2705128" lon="13.3342243"><ele>440.33333333333337</ele><time>2026-04-04T14:11:38.064Z</time></trkpt><trkpt lat="46.2704824" lon="13.33412"><ele>439.6666666666667</ele><time>2026-04-04T14:11:39.065Z</time></trkpt><trkpt lat="46.2704837" lon="13.334001"><ele>439.0</ele><time>2026-04-04T14:11:40.065Z</time></trkpt><trkpt lat="46.2704934" lon="13.3338554"><ele>438.0</ele><time>2026-04-04T14:11:41.065Z</time></trkpt><trkpt lat="46.2704947" lon="13.3336828"><ele>437.0</ele><time>2026-04-04T14:11:42.066Z</time></trkpt><trkpt lat="46.2704981" lon="13.3334955"><ele>436.0</ele><time>2026-04-04T14:11:43.064Z</time></trkpt><trkpt lat="46.2705135" lon="13.333305"><ele>435.0</ele><time>2026-04-04T14:11:44.064Z</time></trkpt><trkpt lat="46.2705316" lon="13.333109"><ele>432.75</ele><time>2026-04-04T14:11:45.065Z</time></trkpt><trkpt lat="46.270541" lon="13.3329061"><ele>430.5</ele><time>2026-04-04T14:11:46.064Z</time></trkpt><trkpt lat="46.2705313" lon="13.3326997"><ele>428.25</ele><time>2026-04-04T14:11:47.064Z</time></trkpt><trkpt lat="46.2705019" lon="13.3324995"><ele>426.0</ele><time>2026-04-04T14:11:48.065Z</time></trkpt><trkpt lat="46.2704652" lon="13.3323001"><ele>422.66666666666663</ele><time>2026-04-04T14:11:49.065Z</time></trkpt><trkpt lat="46.2704172" lon="13.3320952"><ele>419.3333333333333</ele><time>2026-04-04T14:11:50.064Z</time></trkpt><trkpt lat="46.2703604" lon="13.3318901"><ele>416.0</ele><time>2026-04-04T14:11:51.064Z</time></trkpt><trkpt lat="46.2702969" lon="13.3316817"><ele>416.0</ele><time>2026-04-04T14:11:52.065Z</time></trkpt><trkpt lat="46.2702334" lon="13.331478"><ele>416.0</ele><time>2026-04-04T14:11:53.064Z</time></trkpt><trkpt lat="46.2701653" lon="13.3312772"><ele>416.0</ele><time>2026-04-04T14:11:54.064Z</time></trkpt><trkpt lat="46.270099" lon="13.3310972"><ele>416.25</ele><time>2026-04-04T14:11:55.065Z</time></trkpt><trkpt lat="46.2700412" lon="13.3309316"><ele>416.5</ele><time>2026-04-04T14:11:56.064Z</time></trkpt><trkpt lat="46.2699948" lon="13.3307675"><ele>416.75</ele><time>2026-04-04T14:11:57.064Z</time></trkpt><trkpt lat="46.269943" lon="13.3306154"><ele>417.0</ele><time>2026-04-04T14:11:58.065Z</time></trkpt><trkpt lat="46.2698759" lon="13.3304821"><ele>415.5</ele><time>2026-04-04T14:11:59.066Z</time></trkpt><trkpt lat="46.2697905" lon="13.330377"><ele>414.0</ele><time>2026-04-04T14:12:00.066Z</time></trkpt><trkpt lat="46.269693" lon="13.3303065"><ele>412.5</ele><time>2026-04-04T14:12:01.065Z</time></trkpt><trkpt lat="46.2695828" lon="13.3302745"><ele>411.0</ele><time>2026-04-04T14:12:02.065Z</time></trkpt><trkpt lat="46.2694585" lon="13.3302688"><ele>411.0</ele><time>2026-04-04T14:12:03.064Z</time></trkpt><trkpt lat="46.269323" lon="13.3302713"><ele>411.0</ele><time>2026-04-04T14:12:04.064Z</time></trkpt><trkpt lat="46.2691711" lon="13.330264"><ele>411.0</ele><time>2026-04-04T14:12:05.065Z</time></trkpt><trkpt lat="46.269007" lon="13.3302441"><ele>408.33333333333337</ele><time>2026-04-04T14:12:06.064Z</time></trkpt><trkpt lat="46.2688315" lon="13.3302142"><ele>405.6666666666667</ele><time>2026-04-04T14:12:07.065Z</time></trkpt><trkpt lat="46.2686446" lon="13.3301857"><ele>403.0</ele><time>2026-04-04T14:12:08.066Z</time></trkpt><trkpt lat="46.2684547" lon="13.3301579"><ele>403.0</ele><time>2026-04-04T14:12:09.065Z</time></trkpt><trkpt lat="46.2682744" lon="13.3301284"><ele>403.0</ele><time>2026-04-04T14:12:10.064Z</time></trkpt><trkpt lat="46.2681059" lon="13.3300975"><ele>403.0</ele><time>2026-04-04T14:12:11.064Z</time></trkpt><trkpt lat="46.2679512" lon="13.3300392"><ele>401.75</ele><time>2026-04-04T14:12:12.065Z</time></trkpt><trkpt lat="46.2678123" lon="13.3299482"><ele>400.5</ele><time>2026-04-04T14:12:13.064Z</time></trkpt><trkpt lat="46.2676868" lon="13.3298361"><ele>399.25</ele><time>2026-04-04T14:12:14.064Z</time></trkpt><trkpt lat="46.2675912" lon="13.3297349"><ele>398.0</ele><time>2026-04-04T14:12:15.064Z</time></trkpt><trkpt lat="46.2675168" lon="13.3296515"><ele>397.16666666666663</ele><time>2026-04-04T14:12:16.064Z</time></trkpt><trkpt lat="46.2674567" lon="13.3295725"><ele>396.3333333333333</ele><time>2026-04-04T14:12:17.066Z</time></trkpt><trkpt lat="46.2674051" lon="13.3294988"><ele>395.5</ele><time>2026-04-04T14:12:18.064Z</time></trkpt><trkpt lat="46.2673477" lon="13.3293916"><ele>394.66666666666663</ele><time>2026-04-04T14:12:20.064Z</time></trkpt><trkpt lat="46.2673055" lon="13.3293107"><ele>393.8333333333333</ele><time>2026-04-04T14:12:23.065Z</time></trkpt><trkpt lat="46.267259" lon="13.3292324"><ele>393.0</ele><time>2026-04-04T14:12:31.064Z</time></trkpt><trkpt lat="46.2671888" lon="13.3292281"><ele>391.59999999999997</ele><time>2026-04-04T14:12:34.065Z</time></trkpt><trkpt lat="46.267121" lon="13.329288"><ele>390.2</ele><time>2026-04-04T14:12:35.065Z</time></trkpt><trkpt lat="46.267053" lon="13.3293574"><ele>388.8</ele><time>2026-04-04T14:12:36.064Z</time></trkpt><trkpt lat="46.2669743" lon="13.3294288"><ele>387.4</ele><time>2026-04-04T14:12:37.065Z</time></trkpt><trkpt lat="46.2668908" lon="13.3294999"><ele>386.0</ele><time>2026-04-04T14:12:38.065Z</time></trkpt><trkpt lat="46.2667884" lon="13.3295661"><ele>386.0</ele><time>2026-04-04T14:12:39.065Z</time></trkpt><trkpt lat="46.2666713" lon="13.3296253"><ele>386.0</ele><time>2026-04-04T14:12:40.065Z</time></trkpt><trkpt lat="46.2665404" lon="13.3296889"><ele>386.0</ele><time>2026-04-04T14:12:41.065Z</time></trkpt><trkpt lat="46.2663962" lon="13.3297496"><ele>386.0</ele><time>2026-04-04T14:12:42.064Z</time></trkpt><trkpt lat="46.2662507" lon="13.3298249"><ele>388.75</ele><time>2026-04-04T14:12:43.065Z</time></trkpt><trkpt lat="46.2661049" lon="13.3298921"><ele>391.5</ele><time>2026-04-04T14:12:44.064Z</time></trkpt><trkpt lat="46.265966" lon="13.3299262"><ele>394.25</ele><time>2026-04-04T14:12:45.064Z</time></trkpt><trkpt lat="46.2658312" lon="13.3299179"><ele>397.0</ele><time>2026-04-04T14:12:46.065Z</time></trkpt><trkpt lat="46.2657079" lon="13.3298691"><ele>394.5</ele><time>2026-04-04T14:12:47.065Z</time></trkpt><trkpt lat="46.2655917" lon="13.3297963"><ele>392.0</ele><time>2026-04-04T14:12:48.066Z</time></trkpt><trkpt lat="46.2654712" lon="13.3297085"><ele>389.5</ele><time>2026-04-04T14:12:49.064Z</time></trkpt><trkpt lat="46.2653539" lon="13.3296216"><ele>387.0</ele><time>2026-04-04T14:12:50.065Z</time></trkpt><trkpt lat="46.2652332" lon="13.3295287"><ele>387.0</ele><time>2026-04-04T14:12:51.065Z</time></trkpt><trkpt lat="46.2651092" lon="13.3294354"><ele>387.0</ele><time>2026-04-04T14:12:52.065Z</time></trkpt><trkpt lat="46.2649776" lon="13.3293402"><ele>387.0</ele><time>2026-04-04T14:12:53.064Z</time></trkpt><trkpt lat="46.2648349" lon="13.3292372"><ele>387.0</ele><time>2026-04-04T14:12:54.065Z</time></trkpt><trkpt lat="46.2646863" lon="13.329131"><ele>387.0</ele><time>2026-04-04T14:12:55.064Z</time></trkpt><trkpt lat="46.2645331" lon="13.3290175"><ele>387.0</ele><time>2026-04-04T14:12:56.065Z</time></trkpt><trkpt lat="46.2643754" lon="13.3288987"><ele>387.0</ele><time>2026-04-04T14:12:57.065Z</time></trkpt><trkpt lat="46.2642163" lon="13.3287786"><ele>385.3333333333333</ele><time>2026-04-04T14:12:58.066Z</time></trkpt><trkpt lat="46.264061" lon="13.3286659"><ele>383.66666666666663</ele><time>2026-04-04T14:12:59.064Z</time></trkpt><trkpt lat="46.2639182" lon="13.328563"><ele>382.0</ele><time>2026-04-04T14:13:00.066Z</time></trkpt><trkpt lat="46.263782" lon="13.328468"><ele>382.0</ele><time>2026-04-04T14:13:01.066Z</time></trkpt><trkpt lat="46.2636552" lon="13.3283752"><ele>382.0</ele><time>2026-04-04T14:13:02.065Z</time></trkpt><trkpt lat="46.2635282" lon="13.328272"><ele>382.0</ele><time>2026-04-04T14:13:03.064Z</time></trkpt><trkpt lat="46.2633923" lon="13.3281669"><ele>382.0</ele><time>2026-04-04T14:13:04.065Z</time></trkpt><trkpt lat="46.2632533" lon="13.3280699"><ele>381.3333333333333</ele><time>2026-04-04T14:13:05.064Z</time></trkpt><trkpt lat="46.2631033" lon="13.3279898"><ele>380.6666666666667</ele><time>2026-04-04T14:13:06.064Z</time></trkpt><trkpt lat="46.262942" lon="13.3279357"><ele>380.0</ele><time>2026-04-04T14:13:07.065Z</time></trkpt><trkpt lat="46.2627783" lon="13.3279089"><ele>380.0</ele><time>2026-04-04T14:13:08.064Z</time></trkpt><trkpt lat="46.2626194" lon="13.3278903"><ele>380.0</ele><time>2026-04-04T14:13:09.064Z</time></trkpt><trkpt lat="46.2624623" lon="13.3278745"><ele>380.0</ele><time>2026-04-04T14:13:10.064Z</time></trkpt><trkpt lat="46.2623093" lon="13.3278495"><ele>383.0</ele><time>2026-04-04T14:13:11.065Z</time></trkpt><trkpt lat="46.2621595" lon="13.3277942"><ele>386.0</ele><time>2026-04-04T14:13:12.065Z</time></trkpt><trkpt lat="46.2620154" lon="13.3277049"><ele>389.0</ele><time>2026-04-04T14:13:13.065Z</time></trkpt><trkpt lat="46.2618747" lon="13.3275929"><ele>389.0</ele><time>2026-04-04T14:13:14.065Z</time></trkpt><trkpt lat="46.2617354" lon="13.3274693"><ele>389.0</ele><time>2026-04-04T14:13:15.066Z</time></trkpt><trkpt lat="46.2615935" lon="13.3273432"><ele>389.0</ele><time>2026-04-04T14:13:16.064Z</time></trkpt><trkpt lat="46.2614527" lon="13.3272131"><ele>380.0</ele><time>2026-04-04T14:13:17.066Z</time></trkpt><trkpt lat="46.2613017" lon="13.3270906"><ele>371.0</ele><time>2026-04-04T14:13:18.065Z</time></trkpt><trkpt lat="46.261153" lon="13.3269728"><ele>362.0</ele><time>2026-04-04T14:13:19.065Z</time></trkpt><trkpt lat="46.2610134" lon="13.3268401"><ele>362.0</ele><time>2026-04-04T14:13:20.065Z</time></trkpt><trkpt lat="46.2608931" lon="13.326688"><ele>362.0</ele><time>2026-04-04T14:13:21.065Z</time></trkpt><trkpt lat="46.2607863" lon="13.3265244"><ele>362.0</ele><time>2026-04-04T14:13:22.065Z</time></trkpt><trkpt lat="46.260676" lon="13.3263707"><ele>362.75</ele><time>2026-04-04T14:13:23.066Z</time></trkpt><trkpt lat="46.2605633" lon="13.3262385"><ele>363.5</ele><time>2026-04-04T14:13:24.065Z</time></trkpt><trkpt lat="46.2604519" lon="13.326109"><ele>364.25</ele><time>2026-04-04T14:13:25.066Z</time></trkpt><trkpt lat="46.2603559" lon="13.3259784"><ele>365.0</ele><time>2026-04-04T14:13:26.065Z</time></trkpt><trkpt lat="46.2602892" lon="13.3258491"><ele>365.0</ele><time>2026-04-04T14:13:27.065Z</time></trkpt><trkpt lat="46.2602391" lon="13.3257028"><ele>365.0</ele><time>2026-04-04T14:13:28.064Z</time></trkpt><trkpt lat="46.2602067" lon="13.3255558"><ele>365.0</ele><time>2026-04-04T14:13:29.064Z</time></trkpt><trkpt lat="46.2601928" lon="13.3254088"><ele>365.0</ele><time>2026-04-04T14:13:30.064Z</time></trkpt><trkpt lat="46.2601896" lon="13.3252654"><ele>365.0</ele><time>2026-04-04T14:13:31.065Z</time></trkpt><trkpt lat="46.2601852" lon="13.3251205"><ele>363.8</ele><time>2026-04-04T14:13:32.065Z</time></trkpt><trkpt lat="46.2601565" lon="13.3249751"><ele>362.6</ele><time>2026-04-04T14:13:33.065Z</time></trkpt><trkpt lat="46.2601017" lon="13.3248417"><ele>361.4</ele><time>2026-04-04T14:13:34.065Z</time></trkpt><trkpt lat="46.2600346" lon="13.3247087"><ele>360.2</ele><time>2026-04-04T14:13:35.064Z</time></trkpt><trkpt lat="46.2599575" lon="13.3245687"><ele>359.0</ele><time>2026-04-04T14:13:36.064Z</time></trkpt><trkpt lat="46.2598796" lon="13.3244193"><ele>359.0</ele><time>2026-04-04T14:13:37.065Z</time></trkpt><trkpt lat="46.2598028" lon="13.3242598"><ele>359.0</ele><time>2026-04-04T14:13:38.065Z</time></trkpt><trkpt lat="46.2597209" lon="13.3240944"><ele>359.0</ele><time>2026-04-04T14:13:39.065Z</time></trkpt><trkpt lat="46.2596368" lon="13.3239232"><ele>359.0</ele><time>2026-04-04T14:13:40.064Z</time></trkpt><trkpt lat="46.2595509" lon="13.3237462"><ele>357.25</ele><time>2026-04-04T14:13:41.064Z</time></trkpt><trkpt lat="46.259469" lon="13.3235799"><ele>355.5</ele><time>2026-04-04T14:13:42.064Z</time></trkpt><trkpt lat="46.2593837" lon="13.3234197"><ele>353.75</ele><time>2026-04-04T14:13:43.065Z</time></trkpt><trkpt lat="46.2592855" lon="13.3232745"><ele>352.0</ele><time>2026-04-04T14:13:44.065Z</time></trkpt><trkpt lat="46.2591612" lon="13.3231729"><ele>352.0</ele><time>2026-04-04T14:13:45.065Z</time></trkpt><trkpt lat="46.2590265" lon="13.3230988"><ele>352.0</ele><time>2026-04-04T14:13:46.064Z</time></trkpt><trkpt lat="46.2588907" lon="13.3230471"><ele>352.0</ele><time>2026-04-04T14:13:47.064Z</time></trkpt><trkpt lat="46.2587574" lon="13.3230125"><ele>352.0</ele><time>2026-04-04T14:13:48.066Z</time></trkpt><trkpt lat="46.2586228" lon="13.3230044"><ele>351.75</ele><time>2026-04-04T14:13:49.064Z</time></trkpt><trkpt lat="46.2584863" lon="13.3230451"><ele>351.5</ele><time>2026-04-04T14:13:50.065Z</time></trkpt><trkpt lat="46.2583456" lon="13.323108"><ele>351.25</ele><time>2026-04-04T14:13:51.065Z</time></trkpt><trkpt lat="46.2581991" lon="13.3231719"><ele>351.0</ele><time>2026-04-04T14:13:52.064Z</time></trkpt><trkpt lat="46.2580432" lon="13.3232381"><ele>353.6666666666667</ele><time>2026-04-04T14:13:53.065Z</time></trkpt><trkpt lat="46.2578821" lon="13.3232984"><ele>356.33333333333337</ele><time>2026-04-04T14:13:54.064Z</time></trkpt><trkpt lat="46.257715" lon="13.3233484"><ele>359.0</ele><time>2026-04-04T14:13:55.066Z</time></trkpt><trkpt lat="46.2575439" lon="13.3233977"><ele>359.0</ele><time>2026-04-04T14:13:56.066Z</time></trkpt><trkpt lat="46.2573743" lon="13.3234484"><ele>359.0</ele><time>2026-04-04T14:13:57.064Z</time></trkpt><trkpt lat="46.2572086" lon="13.323495"><ele>359.0</ele><time>2026-04-04T14:13:58.065Z</time></trkpt><trkpt lat="46.2570493" lon="13.3235249"><ele>360.33333333333337</ele><time>2026-04-04T14:13:59.064Z</time></trkpt><trkpt lat="46.256897" lon="13.3235393"><ele>361.6666666666667</ele><time>2026-04-04T14:14:00.066Z</time></trkpt><trkpt lat="46.2567455" lon="13.3235316"><ele>363.0</ele><time>2026-04-04T14:14:01.066Z</time></trkpt><trkpt lat="46.2566018" lon="13.323494"><ele>363.0</ele><time>2026-04-04T14:14:02.066Z</time></trkpt><trkpt lat="46.2564612" lon="13.3234322"><ele>363.0</ele><time>2026-04-04T14:14:03.065Z</time></trkpt><trkpt lat="46.2563257" lon="13.3233591"><ele>363.0</ele><time>2026-04-04T14:14:04.064Z</time></trkpt><trkpt lat="46.2561933" lon="13.3232847"><ele>363.0</ele><time>2026-04-04T14:14:05.065Z</time></trkpt><trkpt lat="46.2560631" lon="13.3232126"><ele>363.5</ele><time>2026-04-04T14:14:06.064Z</time></trkpt><trkpt lat="46.2559366" lon="13.3231388"><ele>364.0</ele><time>2026-04-04T14:14:07.065Z</time></trkpt><trkpt lat="46.2558168" lon="13.3230576"><ele>364.5</ele><time>2026-04-04T14:14:08.064Z</time></trkpt><trkpt lat="46.2557033" lon="13.3229601"><ele>365.0</ele><time>2026-04-04T14:14:09.064Z</time></trkpt><trkpt lat="46.2555924" lon="13.3228476"><ele>365.75</ele><time>2026-04-04T14:14:10.065Z</time></trkpt><trkpt lat="46.2554901" lon="13.3227161"><ele>366.5</ele><time>2026-04-04T14:14:11.064Z</time></trkpt><trkpt lat="46.2554037" lon="13.3225664"><ele>367.25</ele><time>2026-04-04T14:14:12.065Z</time></trkpt><trkpt lat="46.2553298" lon="13.3224083"><ele>368.0</ele><time>2026-04-04T14:14:13.064Z</time></trkpt><trkpt lat="46.2552683" lon="13.3222632"><ele>367.33333333333337</ele><time>2026-04-04T14:14:14.064Z</time></trkpt><trkpt lat="46.2552186" lon="13.3221346"><ele>366.6666666666667</ele><time>2026-04-04T14:14:15.065Z</time></trkpt><trkpt lat="46.2551876" lon="13.3220198"><ele>366.0</ele><time>2026-04-04T14:14:16.066Z</time></trkpt><trkpt lat="46.255183" lon="13.3219161"><ele>365.3333333333333</ele><time>2026-04-04T14:14:17.064Z</time></trkpt><trkpt lat="46.2551943" lon="13.3218133"><ele>364.66666666666663</ele><time>2026-04-04T14:14:18.065Z</time></trkpt><trkpt lat="46.2552131" lon="13.3217175"><ele>364.0</ele><time>2026-04-04T14:14:19.066Z</time></trkpt><trkpt lat="46.2552257" lon="13.3216173"><ele>364.0</ele><time>2026-04-04T14:14:20.064Z</time></trkpt><trkpt lat="46.2552226" lon="13.3215215"><ele>364.0</ele><time>2026-04-04T14:14:21.065Z</time></trkpt><trkpt lat="46.2551979" lon="13.3214232"><ele>364.0</ele><time>2026-04-04T14:14:22.064Z</time></trkpt><trkpt lat="46.2551467" lon="13.3213236"><ele>364.0</ele><time>2026-04-04T14:14:23.065Z</time></trkpt><trkpt lat="46.2550715" lon="13.3212254"><ele>364.0</ele><time>2026-04-04T14:14:24.066Z</time></trkpt><trkpt lat="46.2549809" lon="13.3211332"><ele>364.0</ele><time>2026-04-04T14:14:25.066Z</time></trkpt><trkpt lat="46.2548811" lon="13.3210372"><ele>367.75</ele><time>2026-04-04T14:14:26.066Z</time></trkpt><trkpt lat="46.2547675" lon="13.3209257"><ele>371.5</ele><time>2026-04-04T14:14:27.065Z</time></trkpt><trkpt lat="46.2546493" lon="13.3208073"><ele>375.25</ele><time>2026-04-04T14:14:28.065Z</time></trkpt><trkpt lat="46.2545339" lon="13.3206996"><ele>379.0</ele><time>2026-04-04T14:14:29.064Z</time></trkpt><trkpt lat="46.254424" lon="13.3206233"><ele>374.75</ele><time>2026-04-04T14:14:30.065Z</time></trkpt><trkpt lat="46.2543092" lon="13.3205574"><ele>370.5</ele><time>2026-04-04T14:14:31.066Z</time></trkpt><trkpt lat="46.2541815" lon="13.3204942"><ele>366.25</ele><time>2026-04-04T14:14:32.064Z</time></trkpt><trkpt lat="46.2540458" lon="13.3204286"><ele>362.0</ele><time>2026-04-04T14:14:33.064Z</time></trkpt><trkpt lat="46.2539116" lon="13.3203565"><ele>361.33333333333337</ele><time>2026-04-04T14:14:34.064Z</time></trkpt><trkpt lat="46.2537718" lon="13.3202795"><ele>360.6666666666667</ele><time>2026-04-04T14:14:35.066Z</time></trkpt><trkpt lat="46.2536258" lon="13.3201839"><ele>360.0</ele><time>2026-04-04T14:14:36.064Z</time></trkpt><trkpt lat="46.25349" lon="13.3200469"><ele>360.0</ele><time>2026-04-04T14:14:37.066Z</time></trkpt><trkpt lat="46.2533566" lon="13.31989"><ele>360.0</ele><time>2026-04-04T14:14:38.065Z</time></trkpt><trkpt lat="46.2532154" lon="13.3197208"><ele>360.0</ele><time>2026-04-04T14:14:39.064Z</time></trkpt><trkpt lat="46.2530731" lon="13.3195522"><ele>355.6666666666667</ele><time>2026-04-04T14:14:40.066Z</time></trkpt><trkpt lat="46.2529384" lon="13.3193929"><ele>351.33333333333337</ele><time>2026-04-04T14:14:41.064Z</time></trkpt><trkpt lat="46.25281" lon="13.3192452"><ele>347.0</ele><time>2026-04-04T14:14:42.065Z</time></trkpt><trkpt lat="46.2526843" lon="13.3190993"><ele>347.0</ele><time>2026-04-04T14:14:43.065Z</time></trkpt><trkpt lat="46.2525607" lon="13.3189738"><ele>347.0</ele><time>2026-04-04T14:14:44.065Z</time></trkpt><trkpt lat="46.2524356" lon="13.3188689"><ele>347.0</ele><time>2026-04-04T14:14:45.065Z</time></trkpt><trkpt lat="46.2523166" lon="13.3187688"><ele>347.0</ele><time>2026-04-04T14:14:46.064Z</time></trkpt><trkpt lat="46.2522006" lon="13.3186705"><ele>345.75</ele><time>2026-04-04T14:14:47.066Z</time></trkpt><trkpt lat="46.2520832" lon="13.3185715"><ele>344.5</ele><time>2026-04-04T14:14:48.064Z</time></trkpt><trkpt lat="46.2519844" lon="13.3184856"><ele>343.25</ele><time>2026-04-04T14:14:49.064Z</time></trkpt><trkpt lat="46.2518915" lon="13.3184108"><ele>342.0</ele><time>2026-04-04T14:14:50.065Z</time></trkpt><trkpt lat="46.2517892" lon="13.3183217"><ele>342.0</ele><time>2026-04-04T14:14:51.064Z</time></trkpt><trkpt lat="46.2516756" lon="13.3182273"><ele>342.0</ele><time>2026-04-04T14:14:52.066Z</time></trkpt><trkpt lat="46.2515532" lon="13.3181298"><ele>342.0</ele><time>2026-04-04T14:14:53.064Z</time></trkpt><trkpt lat="46.2514269" lon="13.3180314"><ele>342.0</ele><time>2026-04-04T14:14:54.064Z</time></trkpt><trkpt lat="46.2512955" lon="13.3179287"><ele>341.3333333333333</ele><time>2026-04-04T14:14:55.066Z</time></trkpt><trkpt lat="46.2511641" lon="13.3178133"><ele>340.66666666666663</ele><time>2026-04-04T14:14:56.064Z</time></trkpt><trkpt lat="46.2510339" lon="13.3176864"><ele>340.0</ele><time>2026-04-04T14:14:57.064Z</time></trkpt><trkpt lat="46.2509084" lon="13.3175436"><ele>340.0</ele><time>2026-04-04T14:14:58.066Z</time></trkpt><trkpt lat="46.2507904" lon="13.3173881"><ele>340.0</ele><time>2026-04-04T14:14:59.065Z</time></trkpt><trkpt lat="46.2506769" lon="13.3172149"><ele>340.0</ele><time>2026-04-04T14:15:00.064Z</time></trkpt><trkpt lat="46.2505774" lon="13.3170284"><ele>348.66666666666663</ele><time>2026-04-04T14:15:01.065Z</time></trkpt><trkpt lat="46.2504999" lon="13.3168269"><ele>357.3333333333333</ele><time>2026-04-04T14:15:02.065Z</time></trkpt><trkpt lat="46.2504541" lon="13.3166031"><ele>366.0</ele><time>2026-04-04T14:15:03.064Z</time></trkpt><trkpt lat="46.2504419" lon="13.316369"><ele>366.0</ele><time>2026-04-04T14:15:04.066Z</time></trkpt><trkpt lat="46.2504382" lon="13.3161303"><ele>366.0</ele><time>2026-04-04T14:15:05.065Z</time></trkpt><trkpt lat="46.2504263" lon="13.3158869"><ele>366.0</ele><time>2026-04-04T14:15:06.065Z</time></trkpt><trkpt lat="46.2504134" lon="13.3156407"><ele>362.75</ele><time>2026-04-04T14:15:07.064Z</time></trkpt><trkpt lat="46.2503946" lon="13.3154074"><ele>359.5</ele><time>2026-04-04T14:15:08.066Z</time></trkpt><trkpt lat="46.2503699" lon="13.3151949"><ele>356.25</ele><time>2026-04-04T14:15:09.064Z</time></trkpt><trkpt lat="46.2503429" lon="13.3150029"><ele>353.0</ele><time>2026-04-04T14:15:10.064Z</time></trkpt><trkpt lat="46.2503016" lon="13.3148245"><ele>349.0</ele><time>2026-04-04T14:15:11.065Z</time></trkpt><trkpt lat="46.2502349" lon="13.3146502"><ele>345.0</ele><time>2026-04-04T14:15:12.066Z</time></trkpt><trkpt lat="46.2501456" lon="13.3144874"><ele>341.0</ele><time>2026-04-04T14:15:13.066Z</time></trkpt><trkpt lat="46.2500401" lon="13.3143282"><ele>337.0</ele><time>2026-04-04T14:15:14.064Z</time></trkpt><trkpt lat="46.2499251" lon="13.3141782"><ele>337.0</ele><time>2026-04-04T14:15:15.065Z</time></trkpt><trkpt lat="46.2497945" lon="13.3140356"><ele>337.0</ele><time>2026-04-04T14:15:16.065Z</time></trkpt><trkpt lat="46.2496504" lon="13.3139081"><ele>337.0</ele><time>2026-04-04T14:15:17.064Z</time></trkpt><trkpt lat="46.2494953" lon="13.3137961"><ele>337.66666666666663</ele><time>2026-04-04T14:15:18.065Z</time></trkpt><trkpt lat="46.2493358" lon="13.313691"><ele>338.3333333333333</ele><time>2026-04-04T14:15:19.065Z</time></trkpt><trkpt lat="46.2491814" lon="13.3135879"><ele>339.0</ele><time>2026-04-04T14:15:20.065Z</time></trkpt><trkpt lat="46.2490379" lon="13.313488"><ele>341.0</ele><time>2026-04-04T14:15:21.066Z</time></trkpt><trkpt lat="46.2489047" lon="13.3133797"><ele>343.0</ele><time>2026-04-04T14:15:22.065Z</time></trkpt><trkpt lat="46.2487843" lon="13.3132521"><ele>345.0</ele><time>2026-04-04T14:15:23.066Z</time></trkpt><trkpt lat="46.2486818" lon="13.313112"><ele>347.0</ele><time>2026-04-04T14:15:24.066Z</time></trkpt><trkpt lat="46.2485973" lon="13.3129637"><ele>347.0</ele><time>2026-04-04T14:15:25.065Z</time></trkpt><trkpt lat="46.2485285" lon="13.3128128"><ele>347.0</ele><time>2026-04-04T14:15:26.064Z</time></trkpt><trkpt lat="46.2484719" lon="13.3126584"><ele>347.0</ele><time>2026-04-04T14:15:27.065Z</time></trkpt><trkpt lat="46.2484453" lon="13.3125027"><ele>347.0</ele><time>2026-04-04T14:15:28.065Z</time></trkpt><trkpt lat="46.2484414" lon="13.3123389"><ele>345.5</ele><time>2026-04-04T14:15:29.066Z</time></trkpt><trkpt lat="46.2484334" lon="13.3121618"><ele>344.0</ele><time>2026-04-04T14:15:30.066Z</time></trkpt><trkpt lat="46.2484066" lon="13.3119687"><ele>342.5</ele><time>2026-04-04T14:15:31.064Z</time></trkpt><trkpt lat="46.2483757" lon="13.3117903"><ele>341.0</ele><time>2026-04-04T14:15:32.065Z</time></trkpt><trkpt lat="46.248348" lon="13.311632"><ele>341.0</ele><time>2026-04-04T14:15:33.066Z</time></trkpt><trkpt lat="46.2483148" lon="13.3114728"><ele>341.0</ele><time>2026-04-04T14:15:34.066Z</time></trkpt><trkpt lat="46.2482652" lon="13.3113145"><ele>341.0</ele><time>2026-04-04T14:15:35.065Z</time></trkpt><trkpt lat="46.248198" lon="13.3111638"><ele>341.0</ele><time>2026-04-04T14:15:36.065Z</time></trkpt><trkpt lat="46.2481185" lon="13.3110175"><ele>344.25</ele><time>2026-04-04T14:15:37.066Z</time></trkpt><trkpt lat="46.2480331" lon="13.3108754"><ele>347.5</ele><time>2026-04-04T14:15:38.066Z</time></trkpt><trkpt lat="46.2479501" lon="13.3107357"><ele>350.75</ele><time>2026-04-04T14:15:39.065Z</time></trkpt><trkpt lat="46.2478709" lon="13.3106128"><ele>354.0</ele><time>2026-04-04T14:15:40.065Z</time></trkpt><trkpt lat="46.2477967" lon="13.3105005"><ele>354.0</ele><time>2026-04-04T14:15:41.065Z</time></trkpt><trkpt lat="46.2477307" lon="13.3103996"><ele>354.0</ele><time>2026-04-04T14:15:42.064Z</time></trkpt><trkpt lat="46.2476724" lon="13.3102962"><ele>354.0</ele><time>2026-04-04T14:15:43.065Z</time></trkpt><trkpt lat="46.2476419" lon="13.310182"><ele>354.0</ele><time>2026-04-04T14:15:44.066Z</time></trkpt><trkpt lat="46.2476445" lon="13.3100635"><ele>354.0</ele><time>2026-04-04T14:15:45.065Z</time></trkpt><trkpt lat="46.2476707" lon="13.3099621"><ele>354.0</ele><time>2026-04-04T14:15:46.065Z</time></trkpt><trkpt lat="46.247689" lon="13.3098588"><ele>352.0</ele><time>2026-04-04T14:15:47.064Z</time></trkpt><trkpt lat="46.2476717" lon="13.3097416"><ele>350.0</ele><time>2026-04-04T14:15:48.064Z</time></trkpt><trkpt lat="46.2476346" lon="13.3096229"><ele>348.0</ele><time>2026-04-04T14:15:49.066Z</time></trkpt><trkpt lat="46.2475855" lon="13.309491"><ele>346.0</ele><time>2026-04-04T14:15:50.064Z</time></trkpt><trkpt lat="46.2475262" lon="13.3093449"><ele>344.0</ele><time>2026-04-04T14:15:51.065Z</time></trkpt><trkpt lat="46.2474574" lon="13.3091877"><ele>344.0</ele><time>2026-04-04T14:15:52.065Z</time></trkpt><trkpt lat="46.247386" lon="13.3090161"><ele>344.0</ele><time>2026-04-04T14:15:53.064Z</time></trkpt><trkpt lat="46.2473215" lon="13.3088231"><ele>344.0</ele><time>2026-04-04T14:15:54.065Z</time></trkpt><trkpt lat="46.2472723" lon="13.3086165"><ele>344.0</ele><time>2026-04-04T14:15:55.065Z</time></trkpt><trkpt lat="46.2472251" lon="13.3083937"><ele>345.33333333333337</ele><time>2026-04-04T14:15:56.066Z</time></trkpt><trkpt lat="46.2471695" lon="13.3081633"><ele>346.6666666666667</ele><time>2026-04-04T14:15:57.065Z</time></trkpt><trkpt lat="46.247089" lon="13.3079452"><ele>348.0</ele><time>2026-04-04T14:15:58.065Z</time></trkpt><trkpt lat="46.2469838" lon="13.3077418"><ele>344.6666666666667</ele><time>2026-04-04T14:15:59.064Z</time></trkpt><trkpt lat="46.24685" lon="13.3075719"><ele>341.33333333333337</ele><time>2026-04-04T14:16:00.065Z</time></trkpt><trkpt lat="46.2467062" lon="13.3074334"><ele>338.0</ele><time>2026-04-04T14:16:01.066Z</time></trkpt><trkpt lat="46.2465742" lon="13.3072926"><ele>335.0</ele><time>2026-04-04T14:16:02.065Z</time></trkpt><trkpt lat="46.2464508" lon="13.3071363"><ele>332.0</ele><time>2026-04-04T14:16:03.065Z</time></trkpt><trkpt lat="46.2463296" lon="13.3069767"><ele>329.0</ele><time>2026-04-04T14:16:04.065Z</time></trkpt><trkpt lat="46.246211" lon="13.3068231"><ele>329.0</ele><time>2026-04-04T14:16:05.066Z</time></trkpt><trkpt lat="46.2461039" lon="13.3066661"><ele>329.0</ele><time>2026-04-04T14:16:06.064Z</time></trkpt><trkpt lat="46.2460139" lon="13.3064948"><ele>329.0</ele><time>2026-04-04T14:16:07.064Z</time></trkpt><trkpt lat="46.2459459" lon="13.3063077"><ele>329.0</ele><time>2026-04-04T14:16:08.065Z</time></trkpt><trkpt lat="46.2458976" lon="13.3060992"><ele>328.25</ele><time>2026-04-04T14:16:09.064Z</time></trkpt><trkpt lat="46.2458719" lon="13.3058792"><ele>327.5</ele><time>2026-04-04T14:16:10.065Z</time></trkpt><trkpt lat="46.2458637" lon="13.3056591"><ele>326.75</ele><time>2026-04-04T14:16:11.064Z</time></trkpt><trkpt lat="46.2458607" lon="13.3054607"><ele>326.0</ele><time>2026-04-04T14:16:12.065Z</time></trkpt><trkpt lat="46.2458436" lon="13.3052927"><ele>325.0</ele><time>2026-04-04T14:16:13.065Z</time></trkpt><trkpt lat="46.2458026" lon="13.3051447"><ele>324.0</ele><time>2026-04-04T14:16:14.064Z</time></trkpt><trkpt lat="46.245745" lon="13.3050236"><ele>323.0</ele><time>2026-04-04T14:16:15.064Z</time></trkpt><trkpt lat="46.2456919" lon="13.3049223"><ele>322.0</ele><time>2026-04-04T14:16:16.065Z</time></trkpt><trkpt lat="46.2456682" lon="13.3047989"><ele>321.0</ele><time>2026-04-04T14:16:17.066Z</time></trkpt><trkpt lat="46.245669" lon="13.3046586"><ele>321.0</ele><time>2026-04-04T14:16:18.064Z</time></trkpt><trkpt lat="46.2456922" lon="13.3045018"><ele>321.0</ele><time>2026-04-04T14:16:19.065Z</time></trkpt><trkpt lat="46.2457179" lon="13.3043156"><ele>321.0</ele><time>2026-04-04T14:16:20.065Z</time></trkpt><trkpt lat="46.245739" lon="13.3041154"><ele>321.0</ele><time>2026-04-04T14:16:21.065Z</time></trkpt><trkpt lat="46.2457636" lon="13.3039052"><ele>322.25</ele><time>2026-04-04T14:16:22.065Z</time></trkpt><trkpt lat="46.2457997" lon="13.3037081"><ele>323.5</ele><time>2026-04-04T14:16:23.064Z</time></trkpt><trkpt lat="46.2458482" lon="13.3035364"><ele>324.75</ele><time>2026-04-04T14:16:24.064Z</time></trkpt><trkpt lat="46.2459032" lon="13.3033713"><ele>326.0</ele><time>2026-04-04T14:16:25.064Z</time></trkpt><trkpt lat="46.2459463" lon="13.303195"><ele>324.25</ele><time>2026-04-04T14:16:26.065Z</time></trkpt><trkpt lat="46.24597" lon="13.3030128"><ele>322.5</ele><time>2026-04-04T14:16:27.064Z</time></trkpt><trkpt lat="46.2459811" lon="13.3028298"><ele>320.75</ele><time>2026-04-04T14:16:28.065Z</time></trkpt><trkpt lat="46.2459743" lon="13.3026439"><ele>319.0</ele><time>2026-04-04T14:16:29.065Z</time></trkpt><trkpt lat="46.2459462" lon="13.302457"><ele>319.0</ele><time>2026-04-04T14:16:30.064Z</time></trkpt><trkpt lat="46.245897" lon="13.3022699"><ele>319.0</ele><time>2026-04-04T14:16:31.064Z</time></trkpt><trkpt lat="46.2458251" lon="13.3020934"><ele>319.0</ele><time>2026-04-04T14:16:32.066Z</time></trkpt><trkpt lat="46.2457173" lon="13.3019253"><ele>319.0</ele><time>2026-04-04T14:16:33.064Z</time></trkpt><trkpt lat="46.2455764" lon="13.3017741"><ele>326.3333333333333</ele><time>2026-04-04T14:16:34.064Z</time></trkpt><trkpt lat="46.2454191" lon="13.3016153"><ele>333.6666666666667</ele><time>2026-04-04T14:16:35.065Z</time></trkpt><trkpt lat="46.2452708" lon="13.3014243"><ele>341.0</ele><time>2026-04-04T14:16:36.064Z</time></trkpt><trkpt lat="46.2451306" lon="13.3012264"><ele>349.0</ele><time>2026-04-04T14:16:37.064Z</time></trkpt><trkpt lat="46.2449797" lon="13.3010654"><ele>357.0</ele><time>2026-04-04T14:16:38.064Z</time></trkpt><trkpt lat="46.2448239" lon="13.3009329"><ele>365.0</ele><time>2026-04-04T14:16:39.066Z</time></trkpt><trkpt lat="46.2446798" lon="13.3007972"><ele>365.0</ele><time>2026-04-04T14:16:40.064Z</time></trkpt><trkpt lat="46.2445455" lon="13.3006644"><ele>365.0</ele><time>2026-04-04T14:16:41.065Z</time></trkpt><trkpt lat="46.2444071" lon="13.3005309"><ele>365.0</ele><time>2026-04-04T14:16:42.065Z</time></trkpt><trkpt lat="46.2442719" lon="13.3003964"><ele>370.5</ele><time>2026-04-04T14:16:43.065Z</time></trkpt><trkpt lat="46.2441445" lon="13.3002636"><ele>376.0</ele><time>2026-04-04T14:16:44.064Z</time></trkpt><trkpt lat="46.2440249" lon="13.3001394"><ele>381.5</ele><time>2026-04-04T14:16:45.066Z</time></trkpt><trkpt lat="46.2439344" lon="13.3000382"><ele>387.0</ele><time>2026-04-04T14:16:46.065Z</time></trkpt><trkpt lat="46.2438444" lon="13.2999449"><ele>387.0</ele><time>2026-04-04T14:16:47.065Z</time></trkpt><trkpt lat="46.2437717" lon="13.2998655"><ele>387.0</ele><time>2026-04-04T14:16:48.064Z</time></trkpt><trkpt lat="46.2437124" lon="13.2997953"><ele>387.0</ele><time>2026-04-04T14:16:49.065Z</time></trkpt><trkpt lat="46.2436596" lon="13.2997354"><ele>387.0</ele><time>2026-04-04T14:16:50.065Z</time></trkpt><trkpt lat="46.2435774" lon="13.2996301"><ele>387.0</ele><time>2026-04-04T14:16:52.065Z</time></trkpt><trkpt lat="46.2435212" lon="13.2995428"><ele>387.0</ele><time>2026-04-04T14:16:54.065Z</time></trkpt><trkpt lat="46.2434789" lon="13.2994629"><ele>382.6</ele><time>2026-04-04T14:16:56.054Z</time></trkpt><trkpt lat="46.2434422" lon="13.2993823"><ele>378.20000000000005</ele><time>2026-04-04T14:16:59.05Z</time></trkpt><trkpt lat="46.24341" lon="13.2992939"><ele>373.8</ele><time>2026-04-04T14:17:02.064Z</time></trkpt><trkpt lat="46.2433673" lon="13.2991753"><ele>369.4</ele><time>2026-04-04T14:17:04.065Z</time></trkpt><trkpt lat="46.243302" lon="13.2989977"><ele>365.0</ele><time>2026-04-04T14:17:06.065Z</time></trkpt><trkpt lat="46.2432642" lon="13.2988858"><ele>360.2</ele><time>2026-04-04T14:17:07.065Z</time></trkpt><trkpt lat="46.2432214" lon="13.2987663"><ele>355.4</ele><time>2026-04-04T14:17:08.064Z</time></trkpt><trkpt lat="46.2431645" lon="13.2986481"><ele>350.6</ele><time>2026-04-04T14:17:09.065Z</time></trkpt><trkpt lat="46.2430934" lon="13.2985366"><ele>345.8</ele><time>2026-04-04T14:17:10.066Z</time></trkpt><trkpt lat="46.2430174" lon="13.2984253"><ele>341.0</ele><time>2026-04-04T14:17:11.064Z</time></trkpt><trkpt lat="46.242941" lon="13.298314"><ele>341.0</ele><time>2026-04-04T14:17:12.064Z</time></trkpt><trkpt lat="46.2428614" lon="13.2982003"><ele>341.0</ele><time>2026-04-04T14:17:13.066Z</time></trkpt><trkpt lat="46.2427801" lon="13.2980802"><ele>341.0</ele><time>2026-04-04T14:17:14.064Z</time></trkpt><trkpt lat="46.2426999" lon="13.2979474"><ele>341.0</ele><time>2026-04-04T14:17:15.065Z</time></trkpt><trkpt lat="46.2426201" lon="13.2978096"><ele>340.25</ele><time>2026-04-04T14:17:16.065Z</time></trkpt><trkpt lat="46.2425375" lon="13.2976664"><ele>339.5</ele><time>2026-04-04T14:17:17.064Z</time></trkpt><trkpt lat="46.2424537" lon="13.2975195"><ele>338.75</ele><time>2026-04-04T14:17:18.064Z</time></trkpt><trkpt lat="46.2423738" lon="13.2973686"><ele>338.0</ele><time>2026-04-04T14:17:19.065Z</time></trkpt><trkpt lat="46.2423236" lon="13.2971951"><ele>338.0</ele><time>2026-04-04T14:17:20.065Z</time></trkpt><trkpt lat="46.2423019" lon="13.2970194"><ele>338.0</ele><time>2026-04-04T14:17:21.064Z</time></trkpt><trkpt lat="46.2422811" lon="13.2968575"><ele>338.0</ele><time>2026-04-04T14:17:22.064Z</time></trkpt><trkpt lat="46.2422306" lon="13.2967127"><ele>338.0</ele><time>2026-04-04T14:17:23.066Z</time></trkpt><trkpt lat="46.2421514" lon="13.2965909"><ele>338.0</ele><time>2026-04-04T14:17:24.065Z</time></trkpt><trkpt lat="46.242064" lon="13.2964748"><ele>338.0</ele><time>2026-04-04T14:17:25.065Z</time></trkpt><trkpt lat="46.2419758" lon="13.2963595"><ele>338.0</ele><time>2026-04-04T14:17:26.065Z</time></trkpt><trkpt lat="46.2418959" lon="13.2962389"><ele>338.0</ele><time>2026-04-04T14:17:27.065Z</time></trkpt><trkpt lat="46.2418332" lon="13.2961081"><ele>338.0</ele><time>2026-04-04T14:17:28.065Z</time></trkpt><trkpt lat="46.2417867" lon="13.2959694"><ele>338.0</ele><time>2026-04-04T14:17:29.064Z</time></trkpt><trkpt lat="46.2417521" lon="13.2958276"><ele>338.0</ele><time>2026-04-04T14:17:30.065Z</time></trkpt><trkpt lat="46.241704" lon="13.2956869"><ele>338.0</ele><time>2026-04-04T14:17:31.066Z</time></trkpt><trkpt lat="46.2416367" lon="13.2955517"><ele>338.0</ele><time>2026-04-04T14:17:32.065Z</time></trkpt><trkpt lat="46.2415512" lon="13.2954247"><ele>344.5</ele><time>2026-04-04T14:17:33.065Z</time></trkpt><trkpt lat="46.2414608" lon="13.2952982"><ele>351.0</ele><time>2026-04-04T14:17:34.066Z</time></trkpt><trkpt lat="46.2413807" lon="13.2951438"><ele>357.5</ele><time>2026-04-04T14:17:35.066Z</time></trkpt><trkpt lat="46.2413093" lon="13.2949676"><ele>364.0</ele><time>2026-04-04T14:17:36.065Z</time></trkpt><trkpt lat="46.2412363" lon="13.2947761"><ele>364.0</ele><time>2026-04-04T14:17:37.065Z</time></trkpt><trkpt lat="46.2411591" lon="13.2945852"><ele>364.0</ele><time>2026-04-04T14:17:38.066Z</time></trkpt><trkpt lat="46.2410744" lon="13.2943989"><ele>364.0</ele><time>2026-04-04T14:17:39.066Z</time></trkpt><trkpt lat="46.2409877" lon="13.2942255"><ele>364.0</ele><time>2026-04-04T14:17:40.064Z</time></trkpt><trkpt lat="46.2408993" lon="13.2940587"><ele>364.0</ele><time>2026-04-04T14:17:41.066Z</time></trkpt><trkpt lat="46.2408245" lon="13.2938962"><ele>364.0</ele><time>2026-04-04T14:17:42.065Z</time></trkpt><trkpt lat="46.2407621" lon="13.2937309"><ele>364.0</ele><time>2026-04-04T14:17:43.065Z</time></trkpt><trkpt lat="46.2407094" lon="13.2935632"><ele>359.5</ele><time>2026-04-04T14:17:44.065Z</time></trkpt><trkpt lat="46.2406673" lon="13.2933963"><ele>355.0</ele><time>2026-04-04T14:17:45.066Z</time></trkpt><trkpt lat="46.2406264" lon="13.2932343"><ele>350.5</ele><time>2026-04-04T14:17:46.064Z</time></trkpt><trkpt lat="46.2405822" lon="13.2930796"><ele>346.0</ele><time>2026-04-04T14:17:47.066Z</time></trkpt><trkpt lat="46.2405344" lon="13.2929344"><ele>335.5</ele><time>2026-04-04T14:17:48.064Z</time></trkpt><trkpt lat="46.2404744" lon="13.2928019"><ele>325.0</ele><time>2026-04-04T14:17:49.064Z</time></trkpt><trkpt lat="46.2403984" lon="13.2926836"><ele>314.5</ele><time>2026-04-04T14:17:50.064Z</time></trkpt><trkpt lat="46.2403061" lon="13.2925858"><ele>304.0</ele><time>2026-04-04T14:17:51.065Z</time></trkpt><trkpt lat="46.2402052" lon="13.2924958"><ele>304.0</ele><time>2026-04-04T14:17:52.064Z</time></trkpt><trkpt lat="46.2401027" lon="13.2923999"><ele>304.0</ele><time>2026-04-04T14:17:53.066Z</time></trkpt><trkpt lat="46.2400025" lon="13.2923181"><ele>304.0</ele><time>2026-04-04T14:17:54.064Z</time></trkpt><trkpt lat="46.2399025" lon="13.2922474"><ele>304.0</ele><time>2026-04-04T14:17:55.065Z</time></trkpt><trkpt lat="46.2397993" lon="13.2921913"><ele>304.0</ele><time>2026-04-04T14:17:56.064Z</time></trkpt><trkpt lat="46.23969" lon="13.2921389"><ele>304.0</ele><time>2026-04-04T14:17:57.065Z</time></trkpt><trkpt lat="46.2395755" lon="13.2920877"><ele>304.0</ele><time>2026-04-04T14:17:58.064Z</time></trkpt><trkpt lat="46.2394547" lon="13.292046"><ele>304.0</ele><time>2026-04-04T14:17:59.064Z</time></trkpt><trkpt lat="46.2393336" lon="13.2920111"><ele>307.75</ele><time>2026-04-04T14:18:00.065Z</time></trkpt><trkpt lat="46.2392153" lon="13.2919864"><ele>311.5</ele><time>2026-04-04T14:18:01.066Z</time></trkpt><trkpt lat="46.2391015" lon="13.2919679"><ele>315.25</ele><time>2026-04-04T14:18:02.065Z</time></trkpt><trkpt lat="46.2389905" lon="13.2919523"><ele>319.0</ele><time>2026-04-04T14:18:03.064Z</time></trkpt><trkpt lat="46.2388817" lon="13.2919355"><ele>319.0</ele><time>2026-04-04T14:18:04.066Z</time></trkpt><trkpt lat="46.2387761" lon="13.291909"><ele>319.0</ele><time>2026-04-04T14:18:05.064Z</time></trkpt><trkpt lat="46.2386702" lon="13.2918668"><ele>319.0</ele><time>2026-04-04T14:18:06.064Z</time></trkpt><trkpt lat="46.2385657" lon="13.2917913"><ele>319.0</ele><time>2026-04-04T14:18:07.065Z</time></trkpt><trkpt lat="46.2384757" lon="13.2916819"><ele>319.0</ele><time>2026-04-04T14:18:08.066Z</time></trkpt><trkpt lat="46.2383998" lon="13.2915413"><ele>319.0</ele><time>2026-04-04T14:18:09.065Z</time></trkpt><trkpt lat="46.2383314" lon="13.2913801"><ele>319.0</ele><time>2026-04-04T14:18:10.065Z</time></trkpt><trkpt lat="46.2382655" lon="13.2912054"><ele>319.0</ele><time>2026-04-04T14:18:11.064Z</time></trkpt><trkpt lat="46.238204" lon="13.2910171"><ele>330.66666666666663</ele><time>2026-04-04T14:18:12.065Z</time></trkpt><trkpt lat="46.2381494" lon="13.2908144"><ele>342.3333333333333</ele><time>2026-04-04T14:18:13.065Z</time></trkpt><trkpt lat="46.2380969" lon="13.2906019"><ele>354.0</ele><time>2026-04-04T14:18:14.065Z</time></trkpt><trkpt lat="46.2380525" lon="13.2903974"><ele>355.25</ele><time>2026-04-04T14:18:15.066Z</time></trkpt><trkpt lat="46.2380084" lon="13.2901993"><ele>356.5</ele><time>2026-04-04T14:18:16.065Z</time></trkpt><trkpt lat="46.237962" lon="13.2900001"><ele>357.75</ele><time>2026-04-04T14:18:17.066Z</time></trkpt><trkpt lat="46.2379194" lon="13.2898105"><ele>359.0</ele><time>2026-04-04T14:18:18.065Z</time></trkpt><trkpt lat="46.2378745" lon="13.2896232"><ele>355.5</ele><time>2026-04-04T14:18:19.066Z</time></trkpt><trkpt lat="46.2378267" lon="13.2894347"><ele>352.0</ele><time>2026-04-04T14:18:20.064Z</time></trkpt><trkpt lat="46.2377727" lon="13.2892552"><ele>348.5</ele><time>2026-04-04T14:18:21.065Z</time></trkpt><trkpt lat="46.2377106" lon="13.2890991"><ele>345.0</ele><time>2026-04-04T14:18:22.065Z</time></trkpt><trkpt lat="46.2376485" lon="13.2889569"><ele>345.0</ele><time>2026-04-04T14:18:23.064Z</time></trkpt><trkpt lat="46.2375917" lon="13.288827"><ele>345.0</ele><time>2026-04-04T14:18:24.064Z</time></trkpt><trkpt lat="46.2375396" lon="13.288696"><ele>345.0</ele><time>2026-04-04T14:18:25.064Z</time></trkpt><trkpt lat="46.2374871" lon="13.2885761"><ele>345.0</ele><time>2026-04-04T14:18:26.065Z</time></trkpt><trkpt lat="46.2374219" lon="13.2884661"><ele>345.0</ele><time>2026-04-04T14:18:27.066Z</time></trkpt><trkpt lat="46.2373454" lon="13.2883648"><ele>339.75</ele><time>2026-04-04T14:18:28.064Z</time></trkpt><trkpt lat="46.2372696" lon="13.2882553"><ele>334.5</ele><time>2026-04-04T14:18:29.065Z</time></trkpt><trkpt lat="46.2371949" lon="13.2881305"><ele>329.25</ele><time>2026-04-04T14:18:30.066Z</time></trkpt><trkpt lat="46.2371221" lon="13.2879832"><ele>324.0</ele><time>2026-04-04T14:18:31.065Z</time></trkpt><trkpt lat="46.2370542" lon="13.2878104"><ele>320.75</ele><time>2026-04-04T14:18:32.064Z</time></trkpt><trkpt lat="46.2369874" lon="13.2876304"><ele>317.5</ele><time>2026-04-04T14:18:33.065Z</time></trkpt><trkpt lat="46.2369174" lon="13.2874444"><ele>314.25</ele><time>2026-04-04T14:18:34.064Z</time></trkpt><trkpt lat="46.2368416" lon="13.287258"><ele>311.0</ele><time>2026-04-04T14:18:35.065Z</time></trkpt><trkpt lat="46.2367603" lon="13.2870748"><ele>312.0</ele><time>2026-04-04T14:18:36.065Z</time></trkpt><trkpt lat="46.2366697" lon="13.2869042"><ele>313.0</ele><time>2026-04-04T14:18:37.064Z</time></trkpt><trkpt lat="46.23657" lon="13.2867519"><ele>314.0</ele><time>2026-04-04T14:18:38.065Z</time></trkpt><trkpt lat="46.2364575" lon="13.286602"><ele>315.0</ele><time>2026-04-04T14:18:39.066Z</time></trkpt><trkpt lat="46.2363336" lon="13.286451"><ele>303.0</ele><time>2026-04-04T14:18:40.065Z</time></trkpt><trkpt lat="46.2362004" lon="13.2862909"><ele>291.0</ele><time>2026-04-04T14:18:41.064Z</time></trkpt><trkpt lat="46.2360602" lon="13.2861237"><ele>279.0</ele><time>2026-04-04T14:18:42.064Z</time></trkpt><trkpt lat="46.2359163" lon="13.2859517"><ele>279.0</ele><time>2026-04-04T14:18:43.066Z</time></trkpt><trkpt lat="46.2357723" lon="13.2857804"><ele>279.0</ele><time>2026-04-04T14:18:44.066Z</time></trkpt><trkpt lat="46.2356324" lon="13.2856262"><ele>279.0</ele><time>2026-04-04T14:18:45.066Z</time></trkpt><trkpt lat="46.2354916" lon="13.2854887"><ele>280.5</ele><time>2026-04-04T14:18:46.065Z</time></trkpt><trkpt lat="46.2353629" lon="13.2853847"><ele>282.0</ele><time>2026-04-04T14:18:47.065Z</time></trkpt><trkpt lat="46.235249" lon="13.2852921"><ele>283.5</ele><time>2026-04-04T14:18:48.065Z</time></trkpt><trkpt lat="46.2351593" lon="13.285191"><ele>285.0</ele><time>2026-04-04T14:18:49.066Z</time></trkpt><trkpt lat="46.235084" lon="13.2850782"><ele>285.0</ele><time>2026-04-04T14:18:50.065Z</time></trkpt><trkpt lat="46.2350284" lon="13.2849483"><ele>285.0</ele><time>2026-04-04T14:18:51.066Z</time></trkpt><trkpt lat="46.2349756" lon="13.2848419"><ele>285.0</ele><time>2026-04-04T14:18:52.065Z</time></trkpt><trkpt lat="46.2349082" lon="13.2847573"><ele>285.0</ele><time>2026-04-04T14:18:53.064Z</time></trkpt><trkpt lat="46.2348315" lon="13.2847116"><ele>285.0</ele><time>2026-04-04T14:18:54.065Z</time></trkpt><trkpt lat="46.2347416" lon="13.2847042"><ele>284.8</ele><time>2026-04-04T14:18:55.064Z</time></trkpt><trkpt lat="46.2346451" lon="13.2847319"><ele>284.6</ele><time>2026-04-04T14:18:56.065Z</time></trkpt><trkpt lat="46.2345417" lon="13.2847799"><ele>284.4</ele><time>2026-04-04T14:18:57.065Z</time></trkpt><trkpt lat="46.2344376" lon="13.2848293"><ele>284.2</ele><time>2026-04-04T14:18:58.065Z</time></trkpt><trkpt lat="46.234326" lon="13.2848753"><ele>284.0</ele><time>2026-04-04T14:18:59.064Z</time></trkpt><trkpt lat="46.23421" lon="13.2849131"><ele>283.0</ele><time>2026-04-04T14:19:00.066Z</time></trkpt><trkpt lat="46.2340878" lon="13.2849354"><ele>282.0</ele><time>2026-04-04T14:19:01.065Z</time></trkpt><trkpt lat="46.2339639" lon="13.2849503"><ele>281.0</ele><time>2026-04-04T14:19:02.065Z</time></trkpt><trkpt lat="46.2338392" lon="13.284946"><ele>280.0</ele><time>2026-04-04T14:19:03.064Z</time></trkpt><trkpt lat="46.2337158" lon="13.2849075"><ele>278.3333333333333</ele><time>2026-04-04T14:19:04.064Z</time></trkpt><trkpt lat="46.2335905" lon="13.2848303"><ele>276.6666666666667</ele><time>2026-04-04T14:19:05.066Z</time></trkpt><trkpt lat="46.2334432" lon="13.2847384"><ele>275.0</ele><time>2026-04-04T14:19:06.064Z</time></trkpt><trkpt lat="46.2332859" lon="13.2846323"><ele>278.33333333333337</ele><time>2026-04-04T14:19:07.064Z</time></trkpt><trkpt lat="46.2330986" lon="13.2844869"><ele>281.6666666666667</ele><time>2026-04-04T14:19:08.065Z</time></trkpt><trkpt lat="46.2329359" lon="13.2843496"><ele>285.0</ele><time>2026-04-04T14:19:09.051Z</time></trkpt><trkpt lat="46.2327746" lon="13.2842216"><ele>285.0</ele><time>2026-04-04T14:19:10.051Z</time></trkpt><trkpt lat="46.2326459" lon="13.2841138"><ele>285.0</ele><time>2026-04-04T14:19:11.047Z</time></trkpt><trkpt lat="46.2325302" lon="13.2840035"><ele>285.0</ele><time>2026-04-04T14:19:12.055Z</time></trkpt><trkpt lat="46.2324341" lon="13.2838823"><ele>285.0</ele><time>2026-04-04T14:19:13.05Z</time></trkpt><trkpt lat="46.2323696" lon="13.2837375"><ele>283.4</ele><time>2026-04-04T14:19:14.065Z</time></trkpt><trkpt lat="46.2323319" lon="13.2835857"><ele>281.8</ele><time>2026-04-04T14:19:15.066Z</time></trkpt><trkpt lat="46.2323004" lon="13.283444"><ele>280.2</ele><time>2026-04-04T14:19:16.064Z</time></trkpt><trkpt lat="46.2322604" lon="13.2833126"><ele>278.6</ele><time>2026-04-04T14:19:17.065Z</time></trkpt><trkpt lat="46.2322043" lon="13.2831849"><ele>277.0</ele><time>2026-04-04T14:19:18.066Z</time></trkpt><trkpt lat="46.2321336" lon="13.2830719"><ele>275.25</ele><time>2026-04-04T14:19:19.065Z</time></trkpt><trkpt lat="46.2320459" lon="13.2829882"><ele>273.5</ele><time>2026-04-04T14:19:20.065Z</time></trkpt><trkpt lat="46.231938" lon="13.2829321"><ele>271.75</ele><time>2026-04-04T14:19:21.065Z</time></trkpt><trkpt lat="46.2318053" lon="13.2828867"><ele>270.0</ele><time>2026-04-04T14:19:22.066Z</time></trkpt><trkpt lat="46.2316375" lon="13.2828372"><ele>268.6666666666667</ele><time>2026-04-04T14:19:23.066Z</time></trkpt><trkpt lat="46.2314554" lon="13.2827602"><ele>267.33333333333337</ele><time>2026-04-04T14:19:24.066Z</time></trkpt><trkpt lat="46.2312642" lon="13.2826682"><ele>266.0</ele><time>2026-04-04T14:19:25.065Z</time></trkpt><trkpt lat="46.2310626" lon="13.2825859"><ele>266.0</ele><time>2026-04-04T14:19:26.064Z</time></trkpt><trkpt lat="46.2308436" lon="13.2825135"><ele>266.0</ele><time>2026-04-04T14:19:27.065Z</time></trkpt><trkpt lat="46.2306108" lon="13.2824648"><ele>267.0</ele><time>2026-04-04T14:19:28.064Z</time></trkpt><trkpt lat="46.2303696" lon="13.2824329"><ele>268.0</ele><time>2026-04-04T14:19:29.065Z</time></trkpt><trkpt lat="46.2301375" lon="13.282424"><ele>268.0</ele><time>2026-04-04T14:19:30.065Z</time></trkpt><trkpt lat="46.2299174" lon="13.2824274"><ele>268.0</ele><time>2026-04-04T14:19:31.066Z</time></trkpt><trkpt lat="46.2297074" lon="13.2824347"><ele>268.0</ele><time>2026-04-04T14:19:32.066Z</time></trkpt><trkpt lat="46.2295154" lon="13.2824"><ele>266.3333333333333</ele><time>2026-04-04T14:19:33.065Z</time></trkpt><trkpt lat="46.2293339" lon="13.2823197"><ele>264.6666666666667</ele><time>2026-04-04T14:19:34.065Z</time></trkpt><trkpt lat="46.2291667" lon="13.2822178"><ele>263.0</ele><time>2026-04-04T14:19:35.065Z</time></trkpt><trkpt lat="46.229023" lon="13.2821038"><ele>270.6666666666667</ele><time>2026-04-04T14:19:36.065Z</time></trkpt><trkpt lat="46.2289052" lon="13.2819499"><ele>278.3333333333333</ele><time>2026-04-04T14:19:37.065Z</time></trkpt><trkpt lat="46.2288165" lon="13.2817502"><ele>286.0</ele><time>2026-04-04T14:19:38.064Z</time></trkpt><trkpt lat="46.2287415" lon="13.2815348"><ele>283.5</ele><time>2026-04-04T14:19:39.065Z</time></trkpt><trkpt lat="46.2286859" lon="13.2813291"><ele>281.0</ele><time>2026-04-04T14:19:40.064Z</time></trkpt><trkpt lat="46.2286241" lon="13.2811607"><ele>278.5</ele><time>2026-04-04T14:19:41.065Z</time></trkpt><trkpt lat="46.2285349" lon="13.2810205"><ele>276.0</ele><time>2026-04-04T14:19:42.064Z</time></trkpt><trkpt lat="46.2284169" lon="13.2809306"><ele>276.0</ele><time>2026-04-04T14:19:43.065Z</time></trkpt><trkpt lat="46.2282888" lon="13.2808968"><ele>276.0</ele><time>2026-04-04T14:19:44.065Z</time></trkpt><trkpt lat="46.2281583" lon="13.2808999"><ele>276.0</ele><time>2026-04-04T14:19:45.064Z</time></trkpt><trkpt lat="46.2280412" lon="13.2809103"><ele>276.0</ele><time>2026-04-04T14:19:46.065Z</time></trkpt><trkpt lat="46.2279395" lon="13.2809108"><ele>273.5</ele><time>2026-04-04T14:19:47.065Z</time></trkpt><trkpt lat="46.2278516" lon="13.2808876"><ele>271.0</ele><time>2026-04-04T14:19:48.065Z</time></trkpt><trkpt lat="46.2277787" lon="13.2808334"><ele>268.5</ele><time>2026-04-04T14:19:49.065Z</time></trkpt><trkpt lat="46.2277359" lon="13.2807415"><ele>266.0</ele><time>2026-04-04T14:19:50.064Z</time></trkpt><trkpt lat="46.2277184" lon="13.2806298"><ele>263.5</ele><time>2026-04-04T14:19:51.064Z</time></trkpt><trkpt lat="46.2277051" lon="13.2805032"><ele>261.0</ele><time>2026-04-04T14:19:52.065Z</time></trkpt><trkpt lat="46.2276556" lon="13.2804018"><ele>260.40000000000003</ele><time>2026-04-04T14:19:53.064Z</time></trkpt><trkpt lat="46.2275921" lon="13.2803266"><ele>259.8</ele><time>2026-04-04T14:19:54.064Z</time></trkpt><trkpt lat="46.2275041" lon="13.2802706"><ele>259.20000000000005</ele><time>2026-04-04T14:19:55.065Z</time></trkpt><trkpt lat="46.2274014" lon="13.2802166"><ele>258.6</ele><time>2026-04-04T14:19:56.064Z</time></trkpt><trkpt lat="46.2272838" lon="13.2801552"><ele>258.0</ele><time>2026-04-04T14:19:57.064Z</time></trkpt><trkpt lat="46.2271483" lon="13.2800747"><ele>257.6666666666667</ele><time>2026-04-04T14:19:58.065Z</time></trkpt><trkpt lat="46.226993" lon="13.2799661"><ele>257.33333333333337</ele><time>2026-04-04T14:19:59.065Z</time></trkpt><trkpt lat="46.2268111" lon="13.2798386"><ele>257.0</ele><time>2026-04-04T14:20:00.065Z</time></trkpt><trkpt lat="46.2266069" lon="13.2796974"><ele>265.0</ele><time>2026-04-04T14:20:01.066Z</time></trkpt><trkpt lat="46.2263798" lon="13.2795797"><ele>273.0</ele><time>2026-04-04T14:20:02.064Z</time></trkpt><trkpt lat="46.226151" lon="13.2794764"><ele>273.0</ele><time>2026-04-04T14:20:03.064Z</time></trkpt><trkpt lat="46.2259282" lon="13.2793792"><ele>273.0</ele><time>2026-04-04T14:20:04.064Z</time></trkpt><trkpt lat="46.2257139" lon="13.2792846"><ele>268.0</ele><time>2026-04-04T14:20:05.065Z</time></trkpt><trkpt lat="46.225511" lon="13.2791948"><ele>263.0</ele><time>2026-04-04T14:20:06.064Z</time></trkpt><trkpt lat="46.2253191" lon="13.2791061"><ele>258.0</ele><time>2026-04-04T14:20:07.065Z</time></trkpt><trkpt lat="46.2251398" lon="13.279024"><ele>258.0</ele><time>2026-04-04T14:20:08.064Z</time></trkpt><trkpt lat="46.2249758" lon="13.2789471"><ele>258.0</ele><time>2026-04-04T14:20:09.065Z</time></trkpt><trkpt lat="46.2248275" lon="13.278854"><ele>258.0</ele><time>2026-04-04T14:20:10.065Z</time></trkpt><trkpt lat="46.2246999" lon="13.2787387"><ele>256.5</ele><time>2026-04-04T14:20:11.066Z</time></trkpt><trkpt lat="46.2245779" lon="13.2786106"><ele>255.0</ele><time>2026-04-04T14:20:12.065Z</time></trkpt><trkpt lat="46.2244678" lon="13.2784665"><ele>253.5</ele><time>2026-04-04T14:20:13.065Z</time></trkpt><trkpt lat="46.2243649" lon="13.2783191"><ele>252.0</ele><time>2026-04-04T14:20:14.065Z</time></trkpt><trkpt lat="46.2242716" lon="13.278183"><ele>252.16666666666666</ele><time>2026-04-04T14:20:15.066Z</time></trkpt><trkpt lat="46.2241883" lon="13.2780653"><ele>252.33333333333331</ele><time>2026-04-04T14:20:16.067Z</time></trkpt><trkpt lat="46.2241224" lon="13.2779708"><ele>252.5</ele><time>2026-04-04T14:20:17.066Z</time></trkpt><trkpt lat="46.2240599" lon="13.2778874"><ele>252.66666666666666</ele><time>2026-04-04T14:20:18.066Z</time></trkpt><trkpt lat="46.2240007" lon="13.2778184"><ele>252.83333333333331</ele><time>2026-04-04T14:20:19.067Z</time></trkpt><trkpt lat="46.2239358" lon="13.2777599"><ele>253.0</ele><time>2026-04-04T14:20:20.065Z</time></trkpt><trkpt lat="46.2238568" lon="13.2777008"><ele>253.0</ele><time>2026-04-04T14:20:21.065Z</time></trkpt><trkpt lat="46.2237684" lon="13.2776375"><ele>253.0</ele><time>2026-04-04T14:20:22.066Z</time></trkpt><trkpt lat="46.2236801" lon="13.2775757"><ele>253.0</ele><time>2026-04-04T14:20:23.066Z</time></trkpt><trkpt lat="46.2235971" lon="13.2775111"><ele>253.0</ele><time>2026-04-04T14:20:24.065Z</time></trkpt><trkpt lat="46.2235115" lon="13.2774474"><ele>253.0</ele><time>2026-04-04T14:20:25.067Z</time></trkpt><trkpt lat="46.2234206" lon="13.2773809"><ele>253.0</ele><time>2026-04-04T14:20:26.065Z</time></trkpt><trkpt lat="46.2233262" lon="13.2773099"><ele>253.0</ele><time>2026-04-04T14:20:27.065Z</time></trkpt><trkpt lat="46.2232375" lon="13.2772435"><ele>253.0</ele><time>2026-04-04T14:20:28.065Z</time></trkpt><trkpt lat="46.2231575" lon="13.2771837"><ele>253.0</ele><time>2026-04-04T14:20:29.065Z</time></trkpt><trkpt lat="46.2230774" lon="13.277129"><ele>253.0</ele><time>2026-04-04T14:20:30.067Z</time></trkpt><trkpt lat="46.2229921" lon="13.2770788"><ele>253.66666666666666</ele><time>2026-04-04T14:20:31.065Z</time></trkpt><trkpt lat="46.2229022" lon="13.2770325"><ele>254.33333333333331</ele><time>2026-04-04T14:20:32.067Z</time></trkpt><trkpt lat="46.2228162" lon="13.2769935"><ele>255.0</ele><time>2026-04-04T14:20:33.066Z</time></trkpt><trkpt lat="46.2227374" lon="13.2769604"><ele>255.66666666666669</ele><time>2026-04-04T14:20:34.066Z</time></trkpt><trkpt lat="46.2226647" lon="13.2769255"><ele>256.33333333333337</ele><time>2026-04-04T14:20:35.066Z</time></trkpt><trkpt lat="46.2225967" lon="13.2768907"><ele>257.0</ele><time>2026-04-04T14:20:36.066Z</time></trkpt><trkpt lat="46.222486" lon="13.2768344"><ele>257.0</ele><time>2026-04-04T14:20:38.067Z</time></trkpt><trkpt lat="46.2223609" lon="13.2767734"><ele>257.0</ele><time>2026-04-04T14:20:40.066Z</time></trkpt><trkpt lat="46.2222676" lon="13.276719"><ele>257.0</ele><time>2026-04-04T14:20:41.066Z</time></trkpt><trkpt lat="46.222152" lon="13.2766376"><ele>257.0</ele><time>2026-04-04T14:20:42.066Z</time></trkpt><trkpt lat="46.2220254" lon="13.2765319"><ele>255.33333333333334</ele><time>2026-04-04T14:20:43.066Z</time></trkpt><trkpt lat="46.2218809" lon="13.2764088"><ele>253.66666666666669</ele><time>2026-04-04T14:20:44.067Z</time></trkpt><trkpt lat="46.2217353" lon="13.2762606"><ele>252.0</ele><time>2026-04-04T14:20:45.066Z</time></trkpt><trkpt lat="46.2215893" lon="13.2761116"><ele>245.66666666666669</ele><time>2026-04-04T14:20:46.065Z</time></trkpt><trkpt lat="46.2214438" lon="13.275981"><ele>239.33333333333334</ele><time>2026-04-04T14:20:47.066Z</time></trkpt><trkpt lat="46.2213028" lon="13.2758763"><ele>233.0</ele><time>2026-04-04T14:20:48.066Z</time></trkpt><trkpt lat="46.2211666" lon="13.2757808"><ele>233.0</ele><time>2026-04-04T14:20:49.065Z</time></trkpt><trkpt lat="46.2210472" lon="13.2756723"><ele>233.0</ele><time>2026-04-04T14:20:50.065Z</time></trkpt><trkpt lat="46.2209399" lon="13.2755434"><ele>233.0</ele><time>2026-04-04T14:20:51.067Z</time></trkpt><trkpt lat="46.2208448" lon="13.2753833"><ele>233.0</ele><time>2026-04-04T14:20:52.065Z</time></trkpt><trkpt lat="46.2207612" lon="13.2751909"><ele>234.66666666666669</ele><time>2026-04-04T14:20:53.065Z</time></trkpt><trkpt lat="46.2206803" lon="13.274982"><ele>236.33333333333331</ele><time>2026-04-04T14:20:54.066Z</time></trkpt><trkpt lat="46.2205946" lon="13.2747675"><ele>238.0</ele><time>2026-04-04T14:20:55.066Z</time></trkpt><trkpt lat="46.2205022" lon="13.2745566"><ele>238.0</ele><time>2026-04-04T14:20:56.066Z</time></trkpt><trkpt lat="46.2203996" lon="13.2743423"><ele>238.0</ele><time>2026-04-04T14:20:57.067Z</time></trkpt><trkpt lat="46.2202921" lon="13.2741294"><ele>238.0</ele><time>2026-04-04T14:20:58.065Z</time></trkpt><trkpt lat="46.2201822" lon="13.2739145"><ele>239.33333333333331</ele><time>2026-04-04T14:20:59.067Z</time></trkpt><trkpt lat="46.2200703" lon="13.273698"><ele>240.66666666666669</ele><time>2026-04-04T14:21:00.065Z</time></trkpt><trkpt lat="46.2199609" lon="13.2734895"><ele>242.0</ele><time>2026-04-04T14:21:01.066Z</time></trkpt><trkpt lat="46.2198455" lon="13.2732858"><ele>241.33333333333334</ele><time>2026-04-04T14:21:02.066Z</time></trkpt><trkpt lat="46.2197268" lon="13.273109"><ele>240.66666666666669</ele><time>2026-04-04T14:21:03.066Z</time></trkpt><trkpt lat="46.2196004" lon="13.2729549"><ele>240.0</ele><time>2026-04-04T14:21:04.065Z</time></trkpt><trkpt lat="46.2194664" lon="13.2728194"><ele>240.0</ele><time>2026-04-04T14:21:05.065Z</time></trkpt><trkpt lat="46.2193345" lon="13.2726871"><ele>240.0</ele><time>2026-04-04T14:21:06.065Z</time></trkpt><trkpt lat="46.2192042" lon="13.2725527"><ele>240.0</ele><time>2026-04-04T14:21:07.066Z</time></trkpt><trkpt lat="46.2190681" lon="13.2724087"><ele>238.66666666666669</ele><time>2026-04-04T14:21:08.066Z</time></trkpt><trkpt lat="46.218934" lon="13.2722642"><ele>237.33333333333334</ele><time>2026-04-04T14:21:09.067Z</time></trkpt><trkpt lat="46.2187997" lon="13.2721199"><ele>236.0</ele><time>2026-04-04T14:21:10.065Z</time></trkpt><trkpt lat="46.2186605" lon="13.2719813"><ele>236.0</ele><time>2026-04-04T14:21:11.065Z</time></trkpt><trkpt lat="46.2185153" lon="13.2718551"><ele>236.0</ele><time>2026-04-04T14:21:12.065Z</time></trkpt><trkpt lat="46.2183713" lon="13.2717446"><ele>236.0</ele><time>2026-04-04T14:21:13.066Z</time></trkpt><trkpt lat="46.2182251" lon="13.2716533"><ele>236.0</ele><time>2026-04-04T14:21:14.065Z</time></trkpt><trkpt lat="46.2180756" lon="13.2715709"><ele>236.0</ele><time>2026-04-04T14:21:15.065Z</time></trkpt><trkpt lat="46.2179239" lon="13.2714919"><ele>236.0</ele><time>2026-04-04T14:21:16.066Z</time></trkpt><trkpt lat="46.2177772" lon="13.2714027"><ele>236.0</ele><time>2026-04-04T14:21:17.066Z</time></trkpt><trkpt lat="46.2176377" lon="13.2712844"><ele>236.0</ele><time>2026-04-04T14:21:18.066Z</time></trkpt><trkpt lat="46.2175036" lon="13.2711498"><ele>236.0</ele><time>2026-04-04T14:21:19.066Z</time></trkpt><trkpt lat="46.2173719" lon="13.2709996"><ele>235.0</ele><time>2026-04-04T14:21:20.066Z</time></trkpt><trkpt lat="46.2172454" lon="13.2708362"><ele>234.0</ele><time>2026-04-04T14:21:21.066Z</time></trkpt><trkpt lat="46.217117" lon="13.2706806"><ele>233.0</ele><time>2026-04-04T14:21:22.065Z</time></trkpt><trkpt lat="46.2169696" lon="13.270547"><ele>233.0</ele><time>2026-04-04T14:21:23.065Z</time></trkpt><trkpt lat="46.2168086" lon="13.2704469"><ele>233.0</ele><time>2026-04-04T14:21:24.066Z</time></trkpt><trkpt lat="46.2166356" lon="13.2703697"><ele>233.0</ele><time>2026-04-04T14:21:25.067Z</time></trkpt><trkpt lat="46.2164544" lon="13.2703049"><ele>232.33333333333334</ele><time>2026-04-04T14:21:26.066Z</time></trkpt><trkpt lat="46.2162647" lon="13.2702426"><ele>231.66666666666669</ele><time>2026-04-04T14:21:27.066Z</time></trkpt><trkpt lat="46.2160677" lon="13.2701697"><ele>231.0</ele><time>2026-04-04T14:21:28.067Z</time></trkpt><trkpt lat="46.215872" lon="13.2700803"><ele>231.0</ele><time>2026-04-04T14:21:29.065Z</time></trkpt><trkpt lat="46.2156832" lon="13.2699671"><ele>231.0</ele><time>2026-04-04T14:21:30.066Z</time></trkpt><trkpt lat="46.2154966" lon="13.2698328"><ele>231.0</ele><time>2026-04-04T14:21:31.066Z</time></trkpt><trkpt lat="46.2153089" lon="13.2696872"><ele>230.0</ele><time>2026-04-04T14:21:32.066Z</time></trkpt><trkpt lat="46.2151142" lon="13.2695455"><ele>229.0</ele><time>2026-04-04T14:21:33.065Z</time></trkpt><trkpt lat="46.2149152" lon="13.2694027"><ele>228.0</ele><time>2026-04-04T14:21:34.065Z</time></trkpt><trkpt lat="46.2147172" lon="13.2692598"><ele>227.66666666666669</ele><time>2026-04-04T14:21:35.066Z</time></trkpt><trkpt lat="46.214525" lon="13.2691187"><ele>227.33333333333334</ele><time>2026-04-04T14:21:36.066Z</time></trkpt><trkpt lat="46.2143386" lon="13.2689831"><ele>227.0</ele><time>2026-04-04T14:21:37.065Z</time></trkpt><trkpt lat="46.2141555" lon="13.268852"><ele>226.66666666666669</ele><time>2026-04-04T14:21:38.065Z</time></trkpt><trkpt lat="46.2139797" lon="13.268723"><ele>226.33333333333331</ele><time>2026-04-04T14:21:39.067Z</time></trkpt><trkpt lat="46.2138039" lon="13.2685935"><ele>226.0</ele><time>2026-04-04T14:21:40.066Z</time></trkpt><trkpt lat="46.2136243" lon="13.2684691"><ele>226.0</ele><time>2026-04-04T14:21:41.066Z</time></trkpt><trkpt lat="46.213439" lon="13.2683581"><ele>226.0</ele><time>2026-04-04T14:21:42.066Z</time></trkpt><trkpt lat="46.2132487" lon="13.2682506"><ele>226.0</ele><time>2026-04-04T14:21:43.066Z</time></trkpt><trkpt lat="46.2130542" lon="13.2681443"><ele>225.66666666666666</ele><time>2026-04-04T14:21:44.065Z</time></trkpt><trkpt lat="46.2128602" lon="13.2680376"><ele>225.33333333333331</ele><time>2026-04-04T14:21:45.066Z</time></trkpt><trkpt lat="46.212666" lon="13.2679314"><ele>225.0</ele><time>2026-04-04T14:21:46.065Z</time></trkpt><trkpt lat="46.2124737" lon="13.2678216"><ele>224.0</ele><time>2026-04-04T14:21:47.065Z</time></trkpt><trkpt lat="46.2122814" lon="13.2677178"><ele>223.0</ele><time>2026-04-04T14:21:48.066Z</time></trkpt><trkpt lat="46.2120902" lon="13.2676155"><ele>222.0</ele><time>2026-04-04T14:21:49.067Z</time></trkpt><trkpt lat="46.2119037" lon="13.2675124"><ele>222.0</ele><time>2026-04-04T14:21:50.065Z</time></trkpt><trkpt lat="46.2117231" lon="13.2674105"><ele>222.0</ele><time>2026-04-04T14:21:51.066Z</time></trkpt><trkpt lat="46.211551" lon="13.2673157"><ele>222.0</ele><time>2026-04-04T14:21:52.066Z</time></trkpt><trkpt lat="46.2113849" lon="13.2672304"><ele>223.0</ele><time>2026-04-04T14:21:53.067Z</time></trkpt><trkpt lat="46.2112291" lon="13.2671505"><ele>224.0</ele><time>2026-04-04T14:21:54.066Z</time></trkpt><trkpt lat="46.211083" lon="13.2670793"><ele>225.0</ele><time>2026-04-04T14:21:55.066Z</time></trkpt><trkpt lat="46.2109387" lon="13.2670152"><ele>225.0</ele><time>2026-04-04T14:21:56.065Z</time></trkpt><trkpt lat="46.2107915" lon="13.2669594"><ele>225.0</ele><time>2026-04-04T14:21:57.067Z</time></trkpt><trkpt lat="46.2106355" lon="13.2669198"><ele>225.0</ele><time>2026-04-04T14:21:58.066Z</time></trkpt><trkpt lat="46.2104695" lon="13.2668931"><ele>224.66666666666669</ele><time>2026-04-04T14:21:59.066Z</time></trkpt><trkpt lat="46.2102948" lon="13.2668733"><ele>224.33333333333334</ele><time>2026-04-04T14:22:00.066Z</time></trkpt><trkpt lat="46.2101161" lon="13.266855"><ele>224.0</ele><time>2026-04-04T14:22:01.066Z</time></trkpt><trkpt lat="46.2099356" lon="13.2668356"><ele>223.33333333333334</ele><time>2026-04-04T14:22:02.065Z</time></trkpt><trkpt lat="46.2097545" lon="13.2668152"><ele>222.66666666666669</ele><time>2026-04-04T14:22:03.067Z</time></trkpt><trkpt lat="46.2095713" lon="13.2667926"><ele>222.0</ele><time>2026-04-04T14:22:04.066Z</time></trkpt><trkpt lat="46.2093985" lon="13.2667682"><ele>222.0</ele><time>2026-04-04T14:22:05.065Z</time></trkpt><trkpt lat="46.2092365" lon="13.266745"><ele>222.0</ele><time>2026-04-04T14:22:06.067Z</time></trkpt><trkpt lat="46.2090822" lon="13.2667211"><ele>222.0</ele><time>2026-04-04T14:22:07.066Z</time></trkpt><trkpt lat="46.2089316" lon="13.2666994"><ele>221.75</ele><time>2026-04-04T14:22:08.066Z</time></trkpt><trkpt lat="46.2087865" lon="13.2666798"><ele>221.5</ele><time>2026-04-04T14:22:09.066Z</time></trkpt><trkpt lat="46.208647" lon="13.2666611"><ele>221.25</ele><time>2026-04-04T14:22:10.066Z</time></trkpt><trkpt lat="46.2085186" lon="13.2666429"><ele>221.0</ele><time>2026-04-04T14:22:11.065Z</time></trkpt><trkpt lat="46.2083951" lon="13.2666242"><ele>221.0</ele><time>2026-04-04T14:22:12.065Z</time></trkpt><trkpt lat="46.2082782" lon="13.2666102"><ele>221.0</ele><time>2026-04-04T14:22:13.066Z</time></trkpt><trkpt lat="46.2081627" lon="13.2665986"><ele>221.0</ele><time>2026-04-04T14:22:14.066Z</time></trkpt><trkpt lat="46.2080484" lon="13.2665959"><ele>221.0</ele><time>2026-04-04T14:22:15.066Z</time></trkpt><trkpt lat="46.2079358" lon="13.2666092"><ele>220.5</ele><time>2026-04-04T14:22:16.065Z</time></trkpt><trkpt lat="46.2078235" lon="13.2666288"><ele>220.0</ele><time>2026-04-04T14:22:17.065Z</time></trkpt><trkpt lat="46.2077106" lon="13.2666565"><ele>219.5</ele><time>2026-04-04T14:22:18.066Z</time></trkpt><trkpt lat="46.2075981" lon="13.2666833"><ele>219.0</ele><time>2026-04-04T14:22:19.067Z</time></trkpt><trkpt lat="46.2074746" lon="13.2666899"><ele>219.0</ele><time>2026-04-04T14:22:20.066Z</time></trkpt><trkpt lat="46.2073459" lon="13.2666751"><ele>219.0</ele><time>2026-04-04T14:22:21.066Z</time></trkpt><trkpt lat="46.2072184" lon="13.2666494"><ele>219.0</ele><time>2026-04-04T14:22:22.066Z</time></trkpt><trkpt lat="46.2070914" lon="13.2666138"><ele>219.0</ele><time>2026-04-04T14:22:23.065Z</time></trkpt><trkpt lat="46.2069704" lon="13.2665739"><ele>219.0</ele><time>2026-04-04T14:22:24.066Z</time></trkpt><trkpt lat="46.2068627" lon="13.2665141"><ele>218.99999999999997</ele><time>2026-04-04T14:22:25.065Z</time></trkpt><trkpt lat="46.2067632" lon="13.2664389"><ele>218.99999999999997</ele><time>2026-04-04T14:22:26.066Z</time></trkpt><trkpt lat="46.2066689" lon="13.2663606"><ele>219.0</ele><time>2026-04-04T14:22:27.066Z</time></trkpt><trkpt lat="46.2065702" lon="13.2662984"><ele>219.0</ele><time>2026-04-04T14:22:28.065Z</time></trkpt><trkpt lat="46.2064629" lon="13.2662458"><ele>218.0</ele><time>2026-04-04T14:22:29.066Z</time></trkpt><trkpt lat="46.2063459" lon="13.2662059"><ele>217.0</ele><time>2026-04-04T14:22:30.066Z</time></trkpt><trkpt lat="46.2062235" lon="13.2661685"><ele>216.0</ele><time>2026-04-04T14:22:31.066Z</time></trkpt><trkpt lat="46.2060958" lon="13.2661283"><ele>215.0</ele><time>2026-04-04T14:22:32.065Z</time></trkpt><trkpt lat="46.2059674" lon="13.2660887"><ele>215.0</ele><time>2026-04-04T14:22:33.066Z</time></trkpt><trkpt lat="46.2058499" lon="13.2660396"><ele>215.0</ele><time>2026-04-04T14:22:34.066Z</time></trkpt><trkpt lat="46.2057362" lon="13.2659836"><ele>215.0</ele><time>2026-04-04T14:22:35.066Z</time></trkpt><trkpt lat="46.2056183" lon="13.2659309"><ele>215.0</ele><time>2026-04-04T14:22:36.066Z</time></trkpt><trkpt lat="46.205491" lon="13.2658757"><ele>214.75</ele><time>2026-04-04T14:22:37.065Z</time></trkpt><trkpt lat="46.2053579" lon="13.2658181"><ele>214.5</ele><time>2026-04-04T14:22:38.066Z</time></trkpt><trkpt lat="46.2052258" lon="13.2657596"><ele>214.25</ele><time>2026-04-04T14:22:39.065Z</time></trkpt><trkpt lat="46.2050991" lon="13.2657082"><ele>214.0</ele><time>2026-04-04T14:22:40.066Z</time></trkpt><trkpt lat="46.2049696" lon="13.2656497"><ele>214.0</ele><time>2026-04-04T14:22:41.066Z</time></trkpt><trkpt lat="46.2048413" lon="13.265591"><ele>214.0</ele><time>2026-04-04T14:22:42.065Z</time></trkpt><trkpt lat="46.2047109" lon="13.2655309"><ele>214.0</ele><time>2026-04-04T14:22:43.066Z</time></trkpt><trkpt lat="46.2045818" lon="13.2654709"><ele>214.0</ele><time>2026-04-04T14:22:44.065Z</time></trkpt><trkpt lat="46.204463" lon="13.2654167"><ele>214.0</ele><time>2026-04-04T14:22:45.066Z</time></trkpt><trkpt lat="46.2043449" lon="13.2653632"><ele>214.0</ele><time>2026-04-04T14:22:46.065Z</time></trkpt><trkpt lat="46.2042246" lon="13.265309"><ele>214.0</ele><time>2026-04-04T14:22:47.066Z</time></trkpt><trkpt lat="46.2041023" lon="13.2652567"><ele>214.0</ele><time>2026-04-04T14:22:48.066Z</time></trkpt><trkpt lat="46.2039733" lon="13.2652186"><ele>213.75</ele><time>2026-04-04T14:22:49.067Z</time></trkpt><trkpt lat="46.2038408" lon="13.2651894"><ele>213.5</ele><time>2026-04-04T14:22:50.065Z</time></trkpt><trkpt lat="46.2037059" lon="13.2651637"><ele>213.25</ele><time>2026-04-04T14:22:51.065Z</time></trkpt><trkpt lat="46.2035825" lon="13.2651431"><ele>213.0</ele><time>2026-04-04T14:22:52.065Z</time></trkpt><trkpt lat="46.2034657" lon="13.2651225"><ele>213.0</ele><time>2026-04-04T14:22:53.065Z</time></trkpt><trkpt lat="46.2033601" lon="13.2651033"><ele>213.0</ele><time>2026-04-04T14:22:54.066Z</time></trkpt><trkpt lat="46.2032677" lon="13.2650745"><ele>213.0</ele><time>2026-04-04T14:22:55.067Z</time></trkpt><trkpt lat="46.2031785" lon="13.265023"><ele>213.0</ele><time>2026-04-04T14:22:56.065Z</time></trkpt><trkpt lat="46.2031025" lon="13.2649264"><ele>213.0</ele><time>2026-04-04T14:22:57.066Z</time></trkpt><trkpt lat="46.2030487" lon="13.2647927"><ele>213.2</ele><time>2026-04-04T14:22:58.065Z</time></trkpt><trkpt lat="46.2030201" lon="13.264647"><ele>213.4</ele><time>2026-04-04T14:22:59.066Z</time></trkpt><trkpt lat="46.2029823" lon="13.2645082"><ele>213.59999999999997</ele><time>2026-04-04T14:23:00.066Z</time></trkpt><trkpt lat="46.2029194" lon="13.2644056"><ele>213.79999999999998</ele><time>2026-04-04T14:23:01.067Z</time></trkpt><trkpt lat="46.2028407" lon="13.2643266"><ele>214.0</ele><time>2026-04-04T14:23:02.066Z</time></trkpt><trkpt lat="46.2027529" lon="13.2642561"><ele>214.0</ele><time>2026-04-04T14:23:03.065Z</time></trkpt><trkpt lat="46.2026561" lon="13.2641831"><ele>213.99999999999997</ele><time>2026-04-04T14:23:04.066Z</time></trkpt><trkpt lat="46.2025546" lon="13.2641266"><ele>213.99999999999997</ele><time>2026-04-04T14:23:05.066Z</time></trkpt><trkpt lat="46.2024494" lon="13.2640966"><ele>214.0</ele><time>2026-04-04T14:23:06.065Z</time></trkpt><trkpt lat="46.2023392" lon="13.2640765"><ele>214.0</ele><time>2026-04-04T14:23:07.067Z</time></trkpt><trkpt lat="46.2022303" lon="13.264075"><ele>213.5</ele><time>2026-04-04T14:23:08.065Z</time></trkpt><trkpt lat="46.2021178" lon="13.2640773"><ele>213.0</ele><time>2026-04-04T14:23:09.067Z</time></trkpt><trkpt lat="46.2020005" lon="13.2640765"><ele>212.5</ele><time>2026-04-04T14:23:10.066Z</time></trkpt><trkpt lat="46.2018784" lon="13.2640782"><ele>212.0</ele><time>2026-04-04T14:23:11.066Z</time></trkpt><trkpt lat="46.2017517" lon="13.2640797"><ele>212.0</ele><time>2026-04-04T14:23:12.066Z</time></trkpt><trkpt lat="46.2016231" lon="13.2640806"><ele>212.0</ele><time>2026-04-04T14:23:13.066Z</time></trkpt><trkpt lat="46.2015076" lon="13.2640839"><ele>212.0</ele><time>2026-04-04T14:23:14.066Z</time></trkpt><trkpt lat="46.2013988" lon="13.264086"><ele>212.0</ele><time>2026-04-04T14:23:15.067Z</time></trkpt><trkpt lat="46.2012955" lon="13.2640844"><ele>211.5</ele><time>2026-04-04T14:23:16.065Z</time></trkpt><trkpt lat="46.2011883" lon="13.2640822"><ele>211.0</ele><time>2026-04-04T14:23:17.065Z</time></trkpt><trkpt lat="46.2010705" lon="13.2640759"><ele>210.5</ele><time>2026-04-04T14:23:18.066Z</time></trkpt><trkpt lat="46.2009467" lon="13.2640679"><ele>210.0</ele><time>2026-04-04T14:23:19.067Z</time></trkpt><trkpt lat="46.2008194" lon="13.2640506"><ele>210.0</ele><time>2026-04-04T14:23:20.066Z</time></trkpt><trkpt lat="46.200686" lon="13.2640316"><ele>210.0</ele><time>2026-04-04T14:23:21.066Z</time></trkpt><trkpt lat="46.2005489" lon="13.2640142"><ele>210.0</ele><time>2026-04-04T14:23:22.065Z</time></trkpt><trkpt lat="46.2004043" lon="13.2639988"><ele>210.0</ele><time>2026-04-04T14:23:23.066Z</time></trkpt><trkpt lat="46.2002614" lon="13.2639839"><ele>209.25</ele><time>2026-04-04T14:23:24.065Z</time></trkpt><trkpt lat="46.2001126" lon="13.2639693"><ele>208.5</ele><time>2026-04-04T14:23:25.067Z</time></trkpt><trkpt lat="46.1999648" lon="13.2639538"><ele>207.75</ele><time>2026-04-04T14:23:26.065Z</time></trkpt><trkpt lat="46.1998149" lon="13.2639363"><ele>207.0</ele><time>2026-04-04T14:23:27.066Z</time></trkpt><trkpt lat="46.1996638" lon="13.2639228"><ele>207.0</ele><time>2026-04-04T14:23:28.066Z</time></trkpt><trkpt lat="46.1995094" lon="13.2639112"><ele>207.0</ele><time>2026-04-04T14:23:29.066Z</time></trkpt><trkpt lat="46.1993522" lon="13.2638938"><ele>207.0</ele><time>2026-04-04T14:23:30.065Z</time></trkpt><trkpt lat="46.1991982" lon="13.2638757"><ele>207.0</ele><time>2026-04-04T14:23:31.066Z</time></trkpt><trkpt lat="46.199044" lon="13.263862"><ele>207.0</ele><time>2026-04-04T14:23:32.065Z</time></trkpt><trkpt lat="46.1988901" lon="13.2638412"><ele>207.0</ele><time>2026-04-04T14:23:33.066Z</time></trkpt><trkpt lat="46.1987471" lon="13.2638052"><ele>206.5</ele><time>2026-04-04T14:23:34.066Z</time></trkpt><trkpt lat="46.1986113" lon="13.2637543"><ele>206.0</ele><time>2026-04-04T14:23:35.066Z</time></trkpt><trkpt lat="46.1984755" lon="13.2636944"><ele>205.5</ele><time>2026-04-04T14:23:36.065Z</time></trkpt><trkpt lat="46.1983373" lon="13.2636336"><ele>205.0</ele><time>2026-04-04T14:23:37.065Z</time></trkpt><trkpt lat="46.1981991" lon="13.2635759"><ele>205.0</ele><time>2026-04-04T14:23:38.065Z</time></trkpt><trkpt lat="46.198069" lon="13.2635197"><ele>205.0</ele><time>2026-04-04T14:23:39.066Z</time></trkpt><trkpt lat="46.1979443" lon="13.2634627"><ele>205.0</ele><time>2026-04-04T14:23:40.066Z</time></trkpt><trkpt lat="46.1978285" lon="13.2634146"><ele>205.0</ele><time>2026-04-04T14:23:41.066Z</time></trkpt><trkpt lat="46.1977213" lon="13.2633677"><ele>204.99999999999997</ele><time>2026-04-04T14:23:42.066Z</time></trkpt><trkpt lat="46.1976354" lon="13.2633313"><ele>205.0</ele><time>2026-04-04T14:23:43.066Z</time></trkpt><trkpt lat="46.1975593" lon="13.2632973"><ele>205.0</ele><time>2026-04-04T14:23:44.065Z</time></trkpt><trkpt lat="46.1974934" lon="13.2632669"><ele>205.0</ele><time>2026-04-04T14:23:45.066Z</time></trkpt><trkpt lat="46.1974303" lon="13.2632354"><ele>204.99999999999997</ele><time>2026-04-04T14:23:46.066Z</time></trkpt><trkpt lat="46.1973711" lon="13.2631997"><ele>205.0</ele><time>2026-04-04T14:23:47.065Z</time></trkpt><trkpt lat="46.1972845" lon="13.2631135"><ele>204.99999999999997</ele><time>2026-04-04T14:23:49.066Z</time></trkpt><trkpt lat="46.1972399" lon="13.2630301"><ele>205.0</ele><time>2026-04-04T14:23:51.065Z</time></trkpt><trkpt lat="46.1972124" lon="13.2629456"><ele>205.0</ele><time>2026-04-04T14:23:52.066Z</time></trkpt><trkpt lat="46.1971785" lon="13.2628374"><ele>205.0</ele><time>2026-04-04T14:23:53.066Z</time></trkpt><trkpt lat="46.197136" lon="13.2627065"><ele>204.99999999999997</ele><time>2026-04-04T14:23:54.065Z</time></trkpt><trkpt lat="46.1970893" lon="13.262555"><ele>205.0</ele><time>2026-04-04T14:23:55.066Z</time></trkpt><trkpt lat="46.1970363" lon="13.2623925"><ele>204.75</ele><time>2026-04-04T14:23:56.066Z</time></trkpt><trkpt lat="46.1969749" lon="13.2622131"><ele>204.5</ele><time>2026-04-04T14:23:57.065Z</time></trkpt><trkpt lat="46.1969107" lon="13.2620232"><ele>204.25</ele><time>2026-04-04T14:23:58.066Z</time></trkpt><trkpt lat="46.1968458" lon="13.2618435"><ele>204.0</ele><time>2026-04-04T14:23:59.066Z</time></trkpt><trkpt lat="46.196776" lon="13.2616645"><ele>204.0</ele><time>2026-04-04T14:24:00.065Z</time></trkpt><trkpt lat="46.1966991" lon="13.2614936"><ele>204.0</ele><time>2026-04-04T14:24:01.065Z</time></trkpt><trkpt lat="46.1966267" lon="13.2613301"><ele>204.0</ele><time>2026-04-04T14:24:02.066Z</time></trkpt><trkpt lat="46.1965662" lon="13.2611599"><ele>204.0</ele><time>2026-04-04T14:24:03.065Z</time></trkpt><trkpt lat="46.1965203" lon="13.2609924"><ele>203.75</ele><time>2026-04-04T14:24:04.066Z</time></trkpt><trkpt lat="46.1964831" lon="13.2608141"><ele>203.5</ele><time>2026-04-04T14:24:05.066Z</time></trkpt><trkpt lat="46.1964598" lon="13.2606269"><ele>203.25</ele><time>2026-04-04T14:24:06.066Z</time></trkpt><trkpt lat="46.1964531" lon="13.2604269"><ele>203.0</ele><time>2026-04-04T14:24:07.066Z</time></trkpt><trkpt lat="46.1964499" lon="13.2602126"><ele>203.0</ele><time>2026-04-04T14:24:08.065Z</time></trkpt><trkpt lat="46.196446" lon="13.2599813"><ele>203.0</ele><time>2026-04-04T14:24:09.065Z</time></trkpt><trkpt lat="46.1964429" lon="13.2597497"><ele>203.0</ele><time>2026-04-04T14:24:10.067Z</time></trkpt><trkpt lat="46.1964421" lon="13.2595292"><ele>203.25</ele><time>2026-04-04T14:24:11.066Z</time></trkpt><trkpt lat="46.1964433" lon="13.2593317"><ele>203.5</ele><time>2026-04-04T14:24:12.066Z</time></trkpt><trkpt lat="46.196443" lon="13.2591485"><ele>203.75</ele><time>2026-04-04T14:24:13.065Z</time></trkpt><trkpt lat="46.1964358" lon="13.2589818"><ele>204.0</ele><time>2026-04-04T14:24:14.066Z</time></trkpt><trkpt lat="46.1964154" lon="13.2588364"><ele>204.0</ele><time>2026-04-04T14:24:15.065Z</time></trkpt><trkpt lat="46.1963655" lon="13.2587059"><ele>204.0</ele><time>2026-04-04T14:24:16.066Z</time></trkpt><trkpt lat="46.1962957" lon="13.258586"><ele>204.0</ele><time>2026-04-04T14:24:17.066Z</time></trkpt><trkpt lat="46.1962205" lon="13.2584612"><ele>204.0</ele><time>2026-04-04T14:24:18.066Z</time></trkpt><trkpt lat="46.1961527" lon="13.2583228"><ele>204.0</ele><time>2026-04-04T14:24:19.067Z</time></trkpt><trkpt lat="46.1960921" lon="13.2581762"><ele>203.25</ele><time>2026-04-04T14:24:20.066Z</time></trkpt><trkpt lat="46.1960485" lon="13.2580185"><ele>202.5</ele><time>2026-04-04T14:24:21.065Z</time></trkpt><trkpt lat="46.1960245" lon="13.2578394"><ele>201.75</ele><time>2026-04-04T14:24:22.065Z</time></trkpt><trkpt lat="46.1960263" lon="13.257651"><ele>201.0</ele><time>2026-04-04T14:24:23.067Z</time></trkpt><trkpt lat="46.1960489" lon="13.2574546"><ele>200.75</ele><time>2026-04-04T14:24:24.066Z</time></trkpt><trkpt lat="46.1960784" lon="13.2572552"><ele>200.5</ele><time>2026-04-04T14:24:25.066Z</time></trkpt><trkpt lat="46.1960837" lon="13.2570444"><ele>200.25</ele><time>2026-04-04T14:24:26.065Z</time></trkpt><trkpt lat="46.1960642" lon="13.2568345"><ele>200.0</ele><time>2026-04-04T14:24:27.065Z</time></trkpt><trkpt lat="46.1960353" lon="13.2566376"><ele>199.75</ele><time>2026-04-04T14:24:28.066Z</time></trkpt><trkpt lat="46.1960087" lon="13.2564525"><ele>199.5</ele><time>2026-04-04T14:24:29.065Z</time></trkpt><trkpt lat="46.1959799" lon="13.2562781"><ele>199.25</ele><time>2026-04-04T14:24:30.066Z</time></trkpt><trkpt lat="46.1959479" lon="13.2561155"><ele>199.0</ele><time>2026-04-04T14:24:31.067Z</time></trkpt><trkpt lat="46.1958992" lon="13.2559663"><ele>199.0</ele><time>2026-04-04T14:24:32.066Z</time></trkpt><trkpt lat="46.195822" lon="13.2558387"><ele>199.0</ele><time>2026-04-04T14:24:33.066Z</time></trkpt><trkpt lat="46.1957205" lon="13.2557281"><ele>199.0</ele><time>2026-04-04T14:24:34.066Z</time></trkpt><trkpt lat="46.195603" lon="13.2556181"><ele>199.0</ele><time>2026-04-04T14:24:35.065Z</time></trkpt><trkpt lat="46.1954801" lon="13.2554926"><ele>197.66666666666666</ele><time>2026-04-04T14:24:36.066Z</time></trkpt><trkpt lat="46.1953642" lon="13.25535"><ele>196.33333333333331</ele><time>2026-04-04T14:24:37.065Z</time></trkpt><trkpt lat="46.1952667" lon="13.2551883"><ele>195.0</ele><time>2026-04-04T14:24:38.067Z</time></trkpt><trkpt lat="46.1951849" lon="13.2549994"><ele>195.0</ele><time>2026-04-04T14:24:39.066Z</time></trkpt><trkpt lat="46.195117" lon="13.2547879"><ele>195.0</ele><time>2026-04-04T14:24:40.066Z</time></trkpt><trkpt lat="46.1950502" lon="13.2545642"><ele>195.0</ele><time>2026-04-04T14:24:41.065Z</time></trkpt><trkpt lat="46.194979" lon="13.2543259"><ele>194.66666666666669</ele><time>2026-04-04T14:24:42.066Z</time></trkpt><trkpt lat="46.194907" lon="13.2540748"><ele>194.33333333333334</ele><time>2026-04-04T14:24:43.065Z</time></trkpt><trkpt lat="46.1948408" lon="13.2538149"><ele>194.0</ele><time>2026-04-04T14:24:44.065Z</time></trkpt><trkpt lat="46.194776" lon="13.2535513"><ele>194.0</ele><time>2026-04-04T14:24:45.066Z</time></trkpt><trkpt lat="46.1947205" lon="13.253297"><ele>194.0</ele><time>2026-04-04T14:24:46.065Z</time></trkpt><trkpt lat="46.1946795" lon="13.2530476"><ele>194.0</ele><time>2026-04-04T14:24:47.066Z</time></trkpt><trkpt lat="46.1946521" lon="13.2528019"><ele>194.0</ele><time>2026-04-04T14:24:48.067Z</time></trkpt><trkpt lat="46.1946362" lon="13.2525513"><ele>194.0</ele><time>2026-04-04T14:24:49.065Z</time></trkpt><trkpt lat="46.1946345" lon="13.2522952"><ele>194.0</ele><time>2026-04-04T14:24:50.067Z</time></trkpt><trkpt lat="46.1946485" lon="13.2520358"><ele>193.33333333333334</ele><time>2026-04-04T14:24:51.065Z</time></trkpt><trkpt lat="46.1946755" lon="13.2517744"><ele>192.66666666666669</ele><time>2026-04-04T14:24:52.067Z</time></trkpt><trkpt lat="46.1947141" lon="13.2515161"><ele>192.0</ele><time>2026-04-04T14:24:53.066Z</time></trkpt><trkpt lat="46.1947646" lon="13.2512614"><ele>192.0</ele><time>2026-04-04T14:24:54.066Z</time></trkpt><trkpt lat="46.1948256" lon="13.2510024"><ele>192.0</ele><time>2026-04-04T14:24:55.066Z</time></trkpt><trkpt lat="46.1948995" lon="13.250743"><ele>192.0</ele><time>2026-04-04T14:24:56.066Z</time></trkpt><trkpt lat="46.1949752" lon="13.2504754"><ele>192.0</ele><time>2026-04-04T14:24:57.065Z</time></trkpt><trkpt lat="46.1950494" lon="13.250202"><ele>192.0</ele><time>2026-04-04T14:24:58.066Z</time></trkpt><trkpt lat="46.195121" lon="13.2499244"><ele>192.0</ele><time>2026-04-04T14:24:59.066Z</time></trkpt><trkpt lat="46.1951927" lon="13.2496499"><ele>192.0</ele><time>2026-04-04T14:25:00.065Z</time></trkpt><trkpt lat="46.1952632" lon="13.2493751"><ele>192.0</ele><time>2026-04-04T14:25:01.066Z</time></trkpt><trkpt lat="46.1953332" lon="13.2490986"><ele>192.0</ele><time>2026-04-04T14:25:02.066Z</time></trkpt><trkpt lat="46.1954055" lon="13.2488174"><ele>192.0</ele><time>2026-04-04T14:25:03.065Z</time></trkpt><trkpt lat="46.1954832" lon="13.2485205"><ele>192.0</ele><time>2026-04-04T14:25:04.065Z</time></trkpt><trkpt lat="46.1955639" lon="13.2482114"><ele>192.0</ele><time>2026-04-04T14:25:05.065Z</time></trkpt><trkpt lat="46.1956471" lon="13.2478937"><ele>196.0</ele><time>2026-04-04T14:25:06.066Z</time></trkpt><trkpt lat="46.1957296" lon="13.247577"><ele>200.0</ele><time>2026-04-04T14:25:07.066Z</time></trkpt><trkpt lat="46.1958082" lon="13.247272"><ele>200.0</ele><time>2026-04-04T14:25:08.066Z</time></trkpt><trkpt lat="46.1958849" lon="13.2469826"><ele>200.0</ele><time>2026-04-04T14:25:09.066Z</time></trkpt><trkpt lat="46.1959518" lon="13.2467037"><ele>200.0</ele><time>2026-04-04T14:25:10.067Z</time></trkpt><trkpt lat="46.1960018" lon="13.2464236"><ele>199.66666666666669</ele><time>2026-04-04T14:25:11.065Z</time></trkpt><trkpt lat="46.1960286" lon="13.246139"><ele>199.33333333333331</ele><time>2026-04-04T14:25:12.066Z</time></trkpt><trkpt lat="46.1960382" lon="13.2458472"><ele>199.0</ele><time>2026-04-04T14:25:13.065Z</time></trkpt><trkpt lat="46.1960358" lon="13.2455431"><ele>198.0</ele><time>2026-04-04T14:25:14.066Z</time></trkpt><trkpt lat="46.1960342" lon="13.245228"><ele>197.0</ele><time>2026-04-04T14:25:15.065Z</time></trkpt><trkpt lat="46.1960328" lon="13.244904"><ele>196.0</ele><time>2026-04-04T14:25:16.066Z</time></trkpt><trkpt lat="46.1960316" lon="13.2445763"><ele>195.5</ele><time>2026-04-04T14:25:17.065Z</time></trkpt><trkpt lat="46.1960367" lon="13.2442493"><ele>195.0</ele><time>2026-04-04T14:25:18.066Z</time></trkpt><trkpt lat="46.196051" lon="13.2439261"><ele>195.0</ele><time>2026-04-04T14:25:19.065Z</time></trkpt><trkpt lat="46.1960753" lon="13.2436058"><ele>195.0</ele><time>2026-04-04T14:25:20.065Z</time></trkpt><trkpt lat="46.1961005" lon="13.2432976"><ele>195.0</ele><time>2026-04-04T14:25:21.066Z</time></trkpt><trkpt lat="46.1961145" lon="13.242997"><ele>195.0</ele><time>2026-04-04T14:25:22.066Z</time></trkpt><trkpt lat="46.1961035" lon="13.242704"><ele>195.0</ele><time>2026-04-04T14:25:23.065Z</time></trkpt><trkpt lat="46.1960736" lon="13.2424211"><ele>195.0</ele><time>2026-04-04T14:25:24.066Z</time></trkpt><trkpt lat="46.1960388" lon="13.2421482"><ele>195.0</ele><time>2026-04-04T14:25:25.065Z</time></trkpt><trkpt lat="46.1960069" lon="13.241878"><ele>195.0</ele><time>2026-04-04T14:25:26.066Z</time></trkpt><trkpt lat="46.1959763" lon="13.2416207"><ele>195.0</ele><time>2026-04-04T14:25:27.066Z</time></trkpt><trkpt lat="46.1959154" lon="13.2411558"><ele>195.0</ele><time>2026-04-04T14:25:29.066Z</time></trkpt><trkpt lat="46.1958889" lon="13.2409462"><ele>195.0</ele><time>2026-04-04T14:25:30.066Z</time></trkpt><trkpt lat="46.1958657" lon="13.2407457"><ele>195.0</ele><time>2026-04-04T14:25:31.065Z</time></trkpt><trkpt lat="46.1958435" lon="13.240544"><ele>195.0</ele><time>2026-04-04T14:25:32.066Z</time></trkpt><trkpt lat="46.1958188" lon="13.2403324"><ele>195.0</ele><time>2026-04-04T14:25:33.066Z</time></trkpt><trkpt lat="46.1957918" lon="13.2401118"><ele>195.0</ele><time>2026-04-04T14:25:34.066Z</time></trkpt><trkpt lat="46.1957659" lon="13.2398786"><ele>195.0</ele><time>2026-04-04T14:25:35.066Z</time></trkpt><trkpt lat="46.1957453" lon="13.2396392"><ele>196.33333333333331</ele><time>2026-04-04T14:25:36.066Z</time></trkpt><trkpt lat="46.1957338" lon="13.2393911"><ele>197.66666666666666</ele><time>2026-04-04T14:25:37.066Z</time></trkpt><trkpt lat="46.1957377" lon="13.2391375"><ele>199.0</ele><time>2026-04-04T14:25:38.066Z</time></trkpt><trkpt lat="46.1957546" lon="13.2388844"><ele>199.66666666666666</ele><time>2026-04-04T14:25:39.066Z</time></trkpt><trkpt lat="46.1957776" lon="13.2386268"><ele>200.33333333333331</ele><time>2026-04-04T14:25:40.066Z</time></trkpt><trkpt lat="46.1957972" lon="13.2383755"><ele>201.0</ele><time>2026-04-04T14:25:41.066Z</time></trkpt><trkpt lat="46.1958144" lon="13.2381325"><ele>201.0</ele><time>2026-04-04T14:25:42.067Z</time></trkpt><trkpt lat="46.195836" lon="13.2378944"><ele>201.0</ele><time>2026-04-04T14:25:43.066Z</time></trkpt><trkpt lat="46.1958622" lon="13.2376582"><ele>201.0</ele><time>2026-04-04T14:25:44.065Z</time></trkpt><trkpt lat="46.1958916" lon="13.2374235"><ele>200.0</ele><time>2026-04-04T14:25:45.065Z</time></trkpt><trkpt lat="46.195929" lon="13.2372076"><ele>199.0</ele><time>2026-04-04T14:25:46.066Z</time></trkpt><trkpt lat="46.1959973" lon="13.2370059"><ele>198.0</ele><time>2026-04-04T14:25:47.066Z</time></trkpt><trkpt lat="46.1960923" lon="13.2368192"><ele>198.0</ele><time>2026-04-04T14:25:48.066Z</time></trkpt><trkpt lat="46.1962015" lon="13.2366365"><ele>198.0</ele><time>2026-04-04T14:25:49.065Z</time></trkpt><trkpt lat="46.1963211" lon="13.2364494"><ele>198.0</ele><time>2026-04-04T14:25:50.066Z</time></trkpt><trkpt lat="46.1964484" lon="13.2362512"><ele>198.0</ele><time>2026-04-04T14:25:51.066Z</time></trkpt><trkpt lat="46.1965798" lon="13.2360448"><ele>198.0</ele><time>2026-04-04T14:25:52.065Z</time></trkpt><trkpt lat="46.1967126" lon="13.2358353"><ele>198.0</ele><time>2026-04-04T14:25:53.067Z</time></trkpt><trkpt lat="46.1968422" lon="13.2356268"><ele>198.33333333333331</ele><time>2026-04-04T14:25:54.066Z</time></trkpt><trkpt lat="46.1969707" lon="13.2354199"><ele>198.66666666666666</ele><time>2026-04-04T14:25:55.065Z</time></trkpt><trkpt lat="46.197095" lon="13.2352215"><ele>199.0</ele><time>2026-04-04T14:25:56.066Z</time></trkpt><trkpt lat="46.1973456" lon="13.2348415"><ele>200.0</ele><time>2026-04-04T14:25:58.066Z</time></trkpt><trkpt lat="46.1974828" lon="13.2346715"><ele>201.0</ele><time>2026-04-04T14:25:59.066Z</time></trkpt><trkpt lat="46.1976324" lon="13.2345213"><ele>202.0</ele><time>2026-04-04T14:26:00.065Z</time></trkpt><trkpt lat="46.1977905" lon="13.2343861"><ele>202.0</ele><time>2026-04-04T14:26:01.066Z</time></trkpt><trkpt lat="46.1979483" lon="13.2342539"><ele>202.0</ele><time>2026-04-04T14:26:02.067Z</time></trkpt><trkpt lat="46.1980934" lon="13.2340936"><ele>202.0</ele><time>2026-04-04T14:26:03.065Z</time></trkpt><trkpt lat="46.1982229" lon="13.2339085"><ele>202.66666666666666</ele><time>2026-04-04T14:26:04.066Z</time></trkpt><trkpt lat="46.1983415" lon="13.2337159"><ele>203.33333333333331</ele><time>2026-04-04T14:26:05.065Z</time></trkpt><trkpt lat="46.198453" lon="13.233533"><ele>204.0</ele><time>2026-04-04T14:26:06.066Z</time></trkpt><trkpt lat="46.1985685" lon="13.2333597"><ele>204.0</ele><time>2026-04-04T14:26:07.066Z</time></trkpt><trkpt lat="46.1986999" lon="13.2332073"><ele>204.0</ele><time>2026-04-04T14:26:08.066Z</time></trkpt><trkpt lat="46.198845" lon="13.2330862"><ele>204.0</ele><time>2026-04-04T14:26:09.066Z</time></trkpt><trkpt lat="46.1990036" lon="13.232984"><ele>203.33333333333331</ele><time>2026-04-04T14:26:10.065Z</time></trkpt><trkpt lat="46.1991696" lon="13.2328887"><ele>202.66666666666666</ele><time>2026-04-04T14:26:11.067Z</time></trkpt><trkpt lat="46.1993416" lon="13.232788"><ele>202.0</ele><time>2026-04-04T14:26:12.065Z</time></trkpt><trkpt lat="46.19952" lon="13.2326836"><ele>202.0</ele><time>2026-04-04T14:26:13.066Z</time></trkpt><trkpt lat="46.1996994" lon="13.2325677"><ele>202.0</ele><time>2026-04-04T14:26:14.066Z</time></trkpt><trkpt lat="46.1998779" lon="13.2324387"><ele>202.0</ele><time>2026-04-04T14:26:15.066Z</time></trkpt><trkpt lat="46.2000553" lon="13.2322952"><ele>202.66666666666666</ele><time>2026-04-04T14:26:16.066Z</time></trkpt><trkpt lat="46.2002236" lon="13.2321315"><ele>203.33333333333331</ele><time>2026-04-04T14:26:17.067Z</time></trkpt><trkpt lat="46.2003867" lon="13.2319764"><ele>204.0</ele><time>2026-04-04T14:26:18.066Z</time></trkpt><trkpt lat="46.2005485" lon="13.2318245"><ele>204.0</ele><time>2026-04-04T14:26:19.065Z</time></trkpt><trkpt lat="46.2007063" lon="13.2316742"><ele>204.0</ele><time>2026-04-04T14:26:20.065Z</time></trkpt><trkpt lat="46.2008614" lon="13.2315287"><ele>204.0</ele><time>2026-04-04T14:26:21.066Z</time></trkpt><trkpt lat="46.201017" lon="13.2313844"><ele>204.0</ele><time>2026-04-04T14:26:22.066Z</time></trkpt><trkpt lat="46.2011635" lon="13.2312447"><ele>204.0</ele><time>2026-04-04T14:26:23.065Z</time></trkpt><trkpt lat="46.2012998" lon="13.2311093"><ele>204.0</ele><time>2026-04-04T14:26:24.065Z</time></trkpt><trkpt lat="46.2014336" lon="13.2309904"><ele>204.0</ele><time>2026-04-04T14:26:25.066Z</time></trkpt><trkpt lat="46.2015545" lon="13.2308773"><ele>204.0</ele><time>2026-04-04T14:26:26.066Z</time></trkpt><trkpt lat="46.2016774" lon="13.2307739"><ele>204.0</ele><time>2026-04-04T14:26:27.066Z</time></trkpt><trkpt lat="46.2018038" lon="13.230684"><ele>204.0</ele><time>2026-04-04T14:26:28.065Z</time></trkpt><trkpt lat="46.2019331" lon="13.2305929"><ele>204.0</ele><time>2026-04-04T14:26:29.066Z</time></trkpt><trkpt lat="46.2020687" lon="13.230512"><ele>204.0</ele><time>2026-04-04T14:26:30.066Z</time></trkpt><trkpt lat="46.2022053" lon="13.2304434"><ele>204.0</ele><time>2026-04-04T14:26:31.067Z</time></trkpt><trkpt lat="46.2023426" lon="13.2303808"><ele>204.0</ele><time>2026-04-04T14:26:32.065Z</time></trkpt><trkpt lat="46.2024776" lon="13.2303271"><ele>205.0</ele><time>2026-04-04T14:26:33.065Z</time></trkpt><trkpt lat="46.2026107" lon="13.2302755"><ele>206.0</ele><time>2026-04-04T14:26:34.066Z</time></trkpt><trkpt lat="46.2027379" lon="13.2302209"><ele>207.0</ele><time>2026-04-04T14:26:35.066Z</time></trkpt><trkpt lat="46.2028615" lon="13.2301647"><ele>208.0</ele><time>2026-04-04T14:26:36.066Z</time></trkpt><trkpt lat="46.2029808" lon="13.2301121"><ele>208.0</ele><time>2026-04-04T14:26:37.066Z</time></trkpt><trkpt lat="46.2030908" lon="13.2300501"><ele>208.0</ele><time>2026-04-04T14:26:38.066Z</time></trkpt><trkpt lat="46.2031795" lon="13.229966"><ele>208.0</ele><time>2026-04-04T14:26:39.067Z</time></trkpt><trkpt lat="46.2032321" lon="13.2298506"><ele>208.0</ele><time>2026-04-04T14:26:40.066Z</time></trkpt><trkpt lat="46.2032583" lon="13.2297333"><ele>208.0</ele><time>2026-04-04T14:26:41.065Z</time></trkpt><trkpt lat="46.2032631" lon="13.229618"><ele>208.14285714285714</ele><time>2026-04-04T14:26:42.066Z</time></trkpt><trkpt lat="46.2032629" lon="13.2295107"><ele>208.2857142857143</ele><time>2026-04-04T14:26:43.065Z</time></trkpt><trkpt lat="46.2032668" lon="13.2294068"><ele>208.42857142857144</ele><time>2026-04-04T14:26:44.065Z</time></trkpt><trkpt lat="46.2032701" lon="13.2293049"><ele>208.57142857142856</ele><time>2026-04-04T14:26:45.065Z</time></trkpt><trkpt lat="46.203273" lon="13.2292065"><ele>208.71428571428572</ele><time>2026-04-04T14:26:46.065Z</time></trkpt><trkpt lat="46.2032714" lon="13.2291111"><ele>208.85714285714286</ele><time>2026-04-04T14:26:47.065Z</time></trkpt><trkpt lat="46.203271" lon="13.2290179"><ele>209.0</ele><time>2026-04-04T14:26:48.066Z</time></trkpt><trkpt lat="46.2032724" lon="13.2289235"><ele>209.00000000000003</ele><time>2026-04-04T14:26:49.067Z</time></trkpt><trkpt lat="46.2032754" lon="13.2288188"><ele>209.0</ele><time>2026-04-04T14:26:50.066Z</time></trkpt><trkpt lat="46.2032788" lon="13.2287063"><ele>209.0</ele><time>2026-04-04T14:26:51.065Z</time></trkpt><trkpt lat="46.2032844" lon="13.2285943"><ele>209.0</ele><time>2026-04-04T14:26:52.065Z</time></trkpt><trkpt lat="46.2032976" lon="13.2284795"><ele>209.00000000000003</ele><time>2026-04-04T14:26:53.065Z</time></trkpt><trkpt lat="46.20333" lon="13.2283667"><ele>209.0</ele><time>2026-04-04T14:26:54.065Z</time></trkpt><trkpt lat="46.2033845" lon="13.22826"><ele>209.0</ele><time>2026-04-04T14:26:55.065Z</time></trkpt><trkpt lat="46.2034581" lon="13.2281688"><ele>209.0</ele><time>2026-04-04T14:26:56.066Z</time></trkpt><trkpt lat="46.2035495" lon="13.2280878"><ele>209.0</ele><time>2026-04-04T14:26:57.065Z</time></trkpt><trkpt lat="46.2036574" lon="13.228017"><ele>209.0</ele><time>2026-04-04T14:26:58.066Z</time></trkpt><trkpt lat="46.2037751" lon="13.2279492"><ele>209.0</ele><time>2026-04-04T14:26:59.066Z</time></trkpt><trkpt lat="46.2038962" lon="13.2278859"><ele>209.0</ele><time>2026-04-04T14:27:00.065Z</time></trkpt><trkpt lat="46.2040068" lon="13.2278285"><ele>209.0</ele><time>2026-04-04T14:27:01.065Z</time></trkpt><trkpt lat="46.2041123" lon="13.2277736"><ele>209.0</ele><time>2026-04-04T14:27:02.065Z</time></trkpt><trkpt lat="46.2042206" lon="13.2277164"><ele>209.0</ele><time>2026-04-04T14:27:03.065Z</time></trkpt><trkpt lat="46.2043269" lon="13.2276641"><ele>209.0</ele><time>2026-04-04T14:27:04.065Z</time></trkpt><trkpt lat="46.2044258" lon="13.2276114"><ele>209.0</ele><time>2026-04-04T14:27:05.066Z</time></trkpt><trkpt lat="46.2045172" lon="13.2275629"><ele>209.0</ele><time>2026-04-04T14:27:06.065Z</time></trkpt><trkpt lat="46.2046114" lon="13.2275164"><ele>209.0</ele><time>2026-04-04T14:27:07.065Z</time></trkpt><trkpt lat="46.2047113" lon="13.2274689"><ele>209.0</ele><time>2026-04-04T14:27:08.065Z</time></trkpt><trkpt lat="46.2048185" lon="13.2274145"><ele>209.5</ele><time>2026-04-04T14:27:09.065Z</time></trkpt><trkpt lat="46.2049288" lon="13.2273516"><ele>210.0</ele><time>2026-04-04T14:27:10.066Z</time></trkpt><trkpt lat="46.2050466" lon="13.2272879"><ele>210.5</ele><time>2026-04-04T14:27:11.065Z</time></trkpt><trkpt lat="46.2051677" lon="13.2272249"><ele>211.0</ele><time>2026-04-04T14:27:12.065Z</time></trkpt><trkpt lat="46.2052926" lon="13.2271647"><ele>211.60000000000002</ele><time>2026-04-04T14:27:13.066Z</time></trkpt><trkpt lat="46.2054107" lon="13.2271082"><ele>212.2</ele><time>2026-04-04T14:27:14.065Z</time></trkpt><trkpt lat="46.2055212" lon="13.2270554"><ele>212.79999999999998</ele><time>2026-04-04T14:27:15.066Z</time></trkpt><trkpt lat="46.2056207" lon="13.2270044"><ele>213.39999999999998</ele><time>2026-04-04T14:27:16.066Z</time></trkpt><trkpt lat="46.2057118" lon="13.2269601"><ele>214.0</ele><time>2026-04-04T14:27:17.065Z</time></trkpt><trkpt lat="46.2058044" lon="13.2269147"><ele>214.25</ele><time>2026-04-04T14:27:18.066Z</time></trkpt><trkpt lat="46.2059017" lon="13.226865"><ele>214.5</ele><time>2026-04-04T14:27:19.065Z</time></trkpt><trkpt lat="46.206003" lon="13.2268108"><ele>214.75</ele><time>2026-04-04T14:27:20.065Z</time></trkpt><trkpt lat="46.2061184" lon="13.2267525"><ele>215.0</ele><time>2026-04-04T14:27:21.066Z</time></trkpt><trkpt lat="46.2062391" lon="13.2266909"><ele>215.0</ele><time>2026-04-04T14:27:22.066Z</time></trkpt><trkpt lat="46.2063634" lon="13.2266296"><ele>215.0</ele><time>2026-04-04T14:27:23.066Z</time></trkpt><trkpt lat="46.2064933" lon="13.2265632"><ele>215.0</ele><time>2026-04-04T14:27:24.067Z</time></trkpt><trkpt lat="46.2066262" lon="13.2264953"><ele>215.0</ele><time>2026-04-04T14:27:25.066Z</time></trkpt><trkpt lat="46.2067593" lon="13.2264296"><ele>215.0</ele><time>2026-04-04T14:27:26.065Z</time></trkpt><trkpt lat="46.206893" lon="13.2263644"><ele>215.0</ele><time>2026-04-04T14:27:27.065Z</time></trkpt><trkpt lat="46.2070244" lon="13.226295"><ele>215.0</ele><time>2026-04-04T14:27:28.066Z</time></trkpt><trkpt lat="46.2071534" lon="13.226229"><ele>215.0</ele><time>2026-04-04T14:27:29.065Z</time></trkpt><trkpt lat="46.2072769" lon="13.2261623"><ele>215.25</ele><time>2026-04-04T14:27:30.065Z</time></trkpt><trkpt lat="46.207399" lon="13.226099"><ele>215.5</ele><time>2026-04-04T14:27:31.066Z</time></trkpt><trkpt lat="46.2075225" lon="13.2260403"><ele>215.75</ele><time>2026-04-04T14:27:32.065Z</time></trkpt><trkpt lat="46.207651" lon="13.2259789"><ele>216.0</ele><time>2026-04-04T14:27:33.066Z</time></trkpt><trkpt lat="46.2077752" lon="13.2259133"><ele>216.0</ele><time>2026-04-04T14:27:34.065Z</time></trkpt><trkpt lat="46.2078913" lon="13.2258433"><ele>216.0</ele><time>2026-04-04T14:27:35.066Z</time></trkpt><trkpt lat="46.2080059" lon="13.2257707"><ele>216.0</ele><time>2026-04-04T14:27:36.065Z</time></trkpt><trkpt lat="46.208118" lon="13.2256886"><ele>216.0</ele><time>2026-04-04T14:27:37.066Z</time></trkpt><trkpt lat="46.2082348" lon="13.2255876"><ele>216.0</ele><time>2026-04-04T14:27:38.065Z</time></trkpt><trkpt lat="46.2083445" lon="13.2254717"><ele>216.0</ele><time>2026-04-04T14:27:39.066Z</time></trkpt><trkpt lat="46.2084533" lon="13.2253473"><ele>216.0</ele><time>2026-04-04T14:27:40.065Z</time></trkpt><trkpt lat="46.2085594" lon="13.2252153"><ele>216.0</ele><time>2026-04-04T14:27:41.066Z</time></trkpt><trkpt lat="46.2086581" lon="13.2250743"><ele>216.0</ele><time>2026-04-04T14:27:42.066Z</time></trkpt><trkpt lat="46.2087532" lon="13.2249349"><ele>216.0</ele><time>2026-04-04T14:27:43.067Z</time></trkpt><trkpt lat="46.2088459" lon="13.2247997"><ele>216.0</ele><time>2026-04-04T14:27:44.066Z</time></trkpt><trkpt lat="46.2089359" lon="13.2246646"><ele>216.0</ele><time>2026-04-04T14:27:45.065Z</time></trkpt><trkpt lat="46.2090288" lon="13.2245312"><ele>216.0</ele><time>2026-04-04T14:27:46.067Z</time></trkpt><trkpt lat="46.209117" lon="13.2243987"><ele>216.0</ele><time>2026-04-04T14:27:47.066Z</time></trkpt><trkpt lat="46.2092083" lon="13.22427"><ele>216.0</ele><time>2026-04-04T14:27:48.065Z</time></trkpt><trkpt lat="46.2093028" lon="13.224135"><ele>216.0</ele><time>2026-04-04T14:27:49.065Z</time></trkpt><trkpt lat="46.2093893" lon="13.2240073"><ele>216.0</ele><time>2026-04-04T14:27:50.066Z</time></trkpt><trkpt lat="46.2094695" lon="13.2238865"><ele>216.0</ele><time>2026-04-04T14:27:51.065Z</time></trkpt><trkpt lat="46.2095494" lon="13.2237695"><ele>216.0</ele><time>2026-04-04T14:27:52.065Z</time></trkpt><trkpt lat="46.2096269" lon="13.2236545"><ele>216.0</ele><time>2026-04-04T14:27:53.065Z</time></trkpt><trkpt lat="46.2097074" lon="13.2235357"><ele>216.0</ele><time>2026-04-04T14:27:54.067Z</time></trkpt><trkpt lat="46.2097934" lon="13.2234103"><ele>216.0</ele><time>2026-04-04T14:27:55.066Z</time></trkpt><trkpt lat="46.2098802" lon="13.2232895"><ele>216.0</ele><time>2026-04-04T14:27:56.066Z</time></trkpt><trkpt lat="46.2099668" lon="13.2231633"><ele>216.0</ele><time>2026-04-04T14:27:57.066Z</time></trkpt><trkpt lat="46.2100525" lon="13.2230379"><ele>216.5</ele><time>2026-04-04T14:27:58.065Z</time></trkpt><trkpt lat="46.2101358" lon="13.2229124"><ele>217.0</ele><time>2026-04-04T14:27:59.065Z</time></trkpt><trkpt lat="46.2102228" lon="13.2227883"><ele>217.5</ele><time>2026-04-04T14:28:00.065Z</time></trkpt><trkpt lat="46.21031" lon="13.2226756"><ele>218.0</ele><time>2026-04-04T14:28:01.065Z</time></trkpt><trkpt lat="46.2104008" lon="13.2225703"><ele>218.0</ele><time>2026-04-04T14:28:02.065Z</time></trkpt><trkpt lat="46.2104897" lon="13.2224706"><ele>218.0</ele><time>2026-04-04T14:28:03.066Z</time></trkpt><trkpt lat="46.2105845" lon="13.2223781"><ele>218.0</ele><time>2026-04-04T14:28:04.065Z</time></trkpt><trkpt lat="46.2106854" lon="13.2222852"><ele>218.0</ele><time>2026-04-04T14:28:05.066Z</time></trkpt><trkpt lat="46.2107873" lon="13.2221921"><ele>219.0</ele><time>2026-04-04T14:28:06.065Z</time></trkpt><trkpt lat="46.210892" lon="13.222101"><ele>220.0</ele><time>2026-04-04T14:28:07.065Z</time></trkpt><trkpt lat="46.2109906" lon="13.2220165"><ele>221.0</ele><time>2026-04-04T14:28:08.066Z</time></trkpt><trkpt lat="46.2110835" lon="13.2219334"><ele>222.0</ele><time>2026-04-04T14:28:09.067Z</time></trkpt><trkpt lat="46.2111752" lon="13.2218536"><ele>222.0</ele><time>2026-04-04T14:28:10.066Z</time></trkpt><trkpt lat="46.2112676" lon="13.2217711"><ele>222.0</ele><time>2026-04-04T14:28:11.067Z</time></trkpt><trkpt lat="46.2113535" lon="13.2216847"><ele>222.0</ele><time>2026-04-04T14:28:12.065Z</time></trkpt><trkpt lat="46.211442" lon="13.2216049"><ele>222.0</ele><time>2026-04-04T14:28:13.066Z</time></trkpt><trkpt lat="46.2115304" lon="13.2215201"><ele>222.0</ele><time>2026-04-04T14:28:14.066Z</time></trkpt><trkpt lat="46.211623" lon="13.2214332"><ele>222.39999999999998</ele><time>2026-04-04T14:28:15.066Z</time></trkpt><trkpt lat="46.2117102" lon="13.2213349"><ele>222.79999999999998</ele><time>2026-04-04T14:28:16.066Z</time></trkpt><trkpt lat="46.2118059" lon="13.2212578"><ele>223.2</ele><time>2026-04-04T14:28:17.066Z</time></trkpt><trkpt lat="46.2119017" lon="13.221164"><ele>223.6</ele><time>2026-04-04T14:28:18.066Z</time></trkpt><trkpt lat="46.2119984" lon="13.2210782"><ele>224.0</ele><time>2026-04-04T14:28:19.066Z</time></trkpt><trkpt lat="46.2120954" lon="13.2209926"><ele>224.0</ele><time>2026-04-04T14:28:20.065Z</time></trkpt><trkpt lat="46.2121923" lon="13.220905"><ele>223.99999999999997</ele><time>2026-04-04T14:28:21.066Z</time></trkpt><trkpt lat="46.2122888" lon="13.2208182"><ele>223.99999999999997</ele><time>2026-04-04T14:28:22.065Z</time></trkpt><trkpt lat="46.21238" lon="13.2207315"><ele>224.0</ele><time>2026-04-04T14:28:23.065Z</time></trkpt><trkpt lat="46.2124704" lon="13.2206473"><ele>224.0</ele><time>2026-04-04T14:28:24.065Z</time></trkpt><trkpt lat="46.2125582" lon="13.2205655"><ele>223.79999999999998</ele><time>2026-04-04T14:28:25.066Z</time></trkpt><trkpt lat="46.2126472" lon="13.2204837"><ele>223.59999999999997</ele><time>2026-04-04T14:28:26.065Z</time></trkpt><trkpt lat="46.2127379" lon="13.2204036"><ele>223.4</ele><time>2026-04-04T14:28:27.066Z</time></trkpt><trkpt lat="46.2128181" lon="13.2203359"><ele>223.2</ele><time>2026-04-04T14:28:28.065Z</time></trkpt><trkpt lat="46.2128917" lon="13.2202745"><ele>223.0</ele><time>2026-04-04T14:28:29.067Z</time></trkpt><trkpt lat="46.2129591" lon="13.2202184"><ele>222.99999999999997</ele><time>2026-04-04T14:28:30.065Z</time></trkpt><trkpt lat="46.2130173" lon="13.220172"><ele>223.0</ele><time>2026-04-04T14:28:31.065Z</time></trkpt><trkpt lat="46.2130764" lon="13.2201296"><ele>223.0</ele><time>2026-04-04T14:28:32.066Z</time></trkpt><trkpt lat="46.2131398" lon="13.2200803"><ele>223.0</ele><time>2026-04-04T14:28:33.067Z</time></trkpt><trkpt lat="46.2132097" lon="13.2200279"><ele>222.99999999999997</ele><time>2026-04-04T14:28:34.065Z</time></trkpt><trkpt lat="46.2132875" lon="13.2199792"><ele>223.0</ele><time>2026-04-04T14:28:35.066Z</time></trkpt><trkpt lat="46.2133671" lon="13.2199281"><ele>223.49999999999997</ele><time>2026-04-04T14:28:36.067Z</time></trkpt><trkpt lat="46.2134492" lon="13.2198815"><ele>224.0</ele><time>2026-04-04T14:28:37.065Z</time></trkpt><trkpt lat="46.2135324" lon="13.2198413"><ele>224.5</ele><time>2026-04-04T14:28:38.066Z</time></trkpt><trkpt lat="46.2136091" lon="13.2198056"><ele>225.0</ele><time>2026-04-04T14:28:39.066Z</time></trkpt><trkpt lat="46.2136838" lon="13.2197746"><ele>225.49999999999997</ele><time>2026-04-04T14:28:40.066Z</time></trkpt><trkpt lat="46.2137678" lon="13.2197623"><ele>226.0</ele><time>2026-04-04T14:28:41.066Z</time></trkpt><trkpt lat="46.2138611" lon="13.2197819"><ele>225.99999999999997</ele><time>2026-04-04T14:28:42.066Z</time></trkpt><trkpt lat="46.2139488" lon="13.2198157"><ele>226.0</ele><time>2026-04-04T14:28:43.067Z</time></trkpt><trkpt lat="46.2140345" lon="13.2198491"><ele>226.0</ele><time>2026-04-04T14:28:44.065Z</time></trkpt><trkpt lat="46.2141035" lon="13.2198746"><ele>226.0</ele><time>2026-04-04T14:28:45.065Z</time></trkpt><trkpt lat="46.2141693" lon="13.2199026"><ele>225.99999999999997</ele><time>2026-04-04T14:28:47.066Z</time></trkpt><trkpt lat="46.2142558" lon="13.2199574"><ele>226.0</ele><time>2026-04-04T14:28:52.066Z</time></trkpt><trkpt lat="46.2143655" lon="13.2199867"><ele>226.0</ele><time>2026-04-04T14:28:54.065Z</time></trkpt><trkpt lat="46.2144295" lon="13.2199768"><ele>226.0</ele><time>2026-04-04T14:28:55.066Z</time></trkpt><trkpt lat="46.2145" lon="13.2199591"><ele>226.0</ele><time>2026-04-04T14:28:56.066Z</time></trkpt><trkpt lat="46.2145708" lon="13.2199402"><ele>226.0</ele><time>2026-04-04T14:28:57.065Z</time></trkpt><trkpt lat="46.2146485" lon="13.219926"><ele>226.0</ele><time>2026-04-04T14:28:58.065Z</time></trkpt><trkpt lat="46.2147218" lon="13.2199112"><ele>226.0</ele><time>2026-04-04T14:28:59.065Z</time></trkpt><trkpt lat="46.2147873" lon="13.2198912"><ele>226.0</ele><time>2026-04-04T14:29:00.066Z</time></trkpt><trkpt lat="46.2148779" lon="13.2197861"><ele>226.0</ele><time>2026-04-04T14:29:02.066Z</time></trkpt><trkpt lat="46.2149015" lon="13.2196144"><ele>226.00000000000003</ele><time>2026-04-04T14:29:04.065Z</time></trkpt><trkpt lat="46.2149047" lon="13.2194494"><ele>226.00000000000003</ele><time>2026-04-04T14:29:06.065Z</time></trkpt><trkpt lat="46.2149033" lon="13.2193533"><ele>226.0</ele><time>2026-04-04T14:29:07.066Z</time></trkpt><trkpt lat="46.2149106" lon="13.2192436"><ele>226.0</ele><time>2026-04-04T14:29:08.066Z</time></trkpt><trkpt lat="46.2149164" lon="13.2191198"><ele>226.0</ele><time>2026-04-04T14:29:09.066Z</time></trkpt><trkpt lat="46.2149194" lon="13.2189852"><ele>226.00000000000003</ele><time>2026-04-04T14:29:10.065Z</time></trkpt><trkpt lat="46.2149253" lon="13.218842"><ele>226.00000000000003</ele><time>2026-04-04T14:29:11.066Z</time></trkpt><trkpt lat="46.214924" lon="13.2186721"><ele>226.0</ele><time>2026-04-04T14:29:12.066Z</time></trkpt><trkpt lat="46.2149227" lon="13.2185051"><ele>226.0</ele><time>2026-04-04T14:29:13.066Z</time></trkpt><trkpt lat="46.2149253" lon="13.2183549"><ele>226.0</ele><time>2026-04-04T14:29:14.065Z</time></trkpt><trkpt lat="46.2149319" lon="13.2182143"><ele>226.00000000000003</ele><time>2026-04-04T14:29:15.067Z</time></trkpt><trkpt lat="46.2149392" lon="13.2180786"><ele>226.00000000000003</ele><time>2026-04-04T14:29:16.065Z</time></trkpt><trkpt lat="46.214936" lon="13.2179482"><ele>226.0</ele><time>2026-04-04T14:29:17.065Z</time></trkpt><trkpt lat="46.214938" lon="13.2178222"><ele>226.0</ele><time>2026-04-04T14:29:18.067Z</time></trkpt><trkpt lat="46.2149391" lon="13.2176961"><ele>225.66666666666666</ele><time>2026-04-04T14:29:19.066Z</time></trkpt><trkpt lat="46.2149459" lon="13.2175696"><ele>225.33333333333331</ele><time>2026-04-04T14:29:20.066Z</time></trkpt><trkpt lat="46.2149486" lon="13.2174399"><ele>225.0</ele><time>2026-04-04T14:29:21.065Z</time></trkpt><trkpt lat="46.2149518" lon="13.2173186"><ele>224.66666666666669</ele><time>2026-04-04T14:29:22.066Z</time></trkpt><trkpt lat="46.214956" lon="13.2172041"><ele>224.33333333333334</ele><time>2026-04-04T14:29:23.065Z</time></trkpt><trkpt lat="46.2149594" lon="13.217089"><ele>224.0</ele><time>2026-04-04T14:29:24.066Z</time></trkpt><trkpt lat="46.2149596" lon="13.2169732"><ele>224.0</ele><time>2026-04-04T14:29:25.066Z</time></trkpt><trkpt lat="46.2149611" lon="13.216851"><ele>223.99999999999997</ele><time>2026-04-04T14:29:26.065Z</time></trkpt><trkpt lat="46.2149663" lon="13.216727"><ele>223.99999999999997</ele><time>2026-04-04T14:29:27.066Z</time></trkpt><trkpt lat="46.2149681" lon="13.2165953"><ele>224.0</ele><time>2026-04-04T14:29:28.065Z</time></trkpt><trkpt lat="46.2149698" lon="13.2164535"><ele>224.0</ele><time>2026-04-04T14:29:29.066Z</time></trkpt><trkpt lat="46.2149721" lon="13.2163043"><ele>224.0</ele><time>2026-04-04T14:29:30.066Z</time></trkpt><trkpt lat="46.2149733" lon="13.216159"><ele>223.99999999999997</ele><time>2026-04-04T14:29:31.065Z</time></trkpt><trkpt lat="46.2149745" lon="13.2160225"><ele>223.99999999999997</ele><time>2026-04-04T14:29:32.067Z</time></trkpt><trkpt lat="46.2149787" lon="13.2158777"><ele>224.0</ele><time>2026-04-04T14:29:33.065Z</time></trkpt><trkpt lat="46.2149789" lon="13.2157454"><ele>224.0</ele><time>2026-04-04T14:29:34.066Z</time></trkpt><trkpt lat="46.2149796" lon="13.2156159"><ele>224.2</ele><time>2026-04-04T14:29:35.066Z</time></trkpt><trkpt lat="46.214983" lon="13.2154785"><ele>224.39999999999998</ele><time>2026-04-04T14:29:36.067Z</time></trkpt><trkpt lat="46.2149874" lon="13.2153419"><ele>224.6</ele><time>2026-04-04T14:29:37.066Z</time></trkpt><trkpt lat="46.2149903" lon="13.2152036"><ele>224.8</ele><time>2026-04-04T14:29:38.067Z</time></trkpt><trkpt lat="46.2149915" lon="13.2150707"><ele>225.0</ele><time>2026-04-04T14:29:39.067Z</time></trkpt><trkpt lat="46.214992" lon="13.21494"><ele>224.5</ele><time>2026-04-04T14:29:40.066Z</time></trkpt><trkpt lat="46.2149951" lon="13.2148203"><ele>224.0</ele><time>2026-04-04T14:29:41.066Z</time></trkpt><trkpt lat="46.2149977" lon="13.2147049"><ele>223.5</ele><time>2026-04-04T14:29:42.066Z</time></trkpt><trkpt lat="46.2150017" lon="13.2146064"><ele>223.0</ele><time>2026-04-04T14:29:43.066Z</time></trkpt><trkpt lat="46.2150092" lon="13.214487"><ele>222.5</ele><time>2026-04-04T14:29:44.066Z</time></trkpt><trkpt lat="46.2150135" lon="13.2143614"><ele>222.0</ele><time>2026-04-04T14:29:45.066Z</time></trkpt><trkpt lat="46.2150188" lon="13.2142246"><ele>222.0</ele><time>2026-04-04T14:29:46.066Z</time></trkpt><trkpt lat="46.2150228" lon="13.2140866"><ele>222.0</ele><time>2026-04-04T14:29:47.066Z</time></trkpt><trkpt lat="46.2150215" lon="13.213956"><ele>222.0</ele><time>2026-04-04T14:29:48.065Z</time></trkpt><trkpt lat="46.215022" lon="13.2137877"><ele>222.0</ele><time>2026-04-04T14:29:49.065Z</time></trkpt><trkpt lat="46.2150277" lon="13.2135982"><ele>222.0</ele><time>2026-04-04T14:29:50.066Z</time></trkpt><trkpt lat="46.215036" lon="13.2134131"><ele>222.0</ele><time>2026-04-04T14:29:51.066Z</time></trkpt><trkpt lat="46.2150503" lon="13.2132111"><ele>222.0</ele><time>2026-04-04T14:29:52.066Z</time></trkpt><trkpt lat="46.2150784" lon="13.2130129"><ele>222.0</ele><time>2026-04-04T14:29:53.065Z</time></trkpt><trkpt lat="46.2151083" lon="13.2128173"><ele>222.0</ele><time>2026-04-04T14:29:54.066Z</time></trkpt><trkpt lat="46.215137" lon="13.2126313"><ele>222.0</ele><time>2026-04-04T14:29:55.066Z</time></trkpt><trkpt lat="46.2151669" lon="13.2124545"><ele>222.0</ele><time>2026-04-04T14:29:56.065Z</time></trkpt><trkpt lat="46.215193" lon="13.2122923"><ele>222.0</ele><time>2026-04-04T14:29:57.065Z</time></trkpt><trkpt lat="46.2152206" lon="13.2121376"><ele>222.0</ele><time>2026-04-04T14:29:58.067Z</time></trkpt><trkpt lat="46.2152436" lon="13.2119793"><ele>222.0</ele><time>2026-04-04T14:29:59.065Z</time></trkpt><trkpt lat="46.215257" lon="13.2118123"><ele>222.0</ele><time>2026-04-04T14:30:00.066Z</time></trkpt><trkpt lat="46.2152649" lon="13.2116422"><ele>222.0</ele><time>2026-04-04T14:30:01.066Z</time></trkpt><trkpt lat="46.2152752" lon="13.211469"><ele>222.0</ele><time>2026-04-04T14:30:02.066Z</time></trkpt><trkpt lat="46.2152965" lon="13.2112911"><ele>222.0</ele><time>2026-04-04T14:30:03.066Z</time></trkpt><trkpt lat="46.2153252" lon="13.2111083"><ele>222.0</ele><time>2026-04-04T14:30:04.067Z</time></trkpt><trkpt lat="46.2153537" lon="13.2109245"><ele>222.0</ele><time>2026-04-04T14:30:05.066Z</time></trkpt><trkpt lat="46.2153736" lon="13.2107387"><ele>222.0</ele><time>2026-04-04T14:30:06.066Z</time></trkpt><trkpt lat="46.2153886" lon="13.2105513"><ele>221.5</ele><time>2026-04-04T14:30:07.066Z</time></trkpt><trkpt lat="46.2153986" lon="13.210374"><ele>221.0</ele><time>2026-04-04T14:30:08.067Z</time></trkpt><trkpt lat="46.2154091" lon="13.2102058"><ele>220.5</ele><time>2026-04-04T14:30:09.065Z</time></trkpt><trkpt lat="46.2154148" lon="13.210043"><ele>220.0</ele><time>2026-04-04T14:30:10.066Z</time></trkpt><trkpt lat="46.2154192" lon="13.2098819"><ele>219.5</ele><time>2026-04-04T14:30:11.065Z</time></trkpt><trkpt lat="46.2154269" lon="13.2097179"><ele>219.0</ele><time>2026-04-04T14:30:12.066Z</time></trkpt><trkpt lat="46.215438" lon="13.209553"><ele>218.5</ele><time>2026-04-04T14:30:13.065Z</time></trkpt><trkpt lat="46.2154593" lon="13.2093858"><ele>218.0</ele><time>2026-04-04T14:30:14.066Z</time></trkpt><trkpt lat="46.2154935" lon="13.2092154"><ele>218.0</ele><time>2026-04-04T14:30:15.065Z</time></trkpt><trkpt lat="46.2155425" lon="13.2090503"><ele>218.0</ele><time>2026-04-04T14:30:16.066Z</time></trkpt><trkpt lat="46.2155971" lon="13.2088927"><ele>218.0</ele><time>2026-04-04T14:30:17.066Z</time></trkpt><trkpt lat="46.2156488" lon="13.2087356"><ele>218.0</ele><time>2026-04-04T14:30:18.067Z</time></trkpt><trkpt lat="46.2156861" lon="13.2085727"><ele>218.0</ele><time>2026-04-04T14:30:19.065Z</time></trkpt><trkpt lat="46.2157141" lon="13.2084089"><ele>218.0</ele><time>2026-04-04T14:30:20.067Z</time></trkpt><trkpt lat="46.2157356" lon="13.2082503"><ele>218.0</ele><time>2026-04-04T14:30:21.066Z</time></trkpt><trkpt lat="46.215754" lon="13.2081021"><ele>218.0</ele><time>2026-04-04T14:30:22.066Z</time></trkpt><trkpt lat="46.2157775" lon="13.2079542"><ele>218.0</ele><time>2026-04-04T14:30:23.066Z</time></trkpt><trkpt lat="46.2158003" lon="13.2078041"><ele>217.5</ele><time>2026-04-04T14:30:24.065Z</time></trkpt><trkpt lat="46.2158258" lon="13.2076487"><ele>217.0</ele><time>2026-04-04T14:30:25.066Z</time></trkpt><trkpt lat="46.21586" lon="13.2074901"><ele>216.5</ele><time>2026-04-04T14:30:26.066Z</time></trkpt><trkpt lat="46.2158958" lon="13.2073332"><ele>216.0</ele><time>2026-04-04T14:30:27.066Z</time></trkpt><trkpt lat="46.2159325" lon="13.2071753"><ele>215.75</ele><time>2026-04-04T14:30:28.067Z</time></trkpt><trkpt lat="46.2159701" lon="13.2070185"><ele>215.5</ele><time>2026-04-04T14:30:29.066Z</time></trkpt><trkpt lat="46.2160114" lon="13.2068619"><ele>215.25</ele><time>2026-04-04T14:30:30.066Z</time></trkpt><trkpt lat="46.2160535" lon="13.2067082"><ele>215.0</ele><time>2026-04-04T14:30:31.067Z</time></trkpt><trkpt lat="46.2160963" lon="13.2065576"><ele>215.2</ele><time>2026-04-04T14:30:32.065Z</time></trkpt><trkpt lat="46.2161396" lon="13.2064134"><ele>215.4</ele><time>2026-04-04T14:30:33.066Z</time></trkpt><trkpt lat="46.2161836" lon="13.2062675"><ele>215.60000000000002</ele><time>2026-04-04T14:30:34.067Z</time></trkpt><trkpt lat="46.2162262" lon="13.2061154"><ele>215.8</ele><time>2026-04-04T14:30:35.066Z</time></trkpt><trkpt lat="46.2162687" lon="13.2059609"><ele>216.0</ele><time>2026-04-04T14:30:36.065Z</time></trkpt><trkpt lat="46.2163152" lon="13.2058038"><ele>216.0</ele><time>2026-04-04T14:30:37.065Z</time></trkpt><trkpt lat="46.2163554" lon="13.2056432"><ele>216.0</ele><time>2026-04-04T14:30:38.066Z</time></trkpt><trkpt lat="46.2163932" lon="13.2054756"><ele>216.0</ele><time>2026-04-04T14:30:39.067Z</time></trkpt><trkpt lat="46.2164268" lon="13.2053039"><ele>216.0</ele><time>2026-04-04T14:30:40.066Z</time></trkpt><trkpt lat="46.2164573" lon="13.2051256"><ele>216.25</ele><time>2026-04-04T14:30:41.066Z</time></trkpt><trkpt lat="46.2164926" lon="13.2049409"><ele>216.5</ele><time>2026-04-04T14:30:42.065Z</time></trkpt><trkpt lat="46.2165259" lon="13.2047477"><ele>216.75</ele><time>2026-04-04T14:30:43.066Z</time></trkpt><trkpt lat="46.2165568" lon="13.2045523"><ele>217.0</ele><time>2026-04-04T14:30:44.066Z</time></trkpt><trkpt lat="46.2165799" lon="13.2043703"><ele>217.0</ele><time>2026-04-04T14:30:45.066Z</time></trkpt><trkpt lat="46.2165976" lon="13.2042053"><ele>217.0</ele><time>2026-04-04T14:30:46.065Z</time></trkpt><trkpt lat="46.2166134" lon="13.204042"><ele>217.0</ele><time>2026-04-04T14:30:47.066Z</time></trkpt><trkpt lat="46.2166299" lon="13.2038741"><ele>217.0</ele><time>2026-04-04T14:30:48.066Z</time></trkpt><trkpt lat="46.2166463" lon="13.2037022"><ele>217.0</ele><time>2026-04-04T14:30:49.067Z</time></trkpt><trkpt lat="46.2166603" lon="13.2035348"><ele>217.0</ele><time>2026-04-04T14:30:50.066Z</time></trkpt><trkpt lat="46.2166774" lon="13.203369"><ele>217.0</ele><time>2026-04-04T14:30:51.066Z</time></trkpt><trkpt lat="46.2166926" lon="13.2032044"><ele>217.0</ele><time>2026-04-04T14:30:52.066Z</time></trkpt><trkpt lat="46.2167079" lon="13.203039"><ele>217.0</ele><time>2026-04-04T14:30:53.065Z</time></trkpt><trkpt lat="46.2167218" lon="13.2028789"><ele>217.0</ele><time>2026-04-04T14:30:54.066Z</time></trkpt><trkpt lat="46.2167322" lon="13.2027286"><ele>217.0</ele><time>2026-04-04T14:30:55.066Z</time></trkpt><trkpt lat="46.2167427" lon="13.2025753"><ele>217.0</ele><time>2026-04-04T14:30:56.065Z</time></trkpt><trkpt lat="46.2167552" lon="13.2024173"><ele>217.0</ele><time>2026-04-04T14:30:57.067Z</time></trkpt><trkpt lat="46.2167689" lon="13.2022519"><ele>216.5</ele><time>2026-04-04T14:30:58.065Z</time></trkpt><trkpt lat="46.2167852" lon="13.2020792"><ele>216.0</ele><time>2026-04-04T14:30:59.067Z</time></trkpt><trkpt lat="46.216802" lon="13.2018972"><ele>215.5</ele><time>2026-04-04T14:31:00.066Z</time></trkpt><trkpt lat="46.2168204" lon="13.2017068"><ele>215.0</ele><time>2026-04-04T14:31:01.065Z</time></trkpt><trkpt lat="46.2168361" lon="13.2015152"><ele>215.0</ele><time>2026-04-04T14:31:02.066Z</time></trkpt><trkpt lat="46.2168557" lon="13.2013312"><ele>215.0</ele><time>2026-04-04T14:31:03.066Z</time></trkpt><trkpt lat="46.2168788" lon="13.201145"><ele>215.0</ele><time>2026-04-04T14:31:04.066Z</time></trkpt><trkpt lat="46.2169013" lon="13.2009628"><ele>215.0</ele><time>2026-04-04T14:31:05.065Z</time></trkpt><trkpt lat="46.2169286" lon="13.2007808"><ele>214.5</ele><time>2026-04-04T14:31:06.065Z</time></trkpt><trkpt lat="46.2169537" lon="13.200602"><ele>214.0</ele><time>2026-04-04T14:31:07.065Z</time></trkpt><trkpt lat="46.2169809" lon="13.2004226"><ele>213.5</ele><time>2026-04-04T14:31:08.066Z</time></trkpt><trkpt lat="46.2170104" lon="13.2002506"><ele>213.0</ele><time>2026-04-04T14:31:09.066Z</time></trkpt><trkpt lat="46.2170397" lon="13.2000785"><ele>213.0</ele><time>2026-04-04T14:31:10.066Z</time></trkpt><trkpt lat="46.2170693" lon="13.199906"><ele>213.0</ele><time>2026-04-04T14:31:11.066Z</time></trkpt><trkpt lat="46.217099" lon="13.1997304"><ele>213.0</ele><time>2026-04-04T14:31:12.066Z</time></trkpt><trkpt lat="46.2171326" lon="13.1995498"><ele>213.0</ele><time>2026-04-04T14:31:13.066Z</time></trkpt><trkpt lat="46.2171691" lon="13.1993621"><ele>212.66666666666669</ele><time>2026-04-04T14:31:14.067Z</time></trkpt><trkpt lat="46.2172068" lon="13.1991594"><ele>212.33333333333334</ele><time>2026-04-04T14:31:15.066Z</time></trkpt><trkpt lat="46.2172433" lon="13.1989419"><ele>212.0</ele><time>2026-04-04T14:31:16.066Z</time></trkpt><trkpt lat="46.2172794" lon="13.1987229"><ele>211.75</ele><time>2026-04-04T14:31:17.065Z</time></trkpt><trkpt lat="46.2173172" lon="13.1985073"><ele>211.5</ele><time>2026-04-04T14:31:18.066Z</time></trkpt><trkpt lat="46.2173522" lon="13.1983005"><ele>211.25</ele><time>2026-04-04T14:31:19.065Z</time></trkpt><trkpt lat="46.2173888" lon="13.1980936"><ele>211.0</ele><time>2026-04-04T14:31:20.066Z</time></trkpt><trkpt lat="46.2174259" lon="13.1978833"><ele>211.5</ele><time>2026-04-04T14:31:21.066Z</time></trkpt><trkpt lat="46.2174608" lon="13.1976709"><ele>212.0</ele><time>2026-04-04T14:31:22.065Z</time></trkpt><trkpt lat="46.2174975" lon="13.1974601"><ele>212.5</ele><time>2026-04-04T14:31:23.065Z</time></trkpt><trkpt lat="46.217533" lon="13.197253"><ele>213.0</ele><time>2026-04-04T14:31:24.066Z</time></trkpt><trkpt lat="46.21757" lon="13.1970486"><ele>213.0</ele><time>2026-04-04T14:31:25.066Z</time></trkpt><trkpt lat="46.2176072" lon="13.1968352"><ele>213.0</ele><time>2026-04-04T14:31:26.066Z</time></trkpt><trkpt lat="46.2176434" lon="13.1966191"><ele>213.0</ele><time>2026-04-04T14:31:27.065Z</time></trkpt><trkpt lat="46.2176793" lon="13.1963947"><ele>212.0</ele><time>2026-04-04T14:31:28.066Z</time></trkpt><trkpt lat="46.2177172" lon="13.1961707"><ele>211.0</ele><time>2026-04-04T14:31:29.066Z</time></trkpt><trkpt lat="46.2177529" lon="13.1959521"><ele>210.0</ele><time>2026-04-04T14:31:30.065Z</time></trkpt><trkpt lat="46.2177884" lon="13.1957426"><ele>210.0</ele><time>2026-04-04T14:31:31.066Z</time></trkpt><trkpt lat="46.2178247" lon="13.1955365"><ele>210.0</ele><time>2026-04-04T14:31:32.066Z</time></trkpt><trkpt lat="46.2178587" lon="13.1953341"><ele>210.0</ele><time>2026-04-04T14:31:33.066Z</time></trkpt><trkpt lat="46.2178938" lon="13.1951311"><ele>210.0</ele><time>2026-04-04T14:31:34.067Z</time></trkpt><trkpt lat="46.2179279" lon="13.1949263"><ele>209.33333333333331</ele><time>2026-04-04T14:31:35.066Z</time></trkpt><trkpt lat="46.2179647" lon="13.1947141"><ele>208.66666666666666</ele><time>2026-04-04T14:31:36.065Z</time></trkpt><trkpt lat="46.2180012" lon="13.1944826"><ele>208.0</ele><time>2026-04-04T14:31:37.065Z</time></trkpt><trkpt lat="46.218047" lon="13.194213"><ele>208.0</ele><time>2026-04-04T14:31:38.065Z</time></trkpt><trkpt lat="46.2180965" lon="13.193902"><ele>208.0</ele><time>2026-04-04T14:31:39.066Z</time></trkpt><trkpt lat="46.2181537" lon="13.1935613"><ele>208.0</ele><time>2026-04-04T14:31:40.066Z</time></trkpt><trkpt lat="46.2182101" lon="13.1931881"><ele>208.0</ele><time>2026-04-04T14:31:41.065Z</time></trkpt><trkpt lat="46.2182686" lon="13.1927882"><ele>208.0</ele><time>2026-04-04T14:31:42.067Z</time></trkpt><trkpt lat="46.2183296" lon="13.1923926"><ele>208.0</ele><time>2026-04-04T14:31:43.065Z</time></trkpt><trkpt lat="46.2183959" lon="13.1920052"><ele>207.0</ele><time>2026-04-04T14:31:44.065Z</time></trkpt><trkpt lat="46.2184622" lon="13.1916369"><ele>206.0</ele><time>2026-04-04T14:31:45.066Z</time></trkpt><trkpt lat="46.2185244" lon="13.1912906"><ele>205.66666666666669</ele><time>2026-04-04T14:31:46.067Z</time></trkpt><trkpt lat="46.2185765" lon="13.1909747"><ele>205.33333333333331</ele><time>2026-04-04T14:31:47.065Z</time></trkpt><trkpt lat="46.2186277" lon="13.1906785"><ele>205.0</ele><time>2026-04-04T14:31:48.065Z</time></trkpt><trkpt lat="46.2186796" lon="13.1903888"><ele>205.0</ele><time>2026-04-04T14:31:49.065Z</time></trkpt><trkpt lat="46.218733" lon="13.1901022"><ele>205.0</ele><time>2026-04-04T14:31:50.065Z</time></trkpt><trkpt lat="46.2187831" lon="13.1898111"><ele>205.0</ele><time>2026-04-04T14:31:51.065Z</time></trkpt><trkpt lat="46.2188301" lon="13.1895281"><ele>204.66666666666666</ele><time>2026-04-04T14:31:52.066Z</time></trkpt><trkpt lat="46.2188738" lon="13.1892629"><ele>204.33333333333331</ele><time>2026-04-04T14:31:53.066Z</time></trkpt><trkpt lat="46.2189226" lon="13.1889991"><ele>204.0</ele><time>2026-04-04T14:31:54.066Z</time></trkpt><trkpt lat="46.2189729" lon="13.1887301"><ele>203.33333333333331</ele><time>2026-04-04T14:31:55.065Z</time></trkpt><trkpt lat="46.2190199" lon="13.1884573"><ele>202.66666666666666</ele><time>2026-04-04T14:31:56.065Z</time></trkpt><trkpt lat="46.2190632" lon="13.1881841"><ele>202.0</ele><time>2026-04-04T14:31:57.066Z</time></trkpt><trkpt lat="46.2191061" lon="13.1879174"><ele>202.0</ele><time>2026-04-04T14:31:58.066Z</time></trkpt><trkpt lat="46.2191478" lon="13.1876551"><ele>202.0</ele><time>2026-04-04T14:31:59.066Z</time></trkpt><trkpt lat="46.219192" lon="13.1873859"><ele>202.0</ele><time>2026-04-04T14:32:00.065Z</time></trkpt><trkpt lat="46.2192342" lon="13.1871212"><ele>201.33333333333331</ele><time>2026-04-04T14:32:01.066Z</time></trkpt><trkpt lat="46.2192775" lon="13.186868"><ele>200.66666666666669</ele><time>2026-04-04T14:32:02.066Z</time></trkpt><trkpt lat="46.2193201" lon="13.1866231"><ele>200.0</ele><time>2026-04-04T14:32:03.066Z</time></trkpt><trkpt lat="46.2193708" lon="13.1863756"><ele>199.33333333333334</ele><time>2026-04-04T14:32:04.065Z</time></trkpt><trkpt lat="46.2194193" lon="13.1861253"><ele>198.66666666666669</ele><time>2026-04-04T14:32:05.066Z</time></trkpt><trkpt lat="46.219463" lon="13.1858833"><ele>198.0</ele><time>2026-04-04T14:32:06.066Z</time></trkpt><trkpt lat="46.2195029" lon="13.1856528"><ele>198.0</ele><time>2026-04-04T14:32:07.067Z</time></trkpt><trkpt lat="46.2195423" lon="13.1854164"><ele>198.0</ele><time>2026-04-04T14:32:08.066Z</time></trkpt><trkpt lat="46.2195803" lon="13.1851728"><ele>198.0</ele><time>2026-04-04T14:32:09.065Z</time></trkpt><trkpt lat="46.2196179" lon="13.1849299"><ele>198.66666666666669</ele><time>2026-04-04T14:32:10.067Z</time></trkpt><trkpt lat="46.2196572" lon="13.1846865"><ele>199.33333333333334</ele><time>2026-04-04T14:32:11.066Z</time></trkpt><trkpt lat="46.2196974" lon="13.1844545"><ele>200.0</ele><time>2026-04-04T14:32:12.065Z</time></trkpt><trkpt lat="46.2197364" lon="13.1842297"><ele>200.0</ele><time>2026-04-04T14:32:13.066Z</time></trkpt><trkpt lat="46.2197762" lon="13.1840033"><ele>200.0</ele><time>2026-04-04T14:32:14.066Z</time></trkpt><trkpt lat="46.2198143" lon="13.1837706"><ele>200.0</ele><time>2026-04-04T14:32:15.066Z</time></trkpt><trkpt lat="46.2198542" lon="13.1835304"><ele>200.0</ele><time>2026-04-04T14:32:16.065Z</time></trkpt><trkpt lat="46.2198967" lon="13.1832745"><ele>200.0</ele><time>2026-04-04T14:32:17.067Z</time></trkpt><trkpt lat="46.2199405" lon="13.1830173"><ele>200.0</ele><time>2026-04-04T14:32:18.066Z</time></trkpt><trkpt lat="46.2199829" lon="13.1827608"><ele>200.0</ele><time>2026-04-04T14:32:19.065Z</time></trkpt><trkpt lat="46.2200216" lon="13.182516"><ele>200.0</ele><time>2026-04-04T14:32:20.065Z</time></trkpt><trkpt lat="46.220057" lon="13.1822807"><ele>200.0</ele><time>2026-04-04T14:32:21.066Z</time></trkpt><trkpt lat="46.2200938" lon="13.1820588"><ele>200.25</ele><time>2026-04-04T14:32:22.066Z</time></trkpt><trkpt lat="46.2201286" lon="13.1818516"><ele>200.5</ele><time>2026-04-04T14:32:23.065Z</time></trkpt><trkpt lat="46.220161" lon="13.1816531"><ele>200.75</ele><time>2026-04-04T14:32:24.066Z</time></trkpt><trkpt lat="46.2201908" lon="13.1814648"><ele>201.0</ele><time>2026-04-04T14:32:25.066Z</time></trkpt><trkpt lat="46.2202186" lon="13.1812859"><ele>200.60000000000002</ele><time>2026-04-04T14:32:26.065Z</time></trkpt><trkpt lat="46.2202455" lon="13.1811172"><ele>200.2</ele><time>2026-04-04T14:32:27.066Z</time></trkpt><trkpt lat="46.2202747" lon="13.1809543"><ele>199.8</ele><time>2026-04-04T14:32:28.066Z</time></trkpt><trkpt lat="46.2202991" lon="13.1808132"><ele>199.39999999999998</ele><time>2026-04-04T14:32:29.065Z</time></trkpt><trkpt lat="46.2203209" lon="13.1806816"><ele>199.0</ele><time>2026-04-04T14:32:30.065Z</time></trkpt><trkpt lat="46.2203408" lon="13.1805656"><ele>198.16666666666666</ele><time>2026-04-04T14:32:31.065Z</time></trkpt><trkpt lat="46.2203692" lon="13.1804019"><ele>197.33333333333331</ele><time>2026-04-04T14:32:33.066Z</time></trkpt><trkpt lat="46.2203917" lon="13.1802781"><ele>196.5</ele><time>2026-04-04T14:32:35.066Z</time></trkpt><trkpt lat="46.2204044" lon="13.1801543"><ele>195.66666666666669</ele><time>2026-04-04T14:32:38.067Z</time></trkpt><trkpt lat="46.2204125" lon="13.1800595"><ele>194.83333333333334</ele><time>2026-04-04T14:32:40.067Z</time></trkpt><trkpt lat="46.2204329" lon="13.1799588"><ele>194.0</ele><time>2026-04-04T14:32:43.066Z</time></trkpt><trkpt lat="46.2204502" lon="13.1798254"><ele>193.75</ele><time>2026-04-04T14:33:04.067Z</time></trkpt><trkpt lat="46.2204524" lon="13.1796509"><ele>193.5</ele><time>2026-04-04T14:33:06.065Z</time></trkpt><trkpt lat="46.2204642" lon="13.1795083"><ele>193.25</ele><time>2026-04-04T14:33:07.066Z</time></trkpt><trkpt lat="46.2204788" lon="13.1793231"><ele>193.0</ele><time>2026-04-04T14:33:08.066Z</time></trkpt><trkpt lat="46.2204911" lon="13.1791003"><ele>192.66666666666666</ele><time>2026-04-04T14:33:09.067Z</time></trkpt><trkpt lat="46.2205056" lon="13.1788524"><ele>192.33333333333331</ele><time>2026-04-04T14:33:10.066Z</time></trkpt><trkpt lat="46.2205181" lon="13.1785786"><ele>192.0</ele><time>2026-04-04T14:33:11.066Z</time></trkpt><trkpt lat="46.2205141" lon="13.1782855"><ele>191.66666666666666</ele><time>2026-04-04T14:33:12.065Z</time></trkpt><trkpt lat="46.2204943" lon="13.177986"><ele>191.33333333333331</ele><time>2026-04-04T14:33:13.066Z</time></trkpt><trkpt lat="46.2204604" lon="13.177684"><ele>191.0</ele><time>2026-04-04T14:33:14.065Z</time></trkpt><trkpt lat="46.2204111" lon="13.1773789"><ele>191.5</ele><time>2026-04-04T14:33:15.067Z</time></trkpt><trkpt lat="46.2203478" lon="13.1770697"><ele>192.0</ele><time>2026-04-04T14:33:16.066Z</time></trkpt><trkpt lat="46.2202754" lon="13.1767528"><ele>191.5</ele><time>2026-04-04T14:33:17.066Z</time></trkpt><trkpt lat="46.2201934" lon="13.1764171"><ele>191.0</ele><time>2026-04-04T14:33:18.066Z</time></trkpt><trkpt lat="46.220102" lon="13.17606"><ele>191.5</ele><time>2026-04-04T14:33:19.067Z</time></trkpt><trkpt lat="46.220004" lon="13.1756841"><ele>192.0</ele><time>2026-04-04T14:33:20.065Z</time></trkpt><trkpt lat="46.2199065" lon="13.1753028"><ele>191.0</ele><time>2026-04-04T14:33:21.067Z</time></trkpt><trkpt lat="46.2198088" lon="13.174926"><ele>190.0</ele><time>2026-04-04T14:33:22.065Z</time></trkpt><trkpt lat="46.2197148" lon="13.1745644"><ele>190.0</ele><time>2026-04-04T14:33:23.066Z</time></trkpt><trkpt lat="46.2196276" lon="13.174222"><ele>190.0</ele><time>2026-04-04T14:33:24.066Z</time></trkpt><trkpt lat="46.2195455" lon="13.1738966"><ele>191.0</ele><time>2026-04-04T14:33:25.065Z</time></trkpt><trkpt lat="46.2194647" lon="13.1735866"><ele>192.0</ele><time>2026-04-04T14:33:26.066Z</time></trkpt><trkpt lat="46.2193858" lon="13.1732768"><ele>193.0</ele><time>2026-04-04T14:33:27.066Z</time></trkpt><trkpt lat="46.2193037" lon="13.1729645"><ele>194.0</ele><time>2026-04-04T14:33:28.066Z</time></trkpt><trkpt lat="46.2192213" lon="13.1726504"><ele>196.0</ele><time>2026-04-04T14:33:29.066Z</time></trkpt><trkpt lat="46.2191399" lon="13.1723322"><ele>198.0</ele><time>2026-04-04T14:33:30.065Z</time></trkpt><trkpt lat="46.2190576" lon="13.1720144"><ele>195.5</ele><time>2026-04-04T14:33:31.065Z</time></trkpt><trkpt lat="46.2189752" lon="13.1716942"><ele>193.0</ele><time>2026-04-04T14:33:32.065Z</time></trkpt><trkpt lat="46.2188916" lon="13.1713707"><ele>193.0</ele><time>2026-04-04T14:33:33.065Z</time></trkpt><trkpt lat="46.2188103" lon="13.1710433"><ele>193.0</ele><time>2026-04-04T14:33:34.067Z</time></trkpt><trkpt lat="46.2187261" lon="13.1707116"><ele>192.5</ele><time>2026-04-04T14:33:35.067Z</time></trkpt><trkpt lat="46.21864" lon="13.1703783"><ele>192.0</ele><time>2026-04-04T14:33:36.067Z</time></trkpt><trkpt lat="46.2185545" lon="13.1700473"><ele>194.0</ele><time>2026-04-04T14:33:37.065Z</time></trkpt><trkpt lat="46.2184693" lon="13.169716"><ele>196.0</ele><time>2026-04-04T14:33:38.067Z</time></trkpt><trkpt lat="46.2183835" lon="13.1693858"><ele>196.0</ele><time>2026-04-04T14:33:39.067Z</time></trkpt><trkpt lat="46.2182999" lon="13.1690628"><ele>196.0</ele><time>2026-04-04T14:33:40.066Z</time></trkpt><trkpt lat="46.2182187" lon="13.168745"><ele>194.5</ele><time>2026-04-04T14:33:41.066Z</time></trkpt><trkpt lat="46.2181302" lon="13.1684407"><ele>193.0</ele><time>2026-04-04T14:33:42.066Z</time></trkpt><trkpt lat="46.218038" lon="13.168144"><ele>193.0</ele><time>2026-04-04T14:33:43.066Z</time></trkpt><trkpt lat="46.2179401" lon="13.1678582"><ele>193.0</ele><time>2026-04-04T14:33:44.065Z</time></trkpt><trkpt lat="46.2178338" lon="13.1675823"><ele>193.0</ele><time>2026-04-04T14:33:45.066Z</time></trkpt><trkpt lat="46.2177168" lon="13.1673089"><ele>195.0</ele><time>2026-04-04T14:33:46.066Z</time></trkpt><trkpt lat="46.2175887" lon="13.1670356"><ele>197.0</ele><time>2026-04-04T14:33:47.067Z</time></trkpt><trkpt lat="46.2174491" lon="13.1667535"><ele>194.5</ele><time>2026-04-04T14:33:48.066Z</time></trkpt><trkpt lat="46.2172997" lon="13.1664624"><ele>192.0</ele><time>2026-04-04T14:33:49.066Z</time></trkpt><trkpt lat="46.2171462" lon="13.1661624"><ele>192.0</ele><time>2026-04-04T14:33:50.066Z</time></trkpt><trkpt lat="46.2169943" lon="13.165862"><ele>192.0</ele><time>2026-04-04T14:33:51.066Z</time></trkpt><trkpt lat="46.2168401" lon="13.1655596"><ele>192.5</ele><time>2026-04-04T14:33:52.067Z</time></trkpt><trkpt lat="46.2166845" lon="13.1652588"><ele>193.0</ele><time>2026-04-04T14:33:53.066Z</time></trkpt><trkpt lat="46.2165281" lon="13.1649577"><ele>192.5</ele><time>2026-04-04T14:33:54.066Z</time></trkpt><trkpt lat="46.2163727" lon="13.1646556"><ele>192.0</ele><time>2026-04-04T14:33:55.066Z</time></trkpt><trkpt lat="46.2162209" lon="13.1643595"><ele>192.0</ele><time>2026-04-04T14:33:56.065Z</time></trkpt><trkpt lat="46.2160741" lon="13.1640742"><ele>192.0</ele><time>2026-04-04T14:33:57.067Z</time></trkpt><trkpt lat="46.2159286" lon="13.1637894"><ele>193.0</ele><time>2026-04-04T14:33:58.066Z</time></trkpt><trkpt lat="46.2157859" lon="13.1635075"><ele>194.0</ele><time>2026-04-04T14:33:59.066Z</time></trkpt><trkpt lat="46.2156435" lon="13.1632246"><ele>195.5</ele><time>2026-04-04T14:34:00.066Z</time></trkpt><trkpt lat="46.2155046" lon="13.1629403"><ele>197.0</ele><time>2026-04-04T14:34:01.066Z</time></trkpt><trkpt lat="46.2153727" lon="13.1626471"><ele>196.5</ele><time>2026-04-04T14:34:02.066Z</time></trkpt><trkpt lat="46.2152532" lon="13.1623469"><ele>196.0</ele><time>2026-04-04T14:34:03.065Z</time></trkpt><trkpt lat="46.2151428" lon="13.1620375"><ele>196.0</ele><time>2026-04-04T14:34:04.066Z</time></trkpt><trkpt lat="46.2150427" lon="13.1617235"><ele>196.0</ele><time>2026-04-04T14:34:05.065Z</time></trkpt><trkpt lat="46.2149531" lon="13.1614028"><ele>195.5</ele><time>2026-04-04T14:34:06.065Z</time></trkpt><trkpt lat="46.2148795" lon="13.1610772"><ele>195.0</ele><time>2026-04-04T14:34:07.066Z</time></trkpt><trkpt lat="46.2148167" lon="13.1607455"><ele>195.0</ele><time>2026-04-04T14:34:08.067Z</time></trkpt><trkpt lat="46.2147553" lon="13.1604131"><ele>195.0</ele><time>2026-04-04T14:34:09.067Z</time></trkpt><trkpt lat="46.2146893" lon="13.1600799"><ele>194.5</ele><time>2026-04-04T14:34:10.067Z</time></trkpt><trkpt lat="46.2146242" lon="13.1597463"><ele>194.0</ele><time>2026-04-04T14:34:11.066Z</time></trkpt><trkpt lat="46.2145591" lon="13.1594115"><ele>194.0</ele><time>2026-04-04T14:34:12.066Z</time></trkpt><trkpt lat="46.2144916" lon="13.1590771"><ele>194.0</ele><time>2026-04-04T14:34:13.065Z</time></trkpt><trkpt lat="46.214424" lon="13.1587418"><ele>194.5</ele><time>2026-04-04T14:34:14.066Z</time></trkpt><trkpt lat="46.2143576" lon="13.158405"><ele>195.0</ele><time>2026-04-04T14:34:15.065Z</time></trkpt><trkpt lat="46.2142923" lon="13.1580658"><ele>195.5</ele><time>2026-04-04T14:34:16.066Z</time></trkpt><trkpt lat="46.2142329" lon="13.1577276"><ele>196.0</ele><time>2026-04-04T14:34:17.066Z</time></trkpt><trkpt lat="46.2141868" lon="13.1573849"><ele>196.0</ele><time>2026-04-04T14:34:18.067Z</time></trkpt><trkpt lat="46.214154" lon="13.1570433"><ele>196.0</ele><time>2026-04-04T14:34:19.065Z</time></trkpt><trkpt lat="46.2141265" lon="13.1567018"><ele>197.0</ele><time>2026-04-04T14:34:20.067Z</time></trkpt><trkpt lat="46.2141019" lon="13.1563564"><ele>198.0</ele><time>2026-04-04T14:34:21.066Z</time></trkpt><trkpt lat="46.2140742" lon="13.1560119"><ele>198.0</ele><time>2026-04-04T14:34:22.065Z</time></trkpt><trkpt lat="46.2140491" lon="13.1556637"><ele>198.0</ele><time>2026-04-04T14:34:23.065Z</time></trkpt><trkpt lat="46.2140238" lon="13.155317"><ele>198.0</ele><time>2026-04-04T14:34:24.065Z</time></trkpt><trkpt lat="46.2140001" lon="13.1549707"><ele>198.0</ele><time>2026-04-04T14:34:25.067Z</time></trkpt><trkpt lat="46.213976" lon="13.1546296"><ele>198.0</ele><time>2026-04-04T14:34:26.066Z</time></trkpt><trkpt lat="46.2139511" lon="13.1542983"><ele>198.0</ele><time>2026-04-04T14:34:27.065Z</time></trkpt><trkpt lat="46.2139299" lon="13.1539662"><ele>198.0</ele><time>2026-04-04T14:34:28.067Z</time></trkpt><trkpt lat="46.2139074" lon="13.1536352"><ele>198.0</ele><time>2026-04-04T14:34:29.066Z</time></trkpt><trkpt lat="46.213883" lon="13.1533013"><ele>197.0</ele><time>2026-04-04T14:34:30.066Z</time></trkpt><trkpt lat="46.2138575" lon="13.1529635"><ele>196.0</ele><time>2026-04-04T14:34:31.066Z</time></trkpt><trkpt lat="46.2138308" lon="13.1526204"><ele>194.5</ele><time>2026-04-04T14:34:32.066Z</time></trkpt><trkpt lat="46.2138085" lon="13.1522673"><ele>193.0</ele><time>2026-04-04T14:34:33.065Z</time></trkpt><trkpt lat="46.2137844" lon="13.1519072"><ele>193.0</ele><time>2026-04-04T14:34:34.066Z</time></trkpt><trkpt lat="46.2137605" lon="13.1515428"><ele>193.0</ele><time>2026-04-04T14:34:35.066Z</time></trkpt><trkpt lat="46.2137353" lon="13.1511736"><ele>192.5</ele><time>2026-04-04T14:34:36.066Z</time></trkpt><trkpt lat="46.2137104" lon="13.1508013"><ele>192.0</ele><time>2026-04-04T14:34:37.066Z</time></trkpt><trkpt lat="46.21368" lon="13.1504337"><ele>192.0</ele><time>2026-04-04T14:34:38.066Z</time></trkpt><trkpt lat="46.2136432" lon="13.1500779"><ele>192.0</ele><time>2026-04-04T14:34:39.065Z</time></trkpt><trkpt lat="46.2135971" lon="13.1497396"><ele>192.0</ele><time>2026-04-04T14:34:40.065Z</time></trkpt><trkpt lat="46.2135309" lon="13.1494158"><ele>192.0</ele><time>2026-04-04T14:34:41.067Z</time></trkpt><trkpt lat="46.2134497" lon="13.1491015"><ele>192.5</ele><time>2026-04-04T14:34:42.067Z</time></trkpt><trkpt lat="46.2133587" lon="13.1487943"><ele>193.0</ele><time>2026-04-04T14:34:43.066Z</time></trkpt><trkpt lat="46.2132552" lon="13.1484964"><ele>191.0</ele><time>2026-04-04T14:34:44.066Z</time></trkpt><trkpt lat="46.2131452" lon="13.1482034"><ele>189.0</ele><time>2026-04-04T14:34:45.066Z</time></trkpt><trkpt lat="46.2130388" lon="13.1479192"><ele>189.0</ele><time>2026-04-04T14:34:46.066Z</time></trkpt><trkpt lat="46.2129409" lon="13.1476501"><ele>189.0</ele><time>2026-04-04T14:34:47.066Z</time></trkpt><trkpt lat="46.2128468" lon="13.14739"><ele>189.0</ele><time>2026-04-04T14:34:48.066Z</time></trkpt><trkpt lat="46.212751" lon="13.1471316"><ele>189.33333333333334</ele><time>2026-04-04T14:34:49.065Z</time></trkpt><trkpt lat="46.2126581" lon="13.1468747"><ele>189.66666666666669</ele><time>2026-04-04T14:34:50.066Z</time></trkpt><trkpt lat="46.2125635" lon="13.1466167"><ele>190.0</ele><time>2026-04-04T14:34:51.065Z</time></trkpt><trkpt lat="46.2124686" lon="13.1463576"><ele>190.0</ele><time>2026-04-04T14:34:52.067Z</time></trkpt><trkpt lat="46.2123734" lon="13.1460932"><ele>190.0</ele><time>2026-04-04T14:34:53.065Z</time></trkpt><trkpt lat="46.2122734" lon="13.1458263"><ele>190.0</ele><time>2026-04-04T14:34:54.066Z</time></trkpt><trkpt lat="46.2121729" lon="13.1455583"><ele>190.33333333333334</ele><time>2026-04-04T14:34:55.065Z</time></trkpt><trkpt lat="46.2120719" lon="13.1452858"><ele>190.66666666666666</ele><time>2026-04-04T14:34:56.067Z</time></trkpt><trkpt lat="46.2119692" lon="13.1450085"><ele>191.0</ele><time>2026-04-04T14:34:57.065Z</time></trkpt><trkpt lat="46.2118647" lon="13.144731"><ele>190.66666666666666</ele><time>2026-04-04T14:34:58.065Z</time></trkpt><trkpt lat="46.2117653" lon="13.1444574"><ele>190.33333333333334</ele><time>2026-04-04T14:34:59.065Z</time></trkpt><trkpt lat="46.2116678" lon="13.1441911"><ele>190.0</ele><time>2026-04-04T14:35:00.066Z</time></trkpt><trkpt lat="46.211572" lon="13.143936"><ele>190.33333333333334</ele><time>2026-04-04T14:35:01.065Z</time></trkpt><trkpt lat="46.2114788" lon="13.1436821"><ele>190.66666666666666</ele><time>2026-04-04T14:35:02.066Z</time></trkpt><trkpt lat="46.2113845" lon="13.1434275"><ele>191.0</ele><time>2026-04-04T14:35:03.066Z</time></trkpt><trkpt lat="46.2112901" lon="13.143176"><ele>189.66666666666666</ele><time>2026-04-04T14:35:04.066Z</time></trkpt><trkpt lat="46.2111942" lon="13.1429283"><ele>188.33333333333334</ele><time>2026-04-04T14:35:05.067Z</time></trkpt><trkpt lat="46.2110961" lon="13.1426868"><ele>187.0</ele><time>2026-04-04T14:35:06.065Z</time></trkpt><trkpt lat="46.2109914" lon="13.1424532"><ele>187.0</ele><time>2026-04-04T14:35:07.067Z</time></trkpt><trkpt lat="46.2108768" lon="13.142219"><ele>187.0</ele><time>2026-04-04T14:35:08.065Z</time></trkpt><trkpt lat="46.210755" lon="13.1419899"><ele>187.0</ele><time>2026-04-04T14:35:09.065Z</time></trkpt><trkpt lat="46.2106286" lon="13.1417556"><ele>187.66666666666669</ele><time>2026-04-04T14:35:10.065Z</time></trkpt><trkpt lat="46.2105035" lon="13.1415077"><ele>188.33333333333334</ele><time>2026-04-04T14:35:11.066Z</time></trkpt><trkpt lat="46.2103731" lon="13.141253"><ele>189.0</ele><time>2026-04-04T14:35:12.066Z</time></trkpt><trkpt lat="46.210236" lon="13.1409884"><ele>189.0</ele><time>2026-04-04T14:35:13.065Z</time></trkpt><trkpt lat="46.2100929" lon="13.1407164"><ele>189.0</ele><time>2026-04-04T14:35:14.065Z</time></trkpt><trkpt lat="46.2099505" lon="13.140443"><ele>189.5</ele><time>2026-04-04T14:35:15.065Z</time></trkpt><trkpt lat="46.2098075" lon="13.1401672"><ele>190.0</ele><time>2026-04-04T14:35:16.066Z</time></trkpt><trkpt lat="46.2096632" lon="13.1398914"><ele>190.0</ele><time>2026-04-04T14:35:17.065Z</time></trkpt><trkpt lat="46.209522" lon="13.1396229"><ele>190.0</ele><time>2026-04-04T14:35:18.065Z</time></trkpt><trkpt lat="46.2093893" lon="13.1393752"><ele>190.0</ele><time>2026-04-04T14:35:19.066Z</time></trkpt><trkpt lat="46.2092642" lon="13.139136"><ele>190.0</ele><time>2026-04-04T14:35:20.066Z</time></trkpt><trkpt lat="46.2091374" lon="13.1389018"><ele>190.0</ele><time>2026-04-04T14:35:21.066Z</time></trkpt><trkpt lat="46.2090066" lon="13.1386612"><ele>190.66666666666669</ele><time>2026-04-04T14:35:22.066Z</time></trkpt><trkpt lat="46.2088705" lon="13.1384237"><ele>191.33333333333334</ele><time>2026-04-04T14:35:23.066Z</time></trkpt><trkpt lat="46.208727" lon="13.1381885"><ele>192.0</ele><time>2026-04-04T14:35:24.065Z</time></trkpt><trkpt lat="46.2085821" lon="13.137953"><ele>192.33333333333331</ele><time>2026-04-04T14:35:25.066Z</time></trkpt><trkpt lat="46.2084343" lon="13.1377216"><ele>192.66666666666666</ele><time>2026-04-04T14:35:26.066Z</time></trkpt><trkpt lat="46.2082812" lon="13.1374915"><ele>193.0</ele><time>2026-04-04T14:35:27.065Z</time></trkpt><trkpt lat="46.2081228" lon="13.1372596"><ele>193.0</ele><time>2026-04-04T14:35:28.065Z</time></trkpt><trkpt lat="46.2079648" lon="13.1370267"><ele>193.0</ele><time>2026-04-04T14:35:29.066Z</time></trkpt><trkpt lat="46.2078129" lon="13.1367968"><ele>193.0</ele><time>2026-04-04T14:35:30.066Z</time></trkpt><trkpt lat="46.2076658" lon="13.1365803"><ele>192.0</ele><time>2026-04-04T14:35:31.066Z</time></trkpt><trkpt lat="46.2075236" lon="13.1363743"><ele>191.0</ele><time>2026-04-04T14:35:32.066Z</time></trkpt><trkpt lat="46.2073863" lon="13.1361716"><ele>190.0</ele><time>2026-04-04T14:35:33.065Z</time></trkpt><trkpt lat="46.2072508" lon="13.1359716"><ele>190.0</ele><time>2026-04-04T14:35:34.065Z</time></trkpt><trkpt lat="46.207118" lon="13.135773"><ele>190.0</ele><time>2026-04-04T14:35:35.065Z</time></trkpt><trkpt lat="46.2069845" lon="13.1355788"><ele>190.0</ele><time>2026-04-04T14:35:36.067Z</time></trkpt><trkpt lat="46.2068525" lon="13.135389"><ele>190.0</ele><time>2026-04-04T14:35:37.066Z</time></trkpt><trkpt lat="46.2067268" lon="13.135213"><ele>190.0</ele><time>2026-04-04T14:35:38.066Z</time></trkpt><trkpt lat="46.2066117" lon="13.135045"><ele>190.0</ele><time>2026-04-04T14:35:39.065Z</time></trkpt><trkpt lat="46.2065106" lon="13.1348694"><ele>189.33333333333334</ele><time>2026-04-04T14:35:40.066Z</time></trkpt><trkpt lat="46.2064316" lon="13.1346786"><ele>188.66666666666666</ele><time>2026-04-04T14:35:41.066Z</time></trkpt><trkpt lat="46.2063659" lon="13.1344752"><ele>188.0</ele><time>2026-04-04T14:35:42.065Z</time></trkpt><trkpt lat="46.2063289" lon="13.1342597"><ele>190.0</ele><time>2026-04-04T14:35:43.066Z</time></trkpt><trkpt lat="46.2063177" lon="13.134028"><ele>192.0</ele><time>2026-04-04T14:35:44.066Z</time></trkpt><trkpt lat="46.2063286" lon="13.1337855"><ele>194.0</ele><time>2026-04-04T14:35:45.066Z</time></trkpt><trkpt lat="46.2063556" lon="13.1335352"><ele>194.0</ele><time>2026-04-04T14:35:46.067Z</time></trkpt><trkpt lat="46.2063848" lon="13.1332818"><ele>194.0</ele><time>2026-04-04T14:35:47.065Z</time></trkpt><trkpt lat="46.2064129" lon="13.1330282"><ele>194.0</ele><time>2026-04-04T14:35:48.066Z</time></trkpt><trkpt lat="46.2064408" lon="13.1327905"><ele>196.0</ele><time>2026-04-04T14:35:49.066Z</time></trkpt><trkpt lat="46.2064675" lon="13.1325751"><ele>198.0</ele><time>2026-04-04T14:35:50.066Z</time></trkpt><trkpt lat="46.2064968" lon="13.1323638"><ele>200.0</ele><time>2026-04-04T14:35:51.066Z</time></trkpt><trkpt lat="46.2065347" lon="13.13215"><ele>200.0</ele><time>2026-04-04T14:35:52.066Z</time></trkpt><trkpt lat="46.2065779" lon="13.1319356"><ele>200.0</ele><time>2026-04-04T14:35:53.065Z</time></trkpt><trkpt lat="46.2066239" lon="13.1317172"><ele>200.0</ele><time>2026-04-04T14:35:54.065Z</time></trkpt><trkpt lat="46.2066811" lon="13.1315017"><ele>201.0</ele><time>2026-04-04T14:35:55.065Z</time></trkpt><trkpt lat="46.2067496" lon="13.1312878"><ele>202.0</ele><time>2026-04-04T14:35:56.066Z</time></trkpt><trkpt lat="46.2068228" lon="13.1310766"><ele>203.0</ele><time>2026-04-04T14:35:57.067Z</time></trkpt><trkpt lat="46.2068997" lon="13.1308652"><ele>206.66666666666669</ele><time>2026-04-04T14:35:58.065Z</time></trkpt><trkpt lat="46.2069822" lon="13.130668"><ele>210.33333333333331</ele><time>2026-04-04T14:35:59.065Z</time></trkpt><trkpt lat="46.2070704" lon="13.1304773"><ele>214.0</ele><time>2026-04-04T14:36:00.066Z</time></trkpt><trkpt lat="46.2071529" lon="13.1302984"><ele>214.0</ele><time>2026-04-04T14:36:01.065Z</time></trkpt><trkpt lat="46.2072245" lon="13.1301278"><ele>214.0</ele><time>2026-04-04T14:36:02.065Z</time></trkpt><trkpt lat="46.2072838" lon="13.1299529"><ele>214.0</ele><time>2026-04-04T14:36:03.065Z</time></trkpt><trkpt lat="46.2073324" lon="13.1297739"><ele>214.0</ele><time>2026-04-04T14:36:04.066Z</time></trkpt><trkpt lat="46.2073754" lon="13.1295924"><ele>213.75</ele><time>2026-04-04T14:36:05.065Z</time></trkpt><trkpt lat="46.2074074" lon="13.1294099"><ele>213.5</ele><time>2026-04-04T14:36:06.065Z</time></trkpt><trkpt lat="46.2074268" lon="13.1292186"><ele>213.25</ele><time>2026-04-04T14:36:07.066Z</time></trkpt><trkpt lat="46.2074335" lon="13.1290252"><ele>213.0</ele><time>2026-04-04T14:36:08.066Z</time></trkpt><trkpt lat="46.2074286" lon="13.1288295"><ele>212.25</ele><time>2026-04-04T14:36:09.066Z</time></trkpt><trkpt lat="46.2074207" lon="13.1286446"><ele>211.5</ele><time>2026-04-04T14:36:10.067Z</time></trkpt><trkpt lat="46.2074102" lon="13.1284683"><ele>210.75</ele><time>2026-04-04T14:36:11.065Z</time></trkpt><trkpt lat="46.207399" lon="13.1282881"><ele>210.0</ele><time>2026-04-04T14:36:12.065Z</time></trkpt><trkpt lat="46.2073885" lon="13.1281019"><ele>209.25</ele><time>2026-04-04T14:36:13.065Z</time></trkpt><trkpt lat="46.2073777" lon="13.1279164"><ele>208.5</ele><time>2026-04-04T14:36:14.067Z</time></trkpt><trkpt lat="46.2073647" lon="13.1277351"><ele>207.75</ele><time>2026-04-04T14:36:15.066Z</time></trkpt><trkpt lat="46.2073555" lon="13.1275605"><ele>207.0</ele><time>2026-04-04T14:36:16.066Z</time></trkpt><trkpt lat="46.2073501" lon="13.1273859"><ele>206.25</ele><time>2026-04-04T14:36:17.065Z</time></trkpt><trkpt lat="46.2073439" lon="13.1272066"><ele>205.5</ele><time>2026-04-04T14:36:18.065Z</time></trkpt><trkpt lat="46.2073403" lon="13.1270196"><ele>204.75</ele><time>2026-04-04T14:36:19.065Z</time></trkpt><trkpt lat="46.207341" lon="13.1268367"><ele>204.0</ele><time>2026-04-04T14:36:20.065Z</time></trkpt><trkpt lat="46.2073452" lon="13.1266617"><ele>203.6</ele><time>2026-04-04T14:36:21.066Z</time></trkpt><trkpt lat="46.2073527" lon="13.1264921"><ele>203.2</ele><time>2026-04-04T14:36:22.066Z</time></trkpt><trkpt lat="46.2073625" lon="13.1263278"><ele>202.79999999999998</ele><time>2026-04-04T14:36:23.066Z</time></trkpt><trkpt lat="46.2073767" lon="13.1261744"><ele>202.39999999999998</ele><time>2026-04-04T14:36:24.066Z</time></trkpt><trkpt lat="46.207394" lon="13.1260407"><ele>202.0</ele><time>2026-04-04T14:36:25.065Z</time></trkpt><trkpt lat="46.2074092" lon="13.1259302"><ele>202.0</ele><time>2026-04-04T14:36:26.065Z</time></trkpt><trkpt lat="46.2074273" lon="13.1257786"><ele>202.0</ele><time>2026-04-04T14:36:28.066Z</time></trkpt><trkpt lat="46.2074386" lon="13.1256733"><ele>202.0</ele><time>2026-04-04T14:36:30.065Z</time></trkpt><trkpt lat="46.2074462" lon="13.1255294"><ele>202.0</ele><time>2026-04-04T14:36:32.066Z</time></trkpt><trkpt lat="46.2073855" lon="13.125376"><ele>202.0</ele><time>2026-04-04T14:36:34.066Z</time></trkpt><trkpt lat="46.20733" lon="13.1253137"><ele>201.2</ele><time>2026-04-04T14:36:35.065Z</time></trkpt><trkpt lat="46.2072674" lon="13.1252399"><ele>200.39999999999998</ele><time>2026-04-04T14:36:36.065Z</time></trkpt><trkpt lat="46.2071999" lon="13.12516"><ele>199.60000000000002</ele><time>2026-04-04T14:36:37.066Z</time></trkpt><trkpt lat="46.2071288" lon="13.1250742"><ele>198.8</ele><time>2026-04-04T14:36:38.066Z</time></trkpt><trkpt lat="46.2070521" lon="13.1249945"><ele>198.0</ele><time>2026-04-04T14:36:39.066Z</time></trkpt><trkpt lat="46.2069714" lon="13.1249156"><ele>198.2</ele><time>2026-04-04T14:36:40.066Z</time></trkpt><trkpt lat="46.2068918" lon="13.1248371"><ele>198.4</ele><time>2026-04-04T14:36:41.065Z</time></trkpt><trkpt lat="46.2067992" lon="13.1247685"><ele>198.6</ele><time>2026-04-04T14:36:42.066Z</time></trkpt><trkpt lat="46.206701" lon="13.1247125"><ele>198.79999999999998</ele><time>2026-04-04T14:36:43.067Z</time></trkpt><trkpt lat="46.2066016" lon="13.1246623"><ele>199.0</ele><time>2026-04-04T14:36:44.065Z</time></trkpt><trkpt lat="46.2064989" lon="13.124607"><ele>198.25</ele><time>2026-04-04T14:36:45.065Z</time></trkpt><trkpt lat="46.2063883" lon="13.1245485"><ele>197.5</ele><time>2026-04-04T14:36:46.066Z</time></trkpt><trkpt lat="46.2062738" lon="13.1244881"><ele>196.75</ele><time>2026-04-04T14:36:47.065Z</time></trkpt><trkpt lat="46.2061531" lon="13.1244259"><ele>196.0</ele><time>2026-04-04T14:36:48.066Z</time></trkpt><trkpt lat="46.2060275" lon="13.1243629"><ele>196.0</ele><time>2026-04-04T14:36:49.066Z</time></trkpt><trkpt lat="46.2059034" lon="13.1243012"><ele>196.0</ele><time>2026-04-04T14:36:50.066Z</time></trkpt><trkpt lat="46.2057807" lon="13.1242371"><ele>196.0</ele><time>2026-04-04T14:36:51.065Z</time></trkpt><trkpt lat="46.2056604" lon="13.1241759"><ele>196.0</ele><time>2026-04-04T14:36:52.065Z</time></trkpt><trkpt lat="46.2055429" lon="13.1241135"><ele>194.5</ele><time>2026-04-04T14:36:53.066Z</time></trkpt><trkpt lat="46.205428" lon="13.1240504"><ele>193.0</ele><time>2026-04-04T14:36:54.065Z</time></trkpt><trkpt lat="46.2053145" lon="13.1239777"><ele>191.5</ele><time>2026-04-04T14:36:55.065Z</time></trkpt><trkpt lat="46.205199" lon="13.1238968"><ele>190.0</ele><time>2026-04-04T14:36:56.065Z</time></trkpt><trkpt lat="46.2050822" lon="13.1238066"><ele>190.0</ele><time>2026-04-04T14:36:57.066Z</time></trkpt><trkpt lat="46.2049638" lon="13.1237163"><ele>190.0</ele><time>2026-04-04T14:36:58.065Z</time></trkpt><trkpt lat="46.204843" lon="13.1236267"><ele>190.0</ele><time>2026-04-04T14:36:59.066Z</time></trkpt><trkpt lat="46.2047312" lon="13.1235313"><ele>190.0</ele><time>2026-04-04T14:37:00.065Z</time></trkpt><trkpt lat="46.2046347" lon="13.1234104"><ele>188.5</ele><time>2026-04-04T14:37:01.065Z</time></trkpt><trkpt lat="46.2045557" lon="13.1232599"><ele>187.0</ele><time>2026-04-04T14:37:02.066Z</time></trkpt><trkpt lat="46.2044942" lon="13.1230777"><ele>185.5</ele><time>2026-04-04T14:37:03.065Z</time></trkpt><trkpt lat="46.2044426" lon="13.1228768"><ele>184.0</ele><time>2026-04-04T14:37:04.065Z</time></trkpt><trkpt lat="46.2043851" lon="13.1226589"><ele>182.66666666666669</ele><time>2026-04-04T14:37:05.066Z</time></trkpt><trkpt lat="46.204319" lon="13.1224315"><ele>181.33333333333334</ele><time>2026-04-04T14:37:06.066Z</time></trkpt><trkpt lat="46.2042408" lon="13.1222036"><ele>180.0</ele><time>2026-04-04T14:37:07.066Z</time></trkpt><trkpt lat="46.2041468" lon="13.1219848"><ele>179.66666666666666</ele><time>2026-04-04T14:37:08.066Z</time></trkpt><trkpt lat="46.2040438" lon="13.1217713"><ele>179.33333333333331</ele><time>2026-04-04T14:37:09.066Z</time></trkpt><trkpt lat="46.2039368" lon="13.1215594"><ele>179.0</ele><time>2026-04-04T14:37:10.065Z</time></trkpt><trkpt lat="46.2038274" lon="13.1213545"><ele>177.33333333333331</ele><time>2026-04-04T14:37:11.066Z</time></trkpt><trkpt lat="46.2037252" lon="13.1211602"><ele>175.66666666666666</ele><time>2026-04-04T14:37:12.065Z</time></trkpt><trkpt lat="46.2036291" lon="13.1209781"><ele>174.0</ele><time>2026-04-04T14:37:13.066Z</time></trkpt><trkpt lat="46.203536" lon="13.1208059"><ele>174.0</ele><time>2026-04-04T14:37:14.066Z</time></trkpt><trkpt lat="46.2034446" lon="13.1206453"><ele>174.0</ele><time>2026-04-04T14:37:15.066Z</time></trkpt><trkpt lat="46.2033601" lon="13.1204876"><ele>174.0</ele><time>2026-04-04T14:37:16.065Z</time></trkpt><trkpt lat="46.2032741" lon="13.1203328"><ele>174.0</ele><time>2026-04-04T14:37:17.067Z</time></trkpt><trkpt lat="46.2031927" lon="13.1201895"><ele>174.0</ele><time>2026-04-04T14:37:18.066Z</time></trkpt><trkpt lat="46.2031145" lon="13.1200459"><ele>174.0</ele><time>2026-04-04T14:37:19.066Z</time></trkpt><trkpt lat="46.2030376" lon="13.1199066"><ele>174.0</ele><time>2026-04-04T14:37:20.067Z</time></trkpt><trkpt lat="46.2029676" lon="13.119773"><ele>174.0</ele><time>2026-04-04T14:37:21.066Z</time></trkpt><trkpt lat="46.2029053" lon="13.1196474"><ele>174.33333333333334</ele><time>2026-04-04T14:37:22.067Z</time></trkpt><trkpt lat="46.2028485" lon="13.1195327"><ele>174.66666666666666</ele><time>2026-04-04T14:37:23.066Z</time></trkpt><trkpt lat="46.2028036" lon="13.1194333"><ele>175.0</ele><time>2026-04-04T14:37:24.065Z</time></trkpt><trkpt lat="46.20277" lon="13.1193493"><ele>175.33333333333331</ele><time>2026-04-04T14:37:25.066Z</time></trkpt><trkpt lat="46.2027392" lon="13.1192593"><ele>175.66666666666666</ele><time>2026-04-04T14:37:26.065Z</time></trkpt><trkpt lat="46.2027252" lon="13.1191539"><ele>176.0</ele><time>2026-04-04T14:37:27.066Z</time></trkpt><trkpt lat="46.2027187" lon="13.1190365"><ele>176.0</ele><time>2026-04-04T14:37:28.065Z</time></trkpt><trkpt lat="46.2026854" lon="13.1189178"><ele>176.0</ele><time>2026-04-04T14:37:29.066Z</time></trkpt><trkpt lat="46.2026257" lon="13.1188221"><ele>176.0</ele><time>2026-04-04T14:37:30.067Z</time></trkpt><trkpt lat="46.2025484" lon="13.1187578"><ele>176.0</ele><time>2026-04-04T14:37:31.065Z</time></trkpt><trkpt lat="46.202466" lon="13.1186861"><ele>176.0</ele><time>2026-04-04T14:37:32.067Z</time></trkpt><trkpt lat="46.2023873" lon="13.1185776"><ele>175.5</ele><time>2026-04-04T14:37:33.066Z</time></trkpt><trkpt lat="46.2023127" lon="13.1184427"><ele>175.0</ele><time>2026-04-04T14:37:34.065Z</time></trkpt><trkpt lat="46.2022409" lon="13.1182857"><ele>174.5</ele><time>2026-04-04T14:37:35.066Z</time></trkpt><trkpt lat="46.2021667" lon="13.1181165"><ele>174.0</ele><time>2026-04-04T14:37:36.065Z</time></trkpt><trkpt lat="46.202094" lon="13.1179498"><ele>174.0</ele><time>2026-04-04T14:37:37.066Z</time></trkpt><trkpt lat="46.202024" lon="13.1177884"><ele>174.0</ele><time>2026-04-04T14:37:38.067Z</time></trkpt><trkpt lat="46.2019629" lon="13.1176514"><ele>174.0</ele><time>2026-04-04T14:37:39.066Z</time></trkpt><trkpt lat="46.2019119" lon="13.1175376"><ele>174.0</ele><time>2026-04-04T14:37:40.066Z</time></trkpt><trkpt lat="46.2018656" lon="13.1174471"><ele>174.0</ele><time>2026-04-04T14:37:41.066Z</time></trkpt><trkpt lat="46.2018212" lon="13.1173667"><ele>174.0</ele><time>2026-04-04T14:37:42.066Z</time></trkpt><trkpt lat="46.201742" lon="13.1172356"><ele>174.0</ele><time>2026-04-04T14:37:44.065Z</time></trkpt><trkpt lat="46.2016953" lon="13.1171676"><ele>174.0</ele><time>2026-04-04T14:37:45.066Z</time></trkpt><trkpt lat="46.2016333" lon="13.1170887"><ele>174.0</ele><time>2026-04-04T14:37:46.065Z</time></trkpt><trkpt lat="46.2015496" lon="13.1169936"><ele>174.0</ele><time>2026-04-04T14:37:47.066Z</time></trkpt><trkpt lat="46.2014461" lon="13.1168763"><ele>174.0</ele><time>2026-04-04T14:37:48.065Z</time></trkpt><trkpt lat="46.2013207" lon="13.1167421"><ele>174.0</ele><time>2026-04-04T14:37:49.065Z</time></trkpt><trkpt lat="46.2011831" lon="13.1165961"><ele>174.0</ele><time>2026-04-04T14:37:50.067Z</time></trkpt><trkpt lat="46.2010269" lon="13.1164327"><ele>174.0</ele><time>2026-04-04T14:37:51.066Z</time></trkpt><trkpt lat="46.2008539" lon="13.1162481"><ele>174.0</ele><time>2026-04-04T14:37:52.065Z</time></trkpt><trkpt lat="46.200659" lon="13.1160503"><ele>173.0</ele><time>2026-04-04T14:37:53.066Z</time></trkpt><trkpt lat="46.2004448" lon="13.1158298"><ele>172.0</ele><time>2026-04-04T14:37:54.066Z</time></trkpt><trkpt lat="46.2002273" lon="13.1155811"><ele>172.0</ele><time>2026-04-04T14:37:55.067Z</time></trkpt><trkpt lat="46.2000271" lon="13.1153563"><ele>172.0</ele><time>2026-04-04T14:37:56.066Z</time></trkpt><trkpt lat="46.1998351" lon="13.1151424"><ele>172.0</ele><time>2026-04-04T14:37:57.065Z</time></trkpt><trkpt lat="46.1996567" lon="13.1149333"><ele>172.0</ele><time>2026-04-04T14:37:58.066Z</time></trkpt><trkpt lat="46.1994968" lon="13.114725"><ele>172.0</ele><time>2026-04-04T14:37:59.066Z</time></trkpt><trkpt lat="46.1993566" lon="13.1145107"><ele>172.0</ele><time>2026-04-04T14:38:00.066Z</time></trkpt><trkpt lat="46.1992354" lon="13.1142883"><ele>172.0</ele><time>2026-04-04T14:38:01.066Z</time></trkpt><trkpt lat="46.1991213" lon="13.1140569"><ele>172.0</ele><time>2026-04-04T14:38:02.066Z</time></trkpt><trkpt lat="46.1990066" lon="13.1138222"><ele>172.0</ele><time>2026-04-04T14:38:03.066Z</time></trkpt><trkpt lat="46.198893" lon="13.113591"><ele>172.0</ele><time>2026-04-04T14:38:04.065Z</time></trkpt><trkpt lat="46.1987819" lon="13.1133646"><ele>172.0</ele><time>2026-04-04T14:38:05.066Z</time></trkpt><trkpt lat="46.1986714" lon="13.1131432"><ele>172.33333333333334</ele><time>2026-04-04T14:38:06.066Z</time></trkpt><trkpt lat="46.1985576" lon="13.1129204"><ele>172.66666666666666</ele><time>2026-04-04T14:38:07.066Z</time></trkpt><trkpt lat="46.1984438" lon="13.1127001"><ele>173.0</ele><time>2026-04-04T14:38:08.065Z</time></trkpt><trkpt lat="46.1983335" lon="13.1124781"><ele>173.0</ele><time>2026-04-04T14:38:09.065Z</time></trkpt><trkpt lat="46.1982245" lon="13.1122537"><ele>173.0</ele><time>2026-04-04T14:38:10.065Z</time></trkpt><trkpt lat="46.1981146" lon="13.1120333"><ele>173.0</ele><time>2026-04-04T14:38:11.066Z</time></trkpt><trkpt lat="46.1980035" lon="13.1118139"><ele>172.66666666666666</ele><time>2026-04-04T14:38:12.066Z</time></trkpt><trkpt lat="46.197895" lon="13.1115948"><ele>172.33333333333334</ele><time>2026-04-04T14:38:13.065Z</time></trkpt><trkpt lat="46.1977853" lon="13.1113759"><ele>172.0</ele><time>2026-04-04T14:38:14.065Z</time></trkpt><trkpt lat="46.1976718" lon="13.1111559"><ele>171.66666666666669</ele><time>2026-04-04T14:38:15.065Z</time></trkpt><trkpt lat="46.197556" lon="13.1109418"><ele>171.33333333333334</ele><time>2026-04-04T14:38:16.065Z</time></trkpt><trkpt lat="46.1974375" lon="13.1107291"><ele>171.0</ele><time>2026-04-04T14:38:17.066Z</time></trkpt><trkpt lat="46.1973178" lon="13.1105104"><ele>171.0</ele><time>2026-04-04T14:38:18.066Z</time></trkpt><trkpt lat="46.1971999" lon="13.1102924"><ele>171.0</ele><time>2026-04-04T14:38:19.065Z</time></trkpt><trkpt lat="46.197082" lon="13.1100804"><ele>171.0</ele><time>2026-04-04T14:38:20.065Z</time></trkpt><trkpt lat="46.1969631" lon="13.1098715"><ele>170.33333333333334</ele><time>2026-04-04T14:38:21.066Z</time></trkpt><trkpt lat="46.1968459" lon="13.109663"><ele>169.66666666666669</ele><time>2026-04-04T14:38:22.066Z</time></trkpt><trkpt lat="46.1967291" lon="13.1094573"><ele>169.0</ele><time>2026-04-04T14:38:23.066Z</time></trkpt><trkpt lat="46.1966175" lon="13.1092535"><ele>168.66666666666669</ele><time>2026-04-04T14:38:24.066Z</time></trkpt><trkpt lat="46.1965233" lon="13.1090438"><ele>168.33333333333334</ele><time>2026-04-04T14:38:25.065Z</time></trkpt><trkpt lat="46.1964548" lon="13.1088259"><ele>168.0</ele><time>2026-04-04T14:38:26.065Z</time></trkpt><trkpt lat="46.19641" lon="13.1086109"><ele>169.0</ele><time>2026-04-04T14:38:27.066Z</time></trkpt><trkpt lat="46.1963834" lon="13.1083958"><ele>170.0</ele><time>2026-04-04T14:38:28.065Z</time></trkpt><trkpt lat="46.1963704" lon="13.108177"><ele>171.0</ele><time>2026-04-04T14:38:29.065Z</time></trkpt><trkpt lat="46.1963694" lon="13.1079546"><ele>171.0</ele><time>2026-04-04T14:38:30.065Z</time></trkpt><trkpt lat="46.1963732" lon="13.1077324"><ele>171.0</ele><time>2026-04-04T14:38:31.065Z</time></trkpt><trkpt lat="46.1963728" lon="13.1074995"><ele>171.0</ele><time>2026-04-04T14:38:32.067Z</time></trkpt><trkpt lat="46.1963717" lon="13.1072493"><ele>170.66666666666666</ele><time>2026-04-04T14:38:33.065Z</time></trkpt><trkpt lat="46.1963728" lon="13.1069927"><ele>170.33333333333331</ele><time>2026-04-04T14:38:34.065Z</time></trkpt><trkpt lat="46.1963727" lon="13.1067246"><ele>170.0</ele><time>2026-04-04T14:38:35.066Z</time></trkpt><trkpt lat="46.1963735" lon="13.1064512"><ele>169.66666666666666</ele><time>2026-04-04T14:38:36.065Z</time></trkpt><trkpt lat="46.1963737" lon="13.1061789"><ele>169.33333333333334</ele><time>2026-04-04T14:38:37.066Z</time></trkpt><trkpt lat="46.1963716" lon="13.1059036"><ele>169.0</ele><time>2026-04-04T14:38:38.065Z</time></trkpt><trkpt lat="46.1963697" lon="13.1056348"><ele>168.66666666666669</ele><time>2026-04-04T14:38:39.066Z</time></trkpt><trkpt lat="46.1963666" lon="13.105368"><ele>168.33333333333334</ele><time>2026-04-04T14:38:40.067Z</time></trkpt><trkpt lat="46.1963658" lon="13.1051029"><ele>168.0</ele><time>2026-04-04T14:38:41.066Z</time></trkpt><trkpt lat="46.1963661" lon="13.1048419"><ele>167.66666666666666</ele><time>2026-04-04T14:38:42.066Z</time></trkpt><trkpt lat="46.1963664" lon="13.1045818"><ele>167.33333333333331</ele><time>2026-04-04T14:38:43.065Z</time></trkpt><trkpt lat="46.1963652" lon="13.1043219"><ele>167.0</ele><time>2026-04-04T14:38:44.066Z</time></trkpt><trkpt lat="46.1963621" lon="13.1040723"><ele>167.0</ele><time>2026-04-04T14:38:45.066Z</time></trkpt><trkpt lat="46.1963618" lon="13.1038338"><ele>167.0</ele><time>2026-04-04T14:38:46.066Z</time></trkpt><trkpt lat="46.1963622" lon="13.1036033"><ele>167.0</ele><time>2026-04-04T14:38:47.066Z</time></trkpt><trkpt lat="46.1963658" lon="13.1033744"><ele>166.33333333333331</ele><time>2026-04-04T14:38:48.066Z</time></trkpt><trkpt lat="46.196377" lon="13.103142"><ele>165.66666666666666</ele><time>2026-04-04T14:38:49.066Z</time></trkpt><trkpt lat="46.1963854" lon="13.1029052"><ele>165.0</ele><time>2026-04-04T14:38:50.066Z</time></trkpt><trkpt lat="46.1964107" lon="13.1026439"><ele>165.0</ele><time>2026-04-04T14:38:51.065Z</time></trkpt><trkpt lat="46.1964557" lon="13.1023671"><ele>165.0</ele><time>2026-04-04T14:38:52.065Z</time></trkpt><trkpt lat="46.196503" lon="13.1021051"><ele>165.0</ele><time>2026-04-04T14:38:53.066Z</time></trkpt><trkpt lat="46.1965598" lon="13.1018352"><ele>166.0</ele><time>2026-04-04T14:38:54.066Z</time></trkpt><trkpt lat="46.1966195" lon="13.1015649"><ele>167.0</ele><time>2026-04-04T14:38:55.066Z</time></trkpt><trkpt lat="46.1966787" lon="13.101288"><ele>168.0</ele><time>2026-04-04T14:38:56.065Z</time></trkpt><trkpt lat="46.1967345" lon="13.1010069"><ele>168.0</ele><time>2026-04-04T14:38:57.065Z</time></trkpt><trkpt lat="46.1967914" lon="13.1007254"><ele>168.0</ele><time>2026-04-04T14:38:58.066Z</time></trkpt><trkpt lat="46.196851" lon="13.1004407"><ele>168.0</ele><time>2026-04-04T14:38:59.067Z</time></trkpt><trkpt lat="46.1969093" lon="13.1001562"><ele>168.0</ele><time>2026-04-04T14:39:00.065Z</time></trkpt><trkpt lat="46.1969715" lon="13.0998715"><ele>168.0</ele><time>2026-04-04T14:39:01.067Z</time></trkpt><trkpt lat="46.1970284" lon="13.0995945"><ele>168.0</ele><time>2026-04-04T14:39:02.066Z</time></trkpt><trkpt lat="46.1970829" lon="13.0993261"><ele>167.33333333333334</ele><time>2026-04-04T14:39:03.066Z</time></trkpt><trkpt lat="46.1971376" lon="13.0990605"><ele>166.66666666666669</ele><time>2026-04-04T14:39:04.065Z</time></trkpt><trkpt lat="46.1971918" lon="13.0987945"><ele>166.0</ele><time>2026-04-04T14:39:05.066Z</time></trkpt><trkpt lat="46.1972469" lon="13.0985324"><ele>166.0</ele><time>2026-04-04T14:39:06.066Z</time></trkpt><trkpt lat="46.1973015" lon="13.0982776"><ele>166.0</ele><time>2026-04-04T14:39:07.065Z</time></trkpt><trkpt lat="46.1973552" lon="13.0980232"><ele>166.0</ele><time>2026-04-04T14:39:08.065Z</time></trkpt><trkpt lat="46.1974084" lon="13.0977695"><ele>166.0</ele><time>2026-04-04T14:39:09.066Z</time></trkpt><trkpt lat="46.1974631" lon="13.0975171"><ele>166.0</ele><time>2026-04-04T14:39:10.067Z</time></trkpt><trkpt lat="46.1975161" lon="13.0972638"><ele>166.0</ele><time>2026-04-04T14:39:11.066Z</time></trkpt><trkpt lat="46.1975674" lon="13.0970136"><ele>166.0</ele><time>2026-04-04T14:39:12.065Z</time></trkpt><trkpt lat="46.1976166" lon="13.0967661"><ele>166.0</ele><time>2026-04-04T14:39:13.066Z</time></trkpt><trkpt lat="46.1976654" lon="13.0965253"><ele>166.0</ele><time>2026-04-04T14:39:14.065Z</time></trkpt><trkpt lat="46.1977121" lon="13.0962941"><ele>166.66666666666669</ele><time>2026-04-04T14:39:15.066Z</time></trkpt><trkpt lat="46.1977549" lon="13.0960747"><ele>167.33333333333334</ele><time>2026-04-04T14:39:16.066Z</time></trkpt><trkpt lat="46.1977943" lon="13.0958602"><ele>168.0</ele><time>2026-04-04T14:39:17.067Z</time></trkpt><trkpt lat="46.1978267" lon="13.0956424"><ele>168.0</ele><time>2026-04-04T14:39:18.065Z</time></trkpt><trkpt lat="46.1978459" lon="13.0954186"><ele>168.0</ele><time>2026-04-04T14:39:19.066Z</time></trkpt><trkpt lat="46.1978509" lon="13.0951906"><ele>168.0</ele><time>2026-04-04T14:39:20.065Z</time></trkpt><trkpt lat="46.1978442" lon="13.0949665"><ele>167.25</ele><time>2026-04-04T14:39:21.066Z</time></trkpt><trkpt lat="46.1978296" lon="13.0947568"><ele>166.5</ele><time>2026-04-04T14:39:22.067Z</time></trkpt><trkpt lat="46.1978017" lon="13.0945563"><ele>165.75</ele><time>2026-04-04T14:39:23.065Z</time></trkpt><trkpt lat="46.1977633" lon="13.094362"><ele>165.0</ele><time>2026-04-04T14:39:24.067Z</time></trkpt><trkpt lat="46.19772" lon="13.0941782"><ele>164.75</ele><time>2026-04-04T14:39:25.065Z</time></trkpt><trkpt lat="46.197679" lon="13.0939986"><ele>164.5</ele><time>2026-04-04T14:39:26.067Z</time></trkpt><trkpt lat="46.1976369" lon="13.0938213"><ele>164.25</ele><time>2026-04-04T14:39:27.065Z</time></trkpt><trkpt lat="46.1975947" lon="13.0936422"><ele>164.0</ele><time>2026-04-04T14:39:28.067Z</time></trkpt><trkpt lat="46.1975495" lon="13.0934574"><ele>164.0</ele><time>2026-04-04T14:39:29.066Z</time></trkpt><trkpt lat="46.1974973" lon="13.09326"><ele>164.0</ele><time>2026-04-04T14:39:30.066Z</time></trkpt><trkpt lat="46.1974374" lon="13.0930393"><ele>164.0</ele><time>2026-04-04T14:39:31.066Z</time></trkpt><trkpt lat="46.1973707" lon="13.0927935"><ele>164.33333333333331</ele><time>2026-04-04T14:39:32.065Z</time></trkpt><trkpt lat="46.1973083" lon="13.0925356"><ele>164.66666666666666</ele><time>2026-04-04T14:39:33.066Z</time></trkpt><trkpt lat="46.1972462" lon="13.0922653"><ele>165.0</ele><time>2026-04-04T14:39:34.065Z</time></trkpt><trkpt lat="46.1971768" lon="13.0919794"><ele>164.33333333333334</ele><time>2026-04-04T14:39:35.066Z</time></trkpt><trkpt lat="46.197102" lon="13.09168"><ele>163.66666666666669</ele><time>2026-04-04T14:39:36.066Z</time></trkpt><trkpt lat="46.1970279" lon="13.0913718"><ele>163.0</ele><time>2026-04-04T14:39:37.066Z</time></trkpt><trkpt lat="46.1969564" lon="13.0910735"><ele>163.0</ele><time>2026-04-04T14:39:38.065Z</time></trkpt><trkpt lat="46.1968861" lon="13.0907937"><ele>163.0</ele><time>2026-04-04T14:39:39.066Z</time></trkpt><trkpt lat="46.1968194" lon="13.0905178"><ele>163.0</ele><time>2026-04-04T14:39:40.065Z</time></trkpt><trkpt lat="46.196752" lon="13.0902431"><ele>162.66666666666669</ele><time>2026-04-04T14:39:41.066Z</time></trkpt><trkpt lat="46.1966883" lon="13.0899647"><ele>162.33333333333334</ele><time>2026-04-04T14:39:42.066Z</time></trkpt><trkpt lat="46.1966236" lon="13.0896881"><ele>162.0</ele><time>2026-04-04T14:39:43.066Z</time></trkpt><trkpt lat="46.1965561" lon="13.0894139"><ele>162.0</ele><time>2026-04-04T14:39:44.067Z</time></trkpt><trkpt lat="46.1964891" lon="13.0891431"><ele>162.0</ele><time>2026-04-04T14:39:45.067Z</time></trkpt><trkpt lat="46.196422" lon="13.0888769"><ele>162.0</ele><time>2026-04-04T14:39:46.065Z</time></trkpt><trkpt lat="46.196359" lon="13.0886252"><ele>162.33333333333334</ele><time>2026-04-04T14:39:47.065Z</time></trkpt><trkpt lat="46.1962975" lon="13.088385"><ele>162.66666666666669</ele><time>2026-04-04T14:39:48.066Z</time></trkpt><trkpt lat="46.1962324" lon="13.088149"><ele>163.0</ele><time>2026-04-04T14:39:49.065Z</time></trkpt><trkpt lat="46.1961547" lon="13.0879178"><ele>163.0</ele><time>2026-04-04T14:39:50.066Z</time></trkpt><trkpt lat="46.1960681" lon="13.0876993"><ele>163.0</ele><time>2026-04-04T14:39:51.066Z</time></trkpt><trkpt lat="46.1959732" lon="13.087502"><ele>163.0</ele><time>2026-04-04T14:39:52.065Z</time></trkpt><trkpt lat="46.1958723" lon="13.0873263"><ele>163.5</ele><time>2026-04-04T14:39:53.065Z</time></trkpt><trkpt lat="46.1957788" lon="13.0871714"><ele>164.0</ele><time>2026-04-04T14:39:54.066Z</time></trkpt><trkpt lat="46.1956923" lon="13.0870347"><ele>164.5</ele><time>2026-04-04T14:39:55.066Z</time></trkpt><trkpt lat="46.1956132" lon="13.0869073"><ele>165.0</ele><time>2026-04-04T14:39:56.066Z</time></trkpt><trkpt lat="46.1955443" lon="13.0867744"><ele>165.0</ele><time>2026-04-04T14:39:57.066Z</time></trkpt><trkpt lat="46.1954858" lon="13.086647"><ele>165.0</ele><time>2026-04-04T14:39:58.065Z</time></trkpt><trkpt lat="46.1954399" lon="13.0865161"><ele>165.0</ele><time>2026-04-04T14:39:59.067Z</time></trkpt><trkpt lat="46.1954065" lon="13.0863789"><ele>165.0</ele><time>2026-04-04T14:40:00.065Z</time></trkpt><trkpt lat="46.1953811" lon="13.086227"><ele>165.0</ele><time>2026-04-04T14:40:01.066Z</time></trkpt><trkpt lat="46.1953591" lon="13.0860621"><ele>165.25</ele><time>2026-04-04T14:40:02.066Z</time></trkpt><trkpt lat="46.1953379" lon="13.0858871"><ele>165.5</ele><time>2026-04-04T14:40:03.066Z</time></trkpt><trkpt lat="46.1953141" lon="13.0857061"><ele>165.75</ele><time>2026-04-04T14:40:04.065Z</time></trkpt><trkpt lat="46.1952912" lon="13.0855195"><ele>166.0</ele><time>2026-04-04T14:40:05.066Z</time></trkpt><trkpt lat="46.1952655" lon="13.085328"><ele>166.25</ele><time>2026-04-04T14:40:06.066Z</time></trkpt><trkpt lat="46.195241" lon="13.0851429"><ele>166.5</ele><time>2026-04-04T14:40:07.065Z</time></trkpt><trkpt lat="46.1952121" lon="13.0849598"><ele>166.75</ele><time>2026-04-04T14:40:08.065Z</time></trkpt><trkpt lat="46.1951817" lon="13.0847904"><ele>167.0</ele><time>2026-04-04T14:40:09.066Z</time></trkpt><trkpt lat="46.1951464" lon="13.0846256"><ele>167.5</ele><time>2026-04-04T14:40:10.066Z</time></trkpt><trkpt lat="46.1951095" lon="13.0844597"><ele>168.0</ele><time>2026-04-04T14:40:11.066Z</time></trkpt><trkpt lat="46.195071" lon="13.08429"><ele>168.5</ele><time>2026-04-04T14:40:12.065Z</time></trkpt><trkpt lat="46.1950302" lon="13.0841253"><ele>169.0</ele><time>2026-04-04T14:40:13.065Z</time></trkpt><trkpt lat="46.194992" lon="13.0839725"><ele>169.25</ele><time>2026-04-04T14:40:14.066Z</time></trkpt><trkpt lat="46.1949575" lon="13.0838196"><ele>169.5</ele><time>2026-04-04T14:40:15.067Z</time></trkpt><trkpt lat="46.1949309" lon="13.0836599"><ele>169.75</ele><time>2026-04-04T14:40:16.066Z</time></trkpt><trkpt lat="46.1949072" lon="13.0834983"><ele>170.0</ele><time>2026-04-04T14:40:17.066Z</time></trkpt><trkpt lat="46.1948889" lon="13.0833273"><ele>170.0</ele><time>2026-04-04T14:40:18.066Z</time></trkpt><trkpt lat="46.1948716" lon="13.0831502"><ele>170.0</ele><time>2026-04-04T14:40:19.066Z</time></trkpt><trkpt lat="46.1948519" lon="13.0829677"><ele>170.0</ele><time>2026-04-04T14:40:20.065Z</time></trkpt><trkpt lat="46.1948296" lon="13.08278"><ele>170.0</ele><time>2026-04-04T14:40:21.066Z</time></trkpt><trkpt lat="46.1947998" lon="13.0825892"><ele>170.0</ele><time>2026-04-04T14:40:22.066Z</time></trkpt><trkpt lat="46.1947473" lon="13.0824196"><ele>170.0</ele><time>2026-04-04T14:40:23.066Z</time></trkpt><trkpt lat="46.1946689" lon="13.082283"><ele>170.0</ele><time>2026-04-04T14:40:24.067Z</time></trkpt><trkpt lat="46.1945726" lon="13.0821664"><ele>170.0</ele><time>2026-04-04T14:40:25.066Z</time></trkpt><trkpt lat="46.1944831" lon="13.0820665"><ele>170.0</ele><time>2026-04-04T14:40:26.066Z</time></trkpt><trkpt lat="46.1944" lon="13.081975"><ele>170.0</ele><time>2026-04-04T14:40:27.065Z</time></trkpt><trkpt lat="46.1943183" lon="13.0818856"><ele>170.0</ele><time>2026-04-04T14:40:28.066Z</time></trkpt><trkpt lat="46.1942352" lon="13.0817824"><ele>170.0</ele><time>2026-04-04T14:40:29.065Z</time></trkpt><trkpt lat="46.1941517" lon="13.0816477"><ele>170.0</ele><time>2026-04-04T14:40:30.065Z</time></trkpt><trkpt lat="46.1940705" lon="13.0814825"><ele>168.66666666666666</ele><time>2026-04-04T14:40:31.066Z</time></trkpt><trkpt lat="46.1939886" lon="13.0812996"><ele>167.33333333333334</ele><time>2026-04-04T14:40:32.067Z</time></trkpt><trkpt lat="46.193905" lon="13.0811089"><ele>166.0</ele><time>2026-04-04T14:40:33.065Z</time></trkpt><trkpt lat="46.1938216" lon="13.0809089"><ele>166.0</ele><time>2026-04-04T14:40:34.065Z</time></trkpt><trkpt lat="46.1937456" lon="13.0807038"><ele>166.0</ele><time>2026-04-04T14:40:35.066Z</time></trkpt><trkpt lat="46.193683" lon="13.0804902"><ele>166.0</ele><time>2026-04-04T14:40:36.066Z</time></trkpt><trkpt lat="46.1936255" lon="13.0802682"><ele>166.0</ele><time>2026-04-04T14:40:37.066Z</time></trkpt><trkpt lat="46.1935677" lon="13.0800393"><ele>166.0</ele><time>2026-04-04T14:40:38.066Z</time></trkpt><trkpt lat="46.1935091" lon="13.079808"><ele>166.0</ele><time>2026-04-04T14:40:39.065Z</time></trkpt><trkpt lat="46.1934531" lon="13.0795809"><ele>166.33333333333334</ele><time>2026-04-04T14:40:40.065Z</time></trkpt><trkpt lat="46.1934007" lon="13.0793643"><ele>166.66666666666666</ele><time>2026-04-04T14:40:41.066Z</time></trkpt><trkpt lat="46.1933504" lon="13.0791521"><ele>167.0</ele><time>2026-04-04T14:40:42.066Z</time></trkpt><trkpt lat="46.1932994" lon="13.0789419"><ele>167.66666666666666</ele><time>2026-04-04T14:40:43.067Z</time></trkpt><trkpt lat="46.1932475" lon="13.0787352"><ele>168.33333333333334</ele><time>2026-04-04T14:40:44.065Z</time></trkpt><trkpt lat="46.1931959" lon="13.0785306"><ele>169.0</ele><time>2026-04-04T14:40:45.065Z</time></trkpt><trkpt lat="46.1931436" lon="13.0783303"><ele>168.75</ele><time>2026-04-04T14:40:46.066Z</time></trkpt><trkpt lat="46.1930948" lon="13.0781276"><ele>168.5</ele><time>2026-04-04T14:40:47.066Z</time></trkpt><trkpt lat="46.1930427" lon="13.0779262"><ele>168.25</ele><time>2026-04-04T14:40:48.066Z</time></trkpt><trkpt lat="46.1929895" lon="13.0777272"><ele>168.0</ele><time>2026-04-04T14:40:49.065Z</time></trkpt><trkpt lat="46.1929392" lon="13.0775308"><ele>167.75</ele><time>2026-04-04T14:40:50.066Z</time></trkpt><trkpt lat="46.1928895" lon="13.0773393"><ele>167.5</ele><time>2026-04-04T14:40:51.066Z</time></trkpt><trkpt lat="46.192836" lon="13.0771483"><ele>167.25</ele><time>2026-04-04T14:40:52.066Z</time></trkpt><trkpt lat="46.1927801" lon="13.0769625"><ele>167.0</ele><time>2026-04-04T14:40:53.066Z</time></trkpt><trkpt lat="46.1927182" lon="13.0767784"><ele>167.0</ele><time>2026-04-04T14:40:54.066Z</time></trkpt><trkpt lat="46.1926568" lon="13.0765893"><ele>167.0</ele><time>2026-04-04T14:40:55.067Z</time></trkpt><trkpt lat="46.1926061" lon="13.0763898"><ele>167.0</ele><time>2026-04-04T14:40:56.065Z</time></trkpt><trkpt lat="46.1925716" lon="13.0761779"><ele>167.0</ele><time>2026-04-04T14:40:57.065Z</time></trkpt><trkpt lat="46.192547" lon="13.0759542"><ele>168.0</ele><time>2026-04-04T14:40:58.067Z</time></trkpt><trkpt lat="46.1925312" lon="13.0757167"><ele>169.0</ele><time>2026-04-04T14:40:59.065Z</time></trkpt><trkpt lat="46.192512" lon="13.0754812"><ele>170.0</ele><time>2026-04-04T14:41:00.067Z</time></trkpt><trkpt lat="46.1924916" lon="13.0752515"><ele>170.0</ele><time>2026-04-04T14:41:01.066Z</time></trkpt><trkpt lat="46.1924707" lon="13.0750261"><ele>170.0</ele><time>2026-04-04T14:41:02.066Z</time></trkpt><trkpt lat="46.1924539" lon="13.0748123"><ele>170.0</ele><time>2026-04-04T14:41:03.067Z</time></trkpt><trkpt lat="46.1924382" lon="13.0746115"><ele>170.0</ele><time>2026-04-04T14:41:04.066Z</time></trkpt><trkpt lat="46.1924187" lon="13.0744276"><ele>170.25</ele><time>2026-04-04T14:41:05.066Z</time></trkpt><trkpt lat="46.192395" lon="13.0742518"><ele>170.5</ele><time>2026-04-04T14:41:06.066Z</time></trkpt><trkpt lat="46.1923628" lon="13.0740787"><ele>170.75</ele><time>2026-04-04T14:41:07.067Z</time></trkpt><trkpt lat="46.1923202" lon="13.0739057"><ele>171.0</ele><time>2026-04-04T14:41:08.066Z</time></trkpt><trkpt lat="46.1922631" lon="13.0737439"><ele>171.0</ele><time>2026-04-04T14:41:09.065Z</time></trkpt><trkpt lat="46.1921956" lon="13.0735862"><ele>171.0</ele><time>2026-04-04T14:41:10.065Z</time></trkpt><trkpt lat="46.1921213" lon="13.0734331"><ele>171.0</ele><time>2026-04-04T14:41:11.065Z</time></trkpt><trkpt lat="46.1920425" lon="13.0732774"><ele>171.0</ele><time>2026-04-04T14:41:12.067Z</time></trkpt><trkpt lat="46.1919663" lon="13.0731202"><ele>171.0</ele><time>2026-04-04T14:41:13.066Z</time></trkpt><trkpt lat="46.1918873" lon="13.0729591"><ele>171.0</ele><time>2026-04-04T14:41:14.065Z</time></trkpt><trkpt lat="46.1918003" lon="13.072792"><ele>171.0</ele><time>2026-04-04T14:41:15.067Z</time></trkpt><trkpt lat="46.1916916" lon="13.0726137"><ele>171.0</ele><time>2026-04-04T14:41:16.066Z</time></trkpt><trkpt lat="46.1915649" lon="13.0724189"><ele>170.66666666666666</ele><time>2026-04-04T14:41:17.065Z</time></trkpt><trkpt lat="46.1914201" lon="13.0722104"><ele>170.33333333333331</ele><time>2026-04-04T14:41:18.066Z</time></trkpt><trkpt lat="46.1912507" lon="13.0719818"><ele>170.0</ele><time>2026-04-04T14:41:19.066Z</time></trkpt><trkpt lat="46.1910667" lon="13.0717263"><ele>169.5</ele><time>2026-04-04T14:41:20.065Z</time></trkpt><trkpt lat="46.1908881" lon="13.0714594"><ele>169.0</ele><time>2026-04-04T14:41:21.066Z</time></trkpt><trkpt lat="46.1907293" lon="13.0712027"><ele>169.33333333333334</ele><time>2026-04-04T14:41:22.067Z</time></trkpt><trkpt lat="46.1905802" lon="13.0709697"><ele>169.66666666666666</ele><time>2026-04-04T14:41:23.066Z</time></trkpt><trkpt lat="46.1904399" lon="13.0707497"><ele>170.0</ele><time>2026-04-04T14:41:24.065Z</time></trkpt><trkpt lat="46.1903072" lon="13.0705418"><ele>170.0</ele><time>2026-04-04T14:41:25.066Z</time></trkpt><trkpt lat="46.1901784" lon="13.0703474"><ele>170.0</ele><time>2026-04-04T14:41:26.065Z</time></trkpt><trkpt lat="46.1900598" lon="13.0701705"><ele>170.0</ele><time>2026-04-04T14:41:27.066Z</time></trkpt><trkpt lat="46.1899515" lon="13.0700081"><ele>170.25</ele><time>2026-04-04T14:41:28.066Z</time></trkpt><trkpt lat="46.1898491" lon="13.0698538"><ele>170.5</ele><time>2026-04-04T14:41:29.065Z</time></trkpt><trkpt lat="46.189758" lon="13.0697148"><ele>170.75</ele><time>2026-04-04T14:41:30.065Z</time></trkpt><trkpt lat="46.1896745" lon="13.069595"><ele>171.0</ele><time>2026-04-04T14:41:31.066Z</time></trkpt><trkpt lat="46.1896001" lon="13.0694837"><ele>171.16666666666666</ele><time>2026-04-04T14:41:32.066Z</time></trkpt><trkpt lat="46.1895303" lon="13.0693807"><ele>171.33333333333334</ele><time>2026-04-04T14:41:33.066Z</time></trkpt><trkpt lat="46.1894656" lon="13.069285"><ele>171.5</ele><time>2026-04-04T14:41:34.065Z</time></trkpt><trkpt lat="46.1894059" lon="13.0691971"><ele>171.66666666666669</ele><time>2026-04-04T14:41:35.065Z</time></trkpt><trkpt lat="46.189352" lon="13.0691126"><ele>171.83333333333334</ele><time>2026-04-04T14:41:36.066Z</time></trkpt><trkpt lat="46.189304" lon="13.069025"><ele>172.0</ele><time>2026-04-04T14:41:37.067Z</time></trkpt><trkpt lat="46.1892639" lon="13.0689303"><ele>172.0</ele><time>2026-04-04T14:41:38.066Z</time></trkpt><trkpt lat="46.1892351" lon="13.0688361"><ele>172.0</ele><time>2026-04-04T14:41:39.065Z</time></trkpt><trkpt lat="46.1892011" lon="13.0687512"><ele>172.0</ele><time>2026-04-04T14:41:40.066Z</time></trkpt><trkpt lat="46.1891474" lon="13.0686749"><ele>172.0</ele><time>2026-04-04T14:41:41.065Z</time></trkpt><trkpt lat="46.1890772" lon="13.0685887"><ele>172.0</ele><time>2026-04-04T14:41:42.067Z</time></trkpt><trkpt lat="46.1889984" lon="13.0684758"><ele>172.0</ele><time>2026-04-04T14:41:43.066Z</time></trkpt><trkpt lat="46.1889182" lon="13.0683332"><ele>171.5</ele><time>2026-04-04T14:41:44.065Z</time></trkpt><trkpt lat="46.188829" lon="13.0681702"><ele>171.0</ele><time>2026-04-04T14:41:45.066Z</time></trkpt><trkpt lat="46.1887302" lon="13.0680068"><ele>170.5</ele><time>2026-04-04T14:41:46.065Z</time></trkpt><trkpt lat="46.1886207" lon="13.0678605"><ele>170.0</ele><time>2026-04-04T14:41:47.067Z</time></trkpt><trkpt lat="46.1885128" lon="13.0677412"><ele>170.0</ele><time>2026-04-04T14:41:48.066Z</time></trkpt><trkpt lat="46.1884002" lon="13.0676596"><ele>170.0</ele><time>2026-04-04T14:41:49.065Z</time></trkpt><trkpt lat="46.1882833" lon="13.0676132"><ele>170.0</ele><time>2026-04-04T14:41:50.067Z</time></trkpt><trkpt lat="46.1881599" lon="13.0675942"><ele>170.0</ele><time>2026-04-04T14:41:51.066Z</time></trkpt><trkpt lat="46.1880263" lon="13.0675958"><ele>170.66666666666666</ele><time>2026-04-04T14:41:52.066Z</time></trkpt><trkpt lat="46.1878847" lon="13.0676184"><ele>171.33333333333334</ele><time>2026-04-04T14:41:53.066Z</time></trkpt><trkpt lat="46.187733" lon="13.0676518"><ele>172.0</ele><time>2026-04-04T14:41:54.065Z</time></trkpt><trkpt lat="46.1875786" lon="13.0676865"><ele>172.0</ele><time>2026-04-04T14:41:55.066Z</time></trkpt><trkpt lat="46.1874255" lon="13.0677223"><ele>172.0</ele><time>2026-04-04T14:41:56.065Z</time></trkpt><trkpt lat="46.1872807" lon="13.0677477"><ele>172.0</ele><time>2026-04-04T14:41:57.065Z</time></trkpt><trkpt lat="46.1871477" lon="13.0677614"><ele>172.0</ele><time>2026-04-04T14:41:58.065Z</time></trkpt><trkpt lat="46.1870271" lon="13.0677731"><ele>171.75</ele><time>2026-04-04T14:41:59.066Z</time></trkpt><trkpt lat="46.1869156" lon="13.0677835"><ele>171.5</ele><time>2026-04-04T14:42:00.067Z</time></trkpt><trkpt lat="46.1868031" lon="13.0677817"><ele>171.25</ele><time>2026-04-04T14:42:01.066Z</time></trkpt><trkpt lat="46.1866885" lon="13.0677712"><ele>171.0</ele><time>2026-04-04T14:42:02.066Z</time></trkpt><trkpt lat="46.1865762" lon="13.0677542"><ele>171.0</ele><time>2026-04-04T14:42:03.065Z</time></trkpt><trkpt lat="46.1864662" lon="13.0677307"><ele>171.0</ele><time>2026-04-04T14:42:04.065Z</time></trkpt><trkpt lat="46.1863604" lon="13.0677091"><ele>171.0</ele><time>2026-04-04T14:42:05.066Z</time></trkpt><trkpt lat="46.1862628" lon="13.0676884"><ele>171.0</ele><time>2026-04-04T14:42:06.066Z</time></trkpt><trkpt lat="46.1861725" lon="13.0676688"><ele>171.0</ele><time>2026-04-04T14:42:07.067Z</time></trkpt><trkpt lat="46.1860784" lon="13.0676489"><ele>171.0</ele><time>2026-04-04T14:42:08.066Z</time></trkpt><trkpt lat="46.1859822" lon="13.0676271"><ele>171.0</ele><time>2026-04-04T14:42:09.066Z</time></trkpt><trkpt lat="46.1858845" lon="13.0676021"><ele>171.0</ele><time>2026-04-04T14:42:10.065Z</time></trkpt><trkpt lat="46.1857893" lon="13.0675786"><ele>171.0</ele><time>2026-04-04T14:42:11.066Z</time></trkpt><trkpt lat="46.185697" lon="13.0675534"><ele>171.0</ele><time>2026-04-04T14:42:12.065Z</time></trkpt><trkpt lat="46.1856038" lon="13.067529"><ele>171.0</ele><time>2026-04-04T14:42:13.066Z</time></trkpt><trkpt lat="46.1855093" lon="13.0675046"><ele>171.0</ele><time>2026-04-04T14:42:14.065Z</time></trkpt><trkpt lat="46.1854208" lon="13.0674785"><ele>171.0</ele><time>2026-04-04T14:42:15.065Z</time></trkpt><trkpt lat="46.1853366" lon="13.0674536"><ele>171.0</ele><time>2026-04-04T14:42:16.065Z</time></trkpt><trkpt lat="46.1852622" lon="13.0674269"><ele>171.0</ele><time>2026-04-04T14:42:17.066Z</time></trkpt><trkpt lat="46.1851907" lon="13.0674032"><ele>171.0</ele><time>2026-04-04T14:42:18.065Z</time></trkpt><trkpt lat="46.1851254" lon="13.0673715"><ele>171.0</ele><time>2026-04-04T14:42:19.066Z</time></trkpt><trkpt lat="46.1850333" lon="13.0673189"><ele>171.0</ele><time>2026-04-04T14:42:21.066Z</time></trkpt><trkpt lat="46.1849614" lon="13.0672552"><ele>171.0</ele><time>2026-04-04T14:42:23.065Z</time></trkpt><trkpt lat="46.1848924" lon="13.0671339"><ele>171.0</ele><time>2026-04-04T14:42:25.065Z</time></trkpt><trkpt lat="46.184872" lon="13.0670343"><ele>171.0</ele><time>2026-04-04T14:42:26.067Z</time></trkpt><trkpt lat="46.1848599" lon="13.0669267"><ele>171.0</ele><time>2026-04-04T14:42:27.065Z</time></trkpt><trkpt lat="46.1848608" lon="13.066817"><ele>171.0</ele><time>2026-04-04T14:42:28.065Z</time></trkpt><trkpt lat="46.1848613" lon="13.0667151"><ele>171.0</ele><time>2026-04-04T14:42:29.066Z</time></trkpt><trkpt lat="46.1848682" lon="13.0665377"><ele>171.0</ele><time>2026-04-04T14:42:31.067Z</time></trkpt><trkpt lat="46.1848763" lon="13.0663628"><ele>171.0</ele><time>2026-04-04T14:42:33.066Z</time></trkpt><trkpt lat="46.1848826" lon="13.0662499"><ele>171.0</ele><time>2026-04-04T14:42:34.066Z</time></trkpt><trkpt lat="46.1848854" lon="13.0661231"><ele>170.60000000000002</ele><time>2026-04-04T14:42:35.065Z</time></trkpt><trkpt lat="46.1848889" lon="13.0659843"><ele>170.2</ele><time>2026-04-04T14:42:36.066Z</time></trkpt><trkpt lat="46.1848945" lon="13.0658425"><ele>169.8</ele><time>2026-04-04T14:42:37.066Z</time></trkpt><trkpt lat="46.1848968" lon="13.0657035"><ele>169.39999999999998</ele><time>2026-04-04T14:42:38.066Z</time></trkpt><trkpt lat="46.1849024" lon="13.0655738"><ele>169.0</ele><time>2026-04-04T14:42:39.065Z</time></trkpt><trkpt lat="46.1849083" lon="13.0654491"><ele>169.0</ele><time>2026-04-04T14:42:40.066Z</time></trkpt><trkpt lat="46.1849191" lon="13.0653312"><ele>169.0</ele><time>2026-04-04T14:42:41.066Z</time></trkpt><trkpt lat="46.1849264" lon="13.0652222"><ele>169.0</ele><time>2026-04-04T14:42:42.065Z</time></trkpt><trkpt lat="46.1849331" lon="13.0651138"><ele>169.0</ele><time>2026-04-04T14:42:43.066Z</time></trkpt><trkpt lat="46.1849442" lon="13.0650044"><ele>169.0</ele><time>2026-04-04T14:42:44.065Z</time></trkpt><trkpt lat="46.1849591" lon="13.0648889"><ele>169.0</ele><time>2026-04-04T14:42:45.065Z</time></trkpt><trkpt lat="46.1849816" lon="13.0647687"><ele>169.39999999999998</ele><time>2026-04-04T14:42:46.065Z</time></trkpt><trkpt lat="46.185007" lon="13.0646478"><ele>169.8</ele><time>2026-04-04T14:42:47.066Z</time></trkpt><trkpt lat="46.185032" lon="13.0645232"><ele>170.2</ele><time>2026-04-04T14:42:48.066Z</time></trkpt><trkpt lat="46.1850595" lon="13.0643984"><ele>170.60000000000002</ele><time>2026-04-04T14:42:49.066Z</time></trkpt><trkpt lat="46.1850811" lon="13.0642618"><ele>171.0</ele><time>2026-04-04T14:42:50.066Z</time></trkpt><trkpt lat="46.1850949" lon="13.0641188"><ele>171.0</ele><time>2026-04-04T14:42:51.065Z</time></trkpt><trkpt lat="46.1850989" lon="13.063975"><ele>171.0</ele><time>2026-04-04T14:42:52.067Z</time></trkpt><trkpt lat="46.1850978" lon="13.0638564"><ele>171.0</ele><time>2026-04-04T14:42:53.066Z</time></trkpt><trkpt lat="46.1850918" lon="13.0637538"><ele>171.0</ele><time>2026-04-04T14:42:54.066Z</time></trkpt><trkpt lat="46.1850686" lon="13.0636598"><ele>171.0</ele><time>2026-04-04T14:42:55.065Z</time></trkpt><trkpt lat="46.1850167" lon="13.0635802"><ele>171.0</ele><time>2026-04-04T14:42:56.067Z</time></trkpt><trkpt lat="46.1849438" lon="13.0635114"><ele>171.0</ele><time>2026-04-04T14:42:57.067Z</time></trkpt><trkpt lat="46.1848625" lon="13.0634364"><ele>171.0</ele><time>2026-04-04T14:42:58.065Z</time></trkpt><trkpt lat="46.1847778" lon="13.0633439"><ele>171.0</ele><time>2026-04-04T14:42:59.065Z</time></trkpt><trkpt lat="46.1846836" lon="13.0632684"><ele>171.0</ele><time>2026-04-04T14:43:00.067Z</time></trkpt><trkpt lat="46.1845739" lon="13.0632119"><ele>171.0</ele><time>2026-04-04T14:43:01.065Z</time></trkpt><trkpt lat="46.1844573" lon="13.06315"><ele>170.5</ele><time>2026-04-04T14:43:02.066Z</time></trkpt><trkpt lat="46.1843495" lon="13.0630676"><ele>170.0</ele><time>2026-04-04T14:43:03.066Z</time></trkpt><trkpt lat="46.184243" lon="13.0629776"><ele>169.5</ele><time>2026-04-04T14:43:04.066Z</time></trkpt><trkpt lat="46.1841439" lon="13.0628813"><ele>169.0</ele><time>2026-04-04T14:43:05.066Z</time></trkpt><trkpt lat="46.1840638" lon="13.0627937"><ele>169.0</ele><time>2026-04-04T14:43:06.066Z</time></trkpt><trkpt lat="46.1839953" lon="13.0626946"><ele>169.0</ele><time>2026-04-04T14:43:07.065Z</time></trkpt><trkpt lat="46.1839376" lon="13.0625934"><ele>169.0</ele><time>2026-04-04T14:43:08.065Z</time></trkpt><trkpt lat="46.1838833" lon="13.0624836"><ele>169.0</ele><time>2026-04-04T14:43:09.066Z</time></trkpt><trkpt lat="46.1838285" lon="13.0623663"><ele>169.0</ele><time>2026-04-04T14:43:10.065Z</time></trkpt><trkpt lat="46.1837707" lon="13.0622456"><ele>169.0</ele><time>2026-04-04T14:43:11.065Z</time></trkpt><trkpt lat="46.1837071" lon="13.0621182"><ele>169.0</ele><time>2026-04-04T14:43:12.066Z</time></trkpt><trkpt lat="46.1836414" lon="13.061981"><ele>169.0</ele><time>2026-04-04T14:43:13.065Z</time></trkpt><trkpt lat="46.1835722" lon="13.061834"><ele>169.0</ele><time>2026-04-04T14:43:14.066Z</time></trkpt><trkpt lat="46.1835029" lon="13.0616701"><ele>169.33333333333334</ele><time>2026-04-04T14:43:15.066Z</time></trkpt><trkpt lat="46.1834323" lon="13.0614843"><ele>169.66666666666666</ele><time>2026-04-04T14:43:16.066Z</time></trkpt><trkpt lat="46.1833609" lon="13.0612825"><ele>170.0</ele><time>2026-04-04T14:43:17.066Z</time></trkpt><trkpt lat="46.1832905" lon="13.0610689"><ele>170.0</ele><time>2026-04-04T14:43:18.066Z</time></trkpt><trkpt lat="46.1832182" lon="13.0608472"><ele>170.0</ele><time>2026-04-04T14:43:19.066Z</time></trkpt><trkpt lat="46.1831425" lon="13.0606157"><ele>170.0</ele><time>2026-04-04T14:43:20.066Z</time></trkpt><trkpt lat="46.183068" lon="13.0603856"><ele>170.33333333333331</ele><time>2026-04-04T14:43:21.065Z</time></trkpt><trkpt lat="46.1830002" lon="13.0601694"><ele>170.66666666666666</ele><time>2026-04-04T14:43:22.065Z</time></trkpt><trkpt lat="46.1829339" lon="13.0599696"><ele>171.0</ele><time>2026-04-04T14:43:23.066Z</time></trkpt><trkpt lat="46.1828703" lon="13.0597773"><ele>170.5</ele><time>2026-04-04T14:43:24.066Z</time></trkpt><trkpt lat="46.1828114" lon="13.059597"><ele>170.0</ele><time>2026-04-04T14:43:25.066Z</time></trkpt><trkpt lat="46.1827549" lon="13.0594219"><ele>169.5</ele><time>2026-04-04T14:43:26.066Z</time></trkpt><trkpt lat="46.1826999" lon="13.0592538"><ele>169.0</ele><time>2026-04-04T14:43:27.065Z</time></trkpt><trkpt lat="46.1826448" lon="13.0590909"><ele>169.0</ele><time>2026-04-04T14:43:28.067Z</time></trkpt><trkpt lat="46.1825912" lon="13.0589287"><ele>169.0</ele><time>2026-04-04T14:43:29.066Z</time></trkpt><trkpt lat="46.1825295" lon="13.0587772"><ele>169.0</ele><time>2026-04-04T14:43:30.066Z</time></trkpt><trkpt lat="46.182455" lon="13.0586359"><ele>169.0</ele><time>2026-04-04T14:43:31.066Z</time></trkpt><trkpt lat="46.1823719" lon="13.058495"><ele>168.5</ele><time>2026-04-04T14:43:32.066Z</time></trkpt><trkpt lat="46.1822892" lon="13.0583463"><ele>168.0</ele><time>2026-04-04T14:43:33.066Z</time></trkpt><trkpt lat="46.1822094" lon="13.0581914"><ele>167.5</ele><time>2026-04-04T14:43:34.067Z</time></trkpt><trkpt lat="46.1821396" lon="13.0580251"><ele>167.0</ele><time>2026-04-04T14:43:35.068Z</time></trkpt><trkpt lat="46.182093" lon="13.0578558"><ele>166.75</ele><time>2026-04-04T14:43:36.067Z</time></trkpt><trkpt lat="46.182069" lon="13.0576809"><ele>166.5</ele><time>2026-04-04T14:43:37.067Z</time></trkpt><trkpt lat="46.1820659" lon="13.0574933"><ele>166.25</ele><time>2026-04-04T14:43:38.066Z</time></trkpt><trkpt lat="46.1820781" lon="13.0572919"><ele>166.0</ele><time>2026-04-04T14:43:39.067Z</time></trkpt><trkpt lat="46.182097" lon="13.0570742"><ele>165.33333333333334</ele><time>2026-04-04T14:43:40.066Z</time></trkpt><trkpt lat="46.1821159" lon="13.0568471"><ele>164.66666666666666</ele><time>2026-04-04T14:43:41.067Z</time></trkpt><trkpt lat="46.1821356" lon="13.0566127"><ele>164.0</ele><time>2026-04-04T14:43:42.066Z</time></trkpt><trkpt lat="46.1821554" lon="13.0563723"><ele>163.66666666666666</ele><time>2026-04-04T14:43:43.066Z</time></trkpt><trkpt lat="46.1821748" lon="13.0561251"><ele>163.33333333333334</ele><time>2026-04-04T14:43:44.068Z</time></trkpt><trkpt lat="46.1821938" lon="13.0558717"><ele>163.0</ele><time>2026-04-04T14:43:45.067Z</time></trkpt><trkpt lat="46.1822144" lon="13.0556052"><ele>162.66666666666669</ele><time>2026-04-04T14:43:46.067Z</time></trkpt><trkpt lat="46.182237" lon="13.0553223"><ele>162.33333333333334</ele><time>2026-04-04T14:43:47.067Z</time></trkpt><trkpt lat="46.1822558" lon="13.0550199"><ele>162.0</ele><time>2026-04-04T14:43:48.067Z</time></trkpt><trkpt lat="46.1822767" lon="13.0547133"><ele>162.33333333333334</ele><time>2026-04-04T14:43:49.066Z</time></trkpt><trkpt lat="46.182299" lon="13.0544051"><ele>162.66666666666669</ele><time>2026-04-04T14:43:50.068Z</time></trkpt><trkpt lat="46.1823212" lon="13.0540986"><ele>163.0</ele><time>2026-04-04T14:43:51.067Z</time></trkpt><trkpt lat="46.1823409" lon="13.0538075"><ele>164.33333333333334</ele><time>2026-04-04T14:43:52.067Z</time></trkpt><trkpt lat="46.1823566" lon="13.0535296"><ele>165.66666666666666</ele><time>2026-04-04T14:43:53.066Z</time></trkpt><trkpt lat="46.1823714" lon="13.0532767"><ele>167.0</ele><time>2026-04-04T14:43:54.067Z</time></trkpt><trkpt lat="46.182387" lon="13.0530458"><ele>167.5</ele><time>2026-04-04T14:43:55.067Z</time></trkpt><trkpt lat="46.1824025" lon="13.0528315"><ele>168.0</ele><time>2026-04-04T14:43:56.066Z</time></trkpt><trkpt lat="46.1824216" lon="13.052633"><ele>168.5</ele><time>2026-04-04T14:43:57.067Z</time></trkpt><trkpt lat="46.1824467" lon="13.0524469"><ele>169.0</ele><time>2026-04-04T14:43:58.066Z</time></trkpt><trkpt lat="46.1824774" lon="13.0522811"><ele>169.6</ele><time>2026-04-04T14:43:59.067Z</time></trkpt><trkpt lat="46.1825123" lon="13.0521383"><ele>170.2</ele><time>2026-04-04T14:44:00.067Z</time></trkpt><trkpt lat="46.1825485" lon="13.0520003"><ele>170.79999999999998</ele><time>2026-04-04T14:44:01.066Z</time></trkpt><trkpt lat="46.1825823" lon="13.0518593"><ele>171.39999999999998</ele><time>2026-04-04T14:44:02.066Z</time></trkpt><trkpt lat="46.1826149" lon="13.0517131"><ele>172.0</ele><time>2026-04-04T14:44:03.066Z</time></trkpt><trkpt lat="46.1826469" lon="13.0515731"><ele>172.33333333333334</ele><time>2026-04-04T14:44:04.067Z</time></trkpt><trkpt lat="46.1826814" lon="13.0514489"><ele>172.66666666666669</ele><time>2026-04-04T14:44:05.067Z</time></trkpt><trkpt lat="46.1827152" lon="13.0513554"><ele>173.0</ele><time>2026-04-04T14:44:06.066Z</time></trkpt><trkpt lat="46.1827673" lon="13.0512424"><ele>173.33333333333334</ele><time>2026-04-04T14:44:08.067Z</time></trkpt><trkpt lat="46.1828056" lon="13.0511606"><ele>173.66666666666666</ele><time>2026-04-04T14:44:11.067Z</time></trkpt><trkpt lat="46.1828212" lon="13.0509902"><ele>174.0</ele><time>2026-04-04T14:44:19.068Z</time></trkpt><trkpt lat="46.1827787" lon="13.0508698"><ele>174.75</ele><time>2026-04-04T14:44:20.068Z</time></trkpt><trkpt lat="46.1827189" lon="13.0507218"><ele>175.5</ele><time>2026-04-04T14:44:21.068Z</time></trkpt><trkpt lat="46.1826424" lon="13.0505564"><ele>176.25</ele><time>2026-04-04T14:44:22.066Z</time></trkpt><trkpt lat="46.1825467" lon="13.0503842"><ele>177.0</ele><time>2026-04-04T14:44:23.067Z</time></trkpt><trkpt lat="46.1824371" lon="13.0502108"><ele>175.25</ele><time>2026-04-04T14:44:24.067Z</time></trkpt><trkpt lat="46.1823364" lon="13.0500343"><ele>173.5</ele><time>2026-04-04T14:44:25.066Z</time></trkpt><trkpt lat="46.1822644" lon="13.049855"><ele>171.75</ele><time>2026-04-04T14:44:26.068Z</time></trkpt><trkpt lat="46.1822129" lon="13.0496602"><ele>170.0</ele><time>2026-04-04T14:44:27.067Z</time></trkpt><trkpt lat="46.1821793" lon="13.0494537"><ele>170.0</ele><time>2026-04-04T14:44:28.066Z</time></trkpt><trkpt lat="46.1821518" lon="13.049243"><ele>170.0</ele><time>2026-04-04T14:44:29.066Z</time></trkpt><trkpt lat="46.1821253" lon="13.0490316"><ele>170.0</ele><time>2026-04-04T14:44:30.066Z</time></trkpt><trkpt lat="46.1820778" lon="13.0488264"><ele>170.0</ele><time>2026-04-04T14:44:31.067Z</time></trkpt><trkpt lat="46.1820158" lon="13.0486302"><ele>171.66666666666666</ele><time>2026-04-04T14:44:32.066Z</time></trkpt><trkpt lat="46.1819362" lon="13.0484432"><ele>173.33333333333334</ele><time>2026-04-04T14:44:33.067Z</time></trkpt><trkpt lat="46.1818432" lon="13.0482572"><ele>175.0</ele><time>2026-04-04T14:44:34.066Z</time></trkpt><trkpt lat="46.1817345" lon="13.0480406"><ele>174.66666666666669</ele><time>2026-04-04T14:44:35.068Z</time></trkpt><trkpt lat="46.1816217" lon="13.0477992"><ele>174.33333333333334</ele><time>2026-04-04T14:44:36.067Z</time></trkpt><trkpt lat="46.1815132" lon="13.0475487"><ele>174.0</ele><time>2026-04-04T14:44:37.066Z</time></trkpt><trkpt lat="46.1814109" lon="13.0473031"><ele>174.66666666666666</ele><time>2026-04-04T14:44:38.066Z</time></trkpt><trkpt lat="46.1813121" lon="13.0470679"><ele>175.33333333333331</ele><time>2026-04-04T14:44:39.067Z</time></trkpt><trkpt lat="46.1812172" lon="13.0468487"><ele>176.0</ele><time>2026-04-04T14:44:40.066Z</time></trkpt><trkpt lat="46.1811229" lon="13.0466397"><ele>176.66666666666666</ele><time>2026-04-04T14:44:41.066Z</time></trkpt><trkpt lat="46.1810272" lon="13.0464346"><ele>177.33333333333334</ele><time>2026-04-04T14:44:42.067Z</time></trkpt><trkpt lat="46.180922" lon="13.0462365"><ele>178.0</ele><time>2026-04-04T14:44:43.067Z</time></trkpt><trkpt lat="46.1808057" lon="13.0460413"><ele>177.0</ele><time>2026-04-04T14:44:44.066Z</time></trkpt><trkpt lat="46.1806818" lon="13.0458403"><ele>176.0</ele><time>2026-04-04T14:44:45.067Z</time></trkpt><trkpt lat="46.1805511" lon="13.0456326"><ele>175.0</ele><time>2026-04-04T14:44:46.066Z</time></trkpt><trkpt lat="46.1804039" lon="13.0454081"><ele>175.0</ele><time>2026-04-04T14:44:47.067Z</time></trkpt><trkpt lat="46.1802496" lon="13.045164"><ele>175.0</ele><time>2026-04-04T14:44:48.067Z</time></trkpt><trkpt lat="46.1800966" lon="13.0449095"><ele>175.0</ele><time>2026-04-04T14:44:49.067Z</time></trkpt><trkpt lat="46.1799489" lon="13.0446527"><ele>175.0</ele><time>2026-04-04T14:44:50.067Z</time></trkpt><trkpt lat="46.1798036" lon="13.0443975"><ele>175.0</ele><time>2026-04-04T14:44:51.067Z</time></trkpt><trkpt lat="46.1796584" lon="13.0441507"><ele>175.0</ele><time>2026-04-04T14:44:52.067Z</time></trkpt><trkpt lat="46.1795183" lon="13.0439209"><ele>175.0</ele><time>2026-04-04T14:44:53.067Z</time></trkpt><trkpt lat="46.1793903" lon="13.0437129"><ele>176.66666666666669</ele><time>2026-04-04T14:44:54.066Z</time></trkpt><trkpt lat="46.1792703" lon="13.0435207"><ele>178.33333333333334</ele><time>2026-04-04T14:44:55.067Z</time></trkpt><trkpt lat="46.1791543" lon="13.0433335"><ele>180.0</ele><time>2026-04-04T14:44:56.067Z</time></trkpt><trkpt lat="46.1790438" lon="13.0431538"><ele>180.33333333333334</ele><time>2026-04-04T14:44:57.066Z</time></trkpt><trkpt lat="46.178939" lon="13.0429768"><ele>180.66666666666669</ele><time>2026-04-04T14:44:58.068Z</time></trkpt><trkpt lat="46.1788332" lon="13.0428078"><ele>181.0</ele><time>2026-04-04T14:44:59.066Z</time></trkpt><trkpt lat="46.1787296" lon="13.042637"><ele>183.33333333333334</ele><time>2026-04-04T14:45:00.066Z</time></trkpt><trkpt lat="46.1786231" lon="13.0424643"><ele>185.66666666666666</ele><time>2026-04-04T14:45:01.066Z</time></trkpt><trkpt lat="46.1785164" lon="13.0422897"><ele>188.0</ele><time>2026-04-04T14:45:02.067Z</time></trkpt><trkpt lat="46.1784108" lon="13.0421181"><ele>188.0</ele><time>2026-04-04T14:45:03.066Z</time></trkpt><trkpt lat="46.1783055" lon="13.041949"><ele>188.0</ele><time>2026-04-04T14:45:04.066Z</time></trkpt><trkpt lat="46.1782032" lon="13.0417808"><ele>188.0</ele><time>2026-04-04T14:45:05.067Z</time></trkpt><trkpt lat="46.1781037" lon="13.0416173"><ele>186.75</ele><time>2026-04-04T14:45:06.067Z</time></trkpt><trkpt lat="46.1780063" lon="13.0414536"><ele>185.5</ele><time>2026-04-04T14:45:07.068Z</time></trkpt><trkpt lat="46.1779104" lon="13.0412937"><ele>184.25</ele><time>2026-04-04T14:45:08.067Z</time></trkpt><trkpt lat="46.1778143" lon="13.0411335"><ele>183.0</ele><time>2026-04-04T14:45:09.066Z</time></trkpt><trkpt lat="46.1777189" lon="13.0409713"><ele>183.0</ele><time>2026-04-04T14:45:10.067Z</time></trkpt><trkpt lat="46.1776227" lon="13.0408059"><ele>183.0</ele><time>2026-04-04T14:45:11.066Z</time></trkpt><trkpt lat="46.1775272" lon="13.0406384"><ele>183.0</ele><time>2026-04-04T14:45:12.066Z</time></trkpt><trkpt lat="46.1774325" lon="13.0404722"><ele>183.0</ele><time>2026-04-04T14:45:13.067Z</time></trkpt><trkpt lat="46.1773389" lon="13.0403129"><ele>182.5</ele><time>2026-04-04T14:45:14.066Z</time></trkpt><trkpt lat="46.1772429" lon="13.0401552"><ele>182.0</ele><time>2026-04-04T14:45:15.067Z</time></trkpt><trkpt lat="46.1771471" lon="13.0400012"><ele>181.5</ele><time>2026-04-04T14:45:16.067Z</time></trkpt><trkpt lat="46.1770533" lon="13.0398496"><ele>181.0</ele><time>2026-04-04T14:45:17.068Z</time></trkpt><trkpt lat="46.1769583" lon="13.039694"><ele>182.33333333333334</ele><time>2026-04-04T14:45:18.068Z</time></trkpt><trkpt lat="46.1768603" lon="13.0395342"><ele>183.66666666666666</ele><time>2026-04-04T14:45:19.066Z</time></trkpt><trkpt lat="46.1767606" lon="13.0393682"><ele>185.0</ele><time>2026-04-04T14:45:20.067Z</time></trkpt><trkpt lat="46.176661" lon="13.0391951"><ele>184.66666666666666</ele><time>2026-04-04T14:45:21.066Z</time></trkpt><trkpt lat="46.1765552" lon="13.0390073"><ele>184.33333333333334</ele><time>2026-04-04T14:45:22.066Z</time></trkpt><trkpt lat="46.1764507" lon="13.0388014"><ele>184.0</ele><time>2026-04-04T14:45:23.066Z</time></trkpt><trkpt lat="46.1763517" lon="13.0385769"><ele>184.0</ele><time>2026-04-04T14:45:24.066Z</time></trkpt><trkpt lat="46.1762623" lon="13.0383322"><ele>184.0</ele><time>2026-04-04T14:45:25.067Z</time></trkpt><trkpt lat="46.1761852" lon="13.0380714"><ele>184.0</ele><time>2026-04-04T14:45:26.067Z</time></trkpt><trkpt lat="46.1761135" lon="13.0377995"><ele>184.33333333333334</ele><time>2026-04-04T14:45:27.067Z</time></trkpt><trkpt lat="46.1760469" lon="13.0375175"><ele>184.66666666666666</ele><time>2026-04-04T14:45:28.067Z</time></trkpt><trkpt lat="46.1759825" lon="13.0372294"><ele>185.0</ele><time>2026-04-04T14:45:29.066Z</time></trkpt><trkpt lat="46.1759155" lon="13.0369362"><ele>184.0</ele><time>2026-04-04T14:45:30.068Z</time></trkpt><trkpt lat="46.1758461" lon="13.0366425"><ele>183.0</ele><time>2026-04-04T14:45:31.066Z</time></trkpt><trkpt lat="46.1757766" lon="13.0363462"><ele>182.0</ele><time>2026-04-04T14:45:32.067Z</time></trkpt><trkpt lat="46.175705" lon="13.0360456"><ele>180.66666666666666</ele><time>2026-04-04T14:45:33.068Z</time></trkpt><trkpt lat="46.1756306" lon="13.035742"><ele>179.33333333333334</ele><time>2026-04-04T14:45:34.067Z</time></trkpt><trkpt lat="46.1755557" lon="13.0354349"><ele>178.0</ele><time>2026-04-04T14:45:35.067Z</time></trkpt><trkpt lat="46.1754811" lon="13.0351236"><ele>177.0</ele><time>2026-04-04T14:45:36.067Z</time></trkpt><trkpt lat="46.1754041" lon="13.0348096"><ele>176.0</ele><time>2026-04-04T14:45:37.066Z</time></trkpt><trkpt lat="46.1753269" lon="13.0344918"><ele>176.0</ele><time>2026-04-04T14:45:38.067Z</time></trkpt><trkpt lat="46.1752508" lon="13.034173"><ele>176.0</ele><time>2026-04-04T14:45:39.066Z</time></trkpt><trkpt lat="46.1751774" lon="13.0338542"><ele>177.5</ele><time>2026-04-04T14:45:40.067Z</time></trkpt><trkpt lat="46.1751022" lon="13.0335386"><ele>179.0</ele><time>2026-04-04T14:45:41.067Z</time></trkpt><trkpt lat="46.1750265" lon="13.0332237"><ele>179.0</ele><time>2026-04-04T14:45:42.066Z</time></trkpt><trkpt lat="46.174949" lon="13.032911"><ele>179.0</ele><time>2026-04-04T14:45:43.067Z</time></trkpt><trkpt lat="46.1748733" lon="13.0325968"><ele>178.0</ele><time>2026-04-04T14:45:44.067Z</time></trkpt><trkpt lat="46.1747953" lon="13.0322804"><ele>177.0</ele><time>2026-04-04T14:45:45.068Z</time></trkpt><trkpt lat="46.1747199" lon="13.031962"><ele>177.0</ele><time>2026-04-04T14:45:46.066Z</time></trkpt><trkpt lat="46.174645" lon="13.0316433"><ele>177.0</ele><time>2026-04-04T14:45:47.068Z</time></trkpt><trkpt lat="46.1745693" lon="13.0313255"><ele>176.0</ele><time>2026-04-04T14:45:48.067Z</time></trkpt><trkpt lat="46.1744916" lon="13.0310071"><ele>175.0</ele><time>2026-04-04T14:45:49.066Z</time></trkpt><trkpt lat="46.1744139" lon="13.0306891"><ele>175.0</ele><time>2026-04-04T14:45:50.066Z</time></trkpt><trkpt lat="46.1743372" lon="13.0303724"><ele>175.0</ele><time>2026-04-04T14:45:51.067Z</time></trkpt><trkpt lat="46.1742633" lon="13.0300686"><ele>175.33333333333334</ele><time>2026-04-04T14:45:52.067Z</time></trkpt><trkpt lat="46.1741932" lon="13.0297764"><ele>175.66666666666666</ele><time>2026-04-04T14:45:53.067Z</time></trkpt><trkpt lat="46.1741265" lon="13.0294954"><ele>176.0</ele><time>2026-04-04T14:45:54.066Z</time></trkpt><trkpt lat="46.1740631" lon="13.0292255"><ele>175.66666666666666</ele><time>2026-04-04T14:45:55.067Z</time></trkpt><trkpt lat="46.1740031" lon="13.0289677"><ele>175.33333333333334</ele><time>2026-04-04T14:45:56.067Z</time></trkpt><trkpt lat="46.1739414" lon="13.0287151"><ele>175.0</ele><time>2026-04-04T14:45:57.068Z</time></trkpt><trkpt lat="46.1738811" lon="13.0284701"><ele>175.0</ele><time>2026-04-04T14:45:58.066Z</time></trkpt><trkpt lat="46.1738281" lon="13.0282558"><ele>175.0</ele><time>2026-04-04T14:45:59.067Z</time></trkpt><trkpt lat="46.1737787" lon="13.0280531"><ele>175.0</ele><time>2026-04-04T14:46:00.066Z</time></trkpt><trkpt lat="46.1737328" lon="13.0278539"><ele>175.0</ele><time>2026-04-04T14:46:01.068Z</time></trkpt><trkpt lat="46.1736871" lon="13.0276571"><ele>175.0</ele><time>2026-04-04T14:46:02.067Z</time></trkpt><trkpt lat="46.173639" lon="13.0274657"><ele>175.0</ele><time>2026-04-04T14:46:03.066Z</time></trkpt><trkpt lat="46.1735909" lon="13.0272708"><ele>175.0</ele><time>2026-04-04T14:46:04.067Z</time></trkpt><trkpt lat="46.1735457" lon="13.027075"><ele>175.25</ele><time>2026-04-04T14:46:05.066Z</time></trkpt><trkpt lat="46.1734983" lon="13.0268808"><ele>175.5</ele><time>2026-04-04T14:46:06.067Z</time></trkpt><trkpt lat="46.173451" lon="13.0266826"><ele>175.75</ele><time>2026-04-04T14:46:07.067Z</time></trkpt><trkpt lat="46.1734034" lon="13.0264881"><ele>176.0</ele><time>2026-04-04T14:46:08.066Z</time></trkpt><trkpt lat="46.1733546" lon="13.0262848"><ele>176.33333333333331</ele><time>2026-04-04T14:46:09.067Z</time></trkpt><trkpt lat="46.1733035" lon="13.0260707"><ele>176.66666666666666</ele><time>2026-04-04T14:46:10.067Z</time></trkpt><trkpt lat="46.173252" lon="13.0258448"><ele>177.0</ele><time>2026-04-04T14:46:11.066Z</time></trkpt><trkpt lat="46.1731971" lon="13.025612"><ele>176.0</ele><time>2026-04-04T14:46:12.066Z</time></trkpt><trkpt lat="46.1731393" lon="13.0253761"><ele>175.0</ele><time>2026-04-04T14:46:13.067Z</time></trkpt><trkpt lat="46.1730822" lon="13.0251307"><ele>174.0</ele><time>2026-04-04T14:46:14.067Z</time></trkpt><trkpt lat="46.1730237" lon="13.0248825"><ele>174.0</ele><time>2026-04-04T14:46:15.067Z</time></trkpt><trkpt lat="46.1729624" lon="13.0246343"><ele>174.0</ele><time>2026-04-04T14:46:16.067Z</time></trkpt><trkpt lat="46.1729006" lon="13.0243831"><ele>174.0</ele><time>2026-04-04T14:46:17.066Z</time></trkpt><trkpt lat="46.1728405" lon="13.0241339"><ele>174.33333333333334</ele><time>2026-04-04T14:46:18.066Z</time></trkpt><trkpt lat="46.1727818" lon="13.0238821"><ele>174.66666666666669</ele><time>2026-04-04T14:46:19.066Z</time></trkpt><trkpt lat="46.1727224" lon="13.0236307"><ele>175.0</ele><time>2026-04-04T14:46:20.067Z</time></trkpt><trkpt lat="46.1726618" lon="13.0233815"><ele>174.66666666666669</ele><time>2026-04-04T14:46:21.068Z</time></trkpt><trkpt lat="46.1725994" lon="13.0231306"><ele>174.33333333333334</ele><time>2026-04-04T14:46:22.066Z</time></trkpt><trkpt lat="46.1725369" lon="13.0228754"><ele>174.0</ele><time>2026-04-04T14:46:23.068Z</time></trkpt><trkpt lat="46.1724733" lon="13.0226123"><ele>174.0</ele><time>2026-04-04T14:46:24.067Z</time></trkpt><trkpt lat="46.1724107" lon="13.0223487"><ele>174.0</ele><time>2026-04-04T14:46:25.066Z</time></trkpt><trkpt lat="46.1723499" lon="13.0220856"><ele>174.0</ele><time>2026-04-04T14:46:26.068Z</time></trkpt><trkpt lat="46.1722886" lon="13.0218245"><ele>175.33333333333334</ele><time>2026-04-04T14:46:27.066Z</time></trkpt><trkpt lat="46.1722277" lon="13.0215703"><ele>176.66666666666669</ele><time>2026-04-04T14:46:28.067Z</time></trkpt><trkpt lat="46.1721678" lon="13.0213186"><ele>178.0</ele><time>2026-04-04T14:46:29.067Z</time></trkpt><trkpt lat="46.1721094" lon="13.0210722"><ele>178.0</ele><time>2026-04-04T14:46:30.067Z</time></trkpt><trkpt lat="46.1720506" lon="13.0208293"><ele>178.0</ele><time>2026-04-04T14:46:31.066Z</time></trkpt><trkpt lat="46.1719946" lon="13.0205926"><ele>178.0</ele><time>2026-04-04T14:46:32.067Z</time></trkpt><trkpt lat="46.1719373" lon="13.0203519"><ele>179.66666666666669</ele><time>2026-04-04T14:46:33.067Z</time></trkpt><trkpt lat="46.1718774" lon="13.020105"><ele>181.33333333333334</ele><time>2026-04-04T14:46:34.068Z</time></trkpt><trkpt lat="46.1718149" lon="13.0198482"><ele>183.0</ele><time>2026-04-04T14:46:35.067Z</time></trkpt><trkpt lat="46.1717504" lon="13.019583"><ele>184.0</ele><time>2026-04-04T14:46:36.067Z</time></trkpt><trkpt lat="46.1716858" lon="13.0193148"><ele>185.0</ele><time>2026-04-04T14:46:37.066Z</time></trkpt><trkpt lat="46.1716236" lon="13.0190456"><ele>186.0</ele><time>2026-04-04T14:46:38.068Z</time></trkpt><trkpt lat="46.171563" lon="13.0187822"><ele>185.33333333333334</ele><time>2026-04-04T14:46:39.067Z</time></trkpt><trkpt lat="46.1715004" lon="13.0185254"><ele>184.66666666666669</ele><time>2026-04-04T14:46:40.066Z</time></trkpt><trkpt lat="46.1714402" lon="13.0182717"><ele>184.0</ele><time>2026-04-04T14:46:41.068Z</time></trkpt><trkpt lat="46.1713794" lon="13.0180193"><ele>184.0</ele><time>2026-04-04T14:46:42.067Z</time></trkpt><trkpt lat="46.1713201" lon="13.0177662"><ele>184.0</ele><time>2026-04-04T14:46:43.068Z</time></trkpt><trkpt lat="46.17126" lon="13.0175168"><ele>184.0</ele><time>2026-04-04T14:46:44.067Z</time></trkpt><trkpt lat="46.1711999" lon="13.0172703"><ele>185.0</ele><time>2026-04-04T14:46:45.067Z</time></trkpt><trkpt lat="46.1711418" lon="13.0170249"><ele>186.0</ele><time>2026-04-04T14:46:46.068Z</time></trkpt><trkpt lat="46.1710839" lon="13.0167932"><ele>187.0</ele><time>2026-04-04T14:46:47.066Z</time></trkpt><trkpt lat="46.1710273" lon="13.0165806"><ele>188.0</ele><time>2026-04-04T14:46:48.067Z</time></trkpt><trkpt lat="46.1709685" lon="13.0163704"><ele>189.0</ele><time>2026-04-04T14:46:49.067Z</time></trkpt><trkpt lat="46.1709013" lon="13.0161612"><ele>190.0</ele><time>2026-04-04T14:46:50.067Z</time></trkpt><trkpt lat="46.1708247" lon="13.0159548"><ele>190.0</ele><time>2026-04-04T14:46:51.066Z</time></trkpt><trkpt lat="46.1707428" lon="13.0157508"><ele>190.0</ele><time>2026-04-04T14:46:52.067Z</time></trkpt><trkpt lat="46.1706517" lon="13.0155446"><ele>190.0</ele><time>2026-04-04T14:46:53.066Z</time></trkpt><trkpt lat="46.170547" lon="13.0153254"><ele>190.0</ele><time>2026-04-04T14:46:54.068Z</time></trkpt><trkpt lat="46.1704346" lon="13.0150976"><ele>190.0</ele><time>2026-04-04T14:46:55.066Z</time></trkpt><trkpt lat="46.1703258" lon="13.0148711"><ele>190.0</ele><time>2026-04-04T14:46:56.067Z</time></trkpt><trkpt lat="46.1702186" lon="13.0146476"><ele>190.33333333333334</ele><time>2026-04-04T14:46:57.067Z</time></trkpt><trkpt lat="46.1701166" lon="13.0144271"><ele>190.66666666666666</ele><time>2026-04-04T14:46:58.067Z</time></trkpt><trkpt lat="46.1700158" lon="13.014211"><ele>191.0</ele><time>2026-04-04T14:46:59.067Z</time></trkpt><trkpt lat="46.1699206" lon="13.0140022"><ele>191.66666666666666</ele><time>2026-04-04T14:47:00.067Z</time></trkpt><trkpt lat="46.1698237" lon="13.0137957"><ele>192.33333333333331</ele><time>2026-04-04T14:47:01.067Z</time></trkpt><trkpt lat="46.1697295" lon="13.0135916"><ele>193.0</ele><time>2026-04-04T14:47:02.067Z</time></trkpt><trkpt lat="46.1696347" lon="13.013387"><ele>192.33333333333331</ele><time>2026-04-04T14:47:03.066Z</time></trkpt><trkpt lat="46.1695403" lon="13.0131886"><ele>191.66666666666666</ele><time>2026-04-04T14:47:04.067Z</time></trkpt><trkpt lat="46.1694491" lon="13.0129998"><ele>191.0</ele><time>2026-04-04T14:47:05.067Z</time></trkpt><trkpt lat="46.169359" lon="13.0128085"><ele>191.0</ele><time>2026-04-04T14:47:06.067Z</time></trkpt><trkpt lat="46.169269" lon="13.0126159"><ele>191.0</ele><time>2026-04-04T14:47:07.066Z</time></trkpt><trkpt lat="46.1691777" lon="13.0124307"><ele>191.0</ele><time>2026-04-04T14:47:08.066Z</time></trkpt><trkpt lat="46.1690793" lon="13.0122511"><ele>191.66666666666666</ele><time>2026-04-04T14:47:09.067Z</time></trkpt><trkpt lat="46.168978" lon="13.0120777"><ele>192.33333333333331</ele><time>2026-04-04T14:47:10.066Z</time></trkpt><trkpt lat="46.168872" lon="13.0119162"><ele>193.0</ele><time>2026-04-04T14:47:11.068Z</time></trkpt><trkpt lat="46.1687597" lon="13.011768"><ele>192.66666666666666</ele><time>2026-04-04T14:47:12.067Z</time></trkpt><trkpt lat="46.1686404" lon="13.0116298"><ele>192.33333333333331</ele><time>2026-04-04T14:47:13.066Z</time></trkpt><trkpt lat="46.1685156" lon="13.0115059"><ele>192.0</ele><time>2026-04-04T14:47:14.066Z</time></trkpt><trkpt lat="46.1683876" lon="13.0113937"><ele>192.0</ele><time>2026-04-04T14:47:15.066Z</time></trkpt><trkpt lat="46.1682635" lon="13.0112925"><ele>192.0</ele><time>2026-04-04T14:47:16.067Z</time></trkpt><trkpt lat="46.1681463" lon="13.0111965"><ele>192.0</ele><time>2026-04-04T14:47:17.067Z</time></trkpt><trkpt lat="46.1680359" lon="13.0111065"><ele>192.0</ele><time>2026-04-04T14:47:18.068Z</time></trkpt><trkpt lat="46.1679314" lon="13.0110233"><ele>192.2</ele><time>2026-04-04T14:47:19.067Z</time></trkpt><trkpt lat="46.1678346" lon="13.0109455"><ele>192.39999999999998</ele><time>2026-04-04T14:47:20.068Z</time></trkpt><trkpt lat="46.1677386" lon="13.0108719"><ele>192.60000000000002</ele><time>2026-04-04T14:47:21.066Z</time></trkpt><trkpt lat="46.1676414" lon="13.0107959"><ele>192.8</ele><time>2026-04-04T14:47:22.066Z</time></trkpt><trkpt lat="46.1675442" lon="13.0107175"><ele>193.0</ele><time>2026-04-04T14:47:23.068Z</time></trkpt><trkpt lat="46.1674452" lon="13.0106357"><ele>193.5</ele><time>2026-04-04T14:47:24.068Z</time></trkpt><trkpt lat="46.1673414" lon="13.0105538"><ele>194.0</ele><time>2026-04-04T14:47:25.066Z</time></trkpt><trkpt lat="46.1672298" lon="13.0104726"><ele>194.5</ele><time>2026-04-04T14:47:26.067Z</time></trkpt><trkpt lat="46.1671136" lon="13.0103877"><ele>195.0</ele><time>2026-04-04T14:47:27.066Z</time></trkpt><trkpt lat="46.1670019" lon="13.0102993"><ele>195.0</ele><time>2026-04-04T14:47:28.067Z</time></trkpt><trkpt lat="46.1668854" lon="13.0102081"><ele>195.0</ele><time>2026-04-04T14:47:29.066Z</time></trkpt><trkpt lat="46.1667644" lon="13.0101144"><ele>195.0</ele><time>2026-04-04T14:47:30.067Z</time></trkpt><trkpt lat="46.1666393" lon="13.0100142"><ele>195.0</ele><time>2026-04-04T14:47:31.066Z</time></trkpt><trkpt lat="46.1665121" lon="13.0099113"><ele>195.5</ele><time>2026-04-04T14:47:32.067Z</time></trkpt><trkpt lat="46.1663862" lon="13.0098056"><ele>196.0</ele><time>2026-04-04T14:47:33.066Z</time></trkpt><trkpt lat="46.1662598" lon="13.0096992"><ele>196.5</ele><time>2026-04-04T14:47:34.066Z</time></trkpt><trkpt lat="46.1661392" lon="13.0096047"><ele>197.0</ele><time>2026-04-04T14:47:35.066Z</time></trkpt><trkpt lat="46.1660286" lon="13.0095113"><ele>197.0</ele><time>2026-04-04T14:47:36.067Z</time></trkpt><trkpt lat="46.1659262" lon="13.009423"><ele>197.0</ele><time>2026-04-04T14:47:37.066Z</time></trkpt><trkpt lat="46.165825" lon="13.0093329"><ele>197.0</ele><time>2026-04-04T14:47:38.068Z</time></trkpt><trkpt lat="46.1657195" lon="13.0092404"><ele>197.0</ele><time>2026-04-04T14:47:39.067Z</time></trkpt><trkpt lat="46.1656063" lon="13.0091479"><ele>197.25</ele><time>2026-04-04T14:47:40.066Z</time></trkpt><trkpt lat="46.1654908" lon="13.0090557"><ele>197.5</ele><time>2026-04-04T14:47:41.068Z</time></trkpt><trkpt lat="46.1653717" lon="13.008961"><ele>197.75</ele><time>2026-04-04T14:47:42.068Z</time></trkpt><trkpt lat="46.1652501" lon="13.0088648"><ele>198.0</ele><time>2026-04-04T14:47:43.066Z</time></trkpt><trkpt lat="46.165129" lon="13.0087698"><ele>198.0</ele><time>2026-04-04T14:47:44.067Z</time></trkpt><trkpt lat="46.1650155" lon="13.0086796"><ele>198.0</ele><time>2026-04-04T14:47:45.067Z</time></trkpt><trkpt lat="46.1649066" lon="13.0085938"><ele>198.0</ele><time>2026-04-04T14:47:46.066Z</time></trkpt><trkpt lat="46.1647979" lon="13.0085066"><ele>198.0</ele><time>2026-04-04T14:47:47.066Z</time></trkpt><trkpt lat="46.1646936" lon="13.0084202"><ele>198.0</ele><time>2026-04-04T14:47:48.066Z</time></trkpt><trkpt lat="46.1645936" lon="13.0083388"><ele>198.0</ele><time>2026-04-04T14:47:49.066Z</time></trkpt><trkpt lat="46.164493" lon="13.0082556"><ele>198.0</ele><time>2026-04-04T14:47:50.067Z</time></trkpt><trkpt lat="46.1643902" lon="13.0081727"><ele>198.0</ele><time>2026-04-04T14:47:51.067Z</time></trkpt><trkpt lat="46.1642841" lon="13.0080884"><ele>198.5</ele><time>2026-04-04T14:47:52.067Z</time></trkpt><trkpt lat="46.1641788" lon="13.0079974"><ele>199.0</ele><time>2026-04-04T14:47:53.067Z</time></trkpt><trkpt lat="46.1640738" lon="13.0078976"><ele>199.5</ele><time>2026-04-04T14:47:54.067Z</time></trkpt><trkpt lat="46.1639707" lon="13.0077881"><ele>200.0</ele><time>2026-04-04T14:47:55.067Z</time></trkpt><trkpt lat="46.163873" lon="13.0076664"><ele>200.0</ele><time>2026-04-04T14:47:56.067Z</time></trkpt><trkpt lat="46.1637773" lon="13.0075358"><ele>200.0</ele><time>2026-04-04T14:47:57.066Z</time></trkpt><trkpt lat="46.1636848" lon="13.0073917"><ele>200.0</ele><time>2026-04-04T14:47:58.068Z</time></trkpt><trkpt lat="46.1635937" lon="13.0072417"><ele>200.0</ele><time>2026-04-04T14:47:59.067Z</time></trkpt><trkpt lat="46.163507" lon="13.0070868"><ele>200.0</ele><time>2026-04-04T14:48:00.066Z</time></trkpt><trkpt lat="46.1634295" lon="13.0069258"><ele>200.0</ele><time>2026-04-04T14:48:01.067Z</time></trkpt><trkpt lat="46.1633578" lon="13.0067587"><ele>200.0</ele><time>2026-04-04T14:48:02.068Z</time></trkpt><trkpt lat="46.1632922" lon="13.006591"><ele>200.0</ele><time>2026-04-04T14:48:03.066Z</time></trkpt><trkpt lat="46.1632282" lon="13.0064189"><ele>200.25</ele><time>2026-04-04T14:48:04.066Z</time></trkpt><trkpt lat="46.1631687" lon="13.0062465"><ele>200.5</ele><time>2026-04-04T14:48:05.067Z</time></trkpt><trkpt lat="46.163111" lon="13.0060861"><ele>200.75</ele><time>2026-04-04T14:48:06.068Z</time></trkpt><trkpt lat="46.1630595" lon="13.0059378"><ele>201.0</ele><time>2026-04-04T14:48:07.066Z</time></trkpt><trkpt lat="46.1630124" lon="13.005802"><ele>201.0</ele><time>2026-04-04T14:48:08.066Z</time></trkpt><trkpt lat="46.1629646" lon="13.0056684"><ele>201.0</ele><time>2026-04-04T14:48:09.067Z</time></trkpt><trkpt lat="46.1629163" lon="13.0055327"><ele>201.0</ele><time>2026-04-04T14:48:10.067Z</time></trkpt><trkpt lat="46.1628667" lon="13.0053939"><ele>201.0</ele><time>2026-04-04T14:48:11.068Z</time></trkpt><trkpt lat="46.1628212" lon="13.0052601"><ele>201.0</ele><time>2026-04-04T14:48:12.066Z</time></trkpt><trkpt lat="46.1627781" lon="13.0051314"><ele>201.0</ele><time>2026-04-04T14:48:13.066Z</time></trkpt><trkpt lat="46.1627371" lon="13.0050079"><ele>201.0</ele><time>2026-04-04T14:48:14.066Z</time></trkpt><trkpt lat="46.1627001" lon="13.0048921"><ele>201.0</ele><time>2026-04-04T14:48:15.066Z</time></trkpt><trkpt lat="46.1626657" lon="13.0047852"><ele>201.0</ele><time>2026-04-04T14:48:16.067Z</time></trkpt><trkpt lat="46.1626348" lon="13.0046857"><ele>201.0</ele><time>2026-04-04T14:48:17.067Z</time></trkpt><trkpt lat="46.1626058" lon="13.0045862"><ele>201.0</ele><time>2026-04-04T14:48:18.067Z</time></trkpt><trkpt lat="46.1625777" lon="13.0044937"><ele>201.16666666666666</ele><time>2026-04-04T14:48:19.066Z</time></trkpt><trkpt lat="46.162552" lon="13.0044095"><ele>201.33333333333331</ele><time>2026-04-04T14:48:20.067Z</time></trkpt><trkpt lat="46.1625199" lon="13.0042846"><ele>201.5</ele><time>2026-04-04T14:48:22.067Z</time></trkpt><trkpt lat="46.1625082" lon="13.0041847"><ele>201.66666666666666</ele><time>2026-04-04T14:48:24.067Z</time></trkpt><trkpt lat="46.1625301" lon="13.0040209"><ele>201.83333333333331</ele><time>2026-04-04T14:48:26.067Z</time></trkpt><trkpt lat="46.1625477" lon="13.0039162"><ele>202.0</ele><time>2026-04-04T14:48:27.067Z</time></trkpt><trkpt lat="46.1625771" lon="13.0038019"><ele>202.5</ele><time>2026-04-04T14:48:28.066Z</time></trkpt><trkpt lat="46.1626475" lon="13.0036983"><ele>203.0</ele><time>2026-04-04T14:48:29.067Z</time></trkpt><trkpt lat="46.1627537" lon="13.0035929"><ele>203.5</ele><time>2026-04-04T14:48:30.066Z</time></trkpt><trkpt lat="46.1629075" lon="13.0034918"><ele>204.0</ele><time>2026-04-04T14:48:31.067Z</time></trkpt><trkpt lat="46.1630943" lon="13.0033954"><ele>207.5</ele><time>2026-04-04T14:48:32.068Z</time></trkpt><trkpt lat="46.1633108" lon="13.0032933"><ele>211.0</ele><time>2026-04-04T14:48:33.068Z</time></trkpt><trkpt lat="46.1635459" lon="13.0031743"><ele>211.0</ele><time>2026-04-04T14:48:34.066Z</time></trkpt><trkpt lat="46.1637884" lon="13.0030502"><ele>211.0</ele><time>2026-04-04T14:48:35.066Z</time></trkpt><trkpt lat="46.1640086" lon="13.0029368"><ele>211.0</ele><time>2026-04-04T14:48:36.067Z</time></trkpt><trkpt lat="46.1642203" lon="13.0028281"><ele>211.0</ele><time>2026-04-04T14:48:37.067Z</time></trkpt><trkpt lat="46.1644223" lon="13.0027264"><ele>211.0</ele><time>2026-04-04T14:48:38.068Z</time></trkpt><trkpt lat="46.1646137" lon="13.0026281"><ele>211.0</ele><time>2026-04-04T14:48:39.066Z</time></trkpt><trkpt lat="46.1647975" lon="13.0025352"><ele>211.0</ele><time>2026-04-04T14:48:40.068Z</time></trkpt><trkpt lat="46.1649728" lon="13.0024442"><ele>211.0</ele><time>2026-04-04T14:48:41.068Z</time></trkpt><trkpt lat="46.1651454" lon="13.002354"><ele>215.0</ele><time>2026-04-04T14:48:42.066Z</time></trkpt><trkpt lat="46.1653269" lon="13.0022582"><ele>219.0</ele><time>2026-04-04T14:48:43.068Z</time></trkpt><trkpt lat="46.1655081" lon="13.0021629"><ele>223.0</ele><time>2026-04-04T14:48:44.067Z</time></trkpt><trkpt lat="46.1656905" lon="13.0020665"><ele>219.66666666666666</ele><time>2026-04-04T14:48:45.067Z</time></trkpt><trkpt lat="46.165871" lon="13.0019694"><ele>216.33333333333331</ele><time>2026-04-04T14:48:46.066Z</time></trkpt><trkpt lat="46.1660553" lon="13.001877"><ele>213.0</ele><time>2026-04-04T14:48:47.066Z</time></trkpt><trkpt lat="46.1662337" lon="13.0017887"><ele>213.0</ele><time>2026-04-04T14:48:48.068Z</time></trkpt><trkpt lat="46.1664079" lon="13.0017038"><ele>213.0</ele><time>2026-04-04T14:48:49.067Z</time></trkpt><trkpt lat="46.1665748" lon="13.0016194"><ele>213.0</ele><time>2026-04-04T14:48:50.067Z</time></trkpt><trkpt lat="46.1667366" lon="13.0015409"><ele>211.33333333333331</ele><time>2026-04-04T14:48:51.068Z</time></trkpt><trkpt lat="46.1668975" lon="13.0014598"><ele>209.66666666666666</ele><time>2026-04-04T14:48:52.066Z</time></trkpt><trkpt lat="46.167058" lon="13.0013752"><ele>208.0</ele><time>2026-04-04T14:48:53.068Z</time></trkpt><trkpt lat="46.1672155" lon="13.0012906"><ele>209.33333333333331</ele><time>2026-04-04T14:48:54.067Z</time></trkpt><trkpt lat="46.1673736" lon="13.0012092"><ele>210.66666666666669</ele><time>2026-04-04T14:48:55.066Z</time></trkpt><trkpt lat="46.1675307" lon="13.0011216"><ele>212.0</ele><time>2026-04-04T14:48:56.066Z</time></trkpt><trkpt lat="46.167679" lon="13.0010171"><ele>212.0</ele><time>2026-04-04T14:48:57.068Z</time></trkpt><trkpt lat="46.167821" lon="13.000879"><ele>212.0</ele><time>2026-04-04T14:48:58.068Z</time></trkpt><trkpt lat="46.1679557" lon="13.0007113"><ele>212.0</ele><time>2026-04-04T14:48:59.067Z</time></trkpt><trkpt lat="46.168082" lon="13.0005174"><ele>211.66666666666669</ele><time>2026-04-04T14:49:00.067Z</time></trkpt><trkpt lat="46.1682045" lon="13.000311"><ele>211.33333333333331</ele><time>2026-04-04T14:49:01.066Z</time></trkpt><trkpt lat="46.1683255" lon="13.0001013"><ele>211.0</ele><time>2026-04-04T14:49:02.066Z</time></trkpt><trkpt lat="46.168446" lon="12.9998885"><ele>211.0</ele><time>2026-04-04T14:49:03.067Z</time></trkpt><trkpt lat="46.168567" lon="12.9996716"><ele>211.0</ele><time>2026-04-04T14:49:04.067Z</time></trkpt><trkpt lat="46.1686912" lon="12.9994439"><ele>211.0</ele><time>2026-04-04T14:49:05.068Z</time></trkpt><trkpt lat="46.1688211" lon="12.9991922"><ele>212.0</ele><time>2026-04-04T14:49:06.067Z</time></trkpt><trkpt lat="46.1689558" lon="12.9989164"><ele>213.0</ele><time>2026-04-04T14:49:07.067Z</time></trkpt><trkpt lat="46.1691148" lon="12.9986374"><ele>210.0</ele><time>2026-04-04T14:49:08.068Z</time></trkpt><trkpt lat="46.1692777" lon="12.9983638"><ele>207.0</ele><time>2026-04-04T14:49:09.067Z</time></trkpt><trkpt lat="46.1694454" lon="12.9980699"><ele>207.0</ele><time>2026-04-04T14:49:10.066Z</time></trkpt><trkpt lat="46.1696082" lon="12.9977806"><ele>207.0</ele><time>2026-04-04T14:49:11.068Z</time></trkpt><trkpt lat="46.1697731" lon="12.9974918"><ele>206.0</ele><time>2026-04-04T14:49:12.066Z</time></trkpt><trkpt lat="46.1699351" lon="12.9972027"><ele>205.0</ele><time>2026-04-04T14:49:13.068Z</time></trkpt><trkpt lat="46.1700957" lon="12.9969157"><ele>208.0</ele><time>2026-04-04T14:49:14.067Z</time></trkpt><trkpt lat="46.1702555" lon="12.9966325"><ele>211.0</ele><time>2026-04-04T14:49:15.067Z</time></trkpt><trkpt lat="46.1704121" lon="12.9963543"><ele>211.0</ele><time>2026-04-04T14:49:16.067Z</time></trkpt><trkpt lat="46.1705646" lon="12.9960832"><ele>211.0</ele><time>2026-04-04T14:49:17.067Z</time></trkpt><trkpt lat="46.1707148" lon="12.9958206"><ele>211.0</ele><time>2026-04-04T14:49:18.066Z</time></trkpt><trkpt lat="46.1708598" lon="12.9955661"><ele>211.0</ele><time>2026-04-04T14:49:19.067Z</time></trkpt><trkpt lat="46.1710009" lon="12.9953192"><ele>211.0</ele><time>2026-04-04T14:49:20.066Z</time></trkpt><trkpt lat="46.1711402" lon="12.9950707"><ele>211.0</ele><time>2026-04-04T14:49:21.067Z</time></trkpt><trkpt lat="46.1712779" lon="12.994829"><ele>211.0</ele><time>2026-04-04T14:49:22.066Z</time></trkpt><trkpt lat="46.1714128" lon="12.9945901"><ele>210.66666666666666</ele><time>2026-04-04T14:49:23.066Z</time></trkpt><trkpt lat="46.1715424" lon="12.9943573"><ele>210.33333333333331</ele><time>2026-04-04T14:49:24.067Z</time></trkpt><trkpt lat="46.171666" lon="12.9941301"><ele>210.0</ele><time>2026-04-04T14:49:25.067Z</time></trkpt><trkpt lat="46.1717929" lon="12.993907"><ele>212.0</ele><time>2026-04-04T14:49:26.066Z</time></trkpt><trkpt lat="46.1719171" lon="12.9936832"><ele>214.0</ele><time>2026-04-04T14:49:27.066Z</time></trkpt><trkpt lat="46.1720446" lon="12.9934576"><ele>216.0</ele><time>2026-04-04T14:49:28.067Z</time></trkpt><trkpt lat="46.172175" lon="12.9932239"><ele>215.0</ele><time>2026-04-04T14:49:29.067Z</time></trkpt><trkpt lat="46.1723023" lon="12.9929943"><ele>214.0</ele><time>2026-04-04T14:49:30.068Z</time></trkpt><trkpt lat="46.1724277" lon="12.9927716"><ele>213.0</ele><time>2026-04-04T14:49:31.066Z</time></trkpt><trkpt lat="46.17255" lon="12.992552"><ele>214.0</ele><time>2026-04-04T14:49:32.066Z</time></trkpt><trkpt lat="46.1726716" lon="12.9923374"><ele>215.0</ele><time>2026-04-04T14:49:33.067Z</time></trkpt><trkpt lat="46.1727921" lon="12.992122"><ele>216.0</ele><time>2026-04-04T14:49:34.067Z</time></trkpt><trkpt lat="46.1729039" lon="12.9918995"><ele>217.33333333333331</ele><time>2026-04-04T14:49:35.066Z</time></trkpt><trkpt lat="46.1729991" lon="12.9916709"><ele>218.66666666666666</ele><time>2026-04-04T14:49:36.067Z</time></trkpt><trkpt lat="46.1730777" lon="12.9914358"><ele>220.0</ele><time>2026-04-04T14:49:37.067Z</time></trkpt><trkpt lat="46.1731359" lon="12.9911831"><ele>220.0</ele><time>2026-04-04T14:49:38.068Z</time></trkpt><trkpt lat="46.1731709" lon="12.990921"><ele>220.0</ele><time>2026-04-04T14:49:39.066Z</time></trkpt><trkpt lat="46.1731897" lon="12.9906472"><ele>220.0</ele><time>2026-04-04T14:49:40.067Z</time></trkpt><trkpt lat="46.1731889" lon="12.9903685"><ele>220.0</ele><time>2026-04-04T14:49:41.067Z</time></trkpt><trkpt lat="46.173178" lon="12.9900958"><ele>220.0</ele><time>2026-04-04T14:49:42.066Z</time></trkpt><trkpt lat="46.1731636" lon="12.9898369"><ele>220.0</ele><time>2026-04-04T14:49:43.068Z</time></trkpt><trkpt lat="46.1731507" lon="12.989584"><ele>217.66666666666666</ele><time>2026-04-04T14:49:44.068Z</time></trkpt><trkpt lat="46.1731386" lon="12.9893365"><ele>215.33333333333331</ele><time>2026-04-04T14:49:45.066Z</time></trkpt><trkpt lat="46.1731278" lon="12.9890877"><ele>213.0</ele><time>2026-04-04T14:49:46.068Z</time></trkpt><trkpt lat="46.1731165" lon="12.9888425"><ele>213.0</ele><time>2026-04-04T14:49:47.066Z</time></trkpt><trkpt lat="46.1731027" lon="12.9885982"><ele>213.0</ele><time>2026-04-04T14:49:48.067Z</time></trkpt><trkpt lat="46.1730898" lon="12.9883608"><ele>213.0</ele><time>2026-04-04T14:49:49.067Z</time></trkpt><trkpt lat="46.1730769" lon="12.9881219"><ele>213.75</ele><time>2026-04-04T14:49:50.066Z</time></trkpt><trkpt lat="46.1730672" lon="12.9878966"><ele>214.5</ele><time>2026-04-04T14:49:51.066Z</time></trkpt><trkpt lat="46.1730553" lon="12.98769"><ele>215.25</ele><time>2026-04-04T14:49:52.067Z</time></trkpt><trkpt lat="46.1730447" lon="12.9874825"><ele>216.0</ele><time>2026-04-04T14:49:53.067Z</time></trkpt><trkpt lat="46.173034" lon="12.9872648"><ele>216.66666666666669</ele><time>2026-04-04T14:49:54.067Z</time></trkpt><trkpt lat="46.1730254" lon="12.9870382"><ele>217.33333333333334</ele><time>2026-04-04T14:49:55.067Z</time></trkpt><trkpt lat="46.1730141" lon="12.9868096"><ele>218.0</ele><time>2026-04-04T14:49:56.066Z</time></trkpt><trkpt lat="46.1730026" lon="12.9865797"><ele>219.0</ele><time>2026-04-04T14:49:57.067Z</time></trkpt><trkpt lat="46.1729903" lon="12.9863575"><ele>220.0</ele><time>2026-04-04T14:49:58.066Z</time></trkpt><trkpt lat="46.1729828" lon="12.986138"><ele>221.0</ele><time>2026-04-04T14:49:59.066Z</time></trkpt><trkpt lat="46.1729782" lon="12.9859194"><ele>221.66666666666669</ele><time>2026-04-04T14:50:00.067Z</time></trkpt><trkpt lat="46.172986" lon="12.9857009"><ele>222.33333333333331</ele><time>2026-04-04T14:50:01.067Z</time></trkpt><trkpt lat="46.1730124" lon="12.9854835"><ele>223.0</ele><time>2026-04-04T14:50:02.066Z</time></trkpt><trkpt lat="46.173057" lon="12.9852682"><ele>223.0</ele><time>2026-04-04T14:50:03.066Z</time></trkpt><trkpt lat="46.1731229" lon="12.9850605"><ele>223.0</ele><time>2026-04-04T14:50:04.066Z</time></trkpt><trkpt lat="46.1732096" lon="12.9848492"><ele>223.0</ele><time>2026-04-04T14:50:05.067Z</time></trkpt><trkpt lat="46.1733037" lon="12.9846306"><ele>224.33333333333331</ele><time>2026-04-04T14:50:06.067Z</time></trkpt><trkpt lat="46.1733975" lon="12.9844075"><ele>225.66666666666669</ele><time>2026-04-04T14:50:07.067Z</time></trkpt><trkpt lat="46.1734854" lon="12.9841997"><ele>227.0</ele><time>2026-04-04T14:50:08.066Z</time></trkpt><trkpt lat="46.1735681" lon="12.9840041"><ele>227.0</ele><time>2026-04-04T14:50:09.067Z</time></trkpt><trkpt lat="46.1736512" lon="12.9838105"><ele>227.0</ele><time>2026-04-04T14:50:10.066Z</time></trkpt><trkpt lat="46.1737347" lon="12.9836135"><ele>227.0</ele><time>2026-04-04T14:50:11.066Z</time></trkpt><trkpt lat="46.1738164" lon="12.983413"><ele>226.66666666666669</ele><time>2026-04-04T14:50:12.066Z</time></trkpt><trkpt lat="46.1738987" lon="12.9832071"><ele>226.33333333333331</ele><time>2026-04-04T14:50:13.067Z</time></trkpt><trkpt lat="46.1739779" lon="12.9830123"><ele>226.0</ele><time>2026-04-04T14:50:14.067Z</time></trkpt><trkpt lat="46.1740497" lon="12.9828315"><ele>227.0</ele><time>2026-04-04T14:50:15.066Z</time></trkpt><trkpt lat="46.174119" lon="12.9826639"><ele>228.0</ele><time>2026-04-04T14:50:16.066Z</time></trkpt><trkpt lat="46.1741949" lon="12.9825008"><ele>229.0</ele><time>2026-04-04T14:50:17.066Z</time></trkpt><trkpt lat="46.1742723" lon="12.9823377"><ele>230.0</ele><time>2026-04-04T14:50:18.067Z</time></trkpt><trkpt lat="46.174361" lon="12.9821794"><ele>230.0</ele><time>2026-04-04T14:50:19.067Z</time></trkpt><trkpt lat="46.1744667" lon="12.9820409"><ele>230.0</ele><time>2026-04-04T14:50:20.066Z</time></trkpt><trkpt lat="46.1745895" lon="12.9819181"><ele>230.0</ele><time>2026-04-04T14:50:21.067Z</time></trkpt><trkpt lat="46.1747224" lon="12.9818042"><ele>230.0</ele><time>2026-04-04T14:50:22.067Z</time></trkpt><trkpt lat="46.1748621" lon="12.9816924"><ele>229.33333333333334</ele><time>2026-04-04T14:50:23.066Z</time></trkpt><trkpt lat="46.1750038" lon="12.9815773"><ele>228.66666666666669</ele><time>2026-04-04T14:50:24.067Z</time></trkpt><trkpt lat="46.1751414" lon="12.9814544"><ele>228.0</ele><time>2026-04-04T14:50:25.068Z</time></trkpt><trkpt lat="46.175267" lon="12.9813172"><ele>228.0</ele><time>2026-04-04T14:50:26.067Z</time></trkpt><trkpt lat="46.1753853" lon="12.9811749"><ele>228.0</ele><time>2026-04-04T14:50:27.066Z</time></trkpt><trkpt lat="46.1754966" lon="12.981039"><ele>228.0</ele><time>2026-04-04T14:50:28.066Z</time></trkpt><trkpt lat="46.1756008" lon="12.9809137"><ele>228.0</ele><time>2026-04-04T14:50:29.066Z</time></trkpt><trkpt lat="46.1756999" lon="12.9807886"><ele>228.5</ele><time>2026-04-04T14:50:30.067Z</time></trkpt><trkpt lat="46.1757987" lon="12.9806632"><ele>229.0</ele><time>2026-04-04T14:50:31.066Z</time></trkpt><trkpt lat="46.1758943" lon="12.9805379"><ele>229.5</ele><time>2026-04-04T14:50:32.067Z</time></trkpt><trkpt lat="46.1759926" lon="12.9804103"><ele>230.0</ele><time>2026-04-04T14:50:33.067Z</time></trkpt><trkpt lat="46.1760973" lon="12.9802872"><ele>230.0</ele><time>2026-04-04T14:50:34.066Z</time></trkpt><trkpt lat="46.1762089" lon="12.9801708"><ele>230.0</ele><time>2026-04-04T14:50:35.067Z</time></trkpt><trkpt lat="46.1763288" lon="12.9800564"><ele>230.0</ele><time>2026-04-04T14:50:36.066Z</time></trkpt><trkpt lat="46.1764577" lon="12.9799511"><ele>230.0</ele><time>2026-04-04T14:50:37.066Z</time></trkpt><trkpt lat="46.17659" lon="12.9798583"><ele>229.75</ele><time>2026-04-04T14:50:38.066Z</time></trkpt><trkpt lat="46.1767203" lon="12.9797795"><ele>229.5</ele><time>2026-04-04T14:50:39.068Z</time></trkpt><trkpt lat="46.1768537" lon="12.9796998"><ele>229.25</ele><time>2026-04-04T14:50:40.066Z</time></trkpt><trkpt lat="46.1769867" lon="12.9796211"><ele>229.0</ele><time>2026-04-04T14:50:41.067Z</time></trkpt><trkpt lat="46.1771207" lon="12.9795409"><ele>229.0</ele><time>2026-04-04T14:50:42.067Z</time></trkpt><trkpt lat="46.1772517" lon="12.9794595"><ele>229.0</ele><time>2026-04-04T14:50:43.067Z</time></trkpt><trkpt lat="46.1773676" lon="12.9793903"><ele>229.0</ele><time>2026-04-04T14:50:44.066Z</time></trkpt><trkpt lat="46.1774702" lon="12.97933"><ele>229.0</ele><time>2026-04-04T14:50:45.066Z</time></trkpt><trkpt lat="46.1775684" lon="12.979273"><ele>229.16666666666666</ele><time>2026-04-04T14:50:46.066Z</time></trkpt><trkpt lat="46.1776585" lon="12.9792217"><ele>229.33333333333331</ele><time>2026-04-04T14:50:47.066Z</time></trkpt><trkpt lat="46.1777387" lon="12.9791718"><ele>229.5</ele><time>2026-04-04T14:50:48.066Z</time></trkpt><trkpt lat="46.1778116" lon="12.9791274"><ele>229.66666666666669</ele><time>2026-04-04T14:50:49.068Z</time></trkpt><trkpt lat="46.1778825" lon="12.9790852"><ele>229.83333333333334</ele><time>2026-04-04T14:50:50.066Z</time></trkpt><trkpt lat="46.1779548" lon="12.9790409"><ele>230.0</ele><time>2026-04-04T14:50:51.067Z</time></trkpt><trkpt lat="46.1780282" lon="12.9789924"><ele>230.00000000000003</ele><time>2026-04-04T14:50:52.067Z</time></trkpt><trkpt lat="46.1781047" lon="12.978937"><ele>230.0</ele><time>2026-04-04T14:50:53.067Z</time></trkpt><trkpt lat="46.1781831" lon="12.9788774"><ele>230.0</ele><time>2026-04-04T14:50:54.067Z</time></trkpt><trkpt lat="46.1782622" lon="12.978812"><ele>230.0</ele><time>2026-04-04T14:50:55.066Z</time></trkpt><trkpt lat="46.1783402" lon="12.9787504"><ele>230.00000000000003</ele><time>2026-04-04T14:50:56.066Z</time></trkpt><trkpt lat="46.1784089" lon="12.9786895"><ele>230.0</ele><time>2026-04-04T14:50:57.067Z</time></trkpt><trkpt lat="46.1784769" lon="12.9786261"><ele>230.00000000000003</ele><time>2026-04-04T14:50:58.066Z</time></trkpt><trkpt lat="46.1785426" lon="12.9785583"><ele>230.0</ele><time>2026-04-04T14:50:59.067Z</time></trkpt><trkpt lat="46.1786074" lon="12.9784898"><ele>230.0</ele><time>2026-04-04T14:51:00.066Z</time></trkpt><trkpt lat="46.1786708" lon="12.9784273"><ele>230.0</ele><time>2026-04-04T14:51:01.067Z</time></trkpt><trkpt lat="46.1787296" lon="12.9783638"><ele>230.00000000000003</ele><time>2026-04-04T14:51:02.066Z</time></trkpt><trkpt lat="46.1787892" lon="12.9783055"><ele>230.0</ele><time>2026-04-04T14:51:03.068Z</time></trkpt><trkpt lat="46.1788481" lon="12.9782474"><ele>229.99999999999997</ele><time>2026-04-04T14:51:04.067Z</time></trkpt><trkpt lat="46.1789061" lon="12.9781912"><ele>230.0</ele><time>2026-04-04T14:51:05.068Z</time></trkpt><trkpt lat="46.1789624" lon="12.9781365"><ele>229.99999999999997</ele><time>2026-04-04T14:51:06.067Z</time></trkpt><trkpt lat="46.1790217" lon="12.9780895"><ele>229.99999999999997</ele><time>2026-04-04T14:51:07.067Z</time></trkpt><trkpt lat="46.1790804" lon="12.978038"><ele>230.0</ele><time>2026-04-04T14:51:08.067Z</time></trkpt><trkpt lat="46.1791206" lon="12.97794"><ele>229.99999999999997</ele><time>2026-04-04T14:51:09.067Z</time></trkpt><trkpt lat="46.1791222" lon="12.9778278"><ele>229.99999999999997</ele><time>2026-04-04T14:51:10.066Z</time></trkpt><trkpt lat="46.1791119" lon="12.9777152"><ele>230.1428571428571</ele><time>2026-04-04T14:51:11.068Z</time></trkpt><trkpt lat="46.1791054" lon="12.9776023"><ele>230.28571428571428</ele><time>2026-04-04T14:51:12.068Z</time></trkpt><trkpt lat="46.1791009" lon="12.9774975"><ele>230.42857142857142</ele><time>2026-04-04T14:51:13.067Z</time></trkpt><trkpt lat="46.1790986" lon="12.9773956"><ele>230.57142857142856</ele><time>2026-04-04T14:51:14.067Z</time></trkpt><trkpt lat="46.1790988" lon="12.977295"><ele>230.71428571428572</ele><time>2026-04-04T14:51:15.068Z</time></trkpt><trkpt lat="46.1791021" lon="12.9771873"><ele>230.85714285714286</ele><time>2026-04-04T14:51:16.067Z</time></trkpt><trkpt lat="46.179105" lon="12.977081"><ele>231.0</ele><time>2026-04-04T14:51:17.067Z</time></trkpt><trkpt lat="46.1791178" lon="12.9769762"><ele>230.66666666666666</ele><time>2026-04-04T14:51:18.067Z</time></trkpt><trkpt lat="46.1791435" lon="12.9768753"><ele>230.33333333333331</ele><time>2026-04-04T14:51:19.068Z</time></trkpt><trkpt lat="46.1791857" lon="12.9767822"><ele>230.0</ele><time>2026-04-04T14:51:20.067Z</time></trkpt><trkpt lat="46.1792448" lon="12.976703"><ele>229.66666666666666</ele><time>2026-04-04T14:51:21.067Z</time></trkpt><trkpt lat="46.1793103" lon="12.9766315"><ele>229.33333333333331</ele><time>2026-04-04T14:51:22.066Z</time></trkpt><trkpt lat="46.1793943" lon="12.9765808"><ele>229.0</ele><time>2026-04-04T14:51:23.067Z</time></trkpt><trkpt lat="46.1794783" lon="12.9765246"><ele>228.49999999999997</ele><time>2026-04-04T14:51:24.068Z</time></trkpt><trkpt lat="46.1795581" lon="12.9764692"><ele>228.0</ele><time>2026-04-04T14:51:25.067Z</time></trkpt><trkpt lat="46.1796373" lon="12.9764178"><ele>227.5</ele><time>2026-04-04T14:51:26.066Z</time></trkpt><trkpt lat="46.1797169" lon="12.9763712"><ele>227.0</ele><time>2026-04-04T14:51:27.067Z</time></trkpt><trkpt lat="46.1797978" lon="12.9763278"><ele>226.49999999999997</ele><time>2026-04-04T14:51:28.066Z</time></trkpt><trkpt lat="46.1798725" lon="12.9762825"><ele>226.0</ele><time>2026-04-04T14:51:29.068Z</time></trkpt><trkpt lat="46.1799431" lon="12.9762381"><ele>225.99999999999997</ele><time>2026-04-04T14:51:30.068Z</time></trkpt><trkpt lat="46.1800161" lon="12.9761982"><ele>226.0</ele><time>2026-04-04T14:51:31.066Z</time></trkpt><trkpt lat="46.1800874" lon="12.9761525"><ele>226.0</ele><time>2026-04-04T14:51:32.066Z</time></trkpt><trkpt lat="46.1801588" lon="12.9760987"><ele>226.0</ele><time>2026-04-04T14:51:33.066Z</time></trkpt><trkpt lat="46.1802262" lon="12.9760229"><ele>225.99999999999997</ele><time>2026-04-04T14:51:34.067Z</time></trkpt><trkpt lat="46.1802853" lon="12.9759394"><ele>226.0</ele><time>2026-04-04T14:51:35.067Z</time></trkpt><trkpt lat="46.1803373" lon="12.9758347"><ele>224.8</ele><time>2026-04-04T14:51:36.067Z</time></trkpt><trkpt lat="46.1803756" lon="12.975715"><ele>223.60000000000002</ele><time>2026-04-04T14:51:37.066Z</time></trkpt><trkpt lat="46.1804091" lon="12.9755773"><ele>222.4</ele><time>2026-04-04T14:51:38.068Z</time></trkpt><trkpt lat="46.1804499" lon="12.9754377"><ele>221.2</ele><time>2026-04-04T14:51:39.067Z</time></trkpt><trkpt lat="46.180491" lon="12.9753036"><ele>220.0</ele><time>2026-04-04T14:51:40.067Z</time></trkpt><trkpt lat="46.1805314" lon="12.9751746"><ele>220.0</ele><time>2026-04-04T14:51:41.067Z</time></trkpt><trkpt lat="46.1805692" lon="12.9750532"><ele>220.0</ele><time>2026-04-04T14:51:42.067Z</time></trkpt><trkpt lat="46.1806054" lon="12.9749438"><ele>220.0</ele><time>2026-04-04T14:51:43.066Z</time></trkpt><trkpt lat="46.1806502" lon="12.9748361"><ele>220.0</ele><time>2026-04-04T14:51:44.067Z</time></trkpt><trkpt lat="46.1807022" lon="12.9747267"><ele>220.0</ele><time>2026-04-04T14:51:45.068Z</time></trkpt><trkpt lat="46.1807618" lon="12.9746116"><ele>219.6</ele><time>2026-04-04T14:51:46.066Z</time></trkpt><trkpt lat="46.180831" lon="12.9744995"><ele>219.2</ele><time>2026-04-04T14:51:47.067Z</time></trkpt><trkpt lat="46.1809079" lon="12.9743999"><ele>218.8</ele><time>2026-04-04T14:51:48.067Z</time></trkpt><trkpt lat="46.1809858" lon="12.9743086"><ele>218.4</ele><time>2026-04-04T14:51:49.067Z</time></trkpt><trkpt lat="46.1810619" lon="12.9742101"><ele>218.0</ele><time>2026-04-04T14:51:50.068Z</time></trkpt><trkpt lat="46.1811347" lon="12.9740994"><ele>217.8</ele><time>2026-04-04T14:51:51.067Z</time></trkpt><trkpt lat="46.181207" lon="12.9739769"><ele>217.60000000000002</ele><time>2026-04-04T14:51:52.066Z</time></trkpt><trkpt lat="46.1812793" lon="12.9738539"><ele>217.39999999999998</ele><time>2026-04-04T14:51:53.066Z</time></trkpt><trkpt lat="46.1813493" lon="12.9737361"><ele>217.2</ele><time>2026-04-04T14:51:54.068Z</time></trkpt><trkpt lat="46.1814097" lon="12.9736316"><ele>217.0</ele><time>2026-04-04T14:51:55.068Z</time></trkpt><trkpt lat="46.1814554" lon="12.9735605"><ele>217.0</ele><time>2026-04-04T14:51:56.068Z</time></trkpt><trkpt lat="46.1815126" lon="12.9734957"><ele>217.0</ele><time>2026-04-04T14:52:05.067Z</time></trkpt><trkpt lat="46.1815937" lon="12.9733788"><ele>217.0</ele><time>2026-04-04T14:52:07.066Z</time></trkpt><trkpt lat="46.1816599" lon="12.9733013"><ele>217.0</ele><time>2026-04-04T14:52:08.068Z</time></trkpt><trkpt lat="46.1817438" lon="12.973209"><ele>217.0</ele><time>2026-04-04T14:52:09.067Z</time></trkpt><trkpt lat="46.1818368" lon="12.9731068"><ele>217.0</ele><time>2026-04-04T14:52:10.067Z</time></trkpt><trkpt lat="46.1819371" lon="12.972996"><ele>217.0</ele><time>2026-04-04T14:52:11.067Z</time></trkpt><trkpt lat="46.18204" lon="12.9728808"><ele>217.0</ele><time>2026-04-04T14:52:12.067Z</time></trkpt><trkpt lat="46.1821373" lon="12.972766"><ele>217.0</ele><time>2026-04-04T14:52:13.066Z</time></trkpt><trkpt lat="46.1822291" lon="12.9726499"><ele>217.0</ele><time>2026-04-04T14:52:14.066Z</time></trkpt><trkpt lat="46.1823187" lon="12.9725401"><ele>217.0</ele><time>2026-04-04T14:52:15.066Z</time></trkpt><trkpt lat="46.1824109" lon="12.9724324"><ele>217.0</ele><time>2026-04-04T14:52:16.068Z</time></trkpt><trkpt lat="46.182506" lon="12.9723263"><ele>217.0</ele><time>2026-04-04T14:52:17.067Z</time></trkpt><trkpt lat="46.1826031" lon="12.9722406"><ele>217.0</ele><time>2026-04-04T14:52:18.066Z</time></trkpt><trkpt lat="46.1827042" lon="12.9721912"><ele>217.0</ele><time>2026-04-04T14:52:19.067Z</time></trkpt><trkpt lat="46.1828041" lon="12.9721787"><ele>217.0</ele><time>2026-04-04T14:52:20.066Z</time></trkpt><trkpt lat="46.1828949" lon="12.9722203"><ele>217.0</ele><time>2026-04-04T14:52:21.068Z</time></trkpt><trkpt lat="46.1829752" lon="12.9722907"><ele>217.0</ele><time>2026-04-04T14:52:22.066Z</time></trkpt><trkpt lat="46.1830066" lon="12.9724465"><ele>217.75</ele><time>2026-04-04T14:52:23.067Z</time></trkpt><trkpt lat="46.1830251" lon="12.9726091"><ele>218.5</ele><time>2026-04-04T14:52:24.067Z</time></trkpt><trkpt lat="46.1830423" lon="12.9727722"><ele>219.25</ele><time>2026-04-04T14:52:25.066Z</time></trkpt><trkpt lat="46.1830709" lon="12.9729385"><ele>220.0</ele><time>2026-04-04T14:52:26.066Z</time></trkpt><trkpt lat="46.1831185" lon="12.9730866"><ele>219.99999999999997</ele><time>2026-04-04T14:52:27.067Z</time></trkpt><trkpt lat="46.1831792" lon="12.9732063"><ele>220.0</ele><time>2026-04-04T14:52:28.068Z</time></trkpt><trkpt lat="46.1832539" lon="12.9732818"><ele>220.0</ele><time>2026-04-04T14:52:29.067Z</time></trkpt><trkpt lat="46.1833321" lon="12.9733038"><ele>220.0</ele><time>2026-04-04T14:52:30.067Z</time></trkpt><trkpt lat="46.183412" lon="12.9732824"><ele>219.99999999999997</ele><time>2026-04-04T14:52:31.066Z</time></trkpt><trkpt lat="46.1834953" lon="12.9732326"><ele>220.0</ele><time>2026-04-04T14:52:32.066Z</time></trkpt><trkpt lat="46.1835831" lon="12.9731665"><ele>218.8</ele><time>2026-04-04T14:52:33.066Z</time></trkpt><trkpt lat="46.1836586" lon="12.9730833"><ele>217.6</ele><time>2026-04-04T14:52:34.067Z</time></trkpt><trkpt lat="46.1837141" lon="12.9729748"><ele>216.39999999999998</ele><time>2026-04-04T14:52:35.067Z</time></trkpt><trkpt lat="46.183741" lon="12.9728472"><ele>215.2</ele><time>2026-04-04T14:52:36.067Z</time></trkpt><trkpt lat="46.1837306" lon="12.972703"><ele>214.0</ele><time>2026-04-04T14:52:37.067Z</time></trkpt><trkpt lat="46.1836889" lon="12.9725578"><ele>212.75</ele><time>2026-04-04T14:52:38.068Z</time></trkpt><trkpt lat="46.1836445" lon="12.972402"><ele>211.5</ele><time>2026-04-04T14:52:39.068Z</time></trkpt><trkpt lat="46.1836264" lon="12.9722289"><ele>210.25</ele><time>2026-04-04T14:52:40.067Z</time></trkpt><trkpt lat="46.1836216" lon="12.9720456"><ele>209.0</ele><time>2026-04-04T14:52:41.066Z</time></trkpt><trkpt lat="46.1836277" lon="12.9718419"><ele>208.0</ele><time>2026-04-04T14:52:42.068Z</time></trkpt><trkpt lat="46.183628" lon="12.971637"><ele>207.0</ele><time>2026-04-04T14:52:43.067Z</time></trkpt><trkpt lat="46.1836008" lon="12.9714324"><ele>206.0</ele><time>2026-04-04T14:52:44.066Z</time></trkpt><trkpt lat="46.1835557" lon="12.971246"><ele>205.0</ele><time>2026-04-04T14:52:45.067Z</time></trkpt><trkpt lat="46.1834941" lon="12.9710656"><ele>205.0</ele><time>2026-04-04T14:52:46.067Z</time></trkpt><trkpt lat="46.1834228" lon="12.9708912"><ele>205.0</ele><time>2026-04-04T14:52:47.066Z</time></trkpt><trkpt lat="46.1833545" lon="12.9707128"><ele>205.0</ele><time>2026-04-04T14:52:48.068Z</time></trkpt><trkpt lat="46.1833034" lon="12.970523"><ele>205.0</ele><time>2026-04-04T14:52:49.066Z</time></trkpt><trkpt lat="46.1832671" lon="12.9703283"><ele>206.25</ele><time>2026-04-04T14:52:50.067Z</time></trkpt><trkpt lat="46.1832431" lon="12.9701256"><ele>207.5</ele><time>2026-04-04T14:52:51.067Z</time></trkpt><trkpt lat="46.1832182" lon="12.9699236"><ele>208.75</ele><time>2026-04-04T14:52:52.066Z</time></trkpt><trkpt lat="46.1831976" lon="12.9697188"><ele>210.0</ele><time>2026-04-04T14:52:53.066Z</time></trkpt><trkpt lat="46.1831975" lon="12.9695115"><ele>212.0</ele><time>2026-04-04T14:52:54.066Z</time></trkpt><trkpt lat="46.1832235" lon="12.9693023"><ele>214.0</ele><time>2026-04-04T14:52:55.067Z</time></trkpt><trkpt lat="46.1832505" lon="12.9690801"><ele>216.0</ele><time>2026-04-04T14:52:56.066Z</time></trkpt><trkpt lat="46.1832762" lon="12.968843"><ele>216.0</ele><time>2026-04-04T14:52:57.067Z</time></trkpt><trkpt lat="46.1833018" lon="12.9686084"><ele>216.0</ele><time>2026-04-04T14:52:58.066Z</time></trkpt><trkpt lat="46.1833198" lon="12.9683848"><ele>216.0</ele><time>2026-04-04T14:52:59.067Z</time></trkpt><trkpt lat="46.1833396" lon="12.968168"><ele>215.75</ele><time>2026-04-04T14:53:00.066Z</time></trkpt><trkpt lat="46.1833482" lon="12.9679639"><ele>215.5</ele><time>2026-04-04T14:53:01.067Z</time></trkpt><trkpt lat="46.1833534" lon="12.9677671"><ele>215.25</ele><time>2026-04-04T14:53:02.067Z</time></trkpt><trkpt lat="46.1833524" lon="12.9675818"><ele>215.0</ele><time>2026-04-04T14:53:03.068Z</time></trkpt><trkpt lat="46.1833456" lon="12.9674074"><ele>214.5</ele><time>2026-04-04T14:53:04.068Z</time></trkpt><trkpt lat="46.1833341" lon="12.967237"><ele>214.0</ele><time>2026-04-04T14:53:05.066Z</time></trkpt><trkpt lat="46.1833284" lon="12.9670647"><ele>213.5</ele><time>2026-04-04T14:53:06.066Z</time></trkpt><trkpt lat="46.1833425" lon="12.9668912"><ele>213.0</ele><time>2026-04-04T14:53:07.066Z</time></trkpt><trkpt lat="46.1833703" lon="12.9667291"><ele>212.5</ele><time>2026-04-04T14:53:08.067Z</time></trkpt><trkpt lat="46.1834274" lon="12.966573"><ele>212.0</ele><time>2026-04-04T14:53:09.067Z</time></trkpt><trkpt lat="46.1835111" lon="12.9664337"><ele>211.5</ele><time>2026-04-04T14:53:10.067Z</time></trkpt><trkpt lat="46.1836133" lon="12.9663074"><ele>211.0</ele><time>2026-04-04T14:53:11.067Z</time></trkpt><trkpt lat="46.1837207" lon="12.9661763"><ele>211.0</ele><time>2026-04-04T14:53:12.066Z</time></trkpt><trkpt lat="46.1838285" lon="12.9660381"><ele>211.0</ele><time>2026-04-04T14:53:13.067Z</time></trkpt><trkpt lat="46.1839358" lon="12.9658949"><ele>211.0</ele><time>2026-04-04T14:53:14.066Z</time></trkpt><trkpt lat="46.184024" lon="12.9657441"><ele>211.0</ele><time>2026-04-04T14:53:15.067Z</time></trkpt><trkpt lat="46.1840949" lon="12.9656019"><ele>211.25</ele><time>2026-04-04T14:53:16.067Z</time></trkpt><trkpt lat="46.1841617" lon="12.9654608"><ele>211.5</ele><time>2026-04-04T14:53:17.067Z</time></trkpt><trkpt lat="46.1842247" lon="12.9653101"><ele>211.75</ele><time>2026-04-04T14:53:18.066Z</time></trkpt><trkpt lat="46.1842744" lon="12.9651382"><ele>212.0</ele><time>2026-04-04T14:53:19.067Z</time></trkpt><trkpt lat="46.1843151" lon="12.9649391"><ele>210.66666666666669</ele><time>2026-04-04T14:53:20.067Z</time></trkpt><trkpt lat="46.1843563" lon="12.9647212"><ele>209.33333333333331</ele><time>2026-04-04T14:53:21.067Z</time></trkpt><trkpt lat="46.1843981" lon="12.9644911"><ele>208.0</ele><time>2026-04-04T14:53:22.067Z</time></trkpt><trkpt lat="46.1844398" lon="12.9642663"><ele>208.25</ele><time>2026-04-04T14:53:23.066Z</time></trkpt><trkpt lat="46.1844783" lon="12.9640623"><ele>208.5</ele><time>2026-04-04T14:53:24.066Z</time></trkpt><trkpt lat="46.184509" lon="12.9638699"><ele>208.75</ele><time>2026-04-04T14:53:25.067Z</time></trkpt><trkpt lat="46.1845239" lon="12.9636917"><ele>209.0</ele><time>2026-04-04T14:53:26.067Z</time></trkpt><trkpt lat="46.1845229" lon="12.9635228"><ele>209.0</ele><time>2026-04-04T14:53:27.066Z</time></trkpt><trkpt lat="46.1844972" lon="12.9633743"><ele>209.0</ele><time>2026-04-04T14:53:28.068Z</time></trkpt><trkpt lat="46.1844479" lon="12.9632364"><ele>209.0</ele><time>2026-04-04T14:53:29.067Z</time></trkpt><trkpt lat="46.1843778" lon="12.9631051"><ele>209.0</ele><time>2026-04-04T14:53:30.067Z</time></trkpt><trkpt lat="46.1842884" lon="12.962968"><ele>209.0</ele><time>2026-04-04T14:53:31.067Z</time></trkpt><trkpt lat="46.1841906" lon="12.9628182"><ele>209.0</ele><time>2026-04-04T14:53:32.066Z</time></trkpt><trkpt lat="46.1840892" lon="12.9626534"><ele>209.0</ele><time>2026-04-04T14:53:33.067Z</time></trkpt><trkpt lat="46.1839832" lon="12.9624869"><ele>207.75</ele><time>2026-04-04T14:53:34.066Z</time></trkpt><trkpt lat="46.1838808" lon="12.9623217"><ele>206.5</ele><time>2026-04-04T14:53:35.067Z</time></trkpt><trkpt lat="46.1837836" lon="12.9621636"><ele>205.25</ele><time>2026-04-04T14:53:36.067Z</time></trkpt><trkpt lat="46.1836929" lon="12.962012"><ele>204.0</ele><time>2026-04-04T14:53:37.067Z</time></trkpt><trkpt lat="46.1836067" lon="12.9618673"><ele>204.0</ele><time>2026-04-04T14:53:38.068Z</time></trkpt><trkpt lat="46.1835247" lon="12.9617287"><ele>204.0</ele><time>2026-04-04T14:53:39.066Z</time></trkpt><trkpt lat="46.1834447" lon="12.9615932"><ele>204.0</ele><time>2026-04-04T14:53:40.067Z</time></trkpt><trkpt lat="46.1833648" lon="12.9614567"><ele>204.0</ele><time>2026-04-04T14:53:41.067Z</time></trkpt><trkpt lat="46.1832804" lon="12.961326"><ele>204.0</ele><time>2026-04-04T14:53:42.068Z</time></trkpt><trkpt lat="46.1831819" lon="12.9612034"><ele>204.0</ele><time>2026-04-04T14:53:43.066Z</time></trkpt><trkpt lat="46.1830676" lon="12.9611008"><ele>204.0</ele><time>2026-04-04T14:53:44.066Z</time></trkpt><trkpt lat="46.1829344" lon="12.9610339"><ele>204.0</ele><time>2026-04-04T14:53:45.067Z</time></trkpt><trkpt lat="46.1827859" lon="12.9610083"><ele>201.0</ele><time>2026-04-04T14:53:46.067Z</time></trkpt><trkpt lat="46.182637" lon="12.9609961"><ele>198.0</ele><time>2026-04-04T14:53:47.068Z</time></trkpt><trkpt lat="46.1825101" lon="12.9609788"><ele>195.0</ele><time>2026-04-04T14:53:48.066Z</time></trkpt><trkpt lat="46.1824059" lon="12.9609457"><ele>192.0</ele><time>2026-04-04T14:53:49.067Z</time></trkpt><trkpt lat="46.1823212" lon="12.9608814"><ele>191.2</ele><time>2026-04-04T14:53:50.068Z</time></trkpt><trkpt lat="46.1822598" lon="12.9607773"><ele>190.39999999999998</ele><time>2026-04-04T14:53:51.067Z</time></trkpt><trkpt lat="46.1822283" lon="12.9606474"><ele>189.60000000000002</ele><time>2026-04-04T14:53:52.067Z</time></trkpt><trkpt lat="46.1822337" lon="12.9605121"><ele>188.8</ele><time>2026-04-04T14:53:53.066Z</time></trkpt><trkpt lat="46.1822753" lon="12.9603892"><ele>188.0</ele><time>2026-04-04T14:53:54.067Z</time></trkpt><trkpt lat="46.18235" lon="12.9602889"><ele>190.2</ele><time>2026-04-04T14:53:55.068Z</time></trkpt><trkpt lat="46.1824495" lon="12.9602318"><ele>192.4</ele><time>2026-04-04T14:53:56.067Z</time></trkpt><trkpt lat="46.1825584" lon="12.9601975"><ele>194.6</ele><time>2026-04-04T14:53:57.066Z</time></trkpt><trkpt lat="46.1826673" lon="12.9601698"><ele>196.79999999999998</ele><time>2026-04-04T14:53:58.067Z</time></trkpt><trkpt lat="46.1827697" lon="12.9601254"><ele>199.0</ele><time>2026-04-04T14:53:59.066Z</time></trkpt><trkpt lat="46.182848" lon="12.9600383"><ele>198.6</ele><time>2026-04-04T14:54:00.068Z</time></trkpt><trkpt lat="46.1829018" lon="12.9599148"><ele>198.2</ele><time>2026-04-04T14:54:01.067Z</time></trkpt><trkpt lat="46.1829194" lon="12.9597702"><ele>197.79999999999998</ele><time>2026-04-04T14:54:02.066Z</time></trkpt><trkpt lat="46.1829002" lon="12.9596275"><ele>197.39999999999998</ele><time>2026-04-04T14:54:03.067Z</time></trkpt><trkpt lat="46.1828438" lon="12.9595058"><ele>197.0</ele><time>2026-04-04T14:54:04.067Z</time></trkpt><trkpt lat="46.1827563" lon="12.9594201"><ele>197.0</ele><time>2026-04-04T14:54:05.066Z</time></trkpt><trkpt lat="46.1826511" lon="12.9593776"><ele>197.0</ele><time>2026-04-04T14:54:06.066Z</time></trkpt><trkpt lat="46.1825382" lon="12.959368"><ele>197.0</ele><time>2026-04-04T14:54:07.067Z</time></trkpt><trkpt lat="46.1824175" lon="12.9593979"><ele>197.0</ele><time>2026-04-04T14:54:08.068Z</time></trkpt><trkpt lat="46.1822901" lon="12.9594502"><ele>195.0</ele><time>2026-04-04T14:54:09.066Z</time></trkpt><trkpt lat="46.1821486" lon="12.9595105"><ele>193.0</ele><time>2026-04-04T14:54:10.067Z</time></trkpt><trkpt lat="46.181985" lon="12.9595806"><ele>191.0</ele><time>2026-04-04T14:54:11.067Z</time></trkpt><trkpt lat="46.1818218" lon="12.9596557"><ele>191.0</ele><time>2026-04-04T14:54:12.067Z</time></trkpt><trkpt lat="46.1816569" lon="12.9597316"><ele>191.0</ele><time>2026-04-04T14:54:13.067Z</time></trkpt><trkpt lat="46.1814888" lon="12.9598174"><ele>191.0</ele><time>2026-04-04T14:54:14.066Z</time></trkpt><trkpt lat="46.1813267" lon="12.9599219"><ele>188.0</ele><time>2026-04-04T14:54:15.067Z</time></trkpt><trkpt lat="46.181173" lon="12.9600312"><ele>185.0</ele><time>2026-04-04T14:54:16.067Z</time></trkpt><trkpt lat="46.1810284" lon="12.9601393"><ele>182.0</ele><time>2026-04-04T14:54:17.067Z</time></trkpt><trkpt lat="46.1809019" lon="12.9602408"><ele>182.0</ele><time>2026-04-04T14:54:18.066Z</time></trkpt><trkpt lat="46.1807912" lon="12.9603308"><ele>182.0</ele><time>2026-04-04T14:54:19.067Z</time></trkpt><trkpt lat="46.1806906" lon="12.9603891"><ele>182.0</ele><time>2026-04-04T14:54:20.068Z</time></trkpt><trkpt lat="46.1805824" lon="12.960398"><ele>182.0</ele><time>2026-04-04T14:54:21.067Z</time></trkpt><trkpt lat="46.1804827" lon="12.9603535"><ele>182.0</ele><time>2026-04-04T14:54:22.066Z</time></trkpt><trkpt lat="46.1804015" lon="12.9602685"><ele>179.0</ele><time>2026-04-04T14:54:23.066Z</time></trkpt><trkpt lat="46.1803525" lon="12.9601482"><ele>176.0</ele><time>2026-04-04T14:54:24.068Z</time></trkpt><trkpt lat="46.1803479" lon="12.9600131"><ele>173.0</ele><time>2026-04-04T14:54:25.066Z</time></trkpt><trkpt lat="46.180381" lon="12.9598777"><ele>170.0</ele><time>2026-04-04T14:54:26.067Z</time></trkpt><trkpt lat="46.1804533" lon="12.9597567"><ele>167.0</ele><time>2026-04-04T14:54:27.067Z</time></trkpt><trkpt lat="46.1805586" lon="12.9596695"><ele>171.0</ele><time>2026-04-04T14:54:28.067Z</time></trkpt><trkpt lat="46.1806886" lon="12.9595998"><ele>175.0</ele><time>2026-04-04T14:54:29.066Z</time></trkpt><trkpt lat="46.180835" lon="12.9595238"><ele>179.0</ele><time>2026-04-04T14:54:30.066Z</time></trkpt><trkpt lat="46.1809888" lon="12.9594389"><ele>179.0</ele><time>2026-04-04T14:54:31.067Z</time></trkpt><trkpt lat="46.1811347" lon="12.9593567"><ele>179.0</ele><time>2026-04-04T14:54:32.067Z</time></trkpt><trkpt lat="46.1812652" lon="12.9592876"><ele>179.0</ele><time>2026-04-04T14:54:33.066Z</time></trkpt><trkpt lat="46.1813936" lon="12.9592214"><ele>179.0</ele><time>2026-04-04T14:54:34.067Z</time></trkpt><trkpt lat="46.1815125" lon="12.9591619"><ele>178.6</ele><time>2026-04-04T14:54:35.066Z</time></trkpt><trkpt lat="46.1816264" lon="12.9591066"><ele>178.2</ele><time>2026-04-04T14:54:36.066Z</time></trkpt><trkpt lat="46.1817345" lon="12.9590538"><ele>177.79999999999998</ele><time>2026-04-04T14:54:37.067Z</time></trkpt><trkpt lat="46.1818349" lon="12.9590043"><ele>177.39999999999998</ele><time>2026-04-04T14:54:38.068Z</time></trkpt><trkpt lat="46.18193" lon="12.9589571"><ele>177.0</ele><time>2026-04-04T14:54:39.068Z</time></trkpt><trkpt lat="46.1820213" lon="12.9589183"><ele>177.0</ele><time>2026-04-04T14:54:40.066Z</time></trkpt><trkpt lat="46.1821163" lon="12.9588757"><ele>177.0</ele><time>2026-04-04T14:54:41.067Z</time></trkpt><trkpt lat="46.1822204" lon="12.9588524"><ele>177.0</ele><time>2026-04-04T14:54:42.066Z</time></trkpt><trkpt lat="46.1823394" lon="12.9588467"><ele>177.0</ele><time>2026-04-04T14:54:43.068Z</time></trkpt><trkpt lat="46.1824643" lon="12.9588706"><ele>178.25</ele><time>2026-04-04T14:54:44.066Z</time></trkpt><trkpt lat="46.1825863" lon="12.9589078"><ele>179.5</ele><time>2026-04-04T14:54:45.066Z</time></trkpt><trkpt lat="46.1827088" lon="12.9589433"><ele>180.75</ele><time>2026-04-04T14:54:46.067Z</time></trkpt><trkpt lat="46.1828311" lon="12.958942"><ele>182.0</ele><time>2026-04-04T14:54:47.066Z</time></trkpt><trkpt lat="46.1829371" lon="12.9588821"><ele>182.0</ele><time>2026-04-04T14:54:48.066Z</time></trkpt><trkpt lat="46.1830396" lon="12.9588214"><ele>182.0</ele><time>2026-04-04T14:54:49.066Z</time></trkpt><trkpt lat="46.1831464" lon="12.9587605"><ele>182.0</ele><time>2026-04-04T14:54:50.066Z</time></trkpt><trkpt lat="46.1832649" lon="12.9587549"><ele>182.0</ele><time>2026-04-04T14:54:51.067Z</time></trkpt><trkpt lat="46.1834014" lon="12.9587886"><ele>179.33333333333331</ele><time>2026-04-04T14:54:52.067Z</time></trkpt><trkpt lat="46.183552" lon="12.9588324"><ele>176.66666666666666</ele><time>2026-04-04T14:54:53.066Z</time></trkpt><trkpt lat="46.1837185" lon="12.9588736"><ele>174.0</ele><time>2026-04-04T14:54:54.067Z</time></trkpt><trkpt lat="46.1838919" lon="12.9589095"><ele>175.33333333333334</ele><time>2026-04-04T14:54:55.067Z</time></trkpt><trkpt lat="46.1840699" lon="12.9589385"><ele>176.66666666666669</ele><time>2026-04-04T14:54:56.068Z</time></trkpt><trkpt lat="46.1842392" lon="12.9588581"><ele>178.0</ele><time>2026-04-04T14:54:57.067Z</time></trkpt><trkpt lat="46.1844064" lon="12.9588208"><ele>178.0</ele><time>2026-04-04T14:54:58.067Z</time></trkpt><trkpt lat="46.1845592" lon="12.9587678"><ele>178.0</ele><time>2026-04-04T14:54:59.067Z</time></trkpt><trkpt lat="46.1846955" lon="12.958725"><ele>178.0</ele><time>2026-04-04T14:55:00.067Z</time></trkpt><trkpt lat="46.1848043" lon="12.9586683"><ele>178.0</ele><time>2026-04-04T14:55:01.067Z</time></trkpt><trkpt lat="46.1848969" lon="12.9585737"><ele>181.4</ele><time>2026-04-04T14:55:02.066Z</time></trkpt><trkpt lat="46.1849629" lon="12.958482"><ele>184.8</ele><time>2026-04-04T14:55:03.066Z</time></trkpt><trkpt lat="46.1849847" lon="12.9583481"><ele>188.2</ele><time>2026-04-04T14:55:04.068Z</time></trkpt><trkpt lat="46.1849829" lon="12.9582214"><ele>191.6</ele><time>2026-04-04T14:55:05.066Z</time></trkpt><trkpt lat="46.1849621" lon="12.9580942"><ele>195.0</ele><time>2026-04-04T14:55:06.068Z</time></trkpt><trkpt lat="46.1849327" lon="12.9579572"><ele>185.25</ele><time>2026-04-04T14:55:07.067Z</time></trkpt><trkpt lat="46.1849046" lon="12.9578097"><ele>175.5</ele><time>2026-04-04T14:55:08.067Z</time></trkpt><trkpt lat="46.1848767" lon="12.9576544"><ele>165.75</ele><time>2026-04-04T14:55:09.068Z</time></trkpt><trkpt lat="46.1848446" lon="12.9574897"><ele>156.0</ele><time>2026-04-04T14:55:10.066Z</time></trkpt><trkpt lat="46.1848136" lon="12.9573119"><ele>154.25</ele><time>2026-04-04T14:55:11.068Z</time></trkpt><trkpt lat="46.1847797" lon="12.9571316"><ele>152.5</ele><time>2026-04-04T14:55:12.067Z</time></trkpt><trkpt lat="46.1847511" lon="12.9569629"><ele>150.75</ele><time>2026-04-04T14:55:13.068Z</time></trkpt><trkpt lat="46.184721" lon="12.9568034"><ele>149.0</ele><time>2026-04-04T14:55:14.067Z</time></trkpt><trkpt lat="46.1846928" lon="12.9566506"><ele>149.0</ele><time>2026-04-04T14:55:15.067Z</time></trkpt><trkpt lat="46.1846656" lon="12.9565047"><ele>149.0</ele><time>2026-04-04T14:55:16.066Z</time></trkpt><trkpt lat="46.1846411" lon="12.9563663"><ele>149.0</ele><time>2026-04-04T14:55:17.067Z</time></trkpt><trkpt lat="46.1846179" lon="12.9562353"><ele>149.0</ele><time>2026-04-04T14:55:18.067Z</time></trkpt><trkpt lat="46.1845955" lon="12.9561117"><ele>149.0</ele><time>2026-04-04T14:55:19.066Z</time></trkpt><trkpt lat="46.1845698" lon="12.9559931"><ele>149.0</ele><time>2026-04-04T14:55:20.067Z</time></trkpt><trkpt lat="46.1845191" lon="12.9558928"><ele>149.0</ele><time>2026-04-04T14:55:21.067Z</time></trkpt><trkpt lat="46.1844482" lon="12.9558232"><ele>149.0</ele><time>2026-04-04T14:55:22.066Z</time></trkpt><trkpt lat="46.1843765" lon="12.9557732"><ele>149.0</ele><time>2026-04-04T14:55:23.066Z</time></trkpt><trkpt lat="46.1843051" lon="12.9557281"><ele>149.0</ele><time>2026-04-04T14:55:24.067Z</time></trkpt><trkpt lat="46.1842328" lon="12.9556992"><ele>149.0</ele><time>2026-04-04T14:55:25.066Z</time></trkpt><trkpt lat="46.1841471" lon="12.9556516"><ele>148.8</ele><time>2026-04-04T14:55:26.066Z</time></trkpt><trkpt lat="46.18406" lon="12.9555994"><ele>148.60000000000002</ele><time>2026-04-04T14:55:27.066Z</time></trkpt><trkpt lat="46.183967" lon="12.9555491"><ele>148.4</ele><time>2026-04-04T14:55:28.068Z</time></trkpt><trkpt lat="46.1838709" lon="12.9554893"><ele>148.20000000000002</ele><time>2026-04-04T14:55:29.066Z</time></trkpt><trkpt lat="46.1837716" lon="12.955421"><ele>148.0</ele><time>2026-04-04T14:55:30.067Z</time></trkpt><trkpt lat="46.1836713" lon="12.9553302"><ele>148.0</ele><time>2026-04-04T14:55:31.066Z</time></trkpt><trkpt lat="46.1835777" lon="12.9552089"><ele>148.0</ele><time>2026-04-04T14:55:32.067Z</time></trkpt><trkpt lat="46.1834972" lon="12.9550706"><ele>148.0</ele><time>2026-04-04T14:55:33.066Z</time></trkpt><trkpt lat="46.1834113" lon="12.9549493"><ele>148.0</ele><time>2026-04-04T14:55:34.067Z</time></trkpt><trkpt lat="46.1832993" lon="12.9548519"><ele>147.75</ele><time>2026-04-04T14:55:35.066Z</time></trkpt><trkpt lat="46.1831733" lon="12.9547618"><ele>147.5</ele><time>2026-04-04T14:55:36.066Z</time></trkpt><trkpt lat="46.1830447" lon="12.95468"><ele>147.25</ele><time>2026-04-04T14:55:37.067Z</time></trkpt><trkpt lat="46.1829203" lon="12.9545996"><ele>147.0</ele><time>2026-04-04T14:55:38.068Z</time></trkpt><trkpt lat="46.1827999" lon="12.9545322"><ele>147.0</ele><time>2026-04-04T14:55:39.066Z</time></trkpt><trkpt lat="46.1826866" lon="12.9544859"><ele>147.0</ele><time>2026-04-04T14:55:40.068Z</time></trkpt><trkpt lat="46.1825861" lon="12.9544272"><ele>147.0</ele><time>2026-04-04T14:55:41.066Z</time></trkpt><trkpt lat="46.1825015" lon="12.9543262"><ele>147.0</ele><time>2026-04-04T14:55:42.067Z</time></trkpt><trkpt lat="46.1824456" lon="12.9542062"><ele>147.0</ele><time>2026-04-04T14:55:43.066Z</time></trkpt><trkpt lat="46.1824304" lon="12.9540836"><ele>151.8</ele><time>2026-04-04T14:55:44.067Z</time></trkpt><trkpt lat="46.1824485" lon="12.9539537"><ele>156.6</ele><time>2026-04-04T14:55:45.067Z</time></trkpt><trkpt lat="46.1825057" lon="12.9538393"><ele>161.4</ele><time>2026-04-04T14:55:46.068Z</time></trkpt><trkpt lat="46.1825953" lon="12.9537511"><ele>166.20000000000002</ele><time>2026-04-04T14:55:47.066Z</time></trkpt><trkpt lat="46.1826974" lon="12.9536741"><ele>171.0</ele><time>2026-04-04T14:55:48.067Z</time></trkpt><trkpt lat="46.1828069" lon="12.9535923"><ele>171.0</ele><time>2026-04-04T14:55:49.067Z</time></trkpt><trkpt lat="46.1829222" lon="12.9535122"><ele>171.0</ele><time>2026-04-04T14:55:50.067Z</time></trkpt><trkpt lat="46.1830204" lon="12.9534357"><ele>171.0</ele><time>2026-04-04T14:55:51.068Z</time></trkpt><trkpt lat="46.1831005" lon="12.9533532"><ele>171.0</ele><time>2026-04-04T14:55:52.067Z</time></trkpt><trkpt lat="46.1831728" lon="12.9532728"><ele>171.0</ele><time>2026-04-04T14:55:53.066Z</time></trkpt><trkpt lat="46.1832384" lon="12.9531988"><ele>173.0</ele><time>2026-04-04T14:55:54.067Z</time></trkpt><trkpt lat="46.1833099" lon="12.9531378"><ele>175.0</ele><time>2026-04-04T14:55:55.067Z</time></trkpt><trkpt lat="46.1833804" lon="12.953067"><ele>177.0</ele><time>2026-04-04T14:55:56.067Z</time></trkpt><trkpt lat="46.1834508" lon="12.9529921"><ele>179.0</ele><time>2026-04-04T14:55:57.067Z</time></trkpt><trkpt lat="46.1835154" lon="12.9529115"><ele>181.0</ele><time>2026-04-04T14:55:58.067Z</time></trkpt><trkpt lat="46.1835673" lon="12.952816"><ele>183.0</ele><time>2026-04-04T14:55:59.068Z</time></trkpt><trkpt lat="46.1835964" lon="12.952703"><ele>183.0</ele><time>2026-04-04T14:56:00.066Z</time></trkpt><trkpt lat="46.1835879" lon="12.9525787"><ele>183.0</ele><time>2026-04-04T14:56:01.067Z</time></trkpt><trkpt lat="46.1835525" lon="12.9524544"><ele>183.0</ele><time>2026-04-04T14:56:02.066Z</time></trkpt><trkpt lat="46.1835029" lon="12.9523253"><ele>183.0</ele><time>2026-04-04T14:56:03.067Z</time></trkpt><trkpt lat="46.1834553" lon="12.9521836"><ele>183.0</ele><time>2026-04-04T14:56:04.067Z</time></trkpt><trkpt lat="46.18341" lon="12.9520525"><ele>180.0</ele><time>2026-04-04T14:56:05.067Z</time></trkpt><trkpt lat="46.1833613" lon="12.9519382"><ele>177.0</ele><time>2026-04-04T14:56:06.067Z</time></trkpt><trkpt lat="46.1832972" lon="12.951849"><ele>174.0</ele><time>2026-04-04T14:56:07.067Z</time></trkpt><trkpt lat="46.1832099" lon="12.9518003"><ele>171.0</ele><time>2026-04-04T14:56:08.066Z</time></trkpt><trkpt lat="46.1831085" lon="12.9517927"><ele>168.0</ele><time>2026-04-04T14:56:09.066Z</time></trkpt><trkpt lat="46.1830023" lon="12.9518096"><ele>167.0</ele><time>2026-04-04T14:56:10.067Z</time></trkpt><trkpt lat="46.1828953" lon="12.9518317"><ele>166.0</ele><time>2026-04-04T14:56:11.067Z</time></trkpt><trkpt lat="46.1827826" lon="12.9518543"><ele>165.0</ele><time>2026-04-04T14:56:12.067Z</time></trkpt><trkpt lat="46.1826707" lon="12.951882"><ele>164.0</ele><time>2026-04-04T14:56:13.066Z</time></trkpt><trkpt lat="46.1825596" lon="12.9519049"><ele>163.0</ele><time>2026-04-04T14:56:14.066Z</time></trkpt><trkpt lat="46.1824495" lon="12.9519163"><ele>163.4</ele><time>2026-04-04T14:56:15.067Z</time></trkpt><trkpt lat="46.1823436" lon="12.9518962"><ele>163.8</ele><time>2026-04-04T14:56:16.067Z</time></trkpt><trkpt lat="46.1822509" lon="12.9518285"><ele>164.2</ele><time>2026-04-04T14:56:17.067Z</time></trkpt><trkpt lat="46.1821805" lon="12.9517189"><ele>164.6</ele><time>2026-04-04T14:56:18.067Z</time></trkpt><trkpt lat="46.1821522" lon="12.9515787"><ele>165.0</ele><time>2026-04-04T14:56:19.067Z</time></trkpt><trkpt lat="46.1821675" lon="12.9514324"><ele>168.0</ele><time>2026-04-04T14:56:20.068Z</time></trkpt><trkpt lat="46.1822249" lon="12.9513106"><ele>171.0</ele><time>2026-04-04T14:56:21.066Z</time></trkpt><trkpt lat="46.1823164" lon="12.95124"><ele>174.0</ele><time>2026-04-04T14:56:22.067Z</time></trkpt><trkpt lat="46.1824346" lon="12.9511945"><ele>177.0</ele><time>2026-04-04T14:56:23.066Z</time></trkpt><trkpt lat="46.1825693" lon="12.9511382"><ele>178.33333333333334</ele><time>2026-04-04T14:56:24.066Z</time></trkpt><trkpt lat="46.1827213" lon="12.9510664"><ele>179.66666666666669</ele><time>2026-04-04T14:56:25.066Z</time></trkpt><trkpt lat="46.1828862" lon="12.9509901"><ele>181.0</ele><time>2026-04-04T14:56:26.066Z</time></trkpt><trkpt lat="46.1830541" lon="12.9509119"><ele>183.66666666666669</ele><time>2026-04-04T14:56:27.067Z</time></trkpt><trkpt lat="46.1832123" lon="12.9508292"><ele>186.33333333333334</ele><time>2026-04-04T14:56:28.067Z</time></trkpt><trkpt lat="46.1833557" lon="12.9507375"><ele>189.0</ele><time>2026-04-04T14:56:29.068Z</time></trkpt><trkpt lat="46.1834918" lon="12.9506389"><ele>189.0</ele><time>2026-04-04T14:56:30.067Z</time></trkpt><trkpt lat="46.1836207" lon="12.9505335"><ele>189.0</ele><time>2026-04-04T14:56:31.068Z</time></trkpt><trkpt lat="46.1837456" lon="12.9504296"><ele>189.0</ele><time>2026-04-04T14:56:32.066Z</time></trkpt><trkpt lat="46.1838612" lon="12.9503312"><ele>189.0</ele><time>2026-04-04T14:56:33.066Z</time></trkpt><trkpt lat="46.1839557" lon="12.9502189"><ele>188.25</ele><time>2026-04-04T14:56:34.068Z</time></trkpt><trkpt lat="46.184042" lon="12.9500893"><ele>187.5</ele><time>2026-04-04T14:56:35.067Z</time></trkpt><trkpt lat="46.1841167" lon="12.9499386"><ele>186.75</ele><time>2026-04-04T14:56:36.066Z</time></trkpt><trkpt lat="46.1841741" lon="12.949769"><ele>186.0</ele><time>2026-04-04T14:56:37.066Z</time></trkpt><trkpt lat="46.184217" lon="12.949614"><ele>187.4</ele><time>2026-04-04T14:56:38.067Z</time></trkpt><trkpt lat="46.1842456" lon="12.9494694"><ele>188.8</ele><time>2026-04-04T14:56:39.066Z</time></trkpt><trkpt lat="46.1842581" lon="12.9493247"><ele>190.20000000000002</ele><time>2026-04-04T14:56:40.067Z</time></trkpt><trkpt lat="46.1842505" lon="12.9491864"><ele>191.60000000000002</ele><time>2026-04-04T14:56:41.067Z</time></trkpt><trkpt lat="46.1842322" lon="12.9490629"><ele>193.0</ele><time>2026-04-04T14:56:42.067Z</time></trkpt><trkpt lat="46.1842082" lon="12.9489541"><ele>193.60000000000002</ele><time>2026-04-04T14:56:43.067Z</time></trkpt><trkpt lat="46.1841834" lon="12.9488565"><ele>194.20000000000002</ele><time>2026-04-04T14:56:44.066Z</time></trkpt><trkpt lat="46.1841435" lon="12.9487087"><ele>194.8</ele><time>2026-04-04T14:56:46.068Z</time></trkpt><trkpt lat="46.1840733" lon="12.9485306"><ele>195.4</ele><time>2026-04-04T14:56:48.066Z</time></trkpt><trkpt lat="46.1840117" lon="12.9484073"><ele>196.0</ele><time>2026-04-04T14:56:49.066Z</time></trkpt><trkpt lat="46.1839419" lon="12.9482727"><ele>196.4</ele><time>2026-04-04T14:56:50.066Z</time></trkpt><trkpt lat="46.1838647" lon="12.9481442"><ele>196.8</ele><time>2026-04-04T14:56:51.067Z</time></trkpt><trkpt lat="46.1837848" lon="12.9480246"><ele>197.20000000000002</ele><time>2026-04-04T14:56:52.067Z</time></trkpt><trkpt lat="46.1837063" lon="12.9479133"><ele>197.60000000000002</ele><time>2026-04-04T14:56:53.067Z</time></trkpt><trkpt lat="46.1836324" lon="12.9478113"><ele>198.0</ele><time>2026-04-04T14:56:54.067Z</time></trkpt><trkpt lat="46.1835652" lon="12.9477143"><ele>198.0</ele><time>2026-04-04T14:56:55.068Z</time></trkpt><trkpt lat="46.1835067" lon="12.9476203"><ele>198.0</ele><time>2026-04-04T14:56:56.066Z</time></trkpt><trkpt lat="46.1834508" lon="12.9475332"><ele>198.0</ele><time>2026-04-04T14:56:57.067Z</time></trkpt><trkpt lat="46.1834058" lon="12.9474381"><ele>198.0</ele><time>2026-04-04T14:56:58.067Z</time></trkpt><trkpt lat="46.1833694" lon="12.9473342"><ele>198.0</ele><time>2026-04-04T14:56:59.068Z</time></trkpt><trkpt lat="46.1833417" lon="12.9472369"><ele>198.0</ele><time>2026-04-04T14:57:00.067Z</time></trkpt><trkpt lat="46.1833119" lon="12.94714"><ele>198.4</ele><time>2026-04-04T14:57:01.067Z</time></trkpt><trkpt lat="46.183282" lon="12.9469372"><ele>198.8</ele><time>2026-04-04T14:57:03.067Z</time></trkpt><trkpt lat="46.1832502" lon="12.9468072"><ele>199.2</ele><time>2026-04-04T14:57:04.068Z</time></trkpt><trkpt lat="46.183219" lon="12.9466669"><ele>199.6</ele><time>2026-04-04T14:57:05.067Z</time></trkpt><trkpt lat="46.1831919" lon="12.9465268"><ele>200.0</ele><time>2026-04-04T14:57:06.066Z</time></trkpt><trkpt lat="46.1831681" lon="12.9463811"><ele>200.0</ele><time>2026-04-04T14:57:07.066Z</time></trkpt><trkpt lat="46.1831498" lon="12.946223"><ele>200.0</ele><time>2026-04-04T14:57:08.066Z</time></trkpt><trkpt lat="46.1831348" lon="12.9460624"><ele>200.0</ele><time>2026-04-04T14:57:09.067Z</time></trkpt><trkpt lat="46.1831271" lon="12.9459021"><ele>200.0</ele><time>2026-04-04T14:57:10.066Z</time></trkpt><trkpt lat="46.1831279" lon="12.9457376"><ele>200.0</ele><time>2026-04-04T14:57:11.066Z</time></trkpt><trkpt lat="46.1831269" lon="12.9455645"><ele>200.25</ele><time>2026-04-04T14:57:12.066Z</time></trkpt><trkpt lat="46.1831277" lon="12.9453819"><ele>200.5</ele><time>2026-04-04T14:57:13.066Z</time></trkpt><trkpt lat="46.1831255" lon="12.9451862"><ele>200.75</ele><time>2026-04-04T14:57:14.067Z</time></trkpt><trkpt lat="46.1831153" lon="12.9449853"><ele>201.0</ele><time>2026-04-04T14:57:15.066Z</time></trkpt><trkpt lat="46.1831002" lon="12.9447802"><ele>201.0</ele><time>2026-04-04T14:57:16.067Z</time></trkpt><trkpt lat="46.1830619" lon="12.9445919"><ele>201.0</ele><time>2026-04-04T14:57:17.067Z</time></trkpt><trkpt lat="46.1830063" lon="12.9444129"><ele>201.0</ele><time>2026-04-04T14:57:18.066Z</time></trkpt><trkpt lat="46.182934" lon="12.944252"><ele>201.0</ele><time>2026-04-04T14:57:19.067Z</time></trkpt><trkpt lat="46.1828501" lon="12.944089"><ele>201.5</ele><time>2026-04-04T14:57:20.068Z</time></trkpt><trkpt lat="46.1827827" lon="12.9439037"><ele>202.0</ele><time>2026-04-04T14:57:21.066Z</time></trkpt><trkpt lat="46.1827282" lon="12.9437114"><ele>202.5</ele><time>2026-04-04T14:57:22.066Z</time></trkpt><trkpt lat="46.1826723" lon="12.9435214"><ele>203.0</ele><time>2026-04-04T14:57:23.068Z</time></trkpt><trkpt lat="46.1826165" lon="12.9433355"><ele>204.25</ele><time>2026-04-04T14:57:24.067Z</time></trkpt><trkpt lat="46.1825687" lon="12.9431509"><ele>205.5</ele><time>2026-04-04T14:57:25.066Z</time></trkpt><trkpt lat="46.1825252" lon="12.9429803"><ele>206.75</ele><time>2026-04-04T14:57:26.066Z</time></trkpt><trkpt lat="46.1824853" lon="12.9428156"><ele>208.0</ele><time>2026-04-04T14:57:27.067Z</time></trkpt><trkpt lat="46.1824541" lon="12.9426473"><ele>206.0</ele><time>2026-04-04T14:57:28.067Z</time></trkpt><trkpt lat="46.1824205" lon="12.9424781"><ele>204.0</ele><time>2026-04-04T14:57:29.067Z</time></trkpt><trkpt lat="46.1823728" lon="12.9423165"><ele>202.0</ele><time>2026-04-04T14:57:30.066Z</time></trkpt><trkpt lat="46.1823177" lon="12.9421582"><ele>200.0</ele><time>2026-04-04T14:57:31.066Z</time></trkpt><trkpt lat="46.1822674" lon="12.9419957"><ele>200.0</ele><time>2026-04-04T14:57:32.068Z</time></trkpt><trkpt lat="46.1822279" lon="12.9418247"><ele>200.0</ele><time>2026-04-04T14:57:33.066Z</time></trkpt><trkpt lat="46.182195" lon="12.9416435"><ele>200.0</ele><time>2026-04-04T14:57:34.068Z</time></trkpt><trkpt lat="46.1821676" lon="12.9414503"><ele>200.0</ele><time>2026-04-04T14:57:35.067Z</time></trkpt><trkpt lat="46.1821461" lon="12.9412495"><ele>200.0</ele><time>2026-04-04T14:57:36.066Z</time></trkpt><trkpt lat="46.1821289" lon="12.9410389"><ele>200.0</ele><time>2026-04-04T14:57:37.067Z</time></trkpt><trkpt lat="46.1821124" lon="12.94082"><ele>200.0</ele><time>2026-04-04T14:57:38.067Z</time></trkpt><trkpt lat="46.1820971" lon="12.9406006"><ele>200.0</ele><time>2026-04-04T14:57:39.067Z</time></trkpt><trkpt lat="46.1820806" lon="12.9403712"><ele>200.0</ele><time>2026-04-04T14:57:40.066Z</time></trkpt><trkpt lat="46.1820607" lon="12.9401377"><ele>200.0</ele><time>2026-04-04T14:57:41.067Z</time></trkpt><trkpt lat="46.1820414" lon="12.9398963"><ele>200.33333333333334</ele><time>2026-04-04T14:57:42.068Z</time></trkpt><trkpt lat="46.1820213" lon="12.9396577"><ele>200.66666666666669</ele><time>2026-04-04T14:57:43.066Z</time></trkpt><trkpt lat="46.1820043" lon="12.9394136"><ele>201.0</ele><time>2026-04-04T14:57:44.068Z</time></trkpt><trkpt lat="46.1819876" lon="12.9391676"><ele>201.0</ele><time>2026-04-04T14:57:45.067Z</time></trkpt><trkpt lat="46.1819687" lon="12.9389208"><ele>201.0</ele><time>2026-04-04T14:57:46.066Z</time></trkpt><trkpt lat="46.1819513" lon="12.9386761"><ele>201.0</ele><time>2026-04-04T14:57:47.067Z</time></trkpt><trkpt lat="46.1819325" lon="12.9384282"><ele>200.66666666666669</ele><time>2026-04-04T14:57:48.067Z</time></trkpt><trkpt lat="46.181912" lon="12.9381805"><ele>200.33333333333334</ele><time>2026-04-04T14:57:49.066Z</time></trkpt><trkpt lat="46.1818923" lon="12.9379297"><ele>200.0</ele><time>2026-04-04T14:57:50.067Z</time></trkpt><trkpt lat="46.1818671" lon="12.9376786"><ele>200.66666666666669</ele><time>2026-04-04T14:57:51.066Z</time></trkpt><trkpt lat="46.1818315" lon="12.9374224"><ele>201.33333333333331</ele><time>2026-04-04T14:57:52.066Z</time></trkpt><trkpt lat="46.1817811" lon="12.9371669"><ele>202.0</ele><time>2026-04-04T14:57:53.067Z</time></trkpt><trkpt lat="46.181729" lon="12.9369133"><ele>201.66666666666666</ele><time>2026-04-04T14:57:54.068Z</time></trkpt><trkpt lat="46.1816759" lon="12.9366538"><ele>201.33333333333331</ele><time>2026-04-04T14:57:55.066Z</time></trkpt><trkpt lat="46.1816224" lon="12.936393"><ele>201.0</ele><time>2026-04-04T14:57:56.067Z</time></trkpt><trkpt lat="46.1815654" lon="12.9361423"><ele>199.0</ele><time>2026-04-04T14:57:57.067Z</time></trkpt><trkpt lat="46.1815087" lon="12.935892"><ele>197.0</ele><time>2026-04-04T14:57:58.067Z</time></trkpt><trkpt lat="46.1814538" lon="12.9356419"><ele>195.0</ele><time>2026-04-04T14:57:59.066Z</time></trkpt><trkpt lat="46.1813997" lon="12.9353953"><ele>195.0</ele><time>2026-04-04T14:58:00.067Z</time></trkpt><trkpt lat="46.1813454" lon="12.935149"><ele>195.0</ele><time>2026-04-04T14:58:01.067Z</time></trkpt><trkpt lat="46.18129" lon="12.9348967"><ele>195.0</ele><time>2026-04-04T14:58:02.067Z</time></trkpt><trkpt lat="46.1812353" lon="12.9346475"><ele>195.33333333333331</ele><time>2026-04-04T14:58:03.066Z</time></trkpt><trkpt lat="46.1811834" lon="12.9343964"><ele>195.66666666666666</ele><time>2026-04-04T14:58:04.066Z</time></trkpt><trkpt lat="46.1811259" lon="12.9341506"><ele>196.0</ele><time>2026-04-04T14:58:05.068Z</time></trkpt><trkpt lat="46.181071" lon="12.9339079"><ele>196.0</ele><time>2026-04-04T14:58:06.067Z</time></trkpt><trkpt lat="46.1810239" lon="12.9336771"><ele>196.0</ele><time>2026-04-04T14:58:07.067Z</time></trkpt><trkpt lat="46.1809781" lon="12.9334643"><ele>196.0</ele><time>2026-04-04T14:58:08.066Z</time></trkpt><trkpt lat="46.1809339" lon="12.9332682"><ele>196.0</ele><time>2026-04-04T14:58:09.068Z</time></trkpt><trkpt lat="46.1808834" lon="12.9330878"><ele>196.0</ele><time>2026-04-04T14:58:10.067Z</time></trkpt><trkpt lat="46.1808135" lon="12.932923"><ele>196.0</ele><time>2026-04-04T14:58:11.068Z</time></trkpt><trkpt lat="46.1807199" lon="12.9327874"><ele>196.0</ele><time>2026-04-04T14:58:12.066Z</time></trkpt><trkpt lat="46.1806068" lon="12.9326774"><ele>195.75</ele><time>2026-04-04T14:58:13.067Z</time></trkpt><trkpt lat="46.1804757" lon="12.9326003"><ele>195.5</ele><time>2026-04-04T14:58:14.068Z</time></trkpt><trkpt lat="46.1803349" lon="12.9325378"><ele>195.25</ele><time>2026-04-04T14:58:15.066Z</time></trkpt><trkpt lat="46.1801889" lon="12.9324868"><ele>195.0</ele><time>2026-04-04T14:58:16.067Z</time></trkpt><trkpt lat="46.1800375" lon="12.9324314"><ele>194.66666666666669</ele><time>2026-04-04T14:58:17.067Z</time></trkpt><trkpt lat="46.179877" lon="12.9323707"><ele>194.33333333333334</ele><time>2026-04-04T14:58:18.066Z</time></trkpt><trkpt lat="46.1797122" lon="12.9323113"><ele>194.0</ele><time>2026-04-04T14:58:19.066Z</time></trkpt><trkpt lat="46.1795383" lon="12.9322504"><ele>192.0</ele><time>2026-04-04T14:58:20.068Z</time></trkpt><trkpt lat="46.1793628" lon="12.932185"><ele>190.0</ele><time>2026-04-04T14:58:21.067Z</time></trkpt><trkpt lat="46.1791857" lon="12.9320995"><ele>188.0</ele><time>2026-04-04T14:58:22.068Z</time></trkpt><trkpt lat="46.1790113" lon="12.9319993"><ele>185.66666666666666</ele><time>2026-04-04T14:58:23.067Z</time></trkpt><trkpt lat="46.1788363" lon="12.9319015"><ele>183.33333333333334</ele><time>2026-04-04T14:58:24.067Z</time></trkpt><trkpt lat="46.1786665" lon="12.9318063"><ele>181.0</ele><time>2026-04-04T14:58:25.067Z</time></trkpt><trkpt lat="46.1785021" lon="12.9317154"><ele>181.0</ele><time>2026-04-04T14:58:26.067Z</time></trkpt><trkpt lat="46.1783401" lon="12.9316213"><ele>181.0</ele><time>2026-04-04T14:58:27.067Z</time></trkpt><trkpt lat="46.178187" lon="12.9315025"><ele>181.0</ele><time>2026-04-04T14:58:28.067Z</time></trkpt><trkpt lat="46.1780554" lon="12.931377"><ele>178.20000000000002</ele><time>2026-04-04T14:58:29.067Z</time></trkpt><trkpt lat="46.1779466" lon="12.931262"><ele>175.4</ele><time>2026-04-04T14:58:30.067Z</time></trkpt><trkpt lat="46.1778585" lon="12.9311493"><ele>172.6</ele><time>2026-04-04T14:58:31.067Z</time></trkpt><trkpt lat="46.1777944" lon="12.9310371"><ele>169.8</ele><time>2026-04-04T14:58:32.068Z</time></trkpt><trkpt lat="46.1777509" lon="12.9309234"><ele>167.0</ele><time>2026-04-04T14:58:33.067Z</time></trkpt><trkpt lat="46.1777422" lon="12.9308047"><ele>167.0</ele><time>2026-04-04T14:58:34.067Z</time></trkpt><trkpt lat="46.1777676" lon="12.9306765"><ele>167.0</ele><time>2026-04-04T14:58:35.067Z</time></trkpt><trkpt lat="46.1778161" lon="12.930548"><ele>167.0</ele><time>2026-04-04T14:58:36.066Z</time></trkpt><trkpt lat="46.1778779" lon="12.9304126"><ele>167.0</ele><time>2026-04-04T14:58:37.067Z</time></trkpt><trkpt lat="46.1779363" lon="12.9302652"><ele>167.0</ele><time>2026-04-04T14:58:38.066Z</time></trkpt><trkpt lat="46.1779732" lon="12.9301148"><ele>168.39999999999998</ele><time>2026-04-04T14:58:39.067Z</time></trkpt><trkpt lat="46.1779655" lon="12.9299693"><ele>169.79999999999998</ele><time>2026-04-04T14:58:40.067Z</time></trkpt><trkpt lat="46.1779175" lon="12.9298578"><ele>171.2</ele><time>2026-04-04T14:58:41.066Z</time></trkpt><trkpt lat="46.1778367" lon="12.9298003"><ele>172.6</ele><time>2026-04-04T14:58:42.066Z</time></trkpt><trkpt lat="46.1777364" lon="12.9298015"><ele>174.0</ele><time>2026-04-04T14:58:43.066Z</time></trkpt><trkpt lat="46.177632" lon="12.9298497"><ele>174.0</ele><time>2026-04-04T14:58:44.067Z</time></trkpt><trkpt lat="46.1775241" lon="12.9299214"><ele>174.0</ele><time>2026-04-04T14:58:45.066Z</time></trkpt><trkpt lat="46.1774177" lon="12.9299929"><ele>174.0</ele><time>2026-04-04T14:58:46.068Z</time></trkpt><trkpt lat="46.1773114" lon="12.9300314"><ele>174.0</ele><time>2026-04-04T14:58:47.068Z</time></trkpt><trkpt lat="46.1772093" lon="12.9300216"><ele>174.0</ele><time>2026-04-04T14:58:48.067Z</time></trkpt><trkpt lat="46.1771199" lon="12.9299596"><ele>169.75</ele><time>2026-04-04T14:58:49.067Z</time></trkpt><trkpt lat="46.1770459" lon="12.9298467"><ele>165.5</ele><time>2026-04-04T14:58:50.067Z</time></trkpt><trkpt lat="46.1769743" lon="12.9297003"><ele>161.25</ele><time>2026-04-04T14:58:51.066Z</time></trkpt><trkpt lat="46.176907" lon="12.9295439"><ele>157.0</ele><time>2026-04-04T14:58:52.066Z</time></trkpt><trkpt lat="46.176852" lon="12.9294029"><ele>157.0</ele><time>2026-04-04T14:58:53.066Z</time></trkpt><trkpt lat="46.1768244" lon="12.9292584"><ele>157.0</ele><time>2026-04-04T14:58:54.067Z</time></trkpt><trkpt lat="46.1768499" lon="12.9291029"><ele>157.0</ele><time>2026-04-04T14:58:55.066Z</time></trkpt><trkpt lat="46.1769076" lon="12.928945"><ele>157.0</ele><time>2026-04-04T14:58:56.066Z</time></trkpt><trkpt lat="46.1769795" lon="12.9287748"><ele>157.25</ele><time>2026-04-04T14:58:57.066Z</time></trkpt><trkpt lat="46.1770396" lon="12.9285877"><ele>157.5</ele><time>2026-04-04T14:58:58.067Z</time></trkpt><trkpt lat="46.1770636" lon="12.9283802"><ele>157.75</ele><time>2026-04-04T14:58:59.067Z</time></trkpt><trkpt lat="46.1770694" lon="12.9281572"><ele>158.0</ele><time>2026-04-04T14:59:00.066Z</time></trkpt><trkpt lat="46.1770674" lon="12.9279247"><ele>156.0</ele><time>2026-04-04T14:59:01.066Z</time></trkpt><trkpt lat="46.1770671" lon="12.9276834"><ele>154.0</ele><time>2026-04-04T14:59:02.066Z</time></trkpt><trkpt lat="46.1770679" lon="12.9274539"><ele>152.0</ele><time>2026-04-04T14:59:03.066Z</time></trkpt><trkpt lat="46.1770613" lon="12.9272381"><ele>151.75</ele><time>2026-04-04T14:59:04.066Z</time></trkpt><trkpt lat="46.177042" lon="12.9270392"><ele>151.5</ele><time>2026-04-04T14:59:05.067Z</time></trkpt><trkpt lat="46.1770308" lon="12.9268393"><ele>151.25</ele><time>2026-04-04T14:59:06.066Z</time></trkpt><trkpt lat="46.1769728" lon="12.9267193"><ele>151.0</ele><time>2026-04-04T14:59:07.067Z</time></trkpt><trkpt lat="46.1768998" lon="12.9266052"><ele>154.5</ele><time>2026-04-04T14:59:08.067Z</time></trkpt><trkpt lat="46.1767992" lon="12.9265494"><ele>158.0</ele><time>2026-04-04T14:59:09.066Z</time></trkpt><trkpt lat="46.1766844" lon="12.9265319"><ele>161.5</ele><time>2026-04-04T14:59:10.067Z</time></trkpt><trkpt lat="46.1765626" lon="12.9265463"><ele>165.0</ele><time>2026-04-04T14:59:11.067Z</time></trkpt><trkpt lat="46.1764346" lon="12.9265971"><ele>162.66666666666666</ele><time>2026-04-04T14:59:12.066Z</time></trkpt><trkpt lat="46.1762962" lon="12.9266884"><ele>160.33333333333331</ele><time>2026-04-04T14:59:13.066Z</time></trkpt><trkpt lat="46.1761505" lon="12.9267928"><ele>158.0</ele><time>2026-04-04T14:59:14.067Z</time></trkpt><trkpt lat="46.1759928" lon="12.9269014"><ele>158.0</ele><time>2026-04-04T14:59:15.067Z</time></trkpt><trkpt lat="46.1758313" lon="12.9270118"><ele>158.0</ele><time>2026-04-04T14:59:16.066Z</time></trkpt><trkpt lat="46.1756762" lon="12.9271315"><ele>158.0</ele><time>2026-04-04T14:59:17.067Z</time></trkpt><trkpt lat="46.1755384" lon="12.9272456"><ele>159.25</ele><time>2026-04-04T14:59:18.067Z</time></trkpt><trkpt lat="46.1754091" lon="12.927338"><ele>160.5</ele><time>2026-04-04T14:59:19.067Z</time></trkpt><trkpt lat="46.1752851" lon="12.9273727"><ele>161.75</ele><time>2026-04-04T14:59:20.067Z</time></trkpt><trkpt lat="46.17516" lon="12.9273553"><ele>163.0</ele><time>2026-04-04T14:59:21.066Z</time></trkpt><trkpt lat="46.1750349" lon="12.9272973"><ele>163.0</ele><time>2026-04-04T14:59:22.066Z</time></trkpt><trkpt lat="46.1749108" lon="12.9272032"><ele>163.0</ele><time>2026-04-04T14:59:23.067Z</time></trkpt><trkpt lat="46.17479" lon="12.9270877"><ele>163.0</ele><time>2026-04-04T14:59:24.066Z</time></trkpt><trkpt lat="46.1746741" lon="12.9269568"><ele>163.0</ele><time>2026-04-04T14:59:25.068Z</time></trkpt><trkpt lat="46.1745574" lon="12.9268165"><ele>166.0</ele><time>2026-04-04T14:59:26.067Z</time></trkpt><trkpt lat="46.1744347" lon="12.926678"><ele>169.0</ele><time>2026-04-04T14:59:27.066Z</time></trkpt><trkpt lat="46.1743069" lon="12.9265602"><ele>172.0</ele><time>2026-04-04T14:59:28.066Z</time></trkpt><trkpt lat="46.1741819" lon="12.9264585"><ele>172.0</ele><time>2026-04-04T14:59:29.067Z</time></trkpt><trkpt lat="46.1740529" lon="12.9263636"><ele>172.0</ele><time>2026-04-04T14:59:30.066Z</time></trkpt><trkpt lat="46.1739239" lon="12.9262754"><ele>172.0</ele><time>2026-04-04T14:59:31.066Z</time></trkpt><trkpt lat="46.173786" lon="12.9262178"><ele>172.0</ele><time>2026-04-04T14:59:32.066Z</time></trkpt><trkpt lat="46.1736347" lon="12.9262004"><ele>171.33333333333334</ele><time>2026-04-04T14:59:33.066Z</time></trkpt><trkpt lat="46.1734763" lon="12.9262113"><ele>170.66666666666666</ele><time>2026-04-04T14:59:34.066Z</time></trkpt><trkpt lat="46.1733069" lon="12.9262233"><ele>170.0</ele><time>2026-04-04T14:59:35.068Z</time></trkpt><trkpt lat="46.1731358" lon="12.9262327"><ele>171.33333333333331</ele><time>2026-04-04T14:59:36.067Z</time></trkpt><trkpt lat="46.1729657" lon="12.9262438"><ele>172.66666666666666</ele><time>2026-04-04T14:59:37.067Z</time></trkpt><trkpt lat="46.1727953" lon="12.9262594"><ele>174.0</ele><time>2026-04-04T14:59:38.067Z</time></trkpt><trkpt lat="46.1726257" lon="12.926289"><ele>174.0</ele><time>2026-04-04T14:59:39.067Z</time></trkpt><trkpt lat="46.1724563" lon="12.9263391"><ele>174.0</ele><time>2026-04-04T14:59:40.066Z</time></trkpt><trkpt lat="46.1722945" lon="12.9264087"><ele>174.0</ele><time>2026-04-04T14:59:41.066Z</time></trkpt><trkpt lat="46.1721345" lon="12.9264844"><ele>177.33333333333334</ele><time>2026-04-04T14:59:42.067Z</time></trkpt><trkpt lat="46.1719759" lon="12.9265723"><ele>180.66666666666669</ele><time>2026-04-04T14:59:43.068Z</time></trkpt><trkpt lat="46.171816" lon="12.9266662"><ele>184.0</ele><time>2026-04-04T14:59:44.067Z</time></trkpt><trkpt lat="46.1716638" lon="12.9267624"><ele>182.5</ele><time>2026-04-04T14:59:45.067Z</time></trkpt><trkpt lat="46.171517" lon="12.9268535"><ele>181.0</ele><time>2026-04-04T14:59:46.066Z</time></trkpt><trkpt lat="46.1713826" lon="12.9269356"><ele>179.5</ele><time>2026-04-04T14:59:47.067Z</time></trkpt><trkpt lat="46.1712543" lon="12.9270092"><ele>178.0</ele><time>2026-04-04T14:59:48.067Z</time></trkpt><trkpt lat="46.1711289" lon="12.9270876"><ele>178.0</ele><time>2026-04-04T14:59:49.066Z</time></trkpt><trkpt lat="46.1710041" lon="12.9271492"><ele>178.0</ele><time>2026-04-04T14:59:50.067Z</time></trkpt><trkpt lat="46.1708726" lon="12.9271592"><ele>178.0</ele><time>2026-04-04T14:59:51.066Z</time></trkpt><trkpt lat="46.1707436" lon="12.9271317"><ele>178.0</ele><time>2026-04-04T14:59:52.068Z</time></trkpt><trkpt lat="46.1706196" lon="12.9270696"><ele>178.5</ele><time>2026-04-04T14:59:53.066Z</time></trkpt><trkpt lat="46.170501" lon="12.9269785"><ele>179.0</ele><time>2026-04-04T14:59:54.067Z</time></trkpt><trkpt lat="46.1703929" lon="12.9268859"><ele>179.5</ele><time>2026-04-04T14:59:55.067Z</time></trkpt><trkpt lat="46.170298" lon="12.9267872"><ele>180.0</ele><time>2026-04-04T14:59:56.067Z</time></trkpt><trkpt lat="46.1702055" lon="12.9266564"><ele>180.66666666666666</ele><time>2026-04-04T14:59:57.068Z</time></trkpt><trkpt lat="46.1701173" lon="12.9264981"><ele>181.33333333333331</ele><time>2026-04-04T14:59:58.067Z</time></trkpt><trkpt lat="46.1700278" lon="12.9263205"><ele>182.0</ele><time>2026-04-04T14:59:59.066Z</time></trkpt><trkpt lat="46.1699295" lon="12.9261315"><ele>181.66666666666666</ele><time>2026-04-04T15:00:00.067Z</time></trkpt><trkpt lat="46.1698298" lon="12.9259374"><ele>181.33333333333334</ele><time>2026-04-04T15:00:01.068Z</time></trkpt><trkpt lat="46.1697302" lon="12.9257467"><ele>181.0</ele><time>2026-04-04T15:00:02.067Z</time></trkpt><trkpt lat="46.1696375" lon="12.9255682"><ele>181.0</ele><time>2026-04-04T15:00:03.067Z</time></trkpt><trkpt lat="46.1695494" lon="12.9253996"><ele>181.0</ele><time>2026-04-04T15:00:04.066Z</time></trkpt><trkpt lat="46.1694678" lon="12.9252421"><ele>181.0</ele><time>2026-04-04T15:00:05.066Z</time></trkpt><trkpt lat="46.1693935" lon="12.9250962"><ele>181.0</ele><time>2026-04-04T15:00:06.067Z</time></trkpt><trkpt lat="46.1693221" lon="12.9249558"><ele>181.20000000000002</ele><time>2026-04-04T15:00:07.066Z</time></trkpt><trkpt lat="46.1692544" lon="12.9248283"><ele>181.4</ele><time>2026-04-04T15:00:08.067Z</time></trkpt><trkpt lat="46.1691921" lon="12.9247117"><ele>181.6</ele><time>2026-04-04T15:00:09.066Z</time></trkpt><trkpt lat="46.1691334" lon="12.9245983"><ele>181.8</ele><time>2026-04-04T15:00:10.067Z</time></trkpt><trkpt lat="46.1690714" lon="12.9244844"><ele>182.0</ele><time>2026-04-04T15:00:11.066Z</time></trkpt><trkpt lat="46.1689994" lon="12.924347"><ele>182.0</ele><time>2026-04-04T15:00:12.066Z</time></trkpt><trkpt lat="46.1689175" lon="12.9241896"><ele>182.0</ele><time>2026-04-04T15:00:13.067Z</time></trkpt><trkpt lat="46.1688254" lon="12.9240189"><ele>182.0</ele><time>2026-04-04T15:00:14.067Z</time></trkpt><trkpt lat="46.1687247" lon="12.9238275"><ele>182.0</ele><time>2026-04-04T15:00:15.066Z</time></trkpt><trkpt lat="46.1686217" lon="12.9236359"><ele>182.0</ele><time>2026-04-04T15:00:16.067Z</time></trkpt><trkpt lat="46.1685208" lon="12.923452"><ele>182.0</ele><time>2026-04-04T15:00:17.067Z</time></trkpt><trkpt lat="46.1684269" lon="12.9232724"><ele>182.0</ele><time>2026-04-04T15:00:18.066Z</time></trkpt><trkpt lat="46.1683368" lon="12.9230971"><ele>182.0</ele><time>2026-04-04T15:00:19.067Z</time></trkpt><trkpt lat="46.1682516" lon="12.9229332"><ele>182.0</ele><time>2026-04-04T15:00:20.067Z</time></trkpt><trkpt lat="46.1681699" lon="12.9227754"><ele>182.0</ele><time>2026-04-04T15:00:21.066Z</time></trkpt><trkpt lat="46.1680909" lon="12.9226234"><ele>181.5</ele><time>2026-04-04T15:00:22.066Z</time></trkpt><trkpt lat="46.1680116" lon="12.9224743"><ele>181.0</ele><time>2026-04-04T15:00:23.066Z</time></trkpt><trkpt lat="46.1679358" lon="12.9223325"><ele>180.5</ele><time>2026-04-04T15:00:24.066Z</time></trkpt><trkpt lat="46.1678681" lon="12.9221869"><ele>180.0</ele><time>2026-04-04T15:00:25.066Z</time></trkpt><trkpt lat="46.1678151" lon="12.9220279"><ele>180.0</ele><time>2026-04-04T15:00:26.067Z</time></trkpt><trkpt lat="46.1677836" lon="12.9218449"><ele>180.0</ele><time>2026-04-04T15:00:27.068Z</time></trkpt><trkpt lat="46.1677647" lon="12.921653"><ele>180.0</ele><time>2026-04-04T15:00:28.066Z</time></trkpt><trkpt lat="46.16776" lon="12.9214595"><ele>180.0</ele><time>2026-04-04T15:00:29.068Z</time></trkpt><trkpt lat="46.1677754" lon="12.9212664"><ele>180.0</ele><time>2026-04-04T15:00:30.067Z</time></trkpt><trkpt lat="46.1678045" lon="12.9210789"><ele>180.0</ele><time>2026-04-04T15:00:31.067Z</time></trkpt><trkpt lat="46.1678409" lon="12.9208975"><ele>180.0</ele><time>2026-04-04T15:00:32.066Z</time></trkpt><trkpt lat="46.1678703" lon="12.9207095"><ele>180.0</ele><time>2026-04-04T15:00:33.068Z</time></trkpt><trkpt lat="46.1678847" lon="12.9205136"><ele>180.25</ele><time>2026-04-04T15:00:34.067Z</time></trkpt><trkpt lat="46.1678832" lon="12.9203213"><ele>180.5</ele><time>2026-04-04T15:00:35.067Z</time></trkpt><trkpt lat="46.1678743" lon="12.9201295"><ele>180.75</ele><time>2026-04-04T15:00:36.068Z</time></trkpt><trkpt lat="46.167865" lon="12.9199455"><ele>181.0</ele><time>2026-04-04T15:00:37.067Z</time></trkpt><trkpt lat="46.1678553" lon="12.9197676"><ele>180.5</ele><time>2026-04-04T15:00:38.067Z</time></trkpt><trkpt lat="46.1678444" lon="12.9195888"><ele>180.0</ele><time>2026-04-04T15:00:39.067Z</time></trkpt><trkpt lat="46.1678342" lon="12.9194084"><ele>179.5</ele><time>2026-04-04T15:00:40.066Z</time></trkpt><trkpt lat="46.167821" lon="12.9192279"><ele>179.0</ele><time>2026-04-04T15:00:41.066Z</time></trkpt><trkpt lat="46.1678113" lon="12.9190611"><ele>179.0</ele><time>2026-04-04T15:00:42.067Z</time></trkpt><trkpt lat="46.1677997" lon="12.9189044"><ele>179.0</ele><time>2026-04-04T15:00:43.066Z</time></trkpt><trkpt lat="46.1677944" lon="12.9187491"><ele>179.0</ele><time>2026-04-04T15:00:44.066Z</time></trkpt><trkpt lat="46.1678037" lon="12.9185987"><ele>179.0</ele><time>2026-04-04T15:00:45.067Z</time></trkpt><trkpt lat="46.1678305" lon="12.9184574"><ele>179.0</ele><time>2026-04-04T15:00:46.067Z</time></trkpt><trkpt lat="46.1678735" lon="12.918327"><ele>178.5</ele><time>2026-04-04T15:00:47.068Z</time></trkpt><trkpt lat="46.1679424" lon="12.9182007"><ele>178.0</ele><time>2026-04-04T15:00:48.067Z</time></trkpt><trkpt lat="46.1680136" lon="12.9180718"><ele>177.5</ele><time>2026-04-04T15:00:49.067Z</time></trkpt><trkpt lat="46.168092" lon="12.9179413"><ele>177.0</ele><time>2026-04-04T15:00:50.066Z</time></trkpt><trkpt lat="46.1681717" lon="12.917816"><ele>177.6</ele><time>2026-04-04T15:00:51.066Z</time></trkpt><trkpt lat="46.1682548" lon="12.9177056"><ele>178.2</ele><time>2026-04-04T15:00:52.066Z</time></trkpt><trkpt lat="46.1683444" lon="12.9176174"><ele>178.8</ele><time>2026-04-04T15:00:53.067Z</time></trkpt><trkpt lat="46.1684393" lon="12.9175473"><ele>179.4</ele><time>2026-04-04T15:00:54.067Z</time></trkpt><trkpt lat="46.1685286" lon="12.9174727"><ele>180.0</ele><time>2026-04-04T15:00:55.068Z</time></trkpt><trkpt lat="46.1686148" lon="12.9173774"><ele>180.0</ele><time>2026-04-04T15:00:56.067Z</time></trkpt><trkpt lat="46.1687024" lon="12.9172829"><ele>180.0</ele><time>2026-04-04T15:00:57.068Z</time></trkpt><trkpt lat="46.1687876" lon="12.9172006"><ele>180.0</ele><time>2026-04-04T15:00:58.067Z</time></trkpt><trkpt lat="46.1688591" lon="12.9171085"><ele>180.0</ele><time>2026-04-04T15:00:59.068Z</time></trkpt><trkpt lat="46.1689127" lon="12.9170011"><ele>180.0</ele><time>2026-04-04T15:01:00.066Z</time></trkpt><trkpt lat="46.16894" lon="12.9168738"><ele>180.0</ele><time>2026-04-04T15:01:01.066Z</time></trkpt><trkpt lat="46.1689385" lon="12.9167453"><ele>180.0</ele><time>2026-04-04T15:01:02.067Z</time></trkpt><trkpt lat="46.1689082" lon="12.9166238"><ele>180.0</ele><time>2026-04-04T15:01:03.067Z</time></trkpt><trkpt lat="46.1688461" lon="12.9165168"><ele>180.0</ele><time>2026-04-04T15:01:04.066Z</time></trkpt><trkpt lat="46.168754" lon="12.9164281"><ele>180.0</ele><time>2026-04-04T15:01:05.066Z</time></trkpt><trkpt lat="46.1686451" lon="12.9163427"><ele>179.25</ele><time>2026-04-04T15:01:06.067Z</time></trkpt><trkpt lat="46.1685221" lon="12.9162534"><ele>178.5</ele><time>2026-04-04T15:01:07.066Z</time></trkpt><trkpt lat="46.168388" lon="12.9161572"><ele>177.75</ele><time>2026-04-04T15:01:08.066Z</time></trkpt><trkpt lat="46.1682458" lon="12.9160601"><ele>177.0</ele><time>2026-04-04T15:01:09.067Z</time></trkpt><trkpt lat="46.1681086" lon="12.9159676"><ele>173.5</ele><time>2026-04-04T15:01:10.066Z</time></trkpt><trkpt lat="46.1679783" lon="12.9158758"><ele>170.0</ele><time>2026-04-04T15:01:11.067Z</time></trkpt><trkpt lat="46.1678504" lon="12.9157814"><ele>166.5</ele><time>2026-04-04T15:01:12.067Z</time></trkpt><trkpt lat="46.1677318" lon="12.9156754"><ele>163.0</ele><time>2026-04-04T15:01:13.066Z</time></trkpt><trkpt lat="46.167631" lon="12.9155382"><ele>163.0</ele><time>2026-04-04T15:01:14.067Z</time></trkpt><trkpt lat="46.1675487" lon="12.9153697"><ele>163.0</ele><time>2026-04-04T15:01:15.066Z</time></trkpt><trkpt lat="46.1674896" lon="12.9151767"><ele>163.0</ele><time>2026-04-04T15:01:16.066Z</time></trkpt><trkpt lat="46.1674343" lon="12.914977"><ele>163.0</ele><time>2026-04-04T15:01:17.067Z</time></trkpt><trkpt lat="46.1673691" lon="12.9147836"><ele>161.75</ele><time>2026-04-04T15:01:18.067Z</time></trkpt><trkpt lat="46.16729" lon="12.9146125"><ele>160.5</ele><time>2026-04-04T15:01:19.067Z</time></trkpt><trkpt lat="46.1671919" lon="12.9144638"><ele>159.25</ele><time>2026-04-04T15:01:20.066Z</time></trkpt><trkpt lat="46.1670735" lon="12.9143411"><ele>158.0</ele><time>2026-04-04T15:01:21.067Z</time></trkpt><trkpt lat="46.1669401" lon="12.9142462"><ele>161.33333333333331</ele><time>2026-04-04T15:01:22.067Z</time></trkpt><trkpt lat="46.1667915" lon="12.91418"><ele>164.66666666666666</ele><time>2026-04-04T15:01:23.067Z</time></trkpt><trkpt lat="46.1666358" lon="12.9141574"><ele>168.0</ele><time>2026-04-04T15:01:24.066Z</time></trkpt><trkpt lat="46.1664777" lon="12.9141718"><ele>171.0</ele><time>2026-04-04T15:01:25.066Z</time></trkpt><trkpt lat="46.1663193" lon="12.9141944"><ele>174.0</ele><time>2026-04-04T15:01:26.067Z</time></trkpt><trkpt lat="46.1661581" lon="12.9142144"><ele>177.0</ele><time>2026-04-04T15:01:27.066Z</time></trkpt><trkpt lat="46.1659945" lon="12.9142334"><ele>176.33333333333334</ele><time>2026-04-04T15:01:28.068Z</time></trkpt><trkpt lat="46.1658279" lon="12.9142552"><ele>175.66666666666669</ele><time>2026-04-04T15:01:29.067Z</time></trkpt><trkpt lat="46.1656571" lon="12.9142768"><ele>175.0</ele><time>2026-04-04T15:01:30.066Z</time></trkpt><trkpt lat="46.1654831" lon="12.9142842"><ele>175.0</ele><time>2026-04-04T15:01:31.067Z</time></trkpt><trkpt lat="46.1653176" lon="12.9142744"><ele>175.0</ele><time>2026-04-04T15:01:32.066Z</time></trkpt><trkpt lat="46.1651662" lon="12.9142561"><ele>175.0</ele><time>2026-04-04T15:01:33.067Z</time></trkpt><trkpt lat="46.1650279" lon="12.9142364"><ele>176.0</ele><time>2026-04-04T15:01:34.067Z</time></trkpt><trkpt lat="46.1649081" lon="12.9142142"><ele>177.0</ele><time>2026-04-04T15:01:35.066Z</time></trkpt><trkpt lat="46.1648001" lon="12.9141878"><ele>178.0</ele><time>2026-04-04T15:01:36.067Z</time></trkpt><trkpt lat="46.16471" lon="12.9141335"><ele>179.0</ele><time>2026-04-04T15:01:37.066Z</time></trkpt><trkpt lat="46.1646363" lon="12.9140453"><ele>180.0</ele><time>2026-04-04T15:01:38.068Z</time></trkpt><trkpt lat="46.1645697" lon="12.9139197"><ele>180.0</ele><time>2026-04-04T15:01:39.068Z</time></trkpt><trkpt lat="46.1645141" lon="12.9137575"><ele>180.0</ele><time>2026-04-04T15:01:40.066Z</time></trkpt><trkpt lat="46.1644635" lon="12.9135658"><ele>180.0</ele><time>2026-04-04T15:01:41.067Z</time></trkpt><trkpt lat="46.1644152" lon="12.913353"><ele>180.0</ele><time>2026-04-04T15:01:42.066Z</time></trkpt><trkpt lat="46.1643727" lon="12.9131242"><ele>180.0</ele><time>2026-04-04T15:01:43.066Z</time></trkpt><trkpt lat="46.1643445" lon="12.9128853"><ele>180.0</ele><time>2026-04-04T15:01:44.067Z</time></trkpt><trkpt lat="46.1643292" lon="12.9126408"><ele>180.0</ele><time>2026-04-04T15:01:45.067Z</time></trkpt><trkpt lat="46.1643245" lon="12.9123921"><ele>180.0</ele><time>2026-04-04T15:01:46.066Z</time></trkpt><trkpt lat="46.1643312" lon="12.912134"><ele>180.0</ele><time>2026-04-04T15:01:47.067Z</time></trkpt><trkpt lat="46.1643363" lon="12.9118709"><ele>180.0</ele><time>2026-04-04T15:01:48.067Z</time></trkpt><trkpt lat="46.1643368" lon="12.9115974"><ele>180.0</ele><time>2026-04-04T15:01:49.068Z</time></trkpt><trkpt lat="46.1643315" lon="12.911318"><ele>180.0</ele><time>2026-04-04T15:01:50.066Z</time></trkpt><trkpt lat="46.1643112" lon="12.9110379"><ele>180.0</ele><time>2026-04-04T15:01:51.066Z</time></trkpt><trkpt lat="46.1642785" lon="12.9107491"><ele>180.0</ele><time>2026-04-04T15:01:52.066Z</time></trkpt><trkpt lat="46.1642393" lon="12.9104536"><ele>180.0</ele><time>2026-04-04T15:01:53.066Z</time></trkpt><trkpt lat="46.1642007" lon="12.9101487"><ele>180.0</ele><time>2026-04-04T15:01:54.067Z</time></trkpt><trkpt lat="46.1641615" lon="12.9098381"><ele>180.33333333333334</ele><time>2026-04-04T15:01:55.067Z</time></trkpt><trkpt lat="46.1641208" lon="12.9095315"><ele>180.66666666666669</ele><time>2026-04-04T15:01:56.067Z</time></trkpt><trkpt lat="46.1640816" lon="12.9092354"><ele>181.0</ele><time>2026-04-04T15:01:57.067Z</time></trkpt><trkpt lat="46.1640434" lon="12.9089445"><ele>180.66666666666669</ele><time>2026-04-04T15:01:58.066Z</time></trkpt><trkpt lat="46.1640039" lon="12.9086664"><ele>180.33333333333334</ele><time>2026-04-04T15:01:59.067Z</time></trkpt><trkpt lat="46.1639649" lon="12.9083903"><ele>180.0</ele><time>2026-04-04T15:02:00.067Z</time></trkpt><trkpt lat="46.1639245" lon="12.9081164"><ele>180.0</ele><time>2026-04-04T15:02:01.067Z</time></trkpt><trkpt lat="46.1638869" lon="12.9078464"><ele>180.0</ele><time>2026-04-04T15:02:02.066Z</time></trkpt><trkpt lat="46.1638481" lon="12.9075832"><ele>180.0</ele><time>2026-04-04T15:02:03.067Z</time></trkpt><trkpt lat="46.1638132" lon="12.9073285"><ele>178.66666666666666</ele><time>2026-04-04T15:02:04.066Z</time></trkpt><trkpt lat="46.1637783" lon="12.9070874"><ele>177.33333333333331</ele><time>2026-04-04T15:02:05.066Z</time></trkpt><trkpt lat="46.1637459" lon="12.9068478"><ele>176.0</ele><time>2026-04-04T15:02:06.067Z</time></trkpt><trkpt lat="46.1637159" lon="12.9066044"><ele>176.0</ele><time>2026-04-04T15:02:07.068Z</time></trkpt><trkpt lat="46.1636846" lon="12.9063633"><ele>176.0</ele><time>2026-04-04T15:02:08.067Z</time></trkpt><trkpt lat="46.1636511" lon="12.9061187"><ele>176.0</ele><time>2026-04-04T15:02:09.067Z</time></trkpt><trkpt lat="46.1636173" lon="12.9058743"><ele>176.33333333333331</ele><time>2026-04-04T15:02:10.068Z</time></trkpt><trkpt lat="46.1635892" lon="12.9056184"><ele>176.66666666666666</ele><time>2026-04-04T15:02:11.066Z</time></trkpt><trkpt lat="46.163579" lon="12.9053555"><ele>177.0</ele><time>2026-04-04T15:02:12.066Z</time></trkpt><trkpt lat="46.1635878" lon="12.9050903"><ele>176.33333333333334</ele><time>2026-04-04T15:02:13.067Z</time></trkpt><trkpt lat="46.1636092" lon="12.904822"><ele>175.66666666666669</ele><time>2026-04-04T15:02:14.068Z</time></trkpt><trkpt lat="46.1636306" lon="12.9045533"><ele>175.0</ele><time>2026-04-04T15:02:15.068Z</time></trkpt><trkpt lat="46.1636568" lon="12.9042835"><ele>174.66666666666669</ele><time>2026-04-04T15:02:16.067Z</time></trkpt><trkpt lat="46.1636791" lon="12.9040086"><ele>174.33333333333334</ele><time>2026-04-04T15:02:17.066Z</time></trkpt><trkpt lat="46.1636942" lon="12.9037308"><ele>174.0</ele><time>2026-04-04T15:02:18.066Z</time></trkpt><trkpt lat="46.1636998" lon="12.9034558"><ele>174.0</ele><time>2026-04-04T15:02:19.066Z</time></trkpt><trkpt lat="46.1637006" lon="12.9031755"><ele>174.0</ele><time>2026-04-04T15:02:20.068Z</time></trkpt><trkpt lat="46.1636974" lon="12.902899"><ele>174.0</ele><time>2026-04-04T15:02:21.067Z</time></trkpt><trkpt lat="46.1636908" lon="12.9026208"><ele>173.33333333333334</ele><time>2026-04-04T15:02:22.067Z</time></trkpt><trkpt lat="46.1636827" lon="12.9023469"><ele>172.66666666666669</ele><time>2026-04-04T15:02:23.067Z</time></trkpt><trkpt lat="46.1636754" lon="12.9020798"><ele>172.0</ele><time>2026-04-04T15:02:24.067Z</time></trkpt><trkpt lat="46.1636672" lon="12.9018243"><ele>171.33333333333334</ele><time>2026-04-04T15:02:25.066Z</time></trkpt><trkpt lat="46.1636592" lon="12.9015745"><ele>170.66666666666666</ele><time>2026-04-04T15:02:26.066Z</time></trkpt><trkpt lat="46.1636514" lon="12.9013271"><ele>170.0</ele><time>2026-04-04T15:02:27.068Z</time></trkpt><trkpt lat="46.1636477" lon="12.9010818"><ele>170.0</ele><time>2026-04-04T15:02:28.066Z</time></trkpt><trkpt lat="46.1636531" lon="12.9008384"><ele>170.0</ele><time>2026-04-04T15:02:29.067Z</time></trkpt><trkpt lat="46.1636711" lon="12.9005923"><ele>170.0</ele><time>2026-04-04T15:02:30.067Z</time></trkpt><trkpt lat="46.1636999" lon="12.9003475"><ele>170.0</ele><time>2026-04-04T15:02:31.068Z</time></trkpt><trkpt lat="46.1637405" lon="12.9001059"><ele>170.0</ele><time>2026-04-04T15:02:32.067Z</time></trkpt><trkpt lat="46.1637951" lon="12.8998637"><ele>170.0</ele><time>2026-04-04T15:02:33.066Z</time></trkpt><trkpt lat="46.1638563" lon="12.8996358"><ele>170.0</ele><time>2026-04-04T15:02:34.068Z</time></trkpt><trkpt lat="46.163924" lon="12.8994238"><ele>170.0</ele><time>2026-04-04T15:02:35.066Z</time></trkpt><trkpt lat="46.1640011" lon="12.8992208"><ele>170.0</ele><time>2026-04-04T15:02:36.067Z</time></trkpt><trkpt lat="46.1640838" lon="12.899024"><ele>170.33333333333331</ele><time>2026-04-04T15:02:37.066Z</time></trkpt><trkpt lat="46.1641715" lon="12.8988354"><ele>170.66666666666666</ele><time>2026-04-04T15:02:38.066Z</time></trkpt><trkpt lat="46.1642616" lon="12.8986523"><ele>171.0</ele><time>2026-04-04T15:02:39.067Z</time></trkpt><trkpt lat="46.1643476" lon="12.898475"><ele>170.75</ele><time>2026-04-04T15:02:40.067Z</time></trkpt><trkpt lat="46.1644212" lon="12.8983043"><ele>170.5</ele><time>2026-04-04T15:02:41.067Z</time></trkpt><trkpt lat="46.1644782" lon="12.89813"><ele>170.25</ele><time>2026-04-04T15:02:42.067Z</time></trkpt><trkpt lat="46.1645118" lon="12.8979558"><ele>170.0</ele><time>2026-04-04T15:02:43.067Z</time></trkpt><trkpt lat="46.1645211" lon="12.8977829"><ele>170.0</ele><time>2026-04-04T15:02:44.067Z</time></trkpt><trkpt lat="46.1645093" lon="12.8976049"><ele>170.0</ele><time>2026-04-04T15:02:45.066Z</time></trkpt><trkpt lat="46.1644804" lon="12.8974289"><ele>170.0</ele><time>2026-04-04T15:02:46.067Z</time></trkpt><trkpt lat="46.1644443" lon="12.8972503"><ele>170.0</ele><time>2026-04-04T15:02:47.066Z</time></trkpt><trkpt lat="46.1644019" lon="12.8970607"><ele>169.75</ele><time>2026-04-04T15:02:48.066Z</time></trkpt><trkpt lat="46.164353" lon="12.8968607"><ele>169.5</ele><time>2026-04-04T15:02:49.067Z</time></trkpt><trkpt lat="46.1643025" lon="12.8966571"><ele>169.25</ele><time>2026-04-04T15:02:50.067Z</time></trkpt><trkpt lat="46.1642545" lon="12.8964573"><ele>169.0</ele><time>2026-04-04T15:02:51.066Z</time></trkpt><trkpt lat="46.1642078" lon="12.8962682"><ele>169.0</ele><time>2026-04-04T15:02:52.067Z</time></trkpt><trkpt lat="46.1641614" lon="12.896079"><ele>169.0</ele><time>2026-04-04T15:02:53.066Z</time></trkpt><trkpt lat="46.1641163" lon="12.8958897"><ele>169.0</ele><time>2026-04-04T15:02:54.066Z</time></trkpt><trkpt lat="46.16407" lon="12.8957014"><ele>169.0</ele><time>2026-04-04T15:02:55.066Z</time></trkpt><trkpt lat="46.1640225" lon="12.8955077"><ele>169.25</ele><time>2026-04-04T15:02:56.067Z</time></trkpt><trkpt lat="46.1639735" lon="12.8953143"><ele>169.5</ele><time>2026-04-04T15:02:57.067Z</time></trkpt><trkpt lat="46.1639252" lon="12.8951238"><ele>169.75</ele><time>2026-04-04T15:02:58.068Z</time></trkpt><trkpt lat="46.1638803" lon="12.8949476"><ele>170.0</ele><time>2026-04-04T15:02:59.067Z</time></trkpt><trkpt lat="46.1638391" lon="12.8947754"><ele>170.0</ele><time>2026-04-04T15:03:00.067Z</time></trkpt><trkpt lat="46.1638002" lon="12.8946048"><ele>170.0</ele><time>2026-04-04T15:03:01.068Z</time></trkpt><trkpt lat="46.1637566" lon="12.8944431"><ele>170.0</ele><time>2026-04-04T15:03:02.066Z</time></trkpt><trkpt lat="46.1637151" lon="12.8942806"><ele>170.0</ele><time>2026-04-04T15:03:03.067Z</time></trkpt><trkpt lat="46.1636721" lon="12.8941182"><ele>171.0</ele><time>2026-04-04T15:03:04.066Z</time></trkpt><trkpt lat="46.1636327" lon="12.8939616"><ele>172.0</ele><time>2026-04-04T15:03:05.067Z</time></trkpt><trkpt lat="46.1635884" lon="12.8938093"><ele>173.0</ele><time>2026-04-04T15:03:06.068Z</time></trkpt><trkpt lat="46.1635263" lon="12.8936718"><ele>174.0</ele><time>2026-04-04T15:03:07.067Z</time></trkpt><trkpt lat="46.1634452" lon="12.8935513"><ele>174.0</ele><time>2026-04-04T15:03:08.067Z</time></trkpt><trkpt lat="46.1633531" lon="12.8934396"><ele>174.0</ele><time>2026-04-04T15:03:09.066Z</time></trkpt><trkpt lat="46.1632563" lon="12.8933343"><ele>174.0</ele><time>2026-04-04T15:03:10.067Z</time></trkpt><trkpt lat="46.1631613" lon="12.8932282"><ele>174.0</ele><time>2026-04-04T15:03:11.067Z</time></trkpt><trkpt lat="46.1630779" lon="12.8931035"><ele>173.75</ele><time>2026-04-04T15:03:12.066Z</time></trkpt><trkpt lat="46.1630067" lon="12.8929602"><ele>173.5</ele><time>2026-04-04T15:03:13.067Z</time></trkpt><trkpt lat="46.1629487" lon="12.8928041"><ele>173.25</ele><time>2026-04-04T15:03:14.067Z</time></trkpt><trkpt lat="46.1629008" lon="12.8926411"><ele>173.0</ele><time>2026-04-04T15:03:15.066Z</time></trkpt><trkpt lat="46.1628552" lon="12.8924856"><ele>173.66666666666666</ele><time>2026-04-04T15:03:16.067Z</time></trkpt><trkpt lat="46.162818" lon="12.8923651"><ele>174.33333333333331</ele><time>2026-04-04T15:03:17.066Z</time></trkpt><trkpt lat="46.1627772" lon="12.8922535"><ele>175.0</ele><time>2026-04-04T15:03:19.066Z</time></trkpt><trkpt lat="46.1627425" lon="12.8921704"><ele>175.66666666666666</ele><time>2026-04-04T15:03:22.067Z</time></trkpt><trkpt lat="46.1627195" lon="12.8920838"><ele>176.33333333333334</ele><time>2026-04-04T15:03:31.067Z</time></trkpt><trkpt lat="46.16266" lon="12.8919526"><ele>177.0</ele><time>2026-04-04T15:03:33.066Z</time></trkpt><trkpt lat="46.1626217" lon="12.891857"><ele>177.39999999999998</ele><time>2026-04-04T15:03:34.066Z</time></trkpt><trkpt lat="46.1625764" lon="12.8917439"><ele>177.79999999999998</ele><time>2026-04-04T15:03:35.066Z</time></trkpt><trkpt lat="46.162528" lon="12.8916313"><ele>178.2</ele><time>2026-04-04T15:03:36.067Z</time></trkpt><trkpt lat="46.1624656" lon="12.8915299"><ele>178.6</ele><time>2026-04-04T15:03:37.068Z</time></trkpt><trkpt lat="46.1623918" lon="12.8914324"><ele>179.0</ele><time>2026-04-04T15:03:38.068Z</time></trkpt><trkpt lat="46.1623094" lon="12.8913441"><ele>179.0</ele><time>2026-04-04T15:03:39.066Z</time></trkpt><trkpt lat="46.1622325" lon="12.891258"><ele>179.0</ele><time>2026-04-04T15:03:40.066Z</time></trkpt><trkpt lat="46.1621627" lon="12.891168"><ele>179.0</ele><time>2026-04-04T15:03:41.067Z</time></trkpt><trkpt lat="46.1620998" lon="12.8910563"><ele>179.0</ele><time>2026-04-04T15:03:42.067Z</time></trkpt><trkpt lat="46.1620468" lon="12.8909187"><ele>179.0</ele><time>2026-04-04T15:03:43.068Z</time></trkpt><trkpt lat="46.1619996" lon="12.8907668"><ele>179.25</ele><time>2026-04-04T15:03:44.066Z</time></trkpt><trkpt lat="46.1619506" lon="12.8906024"><ele>179.5</ele><time>2026-04-04T15:03:45.067Z</time></trkpt><trkpt lat="46.1619034" lon="12.8904294"><ele>179.75</ele><time>2026-04-04T15:03:46.067Z</time></trkpt><trkpt lat="46.1618644" lon="12.8902568"><ele>180.0</ele><time>2026-04-04T15:03:47.066Z</time></trkpt><trkpt lat="46.1618273" lon="12.8900847"><ele>180.0</ele><time>2026-04-04T15:03:48.066Z</time></trkpt><trkpt lat="46.1617851" lon="12.8899152"><ele>180.0</ele><time>2026-04-04T15:03:49.066Z</time></trkpt><trkpt lat="46.1617349" lon="12.8897443"><ele>180.0</ele><time>2026-04-04T15:03:50.067Z</time></trkpt><trkpt lat="46.1616809" lon="12.8895785"><ele>180.0</ele><time>2026-04-04T15:03:51.067Z</time></trkpt><trkpt lat="46.1616172" lon="12.8894024"><ele>180.0</ele><time>2026-04-04T15:03:52.067Z</time></trkpt><trkpt lat="46.1615511" lon="12.8892242"><ele>180.0</ele><time>2026-04-04T15:03:53.067Z</time></trkpt><trkpt lat="46.161506" lon="12.8890682"><ele>180.0</ele><time>2026-04-04T15:03:54.068Z</time></trkpt><trkpt lat="46.1614601" lon="12.8888953"><ele>180.0</ele><time>2026-04-04T15:03:55.066Z</time></trkpt><trkpt lat="46.1614194" lon="12.88871"><ele>179.75</ele><time>2026-04-04T15:03:56.067Z</time></trkpt><trkpt lat="46.1613772" lon="12.8885158"><ele>179.5</ele><time>2026-04-04T15:03:57.068Z</time></trkpt><trkpt lat="46.1613346" lon="12.8883141"><ele>179.25</ele><time>2026-04-04T15:03:58.066Z</time></trkpt><trkpt lat="46.1612937" lon="12.8881082"><ele>179.0</ele><time>2026-04-04T15:03:59.066Z</time></trkpt><trkpt lat="46.1612587" lon="12.8879083"><ele>179.0</ele><time>2026-04-04T15:04:00.067Z</time></trkpt><trkpt lat="46.1612272" lon="12.8877159"><ele>179.0</ele><time>2026-04-04T15:04:01.067Z</time></trkpt><trkpt lat="46.1611959" lon="12.8875404"><ele>179.0</ele><time>2026-04-04T15:04:02.066Z</time></trkpt><trkpt lat="46.1611658" lon="12.8873871"><ele>179.0</ele><time>2026-04-04T15:04:03.067Z</time></trkpt><trkpt lat="46.1611391" lon="12.8872458"><ele>179.16666666666666</ele><time>2026-04-04T15:04:04.066Z</time></trkpt><trkpt lat="46.1611152" lon="12.8871119"><ele>179.33333333333331</ele><time>2026-04-04T15:04:05.067Z</time></trkpt><trkpt lat="46.1610943" lon="12.8869845"><ele>179.5</ele><time>2026-04-04T15:04:06.066Z</time></trkpt><trkpt lat="46.161074" lon="12.8868589"><ele>179.66666666666666</ele><time>2026-04-04T15:04:07.067Z</time></trkpt><trkpt lat="46.1610577" lon="12.886752"><ele>179.83333333333334</ele><time>2026-04-04T15:04:08.066Z</time></trkpt><trkpt lat="46.1610449" lon="12.886653"><ele>180.0</ele><time>2026-04-04T15:04:09.067Z</time></trkpt><trkpt lat="46.1610432" lon="12.886549"><ele>180.2</ele><time>2026-04-04T15:04:10.066Z</time></trkpt><trkpt lat="46.1610529" lon="12.8864301"><ele>180.4</ele><time>2026-04-04T15:04:11.067Z</time></trkpt><trkpt lat="46.1610488" lon="12.886298"><ele>180.60000000000002</ele><time>2026-04-04T15:04:12.066Z</time></trkpt><trkpt lat="46.161033" lon="12.8861547"><ele>180.8</ele><time>2026-04-04T15:04:13.067Z</time></trkpt><trkpt lat="46.1610281" lon="12.8859958"><ele>181.0</ele><time>2026-04-04T15:04:14.067Z</time></trkpt><trkpt lat="46.1610306" lon="12.8858275"><ele>181.0</ele><time>2026-04-04T15:04:15.066Z</time></trkpt><trkpt lat="46.1610344" lon="12.8856583"><ele>181.0</ele><time>2026-04-04T15:04:16.067Z</time></trkpt><trkpt lat="46.1610305" lon="12.8855025"><ele>181.0</ele><time>2026-04-04T15:04:17.067Z</time></trkpt><trkpt lat="46.1610225" lon="12.8853493"><ele>181.0</ele><time>2026-04-04T15:04:18.066Z</time></trkpt><trkpt lat="46.1610079" lon="12.885187"><ele>181.0</ele><time>2026-04-04T15:04:19.067Z</time></trkpt><trkpt lat="46.1609837" lon="12.8850198"><ele>181.25</ele><time>2026-04-04T15:04:20.066Z</time></trkpt><trkpt lat="46.1609517" lon="12.8848459"><ele>181.5</ele><time>2026-04-04T15:04:21.068Z</time></trkpt><trkpt lat="46.1609156" lon="12.8846613"><ele>181.75</ele><time>2026-04-04T15:04:22.067Z</time></trkpt><trkpt lat="46.1608829" lon="12.8844699"><ele>182.0</ele><time>2026-04-04T15:04:23.067Z</time></trkpt><trkpt lat="46.1608451" lon="12.8842908"><ele>181.75</ele><time>2026-04-04T15:04:24.067Z</time></trkpt><trkpt lat="46.1608088" lon="12.8841169"><ele>181.5</ele><time>2026-04-04T15:04:25.067Z</time></trkpt><trkpt lat="46.1607722" lon="12.8839455"><ele>181.25</ele><time>2026-04-04T15:04:26.067Z</time></trkpt><trkpt lat="46.1607353" lon="12.88377"><ele>181.0</ele><time>2026-04-04T15:04:27.067Z</time></trkpt><trkpt lat="46.1606986" lon="12.8835927"><ele>180.0</ele><time>2026-04-04T15:04:28.066Z</time></trkpt><trkpt lat="46.1606605" lon="12.8834139"><ele>179.0</ele><time>2026-04-04T15:04:29.066Z</time></trkpt><trkpt lat="46.1606198" lon="12.8832267"><ele>178.0</ele><time>2026-04-04T15:04:30.066Z</time></trkpt><trkpt lat="46.1605838" lon="12.8830347"><ele>177.0</ele><time>2026-04-04T15:04:31.067Z</time></trkpt><trkpt lat="46.16055" lon="12.8828483"><ele>177.0</ele><time>2026-04-04T15:04:32.067Z</time></trkpt><trkpt lat="46.1605136" lon="12.8826679"><ele>177.0</ele><time>2026-04-04T15:04:33.067Z</time></trkpt><trkpt lat="46.160475" lon="12.8824923"><ele>177.0</ele><time>2026-04-04T15:04:34.067Z</time></trkpt><trkpt lat="46.160439" lon="12.8823186"><ele>177.0</ele><time>2026-04-04T15:04:35.067Z</time></trkpt><trkpt lat="46.1604056" lon="12.8821348"><ele>177.0</ele><time>2026-04-04T15:04:36.066Z</time></trkpt><trkpt lat="46.1603842" lon="12.88194"><ele>177.0</ele><time>2026-04-04T15:04:37.066Z</time></trkpt><trkpt lat="46.1603763" lon="12.8817356"><ele>177.0</ele><time>2026-04-04T15:04:38.066Z</time></trkpt><trkpt lat="46.1603856" lon="12.8815224"><ele>177.0</ele><time>2026-04-04T15:04:39.067Z</time></trkpt><trkpt lat="46.1604127" lon="12.8812963"><ele>177.0</ele><time>2026-04-04T15:04:40.067Z</time></trkpt><trkpt lat="46.1604546" lon="12.8810553"><ele>177.0</ele><time>2026-04-04T15:04:41.066Z</time></trkpt><trkpt lat="46.1604899" lon="12.880795"><ele>177.0</ele><time>2026-04-04T15:04:42.067Z</time></trkpt><trkpt lat="46.1605062" lon="12.8805223"><ele>177.0</ele><time>2026-04-04T15:04:43.067Z</time></trkpt><trkpt lat="46.1605116" lon="12.8802408"><ele>177.0</ele><time>2026-04-04T15:04:44.067Z</time></trkpt><trkpt lat="46.1605075" lon="12.8799595"><ele>177.0</ele><time>2026-04-04T15:04:45.068Z</time></trkpt><trkpt lat="46.1604983" lon="12.8796878"><ele>177.0</ele><time>2026-04-04T15:04:46.067Z</time></trkpt><trkpt lat="46.1604886" lon="12.8794234"><ele>177.0</ele><time>2026-04-04T15:04:47.067Z</time></trkpt><trkpt lat="46.1604717" lon="12.8791562"><ele>177.0</ele><time>2026-04-04T15:04:48.066Z</time></trkpt><trkpt lat="46.1604418" lon="12.8788841"><ele>176.33333333333334</ele><time>2026-04-04T15:04:49.066Z</time></trkpt><trkpt lat="46.1604015" lon="12.8786106"><ele>175.66666666666669</ele><time>2026-04-04T15:04:50.067Z</time></trkpt><trkpt lat="46.1603515" lon="12.8783356"><ele>175.0</ele><time>2026-04-04T15:04:51.067Z</time></trkpt><trkpt lat="46.1602973" lon="12.8780577"><ele>174.66666666666669</ele><time>2026-04-04T15:04:52.066Z</time></trkpt><trkpt lat="46.1602406" lon="12.8777783"><ele>174.33333333333334</ele><time>2026-04-04T15:04:53.067Z</time></trkpt><trkpt lat="46.1601838" lon="12.8774991"><ele>174.0</ele><time>2026-04-04T15:04:54.068Z</time></trkpt><trkpt lat="46.1601245" lon="12.8772172"><ele>174.66666666666666</ele><time>2026-04-04T15:04:55.066Z</time></trkpt><trkpt lat="46.1600639" lon="12.8769354"><ele>175.33333333333331</ele><time>2026-04-04T15:04:56.068Z</time></trkpt><trkpt lat="46.1600055" lon="12.8766543"><ele>176.0</ele><time>2026-04-04T15:04:57.067Z</time></trkpt><trkpt lat="46.1599473" lon="12.8763735"><ele>176.33333333333331</ele><time>2026-04-04T15:04:58.067Z</time></trkpt><trkpt lat="46.1598884" lon="12.8760948"><ele>176.66666666666666</ele><time>2026-04-04T15:04:59.066Z</time></trkpt><trkpt lat="46.1598295" lon="12.8758152"><ele>177.0</ele><time>2026-04-04T15:05:00.066Z</time></trkpt><trkpt lat="46.1597706" lon="12.8755344"><ele>175.66666666666666</ele><time>2026-04-04T15:05:01.066Z</time></trkpt><trkpt lat="46.1597114" lon="12.8752539"><ele>174.33333333333331</ele><time>2026-04-04T15:05:02.066Z</time></trkpt><trkpt lat="46.1596509" lon="12.8749708"><ele>173.0</ele><time>2026-04-04T15:05:03.066Z</time></trkpt><trkpt lat="46.159587" lon="12.8746877"><ele>172.66666666666666</ele><time>2026-04-04T15:05:04.067Z</time></trkpt><trkpt lat="46.1595206" lon="12.8744039"><ele>172.33333333333334</ele><time>2026-04-04T15:05:05.068Z</time></trkpt><trkpt lat="46.159453" lon="12.8741189"><ele>172.0</ele><time>2026-04-04T15:05:06.067Z</time></trkpt><trkpt lat="46.1593839" lon="12.8738324"><ele>172.0</ele><time>2026-04-04T15:05:07.067Z</time></trkpt><trkpt lat="46.1593165" lon="12.8735439"><ele>172.0</ele><time>2026-04-04T15:05:08.066Z</time></trkpt><trkpt lat="46.1592485" lon="12.8732554"><ele>172.0</ele><time>2026-04-04T15:05:09.067Z</time></trkpt><trkpt lat="46.1591807" lon="12.8729675"><ele>171.66666666666669</ele><time>2026-04-04T15:05:10.066Z</time></trkpt><trkpt lat="46.159114" lon="12.8726787"><ele>171.33333333333334</ele><time>2026-04-04T15:05:11.066Z</time></trkpt><trkpt lat="46.1590491" lon="12.8723916"><ele>171.0</ele><time>2026-04-04T15:05:12.066Z</time></trkpt><trkpt lat="46.1589845" lon="12.8721107"><ele>170.66666666666666</ele><time>2026-04-04T15:05:13.068Z</time></trkpt><trkpt lat="46.1589216" lon="12.871838"><ele>170.33333333333331</ele><time>2026-04-04T15:05:14.068Z</time></trkpt><trkpt lat="46.1588638" lon="12.8715631"><ele>170.0</ele><time>2026-04-04T15:05:15.066Z</time></trkpt><trkpt lat="46.1588201" lon="12.8712812"><ele>170.0</ele><time>2026-04-04T15:05:16.067Z</time></trkpt><trkpt lat="46.1587936" lon="12.8709939"><ele>170.0</ele><time>2026-04-04T15:05:17.067Z</time></trkpt><trkpt lat="46.15878" lon="12.8706983"><ele>170.0</ele><time>2026-04-04T15:05:18.067Z</time></trkpt><trkpt lat="46.1587754" lon="12.8703961"><ele>169.66666666666666</ele><time>2026-04-04T15:05:19.067Z</time></trkpt><trkpt lat="46.1587683" lon="12.8700905"><ele>169.33333333333334</ele><time>2026-04-04T15:05:20.067Z</time></trkpt><trkpt lat="46.1587592" lon="12.8697927"><ele>169.0</ele><time>2026-04-04T15:05:21.067Z</time></trkpt><trkpt lat="46.1587503" lon="12.8695008"><ele>169.33333333333334</ele><time>2026-04-04T15:05:22.066Z</time></trkpt><trkpt lat="46.1587381" lon="12.8692145"><ele>169.66666666666666</ele><time>2026-04-04T15:05:23.067Z</time></trkpt><trkpt lat="46.1587201" lon="12.8689307"><ele>170.0</ele><time>2026-04-04T15:05:24.067Z</time></trkpt><trkpt lat="46.1586885" lon="12.8686465"><ele>169.33333333333331</ele><time>2026-04-04T15:05:25.068Z</time></trkpt><trkpt lat="46.1586395" lon="12.8683519"><ele>168.66666666666666</ele><time>2026-04-04T15:05:26.066Z</time></trkpt><trkpt lat="46.1585722" lon="12.8680464"><ele>168.0</ele><time>2026-04-04T15:05:27.066Z</time></trkpt><trkpt lat="46.1584953" lon="12.8677275"><ele>168.0</ele><time>2026-04-04T15:05:28.068Z</time></trkpt><trkpt lat="46.158418" lon="12.8673881"><ele>168.0</ele><time>2026-04-04T15:05:29.067Z</time></trkpt><trkpt lat="46.1583434" lon="12.8670222"><ele>168.5</ele><time>2026-04-04T15:05:30.066Z</time></trkpt><trkpt lat="46.1582748" lon="12.8666326"><ele>169.0</ele><time>2026-04-04T15:05:31.066Z</time></trkpt><trkpt lat="46.1582123" lon="12.8662188"><ele>169.0</ele><time>2026-04-04T15:05:32.066Z</time></trkpt><trkpt lat="46.158153" lon="12.8657832"><ele>169.0</ele><time>2026-04-04T15:05:33.066Z</time></trkpt><trkpt lat="46.1581009" lon="12.8653567"><ele>169.0</ele><time>2026-04-04T15:05:34.066Z</time></trkpt><trkpt lat="46.1580564" lon="12.8649544"><ele>169.0</ele><time>2026-04-04T15:05:35.066Z</time></trkpt><trkpt lat="46.1580272" lon="12.8645689"><ele>170.0</ele><time>2026-04-04T15:05:36.067Z</time></trkpt><trkpt lat="46.1580081" lon="12.8641945"><ele>171.0</ele><time>2026-04-04T15:05:37.068Z</time></trkpt><trkpt lat="46.1579944" lon="12.8638306"><ele>171.0</ele><time>2026-04-04T15:05:38.067Z</time></trkpt><trkpt lat="46.1579813" lon="12.8634884"><ele>171.0</ele><time>2026-04-04T15:05:39.066Z</time></trkpt><trkpt lat="46.1579663" lon="12.8631727"><ele>171.0</ele><time>2026-04-04T15:05:40.068Z</time></trkpt><trkpt lat="46.1579577" lon="12.8628757"><ele>171.0</ele><time>2026-04-04T15:05:41.067Z</time></trkpt><trkpt lat="46.157956" lon="12.8625896"><ele>171.0</ele><time>2026-04-04T15:05:42.066Z</time></trkpt><trkpt lat="46.1579705" lon="12.862314"><ele>171.0</ele><time>2026-04-04T15:05:43.066Z</time></trkpt><trkpt lat="46.1580138" lon="12.862045"><ele>171.0</ele><time>2026-04-04T15:05:44.068Z</time></trkpt><trkpt lat="46.1580734" lon="12.8617746"><ele>171.0</ele><time>2026-04-04T15:05:45.068Z</time></trkpt><trkpt lat="46.1581345" lon="12.8614881"><ele>171.5</ele><time>2026-04-04T15:05:46.068Z</time></trkpt><trkpt lat="46.1581995" lon="12.8611844"><ele>172.0</ele><time>2026-04-04T15:05:47.067Z</time></trkpt><trkpt lat="46.1582687" lon="12.860862"><ele>172.0</ele><time>2026-04-04T15:05:48.068Z</time></trkpt><trkpt lat="46.1583424" lon="12.86052"><ele>172.0</ele><time>2026-04-04T15:05:49.067Z</time></trkpt><trkpt lat="46.1584173" lon="12.8601599"><ele>172.5</ele><time>2026-04-04T15:05:50.067Z</time></trkpt><trkpt lat="46.158497" lon="12.8597789"><ele>173.0</ele><time>2026-04-04T15:05:51.068Z</time></trkpt><trkpt lat="46.1585793" lon="12.8593798"><ele>174.0</ele><time>2026-04-04T15:05:52.067Z</time></trkpt><trkpt lat="46.1586652" lon="12.8589633"><ele>175.0</ele><time>2026-04-04T15:05:53.067Z</time></trkpt><trkpt lat="46.1587527" lon="12.8585382"><ele>175.0</ele><time>2026-04-04T15:05:54.068Z</time></trkpt><trkpt lat="46.1588407" lon="12.8581182"><ele>175.0</ele><time>2026-04-04T15:05:55.067Z</time></trkpt><trkpt lat="46.1589258" lon="12.8577052"><ele>175.5</ele><time>2026-04-04T15:05:56.068Z</time></trkpt><trkpt lat="46.1590074" lon="12.8573051"><ele>176.0</ele><time>2026-04-04T15:05:57.067Z</time></trkpt><trkpt lat="46.1590873" lon="12.8569206"><ele>177.0</ele><time>2026-04-04T15:05:58.069Z</time></trkpt><trkpt lat="46.1591648" lon="12.8565498"><ele>178.0</ele><time>2026-04-04T15:05:59.068Z</time></trkpt><trkpt lat="46.1592362" lon="12.8561953"><ele>178.5</ele><time>2026-04-04T15:06:00.068Z</time></trkpt><trkpt lat="46.1593042" lon="12.8558638"><ele>179.0</ele><time>2026-04-04T15:06:01.068Z</time></trkpt><trkpt lat="46.1593663" lon="12.8555498"><ele>179.0</ele><time>2026-04-04T15:06:02.068Z</time></trkpt><trkpt lat="46.1594313" lon="12.855256"><ele>179.0</ele><time>2026-04-04T15:06:03.068Z</time></trkpt><trkpt lat="46.1595107" lon="12.8549808"><ele>179.0</ele><time>2026-04-04T15:06:04.067Z</time></trkpt><trkpt lat="46.1596119" lon="12.8547222"><ele>179.66666666666666</ele><time>2026-04-04T15:06:05.067Z</time></trkpt><trkpt lat="46.1597304" lon="12.8544628"><ele>180.33333333333334</ele><time>2026-04-04T15:06:06.067Z</time></trkpt><trkpt lat="46.1598557" lon="12.8541938"><ele>181.0</ele><time>2026-04-04T15:06:07.068Z</time></trkpt><trkpt lat="46.1599798" lon="12.8539174"><ele>181.0</ele><time>2026-04-04T15:06:08.069Z</time></trkpt><trkpt lat="46.1601041" lon="12.8536394"><ele>181.0</ele><time>2026-04-04T15:06:09.067Z</time></trkpt><trkpt lat="46.1602291" lon="12.8533578"><ele>182.0</ele><time>2026-04-04T15:06:10.067Z</time></trkpt><trkpt lat="46.1603548" lon="12.8530847"><ele>183.0</ele><time>2026-04-04T15:06:11.068Z</time></trkpt><trkpt lat="46.1604769" lon="12.8528187"><ele>184.0</ele><time>2026-04-04T15:06:12.067Z</time></trkpt><trkpt lat="46.1605936" lon="12.8525521"><ele>184.33333333333334</ele><time>2026-04-04T15:06:13.068Z</time></trkpt><trkpt lat="46.1606988" lon="12.8522816"><ele>184.66666666666666</ele><time>2026-04-04T15:06:14.068Z</time></trkpt><trkpt lat="46.1607808" lon="12.8519999"><ele>185.0</ele><time>2026-04-04T15:06:15.068Z</time></trkpt><trkpt lat="46.1608474" lon="12.8517103"><ele>185.33333333333331</ele><time>2026-04-04T15:06:16.068Z</time></trkpt><trkpt lat="46.160892" lon="12.8514173"><ele>185.66666666666666</ele><time>2026-04-04T15:06:17.067Z</time></trkpt><trkpt lat="46.1609139" lon="12.851119"><ele>186.0</ele><time>2026-04-04T15:06:18.067Z</time></trkpt><trkpt lat="46.1609141" lon="12.8508203"><ele>186.0</ele><time>2026-04-04T15:06:19.068Z</time></trkpt><trkpt lat="46.1608946" lon="12.850519"><ele>186.0</ele><time>2026-04-04T15:06:20.068Z</time></trkpt><trkpt lat="46.1608541" lon="12.850221"><ele>186.0</ele><time>2026-04-04T15:06:21.068Z</time></trkpt><trkpt lat="46.160792" lon="12.8499207"><ele>186.5</ele><time>2026-04-04T15:06:22.068Z</time></trkpt><trkpt lat="46.1607184" lon="12.8496166"><ele>187.0</ele><time>2026-04-04T15:06:23.067Z</time></trkpt><trkpt lat="46.160641" lon="12.8493015"><ele>188.0</ele><time>2026-04-04T15:06:24.068Z</time></trkpt><trkpt lat="46.1605639" lon="12.8489773"><ele>189.0</ele><time>2026-04-04T15:06:25.067Z</time></trkpt><trkpt lat="46.1604862" lon="12.8486542"><ele>189.0</ele><time>2026-04-04T15:06:26.067Z</time></trkpt><trkpt lat="46.1604113" lon="12.8483349"><ele>189.0</ele><time>2026-04-04T15:06:27.067Z</time></trkpt><trkpt lat="46.1603375" lon="12.8480286"><ele>189.0</ele><time>2026-04-04T15:06:28.067Z</time></trkpt><trkpt lat="46.1602678" lon="12.8477386"><ele>189.0</ele><time>2026-04-04T15:06:29.068Z</time></trkpt><trkpt lat="46.1602021" lon="12.8474639"><ele>189.0</ele><time>2026-04-04T15:06:30.068Z</time></trkpt><trkpt lat="46.1601393" lon="12.847195"><ele>189.33333333333334</ele><time>2026-04-04T15:06:31.069Z</time></trkpt><trkpt lat="46.160081" lon="12.8469246"><ele>189.66666666666669</ele><time>2026-04-04T15:06:32.069Z</time></trkpt><trkpt lat="46.1600307" lon="12.8466462"><ele>190.0</ele><time>2026-04-04T15:06:33.067Z</time></trkpt><trkpt lat="46.15999" lon="12.8463562"><ele>190.33333333333334</ele><time>2026-04-04T15:06:34.068Z</time></trkpt><trkpt lat="46.1599576" lon="12.8460452"><ele>190.66666666666666</ele><time>2026-04-04T15:06:35.067Z</time></trkpt><trkpt lat="46.1599311" lon="12.8457238"><ele>191.0</ele><time>2026-04-04T15:06:36.068Z</time></trkpt><trkpt lat="46.1599079" lon="12.8453877"><ele>192.0</ele><time>2026-04-04T15:06:37.068Z</time></trkpt><trkpt lat="46.1598855" lon="12.8450487"><ele>193.0</ele><time>2026-04-04T15:06:38.068Z</time></trkpt><trkpt lat="46.1598602" lon="12.844709"><ele>193.5</ele><time>2026-04-04T15:06:39.068Z</time></trkpt><trkpt lat="46.1598345" lon="12.8443693"><ele>194.0</ele><time>2026-04-04T15:06:40.068Z</time></trkpt><trkpt lat="46.1598073" lon="12.844027"><ele>195.0</ele><time>2026-04-04T15:06:41.067Z</time></trkpt><trkpt lat="46.1597808" lon="12.8436896"><ele>196.0</ele><time>2026-04-04T15:06:42.067Z</time></trkpt><trkpt lat="46.1597552" lon="12.8433635"><ele>196.0</ele><time>2026-04-04T15:06:43.068Z</time></trkpt><trkpt lat="46.1597301" lon="12.8430502"><ele>196.0</ele><time>2026-04-04T15:06:44.068Z</time></trkpt><trkpt lat="46.159708" lon="12.8427493"><ele>196.0</ele><time>2026-04-04T15:06:45.069Z</time></trkpt><trkpt lat="46.1596871" lon="12.842464"><ele>195.66666666666666</ele><time>2026-04-04T15:06:46.067Z</time></trkpt><trkpt lat="46.1596666" lon="12.8421862"><ele>195.33333333333331</ele><time>2026-04-04T15:06:47.068Z</time></trkpt><trkpt lat="46.159647" lon="12.8419081"><ele>195.0</ele><time>2026-04-04T15:06:48.067Z</time></trkpt><trkpt lat="46.1596283" lon="12.8416344"><ele>194.33333333333331</ele><time>2026-04-04T15:06:49.068Z</time></trkpt><trkpt lat="46.1596095" lon="12.8413615"><ele>193.66666666666666</ele><time>2026-04-04T15:06:50.068Z</time></trkpt><trkpt lat="46.1595917" lon="12.8410892"><ele>193.0</ele><time>2026-04-04T15:06:51.069Z</time></trkpt><trkpt lat="46.159575" lon="12.8408132"><ele>194.33333333333331</ele><time>2026-04-04T15:06:52.067Z</time></trkpt><trkpt lat="46.1595622" lon="12.8405302"><ele>195.66666666666669</ele><time>2026-04-04T15:06:53.068Z</time></trkpt><trkpt lat="46.15955" lon="12.8402441"><ele>197.0</ele><time>2026-04-04T15:06:54.067Z</time></trkpt><trkpt lat="46.1595394" lon="12.8399572"><ele>197.0</ele><time>2026-04-04T15:06:55.068Z</time></trkpt><trkpt lat="46.1595265" lon="12.8396784"><ele>197.0</ele><time>2026-04-04T15:06:56.067Z</time></trkpt><trkpt lat="46.1595154" lon="12.839413"><ele>197.0</ele><time>2026-04-04T15:06:57.067Z</time></trkpt><trkpt lat="46.1595047" lon="12.8391637"><ele>197.66666666666669</ele><time>2026-04-04T15:06:58.067Z</time></trkpt><trkpt lat="46.1594947" lon="12.8389259"><ele>198.33333333333331</ele><time>2026-04-04T15:06:59.068Z</time></trkpt><trkpt lat="46.1594836" lon="12.8387043"><ele>199.0</ele><time>2026-04-04T15:07:00.068Z</time></trkpt><trkpt lat="46.1594724" lon="12.8384952"><ele>199.0</ele><time>2026-04-04T15:07:01.067Z</time></trkpt><trkpt lat="46.1594639" lon="12.8382971"><ele>199.0</ele><time>2026-04-04T15:07:02.068Z</time></trkpt><trkpt lat="46.1594561" lon="12.8381118"><ele>199.0</ele><time>2026-04-04T15:07:03.068Z</time></trkpt><trkpt lat="46.1594474" lon="12.8379443"><ele>199.0</ele><time>2026-04-04T15:07:04.067Z</time></trkpt><trkpt lat="46.1594423" lon="12.8377924"><ele>199.0</ele><time>2026-04-04T15:07:05.067Z</time></trkpt><trkpt lat="46.1594359" lon="12.837655"><ele>199.0</ele><time>2026-04-04T15:07:06.069Z</time></trkpt><trkpt lat="46.1594325" lon="12.8375168"><ele>199.0</ele><time>2026-04-04T15:07:07.067Z</time></trkpt><trkpt lat="46.1594442" lon="12.837386"><ele>199.0</ele><time>2026-04-04T15:07:08.068Z</time></trkpt><trkpt lat="46.1594747" lon="12.8372723"><ele>199.0</ele><time>2026-04-04T15:07:09.068Z</time></trkpt><trkpt lat="46.1595297" lon="12.8371655"><ele>199.49999999999997</ele><time>2026-04-04T15:07:10.067Z</time></trkpt><trkpt lat="46.1595973" lon="12.8370711"><ele>200.0</ele><time>2026-04-04T15:07:11.069Z</time></trkpt><trkpt lat="46.1596475" lon="12.8369732"><ele>200.5</ele><time>2026-04-04T15:07:12.068Z</time></trkpt><trkpt lat="46.1596774" lon="12.8368612"><ele>201.0</ele><time>2026-04-04T15:07:13.067Z</time></trkpt><trkpt lat="46.1596781" lon="12.8367333"><ele>201.49999999999997</ele><time>2026-04-04T15:07:14.067Z</time></trkpt><trkpt lat="46.1596508" lon="12.8366085"><ele>202.0</ele><time>2026-04-04T15:07:15.067Z</time></trkpt><trkpt lat="46.1595963" lon="12.8365006"><ele>202.2</ele><time>2026-04-04T15:07:16.068Z</time></trkpt><trkpt lat="46.1595188" lon="12.8364215"><ele>202.39999999999998</ele><time>2026-04-04T15:07:17.068Z</time></trkpt><trkpt lat="46.1594285" lon="12.8363673"><ele>202.60000000000002</ele><time>2026-04-04T15:07:18.068Z</time></trkpt><trkpt lat="46.1593406" lon="12.8362879"><ele>202.8</ele><time>2026-04-04T15:07:19.068Z</time></trkpt><trkpt lat="46.159269" lon="12.8361769"><ele>203.0</ele><time>2026-04-04T15:07:20.068Z</time></trkpt><trkpt lat="46.1592232" lon="12.8360442"><ele>203.5</ele><time>2026-04-04T15:07:21.069Z</time></trkpt><trkpt lat="46.1592061" lon="12.8359022"><ele>204.0</ele><time>2026-04-04T15:07:22.068Z</time></trkpt><trkpt lat="46.1592109" lon="12.8357401"><ele>204.5</ele><time>2026-04-04T15:07:23.067Z</time></trkpt><trkpt lat="46.1592252" lon="12.8355574"><ele>205.0</ele><time>2026-04-04T15:07:24.067Z</time></trkpt><trkpt lat="46.1592363" lon="12.835361"><ele>205.0</ele><time>2026-04-04T15:07:25.068Z</time></trkpt><trkpt lat="46.1592438" lon="12.835154"><ele>205.0</ele><time>2026-04-04T15:07:26.069Z</time></trkpt><trkpt lat="46.1592458" lon="12.8349332"><ele>205.0</ele><time>2026-04-04T15:07:27.067Z</time></trkpt><trkpt lat="46.1592426" lon="12.8347018"><ele>205.0</ele><time>2026-04-04T15:07:28.068Z</time></trkpt><trkpt lat="46.1592308" lon="12.8344545"><ele>205.0</ele><time>2026-04-04T15:07:29.068Z</time></trkpt><trkpt lat="46.1592094" lon="12.8341944"><ele>205.0</ele><time>2026-04-04T15:07:30.069Z</time></trkpt><trkpt lat="46.1591829" lon="12.8339237"><ele>205.0</ele><time>2026-04-04T15:07:31.068Z</time></trkpt><trkpt lat="46.159152" lon="12.8336467"><ele>205.0</ele><time>2026-04-04T15:07:32.067Z</time></trkpt><trkpt lat="46.1591231" lon="12.83337"><ele>205.0</ele><time>2026-04-04T15:07:33.069Z</time></trkpt><trkpt lat="46.1590971" lon="12.8330975"><ele>206.0</ele><time>2026-04-04T15:07:34.068Z</time></trkpt><trkpt lat="46.1590722" lon="12.8328395"><ele>207.0</ele><time>2026-04-04T15:07:35.068Z</time></trkpt><trkpt lat="46.1590475" lon="12.8325878"><ele>208.0</ele><time>2026-04-04T15:07:36.069Z</time></trkpt><trkpt lat="46.1590231" lon="12.8323375"><ele>208.0</ele><time>2026-04-04T15:07:37.067Z</time></trkpt><trkpt lat="46.1589981" lon="12.8320899"><ele>208.0</ele><time>2026-04-04T15:07:38.067Z</time></trkpt><trkpt lat="46.1589713" lon="12.8318429"><ele>208.0</ele><time>2026-04-04T15:07:39.067Z</time></trkpt><trkpt lat="46.1589459" lon="12.8315958"><ele>208.0</ele><time>2026-04-04T15:07:40.068Z</time></trkpt><trkpt lat="46.1589198" lon="12.8313442"><ele>208.0</ele><time>2026-04-04T15:07:41.068Z</time></trkpt><trkpt lat="46.1588892" lon="12.8310812"><ele>208.0</ele><time>2026-04-04T15:07:42.068Z</time></trkpt><trkpt lat="46.158859" lon="12.8308026"><ele>208.66666666666666</ele><time>2026-04-04T15:07:43.067Z</time></trkpt><trkpt lat="46.158828" lon="12.8305131"><ele>209.33333333333331</ele><time>2026-04-04T15:07:44.068Z</time></trkpt><trkpt lat="46.1587969" lon="12.8302096"><ele>210.0</ele><time>2026-04-04T15:07:45.067Z</time></trkpt><trkpt lat="46.1587658" lon="12.8298956"><ele>210.33333333333331</ele><time>2026-04-04T15:07:46.068Z</time></trkpt><trkpt lat="46.1587353" lon="12.8295756"><ele>210.66666666666666</ele><time>2026-04-04T15:07:47.069Z</time></trkpt><trkpt lat="46.1587052" lon="12.8292528"><ele>211.0</ele><time>2026-04-04T15:07:48.068Z</time></trkpt><trkpt lat="46.1586727" lon="12.8289293"><ele>211.5</ele><time>2026-04-04T15:07:49.067Z</time></trkpt><trkpt lat="46.158637" lon="12.8285915"><ele>212.0</ele><time>2026-04-04T15:07:50.068Z</time></trkpt><trkpt lat="46.1585902" lon="12.8282347"><ele>212.0</ele><time>2026-04-04T15:07:51.069Z</time></trkpt><trkpt lat="46.1585423" lon="12.8278566"><ele>212.0</ele><time>2026-04-04T15:07:52.069Z</time></trkpt><trkpt lat="46.1585115" lon="12.8274498"><ele>212.5</ele><time>2026-04-04T15:07:53.068Z</time></trkpt><trkpt lat="46.1584842" lon="12.8270572"><ele>213.0</ele><time>2026-04-04T15:07:54.069Z</time></trkpt><trkpt lat="46.1584511" lon="12.8266879"><ele>213.5</ele><time>2026-04-04T15:07:55.067Z</time></trkpt><trkpt lat="46.1584298" lon="12.8263353"><ele>214.0</ele><time>2026-04-04T15:07:56.067Z</time></trkpt><trkpt lat="46.1584172" lon="12.8260003"><ele>213.5</ele><time>2026-04-04T15:07:57.068Z</time></trkpt><trkpt lat="46.158407" lon="12.8256736"><ele>213.0</ele><time>2026-04-04T15:07:58.068Z</time></trkpt><trkpt lat="46.1584021" lon="12.8253454"><ele>213.33333333333331</ele><time>2026-04-04T15:07:59.067Z</time></trkpt><trkpt lat="46.1584024" lon="12.8250263"><ele>213.66666666666666</ele><time>2026-04-04T15:08:00.067Z</time></trkpt><trkpt lat="46.158404" lon="12.8247087"><ele>214.0</ele><time>2026-04-04T15:08:01.069Z</time></trkpt><trkpt lat="46.1584057" lon="12.8243877"><ele>214.0</ele><time>2026-04-04T15:08:02.067Z</time></trkpt><trkpt lat="46.1583998" lon="12.8240708"><ele>214.0</ele><time>2026-04-04T15:08:03.067Z</time></trkpt><trkpt lat="46.1583846" lon="12.8237628"><ele>214.0</ele><time>2026-04-04T15:08:04.068Z</time></trkpt><trkpt lat="46.1583672" lon="12.8234691"><ele>214.0</ele><time>2026-04-04T15:08:05.067Z</time></trkpt><trkpt lat="46.1583519" lon="12.82318"><ele>214.0</ele><time>2026-04-04T15:08:06.068Z</time></trkpt><trkpt lat="46.1583403" lon="12.8228986"><ele>214.0</ele><time>2026-04-04T15:08:07.068Z</time></trkpt><trkpt lat="46.158336" lon="12.8226503"><ele>213.75</ele><time>2026-04-04T15:08:08.067Z</time></trkpt><trkpt lat="46.1583344" lon="12.8224328"><ele>213.5</ele><time>2026-04-04T15:08:09.068Z</time></trkpt><trkpt lat="46.158338" lon="12.8222457"><ele>213.25</ele><time>2026-04-04T15:08:10.067Z</time></trkpt><trkpt lat="46.1583514" lon="12.8220751"><ele>213.0</ele><time>2026-04-04T15:08:11.067Z</time></trkpt><trkpt lat="46.158391" lon="12.8219165"><ele>211.5</ele><time>2026-04-04T15:08:12.067Z</time></trkpt><trkpt lat="46.1584643" lon="12.8217645"><ele>210.0</ele><time>2026-04-04T15:08:13.067Z</time></trkpt><trkpt lat="46.1585657" lon="12.8216169"><ele>208.5</ele><time>2026-04-04T15:08:14.068Z</time></trkpt><trkpt lat="46.1586922" lon="12.8214824"><ele>207.0</ele><time>2026-04-04T15:08:15.067Z</time></trkpt><trkpt lat="46.1588371" lon="12.821361"><ele>207.0</ele><time>2026-04-04T15:08:16.068Z</time></trkpt><trkpt lat="46.158997" lon="12.8212384"><ele>207.0</ele><time>2026-04-04T15:08:17.067Z</time></trkpt><trkpt lat="46.1591678" lon="12.8211082"><ele>207.0</ele><time>2026-04-04T15:08:18.069Z</time></trkpt><trkpt lat="46.1593478" lon="12.8209714"><ele>207.0</ele><time>2026-04-04T15:08:19.068Z</time></trkpt><trkpt lat="46.1595301" lon="12.8208306"><ele>207.0</ele><time>2026-04-04T15:08:20.067Z</time></trkpt><trkpt lat="46.1597121" lon="12.8206894"><ele>207.0</ele><time>2026-04-04T15:08:21.069Z</time></trkpt><trkpt lat="46.1598959" lon="12.8205513"><ele>213.0</ele><time>2026-04-04T15:08:22.067Z</time></trkpt><trkpt lat="46.160074" lon="12.8204233"><ele>219.0</ele><time>2026-04-04T15:08:23.067Z</time></trkpt><trkpt lat="46.1602485" lon="12.820299"><ele>225.0</ele><time>2026-04-04T15:08:24.068Z</time></trkpt><trkpt lat="46.1604229" lon="12.8201739"><ele>222.66666666666669</ele><time>2026-04-04T15:08:25.068Z</time></trkpt><trkpt lat="46.1605995" lon="12.8200484"><ele>220.33333333333334</ele><time>2026-04-04T15:08:26.068Z</time></trkpt><trkpt lat="46.1607741" lon="12.8199179"><ele>218.0</ele><time>2026-04-04T15:08:27.068Z</time></trkpt><trkpt lat="46.1609424" lon="12.8197855"><ele>218.0</ele><time>2026-04-04T15:08:28.069Z</time></trkpt><trkpt lat="46.1611028" lon="12.819669"><ele>218.0</ele><time>2026-04-04T15:08:29.067Z</time></trkpt><trkpt lat="46.1612637" lon="12.8195634"><ele>218.0</ele><time>2026-04-04T15:08:30.067Z</time></trkpt><trkpt lat="46.1614441" lon="12.8194617"><ele>214.66666666666669</ele><time>2026-04-04T15:08:31.067Z</time></trkpt><trkpt lat="46.1616454" lon="12.8193745"><ele>211.33333333333331</ele><time>2026-04-04T15:08:32.068Z</time></trkpt><trkpt lat="46.1618623" lon="12.8192967"><ele>208.0</ele><time>2026-04-04T15:08:33.068Z</time></trkpt><trkpt lat="46.1620843" lon="12.8192147"><ele>208.0</ele><time>2026-04-04T15:08:34.068Z</time></trkpt><trkpt lat="46.1622923" lon="12.8191135"><ele>208.0</ele><time>2026-04-04T15:08:35.069Z</time></trkpt><trkpt lat="46.1624843" lon="12.8189794"><ele>208.0</ele><time>2026-04-04T15:08:36.067Z</time></trkpt><trkpt lat="46.1626674" lon="12.8188097"><ele>209.66666666666666</ele><time>2026-04-04T15:08:37.069Z</time></trkpt><trkpt lat="46.1628466" lon="12.8186339"><ele>211.33333333333331</ele><time>2026-04-04T15:08:38.069Z</time></trkpt><trkpt lat="46.1630065" lon="12.818471"><ele>213.0</ele><time>2026-04-04T15:08:39.067Z</time></trkpt><trkpt lat="46.1631467" lon="12.818332"><ele>212.5</ele><time>2026-04-04T15:08:40.069Z</time></trkpt><trkpt lat="46.163282" lon="12.8182043"><ele>212.0</ele><time>2026-04-04T15:08:41.068Z</time></trkpt><trkpt lat="46.1634024" lon="12.8180867"><ele>211.5</ele><time>2026-04-04T15:08:42.067Z</time></trkpt><trkpt lat="46.1635175" lon="12.8179766"><ele>211.0</ele><time>2026-04-04T15:08:43.068Z</time></trkpt><trkpt lat="46.1636205" lon="12.8178693"><ele>211.0</ele><time>2026-04-04T15:08:44.068Z</time></trkpt><trkpt lat="46.1637147" lon="12.8177528"><ele>211.0</ele><time>2026-04-04T15:08:45.067Z</time></trkpt><trkpt lat="46.1637975" lon="12.8176169"><ele>211.0</ele><time>2026-04-04T15:08:46.067Z</time></trkpt><trkpt lat="46.1638644" lon="12.8174519"><ele>211.0</ele><time>2026-04-04T15:08:47.068Z</time></trkpt><trkpt lat="46.1639043" lon="12.8172579"><ele>208.66666666666666</ele><time>2026-04-04T15:08:48.067Z</time></trkpt><trkpt lat="46.1639158" lon="12.8170459"><ele>206.33333333333331</ele><time>2026-04-04T15:08:49.068Z</time></trkpt><trkpt lat="46.163901" lon="12.8168273"><ele>204.0</ele><time>2026-04-04T15:08:50.067Z</time></trkpt><trkpt lat="46.163869" lon="12.8166022"><ele>203.33333333333331</ele><time>2026-04-04T15:08:51.069Z</time></trkpt><trkpt lat="46.1638331" lon="12.816375"><ele>202.66666666666666</ele><time>2026-04-04T15:08:52.069Z</time></trkpt><trkpt lat="46.1637964" lon="12.8161438"><ele>202.0</ele><time>2026-04-04T15:08:53.068Z</time></trkpt><trkpt lat="46.1637634" lon="12.8159272"><ele>201.75</ele><time>2026-04-04T15:08:54.067Z</time></trkpt><trkpt lat="46.1637265" lon="12.8157228"><ele>201.5</ele><time>2026-04-04T15:08:55.067Z</time></trkpt><trkpt lat="46.1636912" lon="12.8155246"><ele>201.25</ele><time>2026-04-04T15:08:56.068Z</time></trkpt><trkpt lat="46.1636581" lon="12.815332"><ele>201.0</ele><time>2026-04-04T15:08:57.067Z</time></trkpt><trkpt lat="46.1636271" lon="12.8151431"><ele>201.5</ele><time>2026-04-04T15:08:58.067Z</time></trkpt><trkpt lat="46.1636018" lon="12.814953"><ele>202.0</ele><time>2026-04-04T15:08:59.068Z</time></trkpt><trkpt lat="46.163574" lon="12.8147653"><ele>202.5</ele><time>2026-04-04T15:09:00.068Z</time></trkpt><trkpt lat="46.1635465" lon="12.8145823"><ele>203.0</ele><time>2026-04-04T15:09:01.068Z</time></trkpt><trkpt lat="46.1635198" lon="12.8144234"><ele>205.0</ele><time>2026-04-04T15:09:02.068Z</time></trkpt><trkpt lat="46.1634816" lon="12.814289"><ele>207.0</ele><time>2026-04-04T15:09:03.068Z</time></trkpt><trkpt lat="46.1634164" lon="12.8141929"><ele>209.0</ele><time>2026-04-04T15:09:04.069Z</time></trkpt><trkpt lat="46.1633327" lon="12.8141388"><ele>211.0</ele><time>2026-04-04T15:09:05.069Z</time></trkpt><trkpt lat="46.1632374" lon="12.814121"><ele>213.0</ele><time>2026-04-04T15:09:06.068Z</time></trkpt><trkpt lat="46.1631284" lon="12.8141291"><ele>213.0</ele><time>2026-04-04T15:09:07.067Z</time></trkpt><trkpt lat="46.1630052" lon="12.8141237"><ele>213.0</ele><time>2026-04-04T15:09:08.067Z</time></trkpt><trkpt lat="46.162872" lon="12.8140849"><ele>213.0</ele><time>2026-04-04T15:09:09.068Z</time></trkpt><trkpt lat="46.1627411" lon="12.8140085"><ele>213.0</ele><time>2026-04-04T15:09:10.067Z</time></trkpt><trkpt lat="46.1626214" lon="12.8138962"><ele>213.0</ele><time>2026-04-04T15:09:11.067Z</time></trkpt><trkpt lat="46.162517" lon="12.813745"><ele>213.0</ele><time>2026-04-04T15:09:12.067Z</time></trkpt><trkpt lat="46.1624234" lon="12.813561"><ele>213.0</ele><time>2026-04-04T15:09:13.067Z</time></trkpt><trkpt lat="46.1623369" lon="12.8133551"><ele>211.33333333333331</ele><time>2026-04-04T15:09:14.068Z</time></trkpt><trkpt lat="46.1622547" lon="12.8131403"><ele>209.66666666666666</ele><time>2026-04-04T15:09:15.069Z</time></trkpt><trkpt lat="46.1621764" lon="12.8129339"><ele>208.0</ele><time>2026-04-04T15:09:16.068Z</time></trkpt><trkpt lat="46.1621039" lon="12.8127445"><ele>210.25</ele><time>2026-04-04T15:09:17.068Z</time></trkpt><trkpt lat="46.162038" lon="12.8125614"><ele>212.5</ele><time>2026-04-04T15:09:18.067Z</time></trkpt><trkpt lat="46.1619712" lon="12.8123794"><ele>214.75</ele><time>2026-04-04T15:09:19.068Z</time></trkpt><trkpt lat="46.1619026" lon="12.8121994"><ele>217.0</ele><time>2026-04-04T15:09:20.067Z</time></trkpt><trkpt lat="46.1618325" lon="12.8120203"><ele>217.0</ele><time>2026-04-04T15:09:21.068Z</time></trkpt><trkpt lat="46.1617628" lon="12.8118407"><ele>217.0</ele><time>2026-04-04T15:09:22.067Z</time></trkpt><trkpt lat="46.1616941" lon="12.8116625"><ele>217.0</ele><time>2026-04-04T15:09:23.067Z</time></trkpt><trkpt lat="46.1616294" lon="12.8114842"><ele>217.0</ele><time>2026-04-04T15:09:24.068Z</time></trkpt><trkpt lat="46.1615773" lon="12.8113035"><ele>218.5</ele><time>2026-04-04T15:09:25.067Z</time></trkpt><trkpt lat="46.161549" lon="12.811125"><ele>220.0</ele><time>2026-04-04T15:09:26.067Z</time></trkpt><trkpt lat="46.1615424" lon="12.8109466"><ele>221.5</ele><time>2026-04-04T15:09:27.067Z</time></trkpt><trkpt lat="46.1615544" lon="12.8107695"><ele>223.0</ele><time>2026-04-04T15:09:28.068Z</time></trkpt><trkpt lat="46.1615809" lon="12.8105903"><ele>223.5</ele><time>2026-04-04T15:09:29.067Z</time></trkpt><trkpt lat="46.1616164" lon="12.8104094"><ele>224.0</ele><time>2026-04-04T15:09:30.068Z</time></trkpt><trkpt lat="46.1616581" lon="12.8102332"><ele>224.5</ele><time>2026-04-04T15:09:31.068Z</time></trkpt><trkpt lat="46.161702" lon="12.8100601"><ele>225.0</ele><time>2026-04-04T15:09:32.068Z</time></trkpt><trkpt lat="46.1617425" lon="12.8098858"><ele>225.25</ele><time>2026-04-04T15:09:33.067Z</time></trkpt><trkpt lat="46.1617765" lon="12.8097019"><ele>225.5</ele><time>2026-04-04T15:09:34.069Z</time></trkpt><trkpt lat="46.1618064" lon="12.8095078"><ele>225.75</ele><time>2026-04-04T15:09:35.067Z</time></trkpt><trkpt lat="46.161833" lon="12.8092984"><ele>226.0</ele><time>2026-04-04T15:09:36.069Z</time></trkpt><trkpt lat="46.1618619" lon="12.8090758"><ele>226.0</ele><time>2026-04-04T15:09:37.069Z</time></trkpt><trkpt lat="46.1618912" lon="12.8088472"><ele>226.0</ele><time>2026-04-04T15:09:38.068Z</time></trkpt><trkpt lat="46.1619236" lon="12.8086069"><ele>226.0</ele><time>2026-04-04T15:09:39.069Z</time></trkpt><trkpt lat="46.1619554" lon="12.8083559"><ele>226.0</ele><time>2026-04-04T15:09:40.067Z</time></trkpt><trkpt lat="46.1619866" lon="12.8081028"><ele>226.0</ele><time>2026-04-04T15:09:41.068Z</time></trkpt><trkpt lat="46.162019" lon="12.8078524"><ele>226.0</ele><time>2026-04-04T15:09:42.067Z</time></trkpt><trkpt lat="46.1620507" lon="12.8076075"><ele>225.33333333333331</ele><time>2026-04-04T15:09:43.067Z</time></trkpt><trkpt lat="46.1620801" lon="12.8073598"><ele>224.66666666666669</ele><time>2026-04-04T15:09:44.069Z</time></trkpt><trkpt lat="46.1621109" lon="12.8071121"><ele>224.0</ele><time>2026-04-04T15:09:45.069Z</time></trkpt><trkpt lat="46.1621413" lon="12.8068632"><ele>224.66666666666669</ele><time>2026-04-04T15:09:46.067Z</time></trkpt><trkpt lat="46.1621705" lon="12.8066126"><ele>225.33333333333331</ele><time>2026-04-04T15:09:47.068Z</time></trkpt><trkpt lat="46.1621937" lon="12.8063579"><ele>226.0</ele><time>2026-04-04T15:09:48.067Z</time></trkpt><trkpt lat="46.162212" lon="12.8060986"><ele>226.0</ele><time>2026-04-04T15:09:49.068Z</time></trkpt><trkpt lat="46.162223" lon="12.8058342"><ele>226.0</ele><time>2026-04-04T15:09:50.068Z</time></trkpt><trkpt lat="46.1622324" lon="12.805563"><ele>226.0</ele><time>2026-04-04T15:09:51.068Z</time></trkpt><trkpt lat="46.1622418" lon="12.805284"><ele>226.0</ele><time>2026-04-04T15:09:52.068Z</time></trkpt><trkpt lat="46.1622518" lon="12.8049975"><ele>226.0</ele><time>2026-04-04T15:09:53.067Z</time></trkpt><trkpt lat="46.1622628" lon="12.8047027"><ele>226.0</ele><time>2026-04-04T15:09:54.067Z</time></trkpt><trkpt lat="46.1622738" lon="12.8044032"><ele>226.0</ele><time>2026-04-04T15:09:55.068Z</time></trkpt><trkpt lat="46.1622861" lon="12.8040947"><ele>226.0</ele><time>2026-04-04T15:09:56.067Z</time></trkpt><trkpt lat="46.1622963" lon="12.8037835"><ele>226.0</ele><time>2026-04-04T15:09:57.068Z</time></trkpt><trkpt lat="46.162306" lon="12.8034717"><ele>226.0</ele><time>2026-04-04T15:09:58.067Z</time></trkpt><trkpt lat="46.1623162" lon="12.8031782"><ele>226.0</ele><time>2026-04-04T15:09:59.067Z</time></trkpt><trkpt lat="46.1623249" lon="12.8028998"><ele>226.0</ele><time>2026-04-04T15:10:00.068Z</time></trkpt><trkpt lat="46.1623332" lon="12.8026339"><ele>226.33333333333331</ele><time>2026-04-04T15:10:01.069Z</time></trkpt><trkpt lat="46.1623425" lon="12.8023729"><ele>226.66666666666669</ele><time>2026-04-04T15:10:02.068Z</time></trkpt><trkpt lat="46.1623498" lon="12.8021095"><ele>227.0</ele><time>2026-04-04T15:10:03.067Z</time></trkpt><trkpt lat="46.1623563" lon="12.8018419"><ele>227.66666666666669</ele><time>2026-04-04T15:10:04.067Z</time></trkpt><trkpt lat="46.1623664" lon="12.8015713"><ele>228.33333333333331</ele><time>2026-04-04T15:10:05.069Z</time></trkpt><trkpt lat="46.1623765" lon="12.8013027"><ele>229.0</ele><time>2026-04-04T15:10:06.068Z</time></trkpt><trkpt lat="46.1623886" lon="12.8010331"><ele>229.0</ele><time>2026-04-04T15:10:07.067Z</time></trkpt><trkpt lat="46.1623967" lon="12.8007748"><ele>229.0</ele><time>2026-04-04T15:10:08.067Z</time></trkpt><trkpt lat="46.1624027" lon="12.8005322"><ele>229.0</ele><time>2026-04-04T15:10:09.069Z</time></trkpt><trkpt lat="46.1624073" lon="12.8003016"><ele>228.5</ele><time>2026-04-04T15:10:10.067Z</time></trkpt><trkpt lat="46.1624141" lon="12.8000813"><ele>228.0</ele><time>2026-04-04T15:10:11.067Z</time></trkpt><trkpt lat="46.1624218" lon="12.799871"><ele>227.5</ele><time>2026-04-04T15:10:12.067Z</time></trkpt><trkpt lat="46.162431" lon="12.7996699"><ele>227.0</ele><time>2026-04-04T15:10:13.067Z</time></trkpt><trkpt lat="46.1624392" lon="12.7994887"><ele>226.8</ele><time>2026-04-04T15:10:14.067Z</time></trkpt><trkpt lat="46.1624467" lon="12.7993248"><ele>226.6</ele><time>2026-04-04T15:10:15.068Z</time></trkpt><trkpt lat="46.162456" lon="12.7991687"><ele>226.40000000000003</ele><time>2026-04-04T15:10:16.067Z</time></trkpt><trkpt lat="46.1624681" lon="12.7990132"><ele>226.20000000000002</ele><time>2026-04-04T15:10:17.068Z</time></trkpt><trkpt lat="46.1624799" lon="12.7988636"><ele>226.0</ele><time>2026-04-04T15:10:18.068Z</time></trkpt><trkpt lat="46.1624932" lon="12.7987239"><ele>226.0</ele><time>2026-04-04T15:10:19.068Z</time></trkpt><trkpt lat="46.1625066" lon="12.7985882"><ele>226.00000000000003</ele><time>2026-04-04T15:10:20.068Z</time></trkpt><trkpt lat="46.1625216" lon="12.7984425"><ele>226.00000000000003</ele><time>2026-04-04T15:10:21.068Z</time></trkpt><trkpt lat="46.1625409" lon="12.7982855"><ele>226.0</ele><time>2026-04-04T15:10:22.067Z</time></trkpt><trkpt lat="46.1625661" lon="12.7981104"><ele>226.0</ele><time>2026-04-04T15:10:23.067Z</time></trkpt><trkpt lat="46.1625956" lon="12.7979184"><ele>226.33333333333331</ele><time>2026-04-04T15:10:24.068Z</time></trkpt><trkpt lat="46.1626314" lon="12.7977015"><ele>226.66666666666669</ele><time>2026-04-04T15:10:25.067Z</time></trkpt><trkpt lat="46.1626749" lon="12.797458"><ele>227.0</ele><time>2026-04-04T15:10:26.067Z</time></trkpt><trkpt lat="46.1627264" lon="12.7971919"><ele>227.33333333333334</ele><time>2026-04-04T15:10:27.068Z</time></trkpt><trkpt lat="46.1627808" lon="12.7969096"><ele>227.66666666666669</ele><time>2026-04-04T15:10:28.068Z</time></trkpt><trkpt lat="46.1628371" lon="12.7966235"><ele>228.0</ele><time>2026-04-04T15:10:29.067Z</time></trkpt><trkpt lat="46.1628941" lon="12.7963434"><ele>228.66666666666669</ele><time>2026-04-04T15:10:30.067Z</time></trkpt><trkpt lat="46.1629524" lon="12.7960692"><ele>229.33333333333334</ele><time>2026-04-04T15:10:31.069Z</time></trkpt><trkpt lat="46.1630091" lon="12.7957968"><ele>230.0</ele><time>2026-04-04T15:10:32.067Z</time></trkpt><trkpt lat="46.1630651" lon="12.7955218"><ele>230.0</ele><time>2026-04-04T15:10:33.067Z</time></trkpt><trkpt lat="46.1631221" lon="12.795244"><ele>230.0</ele><time>2026-04-04T15:10:34.067Z</time></trkpt><trkpt lat="46.1631786" lon="12.7949666"><ele>230.0</ele><time>2026-04-04T15:10:35.068Z</time></trkpt><trkpt lat="46.1632349" lon="12.7946874"><ele>230.0</ele><time>2026-04-04T15:10:36.068Z</time></trkpt><trkpt lat="46.1632919" lon="12.7944089"><ele>230.0</ele><time>2026-04-04T15:10:37.069Z</time></trkpt><trkpt lat="46.1633488" lon="12.7941298"><ele>230.0</ele><time>2026-04-04T15:10:38.067Z</time></trkpt><trkpt lat="46.1634065" lon="12.79385"><ele>230.0</ele><time>2026-04-04T15:10:39.068Z</time></trkpt><trkpt lat="46.163464" lon="12.7935703"><ele>230.0</ele><time>2026-04-04T15:10:40.068Z</time></trkpt><trkpt lat="46.1635195" lon="12.7932962"><ele>230.0</ele><time>2026-04-04T15:10:41.067Z</time></trkpt><trkpt lat="46.1635718" lon="12.7930421"><ele>230.33333333333334</ele><time>2026-04-04T15:10:42.068Z</time></trkpt><trkpt lat="46.1636197" lon="12.7928025"><ele>230.66666666666669</ele><time>2026-04-04T15:10:43.067Z</time></trkpt><trkpt lat="46.1636645" lon="12.7925785"><ele>231.0</ele><time>2026-04-04T15:10:44.068Z</time></trkpt><trkpt lat="46.1637063" lon="12.7923663"><ele>231.0</ele><time>2026-04-04T15:10:45.068Z</time></trkpt><trkpt lat="46.1637506" lon="12.7921524"><ele>231.0</ele><time>2026-04-04T15:10:46.069Z</time></trkpt><trkpt lat="46.1637949" lon="12.7919145"><ele>231.0</ele><time>2026-04-04T15:10:47.069Z</time></trkpt><trkpt lat="46.16384" lon="12.7916374"><ele>231.0</ele><time>2026-04-04T15:10:48.067Z</time></trkpt><trkpt lat="46.1638977" lon="12.7913252"><ele>231.0</ele><time>2026-04-04T15:10:49.067Z</time></trkpt><trkpt lat="46.1639589" lon="12.7910012"><ele>231.0</ele><time>2026-04-04T15:10:50.068Z</time></trkpt><trkpt lat="46.1640085" lon="12.7906716"><ele>231.0</ele><time>2026-04-04T15:10:51.069Z</time></trkpt><trkpt lat="46.1640531" lon="12.7903076"><ele>231.0</ele><time>2026-04-04T15:10:52.069Z</time></trkpt><trkpt lat="46.1640913" lon="12.7899153"><ele>231.0</ele><time>2026-04-04T15:10:53.067Z</time></trkpt><trkpt lat="46.1641354" lon="12.7894984"><ele>231.0</ele><time>2026-04-04T15:10:54.068Z</time></trkpt><trkpt lat="46.1641927" lon="12.7890604"><ele>231.0</ele><time>2026-04-04T15:10:55.067Z</time></trkpt><trkpt lat="46.1642544" lon="12.7886105"><ele>230.5</ele><time>2026-04-04T15:10:56.068Z</time></trkpt><trkpt lat="46.1643062" lon="12.7881409"><ele>230.0</ele><time>2026-04-04T15:10:57.067Z</time></trkpt><trkpt lat="46.1643583" lon="12.7876575"><ele>230.0</ele><time>2026-04-04T15:10:58.067Z</time></trkpt><trkpt lat="46.1644101" lon="12.7871585"><ele>230.0</ele><time>2026-04-04T15:10:59.067Z</time></trkpt><trkpt lat="46.164461" lon="12.7866534"><ele>230.0</ele><time>2026-04-04T15:11:00.067Z</time></trkpt><trkpt lat="46.1645076" lon="12.7861822"><ele>230.0</ele><time>2026-04-04T15:11:01.069Z</time></trkpt><trkpt lat="46.1645528" lon="12.7857349"><ele>230.5</ele><time>2026-04-04T15:11:02.068Z</time></trkpt><trkpt lat="46.1645962" lon="12.7853134"><ele>231.0</ele><time>2026-04-04T15:11:03.069Z</time></trkpt><trkpt lat="46.1646361" lon="12.7849163"><ele>231.0</ele><time>2026-04-04T15:11:04.068Z</time></trkpt><trkpt lat="46.1646746" lon="12.7845414"><ele>231.0</ele><time>2026-04-04T15:11:05.067Z</time></trkpt><trkpt lat="46.1647129" lon="12.7841755"><ele>231.5</ele><time>2026-04-04T15:11:06.068Z</time></trkpt><trkpt lat="46.1647516" lon="12.7838099"><ele>232.0</ele><time>2026-04-04T15:11:07.068Z</time></trkpt><trkpt lat="46.1647904" lon="12.7834381"><ele>232.0</ele><time>2026-04-04T15:11:08.067Z</time></trkpt><trkpt lat="46.1648299" lon="12.7830613"><ele>232.0</ele><time>2026-04-04T15:11:09.068Z</time></trkpt><trkpt lat="46.1648712" lon="12.7826768"><ele>232.5</ele><time>2026-04-04T15:11:10.068Z</time></trkpt><trkpt lat="46.1649121" lon="12.7822828"><ele>233.0</ele><time>2026-04-04T15:11:11.068Z</time></trkpt><trkpt lat="46.1649539" lon="12.7818812"><ele>233.0</ele><time>2026-04-04T15:11:12.069Z</time></trkpt><trkpt lat="46.1649946" lon="12.7814749"><ele>233.0</ele><time>2026-04-04T15:11:13.067Z</time></trkpt><trkpt lat="46.1650374" lon="12.7810655"><ele>232.5</ele><time>2026-04-04T15:11:14.067Z</time></trkpt><trkpt lat="46.1650805" lon="12.7806536"><ele>232.0</ele><time>2026-04-04T15:11:15.068Z</time></trkpt><trkpt lat="46.1651264" lon="12.7802359"><ele>231.5</ele><time>2026-04-04T15:11:16.068Z</time></trkpt><trkpt lat="46.1651725" lon="12.7798134"><ele>231.0</ele><time>2026-04-04T15:11:17.069Z</time></trkpt><trkpt lat="46.1652163" lon="12.7793934"><ele>230.0</ele><time>2026-04-04T15:11:18.068Z</time></trkpt><trkpt lat="46.1652574" lon="12.7789762"><ele>229.0</ele><time>2026-04-04T15:11:19.068Z</time></trkpt><trkpt lat="46.1652992" lon="12.7785674"><ele>230.0</ele><time>2026-04-04T15:11:20.069Z</time></trkpt><trkpt lat="46.1653398" lon="12.7781763"><ele>231.0</ele><time>2026-04-04T15:11:21.068Z</time></trkpt><trkpt lat="46.1653794" lon="12.7777994"><ele>231.0</ele><time>2026-04-04T15:11:22.068Z</time></trkpt><trkpt lat="46.1654147" lon="12.7774355"><ele>231.0</ele><time>2026-04-04T15:11:23.068Z</time></trkpt><trkpt lat="46.1654527" lon="12.7770761"><ele>231.0</ele><time>2026-04-04T15:11:24.068Z</time></trkpt><trkpt lat="46.1654895" lon="12.7767146"><ele>231.0</ele><time>2026-04-04T15:11:25.068Z</time></trkpt><trkpt lat="46.1655294" lon="12.7763465"><ele>231.5</ele><time>2026-04-04T15:11:26.069Z</time></trkpt><trkpt lat="46.1655687" lon="12.7759734"><ele>232.0</ele><time>2026-04-04T15:11:27.067Z</time></trkpt><trkpt lat="46.1656075" lon="12.775595"><ele>232.0</ele><time>2026-04-04T15:11:28.069Z</time></trkpt><trkpt lat="46.165647" lon="12.7752076"><ele>232.0</ele><time>2026-04-04T15:11:29.067Z</time></trkpt><trkpt lat="46.1656887" lon="12.7748162"><ele>232.0</ele><time>2026-04-04T15:11:30.067Z</time></trkpt><trkpt lat="46.1657304" lon="12.774428"><ele>232.0</ele><time>2026-04-04T15:11:31.067Z</time></trkpt><trkpt lat="46.1657709" lon="12.7740497"><ele>232.0</ele><time>2026-04-04T15:11:32.067Z</time></trkpt><trkpt lat="46.1658065" lon="12.7736937"><ele>232.0</ele><time>2026-04-04T15:11:33.067Z</time></trkpt><trkpt lat="46.1658428" lon="12.7733557"><ele>232.0</ele><time>2026-04-04T15:11:34.069Z</time></trkpt><trkpt lat="46.1658822" lon="12.7730348"><ele>232.0</ele><time>2026-04-04T15:11:35.068Z</time></trkpt><trkpt lat="46.165926" lon="12.7727152"><ele>233.0</ele><time>2026-04-04T15:11:36.068Z</time></trkpt><trkpt lat="46.1659727" lon="12.7723987"><ele>234.0</ele><time>2026-04-04T15:11:37.068Z</time></trkpt><trkpt lat="46.1660244" lon="12.7720777"><ele>233.5</ele><time>2026-04-04T15:11:38.068Z</time></trkpt><trkpt lat="46.1660813" lon="12.7717583"><ele>233.0</ele><time>2026-04-04T15:11:39.068Z</time></trkpt><trkpt lat="46.1661421" lon="12.7714336"><ele>233.0</ele><time>2026-04-04T15:11:40.067Z</time></trkpt><trkpt lat="46.1662077" lon="12.7711063"><ele>233.0</ele><time>2026-04-04T15:11:41.068Z</time></trkpt><trkpt lat="46.1662783" lon="12.770776"><ele>232.5</ele><time>2026-04-04T15:11:42.068Z</time></trkpt><trkpt lat="46.1663533" lon="12.7704486"><ele>232.0</ele><time>2026-04-04T15:11:43.068Z</time></trkpt><trkpt lat="46.166427" lon="12.7701276"><ele>231.5</ele><time>2026-04-04T15:11:44.068Z</time></trkpt><trkpt lat="46.1665045" lon="12.7698092"><ele>231.0</ele><time>2026-04-04T15:11:45.067Z</time></trkpt><trkpt lat="46.1665851" lon="12.7694929"><ele>231.5</ele><time>2026-04-04T15:11:46.068Z</time></trkpt><trkpt lat="46.1666678" lon="12.7691756"><ele>232.0</ele><time>2026-04-04T15:11:47.067Z</time></trkpt><trkpt lat="46.1667513" lon="12.7688572"><ele>232.0</ele><time>2026-04-04T15:11:48.067Z</time></trkpt><trkpt lat="46.1668319" lon="12.7685383"><ele>232.0</ele><time>2026-04-04T15:11:49.068Z</time></trkpt><trkpt lat="46.166914" lon="12.7682177"><ele>232.0</ele><time>2026-04-04T15:11:50.067Z</time></trkpt><trkpt lat="46.166997" lon="12.7678968"><ele>232.0</ele><time>2026-04-04T15:11:51.067Z</time></trkpt><trkpt lat="46.1670835" lon="12.7675707"><ele>232.0</ele><time>2026-04-04T15:11:52.067Z</time></trkpt><trkpt lat="46.1671712" lon="12.7672429"><ele>232.0</ele><time>2026-04-04T15:11:53.068Z</time></trkpt><trkpt lat="46.1672588" lon="12.7669143"><ele>231.5</ele><time>2026-04-04T15:11:54.068Z</time></trkpt><trkpt lat="46.1673456" lon="12.7665824"><ele>231.0</ele><time>2026-04-04T15:11:55.067Z</time></trkpt><trkpt lat="46.1674327" lon="12.7662511"><ele>232.0</ele><time>2026-04-04T15:11:56.067Z</time></trkpt><trkpt lat="46.1675196" lon="12.7659143"><ele>233.0</ele><time>2026-04-04T15:11:57.068Z</time></trkpt><trkpt lat="46.1676087" lon="12.7655778"><ele>233.0</ele><time>2026-04-04T15:11:58.067Z</time></trkpt><trkpt lat="46.1677" lon="12.7652361"><ele>233.0</ele><time>2026-04-04T15:11:59.067Z</time></trkpt><trkpt lat="46.1677878" lon="12.7648926"><ele>233.0</ele><time>2026-04-04T15:12:00.067Z</time></trkpt><trkpt lat="46.1678758" lon="12.7645477"><ele>233.0</ele><time>2026-04-04T15:12:01.068Z</time></trkpt><trkpt lat="46.1679642" lon="12.7642008"><ele>233.0</ele><time>2026-04-04T15:12:02.068Z</time></trkpt><trkpt lat="46.1680532" lon="12.7638565"><ele>233.0</ele><time>2026-04-04T15:12:03.068Z</time></trkpt><trkpt lat="46.1681451" lon="12.7635095"><ele>232.0</ele><time>2026-04-04T15:12:04.069Z</time></trkpt><trkpt lat="46.1682333" lon="12.7631696"><ele>231.0</ele><time>2026-04-04T15:12:05.068Z</time></trkpt><trkpt lat="46.1683222" lon="12.7628341"><ele>231.0</ele><time>2026-04-04T15:12:06.067Z</time></trkpt><trkpt lat="46.1684113" lon="12.7624983"><ele>231.0</ele><time>2026-04-04T15:12:07.067Z</time></trkpt><trkpt lat="46.1684989" lon="12.7621637"><ele>230.0</ele><time>2026-04-04T15:12:08.069Z</time></trkpt><trkpt lat="46.1685848" lon="12.7618313"><ele>229.0</ele><time>2026-04-04T15:12:09.068Z</time></trkpt><trkpt lat="46.1686726" lon="12.7614992"><ele>229.0</ele><time>2026-04-04T15:12:10.067Z</time></trkpt><trkpt lat="46.1687596" lon="12.761165"><ele>229.0</ele><time>2026-04-04T15:12:11.067Z</time></trkpt><trkpt lat="46.1688469" lon="12.7608304"><ele>227.5</ele><time>2026-04-04T15:12:12.068Z</time></trkpt><trkpt lat="46.1689319" lon="12.7604985"><ele>226.0</ele><time>2026-04-04T15:12:13.068Z</time></trkpt><trkpt lat="46.169015" lon="12.7601609"><ele>228.5</ele><time>2026-04-04T15:12:14.068Z</time></trkpt><trkpt lat="46.1690951" lon="12.759821"><ele>231.0</ele><time>2026-04-04T15:12:15.067Z</time></trkpt><trkpt lat="46.1691725" lon="12.7594776"><ele>231.0</ele><time>2026-04-04T15:12:16.067Z</time></trkpt><trkpt lat="46.1692419" lon="12.7591255"><ele>231.0</ele><time>2026-04-04T15:12:17.067Z</time></trkpt><trkpt lat="46.1693059" lon="12.7587661"><ele>230.5</ele><time>2026-04-04T15:12:18.068Z</time></trkpt><trkpt lat="46.1693668" lon="12.7584094"><ele>230.0</ele><time>2026-04-04T15:12:19.068Z</time></trkpt><trkpt lat="46.1694248" lon="12.7580488"><ele>228.5</ele><time>2026-04-04T15:12:20.069Z</time></trkpt><trkpt lat="46.1694831" lon="12.7576906"><ele>227.0</ele><time>2026-04-04T15:12:21.068Z</time></trkpt><trkpt lat="46.1695416" lon="12.7573311"><ele>227.0</ele><time>2026-04-04T15:12:22.067Z</time></trkpt><trkpt lat="46.1695995" lon="12.756977"><ele>227.0</ele><time>2026-04-04T15:12:23.067Z</time></trkpt><trkpt lat="46.169654" lon="12.7566314"><ele>227.5</ele><time>2026-04-04T15:12:24.068Z</time></trkpt><trkpt lat="46.169709" lon="12.7562873"><ele>228.0</ele><time>2026-04-04T15:12:25.067Z</time></trkpt><trkpt lat="46.1697609" lon="12.7559484"><ele>228.5</ele><time>2026-04-04T15:12:26.068Z</time></trkpt><trkpt lat="46.1698134" lon="12.7556147"><ele>229.0</ele><time>2026-04-04T15:12:27.069Z</time></trkpt><trkpt lat="46.1698678" lon="12.7552849"><ele>230.5</ele><time>2026-04-04T15:12:28.068Z</time></trkpt><trkpt lat="46.1699213" lon="12.7549555"><ele>232.0</ele><time>2026-04-04T15:12:29.068Z</time></trkpt><trkpt lat="46.1699753" lon="12.7546224"><ele>233.0</ele><time>2026-04-04T15:12:30.067Z</time></trkpt><trkpt lat="46.1700259" lon="12.7542884"><ele>234.0</ele><time>2026-04-04T15:12:31.067Z</time></trkpt><trkpt lat="46.1700812" lon="12.7539558"><ele>234.0</ele><time>2026-04-04T15:12:32.068Z</time></trkpt><trkpt lat="46.1701356" lon="12.7536219"><ele>234.0</ele><time>2026-04-04T15:12:33.069Z</time></trkpt><trkpt lat="46.1701882" lon="12.7532905"><ele>234.0</ele><time>2026-04-04T15:12:34.069Z</time></trkpt><trkpt lat="46.170243" lon="12.7529647"><ele>234.0</ele><time>2026-04-04T15:12:35.067Z</time></trkpt><trkpt lat="46.1702975" lon="12.7526447"><ele>234.33333333333331</ele><time>2026-04-04T15:12:36.068Z</time></trkpt><trkpt lat="46.1703492" lon="12.7523285"><ele>234.66666666666666</ele><time>2026-04-04T15:12:37.068Z</time></trkpt><trkpt lat="46.170402" lon="12.7520166"><ele>235.0</ele><time>2026-04-04T15:12:38.067Z</time></trkpt><trkpt lat="46.170454" lon="12.7517063"><ele>235.0</ele><time>2026-04-04T15:12:39.069Z</time></trkpt><trkpt lat="46.1705068" lon="12.7514017"><ele>235.0</ele><time>2026-04-04T15:12:40.067Z</time></trkpt><trkpt lat="46.1705555" lon="12.7510978"><ele>235.0</ele><time>2026-04-04T15:12:41.067Z</time></trkpt><trkpt lat="46.1706027" lon="12.7507951"><ele>235.0</ele><time>2026-04-04T15:12:42.068Z</time></trkpt><trkpt lat="46.1706499" lon="12.7504925"><ele>235.0</ele><time>2026-04-04T15:12:43.068Z</time></trkpt><trkpt lat="46.1706982" lon="12.7501873"><ele>235.0</ele><time>2026-04-04T15:12:44.068Z</time></trkpt><trkpt lat="46.1707459" lon="12.7498827"><ele>236.0</ele><time>2026-04-04T15:12:45.068Z</time></trkpt><trkpt lat="46.1707929" lon="12.7495685"><ele>237.0</ele><time>2026-04-04T15:12:46.068Z</time></trkpt><trkpt lat="46.1708427" lon="12.749249"><ele>238.0</ele><time>2026-04-04T15:12:47.068Z</time></trkpt><trkpt lat="46.1708932" lon="12.7489313"><ele>238.0</ele><time>2026-04-04T15:12:48.069Z</time></trkpt><trkpt lat="46.1709435" lon="12.7486156"><ele>238.0</ele><time>2026-04-04T15:12:49.067Z</time></trkpt><trkpt lat="46.1709928" lon="12.7483044"><ele>238.0</ele><time>2026-04-04T15:12:50.069Z</time></trkpt><trkpt lat="46.171043" lon="12.7479937"><ele>238.66666666666666</ele><time>2026-04-04T15:12:51.068Z</time></trkpt><trkpt lat="46.1710932" lon="12.7476811"><ele>239.33333333333331</ele><time>2026-04-04T15:12:52.068Z</time></trkpt><trkpt lat="46.1711427" lon="12.7473716"><ele>240.0</ele><time>2026-04-04T15:12:53.067Z</time></trkpt><trkpt lat="46.1711935" lon="12.7470566"><ele>241.0</ele><time>2026-04-04T15:12:54.068Z</time></trkpt><trkpt lat="46.1712463" lon="12.7467385"><ele>242.0</ele><time>2026-04-04T15:12:55.067Z</time></trkpt><trkpt lat="46.1712989" lon="12.7464148"><ele>242.0</ele><time>2026-04-04T15:12:56.069Z</time></trkpt><trkpt lat="46.1713532" lon="12.7460874"><ele>242.0</ele><time>2026-04-04T15:12:57.068Z</time></trkpt><trkpt lat="46.1714085" lon="12.7457534"><ele>242.5</ele><time>2026-04-04T15:12:58.068Z</time></trkpt><trkpt lat="46.1714628" lon="12.7454148"><ele>243.0</ele><time>2026-04-04T15:12:59.067Z</time></trkpt><trkpt lat="46.1715184" lon="12.7450735"><ele>242.5</ele><time>2026-04-04T15:13:00.068Z</time></trkpt><trkpt lat="46.171573" lon="12.7447305"><ele>242.0</ele><time>2026-04-04T15:13:01.068Z</time></trkpt><trkpt lat="46.1716294" lon="12.7443878"><ele>242.5</ele><time>2026-04-04T15:13:02.067Z</time></trkpt><trkpt lat="46.1716834" lon="12.7440424"><ele>243.0</ele><time>2026-04-04T15:13:03.067Z</time></trkpt><trkpt lat="46.1717361" lon="12.7436943"><ele>244.5</ele><time>2026-04-04T15:13:04.068Z</time></trkpt><trkpt lat="46.1717901" lon="12.7433483"><ele>246.0</ele><time>2026-04-04T15:13:05.068Z</time></trkpt><trkpt lat="46.1718458" lon="12.7430051"><ele>246.0</ele><time>2026-04-04T15:13:06.067Z</time></trkpt><trkpt lat="46.1719028" lon="12.7426608"><ele>246.0</ele><time>2026-04-04T15:13:07.068Z</time></trkpt><trkpt lat="46.1719589" lon="12.7423177"><ele>246.0</ele><time>2026-04-04T15:13:08.067Z</time></trkpt><trkpt lat="46.1720157" lon="12.7419729"><ele>246.0</ele><time>2026-04-04T15:13:09.069Z</time></trkpt><trkpt lat="46.172073" lon="12.7416275"><ele>246.5</ele><time>2026-04-04T15:13:10.068Z</time></trkpt><trkpt lat="46.1721279" lon="12.7412843"><ele>247.0</ele><time>2026-04-04T15:13:11.069Z</time></trkpt><trkpt lat="46.1721818" lon="12.7409414"><ele>247.0</ele><time>2026-04-04T15:13:12.067Z</time></trkpt><trkpt lat="46.1722357" lon="12.7406038"><ele>247.0</ele><time>2026-04-04T15:13:13.067Z</time></trkpt><trkpt lat="46.1722915" lon="12.7402666"><ele>246.5</ele><time>2026-04-04T15:13:14.067Z</time></trkpt><trkpt lat="46.1723447" lon="12.7399349"><ele>246.0</ele><time>2026-04-04T15:13:15.068Z</time></trkpt><trkpt lat="46.1723969" lon="12.7396021"><ele>247.0</ele><time>2026-04-04T15:13:16.067Z</time></trkpt><trkpt lat="46.1724471" lon="12.7392705"><ele>248.0</ele><time>2026-04-04T15:13:17.067Z</time></trkpt><trkpt lat="46.1724998" lon="12.7389424"><ele>248.0</ele><time>2026-04-04T15:13:18.067Z</time></trkpt><trkpt lat="46.1725551" lon="12.738611"><ele>248.0</ele><time>2026-04-04T15:13:19.067Z</time></trkpt><trkpt lat="46.1726077" lon="12.7382783"><ele>249.0</ele><time>2026-04-04T15:13:20.068Z</time></trkpt><trkpt lat="46.1726602" lon="12.7379431"><ele>250.0</ele><time>2026-04-04T15:13:21.068Z</time></trkpt><trkpt lat="46.172714" lon="12.7376073"><ele>250.5</ele><time>2026-04-04T15:13:22.068Z</time></trkpt><trkpt lat="46.1727697" lon="12.737265"><ele>251.0</ele><time>2026-04-04T15:13:23.067Z</time></trkpt><trkpt lat="46.1728263" lon="12.7369183"><ele>251.0</ele><time>2026-04-04T15:13:24.068Z</time></trkpt><trkpt lat="46.1728833" lon="12.7365693"><ele>251.0</ele><time>2026-04-04T15:13:25.068Z</time></trkpt><trkpt lat="46.172939" lon="12.7362178"><ele>252.0</ele><time>2026-04-04T15:13:26.068Z</time></trkpt><trkpt lat="46.1729966" lon="12.7358676"><ele>253.0</ele><time>2026-04-04T15:13:27.067Z</time></trkpt><trkpt lat="46.1730577" lon="12.7355147"><ele>253.5</ele><time>2026-04-04T15:13:28.068Z</time></trkpt><trkpt lat="46.1731172" lon="12.7351599"><ele>254.0</ele><time>2026-04-04T15:13:29.068Z</time></trkpt><trkpt lat="46.1731736" lon="12.7348029"><ele>254.0</ele><time>2026-04-04T15:13:30.067Z</time></trkpt><trkpt lat="46.1732348" lon="12.7344526"><ele>254.0</ele><time>2026-04-04T15:13:31.068Z</time></trkpt><trkpt lat="46.1732923" lon="12.734102"><ele>254.0</ele><time>2026-04-04T15:13:32.067Z</time></trkpt><trkpt lat="46.1733481" lon="12.7337522"><ele>254.0</ele><time>2026-04-04T15:13:33.067Z</time></trkpt><trkpt lat="46.1734019" lon="12.733398"><ele>254.5</ele><time>2026-04-04T15:13:34.068Z</time></trkpt><trkpt lat="46.1734562" lon="12.7330405"><ele>255.0</ele><time>2026-04-04T15:13:35.067Z</time></trkpt><trkpt lat="46.1735115" lon="12.7326869"><ele>255.0</ele><time>2026-04-04T15:13:36.069Z</time></trkpt><trkpt lat="46.1735677" lon="12.7323326"><ele>255.0</ele><time>2026-04-04T15:13:37.067Z</time></trkpt><trkpt lat="46.1736256" lon="12.7319848"><ele>255.5</ele><time>2026-04-04T15:13:38.067Z</time></trkpt><trkpt lat="46.1736829" lon="12.7316421"><ele>256.0</ele><time>2026-04-04T15:13:39.067Z</time></trkpt><trkpt lat="46.1737374" lon="12.7313018"><ele>257.0</ele><time>2026-04-04T15:13:40.069Z</time></trkpt><trkpt lat="46.1737899" lon="12.7309619"><ele>258.0</ele><time>2026-04-04T15:13:41.067Z</time></trkpt><trkpt lat="46.1738454" lon="12.7306243"><ele>258.0</ele><time>2026-04-04T15:13:42.067Z</time></trkpt><trkpt lat="46.1739015" lon="12.7302916"><ele>258.0</ele><time>2026-04-04T15:13:43.068Z</time></trkpt><trkpt lat="46.1739547" lon="12.7299578"><ele>258.5</ele><time>2026-04-04T15:13:44.068Z</time></trkpt><trkpt lat="46.1740071" lon="12.7296219"><ele>259.0</ele><time>2026-04-04T15:13:45.068Z</time></trkpt><trkpt lat="46.1740577" lon="12.7292906"><ele>259.66666666666663</ele><time>2026-04-04T15:13:46.067Z</time></trkpt><trkpt lat="46.1741084" lon="12.728969"><ele>260.3333333333333</ele><time>2026-04-04T15:13:47.067Z</time></trkpt><trkpt lat="46.1741617" lon="12.7286599"><ele>261.0</ele><time>2026-04-04T15:13:48.067Z</time></trkpt><trkpt lat="46.1742146" lon="12.7283533"><ele>261.3333333333333</ele><time>2026-04-04T15:13:49.067Z</time></trkpt><trkpt lat="46.1742784" lon="12.7280511"><ele>261.66666666666663</ele><time>2026-04-04T15:13:50.068Z</time></trkpt><trkpt lat="46.1743635" lon="12.7277645"><ele>262.0</ele><time>2026-04-04T15:13:51.067Z</time></trkpt><trkpt lat="46.1744735" lon="12.7274976"><ele>262.66666666666663</ele><time>2026-04-04T15:13:52.067Z</time></trkpt><trkpt lat="46.1745998" lon="12.7272445"><ele>263.3333333333333</ele><time>2026-04-04T15:13:53.068Z</time></trkpt><trkpt lat="46.174739" lon="12.7270038"><ele>264.0</ele><time>2026-04-04T15:13:54.067Z</time></trkpt><trkpt lat="46.1748834" lon="12.7267917"><ele>264.0</ele><time>2026-04-04T15:13:55.068Z</time></trkpt><trkpt lat="46.1750121" lon="12.7265986"><ele>264.0</ele><time>2026-04-04T15:13:56.067Z</time></trkpt><trkpt lat="46.1751194" lon="12.7263866"><ele>264.0</ele><time>2026-04-04T15:13:57.068Z</time></trkpt><trkpt lat="46.1751924" lon="12.7261556"><ele>264.3333333333333</ele><time>2026-04-04T15:13:58.069Z</time></trkpt><trkpt lat="46.1752316" lon="12.7259081"><ele>264.66666666666663</ele><time>2026-04-04T15:13:59.067Z</time></trkpt><trkpt lat="46.1752406" lon="12.7256539"><ele>265.0</ele><time>2026-04-04T15:14:00.069Z</time></trkpt><trkpt lat="46.1752199" lon="12.7253895"><ele>264.66666666666663</ele><time>2026-04-04T15:14:01.068Z</time></trkpt><trkpt lat="46.1751724" lon="12.7251229"><ele>264.3333333333333</ele><time>2026-04-04T15:14:02.067Z</time></trkpt><trkpt lat="46.1751088" lon="12.7248482"><ele>264.0</ele><time>2026-04-04T15:14:03.068Z</time></trkpt><trkpt lat="46.1750385" lon="12.7245672"><ele>264.3333333333333</ele><time>2026-04-04T15:14:04.068Z</time></trkpt><trkpt lat="46.1749706" lon="12.724293"><ele>264.66666666666663</ele><time>2026-04-04T15:14:05.068Z</time></trkpt><trkpt lat="46.1749056" lon="12.7240288"><ele>265.0</ele><time>2026-04-04T15:14:06.069Z</time></trkpt><trkpt lat="46.1748404" lon="12.7237794"><ele>265.0</ele><time>2026-04-04T15:14:07.067Z</time></trkpt><trkpt lat="46.1747786" lon="12.7235366"><ele>265.0</ele><time>2026-04-04T15:14:08.068Z</time></trkpt><trkpt lat="46.1747191" lon="12.723295"><ele>265.0</ele><time>2026-04-04T15:14:09.068Z</time></trkpt><trkpt lat="46.1746612" lon="12.7230601"><ele>265.0</ele><time>2026-04-04T15:14:10.069Z</time></trkpt><trkpt lat="46.174606" lon="12.7228409"><ele>265.0</ele><time>2026-04-04T15:14:11.067Z</time></trkpt><trkpt lat="46.174555" lon="12.7226386"><ele>265.0</ele><time>2026-04-04T15:14:12.068Z</time></trkpt><trkpt lat="46.1745049" lon="12.7224486"><ele>265.0</ele><time>2026-04-04T15:14:13.068Z</time></trkpt><trkpt lat="46.1744608" lon="12.7222739"><ele>265.0</ele><time>2026-04-04T15:14:14.068Z</time></trkpt><trkpt lat="46.174419" lon="12.7221144"><ele>265.0</ele><time>2026-04-04T15:14:15.069Z</time></trkpt><trkpt lat="46.1743792" lon="12.7219727"><ele>265.0</ele><time>2026-04-04T15:14:16.067Z</time></trkpt><trkpt lat="46.1743423" lon="12.721846"><ele>265.0</ele><time>2026-04-04T15:14:17.068Z</time></trkpt><trkpt lat="46.1743137" lon="12.7217295"><ele>265.0</ele><time>2026-04-04T15:14:18.068Z</time></trkpt><trkpt lat="46.1743062" lon="12.7216203"><ele>265.0</ele><time>2026-04-04T15:14:19.068Z</time></trkpt><trkpt lat="46.1743197" lon="12.7215267"><ele>265.0</ele><time>2026-04-04T15:14:20.068Z</time></trkpt><trkpt lat="46.1743643" lon="12.7214204"><ele>265.0</ele><time>2026-04-04T15:14:22.067Z</time></trkpt><trkpt lat="46.1744193" lon="12.7213588"><ele>265.0</ele><time>2026-04-04T15:14:24.067Z</time></trkpt><trkpt lat="46.174539" lon="12.7212605"><ele>265.0</ele><time>2026-04-04T15:14:26.067Z</time></trkpt><trkpt lat="46.1745731" lon="12.7211652"><ele>264.66666666666663</ele><time>2026-04-04T15:14:27.068Z</time></trkpt><trkpt lat="46.1745773" lon="12.7210523"><ele>264.3333333333333</ele><time>2026-04-04T15:14:28.068Z</time></trkpt><trkpt lat="46.1745457" lon="12.7209431"><ele>264.0</ele><time>2026-04-04T15:14:29.068Z</time></trkpt><trkpt lat="46.1744823" lon="12.7208662"><ele>263.6666666666667</ele><time>2026-04-04T15:14:30.068Z</time></trkpt><trkpt lat="46.1744008" lon="12.7208387"><ele>263.33333333333337</ele><time>2026-04-04T15:14:31.068Z</time></trkpt><trkpt lat="46.1743082" lon="12.720856"><ele>263.0</ele><time>2026-04-04T15:14:32.069Z</time></trkpt><trkpt lat="46.1742137" lon="12.7208733"><ele>263.0</ele><time>2026-04-04T15:14:33.069Z</time></trkpt><trkpt lat="46.1741199" lon="12.7208412"><ele>263.0</ele><time>2026-04-04T15:14:34.068Z</time></trkpt><trkpt lat="46.174034" lon="12.7207785"><ele>263.0</ele><time>2026-04-04T15:14:35.067Z</time></trkpt><trkpt lat="46.1739583" lon="12.7206621"><ele>263.0</ele><time>2026-04-04T15:14:36.067Z</time></trkpt><trkpt lat="46.1738974" lon="12.7205122"><ele>263.0</ele><time>2026-04-04T15:14:37.068Z</time></trkpt><trkpt lat="46.1738378" lon="12.7203516"><ele>262.25</ele><time>2026-04-04T15:14:38.068Z</time></trkpt><trkpt lat="46.173775" lon="12.7201778"><ele>261.5</ele><time>2026-04-04T15:14:39.067Z</time></trkpt><trkpt lat="46.1737134" lon="12.7199972"><ele>260.75</ele><time>2026-04-04T15:14:40.069Z</time></trkpt><trkpt lat="46.1736466" lon="12.7198109"><ele>260.0</ele><time>2026-04-04T15:14:41.068Z</time></trkpt><trkpt lat="46.173577" lon="12.7196198"><ele>260.0</ele><time>2026-04-04T15:14:42.068Z</time></trkpt><trkpt lat="46.173506" lon="12.7194255"><ele>260.0</ele><time>2026-04-04T15:14:43.067Z</time></trkpt><trkpt lat="46.173437" lon="12.7192298"><ele>260.0</ele><time>2026-04-04T15:14:44.069Z</time></trkpt><trkpt lat="46.1733686" lon="12.7190328"><ele>260.33333333333337</ele><time>2026-04-04T15:14:45.068Z</time></trkpt><trkpt lat="46.1732981" lon="12.7188369"><ele>260.6666666666667</ele><time>2026-04-04T15:14:46.069Z</time></trkpt><trkpt lat="46.1732246" lon="12.7186409"><ele>261.0</ele><time>2026-04-04T15:14:47.067Z</time></trkpt><trkpt lat="46.1731562" lon="12.7184584"><ele>261.40000000000003</ele><time>2026-04-04T15:14:48.068Z</time></trkpt><trkpt lat="46.1730944" lon="12.7182891"><ele>261.8</ele><time>2026-04-04T15:14:49.068Z</time></trkpt><trkpt lat="46.1730387" lon="12.7181394"><ele>262.20000000000005</ele><time>2026-04-04T15:14:50.069Z</time></trkpt><trkpt lat="46.1729886" lon="12.7180038"><ele>262.6</ele><time>2026-04-04T15:14:51.068Z</time></trkpt><trkpt lat="46.1729433" lon="12.7178869"><ele>263.0</ele><time>2026-04-04T15:14:52.068Z</time></trkpt><trkpt lat="46.1728962" lon="12.7177977"><ele>263.0</ele><time>2026-04-04T15:14:53.068Z</time></trkpt><trkpt lat="46.1728352" lon="12.7177449"><ele>263.0</ele><time>2026-04-04T15:14:54.069Z</time></trkpt><trkpt lat="46.1727636" lon="12.7177485"><ele>263.0</ele><time>2026-04-04T15:14:55.069Z</time></trkpt><trkpt lat="46.1726916" lon="12.7177927"><ele>263.0</ele><time>2026-04-04T15:14:56.067Z</time></trkpt><trkpt lat="46.1726115" lon="12.7178577"><ele>263.0</ele><time>2026-04-04T15:14:57.068Z</time></trkpt><trkpt lat="46.1725054" lon="12.7179063"><ele>263.0</ele><time>2026-04-04T15:14:58.069Z</time></trkpt><trkpt lat="46.1723801" lon="12.7179819"><ele>262.0</ele><time>2026-04-04T15:14:59.068Z</time></trkpt><trkpt lat="46.1722451" lon="12.7180557"><ele>261.0</ele><time>2026-04-04T15:15:00.068Z</time></trkpt><trkpt lat="46.1720972" lon="12.7181332"><ele>260.0</ele><time>2026-04-04T15:15:01.067Z</time></trkpt><trkpt lat="46.171943" lon="12.718214"><ele>260.0</ele><time>2026-04-04T15:15:02.068Z</time></trkpt><trkpt lat="46.171781" lon="12.718295"><ele>260.0</ele><time>2026-04-04T15:15:03.069Z</time></trkpt><trkpt lat="46.171614" lon="12.7183798"><ele>260.0</ele><time>2026-04-04T15:15:04.069Z</time></trkpt><trkpt lat="46.1714554" lon="12.7184655"><ele>260.33333333333337</ele><time>2026-04-04T15:15:05.067Z</time></trkpt><trkpt lat="46.171303" lon="12.7185437"><ele>260.6666666666667</ele><time>2026-04-04T15:15:06.067Z</time></trkpt><trkpt lat="46.1711504" lon="12.7186213"><ele>261.0</ele><time>2026-04-04T15:15:07.068Z</time></trkpt><trkpt lat="46.1709976" lon="12.718711"><ele>261.0</ele><time>2026-04-04T15:15:08.068Z</time></trkpt><trkpt lat="46.1708469" lon="12.7188093"><ele>261.0</ele><time>2026-04-04T15:15:09.067Z</time></trkpt><trkpt lat="46.1706962" lon="12.7189125"><ele>261.0</ele><time>2026-04-04T15:15:10.069Z</time></trkpt><trkpt lat="46.1705395" lon="12.7190209"><ele>263.3333333333333</ele><time>2026-04-04T15:15:11.069Z</time></trkpt><trkpt lat="46.1703776" lon="12.7191316"><ele>265.66666666666663</ele><time>2026-04-04T15:15:12.067Z</time></trkpt><trkpt lat="46.1702078" lon="12.7192488"><ele>268.0</ele><time>2026-04-04T15:15:13.068Z</time></trkpt><trkpt lat="46.1700301" lon="12.7193705"><ele>267.66666666666663</ele><time>2026-04-04T15:15:14.067Z</time></trkpt><trkpt lat="46.1698373" lon="12.7195003"><ele>267.3333333333333</ele><time>2026-04-04T15:15:15.068Z</time></trkpt><trkpt lat="46.1696343" lon="12.719638"><ele>267.0</ele><time>2026-04-04T15:15:16.068Z</time></trkpt><trkpt lat="46.1694221" lon="12.7197813"><ele>267.0</ele><time>2026-04-04T15:15:17.068Z</time></trkpt><trkpt lat="46.1692056" lon="12.7199281"><ele>267.0</ele><time>2026-04-04T15:15:18.068Z</time></trkpt><trkpt lat="46.1689899" lon="12.7200721"><ele>266.5</ele><time>2026-04-04T15:15:19.068Z</time></trkpt><trkpt lat="46.1687829" lon="12.7202137"><ele>266.0</ele><time>2026-04-04T15:15:20.069Z</time></trkpt><trkpt lat="46.1685787" lon="12.7203514"><ele>266.0</ele><time>2026-04-04T15:15:21.068Z</time></trkpt><trkpt lat="46.1683754" lon="12.7204838"><ele>266.0</ele><time>2026-04-04T15:15:22.068Z</time></trkpt><trkpt lat="46.1681731" lon="12.7206208"><ele>266.0</ele><time>2026-04-04T15:15:23.069Z</time></trkpt><trkpt lat="46.1679702" lon="12.7207603"><ele>266.0</ele><time>2026-04-04T15:15:24.068Z</time></trkpt><trkpt lat="46.167765" lon="12.7209016"><ele>266.0</ele><time>2026-04-04T15:15:25.068Z</time></trkpt><trkpt lat="46.1675579" lon="12.7210404"><ele>266.5</ele><time>2026-04-04T15:15:26.068Z</time></trkpt><trkpt lat="46.1673528" lon="12.7211779"><ele>267.0</ele><time>2026-04-04T15:15:27.069Z</time></trkpt><trkpt lat="46.167149" lon="12.7213136"><ele>267.0</ele><time>2026-04-04T15:15:28.069Z</time></trkpt><trkpt lat="46.1669457" lon="12.721427"><ele>267.0</ele><time>2026-04-04T15:15:29.068Z</time></trkpt><trkpt lat="46.1667391" lon="12.7215143"><ele>267.0</ele><time>2026-04-04T15:15:30.067Z</time></trkpt><trkpt lat="46.1665288" lon="12.7215837"><ele>266.3333333333333</ele><time>2026-04-04T15:15:31.069Z</time></trkpt><trkpt lat="46.1663196" lon="12.7216301"><ele>265.66666666666663</ele><time>2026-04-04T15:15:32.069Z</time></trkpt><trkpt lat="46.1661221" lon="12.7216575"><ele>265.0</ele><time>2026-04-04T15:15:33.069Z</time></trkpt><trkpt lat="46.1659373" lon="12.7216707"><ele>265.0</ele><time>2026-04-04T15:15:34.068Z</time></trkpt><trkpt lat="46.1657539" lon="12.7216716"><ele>265.0</ele><time>2026-04-04T15:15:35.069Z</time></trkpt><trkpt lat="46.1655685" lon="12.7216608"><ele>265.0</ele><time>2026-04-04T15:15:36.067Z</time></trkpt><trkpt lat="46.1653819" lon="12.72165"><ele>265.66666666666663</ele><time>2026-04-04T15:15:37.067Z</time></trkpt><trkpt lat="46.1651941" lon="12.7216392"><ele>266.3333333333333</ele><time>2026-04-04T15:15:38.069Z</time></trkpt><trkpt lat="46.165007" lon="12.7216287"><ele>267.0</ele><time>2026-04-04T15:15:39.068Z</time></trkpt><trkpt lat="46.1648194" lon="12.7216207"><ele>267.3333333333333</ele><time>2026-04-04T15:15:40.069Z</time></trkpt><trkpt lat="46.1646382" lon="12.7216101"><ele>267.66666666666663</ele><time>2026-04-04T15:15:41.068Z</time></trkpt><trkpt lat="46.1644704" lon="12.7215867"><ele>268.0</ele><time>2026-04-04T15:15:42.068Z</time></trkpt><trkpt lat="46.1643102" lon="12.7215391"><ele>268.0</ele><time>2026-04-04T15:15:43.068Z</time></trkpt><trkpt lat="46.1641524" lon="12.7214626"><ele>268.0</ele><time>2026-04-04T15:15:44.068Z</time></trkpt><trkpt lat="46.1639942" lon="12.7213513"><ele>268.0</ele><time>2026-04-04T15:15:45.068Z</time></trkpt><trkpt lat="46.1638402" lon="12.7212047"><ele>268.3333333333333</ele><time>2026-04-04T15:15:46.068Z</time></trkpt><trkpt lat="46.1636952" lon="12.7210308"><ele>268.6666666666667</ele><time>2026-04-04T15:15:47.067Z</time></trkpt><trkpt lat="46.1635711" lon="12.7208318"><ele>269.0</ele><time>2026-04-04T15:15:48.067Z</time></trkpt><trkpt lat="46.1634703" lon="12.7206199"><ele>269.0</ele><time>2026-04-04T15:15:49.068Z</time></trkpt><trkpt lat="46.1633827" lon="12.720389"><ele>269.0</ele><time>2026-04-04T15:15:50.069Z</time></trkpt><trkpt lat="46.1632995" lon="12.7201368"><ele>269.0</ele><time>2026-04-04T15:15:51.068Z</time></trkpt><trkpt lat="46.1632141" lon="12.7198649"><ele>268.5</ele><time>2026-04-04T15:15:52.068Z</time></trkpt><trkpt lat="46.1631225" lon="12.7195732"><ele>268.0</ele><time>2026-04-04T15:15:53.068Z</time></trkpt><trkpt lat="46.1630298" lon="12.719267"><ele>268.0</ele><time>2026-04-04T15:15:54.068Z</time></trkpt><trkpt lat="46.1629321" lon="12.7189605"><ele>268.0</ele><time>2026-04-04T15:15:55.067Z</time></trkpt><trkpt lat="46.1628398" lon="12.7186546"><ele>268.66666666666663</ele><time>2026-04-04T15:15:56.069Z</time></trkpt><trkpt lat="46.1627556" lon="12.7183757"><ele>269.3333333333333</ele><time>2026-04-04T15:15:57.067Z</time></trkpt><trkpt lat="46.1626826" lon="12.7181364"><ele>270.0</ele><time>2026-04-04T15:15:58.068Z</time></trkpt><trkpt lat="46.1626138" lon="12.7179156"><ele>270.5</ele><time>2026-04-04T15:15:59.068Z</time></trkpt><trkpt lat="46.1625547" lon="12.7177168"><ele>271.0</ele><time>2026-04-04T15:16:00.067Z</time></trkpt><trkpt lat="46.1625067" lon="12.7175549"><ele>271.5</ele><time>2026-04-04T15:16:01.068Z</time></trkpt><trkpt lat="46.1624595" lon="12.717404"><ele>272.0</ele><time>2026-04-04T15:16:02.068Z</time></trkpt><trkpt lat="46.1624146" lon="12.7172576"><ele>272.0</ele><time>2026-04-04T15:16:03.067Z</time></trkpt><trkpt lat="46.1623729" lon="12.7171246"><ele>272.0</ele><time>2026-04-04T15:16:04.068Z</time></trkpt><trkpt lat="46.1623321" lon="12.7169946"><ele>272.0</ele><time>2026-04-04T15:16:05.067Z</time></trkpt><trkpt lat="46.1622915" lon="12.7168633"><ele>272.0</ele><time>2026-04-04T15:16:06.068Z</time></trkpt><trkpt lat="46.1622484" lon="12.716728"><ele>272.0</ele><time>2026-04-04T15:16:07.067Z</time></trkpt><trkpt lat="46.1622056" lon="12.7165839"><ele>272.25</ele><time>2026-04-04T15:16:08.067Z</time></trkpt><trkpt lat="46.1621594" lon="12.7164318"><ele>272.5</ele><time>2026-04-04T15:16:09.067Z</time></trkpt><trkpt lat="46.1621115" lon="12.716274"><ele>272.75</ele><time>2026-04-04T15:16:10.068Z</time></trkpt><trkpt lat="46.1620632" lon="12.7161097"><ele>273.0</ele><time>2026-04-04T15:16:11.067Z</time></trkpt><trkpt lat="46.162013" lon="12.7159441"><ele>273.2</ele><time>2026-04-04T15:16:12.068Z</time></trkpt><trkpt lat="46.1619626" lon="12.715787"><ele>273.4</ele><time>2026-04-04T15:16:13.067Z</time></trkpt><trkpt lat="46.1619169" lon="12.7156471"><ele>273.59999999999997</ele><time>2026-04-04T15:16:14.069Z</time></trkpt><trkpt lat="46.161881" lon="12.7155281"><ele>273.8</ele><time>2026-04-04T15:16:15.068Z</time></trkpt><trkpt lat="46.1618475" lon="12.7154204"><ele>274.0</ele><time>2026-04-04T15:16:16.067Z</time></trkpt><trkpt lat="46.1618153" lon="12.7152993"><ele>274.3333333333333</ele><time>2026-04-04T15:16:17.068Z</time></trkpt><trkpt lat="46.161792" lon="12.7151824"><ele>274.66666666666663</ele><time>2026-04-04T15:16:18.068Z</time></trkpt><trkpt lat="46.1617803" lon="12.7150657"><ele>275.0</ele><time>2026-04-04T15:16:19.068Z</time></trkpt><trkpt lat="46.1617653" lon="12.7149521"><ele>275.3333333333333</ele><time>2026-04-04T15:16:20.067Z</time></trkpt><trkpt lat="46.1617282" lon="12.714855"><ele>275.6666666666667</ele><time>2026-04-04T15:16:21.068Z</time></trkpt><trkpt lat="46.1616715" lon="12.7147665"><ele>276.0</ele><time>2026-04-04T15:16:22.067Z</time></trkpt><trkpt lat="46.1616173" lon="12.7146506"><ele>276.0</ele><time>2026-04-04T15:16:23.067Z</time></trkpt><trkpt lat="46.1615675" lon="12.7145082"><ele>276.0</ele><time>2026-04-04T15:16:24.068Z</time></trkpt><trkpt lat="46.1615159" lon="12.7143387"><ele>276.0</ele><time>2026-04-04T15:16:25.069Z</time></trkpt><trkpt lat="46.161455" lon="12.7141473"><ele>276.0</ele><time>2026-04-04T15:16:26.068Z</time></trkpt><trkpt lat="46.1613934" lon="12.7139498"><ele>275.75</ele><time>2026-04-04T15:16:27.067Z</time></trkpt><trkpt lat="46.1613313" lon="12.7137484"><ele>275.5</ele><time>2026-04-04T15:16:28.067Z</time></trkpt><trkpt lat="46.1612731" lon="12.7135564"><ele>275.25</ele><time>2026-04-04T15:16:29.067Z</time></trkpt><trkpt lat="46.1612167" lon="12.7133732"><ele>275.0</ele><time>2026-04-04T15:16:30.068Z</time></trkpt><trkpt lat="46.1611585" lon="12.7131907"><ele>275.0</ele><time>2026-04-04T15:16:31.068Z</time></trkpt><trkpt lat="46.1611005" lon="12.7130066"><ele>275.0</ele><time>2026-04-04T15:16:32.067Z</time></trkpt><trkpt lat="46.1610447" lon="12.7128278"><ele>275.0</ele><time>2026-04-04T15:16:33.069Z</time></trkpt><trkpt lat="46.160992" lon="12.7126511"><ele>275.0</ele><time>2026-04-04T15:16:34.068Z</time></trkpt><trkpt lat="46.1609371" lon="12.7124739"><ele>275.75</ele><time>2026-04-04T15:16:35.069Z</time></trkpt><trkpt lat="46.1608823" lon="12.7122961"><ele>276.5</ele><time>2026-04-04T15:16:36.067Z</time></trkpt><trkpt lat="46.1608254" lon="12.7121147"><ele>277.25</ele><time>2026-04-04T15:16:37.067Z</time></trkpt><trkpt lat="46.1607674" lon="12.7119285"><ele>278.0</ele><time>2026-04-04T15:16:38.068Z</time></trkpt><trkpt lat="46.1607079" lon="12.7117415"><ele>278.5</ele><time>2026-04-04T15:16:39.067Z</time></trkpt><trkpt lat="46.1606491" lon="12.7115476"><ele>279.0</ele><time>2026-04-04T15:16:40.067Z</time></trkpt><trkpt lat="46.1605889" lon="12.7113555"><ele>279.5</ele><time>2026-04-04T15:16:41.067Z</time></trkpt><trkpt lat="46.1605278" lon="12.7111582"><ele>280.0</ele><time>2026-04-04T15:16:42.067Z</time></trkpt><trkpt lat="46.1604673" lon="12.7109577"><ele>280.0</ele><time>2026-04-04T15:16:43.068Z</time></trkpt><trkpt lat="46.1604056" lon="12.7107553"><ele>280.0</ele><time>2026-04-04T15:16:44.067Z</time></trkpt><trkpt lat="46.1603415" lon="12.7105523"><ele>280.0</ele><time>2026-04-04T15:16:45.068Z</time></trkpt><trkpt lat="46.1602781" lon="12.7103502"><ele>280.0</ele><time>2026-04-04T15:16:46.068Z</time></trkpt><trkpt lat="46.1602172" lon="12.7101536"><ele>280.0</ele><time>2026-04-04T15:16:47.068Z</time></trkpt><trkpt lat="46.1601582" lon="12.7099588"><ele>280.0</ele><time>2026-04-04T15:16:48.069Z</time></trkpt><trkpt lat="46.1600986" lon="12.7097648"><ele>280.0</ele><time>2026-04-04T15:16:49.07Z</time></trkpt><trkpt lat="46.1600394" lon="12.7095742"><ele>280.5</ele><time>2026-04-04T15:16:50.069Z</time></trkpt><trkpt lat="46.1599794" lon="12.7093835"><ele>281.0</ele><time>2026-04-04T15:16:51.068Z</time></trkpt><trkpt lat="46.1599229" lon="12.7091979"><ele>281.5</ele><time>2026-04-04T15:16:52.068Z</time></trkpt><trkpt lat="46.1598691" lon="12.7090259"><ele>282.0</ele><time>2026-04-04T15:16:53.068Z</time></trkpt><trkpt lat="46.1598206" lon="12.7088664"><ele>282.0</ele><time>2026-04-04T15:16:54.068Z</time></trkpt><trkpt lat="46.1597731" lon="12.7087187"><ele>282.0</ele><time>2026-04-04T15:16:55.068Z</time></trkpt><trkpt lat="46.159731" lon="12.7085908"><ele>282.0</ele><time>2026-04-04T15:16:56.069Z</time></trkpt><trkpt lat="46.1596982" lon="12.7084865"><ele>282.0</ele><time>2026-04-04T15:16:57.069Z</time></trkpt><trkpt lat="46.1596752" lon="12.7083954"><ele>282.0</ele><time>2026-04-04T15:16:58.068Z</time></trkpt><trkpt lat="46.1596796" lon="12.7082566"><ele>281.6666666666667</ele><time>2026-04-04T15:17:00.069Z</time></trkpt><trkpt lat="46.1597105" lon="12.7081498"><ele>281.3333333333333</ele><time>2026-04-04T15:17:02.068Z</time></trkpt><trkpt lat="46.1597204" lon="12.7080575"><ele>281.0</ele><time>2026-04-04T15:17:04.07Z</time></trkpt><trkpt lat="46.1597014" lon="12.7079538"><ele>280.66666666666663</ele><time>2026-04-04T15:17:07.068Z</time></trkpt><trkpt lat="46.1596564" lon="12.7078757"><ele>280.3333333333333</ele><time>2026-04-04T15:17:11.068Z</time></trkpt><trkpt lat="46.159575" lon="12.7078207"><ele>280.0</ele><time>2026-04-04T15:23:54.069Z</time></trkpt><trkpt lat="46.1595117" lon="12.7077461"><ele>280.4</ele><time>2026-04-04T15:23:57.072Z</time></trkpt><trkpt lat="46.1594503" lon="12.7076394"><ele>280.8</ele><time>2026-04-04T15:24:00.065Z</time></trkpt><trkpt lat="46.1593949" lon="12.7074942"><ele>281.2</ele><time>2026-04-04T15:24:02.069Z</time></trkpt><trkpt lat="46.1593643" lon="12.707395"><ele>281.6</ele><time>2026-04-04T15:24:03.073Z</time></trkpt><trkpt lat="46.1593344" lon="12.7073076"><ele>282.0</ele><time>2026-04-04T15:24:04.065Z</time></trkpt><trkpt lat="46.1592841" lon="12.7071478"><ele>282.0</ele><time>2026-04-04T15:24:06.067Z</time></trkpt><trkpt lat="46.1592422" lon="12.7070065"><ele>282.0</ele><time>2026-04-04T15:24:08.073Z</time></trkpt><trkpt lat="46.1591934" lon="12.7068499"><ele>282.0</ele><time>2026-04-04T15:24:10.064Z</time></trkpt><trkpt lat="46.1591578" lon="12.7067251"><ele>282.0</ele><time>2026-04-04T15:24:12.075Z</time></trkpt><trkpt lat="46.1591249" lon="12.7066146"><ele>282.0</ele><time>2026-04-04T15:24:14.067Z</time></trkpt><trkpt lat="46.1590776" lon="12.7064541"><ele>282.2</ele><time>2026-04-04T15:24:16.063Z</time></trkpt><trkpt lat="46.1590442" lon="12.7063466"><ele>282.4</ele><time>2026-04-04T15:24:17.065Z</time></trkpt><trkpt lat="46.1590046" lon="12.7062286"><ele>282.6</ele><time>2026-04-04T15:24:18.076Z</time></trkpt><trkpt lat="46.1589667" lon="12.7061067"><ele>282.8</ele><time>2026-04-04T15:24:19.068Z</time></trkpt><trkpt lat="46.1589279" lon="12.7059802"><ele>283.0</ele><time>2026-04-04T15:24:20.074Z</time></trkpt><trkpt lat="46.1588873" lon="12.7058453"><ele>283.5</ele><time>2026-04-04T15:24:21.069Z</time></trkpt><trkpt lat="46.1588414" lon="12.7056975"><ele>284.0</ele><time>2026-04-04T15:24:22.066Z</time></trkpt><trkpt lat="46.1587948" lon="12.7055395"><ele>284.5</ele><time>2026-04-04T15:24:23.075Z</time></trkpt><trkpt lat="46.1587442" lon="12.7053665"><ele>285.0</ele><time>2026-04-04T15:24:24.075Z</time></trkpt><trkpt lat="46.1586917" lon="12.7051921"><ele>285.0</ele><time>2026-04-04T15:24:25.072Z</time></trkpt><trkpt lat="46.1586376" lon="12.7050147"><ele>285.0</ele><time>2026-04-04T15:24:26.066Z</time></trkpt><trkpt lat="46.1585848" lon="12.7048418"><ele>285.0</ele><time>2026-04-04T15:24:27.075Z</time></trkpt><trkpt lat="46.1585355" lon="12.7046696"><ele>285.0</ele><time>2026-04-04T15:24:28.075Z</time></trkpt><trkpt lat="46.1584831" lon="12.7044957"><ele>285.25</ele><time>2026-04-04T15:24:29.065Z</time></trkpt><trkpt lat="46.1584289" lon="12.7043105"><ele>285.5</ele><time>2026-04-04T15:24:30.064Z</time></trkpt><trkpt lat="46.1583717" lon="12.7041225"><ele>285.75</ele><time>2026-04-04T15:24:31.074Z</time></trkpt><trkpt lat="46.158318" lon="12.7039383"><ele>286.0</ele><time>2026-04-04T15:24:32.069Z</time></trkpt><trkpt lat="46.1582646" lon="12.7037521"><ele>286.25</ele><time>2026-04-04T15:24:33.072Z</time></trkpt><trkpt lat="46.1582105" lon="12.7035687"><ele>286.5</ele><time>2026-04-04T15:24:34.068Z</time></trkpt><trkpt lat="46.1581575" lon="12.7033913"><ele>286.75</ele><time>2026-04-04T15:24:35.067Z</time></trkpt><trkpt lat="46.1581066" lon="12.703222"><ele>287.0</ele><time>2026-04-04T15:24:36.068Z</time></trkpt><trkpt lat="46.1580561" lon="12.7030609"><ele>287.0</ele><time>2026-04-04T15:24:37.073Z</time></trkpt><trkpt lat="46.1580077" lon="12.7029052"><ele>287.0</ele><time>2026-04-04T15:24:38.066Z</time></trkpt><trkpt lat="46.1579604" lon="12.7027535"><ele>287.0</ele><time>2026-04-04T15:24:39.066Z</time></trkpt><trkpt lat="46.1579147" lon="12.7025931"><ele>287.0</ele><time>2026-04-04T15:24:40.068Z</time></trkpt><trkpt lat="46.157868" lon="12.7024341"><ele>287.25</ele><time>2026-04-04T15:24:41.07Z</time></trkpt><trkpt lat="46.1578215" lon="12.7022751"><ele>287.5</ele><time>2026-04-04T15:24:42.067Z</time></trkpt><trkpt lat="46.1577729" lon="12.7021153"><ele>287.75</ele><time>2026-04-04T15:24:43.073Z</time></trkpt><trkpt lat="46.1577218" lon="12.701953"><ele>288.0</ele><time>2026-04-04T15:24:44.07Z</time></trkpt><trkpt lat="46.1576702" lon="12.7017848"><ele>288.5</ele><time>2026-04-04T15:24:45.069Z</time></trkpt><trkpt lat="46.1576171" lon="12.7016139"><ele>289.0</ele><time>2026-04-04T15:24:46.067Z</time></trkpt><trkpt lat="46.1575652" lon="12.7014378"><ele>289.5</ele><time>2026-04-04T15:24:47.065Z</time></trkpt><trkpt lat="46.1575107" lon="12.7012584"><ele>290.0</ele><time>2026-04-04T15:24:48.076Z</time></trkpt><trkpt lat="46.1574564" lon="12.7010826"><ele>290.0</ele><time>2026-04-04T15:24:49.069Z</time></trkpt><trkpt lat="46.1574048" lon="12.7009157"><ele>290.0</ele><time>2026-04-04T15:24:50.074Z</time></trkpt><trkpt lat="46.1573584" lon="12.7007634"><ele>290.0</ele><time>2026-04-04T15:24:51.07Z</time></trkpt><trkpt lat="46.1573167" lon="12.70062"><ele>290.0</ele><time>2026-04-04T15:24:52.071Z</time></trkpt><trkpt lat="46.1572775" lon="12.7004923"><ele>290.0</ele><time>2026-04-04T15:24:53.066Z</time></trkpt><trkpt lat="46.1572409" lon="12.7003739"><ele>289.8571428571429</ele><time>2026-04-04T15:24:54.068Z</time></trkpt><trkpt lat="46.1572082" lon="12.7002625"><ele>289.7142857142857</ele><time>2026-04-04T15:24:55.07Z</time></trkpt><trkpt lat="46.1571756" lon="12.7001565"><ele>289.57142857142856</ele><time>2026-04-04T15:24:56.074Z</time></trkpt><trkpt lat="46.1571462" lon="12.7000554"><ele>289.42857142857144</ele><time>2026-04-04T15:24:57.072Z</time></trkpt><trkpt lat="46.1571165" lon="12.6999593"><ele>289.2857142857143</ele><time>2026-04-04T15:24:58.066Z</time></trkpt><trkpt lat="46.1570889" lon="12.6998684"><ele>289.14285714285717</ele><time>2026-04-04T15:24:59.073Z</time></trkpt><trkpt lat="46.1570626" lon="12.6997833"><ele>289.0</ele><time>2026-04-04T15:25:00.064Z</time></trkpt><trkpt lat="46.1570339" lon="12.6996899"><ele>289.0</ele><time>2026-04-04T15:25:01.063Z</time></trkpt><trkpt lat="46.1569957" lon="12.699567"><ele>289.0</ele><time>2026-04-04T15:25:02.064Z</time></trkpt><trkpt lat="46.1569478" lon="12.6994217"><ele>289.0</ele><time>2026-04-04T15:25:03.063Z</time></trkpt><trkpt lat="46.1568895" lon="12.6992489"><ele>289.0</ele><time>2026-04-04T15:25:04.063Z</time></trkpt><trkpt lat="46.1568239" lon="12.6990418"><ele>289.66666666666663</ele><time>2026-04-04T15:25:05.064Z</time></trkpt><trkpt lat="46.1567481" lon="12.698806"><ele>290.3333333333333</ele><time>2026-04-04T15:25:06.063Z</time></trkpt><trkpt lat="46.1566647" lon="12.6985452"><ele>291.0</ele><time>2026-04-04T15:25:07.063Z</time></trkpt><trkpt lat="46.1565801" lon="12.6982574"><ele>291.5</ele><time>2026-04-04T15:25:08.064Z</time></trkpt><trkpt lat="46.1564928" lon="12.6979503"><ele>292.0</ele><time>2026-04-04T15:25:09.063Z</time></trkpt><trkpt lat="46.1564024" lon="12.6976295"><ele>292.0</ele><time>2026-04-04T15:25:10.063Z</time></trkpt><trkpt lat="46.1563114" lon="12.6973003"><ele>292.0</ele><time>2026-04-04T15:25:11.063Z</time></trkpt><trkpt lat="46.1562202" lon="12.6969663"><ele>291.5</ele><time>2026-04-04T15:25:12.064Z</time></trkpt><trkpt lat="46.1561273" lon="12.6966277"><ele>291.0</ele><time>2026-04-04T15:25:13.063Z</time></trkpt><trkpt lat="46.1560334" lon="12.6963001"><ele>291.5</ele><time>2026-04-04T15:25:14.064Z</time></trkpt><trkpt lat="46.1559457" lon="12.6959878"><ele>292.0</ele><time>2026-04-04T15:25:15.063Z</time></trkpt><trkpt lat="46.1558582" lon="12.6956882"><ele>292.0</ele><time>2026-04-04T15:25:16.064Z</time></trkpt><trkpt lat="46.1557789" lon="12.6953998"><ele>292.0</ele><time>2026-04-04T15:25:17.064Z</time></trkpt><trkpt lat="46.155705" lon="12.6951218"><ele>292.0</ele><time>2026-04-04T15:25:18.063Z</time></trkpt><trkpt lat="46.1556319" lon="12.6948565"><ele>293.0</ele><time>2026-04-04T15:25:19.063Z</time></trkpt><trkpt lat="46.1555587" lon="12.6945998"><ele>294.0</ele><time>2026-04-04T15:25:20.064Z</time></trkpt><trkpt lat="46.1554901" lon="12.6943551"><ele>295.0</ele><time>2026-04-04T15:25:21.064Z</time></trkpt><trkpt lat="46.1554266" lon="12.6941149"><ele>295.66666666666663</ele><time>2026-04-04T15:25:22.064Z</time></trkpt><trkpt lat="46.1553661" lon="12.6938893"><ele>296.3333333333333</ele><time>2026-04-04T15:25:23.064Z</time></trkpt><trkpt lat="46.155307" lon="12.6936772"><ele>297.0</ele><time>2026-04-04T15:25:24.063Z</time></trkpt><trkpt lat="46.1552516" lon="12.693476"><ele>297.0</ele><time>2026-04-04T15:25:25.063Z</time></trkpt><trkpt lat="46.1551959" lon="12.6932853"><ele>297.0</ele><time>2026-04-04T15:25:26.064Z</time></trkpt><trkpt lat="46.1551403" lon="12.6930949"><ele>297.0</ele><time>2026-04-04T15:25:27.064Z</time></trkpt><trkpt lat="46.1550875" lon="12.6929077"><ele>297.0</ele><time>2026-04-04T15:25:28.064Z</time></trkpt><trkpt lat="46.1550401" lon="12.6927249"><ele>297.25</ele><time>2026-04-04T15:25:29.063Z</time></trkpt><trkpt lat="46.1549994" lon="12.6925517"><ele>297.5</ele><time>2026-04-04T15:25:30.063Z</time></trkpt><trkpt lat="46.154976" lon="12.6923834"><ele>297.75</ele><time>2026-04-04T15:25:31.063Z</time></trkpt><trkpt lat="46.1549783" lon="12.6922154"><ele>298.0</ele><time>2026-04-04T15:25:32.064Z</time></trkpt><trkpt lat="46.1550097" lon="12.6920316"><ele>297.66666666666663</ele><time>2026-04-04T15:25:33.063Z</time></trkpt><trkpt lat="46.1550574" lon="12.69184"><ele>297.3333333333333</ele><time>2026-04-04T15:25:34.064Z</time></trkpt><trkpt lat="46.155112" lon="12.6916268"><ele>297.0</ele><time>2026-04-04T15:25:35.064Z</time></trkpt><trkpt lat="46.1551542" lon="12.6913955"><ele>297.0</ele><time>2026-04-04T15:25:36.064Z</time></trkpt><trkpt lat="46.155173" lon="12.6911463"><ele>297.0</ele><time>2026-04-04T15:25:37.063Z</time></trkpt><trkpt lat="46.155157" lon="12.6908932"><ele>297.0</ele><time>2026-04-04T15:25:38.064Z</time></trkpt><trkpt lat="46.155106" lon="12.6906511"><ele>297.3333333333333</ele><time>2026-04-04T15:25:39.064Z</time></trkpt><trkpt lat="46.1550244" lon="12.69043"><ele>297.66666666666663</ele><time>2026-04-04T15:25:40.064Z</time></trkpt><trkpt lat="46.1549145" lon="12.6902345"><ele>298.0</ele><time>2026-04-04T15:25:41.063Z</time></trkpt><trkpt lat="46.1547802" lon="12.6900789"><ele>297.3333333333333</ele><time>2026-04-04T15:25:42.063Z</time></trkpt><trkpt lat="46.1546305" lon="12.6899601"><ele>296.6666666666667</ele><time>2026-04-04T15:25:43.064Z</time></trkpt><trkpt lat="46.1544727" lon="12.6898744"><ele>296.0</ele><time>2026-04-04T15:25:44.063Z</time></trkpt><trkpt lat="46.1543256" lon="12.6898069"><ele>296.0</ele><time>2026-04-04T15:25:45.063Z</time></trkpt><trkpt lat="46.1542053" lon="12.6897269"><ele>296.0</ele><time>2026-04-04T15:25:46.064Z</time></trkpt><trkpt lat="46.1541102" lon="12.6896079"><ele>296.0</ele><time>2026-04-04T15:25:47.063Z</time></trkpt><trkpt lat="46.1540252" lon="12.6894647"><ele>296.0</ele><time>2026-04-04T15:25:48.064Z</time></trkpt><trkpt lat="46.1539508" lon="12.6892956"><ele>295.6666666666667</ele><time>2026-04-04T15:25:49.063Z</time></trkpt><trkpt lat="46.1538791" lon="12.6890915"><ele>295.3333333333333</ele><time>2026-04-04T15:25:50.064Z</time></trkpt><trkpt lat="46.1537949" lon="12.6888492"><ele>295.0</ele><time>2026-04-04T15:25:51.063Z</time></trkpt><trkpt lat="46.1536963" lon="12.6885781"><ele>295.0</ele><time>2026-04-04T15:25:52.064Z</time></trkpt><trkpt lat="46.1535859" lon="12.6882804"><ele>295.0</ele><time>2026-04-04T15:25:53.064Z</time></trkpt><trkpt lat="46.1534654" lon="12.6879541"><ele>295.0</ele><time>2026-04-04T15:25:54.063Z</time></trkpt><trkpt lat="46.1533368" lon="12.6876082"><ele>295.0</ele><time>2026-04-04T15:25:55.064Z</time></trkpt><trkpt lat="46.1532006" lon="12.6872383"><ele>294.5</ele><time>2026-04-04T15:25:56.064Z</time></trkpt><trkpt lat="46.1530638" lon="12.6868606"><ele>294.0</ele><time>2026-04-04T15:25:57.063Z</time></trkpt><trkpt lat="46.1529328" lon="12.6864865"><ele>294.0</ele><time>2026-04-04T15:25:58.063Z</time></trkpt><trkpt lat="46.1528043" lon="12.6861123"><ele>294.0</ele><time>2026-04-04T15:25:59.063Z</time></trkpt><trkpt lat="46.152676" lon="12.6857459"><ele>295.0</ele><time>2026-04-04T15:26:00.064Z</time></trkpt><trkpt lat="46.1525491" lon="12.6853883"><ele>296.0</ele><time>2026-04-04T15:26:01.063Z</time></trkpt><trkpt lat="46.152425" lon="12.6850348"><ele>296.0</ele><time>2026-04-04T15:26:02.064Z</time></trkpt><trkpt lat="46.1523011" lon="12.6846911"><ele>296.0</ele><time>2026-04-04T15:26:03.064Z</time></trkpt><trkpt lat="46.1521783" lon="12.6843538"><ele>294.0</ele><time>2026-04-04T15:26:04.064Z</time></trkpt><trkpt lat="46.1520578" lon="12.6840197"><ele>292.0</ele><time>2026-04-04T15:26:05.063Z</time></trkpt><trkpt lat="46.1519394" lon="12.6836887"><ele>288.5</ele><time>2026-04-04T15:26:06.063Z</time></trkpt><trkpt lat="46.1518221" lon="12.6833583"><ele>285.0</ele><time>2026-04-04T15:26:07.064Z</time></trkpt><trkpt lat="46.1517055" lon="12.6830295"><ele>279.5</ele><time>2026-04-04T15:26:08.064Z</time></trkpt><trkpt lat="46.1515933" lon="12.6826965"><ele>274.0</ele><time>2026-04-04T15:26:09.063Z</time></trkpt><trkpt lat="46.1514796" lon="12.6823581"><ele>271.0</ele><time>2026-04-04T15:26:10.063Z</time></trkpt><trkpt lat="46.1513646" lon="12.6820262"><ele>268.0</ele><time>2026-04-04T15:26:11.064Z</time></trkpt><trkpt lat="46.1512503" lon="12.6816952"><ele>268.0</ele><time>2026-04-04T15:26:12.063Z</time></trkpt><trkpt lat="46.1511361" lon="12.6813688"><ele>268.0</ele><time>2026-04-04T15:26:13.063Z</time></trkpt><trkpt lat="46.1510228" lon="12.6810424"><ele>266.0</ele><time>2026-04-04T15:26:14.064Z</time></trkpt><trkpt lat="46.1509097" lon="12.6807173"><ele>264.0</ele><time>2026-04-04T15:26:15.063Z</time></trkpt><trkpt lat="46.1507995" lon="12.6803921"><ele>261.5</ele><time>2026-04-04T15:26:16.063Z</time></trkpt><trkpt lat="46.1506916" lon="12.6800721"><ele>259.0</ele><time>2026-04-04T15:26:17.063Z</time></trkpt><trkpt lat="46.1505827" lon="12.679756"><ele>259.0</ele><time>2026-04-04T15:26:18.064Z</time></trkpt><trkpt lat="46.1504767" lon="12.679441"><ele>259.0</ele><time>2026-04-04T15:26:19.063Z</time></trkpt><trkpt lat="46.1503726" lon="12.6791351"><ele>258.5</ele><time>2026-04-04T15:26:20.063Z</time></trkpt><trkpt lat="46.1502699" lon="12.6788347"><ele>258.0</ele><time>2026-04-04T15:26:21.064Z</time></trkpt><trkpt lat="46.1501694" lon="12.6785426"><ele>258.0</ele><time>2026-04-04T15:26:22.064Z</time></trkpt><trkpt lat="46.1500699" lon="12.6782539"><ele>258.0</ele><time>2026-04-04T15:26:23.064Z</time></trkpt><trkpt lat="46.1499707" lon="12.6779662"><ele>258.0</ele><time>2026-04-04T15:26:24.064Z</time></trkpt><trkpt lat="46.1498716" lon="12.6776788"><ele>258.0</ele><time>2026-04-04T15:26:25.064Z</time></trkpt><trkpt lat="46.1497731" lon="12.6773902"><ele>258.0</ele><time>2026-04-04T15:26:26.063Z</time></trkpt><trkpt lat="46.149673" lon="12.677097"><ele>258.0</ele><time>2026-04-04T15:26:27.064Z</time></trkpt><trkpt lat="46.1495722" lon="12.6767989"><ele>259.0</ele><time>2026-04-04T15:26:28.064Z</time></trkpt><trkpt lat="46.1494675" lon="12.6764987"><ele>260.0</ele><time>2026-04-04T15:26:29.064Z</time></trkpt><trkpt lat="46.1493605" lon="12.6761875"><ele>260.5</ele><time>2026-04-04T15:26:30.063Z</time></trkpt><trkpt lat="46.1492533" lon="12.6758728"><ele>261.0</ele><time>2026-04-04T15:26:31.063Z</time></trkpt><trkpt lat="46.1491457" lon="12.6755541"><ele>260.5</ele><time>2026-04-04T15:26:32.063Z</time></trkpt><trkpt lat="46.1490351" lon="12.6752379"><ele>260.0</ele><time>2026-04-04T15:26:33.064Z</time></trkpt><trkpt lat="46.1489231" lon="12.6749159"><ele>260.0</ele><time>2026-04-04T15:26:34.064Z</time></trkpt><trkpt lat="46.1488116" lon="12.6745965"><ele>260.0</ele><time>2026-04-04T15:26:35.063Z</time></trkpt><trkpt lat="46.1487024" lon="12.6742757"><ele>260.0</ele><time>2026-04-04T15:26:36.064Z</time></trkpt><trkpt lat="46.1485933" lon="12.6739546"><ele>260.0</ele><time>2026-04-04T15:26:37.063Z</time></trkpt><trkpt lat="46.1484847" lon="12.6736372"><ele>260.0</ele><time>2026-04-04T15:26:38.064Z</time></trkpt><trkpt lat="46.1483771" lon="12.6733294"><ele>260.0</ele><time>2026-04-04T15:26:39.064Z</time></trkpt><trkpt lat="46.1482745" lon="12.6730357"><ele>266.0</ele><time>2026-04-04T15:26:40.063Z</time></trkpt><trkpt lat="46.1481772" lon="12.6727562"><ele>272.0</ele><time>2026-04-04T15:26:41.064Z</time></trkpt><trkpt lat="46.1480853" lon="12.6724873"><ele>278.0</ele><time>2026-04-04T15:26:42.064Z</time></trkpt><trkpt lat="46.1479961" lon="12.6722333"><ele>278.0</ele><time>2026-04-04T15:26:43.063Z</time></trkpt><trkpt lat="46.1479081" lon="12.6719856"><ele>278.0</ele><time>2026-04-04T15:26:44.064Z</time></trkpt><trkpt lat="46.147821" lon="12.6717399"><ele>278.0</ele><time>2026-04-04T15:26:45.064Z</time></trkpt><trkpt lat="46.1477311" lon="12.6714971"><ele>283.0</ele><time>2026-04-04T15:26:46.063Z</time></trkpt><trkpt lat="46.1476411" lon="12.6712551"><ele>288.0</ele><time>2026-04-04T15:26:47.063Z</time></trkpt><trkpt lat="46.1475422" lon="12.6710086"><ele>293.0</ele><time>2026-04-04T15:26:48.063Z</time></trkpt><trkpt lat="46.1474449" lon="12.6707565"><ele>293.6666666666667</ele><time>2026-04-04T15:26:49.064Z</time></trkpt><trkpt lat="46.147341" lon="12.6704998"><ele>294.3333333333333</ele><time>2026-04-04T15:26:50.063Z</time></trkpt><trkpt lat="46.1472279" lon="12.670232"><ele>295.0</ele><time>2026-04-04T15:26:51.063Z</time></trkpt><trkpt lat="46.1471023" lon="12.6699652"><ele>295.5</ele><time>2026-04-04T15:26:52.063Z</time></trkpt><trkpt lat="46.1469685" lon="12.6697049"><ele>296.0</ele><time>2026-04-04T15:26:53.063Z</time></trkpt><trkpt lat="46.146828" lon="12.6694502"><ele>296.0</ele><time>2026-04-04T15:26:54.063Z</time></trkpt><trkpt lat="46.14668" lon="12.6692009"><ele>296.0</ele><time>2026-04-04T15:26:55.063Z</time></trkpt><trkpt lat="46.1465277" lon="12.6689559"><ele>296.0</ele><time>2026-04-04T15:26:56.063Z</time></trkpt><trkpt lat="46.1463679" lon="12.668715"><ele>296.0</ele><time>2026-04-04T15:26:57.063Z</time></trkpt><trkpt lat="46.1461987" lon="12.6684833"><ele>296.0</ele><time>2026-04-04T15:26:58.063Z</time></trkpt><trkpt lat="46.1460091" lon="12.6682562"><ele>296.0</ele><time>2026-04-04T15:26:59.064Z</time></trkpt><trkpt lat="46.1457991" lon="12.6680314"><ele>296.5</ele><time>2026-04-04T15:27:00.063Z</time></trkpt><trkpt lat="46.145577" lon="12.667797"><ele>297.0</ele><time>2026-04-04T15:27:01.063Z</time></trkpt><trkpt lat="46.1453551" lon="12.6675517"><ele>297.5</ele><time>2026-04-04T15:27:02.064Z</time></trkpt><trkpt lat="46.1451245" lon="12.6673244"><ele>298.0</ele><time>2026-04-04T15:27:03.063Z</time></trkpt><trkpt lat="46.1448891" lon="12.6671177"><ele>296.0</ele><time>2026-04-04T15:27:04.064Z</time></trkpt><trkpt lat="46.1446511" lon="12.6669235"><ele>294.0</ele><time>2026-04-04T15:27:05.063Z</time></trkpt><trkpt lat="46.1444167" lon="12.6667362"><ele>294.0</ele><time>2026-04-04T15:27:06.064Z</time></trkpt><trkpt lat="46.144183" lon="12.6665572"><ele>294.0</ele><time>2026-04-04T15:27:07.064Z</time></trkpt><trkpt lat="46.1439515" lon="12.6663859"><ele>294.0</ele><time>2026-04-04T15:27:08.064Z</time></trkpt><trkpt lat="46.1437237" lon="12.6662158"><ele>294.0</ele><time>2026-04-04T15:27:09.064Z</time></trkpt><trkpt lat="46.1434958" lon="12.6660445"><ele>294.5</ele><time>2026-04-04T15:27:10.063Z</time></trkpt><trkpt lat="46.143264" lon="12.6658744"><ele>295.0</ele><time>2026-04-04T15:27:11.064Z</time></trkpt><trkpt lat="46.1430286" lon="12.6657053"><ele>293.5</ele><time>2026-04-04T15:27:12.063Z</time></trkpt><trkpt lat="46.1427931" lon="12.6655369"><ele>292.0</ele><time>2026-04-04T15:27:13.064Z</time></trkpt><trkpt lat="46.1425557" lon="12.6653773"><ele>291.0</ele><time>2026-04-04T15:27:14.063Z</time></trkpt><trkpt lat="46.1423145" lon="12.6652235"><ele>290.0</ele><time>2026-04-04T15:27:15.064Z</time></trkpt><trkpt lat="46.1420752" lon="12.6650742"><ele>290.0</ele><time>2026-04-04T15:27:16.063Z</time></trkpt><trkpt lat="46.1418323" lon="12.6649348"><ele>290.0</ele><time>2026-04-04T15:27:17.064Z</time></trkpt><trkpt lat="46.1415853" lon="12.6648043"><ele>289.5</ele><time>2026-04-04T15:27:18.063Z</time></trkpt><trkpt lat="46.1413369" lon="12.664679"><ele>289.0</ele><time>2026-04-04T15:27:19.064Z</time></trkpt><trkpt lat="46.1410881" lon="12.664558"><ele>289.0</ele><time>2026-04-04T15:27:20.064Z</time></trkpt><trkpt lat="46.1408406" lon="12.6644429"><ele>289.0</ele><time>2026-04-04T15:27:21.063Z</time></trkpt><trkpt lat="46.1405868" lon="12.6643398"><ele>290.0</ele><time>2026-04-04T15:27:22.064Z</time></trkpt><trkpt lat="46.1403313" lon="12.664242"><ele>291.0</ele><time>2026-04-04T15:27:23.064Z</time></trkpt><trkpt lat="46.1400753" lon="12.6641503"><ele>289.0</ele><time>2026-04-04T15:27:24.063Z</time></trkpt><trkpt lat="46.1398226" lon="12.6640567"><ele>287.0</ele><time>2026-04-04T15:27:25.064Z</time></trkpt><trkpt lat="46.1395684" lon="12.6639703"><ele>287.0</ele><time>2026-04-04T15:27:26.063Z</time></trkpt><trkpt lat="46.1393147" lon="12.663886"><ele>287.0</ele><time>2026-04-04T15:27:27.064Z</time></trkpt><trkpt lat="46.1390658" lon="12.6637992"><ele>286.5</ele><time>2026-04-04T15:27:28.063Z</time></trkpt><trkpt lat="46.1388204" lon="12.6637166"><ele>286.0</ele><time>2026-04-04T15:27:29.063Z</time></trkpt><trkpt lat="46.1385786" lon="12.663638"><ele>286.0</ele><time>2026-04-04T15:27:30.063Z</time></trkpt><trkpt lat="46.1383422" lon="12.663557"><ele>286.0</ele><time>2026-04-04T15:27:31.063Z</time></trkpt><trkpt lat="46.1381049" lon="12.6634707"><ele>286.0</ele><time>2026-04-04T15:27:32.063Z</time></trkpt><trkpt lat="46.1378687" lon="12.6633795"><ele>286.0</ele><time>2026-04-04T15:27:33.063Z</time></trkpt><trkpt lat="46.1376345" lon="12.6632817"><ele>286.0</ele><time>2026-04-04T15:27:34.063Z</time></trkpt><trkpt lat="46.1374003" lon="12.6631796"><ele>286.0</ele><time>2026-04-04T15:27:35.064Z</time></trkpt><trkpt lat="46.1371646" lon="12.6630694"><ele>285.5</ele><time>2026-04-04T15:27:36.063Z</time></trkpt><trkpt lat="46.1369245" lon="12.6629525"><ele>285.0</ele><time>2026-04-04T15:27:37.064Z</time></trkpt><trkpt lat="46.136685" lon="12.662828"><ele>284.0</ele><time>2026-04-04T15:27:38.063Z</time></trkpt><trkpt lat="46.1364438" lon="12.6626975"><ele>283.0</ele><time>2026-04-04T15:27:39.063Z</time></trkpt><trkpt lat="46.1362024" lon="12.6625666"><ele>283.0</ele><time>2026-04-04T15:27:40.063Z</time></trkpt><trkpt lat="46.1359577" lon="12.6624346"><ele>283.0</ele><time>2026-04-04T15:27:41.064Z</time></trkpt><trkpt lat="46.1357122" lon="12.6623003"><ele>281.0</ele><time>2026-04-04T15:27:42.063Z</time></trkpt><trkpt lat="46.1354661" lon="12.6621653"><ele>279.0</ele><time>2026-04-04T15:27:43.063Z</time></trkpt><trkpt lat="46.1352175" lon="12.6620323"><ele>279.5</ele><time>2026-04-04T15:27:44.063Z</time></trkpt><trkpt lat="46.1349677" lon="12.6618966"><ele>280.0</ele><time>2026-04-04T15:27:45.064Z</time></trkpt><trkpt lat="46.1347206" lon="12.6617577"><ele>279.0</ele><time>2026-04-04T15:27:46.064Z</time></trkpt><trkpt lat="46.1344703" lon="12.6616166"><ele>278.0</ele><time>2026-04-04T15:27:47.063Z</time></trkpt><trkpt lat="46.134221" lon="12.6614729"><ele>277.5</ele><time>2026-04-04T15:27:48.063Z</time></trkpt><trkpt lat="46.1339741" lon="12.6613187"><ele>277.0</ele><time>2026-04-04T15:27:49.063Z</time></trkpt><trkpt lat="46.1337301" lon="12.6611578"><ele>277.5</ele><time>2026-04-04T15:27:50.064Z</time></trkpt><trkpt lat="46.1334864" lon="12.6609915"><ele>278.0</ele><time>2026-04-04T15:27:51.063Z</time></trkpt><trkpt lat="46.1332426" lon="12.660818"><ele>277.0</ele><time>2026-04-04T15:27:52.064Z</time></trkpt><trkpt lat="46.1330016" lon="12.6606389"><ele>276.0</ele><time>2026-04-04T15:27:53.063Z</time></trkpt><trkpt lat="46.1327604" lon="12.6604523"><ele>276.0</ele><time>2026-04-04T15:27:54.063Z</time></trkpt><trkpt lat="46.1325219" lon="12.6602682"><ele>276.0</ele><time>2026-04-04T15:27:55.063Z</time></trkpt><trkpt lat="46.1322842" lon="12.6600846"><ele>276.0</ele><time>2026-04-04T15:27:56.064Z</time></trkpt><trkpt lat="46.1320475" lon="12.6599042"><ele>276.0</ele><time>2026-04-04T15:27:57.063Z</time></trkpt><trkpt lat="46.1318097" lon="12.659724"><ele>276.0</ele><time>2026-04-04T15:27:58.063Z</time></trkpt><trkpt lat="46.1315725" lon="12.6595478"><ele>276.0</ele><time>2026-04-04T15:27:59.063Z</time></trkpt><trkpt lat="46.1313369" lon="12.659372"><ele>275.5</ele><time>2026-04-04T15:28:00.063Z</time></trkpt><trkpt lat="46.1311011" lon="12.659195"><ele>275.0</ele><time>2026-04-04T15:28:01.063Z</time></trkpt><trkpt lat="46.1308665" lon="12.6590221"><ele>274.0</ele><time>2026-04-04T15:28:02.063Z</time></trkpt><trkpt lat="46.1306304" lon="12.6588554"><ele>273.0</ele><time>2026-04-04T15:28:03.063Z</time></trkpt><trkpt lat="46.1303949" lon="12.658694"><ele>273.0</ele><time>2026-04-04T15:28:04.063Z</time></trkpt><trkpt lat="46.1301586" lon="12.65855"><ele>273.0</ele><time>2026-04-04T15:28:05.064Z</time></trkpt><trkpt lat="46.1299196" lon="12.6584202"><ele>271.5</ele><time>2026-04-04T15:28:06.064Z</time></trkpt><trkpt lat="46.1296785" lon="12.6583101"><ele>270.0</ele><time>2026-04-04T15:28:07.063Z</time></trkpt><trkpt lat="46.1294347" lon="12.6582101"><ele>270.0</ele><time>2026-04-04T15:28:08.064Z</time></trkpt><trkpt lat="46.1291881" lon="12.6581252"><ele>270.0</ele><time>2026-04-04T15:28:09.063Z</time></trkpt><trkpt lat="46.1289404" lon="12.6580557"><ele>269.0</ele><time>2026-04-04T15:28:10.064Z</time></trkpt><trkpt lat="46.1286906" lon="12.6579978"><ele>268.0</ele><time>2026-04-04T15:28:11.063Z</time></trkpt><trkpt lat="46.1284393" lon="12.657951"><ele>267.5</ele><time>2026-04-04T15:28:12.064Z</time></trkpt><trkpt lat="46.1281858" lon="12.6579097"><ele>267.0</ele><time>2026-04-04T15:28:13.063Z</time></trkpt><trkpt lat="46.1279307" lon="12.6578748"><ele>267.0</ele><time>2026-04-04T15:28:14.063Z</time></trkpt><trkpt lat="46.127676" lon="12.6578418"><ele>267.0</ele><time>2026-04-04T15:28:15.063Z</time></trkpt><trkpt lat="46.1274288" lon="12.657808"><ele>266.5</ele><time>2026-04-04T15:28:16.064Z</time></trkpt><trkpt lat="46.1271931" lon="12.6577799"><ele>266.0</ele><time>2026-04-04T15:28:17.063Z</time></trkpt><trkpt lat="46.1269684" lon="12.657751"><ele>266.0</ele><time>2026-04-04T15:28:18.064Z</time></trkpt><trkpt lat="46.1267509" lon="12.6577184"><ele>266.0</ele><time>2026-04-04T15:28:19.063Z</time></trkpt><trkpt lat="46.1265361" lon="12.6576888"><ele>266.0</ele><time>2026-04-04T15:28:20.064Z</time></trkpt><trkpt lat="46.1263255" lon="12.657654"><ele>265.6666666666667</ele><time>2026-04-04T15:28:21.063Z</time></trkpt><trkpt lat="46.1261158" lon="12.6576189"><ele>265.3333333333333</ele><time>2026-04-04T15:28:22.064Z</time></trkpt><trkpt lat="46.1259082" lon="12.6575765"><ele>265.0</ele><time>2026-04-04T15:28:23.064Z</time></trkpt><trkpt lat="46.1256976" lon="12.6575362"><ele>264.3333333333333</ele><time>2026-04-04T15:28:24.063Z</time></trkpt><trkpt lat="46.1254855" lon="12.6574961"><ele>263.6666666666667</ele><time>2026-04-04T15:28:25.064Z</time></trkpt><trkpt lat="46.1252736" lon="12.6574548"><ele>263.0</ele><time>2026-04-04T15:28:26.063Z</time></trkpt><trkpt lat="46.1250617" lon="12.6574152"><ele>262.33333333333337</ele><time>2026-04-04T15:28:27.063Z</time></trkpt><trkpt lat="46.1248508" lon="12.6573723"><ele>261.6666666666667</ele><time>2026-04-04T15:28:28.063Z</time></trkpt><trkpt lat="46.1246391" lon="12.6573276"><ele>261.0</ele><time>2026-04-04T15:28:29.064Z</time></trkpt><trkpt lat="46.1244121" lon="12.6572885"><ele>261.0</ele><time>2026-04-04T15:28:30.064Z</time></trkpt><trkpt lat="46.1241671" lon="12.6572437"><ele>261.0</ele><time>2026-04-04T15:28:31.064Z</time></trkpt><trkpt lat="46.1239062" lon="12.6571931"><ele>260.0</ele><time>2026-04-04T15:28:32.064Z</time></trkpt><trkpt lat="46.1236298" lon="12.657138"><ele>259.0</ele><time>2026-04-04T15:28:33.063Z</time></trkpt><trkpt lat="46.1233446" lon="12.6570664"><ele>258.5</ele><time>2026-04-04T15:28:34.063Z</time></trkpt><trkpt lat="46.123058" lon="12.6569824"><ele>258.0</ele><time>2026-04-04T15:28:35.064Z</time></trkpt><trkpt lat="46.1227734" lon="12.6569014"><ele>257.0</ele><time>2026-04-04T15:28:36.064Z</time></trkpt><trkpt lat="46.1224894" lon="12.6568333"><ele>256.0</ele><time>2026-04-04T15:28:37.064Z</time></trkpt><trkpt lat="46.1222076" lon="12.6567701"><ele>256.0</ele><time>2026-04-04T15:28:38.063Z</time></trkpt><trkpt lat="46.1219289" lon="12.6567091"><ele>256.0</ele><time>2026-04-04T15:28:39.063Z</time></trkpt><trkpt lat="46.1216507" lon="12.6566482"><ele>255.0</ele><time>2026-04-04T15:28:40.064Z</time></trkpt><trkpt lat="46.1213731" lon="12.6565872"><ele>254.0</ele><time>2026-04-04T15:28:41.063Z</time></trkpt><trkpt lat="46.1210972" lon="12.6565247"><ele>254.0</ele><time>2026-04-04T15:28:42.063Z</time></trkpt><trkpt lat="46.1208189" lon="12.6564649"><ele>254.0</ele><time>2026-04-04T15:28:43.064Z</time></trkpt><trkpt lat="46.1205431" lon="12.6564045"><ele>253.5</ele><time>2026-04-04T15:28:44.063Z</time></trkpt><trkpt lat="46.1202691" lon="12.6563435"><ele>253.0</ele><time>2026-04-04T15:28:45.064Z</time></trkpt><trkpt lat="46.119999" lon="12.6562852"><ele>252.5</ele><time>2026-04-04T15:28:46.063Z</time></trkpt><trkpt lat="46.1197331" lon="12.6562269"><ele>252.0</ele><time>2026-04-04T15:28:47.064Z</time></trkpt><trkpt lat="46.1194653" lon="12.6561671"><ele>251.5</ele><time>2026-04-04T15:28:48.064Z</time></trkpt><trkpt lat="46.1191991" lon="12.6561117"><ele>251.0</ele><time>2026-04-04T15:28:49.064Z</time></trkpt><trkpt lat="46.1189341" lon="12.6560594"><ele>251.0</ele><time>2026-04-04T15:28:50.063Z</time></trkpt><trkpt lat="46.1186751" lon="12.6560072"><ele>251.0</ele><time>2026-04-04T15:28:51.063Z</time></trkpt><trkpt lat="46.1184206" lon="12.655952"><ele>250.5</ele><time>2026-04-04T15:28:52.063Z</time></trkpt><trkpt lat="46.1181651" lon="12.6558955"><ele>250.0</ele><time>2026-04-04T15:28:53.063Z</time></trkpt><trkpt lat="46.1179083" lon="12.655836"><ele>250.0</ele><time>2026-04-04T15:28:54.064Z</time></trkpt><trkpt lat="46.1176517" lon="12.6557587"><ele>250.0</ele><time>2026-04-04T15:28:55.064Z</time></trkpt><trkpt lat="46.1173982" lon="12.6556702"><ele>249.5</ele><time>2026-04-04T15:28:56.064Z</time></trkpt><trkpt lat="46.117144" lon="12.6555825"><ele>249.0</ele><time>2026-04-04T15:28:57.064Z</time></trkpt><trkpt lat="46.1168904" lon="12.6554986"><ele>249.0</ele><time>2026-04-04T15:28:58.064Z</time></trkpt><trkpt lat="46.116636" lon="12.6554161"><ele>249.0</ele><time>2026-04-04T15:28:59.063Z</time></trkpt><trkpt lat="46.116384" lon="12.6553361"><ele>248.0</ele><time>2026-04-04T15:29:00.064Z</time></trkpt><trkpt lat="46.1161303" lon="12.6552472"><ele>247.0</ele><time>2026-04-04T15:29:01.063Z</time></trkpt><trkpt lat="46.1158735" lon="12.6551633"><ele>246.5</ele><time>2026-04-04T15:29:02.064Z</time></trkpt><trkpt lat="46.1156131" lon="12.6550764"><ele>246.0</ele><time>2026-04-04T15:29:03.063Z</time></trkpt><trkpt lat="46.1153512" lon="12.6549842"><ele>246.0</ele><time>2026-04-04T15:29:04.064Z</time></trkpt><trkpt lat="46.1150898" lon="12.654896"><ele>246.0</ele><time>2026-04-04T15:29:05.064Z</time></trkpt><trkpt lat="46.1148287" lon="12.6548103"><ele>245.0</ele><time>2026-04-04T15:29:06.064Z</time></trkpt><trkpt lat="46.1145667" lon="12.6547206"><ele>244.0</ele><time>2026-04-04T15:29:07.063Z</time></trkpt><trkpt lat="46.1143031" lon="12.6546295"><ele>243.0</ele><time>2026-04-04T15:29:08.064Z</time></trkpt><trkpt lat="46.1140372" lon="12.6545408"><ele>242.0</ele><time>2026-04-04T15:29:09.064Z</time></trkpt><trkpt lat="46.1137719" lon="12.654455"><ele>241.5</ele><time>2026-04-04T15:29:10.064Z</time></trkpt><trkpt lat="46.1135053" lon="12.6543703"><ele>241.0</ele><time>2026-04-04T15:29:11.064Z</time></trkpt><trkpt lat="46.1132373" lon="12.65428"><ele>240.0</ele><time>2026-04-04T15:29:12.064Z</time></trkpt><trkpt lat="46.1129683" lon="12.6541911"><ele>239.0</ele><time>2026-04-04T15:29:13.063Z</time></trkpt><trkpt lat="46.112698" lon="12.654103"><ele>239.0</ele><time>2026-04-04T15:29:14.064Z</time></trkpt><trkpt lat="46.1124254" lon="12.6540159"><ele>239.0</ele><time>2026-04-04T15:29:15.063Z</time></trkpt><trkpt lat="46.1121518" lon="12.65393"><ele>238.5</ele><time>2026-04-04T15:29:16.064Z</time></trkpt><trkpt lat="46.1118757" lon="12.6538526"><ele>238.0</ele><time>2026-04-04T15:29:17.064Z</time></trkpt><trkpt lat="46.1115966" lon="12.6537848"><ele>237.0</ele><time>2026-04-04T15:29:18.064Z</time></trkpt><trkpt lat="46.1113152" lon="12.6537356"><ele>236.0</ele><time>2026-04-04T15:29:19.063Z</time></trkpt><trkpt lat="46.1110324" lon="12.6536993"><ele>236.0</ele><time>2026-04-04T15:29:20.064Z</time></trkpt><trkpt lat="46.1107461" lon="12.6536672"><ele>236.0</ele><time>2026-04-04T15:29:21.064Z</time></trkpt><trkpt lat="46.1104605" lon="12.6536323"><ele>236.5</ele><time>2026-04-04T15:29:22.063Z</time></trkpt><trkpt lat="46.1101814" lon="12.6535964"><ele>237.0</ele><time>2026-04-04T15:29:23.063Z</time></trkpt><trkpt lat="46.1099037" lon="12.653563"><ele>236.0</ele><time>2026-04-04T15:29:24.063Z</time></trkpt><trkpt lat="46.1096289" lon="12.6535284"><ele>235.0</ele><time>2026-04-04T15:29:25.064Z</time></trkpt><trkpt lat="46.1093564" lon="12.6534886"><ele>235.0</ele><time>2026-04-04T15:29:26.064Z</time></trkpt><trkpt lat="46.1090873" lon="12.6534475"><ele>235.0</ele><time>2026-04-04T15:29:27.064Z</time></trkpt><trkpt lat="46.1088175" lon="12.6534085"><ele>234.5</ele><time>2026-04-04T15:29:28.063Z</time></trkpt><trkpt lat="46.1085503" lon="12.65337"><ele>234.0</ele><time>2026-04-04T15:29:29.063Z</time></trkpt><trkpt lat="46.1082827" lon="12.6533353"><ele>233.0</ele><time>2026-04-04T15:29:30.064Z</time></trkpt><trkpt lat="46.1080152" lon="12.6533044"><ele>232.0</ele><time>2026-04-04T15:29:31.063Z</time></trkpt><trkpt lat="46.1077481" lon="12.6532703"><ele>232.0</ele><time>2026-04-04T15:29:32.064Z</time></trkpt><trkpt lat="46.1074816" lon="12.6532387"><ele>232.0</ele><time>2026-04-04T15:29:33.063Z</time></trkpt><trkpt lat="46.1072129" lon="12.6532027"><ele>230.5</ele><time>2026-04-04T15:29:34.064Z</time></trkpt><trkpt lat="46.1069435" lon="12.6531679"><ele>229.0</ele><time>2026-04-04T15:29:35.063Z</time></trkpt><trkpt lat="46.1066735" lon="12.6531299"><ele>229.5</ele><time>2026-04-04T15:29:36.064Z</time></trkpt><trkpt lat="46.1064017" lon="12.6530964"><ele>230.0</ele><time>2026-04-04T15:29:37.063Z</time></trkpt><trkpt lat="46.1061313" lon="12.6530639"><ele>230.0</ele><time>2026-04-04T15:29:38.063Z</time></trkpt><trkpt lat="46.1058598" lon="12.6530279"><ele>230.0</ele><time>2026-04-04T15:29:39.064Z</time></trkpt><trkpt lat="46.1055878" lon="12.652984"><ele>229.0</ele><time>2026-04-04T15:29:40.064Z</time></trkpt><trkpt lat="46.1053166" lon="12.6529183"><ele>228.0</ele><time>2026-04-04T15:29:41.063Z</time></trkpt><trkpt lat="46.1050499" lon="12.6528168"><ele>228.0</ele><time>2026-04-04T15:29:42.064Z</time></trkpt><trkpt lat="46.1047859" lon="12.6526908"><ele>228.0</ele><time>2026-04-04T15:29:43.063Z</time></trkpt><trkpt lat="46.104521" lon="12.6525658"><ele>228.0</ele><time>2026-04-04T15:29:44.063Z</time></trkpt><trkpt lat="46.1042563" lon="12.6524463"><ele>228.0</ele><time>2026-04-04T15:29:45.063Z</time></trkpt><trkpt lat="46.1039949" lon="12.652329"><ele>226.5</ele><time>2026-04-04T15:29:46.064Z</time></trkpt><trkpt lat="46.1037379" lon="12.6522186"><ele>225.0</ele><time>2026-04-04T15:29:47.063Z</time></trkpt><trkpt lat="46.1034812" lon="12.6521091"><ele>224.5</ele><time>2026-04-04T15:29:48.063Z</time></trkpt><trkpt lat="46.1032249" lon="12.6520064"><ele>224.0</ele><time>2026-04-04T15:29:49.063Z</time></trkpt><trkpt lat="46.1029664" lon="12.6519287"><ele>224.0</ele><time>2026-04-04T15:29:50.064Z</time></trkpt><trkpt lat="46.1027051" lon="12.6518731"><ele>224.0</ele><time>2026-04-04T15:29:51.063Z</time></trkpt><trkpt lat="46.1024423" lon="12.6518344"><ele>224.0</ele><time>2026-04-04T15:29:52.064Z</time></trkpt><trkpt lat="46.1021779" lon="12.6517978"><ele>224.0</ele><time>2026-04-04T15:29:53.064Z</time></trkpt><trkpt lat="46.1019172" lon="12.6517525"><ele>224.0</ele><time>2026-04-04T15:29:54.063Z</time></trkpt><trkpt lat="46.1016595" lon="12.6517077"><ele>224.0</ele><time>2026-04-04T15:29:55.064Z</time></trkpt><trkpt lat="46.1014028" lon="12.6516625"><ele>223.0</ele><time>2026-04-04T15:29:56.064Z</time></trkpt><trkpt lat="46.101148" lon="12.6516257"><ele>222.0</ele><time>2026-04-04T15:29:57.063Z</time></trkpt><trkpt lat="46.1008914" lon="12.6516023"><ele>221.5</ele><time>2026-04-04T15:29:58.064Z</time></trkpt><trkpt lat="46.1006342" lon="12.6515958"><ele>221.0</ele><time>2026-04-04T15:29:59.064Z</time></trkpt><trkpt lat="46.100374" lon="12.6515963"><ele>221.0</ele><time>2026-04-04T15:30:00.063Z</time></trkpt><trkpt lat="46.1001133" lon="12.6515931"><ele>221.0</ele><time>2026-04-04T15:30:01.063Z</time></trkpt><trkpt lat="46.099851" lon="12.6515948"><ele>219.5</ele><time>2026-04-04T15:30:02.064Z</time></trkpt><trkpt lat="46.0995876" lon="12.6515934"><ele>218.0</ele><time>2026-04-04T15:30:03.063Z</time></trkpt><trkpt lat="46.0993217" lon="12.6515918"><ele>216.5</ele><time>2026-04-04T15:30:04.064Z</time></trkpt><trkpt lat="46.0990518" lon="12.6515905"><ele>215.0</ele><time>2026-04-04T15:30:05.063Z</time></trkpt><trkpt lat="46.0987777" lon="12.6515921"><ele>215.0</ele><time>2026-04-04T15:30:06.063Z</time></trkpt><trkpt lat="46.0985055" lon="12.6515896"><ele>215.0</ele><time>2026-04-04T15:30:07.063Z</time></trkpt><trkpt lat="46.0982324" lon="12.6515903"><ele>215.5</ele><time>2026-04-04T15:30:08.064Z</time></trkpt><trkpt lat="46.0979587" lon="12.6515902"><ele>216.0</ele><time>2026-04-04T15:30:09.063Z</time></trkpt><trkpt lat="46.0976849" lon="12.6515905"><ele>215.0</ele><time>2026-04-04T15:30:10.063Z</time></trkpt><trkpt lat="46.0974104" lon="12.6515893"><ele>214.0</ele><time>2026-04-04T15:30:11.064Z</time></trkpt><trkpt lat="46.0971359" lon="12.6515857"><ele>214.0</ele><time>2026-04-04T15:30:12.064Z</time></trkpt><trkpt lat="46.0968663" lon="12.6515855"><ele>214.0</ele><time>2026-04-04T15:30:13.064Z</time></trkpt><trkpt lat="46.0966045" lon="12.65158"><ele>214.0</ele><time>2026-04-04T15:30:14.064Z</time></trkpt><trkpt lat="46.0963471" lon="12.651582"><ele>214.0</ele><time>2026-04-04T15:30:15.063Z</time></trkpt><trkpt lat="46.096092" lon="12.6515863"><ele>214.0</ele><time>2026-04-04T15:30:16.063Z</time></trkpt><trkpt lat="46.095836" lon="12.6515964"><ele>214.0</ele><time>2026-04-04T15:30:17.064Z</time></trkpt><trkpt lat="46.0955796" lon="12.6516274"><ele>213.0</ele><time>2026-04-04T15:30:18.064Z</time></trkpt><trkpt lat="46.0953205" lon="12.6516867"><ele>212.0</ele><time>2026-04-04T15:30:19.064Z</time></trkpt><trkpt lat="46.0950614" lon="12.6517517"><ele>211.5</ele><time>2026-04-04T15:30:20.063Z</time></trkpt><trkpt lat="46.0947983" lon="12.6518153"><ele>211.0</ele><time>2026-04-04T15:30:21.063Z</time></trkpt><trkpt lat="46.0945358" lon="12.651875"><ele>211.0</ele><time>2026-04-04T15:30:22.064Z</time></trkpt><trkpt lat="46.0942723" lon="12.6519397"><ele>211.0</ele><time>2026-04-04T15:30:23.064Z</time></trkpt><trkpt lat="46.0940074" lon="12.6520045"><ele>209.5</ele><time>2026-04-04T15:30:24.063Z</time></trkpt><trkpt lat="46.0937406" lon="12.6520665"><ele>208.0</ele><time>2026-04-04T15:30:25.064Z</time></trkpt><trkpt lat="46.0934715" lon="12.6521192"><ele>207.5</ele><time>2026-04-04T15:30:26.064Z</time></trkpt><trkpt lat="46.093199" lon="12.6521579"><ele>207.0</ele><time>2026-04-04T15:30:27.063Z</time></trkpt><trkpt lat="46.0929255" lon="12.652183"><ele>207.0</ele><time>2026-04-04T15:30:28.063Z</time></trkpt><trkpt lat="46.09265" lon="12.6521974"><ele>207.0</ele><time>2026-04-04T15:30:29.063Z</time></trkpt><trkpt lat="46.0923721" lon="12.6522048"><ele>207.0</ele><time>2026-04-04T15:30:30.063Z</time></trkpt><trkpt lat="46.0920933" lon="12.6522098"><ele>207.0</ele><time>2026-04-04T15:30:31.063Z</time></trkpt><trkpt lat="46.0918156" lon="12.6522159"><ele>206.5</ele><time>2026-04-04T15:30:32.064Z</time></trkpt><trkpt lat="46.0915377" lon="12.6522221"><ele>206.0</ele><time>2026-04-04T15:30:33.063Z</time></trkpt><trkpt lat="46.0912583" lon="12.6522321"><ele>206.0</ele><time>2026-04-04T15:30:34.063Z</time></trkpt><trkpt lat="46.09098" lon="12.6522387"><ele>206.0</ele><time>2026-04-04T15:30:35.063Z</time></trkpt><trkpt lat="46.0907019" lon="12.6522467"><ele>205.5</ele><time>2026-04-04T15:30:36.064Z</time></trkpt><trkpt lat="46.0904232" lon="12.6522538"><ele>205.0</ele><time>2026-04-04T15:30:37.064Z</time></trkpt><trkpt lat="46.090143" lon="12.6522602"><ele>203.5</ele><time>2026-04-04T15:30:38.063Z</time></trkpt><trkpt lat="46.0898643" lon="12.6522667"><ele>202.0</ele><time>2026-04-04T15:30:39.064Z</time></trkpt><trkpt lat="46.0895843" lon="12.6522727"><ele>202.0</ele><time>2026-04-04T15:30:40.064Z</time></trkpt><trkpt lat="46.0893075" lon="12.6522823"><ele>202.0</ele><time>2026-04-04T15:30:41.064Z</time></trkpt><trkpt lat="46.0890315" lon="12.652289"><ele>201.0</ele><time>2026-04-04T15:30:42.063Z</time></trkpt><trkpt lat="46.0887575" lon="12.6522966"><ele>200.0</ele><time>2026-04-04T15:30:43.064Z</time></trkpt><trkpt lat="46.0884847" lon="12.6523047"><ele>199.0</ele><time>2026-04-04T15:30:44.064Z</time></trkpt><trkpt lat="46.0882121" lon="12.6523129"><ele>198.0</ele><time>2026-04-04T15:30:45.063Z</time></trkpt><trkpt lat="46.08794" lon="12.6523217"><ele>198.0</ele><time>2026-04-04T15:30:46.063Z</time></trkpt><trkpt lat="46.0876692" lon="12.6523274"><ele>198.0</ele><time>2026-04-04T15:30:47.063Z</time></trkpt><trkpt lat="46.0873979" lon="12.6523347"><ele>198.0</ele><time>2026-04-04T15:30:48.064Z</time></trkpt><trkpt lat="46.0871288" lon="12.6523433"><ele>198.0</ele><time>2026-04-04T15:30:49.064Z</time></trkpt><trkpt lat="46.0868617" lon="12.6523496"><ele>198.0</ele><time>2026-04-04T15:30:50.064Z</time></trkpt><trkpt lat="46.0865987" lon="12.6523538"><ele>198.0</ele><time>2026-04-04T15:30:51.063Z</time></trkpt><trkpt lat="46.0863418" lon="12.6523606"><ele>198.0</ele><time>2026-04-04T15:30:52.063Z</time></trkpt><trkpt lat="46.0860926" lon="12.6523701"><ele>198.0</ele><time>2026-04-04T15:30:53.064Z</time></trkpt><trkpt lat="46.0858497" lon="12.6523769"><ele>197.5</ele><time>2026-04-04T15:30:54.063Z</time></trkpt><trkpt lat="46.0856087" lon="12.652385"><ele>197.0</ele><time>2026-04-04T15:30:55.064Z</time></trkpt><trkpt lat="46.08537" lon="12.6523927"><ele>197.0</ele><time>2026-04-04T15:30:56.063Z</time></trkpt><trkpt lat="46.0851316" lon="12.6524002"><ele>197.0</ele><time>2026-04-04T15:30:57.064Z</time></trkpt><trkpt lat="46.0848941" lon="12.652405"><ele>196.5</ele><time>2026-04-04T15:30:58.063Z</time></trkpt><trkpt lat="46.0846571" lon="12.6524142"><ele>196.0</ele><time>2026-04-04T15:30:59.063Z</time></trkpt><trkpt lat="46.0844254" lon="12.6524236"><ele>196.0</ele><time>2026-04-04T15:31:00.063Z</time></trkpt><trkpt lat="46.0842104" lon="12.6524331"><ele>196.0</ele><time>2026-04-04T15:31:01.064Z</time></trkpt><trkpt lat="46.08401" lon="12.6524438"><ele>196.0</ele><time>2026-04-04T15:31:02.063Z</time></trkpt><trkpt lat="46.0838366" lon="12.6524509"><ele>195.5</ele><time>2026-04-04T15:31:03.063Z</time></trkpt><trkpt lat="46.0836823" lon="12.6524576"><ele>195.0</ele><time>2026-04-04T15:31:04.063Z</time></trkpt><trkpt lat="46.0835504" lon="12.6524583"><ele>194.5</ele><time>2026-04-04T15:31:05.063Z</time></trkpt><trkpt lat="46.0834343" lon="12.6524613"><ele>194.0</ele><time>2026-04-04T15:31:06.064Z</time></trkpt><trkpt lat="46.0833301" lon="12.6524462"><ele>193.79999999999998</ele><time>2026-04-04T15:31:07.063Z</time></trkpt><trkpt lat="46.0832294" lon="12.6523878"><ele>193.6</ele><time>2026-04-04T15:31:08.063Z</time></trkpt><trkpt lat="46.0831401" lon="12.652296"><ele>193.4</ele><time>2026-04-04T15:31:09.063Z</time></trkpt><trkpt lat="46.0830512" lon="12.6521952"><ele>193.2</ele><time>2026-04-04T15:31:10.064Z</time></trkpt><trkpt lat="46.0829425" lon="12.6521296"><ele>193.0</ele><time>2026-04-04T15:31:11.064Z</time></trkpt><trkpt lat="46.0828285" lon="12.6521125"><ele>193.0</ele><time>2026-04-04T15:31:12.063Z</time></trkpt><trkpt lat="46.0827149" lon="12.6521407"><ele>193.0</ele><time>2026-04-04T15:31:13.064Z</time></trkpt><trkpt lat="46.0826197" lon="12.6522161"><ele>193.0</ele><time>2026-04-04T15:31:14.064Z</time></trkpt><trkpt lat="46.0825483" lon="12.6523306"><ele>193.0</ele><time>2026-04-04T15:31:15.064Z</time></trkpt><trkpt lat="46.0825032" lon="12.6524743"><ele>193.0</ele><time>2026-04-04T15:31:16.064Z</time></trkpt><trkpt lat="46.0824908" lon="12.6526364"><ele>192.75</ele><time>2026-04-04T15:31:17.064Z</time></trkpt><trkpt lat="46.0825113" lon="12.6528005"><ele>192.5</ele><time>2026-04-04T15:31:18.063Z</time></trkpt><trkpt lat="46.082546" lon="12.652961"><ele>192.25</ele><time>2026-04-04T15:31:19.063Z</time></trkpt><trkpt lat="46.0825476" lon="12.6531297"><ele>192.0</ele><time>2026-04-04T15:31:20.064Z</time></trkpt><trkpt lat="46.0825184" lon="12.6532969"><ele>192.0</ele><time>2026-04-04T15:31:21.064Z</time></trkpt><trkpt lat="46.0824593" lon="12.6534645"><ele>192.0</ele><time>2026-04-04T15:31:22.064Z</time></trkpt><trkpt lat="46.0823777" lon="12.6536478"><ele>192.0</ele><time>2026-04-04T15:31:23.063Z</time></trkpt><trkpt lat="46.0822911" lon="12.6538554"><ele>192.0</ele><time>2026-04-04T15:31:24.063Z</time></trkpt><trkpt lat="46.0821968" lon="12.6540833"><ele>191.66666666666666</ele><time>2026-04-04T15:31:25.064Z</time></trkpt><trkpt lat="46.0820936" lon="12.6543294"><ele>191.33333333333331</ele><time>2026-04-04T15:31:26.064Z</time></trkpt><trkpt lat="46.0819865" lon="12.654586"><ele>191.0</ele><time>2026-04-04T15:31:27.064Z</time></trkpt><trkpt lat="46.0818773" lon="12.6548474"><ele>191.0</ele><time>2026-04-04T15:31:28.064Z</time></trkpt><trkpt lat="46.0817636" lon="12.6551148"><ele>191.0</ele><time>2026-04-04T15:31:29.064Z</time></trkpt><trkpt lat="46.0816488" lon="12.6553838"><ele>191.0</ele><time>2026-04-04T15:31:30.064Z</time></trkpt><trkpt lat="46.0815306" lon="12.6556567"><ele>190.0</ele><time>2026-04-04T15:31:31.063Z</time></trkpt><trkpt lat="46.0814086" lon="12.6559303"><ele>189.0</ele><time>2026-04-04T15:31:32.063Z</time></trkpt><trkpt lat="46.0812814" lon="12.6561992"><ele>188.5</ele><time>2026-04-04T15:31:33.063Z</time></trkpt><trkpt lat="46.0811465" lon="12.6564605"><ele>188.0</ele><time>2026-04-04T15:31:34.064Z</time></trkpt><trkpt lat="46.0810082" lon="12.656716"><ele>188.0</ele><time>2026-04-04T15:31:35.063Z</time></trkpt><trkpt lat="46.0808662" lon="12.6569649"><ele>188.0</ele><time>2026-04-04T15:31:36.064Z</time></trkpt><trkpt lat="46.0807159" lon="12.6572067"><ele>188.0</ele><time>2026-04-04T15:31:37.063Z</time></trkpt><trkpt lat="46.080559" lon="12.6574396"><ele>188.5</ele><time>2026-04-04T15:31:38.064Z</time></trkpt><trkpt lat="46.0803985" lon="12.6576662"><ele>189.0</ele><time>2026-04-04T15:31:39.064Z</time></trkpt><trkpt lat="46.0802333" lon="12.6578872"><ele>189.5</ele><time>2026-04-04T15:31:40.063Z</time></trkpt><trkpt lat="46.0800616" lon="12.6580997"><ele>190.0</ele><time>2026-04-04T15:31:41.063Z</time></trkpt><trkpt lat="46.0798831" lon="12.6583036"><ele>188.0</ele><time>2026-04-04T15:31:42.063Z</time></trkpt><trkpt lat="46.0797012" lon="12.6585008"><ele>186.0</ele><time>2026-04-04T15:31:43.063Z</time></trkpt><trkpt lat="46.0795124" lon="12.6586905"><ele>186.0</ele><time>2026-04-04T15:31:44.064Z</time></trkpt><trkpt lat="46.0793161" lon="12.6588749"><ele>186.0</ele><time>2026-04-04T15:31:45.063Z</time></trkpt><trkpt lat="46.0791113" lon="12.6590521"><ele>188.5</ele><time>2026-04-04T15:31:46.063Z</time></trkpt><trkpt lat="46.0788966" lon="12.6592189"><ele>191.0</ele><time>2026-04-04T15:31:47.064Z</time></trkpt><trkpt lat="46.0786757" lon="12.6593731"><ele>190.5</ele><time>2026-04-04T15:31:48.064Z</time></trkpt><trkpt lat="46.0784477" lon="12.6595198"><ele>190.0</ele><time>2026-04-04T15:31:49.064Z</time></trkpt><trkpt lat="46.0782131" lon="12.6596592"><ele>188.0</ele><time>2026-04-04T15:31:50.063Z</time></trkpt><trkpt lat="46.077975" lon="12.659786"><ele>186.0</ele><time>2026-04-04T15:31:51.064Z</time></trkpt><trkpt lat="46.0777326" lon="12.6598993"><ele>186.0</ele><time>2026-04-04T15:31:52.063Z</time></trkpt><trkpt lat="46.0774872" lon="12.6600013"><ele>186.0</ele><time>2026-04-04T15:31:53.063Z</time></trkpt><trkpt lat="46.0772369" lon="12.660089"><ele>186.0</ele><time>2026-04-04T15:31:54.063Z</time></trkpt><trkpt lat="46.0769853" lon="12.660164"><ele>186.0</ele><time>2026-04-04T15:31:55.064Z</time></trkpt><trkpt lat="46.0767299" lon="12.6602266"><ele>185.0</ele><time>2026-04-04T15:31:56.063Z</time></trkpt><trkpt lat="46.0764678" lon="12.6602692"><ele>184.0</ele><time>2026-04-04T15:31:57.064Z</time></trkpt><trkpt lat="46.076202" lon="12.6602976"><ele>184.0</ele><time>2026-04-04T15:31:58.064Z</time></trkpt><trkpt lat="46.0759296" lon="12.6603145"><ele>184.0</ele><time>2026-04-04T15:31:59.063Z</time></trkpt><trkpt lat="46.0756488" lon="12.6603204"><ele>182.5</ele><time>2026-04-04T15:32:00.064Z</time></trkpt><trkpt lat="46.0753653" lon="12.6603099"><ele>181.0</ele><time>2026-04-04T15:32:01.064Z</time></trkpt><trkpt lat="46.075081" lon="12.6602822"><ele>180.0</ele><time>2026-04-04T15:32:02.064Z</time></trkpt><trkpt lat="46.074797" lon="12.6602333"><ele>179.0</ele><time>2026-04-04T15:32:03.064Z</time></trkpt><trkpt lat="46.0745121" lon="12.6601662"><ele>179.0</ele><time>2026-04-04T15:32:04.063Z</time></trkpt><trkpt lat="46.0742272" lon="12.6600858"><ele>179.0</ele><time>2026-04-04T15:32:05.063Z</time></trkpt><trkpt lat="46.0739407" lon="12.6599974"><ele>178.0</ele><time>2026-04-04T15:32:06.063Z</time></trkpt><trkpt lat="46.0736527" lon="12.6599017"><ele>177.0</ele><time>2026-04-04T15:32:07.063Z</time></trkpt><trkpt lat="46.0733643" lon="12.6597984"><ele>177.5</ele><time>2026-04-04T15:32:08.063Z</time></trkpt><trkpt lat="46.073078" lon="12.6596902"><ele>178.0</ele><time>2026-04-04T15:32:09.064Z</time></trkpt><trkpt lat="46.0727938" lon="12.6595786"><ele>178.0</ele><time>2026-04-04T15:32:10.063Z</time></trkpt><trkpt lat="46.0725106" lon="12.6594669"><ele>178.0</ele><time>2026-04-04T15:32:11.063Z</time></trkpt><trkpt lat="46.0722272" lon="12.6593555"><ele>176.5</ele><time>2026-04-04T15:32:12.064Z</time></trkpt><trkpt lat="46.0719448" lon="12.6592419"><ele>175.0</ele><time>2026-04-04T15:32:13.063Z</time></trkpt><trkpt lat="46.0716633" lon="12.6591289"><ele>174.5</ele><time>2026-04-04T15:32:14.064Z</time></trkpt><trkpt lat="46.0713833" lon="12.6590178"><ele>174.0</ele><time>2026-04-04T15:32:15.064Z</time></trkpt><trkpt lat="46.0711051" lon="12.6589111"><ele>174.0</ele><time>2026-04-04T15:32:16.063Z</time></trkpt><trkpt lat="46.0708258" lon="12.6588058"><ele>174.0</ele><time>2026-04-04T15:32:17.064Z</time></trkpt><trkpt lat="46.0705467" lon="12.658699"><ele>173.0</ele><time>2026-04-04T15:32:18.063Z</time></trkpt><trkpt lat="46.0702685" lon="12.6585898"><ele>172.0</ele><time>2026-04-04T15:32:19.063Z</time></trkpt><trkpt lat="46.0699907" lon="12.6584814"><ele>171.5</ele><time>2026-04-04T15:32:20.063Z</time></trkpt><trkpt lat="46.0697125" lon="12.6583713"><ele>171.0</ele><time>2026-04-04T15:32:21.063Z</time></trkpt><trkpt lat="46.0694341" lon="12.6582622"><ele>171.0</ele><time>2026-04-04T15:32:22.064Z</time></trkpt><trkpt lat="46.0691554" lon="12.658153"><ele>171.0</ele><time>2026-04-04T15:32:23.064Z</time></trkpt><trkpt lat="46.0688769" lon="12.6580458"><ele>170.0</ele><time>2026-04-04T15:32:24.063Z</time></trkpt><trkpt lat="46.0685992" lon="12.6579391"><ele>169.0</ele><time>2026-04-04T15:32:25.063Z</time></trkpt><trkpt lat="46.068322" lon="12.6578321"><ele>168.0</ele><time>2026-04-04T15:32:26.064Z</time></trkpt><trkpt lat="46.0680471" lon="12.6577261"><ele>167.0</ele><time>2026-04-04T15:32:27.063Z</time></trkpt><trkpt lat="46.0677739" lon="12.6576209"><ele>167.0</ele><time>2026-04-04T15:32:28.063Z</time></trkpt><trkpt lat="46.0675008" lon="12.6575155"><ele>167.0</ele><time>2026-04-04T15:32:29.063Z</time></trkpt><trkpt lat="46.0672307" lon="12.6574065"><ele>165.5</ele><time>2026-04-04T15:32:30.063Z</time></trkpt><trkpt lat="46.0669625" lon="12.6572968"><ele>164.0</ele><time>2026-04-04T15:32:31.063Z</time></trkpt><trkpt lat="46.0666939" lon="12.6571891"><ele>163.5</ele><time>2026-04-04T15:32:32.063Z</time></trkpt><trkpt lat="46.0664238" lon="12.6570822"><ele>163.0</ele><time>2026-04-04T15:32:33.064Z</time></trkpt><trkpt lat="46.0661536" lon="12.6569766"><ele>163.0</ele><time>2026-04-04T15:32:34.063Z</time></trkpt><trkpt lat="46.0658827" lon="12.6568738"><ele>163.0</ele><time>2026-04-04T15:32:35.064Z</time></trkpt><trkpt lat="46.065612" lon="12.6567709"><ele>163.0</ele><time>2026-04-04T15:32:36.064Z</time></trkpt><trkpt lat="46.0653424" lon="12.6566671"><ele>163.0</ele><time>2026-04-04T15:32:37.063Z</time></trkpt><trkpt lat="46.0650731" lon="12.6565612"><ele>162.5</ele><time>2026-04-04T15:32:38.064Z</time></trkpt><trkpt lat="46.064806" lon="12.6564533"><ele>162.0</ele><time>2026-04-04T15:32:39.064Z</time></trkpt><trkpt lat="46.064539" lon="12.6563478"><ele>162.0</ele><time>2026-04-04T15:32:40.063Z</time></trkpt><trkpt lat="46.0642721" lon="12.6562431"><ele>162.0</ele><time>2026-04-04T15:32:41.064Z</time></trkpt><trkpt lat="46.0640052" lon="12.656135"><ele>160.5</ele><time>2026-04-04T15:32:42.063Z</time></trkpt><trkpt lat="46.0637402" lon="12.6560274"><ele>159.0</ele><time>2026-04-04T15:32:43.064Z</time></trkpt><trkpt lat="46.0634792" lon="12.6559183"><ele>159.0</ele><time>2026-04-04T15:32:44.064Z</time></trkpt><trkpt lat="46.0632192" lon="12.6558114"><ele>159.0</ele><time>2026-04-04T15:32:45.063Z</time></trkpt><trkpt lat="46.0629625" lon="12.6556995"><ele>159.0</ele><time>2026-04-04T15:32:46.064Z</time></trkpt><trkpt lat="46.0627058" lon="12.6555886"><ele>159.0</ele><time>2026-04-04T15:32:47.063Z</time></trkpt><trkpt lat="46.0624464" lon="12.6554822"><ele>157.5</ele><time>2026-04-04T15:32:48.063Z</time></trkpt><trkpt lat="46.0621838" lon="12.6553851"><ele>156.0</ele><time>2026-04-04T15:32:49.063Z</time></trkpt><trkpt lat="46.0619182" lon="12.6552962"><ele>156.0</ele><time>2026-04-04T15:32:50.063Z</time></trkpt><trkpt lat="46.0616496" lon="12.6552169"><ele>156.0</ele><time>2026-04-04T15:32:51.063Z</time></trkpt><trkpt lat="46.06138" lon="12.6551515"><ele>156.0</ele><time>2026-04-04T15:32:52.063Z</time></trkpt><trkpt lat="46.0611072" lon="12.6551047"><ele>156.0</ele><time>2026-04-04T15:32:53.064Z</time></trkpt><trkpt lat="46.0608355" lon="12.6550698"><ele>156.0</ele><time>2026-04-04T15:32:54.063Z</time></trkpt><trkpt lat="46.0605627" lon="12.6550496"><ele>156.0</ele><time>2026-04-04T15:32:55.064Z</time></trkpt><trkpt lat="46.0602906" lon="12.6550471"><ele>156.0</ele><time>2026-04-04T15:32:56.063Z</time></trkpt><trkpt lat="46.0600148" lon="12.6550659"><ele>156.0</ele><time>2026-04-04T15:32:57.063Z</time></trkpt><trkpt lat="46.059742" lon="12.6551003"><ele>155.5</ele><time>2026-04-04T15:32:58.063Z</time></trkpt><trkpt lat="46.0594671" lon="12.6551547"><ele>155.0</ele><time>2026-04-04T15:32:59.063Z</time></trkpt><trkpt lat="46.0591923" lon="12.6552156"><ele>154.0</ele><time>2026-04-04T15:33:00.063Z</time></trkpt><trkpt lat="46.0589183" lon="12.6552706"><ele>153.0</ele><time>2026-04-04T15:33:01.064Z</time></trkpt><trkpt lat="46.0586451" lon="12.6553277"><ele>153.0</ele><time>2026-04-04T15:33:02.063Z</time></trkpt><trkpt lat="46.0583708" lon="12.6553837"><ele>153.0</ele><time>2026-04-04T15:33:03.064Z</time></trkpt><trkpt lat="46.0580986" lon="12.6554374"><ele>152.0</ele><time>2026-04-04T15:33:04.063Z</time></trkpt><trkpt lat="46.0578279" lon="12.6554925"><ele>151.0</ele><time>2026-04-04T15:33:05.063Z</time></trkpt><trkpt lat="46.0575572" lon="12.6555446"><ele>150.5</ele><time>2026-04-04T15:33:06.064Z</time></trkpt><trkpt lat="46.0572865" lon="12.6555958"><ele>150.0</ele><time>2026-04-04T15:33:07.063Z</time></trkpt><trkpt lat="46.0570175" lon="12.6556503"><ele>150.0</ele><time>2026-04-04T15:33:08.063Z</time></trkpt><trkpt lat="46.056752" lon="12.6557012"><ele>150.0</ele><time>2026-04-04T15:33:09.063Z</time></trkpt><trkpt lat="46.0564995" lon="12.655749"><ele>148.5</ele><time>2026-04-04T15:33:10.064Z</time></trkpt><trkpt lat="46.056256" lon="12.6557972"><ele>147.0</ele><time>2026-04-04T15:33:11.064Z</time></trkpt><trkpt lat="46.0560163" lon="12.6558451"><ele>148.0</ele><time>2026-04-04T15:33:12.063Z</time></trkpt><trkpt lat="46.0557816" lon="12.6559011"><ele>149.0</ele><time>2026-04-04T15:33:13.064Z</time></trkpt><trkpt lat="46.055555" lon="12.6559846"><ele>149.0</ele><time>2026-04-04T15:33:14.063Z</time></trkpt><trkpt lat="46.0553411" lon="12.656077"><ele>149.0</ele><time>2026-04-04T15:33:15.063Z</time></trkpt><trkpt lat="46.0551423" lon="12.6561744"><ele>149.0</ele><time>2026-04-04T15:33:16.063Z</time></trkpt><trkpt lat="46.0549573" lon="12.6562748"><ele>148.66666666666666</ele><time>2026-04-04T15:33:17.063Z</time></trkpt><trkpt lat="46.0547881" lon="12.6563715"><ele>148.33333333333334</ele><time>2026-04-04T15:33:18.063Z</time></trkpt><trkpt lat="46.054633" lon="12.6564563"><ele>148.0</ele><time>2026-04-04T15:33:19.064Z</time></trkpt><trkpt lat="46.0544954" lon="12.6565307"><ele>148.0</ele><time>2026-04-04T15:33:20.063Z</time></trkpt><trkpt lat="46.054378" lon="12.6565913"><ele>148.0</ele><time>2026-04-04T15:33:21.064Z</time></trkpt><trkpt lat="46.0542683" lon="12.6566195"><ele>148.0</ele><time>2026-04-04T15:33:22.064Z</time></trkpt><trkpt lat="46.054156" lon="12.6566114"><ele>148.0</ele><time>2026-04-04T15:33:23.063Z</time></trkpt><trkpt lat="46.0540496" lon="12.6565652"><ele>148.0</ele><time>2026-04-04T15:33:24.064Z</time></trkpt><trkpt lat="46.0539502" lon="12.6565285"><ele>148.0</ele><time>2026-04-04T15:33:25.064Z</time></trkpt><trkpt lat="46.0538525" lon="12.6565406"><ele>148.0</ele><time>2026-04-04T15:33:26.063Z</time></trkpt><trkpt lat="46.0537602" lon="12.6566189"><ele>148.0</ele><time>2026-04-04T15:33:27.063Z</time></trkpt><trkpt lat="46.0536834" lon="12.6567306"><ele>148.0</ele><time>2026-04-04T15:33:28.064Z</time></trkpt><trkpt lat="46.0535964" lon="12.6568587"><ele>147.5</ele><time>2026-04-04T15:33:29.063Z</time></trkpt><trkpt lat="46.0534837" lon="12.6569588"><ele>147.0</ele><time>2026-04-04T15:33:30.064Z</time></trkpt><trkpt lat="46.0533488" lon="12.6570408"><ele>146.5</ele><time>2026-04-04T15:33:31.063Z</time></trkpt><trkpt lat="46.053197" lon="12.6571049"><ele>146.0</ele><time>2026-04-04T15:33:32.063Z</time></trkpt><trkpt lat="46.0530307" lon="12.6571561"><ele>146.0</ele><time>2026-04-04T15:33:33.063Z</time></trkpt><trkpt lat="46.0528541" lon="12.6572003"><ele>146.0</ele><time>2026-04-04T15:33:34.063Z</time></trkpt><trkpt lat="46.0526642" lon="12.6572484"><ele>146.0</ele><time>2026-04-04T15:33:35.063Z</time></trkpt><trkpt lat="46.0524688" lon="12.6573006"><ele>144.66666666666666</ele><time>2026-04-04T15:33:36.063Z</time></trkpt><trkpt lat="46.0522692" lon="12.657349"><ele>143.33333333333334</ele><time>2026-04-04T15:33:37.064Z</time></trkpt><trkpt lat="46.0520644" lon="12.6574015"><ele>142.0</ele><time>2026-04-04T15:33:38.063Z</time></trkpt><trkpt lat="46.0518569" lon="12.6574572"><ele>142.0</ele><time>2026-04-04T15:33:39.064Z</time></trkpt><trkpt lat="46.0516475" lon="12.6575122"><ele>142.0</ele><time>2026-04-04T15:33:40.063Z</time></trkpt><trkpt lat="46.0514379" lon="12.6575665"><ele>142.0</ele><time>2026-04-04T15:33:41.063Z</time></trkpt><trkpt lat="46.0512305" lon="12.6576196"><ele>142.33333333333334</ele><time>2026-04-04T15:33:42.064Z</time></trkpt><trkpt lat="46.0510301" lon="12.6576718"><ele>142.66666666666666</ele><time>2026-04-04T15:33:43.063Z</time></trkpt><trkpt lat="46.0508367" lon="12.6577181"><ele>143.0</ele><time>2026-04-04T15:33:44.064Z</time></trkpt><trkpt lat="46.0506535" lon="12.6577606"><ele>142.66666666666666</ele><time>2026-04-04T15:33:45.063Z</time></trkpt><trkpt lat="46.0504712" lon="12.657798"><ele>142.33333333333334</ele><time>2026-04-04T15:33:46.064Z</time></trkpt><trkpt lat="46.0502882" lon="12.657828"><ele>142.0</ele><time>2026-04-04T15:33:47.064Z</time></trkpt><trkpt lat="46.0501011" lon="12.6578511"><ele>141.66666666666669</ele><time>2026-04-04T15:33:48.064Z</time></trkpt><trkpt lat="46.049913" lon="12.6578685"><ele>141.33333333333334</ele><time>2026-04-04T15:33:49.063Z</time></trkpt><trkpt lat="46.0497228" lon="12.6578857"><ele>141.0</ele><time>2026-04-04T15:33:50.063Z</time></trkpt><trkpt lat="46.0495301" lon="12.6578977"><ele>141.0</ele><time>2026-04-04T15:33:51.064Z</time></trkpt><trkpt lat="46.0493349" lon="12.6579096"><ele>141.0</ele><time>2026-04-04T15:33:52.063Z</time></trkpt><trkpt lat="46.049138" lon="12.6579175"><ele>141.0</ele><time>2026-04-04T15:33:53.063Z</time></trkpt><trkpt lat="46.0489387" lon="12.6579224"><ele>140.66666666666666</ele><time>2026-04-04T15:33:54.064Z</time></trkpt><trkpt lat="46.0487367" lon="12.6579294"><ele>140.33333333333331</ele><time>2026-04-04T15:33:55.063Z</time></trkpt><trkpt lat="46.0485325" lon="12.6579392"><ele>140.0</ele><time>2026-04-04T15:33:56.063Z</time></trkpt><trkpt lat="46.0483269" lon="12.6579493"><ele>140.0</ele><time>2026-04-04T15:33:57.063Z</time></trkpt><trkpt lat="46.048121" lon="12.6579613"><ele>140.0</ele><time>2026-04-04T15:33:58.063Z</time></trkpt><trkpt lat="46.0479134" lon="12.6579737"><ele>140.0</ele><time>2026-04-04T15:33:59.063Z</time></trkpt><trkpt lat="46.0477055" lon="12.657983"><ele>140.0</ele><time>2026-04-04T15:34:00.064Z</time></trkpt><trkpt lat="46.0474963" lon="12.657993"><ele>140.0</ele><time>2026-04-04T15:34:01.063Z</time></trkpt><trkpt lat="46.0472849" lon="12.6580012"><ele>140.0</ele><time>2026-04-04T15:34:02.063Z</time></trkpt><trkpt lat="46.0470752" lon="12.658005"><ele>139.0</ele><time>2026-04-04T15:34:03.064Z</time></trkpt><trkpt lat="46.0468643" lon="12.6579944"><ele>138.0</ele><time>2026-04-04T15:34:04.064Z</time></trkpt><trkpt lat="46.0466533" lon="12.6579595"><ele>137.0</ele><time>2026-04-04T15:34:05.064Z</time></trkpt><trkpt lat="46.046443" lon="12.6578973"><ele>137.0</ele><time>2026-04-04T15:34:06.064Z</time></trkpt><trkpt lat="46.0462315" lon="12.6578292"><ele>137.0</ele><time>2026-04-04T15:34:07.063Z</time></trkpt><trkpt lat="46.0460183" lon="12.6577619"><ele>137.0</ele><time>2026-04-04T15:34:08.064Z</time></trkpt><trkpt lat="46.0458058" lon="12.6576962"><ele>135.66666666666666</ele><time>2026-04-04T15:34:09.063Z</time></trkpt><trkpt lat="46.0455915" lon="12.6576286"><ele>134.33333333333334</ele><time>2026-04-04T15:34:10.063Z</time></trkpt><trkpt lat="46.0453788" lon="12.6575612"><ele>133.0</ele><time>2026-04-04T15:34:11.064Z</time></trkpt><trkpt lat="46.0451654" lon="12.6574901"><ele>133.66666666666669</ele><time>2026-04-04T15:34:12.063Z</time></trkpt><trkpt lat="46.0449532" lon="12.6574236"><ele>134.33333333333334</ele><time>2026-04-04T15:34:13.064Z</time></trkpt><trkpt lat="46.0447498" lon="12.6573592"><ele>135.0</ele><time>2026-04-04T15:34:14.064Z</time></trkpt><trkpt lat="46.0445575" lon="12.657296"><ele>135.0</ele><time>2026-04-04T15:34:15.063Z</time></trkpt><trkpt lat="46.0443716" lon="12.6572375"><ele>135.0</ele><time>2026-04-04T15:34:16.063Z</time></trkpt><trkpt lat="46.0441944" lon="12.6571825"><ele>135.0</ele><time>2026-04-04T15:34:17.063Z</time></trkpt><trkpt lat="46.0440237" lon="12.6571266"><ele>135.33333333333334</ele><time>2026-04-04T15:34:18.063Z</time></trkpt><trkpt lat="46.0438567" lon="12.6570752"><ele>135.66666666666669</ele><time>2026-04-04T15:34:19.064Z</time></trkpt><trkpt lat="46.0436938" lon="12.657024"><ele>136.0</ele><time>2026-04-04T15:34:20.064Z</time></trkpt><trkpt lat="46.0435299" lon="12.6569723"><ele>135.66666666666669</ele><time>2026-04-04T15:34:21.063Z</time></trkpt><trkpt lat="46.0433695" lon="12.6569168"><ele>135.33333333333334</ele><time>2026-04-04T15:34:22.064Z</time></trkpt><trkpt lat="46.0432139" lon="12.6568579"><ele>135.0</ele><time>2026-04-04T15:34:23.064Z</time></trkpt><trkpt lat="46.0430631" lon="12.6567915"><ele>134.5</ele><time>2026-04-04T15:34:24.063Z</time></trkpt><trkpt lat="46.0429193" lon="12.6567137"><ele>134.0</ele><time>2026-04-04T15:34:25.063Z</time></trkpt><trkpt lat="46.0427895" lon="12.6566327"><ele>133.5</ele><time>2026-04-04T15:34:26.064Z</time></trkpt><trkpt lat="46.0426704" lon="12.6565527"><ele>133.0</ele><time>2026-04-04T15:34:27.064Z</time></trkpt><trkpt lat="46.0425589" lon="12.6564762"><ele>132.75</ele><time>2026-04-04T15:34:28.063Z</time></trkpt><trkpt lat="46.0424507" lon="12.6564033"><ele>132.5</ele><time>2026-04-04T15:34:29.063Z</time></trkpt><trkpt lat="46.0423491" lon="12.6563263"><ele>132.25</ele><time>2026-04-04T15:34:30.063Z</time></trkpt><trkpt lat="46.0422497" lon="12.6562365"><ele>132.0</ele><time>2026-04-04T15:34:31.064Z</time></trkpt><trkpt lat="46.0421535" lon="12.6561409"><ele>131.75</ele><time>2026-04-04T15:34:32.063Z</time></trkpt><trkpt lat="46.0420523" lon="12.6560482"><ele>131.5</ele><time>2026-04-04T15:34:33.064Z</time></trkpt><trkpt lat="46.0419398" lon="12.6559971"><ele>131.25</ele><time>2026-04-04T15:34:34.063Z</time></trkpt><trkpt lat="46.0418244" lon="12.6559953"><ele>131.0</ele><time>2026-04-04T15:34:35.064Z</time></trkpt><trkpt lat="46.0417179" lon="12.6560412"><ele>130.8</ele><time>2026-04-04T15:34:36.063Z</time></trkpt><trkpt lat="46.0416227" lon="12.6561347"><ele>130.6</ele><time>2026-04-04T15:34:37.064Z</time></trkpt><trkpt lat="46.0415388" lon="12.6562428"><ele>130.4</ele><time>2026-04-04T15:34:38.063Z</time></trkpt><trkpt lat="46.0414508" lon="12.6563177"><ele>130.2</ele><time>2026-04-04T15:34:39.064Z</time></trkpt><trkpt lat="46.0413452" lon="12.6563544"><ele>130.0</ele><time>2026-04-04T15:34:40.064Z</time></trkpt><trkpt lat="46.0412289" lon="12.6563499"><ele>130.0</ele><time>2026-04-04T15:34:41.063Z</time></trkpt><trkpt lat="46.0411015" lon="12.6563035"><ele>130.0</ele><time>2026-04-04T15:34:42.064Z</time></trkpt><trkpt lat="46.0409597" lon="12.6562236"><ele>130.0</ele><time>2026-04-04T15:34:43.063Z</time></trkpt><trkpt lat="46.0407999" lon="12.6561352"><ele>130.33333333333334</ele><time>2026-04-04T15:34:44.063Z</time></trkpt><trkpt lat="46.0406137" lon="12.6560648"><ele>130.66666666666666</ele><time>2026-04-04T15:34:45.064Z</time></trkpt><trkpt lat="46.0403954" lon="12.6560006"><ele>131.0</ele><time>2026-04-04T15:34:46.063Z</time></trkpt><trkpt lat="46.0401587" lon="12.6559232"><ele>130.0</ele><time>2026-04-04T15:34:47.064Z</time></trkpt><trkpt lat="46.0399101" lon="12.6558254"><ele>129.0</ele><time>2026-04-04T15:34:48.064Z</time></trkpt><trkpt lat="46.0396504" lon="12.6557339"><ele>129.0</ele><time>2026-04-04T15:34:49.064Z</time></trkpt><trkpt lat="46.0393841" lon="12.6556459"><ele>129.0</ele><time>2026-04-04T15:34:50.063Z</time></trkpt><trkpt lat="46.0391209" lon="12.6555548"><ele>128.5</ele><time>2026-04-04T15:34:51.063Z</time></trkpt><trkpt lat="46.0388604" lon="12.6554647"><ele>128.0</ele><time>2026-04-04T15:34:52.063Z</time></trkpt><trkpt lat="46.0386034" lon="12.6553757"><ele>128.0</ele><time>2026-04-04T15:34:53.063Z</time></trkpt><trkpt lat="46.0383498" lon="12.6552896"><ele>128.0</ele><time>2026-04-04T15:34:54.063Z</time></trkpt><trkpt lat="46.038099" lon="12.6552056"><ele>127.5</ele><time>2026-04-04T15:34:55.063Z</time></trkpt><trkpt lat="46.0378495" lon="12.6551237"><ele>127.0</ele><time>2026-04-04T15:34:56.063Z</time></trkpt><trkpt lat="46.0376018" lon="12.6550431"><ele>127.0</ele><time>2026-04-04T15:34:57.063Z</time></trkpt><trkpt lat="46.037356" lon="12.6549635"><ele>127.0</ele><time>2026-04-04T15:34:58.063Z</time></trkpt><trkpt lat="46.0371109" lon="12.6548835"><ele>127.0</ele><time>2026-04-04T15:34:59.064Z</time></trkpt><trkpt lat="46.0368699" lon="12.6547961"><ele>127.0</ele><time>2026-04-04T15:35:00.064Z</time></trkpt><trkpt lat="46.0366332" lon="12.6547069"><ele>126.5</ele><time>2026-04-04T15:35:01.063Z</time></trkpt><trkpt lat="46.0363989" lon="12.6546151"><ele>126.0</ele><time>2026-04-04T15:35:02.064Z</time></trkpt><trkpt lat="46.0361721" lon="12.6545248"><ele>126.5</ele><time>2026-04-04T15:35:03.063Z</time></trkpt><trkpt lat="46.0359503" lon="12.6544362"><ele>127.0</ele><time>2026-04-04T15:35:04.064Z</time></trkpt><trkpt lat="46.0357289" lon="12.6543493"><ele>126.0</ele><time>2026-04-04T15:35:05.064Z</time></trkpt><trkpt lat="46.0355099" lon="12.6542642"><ele>125.0</ele><time>2026-04-04T15:35:06.063Z</time></trkpt><trkpt lat="46.0352913" lon="12.6541759"><ele>125.0</ele><time>2026-04-04T15:35:07.064Z</time></trkpt><trkpt lat="46.0350746" lon="12.6540879"><ele>125.0</ele><time>2026-04-04T15:35:08.064Z</time></trkpt><trkpt lat="46.0348556" lon="12.6540003"><ele>124.0</ele><time>2026-04-04T15:35:09.064Z</time></trkpt><trkpt lat="46.0346392" lon="12.6539124"><ele>123.0</ele><time>2026-04-04T15:35:10.063Z</time></trkpt><trkpt lat="46.0344233" lon="12.6538218"><ele>123.0</ele><time>2026-04-04T15:35:11.064Z</time></trkpt><trkpt lat="46.0342056" lon="12.6537321"><ele>123.0</ele><time>2026-04-04T15:35:12.064Z</time></trkpt><trkpt lat="46.0339866" lon="12.6536423"><ele>122.0</ele><time>2026-04-04T15:35:13.063Z</time></trkpt><trkpt lat="46.0337681" lon="12.6535506"><ele>121.0</ele><time>2026-04-04T15:35:14.064Z</time></trkpt><trkpt lat="46.0335487" lon="12.6534605"><ele>121.0</ele><time>2026-04-04T15:35:15.063Z</time></trkpt><trkpt lat="46.0333307" lon="12.6533679"><ele>121.0</ele><time>2026-04-04T15:35:16.064Z</time></trkpt><trkpt lat="46.0331133" lon="12.653278"><ele>121.0</ele><time>2026-04-04T15:35:17.064Z</time></trkpt><trkpt lat="46.0328963" lon="12.6531881"><ele>121.0</ele><time>2026-04-04T15:35:18.063Z</time></trkpt><trkpt lat="46.0326827" lon="12.6531043"><ele>121.0</ele><time>2026-04-04T15:35:19.063Z</time></trkpt><trkpt lat="46.0324717" lon="12.6530214"><ele>120.66666666666667</ele><time>2026-04-04T15:35:20.063Z</time></trkpt><trkpt lat="46.0322619" lon="12.6529436"><ele>120.33333333333334</ele><time>2026-04-04T15:35:21.064Z</time></trkpt><trkpt lat="46.0320474" lon="12.6528879"><ele>120.0</ele><time>2026-04-04T15:35:22.064Z</time></trkpt><trkpt lat="46.0318306" lon="12.6528536"><ele>119.66666666666666</ele><time>2026-04-04T15:35:23.064Z</time></trkpt><trkpt lat="46.0316119" lon="12.652832"><ele>119.33333333333333</ele><time>2026-04-04T15:35:24.063Z</time></trkpt><trkpt lat="46.0313985" lon="12.6528155"><ele>119.0</ele><time>2026-04-04T15:35:25.064Z</time></trkpt><trkpt lat="46.0311942" lon="12.6527961"><ele>118.66666666666666</ele><time>2026-04-04T15:35:26.063Z</time></trkpt><trkpt lat="46.0309971" lon="12.6527752"><ele>118.33333333333334</ele><time>2026-04-04T15:35:27.063Z</time></trkpt><trkpt lat="46.0308071" lon="12.6527546"><ele>118.0</ele><time>2026-04-04T15:35:28.063Z</time></trkpt><trkpt lat="46.0306264" lon="12.6527352"><ele>118.0</ele><time>2026-04-04T15:35:29.063Z</time></trkpt><trkpt lat="46.0304505" lon="12.6527167"><ele>118.0</ele><time>2026-04-04T15:35:30.064Z</time></trkpt><trkpt lat="46.0302747" lon="12.6526947"><ele>118.0</ele><time>2026-04-04T15:35:31.064Z</time></trkpt><trkpt lat="46.0300959" lon="12.6526794"><ele>117.33333333333334</ele><time>2026-04-04T15:35:32.064Z</time></trkpt><trkpt lat="46.0299129" lon="12.6526754"><ele>116.66666666666666</ele><time>2026-04-04T15:35:33.064Z</time></trkpt><trkpt lat="46.0297279" lon="12.6526838"><ele>116.0</ele><time>2026-04-04T15:35:34.063Z</time></trkpt><trkpt lat="46.0295437" lon="12.6527006"><ele>116.0</ele><time>2026-04-04T15:35:35.064Z</time></trkpt><trkpt lat="46.0293668" lon="12.6527195"><ele>116.0</ele><time>2026-04-04T15:35:36.063Z</time></trkpt><trkpt lat="46.0291921" lon="12.6527422"><ele>116.0</ele><time>2026-04-04T15:35:37.063Z</time></trkpt><trkpt lat="46.0290182" lon="12.6527654"><ele>116.0</ele><time>2026-04-04T15:35:38.063Z</time></trkpt><trkpt lat="46.0288431" lon="12.6527852"><ele>116.0</ele><time>2026-04-04T15:35:39.064Z</time></trkpt><trkpt lat="46.0286658" lon="12.6528048"><ele>116.0</ele><time>2026-04-04T15:35:40.063Z</time></trkpt><trkpt lat="46.0284824" lon="12.6528238"><ele>115.33333333333333</ele><time>2026-04-04T15:35:41.063Z</time></trkpt><trkpt lat="46.0282937" lon="12.6528433"><ele>114.66666666666666</ele><time>2026-04-04T15:35:42.063Z</time></trkpt><trkpt lat="46.0281005" lon="12.6528642"><ele>114.0</ele><time>2026-04-04T15:35:43.063Z</time></trkpt><trkpt lat="46.0279064" lon="12.6528849"><ele>114.0</ele><time>2026-04-04T15:35:44.064Z</time></trkpt><trkpt lat="46.0277102" lon="12.6529018"><ele>114.0</ele><time>2026-04-04T15:35:45.064Z</time></trkpt><trkpt lat="46.0275154" lon="12.6529117"><ele>114.0</ele><time>2026-04-04T15:35:46.063Z</time></trkpt><trkpt lat="46.0273204" lon="12.6529176"><ele>114.33333333333334</ele><time>2026-04-04T15:35:47.063Z</time></trkpt><trkpt lat="46.0271235" lon="12.6529221"><ele>114.66666666666667</ele><time>2026-04-04T15:35:48.064Z</time></trkpt><trkpt lat="46.0269244" lon="12.6529273"><ele>115.0</ele><time>2026-04-04T15:35:49.063Z</time></trkpt><trkpt lat="46.0267228" lon="12.6529332"><ele>114.0</ele><time>2026-04-04T15:35:50.063Z</time></trkpt><trkpt lat="46.0265193" lon="12.6529397"><ele>113.0</ele><time>2026-04-04T15:35:51.063Z</time></trkpt><trkpt lat="46.0263155" lon="12.6529477"><ele>112.0</ele><time>2026-04-04T15:35:52.064Z</time></trkpt><trkpt lat="46.0261123" lon="12.6529511"><ele>112.0</ele><time>2026-04-04T15:35:53.064Z</time></trkpt><trkpt lat="46.0259093" lon="12.6529552"><ele>112.0</ele><time>2026-04-04T15:35:54.064Z</time></trkpt><trkpt lat="46.0257119" lon="12.6529576"><ele>112.0</ele><time>2026-04-04T15:35:55.064Z</time></trkpt><trkpt lat="46.0255214" lon="12.6529561"><ele>111.66666666666667</ele><time>2026-04-04T15:35:56.063Z</time></trkpt><trkpt lat="46.0253326" lon="12.6529531"><ele>111.33333333333334</ele><time>2026-04-04T15:35:57.063Z</time></trkpt><trkpt lat="46.0251448" lon="12.6529462"><ele>111.0</ele><time>2026-04-04T15:35:58.064Z</time></trkpt><trkpt lat="46.0249679" lon="12.6529342"><ele>110.33333333333334</ele><time>2026-04-04T15:35:59.063Z</time></trkpt><trkpt lat="46.0247958" lon="12.6529263"><ele>109.66666666666667</ele><time>2026-04-04T15:36:00.064Z</time></trkpt><trkpt lat="46.0246264" lon="12.652915"><ele>109.0</ele><time>2026-04-04T15:36:01.063Z</time></trkpt><trkpt lat="46.0244569" lon="12.6529009"><ele>109.0</ele><time>2026-04-04T15:36:02.063Z</time></trkpt><trkpt lat="46.0242868" lon="12.6528883"><ele>109.0</ele><time>2026-04-04T15:36:03.064Z</time></trkpt><trkpt lat="46.0241159" lon="12.6528791"><ele>109.0</ele><time>2026-04-04T15:36:04.063Z</time></trkpt><trkpt lat="46.0239433" lon="12.6528732"><ele>109.33333333333334</ele><time>2026-04-04T15:36:05.064Z</time></trkpt><trkpt lat="46.0237718" lon="12.6528666"><ele>109.66666666666666</ele><time>2026-04-04T15:36:06.064Z</time></trkpt><trkpt lat="46.0236008" lon="12.652858"><ele>110.0</ele><time>2026-04-04T15:36:07.063Z</time></trkpt><trkpt lat="46.0234353" lon="12.6528476"><ele>109.33333333333333</ele><time>2026-04-04T15:36:08.064Z</time></trkpt><trkpt lat="46.0232756" lon="12.6528364"><ele>108.66666666666666</ele><time>2026-04-04T15:36:09.064Z</time></trkpt><trkpt lat="46.0231136" lon="12.6528258"><ele>108.0</ele><time>2026-04-04T15:36:10.063Z</time></trkpt><trkpt lat="46.022952" lon="12.6528153"><ele>108.0</ele><time>2026-04-04T15:36:11.064Z</time></trkpt><trkpt lat="46.0227893" lon="12.6528042"><ele>108.0</ele><time>2026-04-04T15:36:12.063Z</time></trkpt><trkpt lat="46.0226263" lon="12.6527881"><ele>108.0</ele><time>2026-04-04T15:36:13.063Z</time></trkpt><trkpt lat="46.0224651" lon="12.6527688"><ele>107.5</ele><time>2026-04-04T15:36:14.063Z</time></trkpt><trkpt lat="46.0223074" lon="12.6527443"><ele>107.0</ele><time>2026-04-04T15:36:15.063Z</time></trkpt><trkpt lat="46.0221574" lon="12.6527162"><ele>106.5</ele><time>2026-04-04T15:36:16.064Z</time></trkpt><trkpt lat="46.0220224" lon="12.6526851"><ele>106.0</ele><time>2026-04-04T15:36:17.063Z</time></trkpt><trkpt lat="46.0219028" lon="12.6526486"><ele>106.00000000000001</ele><time>2026-04-04T15:36:18.063Z</time></trkpt><trkpt lat="46.0217956" lon="12.6526087"><ele>106.0</ele><time>2026-04-04T15:36:19.064Z</time></trkpt><trkpt lat="46.0217065" lon="12.6525656"><ele>106.0</ele><time>2026-04-04T15:36:20.064Z</time></trkpt><trkpt lat="46.0216229" lon="12.6525246"><ele>106.0</ele><time>2026-04-04T15:36:21.064Z</time></trkpt><trkpt lat="46.0215468" lon="12.6524825"><ele>106.00000000000001</ele><time>2026-04-04T15:36:22.063Z</time></trkpt><trkpt lat="46.0214816" lon="12.652447"><ele>106.0</ele><time>2026-04-04T15:36:23.063Z</time></trkpt><trkpt lat="46.0214234" lon="12.6524108"><ele>105.8</ele><time>2026-04-04T15:36:24.063Z</time></trkpt><trkpt lat="46.0213216" lon="12.6523242"><ele>105.6</ele><time>2026-04-04T15:36:26.063Z</time></trkpt><trkpt lat="46.0212432" lon="12.6521696"><ele>105.4</ele><time>2026-04-04T15:36:28.063Z</time></trkpt><trkpt lat="46.021208" lon="12.6520601"><ele>105.2</ele><time>2026-04-04T15:36:29.063Z</time></trkpt><trkpt lat="46.0211678" lon="12.6519419"><ele>105.0</ele><time>2026-04-04T15:36:30.063Z</time></trkpt><trkpt lat="46.0211171" lon="12.6518416"><ele>104.8</ele><time>2026-04-04T15:36:31.064Z</time></trkpt><trkpt lat="46.0210528" lon="12.6517609"><ele>104.6</ele><time>2026-04-04T15:36:32.063Z</time></trkpt><trkpt lat="46.0209722" lon="12.6516999"><ele>104.4</ele><time>2026-04-04T15:36:33.063Z</time></trkpt><trkpt lat="46.0208829" lon="12.6516603"><ele>104.2</ele><time>2026-04-04T15:36:34.063Z</time></trkpt><trkpt lat="46.0207899" lon="12.6516273"><ele>104.0</ele><time>2026-04-04T15:36:35.063Z</time></trkpt><trkpt lat="46.0207006" lon="12.6515709"><ele>103.75</ele><time>2026-04-04T15:36:36.063Z</time></trkpt><trkpt lat="46.020619" lon="12.6514804"><ele>103.5</ele><time>2026-04-04T15:36:37.063Z</time></trkpt><trkpt lat="46.0205513" lon="12.6513537"><ele>103.25</ele><time>2026-04-04T15:36:38.064Z</time></trkpt><trkpt lat="46.0204932" lon="12.6511957"><ele>103.0</ele><time>2026-04-04T15:36:39.064Z</time></trkpt><trkpt lat="46.0204304" lon="12.6510105"><ele>102.66666666666667</ele><time>2026-04-04T15:36:40.063Z</time></trkpt><trkpt lat="46.0203706" lon="12.6508067"><ele>102.33333333333334</ele><time>2026-04-04T15:36:41.063Z</time></trkpt><trkpt lat="46.0203128" lon="12.6505954"><ele>102.0</ele><time>2026-04-04T15:36:42.064Z</time></trkpt><trkpt lat="46.020252" lon="12.6503724"><ele>101.66666666666666</ele><time>2026-04-04T15:36:43.064Z</time></trkpt><trkpt lat="46.0201855" lon="12.6501338"><ele>101.33333333333333</ele><time>2026-04-04T15:36:44.063Z</time></trkpt><trkpt lat="46.0201148" lon="12.6498896"><ele>101.0</ele><time>2026-04-04T15:36:45.064Z</time></trkpt><trkpt lat="46.0200433" lon="12.6496319"><ele>101.5</ele><time>2026-04-04T15:36:46.063Z</time></trkpt><trkpt lat="46.0199621" lon="12.649345"><ele>102.0</ele><time>2026-04-04T15:36:47.064Z</time></trkpt><trkpt lat="46.0198653" lon="12.6490309"><ele>102.0</ele><time>2026-04-04T15:36:48.063Z</time></trkpt><trkpt lat="46.0197683" lon="12.6486948"><ele>102.0</ele><time>2026-04-04T15:36:49.064Z</time></trkpt><trkpt lat="46.0196697" lon="12.6483357"><ele>102.0</ele><time>2026-04-04T15:36:50.063Z</time></trkpt><trkpt lat="46.0195644" lon="12.6479536"><ele>102.0</ele><time>2026-04-04T15:36:51.064Z</time></trkpt><trkpt lat="46.0194529" lon="12.6475527"><ele>102.0</ele><time>2026-04-04T15:36:52.064Z</time></trkpt><trkpt lat="46.0193406" lon="12.6471265"><ele>102.0</ele><time>2026-04-04T15:36:53.064Z</time></trkpt><trkpt lat="46.0192272" lon="12.6466869"><ele>101.5</ele><time>2026-04-04T15:36:54.063Z</time></trkpt><trkpt lat="46.019114" lon="12.6462441"><ele>101.0</ele><time>2026-04-04T15:36:55.063Z</time></trkpt><trkpt lat="46.0189999" lon="12.6458094"><ele>102.0</ele><time>2026-04-04T15:36:56.063Z</time></trkpt><trkpt lat="46.0188858" lon="12.6453871"><ele>103.0</ele><time>2026-04-04T15:36:57.064Z</time></trkpt><trkpt lat="46.0187711" lon="12.6449787"><ele>103.0</ele><time>2026-04-04T15:36:58.063Z</time></trkpt><trkpt lat="46.0186569" lon="12.6445856"><ele>103.0</ele><time>2026-04-04T15:36:59.064Z</time></trkpt><trkpt lat="46.0185417" lon="12.6442055"><ele>102.5</ele><time>2026-04-04T15:37:00.063Z</time></trkpt><trkpt lat="46.0184253" lon="12.6438381"><ele>102.0</ele><time>2026-04-04T15:37:01.064Z</time></trkpt><trkpt lat="46.0183052" lon="12.6434748"><ele>101.5</ele><time>2026-04-04T15:37:02.064Z</time></trkpt><trkpt lat="46.0181848" lon="12.6431163"><ele>101.0</ele><time>2026-04-04T15:37:03.064Z</time></trkpt><trkpt lat="46.0180634" lon="12.6427618"><ele>101.0</ele><time>2026-04-04T15:37:04.063Z</time></trkpt><trkpt lat="46.0179411" lon="12.6424087"><ele>101.0</ele><time>2026-04-04T15:37:05.063Z</time></trkpt><trkpt lat="46.0178203" lon="12.6420557"><ele>101.0</ele><time>2026-04-04T15:37:06.063Z</time></trkpt><trkpt lat="46.0177003" lon="12.6417101"><ele>101.0</ele><time>2026-04-04T15:37:07.063Z</time></trkpt><trkpt lat="46.0175814" lon="12.6413648"><ele>101.0</ele><time>2026-04-04T15:37:08.064Z</time></trkpt><trkpt lat="46.0174633" lon="12.6410246"><ele>101.0</ele><time>2026-04-04T15:37:09.064Z</time></trkpt><trkpt lat="46.0173467" lon="12.6406872"><ele>101.0</ele><time>2026-04-04T15:37:10.063Z</time></trkpt><trkpt lat="46.017231" lon="12.6403522"><ele>101.0</ele><time>2026-04-04T15:37:11.064Z</time></trkpt><trkpt lat="46.0171155" lon="12.640019"><ele>101.0</ele><time>2026-04-04T15:37:12.064Z</time></trkpt><trkpt lat="46.0170018" lon="12.6396876"><ele>101.0</ele><time>2026-04-04T15:37:13.063Z</time></trkpt><trkpt lat="46.0168881" lon="12.6393565"><ele>101.0</ele><time>2026-04-04T15:37:14.064Z</time></trkpt><trkpt lat="46.0167711" lon="12.6390297"><ele>101.0</ele><time>2026-04-04T15:37:15.064Z</time></trkpt><trkpt lat="46.0166576" lon="12.638702"><ele>100.0</ele><time>2026-04-04T15:37:16.064Z</time></trkpt><trkpt lat="46.0165438" lon="12.6383755"><ele>99.0</ele><time>2026-04-04T15:37:17.064Z</time></trkpt><trkpt lat="46.016432" lon="12.6380499"><ele>99.5</ele><time>2026-04-04T15:37:18.063Z</time></trkpt><trkpt lat="46.0163203" lon="12.6377243"><ele>100.0</ele><time>2026-04-04T15:37:19.063Z</time></trkpt><trkpt lat="46.0162109" lon="12.6373992"><ele>100.0</ele><time>2026-04-04T15:37:20.064Z</time></trkpt><trkpt lat="46.0161023" lon="12.6370785"><ele>100.0</ele><time>2026-04-04T15:37:21.064Z</time></trkpt><trkpt lat="46.0159913" lon="12.6367587"><ele>99.5</ele><time>2026-04-04T15:37:22.063Z</time></trkpt><trkpt lat="46.0158789" lon="12.6364371"><ele>99.0</ele><time>2026-04-04T15:37:23.064Z</time></trkpt><trkpt lat="46.0157676" lon="12.6361195"><ele>98.0</ele><time>2026-04-04T15:37:24.064Z</time></trkpt><trkpt lat="46.0156566" lon="12.6358002"><ele>97.0</ele><time>2026-04-04T15:37:25.064Z</time></trkpt><trkpt lat="46.0155466" lon="12.6354829"><ele>97.5</ele><time>2026-04-04T15:37:26.063Z</time></trkpt><trkpt lat="46.0154351" lon="12.6351636"><ele>98.0</ele><time>2026-04-04T15:37:27.064Z</time></trkpt><trkpt lat="46.0153273" lon="12.6348477"><ele>98.0</ele><time>2026-04-04T15:37:28.063Z</time></trkpt><trkpt lat="46.0152208" lon="12.6345378"><ele>98.0</ele><time>2026-04-04T15:37:29.064Z</time></trkpt><trkpt lat="46.0151143" lon="12.6342323"><ele>98.5</ele><time>2026-04-04T15:37:30.063Z</time></trkpt><trkpt lat="46.0150121" lon="12.6339279"><ele>99.0</ele><time>2026-04-04T15:37:31.063Z</time></trkpt><trkpt lat="46.0149109" lon="12.6336283"><ele>97.0</ele><time>2026-04-04T15:37:32.063Z</time></trkpt><trkpt lat="46.0148075" lon="12.6333283"><ele>95.0</ele><time>2026-04-04T15:37:33.064Z</time></trkpt><trkpt lat="46.0147077" lon="12.6330255"><ele>96.0</ele><time>2026-04-04T15:37:34.063Z</time></trkpt><trkpt lat="46.0146132" lon="12.6327179"><ele>97.0</ele><time>2026-04-04T15:37:35.064Z</time></trkpt><trkpt lat="46.0145231" lon="12.6324066"><ele>97.0</ele><time>2026-04-04T15:37:36.063Z</time></trkpt><trkpt lat="46.0144355" lon="12.6320942"><ele>97.0</ele><time>2026-04-04T15:37:37.064Z</time></trkpt><trkpt lat="46.0143461" lon="12.6317812"><ele>98.0</ele><time>2026-04-04T15:37:38.064Z</time></trkpt><trkpt lat="46.0142551" lon="12.6314703"><ele>99.0</ele><time>2026-04-04T15:37:39.064Z</time></trkpt><trkpt lat="46.0141654" lon="12.6311543"><ele>97.0</ele><time>2026-04-04T15:37:40.063Z</time></trkpt><trkpt lat="46.0140774" lon="12.6308401"><ele>95.0</ele><time>2026-04-04T15:37:41.063Z</time></trkpt><trkpt lat="46.0139885" lon="12.630529"><ele>96.5</ele><time>2026-04-04T15:37:42.063Z</time></trkpt><trkpt lat="46.0139001" lon="12.6302216"><ele>98.0</ele><time>2026-04-04T15:37:43.064Z</time></trkpt><trkpt lat="46.0138133" lon="12.6299222"><ele>98.0</ele><time>2026-04-04T15:37:44.063Z</time></trkpt><trkpt lat="46.0137271" lon="12.6296289"><ele>98.0</ele><time>2026-04-04T15:37:45.064Z</time></trkpt><trkpt lat="46.0136411" lon="12.6293391"><ele>98.0</ele><time>2026-04-04T15:37:46.064Z</time></trkpt><trkpt lat="46.0135546" lon="12.6290518"><ele>98.0</ele><time>2026-04-04T15:37:47.063Z</time></trkpt><trkpt lat="46.0134728" lon="12.6287658"><ele>98.0</ele><time>2026-04-04T15:37:48.063Z</time></trkpt><trkpt lat="46.0133896" lon="12.6284801"><ele>98.0</ele><time>2026-04-04T15:37:49.063Z</time></trkpt><trkpt lat="46.0133121" lon="12.628195"><ele>98.0</ele><time>2026-04-04T15:37:50.064Z</time></trkpt><trkpt lat="46.0132505" lon="12.6279106"><ele>98.0</ele><time>2026-04-04T15:37:51.063Z</time></trkpt><trkpt lat="46.0132109" lon="12.6276322"><ele>98.0</ele><time>2026-04-04T15:37:52.064Z</time></trkpt><trkpt lat="46.0131923" lon="12.6273509"><ele>98.0</ele><time>2026-04-04T15:37:53.063Z</time></trkpt><trkpt lat="46.0131894" lon="12.6270637"><ele>98.0</ele><time>2026-04-04T15:37:54.064Z</time></trkpt><trkpt lat="46.0131945" lon="12.6267757"><ele>98.0</ele><time>2026-04-04T15:37:55.064Z</time></trkpt><trkpt lat="46.013203" lon="12.626484"><ele>98.33333333333333</ele><time>2026-04-04T15:37:56.064Z</time></trkpt><trkpt lat="46.0132142" lon="12.6261914"><ele>98.66666666666666</ele><time>2026-04-04T15:37:57.064Z</time></trkpt><trkpt lat="46.0132227" lon="12.6258986"><ele>99.0</ele><time>2026-04-04T15:37:58.063Z</time></trkpt><trkpt lat="46.0132303" lon="12.6256135"><ele>99.0</ele><time>2026-04-04T15:37:59.063Z</time></trkpt><trkpt lat="46.0132383" lon="12.625342"><ele>99.0</ele><time>2026-04-04T15:38:00.063Z</time></trkpt><trkpt lat="46.013246" lon="12.6250842"><ele>99.0</ele><time>2026-04-04T15:38:01.064Z</time></trkpt><trkpt lat="46.0132526" lon="12.6248374"><ele>99.0</ele><time>2026-04-04T15:38:02.063Z</time></trkpt><trkpt lat="46.0132594" lon="12.6246052"><ele>99.0</ele><time>2026-04-04T15:38:03.064Z</time></trkpt><trkpt lat="46.0132662" lon="12.6243921"><ele>99.0</ele><time>2026-04-04T15:38:04.064Z</time></trkpt><trkpt lat="46.0132715" lon="12.6241929"><ele>99.0</ele><time>2026-04-04T15:38:05.064Z</time></trkpt><trkpt lat="46.0132787" lon="12.6240125"><ele>99.0</ele><time>2026-04-04T15:38:06.063Z</time></trkpt><trkpt lat="46.013292" lon="12.6238537"><ele>99.0</ele><time>2026-04-04T15:38:07.063Z</time></trkpt><trkpt lat="46.0133088" lon="12.6237293"><ele>99.0</ele><time>2026-04-04T15:38:08.063Z</time></trkpt><trkpt lat="46.0133365" lon="12.6236145"><ele>99.0</ele><time>2026-04-04T15:38:09.063Z</time></trkpt><trkpt lat="46.0133789" lon="12.6235146"><ele>99.0</ele><time>2026-04-04T15:38:10.063Z</time></trkpt><trkpt lat="46.0134062" lon="12.6234081"><ele>99.0</ele><time>2026-04-04T15:38:11.064Z</time></trkpt><trkpt lat="46.0134033" lon="12.623282"><ele>99.25</ele><time>2026-04-04T15:38:12.064Z</time></trkpt><trkpt lat="46.0133976" lon="12.6231397"><ele>99.5</ele><time>2026-04-04T15:38:13.063Z</time></trkpt><trkpt lat="46.0134143" lon="12.6229819"><ele>99.75</ele><time>2026-04-04T15:38:14.063Z</time></trkpt><trkpt lat="46.0134364" lon="12.6228056"><ele>100.0</ele><time>2026-04-04T15:38:15.063Z</time></trkpt><trkpt lat="46.0134633" lon="12.6226061"><ele>100.0</ele><time>2026-04-04T15:38:16.063Z</time></trkpt><trkpt lat="46.0134939" lon="12.6223985"><ele>100.0</ele><time>2026-04-04T15:38:17.064Z</time></trkpt><trkpt lat="46.0135286" lon="12.6221796"><ele>100.0</ele><time>2026-04-04T15:38:18.064Z</time></trkpt><trkpt lat="46.0135638" lon="12.621954"><ele>100.0</ele><time>2026-04-04T15:38:19.064Z</time></trkpt><trkpt lat="46.0135981" lon="12.6217399"><ele>100.0</ele><time>2026-04-04T15:38:20.063Z</time></trkpt><trkpt lat="46.0136324" lon="12.6215306"><ele>100.0</ele><time>2026-04-04T15:38:21.063Z</time></trkpt><trkpt lat="46.0136653" lon="12.6213382"><ele>100.0</ele><time>2026-04-04T15:38:22.064Z</time></trkpt><trkpt lat="46.0136905" lon="12.6211602"><ele>100.00000000000001</ele><time>2026-04-04T15:38:23.063Z</time></trkpt><trkpt lat="46.0137022" lon="12.6210122"><ele>100.0</ele><time>2026-04-04T15:38:24.064Z</time></trkpt><trkpt lat="46.0136966" lon="12.620888"><ele>100.0</ele><time>2026-04-04T15:38:25.063Z</time></trkpt><trkpt lat="46.0136654" lon="12.6207832"><ele>100.0</ele><time>2026-04-04T15:38:26.063Z</time></trkpt><trkpt lat="46.0136043" lon="12.6207014"><ele>100.00000000000001</ele><time>2026-04-04T15:38:27.063Z</time></trkpt><trkpt lat="46.0135233" lon="12.620638"><ele>100.0</ele><time>2026-04-04T15:38:28.063Z</time></trkpt><trkpt lat="46.0134225" lon="12.6205807"><ele>99.75</ele><time>2026-04-04T15:38:29.063Z</time></trkpt><trkpt lat="46.0133191" lon="12.6205145"><ele>99.5</ele><time>2026-04-04T15:38:30.064Z</time></trkpt><trkpt lat="46.0132113" lon="12.6204365"><ele>99.25</ele><time>2026-04-04T15:38:31.063Z</time></trkpt><trkpt lat="46.0131024" lon="12.6203543"><ele>99.0</ele><time>2026-04-04T15:38:32.063Z</time></trkpt><trkpt lat="46.0129917" lon="12.6202723"><ele>99.0</ele><time>2026-04-04T15:38:33.064Z</time></trkpt><trkpt lat="46.012881" lon="12.6201891"><ele>99.0</ele><time>2026-04-04T15:38:34.063Z</time></trkpt><trkpt lat="46.012772" lon="12.6201035"><ele>99.0</ele><time>2026-04-04T15:38:35.064Z</time></trkpt><trkpt lat="46.0126628" lon="12.6200202"><ele>99.0</ele><time>2026-04-04T15:38:36.063Z</time></trkpt><trkpt lat="46.0125554" lon="12.6199377"><ele>98.5</ele><time>2026-04-04T15:38:37.063Z</time></trkpt><trkpt lat="46.0124439" lon="12.619868"><ele>98.0</ele><time>2026-04-04T15:38:38.063Z</time></trkpt><trkpt lat="46.0123287" lon="12.619816"><ele>97.5</ele><time>2026-04-04T15:38:39.063Z</time></trkpt><trkpt lat="46.0122148" lon="12.6197757"><ele>97.0</ele><time>2026-04-04T15:38:40.064Z</time></trkpt><trkpt lat="46.0121035" lon="12.6197573"><ele>97.0</ele><time>2026-04-04T15:38:41.063Z</time></trkpt><trkpt lat="46.0119968" lon="12.6197581"><ele>97.0</ele><time>2026-04-04T15:38:42.064Z</time></trkpt><trkpt lat="46.0118974" lon="12.6197705"><ele>97.0</ele><time>2026-04-04T15:38:43.064Z</time></trkpt><trkpt lat="46.0118036" lon="12.6197877"><ele>97.0</ele><time>2026-04-04T15:38:44.063Z</time></trkpt><trkpt lat="46.0117086" lon="12.6198114"><ele>97.0</ele><time>2026-04-04T15:38:45.063Z</time></trkpt><trkpt lat="46.0116169" lon="12.6198447"><ele>97.00000000000001</ele><time>2026-04-04T15:38:46.064Z</time></trkpt><trkpt lat="46.0115289" lon="12.6198827"><ele>97.0</ele><time>2026-04-04T15:38:47.063Z</time></trkpt><trkpt lat="46.0114443" lon="12.6199213"><ele>97.0</ele><time>2026-04-04T15:38:48.063Z</time></trkpt><trkpt lat="46.0113633" lon="12.619953"><ele>97.0</ele><time>2026-04-04T15:38:49.063Z</time></trkpt><trkpt lat="46.0112782" lon="12.6199878"><ele>97.00000000000001</ele><time>2026-04-04T15:38:50.064Z</time></trkpt><trkpt lat="46.0111982" lon="12.6200173"><ele>97.0</ele><time>2026-04-04T15:38:51.063Z</time></trkpt><trkpt lat="46.0111186" lon="12.6200454"><ele>97.00000000000001</ele><time>2026-04-04T15:38:52.063Z</time></trkpt><trkpt lat="46.01104" lon="12.6200707"><ele>97.0</ele><time>2026-04-04T15:38:53.063Z</time></trkpt><trkpt lat="46.0109599" lon="12.6200929"><ele>97.0</ele><time>2026-04-04T15:38:54.063Z</time></trkpt><trkpt lat="46.0108803" lon="12.620106"><ele>97.0</ele><time>2026-04-04T15:38:55.064Z</time></trkpt><trkpt lat="46.010804" lon="12.6201114"><ele>97.00000000000001</ele><time>2026-04-04T15:38:56.064Z</time></trkpt><trkpt lat="46.0107275" lon="12.6201096"><ele>97.0</ele><time>2026-04-04T15:38:57.064Z</time></trkpt><trkpt lat="46.0106512" lon="12.6201007"><ele>96.83333333333334</ele><time>2026-04-04T15:38:58.064Z</time></trkpt><trkpt lat="46.010575" lon="12.6200932"><ele>96.66666666666667</ele><time>2026-04-04T15:38:59.063Z</time></trkpt><trkpt lat="46.0104973" lon="12.6200812"><ele>96.5</ele><time>2026-04-04T15:39:00.063Z</time></trkpt><trkpt lat="46.0104226" lon="12.6200662"><ele>96.33333333333334</ele><time>2026-04-04T15:39:01.063Z</time></trkpt><trkpt lat="46.0103485" lon="12.6200516"><ele>96.16666666666667</ele><time>2026-04-04T15:39:02.064Z</time></trkpt><trkpt lat="46.0102733" lon="12.6200431"><ele>96.0</ele><time>2026-04-04T15:39:03.063Z</time></trkpt><trkpt lat="46.0102008" lon="12.6200452"><ele>96.0</ele><time>2026-04-04T15:39:04.063Z</time></trkpt><trkpt lat="46.0101291" lon="12.6200549"><ele>96.0</ele><time>2026-04-04T15:39:05.063Z</time></trkpt><trkpt lat="46.0100624" lon="12.620063"><ele>96.0</ele><time>2026-04-04T15:39:06.063Z</time></trkpt><trkpt lat="46.0099801" lon="12.6200675"><ele>96.0</ele><time>2026-04-04T15:39:08.064Z</time></trkpt><trkpt lat="46.0098766" lon="12.6200756"><ele>96.0</ele><time>2026-04-04T15:39:11.064Z</time></trkpt><trkpt lat="46.0097527" lon="12.62007"><ele>96.0</ele><time>2026-04-04T15:39:13.064Z</time></trkpt><trkpt lat="46.0096785" lon="12.6200728"><ele>96.0</ele><time>2026-04-04T15:39:14.064Z</time></trkpt><trkpt lat="46.0095974" lon="12.6200834"><ele>96.0</ele><time>2026-04-04T15:39:15.063Z</time></trkpt><trkpt lat="46.009512" lon="12.6200967"><ele>96.0</ele><time>2026-04-04T15:39:16.063Z</time></trkpt><trkpt lat="46.0094322" lon="12.6201147"><ele>96.0</ele><time>2026-04-04T15:39:17.063Z</time></trkpt><trkpt lat="46.0093499" lon="12.6201321"><ele>96.0</ele><time>2026-04-04T15:39:18.064Z</time></trkpt><trkpt lat="46.0092642" lon="12.620139"><ele>96.0</ele><time>2026-04-04T15:39:19.063Z</time></trkpt><trkpt lat="46.0091789" lon="12.6201378"><ele>95.8</ele><time>2026-04-04T15:39:20.063Z</time></trkpt><trkpt lat="46.0090889" lon="12.6201264"><ele>95.6</ele><time>2026-04-04T15:39:21.063Z</time></trkpt><trkpt lat="46.0089995" lon="12.6201024"><ele>95.4</ele><time>2026-04-04T15:39:22.063Z</time></trkpt><trkpt lat="46.0089101" lon="12.6200666"><ele>95.2</ele><time>2026-04-04T15:39:23.064Z</time></trkpt><trkpt lat="46.0088184" lon="12.6200268"><ele>95.0</ele><time>2026-04-04T15:39:24.063Z</time></trkpt><trkpt lat="46.008725" lon="12.619986"><ele>95.0</ele><time>2026-04-04T15:39:25.063Z</time></trkpt><trkpt lat="46.0086291" lon="12.6199423"><ele>95.0</ele><time>2026-04-04T15:39:26.064Z</time></trkpt><trkpt lat="46.00853" lon="12.6198942"><ele>95.0</ele><time>2026-04-04T15:39:27.063Z</time></trkpt><trkpt lat="46.0084267" lon="12.6198453"><ele>95.0</ele><time>2026-04-04T15:39:28.063Z</time></trkpt><trkpt lat="46.0083188" lon="12.6197975"><ele>95.0</ele><time>2026-04-04T15:39:29.063Z</time></trkpt><trkpt lat="46.0082041" lon="12.6197479"><ele>94.5</ele><time>2026-04-04T15:39:30.063Z</time></trkpt><trkpt lat="46.0080849" lon="12.6196962"><ele>94.0</ele><time>2026-04-04T15:39:31.064Z</time></trkpt><trkpt lat="46.0079645" lon="12.6196456"><ele>93.5</ele><time>2026-04-04T15:39:32.064Z</time></trkpt><trkpt lat="46.0078461" lon="12.6195759"><ele>93.0</ele><time>2026-04-04T15:39:33.064Z</time></trkpt><trkpt lat="46.0077197" lon="12.6195166"><ele>92.75</ele><time>2026-04-04T15:39:34.063Z</time></trkpt><trkpt lat="46.0075854" lon="12.6194612"><ele>92.5</ele><time>2026-04-04T15:39:35.063Z</time></trkpt><trkpt lat="46.0074497" lon="12.6194067"><ele>92.25</ele><time>2026-04-04T15:39:36.064Z</time></trkpt><trkpt lat="46.0073156" lon="12.6193554"><ele>92.0</ele><time>2026-04-04T15:39:37.064Z</time></trkpt><trkpt lat="46.0071786" lon="12.6193045"><ele>92.0</ele><time>2026-04-04T15:39:38.063Z</time></trkpt><trkpt lat="46.0070479" lon="12.6192431"><ele>92.0</ele><time>2026-04-04T15:39:39.063Z</time></trkpt><trkpt lat="46.006915" lon="12.6191791"><ele>92.0</ele><time>2026-04-04T15:39:40.064Z</time></trkpt><trkpt lat="46.006782" lon="12.6191151"><ele>92.0</ele><time>2026-04-04T15:39:41.063Z</time></trkpt><trkpt lat="46.0066427" lon="12.6190692"><ele>91.75</ele><time>2026-04-04T15:39:42.064Z</time></trkpt><trkpt lat="46.0064988" lon="12.619028"><ele>91.5</ele><time>2026-04-04T15:39:43.063Z</time></trkpt><trkpt lat="46.0063522" lon="12.6189905"><ele>91.25</ele><time>2026-04-04T15:39:44.064Z</time></trkpt><trkpt lat="46.0062073" lon="12.6189512"><ele>91.0</ele><time>2026-04-04T15:39:45.063Z</time></trkpt><trkpt lat="46.0060679" lon="12.6189103"><ele>91.0</ele><time>2026-04-04T15:39:46.064Z</time></trkpt><trkpt lat="46.0059319" lon="12.6188704"><ele>91.0</ele><time>2026-04-04T15:39:47.064Z</time></trkpt><trkpt lat="46.0057969" lon="12.6188218"><ele>91.0</ele><time>2026-04-04T15:39:48.063Z</time></trkpt><trkpt lat="46.0056629" lon="12.6187712"><ele>91.0</ele><time>2026-04-04T15:39:49.064Z</time></trkpt><trkpt lat="46.0055294" lon="12.6187205"><ele>90.5</ele><time>2026-04-04T15:39:50.063Z</time></trkpt><trkpt lat="46.005397" lon="12.6186666"><ele>90.0</ele><time>2026-04-04T15:39:51.063Z</time></trkpt><trkpt lat="46.0052604" lon="12.6186036"><ele>89.5</ele><time>2026-04-04T15:39:52.064Z</time></trkpt><trkpt lat="46.0051277" lon="12.6185325"><ele>89.0</ele><time>2026-04-04T15:39:53.064Z</time></trkpt><trkpt lat="46.0049959" lon="12.6184528"><ele>89.0</ele><time>2026-04-04T15:39:54.064Z</time></trkpt><trkpt lat="46.0048656" lon="12.6183775"><ele>89.0</ele><time>2026-04-04T15:39:55.064Z</time></trkpt><trkpt lat="46.0047355" lon="12.6183041"><ele>89.0</ele><time>2026-04-04T15:39:56.064Z</time></trkpt><trkpt lat="46.004604" lon="12.6182383"><ele>89.0</ele><time>2026-04-04T15:39:57.064Z</time></trkpt><trkpt lat="46.00447" lon="12.6181812"><ele>89.0</ele><time>2026-04-04T15:39:58.064Z</time></trkpt><trkpt lat="46.004335" lon="12.6181261"><ele>89.0</ele><time>2026-04-04T15:39:59.064Z</time></trkpt><trkpt lat="46.0042037" lon="12.6180734"><ele>89.0</ele><time>2026-04-04T15:40:00.063Z</time></trkpt><trkpt lat="46.0040707" lon="12.6180268"><ele>89.0</ele><time>2026-04-04T15:40:01.063Z</time></trkpt><trkpt lat="46.0039347" lon="12.6179862"><ele>88.5</ele><time>2026-04-04T15:40:02.064Z</time></trkpt><trkpt lat="46.003798" lon="12.6179532"><ele>88.0</ele><time>2026-04-04T15:40:03.064Z</time></trkpt><trkpt lat="46.003658" lon="12.6179211"><ele>87.5</ele><time>2026-04-04T15:40:04.063Z</time></trkpt><trkpt lat="46.0035126" lon="12.6178893"><ele>87.0</ele><time>2026-04-04T15:40:05.064Z</time></trkpt><trkpt lat="46.0033665" lon="12.6178649"><ele>86.66666666666667</ele><time>2026-04-04T15:40:06.063Z</time></trkpt><trkpt lat="46.003217" lon="12.6178398"><ele>86.33333333333334</ele><time>2026-04-04T15:40:07.064Z</time></trkpt><trkpt lat="46.0030674" lon="12.6178138"><ele>86.0</ele><time>2026-04-04T15:40:08.063Z</time></trkpt><trkpt lat="46.0029203" lon="12.6177836"><ele>86.0</ele><time>2026-04-04T15:40:09.063Z</time></trkpt><trkpt lat="46.0027732" lon="12.6177579"><ele>86.0</ele><time>2026-04-04T15:40:10.064Z</time></trkpt><trkpt lat="46.0026262" lon="12.6177326"><ele>86.0</ele><time>2026-04-04T15:40:11.064Z</time></trkpt><trkpt lat="46.0024808" lon="12.6177089"><ele>86.0</ele><time>2026-04-04T15:40:12.063Z</time></trkpt><trkpt lat="46.0023374" lon="12.6176893"><ele>85.75</ele><time>2026-04-04T15:40:13.063Z</time></trkpt><trkpt lat="46.0021975" lon="12.6176648"><ele>85.5</ele><time>2026-04-04T15:40:14.063Z</time></trkpt><trkpt lat="46.0020663" lon="12.617642"><ele>85.25</ele><time>2026-04-04T15:40:15.064Z</time></trkpt><trkpt lat="46.0019431" lon="12.6176215"><ele>85.0</ele><time>2026-04-04T15:40:16.063Z</time></trkpt><trkpt lat="46.0018229" lon="12.6176013"><ele>85.0</ele><time>2026-04-04T15:40:17.063Z</time></trkpt><trkpt lat="46.0017014" lon="12.6175819"><ele>85.0</ele><time>2026-04-04T15:40:18.063Z</time></trkpt><trkpt lat="46.00158" lon="12.6175672"><ele>85.0</ele><time>2026-04-04T15:40:19.063Z</time></trkpt><trkpt lat="46.0014615" lon="12.6175529"><ele>85.0</ele><time>2026-04-04T15:40:20.064Z</time></trkpt><trkpt lat="46.0013513" lon="12.6175494"><ele>84.83333333333333</ele><time>2026-04-04T15:40:21.063Z</time></trkpt><trkpt lat="46.0012624" lon="12.6175439"><ele>84.66666666666666</ele><time>2026-04-04T15:40:22.064Z</time></trkpt><trkpt lat="46.0011845" lon="12.6175357"><ele>84.5</ele><time>2026-04-04T15:40:23.064Z</time></trkpt><trkpt lat="46.001117" lon="12.6175245"><ele>84.33333333333333</ele><time>2026-04-04T15:40:24.063Z</time></trkpt><trkpt lat="46.0010581" lon="12.6174778"><ele>84.16666666666667</ele><time>2026-04-04T15:40:25.063Z</time></trkpt><trkpt lat="46.0010111" lon="12.6173937"><ele>84.0</ele><time>2026-04-04T15:40:26.063Z</time></trkpt><trkpt lat="46.0009707" lon="12.6172808"><ele>84.0</ele><time>2026-04-04T15:40:27.063Z</time></trkpt><trkpt lat="46.0009399" lon="12.6171384"><ele>84.0</ele><time>2026-04-04T15:40:28.063Z</time></trkpt><trkpt lat="46.0009127" lon="12.6169695"><ele>84.0</ele><time>2026-04-04T15:40:29.064Z</time></trkpt><trkpt lat="46.0008887" lon="12.6167926"><ele>84.0</ele><time>2026-04-04T15:40:30.064Z</time></trkpt><trkpt lat="46.0008682" lon="12.6165994"><ele>84.0</ele><time>2026-04-04T15:40:31.063Z</time></trkpt><trkpt lat="46.0008529" lon="12.6163915"><ele>84.0</ele><time>2026-04-04T15:40:32.063Z</time></trkpt><trkpt lat="46.0008397" lon="12.6161675"><ele>84.0</ele><time>2026-04-04T15:40:33.063Z</time></trkpt><trkpt lat="46.0008273" lon="12.6159333"><ele>83.66666666666667</ele><time>2026-04-04T15:40:34.064Z</time></trkpt><trkpt lat="46.0008217" lon="12.6156996"><ele>83.33333333333334</ele><time>2026-04-04T15:40:35.063Z</time></trkpt><trkpt lat="46.000815" lon="12.6154693"><ele>83.0</ele><time>2026-04-04T15:40:36.064Z</time></trkpt><trkpt lat="46.0008062" lon="12.6152476"><ele>82.66666666666667</ele><time>2026-04-04T15:40:37.063Z</time></trkpt><trkpt lat="46.0007955" lon="12.6150316"><ele>82.33333333333333</ele><time>2026-04-04T15:40:38.063Z</time></trkpt><trkpt lat="46.0007829" lon="12.6148134"><ele>82.0</ele><time>2026-04-04T15:40:39.063Z</time></trkpt><trkpt lat="46.0007703" lon="12.6145955"><ele>82.33333333333333</ele><time>2026-04-04T15:40:40.064Z</time></trkpt><trkpt lat="46.0007586" lon="12.6143737"><ele>82.66666666666667</ele><time>2026-04-04T15:40:41.063Z</time></trkpt><trkpt lat="46.0007465" lon="12.6141473"><ele>83.0</ele><time>2026-04-04T15:40:42.064Z</time></trkpt><trkpt lat="46.0007345" lon="12.6139227"><ele>83.0</ele><time>2026-04-04T15:40:43.064Z</time></trkpt><trkpt lat="46.0007216" lon="12.6137019"><ele>83.0</ele><time>2026-04-04T15:40:44.064Z</time></trkpt><trkpt lat="46.0007061" lon="12.6134845"><ele>83.0</ele><time>2026-04-04T15:40:45.064Z</time></trkpt><trkpt lat="46.0006889" lon="12.6132696"><ele>82.75</ele><time>2026-04-04T15:40:46.063Z</time></trkpt><trkpt lat="46.0006723" lon="12.6130582"><ele>82.5</ele><time>2026-04-04T15:40:47.063Z</time></trkpt><trkpt lat="46.000654" lon="12.6128602"><ele>82.25</ele><time>2026-04-04T15:40:48.063Z</time></trkpt><trkpt lat="46.0006376" lon="12.6126724"><ele>82.0</ele><time>2026-04-04T15:40:49.064Z</time></trkpt><trkpt lat="46.0006207" lon="12.6124892"><ele>82.0</ele><time>2026-04-04T15:40:50.064Z</time></trkpt><trkpt lat="46.0006028" lon="12.6122995"><ele>82.0</ele><time>2026-04-04T15:40:51.064Z</time></trkpt><trkpt lat="46.0005838" lon="12.6121072"><ele>82.0</ele><time>2026-04-04T15:40:52.063Z</time></trkpt><trkpt lat="46.000564" lon="12.611905"><ele>82.0</ele><time>2026-04-04T15:40:53.064Z</time></trkpt><trkpt lat="46.0005443" lon="12.6116947"><ele>82.0</ele><time>2026-04-04T15:40:54.063Z</time></trkpt><trkpt lat="46.0005218" lon="12.6114787"><ele>82.0</ele><time>2026-04-04T15:40:55.063Z</time></trkpt><trkpt lat="46.0005" lon="12.6112542"><ele>82.0</ele><time>2026-04-04T15:40:56.063Z</time></trkpt><trkpt lat="46.000477" lon="12.6110331"><ele>82.0</ele><time>2026-04-04T15:40:57.064Z</time></trkpt><trkpt lat="46.0004566" lon="12.6108257"><ele>82.0</ele><time>2026-04-04T15:40:58.063Z</time></trkpt><trkpt lat="46.000439" lon="12.6106367"><ele>82.0</ele><time>2026-04-04T15:40:59.063Z</time></trkpt><trkpt lat="46.0004254" lon="12.6104577"><ele>82.0</ele><time>2026-04-04T15:41:00.063Z</time></trkpt><trkpt lat="46.000419" lon="12.6102917"><ele>81.75</ele><time>2026-04-04T15:41:01.064Z</time></trkpt><trkpt lat="46.0004274" lon="12.6101274"><ele>81.5</ele><time>2026-04-04T15:41:02.063Z</time></trkpt><trkpt lat="46.0004596" lon="12.6099693"><ele>81.25</ele><time>2026-04-04T15:41:03.064Z</time></trkpt><trkpt lat="46.0005032" lon="12.609815"><ele>81.0</ele><time>2026-04-04T15:41:04.063Z</time></trkpt><trkpt lat="46.0005303" lon="12.6096561"><ele>81.0</ele><time>2026-04-04T15:41:05.064Z</time></trkpt><trkpt lat="46.0005212" lon="12.6095065"><ele>81.0</ele><time>2026-04-04T15:41:06.064Z</time></trkpt><trkpt lat="46.0004833" lon="12.6093674"><ele>81.0</ele><time>2026-04-04T15:41:07.063Z</time></trkpt><trkpt lat="46.0004125" lon="12.6092648"><ele>81.0</ele><time>2026-04-04T15:41:08.064Z</time></trkpt><trkpt lat="46.000322" lon="12.6091974"><ele>81.0</ele><time>2026-04-04T15:41:09.063Z</time></trkpt><trkpt lat="46.000239" lon="12.6091272"><ele>80.8</ele><time>2026-04-04T15:41:10.063Z</time></trkpt><trkpt lat="46.0001812" lon="12.6090167"><ele>80.6</ele><time>2026-04-04T15:41:11.063Z</time></trkpt><trkpt lat="46.0001551" lon="12.6088795"><ele>80.4</ele><time>2026-04-04T15:41:12.064Z</time></trkpt><trkpt lat="46.0001536" lon="12.6087144"><ele>80.2</ele><time>2026-04-04T15:41:13.064Z</time></trkpt><trkpt lat="46.0001672" lon="12.6085242"><ele>80.0</ele><time>2026-04-04T15:41:14.063Z</time></trkpt><trkpt lat="46.0001816" lon="12.6083106"><ele>80.0</ele><time>2026-04-04T15:41:15.063Z</time></trkpt><trkpt lat="46.0001882" lon="12.6080936"><ele>80.0</ele><time>2026-04-04T15:41:16.063Z</time></trkpt><trkpt lat="46.0001855" lon="12.6078575"><ele>80.0</ele><time>2026-04-04T15:41:17.064Z</time></trkpt><trkpt lat="46.0001688" lon="12.6076139"><ele>80.33333333333334</ele><time>2026-04-04T15:41:18.063Z</time></trkpt><trkpt lat="46.0001334" lon="12.6073693"><ele>80.66666666666667</ele><time>2026-04-04T15:41:19.064Z</time></trkpt><trkpt lat="46.0000746" lon="12.6071309"><ele>81.0</ele><time>2026-04-04T15:41:20.063Z</time></trkpt><trkpt lat="45.9999906" lon="12.6069071"><ele>81.0</ele><time>2026-04-04T15:41:21.064Z</time></trkpt><trkpt lat="45.9998838" lon="12.6067041"><ele>81.0</ele><time>2026-04-04T15:41:22.063Z</time></trkpt><trkpt lat="45.9997625" lon="12.606519"><ele>81.0</ele><time>2026-04-04T15:41:23.064Z</time></trkpt><trkpt lat="45.9996315" lon="12.6063415"><ele>80.66666666666667</ele><time>2026-04-04T15:41:24.064Z</time></trkpt><trkpt lat="45.9994977" lon="12.60616"><ele>80.33333333333334</ele><time>2026-04-04T15:41:25.063Z</time></trkpt><trkpt lat="45.9993578" lon="12.6059739"><ele>80.0</ele><time>2026-04-04T15:41:26.063Z</time></trkpt><trkpt lat="45.9992141" lon="12.6057846"><ele>80.0</ele><time>2026-04-04T15:41:27.064Z</time></trkpt><trkpt lat="45.9990719" lon="12.6055911"><ele>80.0</ele><time>2026-04-04T15:41:28.063Z</time></trkpt><trkpt lat="45.9989277" lon="12.6053977"><ele>80.0</ele><time>2026-04-04T15:41:29.064Z</time></trkpt><trkpt lat="45.9987813" lon="12.60521"><ele>79.33333333333334</ele><time>2026-04-04T15:41:30.064Z</time></trkpt><trkpt lat="45.9986334" lon="12.6050222"><ele>78.66666666666667</ele><time>2026-04-04T15:41:31.063Z</time></trkpt><trkpt lat="45.998481" lon="12.6048512"><ele>78.0</ele><time>2026-04-04T15:41:32.063Z</time></trkpt><trkpt lat="45.9983182" lon="12.6047003"><ele>78.0</ele><time>2026-04-04T15:41:33.063Z</time></trkpt><trkpt lat="45.9981493" lon="12.6045582"><ele>78.0</ele><time>2026-04-04T15:41:34.064Z</time></trkpt><trkpt lat="45.9979765" lon="12.6044188"><ele>78.0</ele><time>2026-04-04T15:41:35.064Z</time></trkpt><trkpt lat="45.9978002" lon="12.6042853"><ele>77.66666666666667</ele><time>2026-04-04T15:41:36.063Z</time></trkpt><trkpt lat="45.9976223" lon="12.6041537"><ele>77.33333333333334</ele><time>2026-04-04T15:41:37.063Z</time></trkpt><trkpt lat="45.9974422" lon="12.6040231"><ele>77.0</ele><time>2026-04-04T15:41:38.063Z</time></trkpt><trkpt lat="45.9972616" lon="12.6038927"><ele>77.0</ele><time>2026-04-04T15:41:39.064Z</time></trkpt><trkpt lat="45.9970855" lon="12.6037701"><ele>77.0</ele><time>2026-04-04T15:41:40.063Z</time></trkpt><trkpt lat="45.9969152" lon="12.6036486"><ele>77.0</ele><time>2026-04-04T15:41:41.064Z</time></trkpt><trkpt lat="45.9967498" lon="12.6035248"><ele>76.33333333333334</ele><time>2026-04-04T15:41:42.064Z</time></trkpt><trkpt lat="45.9965857" lon="12.6033893"><ele>75.66666666666667</ele><time>2026-04-04T15:41:43.063Z</time></trkpt><trkpt lat="45.9964242" lon="12.6032447"><ele>75.0</ele><time>2026-04-04T15:41:44.064Z</time></trkpt><trkpt lat="45.9962633" lon="12.6030953"><ele>75.0</ele><time>2026-04-04T15:41:45.063Z</time></trkpt><trkpt lat="45.9960983" lon="12.6029427"><ele>75.0</ele><time>2026-04-04T15:41:46.064Z</time></trkpt><trkpt lat="45.9959357" lon="12.602788"><ele>75.0</ele><time>2026-04-04T15:41:47.064Z</time></trkpt><trkpt lat="45.9957765" lon="12.6026408"><ele>75.0</ele><time>2026-04-04T15:41:48.064Z</time></trkpt><trkpt lat="45.9956187" lon="12.6024952"><ele>75.0</ele><time>2026-04-04T15:41:49.063Z</time></trkpt><trkpt lat="45.9954639" lon="12.6023509"><ele>75.0</ele><time>2026-04-04T15:41:50.064Z</time></trkpt><trkpt lat="45.9953133" lon="12.6022014"><ele>75.0</ele><time>2026-04-04T15:41:51.063Z</time></trkpt><trkpt lat="45.9951669" lon="12.6020445"><ele>75.0</ele><time>2026-04-04T15:41:52.063Z</time></trkpt><trkpt lat="45.9950272" lon="12.6018791"><ele>75.0</ele><time>2026-04-04T15:41:53.063Z</time></trkpt><trkpt lat="45.9948938" lon="12.6017022"><ele>74.33333333333333</ele><time>2026-04-04T15:41:54.063Z</time></trkpt><trkpt lat="45.9947681" lon="12.6015208"><ele>73.66666666666666</ele><time>2026-04-04T15:41:55.064Z</time></trkpt><trkpt lat="45.9946503" lon="12.6013506"><ele>73.0</ele><time>2026-04-04T15:41:56.064Z</time></trkpt><trkpt lat="45.9945434" lon="12.6012006"><ele>72.75</ele><time>2026-04-04T15:41:57.063Z</time></trkpt><trkpt lat="45.9944447" lon="12.6010619"><ele>72.5</ele><time>2026-04-04T15:41:58.063Z</time></trkpt><trkpt lat="45.9943564" lon="12.6009475"><ele>72.25</ele><time>2026-04-04T15:41:59.063Z</time></trkpt><trkpt lat="45.994276" lon="12.6008554"><ele>72.0</ele><time>2026-04-04T15:42:00.063Z</time></trkpt><trkpt lat="45.994204" lon="12.6007676"><ele>72.2</ele><time>2026-04-04T15:42:01.064Z</time></trkpt><trkpt lat="45.99416" lon="12.6006613"><ele>72.4</ele><time>2026-04-04T15:42:02.063Z</time></trkpt><trkpt lat="45.9941163" lon="12.6005441"><ele>72.6</ele><time>2026-04-04T15:42:03.064Z</time></trkpt><trkpt lat="45.9940441" lon="12.6004431"><ele>72.8</ele><time>2026-04-04T15:42:04.064Z</time></trkpt><trkpt lat="45.9939594" lon="12.6003364"><ele>73.0</ele><time>2026-04-04T15:42:05.064Z</time></trkpt><trkpt lat="45.9938707" lon="12.6002056"><ele>73.0</ele><time>2026-04-04T15:42:06.063Z</time></trkpt><trkpt lat="45.9937699" lon="12.6000591"><ele>73.0</ele><time>2026-04-04T15:42:07.063Z</time></trkpt><trkpt lat="45.9936589" lon="12.5999009"><ele>73.0</ele><time>2026-04-04T15:42:08.063Z</time></trkpt><trkpt lat="45.9935391" lon="12.5997324"><ele>73.0</ele><time>2026-04-04T15:42:09.064Z</time></trkpt><trkpt lat="45.9934113" lon="12.5995567"><ele>73.0</ele><time>2026-04-04T15:42:10.064Z</time></trkpt><trkpt lat="45.9932734" lon="12.5993811"><ele>73.0</ele><time>2026-04-04T15:42:11.064Z</time></trkpt><trkpt lat="45.9931244" lon="12.5992114"><ele>72.0</ele><time>2026-04-04T15:42:12.064Z</time></trkpt><trkpt lat="45.9929697" lon="12.5990474"><ele>71.0</ele><time>2026-04-04T15:42:13.063Z</time></trkpt><trkpt lat="45.9928107" lon="12.5988815"><ele>70.0</ele><time>2026-04-04T15:42:14.063Z</time></trkpt><trkpt lat="45.9926496" lon="12.5987108"><ele>69.33333333333333</ele><time>2026-04-04T15:42:15.064Z</time></trkpt><trkpt lat="45.9924875" lon="12.598538"><ele>68.66666666666667</ele><time>2026-04-04T15:42:16.064Z</time></trkpt><trkpt lat="45.9923226" lon="12.5983682"><ele>68.0</ele><time>2026-04-04T15:42:17.063Z</time></trkpt><trkpt lat="45.9921583" lon="12.5982001"><ele>68.0</ele><time>2026-04-04T15:42:18.063Z</time></trkpt><trkpt lat="45.9919983" lon="12.5980375"><ele>68.0</ele><time>2026-04-04T15:42:19.064Z</time></trkpt><trkpt lat="45.9918446" lon="12.5978823"><ele>68.0</ele><time>2026-04-04T15:42:20.064Z</time></trkpt><trkpt lat="45.9916924" lon="12.5977263"><ele>67.66666666666667</ele><time>2026-04-04T15:42:21.064Z</time></trkpt><trkpt lat="45.9915397" lon="12.5975691"><ele>67.33333333333333</ele><time>2026-04-04T15:42:22.063Z</time></trkpt><trkpt lat="45.9913874" lon="12.5974141"><ele>67.0</ele><time>2026-04-04T15:42:23.063Z</time></trkpt><trkpt lat="45.9912362" lon="12.5972588"><ele>67.0</ele><time>2026-04-04T15:42:24.063Z</time></trkpt><trkpt lat="45.9910879" lon="12.5971021"><ele>67.0</ele><time>2026-04-04T15:42:25.064Z</time></trkpt><trkpt lat="45.9909391" lon="12.5969436"><ele>67.0</ele><time>2026-04-04T15:42:26.064Z</time></trkpt><trkpt lat="45.9907902" lon="12.5967895"><ele>67.33333333333333</ele><time>2026-04-04T15:42:27.064Z</time></trkpt><trkpt lat="45.9906525" lon="12.5966305"><ele>67.66666666666667</ele><time>2026-04-04T15:42:28.064Z</time></trkpt><trkpt lat="45.9905217" lon="12.5964658"><ele>68.0</ele><time>2026-04-04T15:42:29.063Z</time></trkpt><trkpt lat="45.990403" lon="12.5962796"><ele>68.0</ele><time>2026-04-04T15:42:30.063Z</time></trkpt><trkpt lat="45.9902996" lon="12.596072"><ele>68.0</ele><time>2026-04-04T15:42:31.063Z</time></trkpt><trkpt lat="45.9902084" lon="12.5958442"><ele>68.0</ele><time>2026-04-04T15:42:32.063Z</time></trkpt><trkpt lat="45.9901243" lon="12.5956024"><ele>68.0</ele><time>2026-04-04T15:42:33.063Z</time></trkpt><trkpt lat="45.9900468" lon="12.5953519"><ele>68.0</ele><time>2026-04-04T15:42:34.064Z</time></trkpt><trkpt lat="45.9899674" lon="12.595095"><ele>68.0</ele><time>2026-04-04T15:42:35.063Z</time></trkpt><trkpt lat="45.989882" lon="12.594833"><ele>67.66666666666667</ele><time>2026-04-04T15:42:36.064Z</time></trkpt><trkpt lat="45.9897934" lon="12.5945693"><ele>67.33333333333333</ele><time>2026-04-04T15:42:37.063Z</time></trkpt><trkpt lat="45.9896942" lon="12.5943143"><ele>67.0</ele><time>2026-04-04T15:42:38.063Z</time></trkpt><trkpt lat="45.9895876" lon="12.5940704"><ele>66.33333333333333</ele><time>2026-04-04T15:42:39.063Z</time></trkpt><trkpt lat="45.9894754" lon="12.5938267"><ele>65.66666666666667</ele><time>2026-04-04T15:42:40.063Z</time></trkpt><trkpt lat="45.9893615" lon="12.5935866"><ele>65.0</ele><time>2026-04-04T15:42:41.064Z</time></trkpt><trkpt lat="45.9892471" lon="12.593351"><ele>64.66666666666667</ele><time>2026-04-04T15:42:42.064Z</time></trkpt><trkpt lat="45.9891292" lon="12.5931134"><ele>64.33333333333333</ele><time>2026-04-04T15:42:43.063Z</time></trkpt><trkpt lat="45.9890117" lon="12.5928741"><ele>64.0</ele><time>2026-04-04T15:42:44.064Z</time></trkpt><trkpt lat="45.9888934" lon="12.5926321"><ele>64.0</ele><time>2026-04-04T15:42:45.064Z</time></trkpt><trkpt lat="45.9887748" lon="12.5923878"><ele>64.0</ele><time>2026-04-04T15:42:46.063Z</time></trkpt><trkpt lat="45.9886572" lon="12.5921477"><ele>64.0</ele><time>2026-04-04T15:42:47.063Z</time></trkpt><trkpt lat="45.9885366" lon="12.5919004"><ele>64.0</ele><time>2026-04-04T15:42:48.064Z</time></trkpt><trkpt lat="45.9884183" lon="12.591657"><ele>64.0</ele><time>2026-04-04T15:42:49.063Z</time></trkpt><trkpt lat="45.9883012" lon="12.5914117"><ele>64.0</ele><time>2026-04-04T15:42:50.063Z</time></trkpt><trkpt lat="45.9881818" lon="12.5911681"><ele>64.0</ele><time>2026-04-04T15:42:51.064Z</time></trkpt><trkpt lat="45.9880657" lon="12.590926"><ele>64.0</ele><time>2026-04-04T15:42:52.064Z</time></trkpt><trkpt lat="45.987949" lon="12.5906875"><ele>64.0</ele><time>2026-04-04T15:42:53.063Z</time></trkpt><trkpt lat="45.9878362" lon="12.5904444"><ele>63.666666666666664</ele><time>2026-04-04T15:42:54.064Z</time></trkpt><trkpt lat="45.9877213" lon="12.5902068"><ele>63.33333333333333</ele><time>2026-04-04T15:42:55.063Z</time></trkpt><trkpt lat="45.9876106" lon="12.5899679"><ele>63.0</ele><time>2026-04-04T15:42:56.063Z</time></trkpt><trkpt lat="45.9874985" lon="12.5897305"><ele>62.66666666666667</ele><time>2026-04-04T15:42:57.064Z</time></trkpt><trkpt lat="45.9873881" lon="12.5894965"><ele>62.333333333333336</ele><time>2026-04-04T15:42:58.063Z</time></trkpt><trkpt lat="45.9872779" lon="12.5892688"><ele>62.0</ele><time>2026-04-04T15:42:59.064Z</time></trkpt><trkpt lat="45.9871721" lon="12.5890434"><ele>62.0</ele><time>2026-04-04T15:43:00.064Z</time></trkpt><trkpt lat="45.9870653" lon="12.5888222"><ele>62.0</ele><time>2026-04-04T15:43:01.063Z</time></trkpt><trkpt lat="45.9869587" lon="12.5886059"><ele>62.0</ele><time>2026-04-04T15:43:02.063Z</time></trkpt><trkpt lat="45.9868546" lon="12.588388"><ele>62.0</ele><time>2026-04-04T15:43:03.064Z</time></trkpt><trkpt lat="45.9867502" lon="12.5881694"><ele>62.0</ele><time>2026-04-04T15:43:04.064Z</time></trkpt><trkpt lat="45.9866444" lon="12.5879535"><ele>62.0</ele><time>2026-04-04T15:43:05.063Z</time></trkpt><trkpt lat="45.9865388" lon="12.5877355"><ele>62.0</ele><time>2026-04-04T15:43:06.063Z</time></trkpt><trkpt lat="45.9864339" lon="12.5875146"><ele>62.0</ele><time>2026-04-04T15:43:07.063Z</time></trkpt><trkpt lat="45.9863305" lon="12.5872978"><ele>62.0</ele><time>2026-04-04T15:43:08.064Z</time></trkpt><trkpt lat="45.9862279" lon="12.5870864"><ele>61.0</ele><time>2026-04-04T15:43:09.063Z</time></trkpt><trkpt lat="45.9861223" lon="12.5868731"><ele>60.0</ele><time>2026-04-04T15:43:10.064Z</time></trkpt><trkpt lat="45.9860114" lon="12.5866618"><ele>59.0</ele><time>2026-04-04T15:43:11.063Z</time></trkpt><trkpt lat="45.9858951" lon="12.5864511"><ele>58.333333333333336</ele><time>2026-04-04T15:43:12.063Z</time></trkpt><trkpt lat="45.9857717" lon="12.5862499"><ele>57.66666666666667</ele><time>2026-04-04T15:43:13.063Z</time></trkpt><trkpt lat="45.9856366" lon="12.5860592"><ele>57.0</ele><time>2026-04-04T15:43:14.064Z</time></trkpt><trkpt lat="45.9854937" lon="12.5858767"><ele>56.66666666666667</ele><time>2026-04-04T15:43:15.063Z</time></trkpt><trkpt lat="45.9853482" lon="12.5857044"><ele>56.333333333333336</ele><time>2026-04-04T15:43:16.063Z</time></trkpt><trkpt lat="45.9852026" lon="12.5855316"><ele>56.0</ele><time>2026-04-04T15:43:17.063Z</time></trkpt><trkpt lat="45.985057" lon="12.5853614"><ele>56.0</ele><time>2026-04-04T15:43:18.063Z</time></trkpt><trkpt lat="45.9849145" lon="12.5851925"><ele>56.0</ele><time>2026-04-04T15:43:19.063Z</time></trkpt><trkpt lat="45.9847738" lon="12.5850265"><ele>56.0</ele><time>2026-04-04T15:43:20.064Z</time></trkpt><trkpt lat="45.9846337" lon="12.5848561"><ele>56.0</ele><time>2026-04-04T15:43:21.063Z</time></trkpt><trkpt lat="45.9844936" lon="12.5846833"><ele>56.0</ele><time>2026-04-04T15:43:22.064Z</time></trkpt><trkpt lat="45.984355" lon="12.5844998"><ele>56.0</ele><time>2026-04-04T15:43:23.063Z</time></trkpt><trkpt lat="45.984217" lon="12.5843093"><ele>56.0</ele><time>2026-04-04T15:43:24.063Z</time></trkpt><trkpt lat="45.9840796" lon="12.5841109"><ele>56.0</ele><time>2026-04-04T15:43:25.064Z</time></trkpt><trkpt lat="45.9839433" lon="12.583907"><ele>56.0</ele><time>2026-04-04T15:43:26.064Z</time></trkpt><trkpt lat="45.9838049" lon="12.5836992"><ele>55.0</ele><time>2026-04-04T15:43:27.064Z</time></trkpt><trkpt lat="45.9836669" lon="12.5834895"><ele>54.0</ele><time>2026-04-04T15:43:28.064Z</time></trkpt><trkpt lat="45.9835276" lon="12.583281"><ele>53.0</ele><time>2026-04-04T15:43:29.063Z</time></trkpt><trkpt lat="45.9833902" lon="12.5830701"><ele>52.333333333333336</ele><time>2026-04-04T15:43:30.063Z</time></trkpt><trkpt lat="45.9832513" lon="12.5828581"><ele>51.66666666666667</ele><time>2026-04-04T15:43:31.063Z</time></trkpt><trkpt lat="45.9831108" lon="12.5826472"><ele>51.0</ele><time>2026-04-04T15:43:32.063Z</time></trkpt><trkpt lat="45.9829698" lon="12.5824377"><ele>51.0</ele><time>2026-04-04T15:43:33.063Z</time></trkpt><trkpt lat="45.9828284" lon="12.5822261"><ele>51.0</ele><time>2026-04-04T15:43:34.063Z</time></trkpt><trkpt lat="45.9826859" lon="12.5820136"><ele>51.0</ele><time>2026-04-04T15:43:35.064Z</time></trkpt><trkpt lat="45.9825448" lon="12.5817981"><ele>51.66666666666667</ele><time>2026-04-04T15:43:36.063Z</time></trkpt><trkpt lat="45.9824043" lon="12.5815859"><ele>52.333333333333336</ele><time>2026-04-04T15:43:37.064Z</time></trkpt><trkpt lat="45.9822649" lon="12.5813766"><ele>53.0</ele><time>2026-04-04T15:43:38.064Z</time></trkpt><trkpt lat="45.9821247" lon="12.5811664"><ele>53.0</ele><time>2026-04-04T15:43:39.063Z</time></trkpt><trkpt lat="45.9819885" lon="12.58096"><ele>53.0</ele><time>2026-04-04T15:43:40.063Z</time></trkpt><trkpt lat="45.9818532" lon="12.5807617"><ele>53.0</ele><time>2026-04-04T15:43:41.063Z</time></trkpt><trkpt lat="45.9817211" lon="12.5805684"><ele>52.333333333333336</ele><time>2026-04-04T15:43:42.063Z</time></trkpt><trkpt lat="45.9815887" lon="12.5803781"><ele>51.66666666666667</ele><time>2026-04-04T15:43:43.063Z</time></trkpt><trkpt lat="45.9814539" lon="12.5801929"><ele>51.0</ele><time>2026-04-04T15:43:44.063Z</time></trkpt><trkpt lat="45.9813152" lon="12.5800174"><ele>51.0</ele><time>2026-04-04T15:43:45.064Z</time></trkpt><trkpt lat="45.9811721" lon="12.5798471"><ele>51.0</ele><time>2026-04-04T15:43:46.063Z</time></trkpt><trkpt lat="45.9810236" lon="12.579689"><ele>51.0</ele><time>2026-04-04T15:43:47.064Z</time></trkpt><trkpt lat="45.9808703" lon="12.5795413"><ele>51.0</ele><time>2026-04-04T15:43:48.063Z</time></trkpt><trkpt lat="45.9807118" lon="12.5794028"><ele>51.0</ele><time>2026-04-04T15:43:49.063Z</time></trkpt><trkpt lat="45.9805497" lon="12.5792727"><ele>51.0</ele><time>2026-04-04T15:43:50.063Z</time></trkpt><trkpt lat="45.980382" lon="12.5791563"><ele>51.0</ele><time>2026-04-04T15:43:51.064Z</time></trkpt><trkpt lat="45.9802173" lon="12.579046"><ele>51.0</ele><time>2026-04-04T15:43:52.064Z</time></trkpt><trkpt lat="45.9800514" lon="12.5789373"><ele>51.0</ele><time>2026-04-04T15:43:53.063Z</time></trkpt><trkpt lat="45.9798885" lon="12.5788329"><ele>50.66666666666667</ele><time>2026-04-04T15:43:54.064Z</time></trkpt><trkpt lat="45.9797309" lon="12.5787323"><ele>50.333333333333336</ele><time>2026-04-04T15:43:55.064Z</time></trkpt><trkpt lat="45.9795762" lon="12.5786384"><ele>50.0</ele><time>2026-04-04T15:43:56.064Z</time></trkpt><trkpt lat="45.9794315" lon="12.5785477"><ele>50.0</ele><time>2026-04-04T15:43:57.063Z</time></trkpt><trkpt lat="45.979294" lon="12.5784641"><ele>50.0</ele><time>2026-04-04T15:43:58.064Z</time></trkpt><trkpt lat="45.9791663" lon="12.5783859"><ele>50.0</ele><time>2026-04-04T15:43:59.064Z</time></trkpt><trkpt lat="45.9790507" lon="12.5783146"><ele>50.0</ele><time>2026-04-04T15:44:00.064Z</time></trkpt><trkpt lat="45.9789426" lon="12.5782467"><ele>49.6</ele><time>2026-04-04T15:44:01.063Z</time></trkpt><trkpt lat="45.9788391" lon="12.5781883"><ele>49.2</ele><time>2026-04-04T15:44:02.064Z</time></trkpt><trkpt lat="45.9787477" lon="12.5781365"><ele>48.8</ele><time>2026-04-04T15:44:03.063Z</time></trkpt><trkpt lat="45.9786666" lon="12.5780921"><ele>48.4</ele><time>2026-04-04T15:44:04.064Z</time></trkpt><trkpt lat="45.9785912" lon="12.5780541"><ele>48.0</ele><time>2026-04-04T15:44:05.064Z</time></trkpt><trkpt lat="45.9785224" lon="12.577991"><ele>48.0</ele><time>2026-04-04T15:44:06.063Z</time></trkpt><trkpt lat="45.9784557" lon="12.57791"><ele>48.0</ele><time>2026-04-04T15:44:07.064Z</time></trkpt><trkpt lat="45.9783699" lon="12.5778529"><ele>48.0</ele><time>2026-04-04T15:44:08.064Z</time></trkpt><trkpt lat="45.978271" lon="12.5778204"><ele>48.0</ele><time>2026-04-04T15:44:09.063Z</time></trkpt><trkpt lat="45.9781637" lon="12.5777888"><ele>48.0</ele><time>2026-04-04T15:44:10.064Z</time></trkpt><trkpt lat="45.9780494" lon="12.5777418"><ele>47.75</ele><time>2026-04-04T15:44:11.063Z</time></trkpt><trkpt lat="45.9779278" lon="12.5776957"><ele>47.5</ele><time>2026-04-04T15:44:12.063Z</time></trkpt><trkpt lat="45.9777982" lon="12.5776599"><ele>47.25</ele><time>2026-04-04T15:44:13.064Z</time></trkpt><trkpt lat="45.9776625" lon="12.5776411"><ele>47.0</ele><time>2026-04-04T15:44:14.063Z</time></trkpt><trkpt lat="45.9775219" lon="12.5776305"><ele>47.0</ele><time>2026-04-04T15:44:15.063Z</time></trkpt><trkpt lat="45.9773778" lon="12.5776214"><ele>47.0</ele><time>2026-04-04T15:44:16.064Z</time></trkpt><trkpt lat="45.9772323" lon="12.5776168"><ele>47.0</ele><time>2026-04-04T15:44:17.063Z</time></trkpt><trkpt lat="45.9770955" lon="12.5776134"><ele>47.0</ele><time>2026-04-04T15:44:18.063Z</time></trkpt><trkpt lat="45.9769662" lon="12.5776094"><ele>47.0</ele><time>2026-04-04T15:44:19.063Z</time></trkpt><trkpt lat="45.9768394" lon="12.5776073"><ele>47.0</ele><time>2026-04-04T15:44:20.063Z</time></trkpt><trkpt lat="45.9767145" lon="12.5776063"><ele>47.0</ele><time>2026-04-04T15:44:21.063Z</time></trkpt><trkpt lat="45.9765885" lon="12.5776065"><ele>47.0</ele><time>2026-04-04T15:44:22.064Z</time></trkpt><trkpt lat="45.9764617" lon="12.5776093"><ele>46.6</ele><time>2026-04-04T15:44:23.064Z</time></trkpt><trkpt lat="45.9763391" lon="12.5776158"><ele>46.2</ele><time>2026-04-04T15:44:24.063Z</time></trkpt><trkpt lat="45.9762308" lon="12.5776284"><ele>45.8</ele><time>2026-04-04T15:44:25.063Z</time></trkpt><trkpt lat="45.9761334" lon="12.57764"><ele>45.4</ele><time>2026-04-04T15:44:26.063Z</time></trkpt><trkpt lat="45.976045" lon="12.5776541"><ele>45.0</ele><time>2026-04-04T15:44:27.064Z</time></trkpt><trkpt lat="45.9759712" lon="12.5776679"><ele>45.0</ele><time>2026-04-04T15:44:28.063Z</time></trkpt><trkpt lat="45.9758995" lon="12.5776774"><ele>45.0</ele><time>2026-04-04T15:44:29.064Z</time></trkpt><trkpt lat="45.9758148" lon="12.5776901"><ele>45.0</ele><time>2026-04-04T15:44:30.063Z</time></trkpt><trkpt lat="45.9757178" lon="12.5776998"><ele>45.0</ele><time>2026-04-04T15:44:31.064Z</time></trkpt><trkpt lat="45.9756097" lon="12.5777058"><ele>45.0</ele><time>2026-04-04T15:44:32.064Z</time></trkpt><trkpt lat="45.9754921" lon="12.5777095"><ele>44.75</ele><time>2026-04-04T15:44:33.064Z</time></trkpt><trkpt lat="45.9753714" lon="12.5777076"><ele>44.5</ele><time>2026-04-04T15:44:34.063Z</time></trkpt><trkpt lat="45.9752539" lon="12.5776929"><ele>44.25</ele><time>2026-04-04T15:44:35.063Z</time></trkpt><trkpt lat="45.9751313" lon="12.577671"><ele>44.0</ele><time>2026-04-04T15:44:36.064Z</time></trkpt><trkpt lat="45.9750022" lon="12.5776394"><ele>44.0</ele><time>2026-04-04T15:44:37.064Z</time></trkpt><trkpt lat="45.9748704" lon="12.5775977"><ele>44.0</ele><time>2026-04-04T15:44:38.064Z</time></trkpt><trkpt lat="45.9747321" lon="12.5775493"><ele>44.0</ele><time>2026-04-04T15:44:39.064Z</time></trkpt><trkpt lat="45.9745905" lon="12.5774982"><ele>44.0</ele><time>2026-04-04T15:44:40.063Z</time></trkpt><trkpt lat="45.9744468" lon="12.5774421"><ele>44.0</ele><time>2026-04-04T15:44:41.063Z</time></trkpt><trkpt lat="45.9743006" lon="12.5773856"><ele>44.0</ele><time>2026-04-04T15:44:42.064Z</time></trkpt><trkpt lat="45.9741517" lon="12.5773256"><ele>44.0</ele><time>2026-04-04T15:44:43.064Z</time></trkpt><trkpt lat="45.9740023" lon="12.5772653"><ele>43.666666666666664</ele><time>2026-04-04T15:44:44.063Z</time></trkpt><trkpt lat="45.9738517" lon="12.5772102"><ele>43.333333333333336</ele><time>2026-04-04T15:44:45.063Z</time></trkpt><trkpt lat="45.9737023" lon="12.5771535"><ele>43.0</ele><time>2026-04-04T15:44:46.064Z</time></trkpt><trkpt lat="45.9735561" lon="12.5770917"><ele>43.0</ele><time>2026-04-04T15:44:47.063Z</time></trkpt><trkpt lat="45.9734121" lon="12.5770346"><ele>43.0</ele><time>2026-04-04T15:44:48.063Z</time></trkpt><trkpt lat="45.9732722" lon="12.576975"><ele>43.0</ele><time>2026-04-04T15:44:49.063Z</time></trkpt><trkpt lat="45.9731276" lon="12.576916"><ele>43.0</ele><time>2026-04-04T15:44:50.063Z</time></trkpt><trkpt lat="45.9729848" lon="12.5768574"><ele>43.0</ele><time>2026-04-04T15:44:51.064Z</time></trkpt><trkpt lat="45.9728508" lon="12.576807"><ele>43.0</ele><time>2026-04-04T15:44:52.063Z</time></trkpt><trkpt lat="45.9727249" lon="12.5767644"><ele>43.0</ele><time>2026-04-04T15:44:53.064Z</time></trkpt><trkpt lat="45.9726084" lon="12.5767187"><ele>43.0</ele><time>2026-04-04T15:44:54.064Z</time></trkpt><trkpt lat="45.9725008" lon="12.5766738"><ele>42.8</ele><time>2026-04-04T15:44:55.063Z</time></trkpt><trkpt lat="45.9724021" lon="12.5766324"><ele>42.599999999999994</ele><time>2026-04-04T15:44:56.064Z</time></trkpt><trkpt lat="45.9723072" lon="12.5765943"><ele>42.400000000000006</ele><time>2026-04-04T15:44:57.063Z</time></trkpt><trkpt lat="45.9722137" lon="12.5765596"><ele>42.2</ele><time>2026-04-04T15:44:58.063Z</time></trkpt><trkpt lat="45.9721225" lon="12.5765243"><ele>42.0</ele><time>2026-04-04T15:44:59.064Z</time></trkpt><trkpt lat="45.9720391" lon="12.57649"><ele>42.0</ele><time>2026-04-04T15:45:00.063Z</time></trkpt><trkpt lat="45.9719623" lon="12.5764584"><ele>42.0</ele><time>2026-04-04T15:45:01.063Z</time></trkpt><trkpt lat="45.9718959" lon="12.57643"><ele>42.0</ele><time>2026-04-04T15:45:02.063Z</time></trkpt><trkpt lat="45.9718059" lon="12.5763888"><ele>42.0</ele><time>2026-04-04T15:45:04.063Z</time></trkpt><trkpt lat="45.9717242" lon="12.5763545"><ele>42.0</ele><time>2026-04-04T15:45:07.064Z</time></trkpt><trkpt lat="45.9716591" lon="12.5763338"><ele>42.0</ele><time>2026-04-04T15:45:57.064Z</time></trkpt><trkpt lat="45.9715752" lon="12.5762894"><ele>41.8</ele><time>2026-04-04T15:45:59.064Z</time></trkpt><trkpt lat="45.9715071" lon="12.5762636"><ele>41.6</ele><time>2026-04-04T15:46:00.064Z</time></trkpt><trkpt lat="45.9714238" lon="12.5762367"><ele>41.4</ele><time>2026-04-04T15:46:01.064Z</time></trkpt><trkpt lat="45.9713217" lon="12.576209"><ele>41.199999999999996</ele><time>2026-04-04T15:46:02.063Z</time></trkpt><trkpt lat="45.9712039" lon="12.5761823"><ele>41.0</ele><time>2026-04-04T15:46:03.064Z</time></trkpt><trkpt lat="45.9710756" lon="12.5761487"><ele>41.0</ele><time>2026-04-04T15:46:04.063Z</time></trkpt><trkpt lat="45.9709322" lon="12.5761165"><ele>41.0</ele><time>2026-04-04T15:46:05.063Z</time></trkpt><trkpt lat="45.9707879" lon="12.5760871"><ele>41.0</ele><time>2026-04-04T15:46:06.064Z</time></trkpt><trkpt lat="45.9706395" lon="12.5760591"><ele>41.0</ele><time>2026-04-04T15:46:07.058Z</time></trkpt><trkpt lat="45.9704851" lon="12.5760282"><ele>40.5</ele><time>2026-04-04T15:46:08.06Z</time></trkpt><trkpt lat="45.9703563" lon="12.575999"><ele>40.0</ele><time>2026-04-04T15:46:09.063Z</time></trkpt><trkpt lat="45.970224" lon="12.5759612"><ele>39.5</ele><time>2026-04-04T15:46:10.058Z</time></trkpt><trkpt lat="45.9701002" lon="12.5759098"><ele>39.0</ele><time>2026-04-04T15:46:11.055Z</time></trkpt><trkpt lat="45.9699781" lon="12.5758422"><ele>39.0</ele><time>2026-04-04T15:46:12.056Z</time></trkpt><trkpt lat="45.969859" lon="12.5757585"><ele>39.0</ele><time>2026-04-04T15:46:13.057Z</time></trkpt><trkpt lat="45.9697412" lon="12.5756642"><ele>39.0</ele><time>2026-04-04T15:46:14.056Z</time></trkpt><trkpt lat="45.9696249" lon="12.5755605"><ele>39.0</ele><time>2026-04-04T15:46:15.056Z</time></trkpt><trkpt lat="45.9695002" lon="12.5754468"><ele>39.25</ele><time>2026-04-04T15:46:16.057Z</time></trkpt><trkpt lat="45.9693945" lon="12.575348"><ele>39.5</ele><time>2026-04-04T15:46:17.056Z</time></trkpt><trkpt lat="45.9692829" lon="12.5752388"><ele>39.75</ele><time>2026-04-04T15:46:18.056Z</time></trkpt><trkpt lat="45.9691699" lon="12.5751163"><ele>40.0</ele><time>2026-04-04T15:46:19.056Z</time></trkpt><trkpt lat="45.9690738" lon="12.5750024"><ele>39.25</ele><time>2026-04-04T15:46:20.057Z</time></trkpt><trkpt lat="45.968975" lon="12.5748763"><ele>38.5</ele><time>2026-04-04T15:46:21.057Z</time></trkpt><trkpt lat="45.968882" lon="12.5747574"><ele>37.75</ele><time>2026-04-04T15:46:22.057Z</time></trkpt><trkpt lat="45.9687941" lon="12.5746521"><ele>37.0</ele><time>2026-04-04T15:46:23.057Z</time></trkpt><trkpt lat="45.9687088" lon="12.5745597"><ele>37.16666666666667</ele><time>2026-04-04T15:46:24.057Z</time></trkpt><trkpt lat="45.9686501" lon="12.5744925"><ele>37.333333333333336</ele><time>2026-04-04T15:46:25.056Z</time></trkpt><trkpt lat="45.9686064" lon="12.5744207"><ele>37.5</ele><time>2026-04-04T15:46:26.057Z</time></trkpt><trkpt lat="45.968606" lon="12.5742715"><ele>37.666666666666664</ele><time>2026-04-04T15:46:28.056Z</time></trkpt><trkpt lat="45.9687085" lon="12.5741569"><ele>37.83333333333333</ele><time>2026-04-04T15:46:30.057Z</time></trkpt><trkpt lat="45.9687682" lon="12.574105"><ele>38.0</ele><time>2026-04-04T15:46:31.057Z</time></trkpt><trkpt lat="45.9688366" lon="12.5740398"><ele>38.0</ele><time>2026-04-04T15:46:33.057Z</time></trkpt><trkpt lat="45.9688893" lon="12.5739793"><ele>38.0</ele><time>2026-04-04T15:46:36.057Z</time></trkpt><trkpt lat="45.9689017" lon="12.5738833"><ele>38.0</ele><time>2026-04-04T15:46:38.057Z</time></trkpt><trkpt lat="45.968833" lon="12.5737512"><ele>38.0</ele><time>2026-04-04T15:46:40.056Z</time></trkpt><trkpt lat="45.9687803" lon="12.5736762"><ele>38.0</ele><time>2026-04-04T15:46:41.056Z</time></trkpt><trkpt lat="45.9687141" lon="12.5735743"><ele>38.0</ele><time>2026-04-04T15:46:42.057Z</time></trkpt><trkpt lat="45.9686425" lon="12.573454"><ele>38.0</ele><time>2026-04-04T15:46:43.056Z</time></trkpt><trkpt lat="45.9685649" lon="12.573321"><ele>38.0</ele><time>2026-04-04T15:46:44.057Z</time></trkpt><trkpt lat="45.968479" lon="12.5731761"><ele>38.0</ele><time>2026-04-04T15:46:45.057Z</time></trkpt><trkpt lat="45.968387" lon="12.5730215"><ele>38.0</ele><time>2026-04-04T15:46:46.057Z</time></trkpt><trkpt lat="45.968293" lon="12.5728605"><ele>37.666666666666664</ele><time>2026-04-04T15:46:47.056Z</time></trkpt><trkpt lat="45.9681884" lon="12.572682"><ele>37.333333333333336</ele><time>2026-04-04T15:46:48.057Z</time></trkpt><trkpt lat="45.9680916" lon="12.5725184"><ele>37.0</ele><time>2026-04-04T15:46:49.056Z</time></trkpt><trkpt lat="45.9679833" lon="12.5723406"><ele>37.0</ele><time>2026-04-04T15:46:50.057Z</time></trkpt><trkpt lat="45.9678592" lon="12.5721494"><ele>37.0</ele><time>2026-04-04T15:46:51.057Z</time></trkpt><trkpt lat="45.9677443" lon="12.5719842"><ele>37.0</ele><time>2026-04-04T15:46:52.056Z</time></trkpt><trkpt lat="45.967622" lon="12.5718186"><ele>36.75</ele><time>2026-04-04T15:46:53.057Z</time></trkpt><trkpt lat="45.9675035" lon="12.5716653"><ele>36.5</ele><time>2026-04-04T15:46:54.056Z</time></trkpt><trkpt lat="45.9673939" lon="12.5715234"><ele>36.25</ele><time>2026-04-04T15:46:55.057Z</time></trkpt><trkpt lat="45.9672909" lon="12.5713887"><ele>36.0</ele><time>2026-04-04T15:46:56.056Z</time></trkpt><trkpt lat="45.9672114" lon="12.5712843"><ele>36.0</ele><time>2026-04-04T15:46:57.056Z</time></trkpt><trkpt lat="45.9671347" lon="12.5711889"><ele>36.0</ele><time>2026-04-04T15:46:58.057Z</time></trkpt><trkpt lat="45.9670623" lon="12.5711239"><ele>36.0</ele><time>2026-04-04T15:46:59.056Z</time></trkpt><trkpt lat="45.9669882" lon="12.5711062"><ele>36.0</ele><time>2026-04-04T15:47:00.056Z</time></trkpt><trkpt lat="45.9669147" lon="12.5711435"><ele>36.0</ele><time>2026-04-04T15:47:01.057Z</time></trkpt><trkpt lat="45.9668525" lon="12.5712286"><ele>36.0</ele><time>2026-04-04T15:47:02.057Z</time></trkpt><trkpt lat="45.9667981" lon="12.5713451"><ele>36.0</ele><time>2026-04-04T15:47:03.057Z</time></trkpt><trkpt lat="45.9667359" lon="12.5714889"><ele>36.0</ele><time>2026-04-04T15:47:04.056Z</time></trkpt><trkpt lat="45.9666756" lon="12.5716283"><ele>36.0</ele><time>2026-04-04T15:47:05.056Z</time></trkpt><trkpt lat="45.9666063" lon="12.5717851"><ele>36.0</ele><time>2026-04-04T15:47:06.057Z</time></trkpt><trkpt lat="45.9665237" lon="12.5719537"><ele>35.5</ele><time>2026-04-04T15:47:07.056Z</time></trkpt><trkpt lat="45.9664432" lon="12.5720936"><ele>35.0</ele><time>2026-04-04T15:47:08.057Z</time></trkpt><trkpt lat="45.9663426" lon="12.5722357"><ele>34.5</ele><time>2026-04-04T15:47:09.057Z</time></trkpt><trkpt lat="45.9662258" lon="12.5723653"><ele>34.0</ele><time>2026-04-04T15:47:10.056Z</time></trkpt><trkpt lat="45.9661012" lon="12.5724906"><ele>34.0</ele><time>2026-04-04T15:47:11.056Z</time></trkpt><trkpt lat="45.9659759" lon="12.5726167"><ele>34.0</ele><time>2026-04-04T15:47:12.056Z</time></trkpt><trkpt lat="45.9658806" lon="12.5727089"><ele>34.0</ele><time>2026-04-04T15:47:13.056Z</time></trkpt><trkpt lat="45.9657925" lon="12.5727942"><ele>34.0</ele><time>2026-04-04T15:47:14.057Z</time></trkpt><trkpt lat="45.965716" lon="12.5728676"><ele>34.0</ele><time>2026-04-04T15:47:15.056Z</time></trkpt><trkpt lat="45.9656456" lon="12.5729256"><ele>34.0</ele><time>2026-04-04T15:47:16.057Z</time></trkpt><trkpt lat="45.9655829" lon="12.5729574"><ele>34.0</ele><time>2026-04-04T15:47:17.056Z</time></trkpt><trkpt lat="45.9654776" lon="12.5729375"><ele>34.0</ele><time>2026-04-04T15:47:19.056Z</time></trkpt><trkpt lat="45.9654278" lon="12.5728746"><ele>34.0</ele><time>2026-04-04T15:47:20.056Z</time></trkpt><trkpt lat="45.9653952" lon="12.5727857"><ele>34.0</ele><time>2026-04-04T15:47:21.056Z</time></trkpt><trkpt lat="45.9653717" lon="12.5726585"><ele>34.0</ele><time>2026-04-04T15:47:22.057Z</time></trkpt><trkpt lat="45.9653588" lon="12.5724927"><ele>34.0</ele><time>2026-04-04T15:47:23.057Z</time></trkpt><trkpt lat="45.9653547" lon="12.5723246"><ele>34.0</ele><time>2026-04-04T15:47:24.057Z</time></trkpt><trkpt lat="45.9653596" lon="12.5721244"><ele>34.0</ele><time>2026-04-04T15:47:25.057Z</time></trkpt><trkpt lat="45.9653718" lon="12.5719069"><ele>34.0</ele><time>2026-04-04T15:47:26.057Z</time></trkpt><trkpt lat="45.9653855" lon="12.5716776"><ele>34.0</ele><time>2026-04-04T15:47:27.056Z</time></trkpt><trkpt lat="45.9653951" lon="12.5714258"><ele>34.0</ele><time>2026-04-04T15:47:28.056Z</time></trkpt><trkpt lat="45.9653876" lon="12.5712048"><ele>34.0</ele><time>2026-04-04T15:47:29.056Z</time></trkpt><trkpt lat="45.9653563" lon="12.5709721"><ele>34.0</ele><time>2026-04-04T15:47:30.057Z</time></trkpt><trkpt lat="45.9652993" lon="12.5707492"><ele>34.0</ele><time>2026-04-04T15:47:31.057Z</time></trkpt><trkpt lat="45.9652185" lon="12.5705319"><ele>34.0</ele><time>2026-04-04T15:47:32.056Z</time></trkpt><trkpt lat="45.9651198" lon="12.5703201"><ele>34.0</ele><time>2026-04-04T15:47:33.057Z</time></trkpt><trkpt lat="45.9650064" lon="12.5700981"><ele>34.0</ele><time>2026-04-04T15:47:34.056Z</time></trkpt><trkpt lat="45.9648864" lon="12.5698578"><ele>33.5</ele><time>2026-04-04T15:47:35.056Z</time></trkpt><trkpt lat="45.9647503" lon="12.5695794"><ele>33.0</ele><time>2026-04-04T15:47:36.056Z</time></trkpt><trkpt lat="45.9646233" lon="12.5693193"><ele>33.0</ele><time>2026-04-04T15:47:37.056Z</time></trkpt><trkpt lat="45.9644849" lon="12.5690364"><ele>33.0</ele><time>2026-04-04T15:47:38.057Z</time></trkpt><trkpt lat="45.9643377" lon="12.5687382"><ele>33.0</ele><time>2026-04-04T15:47:39.057Z</time></trkpt><trkpt lat="45.9642103" lon="12.5684806"><ele>33.0</ele><time>2026-04-04T15:47:40.057Z</time></trkpt><trkpt lat="45.9640801" lon="12.5682155"><ele>33.0</ele><time>2026-04-04T15:47:41.057Z</time></trkpt><trkpt lat="45.9639543" lon="12.5679592"><ele>34.0</ele><time>2026-04-04T15:47:42.056Z</time></trkpt><trkpt lat="45.9638258" lon="12.5677112"><ele>35.0</ele><time>2026-04-04T15:47:43.056Z</time></trkpt><trkpt lat="45.9636801" lon="12.5674662"><ele>36.0</ele><time>2026-04-04T15:47:44.056Z</time></trkpt><trkpt lat="45.9635367" lon="12.5672737"><ele>35.333333333333336</ele><time>2026-04-04T15:47:45.057Z</time></trkpt><trkpt lat="45.9633629" lon="12.5670889"><ele>34.66666666666667</ele><time>2026-04-04T15:47:46.056Z</time></trkpt><trkpt lat="45.9631729" lon="12.5669225"><ele>34.0</ele><time>2026-04-04T15:47:47.056Z</time></trkpt><trkpt lat="45.9629689" lon="12.5667625"><ele>34.0</ele><time>2026-04-04T15:47:48.057Z</time></trkpt><trkpt lat="45.9627611" lon="12.5666039"><ele>34.0</ele><time>2026-04-04T15:47:49.057Z</time></trkpt><trkpt lat="45.9625544" lon="12.5664422"><ele>33.5</ele><time>2026-04-04T15:47:50.056Z</time></trkpt><trkpt lat="45.9623466" lon="12.5662773"><ele>33.0</ele><time>2026-04-04T15:47:51.057Z</time></trkpt><trkpt lat="45.9621234" lon="12.5661001"><ele>32.5</ele><time>2026-04-04T15:47:52.056Z</time></trkpt><trkpt lat="45.9619231" lon="12.5659428"><ele>32.0</ele><time>2026-04-04T15:47:53.056Z</time></trkpt><trkpt lat="45.9617059" lon="12.5657704"><ele>31.5</ele><time>2026-04-04T15:47:54.056Z</time></trkpt><trkpt lat="45.961472" lon="12.5655814"><ele>31.0</ele><time>2026-04-04T15:47:55.056Z</time></trkpt><trkpt lat="45.9612611" lon="12.5654106"><ele>30.5</ele><time>2026-04-04T15:47:56.056Z</time></trkpt><trkpt lat="45.9610361" lon="12.5652305"><ele>30.0</ele><time>2026-04-04T15:47:57.057Z</time></trkpt><trkpt lat="45.9608094" lon="12.565052"><ele>30.0</ele><time>2026-04-04T15:47:58.056Z</time></trkpt><trkpt lat="45.960581" lon="12.5648766"><ele>30.0</ele><time>2026-04-04T15:47:59.056Z</time></trkpt><trkpt lat="45.960337" lon="12.5646983"><ele>30.0</ele><time>2026-04-04T15:48:00.056Z</time></trkpt><trkpt lat="45.9601236" lon="12.5645499"><ele>30.0</ele><time>2026-04-04T15:48:01.056Z</time></trkpt><trkpt lat="45.9598972" lon="12.5643925"><ele>29.5</ele><time>2026-04-04T15:48:02.056Z</time></trkpt><trkpt lat="45.9596711" lon="12.5642326"><ele>29.0</ele><time>2026-04-04T15:48:03.056Z</time></trkpt><trkpt lat="45.9594421" lon="12.5640698"><ele>29.0</ele><time>2026-04-04T15:48:04.056Z</time></trkpt><trkpt lat="45.9592131" lon="12.5639071"><ele>29.0</ele><time>2026-04-04T15:48:05.056Z</time></trkpt><trkpt lat="45.9589818" lon="12.5637451"><ele>29.5</ele><time>2026-04-04T15:48:06.056Z</time></trkpt><trkpt lat="45.9587439" lon="12.5635891"><ele>30.0</ele><time>2026-04-04T15:48:07.057Z</time></trkpt><trkpt lat="45.958481" lon="12.5634379"><ele>30.5</ele><time>2026-04-04T15:48:08.056Z</time></trkpt><trkpt lat="45.9582429" lon="12.5633162"><ele>31.0</ele><time>2026-04-04T15:48:09.056Z</time></trkpt><trkpt lat="45.9579834" lon="12.563193"><ele>31.0</ele><time>2026-04-04T15:48:10.057Z</time></trkpt><trkpt lat="45.9577068" lon="12.5630658"><ele>31.0</ele><time>2026-04-04T15:48:11.057Z</time></trkpt><trkpt lat="45.9574634" lon="12.5629527"><ele>31.0</ele><time>2026-04-04T15:48:12.057Z</time></trkpt><trkpt lat="45.9571992" lon="12.5628286"><ele>31.0</ele><time>2026-04-04T15:48:13.057Z</time></trkpt><trkpt lat="45.9569434" lon="12.5627061"><ele>30.0</ele><time>2026-04-04T15:48:14.056Z</time></trkpt><trkpt lat="45.9566871" lon="12.5625835"><ele>29.0</ele><time>2026-04-04T15:48:15.056Z</time></trkpt><trkpt lat="45.9564144" lon="12.5624543"><ele>29.0</ele><time>2026-04-04T15:48:16.056Z</time></trkpt><trkpt lat="45.9561751" lon="12.5623398"><ele>29.0</ele><time>2026-04-04T15:48:17.057Z</time></trkpt><trkpt lat="45.9559199" lon="12.5622184"><ele>28.5</ele><time>2026-04-04T15:48:18.057Z</time></trkpt><trkpt lat="45.9556656" lon="12.5620991"><ele>28.0</ele><time>2026-04-04T15:48:19.056Z</time></trkpt><trkpt lat="45.9554099" lon="12.5619783"><ele>28.0</ele><time>2026-04-04T15:48:20.057Z</time></trkpt><trkpt lat="45.9551588" lon="12.5618582"><ele>28.0</ele><time>2026-04-04T15:48:21.057Z</time></trkpt><trkpt lat="45.95491" lon="12.561738"><ele>28.5</ele><time>2026-04-04T15:48:22.056Z</time></trkpt><trkpt lat="45.9546634" lon="12.561618"><ele>29.0</ele><time>2026-04-04T15:48:23.056Z</time></trkpt><trkpt lat="45.9544012" lon="12.5614838"><ele>28.5</ele><time>2026-04-04T15:48:24.057Z</time></trkpt><trkpt lat="45.954173" lon="12.5613555"><ele>28.0</ele><time>2026-04-04T15:48:25.057Z</time></trkpt><trkpt lat="45.9539307" lon="12.5612082"><ele>28.0</ele><time>2026-04-04T15:48:26.057Z</time></trkpt><trkpt lat="45.9536743" lon="12.5610455"><ele>28.0</ele><time>2026-04-04T15:48:27.057Z</time></trkpt><trkpt lat="45.9534457" lon="12.5609007"><ele>27.5</ele><time>2026-04-04T15:48:28.057Z</time></trkpt><trkpt lat="45.9532026" lon="12.5607468"><ele>27.0</ele><time>2026-04-04T15:48:29.056Z</time></trkpt><trkpt lat="45.9529584" lon="12.5605934"><ele>27.0</ele><time>2026-04-04T15:48:30.056Z</time></trkpt><trkpt lat="45.9527128" lon="12.5604394"><ele>27.0</ele><time>2026-04-04T15:48:31.057Z</time></trkpt><trkpt lat="45.9524514" lon="12.5602749"><ele>27.0</ele><time>2026-04-04T15:48:32.056Z</time></trkpt><trkpt lat="45.952221" lon="12.5601291"><ele>27.0</ele><time>2026-04-04T15:48:33.057Z</time></trkpt><trkpt lat="45.9519751" lon="12.5599724"><ele>27.0</ele><time>2026-04-04T15:48:34.057Z</time></trkpt><trkpt lat="45.9517297" lon="12.5598161"><ele>27.0</ele><time>2026-04-04T15:48:35.057Z</time></trkpt><trkpt lat="45.9514817" lon="12.5596587"><ele>27.5</ele><time>2026-04-04T15:48:36.057Z</time></trkpt><trkpt lat="45.9512312" lon="12.559499"><ele>28.0</ele><time>2026-04-04T15:48:37.056Z</time></trkpt><trkpt lat="45.950996" lon="12.5593484"><ele>27.5</ele><time>2026-04-04T15:48:38.057Z</time></trkpt><trkpt lat="45.9507536" lon="12.5591936"><ele>27.0</ele><time>2026-04-04T15:48:39.057Z</time></trkpt><trkpt lat="45.9504976" lon="12.5590304"><ele>27.0</ele><time>2026-04-04T15:48:40.056Z</time></trkpt><trkpt lat="45.9502722" lon="12.5588868"><ele>27.0</ele><time>2026-04-04T15:48:41.056Z</time></trkpt><trkpt lat="45.9500362" lon="12.5587359"><ele>26.0</ele><time>2026-04-04T15:48:42.056Z</time></trkpt><trkpt lat="45.9497824" lon="12.5585738"><ele>25.0</ele><time>2026-04-04T15:48:43.057Z</time></trkpt><trkpt lat="45.949552" lon="12.5584265"><ele>25.0</ele><time>2026-04-04T15:48:44.057Z</time></trkpt><trkpt lat="45.9492798" lon="12.5582517"><ele>25.0</ele><time>2026-04-04T15:48:45.056Z</time></trkpt><trkpt lat="45.9490362" lon="12.5580961"><ele>25.5</ele><time>2026-04-04T15:48:46.056Z</time></trkpt><trkpt lat="45.9487754" lon="12.5579318"><ele>26.0</ele><time>2026-04-04T15:48:47.057Z</time></trkpt><trkpt lat="45.9484993" lon="12.5577607"><ele>25.0</ele><time>2026-04-04T15:48:48.056Z</time></trkpt><trkpt lat="45.948256" lon="12.5576112"><ele>24.0</ele><time>2026-04-04T15:48:49.056Z</time></trkpt><trkpt lat="45.9479983" lon="12.557454"><ele>24.0</ele><time>2026-04-04T15:48:50.056Z</time></trkpt><trkpt lat="45.9477509" lon="12.5573038"><ele>24.0</ele><time>2026-04-04T15:48:51.057Z</time></trkpt><trkpt lat="45.9474755" lon="12.5571359"><ele>24.5</ele><time>2026-04-04T15:48:52.057Z</time></trkpt><trkpt lat="45.9472168" lon="12.5569766"><ele>25.0</ele><time>2026-04-04T15:48:53.057Z</time></trkpt><trkpt lat="45.9469604" lon="12.5568158"><ele>24.5</ele><time>2026-04-04T15:48:54.056Z</time></trkpt><trkpt lat="45.9467086" lon="12.5566501"><ele>24.0</ele><time>2026-04-04T15:48:55.057Z</time></trkpt><trkpt lat="45.9464644" lon="12.5564778"><ele>24.0</ele><time>2026-04-04T15:48:56.056Z</time></trkpt><trkpt lat="45.9462232" lon="12.5562986"><ele>24.0</ele><time>2026-04-04T15:48:57.056Z</time></trkpt><trkpt lat="45.9459873" lon="12.5561191"><ele>24.0</ele><time>2026-04-04T15:48:58.056Z</time></trkpt><trkpt lat="45.9457552" lon="12.5559388"><ele>24.0</ele><time>2026-04-04T15:48:59.056Z</time></trkpt><trkpt lat="45.945526" lon="12.5557601"><ele>24.0</ele><time>2026-04-04T15:49:00.056Z</time></trkpt><trkpt lat="45.9452992" lon="12.5555843"><ele>24.0</ele><time>2026-04-04T15:49:01.056Z</time></trkpt><trkpt lat="45.9450725" lon="12.5554114"><ele>24.0</ele><time>2026-04-04T15:49:02.056Z</time></trkpt><trkpt lat="45.9448449" lon="12.5552439"><ele>24.0</ele><time>2026-04-04T15:49:03.057Z</time></trkpt><trkpt lat="45.9446122" lon="12.5550857"><ele>24.0</ele><time>2026-04-04T15:49:04.056Z</time></trkpt><trkpt lat="45.9443704" lon="12.5549424"><ele>24.0</ele><time>2026-04-04T15:49:05.056Z</time></trkpt><trkpt lat="45.9441267" lon="12.5548168"><ele>23.5</ele><time>2026-04-04T15:49:06.056Z</time></trkpt><trkpt lat="45.9438958" lon="12.5547095"><ele>23.0</ele><time>2026-04-04T15:49:07.056Z</time></trkpt><trkpt lat="45.9436314" lon="12.5545937"><ele>23.0</ele><time>2026-04-04T15:49:08.056Z</time></trkpt><trkpt lat="45.9433804" lon="12.5544909"><ele>23.0</ele><time>2026-04-04T15:49:09.056Z</time></trkpt><trkpt lat="45.9431273" lon="12.5544005"><ele>23.0</ele><time>2026-04-04T15:49:10.057Z</time></trkpt><trkpt lat="45.9428721" lon="12.5543271"><ele>23.0</ele><time>2026-04-04T15:49:11.057Z</time></trkpt><trkpt lat="45.9426152" lon="12.5542631"><ele>22.5</ele><time>2026-04-04T15:49:12.056Z</time></trkpt><trkpt lat="45.9423547" lon="12.5541997"><ele>22.0</ele><time>2026-04-04T15:49:13.057Z</time></trkpt><trkpt lat="45.9420963" lon="12.5541367"><ele>22.0</ele><time>2026-04-04T15:49:14.056Z</time></trkpt><trkpt lat="45.9418384" lon="12.5540733"><ele>22.0</ele><time>2026-04-04T15:49:15.056Z</time></trkpt><trkpt lat="45.9415825" lon="12.5540105"><ele>22.0</ele><time>2026-04-04T15:49:16.057Z</time></trkpt><trkpt lat="45.9413299" lon="12.5539491"><ele>22.0</ele><time>2026-04-04T15:49:17.056Z</time></trkpt><trkpt lat="45.9410898" lon="12.5538918"><ele>22.5</ele><time>2026-04-04T15:49:18.056Z</time></trkpt><trkpt lat="45.9408435" lon="12.5538316"><ele>23.0</ele><time>2026-04-04T15:49:19.057Z</time></trkpt><trkpt lat="45.9405833" lon="12.5537663"><ele>23.0</ele><time>2026-04-04T15:49:20.056Z</time></trkpt><trkpt lat="45.9403565" lon="12.5537089"><ele>23.0</ele><time>2026-04-04T15:49:21.057Z</time></trkpt><trkpt lat="45.9400979" lon="12.5536425"><ele>23.5</ele><time>2026-04-04T15:49:22.056Z</time></trkpt><trkpt lat="45.939869" lon="12.5535798"><ele>24.0</ele><time>2026-04-04T15:49:23.056Z</time></trkpt><trkpt lat="45.9396082" lon="12.553505"><ele>24.0</ele><time>2026-04-04T15:49:24.056Z</time></trkpt><trkpt lat="45.9393612" lon="12.5534244"><ele>24.0</ele><time>2026-04-04T15:49:25.056Z</time></trkpt><trkpt lat="45.9391418" lon="12.5533441"><ele>24.5</ele><time>2026-04-04T15:49:26.057Z</time></trkpt><trkpt lat="45.9388776" lon="12.5532346"><ele>25.0</ele><time>2026-04-04T15:49:27.056Z</time></trkpt><trkpt lat="45.9386328" lon="12.5531295"><ele>25.0</ele><time>2026-04-04T15:49:28.057Z</time></trkpt><trkpt lat="45.938403" lon="12.5530292"><ele>25.0</ele><time>2026-04-04T15:49:29.057Z</time></trkpt><trkpt lat="45.9381416" lon="12.5529143"><ele>24.0</ele><time>2026-04-04T15:49:30.056Z</time></trkpt><trkpt lat="45.9378952" lon="12.552804"><ele>23.0</ele><time>2026-04-04T15:49:31.057Z</time></trkpt><trkpt lat="45.9376463" lon="12.5526919"><ele>22.5</ele><time>2026-04-04T15:49:32.056Z</time></trkpt><trkpt lat="45.937392" lon="12.5525792"><ele>22.0</ele><time>2026-04-04T15:49:33.056Z</time></trkpt><trkpt lat="45.937154" lon="12.5524747"><ele>22.0</ele><time>2026-04-04T15:49:34.056Z</time></trkpt><trkpt lat="45.9368813" lon="12.552355"><ele>22.0</ele><time>2026-04-04T15:49:35.056Z</time></trkpt><trkpt lat="45.936624" lon="12.5522424"><ele>21.0</ele><time>2026-04-04T15:49:36.056Z</time></trkpt><trkpt lat="45.9363818" lon="12.5521372"><ele>20.0</ele><time>2026-04-04T15:49:37.056Z</time></trkpt><trkpt lat="45.9361056" lon="12.552018"><ele>19.0</ele><time>2026-04-04T15:49:38.056Z</time></trkpt><trkpt lat="45.9358626" lon="12.551914"><ele>18.0</ele><time>2026-04-04T15:49:39.056Z</time></trkpt><trkpt lat="45.9355861" lon="12.5517975"><ele>18.0</ele><time>2026-04-04T15:49:40.057Z</time></trkpt><trkpt lat="45.935325" lon="12.5516879"><ele>18.0</ele><time>2026-04-04T15:49:41.056Z</time></trkpt><trkpt lat="45.9350839" lon="12.5515862"><ele>18.5</ele><time>2026-04-04T15:49:42.056Z</time></trkpt><trkpt lat="45.9348113" lon="12.5514693"><ele>19.0</ele><time>2026-04-04T15:49:43.057Z</time></trkpt><trkpt lat="45.9345565" lon="12.5513571"><ele>19.0</ele><time>2026-04-04T15:49:44.057Z</time></trkpt><trkpt lat="45.9343186" lon="12.5512516"><ele>19.0</ele><time>2026-04-04T15:49:45.056Z</time></trkpt><trkpt lat="45.9340489" lon="12.5511336"><ele>20.0</ele><time>2026-04-04T15:49:46.056Z</time></trkpt><trkpt lat="45.9337942" lon="12.5510239"><ele>21.0</ele><time>2026-04-04T15:49:47.057Z</time></trkpt><trkpt lat="45.9335404" lon="12.5509157"><ele>20.5</ele><time>2026-04-04T15:49:48.056Z</time></trkpt><trkpt lat="45.9332855" lon="12.5508102"><ele>20.0</ele><time>2026-04-04T15:49:49.056Z</time></trkpt><trkpt lat="45.9330493" lon="12.5507133"><ele>20.0</ele><time>2026-04-04T15:49:50.057Z</time></trkpt><trkpt lat="45.9327825" lon="12.5506017"><ele>20.0</ele><time>2026-04-04T15:49:51.057Z</time></trkpt><trkpt lat="45.9325333" lon="12.5504954"><ele>20.5</ele><time>2026-04-04T15:49:52.057Z</time></trkpt><trkpt lat="45.932302" lon="12.5503965"><ele>21.0</ele><time>2026-04-04T15:49:53.056Z</time></trkpt><trkpt lat="45.9320427" lon="12.5502851"><ele>20.5</ele><time>2026-04-04T15:49:54.057Z</time></trkpt><trkpt lat="45.9318176" lon="12.5501877"><ele>20.0</ele><time>2026-04-04T15:49:55.057Z</time></trkpt><trkpt lat="45.9315643" lon="12.5500789"><ele>20.0</ele><time>2026-04-04T15:49:56.056Z</time></trkpt><trkpt lat="45.9313256" lon="12.5499762"><ele>20.0</ele><time>2026-04-04T15:49:57.057Z</time></trkpt><trkpt lat="45.931106" lon="12.5498787"><ele>21.0</ele><time>2026-04-04T15:49:58.056Z</time></trkpt><trkpt lat="45.9308574" lon="12.5497669"><ele>22.0</ele><time>2026-04-04T15:49:59.057Z</time></trkpt><trkpt lat="45.9306256" lon="12.5496612"><ele>22.0</ele><time>2026-04-04T15:50:00.057Z</time></trkpt><trkpt lat="45.9304093" lon="12.5495643"><ele>22.0</ele><time>2026-04-04T15:50:01.057Z</time></trkpt><trkpt lat="45.9301674" lon="12.5494583"><ele>21.666666666666664</ele><time>2026-04-04T15:50:02.056Z</time></trkpt><trkpt lat="45.9299627" lon="12.549371"><ele>21.333333333333332</ele><time>2026-04-04T15:50:03.056Z</time></trkpt><trkpt lat="45.9297724" lon="12.54929"><ele>21.0</ele><time>2026-04-04T15:50:04.057Z</time></trkpt><trkpt lat="45.9295969" lon="12.549218"><ele>21.0</ele><time>2026-04-04T15:50:05.057Z</time></trkpt><trkpt lat="45.9294546" lon="12.5491622"><ele>21.0</ele><time>2026-04-04T15:50:06.057Z</time></trkpt><trkpt lat="45.9293056" lon="12.5491149"><ele>21.0</ele><time>2026-04-04T15:50:07.056Z</time></trkpt><trkpt lat="45.9291757" lon="12.5490972"><ele>21.0</ele><time>2026-04-04T15:50:08.057Z</time></trkpt><trkpt lat="45.9290619" lon="12.5491033"><ele>20.833333333333332</ele><time>2026-04-04T15:50:09.056Z</time></trkpt><trkpt lat="45.9289436" lon="12.5491276"><ele>20.666666666666668</ele><time>2026-04-04T15:50:10.057Z</time></trkpt><trkpt lat="45.9288542" lon="12.5491449"><ele>20.5</ele><time>2026-04-04T15:50:11.056Z</time></trkpt><trkpt lat="45.9287671" lon="12.5491418"><ele>20.333333333333336</ele><time>2026-04-04T15:50:12.056Z</time></trkpt><trkpt lat="45.9286945" lon="12.5491056"><ele>20.166666666666668</ele><time>2026-04-04T15:50:13.056Z</time></trkpt><trkpt lat="45.9286366" lon="12.5490354"><ele>20.0</ele><time>2026-04-04T15:50:14.056Z</time></trkpt><trkpt lat="45.9285897" lon="12.5489231"><ele>20.0</ele><time>2026-04-04T15:50:15.057Z</time></trkpt><trkpt lat="45.9285546" lon="12.5488023"><ele>20.0</ele><time>2026-04-04T15:50:16.057Z</time></trkpt><trkpt lat="45.928509" lon="12.5486918"><ele>20.0</ele><time>2026-04-04T15:50:17.057Z</time></trkpt><trkpt lat="45.9284341" lon="12.5485912"><ele>20.0</ele><time>2026-04-04T15:50:18.056Z</time></trkpt><trkpt lat="45.9283483" lon="12.5485386"><ele>20.0</ele><time>2026-04-04T15:50:19.056Z</time></trkpt><trkpt lat="45.9282639" lon="12.5485277"><ele>20.0</ele><time>2026-04-04T15:50:20.057Z</time></trkpt><trkpt lat="45.928173" lon="12.5485472"><ele>20.0</ele><time>2026-04-04T15:50:21.056Z</time></trkpt><trkpt lat="45.9280955" lon="12.5485637"><ele>20.0</ele><time>2026-04-04T15:50:22.057Z</time></trkpt><trkpt lat="45.9280106" lon="12.5485421"><ele>20.0</ele><time>2026-04-04T15:50:23.057Z</time></trkpt><trkpt lat="45.9279347" lon="12.5484752"><ele>20.0</ele><time>2026-04-04T15:50:24.056Z</time></trkpt><trkpt lat="45.9278641" lon="12.5483809"><ele>20.0</ele><time>2026-04-04T15:50:25.056Z</time></trkpt><trkpt lat="45.9277703" lon="12.5482591"><ele>20.0</ele><time>2026-04-04T15:50:26.057Z</time></trkpt><trkpt lat="45.9276696" lon="12.5481501"><ele>20.0</ele><time>2026-04-04T15:50:27.057Z</time></trkpt><trkpt lat="45.9275452" lon="12.5480245"><ele>20.0</ele><time>2026-04-04T15:50:28.056Z</time></trkpt><trkpt lat="45.9274021" lon="12.5478794"><ele>19.666666666666668</ele><time>2026-04-04T15:50:29.057Z</time></trkpt><trkpt lat="45.9272669" lon="12.547742"><ele>19.333333333333332</ele><time>2026-04-04T15:50:30.056Z</time></trkpt><trkpt lat="45.9271057" lon="12.547577"><ele>19.0</ele><time>2026-04-04T15:50:31.057Z</time></trkpt><trkpt lat="45.9269505" lon="12.5474088"><ele>19.0</ele><time>2026-04-04T15:50:32.056Z</time></trkpt><trkpt lat="45.9268053" lon="12.5472381"><ele>19.0</ele><time>2026-04-04T15:50:33.057Z</time></trkpt><trkpt lat="45.9266373" lon="12.5470352"><ele>19.0</ele><time>2026-04-04T15:50:34.057Z</time></trkpt><trkpt lat="45.9264761" lon="12.5468424"><ele>19.333333333333332</ele><time>2026-04-04T15:50:35.057Z</time></trkpt><trkpt lat="45.926312" lon="12.5466466"><ele>19.666666666666668</ele><time>2026-04-04T15:50:36.057Z</time></trkpt><trkpt lat="45.9261452" lon="12.5464483"><ele>20.0</ele><time>2026-04-04T15:50:37.056Z</time></trkpt><trkpt lat="45.9259872" lon="12.5462638"><ele>20.0</ele><time>2026-04-04T15:50:38.056Z</time></trkpt><trkpt lat="45.9258033" lon="12.5460588"><ele>20.0</ele><time>2026-04-04T15:50:39.056Z</time></trkpt><trkpt lat="45.9256271" lon="12.5458713"><ele>20.0</ele><time>2026-04-04T15:50:40.056Z</time></trkpt><trkpt lat="45.9254608" lon="12.545698"><ele>20.0</ele><time>2026-04-04T15:50:41.056Z</time></trkpt><trkpt lat="45.9252703" lon="12.5455035"><ele>20.0</ele><time>2026-04-04T15:50:42.057Z</time></trkpt><trkpt lat="45.9251058" lon="12.5453367"><ele>19.666666666666668</ele><time>2026-04-04T15:50:43.056Z</time></trkpt><trkpt lat="45.9249207" lon="12.5451495"><ele>19.333333333333332</ele><time>2026-04-04T15:50:44.056Z</time></trkpt><trkpt lat="45.9247484" lon="12.5449771"><ele>19.0</ele><time>2026-04-04T15:50:45.057Z</time></trkpt><trkpt lat="45.9245855" lon="12.5448191"><ele>19.0</ele><time>2026-04-04T15:50:46.057Z</time></trkpt><trkpt lat="45.9243998" lon="12.5446485"><ele>19.0</ele><time>2026-04-04T15:50:47.056Z</time></trkpt><trkpt lat="45.9242225" lon="12.5444931"><ele>19.0</ele><time>2026-04-04T15:50:48.057Z</time></trkpt><trkpt lat="45.9240553" lon="12.5443491"><ele>19.333333333333332</ele><time>2026-04-04T15:50:49.056Z</time></trkpt><trkpt lat="45.9238627" lon="12.5441841"><ele>19.666666666666668</ele><time>2026-04-04T15:50:50.057Z</time></trkpt><trkpt lat="45.9236813" lon="12.5440297"><ele>20.0</ele><time>2026-04-04T15:50:51.057Z</time></trkpt><trkpt lat="45.9234995" lon="12.5438767"><ele>20.0</ele><time>2026-04-04T15:50:52.057Z</time></trkpt><trkpt lat="45.9233157" lon="12.5437226"><ele>20.0</ele><time>2026-04-04T15:50:53.057Z</time></trkpt><trkpt lat="45.9231439" lon="12.5435839"><ele>20.0</ele><time>2026-04-04T15:50:54.056Z</time></trkpt><trkpt lat="45.9229435" lon="12.5434399"><ele>19.666666666666668</ele><time>2026-04-04T15:50:55.057Z</time></trkpt><trkpt lat="45.9227501" lon="12.5433172"><ele>19.333333333333332</ele><time>2026-04-04T15:50:56.057Z</time></trkpt><trkpt lat="45.9225671" lon="12.5432095"><ele>19.0</ele><time>2026-04-04T15:50:57.057Z</time></trkpt><trkpt lat="45.9223599" lon="12.5430878"><ele>19.0</ele><time>2026-04-04T15:50:58.057Z</time></trkpt><trkpt lat="45.9221802" lon="12.542975"><ele>19.0</ele><time>2026-04-04T15:50:59.057Z</time></trkpt><trkpt lat="45.9219778" lon="12.5428458"><ele>19.0</ele><time>2026-04-04T15:51:00.056Z</time></trkpt><trkpt lat="45.9217898" lon="12.542728"><ele>19.0</ele><time>2026-04-04T15:51:01.056Z</time></trkpt><trkpt lat="45.921614" lon="12.542621"><ele>19.0</ele><time>2026-04-04T15:51:02.057Z</time></trkpt><trkpt lat="45.9214166" lon="12.5425021"><ele>19.0</ele><time>2026-04-04T15:51:03.056Z</time></trkpt><trkpt lat="45.921231" lon="12.54239"><ele>19.0</ele><time>2026-04-04T15:51:04.057Z</time></trkpt><trkpt lat="45.9210562" lon="12.5422827"><ele>19.0</ele><time>2026-04-04T15:51:05.057Z</time></trkpt><trkpt lat="45.920856" lon="12.5421507"><ele>19.0</ele><time>2026-04-04T15:51:06.057Z</time></trkpt><trkpt lat="45.9206655" lon="12.5420145"><ele>18.666666666666664</ele><time>2026-04-04T15:51:07.057Z</time></trkpt><trkpt lat="45.9204746" lon="12.5418684"><ele>18.333333333333332</ele><time>2026-04-04T15:51:08.056Z</time></trkpt><trkpt lat="45.9202825" lon="12.5417176"><ele>18.0</ele><time>2026-04-04T15:51:09.057Z</time></trkpt><trkpt lat="45.9200999" lon="12.541574"><ele>18.0</ele><time>2026-04-04T15:51:10.056Z</time></trkpt><trkpt lat="45.9198945" lon="12.5414137"><ele>18.0</ele><time>2026-04-04T15:51:11.056Z</time></trkpt><trkpt lat="45.919708" lon="12.5412689"><ele>18.0</ele><time>2026-04-04T15:51:12.057Z</time></trkpt><trkpt lat="45.9195394" lon="12.5411391"><ele>18.0</ele><time>2026-04-04T15:51:13.057Z</time></trkpt><trkpt lat="45.9193527" lon="12.5409911"><ele>18.0</ele><time>2026-04-04T15:51:14.056Z</time></trkpt><trkpt lat="45.9191896" lon="12.5408634"><ele>18.0</ele><time>2026-04-04T15:51:15.056Z</time></trkpt><trkpt lat="45.9189994" lon="12.5407305"><ele>18.333333333333332</ele><time>2026-04-04T15:51:16.056Z</time></trkpt><trkpt lat="45.9188131" lon="12.5406195"><ele>18.666666666666664</ele><time>2026-04-04T15:51:17.057Z</time></trkpt><trkpt lat="45.9186367" lon="12.5405207"><ele>19.0</ele><time>2026-04-04T15:51:18.056Z</time></trkpt><trkpt lat="45.9184339" lon="12.5404069"><ele>18.666666666666664</ele><time>2026-04-04T15:51:19.056Z</time></trkpt><trkpt lat="45.9182417" lon="12.5402967"><ele>18.333333333333332</ele><time>2026-04-04T15:51:20.057Z</time></trkpt><trkpt lat="45.9180618" lon="12.5401894"><ele>18.0</ele><time>2026-04-04T15:51:21.057Z</time></trkpt><trkpt lat="45.9178595" lon="12.5400577"><ele>18.0</ele><time>2026-04-04T15:51:22.057Z</time></trkpt><trkpt lat="45.9176735" lon="12.5399234"><ele>18.0</ele><time>2026-04-04T15:51:23.057Z</time></trkpt><trkpt lat="45.9174969" lon="12.5397847"><ele>18.0</ele><time>2026-04-04T15:51:24.057Z</time></trkpt><trkpt lat="45.917332" lon="12.5396502"><ele>17.75</ele><time>2026-04-04T15:51:25.056Z</time></trkpt><trkpt lat="45.9171925" lon="12.5395336"><ele>17.5</ele><time>2026-04-04T15:51:26.057Z</time></trkpt><trkpt lat="45.917056" lon="12.5394182"><ele>17.25</ele><time>2026-04-04T15:51:27.056Z</time></trkpt><trkpt lat="45.9169423" lon="12.5393357"><ele>17.0</ele><time>2026-04-04T15:51:28.056Z</time></trkpt><trkpt lat="45.9168427" lon="12.5392925"><ele>17.2</ele><time>2026-04-04T15:51:29.056Z</time></trkpt><trkpt lat="45.9167305" lon="12.5392839"><ele>17.4</ele><time>2026-04-04T15:51:30.057Z</time></trkpt><trkpt lat="45.9166344" lon="12.5393143"><ele>17.6</ele><time>2026-04-04T15:51:31.056Z</time></trkpt><trkpt lat="45.9165372" lon="12.5393874"><ele>17.8</ele><time>2026-04-04T15:51:32.057Z</time></trkpt><trkpt lat="45.9164437" lon="12.5395078"><ele>18.0</ele><time>2026-04-04T15:51:33.057Z</time></trkpt><trkpt lat="45.9163655" lon="12.539638"><ele>18.5</ele><time>2026-04-04T15:51:34.056Z</time></trkpt><trkpt lat="45.9162807" lon="12.5398011"><ele>19.0</ele><time>2026-04-04T15:51:35.056Z</time></trkpt><trkpt lat="45.9162013" lon="12.5399596"><ele>19.5</ele><time>2026-04-04T15:51:36.056Z</time></trkpt><trkpt lat="45.9161258" lon="12.5401064"><ele>20.0</ele><time>2026-04-04T15:51:37.056Z</time></trkpt><trkpt lat="45.9160352" lon="12.5402715"><ele>19.75</ele><time>2026-04-04T15:51:38.056Z</time></trkpt><trkpt lat="45.9159416" lon="12.540418"><ele>19.5</ele><time>2026-04-04T15:51:39.056Z</time></trkpt><trkpt lat="45.9158385" lon="12.5405567"><ele>19.25</ele><time>2026-04-04T15:51:40.056Z</time></trkpt><trkpt lat="45.9157285" lon="12.5406902"><ele>19.0</ele><time>2026-04-04T15:51:41.056Z</time></trkpt><trkpt lat="45.9156208" lon="12.5408132"><ele>18.75</ele><time>2026-04-04T15:51:42.057Z</time></trkpt><trkpt lat="45.9155047" lon="12.5409448"><ele>18.5</ele><time>2026-04-04T15:51:43.057Z</time></trkpt><trkpt lat="45.9153989" lon="12.5410639"><ele>18.25</ele><time>2026-04-04T15:51:44.056Z</time></trkpt><trkpt lat="45.9153028" lon="12.5411687"><ele>18.0</ele><time>2026-04-04T15:51:45.056Z</time></trkpt><trkpt lat="45.9151926" lon="12.5412848"><ele>18.0</ele><time>2026-04-04T15:51:46.056Z</time></trkpt><trkpt lat="45.9150948" lon="12.5413815"><ele>18.0</ele><time>2026-04-04T15:51:47.056Z</time></trkpt><trkpt lat="45.9149913" lon="12.5414768"><ele>18.0</ele><time>2026-04-04T15:51:48.057Z</time></trkpt><trkpt lat="45.9148847" lon="12.5415709"><ele>18.0</ele><time>2026-04-04T15:51:49.057Z</time></trkpt><trkpt lat="45.9147964" lon="12.5416495"><ele>18.2</ele><time>2026-04-04T15:51:50.057Z</time></trkpt><trkpt lat="45.9147034" lon="12.5417309"><ele>18.4</ele><time>2026-04-04T15:51:51.057Z</time></trkpt><trkpt lat="45.9146234" lon="12.5418"><ele>18.599999999999998</ele><time>2026-04-04T15:51:52.057Z</time></trkpt><trkpt lat="45.9144933" lon="12.5419119"><ele>18.8</ele><time>2026-04-04T15:51:54.056Z</time></trkpt><trkpt lat="45.9144243" lon="12.5419687"><ele>19.0</ele><time>2026-04-04T15:51:56.056Z</time></trkpt><trkpt lat="45.9143667" lon="12.5420073"><ele>19.0</ele><time>2026-04-04T15:51:59.057Z</time></trkpt><trkpt lat="45.9142787" lon="12.541965"><ele>19.0</ele><time>2026-04-04T15:52:02.057Z</time></trkpt><trkpt lat="45.9142042" lon="12.5418479"><ele>19.0</ele><time>2026-04-04T15:52:04.057Z</time></trkpt><trkpt lat="45.9141488" lon="12.5417596"><ele>19.0</ele><time>2026-04-04T15:52:05.057Z</time></trkpt><trkpt lat="45.914096" lon="12.5416722"><ele>19.0</ele><time>2026-04-04T15:52:06.057Z</time></trkpt><trkpt lat="45.9140408" lon="12.5415721"><ele>19.0</ele><time>2026-04-04T15:52:07.056Z</time></trkpt><trkpt lat="45.9139956" lon="12.5414823"><ele>19.0</ele><time>2026-04-04T15:52:08.057Z</time></trkpt><trkpt lat="45.9139521" lon="12.5413941"><ele>19.0</ele><time>2026-04-04T15:52:09.057Z</time></trkpt><trkpt lat="45.9138982" lon="12.5412866"><ele>19.0</ele><time>2026-04-04T15:52:10.056Z</time></trkpt><trkpt lat="45.9138413" lon="12.541178"><ele>19.0</ele><time>2026-04-04T15:52:11.056Z</time></trkpt><trkpt lat="45.9137839" lon="12.5410687"><ele>19.0</ele><time>2026-04-04T15:52:12.056Z</time></trkpt><trkpt lat="45.9137166" lon="12.5409377"><ele>18.75</ele><time>2026-04-04T15:52:13.056Z</time></trkpt><trkpt lat="45.913652" lon="12.5408144"><ele>18.5</ele><time>2026-04-04T15:52:14.057Z</time></trkpt><trkpt lat="45.9135656" lon="12.5406549"><ele>18.25</ele><time>2026-04-04T15:52:15.056Z</time></trkpt><trkpt lat="45.9134742" lon="12.5404829"><ele>18.0</ele><time>2026-04-04T15:52:16.057Z</time></trkpt><trkpt lat="45.9133846" lon="12.5403039"><ele>18.0</ele><time>2026-04-04T15:52:17.056Z</time></trkpt><trkpt lat="45.9132819" lon="12.5400837"><ele>18.0</ele><time>2026-04-04T15:52:18.056Z</time></trkpt><trkpt lat="45.9131911" lon="12.5398818"><ele>18.0</ele><time>2026-04-04T15:52:19.057Z</time></trkpt><trkpt lat="45.9130906" lon="12.5396604"><ele>17.666666666666668</ele><time>2026-04-04T15:52:20.057Z</time></trkpt><trkpt lat="45.9129797" lon="12.5394245"><ele>17.333333333333336</ele><time>2026-04-04T15:52:21.056Z</time></trkpt><trkpt lat="45.9128804" lon="12.5392186"><ele>17.0</ele><time>2026-04-04T15:52:22.057Z</time></trkpt><trkpt lat="45.9127664" lon="12.5389851"><ele>17.0</ele><time>2026-04-04T15:52:23.056Z</time></trkpt><trkpt lat="45.9126613" lon="12.5387708"><ele>17.0</ele><time>2026-04-04T15:52:24.057Z</time></trkpt><trkpt lat="45.9125657" lon="12.5385733"><ele>17.0</ele><time>2026-04-04T15:52:25.056Z</time></trkpt><trkpt lat="45.9124608" lon="12.5383527"><ele>17.0</ele><time>2026-04-04T15:52:26.057Z</time></trkpt><trkpt lat="45.9123625" lon="12.5381507"><ele>17.0</ele><time>2026-04-04T15:52:27.056Z</time></trkpt><trkpt lat="45.9122705" lon="12.537963"><ele>17.0</ele><time>2026-04-04T15:52:28.057Z</time></trkpt><trkpt lat="45.912174" lon="12.5377444"><ele>17.0</ele><time>2026-04-04T15:52:29.056Z</time></trkpt><trkpt lat="45.9121007" lon="12.5375412"><ele>17.0</ele><time>2026-04-04T15:52:30.056Z</time></trkpt><trkpt lat="45.9120326" lon="12.537301"><ele>17.0</ele><time>2026-04-04T15:52:31.056Z</time></trkpt><trkpt lat="45.9119831" lon="12.5370661"><ele>17.333333333333336</ele><time>2026-04-04T15:52:32.057Z</time></trkpt><trkpt lat="45.9119515" lon="12.5368407"><ele>17.666666666666668</ele><time>2026-04-04T15:52:33.056Z</time></trkpt><trkpt lat="45.9119293" lon="12.5365804"><ele>18.0</ele><time>2026-04-04T15:52:34.056Z</time></trkpt><trkpt lat="45.9119177" lon="12.5363557"><ele>18.0</ele><time>2026-04-04T15:52:35.057Z</time></trkpt><trkpt lat="45.9119076" lon="12.5361184"><ele>18.0</ele><time>2026-04-04T15:52:36.057Z</time></trkpt><trkpt lat="45.9118968" lon="12.5358751"><ele>18.0</ele><time>2026-04-04T15:52:37.056Z</time></trkpt><trkpt lat="45.9118888" lon="12.5356707"><ele>18.0</ele><time>2026-04-04T15:52:38.057Z</time></trkpt><trkpt lat="45.9118779" lon="12.5354467"><ele>18.0</ele><time>2026-04-04T15:52:39.057Z</time></trkpt><trkpt lat="45.9118664" lon="12.5352421"><ele>18.0</ele><time>2026-04-04T15:52:40.057Z</time></trkpt><trkpt lat="45.9118507" lon="12.5350492"><ele>18.0</ele><time>2026-04-04T15:52:41.057Z</time></trkpt><trkpt lat="45.9118136" lon="12.5348339"><ele>18.0</ele><time>2026-04-04T15:52:42.056Z</time></trkpt><trkpt lat="45.9117518" lon="12.5346404"><ele>18.0</ele><time>2026-04-04T15:52:43.057Z</time></trkpt><trkpt lat="45.9116716" lon="12.5344713"><ele>18.0</ele><time>2026-04-04T15:52:44.056Z</time></trkpt><trkpt lat="45.9115587" lon="12.5342962"><ele>17.0</ele><time>2026-04-04T15:52:45.057Z</time></trkpt><trkpt lat="45.9114487" lon="12.5341501"><ele>16.0</ele><time>2026-04-04T15:52:46.057Z</time></trkpt><trkpt lat="45.9113204" lon="12.5339807"><ele>15.0</ele><time>2026-04-04T15:52:47.056Z</time></trkpt><trkpt lat="45.9112012" lon="12.5338172"><ele>15.333333333333332</ele><time>2026-04-04T15:52:48.056Z</time></trkpt><trkpt lat="45.9110922" lon="12.5336568"><ele>15.666666666666666</ele><time>2026-04-04T15:52:49.056Z</time></trkpt><trkpt lat="45.9109747" lon="12.5334629"><ele>16.0</ele><time>2026-04-04T15:52:50.057Z</time></trkpt><trkpt lat="45.9108805" lon="12.5332784"><ele>16.333333333333332</ele><time>2026-04-04T15:52:51.056Z</time></trkpt><trkpt lat="45.9107869" lon="12.5330725"><ele>16.666666666666668</ele><time>2026-04-04T15:52:52.057Z</time></trkpt><trkpt lat="45.9106834" lon="12.5328554"><ele>17.0</ele><time>2026-04-04T15:52:53.056Z</time></trkpt><trkpt lat="45.9105825" lon="12.5326743"><ele>17.0</ele><time>2026-04-04T15:52:54.057Z</time></trkpt><trkpt lat="45.9104534" lon="12.5324802"><ele>17.0</ele><time>2026-04-04T15:52:55.057Z</time></trkpt><trkpt lat="45.9103235" lon="12.5323102"><ele>17.0</ele><time>2026-04-04T15:52:56.057Z</time></trkpt><trkpt lat="45.9101988" lon="12.5321525"><ele>17.666666666666668</ele><time>2026-04-04T15:52:57.057Z</time></trkpt><trkpt lat="45.9100558" lon="12.5319723"><ele>18.333333333333332</ele><time>2026-04-04T15:52:58.056Z</time></trkpt><trkpt lat="45.909921" lon="12.5318056"><ele>19.0</ele><time>2026-04-04T15:52:59.056Z</time></trkpt><trkpt lat="45.9097957" lon="12.5316512"><ele>19.0</ele><time>2026-04-04T15:53:00.056Z</time></trkpt><trkpt lat="45.9096538" lon="12.531474"><ele>19.0</ele><time>2026-04-04T15:53:01.056Z</time></trkpt><trkpt lat="45.9095287" lon="12.5313185"><ele>19.0</ele><time>2026-04-04T15:53:02.056Z</time></trkpt><trkpt lat="45.9093931" lon="12.5311509"><ele>19.0</ele><time>2026-04-04T15:53:03.056Z</time></trkpt><trkpt lat="45.909251" lon="12.5309727"><ele>19.0</ele><time>2026-04-04T15:53:04.056Z</time></trkpt><trkpt lat="45.9091261" lon="12.5308153"><ele>19.0</ele><time>2026-04-04T15:53:05.057Z</time></trkpt><trkpt lat="45.9089783" lon="12.5306459"><ele>19.0</ele><time>2026-04-04T15:53:06.056Z</time></trkpt><trkpt lat="45.9088395" lon="12.5305118"><ele>19.0</ele><time>2026-04-04T15:53:07.056Z</time></trkpt><trkpt lat="45.9086828" lon="12.5303818"><ele>19.0</ele><time>2026-04-04T15:53:08.056Z</time></trkpt><trkpt lat="45.9085127" lon="12.5302445"><ele>18.333333333333332</ele><time>2026-04-04T15:53:09.056Z</time></trkpt><trkpt lat="45.9083636" lon="12.530118"><ele>17.666666666666668</ele><time>2026-04-04T15:53:10.057Z</time></trkpt><trkpt lat="45.9081961" lon="12.5299669"><ele>17.0</ele><time>2026-04-04T15:53:11.057Z</time></trkpt><trkpt lat="45.9080388" lon="12.5298203"><ele>17.0</ele><time>2026-04-04T15:53:12.056Z</time></trkpt><trkpt lat="45.9078938" lon="12.529684"><ele>17.0</ele><time>2026-04-04T15:53:13.057Z</time></trkpt><trkpt lat="45.9077299" lon="12.5295333"><ele>17.0</ele><time>2026-04-04T15:53:14.056Z</time></trkpt><trkpt lat="45.9075786" lon="12.5293978"><ele>16.666666666666668</ele><time>2026-04-04T15:53:15.056Z</time></trkpt><trkpt lat="45.9074356" lon="12.5292767"><ele>16.333333333333332</ele><time>2026-04-04T15:53:16.057Z</time></trkpt><trkpt lat="45.9072694" lon="12.5291516"><ele>16.0</ele><time>2026-04-04T15:53:17.056Z</time></trkpt><trkpt lat="45.9071219" lon="12.5290481"><ele>16.0</ele><time>2026-04-04T15:53:18.057Z</time></trkpt><trkpt lat="45.9069573" lon="12.5289298"><ele>16.0</ele><time>2026-04-04T15:53:19.057Z</time></trkpt><trkpt lat="45.9068049" lon="12.528823"><ele>16.0</ele><time>2026-04-04T15:53:20.056Z</time></trkpt><trkpt lat="45.9066645" lon="12.5287366"><ele>16.666666666666664</ele><time>2026-04-04T15:53:21.056Z</time></trkpt><trkpt lat="45.906505" lon="12.5286578"><ele>17.333333333333332</ele><time>2026-04-04T15:53:22.056Z</time></trkpt><trkpt lat="45.9063645" lon="12.5286103"><ele>18.0</ele><time>2026-04-04T15:53:23.056Z</time></trkpt><trkpt lat="45.9062151" lon="12.5285815"><ele>18.0</ele><time>2026-04-04T15:53:24.057Z</time></trkpt><trkpt lat="45.9060578" lon="12.5285664"><ele>18.0</ele><time>2026-04-04T15:53:25.057Z</time></trkpt><trkpt lat="45.9059253" lon="12.5285514"><ele>18.0</ele><time>2026-04-04T15:53:26.056Z</time></trkpt><trkpt lat="45.9057818" lon="12.5285119"><ele>18.0</ele><time>2026-04-04T15:53:27.057Z</time></trkpt><trkpt lat="45.9056514" lon="12.5284392"><ele>17.666666666666668</ele><time>2026-04-04T15:53:28.057Z</time></trkpt><trkpt lat="45.905534" lon="12.5283399"><ele>17.333333333333336</ele><time>2026-04-04T15:53:29.056Z</time></trkpt><trkpt lat="45.9053988" lon="12.5282022"><ele>17.0</ele><time>2026-04-04T15:53:30.056Z</time></trkpt><trkpt lat="45.9052637" lon="12.5280574"><ele>17.0</ele><time>2026-04-04T15:53:31.056Z</time></trkpt><trkpt lat="45.9051312" lon="12.5279147"><ele>17.0</ele><time>2026-04-04T15:53:32.057Z</time></trkpt><trkpt lat="45.9049781" lon="12.5277487"><ele>17.0</ele><time>2026-04-04T15:53:33.056Z</time></trkpt><trkpt lat="45.9048419" lon="12.5276017"><ele>16.333333333333336</ele><time>2026-04-04T15:53:34.057Z</time></trkpt><trkpt lat="45.9046877" lon="12.5274332"><ele>15.666666666666668</ele><time>2026-04-04T15:53:35.056Z</time></trkpt><trkpt lat="45.9045498" lon="12.527273"><ele>15.0</ele><time>2026-04-04T15:53:36.057Z</time></trkpt><trkpt lat="45.904429" lon="12.5271232"><ele>14.666666666666668</ele><time>2026-04-04T15:53:37.057Z</time></trkpt><trkpt lat="45.904303" lon="12.5269601"><ele>14.333333333333334</ele><time>2026-04-04T15:53:38.056Z</time></trkpt><trkpt lat="45.9041996" lon="12.5268213"><ele>14.0</ele><time>2026-04-04T15:53:39.057Z</time></trkpt><trkpt lat="45.9040955" lon="12.5266755"><ele>14.0</ele><time>2026-04-04T15:53:40.056Z</time></trkpt><trkpt lat="45.903996" lon="12.5265275"><ele>13.999999999999998</ele><time>2026-04-04T15:53:41.056Z</time></trkpt><trkpt lat="45.9039231" lon="12.5264121"><ele>13.999999999999998</ele><time>2026-04-04T15:53:42.056Z</time></trkpt><trkpt lat="45.9038569" lon="12.5262989"><ele>14.0</ele><time>2026-04-04T15:53:43.056Z</time></trkpt><trkpt lat="45.903813" lon="12.5262149"><ele>14.0</ele><time>2026-04-04T15:53:44.056Z</time></trkpt><trkpt lat="45.9037667" lon="12.5261141"><ele>14.0</ele><time>2026-04-04T15:53:46.056Z</time></trkpt><trkpt lat="45.9036919" lon="12.5260349"><ele>13.999999999999998</ele><time>2026-04-04T15:53:52.056Z</time></trkpt><trkpt lat="45.9035453" lon="12.5260479"><ele>13.999999999999998</ele><time>2026-04-04T15:53:54.056Z</time></trkpt><trkpt lat="45.9034576" lon="12.5260889"><ele>14.0</ele><time>2026-04-04T15:53:55.057Z</time></trkpt><trkpt lat="45.9033526" lon="12.5261387"><ele>14.0</ele><time>2026-04-04T15:53:56.057Z</time></trkpt><trkpt lat="45.9032283" lon="12.5261921"><ele>14.75</ele><time>2026-04-04T15:53:57.057Z</time></trkpt><trkpt lat="45.9031136" lon="12.5262389"><ele>15.5</ele><time>2026-04-04T15:53:58.057Z</time></trkpt><trkpt lat="45.9029767" lon="12.5262912"><ele>16.25</ele><time>2026-04-04T15:53:59.057Z</time></trkpt><trkpt lat="45.9028446" lon="12.5263337"><ele>17.0</ele><time>2026-04-04T15:54:00.057Z</time></trkpt><trkpt lat="45.9027218" lon="12.5263614"><ele>17.0</ele><time>2026-04-04T15:54:01.057Z</time></trkpt><trkpt lat="45.9025839" lon="12.5263822"><ele>17.0</ele><time>2026-04-04T15:54:02.057Z</time></trkpt><trkpt lat="45.902469" lon="12.5263983"><ele>17.0</ele><time>2026-04-04T15:54:03.057Z</time></trkpt><trkpt lat="45.902376" lon="12.5264125"><ele>17.0</ele><time>2026-04-04T15:54:04.056Z</time></trkpt><trkpt lat="45.9022867" lon="12.5264264"><ele>17.0</ele><time>2026-04-04T15:54:05.057Z</time></trkpt><trkpt lat="45.9021718" lon="12.5264374"><ele>17.0</ele><time>2026-04-04T15:54:07.057Z</time></trkpt><trkpt lat="45.9020856" lon="12.5264099"><ele>17.0</ele><time>2026-04-04T15:54:09.056Z</time></trkpt><trkpt lat="45.9020238" lon="12.5263683"><ele>17.0</ele><time>2026-04-04T15:54:10.057Z</time></trkpt><trkpt lat="45.901965" lon="12.5263175"><ele>17.0</ele><time>2026-04-04T15:54:11.056Z</time></trkpt><trkpt lat="45.9018981" lon="12.5262536"><ele>17.0</ele><time>2026-04-04T15:54:12.057Z</time></trkpt><trkpt lat="45.9018248" lon="12.5261779"><ele>17.0</ele><time>2026-04-04T15:54:13.056Z</time></trkpt><trkpt lat="45.901761" lon="12.5261104"><ele>16.8</ele><time>2026-04-04T15:54:14.057Z</time></trkpt><trkpt lat="45.9016887" lon="12.52604"><ele>16.6</ele><time>2026-04-04T15:54:15.057Z</time></trkpt><trkpt lat="45.9016183" lon="12.5259698"><ele>16.400000000000002</ele><time>2026-04-04T15:54:16.056Z</time></trkpt><trkpt lat="45.9015474" lon="12.5258956"><ele>16.2</ele><time>2026-04-04T15:54:17.056Z</time></trkpt><trkpt lat="45.9014613" lon="12.5258021"><ele>16.0</ele><time>2026-04-04T15:54:18.056Z</time></trkpt><trkpt lat="45.901374" lon="12.5257044"><ele>16.0</ele><time>2026-04-04T15:54:19.057Z</time></trkpt><trkpt lat="45.9012871" lon="12.5256055"><ele>16.0</ele><time>2026-04-04T15:54:20.057Z</time></trkpt><trkpt lat="45.9011863" lon="12.5254813"><ele>16.0</ele><time>2026-04-04T15:54:21.056Z</time></trkpt><trkpt lat="45.9010982" lon="12.5253614"><ele>16.0</ele><time>2026-04-04T15:54:22.057Z</time></trkpt><trkpt lat="45.9010006" lon="12.5252133"><ele>16.0</ele><time>2026-04-04T15:54:23.057Z</time></trkpt><trkpt lat="45.9009155" lon="12.5250682"><ele>16.0</ele><time>2026-04-04T15:54:24.056Z</time></trkpt><trkpt lat="45.9008423" lon="12.5249363"><ele>16.0</ele><time>2026-04-04T15:54:25.056Z</time></trkpt><trkpt lat="45.9007584" lon="12.5247903"><ele>16.0</ele><time>2026-04-04T15:54:26.057Z</time></trkpt><trkpt lat="45.9006808" lon="12.5246703"><ele>15.25</ele><time>2026-04-04T15:54:27.056Z</time></trkpt><trkpt lat="45.9005928" lon="12.5245439"><ele>14.5</ele><time>2026-04-04T15:54:28.056Z</time></trkpt><trkpt lat="45.9004976" lon="12.524416"><ele>13.75</ele><time>2026-04-04T15:54:29.056Z</time></trkpt><trkpt lat="45.900412" lon="12.5243179"><ele>13.0</ele><time>2026-04-04T15:54:30.057Z</time></trkpt><trkpt lat="45.900313" lon="12.5242222"><ele>13.0</ele><time>2026-04-04T15:54:31.056Z</time></trkpt><trkpt lat="45.9002201" lon="12.5241295"><ele>13.0</ele><time>2026-04-04T15:54:32.056Z</time></trkpt><trkpt lat="45.9001425" lon="12.5240214"><ele>13.0</ele><time>2026-04-04T15:54:33.057Z</time></trkpt><trkpt lat="45.9000613" lon="12.523877"><ele>13.0</ele><time>2026-04-04T15:54:34.056Z</time></trkpt><trkpt lat="45.8999776" lon="12.523735"><ele>13.0</ele><time>2026-04-04T15:54:35.057Z</time></trkpt><trkpt lat="45.8998839" lon="12.5236015"><ele>13.0</ele><time>2026-04-04T15:54:36.056Z</time></trkpt><trkpt lat="45.8997842" lon="12.5234709"><ele>13.0</ele><time>2026-04-04T15:54:37.057Z</time></trkpt><trkpt lat="45.8996791" lon="12.5233373"><ele>13.0</ele><time>2026-04-04T15:54:38.057Z</time></trkpt><trkpt lat="45.8995708" lon="12.5232056"><ele>13.0</ele><time>2026-04-04T15:54:39.056Z</time></trkpt><trkpt lat="45.8994576" lon="12.5230772"><ele>13.0</ele><time>2026-04-04T15:54:40.057Z</time></trkpt><trkpt lat="45.8993472" lon="12.5229637"><ele>13.0</ele><time>2026-04-04T15:54:41.056Z</time></trkpt><trkpt lat="45.899232" lon="12.5228598"><ele>13.0</ele><time>2026-04-04T15:54:42.056Z</time></trkpt><trkpt lat="45.8991101" lon="12.5227567"><ele>12.75</ele><time>2026-04-04T15:54:43.056Z</time></trkpt><trkpt lat="45.8989844" lon="12.5226552"><ele>12.5</ele><time>2026-04-04T15:54:44.056Z</time></trkpt><trkpt lat="45.8988617" lon="12.5225549"><ele>12.25</ele><time>2026-04-04T15:54:45.056Z</time></trkpt><trkpt lat="45.8987444" lon="12.5224544"><ele>12.0</ele><time>2026-04-04T15:54:46.056Z</time></trkpt><trkpt lat="45.8986322" lon="12.5223615"><ele>12.0</ele><time>2026-04-04T15:54:47.056Z</time></trkpt><trkpt lat="45.8985115" lon="12.5222654"><ele>12.0</ele><time>2026-04-04T15:54:48.056Z</time></trkpt><trkpt lat="45.8983954" lon="12.5221702"><ele>12.0</ele><time>2026-04-04T15:54:49.057Z</time></trkpt><trkpt lat="45.8982842" lon="12.5220694"><ele>12.0</ele><time>2026-04-04T15:54:50.056Z</time></trkpt><trkpt lat="45.8981736" lon="12.5219515"><ele>12.25</ele><time>2026-04-04T15:54:51.057Z</time></trkpt><trkpt lat="45.8980839" lon="12.5218427"><ele>12.5</ele><time>2026-04-04T15:54:52.057Z</time></trkpt><trkpt lat="45.8979932" lon="12.5217174"><ele>12.75</ele><time>2026-04-04T15:54:53.057Z</time></trkpt><trkpt lat="45.8979091" lon="12.5215784"><ele>13.0</ele><time>2026-04-04T15:54:54.057Z</time></trkpt><trkpt lat="45.897835" lon="12.5214249"><ele>13.0</ele><time>2026-04-04T15:54:55.057Z</time></trkpt><trkpt lat="45.8977706" lon="12.5212542"><ele>13.0</ele><time>2026-04-04T15:54:56.056Z</time></trkpt><trkpt lat="45.8977162" lon="12.5210724"><ele>13.0</ele><time>2026-04-04T15:54:57.056Z</time></trkpt><trkpt lat="45.8976683" lon="12.5208821"><ele>13.0</ele><time>2026-04-04T15:54:58.056Z</time></trkpt><trkpt lat="45.8976235" lon="12.5206916"><ele>12.75</ele><time>2026-04-04T15:54:59.057Z</time></trkpt><trkpt lat="45.8975802" lon="12.5205068"><ele>12.5</ele><time>2026-04-04T15:55:00.056Z</time></trkpt><trkpt lat="45.8975398" lon="12.520332"><ele>12.25</ele><time>2026-04-04T15:55:01.056Z</time></trkpt><trkpt lat="45.8975014" lon="12.5201678"><ele>12.0</ele><time>2026-04-04T15:55:02.056Z</time></trkpt><trkpt lat="45.897465" lon="12.5200153"><ele>12.0</ele><time>2026-04-04T15:55:03.057Z</time></trkpt><trkpt lat="45.8974291" lon="12.51987"><ele>12.0</ele><time>2026-04-04T15:55:04.056Z</time></trkpt><trkpt lat="45.8973963" lon="12.5197344"><ele>12.0</ele><time>2026-04-04T15:55:05.056Z</time></trkpt><trkpt lat="45.8973654" lon="12.5196043"><ele>12.0</ele><time>2026-04-04T15:55:06.057Z</time></trkpt><trkpt lat="45.897335" lon="12.5194742"><ele>12.0</ele><time>2026-04-04T15:55:07.057Z</time></trkpt><trkpt lat="45.8973098" lon="12.5193648"><ele>12.0</ele><time>2026-04-04T15:55:08.057Z</time></trkpt><trkpt lat="45.8972832" lon="12.5192541"><ele>12.0</ele><time>2026-04-04T15:55:09.057Z</time></trkpt><trkpt lat="45.8972563" lon="12.5191525"><ele>12.0</ele><time>2026-04-04T15:55:10.057Z</time></trkpt><trkpt lat="45.8972279" lon="12.5190625"><ele>12.0</ele><time>2026-04-04T15:55:11.057Z</time></trkpt><trkpt lat="45.8971944" lon="12.5189843"><ele>12.0</ele><time>2026-04-04T15:55:12.056Z</time></trkpt><trkpt lat="45.8971325" lon="12.5188659"><ele>12.0</ele><time>2026-04-04T15:55:14.056Z</time></trkpt><trkpt lat="45.8970853" lon="12.5186963"><ele>12.0</ele><time>2026-04-04T15:55:16.056Z</time></trkpt><trkpt lat="45.8970722" lon="12.5186009"><ele>12.0</ele><time>2026-04-04T15:55:17.057Z</time></trkpt><trkpt lat="45.8970744" lon="12.5184091"><ele>12.0</ele><time>2026-04-04T15:55:19.057Z</time></trkpt><trkpt lat="45.8970834" lon="12.5183192"><ele>12.0</ele><time>2026-04-04T15:55:20.057Z</time></trkpt><trkpt lat="45.8970868" lon="12.5181643"><ele>12.0</ele><time>2026-04-04T15:55:22.057Z</time></trkpt><trkpt lat="45.8970496" lon="12.518032"><ele>12.0</ele><time>2026-04-04T15:55:24.056Z</time></trkpt><trkpt lat="45.8970105" lon="12.5179527"><ele>12.0</ele><time>2026-04-04T15:55:25.056Z</time></trkpt><trkpt lat="45.8969735" lon="12.5178672"><ele>12.0</ele><time>2026-04-04T15:55:26.056Z</time></trkpt><trkpt lat="45.8969346" lon="12.5177506"><ele>12.0</ele><time>2026-04-04T15:55:27.056Z</time></trkpt><trkpt lat="45.8969011" lon="12.5176218"><ele>12.0</ele><time>2026-04-04T15:55:28.056Z</time></trkpt><trkpt lat="45.8968685" lon="12.5174829"><ele>12.0</ele><time>2026-04-04T15:55:29.057Z</time></trkpt><trkpt lat="45.8968352" lon="12.5173369"><ele>12.0</ele><time>2026-04-04T15:55:30.057Z</time></trkpt><trkpt lat="45.8968035" lon="12.5171961"><ele>12.0</ele><time>2026-04-04T15:55:31.056Z</time></trkpt><trkpt lat="45.8967674" lon="12.5170353"><ele>12.0</ele><time>2026-04-04T15:55:32.056Z</time></trkpt><trkpt lat="45.8967339" lon="12.5168845"><ele>12.0</ele><time>2026-04-04T15:55:33.056Z</time></trkpt><trkpt lat="45.8967023" lon="12.5167417"><ele>12.0</ele><time>2026-04-04T15:55:34.057Z</time></trkpt><trkpt lat="45.8966673" lon="12.5165849"><ele>12.0</ele><time>2026-04-04T15:55:35.056Z</time></trkpt><trkpt lat="45.8966377" lon="12.5164517"><ele>12.0</ele><time>2026-04-04T15:55:36.057Z</time></trkpt><trkpt lat="45.8966113" lon="12.5163315"><ele>12.0</ele><time>2026-04-04T15:55:37.056Z</time></trkpt><trkpt lat="45.8965865" lon="12.5162154"><ele>12.0</ele><time>2026-04-04T15:55:38.057Z</time></trkpt><trkpt lat="45.896559" lon="12.5160933"><ele>12.0</ele><time>2026-04-04T15:55:39.056Z</time></trkpt><trkpt lat="45.896519" lon="12.5159589"><ele>12.0</ele><time>2026-04-04T15:55:40.057Z</time></trkpt><trkpt lat="45.8964601" lon="12.5157825"><ele>12.0</ele><time>2026-04-04T15:55:41.057Z</time></trkpt><trkpt lat="45.8963977" lon="12.5156109"><ele>12.0</ele><time>2026-04-04T15:55:42.057Z</time></trkpt><trkpt lat="45.8962994" lon="12.5153833"><ele>12.0</ele><time>2026-04-04T15:55:43.057Z</time></trkpt><trkpt lat="45.896179" lon="12.5151415"><ele>12.0</ele><time>2026-04-04T15:55:44.056Z</time></trkpt><trkpt lat="45.8960551" lon="12.5148888"><ele>12.0</ele><time>2026-04-04T15:55:45.057Z</time></trkpt><trkpt lat="45.8959324" lon="12.5146464"><ele>12.0</ele><time>2026-04-04T15:55:46.056Z</time></trkpt><trkpt lat="45.8958215" lon="12.514436"><ele>12.0</ele><time>2026-04-04T15:55:47.057Z</time></trkpt><trkpt lat="45.8957084" lon="12.5142259"><ele>12.0</ele><time>2026-04-04T15:55:48.057Z</time></trkpt><trkpt lat="45.8956187" lon="12.5140599"><ele>12.0</ele><time>2026-04-04T15:55:49.056Z</time></trkpt><trkpt lat="45.8955236" lon="12.5138983"><ele>12.0</ele><time>2026-04-04T15:55:50.056Z</time></trkpt><trkpt lat="45.8953949" lon="12.5136883"><ele>12.0</ele><time>2026-04-04T15:55:51.056Z</time></trkpt><trkpt lat="45.8952656" lon="12.5134484"><ele>12.5</ele><time>2026-04-04T15:55:52.057Z</time></trkpt><trkpt lat="45.8951316" lon="12.5131804"><ele>13.0</ele><time>2026-04-04T15:55:53.056Z</time></trkpt><trkpt lat="45.8949854" lon="12.5129008"><ele>13.5</ele><time>2026-04-04T15:55:54.056Z</time></trkpt><trkpt lat="45.8948335" lon="12.5126202"><ele>14.0</ele><time>2026-04-04T15:55:55.056Z</time></trkpt><trkpt lat="45.8946812" lon="12.5123402"><ele>12.5</ele><time>2026-04-04T15:55:56.056Z</time></trkpt><trkpt lat="45.8945306" lon="12.5120647"><ele>11.0</ele><time>2026-04-04T15:55:57.056Z</time></trkpt><trkpt lat="45.8943914" lon="12.5118105"><ele>11.0</ele><time>2026-04-04T15:55:58.056Z</time></trkpt><trkpt lat="45.8942399" lon="12.511533"><ele>11.0</ele><time>2026-04-04T15:55:59.057Z</time></trkpt><trkpt lat="45.8941032" lon="12.5112806"><ele>11.0</ele><time>2026-04-04T15:56:00.056Z</time></trkpt><trkpt lat="45.8939692" lon="12.5110314"><ele>11.0</ele><time>2026-04-04T15:56:01.056Z</time></trkpt><trkpt lat="45.8938419" lon="12.5107796"><ele>11.0</ele><time>2026-04-04T15:56:02.056Z</time></trkpt><trkpt lat="45.8937338" lon="12.5105349"><ele>11.0</ele><time>2026-04-04T15:56:03.056Z</time></trkpt><trkpt lat="45.8936307" lon="12.5102391"><ele>11.0</ele><time>2026-04-04T15:56:04.057Z</time></trkpt><trkpt lat="45.8935652" lon="12.5099488"><ele>11.0</ele><time>2026-04-04T15:56:05.057Z</time></trkpt><trkpt lat="45.8935294" lon="12.5096477"><ele>10.666666666666666</ele><time>2026-04-04T15:56:06.056Z</time></trkpt><trkpt lat="45.8935189" lon="12.5093289"><ele>10.333333333333334</ele><time>2026-04-04T15:56:07.057Z</time></trkpt><trkpt lat="45.8935263" lon="12.5090027"><ele>10.0</ele><time>2026-04-04T15:56:08.056Z</time></trkpt><trkpt lat="45.8935403" lon="12.508668"><ele>11.0</ele><time>2026-04-04T15:56:09.056Z</time></trkpt><trkpt lat="45.8935538" lon="12.5083254"><ele>12.0</ele><time>2026-04-04T15:56:10.057Z</time></trkpt><trkpt lat="45.8935657" lon="12.5079834"><ele>11.5</ele><time>2026-04-04T15:56:11.056Z</time></trkpt><trkpt lat="45.8935757" lon="12.5076466"><ele>11.0</ele><time>2026-04-04T15:56:12.057Z</time></trkpt><trkpt lat="45.893584" lon="12.5073235"><ele>11.0</ele><time>2026-04-04T15:56:13.057Z</time></trkpt><trkpt lat="45.8935913" lon="12.5070382"><ele>11.0</ele><time>2026-04-04T15:56:14.057Z</time></trkpt><trkpt lat="45.8935988" lon="12.5067298"><ele>11.0</ele><time>2026-04-04T15:56:15.057Z</time></trkpt><trkpt lat="45.8936055" lon="12.5064661"><ele>11.0</ele><time>2026-04-04T15:56:16.056Z</time></trkpt><trkpt lat="45.8936121" lon="12.5062089"><ele>11.0</ele><time>2026-04-04T15:56:17.056Z</time></trkpt><trkpt lat="45.8936181" lon="12.505966"><ele>11.0</ele><time>2026-04-04T15:56:18.056Z</time></trkpt><trkpt lat="45.8936238" lon="12.5057439"><ele>11.0</ele><time>2026-04-04T15:56:19.056Z</time></trkpt><trkpt lat="45.89363" lon="12.5054926"><ele>11.0</ele><time>2026-04-04T15:56:20.056Z</time></trkpt><trkpt lat="45.8936358" lon="12.5052602"><ele>11.0</ele><time>2026-04-04T15:56:21.056Z</time></trkpt><trkpt lat="45.8936423" lon="12.5050444"><ele>11.666666666666666</ele><time>2026-04-04T15:56:22.056Z</time></trkpt><trkpt lat="45.8936489" lon="12.5047997"><ele>12.333333333333332</ele><time>2026-04-04T15:56:23.056Z</time></trkpt><trkpt lat="45.8936549" lon="12.5045725"><ele>13.0</ele><time>2026-04-04T15:56:24.056Z</time></trkpt><trkpt lat="45.8936616" lon="12.5043485"><ele>13.0</ele><time>2026-04-04T15:56:25.057Z</time></trkpt><trkpt lat="45.893669" lon="12.5041294"><ele>13.0</ele><time>2026-04-04T15:56:26.056Z</time></trkpt><trkpt lat="45.893676" lon="12.5039139"><ele>13.0</ele><time>2026-04-04T15:56:27.056Z</time></trkpt><trkpt lat="45.8936815" lon="12.5037023"><ele>13.25</ele><time>2026-04-04T15:56:28.057Z</time></trkpt><trkpt lat="45.8936861" lon="12.5035035"><ele>13.5</ele><time>2026-04-04T15:56:29.056Z</time></trkpt><trkpt lat="45.8936902" lon="12.5033353"><ele>13.75</ele><time>2026-04-04T15:56:30.056Z</time></trkpt><trkpt lat="45.8936942" lon="12.5031664"><ele>14.0</ele><time>2026-04-04T15:56:31.057Z</time></trkpt><trkpt lat="45.8936984" lon="12.5030338"><ele>14.000000000000002</ele><time>2026-04-04T15:56:32.056Z</time></trkpt><trkpt lat="45.893704" lon="12.5029147"><ele>14.0</ele><time>2026-04-04T15:56:33.056Z</time></trkpt><trkpt lat="45.8937192" lon="12.5028022"><ele>14.0</ele><time>2026-04-04T15:56:34.057Z</time></trkpt><trkpt lat="45.8937413" lon="12.5027051"><ele>14.0</ele><time>2026-04-04T15:56:35.057Z</time></trkpt><trkpt lat="45.8937516" lon="12.5025951"><ele>14.000000000000002</ele><time>2026-04-04T15:56:36.057Z</time></trkpt><trkpt lat="45.8937307" lon="12.5024922"><ele>14.0</ele><time>2026-04-04T15:56:37.056Z</time></trkpt><trkpt lat="45.8936815" lon="12.5024084"><ele>14.0</ele><time>2026-04-04T15:56:38.056Z</time></trkpt><trkpt lat="45.8936041" lon="12.5023194"><ele>14.0</ele><time>2026-04-04T15:56:39.057Z</time></trkpt><trkpt lat="45.8935182" lon="12.5022212"><ele>14.0</ele><time>2026-04-04T15:56:40.056Z</time></trkpt><trkpt lat="45.8934267" lon="12.5021054"><ele>14.0</ele><time>2026-04-04T15:56:41.057Z</time></trkpt><trkpt lat="45.8933289" lon="12.5019751"><ele>13.75</ele><time>2026-04-04T15:56:42.056Z</time></trkpt><trkpt lat="45.8932268" lon="12.5018363"><ele>13.5</ele><time>2026-04-04T15:56:43.056Z</time></trkpt><trkpt lat="45.8931242" lon="12.5016946"><ele>13.25</ele><time>2026-04-04T15:56:44.057Z</time></trkpt><trkpt lat="45.8930266" lon="12.501561"><ele>13.0</ele><time>2026-04-04T15:56:45.056Z</time></trkpt><trkpt lat="45.8929414" lon="12.5014475"><ele>13.0</ele><time>2026-04-04T15:56:46.056Z</time></trkpt><trkpt lat="45.8928563" lon="12.5013331"><ele>13.0</ele><time>2026-04-04T15:56:47.056Z</time></trkpt><trkpt lat="45.8927867" lon="12.5012385"><ele>13.0</ele><time>2026-04-04T15:56:48.056Z</time></trkpt><trkpt lat="45.8927299" lon="12.5011543"><ele>13.0</ele><time>2026-04-04T15:56:49.056Z</time></trkpt><trkpt lat="45.8926806" lon="12.5010627"><ele>13.0</ele><time>2026-04-04T15:56:50.057Z</time></trkpt><trkpt lat="45.8926315" lon="12.5009658"><ele>13.25</ele><time>2026-04-04T15:56:51.057Z</time></trkpt><trkpt lat="45.8925565" lon="12.5008623"><ele>13.5</ele><time>2026-04-04T15:56:52.057Z</time></trkpt><trkpt lat="45.8924646" lon="12.5007706"><ele>13.75</ele><time>2026-04-04T15:56:53.057Z</time></trkpt><trkpt lat="45.8923726" lon="12.500672"><ele>14.0</ele><time>2026-04-04T15:56:54.057Z</time></trkpt><trkpt lat="45.8922654" lon="12.5005384"><ele>14.333333333333334</ele><time>2026-04-04T15:56:55.057Z</time></trkpt><trkpt lat="45.8921594" lon="12.5003953"><ele>14.666666666666668</ele><time>2026-04-04T15:56:56.057Z</time></trkpt><trkpt lat="45.8920482" lon="12.5002394"><ele>15.0</ele><time>2026-04-04T15:56:57.056Z</time></trkpt><trkpt lat="45.8919331" lon="12.5000698"><ele>15.0</ele><time>2026-04-04T15:56:58.056Z</time></trkpt><trkpt lat="45.8918192" lon="12.4998853"><ele>15.0</ele><time>2026-04-04T15:56:59.057Z</time></trkpt><trkpt lat="45.8917063" lon="12.4996881"><ele>15.0</ele><time>2026-04-04T15:57:00.056Z</time></trkpt><trkpt lat="45.8915922" lon="12.4994798"><ele>16.0</ele><time>2026-04-04T15:57:01.057Z</time></trkpt><trkpt lat="45.8914867" lon="12.4992797"><ele>17.0</ele><time>2026-04-04T15:57:02.057Z</time></trkpt><trkpt lat="45.8913671" lon="12.4990472"><ele>18.0</ele><time>2026-04-04T15:57:03.056Z</time></trkpt><trkpt lat="45.891254" lon="12.4988255"><ele>18.0</ele><time>2026-04-04T15:57:04.057Z</time></trkpt><trkpt lat="45.8911396" lon="12.4986016"><ele>18.0</ele><time>2026-04-04T15:57:05.057Z</time></trkpt><trkpt lat="45.8910254" lon="12.4983748"><ele>18.0</ele><time>2026-04-04T15:57:06.056Z</time></trkpt><trkpt lat="45.8909222" lon="12.4981574"><ele>17.0</ele><time>2026-04-04T15:57:07.057Z</time></trkpt><trkpt lat="45.8908117" lon="12.4979038"><ele>16.0</ele><time>2026-04-04T15:57:08.056Z</time></trkpt><trkpt lat="45.8907142" lon="12.4976573"><ele>15.0</ele><time>2026-04-04T15:57:09.057Z</time></trkpt><trkpt lat="45.8906281" lon="12.497425"><ele>15.0</ele><time>2026-04-04T15:57:10.056Z</time></trkpt><trkpt lat="45.8905357" lon="12.4971544"><ele>15.0</ele><time>2026-04-04T15:57:11.056Z</time></trkpt><trkpt lat="45.8904567" lon="12.4968944"><ele>15.0</ele><time>2026-04-04T15:57:12.056Z</time></trkpt><trkpt lat="45.8903848" lon="12.4966298"><ele>15.666666666666668</ele><time>2026-04-04T15:57:13.056Z</time></trkpt><trkpt lat="45.8903162" lon="12.4963618"><ele>16.333333333333336</ele><time>2026-04-04T15:57:14.056Z</time></trkpt><trkpt lat="45.8902479" lon="12.4960929"><ele>17.0</ele><time>2026-04-04T15:57:15.057Z</time></trkpt><trkpt lat="45.8901785" lon="12.495827"><ele>17.0</ele><time>2026-04-04T15:57:16.056Z</time></trkpt><trkpt lat="45.8901022" lon="12.4955596"><ele>17.0</ele><time>2026-04-04T15:57:17.056Z</time></trkpt><trkpt lat="45.8900234" lon="12.4953225"><ele>17.0</ele><time>2026-04-04T15:57:18.057Z</time></trkpt><trkpt lat="45.8899269" lon="12.4950608"><ele>16.666666666666668</ele><time>2026-04-04T15:57:19.057Z</time></trkpt><trkpt lat="45.8898358" lon="12.4948276"><ele>16.333333333333332</ele><time>2026-04-04T15:57:20.056Z</time></trkpt><trkpt lat="45.8897409" lon="12.4946107"><ele>16.0</ele><time>2026-04-04T15:57:21.057Z</time></trkpt><trkpt lat="45.8896308" lon="12.4944179"><ele>16.0</ele><time>2026-04-04T15:57:22.056Z</time></trkpt><trkpt lat="45.8895071" lon="12.4942666"><ele>16.0</ele><time>2026-04-04T15:57:23.056Z</time></trkpt><trkpt lat="45.8893447" lon="12.4941298"><ele>16.0</ele><time>2026-04-04T15:57:24.056Z</time></trkpt><trkpt lat="45.8891729" lon="12.4940406"><ele>15.0</ele><time>2026-04-04T15:57:25.057Z</time></trkpt><trkpt lat="45.8889987" lon="12.493982"><ele>14.0</ele><time>2026-04-04T15:57:26.056Z</time></trkpt><trkpt lat="45.8887929" lon="12.4939267"><ele>13.0</ele><time>2026-04-04T15:57:27.057Z</time></trkpt><trkpt lat="45.8885932" lon="12.4938729"><ele>13.333333333333332</ele><time>2026-04-04T15:57:28.056Z</time></trkpt><trkpt lat="45.8883903" lon="12.4938165"><ele>13.666666666666668</ele><time>2026-04-04T15:57:29.056Z</time></trkpt><trkpt lat="45.888183" lon="12.4937583"><ele>14.0</ele><time>2026-04-04T15:57:30.056Z</time></trkpt><trkpt lat="45.8879746" lon="12.4936994"><ele>14.0</ele><time>2026-04-04T15:57:31.057Z</time></trkpt><trkpt lat="45.8877676" lon="12.4936426"><ele>14.0</ele><time>2026-04-04T15:57:32.057Z</time></trkpt><trkpt lat="45.8875661" lon="12.4936044"><ele>14.0</ele><time>2026-04-04T15:57:33.056Z</time></trkpt><trkpt lat="45.887381" lon="12.4935988"><ele>14.0</ele><time>2026-04-04T15:57:34.056Z</time></trkpt><trkpt lat="45.8871757" lon="12.4936303"><ele>14.0</ele><time>2026-04-04T15:57:35.057Z</time></trkpt><trkpt lat="45.8869899" lon="12.4936871"><ele>14.0</ele><time>2026-04-04T15:57:36.056Z</time></trkpt><trkpt lat="45.8868118" lon="12.4937443"><ele>15.333333333333334</ele><time>2026-04-04T15:57:37.057Z</time></trkpt><trkpt lat="45.8866432" lon="12.4937895"><ele>16.666666666666668</ele><time>2026-04-04T15:57:38.057Z</time></trkpt><trkpt lat="45.8864995" lon="12.4938106"><ele>18.0</ele><time>2026-04-04T15:57:39.057Z</time></trkpt><trkpt lat="45.8863568" lon="12.4938119"><ele>18.0</ele><time>2026-04-04T15:57:40.057Z</time></trkpt><trkpt lat="45.8862469" lon="12.4937946"><ele>18.0</ele><time>2026-04-04T15:57:41.056Z</time></trkpt><trkpt lat="45.8861673" lon="12.4937702"><ele>18.0</ele><time>2026-04-04T15:57:42.057Z</time></trkpt><trkpt lat="45.8860991" lon="12.4937432"><ele>18.0</ele><time>2026-04-04T15:57:43.057Z</time></trkpt><trkpt lat="45.8859973" lon="12.493669"><ele>18.0</ele><time>2026-04-04T15:57:45.056Z</time></trkpt><trkpt lat="45.885896" lon="12.4935539"><ele>17.2</ele><time>2026-04-04T15:57:47.056Z</time></trkpt><trkpt lat="45.8858332" lon="12.4934758"><ele>16.4</ele><time>2026-04-04T15:57:48.057Z</time></trkpt><trkpt lat="45.8857704" lon="12.493374"><ele>15.599999999999998</ele><time>2026-04-04T15:57:49.056Z</time></trkpt><trkpt lat="45.8857137" lon="12.4932554"><ele>14.799999999999999</ele><time>2026-04-04T15:57:50.057Z</time></trkpt><trkpt lat="45.8856528" lon="12.4930936"><ele>14.0</ele><time>2026-04-04T15:57:51.057Z</time></trkpt><trkpt lat="45.8855987" lon="12.4929152"><ele>14.0</ele><time>2026-04-04T15:57:52.056Z</time></trkpt><trkpt lat="45.8855413" lon="12.4927102"><ele>14.0</ele><time>2026-04-04T15:57:53.056Z</time></trkpt><trkpt lat="45.8854773" lon="12.4924827"><ele>14.0</ele><time>2026-04-04T15:57:54.056Z</time></trkpt><trkpt lat="45.8854123" lon="12.4922531"><ele>13.666666666666668</ele><time>2026-04-04T15:57:55.057Z</time></trkpt><trkpt lat="45.8853342" lon="12.491975"><ele>13.333333333333332</ele><time>2026-04-04T15:57:56.056Z</time></trkpt><trkpt lat="45.8852589" lon="12.4917008"><ele>13.0</ele><time>2026-04-04T15:57:57.056Z</time></trkpt><trkpt lat="45.8851903" lon="12.4914349"><ele>13.0</ele><time>2026-04-04T15:57:58.057Z</time></trkpt><trkpt lat="45.8851171" lon="12.4911322"><ele>13.0</ele><time>2026-04-04T15:57:59.056Z</time></trkpt><trkpt lat="45.8850463" lon="12.4908532"><ele>13.0</ele><time>2026-04-04T15:58:00.057Z</time></trkpt><trkpt lat="45.8849662" lon="12.4905977"><ele>13.666666666666666</ele><time>2026-04-04T15:58:01.057Z</time></trkpt><trkpt lat="45.8848699" lon="12.4903734"><ele>14.333333333333332</ele><time>2026-04-04T15:58:02.057Z</time></trkpt><trkpt lat="45.8847516" lon="12.4901775"><ele>15.0</ele><time>2026-04-04T15:58:03.057Z</time></trkpt><trkpt lat="45.8846117" lon="12.4900014"><ele>15.0</ele><time>2026-04-04T15:58:04.057Z</time></trkpt><trkpt lat="45.884459" lon="12.4898366"><ele>15.0</ele><time>2026-04-04T15:58:05.056Z</time></trkpt><trkpt lat="45.8843118" lon="12.4896778"><ele>15.0</ele><time>2026-04-04T15:58:06.057Z</time></trkpt><trkpt lat="45.8841429" lon="12.489493"><ele>14.666666666666668</ele><time>2026-04-04T15:58:07.056Z</time></trkpt><trkpt lat="45.883984" lon="12.4893184"><ele>14.333333333333334</ele><time>2026-04-04T15:58:08.056Z</time></trkpt><trkpt lat="45.8838246" lon="12.489143"><ele>14.0</ele><time>2026-04-04T15:58:09.057Z</time></trkpt><trkpt lat="45.8836663" lon="12.4889675"><ele>14.0</ele><time>2026-04-04T15:58:10.056Z</time></trkpt><trkpt lat="45.8835192" lon="12.4888013"><ele>14.0</ele><time>2026-04-04T15:58:11.057Z</time></trkpt><trkpt lat="45.8833532" lon="12.4886119"><ele>14.0</ele><time>2026-04-04T15:58:12.056Z</time></trkpt><trkpt lat="45.8832012" lon="12.4884379"><ele>15.333333333333334</ele><time>2026-04-04T15:58:13.056Z</time></trkpt><trkpt lat="45.8830646" lon="12.4882825"><ele>16.666666666666668</ele><time>2026-04-04T15:58:14.056Z</time></trkpt><trkpt lat="45.8829195" lon="12.4881174"><ele>18.0</ele><time>2026-04-04T15:58:15.057Z</time></trkpt><trkpt lat="45.8827925" lon="12.4879723"><ele>17.666666666666668</ele><time>2026-04-04T15:58:16.056Z</time></trkpt><trkpt lat="45.8826655" lon="12.4878293"><ele>17.333333333333336</ele><time>2026-04-04T15:58:17.056Z</time></trkpt><trkpt lat="45.8825378" lon="12.4876888"><ele>17.0</ele><time>2026-04-04T15:58:18.057Z</time></trkpt><trkpt lat="45.8824069" lon="12.487544"><ele>17.0</ele><time>2026-04-04T15:58:19.056Z</time></trkpt><trkpt lat="45.8822739" lon="12.4873933"><ele>17.0</ele><time>2026-04-04T15:58:20.056Z</time></trkpt><trkpt lat="45.8821381" lon="12.4872386"><ele>17.0</ele><time>2026-04-04T15:58:21.056Z</time></trkpt><trkpt lat="45.8820037" lon="12.4870886"><ele>16.666666666666668</ele><time>2026-04-04T15:58:22.057Z</time></trkpt><trkpt lat="45.8818679" lon="12.4869366"><ele>16.333333333333332</ele><time>2026-04-04T15:58:23.057Z</time></trkpt><trkpt lat="45.8817344" lon="12.4867849"><ele>16.0</ele><time>2026-04-04T15:58:24.057Z</time></trkpt><trkpt lat="45.8816066" lon="12.4866384"><ele>16.0</ele><time>2026-04-04T15:58:25.057Z</time></trkpt><trkpt lat="45.8814855" lon="12.4864988"><ele>16.0</ele><time>2026-04-04T15:58:26.056Z</time></trkpt><trkpt lat="45.8813719" lon="12.4863669"><ele>16.0</ele><time>2026-04-04T15:58:27.057Z</time></trkpt><trkpt lat="45.8812667" lon="12.4862405"><ele>16.0</ele><time>2026-04-04T15:58:28.057Z</time></trkpt><trkpt lat="45.8811701" lon="12.4861184"><ele>15.75</ele><time>2026-04-04T15:58:29.057Z</time></trkpt><trkpt lat="45.8810795" lon="12.4859997"><ele>15.5</ele><time>2026-04-04T15:58:30.057Z</time></trkpt><trkpt lat="45.8809933" lon="12.4858847"><ele>15.25</ele><time>2026-04-04T15:58:31.056Z</time></trkpt><trkpt lat="45.88091" lon="12.4857701"><ele>15.0</ele><time>2026-04-04T15:58:32.057Z</time></trkpt><trkpt lat="45.8808317" lon="12.48566"><ele>15.0</ele><time>2026-04-04T15:58:33.056Z</time></trkpt><trkpt lat="45.88076" lon="12.4855569"><ele>15.0</ele><time>2026-04-04T15:58:34.057Z</time></trkpt><trkpt lat="45.880693" lon="12.4854574"><ele>15.0</ele><time>2026-04-04T15:58:35.056Z</time></trkpt><trkpt lat="45.8806437" lon="12.4853816"><ele>15.0</ele><time>2026-04-04T15:58:36.056Z</time></trkpt><trkpt lat="45.8805998" lon="12.4853153"><ele>15.0</ele><time>2026-04-04T15:58:37.057Z</time></trkpt><trkpt lat="45.8805377" lon="12.4852267"><ele>15.0</ele><time>2026-04-04T15:58:39.056Z</time></trkpt><trkpt lat="45.8804762" lon="12.4851427"><ele>14.8</ele><time>2026-04-04T15:59:14.056Z</time></trkpt><trkpt lat="45.8803895" lon="12.4850288"><ele>14.6</ele><time>2026-04-04T15:59:16.056Z</time></trkpt><trkpt lat="45.8803321" lon="12.484957"><ele>14.399999999999999</ele><time>2026-04-04T15:59:17.057Z</time></trkpt><trkpt lat="45.880268" lon="12.4848813"><ele>14.2</ele><time>2026-04-04T15:59:18.057Z</time></trkpt><trkpt lat="45.8801982" lon="12.4848042"><ele>14.0</ele><time>2026-04-04T15:59:19.057Z</time></trkpt><trkpt lat="45.8801243" lon="12.4847246"><ele>14.399999999999999</ele><time>2026-04-04T15:59:20.057Z</time></trkpt><trkpt lat="45.8800475" lon="12.4846396"><ele>14.799999999999999</ele><time>2026-04-04T15:59:21.056Z</time></trkpt><trkpt lat="45.8799708" lon="12.48455"><ele>15.200000000000001</ele><time>2026-04-04T15:59:22.057Z</time></trkpt><trkpt lat="45.8798982" lon="12.484462"><ele>15.600000000000001</ele><time>2026-04-04T15:59:23.056Z</time></trkpt><trkpt lat="45.8798391" lon="12.4843896"><ele>16.0</ele><time>2026-04-04T15:59:24.056Z</time></trkpt><trkpt lat="45.8797764" lon="12.4843123"><ele>16.0</ele><time>2026-04-04T15:59:25.057Z</time></trkpt><trkpt lat="45.8797117" lon="12.4842272"><ele>16.0</ele><time>2026-04-04T15:59:26.057Z</time></trkpt><trkpt lat="45.8796463" lon="12.4841343"><ele>16.0</ele><time>2026-04-04T15:59:27.057Z</time></trkpt><trkpt lat="45.8795868" lon="12.4840365"><ele>16.0</ele><time>2026-04-04T15:59:28.056Z</time></trkpt><trkpt lat="45.8795325" lon="12.4839325"><ele>16.0</ele><time>2026-04-04T15:59:29.056Z</time></trkpt><trkpt lat="45.8794841" lon="12.4838187"><ele>16.166666666666664</ele><time>2026-04-04T15:59:30.057Z</time></trkpt><trkpt lat="45.879441" lon="12.4836993"><ele>16.333333333333332</ele><time>2026-04-04T15:59:31.056Z</time></trkpt><trkpt lat="45.8794068" lon="12.483577"><ele>16.5</ele><time>2026-04-04T15:59:32.056Z</time></trkpt><trkpt lat="45.87938" lon="12.48346"><ele>16.666666666666668</ele><time>2026-04-04T15:59:33.057Z</time></trkpt><trkpt lat="45.8793603" lon="12.4833558"><ele>16.833333333333336</ele><time>2026-04-04T15:59:34.057Z</time></trkpt><trkpt lat="45.8793455" lon="12.4832593"><ele>17.0</ele><time>2026-04-04T15:59:35.057Z</time></trkpt><trkpt lat="45.8793352" lon="12.4831699"><ele>17.0</ele><time>2026-04-04T15:59:36.056Z</time></trkpt><trkpt lat="45.8793245" lon="12.4829904"><ele>17.0</ele><time>2026-04-04T15:59:38.056Z</time></trkpt><trkpt lat="45.8793317" lon="12.4828936"><ele>17.0</ele><time>2026-04-04T15:59:39.056Z</time></trkpt><trkpt lat="45.879354" lon="12.4828048"><ele>17.0</ele><time>2026-04-04T15:59:40.056Z</time></trkpt><trkpt lat="45.8793971" lon="12.4827131"><ele>17.0</ele><time>2026-04-04T15:59:41.056Z</time></trkpt><trkpt lat="45.8794572" lon="12.4826315"><ele>17.0</ele><time>2026-04-04T15:59:42.056Z</time></trkpt><trkpt lat="45.8795266" lon="12.4825619"><ele>17.166666666666668</ele><time>2026-04-04T15:59:43.056Z</time></trkpt><trkpt lat="45.8796017" lon="12.4825007"><ele>17.333333333333336</ele><time>2026-04-04T15:59:44.057Z</time></trkpt><trkpt lat="45.87968" lon="12.4824439"><ele>17.5</ele><time>2026-04-04T15:59:45.056Z</time></trkpt><trkpt lat="45.8797616" lon="12.4823888"><ele>17.666666666666668</ele><time>2026-04-04T15:59:46.056Z</time></trkpt><trkpt lat="45.8798431" lon="12.482335"><ele>17.833333333333332</ele><time>2026-04-04T15:59:47.057Z</time></trkpt><trkpt lat="45.8799226" lon="12.4822818"><ele>18.0</ele><time>2026-04-04T15:59:48.057Z</time></trkpt><trkpt lat="45.8800009" lon="12.482228"><ele>18.0</ele><time>2026-04-04T15:59:49.056Z</time></trkpt><trkpt lat="45.880079" lon="12.4821739"><ele>18.0</ele><time>2026-04-04T15:59:50.056Z</time></trkpt><trkpt lat="45.8801566" lon="12.4821163"><ele>18.0</ele><time>2026-04-04T15:59:51.057Z</time></trkpt><trkpt lat="45.8802309" lon="12.4820533"><ele>18.0</ele><time>2026-04-04T15:59:52.056Z</time></trkpt><trkpt lat="45.8803011" lon="12.4819803"><ele>18.0</ele><time>2026-04-04T15:59:53.057Z</time></trkpt><trkpt lat="45.8803615" lon="12.481891"><ele>18.0</ele><time>2026-04-04T15:59:54.056Z</time></trkpt><trkpt lat="45.8804092" lon="12.4817821"><ele>18.2</ele><time>2026-04-04T15:59:55.057Z</time></trkpt><trkpt lat="45.8804474" lon="12.4816605"><ele>18.4</ele><time>2026-04-04T15:59:56.057Z</time></trkpt><trkpt lat="45.8804809" lon="12.4815314"><ele>18.599999999999998</ele><time>2026-04-04T15:59:57.057Z</time></trkpt><trkpt lat="45.8805136" lon="12.4813944"><ele>18.8</ele><time>2026-04-04T15:59:58.056Z</time></trkpt><trkpt lat="45.8805459" lon="12.4812518"><ele>19.0</ele><time>2026-04-04T15:59:59.056Z</time></trkpt><trkpt lat="45.8805808" lon="12.4811028"><ele>19.0</ele><time>2026-04-04T16:00:00.056Z</time></trkpt><trkpt lat="45.8806169" lon="12.4809495"><ele>19.0</ele><time>2026-04-04T16:00:01.056Z</time></trkpt><trkpt lat="45.8806534" lon="12.4807914"><ele>19.0</ele><time>2026-04-04T16:00:02.057Z</time></trkpt><trkpt lat="45.8806902" lon="12.480631"><ele>19.0</ele><time>2026-04-04T16:00:03.056Z</time></trkpt><trkpt lat="45.8807274" lon="12.4804679"><ele>18.75</ele><time>2026-04-04T16:00:04.056Z</time></trkpt><trkpt lat="45.8807637" lon="12.4803069"><ele>18.5</ele><time>2026-04-04T16:00:05.057Z</time></trkpt><trkpt lat="45.8808002" lon="12.4801458"><ele>18.25</ele><time>2026-04-04T16:00:06.057Z</time></trkpt><trkpt lat="45.8808366" lon="12.4799836"><ele>18.0</ele><time>2026-04-04T16:00:07.057Z</time></trkpt><trkpt lat="45.8808736" lon="12.47982"><ele>18.0</ele><time>2026-04-04T16:00:08.056Z</time></trkpt><trkpt lat="45.8809115" lon="12.4796554"><ele>18.0</ele><time>2026-04-04T16:00:09.056Z</time></trkpt><trkpt lat="45.8809488" lon="12.4794905"><ele>18.0</ele><time>2026-04-04T16:00:10.056Z</time></trkpt><trkpt lat="45.8809859" lon="12.4793135"><ele>18.0</ele><time>2026-04-04T16:00:11.056Z</time></trkpt><trkpt lat="45.8810115" lon="12.4791545"><ele>18.5</ele><time>2026-04-04T16:00:12.056Z</time></trkpt><trkpt lat="45.8810287" lon="12.4789808"><ele>19.0</ele><time>2026-04-04T16:00:13.056Z</time></trkpt><trkpt lat="45.8810343" lon="12.4788043"><ele>19.5</ele><time>2026-04-04T16:00:14.057Z</time></trkpt><trkpt lat="45.8810302" lon="12.4786277"><ele>20.0</ele><time>2026-04-04T16:00:15.057Z</time></trkpt><trkpt lat="45.881017" lon="12.4784468"><ele>20.0</ele><time>2026-04-04T16:00:16.057Z</time></trkpt><trkpt lat="45.8809994" lon="12.4782694"><ele>20.0</ele><time>2026-04-04T16:00:17.057Z</time></trkpt><trkpt lat="45.8809791" lon="12.4780828"><ele>20.0</ele><time>2026-04-04T16:00:18.056Z</time></trkpt><trkpt lat="45.8809581" lon="12.4778912"><ele>20.0</ele><time>2026-04-04T16:00:19.056Z</time></trkpt><trkpt lat="45.8809369" lon="12.4776932"><ele>19.25</ele><time>2026-04-04T16:00:20.057Z</time></trkpt><trkpt lat="45.880916" lon="12.4774903"><ele>18.5</ele><time>2026-04-04T16:00:21.057Z</time></trkpt><trkpt lat="45.8808948" lon="12.4772828"><ele>17.75</ele><time>2026-04-04T16:00:22.057Z</time></trkpt><trkpt lat="45.8808718" lon="12.477075"><ele>17.0</ele><time>2026-04-04T16:00:23.056Z</time></trkpt><trkpt lat="45.8808477" lon="12.4768636"><ele>16.666666666666668</ele><time>2026-04-04T16:00:24.056Z</time></trkpt><trkpt lat="45.8808231" lon="12.4766535"><ele>16.333333333333332</ele><time>2026-04-04T16:00:25.057Z</time></trkpt><trkpt lat="45.8807996" lon="12.4764401"><ele>16.0</ele><time>2026-04-04T16:00:26.056Z</time></trkpt><trkpt lat="45.8807747" lon="12.476208"><ele>16.0</ele><time>2026-04-04T16:00:27.057Z</time></trkpt><trkpt lat="45.8807518" lon="12.4760022"><ele>16.0</ele><time>2026-04-04T16:00:28.057Z</time></trkpt><trkpt lat="45.8807276" lon="12.4757813"><ele>16.0</ele><time>2026-04-04T16:00:29.057Z</time></trkpt><trkpt lat="45.8807034" lon="12.4755597"><ele>16.5</ele><time>2026-04-04T16:00:30.057Z</time></trkpt><trkpt lat="45.8806791" lon="12.4753444"><ele>17.0</ele><time>2026-04-04T16:00:31.057Z</time></trkpt><trkpt lat="45.8806537" lon="12.4751226"><ele>17.5</ele><time>2026-04-04T16:00:32.056Z</time></trkpt><trkpt lat="45.8806319" lon="12.4749329"><ele>18.0</ele><time>2026-04-04T16:00:33.056Z</time></trkpt><trkpt lat="45.8806095" lon="12.4747361"><ele>18.25</ele><time>2026-04-04T16:00:34.057Z</time></trkpt><trkpt lat="45.8805885" lon="12.4745467"><ele>18.5</ele><time>2026-04-04T16:00:35.057Z</time></trkpt><trkpt lat="45.8805693" lon="12.4743686"><ele>18.75</ele><time>2026-04-04T16:00:36.057Z</time></trkpt><trkpt lat="45.8805499" lon="12.4742037"><ele>19.0</ele><time>2026-04-04T16:00:37.056Z</time></trkpt><trkpt lat="45.8805314" lon="12.47405"><ele>19.0</ele><time>2026-04-04T16:00:38.057Z</time></trkpt><trkpt lat="45.8805187" lon="12.4739024"><ele>19.0</ele><time>2026-04-04T16:00:39.057Z</time></trkpt><trkpt lat="45.8805156" lon="12.4737498"><ele>19.0</ele><time>2026-04-04T16:00:40.057Z</time></trkpt><trkpt lat="45.8805201" lon="12.4736231"><ele>19.0</ele><time>2026-04-04T16:00:41.056Z</time></trkpt><trkpt lat="45.8805129" lon="12.4735022"><ele>19.0</ele><time>2026-04-04T16:00:42.056Z</time></trkpt><trkpt lat="45.88048" lon="12.4733919"><ele>19.2</ele><time>2026-04-04T16:00:43.057Z</time></trkpt><trkpt lat="45.8804268" lon="12.4733236"><ele>19.4</ele><time>2026-04-04T16:00:44.056Z</time></trkpt><trkpt lat="45.8803512" lon="12.4732855"><ele>19.6</ele><time>2026-04-04T16:00:45.056Z</time></trkpt><trkpt lat="45.880259" lon="12.4732679"><ele>19.8</ele><time>2026-04-04T16:00:46.056Z</time></trkpt><trkpt lat="45.8801582" lon="12.4732441"><ele>20.0</ele><time>2026-04-04T16:00:47.057Z</time></trkpt><trkpt lat="45.8800391" lon="12.4732073"><ele>20.0</ele><time>2026-04-04T16:00:48.056Z</time></trkpt><trkpt lat="45.879923" lon="12.4731741"><ele>20.0</ele><time>2026-04-04T16:00:49.056Z</time></trkpt><trkpt lat="45.8797939" lon="12.47314"><ele>20.0</ele><time>2026-04-04T16:00:50.056Z</time></trkpt><trkpt lat="45.8796579" lon="12.4731044"><ele>20.0</ele><time>2026-04-04T16:00:51.056Z</time></trkpt><trkpt lat="45.8795167" lon="12.4730685"><ele>20.0</ele><time>2026-04-04T16:00:52.056Z</time></trkpt><trkpt lat="45.8793706" lon="12.4730301"><ele>20.0</ele><time>2026-04-04T16:00:53.056Z</time></trkpt><trkpt lat="45.8792218" lon="12.4729907"><ele>20.0</ele><time>2026-04-04T16:00:54.057Z</time></trkpt><trkpt lat="45.8790733" lon="12.4729538"><ele>19.75</ele><time>2026-04-04T16:00:55.056Z</time></trkpt><trkpt lat="45.8789161" lon="12.4729147"><ele>19.5</ele><time>2026-04-04T16:00:56.057Z</time></trkpt><trkpt lat="45.8787774" lon="12.4728789"><ele>19.25</ele><time>2026-04-04T16:00:57.057Z</time></trkpt><trkpt lat="45.878633" lon="12.4728403"><ele>19.0</ele><time>2026-04-04T16:00:58.057Z</time></trkpt><trkpt lat="45.8784857" lon="12.4727863"><ele>19.0</ele><time>2026-04-04T16:00:59.056Z</time></trkpt><trkpt lat="45.8783609" lon="12.4727162"><ele>19.0</ele><time>2026-04-04T16:01:00.056Z</time></trkpt><trkpt lat="45.8782332" lon="12.4726153"><ele>19.0</ele><time>2026-04-04T16:01:01.056Z</time></trkpt><trkpt lat="45.8781129" lon="12.4724908"><ele>19.0</ele><time>2026-04-04T16:01:02.056Z</time></trkpt><trkpt lat="45.878005" lon="12.472341"><ele>19.0</ele><time>2026-04-04T16:01:03.057Z</time></trkpt><trkpt lat="45.8779066" lon="12.4721554"><ele>19.0</ele><time>2026-04-04T16:01:04.057Z</time></trkpt><trkpt lat="45.8778345" lon="12.4719687"><ele>19.0</ele><time>2026-04-04T16:01:05.057Z</time></trkpt><trkpt lat="45.8777729" lon="12.4717486"><ele>18.333333333333332</ele><time>2026-04-04T16:01:06.056Z</time></trkpt><trkpt lat="45.8777259" lon="12.47151"><ele>17.666666666666668</ele><time>2026-04-04T16:01:07.057Z</time></trkpt><trkpt lat="45.8776852" lon="12.4712595"><ele>17.0</ele><time>2026-04-04T16:01:08.057Z</time></trkpt><trkpt lat="45.8776389" lon="12.4709997"><ele>17.0</ele><time>2026-04-04T16:01:09.056Z</time></trkpt><trkpt lat="45.8775871" lon="12.4707384"><ele>17.0</ele><time>2026-04-04T16:01:10.056Z</time></trkpt><trkpt lat="45.877526" lon="12.470464"><ele>17.0</ele><time>2026-04-04T16:01:11.057Z</time></trkpt><trkpt lat="45.8774449" lon="12.4701458"><ele>17.0</ele><time>2026-04-04T16:01:12.057Z</time></trkpt><trkpt lat="45.8773693" lon="12.4698343"><ele>17.0</ele><time>2026-04-04T16:01:13.057Z</time></trkpt><trkpt lat="45.8772983" lon="12.4694845"><ele>17.5</ele><time>2026-04-04T16:01:14.057Z</time></trkpt><trkpt lat="45.8772258" lon="12.4691229"><ele>18.0</ele><time>2026-04-04T16:01:15.057Z</time></trkpt><trkpt lat="45.8771597" lon="12.468817"><ele>18.0</ele><time>2026-04-04T16:01:16.056Z</time></trkpt><trkpt lat="45.8770918" lon="12.4685128"><ele>18.0</ele><time>2026-04-04T16:01:17.056Z</time></trkpt><trkpt lat="45.8770243" lon="12.4682248"><ele>18.0</ele><time>2026-04-04T16:01:18.056Z</time></trkpt><trkpt lat="45.8769577" lon="12.4679575"><ele>18.0</ele><time>2026-04-04T16:01:19.057Z</time></trkpt><trkpt lat="45.8768927" lon="12.4677084"><ele>18.0</ele><time>2026-04-04T16:01:20.057Z</time></trkpt><trkpt lat="45.8768411" lon="12.4675165"><ele>18.0</ele><time>2026-04-04T16:01:21.057Z</time></trkpt><trkpt lat="45.8767911" lon="12.4673335"><ele>18.0</ele><time>2026-04-04T16:01:22.056Z</time></trkpt><trkpt lat="45.8767554" lon="12.467177"><ele>18.0</ele><time>2026-04-04T16:01:23.056Z</time></trkpt><trkpt lat="45.8767357" lon="12.4670324"><ele>18.0</ele><time>2026-04-04T16:01:24.056Z</time></trkpt><trkpt lat="45.8767357" lon="12.466883"><ele>18.0</ele><time>2026-04-04T16:01:25.056Z</time></trkpt><trkpt lat="45.8767454" lon="12.4667345"><ele>18.0</ele><time>2026-04-04T16:01:26.056Z</time></trkpt><trkpt lat="45.876737" lon="12.4665894"><ele>18.0</ele><time>2026-04-04T16:01:27.057Z</time></trkpt><trkpt lat="45.8766976" lon="12.466447"><ele>18.0</ele><time>2026-04-04T16:01:28.056Z</time></trkpt><trkpt lat="45.8766359" lon="12.4663441"><ele>18.0</ele><time>2026-04-04T16:01:29.057Z</time></trkpt><trkpt lat="45.8765533" lon="12.4662505"><ele>18.0</ele><time>2026-04-04T16:01:30.056Z</time></trkpt><trkpt lat="45.8764699" lon="12.4661301"><ele>18.0</ele><time>2026-04-04T16:01:31.057Z</time></trkpt><trkpt lat="45.8764116" lon="12.4659843"><ele>18.0</ele><time>2026-04-04T16:01:32.056Z</time></trkpt><trkpt lat="45.8763644" lon="12.4657877"><ele>18.0</ele><time>2026-04-04T16:01:33.057Z</time></trkpt><trkpt lat="45.8763337" lon="12.4655559"><ele>18.0</ele><time>2026-04-04T16:01:34.057Z</time></trkpt><trkpt lat="45.8763118" lon="12.4652942"><ele>18.0</ele><time>2026-04-04T16:01:35.056Z</time></trkpt><trkpt lat="45.8762913" lon="12.465011"><ele>18.0</ele><time>2026-04-04T16:01:36.056Z</time></trkpt><trkpt lat="45.8762705" lon="12.4647098"><ele>18.0</ele><time>2026-04-04T16:01:37.057Z</time></trkpt><trkpt lat="45.8762495" lon="12.4643937"><ele>18.0</ele><time>2026-04-04T16:01:38.057Z</time></trkpt><trkpt lat="45.8762281" lon="12.4640774"><ele>18.0</ele><time>2026-04-04T16:01:39.057Z</time></trkpt><trkpt lat="45.8762105" lon="12.4637564"><ele>18.0</ele><time>2026-04-04T16:01:40.056Z</time></trkpt><trkpt lat="45.8761875" lon="12.4634377"><ele>17.666666666666668</ele><time>2026-04-04T16:01:41.056Z</time></trkpt><trkpt lat="45.8761658" lon="12.4631209"><ele>17.333333333333336</ele><time>2026-04-04T16:01:42.057Z</time></trkpt><trkpt lat="45.8761467" lon="12.4628062"><ele>17.0</ele><time>2026-04-04T16:01:43.056Z</time></trkpt><trkpt lat="45.8761305" lon="12.4624762"><ele>17.0</ele><time>2026-04-04T16:01:44.057Z</time></trkpt><trkpt lat="45.876122" lon="12.4621888"><ele>17.0</ele><time>2026-04-04T16:01:45.056Z</time></trkpt><trkpt lat="45.8761222" lon="12.4618888"><ele>17.0</ele><time>2026-04-04T16:01:46.057Z</time></trkpt><trkpt lat="45.8761312" lon="12.4615731"><ele>17.0</ele><time>2026-04-04T16:01:47.057Z</time></trkpt><trkpt lat="45.8761437" lon="12.4612945"><ele>17.0</ele><time>2026-04-04T16:01:48.056Z</time></trkpt><trkpt lat="45.8761585" lon="12.461"><ele>17.0</ele><time>2026-04-04T16:01:49.056Z</time></trkpt><trkpt lat="45.8761732" lon="12.4607076"><ele>17.666666666666668</ele><time>2026-04-04T16:01:50.057Z</time></trkpt><trkpt lat="45.8761898" lon="12.4604302"><ele>18.333333333333332</ele><time>2026-04-04T16:01:51.057Z</time></trkpt><trkpt lat="45.8762018" lon="12.4601625"><ele>19.0</ele><time>2026-04-04T16:01:52.056Z</time></trkpt><trkpt lat="45.876213" lon="12.459899"><ele>19.0</ele><time>2026-04-04T16:01:53.056Z</time></trkpt><trkpt lat="45.8762266" lon="12.4596395"><ele>19.0</ele><time>2026-04-04T16:01:54.056Z</time></trkpt><trkpt lat="45.8762381" lon="12.4593821"><ele>19.0</ele><time>2026-04-04T16:01:55.057Z</time></trkpt><trkpt lat="45.8762485" lon="12.4591197"><ele>19.0</ele><time>2026-04-04T16:01:56.057Z</time></trkpt><trkpt lat="45.8762581" lon="12.4588571"><ele>19.0</ele><time>2026-04-04T16:01:57.057Z</time></trkpt><trkpt lat="45.8762627" lon="12.4585915"><ele>19.0</ele><time>2026-04-04T16:01:58.057Z</time></trkpt><trkpt lat="45.8762569" lon="12.4583277"><ele>18.666666666666664</ele><time>2026-04-04T16:01:59.056Z</time></trkpt><trkpt lat="45.8762328" lon="12.458061"><ele>18.333333333333332</ele><time>2026-04-04T16:02:00.056Z</time></trkpt><trkpt lat="45.8761921" lon="12.457844"><ele>18.0</ele><time>2026-04-04T16:02:01.056Z</time></trkpt><trkpt lat="45.876131" lon="12.4576254"><ele>18.0</ele><time>2026-04-04T16:02:02.056Z</time></trkpt><trkpt lat="45.8760443" lon="12.4573999"><ele>18.0</ele><time>2026-04-04T16:02:03.056Z</time></trkpt><trkpt lat="45.8759499" lon="12.4572082"><ele>18.0</ele><time>2026-04-04T16:02:04.057Z</time></trkpt><trkpt lat="45.8758396" lon="12.457013"><ele>18.333333333333332</ele><time>2026-04-04T16:02:05.057Z</time></trkpt><trkpt lat="45.8757269" lon="12.4568212"><ele>18.666666666666664</ele><time>2026-04-04T16:02:06.056Z</time></trkpt><trkpt lat="45.8756171" lon="12.4566325"><ele>19.0</ele><time>2026-04-04T16:02:07.057Z</time></trkpt><trkpt lat="45.8755073" lon="12.4564481"><ele>19.666666666666664</ele><time>2026-04-04T16:02:08.056Z</time></trkpt><trkpt lat="45.8753978" lon="12.4562669"><ele>20.333333333333332</ele><time>2026-04-04T16:02:09.057Z</time></trkpt><trkpt lat="45.8752914" lon="12.4560908"><ele>21.0</ele><time>2026-04-04T16:02:10.057Z</time></trkpt><trkpt lat="45.8751895" lon="12.4559201"><ele>21.0</ele><time>2026-04-04T16:02:11.057Z</time></trkpt><trkpt lat="45.8750891" lon="12.4557507"><ele>21.0</ele><time>2026-04-04T16:02:12.057Z</time></trkpt><trkpt lat="45.874992" lon="12.4555868"><ele>21.0</ele><time>2026-04-04T16:02:13.057Z</time></trkpt><trkpt lat="45.8748966" lon="12.4554271"><ele>20.75</ele><time>2026-04-04T16:02:14.056Z</time></trkpt><trkpt lat="45.8748055" lon="12.4552743"><ele>20.5</ele><time>2026-04-04T16:02:15.057Z</time></trkpt><trkpt lat="45.8747162" lon="12.4551243"><ele>20.25</ele><time>2026-04-04T16:02:16.056Z</time></trkpt><trkpt lat="45.874633" lon="12.4549847"><ele>20.0</ele><time>2026-04-04T16:02:17.057Z</time></trkpt><trkpt lat="45.8745415" lon="12.4548333"><ele>20.0</ele><time>2026-04-04T16:02:18.057Z</time></trkpt><trkpt lat="45.8744555" lon="12.454693"><ele>20.0</ele><time>2026-04-04T16:02:19.056Z</time></trkpt><trkpt lat="45.8743768" lon="12.454564"><ele>20.0</ele><time>2026-04-04T16:02:20.056Z</time></trkpt><trkpt lat="45.8742869" lon="12.4544206"><ele>20.0</ele><time>2026-04-04T16:02:21.056Z</time></trkpt><trkpt lat="45.8742057" lon="12.4543022"><ele>20.25</ele><time>2026-04-04T16:02:22.056Z</time></trkpt><trkpt lat="45.8741041" lon="12.4541806"><ele>20.5</ele><time>2026-04-04T16:02:23.056Z</time></trkpt><trkpt lat="45.8739979" lon="12.4540838"><ele>20.75</ele><time>2026-04-04T16:02:24.057Z</time></trkpt><trkpt lat="45.8738914" lon="12.4540106"><ele>21.0</ele><time>2026-04-04T16:02:25.057Z</time></trkpt><trkpt lat="45.8737628" lon="12.4539436"><ele>21.0</ele><time>2026-04-04T16:02:26.057Z</time></trkpt><trkpt lat="45.8736465" lon="12.4538956"><ele>21.0</ele><time>2026-04-04T16:02:27.056Z</time></trkpt><trkpt lat="45.8735196" lon="12.4538502"><ele>21.0</ele><time>2026-04-04T16:02:28.056Z</time></trkpt><trkpt lat="45.8733835" lon="12.4538037"><ele>21.0</ele><time>2026-04-04T16:02:29.057Z</time></trkpt><trkpt lat="45.8732637" lon="12.4537626"><ele>21.0</ele><time>2026-04-04T16:02:30.056Z</time></trkpt><trkpt lat="45.8731257" lon="12.453716"><ele>21.0</ele><time>2026-04-04T16:02:31.056Z</time></trkpt><trkpt lat="45.8729961" lon="12.4536713"><ele>21.0</ele><time>2026-04-04T16:02:32.056Z</time></trkpt><trkpt lat="45.8728747" lon="12.4536304"><ele>21.0</ele><time>2026-04-04T16:02:33.056Z</time></trkpt><trkpt lat="45.8727361" lon="12.4535846"><ele>20.5</ele><time>2026-04-04T16:02:34.056Z</time></trkpt><trkpt lat="45.872602" lon="12.45354"><ele>20.0</ele><time>2026-04-04T16:02:35.056Z</time></trkpt><trkpt lat="45.8724734" lon="12.4534977"><ele>19.5</ele><time>2026-04-04T16:02:36.056Z</time></trkpt><trkpt lat="45.8723243" lon="12.4534504"><ele>19.0</ele><time>2026-04-04T16:02:37.057Z</time></trkpt><trkpt lat="45.8721878" lon="12.4534086"><ele>19.0</ele><time>2026-04-04T16:02:38.056Z</time></trkpt><trkpt lat="45.8720332" lon="12.4533606"><ele>19.0</ele><time>2026-04-04T16:02:39.057Z</time></trkpt><trkpt lat="45.8718948" lon="12.4533181"><ele>19.0</ele><time>2026-04-04T16:02:40.057Z</time></trkpt><trkpt lat="45.8717747" lon="12.4532834"><ele>19.0</ele><time>2026-04-04T16:02:41.057Z</time></trkpt><trkpt lat="45.8716482" lon="12.4532471"><ele>19.6</ele><time>2026-04-04T16:02:42.057Z</time></trkpt><trkpt lat="45.8715463" lon="12.4532168"><ele>20.2</ele><time>2026-04-04T16:02:43.057Z</time></trkpt><trkpt lat="45.8714459" lon="12.4531864"><ele>20.8</ele><time>2026-04-04T16:02:44.057Z</time></trkpt><trkpt lat="45.8713484" lon="12.4531546"><ele>21.400000000000002</ele><time>2026-04-04T16:02:45.056Z</time></trkpt><trkpt lat="45.8712703" lon="12.4531228"><ele>22.0</ele><time>2026-04-04T16:02:46.056Z</time></trkpt><trkpt lat="45.8711899" lon="12.4530837"><ele>22.0</ele><time>2026-04-04T16:02:47.057Z</time></trkpt><trkpt lat="45.8711017" lon="12.4530271"><ele>22.0</ele><time>2026-04-04T16:02:49.057Z</time></trkpt><trkpt lat="45.8710268" lon="12.4529582"><ele>22.0</ele><time>2026-04-04T16:02:52.057Z</time></trkpt><trkpt lat="45.8709243" lon="12.4528983"><ele>22.0</ele><time>2026-04-04T16:02:54.056Z</time></trkpt><trkpt lat="45.8708606" lon="12.4529085"><ele>22.0</ele><time>2026-04-04T16:02:55.056Z</time></trkpt><trkpt lat="45.8707842" lon="12.4529249"><ele>22.0</ele><time>2026-04-04T16:02:56.057Z</time></trkpt><trkpt lat="45.8706923" lon="12.4529279"><ele>22.0</ele><time>2026-04-04T16:02:57.056Z</time></trkpt><trkpt lat="45.8705832" lon="12.4529127"><ele>22.0</ele><time>2026-04-04T16:02:58.057Z</time></trkpt><trkpt lat="45.8704625" lon="12.4528859"><ele>22.0</ele><time>2026-04-04T16:02:59.057Z</time></trkpt><trkpt lat="45.8703307" lon="12.4528467"><ele>22.0</ele><time>2026-04-04T16:03:00.057Z</time></trkpt><trkpt lat="45.8701907" lon="12.4527993"><ele>22.0</ele><time>2026-04-04T16:03:01.056Z</time></trkpt><trkpt lat="45.8700426" lon="12.4527449"><ele>22.0</ele><time>2026-04-04T16:03:02.056Z</time></trkpt><trkpt lat="45.8698914" lon="12.4526791"><ele>22.0</ele><time>2026-04-04T16:03:03.056Z</time></trkpt><trkpt lat="45.8697382" lon="12.4525968"><ele>22.0</ele><time>2026-04-04T16:03:04.057Z</time></trkpt><trkpt lat="45.8695863" lon="12.4524967"><ele>22.0</ele><time>2026-04-04T16:03:05.056Z</time></trkpt><trkpt lat="45.8694351" lon="12.4523811"><ele>22.0</ele><time>2026-04-04T16:03:06.056Z</time></trkpt><trkpt lat="45.8692771" lon="12.452244"><ele>21.0</ele><time>2026-04-04T16:03:07.056Z</time></trkpt><trkpt lat="45.8691406" lon="12.4521148"><ele>20.0</ele><time>2026-04-04T16:03:08.057Z</time></trkpt><trkpt lat="45.868996" lon="12.4519715"><ele>19.0</ele><time>2026-04-04T16:03:09.057Z</time></trkpt><trkpt lat="45.8688511" lon="12.4518243"><ele>19.0</ele><time>2026-04-04T16:03:10.057Z</time></trkpt><trkpt lat="45.8687084" lon="12.4516791"><ele>19.0</ele><time>2026-04-04T16:03:11.057Z</time></trkpt><trkpt lat="45.8685674" lon="12.4515362"><ele>19.0</ele><time>2026-04-04T16:03:12.057Z</time></trkpt><trkpt lat="45.8684272" lon="12.4513949"><ele>19.333333333333332</ele><time>2026-04-04T16:03:13.056Z</time></trkpt><trkpt lat="45.8682866" lon="12.4512542"><ele>19.666666666666668</ele><time>2026-04-04T16:03:14.056Z</time></trkpt><trkpt lat="45.8681465" lon="12.4511145"><ele>20.0</ele><time>2026-04-04T16:03:15.057Z</time></trkpt><trkpt lat="45.8680069" lon="12.4509725"><ele>20.0</ele><time>2026-04-04T16:03:16.057Z</time></trkpt><trkpt lat="45.8678669" lon="12.4508284"><ele>20.0</ele><time>2026-04-04T16:03:17.056Z</time></trkpt><trkpt lat="45.8677268" lon="12.4506827"><ele>20.0</ele><time>2026-04-04T16:03:18.056Z</time></trkpt><trkpt lat="45.8675921" lon="12.4505322"><ele>20.0</ele><time>2026-04-04T16:03:19.057Z</time></trkpt><trkpt lat="45.8674647" lon="12.4503701"><ele>20.0</ele><time>2026-04-04T16:03:20.056Z</time></trkpt><trkpt lat="45.8673475" lon="12.4501929"><ele>20.0</ele><time>2026-04-04T16:03:21.056Z</time></trkpt><trkpt lat="45.8672412" lon="12.4499972"><ele>20.0</ele><time>2026-04-04T16:03:22.057Z</time></trkpt><trkpt lat="45.8671421" lon="12.4497683"><ele>20.0</ele><time>2026-04-04T16:03:23.057Z</time></trkpt><trkpt lat="45.8670669" lon="12.4495479"><ele>20.0</ele><time>2026-04-04T16:03:24.057Z</time></trkpt><trkpt lat="45.8670008" lon="12.4492977"><ele>20.0</ele><time>2026-04-04T16:03:25.056Z</time></trkpt><trkpt lat="45.8669502" lon="12.4490348"><ele>20.0</ele><time>2026-04-04T16:03:26.057Z</time></trkpt><trkpt lat="45.8669124" lon="12.4487624"><ele>20.0</ele><time>2026-04-04T16:03:27.056Z</time></trkpt><trkpt lat="45.8668826" lon="12.4484932"><ele>19.666666666666668</ele><time>2026-04-04T16:03:28.057Z</time></trkpt><trkpt lat="45.8668553" lon="12.44823"><ele>19.333333333333332</ele><time>2026-04-04T16:03:29.056Z</time></trkpt><trkpt lat="45.8668282" lon="12.4479702"><ele>19.0</ele><time>2026-04-04T16:03:30.057Z</time></trkpt><trkpt lat="45.8667986" lon="12.4477121"><ele>19.0</ele><time>2026-04-04T16:03:31.056Z</time></trkpt><trkpt lat="45.8667692" lon="12.4474526"><ele>19.0</ele><time>2026-04-04T16:03:32.056Z</time></trkpt><trkpt lat="45.8667401" lon="12.4471924"><ele>19.0</ele><time>2026-04-04T16:03:33.057Z</time></trkpt><trkpt lat="45.8667106" lon="12.4469287"><ele>19.0</ele><time>2026-04-04T16:03:34.057Z</time></trkpt><trkpt lat="45.8666818" lon="12.4466646"><ele>19.0</ele><time>2026-04-04T16:03:35.056Z</time></trkpt><trkpt lat="45.8666514" lon="12.4464025"><ele>19.0</ele><time>2026-04-04T16:03:36.056Z</time></trkpt><trkpt lat="45.8666205" lon="12.4461411"><ele>19.0</ele><time>2026-04-04T16:03:37.057Z</time></trkpt><trkpt lat="45.8665903" lon="12.4458826"><ele>19.0</ele><time>2026-04-04T16:03:38.056Z</time></trkpt><trkpt lat="45.8665595" lon="12.4456135"><ele>19.0</ele><time>2026-04-04T16:03:39.056Z</time></trkpt><trkpt lat="45.8665328" lon="12.4453815"><ele>19.0</ele><time>2026-04-04T16:03:40.056Z</time></trkpt><trkpt lat="45.8665048" lon="12.445137"><ele>19.0</ele><time>2026-04-04T16:03:41.057Z</time></trkpt><trkpt lat="45.8664762" lon="12.4448903"><ele>19.0</ele><time>2026-04-04T16:03:42.056Z</time></trkpt><trkpt lat="45.8664487" lon="12.4446533"><ele>19.0</ele><time>2026-04-04T16:03:43.056Z</time></trkpt><trkpt lat="45.8664188" lon="12.4443909"><ele>19.0</ele><time>2026-04-04T16:03:44.056Z</time></trkpt><trkpt lat="45.8663932" lon="12.4441611"><ele>19.0</ele><time>2026-04-04T16:03:45.057Z</time></trkpt><trkpt lat="45.8663638" lon="12.4439021"><ele>19.666666666666664</ele><time>2026-04-04T16:03:46.056Z</time></trkpt><trkpt lat="45.8663401" lon="12.4436847"><ele>20.333333333333332</ele><time>2026-04-04T16:03:47.056Z</time></trkpt><trkpt lat="45.8663176" lon="12.4434673"><ele>21.0</ele><time>2026-04-04T16:03:48.056Z</time></trkpt><trkpt lat="45.8662958" lon="12.4432568"><ele>21.0</ele><time>2026-04-04T16:03:49.056Z</time></trkpt><trkpt lat="45.8662795" lon="12.4430994"><ele>21.0</ele><time>2026-04-04T16:03:50.056Z</time></trkpt><trkpt lat="45.8662651" lon="12.442941"><ele>21.0</ele><time>2026-04-04T16:03:51.056Z</time></trkpt><trkpt lat="45.8662495" lon="12.4427875"><ele>21.0</ele><time>2026-04-04T16:03:52.057Z</time></trkpt><trkpt lat="45.8662263" lon="12.4426371"><ele>21.0</ele><time>2026-04-04T16:03:53.056Z</time></trkpt><trkpt lat="45.8661939" lon="12.442452"><ele>21.0</ele><time>2026-04-04T16:03:54.056Z</time></trkpt><trkpt lat="45.8661713" lon="12.4422613"><ele>21.0</ele><time>2026-04-04T16:03:55.056Z</time></trkpt><trkpt lat="45.8661645" lon="12.4420717"><ele>21.0</ele><time>2026-04-04T16:03:56.057Z</time></trkpt><trkpt lat="45.8661704" lon="12.4418403"><ele>21.0</ele><time>2026-04-04T16:03:57.056Z</time></trkpt><trkpt lat="45.866183" lon="12.4416267"><ele>21.666666666666668</ele><time>2026-04-04T16:03:58.056Z</time></trkpt><trkpt lat="45.8662009" lon="12.4413702"><ele>22.333333333333336</ele><time>2026-04-04T16:03:59.057Z</time></trkpt><trkpt lat="45.8662214" lon="12.4411201"><ele>23.0</ele><time>2026-04-04T16:04:00.056Z</time></trkpt><trkpt lat="45.8662417" lon="12.4408792"><ele>23.0</ele><time>2026-04-04T16:04:01.056Z</time></trkpt><trkpt lat="45.8662654" lon="12.4406023"><ele>23.0</ele><time>2026-04-04T16:04:02.056Z</time></trkpt><trkpt lat="45.8662865" lon="12.440357"><ele>23.0</ele><time>2026-04-04T16:04:03.056Z</time></trkpt><trkpt lat="45.8663093" lon="12.4400935"><ele>23.0</ele><time>2026-04-04T16:04:04.057Z</time></trkpt><trkpt lat="45.8663332" lon="12.439813"><ele>23.0</ele><time>2026-04-04T16:04:05.056Z</time></trkpt><trkpt lat="45.866354" lon="12.4395664"><ele>23.0</ele><time>2026-04-04T16:04:06.056Z</time></trkpt><trkpt lat="45.8663773" lon="12.4393025"><ele>23.0</ele><time>2026-04-04T16:04:07.056Z</time></trkpt><trkpt lat="45.8664005" lon="12.4390241"><ele>23.0</ele><time>2026-04-04T16:04:08.056Z</time></trkpt><trkpt lat="45.8664201" lon="12.4387781"><ele>23.0</ele><time>2026-04-04T16:04:09.057Z</time></trkpt><trkpt lat="45.8664414" lon="12.4385001"><ele>23.666666666666668</ele><time>2026-04-04T16:04:10.057Z</time></trkpt><trkpt lat="45.8664617" lon="12.4382376"><ele>24.333333333333336</ele><time>2026-04-04T16:04:11.056Z</time></trkpt><trkpt lat="45.8664801" lon="12.4379936"><ele>25.0</ele><time>2026-04-04T16:04:12.056Z</time></trkpt><trkpt lat="45.8664996" lon="12.4377162"><ele>25.0</ele><time>2026-04-04T16:04:13.057Z</time></trkpt><trkpt lat="45.8665165" lon="12.4374741"><ele>25.0</ele><time>2026-04-04T16:04:14.057Z</time></trkpt><trkpt lat="45.8665353" lon="12.4372015"><ele>25.0</ele><time>2026-04-04T16:04:15.057Z</time></trkpt><trkpt lat="45.8665535" lon="12.4369532"><ele>24.666666666666668</ele><time>2026-04-04T16:04:16.056Z</time></trkpt><trkpt lat="45.8665727" lon="12.4367275"><ele>24.333333333333336</ele><time>2026-04-04T16:04:17.057Z</time></trkpt><trkpt lat="45.8665978" lon="12.4364901"><ele>24.0</ele><time>2026-04-04T16:04:18.057Z</time></trkpt><trkpt lat="45.8666223" lon="12.4362893"><ele>24.0</ele><time>2026-04-04T16:04:19.057Z</time></trkpt><trkpt lat="45.8666469" lon="12.4360875"><ele>24.0</ele><time>2026-04-04T16:04:20.057Z</time></trkpt><trkpt lat="45.8666675" lon="12.4358822"><ele>24.0</ele><time>2026-04-04T16:04:21.057Z</time></trkpt><trkpt lat="45.8666799" lon="12.435721"><ele>24.0</ele><time>2026-04-04T16:04:22.057Z</time></trkpt><trkpt lat="45.8666874" lon="12.435559"><ele>24.25</ele><time>2026-04-04T16:04:23.056Z</time></trkpt><trkpt lat="45.8666985" lon="12.435385"><ele>24.5</ele><time>2026-04-04T16:04:24.057Z</time></trkpt><trkpt lat="45.8667151" lon="12.4352228"><ele>24.75</ele><time>2026-04-04T16:04:25.056Z</time></trkpt><trkpt lat="45.8667345" lon="12.4350234"><ele>25.0</ele><time>2026-04-04T16:04:26.057Z</time></trkpt><trkpt lat="45.8667518" lon="12.434826"><ele>25.0</ele><time>2026-04-04T16:04:27.056Z</time></trkpt><trkpt lat="45.8667682" lon="12.4346406"><ele>25.0</ele><time>2026-04-04T16:04:28.056Z</time></trkpt><trkpt lat="45.8667902" lon="12.4344287"><ele>25.0</ele><time>2026-04-04T16:04:29.056Z</time></trkpt><trkpt lat="45.8668172" lon="12.4342451"><ele>25.0</ele><time>2026-04-04T16:04:30.056Z</time></trkpt><trkpt lat="45.8668539" lon="12.4340499"><ele>24.75</ele><time>2026-04-04T16:04:31.056Z</time></trkpt><trkpt lat="45.8669041" lon="12.4338468"><ele>24.5</ele><time>2026-04-04T16:04:32.057Z</time></trkpt><trkpt lat="45.8669587" lon="12.4336708"><ele>24.25</ele><time>2026-04-04T16:04:33.057Z</time></trkpt><trkpt lat="45.8670303" lon="12.4334737"><ele>24.0</ele><time>2026-04-04T16:04:34.056Z</time></trkpt><trkpt lat="45.867101" lon="12.4333086"><ele>24.0</ele><time>2026-04-04T16:04:35.056Z</time></trkpt><trkpt lat="45.8671848" lon="12.4331383"><ele>24.0</ele><time>2026-04-04T16:04:36.056Z</time></trkpt><trkpt lat="45.8672832" lon="12.4329644"><ele>24.0</ele><time>2026-04-04T16:04:37.057Z</time></trkpt><trkpt lat="45.8673764" lon="12.4328192"><ele>24.0</ele><time>2026-04-04T16:04:38.056Z</time></trkpt><trkpt lat="45.8674802" lon="12.4326648"><ele>24.0</ele><time>2026-04-04T16:04:39.056Z</time></trkpt><trkpt lat="45.8675932" lon="12.4325047"><ele>24.0</ele><time>2026-04-04T16:04:40.056Z</time></trkpt><trkpt lat="45.8676966" lon="12.432367"><ele>24.0</ele><time>2026-04-04T16:04:41.057Z</time></trkpt><trkpt lat="45.8678157" lon="12.4322128"><ele>24.333333333333336</ele><time>2026-04-04T16:04:42.057Z</time></trkpt><trkpt lat="45.8679282" lon="12.4320698"><ele>24.666666666666668</ele><time>2026-04-04T16:04:43.056Z</time></trkpt><trkpt lat="45.8680353" lon="12.431935"><ele>25.0</ele><time>2026-04-04T16:04:44.056Z</time></trkpt><trkpt lat="45.8681588" lon="12.4317831"><ele>25.0</ele><time>2026-04-04T16:04:45.056Z</time></trkpt><trkpt lat="45.8682686" lon="12.4316522"><ele>25.0</ele><time>2026-04-04T16:04:46.056Z</time></trkpt><trkpt lat="45.8683938" lon="12.431509"><ele>25.0</ele><time>2026-04-04T16:04:47.056Z</time></trkpt><trkpt lat="45.8685128" lon="12.4313784"><ele>25.0</ele><time>2026-04-04T16:04:48.057Z</time></trkpt><trkpt lat="45.868623" lon="12.4312654"><ele>25.0</ele><time>2026-04-04T16:04:49.057Z</time></trkpt><trkpt lat="45.8687501" lon="12.4311444"><ele>25.0</ele><time>2026-04-04T16:04:50.057Z</time></trkpt><trkpt lat="45.8688617" lon="12.4310491"><ele>25.0</ele><time>2026-04-04T16:04:51.057Z</time></trkpt><trkpt lat="45.8689769" lon="12.4309597"><ele>25.0</ele><time>2026-04-04T16:04:52.057Z</time></trkpt><trkpt lat="45.8690984" lon="12.4308683"><ele>25.0</ele><time>2026-04-04T16:04:53.057Z</time></trkpt><trkpt lat="45.8692079" lon="12.4307874"><ele>25.0</ele><time>2026-04-04T16:04:54.057Z</time></trkpt><trkpt lat="45.8693364" lon="12.4306911"><ele>25.0</ele><time>2026-04-04T16:04:55.057Z</time></trkpt><trkpt lat="45.8694614" lon="12.4305915"><ele>25.0</ele><time>2026-04-04T16:04:56.056Z</time></trkpt><trkpt lat="45.8695773" lon="12.4304885"><ele>25.0</ele><time>2026-04-04T16:04:57.057Z</time></trkpt><trkpt lat="45.8697025" lon="12.4303561"><ele>25.0</ele><time>2026-04-04T16:04:58.056Z</time></trkpt><trkpt lat="45.8698089" lon="12.430227"><ele>25.0</ele><time>2026-04-04T16:04:59.056Z</time></trkpt><trkpt lat="45.8699" lon="12.4301091"><ele>25.2</ele><time>2026-04-04T16:05:00.056Z</time></trkpt><trkpt lat="45.8699959" lon="12.4299822"><ele>25.4</ele><time>2026-04-04T16:05:01.056Z</time></trkpt><trkpt lat="45.8700753" lon="12.4298806"><ele>25.6</ele><time>2026-04-04T16:05:02.057Z</time></trkpt><trkpt lat="45.8701632" lon="12.4297786"><ele>25.8</ele><time>2026-04-04T16:05:03.057Z</time></trkpt><trkpt lat="45.8702447" lon="12.4297013"><ele>26.0</ele><time>2026-04-04T16:05:04.057Z</time></trkpt><trkpt lat="45.8703185" lon="12.4296436"><ele>26.166666666666664</ele><time>2026-04-04T16:05:05.056Z</time></trkpt><trkpt lat="45.870393" lon="12.4295717"><ele>26.333333333333332</ele><time>2026-04-04T16:05:06.057Z</time></trkpt><trkpt lat="45.870446" lon="12.4294948"><ele>26.5</ele><time>2026-04-04T16:05:07.057Z</time></trkpt><trkpt lat="45.8704896" lon="12.4294089"><ele>26.666666666666664</ele><time>2026-04-04T16:05:08.056Z</time></trkpt><trkpt lat="45.8705169" lon="12.4293089"><ele>26.833333333333332</ele><time>2026-04-04T16:05:09.056Z</time></trkpt><trkpt lat="45.8705166" lon="12.4292107"><ele>27.0</ele><time>2026-04-04T16:05:10.056Z</time></trkpt><trkpt lat="45.8704871" lon="12.4291088"><ele>27.0</ele><time>2026-04-04T16:05:11.057Z</time></trkpt><trkpt lat="45.8704297" lon="12.4290108"><ele>27.000000000000004</ele><time>2026-04-04T16:05:12.057Z</time></trkpt><trkpt lat="45.8703685" lon="12.4289196"><ele>27.000000000000004</ele><time>2026-04-04T16:05:13.056Z</time></trkpt><trkpt lat="45.8702945" lon="12.4288022"><ele>27.0</ele><time>2026-04-04T16:05:14.057Z</time></trkpt><trkpt lat="45.8702206" lon="12.4286764"><ele>27.0</ele><time>2026-04-04T16:05:15.056Z</time></trkpt><trkpt lat="45.8701438" lon="12.4285397"><ele>26.75</ele><time>2026-04-04T16:05:16.056Z</time></trkpt><trkpt lat="45.8700582" lon="12.428388"><ele>26.5</ele><time>2026-04-04T16:05:17.057Z</time></trkpt><trkpt lat="45.8699774" lon="12.4282467"><ele>26.25</ele><time>2026-04-04T16:05:18.056Z</time></trkpt><trkpt lat="45.8698825" lon="12.4280783"><ele>26.0</ele><time>2026-04-04T16:05:19.057Z</time></trkpt><trkpt lat="45.8697908" lon="12.4279143"><ele>25.75</ele><time>2026-04-04T16:05:20.057Z</time></trkpt><trkpt lat="45.869705" lon="12.4277587"><ele>25.5</ele><time>2026-04-04T16:05:21.056Z</time></trkpt><trkpt lat="45.869606" lon="12.4275786"><ele>25.25</ele><time>2026-04-04T16:05:22.057Z</time></trkpt><trkpt lat="45.8695172" lon="12.4274177"><ele>25.0</ele><time>2026-04-04T16:05:23.056Z</time></trkpt><trkpt lat="45.869421" lon="12.4272428"><ele>24.666666666666668</ele><time>2026-04-04T16:05:24.056Z</time></trkpt><trkpt lat="45.8693161" lon="12.4270523"><ele>24.333333333333336</ele><time>2026-04-04T16:05:25.056Z</time></trkpt><trkpt lat="45.869223" lon="12.4268816"><ele>24.0</ele><time>2026-04-04T16:05:26.057Z</time></trkpt><trkpt lat="45.8691202" lon="12.4266951"><ele>24.0</ele><time>2026-04-04T16:05:27.057Z</time></trkpt><trkpt lat="45.86901" lon="12.4264941"><ele>24.0</ele><time>2026-04-04T16:05:28.056Z</time></trkpt><trkpt lat="45.8689113" lon="12.4263142"><ele>24.0</ele><time>2026-04-04T16:05:29.056Z</time></trkpt><trkpt lat="45.8687977" lon="12.4261067"><ele>24.0</ele><time>2026-04-04T16:05:30.056Z</time></trkpt><trkpt lat="45.8686896" lon="12.4259089"><ele>24.0</ele><time>2026-04-04T16:05:31.056Z</time></trkpt><trkpt lat="45.8685858" lon="12.4257202"><ele>24.0</ele><time>2026-04-04T16:05:32.056Z</time></trkpt><trkpt lat="45.8684669" lon="12.4255051"><ele>24.333333333333336</ele><time>2026-04-04T16:05:33.057Z</time></trkpt><trkpt lat="45.8683606" lon="12.4253134"><ele>24.666666666666668</ele><time>2026-04-04T16:05:34.056Z</time></trkpt><trkpt lat="45.8682446" lon="12.4251032"><ele>25.0</ele><time>2026-04-04T16:05:35.056Z</time></trkpt><trkpt lat="45.8681202" lon="12.4248793"><ele>25.0</ele><time>2026-04-04T16:05:36.056Z</time></trkpt><trkpt lat="45.8680096" lon="12.4246805"><ele>25.0</ele><time>2026-04-04T16:05:37.056Z</time></trkpt><trkpt lat="45.8678842" lon="12.4244554"><ele>25.0</ele><time>2026-04-04T16:05:38.057Z</time></trkpt><trkpt lat="45.8677738" lon="12.4242556"><ele>24.666666666666668</ele><time>2026-04-04T16:05:39.057Z</time></trkpt><trkpt lat="45.8676566" lon="12.4240424"><ele>24.333333333333336</ele><time>2026-04-04T16:05:40.057Z</time></trkpt><trkpt lat="45.8675322" lon="12.4238163"><ele>24.0</ele><time>2026-04-04T16:05:41.057Z</time></trkpt><trkpt lat="45.8674227" lon="12.4236173"><ele>24.0</ele><time>2026-04-04T16:05:42.056Z</time></trkpt><trkpt lat="45.8672986" lon="12.4233916"><ele>24.0</ele><time>2026-04-04T16:05:43.056Z</time></trkpt><trkpt lat="45.8671802" lon="12.4231792"><ele>24.0</ele><time>2026-04-04T16:05:44.056Z</time></trkpt><trkpt lat="45.8670706" lon="12.4229821"><ele>24.0</ele><time>2026-04-04T16:05:45.056Z</time></trkpt><trkpt lat="45.866947" lon="12.4227584"><ele>24.0</ele><time>2026-04-04T16:05:46.056Z</time></trkpt><trkpt lat="45.8668309" lon="12.4225501"><ele>24.0</ele><time>2026-04-04T16:05:47.057Z</time></trkpt><trkpt lat="45.8667226" lon="12.4223571"><ele>23.666666666666668</ele><time>2026-04-04T16:05:48.057Z</time></trkpt><trkpt lat="45.8666021" lon="12.4221405"><ele>23.333333333333336</ele><time>2026-04-04T16:05:49.057Z</time></trkpt><trkpt lat="45.8664985" lon="12.4219532"><ele>23.0</ele><time>2026-04-04T16:05:50.056Z</time></trkpt><trkpt lat="45.8663821" lon="12.4217445"><ele>23.0</ele><time>2026-04-04T16:05:51.056Z</time></trkpt><trkpt lat="45.8662737" lon="12.4215492"><ele>23.0</ele><time>2026-04-04T16:05:52.057Z</time></trkpt><trkpt lat="45.8661743" lon="12.421367"><ele>23.0</ele><time>2026-04-04T16:05:53.057Z</time></trkpt><trkpt lat="45.8660629" lon="12.4211591"><ele>23.0</ele><time>2026-04-04T16:05:54.056Z</time></trkpt><trkpt lat="45.8659643" lon="12.4209751"><ele>23.0</ele><time>2026-04-04T16:05:55.057Z</time></trkpt><trkpt lat="45.8658574" lon="12.4207771"><ele>23.0</ele><time>2026-04-04T16:05:56.056Z</time></trkpt><trkpt lat="45.8657418" lon="12.4205668"><ele>24.333333333333336</ele><time>2026-04-04T16:05:57.056Z</time></trkpt><trkpt lat="45.8656382" lon="12.4203815"><ele>25.666666666666668</ele><time>2026-04-04T16:05:58.057Z</time></trkpt><trkpt lat="45.8655167" lon="12.4201701"><ele>27.0</ele><time>2026-04-04T16:05:59.057Z</time></trkpt><trkpt lat="45.8654033" lon="12.4199666"><ele>27.0</ele><time>2026-04-04T16:06:00.057Z</time></trkpt><trkpt lat="45.8652972" lon="12.4197618"><ele>27.0</ele><time>2026-04-04T16:06:01.064Z</time></trkpt><trkpt lat="45.8651834" lon="12.4195527"><ele>27.0</ele><time>2026-04-04T16:06:02.063Z</time></trkpt><trkpt lat="45.8650682" lon="12.4193419"><ele>26.666666666666664</ele><time>2026-04-04T16:06:03.063Z</time></trkpt><trkpt lat="45.8649518" lon="12.4191268"><ele>26.333333333333332</ele><time>2026-04-04T16:06:04.064Z</time></trkpt><trkpt lat="45.8648331" lon="12.4189109"><ele>26.0</ele><time>2026-04-04T16:06:05.064Z</time></trkpt><trkpt lat="45.8647102" lon="12.4186981"><ele>26.0</ele><time>2026-04-04T16:06:06.063Z</time></trkpt><trkpt lat="45.8645817" lon="12.4184896"><ele>26.0</ele><time>2026-04-04T16:06:07.063Z</time></trkpt><trkpt lat="45.8644449" lon="12.418289"><ele>26.0</ele><time>2026-04-04T16:06:08.064Z</time></trkpt><trkpt lat="45.864295" lon="12.41811"><ele>26.333333333333332</ele><time>2026-04-04T16:06:09.064Z</time></trkpt><trkpt lat="45.8641373" lon="12.4179457"><ele>26.666666666666664</ele><time>2026-04-04T16:06:10.063Z</time></trkpt><trkpt lat="45.8639773" lon="12.4177945"><ele>27.0</ele><time>2026-04-04T16:06:11.064Z</time></trkpt><trkpt lat="45.8638223" lon="12.4176557"><ele>27.0</ele><time>2026-04-04T16:06:12.064Z</time></trkpt><trkpt lat="45.8636763" lon="12.4175302"><ele>27.0</ele><time>2026-04-04T16:06:13.063Z</time></trkpt><trkpt lat="45.8635401" lon="12.4174115"><ele>27.0</ele><time>2026-04-04T16:06:14.063Z</time></trkpt><trkpt lat="45.8634123" lon="12.4172961"><ele>26.75</ele><time>2026-04-04T16:06:15.063Z</time></trkpt><trkpt lat="45.863295" lon="12.4171896"><ele>26.5</ele><time>2026-04-04T16:06:16.063Z</time></trkpt><trkpt lat="45.8631869" lon="12.4170835"><ele>26.25</ele><time>2026-04-04T16:06:17.064Z</time></trkpt><trkpt lat="45.8630979" lon="12.4169701"><ele>26.0</ele><time>2026-04-04T16:06:18.064Z</time></trkpt><trkpt lat="45.8630307" lon="12.4168451"><ele>26.0</ele><time>2026-04-04T16:06:19.063Z</time></trkpt><trkpt lat="45.8629739" lon="12.4167133"><ele>26.0</ele><time>2026-04-04T16:06:20.063Z</time></trkpt><trkpt lat="45.8629151" lon="12.4166009"><ele>26.0</ele><time>2026-04-04T16:06:21.063Z</time></trkpt><trkpt lat="45.8628386" lon="12.4165329"><ele>26.0</ele><time>2026-04-04T16:06:22.064Z</time></trkpt><trkpt lat="45.8627518" lon="12.4165071"><ele>26.0</ele><time>2026-04-04T16:06:23.063Z</time></trkpt><trkpt lat="45.8626566" lon="12.4164607"><ele>25.5</ele><time>2026-04-04T16:06:24.063Z</time></trkpt><trkpt lat="45.8625634" lon="12.416367"><ele>25.0</ele><time>2026-04-04T16:06:25.063Z</time></trkpt><trkpt lat="45.8624668" lon="12.4162421"><ele>24.5</ele><time>2026-04-04T16:06:26.064Z</time></trkpt><trkpt lat="45.8623662" lon="12.4160926"><ele>24.0</ele><time>2026-04-04T16:06:27.064Z</time></trkpt><trkpt lat="45.862259" lon="12.4159255"><ele>24.0</ele><time>2026-04-04T16:06:28.063Z</time></trkpt><trkpt lat="45.8621422" lon="12.4157459"><ele>24.0</ele><time>2026-04-04T16:06:29.063Z</time></trkpt><trkpt lat="45.8620205" lon="12.4155574"><ele>24.0</ele><time>2026-04-04T16:06:30.064Z</time></trkpt><trkpt lat="45.8618934" lon="12.4153592"><ele>24.666666666666664</ele><time>2026-04-04T16:06:31.063Z</time></trkpt><trkpt lat="45.8617631" lon="12.4151542"><ele>25.333333333333332</ele><time>2026-04-04T16:06:32.063Z</time></trkpt><trkpt lat="45.861629" lon="12.4149482"><ele>26.0</ele><time>2026-04-04T16:06:33.063Z</time></trkpt><trkpt lat="45.8614945" lon="12.4147395"><ele>26.0</ele><time>2026-04-04T16:06:34.064Z</time></trkpt><trkpt lat="45.8613586" lon="12.4145316"><ele>26.0</ele><time>2026-04-04T16:06:35.063Z</time></trkpt><trkpt lat="45.8612253" lon="12.4143267"><ele>26.0</ele><time>2026-04-04T16:06:36.063Z</time></trkpt><trkpt lat="45.8610932" lon="12.414126"><ele>26.0</ele><time>2026-04-04T16:06:37.063Z</time></trkpt><trkpt lat="45.8609656" lon="12.4139346"><ele>26.0</ele><time>2026-04-04T16:06:38.064Z</time></trkpt><trkpt lat="45.8608463" lon="12.4137547"><ele>26.0</ele><time>2026-04-04T16:06:39.063Z</time></trkpt><trkpt lat="45.8607338" lon="12.4135853"><ele>25.25</ele><time>2026-04-04T16:06:40.063Z</time></trkpt><trkpt lat="45.860628" lon="12.4134249"><ele>24.5</ele><time>2026-04-04T16:06:41.063Z</time></trkpt><trkpt lat="45.8605275" lon="12.4132718"><ele>23.75</ele><time>2026-04-04T16:06:42.064Z</time></trkpt><trkpt lat="45.8604332" lon="12.4131273"><ele>23.0</ele><time>2026-04-04T16:06:43.063Z</time></trkpt><trkpt lat="45.8603444" lon="12.4129908"><ele>23.0</ele><time>2026-04-04T16:06:44.063Z</time></trkpt><trkpt lat="45.8602665" lon="12.4128715"><ele>23.0</ele><time>2026-04-04T16:06:45.064Z</time></trkpt><trkpt lat="45.8601969" lon="12.4127645"><ele>23.0</ele><time>2026-04-04T16:06:46.063Z</time></trkpt><trkpt lat="45.8601427" lon="12.4126747"><ele>23.0</ele><time>2026-04-04T16:06:47.063Z</time></trkpt><trkpt lat="45.8601019" lon="12.4125923"><ele>23.0</ele><time>2026-04-04T16:06:48.063Z</time></trkpt><trkpt lat="45.8600711" lon="12.4125063"><ele>23.0</ele><time>2026-04-04T16:06:49.063Z</time></trkpt><trkpt lat="45.8600488" lon="12.4124098"><ele>23.0</ele><time>2026-04-04T16:06:50.064Z</time></trkpt><trkpt lat="45.8600285" lon="12.4122979"><ele>23.0</ele><time>2026-04-04T16:06:51.063Z</time></trkpt><trkpt lat="45.8599973" lon="12.4121885"><ele>23.0</ele><time>2026-04-04T16:06:52.063Z</time></trkpt><trkpt lat="45.859938" lon="12.4120987"><ele>23.0</ele><time>2026-04-04T16:06:53.063Z</time></trkpt><trkpt lat="45.8598638" lon="12.4120331"><ele>23.0</ele><time>2026-04-04T16:06:54.063Z</time></trkpt><trkpt lat="45.8597773" lon="12.4119779"><ele>23.0</ele><time>2026-04-04T16:06:55.063Z</time></trkpt><trkpt lat="45.8596875" lon="12.4119085"><ele>23.25</ele><time>2026-04-04T16:06:56.064Z</time></trkpt><trkpt lat="45.8595999" lon="12.4118119"><ele>23.5</ele><time>2026-04-04T16:06:57.064Z</time></trkpt><trkpt lat="45.8595166" lon="12.4116902"><ele>23.75</ele><time>2026-04-04T16:06:58.064Z</time></trkpt><trkpt lat="45.8594271" lon="12.4115547"><ele>24.0</ele><time>2026-04-04T16:06:59.063Z</time></trkpt><trkpt lat="45.8593317" lon="12.4114118"><ele>23.333333333333332</ele><time>2026-04-04T16:07:00.063Z</time></trkpt><trkpt lat="45.8592327" lon="12.4112592"><ele>22.666666666666664</ele><time>2026-04-04T16:07:01.064Z</time></trkpt><trkpt lat="45.8591281" lon="12.4110999"><ele>22.0</ele><time>2026-04-04T16:07:02.063Z</time></trkpt><trkpt lat="45.859022" lon="12.4109342"><ele>22.0</ele><time>2026-04-04T16:07:03.064Z</time></trkpt><trkpt lat="45.8589185" lon="12.4107629"><ele>22.0</ele><time>2026-04-04T16:07:04.063Z</time></trkpt><trkpt lat="45.8588176" lon="12.410584"><ele>22.0</ele><time>2026-04-04T16:07:05.063Z</time></trkpt><trkpt lat="45.8587236" lon="12.4103966"><ele>22.0</ele><time>2026-04-04T16:07:06.063Z</time></trkpt><trkpt lat="45.8586383" lon="12.4101981"><ele>22.0</ele><time>2026-04-04T16:07:07.064Z</time></trkpt><trkpt lat="45.8585596" lon="12.4099917"><ele>22.0</ele><time>2026-04-04T16:07:08.063Z</time></trkpt><trkpt lat="45.8584873" lon="12.4097767"><ele>22.0</ele><time>2026-04-04T16:07:09.063Z</time></trkpt><trkpt lat="45.8584231" lon="12.4095569"><ele>22.0</ele><time>2026-04-04T16:07:10.063Z</time></trkpt><trkpt lat="45.8583707" lon="12.4093339"><ele>22.0</ele><time>2026-04-04T16:07:11.064Z</time></trkpt><trkpt lat="45.8583298" lon="12.4091143"><ele>22.0</ele><time>2026-04-04T16:07:12.064Z</time></trkpt><trkpt lat="45.858304" lon="12.4088899"><ele>22.0</ele><time>2026-04-04T16:07:13.064Z</time></trkpt><trkpt lat="45.8582853" lon="12.4086608"><ele>22.0</ele><time>2026-04-04T16:07:14.064Z</time></trkpt><trkpt lat="45.8582751" lon="12.4084233"><ele>22.333333333333332</ele><time>2026-04-04T16:07:15.064Z</time></trkpt><trkpt lat="45.8582731" lon="12.408174"><ele>22.666666666666668</ele><time>2026-04-04T16:07:16.064Z</time></trkpt><trkpt lat="45.8582797" lon="12.4079232"><ele>23.0</ele><time>2026-04-04T16:07:17.063Z</time></trkpt><trkpt lat="45.8582902" lon="12.4076718"><ele>23.333333333333336</ele><time>2026-04-04T16:07:18.063Z</time></trkpt><trkpt lat="45.8583022" lon="12.4074181"><ele>23.666666666666668</ele><time>2026-04-04T16:07:19.063Z</time></trkpt><trkpt lat="45.8583101" lon="12.4071657"><ele>24.0</ele><time>2026-04-04T16:07:20.064Z</time></trkpt><trkpt lat="45.8583175" lon="12.4069207"><ele>24.0</ele><time>2026-04-04T16:07:21.064Z</time></trkpt><trkpt lat="45.8583245" lon="12.4066823"><ele>24.0</ele><time>2026-04-04T16:07:22.063Z</time></trkpt><trkpt lat="45.8583317" lon="12.4064429"><ele>24.0</ele><time>2026-04-04T16:07:23.063Z</time></trkpt><trkpt lat="45.8583387" lon="12.4062016"><ele>24.0</ele><time>2026-04-04T16:07:24.064Z</time></trkpt><trkpt lat="45.8583448" lon="12.4059534"><ele>24.0</ele><time>2026-04-04T16:07:25.063Z</time></trkpt><trkpt lat="45.8583438" lon="12.405697"><ele>24.0</ele><time>2026-04-04T16:07:26.064Z</time></trkpt><trkpt lat="45.8583385" lon="12.4054308"><ele>24.0</ele><time>2026-04-04T16:07:27.064Z</time></trkpt><trkpt lat="45.8583254" lon="12.4051609"><ele>24.0</ele><time>2026-04-04T16:07:28.063Z</time></trkpt><trkpt lat="45.8583043" lon="12.4048814"><ele>24.0</ele><time>2026-04-04T16:07:29.064Z</time></trkpt><trkpt lat="45.8582729" lon="12.4045923"><ele>24.0</ele><time>2026-04-04T16:07:30.063Z</time></trkpt><trkpt lat="45.8582294" lon="12.4042923"><ele>24.0</ele><time>2026-04-04T16:07:31.063Z</time></trkpt><trkpt lat="45.8581771" lon="12.4039824"><ele>24.0</ele><time>2026-04-04T16:07:32.063Z</time></trkpt><trkpt lat="45.8581159" lon="12.4036642"><ele>23.5</ele><time>2026-04-04T16:07:33.064Z</time></trkpt><trkpt lat="45.8580404" lon="12.4033441"><ele>23.0</ele><time>2026-04-04T16:07:34.064Z</time></trkpt><trkpt lat="45.8579518" lon="12.4030307"><ele>24.0</ele><time>2026-04-04T16:07:35.064Z</time></trkpt><trkpt lat="45.8578527" lon="12.4027246"><ele>25.0</ele><time>2026-04-04T16:07:36.064Z</time></trkpt><trkpt lat="45.857744" lon="12.4024294"><ele>25.0</ele><time>2026-04-04T16:07:37.064Z</time></trkpt><trkpt lat="45.8576205" lon="12.4021378"><ele>25.0</ele><time>2026-04-04T16:07:38.063Z</time></trkpt><trkpt lat="45.8574858" lon="12.401867"><ele>25.0</ele><time>2026-04-04T16:07:39.064Z</time></trkpt><trkpt lat="45.8573479" lon="12.4016128"><ele>25.0</ele><time>2026-04-04T16:07:40.064Z</time></trkpt><trkpt lat="45.8572118" lon="12.4013697"><ele>25.0</ele><time>2026-04-04T16:07:41.064Z</time></trkpt><trkpt lat="45.8570713" lon="12.4011298"><ele>25.0</ele><time>2026-04-04T16:07:42.063Z</time></trkpt><trkpt lat="45.8569238" lon="12.4009061"><ele>25.0</ele><time>2026-04-04T16:07:43.064Z</time></trkpt><trkpt lat="45.8567722" lon="12.4006922"><ele>25.0</ele><time>2026-04-04T16:07:44.064Z</time></trkpt><trkpt lat="45.8566199" lon="12.4004843"><ele>25.0</ele><time>2026-04-04T16:07:45.064Z</time></trkpt><trkpt lat="45.8564719" lon="12.4002747"><ele>25.0</ele><time>2026-04-04T16:07:46.063Z</time></trkpt><trkpt lat="45.8563225" lon="12.4000662"><ele>25.0</ele><time>2026-04-04T16:07:47.063Z</time></trkpt><trkpt lat="45.8561731" lon="12.3998565"><ele>25.0</ele><time>2026-04-04T16:07:48.064Z</time></trkpt><trkpt lat="45.8560229" lon="12.3996512"><ele>25.0</ele><time>2026-04-04T16:07:49.063Z</time></trkpt><trkpt lat="45.8558775" lon="12.3994489"><ele>25.0</ele><time>2026-04-04T16:07:50.064Z</time></trkpt><trkpt lat="45.855731" lon="12.3992433"><ele>25.0</ele><time>2026-04-04T16:07:51.064Z</time></trkpt><trkpt lat="45.8555857" lon="12.3990396"><ele>25.0</ele><time>2026-04-04T16:07:52.063Z</time></trkpt><trkpt lat="45.8554378" lon="12.3988384"><ele>25.0</ele><time>2026-04-04T16:07:53.063Z</time></trkpt><trkpt lat="45.8552909" lon="12.3986325"><ele>25.0</ele><time>2026-04-04T16:07:54.063Z</time></trkpt><trkpt lat="45.8551426" lon="12.3984231"><ele>25.0</ele><time>2026-04-04T16:07:55.064Z</time></trkpt><trkpt lat="45.8549921" lon="12.398214"><ele>25.0</ele><time>2026-04-04T16:07:56.063Z</time></trkpt><trkpt lat="45.8548404" lon="12.3980049"><ele>24.666666666666668</ele><time>2026-04-04T16:07:57.064Z</time></trkpt><trkpt lat="45.854688" lon="12.3977937"><ele>24.333333333333336</ele><time>2026-04-04T16:07:58.063Z</time></trkpt><trkpt lat="45.8545343" lon="12.397582"><ele>24.0</ele><time>2026-04-04T16:07:59.063Z</time></trkpt><trkpt lat="45.8543806" lon="12.3973687"><ele>25.0</ele><time>2026-04-04T16:08:00.063Z</time></trkpt><trkpt lat="45.8542312" lon="12.3971531"><ele>26.0</ele><time>2026-04-04T16:08:01.064Z</time></trkpt><trkpt lat="45.8540826" lon="12.3969352"><ele>27.0</ele><time>2026-04-04T16:08:02.063Z</time></trkpt><trkpt lat="45.853936" lon="12.3967143"><ele>27.0</ele><time>2026-04-04T16:08:03.063Z</time></trkpt><trkpt lat="45.8537854" lon="12.3964936"><ele>27.0</ele><time>2026-04-04T16:08:04.064Z</time></trkpt><trkpt lat="45.8536343" lon="12.3962707"><ele>27.0</ele><time>2026-04-04T16:08:05.063Z</time></trkpt><trkpt lat="45.8534849" lon="12.3960472"><ele>27.333333333333336</ele><time>2026-04-04T16:08:06.064Z</time></trkpt><trkpt lat="45.8533412" lon="12.3958112"><ele>27.666666666666668</ele><time>2026-04-04T16:08:07.064Z</time></trkpt><trkpt lat="45.8532045" lon="12.3955596"><ele>28.0</ele><time>2026-04-04T16:08:08.064Z</time></trkpt><trkpt lat="45.8530741" lon="12.3952966"><ele>28.0</ele><time>2026-04-04T16:08:09.064Z</time></trkpt><trkpt lat="45.8529462" lon="12.3950305"><ele>28.0</ele><time>2026-04-04T16:08:10.064Z</time></trkpt><trkpt lat="45.8528205" lon="12.3947633"><ele>28.333333333333336</ele><time>2026-04-04T16:08:11.064Z</time></trkpt><trkpt lat="45.852696" lon="12.3944994"><ele>28.666666666666664</ele><time>2026-04-04T16:08:12.064Z</time></trkpt><trkpt lat="45.85257" lon="12.3942454"><ele>29.0</ele><time>2026-04-04T16:08:13.063Z</time></trkpt><trkpt lat="45.8524277" lon="12.3940176"><ele>28.333333333333332</ele><time>2026-04-04T16:08:14.064Z</time></trkpt><trkpt lat="45.8522723" lon="12.3938084"><ele>27.666666666666664</ele><time>2026-04-04T16:08:15.064Z</time></trkpt><trkpt lat="45.8521029" lon="12.3936257"><ele>27.0</ele><time>2026-04-04T16:08:16.063Z</time></trkpt><trkpt lat="45.8519178" lon="12.3934701"><ele>27.0</ele><time>2026-04-04T16:08:17.064Z</time></trkpt><trkpt lat="45.8517229" lon="12.3933312"><ele>27.0</ele><time>2026-04-04T16:08:18.063Z</time></trkpt><trkpt lat="45.851523" lon="12.3932023"><ele>27.0</ele><time>2026-04-04T16:08:19.064Z</time></trkpt><trkpt lat="45.8513247" lon="12.3930733"><ele>27.333333333333336</ele><time>2026-04-04T16:08:20.063Z</time></trkpt><trkpt lat="45.8511294" lon="12.3929456"><ele>27.666666666666668</ele><time>2026-04-04T16:08:21.063Z</time></trkpt><trkpt lat="45.8509371" lon="12.3928174"><ele>28.0</ele><time>2026-04-04T16:08:22.063Z</time></trkpt><trkpt lat="45.8507467" lon="12.3926872"><ele>27.333333333333336</ele><time>2026-04-04T16:08:23.064Z</time></trkpt><trkpt lat="45.8505591" lon="12.3925558"><ele>26.666666666666664</ele><time>2026-04-04T16:08:24.063Z</time></trkpt><trkpt lat="45.850373" lon="12.3924176"><ele>26.0</ele><time>2026-04-04T16:08:25.064Z</time></trkpt><trkpt lat="45.8501914" lon="12.392268"><ele>27.0</ele><time>2026-04-04T16:08:26.064Z</time></trkpt><trkpt lat="45.8500112" lon="12.3921072"><ele>28.0</ele><time>2026-04-04T16:08:27.064Z</time></trkpt><trkpt lat="45.8498327" lon="12.3919414"><ele>29.0</ele><time>2026-04-04T16:08:28.064Z</time></trkpt><trkpt lat="45.8496587" lon="12.3917707"><ele>29.0</ele><time>2026-04-04T16:08:29.063Z</time></trkpt><trkpt lat="45.8494941" lon="12.3916046"><ele>29.0</ele><time>2026-04-04T16:08:30.064Z</time></trkpt><trkpt lat="45.8493394" lon="12.3914475"><ele>29.0</ele><time>2026-04-04T16:08:31.064Z</time></trkpt><trkpt lat="45.8491895" lon="12.3912993"><ele>28.666666666666664</ele><time>2026-04-04T16:08:32.063Z</time></trkpt><trkpt lat="45.8490505" lon="12.391155"><ele>28.333333333333336</ele><time>2026-04-04T16:08:33.063Z</time></trkpt><trkpt lat="45.8489165" lon="12.3910216"><ele>28.0</ele><time>2026-04-04T16:08:34.064Z</time></trkpt><trkpt lat="45.8487876" lon="12.3908943"><ele>28.0</ele><time>2026-04-04T16:08:35.063Z</time></trkpt><trkpt lat="45.848667" lon="12.390776"><ele>28.0</ele><time>2026-04-04T16:08:36.064Z</time></trkpt><trkpt lat="45.8485636" lon="12.390671"><ele>28.0</ele><time>2026-04-04T16:08:37.064Z</time></trkpt><trkpt lat="45.8484735" lon="12.3905788"><ele>28.0</ele><time>2026-04-04T16:08:38.063Z</time></trkpt><trkpt lat="45.848401" lon="12.3904848"><ele>27.799999999999997</ele><time>2026-04-04T16:08:39.063Z</time></trkpt><trkpt lat="45.8483435" lon="12.3903756"><ele>27.599999999999998</ele><time>2026-04-04T16:08:40.063Z</time></trkpt><trkpt lat="45.848286" lon="12.390264"><ele>27.400000000000002</ele><time>2026-04-04T16:08:41.064Z</time></trkpt><trkpt lat="45.8482069" lon="12.3901838"><ele>27.200000000000003</ele><time>2026-04-04T16:08:42.064Z</time></trkpt><trkpt lat="45.8481164" lon="12.3901104"><ele>27.0</ele><time>2026-04-04T16:08:43.064Z</time></trkpt><trkpt lat="45.8480187" lon="12.3900081"><ele>27.0</ele><time>2026-04-04T16:08:44.064Z</time></trkpt><trkpt lat="45.8479199" lon="12.3898832"><ele>27.0</ele><time>2026-04-04T16:08:45.064Z</time></trkpt><trkpt lat="45.8478141" lon="12.3897481"><ele>27.0</ele><time>2026-04-04T16:08:46.063Z</time></trkpt><trkpt lat="45.8477014" lon="12.3896021"><ele>27.0</ele><time>2026-04-04T16:08:47.064Z</time></trkpt><trkpt lat="45.8475867" lon="12.3894455"><ele>28.0</ele><time>2026-04-04T16:08:48.064Z</time></trkpt><trkpt lat="45.8474723" lon="12.3892847"><ele>29.0</ele><time>2026-04-04T16:08:49.064Z</time></trkpt><trkpt lat="45.8473575" lon="12.3891263"><ele>30.0</ele><time>2026-04-04T16:08:50.064Z</time></trkpt><trkpt lat="45.8472397" lon="12.3889627"><ele>30.0</ele><time>2026-04-04T16:08:51.064Z</time></trkpt><trkpt lat="45.8471191" lon="12.388796"><ele>30.0</ele><time>2026-04-04T16:08:52.064Z</time></trkpt><trkpt lat="45.8469955" lon="12.388624"><ele>30.0</ele><time>2026-04-04T16:08:53.063Z</time></trkpt><trkpt lat="45.8468697" lon="12.3884496"><ele>29.666666666666664</ele><time>2026-04-04T16:08:54.063Z</time></trkpt><trkpt lat="45.8467377" lon="12.3882751"><ele>29.333333333333332</ele><time>2026-04-04T16:08:55.063Z</time></trkpt><trkpt lat="45.8466014" lon="12.3881011"><ele>29.0</ele><time>2026-04-04T16:08:56.064Z</time></trkpt><trkpt lat="45.8464607" lon="12.3879303"><ele>29.0</ele><time>2026-04-04T16:08:57.064Z</time></trkpt><trkpt lat="45.8463122" lon="12.3877632"><ele>29.0</ele><time>2026-04-04T16:08:58.064Z</time></trkpt><trkpt lat="45.8461577" lon="12.3875994"><ele>29.0</ele><time>2026-04-04T16:08:59.064Z</time></trkpt><trkpt lat="45.8459992" lon="12.3874353"><ele>28.333333333333332</ele><time>2026-04-04T16:09:00.063Z</time></trkpt><trkpt lat="45.8458367" lon="12.3872746"><ele>27.666666666666664</ele><time>2026-04-04T16:09:01.063Z</time></trkpt><trkpt lat="45.8456701" lon="12.387115"><ele>27.0</ele><time>2026-04-04T16:09:02.064Z</time></trkpt><trkpt lat="45.8455031" lon="12.3869554"><ele>27.0</ele><time>2026-04-04T16:09:03.063Z</time></trkpt><trkpt lat="45.8453313" lon="12.3867987"><ele>27.0</ele><time>2026-04-04T16:09:04.063Z</time></trkpt><trkpt lat="45.8451588" lon="12.3866418"><ele>27.0</ele><time>2026-04-04T16:09:05.064Z</time></trkpt><trkpt lat="45.844983" lon="12.3864833"><ele>28.0</ele><time>2026-04-04T16:09:06.063Z</time></trkpt><trkpt lat="45.8448087" lon="12.386324"><ele>29.0</ele><time>2026-04-04T16:09:07.064Z</time></trkpt><trkpt lat="45.8446345" lon="12.3861632"><ele>30.0</ele><time>2026-04-04T16:09:08.063Z</time></trkpt><trkpt lat="45.844459" lon="12.3859966"><ele>29.0</ele><time>2026-04-04T16:09:09.063Z</time></trkpt><trkpt lat="45.8442814" lon="12.3858242"><ele>28.0</ele><time>2026-04-04T16:09:10.064Z</time></trkpt><trkpt lat="45.8441104" lon="12.3856459"><ele>27.0</ele><time>2026-04-04T16:09:11.063Z</time></trkpt><trkpt lat="45.8439432" lon="12.385459"><ele>27.0</ele><time>2026-04-04T16:09:12.063Z</time></trkpt><trkpt lat="45.8437873" lon="12.3852633"><ele>27.0</ele><time>2026-04-04T16:09:13.064Z</time></trkpt><trkpt lat="45.8436355" lon="12.3850661"><ele>27.0</ele><time>2026-04-04T16:09:14.064Z</time></trkpt><trkpt lat="45.8434866" lon="12.3848781"><ele>26.666666666666664</ele><time>2026-04-04T16:09:15.063Z</time></trkpt><trkpt lat="45.8433405" lon="12.3846917"><ele>26.333333333333332</ele><time>2026-04-04T16:09:16.063Z</time></trkpt><trkpt lat="45.8431966" lon="12.3845065"><ele>26.0</ele><time>2026-04-04T16:09:17.064Z</time></trkpt><trkpt lat="45.8430537" lon="12.3843268"><ele>26.0</ele><time>2026-04-04T16:09:18.064Z</time></trkpt><trkpt lat="45.8429155" lon="12.3841519"><ele>26.0</ele><time>2026-04-04T16:09:19.063Z</time></trkpt><trkpt lat="45.8427845" lon="12.383987"><ele>26.0</ele><time>2026-04-04T16:09:20.064Z</time></trkpt><trkpt lat="45.8426641" lon="12.3838327"><ele>26.25</ele><time>2026-04-04T16:09:21.063Z</time></trkpt><trkpt lat="45.8425565" lon="12.383693"><ele>26.5</ele><time>2026-04-04T16:09:22.063Z</time></trkpt><trkpt lat="45.8424612" lon="12.3835691"><ele>26.75</ele><time>2026-04-04T16:09:23.064Z</time></trkpt><trkpt lat="45.8423809" lon="12.3834676"><ele>27.0</ele><time>2026-04-04T16:09:24.063Z</time></trkpt><trkpt lat="45.8423085" lon="12.3833647"><ele>27.0</ele><time>2026-04-04T16:09:25.064Z</time></trkpt><trkpt lat="45.8422502" lon="12.383259"><ele>27.000000000000004</ele><time>2026-04-04T16:09:26.064Z</time></trkpt><trkpt lat="45.8422045" lon="12.3831335"><ele>27.000000000000004</ele><time>2026-04-04T16:09:27.064Z</time></trkpt><trkpt lat="45.8421712" lon="12.3829903"><ele>27.0</ele><time>2026-04-04T16:09:28.063Z</time></trkpt><trkpt lat="45.8421373" lon="12.3828577"><ele>27.0</ele><time>2026-04-04T16:09:29.063Z</time></trkpt><trkpt lat="45.8420859" lon="12.3827288"><ele>26.5</ele><time>2026-04-04T16:09:30.064Z</time></trkpt><trkpt lat="45.8420286" lon="12.3825927"><ele>26.0</ele><time>2026-04-04T16:09:31.063Z</time></trkpt><trkpt lat="45.8419711" lon="12.3824388"><ele>25.5</ele><time>2026-04-04T16:09:32.063Z</time></trkpt><trkpt lat="45.8419039" lon="12.382257"><ele>25.0</ele><time>2026-04-04T16:09:33.064Z</time></trkpt><trkpt lat="45.8418281" lon="12.3820317"><ele>26.0</ele><time>2026-04-04T16:09:34.063Z</time></trkpt><trkpt lat="45.8417495" lon="12.3817532"><ele>27.0</ele><time>2026-04-04T16:09:35.063Z</time></trkpt><trkpt lat="45.8416728" lon="12.3814224"><ele>26.0</ele><time>2026-04-04T16:09:36.064Z</time></trkpt><trkpt lat="45.841585" lon="12.381054"><ele>25.0</ele><time>2026-04-04T16:09:37.064Z</time></trkpt><trkpt lat="45.8414826" lon="12.3806655"><ele>24.0</ele><time>2026-04-04T16:09:38.063Z</time></trkpt><trkpt lat="45.841373" lon="12.3802611"><ele>23.0</ele><time>2026-04-04T16:09:39.063Z</time></trkpt><trkpt lat="45.8412646" lon="12.3798512"><ele>23.5</ele><time>2026-04-04T16:09:40.063Z</time></trkpt><trkpt lat="45.8411595" lon="12.3794396"><ele>24.0</ele><time>2026-04-04T16:09:41.063Z</time></trkpt><trkpt lat="45.841063" lon="12.3790413"><ele>25.0</ele><time>2026-04-04T16:09:42.063Z</time></trkpt><trkpt lat="45.8409767" lon="12.378666"><ele>26.0</ele><time>2026-04-04T16:09:43.063Z</time></trkpt><trkpt lat="45.8408941" lon="12.378311"><ele>26.5</ele><time>2026-04-04T16:09:44.063Z</time></trkpt><trkpt lat="45.8408132" lon="12.3779772"><ele>27.0</ele><time>2026-04-04T16:09:45.064Z</time></trkpt><trkpt lat="45.8407345" lon="12.3776633"><ele>27.0</ele><time>2026-04-04T16:09:46.064Z</time></trkpt><trkpt lat="45.840659" lon="12.3773685"><ele>27.0</ele><time>2026-04-04T16:09:47.064Z</time></trkpt><trkpt lat="45.8405846" lon="12.3770895"><ele>27.0</ele><time>2026-04-04T16:09:48.064Z</time></trkpt><trkpt lat="45.8405114" lon="12.3768387"><ele>27.0</ele><time>2026-04-04T16:09:49.063Z</time></trkpt><trkpt lat="45.8404301" lon="12.3766047"><ele>27.0</ele><time>2026-04-04T16:09:50.064Z</time></trkpt><trkpt lat="45.8403383" lon="12.3763858"><ele>27.0</ele><time>2026-04-04T16:09:51.064Z</time></trkpt><trkpt lat="45.840241" lon="12.3761764"><ele>27.0</ele><time>2026-04-04T16:09:52.063Z</time></trkpt><trkpt lat="45.8401372" lon="12.3759816"><ele>27.0</ele><time>2026-04-04T16:09:53.063Z</time></trkpt><trkpt lat="45.8400258" lon="12.3757952"><ele>27.0</ele><time>2026-04-04T16:09:54.064Z</time></trkpt><trkpt lat="45.8399075" lon="12.3756171"><ele>27.333333333333336</ele><time>2026-04-04T16:09:55.063Z</time></trkpt><trkpt lat="45.8397784" lon="12.375443"><ele>27.666666666666668</ele><time>2026-04-04T16:09:56.063Z</time></trkpt><trkpt lat="45.839639" lon="12.3752787"><ele>28.0</ele><time>2026-04-04T16:09:57.064Z</time></trkpt><trkpt lat="45.839489" lon="12.3751268"><ele>28.0</ele><time>2026-04-04T16:09:58.064Z</time></trkpt><trkpt lat="45.839334" lon="12.3749934"><ele>28.0</ele><time>2026-04-04T16:09:59.064Z</time></trkpt><trkpt lat="45.8391772" lon="12.3748789"><ele>28.0</ele><time>2026-04-04T16:10:00.063Z</time></trkpt><trkpt lat="45.8390185" lon="12.3747856"><ele>28.333333333333336</ele><time>2026-04-04T16:10:01.063Z</time></trkpt><trkpt lat="45.8388602" lon="12.3747022"><ele>28.666666666666664</ele><time>2026-04-04T16:10:02.063Z</time></trkpt><trkpt lat="45.8387053" lon="12.3746236"><ele>29.0</ele><time>2026-04-04T16:10:03.063Z</time></trkpt><trkpt lat="45.8385527" lon="12.3745476"><ele>29.666666666666664</ele><time>2026-04-04T16:10:04.063Z</time></trkpt><trkpt lat="45.8384" lon="12.3744756"><ele>30.333333333333336</ele><time>2026-04-04T16:10:05.064Z</time></trkpt><trkpt lat="45.8382583" lon="12.374406"><ele>31.0</ele><time>2026-04-04T16:10:06.063Z</time></trkpt><trkpt lat="45.8381194" lon="12.3743393"><ele>31.0</ele><time>2026-04-04T16:10:07.063Z</time></trkpt><trkpt lat="45.8379821" lon="12.3742737"><ele>31.0</ele><time>2026-04-04T16:10:08.063Z</time></trkpt><trkpt lat="45.837849" lon="12.3742101"><ele>31.0</ele><time>2026-04-04T16:10:09.064Z</time></trkpt><trkpt lat="45.8377262" lon="12.3741452"><ele>31.0</ele><time>2026-04-04T16:10:10.063Z</time></trkpt><trkpt lat="45.8376116" lon="12.3740892"><ele>30.8</ele><time>2026-04-04T16:10:11.063Z</time></trkpt><trkpt lat="45.8375096" lon="12.3740378"><ele>30.6</ele><time>2026-04-04T16:10:12.064Z</time></trkpt><trkpt lat="45.8374209" lon="12.3739964"><ele>30.4</ele><time>2026-04-04T16:10:13.063Z</time></trkpt><trkpt lat="45.837351" lon="12.3739566"><ele>30.2</ele><time>2026-04-04T16:10:14.063Z</time></trkpt><trkpt lat="45.8372459" lon="12.373904"><ele>30.0</ele><time>2026-04-04T16:10:16.064Z</time></trkpt><trkpt lat="45.8371792" lon="12.3738706"><ele>29.8</ele><time>2026-04-04T16:10:18.063Z</time></trkpt><trkpt lat="45.8370936" lon="12.3738465"><ele>29.6</ele><time>2026-04-04T16:10:22.063Z</time></trkpt><trkpt lat="45.8370251" lon="12.373823"><ele>29.4</ele><time>2026-04-04T16:10:23.064Z</time></trkpt><trkpt lat="45.8369373" lon="12.373789"><ele>29.2</ele><time>2026-04-04T16:10:24.063Z</time></trkpt><trkpt lat="45.836828" lon="12.3737537"><ele>29.0</ele><time>2026-04-04T16:10:25.063Z</time></trkpt><trkpt lat="45.8367027" lon="12.3737116"><ele>29.666666666666664</ele><time>2026-04-04T16:10:26.063Z</time></trkpt><trkpt lat="45.8365625" lon="12.3736616"><ele>30.333333333333336</ele><time>2026-04-04T16:10:27.063Z</time></trkpt><trkpt lat="45.8364157" lon="12.3736079"><ele>31.0</ele><time>2026-04-04T16:10:28.064Z</time></trkpt><trkpt lat="45.8362627" lon="12.3735303"><ele>31.0</ele><time>2026-04-04T16:10:29.063Z</time></trkpt><trkpt lat="45.8361161" lon="12.3734285"><ele>31.0</ele><time>2026-04-04T16:10:30.064Z</time></trkpt><trkpt lat="45.8359715" lon="12.3733087"><ele>31.0</ele><time>2026-04-04T16:10:31.063Z</time></trkpt><trkpt lat="45.8358219" lon="12.3731834"><ele>31.333333333333336</ele><time>2026-04-04T16:10:32.063Z</time></trkpt><trkpt lat="45.8356661" lon="12.3730523"><ele>31.666666666666664</ele><time>2026-04-04T16:10:33.063Z</time></trkpt><trkpt lat="45.8355068" lon="12.3729146"><ele>32.0</ele><time>2026-04-04T16:10:34.063Z</time></trkpt><trkpt lat="45.8353449" lon="12.3727749"><ele>32.0</ele><time>2026-04-04T16:10:35.064Z</time></trkpt><trkpt lat="45.8351837" lon="12.3726326"><ele>32.0</ele><time>2026-04-04T16:10:36.063Z</time></trkpt><trkpt lat="45.835014" lon="12.3724887"><ele>32.0</ele><time>2026-04-04T16:10:37.064Z</time></trkpt><trkpt lat="45.8348423" lon="12.3723446"><ele>31.666666666666664</ele><time>2026-04-04T16:10:38.064Z</time></trkpt><trkpt lat="45.8346656" lon="12.3721961"><ele>31.333333333333336</ele><time>2026-04-04T16:10:39.064Z</time></trkpt><trkpt lat="45.8344841" lon="12.3720452"><ele>31.0</ele><time>2026-04-04T16:10:40.064Z</time></trkpt><trkpt lat="45.8342991" lon="12.3718923"><ele>31.0</ele><time>2026-04-04T16:10:41.063Z</time></trkpt><trkpt lat="45.8341159" lon="12.3717343"><ele>31.0</ele><time>2026-04-04T16:10:42.064Z</time></trkpt><trkpt lat="45.8339341" lon="12.3715773"><ele>31.0</ele><time>2026-04-04T16:10:43.063Z</time></trkpt><trkpt lat="45.8337494" lon="12.3714226"><ele>31.0</ele><time>2026-04-04T16:10:44.064Z</time></trkpt><trkpt lat="45.8335645" lon="12.3712661"><ele>31.0</ele><time>2026-04-04T16:10:45.063Z</time></trkpt><trkpt lat="45.8333793" lon="12.3711087"><ele>31.0</ele><time>2026-04-04T16:10:46.064Z</time></trkpt><trkpt lat="45.833193" lon="12.3709532"><ele>31.0</ele><time>2026-04-04T16:10:47.064Z</time></trkpt><trkpt lat="45.8330097" lon="12.3707993"><ele>31.0</ele><time>2026-04-04T16:10:48.063Z</time></trkpt><trkpt lat="45.8328331" lon="12.3706497"><ele>31.0</ele><time>2026-04-04T16:10:49.064Z</time></trkpt><trkpt lat="45.8326585" lon="12.3705057"><ele>31.333333333333336</ele><time>2026-04-04T16:10:50.064Z</time></trkpt><trkpt lat="45.8324836" lon="12.370363"><ele>31.666666666666664</ele><time>2026-04-04T16:10:51.064Z</time></trkpt><trkpt lat="45.8323083" lon="12.3702229"><ele>32.0</ele><time>2026-04-04T16:10:52.064Z</time></trkpt><trkpt lat="45.8321299" lon="12.3700942"><ele>32.0</ele><time>2026-04-04T16:10:53.063Z</time></trkpt><trkpt lat="45.8319447" lon="12.3699856"><ele>32.0</ele><time>2026-04-04T16:10:54.063Z</time></trkpt><trkpt lat="45.8317582" lon="12.3698806"><ele>32.0</ele><time>2026-04-04T16:10:55.064Z</time></trkpt><trkpt lat="45.8315693" lon="12.369775"><ele>32.0</ele><time>2026-04-04T16:10:56.064Z</time></trkpt><trkpt lat="45.8313795" lon="12.3696684"><ele>32.0</ele><time>2026-04-04T16:10:57.063Z</time></trkpt><trkpt lat="45.8311923" lon="12.369559"><ele>32.0</ele><time>2026-04-04T16:10:58.064Z</time></trkpt><trkpt lat="45.8310054" lon="12.3694539"><ele>31.666666666666664</ele><time>2026-04-04T16:10:59.064Z</time></trkpt><trkpt lat="45.8308181" lon="12.3693511"><ele>31.333333333333336</ele><time>2026-04-04T16:11:00.064Z</time></trkpt><trkpt lat="45.8306324" lon="12.3692469"><ele>31.0</ele><time>2026-04-04T16:11:01.064Z</time></trkpt><trkpt lat="45.8304464" lon="12.3691466"><ele>31.0</ele><time>2026-04-04T16:11:02.063Z</time></trkpt><trkpt lat="45.8302643" lon="12.369047"><ele>31.0</ele><time>2026-04-04T16:11:03.064Z</time></trkpt><trkpt lat="45.8300883" lon="12.3689487"><ele>31.0</ele><time>2026-04-04T16:11:04.064Z</time></trkpt><trkpt lat="45.8299101" lon="12.3688473"><ele>31.0</ele><time>2026-04-04T16:11:05.063Z</time></trkpt><trkpt lat="45.8297359" lon="12.3687478"><ele>31.0</ele><time>2026-04-04T16:11:06.064Z</time></trkpt><trkpt lat="45.8295602" lon="12.3686463"><ele>31.0</ele><time>2026-04-04T16:11:07.063Z</time></trkpt><trkpt lat="45.8293859" lon="12.3685533"><ele>30.666666666666668</ele><time>2026-04-04T16:11:08.064Z</time></trkpt><trkpt lat="45.8292105" lon="12.3684551"><ele>30.333333333333336</ele><time>2026-04-04T16:11:09.063Z</time></trkpt><trkpt lat="45.8290358" lon="12.3683604"><ele>30.0</ele><time>2026-04-04T16:11:10.063Z</time></trkpt><trkpt lat="45.8288651" lon="12.3682638"><ele>30.0</ele><time>2026-04-04T16:11:11.063Z</time></trkpt><trkpt lat="45.8286911" lon="12.3681713"><ele>30.0</ele><time>2026-04-04T16:11:12.064Z</time></trkpt><trkpt lat="45.8285184" lon="12.3680784"><ele>30.0</ele><time>2026-04-04T16:11:13.063Z</time></trkpt><trkpt lat="45.8283439" lon="12.3679869"><ele>30.666666666666664</ele><time>2026-04-04T16:11:14.063Z</time></trkpt><trkpt lat="45.8281707" lon="12.3678895"><ele>31.333333333333332</ele><time>2026-04-04T16:11:15.063Z</time></trkpt><trkpt lat="45.8279971" lon="12.3677942"><ele>32.0</ele><time>2026-04-04T16:11:16.063Z</time></trkpt><trkpt lat="45.8278214" lon="12.3677004"><ele>32.0</ele><time>2026-04-04T16:11:17.063Z</time></trkpt><trkpt lat="45.8276457" lon="12.3676037"><ele>32.0</ele><time>2026-04-04T16:11:18.064Z</time></trkpt><trkpt lat="45.8274715" lon="12.3675062"><ele>32.0</ele><time>2026-04-04T16:11:19.064Z</time></trkpt><trkpt lat="45.8272962" lon="12.3674056"><ele>32.33333333333333</ele><time>2026-04-04T16:11:20.063Z</time></trkpt><trkpt lat="45.8271161" lon="12.3673038"><ele>32.666666666666664</ele><time>2026-04-04T16:11:21.064Z</time></trkpt><trkpt lat="45.8269361" lon="12.367201"><ele>33.0</ele><time>2026-04-04T16:11:22.064Z</time></trkpt><trkpt lat="45.8267608" lon="12.3670839"><ele>32.0</ele><time>2026-04-04T16:11:23.063Z</time></trkpt><trkpt lat="45.8265877" lon="12.3669512"><ele>31.0</ele><time>2026-04-04T16:11:24.063Z</time></trkpt><trkpt lat="45.8264181" lon="12.3668023"><ele>30.0</ele><time>2026-04-04T16:11:25.063Z</time></trkpt><trkpt lat="45.8262555" lon="12.3666456"><ele>30.0</ele><time>2026-04-04T16:11:26.063Z</time></trkpt><trkpt lat="45.8260888" lon="12.3664838"><ele>30.0</ele><time>2026-04-04T16:11:27.063Z</time></trkpt><trkpt lat="45.8259249" lon="12.3663197"><ele>30.0</ele><time>2026-04-04T16:11:28.064Z</time></trkpt><trkpt lat="45.8257588" lon="12.3661545"><ele>30.666666666666664</ele><time>2026-04-04T16:11:29.063Z</time></trkpt><trkpt lat="45.8255916" lon="12.3659897"><ele>31.333333333333332</ele><time>2026-04-04T16:11:30.064Z</time></trkpt><trkpt lat="45.8254242" lon="12.3658241"><ele>32.0</ele><time>2026-04-04T16:11:31.064Z</time></trkpt><trkpt lat="45.8252562" lon="12.3656587"><ele>31.333333333333332</ele><time>2026-04-04T16:11:32.064Z</time></trkpt><trkpt lat="45.8250887" lon="12.3654905"><ele>30.666666666666664</ele><time>2026-04-04T16:11:33.064Z</time></trkpt><trkpt lat="45.824919" lon="12.3653256"><ele>30.0</ele><time>2026-04-04T16:11:34.063Z</time></trkpt><trkpt lat="45.8247477" lon="12.365156"><ele>30.0</ele><time>2026-04-04T16:11:35.063Z</time></trkpt><trkpt lat="45.8245787" lon="12.3649861"><ele>30.0</ele><time>2026-04-04T16:11:36.063Z</time></trkpt><trkpt lat="45.8244144" lon="12.3648196"><ele>30.0</ele><time>2026-04-04T16:11:37.063Z</time></trkpt><trkpt lat="45.8242493" lon="12.364648"><ele>30.666666666666664</ele><time>2026-04-04T16:11:38.063Z</time></trkpt><trkpt lat="45.8240915" lon="12.3644719"><ele>31.333333333333332</ele><time>2026-04-04T16:11:39.063Z</time></trkpt><trkpt lat="45.8239389" lon="12.364283"><ele>32.0</ele><time>2026-04-04T16:11:40.064Z</time></trkpt><trkpt lat="45.823799" lon="12.3640871"><ele>32.0</ele><time>2026-04-04T16:11:41.063Z</time></trkpt><trkpt lat="45.8236646" lon="12.3638779"><ele>32.0</ele><time>2026-04-04T16:11:42.064Z</time></trkpt><trkpt lat="45.8235363" lon="12.3636591"><ele>32.0</ele><time>2026-04-04T16:11:43.063Z</time></trkpt><trkpt lat="45.8234127" lon="12.3634353"><ele>32.33333333333333</ele><time>2026-04-04T16:11:44.064Z</time></trkpt><trkpt lat="45.8232934" lon="12.3632024"><ele>32.666666666666664</ele><time>2026-04-04T16:11:45.064Z</time></trkpt><trkpt lat="45.8231807" lon="12.362965"><ele>33.0</ele><time>2026-04-04T16:11:46.064Z</time></trkpt><trkpt lat="45.8230717" lon="12.3627232"><ele>33.0</ele><time>2026-04-04T16:11:47.063Z</time></trkpt><trkpt lat="45.8229665" lon="12.3624783"><ele>33.0</ele><time>2026-04-04T16:11:48.064Z</time></trkpt><trkpt lat="45.8228661" lon="12.3622341"><ele>33.0</ele><time>2026-04-04T16:11:49.064Z</time></trkpt><trkpt lat="45.8227673" lon="12.3620011"><ele>32.666666666666664</ele><time>2026-04-04T16:11:50.064Z</time></trkpt><trkpt lat="45.8226702" lon="12.3617739"><ele>32.33333333333333</ele><time>2026-04-04T16:11:51.064Z</time></trkpt><trkpt lat="45.8225738" lon="12.361548"><ele>32.0</ele><time>2026-04-04T16:11:52.064Z</time></trkpt><trkpt lat="45.8224816" lon="12.3613325"><ele>33.0</ele><time>2026-04-04T16:11:53.064Z</time></trkpt><trkpt lat="45.8223956" lon="12.3611249"><ele>34.0</ele><time>2026-04-04T16:11:54.064Z</time></trkpt><trkpt lat="45.8223138" lon="12.3609146"><ele>35.0</ele><time>2026-04-04T16:11:55.064Z</time></trkpt><trkpt lat="45.82225" lon="12.360686"><ele>34.666666666666664</ele><time>2026-04-04T16:11:56.064Z</time></trkpt><trkpt lat="45.8222024" lon="12.3604437"><ele>34.333333333333336</ele><time>2026-04-04T16:11:57.064Z</time></trkpt><trkpt lat="45.822171" lon="12.3601841"><ele>34.0</ele><time>2026-04-04T16:11:58.064Z</time></trkpt><trkpt lat="45.8221494" lon="12.3599139"><ele>34.333333333333336</ele><time>2026-04-04T16:11:59.064Z</time></trkpt><trkpt lat="45.8221369" lon="12.3596397"><ele>34.666666666666664</ele><time>2026-04-04T16:12:00.063Z</time></trkpt><trkpt lat="45.8221225" lon="12.3593678"><ele>35.0</ele><time>2026-04-04T16:12:01.064Z</time></trkpt><trkpt lat="45.8221004" lon="12.3590994"><ele>34.666666666666664</ele><time>2026-04-04T16:12:02.064Z</time></trkpt><trkpt lat="45.8220628" lon="12.3588404"><ele>34.333333333333336</ele><time>2026-04-04T16:12:03.063Z</time></trkpt><trkpt lat="45.8219999" lon="12.358598"><ele>34.0</ele><time>2026-04-04T16:12:04.064Z</time></trkpt><trkpt lat="45.8219136" lon="12.3583724"><ele>34.333333333333336</ele><time>2026-04-04T16:12:05.064Z</time></trkpt><trkpt lat="45.821807" lon="12.3581673"><ele>34.666666666666664</ele><time>2026-04-04T16:12:06.063Z</time></trkpt><trkpt lat="45.8216834" lon="12.3579769"><ele>35.0</ele><time>2026-04-04T16:12:07.063Z</time></trkpt><trkpt lat="45.8215546" lon="12.357788"><ele>35.0</ele><time>2026-04-04T16:12:08.064Z</time></trkpt><trkpt lat="45.8214287" lon="12.357593"><ele>35.0</ele><time>2026-04-04T16:12:09.064Z</time></trkpt><trkpt lat="45.8213003" lon="12.3573937"><ele>35.0</ele><time>2026-04-04T16:12:10.063Z</time></trkpt><trkpt lat="45.8211755" lon="12.357184"><ele>34.666666666666664</ele><time>2026-04-04T16:12:11.064Z</time></trkpt><trkpt lat="45.8210591" lon="12.3569537"><ele>34.333333333333336</ele><time>2026-04-04T16:12:12.063Z</time></trkpt><trkpt lat="45.8209474" lon="12.3567067"><ele>34.0</ele><time>2026-04-04T16:12:13.063Z</time></trkpt><trkpt lat="45.8208422" lon="12.356452"><ele>34.333333333333336</ele><time>2026-04-04T16:12:14.064Z</time></trkpt><trkpt lat="45.8207383" lon="12.356191"><ele>34.666666666666664</ele><time>2026-04-04T16:12:15.063Z</time></trkpt><trkpt lat="45.8206334" lon="12.3559308"><ele>35.0</ele><time>2026-04-04T16:12:16.064Z</time></trkpt><trkpt lat="45.820532" lon="12.3556642"><ele>35.0</ele><time>2026-04-04T16:12:17.064Z</time></trkpt><trkpt lat="45.820428" lon="12.3554007"><ele>35.0</ele><time>2026-04-04T16:12:18.064Z</time></trkpt><trkpt lat="45.8203248" lon="12.3551373"><ele>35.0</ele><time>2026-04-04T16:12:19.064Z</time></trkpt><trkpt lat="45.8202254" lon="12.3548709"><ele>35.0</ele><time>2026-04-04T16:12:20.063Z</time></trkpt><trkpt lat="45.8201238" lon="12.3546104"><ele>35.0</ele><time>2026-04-04T16:12:21.064Z</time></trkpt><trkpt lat="45.8200231" lon="12.3543554"><ele>35.0</ele><time>2026-04-04T16:12:22.064Z</time></trkpt><trkpt lat="45.8199247" lon="12.3540994"><ele>34.666666666666664</ele><time>2026-04-04T16:12:23.063Z</time></trkpt><trkpt lat="45.819825" lon="12.3538477"><ele>34.333333333333336</ele><time>2026-04-04T16:12:24.064Z</time></trkpt><trkpt lat="45.8197278" lon="12.3535962"><ele>34.0</ele><time>2026-04-04T16:12:25.064Z</time></trkpt><trkpt lat="45.8196259" lon="12.3533491"><ele>34.0</ele><time>2026-04-04T16:12:26.064Z</time></trkpt><trkpt lat="45.8195268" lon="12.3531004"><ele>34.0</ele><time>2026-04-04T16:12:27.064Z</time></trkpt><trkpt lat="45.8194278" lon="12.3528513"><ele>34.0</ele><time>2026-04-04T16:12:28.064Z</time></trkpt><trkpt lat="45.8193274" lon="12.3525993"><ele>34.333333333333336</ele><time>2026-04-04T16:12:29.064Z</time></trkpt><trkpt lat="45.819228" lon="12.3523532"><ele>34.666666666666664</ele><time>2026-04-04T16:12:30.063Z</time></trkpt><trkpt lat="45.8191266" lon="12.3521112"><ele>35.0</ele><time>2026-04-04T16:12:31.063Z</time></trkpt><trkpt lat="45.819015" lon="12.3518801"><ele>35.0</ele><time>2026-04-04T16:12:32.064Z</time></trkpt><trkpt lat="45.8188936" lon="12.3516592"><ele>35.0</ele><time>2026-04-04T16:12:33.064Z</time></trkpt><trkpt lat="45.8187616" lon="12.3514534"><ele>35.0</ele><time>2026-04-04T16:12:34.063Z</time></trkpt><trkpt lat="45.818616" lon="12.3512616"><ele>35.33333333333333</ele><time>2026-04-04T16:12:35.063Z</time></trkpt><trkpt lat="45.8184615" lon="12.351081"><ele>35.666666666666664</ele><time>2026-04-04T16:12:36.063Z</time></trkpt><trkpt lat="45.8183053" lon="12.3509009"><ele>36.0</ele><time>2026-04-04T16:12:37.063Z</time></trkpt><trkpt lat="45.8181507" lon="12.3507166"><ele>36.0</ele><time>2026-04-04T16:12:38.064Z</time></trkpt><trkpt lat="45.8179963" lon="12.3505341"><ele>36.0</ele><time>2026-04-04T16:12:39.064Z</time></trkpt><trkpt lat="45.8178444" lon="12.3503575"><ele>36.0</ele><time>2026-04-04T16:12:40.063Z</time></trkpt><trkpt lat="45.8176941" lon="12.3501838"><ele>36.0</ele><time>2026-04-04T16:12:41.063Z</time></trkpt><trkpt lat="45.8175446" lon="12.3500274"><ele>36.0</ele><time>2026-04-04T16:12:42.064Z</time></trkpt><trkpt lat="45.8173905" lon="12.3498944"><ele>36.0</ele><time>2026-04-04T16:12:43.064Z</time></trkpt><trkpt lat="45.8172265" lon="12.3497913"><ele>36.0</ele><time>2026-04-04T16:12:44.064Z</time></trkpt><trkpt lat="45.8170594" lon="12.3497135"><ele>36.0</ele><time>2026-04-04T16:12:45.063Z</time></trkpt><trkpt lat="45.8168913" lon="12.3496537"><ele>36.0</ele><time>2026-04-04T16:12:46.063Z</time></trkpt><trkpt lat="45.8167234" lon="12.3496233"><ele>36.0</ele><time>2026-04-04T16:12:47.063Z</time></trkpt><trkpt lat="45.8165707" lon="12.3496313"><ele>36.0</ele><time>2026-04-04T16:12:48.064Z</time></trkpt><trkpt lat="45.8164461" lon="12.3496588"><ele>36.0</ele><time>2026-04-04T16:12:49.063Z</time></trkpt><trkpt lat="45.8163482" lon="12.3496878"><ele>36.0</ele><time>2026-04-04T16:12:50.064Z</time></trkpt><trkpt lat="45.8162718" lon="12.3497147"><ele>36.166666666666664</ele><time>2026-04-04T16:12:51.063Z</time></trkpt><trkpt lat="45.8162109" lon="12.3497379"><ele>36.333333333333336</ele><time>2026-04-04T16:12:52.064Z</time></trkpt><trkpt lat="45.8161275" lon="12.3497709"><ele>36.5</ele><time>2026-04-04T16:12:54.064Z</time></trkpt><trkpt lat="45.8160627" lon="12.349791"><ele>36.66666666666667</ele><time>2026-04-04T16:12:57.064Z</time></trkpt><trkpt lat="45.8160023" lon="12.3498172"><ele>36.833333333333336</ele><time>2026-04-04T16:13:03.063Z</time></trkpt><trkpt lat="45.8159033" lon="12.3498479"><ele>37.0</ele><time>2026-04-04T16:13:05.063Z</time></trkpt><trkpt lat="45.815795" lon="12.3498739"><ele>37.16666666666667</ele><time>2026-04-04T16:13:07.064Z</time></trkpt><trkpt lat="45.81573" lon="12.3498869"><ele>37.333333333333336</ele><time>2026-04-04T16:13:08.064Z</time></trkpt><trkpt lat="45.8156538" lon="12.3498975"><ele>37.5</ele><time>2026-04-04T16:13:09.063Z</time></trkpt><trkpt lat="45.815566" lon="12.3499082"><ele>37.666666666666664</ele><time>2026-04-04T16:13:10.063Z</time></trkpt><trkpt lat="45.8154712" lon="12.3499166"><ele>37.83333333333333</ele><time>2026-04-04T16:13:11.064Z</time></trkpt><trkpt lat="45.8153666" lon="12.3499252"><ele>38.0</ele><time>2026-04-04T16:13:12.063Z</time></trkpt><trkpt lat="45.8152575" lon="12.3499272"><ele>38.25</ele><time>2026-04-04T16:13:13.063Z</time></trkpt><trkpt lat="45.8151424" lon="12.3499121"><ele>38.5</ele><time>2026-04-04T16:13:14.063Z</time></trkpt><trkpt lat="45.8150322" lon="12.3498785"><ele>38.75</ele><time>2026-04-04T16:13:15.063Z</time></trkpt><trkpt lat="45.8149239" lon="12.3498344"><ele>39.0</ele><time>2026-04-04T16:13:16.064Z</time></trkpt><trkpt lat="45.8148141" lon="12.3497863"><ele>39.0</ele><time>2026-04-04T16:13:17.064Z</time></trkpt><trkpt lat="45.8147021" lon="12.3497308"><ele>39.0</ele><time>2026-04-04T16:13:18.064Z</time></trkpt><trkpt lat="45.8145906" lon="12.3496789"><ele>39.0</ele><time>2026-04-04T16:13:19.063Z</time></trkpt><trkpt lat="45.8144837" lon="12.3496295"><ele>39.0</ele><time>2026-04-04T16:13:20.064Z</time></trkpt><trkpt lat="45.8143792" lon="12.3495832"><ele>38.5</ele><time>2026-04-04T16:13:21.063Z</time></trkpt><trkpt lat="45.8142739" lon="12.3495347"><ele>38.0</ele><time>2026-04-04T16:13:22.063Z</time></trkpt><trkpt lat="45.8141634" lon="12.349487"><ele>37.5</ele><time>2026-04-04T16:13:23.063Z</time></trkpt><trkpt lat="45.8140475" lon="12.3494326"><ele>37.0</ele><time>2026-04-04T16:13:24.064Z</time></trkpt><trkpt lat="45.8139323" lon="12.3493811"><ele>37.0</ele><time>2026-04-04T16:13:25.064Z</time></trkpt><trkpt lat="45.8138135" lon="12.3493265"><ele>37.0</ele><time>2026-04-04T16:13:26.064Z</time></trkpt><trkpt lat="45.8136917" lon="12.3492725"><ele>37.0</ele><time>2026-04-04T16:13:27.063Z</time></trkpt><trkpt lat="45.8135718" lon="12.3492162"><ele>37.0</ele><time>2026-04-04T16:13:28.063Z</time></trkpt><trkpt lat="45.8134548" lon="12.3491626"><ele>37.0</ele><time>2026-04-04T16:13:29.063Z</time></trkpt><trkpt lat="45.813343" lon="12.3491126"><ele>37.0</ele><time>2026-04-04T16:13:30.064Z</time></trkpt><trkpt lat="45.8132308" lon="12.3490661"><ele>37.0</ele><time>2026-04-04T16:13:31.064Z</time></trkpt><trkpt lat="45.8131274" lon="12.3490157"><ele>37.0</ele><time>2026-04-04T16:13:32.064Z</time></trkpt><trkpt lat="45.8130285" lon="12.3489644"><ele>37.0</ele><time>2026-04-04T16:13:33.063Z</time></trkpt><trkpt lat="45.812936" lon="12.3489116"><ele>36.833333333333336</ele><time>2026-04-04T16:13:34.063Z</time></trkpt><trkpt lat="45.8128502" lon="12.3488605"><ele>36.66666666666667</ele><time>2026-04-04T16:13:35.063Z</time></trkpt><trkpt lat="45.8127788" lon="12.3488117"><ele>36.5</ele><time>2026-04-04T16:13:36.063Z</time></trkpt><trkpt lat="45.8127159" lon="12.3487612"><ele>36.333333333333336</ele><time>2026-04-04T16:13:37.063Z</time></trkpt><trkpt lat="45.8126551" lon="12.3486955"><ele>36.166666666666664</ele><time>2026-04-04T16:13:38.064Z</time></trkpt><trkpt lat="45.8125932" lon="12.3486172"><ele>36.0</ele><time>2026-04-04T16:13:39.063Z</time></trkpt><trkpt lat="45.8125186" lon="12.3485445"><ele>35.8</ele><time>2026-04-04T16:13:40.063Z</time></trkpt><trkpt lat="45.8124237" lon="12.3485061"><ele>35.6</ele><time>2026-04-04T16:13:41.063Z</time></trkpt><trkpt lat="45.8123222" lon="12.3485058"><ele>35.4</ele><time>2026-04-04T16:13:42.064Z</time></trkpt><trkpt lat="45.8122238" lon="12.3485443"><ele>35.2</ele><time>2026-04-04T16:13:43.063Z</time></trkpt><trkpt lat="45.812122" lon="12.3485999"><ele>35.0</ele><time>2026-04-04T16:13:44.064Z</time></trkpt><trkpt lat="45.8120084" lon="12.3486157"><ele>35.0</ele><time>2026-04-04T16:13:45.063Z</time></trkpt><trkpt lat="45.8118877" lon="12.3485996"><ele>35.0</ele><time>2026-04-04T16:13:46.064Z</time></trkpt><trkpt lat="45.8117594" lon="12.3485613"><ele>35.0</ele><time>2026-04-04T16:13:47.064Z</time></trkpt><trkpt lat="45.8116199" lon="12.3485155"><ele>35.0</ele><time>2026-04-04T16:13:48.064Z</time></trkpt><trkpt lat="45.8114696" lon="12.3484666"><ele>35.0</ele><time>2026-04-04T16:13:49.063Z</time></trkpt><trkpt lat="45.8113026" lon="12.348416"><ele>35.0</ele><time>2026-04-04T16:13:50.063Z</time></trkpt><trkpt lat="45.8111195" lon="12.3483588"><ele>35.0</ele><time>2026-04-04T16:13:51.063Z</time></trkpt><trkpt lat="45.8109253" lon="12.3482993"><ele>35.0</ele><time>2026-04-04T16:13:52.064Z</time></trkpt><trkpt lat="45.8107204" lon="12.3482375"><ele>35.0</ele><time>2026-04-04T16:13:53.064Z</time></trkpt><trkpt lat="45.8105072" lon="12.3481724"><ele>35.0</ele><time>2026-04-04T16:13:54.064Z</time></trkpt><trkpt lat="45.810291" lon="12.3481018"><ele>35.666666666666664</ele><time>2026-04-04T16:13:55.064Z</time></trkpt><trkpt lat="45.8100729" lon="12.3480325"><ele>36.333333333333336</ele><time>2026-04-04T16:13:56.064Z</time></trkpt><trkpt lat="45.8098563" lon="12.3479684"><ele>37.0</ele><time>2026-04-04T16:13:57.064Z</time></trkpt><trkpt lat="45.8096417" lon="12.3479037"><ele>37.0</ele><time>2026-04-04T16:13:58.064Z</time></trkpt><trkpt lat="45.809429" lon="12.3478388"><ele>37.0</ele><time>2026-04-04T16:13:59.063Z</time></trkpt><trkpt lat="45.8092166" lon="12.347775"><ele>37.0</ele><time>2026-04-04T16:14:00.064Z</time></trkpt><trkpt lat="45.8090052" lon="12.347711"><ele>37.0</ele><time>2026-04-04T16:14:01.063Z</time></trkpt><trkpt lat="45.8087974" lon="12.3476476"><ele>37.0</ele><time>2026-04-04T16:14:02.063Z</time></trkpt><trkpt lat="45.8085909" lon="12.3475795"><ele>37.0</ele><time>2026-04-04T16:14:03.063Z</time></trkpt><trkpt lat="45.808385" lon="12.3474973"><ele>36.66666666666667</ele><time>2026-04-04T16:14:04.064Z</time></trkpt><trkpt lat="45.8081818" lon="12.3473925"><ele>36.333333333333336</ele><time>2026-04-04T16:14:05.064Z</time></trkpt><trkpt lat="45.8079838" lon="12.3472597"><ele>36.0</ele><time>2026-04-04T16:14:06.063Z</time></trkpt><trkpt lat="45.8077931" lon="12.3470979"><ele>36.666666666666664</ele><time>2026-04-04T16:14:07.063Z</time></trkpt><trkpt lat="45.8076058" lon="12.3469178"><ele>37.33333333333333</ele><time>2026-04-04T16:14:08.063Z</time></trkpt><trkpt lat="45.8074221" lon="12.3467365"><ele>38.0</ele><time>2026-04-04T16:14:09.063Z</time></trkpt><trkpt lat="45.8072408" lon="12.3465637"><ele>38.0</ele><time>2026-04-04T16:14:10.064Z</time></trkpt><trkpt lat="45.8070623" lon="12.3463918"><ele>38.0</ele><time>2026-04-04T16:14:11.064Z</time></trkpt><trkpt lat="45.8068855" lon="12.3462232"><ele>38.0</ele><time>2026-04-04T16:14:12.063Z</time></trkpt><trkpt lat="45.8067124" lon="12.3460565"><ele>38.33333333333333</ele><time>2026-04-04T16:14:13.063Z</time></trkpt><trkpt lat="45.80654" lon="12.3458895"><ele>38.666666666666664</ele><time>2026-04-04T16:14:14.063Z</time></trkpt><trkpt lat="45.8063668" lon="12.3457237"><ele>39.0</ele><time>2026-04-04T16:14:15.063Z</time></trkpt><trkpt lat="45.8061914" lon="12.3455581"><ele>38.666666666666664</ele><time>2026-04-04T16:14:16.063Z</time></trkpt><trkpt lat="45.8060141" lon="12.345392"><ele>38.33333333333333</ele><time>2026-04-04T16:14:17.064Z</time></trkpt><trkpt lat="45.8058365" lon="12.3452193"><ele>38.0</ele><time>2026-04-04T16:14:18.063Z</time></trkpt><trkpt lat="45.8056604" lon="12.3450493"><ele>38.0</ele><time>2026-04-04T16:14:19.064Z</time></trkpt><trkpt lat="45.8054846" lon="12.344876"><ele>38.0</ele><time>2026-04-04T16:14:20.063Z</time></trkpt><trkpt lat="45.8053096" lon="12.3447073"><ele>38.0</ele><time>2026-04-04T16:14:21.064Z</time></trkpt><trkpt lat="45.8051337" lon="12.3445403"><ele>37.666666666666664</ele><time>2026-04-04T16:14:22.064Z</time></trkpt><trkpt lat="45.8049547" lon="12.3443832"><ele>37.333333333333336</ele><time>2026-04-04T16:14:23.063Z</time></trkpt><trkpt lat="45.8047771" lon="12.3442305"><ele>37.0</ele><time>2026-04-04T16:14:24.063Z</time></trkpt><trkpt lat="45.8045991" lon="12.3440853"><ele>37.0</ele><time>2026-04-04T16:14:25.063Z</time></trkpt><trkpt lat="45.8044225" lon="12.3439494"><ele>37.0</ele><time>2026-04-04T16:14:26.064Z</time></trkpt><trkpt lat="45.8042446" lon="12.3438192"><ele>37.0</ele><time>2026-04-04T16:14:27.064Z</time></trkpt><trkpt lat="45.804063" lon="12.3436997"><ele>37.0</ele><time>2026-04-04T16:14:28.063Z</time></trkpt><trkpt lat="45.8038822" lon="12.3435849"><ele>37.0</ele><time>2026-04-04T16:14:29.063Z</time></trkpt><trkpt lat="45.8036892" lon="12.3434759"><ele>37.0</ele><time>2026-04-04T16:14:30.063Z</time></trkpt><trkpt lat="45.8034898" lon="12.3433648"><ele>37.333333333333336</ele><time>2026-04-04T16:14:31.063Z</time></trkpt><trkpt lat="45.8032956" lon="12.3432332"><ele>37.666666666666664</ele><time>2026-04-04T16:14:32.064Z</time></trkpt><trkpt lat="45.8031007" lon="12.3431006"><ele>38.0</ele><time>2026-04-04T16:14:33.063Z</time></trkpt><trkpt lat="45.8029079" lon="12.3429877"><ele>38.0</ele><time>2026-04-04T16:14:34.064Z</time></trkpt><trkpt lat="45.802728" lon="12.3428825"><ele>38.0</ele><time>2026-04-04T16:14:35.063Z</time></trkpt><trkpt lat="45.802555" lon="12.3427861"><ele>38.0</ele><time>2026-04-04T16:14:36.064Z</time></trkpt><trkpt lat="45.8023867" lon="12.3427076"><ele>38.33333333333333</ele><time>2026-04-04T16:14:37.063Z</time></trkpt><trkpt lat="45.802223" lon="12.3426378"><ele>38.666666666666664</ele><time>2026-04-04T16:14:38.064Z</time></trkpt><trkpt lat="45.8020603" lon="12.3425811"><ele>39.0</ele><time>2026-04-04T16:14:39.064Z</time></trkpt><trkpt lat="45.8018981" lon="12.3425496"><ele>39.0</ele><time>2026-04-04T16:14:40.063Z</time></trkpt><trkpt lat="45.801739" lon="12.342539"><ele>39.0</ele><time>2026-04-04T16:14:41.063Z</time></trkpt><trkpt lat="45.8015807" lon="12.3425381"><ele>39.0</ele><time>2026-04-04T16:14:42.063Z</time></trkpt><trkpt lat="45.8014228" lon="12.3425456"><ele>39.0</ele><time>2026-04-04T16:14:43.064Z</time></trkpt><trkpt lat="45.8012673" lon="12.3425648"><ele>39.0</ele><time>2026-04-04T16:14:44.063Z</time></trkpt><trkpt lat="45.8011115" lon="12.3425888"><ele>39.0</ele><time>2026-04-04T16:14:45.064Z</time></trkpt><trkpt lat="45.8009571" lon="12.3426191"><ele>39.0</ele><time>2026-04-04T16:14:46.063Z</time></trkpt><trkpt lat="45.8008104" lon="12.3426546"><ele>39.0</ele><time>2026-04-04T16:14:47.063Z</time></trkpt><trkpt lat="45.8006639" lon="12.3427037"><ele>39.0</ele><time>2026-04-04T16:14:48.063Z</time></trkpt><trkpt lat="45.8005179" lon="12.3427666"><ele>39.0</ele><time>2026-04-04T16:14:49.063Z</time></trkpt><trkpt lat="45.8003713" lon="12.3428452"><ele>39.0</ele><time>2026-04-04T16:14:50.063Z</time></trkpt><trkpt lat="45.8002269" lon="12.3429317"><ele>39.0</ele><time>2026-04-04T16:14:51.064Z</time></trkpt><trkpt lat="45.8000818" lon="12.3430253"><ele>38.333333333333336</ele><time>2026-04-04T16:14:52.063Z</time></trkpt><trkpt lat="45.7999348" lon="12.3431245"><ele>37.66666666666667</ele><time>2026-04-04T16:14:53.063Z</time></trkpt><trkpt lat="45.7997879" lon="12.3432304"><ele>37.0</ele><time>2026-04-04T16:14:54.063Z</time></trkpt><trkpt lat="45.799639" lon="12.3433378"><ele>37.0</ele><time>2026-04-04T16:14:55.064Z</time></trkpt><trkpt lat="45.7994887" lon="12.3434412"><ele>37.0</ele><time>2026-04-04T16:14:56.063Z</time></trkpt><trkpt lat="45.7993372" lon="12.3435452"><ele>37.0</ele><time>2026-04-04T16:14:57.064Z</time></trkpt><trkpt lat="45.7991842" lon="12.3436502"><ele>37.0</ele><time>2026-04-04T16:14:58.064Z</time></trkpt><trkpt lat="45.7990345" lon="12.3437542"><ele>37.0</ele><time>2026-04-04T16:14:59.063Z</time></trkpt><trkpt lat="45.7988901" lon="12.3438582"><ele>37.0</ele><time>2026-04-04T16:15:00.063Z</time></trkpt><trkpt lat="45.7987477" lon="12.3439606"><ele>37.0</ele><time>2026-04-04T16:15:01.063Z</time></trkpt><trkpt lat="45.7986112" lon="12.3440578"><ele>37.0</ele><time>2026-04-04T16:15:02.063Z</time></trkpt><trkpt lat="45.7984772" lon="12.3441513"><ele>37.0</ele><time>2026-04-04T16:15:03.063Z</time></trkpt><trkpt lat="45.7983454" lon="12.3442442"><ele>37.0</ele><time>2026-04-04T16:15:04.063Z</time></trkpt><trkpt lat="45.7982118" lon="12.3443397"><ele>37.333333333333336</ele><time>2026-04-04T16:15:05.063Z</time></trkpt><trkpt lat="45.7980771" lon="12.3444375"><ele>37.666666666666664</ele><time>2026-04-04T16:15:06.063Z</time></trkpt><trkpt lat="45.797943" lon="12.344535"><ele>38.0</ele><time>2026-04-04T16:15:07.063Z</time></trkpt><trkpt lat="45.797807" lon="12.3446303"><ele>38.0</ele><time>2026-04-04T16:15:08.063Z</time></trkpt><trkpt lat="45.7976819" lon="12.3447295"><ele>38.0</ele><time>2026-04-04T16:15:09.064Z</time></trkpt><trkpt lat="45.7975709" lon="12.3448283"><ele>38.0</ele><time>2026-04-04T16:15:10.064Z</time></trkpt><trkpt lat="45.7974672" lon="12.3449221"><ele>38.0</ele><time>2026-04-04T16:15:11.064Z</time></trkpt><trkpt lat="45.7973714" lon="12.3450185"><ele>37.5</ele><time>2026-04-04T16:15:12.063Z</time></trkpt><trkpt lat="45.7972795" lon="12.3451053"><ele>37.0</ele><time>2026-04-04T16:15:13.063Z</time></trkpt><trkpt lat="45.7971789" lon="12.3451817"><ele>36.5</ele><time>2026-04-04T16:15:14.064Z</time></trkpt><trkpt lat="45.7970702" lon="12.3452574"><ele>36.0</ele><time>2026-04-04T16:15:15.064Z</time></trkpt><trkpt lat="45.7969648" lon="12.3453656"><ele>36.0</ele><time>2026-04-04T16:15:16.064Z</time></trkpt><trkpt lat="45.7968622" lon="12.3454918"><ele>36.0</ele><time>2026-04-04T16:15:17.063Z</time></trkpt><trkpt lat="45.7967535" lon="12.3456261"><ele>36.0</ele><time>2026-04-04T16:15:18.064Z</time></trkpt><trkpt lat="45.7966339" lon="12.3457648"><ele>36.0</ele><time>2026-04-04T16:15:19.064Z</time></trkpt><trkpt lat="45.796509" lon="12.3459076"><ele>35.666666666666664</ele><time>2026-04-04T16:15:20.063Z</time></trkpt><trkpt lat="45.796373" lon="12.3460559"><ele>35.33333333333333</ele><time>2026-04-04T16:15:21.064Z</time></trkpt><trkpt lat="45.7962287" lon="12.3462143"><ele>35.0</ele><time>2026-04-04T16:15:22.063Z</time></trkpt><trkpt lat="45.7960763" lon="12.3463805"><ele>35.33333333333333</ele><time>2026-04-04T16:15:23.064Z</time></trkpt><trkpt lat="45.7959202" lon="12.346548"><ele>35.666666666666664</ele><time>2026-04-04T16:15:24.063Z</time></trkpt><trkpt lat="45.7957592" lon="12.3467203"><ele>36.0</ele><time>2026-04-04T16:15:25.063Z</time></trkpt><trkpt lat="45.7955932" lon="12.3468995"><ele>36.0</ele><time>2026-04-04T16:15:26.063Z</time></trkpt><trkpt lat="45.795421" lon="12.3470852"><ele>36.0</ele><time>2026-04-04T16:15:27.063Z</time></trkpt><trkpt lat="45.7952434" lon="12.3472758"><ele>36.0</ele><time>2026-04-04T16:15:28.063Z</time></trkpt><trkpt lat="45.7950618" lon="12.3474726"><ele>35.0</ele><time>2026-04-04T16:15:29.064Z</time></trkpt><trkpt lat="45.794877" lon="12.3476726"><ele>34.0</ele><time>2026-04-04T16:15:30.063Z</time></trkpt><trkpt lat="45.7946904" lon="12.3478781"><ele>34.0</ele><time>2026-04-04T16:15:31.063Z</time></trkpt><trkpt lat="45.7945003" lon="12.348084"><ele>34.0</ele><time>2026-04-04T16:15:32.063Z</time></trkpt><trkpt lat="45.7943092" lon="12.3482907"><ele>35.0</ele><time>2026-04-04T16:15:33.063Z</time></trkpt><trkpt lat="45.7941169" lon="12.348497"><ele>36.0</ele><time>2026-04-04T16:15:34.064Z</time></trkpt><trkpt lat="45.7939249" lon="12.3487039"><ele>35.5</ele><time>2026-04-04T16:15:35.063Z</time></trkpt><trkpt lat="45.7937308" lon="12.3489117"><ele>35.0</ele><time>2026-04-04T16:15:36.064Z</time></trkpt><trkpt lat="45.7935373" lon="12.3491199"><ele>35.5</ele><time>2026-04-04T16:15:37.064Z</time></trkpt><trkpt lat="45.7933428" lon="12.3493313"><ele>36.0</ele><time>2026-04-04T16:15:38.064Z</time></trkpt><trkpt lat="45.7931484" lon="12.3495431"><ele>35.0</ele><time>2026-04-04T16:15:39.063Z</time></trkpt><trkpt lat="45.792952" lon="12.3497551"><ele>34.0</ele><time>2026-04-04T16:15:40.063Z</time></trkpt><trkpt lat="45.792755" lon="12.349967"><ele>33.5</ele><time>2026-04-04T16:15:41.063Z</time></trkpt><trkpt lat="45.7925608" lon="12.35018"><ele>33.0</ele><time>2026-04-04T16:15:42.064Z</time></trkpt><trkpt lat="45.7923654" lon="12.3503961"><ele>33.0</ele><time>2026-04-04T16:15:43.063Z</time></trkpt><trkpt lat="45.792164" lon="12.3506099"><ele>33.0</ele><time>2026-04-04T16:15:44.064Z</time></trkpt><trkpt lat="45.7919658" lon="12.3508233"><ele>32.5</ele><time>2026-04-04T16:15:45.064Z</time></trkpt><trkpt lat="45.7917652" lon="12.351039"><ele>32.0</ele><time>2026-04-04T16:15:46.064Z</time></trkpt><trkpt lat="45.7915639" lon="12.3512557"><ele>31.5</ele><time>2026-04-04T16:15:47.064Z</time></trkpt><trkpt lat="45.7913626" lon="12.3514702"><ele>31.0</ele><time>2026-04-04T16:15:48.063Z</time></trkpt><trkpt lat="45.7911615" lon="12.3516883"><ele>31.0</ele><time>2026-04-04T16:15:49.063Z</time></trkpt><trkpt lat="45.790958" lon="12.3519062"><ele>31.0</ele><time>2026-04-04T16:15:50.064Z</time></trkpt><trkpt lat="45.7907574" lon="12.3521225"><ele>30.5</ele><time>2026-04-04T16:15:51.063Z</time></trkpt><trkpt lat="45.7905594" lon="12.3523401"><ele>30.0</ele><time>2026-04-04T16:15:52.063Z</time></trkpt><trkpt lat="45.7903643" lon="12.3525526"><ele>30.0</ele><time>2026-04-04T16:15:53.064Z</time></trkpt><trkpt lat="45.7901773" lon="12.3527533"><ele>30.0</ele><time>2026-04-04T16:15:54.063Z</time></trkpt><trkpt lat="45.7900028" lon="12.3529438"><ele>30.333333333333336</ele><time>2026-04-04T16:15:55.063Z</time></trkpt><trkpt lat="45.7898388" lon="12.3531235"><ele>30.666666666666668</ele><time>2026-04-04T16:15:56.064Z</time></trkpt><trkpt lat="45.7896873" lon="12.3532854"><ele>31.0</ele><time>2026-04-04T16:15:57.064Z</time></trkpt><trkpt lat="45.7895478" lon="12.3534255"><ele>31.0</ele><time>2026-04-04T16:15:58.063Z</time></trkpt><trkpt lat="45.7894216" lon="12.353529"><ele>31.0</ele><time>2026-04-04T16:15:59.063Z</time></trkpt><trkpt lat="45.7893051" lon="12.3536"><ele>31.0</ele><time>2026-04-04T16:16:00.064Z</time></trkpt><trkpt lat="45.7892075" lon="12.353642"><ele>31.0</ele><time>2026-04-04T16:16:01.063Z</time></trkpt><trkpt lat="45.7891242" lon="12.3536615"><ele>31.333333333333336</ele><time>2026-04-04T16:16:02.064Z</time></trkpt><trkpt lat="45.7890597" lon="12.3536661"><ele>31.666666666666668</ele><time>2026-04-04T16:16:03.063Z</time></trkpt><trkpt lat="45.7889936" lon="12.3536524"><ele>32.0</ele><time>2026-04-04T16:16:05.064Z</time></trkpt><trkpt lat="45.7889011" lon="12.3536032"><ele>32.333333333333336</ele><time>2026-04-04T16:16:09.064Z</time></trkpt><trkpt lat="45.7887895" lon="12.3535351"><ele>32.666666666666664</ele><time>2026-04-04T16:16:11.063Z</time></trkpt><trkpt lat="45.7887239" lon="12.3535337"><ele>33.0</ele><time>2026-04-04T16:16:12.063Z</time></trkpt><trkpt lat="45.7886479" lon="12.3535537"><ele>33.0</ele><time>2026-04-04T16:16:13.064Z</time></trkpt><trkpt lat="45.78857" lon="12.3535909"><ele>33.0</ele><time>2026-04-04T16:16:14.063Z</time></trkpt><trkpt lat="45.788481" lon="12.3536448"><ele>33.0</ele><time>2026-04-04T16:16:15.064Z</time></trkpt><trkpt lat="45.7883864" lon="12.3537205"><ele>33.0</ele><time>2026-04-04T16:16:16.064Z</time></trkpt><trkpt lat="45.7882903" lon="12.3538173"><ele>33.0</ele><time>2026-04-04T16:16:17.063Z</time></trkpt><trkpt lat="45.7881901" lon="12.3539237"><ele>32.75</ele><time>2026-04-04T16:16:18.063Z</time></trkpt><trkpt lat="45.7880809" lon="12.3540205"><ele>32.5</ele><time>2026-04-04T16:16:19.064Z</time></trkpt><trkpt lat="45.7879515" lon="12.3540957"><ele>32.25</ele><time>2026-04-04T16:16:20.064Z</time></trkpt><trkpt lat="45.7878124" lon="12.3541522"><ele>32.0</ele><time>2026-04-04T16:16:21.064Z</time></trkpt><trkpt lat="45.7876595" lon="12.3542022"><ele>31.666666666666664</ele><time>2026-04-04T16:16:22.063Z</time></trkpt><trkpt lat="45.7874826" lon="12.3542441"><ele>31.333333333333336</ele><time>2026-04-04T16:16:23.063Z</time></trkpt><trkpt lat="45.7872732" lon="12.3542734"><ele>31.0</ele><time>2026-04-04T16:16:24.064Z</time></trkpt><trkpt lat="45.7870375" lon="12.354288"><ele>30.5</ele><time>2026-04-04T16:16:25.064Z</time></trkpt><trkpt lat="45.7867854" lon="12.3542946"><ele>30.0</ele><time>2026-04-04T16:16:26.064Z</time></trkpt><trkpt lat="45.786523" lon="12.35431"><ele>30.0</ele><time>2026-04-04T16:16:27.064Z</time></trkpt><trkpt lat="45.7862546" lon="12.3543318"><ele>30.0</ele><time>2026-04-04T16:16:28.063Z</time></trkpt><trkpt lat="45.7859863" lon="12.3543537"><ele>30.5</ele><time>2026-04-04T16:16:29.064Z</time></trkpt><trkpt lat="45.7857215" lon="12.3543761"><ele>31.0</ele><time>2026-04-04T16:16:30.063Z</time></trkpt><trkpt lat="45.7854721" lon="12.3543939"><ele>31.0</ele><time>2026-04-04T16:16:31.064Z</time></trkpt><trkpt lat="45.7852354" lon="12.3544063"><ele>31.0</ele><time>2026-04-04T16:16:32.064Z</time></trkpt><trkpt lat="45.7850101" lon="12.3544085"><ele>31.0</ele><time>2026-04-04T16:16:33.063Z</time></trkpt><trkpt lat="45.7847924" lon="12.3543921"><ele>31.0</ele><time>2026-04-04T16:16:34.064Z</time></trkpt><trkpt lat="45.7845813" lon="12.3543482"><ele>31.0</ele><time>2026-04-04T16:16:35.064Z</time></trkpt><trkpt lat="45.7843762" lon="12.3542801"><ele>31.0</ele><time>2026-04-04T16:16:36.063Z</time></trkpt><trkpt lat="45.784177" lon="12.3541964"><ele>31.0</ele><time>2026-04-04T16:16:37.063Z</time></trkpt><trkpt lat="45.7839785" lon="12.3540913"><ele>31.0</ele><time>2026-04-04T16:16:38.064Z</time></trkpt><trkpt lat="45.7837841" lon="12.3539702"><ele>31.0</ele><time>2026-04-04T16:16:39.063Z</time></trkpt><trkpt lat="45.7835949" lon="12.3538348"><ele>31.0</ele><time>2026-04-04T16:16:40.063Z</time></trkpt><trkpt lat="45.7834053" lon="12.3536864"><ele>31.0</ele><time>2026-04-04T16:16:41.063Z</time></trkpt><trkpt lat="45.783219" lon="12.3535249"><ele>30.5</ele><time>2026-04-04T16:16:42.063Z</time></trkpt><trkpt lat="45.7830285" lon="12.3533562"><ele>30.0</ele><time>2026-04-04T16:16:43.063Z</time></trkpt><trkpt lat="45.7828347" lon="12.3531894"><ele>29.0</ele><time>2026-04-04T16:16:44.064Z</time></trkpt><trkpt lat="45.7826401" lon="12.3530226"><ele>28.0</ele><time>2026-04-04T16:16:45.064Z</time></trkpt><trkpt lat="45.7824398" lon="12.3528534"><ele>28.0</ele><time>2026-04-04T16:16:46.064Z</time></trkpt><trkpt lat="45.78224" lon="12.3526811"><ele>28.0</ele><time>2026-04-04T16:16:47.064Z</time></trkpt><trkpt lat="45.7820397" lon="12.3525089"><ele>28.5</ele><time>2026-04-04T16:16:48.063Z</time></trkpt><trkpt lat="45.7818392" lon="12.3523367"><ele>29.0</ele><time>2026-04-04T16:16:49.063Z</time></trkpt><trkpt lat="45.7816386" lon="12.3521713"><ele>29.0</ele><time>2026-04-04T16:16:50.064Z</time></trkpt><trkpt lat="45.781443" lon="12.3520078"><ele>29.0</ele><time>2026-04-04T16:16:51.064Z</time></trkpt><trkpt lat="45.7812494" lon="12.3518406"><ele>29.0</ele><time>2026-04-04T16:16:52.064Z</time></trkpt><trkpt lat="45.7810555" lon="12.3516737"><ele>29.0</ele><time>2026-04-04T16:16:53.063Z</time></trkpt><trkpt lat="45.7808621" lon="12.3515054"><ele>29.0</ele><time>2026-04-04T16:16:54.063Z</time></trkpt><trkpt lat="45.7806683" lon="12.3513288"><ele>29.0</ele><time>2026-04-04T16:16:55.064Z</time></trkpt><trkpt lat="45.7804806" lon="12.3511377"><ele>29.0</ele><time>2026-04-04T16:16:56.063Z</time></trkpt><trkpt lat="45.780301" lon="12.3509268"><ele>29.0</ele><time>2026-04-04T16:16:57.063Z</time></trkpt><trkpt lat="45.7801274" lon="12.3507012"><ele>29.5</ele><time>2026-04-04T16:16:58.063Z</time></trkpt><trkpt lat="45.7799582" lon="12.3504674"><ele>30.0</ele><time>2026-04-04T16:16:59.063Z</time></trkpt><trkpt lat="45.779788" lon="12.350236"><ele>30.0</ele><time>2026-04-04T16:17:00.063Z</time></trkpt><trkpt lat="45.7796188" lon="12.3500042"><ele>30.0</ele><time>2026-04-04T16:17:01.063Z</time></trkpt><trkpt lat="45.7794538" lon="12.3497739"><ele>30.5</ele><time>2026-04-04T16:17:02.064Z</time></trkpt><trkpt lat="45.7792901" lon="12.3495455"><ele>31.0</ele><time>2026-04-04T16:17:03.064Z</time></trkpt><trkpt lat="45.7791258" lon="12.3493179"><ele>31.0</ele><time>2026-04-04T16:17:04.063Z</time></trkpt><trkpt lat="45.7789618" lon="12.3490922"><ele>31.0</ele><time>2026-04-04T16:17:05.063Z</time></trkpt><trkpt lat="45.7788" lon="12.3488674"><ele>30.666666666666668</ele><time>2026-04-04T16:17:06.063Z</time></trkpt><trkpt lat="45.7786398" lon="12.3486453"><ele>30.333333333333336</ele><time>2026-04-04T16:17:07.064Z</time></trkpt><trkpt lat="45.7784784" lon="12.3484249"><ele>30.0</ele><time>2026-04-04T16:17:08.064Z</time></trkpt><trkpt lat="45.7783197" lon="12.3482066"><ele>29.666666666666664</ele><time>2026-04-04T16:17:09.063Z</time></trkpt><trkpt lat="45.7781641" lon="12.3479896"><ele>29.333333333333332</ele><time>2026-04-04T16:17:10.063Z</time></trkpt><trkpt lat="45.7780055" lon="12.3477753"><ele>29.0</ele><time>2026-04-04T16:17:11.063Z</time></trkpt><trkpt lat="45.777848" lon="12.3475602"><ele>29.0</ele><time>2026-04-04T16:17:12.064Z</time></trkpt><trkpt lat="45.7776906" lon="12.3473458"><ele>29.0</ele><time>2026-04-04T16:17:13.063Z</time></trkpt><trkpt lat="45.777534" lon="12.3471307"><ele>29.0</ele><time>2026-04-04T16:17:14.064Z</time></trkpt><trkpt lat="45.7773786" lon="12.346919"><ele>29.666666666666664</ele><time>2026-04-04T16:17:15.063Z</time></trkpt><trkpt lat="45.7772268" lon="12.3467073"><ele>30.333333333333336</ele><time>2026-04-04T16:17:16.063Z</time></trkpt><trkpt lat="45.7770792" lon="12.3465008"><ele>31.0</ele><time>2026-04-04T16:17:17.063Z</time></trkpt><trkpt lat="45.7769333" lon="12.3462987"><ele>30.666666666666668</ele><time>2026-04-04T16:17:18.064Z</time></trkpt><trkpt lat="45.7767872" lon="12.3461005"><ele>30.333333333333336</ele><time>2026-04-04T16:17:19.064Z</time></trkpt><trkpt lat="45.7766384" lon="12.3459026"><ele>30.0</ele><time>2026-04-04T16:17:20.064Z</time></trkpt><trkpt lat="45.7764919" lon="12.3457037"><ele>30.666666666666664</ele><time>2026-04-04T16:17:21.064Z</time></trkpt><trkpt lat="45.7763448" lon="12.3455041"><ele>31.333333333333332</ele><time>2026-04-04T16:17:22.064Z</time></trkpt><trkpt lat="45.7762001" lon="12.3453059"><ele>32.0</ele><time>2026-04-04T16:17:23.064Z</time></trkpt><trkpt lat="45.7760532" lon="12.3451082"><ele>32.0</ele><time>2026-04-04T16:17:24.063Z</time></trkpt><trkpt lat="45.775907" lon="12.3449136"><ele>32.0</ele><time>2026-04-04T16:17:25.064Z</time></trkpt><trkpt lat="45.7757628" lon="12.3447189"><ele>32.0</ele><time>2026-04-04T16:17:26.063Z</time></trkpt><trkpt lat="45.775621" lon="12.344522"><ele>31.666666666666664</ele><time>2026-04-04T16:17:27.064Z</time></trkpt><trkpt lat="45.7754833" lon="12.3443264"><ele>31.333333333333336</ele><time>2026-04-04T16:17:28.063Z</time></trkpt><trkpt lat="45.7753414" lon="12.3441293"><ele>31.0</ele><time>2026-04-04T16:17:29.063Z</time></trkpt><trkpt lat="45.7751997" lon="12.3439359"><ele>30.666666666666668</ele><time>2026-04-04T16:17:30.064Z</time></trkpt><trkpt lat="45.7750575" lon="12.3437392"><ele>30.333333333333336</ele><time>2026-04-04T16:17:31.064Z</time></trkpt><trkpt lat="45.7749125" lon="12.3435447"><ele>30.0</ele><time>2026-04-04T16:17:32.064Z</time></trkpt><trkpt lat="45.7747679" lon="12.3433433"><ele>30.0</ele><time>2026-04-04T16:17:33.064Z</time></trkpt><trkpt lat="45.7746244" lon="12.3431431"><ele>30.0</ele><time>2026-04-04T16:17:34.063Z</time></trkpt><trkpt lat="45.7744832" lon="12.3429426"><ele>30.0</ele><time>2026-04-04T16:17:35.064Z</time></trkpt><trkpt lat="45.7743442" lon="12.342743"><ele>30.666666666666664</ele><time>2026-04-04T16:17:36.063Z</time></trkpt><trkpt lat="45.7742037" lon="12.3425416"><ele>31.333333333333332</ele><time>2026-04-04T16:17:37.064Z</time></trkpt><trkpt lat="45.7740628" lon="12.3423312"><ele>32.0</ele><time>2026-04-04T16:17:38.064Z</time></trkpt><trkpt lat="45.7739317" lon="12.3421066"><ele>32.33333333333333</ele><time>2026-04-04T16:17:39.063Z</time></trkpt><trkpt lat="45.7738092" lon="12.3418709"><ele>32.666666666666664</ele><time>2026-04-04T16:17:40.064Z</time></trkpt><trkpt lat="45.7736921" lon="12.3416237"><ele>33.0</ele><time>2026-04-04T16:17:41.064Z</time></trkpt><trkpt lat="45.7735824" lon="12.3413673"><ele>33.0</ele><time>2026-04-04T16:17:42.063Z</time></trkpt><trkpt lat="45.7734808" lon="12.3410934"><ele>33.0</ele><time>2026-04-04T16:17:43.064Z</time></trkpt><trkpt lat="45.773383" lon="12.3408114"><ele>33.0</ele><time>2026-04-04T16:17:44.063Z</time></trkpt><trkpt lat="45.7732946" lon="12.3405211"><ele>32.666666666666664</ele><time>2026-04-04T16:17:45.063Z</time></trkpt><trkpt lat="45.7732116" lon="12.3402273"><ele>32.33333333333333</ele><time>2026-04-04T16:17:46.063Z</time></trkpt><trkpt lat="45.7731284" lon="12.3399263"><ele>32.0</ele><time>2026-04-04T16:17:47.063Z</time></trkpt><trkpt lat="45.7730466" lon="12.3396208"><ele>31.666666666666664</ele><time>2026-04-04T16:17:48.063Z</time></trkpt><trkpt lat="45.7729634" lon="12.3393204"><ele>31.333333333333336</ele><time>2026-04-04T16:17:49.063Z</time></trkpt><trkpt lat="45.7728823" lon="12.3390244"><ele>31.0</ele><time>2026-04-04T16:17:50.064Z</time></trkpt><trkpt lat="45.7728027" lon="12.338733"><ele>31.0</ele><time>2026-04-04T16:17:51.064Z</time></trkpt><trkpt lat="45.7727226" lon="12.3384438"><ele>31.0</ele><time>2026-04-04T16:17:52.064Z</time></trkpt><trkpt lat="45.7726456" lon="12.3381576"><ele>31.0</ele><time>2026-04-04T16:17:53.063Z</time></trkpt><trkpt lat="45.7725694" lon="12.3378839"><ele>30.666666666666668</ele><time>2026-04-04T16:17:54.063Z</time></trkpt><trkpt lat="45.7724963" lon="12.3376132"><ele>30.333333333333336</ele><time>2026-04-04T16:17:55.063Z</time></trkpt><trkpt lat="45.7724224" lon="12.3373446"><ele>30.0</ele><time>2026-04-04T16:17:56.063Z</time></trkpt><trkpt lat="45.7723485" lon="12.3370754"><ele>29.666666666666664</ele><time>2026-04-04T16:17:57.063Z</time></trkpt><trkpt lat="45.7722756" lon="12.3368051"><ele>29.333333333333332</ele><time>2026-04-04T16:17:58.064Z</time></trkpt><trkpt lat="45.7722015" lon="12.3365327"><ele>29.0</ele><time>2026-04-04T16:17:59.064Z</time></trkpt><trkpt lat="45.7721261" lon="12.3362585"><ele>29.666666666666664</ele><time>2026-04-04T16:18:00.063Z</time></trkpt><trkpt lat="45.772051" lon="12.3359852"><ele>30.333333333333336</ele><time>2026-04-04T16:18:01.064Z</time></trkpt><trkpt lat="45.7719727" lon="12.3357084"><ele>31.0</ele><time>2026-04-04T16:18:02.063Z</time></trkpt><trkpt lat="45.7718982" lon="12.3354307"><ele>31.333333333333336</ele><time>2026-04-04T16:18:03.064Z</time></trkpt><trkpt lat="45.7718217" lon="12.3351581"><ele>31.666666666666664</ele><time>2026-04-04T16:18:04.064Z</time></trkpt><trkpt lat="45.7717444" lon="12.334883"><ele>32.0</ele><time>2026-04-04T16:18:05.063Z</time></trkpt><trkpt lat="45.7716689" lon="12.3346039"><ele>32.33333333333333</ele><time>2026-04-04T16:18:06.064Z</time></trkpt><trkpt lat="45.7715947" lon="12.3343292"><ele>32.666666666666664</ele><time>2026-04-04T16:18:07.064Z</time></trkpt><trkpt lat="45.7715212" lon="12.3340574"><ele>33.0</ele><time>2026-04-04T16:18:08.064Z</time></trkpt><trkpt lat="45.7714422" lon="12.3337915"><ele>33.0</ele><time>2026-04-04T16:18:09.064Z</time></trkpt><trkpt lat="45.7713544" lon="12.333532"><ele>33.0</ele><time>2026-04-04T16:18:10.064Z</time></trkpt><trkpt lat="45.7712546" lon="12.3332779"><ele>33.0</ele><time>2026-04-04T16:18:11.064Z</time></trkpt><trkpt lat="45.7711434" lon="12.3330339"><ele>33.666666666666664</ele><time>2026-04-04T16:18:12.064Z</time></trkpt><trkpt lat="45.7710225" lon="12.3327975"><ele>34.33333333333333</ele><time>2026-04-04T16:18:13.063Z</time></trkpt><trkpt lat="45.7708996" lon="12.3325678"><ele>35.0</ele><time>2026-04-04T16:18:14.064Z</time></trkpt><trkpt lat="45.7707649" lon="12.3323454"><ele>34.33333333333333</ele><time>2026-04-04T16:18:15.063Z</time></trkpt><trkpt lat="45.7706195" lon="12.3321361"><ele>33.666666666666664</ele><time>2026-04-04T16:18:16.063Z</time></trkpt><trkpt lat="45.7704646" lon="12.3319335"><ele>33.0</ele><time>2026-04-04T16:18:17.063Z</time></trkpt><trkpt lat="45.7703046" lon="12.3317386"><ele>33.333333333333336</ele><time>2026-04-04T16:18:18.063Z</time></trkpt><trkpt lat="45.770141" lon="12.331543"><ele>33.66666666666667</ele><time>2026-04-04T16:18:19.064Z</time></trkpt><trkpt lat="45.769977" lon="12.3313336"><ele>34.0</ele><time>2026-04-04T16:18:20.064Z</time></trkpt><trkpt lat="45.7698174" lon="12.3311281"><ele>33.333333333333336</ele><time>2026-04-04T16:18:21.064Z</time></trkpt><trkpt lat="45.7696574" lon="12.3309197"><ele>32.666666666666664</ele><time>2026-04-04T16:18:22.064Z</time></trkpt><trkpt lat="45.7694907" lon="12.3307081"><ele>32.0</ele><time>2026-04-04T16:18:23.064Z</time></trkpt><trkpt lat="45.7693234" lon="12.3304981"><ele>31.333333333333332</ele><time>2026-04-04T16:18:24.064Z</time></trkpt><trkpt lat="45.769155" lon="12.3302887"><ele>30.666666666666664</ele><time>2026-04-04T16:18:25.064Z</time></trkpt><trkpt lat="45.7689857" lon="12.3300796"><ele>30.0</ele><time>2026-04-04T16:18:26.063Z</time></trkpt><trkpt lat="45.7688166" lon="12.3298675"><ele>30.333333333333336</ele><time>2026-04-04T16:18:27.064Z</time></trkpt><trkpt lat="45.7686528" lon="12.3296584"><ele>30.666666666666668</ele><time>2026-04-04T16:18:28.064Z</time></trkpt><trkpt lat="45.76849" lon="12.3294522"><ele>31.0</ele><time>2026-04-04T16:18:29.064Z</time></trkpt><trkpt lat="45.7683259" lon="12.3292495"><ele>31.0</ele><time>2026-04-04T16:18:30.064Z</time></trkpt><trkpt lat="45.7681629" lon="12.329048"><ele>31.0</ele><time>2026-04-04T16:18:31.063Z</time></trkpt><trkpt lat="45.7680004" lon="12.3288502"><ele>31.0</ele><time>2026-04-04T16:18:32.064Z</time></trkpt><trkpt lat="45.7678395" lon="12.3286493"><ele>32.0</ele><time>2026-04-04T16:18:33.063Z</time></trkpt><trkpt lat="45.7676814" lon="12.3284462"><ele>33.0</ele><time>2026-04-04T16:18:34.064Z</time></trkpt><trkpt lat="45.7675261" lon="12.3282512"><ele>34.0</ele><time>2026-04-04T16:18:35.063Z</time></trkpt><trkpt lat="45.7673689" lon="12.3280541"><ele>34.333333333333336</ele><time>2026-04-04T16:18:36.064Z</time></trkpt><trkpt lat="45.7672094" lon="12.3278607"><ele>34.666666666666664</ele><time>2026-04-04T16:18:37.063Z</time></trkpt><trkpt lat="45.7670524" lon="12.3276705"><ele>35.0</ele><time>2026-04-04T16:18:38.064Z</time></trkpt><trkpt lat="45.7668991" lon="12.3274835"><ele>34.666666666666664</ele><time>2026-04-04T16:18:39.063Z</time></trkpt><trkpt lat="45.7667455" lon="12.3273021"><ele>34.333333333333336</ele><time>2026-04-04T16:18:40.064Z</time></trkpt><trkpt lat="45.766588" lon="12.3271284"><ele>34.0</ele><time>2026-04-04T16:18:41.063Z</time></trkpt><trkpt lat="45.7664242" lon="12.3269742"><ele>34.0</ele><time>2026-04-04T16:18:42.063Z</time></trkpt><trkpt lat="45.7662585" lon="12.326835"><ele>34.0</ele><time>2026-04-04T16:18:43.064Z</time></trkpt><trkpt lat="45.7660975" lon="12.3267095"><ele>34.0</ele><time>2026-04-04T16:18:44.063Z</time></trkpt><trkpt lat="45.7659365" lon="12.3265996"><ele>33.333333333333336</ele><time>2026-04-04T16:18:45.063Z</time></trkpt><trkpt lat="45.76578" lon="12.3265066"><ele>32.666666666666664</ele><time>2026-04-04T16:18:46.063Z</time></trkpt><trkpt lat="45.7656267" lon="12.3264211"><ele>32.0</ele><time>2026-04-04T16:18:47.064Z</time></trkpt><trkpt lat="45.7654742" lon="12.3263411"><ele>32.0</ele><time>2026-04-04T16:18:48.064Z</time></trkpt><trkpt lat="45.7653291" lon="12.3262678"><ele>32.0</ele><time>2026-04-04T16:18:49.063Z</time></trkpt><trkpt lat="45.765196" lon="12.3262071"><ele>32.0</ele><time>2026-04-04T16:18:50.063Z</time></trkpt><trkpt lat="45.7650731" lon="12.3261525"><ele>32.0</ele><time>2026-04-04T16:18:51.063Z</time></trkpt><trkpt lat="45.7649664" lon="12.3260989"><ele>32.2</ele><time>2026-04-04T16:18:52.063Z</time></trkpt><trkpt lat="45.7648646" lon="12.3260326"><ele>32.400000000000006</ele><time>2026-04-04T16:18:53.063Z</time></trkpt><trkpt lat="45.7647691" lon="12.3259435"><ele>32.599999999999994</ele><time>2026-04-04T16:18:54.064Z</time></trkpt><trkpt lat="45.7646774" lon="12.3258475"><ele>32.8</ele><time>2026-04-04T16:18:55.064Z</time></trkpt><trkpt lat="45.7645756" lon="12.3257879"><ele>33.0</ele><time>2026-04-04T16:18:56.064Z</time></trkpt><trkpt lat="45.7644597" lon="12.3257692"><ele>32.5</ele><time>2026-04-04T16:18:57.063Z</time></trkpt><trkpt lat="45.7643369" lon="12.325757"><ele>32.0</ele><time>2026-04-04T16:18:58.063Z</time></trkpt><trkpt lat="45.7642118" lon="12.3257097"><ele>31.5</ele><time>2026-04-04T16:18:59.064Z</time></trkpt><trkpt lat="45.7640831" lon="12.3256503"><ele>31.0</ele><time>2026-04-04T16:19:00.063Z</time></trkpt><trkpt lat="45.7639411" lon="12.3256039"><ele>31.666666666666668</ele><time>2026-04-04T16:19:01.064Z</time></trkpt><trkpt lat="45.7637902" lon="12.3255579"><ele>32.333333333333336</ele><time>2026-04-04T16:19:02.063Z</time></trkpt><trkpt lat="45.7636304" lon="12.3255062"><ele>33.0</ele><time>2026-04-04T16:19:03.064Z</time></trkpt><trkpt lat="45.7634634" lon="12.3254377"><ele>33.666666666666664</ele><time>2026-04-04T16:19:04.064Z</time></trkpt><trkpt lat="45.7632921" lon="12.32536"><ele>34.33333333333333</ele><time>2026-04-04T16:19:05.063Z</time></trkpt><trkpt lat="45.7631166" lon="12.3252835"><ele>35.0</ele><time>2026-04-04T16:19:06.063Z</time></trkpt><trkpt lat="45.7629385" lon="12.3252089"><ele>35.0</ele><time>2026-04-04T16:19:07.063Z</time></trkpt><trkpt lat="45.7627572" lon="12.3251333"><ele>35.0</ele><time>2026-04-04T16:19:08.064Z</time></trkpt><trkpt lat="45.7625765" lon="12.3250507"><ele>35.0</ele><time>2026-04-04T16:19:09.064Z</time></trkpt><trkpt lat="45.7623929" lon="12.3249675"><ele>34.666666666666664</ele><time>2026-04-04T16:19:10.064Z</time></trkpt><trkpt lat="45.7622083" lon="12.3248871"><ele>34.333333333333336</ele><time>2026-04-04T16:19:11.063Z</time></trkpt><trkpt lat="45.7620258" lon="12.3248057"><ele>34.0</ele><time>2026-04-04T16:19:12.064Z</time></trkpt><trkpt lat="45.7618482" lon="12.3247248"><ele>33.333333333333336</ele><time>2026-04-04T16:19:13.064Z</time></trkpt><trkpt lat="45.761673" lon="12.3246477"><ele>32.666666666666664</ele><time>2026-04-04T16:19:14.064Z</time></trkpt><trkpt lat="45.7615013" lon="12.3245705"><ele>32.0</ele><time>2026-04-04T16:19:15.064Z</time></trkpt><trkpt lat="45.7613329" lon="12.3244935"><ele>32.0</ele><time>2026-04-04T16:19:16.064Z</time></trkpt><trkpt lat="45.7611647" lon="12.3244151"><ele>32.0</ele><time>2026-04-04T16:19:17.063Z</time></trkpt><trkpt lat="45.7609971" lon="12.3243386"><ele>32.0</ele><time>2026-04-04T16:19:18.063Z</time></trkpt><trkpt lat="45.7608297" lon="12.3242629"><ele>32.0</ele><time>2026-04-04T16:19:19.064Z</time></trkpt><trkpt lat="45.7606653" lon="12.324192"><ele>32.0</ele><time>2026-04-04T16:19:20.063Z</time></trkpt><trkpt lat="45.7604987" lon="12.3241203"><ele>32.0</ele><time>2026-04-04T16:19:21.064Z</time></trkpt><trkpt lat="45.7603337" lon="12.3240546"><ele>32.0</ele><time>2026-04-04T16:19:22.063Z</time></trkpt><trkpt lat="45.7601688" lon="12.3239929"><ele>32.0</ele><time>2026-04-04T16:19:23.063Z</time></trkpt><trkpt lat="45.7600038" lon="12.323938"><ele>32.0</ele><time>2026-04-04T16:19:24.064Z</time></trkpt><trkpt lat="45.7598371" lon="12.3238844"><ele>31.333333333333332</ele><time>2026-04-04T16:19:25.064Z</time></trkpt><trkpt lat="45.7596697" lon="12.3238344"><ele>30.666666666666664</ele><time>2026-04-04T16:19:26.064Z</time></trkpt><trkpt lat="45.7594998" lon="12.3237856"><ele>30.0</ele><time>2026-04-04T16:19:27.064Z</time></trkpt><trkpt lat="45.7593295" lon="12.3237361"><ele>30.0</ele><time>2026-04-04T16:19:28.063Z</time></trkpt><trkpt lat="45.7591562" lon="12.3236873"><ele>30.0</ele><time>2026-04-04T16:19:29.063Z</time></trkpt><trkpt lat="45.7589818" lon="12.3236379"><ele>30.0</ele><time>2026-04-04T16:19:30.064Z</time></trkpt><trkpt lat="45.7588042" lon="12.3235852"><ele>30.0</ele><time>2026-04-04T16:19:31.063Z</time></trkpt><trkpt lat="45.7586283" lon="12.3235328"><ele>30.0</ele><time>2026-04-04T16:19:32.063Z</time></trkpt><trkpt lat="45.7584576" lon="12.3234836"><ele>30.0</ele><time>2026-04-04T16:19:33.064Z</time></trkpt><trkpt lat="45.758288" lon="12.3234345"><ele>30.333333333333336</ele><time>2026-04-04T16:19:34.064Z</time></trkpt><trkpt lat="45.7581186" lon="12.3233877"><ele>30.666666666666668</ele><time>2026-04-04T16:19:35.064Z</time></trkpt><trkpt lat="45.7579493" lon="12.3233418"><ele>31.0</ele><time>2026-04-04T16:19:36.064Z</time></trkpt><trkpt lat="45.7577791" lon="12.3232947"><ele>31.333333333333336</ele><time>2026-04-04T16:19:37.063Z</time></trkpt><trkpt lat="45.7576103" lon="12.3232444"><ele>31.666666666666664</ele><time>2026-04-04T16:19:38.064Z</time></trkpt><trkpt lat="45.7574385" lon="12.3231924"><ele>32.0</ele><time>2026-04-04T16:19:39.064Z</time></trkpt><trkpt lat="45.757266" lon="12.323144"><ele>32.0</ele><time>2026-04-04T16:19:40.063Z</time></trkpt><trkpt lat="45.7570917" lon="12.3231004"><ele>32.0</ele><time>2026-04-04T16:19:41.064Z</time></trkpt><trkpt lat="45.7569173" lon="12.3230543"><ele>32.0</ele><time>2026-04-04T16:19:42.063Z</time></trkpt><trkpt lat="45.7567421" lon="12.3230067"><ele>31.666666666666664</ele><time>2026-04-04T16:19:43.064Z</time></trkpt><trkpt lat="45.7565712" lon="12.3229595"><ele>31.333333333333336</ele><time>2026-04-04T16:19:44.063Z</time></trkpt><trkpt lat="45.7563974" lon="12.3229187"><ele>31.0</ele><time>2026-04-04T16:19:45.063Z</time></trkpt><trkpt lat="45.7562227" lon="12.3228896"><ele>31.0</ele><time>2026-04-04T16:19:46.064Z</time></trkpt><trkpt lat="45.7560451" lon="12.322876"><ele>31.0</ele><time>2026-04-04T16:19:47.064Z</time></trkpt><trkpt lat="45.7558665" lon="12.3228811"><ele>31.0</ele><time>2026-04-04T16:19:48.063Z</time></trkpt><trkpt lat="45.7556908" lon="12.3229022"><ele>31.0</ele><time>2026-04-04T16:19:49.063Z</time></trkpt><trkpt lat="45.7555127" lon="12.3229418"><ele>31.0</ele><time>2026-04-04T16:19:50.063Z</time></trkpt><trkpt lat="45.7553376" lon="12.3230049"><ele>31.0</ele><time>2026-04-04T16:19:51.064Z</time></trkpt><trkpt lat="45.7551667" lon="12.3230942"><ele>31.0</ele><time>2026-04-04T16:19:52.064Z</time></trkpt><trkpt lat="45.7549948" lon="12.3231965"><ele>31.0</ele><time>2026-04-04T16:19:53.063Z</time></trkpt><trkpt lat="45.7548239" lon="12.323323"><ele>31.0</ele><time>2026-04-04T16:19:54.063Z</time></trkpt><trkpt lat="45.754661" lon="12.3234714"><ele>31.0</ele><time>2026-04-04T16:19:55.064Z</time></trkpt><trkpt lat="45.7545003" lon="12.3236402"><ele>31.0</ele><time>2026-04-04T16:19:56.064Z</time></trkpt><trkpt lat="45.7543414" lon="12.3238124"><ele>31.0</ele><time>2026-04-04T16:19:57.063Z</time></trkpt><trkpt lat="45.7541812" lon="12.323993"><ele>31.333333333333336</ele><time>2026-04-04T16:19:58.063Z</time></trkpt><trkpt lat="45.7540353" lon="12.3241857"><ele>31.666666666666664</ele><time>2026-04-04T16:19:59.063Z</time></trkpt><trkpt lat="45.7538949" lon="12.3243832"><ele>32.0</ele><time>2026-04-04T16:20:00.064Z</time></trkpt><trkpt lat="45.7537531" lon="12.3245825"><ele>31.0</ele><time>2026-04-04T16:20:01.064Z</time></trkpt><trkpt lat="45.7536168" lon="12.3247834"><ele>30.0</ele><time>2026-04-04T16:20:02.064Z</time></trkpt><trkpt lat="45.7534894" lon="12.3249968"><ele>29.0</ele><time>2026-04-04T16:20:03.063Z</time></trkpt><trkpt lat="45.7533668" lon="12.3252214"><ele>29.0</ele><time>2026-04-04T16:20:04.064Z</time></trkpt><trkpt lat="45.7532475" lon="12.3254516"><ele>29.0</ele><time>2026-04-04T16:20:05.064Z</time></trkpt><trkpt lat="45.7531276" lon="12.3256842"><ele>29.0</ele><time>2026-04-04T16:20:06.064Z</time></trkpt><trkpt lat="45.7530065" lon="12.3259211"><ele>29.0</ele><time>2026-04-04T16:20:07.063Z</time></trkpt><trkpt lat="45.7528851" lon="12.3261566"><ele>29.0</ele><time>2026-04-04T16:20:08.063Z</time></trkpt><trkpt lat="45.7527622" lon="12.3263914"><ele>29.0</ele><time>2026-04-04T16:20:09.064Z</time></trkpt><trkpt lat="45.7526359" lon="12.3266268"><ele>29.0</ele><time>2026-04-04T16:20:10.063Z</time></trkpt><trkpt lat="45.7525075" lon="12.326863"><ele>29.0</ele><time>2026-04-04T16:20:11.063Z</time></trkpt><trkpt lat="45.752379" lon="12.3271006"><ele>29.0</ele><time>2026-04-04T16:20:12.064Z</time></trkpt><trkpt lat="45.7522513" lon="12.3273417"><ele>28.333333333333332</ele><time>2026-04-04T16:20:13.063Z</time></trkpt><trkpt lat="45.7521261" lon="12.3275831"><ele>27.666666666666664</ele><time>2026-04-04T16:20:14.064Z</time></trkpt><trkpt lat="45.752" lon="12.3278229"><ele>27.0</ele><time>2026-04-04T16:20:15.063Z</time></trkpt><trkpt lat="45.7518767" lon="12.3280563"><ele>27.666666666666664</ele><time>2026-04-04T16:20:16.063Z</time></trkpt><trkpt lat="45.7517586" lon="12.3282818"><ele>28.333333333333332</ele><time>2026-04-04T16:20:17.063Z</time></trkpt><trkpt lat="45.7516461" lon="12.328493"><ele>29.0</ele><time>2026-04-04T16:20:18.063Z</time></trkpt><trkpt lat="45.7515305" lon="12.3286915"><ele>29.0</ele><time>2026-04-04T16:20:19.063Z</time></trkpt><trkpt lat="45.7514078" lon="12.3288856"><ele>29.0</ele><time>2026-04-04T16:20:20.063Z</time></trkpt><trkpt lat="45.7512772" lon="12.3290669"><ele>29.0</ele><time>2026-04-04T16:20:21.064Z</time></trkpt><trkpt lat="45.7511414" lon="12.3292447"><ele>28.333333333333332</ele><time>2026-04-04T16:20:22.064Z</time></trkpt><trkpt lat="45.7509993" lon="12.3294136"><ele>27.666666666666664</ele><time>2026-04-04T16:20:23.063Z</time></trkpt><trkpt lat="45.7508477" lon="12.3295733"><ele>27.0</ele><time>2026-04-04T16:20:24.063Z</time></trkpt><trkpt lat="45.7506947" lon="12.329707"><ele>26.666666666666664</ele><time>2026-04-04T16:20:25.064Z</time></trkpt><trkpt lat="45.7505405" lon="12.3298226"><ele>26.333333333333332</ele><time>2026-04-04T16:20:26.063Z</time></trkpt><trkpt lat="45.7503848" lon="12.3299308"><ele>26.0</ele><time>2026-04-04T16:20:27.064Z</time></trkpt><trkpt lat="45.7502254" lon="12.3300389"><ele>26.333333333333332</ele><time>2026-04-04T16:20:28.064Z</time></trkpt><trkpt lat="45.7500696" lon="12.3301465"><ele>26.666666666666664</ele><time>2026-04-04T16:20:29.064Z</time></trkpt><trkpt lat="45.7499105" lon="12.3302521"><ele>27.0</ele><time>2026-04-04T16:20:30.064Z</time></trkpt><trkpt lat="45.7497481" lon="12.330357"><ele>27.0</ele><time>2026-04-04T16:20:31.063Z</time></trkpt><trkpt lat="45.7495832" lon="12.3304665"><ele>27.0</ele><time>2026-04-04T16:20:32.064Z</time></trkpt><trkpt lat="45.7494173" lon="12.3305846"><ele>27.0</ele><time>2026-04-04T16:20:33.063Z</time></trkpt><trkpt lat="45.7492537" lon="12.3307175"><ele>28.0</ele><time>2026-04-04T16:20:34.064Z</time></trkpt><trkpt lat="45.7490929" lon="12.3308666"><ele>29.0</ele><time>2026-04-04T16:20:35.064Z</time></trkpt><trkpt lat="45.7489269" lon="12.3310386"><ele>30.0</ele><time>2026-04-04T16:20:36.063Z</time></trkpt><trkpt lat="45.7487465" lon="12.3312334"><ele>30.0</ele><time>2026-04-04T16:20:37.063Z</time></trkpt><trkpt lat="45.7485531" lon="12.3314356"><ele>30.0</ele><time>2026-04-04T16:20:38.063Z</time></trkpt><trkpt lat="45.7483492" lon="12.331634"><ele>28.0</ele><time>2026-04-04T16:20:39.064Z</time></trkpt><trkpt lat="45.7481413" lon="12.3318322"><ele>26.0</ele><time>2026-04-04T16:20:40.064Z</time></trkpt><trkpt lat="45.7479334" lon="12.3320333"><ele>26.0</ele><time>2026-04-04T16:20:41.063Z</time></trkpt><trkpt lat="45.7477275" lon="12.3322351"><ele>26.0</ele><time>2026-04-04T16:20:42.063Z</time></trkpt><trkpt lat="45.7475264" lon="12.3324354"><ele>26.5</ele><time>2026-04-04T16:20:43.063Z</time></trkpt><trkpt lat="45.7473288" lon="12.3326338"><ele>27.0</ele><time>2026-04-04T16:20:44.063Z</time></trkpt><trkpt lat="45.7471387" lon="12.3328266"><ele>27.0</ele><time>2026-04-04T16:20:45.063Z</time></trkpt><trkpt lat="45.7469576" lon="12.3330092"><ele>27.0</ele><time>2026-04-04T16:20:46.063Z</time></trkpt><trkpt lat="45.7467855" lon="12.3331834"><ele>27.0</ele><time>2026-04-04T16:20:47.063Z</time></trkpt><trkpt lat="45.746624" lon="12.3333486"><ele>27.0</ele><time>2026-04-04T16:20:48.063Z</time></trkpt><trkpt lat="45.7464755" lon="12.3335013"><ele>27.0</ele><time>2026-04-04T16:20:49.063Z</time></trkpt><trkpt lat="45.7463342" lon="12.3336484"><ele>27.0</ele><time>2026-04-04T16:20:50.064Z</time></trkpt><trkpt lat="45.7461885" lon="12.3337871"><ele>27.0</ele><time>2026-04-04T16:20:51.063Z</time></trkpt><trkpt lat="45.7460336" lon="12.3338996"><ele>27.0</ele><time>2026-04-04T16:20:52.063Z</time></trkpt><trkpt lat="45.7458761" lon="12.3339799"><ele>27.0</ele><time>2026-04-04T16:20:53.064Z</time></trkpt><trkpt lat="45.7457449" lon="12.3340228"><ele>27.0</ele><time>2026-04-04T16:20:54.063Z</time></trkpt><trkpt lat="45.745653" lon="12.3340358"><ele>27.0</ele><time>2026-04-04T16:20:55.064Z</time></trkpt><trkpt lat="45.7455846" lon="12.3340333"><ele>27.0</ele><time>2026-04-04T16:20:56.063Z</time></trkpt><trkpt lat="45.7455179" lon="12.3340151"><ele>27.0</ele><time>2026-04-04T16:20:57.063Z</time></trkpt><trkpt lat="45.745445" lon="12.3339806"><ele>27.0</ele><time>2026-04-04T16:20:58.064Z</time></trkpt><trkpt lat="45.7453582" lon="12.3339399"><ele>27.0</ele><time>2026-04-04T16:20:59.064Z</time></trkpt><trkpt lat="45.7452518" lon="12.333895"><ele>26.5</ele><time>2026-04-04T16:21:00.063Z</time></trkpt><trkpt lat="45.7451314" lon="12.3338286"><ele>26.0</ele><time>2026-04-04T16:21:01.063Z</time></trkpt><trkpt lat="45.7450088" lon="12.3337232"><ele>25.5</ele><time>2026-04-04T16:21:02.063Z</time></trkpt><trkpt lat="45.7448892" lon="12.3335815"><ele>25.0</ele><time>2026-04-04T16:21:03.064Z</time></trkpt><trkpt lat="45.7447824" lon="12.3333969"><ele>25.0</ele><time>2026-04-04T16:21:04.063Z</time></trkpt><trkpt lat="45.7446874" lon="12.3331694"><ele>25.0</ele><time>2026-04-04T16:21:05.063Z</time></trkpt><trkpt lat="45.7446076" lon="12.3329062"><ele>25.0</ele><time>2026-04-04T16:21:06.064Z</time></trkpt><trkpt lat="45.7445381" lon="12.3326164"><ele>26.0</ele><time>2026-04-04T16:21:07.063Z</time></trkpt><trkpt lat="45.7444694" lon="12.3323061"><ele>27.0</ele><time>2026-04-04T16:21:08.063Z</time></trkpt><trkpt lat="45.7443906" lon="12.3319801"><ele>26.0</ele><time>2026-04-04T16:21:09.063Z</time></trkpt><trkpt lat="45.7443081" lon="12.3316402"><ele>25.0</ele><time>2026-04-04T16:21:10.063Z</time></trkpt><trkpt lat="45.7442234" lon="12.3312936"><ele>25.0</ele><time>2026-04-04T16:21:11.064Z</time></trkpt><trkpt lat="45.7441381" lon="12.3309425"><ele>25.0</ele><time>2026-04-04T16:21:12.064Z</time></trkpt><trkpt lat="45.7440525" lon="12.3305893"><ele>25.0</ele><time>2026-04-04T16:21:13.063Z</time></trkpt><trkpt lat="45.7439674" lon="12.3302352"><ele>25.0</ele><time>2026-04-04T16:21:14.063Z</time></trkpt><trkpt lat="45.7438819" lon="12.3298833"><ele>25.0</ele><time>2026-04-04T16:21:15.064Z</time></trkpt><trkpt lat="45.7437975" lon="12.329533"><ele>25.0</ele><time>2026-04-04T16:21:16.063Z</time></trkpt><trkpt lat="45.7436297" lon="12.328846"><ele>25.5</ele><time>2026-04-04T16:21:18.063Z</time></trkpt><trkpt lat="45.743546" lon="12.3285106"><ele>26.0</ele><time>2026-04-04T16:21:19.064Z</time></trkpt><trkpt lat="45.7434632" lon="12.3281821"><ele>27.0</ele><time>2026-04-04T16:21:20.063Z</time></trkpt><trkpt lat="45.7433816" lon="12.3278622"><ele>28.0</ele><time>2026-04-04T16:21:21.064Z</time></trkpt><trkpt lat="45.7433057" lon="12.3275492"><ele>28.0</ele><time>2026-04-04T16:21:22.063Z</time></trkpt><trkpt lat="45.7432312" lon="12.3272392"><ele>28.0</ele><time>2026-04-04T16:21:23.063Z</time></trkpt><trkpt lat="45.7431565" lon="12.3269337"><ele>28.0</ele><time>2026-04-04T16:21:24.064Z</time></trkpt><trkpt lat="45.7430818" lon="12.3266319"><ele>28.0</ele><time>2026-04-04T16:21:25.064Z</time></trkpt><trkpt lat="45.7430089" lon="12.3263304"><ele>28.0</ele><time>2026-04-04T16:21:26.064Z</time></trkpt><trkpt lat="45.7429358" lon="12.3260294"><ele>27.0</ele><time>2026-04-04T16:21:27.064Z</time></trkpt><trkpt lat="45.742861" lon="12.3257229"><ele>26.0</ele><time>2026-04-04T16:21:28.063Z</time></trkpt><trkpt lat="45.7427848" lon="12.3254131"><ele>26.5</ele><time>2026-04-04T16:21:29.063Z</time></trkpt><trkpt lat="45.7427083" lon="12.3251001"><ele>27.0</ele><time>2026-04-04T16:21:30.064Z</time></trkpt><trkpt lat="45.7426316" lon="12.3247837"><ele>26.5</ele><time>2026-04-04T16:21:31.063Z</time></trkpt><trkpt lat="45.7425556" lon="12.3244616"><ele>26.0</ele><time>2026-04-04T16:21:32.064Z</time></trkpt><trkpt lat="45.7424778" lon="12.3241346"><ele>26.0</ele><time>2026-04-04T16:21:33.064Z</time></trkpt><trkpt lat="45.7423994" lon="12.3238065"><ele>26.0</ele><time>2026-04-04T16:21:34.064Z</time></trkpt><trkpt lat="45.7423211" lon="12.3234746"><ele>26.0</ele><time>2026-04-04T16:21:35.063Z</time></trkpt><trkpt lat="45.7422512" lon="12.3231408"><ele>26.0</ele><time>2026-04-04T16:21:36.063Z</time></trkpt><trkpt lat="45.7421934" lon="12.3228049"><ele>26.0</ele><time>2026-04-04T16:21:37.064Z</time></trkpt><trkpt lat="45.742143" lon="12.3224723"><ele>26.0</ele><time>2026-04-04T16:21:38.064Z</time></trkpt><trkpt lat="45.7420915" lon="12.322148"><ele>26.0</ele><time>2026-04-04T16:21:39.064Z</time></trkpt><trkpt lat="45.7420399" lon="12.3218304"><ele>26.0</ele><time>2026-04-04T16:21:40.064Z</time></trkpt><trkpt lat="45.74199" lon="12.3215187"><ele>26.0</ele><time>2026-04-04T16:21:41.064Z</time></trkpt><trkpt lat="45.741941" lon="12.3212125"><ele>26.0</ele><time>2026-04-04T16:21:42.064Z</time></trkpt><trkpt lat="45.7418932" lon="12.3209073"><ele>26.0</ele><time>2026-04-04T16:21:43.063Z</time></trkpt><trkpt lat="45.7418448" lon="12.3206034"><ele>26.0</ele><time>2026-04-04T16:21:44.063Z</time></trkpt><trkpt lat="45.7417955" lon="12.3203001"><ele>26.0</ele><time>2026-04-04T16:21:45.063Z</time></trkpt><trkpt lat="45.7417449" lon="12.3199915"><ele>26.0</ele><time>2026-04-04T16:21:46.063Z</time></trkpt><trkpt lat="45.7416917" lon="12.31968"><ele>26.0</ele><time>2026-04-04T16:21:47.063Z</time></trkpt><trkpt lat="45.7416388" lon="12.3193613"><ele>26.0</ele><time>2026-04-04T16:21:48.063Z</time></trkpt><trkpt lat="45.7415872" lon="12.3190407"><ele>26.0</ele><time>2026-04-04T16:21:49.064Z</time></trkpt><trkpt lat="45.7415371" lon="12.3187213"><ele>26.0</ele><time>2026-04-04T16:21:50.064Z</time></trkpt><trkpt lat="45.7414848" lon="12.3184044"><ele>26.0</ele><time>2026-04-04T16:21:51.064Z</time></trkpt><trkpt lat="45.7414328" lon="12.3180885"><ele>26.0</ele><time>2026-04-04T16:21:52.063Z</time></trkpt><trkpt lat="45.741377" lon="12.3177726"><ele>26.5</ele><time>2026-04-04T16:21:53.063Z</time></trkpt><trkpt lat="45.7413219" lon="12.3174596"><ele>27.0</ele><time>2026-04-04T16:21:54.063Z</time></trkpt><trkpt lat="45.7412699" lon="12.317144"><ele>27.0</ele><time>2026-04-04T16:21:55.063Z</time></trkpt><trkpt lat="45.7412282" lon="12.3168315"><ele>27.0</ele><time>2026-04-04T16:21:56.063Z</time></trkpt><trkpt lat="45.7412031" lon="12.3165149"><ele>27.0</ele><time>2026-04-04T16:21:57.064Z</time></trkpt><trkpt lat="45.7411944" lon="12.3161944"><ele>27.666666666666664</ele><time>2026-04-04T16:21:58.064Z</time></trkpt><trkpt lat="45.7412092" lon="12.3158791"><ele>28.333333333333332</ele><time>2026-04-04T16:21:59.063Z</time></trkpt><trkpt lat="45.741254" lon="12.3155728"><ele>29.0</ele><time>2026-04-04T16:22:00.063Z</time></trkpt><trkpt lat="45.7413221" lon="12.3152753"><ele>29.0</ele><time>2026-04-04T16:22:01.063Z</time></trkpt><trkpt lat="45.7414104" lon="12.314984"><ele>29.0</ele><time>2026-04-04T16:22:02.063Z</time></trkpt><trkpt lat="45.7415074" lon="12.3146889"><ele>29.0</ele><time>2026-04-04T16:22:03.063Z</time></trkpt><trkpt lat="45.7416035" lon="12.3143916"><ele>30.0</ele><time>2026-04-04T16:22:04.064Z</time></trkpt><trkpt lat="45.7417002" lon="12.3140852"><ele>31.0</ele><time>2026-04-04T16:22:05.063Z</time></trkpt><trkpt lat="45.7417996" lon="12.3137796"><ele>30.0</ele><time>2026-04-04T16:22:06.063Z</time></trkpt><trkpt lat="45.7418996" lon="12.3134737"><ele>29.0</ele><time>2026-04-04T16:22:07.063Z</time></trkpt><trkpt lat="45.7419973" lon="12.3131649"><ele>28.0</ele><time>2026-04-04T16:22:08.063Z</time></trkpt><trkpt lat="45.7420971" lon="12.3128523"><ele>27.0</ele><time>2026-04-04T16:22:09.064Z</time></trkpt><trkpt lat="45.7421975" lon="12.3125366"><ele>27.5</ele><time>2026-04-04T16:22:10.063Z</time></trkpt><trkpt lat="45.7422973" lon="12.3122175"><ele>28.0</ele><time>2026-04-04T16:22:11.063Z</time></trkpt><trkpt lat="45.7423852" lon="12.3118966"><ele>28.0</ele><time>2026-04-04T16:22:12.064Z</time></trkpt><trkpt lat="45.7424539" lon="12.3115737"><ele>28.0</ele><time>2026-04-04T16:22:13.063Z</time></trkpt><trkpt lat="45.7425069" lon="12.3112521"><ele>28.333333333333336</ele><time>2026-04-04T16:22:14.063Z</time></trkpt><trkpt lat="45.742543" lon="12.3109318"><ele>28.666666666666664</ele><time>2026-04-04T16:22:15.063Z</time></trkpt><trkpt lat="45.7425681" lon="12.3106168"><ele>29.0</ele><time>2026-04-04T16:22:16.063Z</time></trkpt><trkpt lat="45.7425795" lon="12.3103064"><ele>29.0</ele><time>2026-04-04T16:22:17.064Z</time></trkpt><trkpt lat="45.7425827" lon="12.3100002"><ele>29.0</ele><time>2026-04-04T16:22:18.064Z</time></trkpt><trkpt lat="45.7425772" lon="12.3097013"><ele>29.0</ele><time>2026-04-04T16:22:19.064Z</time></trkpt><trkpt lat="45.7425606" lon="12.3094014"><ele>29.333333333333332</ele><time>2026-04-04T16:22:20.063Z</time></trkpt><trkpt lat="45.7425356" lon="12.3091027"><ele>29.666666666666664</ele><time>2026-04-04T16:22:21.064Z</time></trkpt><trkpt lat="45.7425016" lon="12.3088083"><ele>30.0</ele><time>2026-04-04T16:22:22.064Z</time></trkpt><trkpt lat="45.7424602" lon="12.3085099"><ele>30.666666666666664</ele><time>2026-04-04T16:22:23.064Z</time></trkpt><trkpt lat="45.7424221" lon="12.3082162"><ele>31.333333333333332</ele><time>2026-04-04T16:22:24.063Z</time></trkpt><trkpt lat="45.7423824" lon="12.3079329"><ele>32.0</ele><time>2026-04-04T16:22:25.063Z</time></trkpt><trkpt lat="45.7423449" lon="12.3076644"><ele>32.0</ele><time>2026-04-04T16:22:26.064Z</time></trkpt><trkpt lat="45.7423094" lon="12.3074041"><ele>32.0</ele><time>2026-04-04T16:22:27.064Z</time></trkpt><trkpt lat="45.742273" lon="12.3071484"><ele>32.0</ele><time>2026-04-04T16:22:28.064Z</time></trkpt><trkpt lat="45.7422367" lon="12.3068929"><ele>31.666666666666664</ele><time>2026-04-04T16:22:29.063Z</time></trkpt><trkpt lat="45.7421985" lon="12.3066377"><ele>31.333333333333336</ele><time>2026-04-04T16:22:30.064Z</time></trkpt><trkpt lat="45.7421642" lon="12.3063881"><ele>31.0</ele><time>2026-04-04T16:22:31.063Z</time></trkpt><trkpt lat="45.7421278" lon="12.3061394"><ele>31.0</ele><time>2026-04-04T16:22:32.064Z</time></trkpt><trkpt lat="45.7420904" lon="12.3058907"><ele>31.0</ele><time>2026-04-04T16:22:33.063Z</time></trkpt><trkpt lat="45.7420553" lon="12.3056482"><ele>31.0</ele><time>2026-04-04T16:22:34.063Z</time></trkpt><trkpt lat="45.7420231" lon="12.3054045"><ele>30.666666666666668</ele><time>2026-04-04T16:22:35.064Z</time></trkpt><trkpt lat="45.7419872" lon="12.3051593"><ele>30.333333333333336</ele><time>2026-04-04T16:22:36.063Z</time></trkpt><trkpt lat="45.7419512" lon="12.30492"><ele>30.0</ele><time>2026-04-04T16:22:37.063Z</time></trkpt><trkpt lat="45.7419205" lon="12.3046841"><ele>30.0</ele><time>2026-04-04T16:22:38.064Z</time></trkpt><trkpt lat="45.7418878" lon="12.3044446"><ele>30.0</ele><time>2026-04-04T16:22:39.064Z</time></trkpt><trkpt lat="45.7418571" lon="12.3042035"><ele>30.0</ele><time>2026-04-04T16:22:40.063Z</time></trkpt><trkpt lat="45.7418242" lon="12.3039573"><ele>30.666666666666664</ele><time>2026-04-04T16:22:41.064Z</time></trkpt><trkpt lat="45.7417902" lon="12.3037145"><ele>31.333333333333332</ele><time>2026-04-04T16:22:42.063Z</time></trkpt><trkpt lat="45.7417562" lon="12.303474"><ele>32.0</ele><time>2026-04-04T16:22:43.064Z</time></trkpt><trkpt lat="45.7417237" lon="12.3032361"><ele>32.33333333333333</ele><time>2026-04-04T16:22:44.063Z</time></trkpt><trkpt lat="45.741693" lon="12.3030133"><ele>32.666666666666664</ele><time>2026-04-04T16:22:45.064Z</time></trkpt><trkpt lat="45.741659" lon="12.3027927"><ele>33.0</ele><time>2026-04-04T16:22:46.063Z</time></trkpt><trkpt lat="45.7416231" lon="12.3025666"><ele>33.0</ele><time>2026-04-04T16:22:47.063Z</time></trkpt><trkpt lat="45.7415919" lon="12.3023379"><ele>33.0</ele><time>2026-04-04T16:22:48.064Z</time></trkpt><trkpt lat="45.7415594" lon="12.3021048"><ele>33.0</ele><time>2026-04-04T16:22:49.063Z</time></trkpt><trkpt lat="45.7415255" lon="12.3018677"><ele>33.0</ele><time>2026-04-04T16:22:50.064Z</time></trkpt><trkpt lat="45.7414923" lon="12.3016224"><ele>33.0</ele><time>2026-04-04T16:22:51.064Z</time></trkpt><trkpt lat="45.7414585" lon="12.3013758"><ele>33.0</ele><time>2026-04-04T16:22:52.063Z</time></trkpt><trkpt lat="45.7414226" lon="12.3011287"><ele>33.333333333333336</ele><time>2026-04-04T16:22:53.063Z</time></trkpt><trkpt lat="45.7413871" lon="12.3008802"><ele>33.66666666666667</ele><time>2026-04-04T16:22:54.063Z</time></trkpt><trkpt lat="45.7413536" lon="12.3006286"><ele>34.0</ele><time>2026-04-04T16:22:55.063Z</time></trkpt><trkpt lat="45.7413197" lon="12.3003812"><ele>33.66666666666667</ele><time>2026-04-04T16:22:56.063Z</time></trkpt><trkpt lat="45.7412835" lon="12.3001329"><ele>33.333333333333336</ele><time>2026-04-04T16:22:57.063Z</time></trkpt><trkpt lat="45.7412477" lon="12.2998808"><ele>33.0</ele><time>2026-04-04T16:22:58.064Z</time></trkpt><trkpt lat="45.7412116" lon="12.2996256"><ele>33.0</ele><time>2026-04-04T16:22:59.063Z</time></trkpt><trkpt lat="45.7411777" lon="12.299369"><ele>33.0</ele><time>2026-04-04T16:23:00.064Z</time></trkpt><trkpt lat="45.741141" lon="12.2991125"><ele>33.0</ele><time>2026-04-04T16:23:01.063Z</time></trkpt><trkpt lat="45.741103" lon="12.2988559"><ele>33.0</ele><time>2026-04-04T16:23:02.064Z</time></trkpt><trkpt lat="45.7410685" lon="12.2986057"><ele>33.0</ele><time>2026-04-04T16:23:03.064Z</time></trkpt><trkpt lat="45.7410341" lon="12.2983626"><ele>33.0</ele><time>2026-04-04T16:23:04.063Z</time></trkpt><trkpt lat="45.7409977" lon="12.2981188"><ele>32.666666666666664</ele><time>2026-04-04T16:23:05.063Z</time></trkpt><trkpt lat="45.7409627" lon="12.2978744"><ele>32.33333333333333</ele><time>2026-04-04T16:23:06.063Z</time></trkpt><trkpt lat="45.74093" lon="12.2976323"><ele>32.0</ele><time>2026-04-04T16:23:07.064Z</time></trkpt><trkpt lat="45.7408966" lon="12.2973887"><ele>31.666666666666664</ele><time>2026-04-04T16:23:08.064Z</time></trkpt><trkpt lat="45.7408641" lon="12.2971437"><ele>31.333333333333336</ele><time>2026-04-04T16:23:09.063Z</time></trkpt><trkpt lat="45.740829" lon="12.2968987"><ele>31.0</ele><time>2026-04-04T16:23:10.063Z</time></trkpt><trkpt lat="45.7407952" lon="12.2966566"><ele>31.0</ele><time>2026-04-04T16:23:11.063Z</time></trkpt><trkpt lat="45.74076" lon="12.2964161"><ele>31.0</ele><time>2026-04-04T16:23:12.064Z</time></trkpt><trkpt lat="45.7407239" lon="12.2961782"><ele>31.0</ele><time>2026-04-04T16:23:13.063Z</time></trkpt><trkpt lat="45.740688" lon="12.2959397"><ele>31.0</ele><time>2026-04-04T16:23:14.063Z</time></trkpt><trkpt lat="45.7406528" lon="12.2956939"><ele>31.0</ele><time>2026-04-04T16:23:15.063Z</time></trkpt><trkpt lat="45.7406194" lon="12.295454"><ele>31.0</ele><time>2026-04-04T16:23:16.064Z</time></trkpt><trkpt lat="45.7405873" lon="12.295218"><ele>31.0</ele><time>2026-04-04T16:23:17.064Z</time></trkpt><trkpt lat="45.7405537" lon="12.294986"><ele>31.0</ele><time>2026-04-04T16:23:18.063Z</time></trkpt><trkpt lat="45.7405193" lon="12.2947613"><ele>31.0</ele><time>2026-04-04T16:23:19.064Z</time></trkpt><trkpt lat="45.7404854" lon="12.2945391"><ele>31.0</ele><time>2026-04-04T16:23:20.064Z</time></trkpt><trkpt lat="45.7404512" lon="12.2943143"><ele>31.0</ele><time>2026-04-04T16:23:21.064Z</time></trkpt><trkpt lat="45.7404166" lon="12.2940888"><ele>31.0</ele><time>2026-04-04T16:23:22.064Z</time></trkpt><trkpt lat="45.7403828" lon="12.2938562"><ele>31.333333333333336</ele><time>2026-04-04T16:23:23.064Z</time></trkpt><trkpt lat="45.7403501" lon="12.2936254"><ele>31.666666666666664</ele><time>2026-04-04T16:23:24.064Z</time></trkpt><trkpt lat="45.7403183" lon="12.293395"><ele>32.0</ele><time>2026-04-04T16:23:25.063Z</time></trkpt><trkpt lat="45.7402839" lon="12.2931693"><ele>32.0</ele><time>2026-04-04T16:23:26.064Z</time></trkpt><trkpt lat="45.7402518" lon="12.2929474"><ele>32.0</ele><time>2026-04-04T16:23:27.063Z</time></trkpt><trkpt lat="45.7402195" lon="12.2927244"><ele>32.0</ele><time>2026-04-04T16:23:28.063Z</time></trkpt><trkpt lat="45.7401912" lon="12.2925132"><ele>32.0</ele><time>2026-04-04T16:23:29.064Z</time></trkpt><trkpt lat="45.7401626" lon="12.2923005"><ele>32.0</ele><time>2026-04-04T16:23:30.063Z</time></trkpt><trkpt lat="45.7401311" lon="12.2920929"><ele>32.0</ele><time>2026-04-04T16:23:31.064Z</time></trkpt><trkpt lat="45.7400997" lon="12.2918805"><ele>32.0</ele><time>2026-04-04T16:23:32.063Z</time></trkpt><trkpt lat="45.7400704" lon="12.291679"><ele>32.0</ele><time>2026-04-04T16:23:33.064Z</time></trkpt><trkpt lat="45.7400465" lon="12.2914992"><ele>32.0</ele><time>2026-04-04T16:23:34.064Z</time></trkpt><trkpt lat="45.7400267" lon="12.2913457"><ele>32.0</ele><time>2026-04-04T16:23:35.064Z</time></trkpt><trkpt lat="45.7400098" lon="12.2912231"><ele>31.999999999999996</ele><time>2026-04-04T16:23:36.063Z</time></trkpt><trkpt lat="45.7400195" lon="12.2910826"><ele>32.0</ele><time>2026-04-04T16:23:38.063Z</time></trkpt><trkpt lat="45.7400799" lon="12.2910298"><ele>32.0</ele><time>2026-04-04T16:23:40.063Z</time></trkpt><trkpt lat="45.740145" lon="12.2910656"><ele>32.0</ele><time>2026-04-04T16:23:42.064Z</time></trkpt><trkpt lat="45.7401575" lon="12.2911632"><ele>31.999999999999996</ele><time>2026-04-04T16:23:44.063Z</time></trkpt><trkpt lat="45.7401543" lon="12.2912672"><ele>32.0</ele><time>2026-04-04T16:23:46.064Z</time></trkpt><trkpt lat="45.7402104" lon="12.2913355"><ele>31.999999999999996</ele><time>2026-04-04T16:23:49.064Z</time></trkpt><trkpt lat="45.7402372" lon="12.2912494"><ele>32.0</ele><time>2026-04-04T16:23:53.063Z</time></trkpt><trkpt lat="45.7401858" lon="12.291183"><ele>32.0</ele><time>2026-04-04T16:29:10.064Z</time></trkpt><trkpt lat="45.7401312" lon="12.2910957"><ele>32.0</ele><time>2026-04-04T16:29:12.064Z</time></trkpt><trkpt lat="45.7400664" lon="12.2910567"><ele>31.999999999999996</ele><time>2026-04-04T16:29:14.063Z</time></trkpt><trkpt lat="45.7400117" lon="12.2910114"><ele>32.0</ele><time>2026-04-04T16:29:17.064Z</time></trkpt><trkpt lat="45.7399759" lon="12.2908764"><ele>32.0</ele><time>2026-04-04T16:29:31.064Z</time></trkpt><trkpt lat="45.7399564" lon="12.2907563"><ele>32.0</ele><time>2026-04-04T16:29:32.063Z</time></trkpt><trkpt lat="45.7399287" lon="12.2905953"><ele>32.0</ele><time>2026-04-04T16:29:33.064Z</time></trkpt><trkpt lat="45.7399002" lon="12.2904029"><ele>32.0</ele><time>2026-04-04T16:29:34.063Z</time></trkpt><trkpt lat="45.7398717" lon="12.2901973"><ele>32.5</ele><time>2026-04-04T16:29:35.064Z</time></trkpt><trkpt lat="45.7398456" lon="12.2900041"><ele>33.0</ele><time>2026-04-04T16:29:36.063Z</time></trkpt><trkpt lat="45.7398174" lon="12.2898219"><ele>33.5</ele><time>2026-04-04T16:29:37.063Z</time></trkpt><trkpt lat="45.7397897" lon="12.2896492"><ele>34.0</ele><time>2026-04-04T16:29:38.064Z</time></trkpt><trkpt lat="45.739756" lon="12.2894815"><ele>34.0</ele><time>2026-04-04T16:29:39.064Z</time></trkpt><trkpt lat="45.7397168" lon="12.2893183"><ele>34.0</ele><time>2026-04-04T16:29:40.064Z</time></trkpt><trkpt lat="45.7396652" lon="12.2891777"><ele>34.0</ele><time>2026-04-04T16:29:41.063Z</time></trkpt><trkpt lat="45.7396138" lon="12.2890594"><ele>34.0</ele><time>2026-04-04T16:29:42.063Z</time></trkpt><trkpt lat="45.7395659" lon="12.2889593"><ele>34.0</ele><time>2026-04-04T16:29:43.063Z</time></trkpt><trkpt lat="45.7395339" lon="12.2888732"><ele>34.16666666666667</ele><time>2026-04-04T16:29:44.063Z</time></trkpt><trkpt lat="45.7395093" lon="12.2887596"><ele>34.333333333333336</ele><time>2026-04-04T16:29:46.064Z</time></trkpt><trkpt lat="45.7395074" lon="12.2886382"><ele>34.5</ele><time>2026-04-04T16:29:49.063Z</time></trkpt><trkpt lat="45.7395294" lon="12.2884956"><ele>34.666666666666664</ele><time>2026-04-04T16:29:51.063Z</time></trkpt><trkpt lat="45.7395415" lon="12.2883991"><ele>34.83333333333333</ele><time>2026-04-04T16:29:52.064Z</time></trkpt><trkpt lat="45.7395467" lon="12.2882923"><ele>35.0</ele><time>2026-04-04T16:29:53.063Z</time></trkpt><trkpt lat="45.7395416" lon="12.288172"><ele>34.6</ele><time>2026-04-04T16:29:54.064Z</time></trkpt><trkpt lat="45.7395304" lon="12.2880475"><ele>34.2</ele><time>2026-04-04T16:29:55.063Z</time></trkpt><trkpt lat="45.7395166" lon="12.2879161"><ele>33.8</ele><time>2026-04-04T16:29:56.064Z</time></trkpt><trkpt lat="45.7395021" lon="12.2877737"><ele>33.4</ele><time>2026-04-04T16:29:57.063Z</time></trkpt><trkpt lat="45.7394878" lon="12.2876195"><ele>33.0</ele><time>2026-04-04T16:29:58.063Z</time></trkpt><trkpt lat="45.7394734" lon="12.287451"><ele>33.0</ele><time>2026-04-04T16:29:59.064Z</time></trkpt><trkpt lat="45.7394534" lon="12.2872788"><ele>33.0</ele><time>2026-04-04T16:30:00.064Z</time></trkpt><trkpt lat="45.7394316" lon="12.287098"><ele>33.0</ele><time>2026-04-04T16:30:01.064Z</time></trkpt><trkpt lat="45.7394091" lon="12.2869121"><ele>33.0</ele><time>2026-04-04T16:30:02.063Z</time></trkpt><trkpt lat="45.7393868" lon="12.2867239"><ele>32.75</ele><time>2026-04-04T16:30:03.063Z</time></trkpt><trkpt lat="45.7393637" lon="12.2865277"><ele>32.5</ele><time>2026-04-04T16:30:04.063Z</time></trkpt><trkpt lat="45.7393389" lon="12.2863255"><ele>32.25</ele><time>2026-04-04T16:30:05.064Z</time></trkpt><trkpt lat="45.7393097" lon="12.2861166"><ele>32.0</ele><time>2026-04-04T16:30:06.064Z</time></trkpt><trkpt lat="45.7392785" lon="12.285903"><ele>32.0</ele><time>2026-04-04T16:30:07.064Z</time></trkpt><trkpt lat="45.7392419" lon="12.2856865"><ele>32.0</ele><time>2026-04-04T16:30:08.063Z</time></trkpt><trkpt lat="45.7392018" lon="12.2854651"><ele>32.0</ele><time>2026-04-04T16:30:09.063Z</time></trkpt><trkpt lat="45.7391564" lon="12.2852417"><ele>32.0</ele><time>2026-04-04T16:30:10.063Z</time></trkpt><trkpt lat="45.7391063" lon="12.2850144"><ele>32.0</ele><time>2026-04-04T16:30:11.064Z</time></trkpt><trkpt lat="45.7390565" lon="12.2847854"><ele>32.0</ele><time>2026-04-04T16:30:12.064Z</time></trkpt><trkpt lat="45.7390041" lon="12.2845567"><ele>32.0</ele><time>2026-04-04T16:30:13.064Z</time></trkpt><trkpt lat="45.7389504" lon="12.2843273"><ele>32.0</ele><time>2026-04-04T16:30:14.064Z</time></trkpt><trkpt lat="45.7388965" lon="12.2840997"><ele>32.0</ele><time>2026-04-04T16:30:15.063Z</time></trkpt><trkpt lat="45.7388457" lon="12.2838831"><ele>32.0</ele><time>2026-04-04T16:30:16.064Z</time></trkpt><trkpt lat="45.7388043" lon="12.2836766"><ele>32.0</ele><time>2026-04-04T16:30:17.063Z</time></trkpt><trkpt lat="45.738771" lon="12.2834714"><ele>32.0</ele><time>2026-04-04T16:30:18.063Z</time></trkpt><trkpt lat="45.7387478" lon="12.2832608"><ele>32.0</ele><time>2026-04-04T16:30:19.064Z</time></trkpt><trkpt lat="45.7387308" lon="12.2830498"><ele>32.0</ele><time>2026-04-04T16:30:20.064Z</time></trkpt><trkpt lat="45.7387162" lon="12.2828335"><ele>32.0</ele><time>2026-04-04T16:30:21.063Z</time></trkpt><trkpt lat="45.7387057" lon="12.2826087"><ele>32.0</ele><time>2026-04-04T16:30:22.064Z</time></trkpt><trkpt lat="45.7386938" lon="12.2823745"><ele>32.0</ele><time>2026-04-04T16:30:23.063Z</time></trkpt><trkpt lat="45.7386804" lon="12.2821379"><ele>32.0</ele><time>2026-04-04T16:30:24.064Z</time></trkpt><trkpt lat="45.7386631" lon="12.2818876"><ele>32.0</ele><time>2026-04-04T16:30:25.063Z</time></trkpt><trkpt lat="45.7386457" lon="12.2816311"><ele>32.0</ele><time>2026-04-04T16:30:26.064Z</time></trkpt><trkpt lat="45.7386226" lon="12.2813681"><ele>32.0</ele><time>2026-04-04T16:30:27.063Z</time></trkpt><trkpt lat="45.7385965" lon="12.2810962"><ele>32.0</ele><time>2026-04-04T16:30:28.063Z</time></trkpt><trkpt lat="45.7385664" lon="12.2808173"><ele>32.666666666666664</ele><time>2026-04-04T16:30:29.064Z</time></trkpt><trkpt lat="45.7385333" lon="12.2805454"><ele>33.333333333333336</ele><time>2026-04-04T16:30:30.064Z</time></trkpt><trkpt lat="45.7385028" lon="12.2802853"><ele>34.0</ele><time>2026-04-04T16:30:31.064Z</time></trkpt><trkpt lat="45.7384679" lon="12.2800324"><ele>34.0</ele><time>2026-04-04T16:30:32.064Z</time></trkpt><trkpt lat="45.7384294" lon="12.279783"><ele>34.0</ele><time>2026-04-04T16:30:33.063Z</time></trkpt><trkpt lat="45.738392" lon="12.2795396"><ele>34.0</ele><time>2026-04-04T16:30:34.064Z</time></trkpt><trkpt lat="45.7383566" lon="12.2793031"><ele>34.0</ele><time>2026-04-04T16:30:35.064Z</time></trkpt><trkpt lat="45.7383263" lon="12.27908"><ele>34.0</ele><time>2026-04-04T16:30:36.064Z</time></trkpt><trkpt lat="45.7382991" lon="12.2788725"><ele>34.0</ele><time>2026-04-04T16:30:37.064Z</time></trkpt><trkpt lat="45.7382727" lon="12.2786944"><ele>34.0</ele><time>2026-04-04T16:30:38.064Z</time></trkpt><trkpt lat="45.7382491" lon="12.278542"><ele>33.833333333333336</ele><time>2026-04-04T16:30:39.063Z</time></trkpt><trkpt lat="45.7382318" lon="12.2784137"><ele>33.66666666666667</ele><time>2026-04-04T16:30:40.063Z</time></trkpt><trkpt lat="45.7382206" lon="12.2782932"><ele>33.5</ele><time>2026-04-04T16:30:41.063Z</time></trkpt><trkpt lat="45.7382215" lon="12.2781816"><ele>33.333333333333336</ele><time>2026-04-04T16:30:42.063Z</time></trkpt><trkpt lat="45.7382378" lon="12.2780769"><ele>33.166666666666664</ele><time>2026-04-04T16:30:43.063Z</time></trkpt><trkpt lat="45.7382779" lon="12.2779838"><ele>33.0</ele><time>2026-04-04T16:30:44.064Z</time></trkpt><trkpt lat="45.7383353" lon="12.2778936"><ele>32.833333333333336</ele><time>2026-04-04T16:30:45.063Z</time></trkpt><trkpt lat="45.7383976" lon="12.2777989"><ele>32.666666666666664</ele><time>2026-04-04T16:30:46.064Z</time></trkpt><trkpt lat="45.738445" lon="12.2776853"><ele>32.5</ele><time>2026-04-04T16:30:47.064Z</time></trkpt><trkpt lat="45.738466" lon="12.2775592"><ele>32.33333333333333</ele><time>2026-04-04T16:30:48.063Z</time></trkpt><trkpt lat="45.7384649" lon="12.2774383"><ele>32.166666666666664</ele><time>2026-04-04T16:30:49.064Z</time></trkpt><trkpt lat="45.738438" lon="12.2773243"><ele>32.0</ele><time>2026-04-04T16:30:50.064Z</time></trkpt><trkpt lat="45.7383903" lon="12.2772219"><ele>31.999999999999996</ele><time>2026-04-04T16:30:51.064Z</time></trkpt><trkpt lat="45.7383226" lon="12.277148"><ele>32.0</ele><time>2026-04-04T16:30:52.064Z</time></trkpt><trkpt lat="45.7382424" lon="12.2771074"><ele>32.0</ele><time>2026-04-04T16:30:53.063Z</time></trkpt><trkpt lat="45.7381553" lon="12.2770808"><ele>32.0</ele><time>2026-04-04T16:30:54.064Z</time></trkpt><trkpt lat="45.7380817" lon="12.2770144"><ele>31.999999999999996</ele><time>2026-04-04T16:30:55.063Z</time></trkpt><trkpt lat="45.7380319" lon="12.2769188"><ele>32.0</ele><time>2026-04-04T16:30:56.063Z</time></trkpt><trkpt lat="45.7380053" lon="12.2767986"><ele>32.0</ele><time>2026-04-04T16:30:57.064Z</time></trkpt><trkpt lat="45.7379873" lon="12.276659"><ele>32.0</ele><time>2026-04-04T16:30:58.063Z</time></trkpt><trkpt lat="45.7379654" lon="12.2765033"><ele>32.0</ele><time>2026-04-04T16:30:59.063Z</time></trkpt><trkpt lat="45.7379402" lon="12.276333"><ele>32.0</ele><time>2026-04-04T16:31:00.063Z</time></trkpt><trkpt lat="45.7379144" lon="12.2761493"><ele>32.0</ele><time>2026-04-04T16:31:01.064Z</time></trkpt><trkpt lat="45.7378871" lon="12.2759477"><ele>32.0</ele><time>2026-04-04T16:31:02.063Z</time></trkpt><trkpt lat="45.7378557" lon="12.2757344"><ele>32.0</ele><time>2026-04-04T16:31:03.064Z</time></trkpt><trkpt lat="45.7378225" lon="12.2755115"><ele>32.33333333333333</ele><time>2026-04-04T16:31:04.063Z</time></trkpt><trkpt lat="45.73779" lon="12.275283"><ele>32.666666666666664</ele><time>2026-04-04T16:31:05.063Z</time></trkpt><trkpt lat="45.737758" lon="12.2750521"><ele>33.0</ele><time>2026-04-04T16:31:06.064Z</time></trkpt><trkpt lat="45.7377236" lon="12.274816"><ele>33.0</ele><time>2026-04-04T16:31:07.063Z</time></trkpt><trkpt lat="45.7376893" lon="12.2745736"><ele>33.0</ele><time>2026-04-04T16:31:08.063Z</time></trkpt><trkpt lat="45.7376542" lon="12.2743261"><ele>33.0</ele><time>2026-04-04T16:31:09.064Z</time></trkpt><trkpt lat="45.7376177" lon="12.274078"><ele>33.333333333333336</ele><time>2026-04-04T16:31:10.063Z</time></trkpt><trkpt lat="45.7375794" lon="12.2738262"><ele>33.66666666666667</ele><time>2026-04-04T16:31:11.064Z</time></trkpt><trkpt lat="45.7375435" lon="12.2735797"><ele>34.0</ele><time>2026-04-04T16:31:12.063Z</time></trkpt><trkpt lat="45.7375109" lon="12.2733363"><ele>34.333333333333336</ele><time>2026-04-04T16:31:13.064Z</time></trkpt><trkpt lat="45.7374755" lon="12.2731024"><ele>34.666666666666664</ele><time>2026-04-04T16:31:14.063Z</time></trkpt><trkpt lat="45.7374403" lon="12.2728596"><ele>35.0</ele><time>2026-04-04T16:31:15.064Z</time></trkpt><trkpt lat="45.7374039" lon="12.2726162"><ele>35.0</ele><time>2026-04-04T16:31:16.063Z</time></trkpt><trkpt lat="45.7373677" lon="12.2723692"><ele>35.0</ele><time>2026-04-04T16:31:17.063Z</time></trkpt><trkpt lat="45.7373311" lon="12.2721243"><ele>35.0</ele><time>2026-04-04T16:31:18.063Z</time></trkpt><trkpt lat="45.7372948" lon="12.2718772"><ele>34.666666666666664</ele><time>2026-04-04T16:31:19.064Z</time></trkpt><trkpt lat="45.7372601" lon="12.2716337"><ele>34.333333333333336</ele><time>2026-04-04T16:31:20.063Z</time></trkpt><trkpt lat="45.7372263" lon="12.2713958"><ele>34.0</ele><time>2026-04-04T16:31:21.063Z</time></trkpt><trkpt lat="45.7371929" lon="12.2711617"><ele>34.0</ele><time>2026-04-04T16:31:22.063Z</time></trkpt><trkpt lat="45.7371608" lon="12.2709312"><ele>34.0</ele><time>2026-04-04T16:31:23.064Z</time></trkpt><trkpt lat="45.7371297" lon="12.2707041"><ele>34.0</ele><time>2026-04-04T16:31:24.063Z</time></trkpt><trkpt lat="45.7370986" lon="12.2704768"><ele>34.0</ele><time>2026-04-04T16:31:25.064Z</time></trkpt><trkpt lat="45.7370683" lon="12.2702662"><ele>34.0</ele><time>2026-04-04T16:31:26.063Z</time></trkpt><trkpt lat="45.737039" lon="12.2700662"><ele>34.0</ele><time>2026-04-04T16:31:27.064Z</time></trkpt><trkpt lat="45.7370128" lon="12.269882"><ele>34.0</ele><time>2026-04-04T16:31:28.063Z</time></trkpt><trkpt lat="45.7369877" lon="12.2697135"><ele>34.0</ele><time>2026-04-04T16:31:29.063Z</time></trkpt><trkpt lat="45.7369647" lon="12.2695537"><ele>34.0</ele><time>2026-04-04T16:31:30.063Z</time></trkpt><trkpt lat="45.7369435" lon="12.2694046"><ele>34.0</ele><time>2026-04-04T16:31:31.064Z</time></trkpt><trkpt lat="45.7369255" lon="12.2692593"><ele>34.0</ele><time>2026-04-04T16:31:32.064Z</time></trkpt><trkpt lat="45.7369039" lon="12.2691069"><ele>34.0</ele><time>2026-04-04T16:31:33.063Z</time></trkpt><trkpt lat="45.7368809" lon="12.2689578"><ele>33.8</ele><time>2026-04-04T16:31:34.063Z</time></trkpt><trkpt lat="45.7368608" lon="12.2688091"><ele>33.599999999999994</ele><time>2026-04-04T16:31:35.063Z</time></trkpt><trkpt lat="45.7368407" lon="12.2686573"><ele>33.4</ele><time>2026-04-04T16:31:36.063Z</time></trkpt><trkpt lat="45.73682" lon="12.2685014"><ele>33.199999999999996</ele><time>2026-04-04T16:31:37.063Z</time></trkpt><trkpt lat="45.7367993" lon="12.2683397"><ele>33.0</ele><time>2026-04-04T16:31:38.064Z</time></trkpt><trkpt lat="45.7367769" lon="12.2681626"><ele>33.0</ele><time>2026-04-04T16:31:39.064Z</time></trkpt><trkpt lat="45.736754" lon="12.2679756"><ele>33.0</ele><time>2026-04-04T16:31:40.063Z</time></trkpt><trkpt lat="45.7367284" lon="12.2677826"><ele>33.0</ele><time>2026-04-04T16:31:41.064Z</time></trkpt><trkpt lat="45.7367029" lon="12.2675868"><ele>33.0</ele><time>2026-04-04T16:31:42.063Z</time></trkpt><trkpt lat="45.7366695" lon="12.2673983"><ele>33.25</ele><time>2026-04-04T16:31:43.064Z</time></trkpt><trkpt lat="45.7366274" lon="12.267202"><ele>33.5</ele><time>2026-04-04T16:31:44.064Z</time></trkpt><trkpt lat="45.7365839" lon="12.2670261"><ele>33.75</ele><time>2026-04-04T16:31:45.063Z</time></trkpt><trkpt lat="45.7365399" lon="12.2668552"><ele>34.0</ele><time>2026-04-04T16:31:46.064Z</time></trkpt><trkpt lat="45.7365001" lon="12.2667134"><ele>34.0</ele><time>2026-04-04T16:31:47.064Z</time></trkpt><trkpt lat="45.7364717" lon="12.2665839"><ele>34.0</ele><time>2026-04-04T16:31:48.064Z</time></trkpt><trkpt lat="45.7364448" lon="12.2664681"><ele>34.0</ele><time>2026-04-04T16:31:49.064Z</time></trkpt><trkpt lat="45.7364254" lon="12.2663777"><ele>34.0</ele><time>2026-04-04T16:31:50.063Z</time></trkpt><trkpt lat="45.7364182" lon="12.2662649"><ele>34.0</ele><time>2026-04-04T16:31:52.064Z</time></trkpt><trkpt lat="45.7364466" lon="12.2661268"><ele>34.0</ele><time>2026-04-04T16:31:54.063Z</time></trkpt><trkpt lat="45.7364505" lon="12.2660321"><ele>34.0</ele><time>2026-04-04T16:31:55.063Z</time></trkpt><trkpt lat="45.7364336" lon="12.2659379"><ele>34.0</ele><time>2026-04-04T16:31:56.063Z</time></trkpt><trkpt lat="45.7363952" lon="12.2658478"><ele>34.0</ele><time>2026-04-04T16:31:57.064Z</time></trkpt><trkpt lat="45.736353" lon="12.2657502"><ele>34.0</ele><time>2026-04-04T16:31:58.063Z</time></trkpt><trkpt lat="45.7363155" lon="12.2656286"><ele>34.0</ele><time>2026-04-04T16:31:59.063Z</time></trkpt><trkpt lat="45.7362853" lon="12.2654852"><ele>34.0</ele><time>2026-04-04T16:32:00.063Z</time></trkpt><trkpt lat="45.7362595" lon="12.2653219"><ele>34.25</ele><time>2026-04-04T16:32:01.063Z</time></trkpt><trkpt lat="45.7362315" lon="12.2651442"><ele>34.5</ele><time>2026-04-04T16:32:02.064Z</time></trkpt><trkpt lat="45.7362025" lon="12.2649533"><ele>34.75</ele><time>2026-04-04T16:32:03.063Z</time></trkpt><trkpt lat="45.7361728" lon="12.2647528"><ele>35.0</ele><time>2026-04-04T16:32:04.064Z</time></trkpt><trkpt lat="45.7361438" lon="12.2645527"><ele>35.0</ele><time>2026-04-04T16:32:05.063Z</time></trkpt><trkpt lat="45.7361169" lon="12.2643571"><ele>35.0</ele><time>2026-04-04T16:32:06.063Z</time></trkpt><trkpt lat="45.7360897" lon="12.2641641"><ele>35.0</ele><time>2026-04-04T16:32:07.063Z</time></trkpt><trkpt lat="45.7360664" lon="12.2639673"><ele>35.0</ele><time>2026-04-04T16:32:08.063Z</time></trkpt><trkpt lat="45.7360413" lon="12.2637673"><ele>34.75</ele><time>2026-04-04T16:32:09.064Z</time></trkpt><trkpt lat="45.7360175" lon="12.2635633"><ele>34.5</ele><time>2026-04-04T16:32:10.064Z</time></trkpt><trkpt lat="45.7359956" lon="12.2633581"><ele>34.25</ele><time>2026-04-04T16:32:11.063Z</time></trkpt><trkpt lat="45.7359739" lon="12.2631455"><ele>34.0</ele><time>2026-04-04T16:32:12.063Z</time></trkpt><trkpt lat="45.7359545" lon="12.2629345"><ele>34.0</ele><time>2026-04-04T16:32:13.063Z</time></trkpt><trkpt lat="45.7359377" lon="12.2627239"><ele>34.0</ele><time>2026-04-04T16:32:14.064Z</time></trkpt><trkpt lat="45.7359254" lon="12.2625259"><ele>34.0</ele><time>2026-04-04T16:32:15.064Z</time></trkpt><trkpt lat="45.7359091" lon="12.2623285"><ele>34.0</ele><time>2026-04-04T16:32:16.063Z</time></trkpt><trkpt lat="45.735893" lon="12.2621273"><ele>34.25</ele><time>2026-04-04T16:32:17.063Z</time></trkpt><trkpt lat="45.7358748" lon="12.2619228"><ele>34.5</ele><time>2026-04-04T16:32:18.064Z</time></trkpt><trkpt lat="45.7358582" lon="12.261714"><ele>34.75</ele><time>2026-04-04T16:32:19.063Z</time></trkpt><trkpt lat="45.73584" lon="12.2615069"><ele>35.0</ele><time>2026-04-04T16:32:20.064Z</time></trkpt><trkpt lat="45.7358196" lon="12.2613028"><ele>35.0</ele><time>2026-04-04T16:32:21.064Z</time></trkpt><trkpt lat="45.7357933" lon="12.2610983"><ele>35.0</ele><time>2026-04-04T16:32:22.063Z</time></trkpt><trkpt lat="45.73577" lon="12.2608991"><ele>35.0</ele><time>2026-04-04T16:32:23.064Z</time></trkpt><trkpt lat="45.7357493" lon="12.2607134"><ele>35.0</ele><time>2026-04-04T16:32:24.064Z</time></trkpt><trkpt lat="45.7357351" lon="12.2605346"><ele>34.75</ele><time>2026-04-04T16:32:25.063Z</time></trkpt><trkpt lat="45.7357259" lon="12.2603617"><ele>34.5</ele><time>2026-04-04T16:32:26.064Z</time></trkpt><trkpt lat="45.7357281" lon="12.2601891"><ele>34.25</ele><time>2026-04-04T16:32:27.063Z</time></trkpt><trkpt lat="45.7357461" lon="12.2600197"><ele>34.0</ele><time>2026-04-04T16:32:28.063Z</time></trkpt><trkpt lat="45.7357833" lon="12.2598661"><ele>34.0</ele><time>2026-04-04T16:32:29.064Z</time></trkpt><trkpt lat="45.7358383" lon="12.2597259"><ele>34.0</ele><time>2026-04-04T16:32:30.063Z</time></trkpt><trkpt lat="45.7358983" lon="12.2595843"><ele>34.0</ele><time>2026-04-04T16:32:31.064Z</time></trkpt><trkpt lat="45.7359377" lon="12.2594332"><ele>34.0</ele><time>2026-04-04T16:32:32.064Z</time></trkpt><trkpt lat="45.7359465" lon="12.2592629"><ele>34.0</ele><time>2026-04-04T16:32:33.064Z</time></trkpt><trkpt lat="45.7359313" lon="12.2590909"><ele>34.0</ele><time>2026-04-04T16:32:34.064Z</time></trkpt><trkpt lat="45.7358962" lon="12.2589156"><ele>34.0</ele><time>2026-04-04T16:32:35.064Z</time></trkpt><trkpt lat="45.7358458" lon="12.2587362"><ele>34.0</ele><time>2026-04-04T16:32:36.064Z</time></trkpt><trkpt lat="45.7357799" lon="12.2585542"><ele>34.0</ele><time>2026-04-04T16:32:37.063Z</time></trkpt><trkpt lat="45.7357001" lon="12.2583785"><ele>34.0</ele><time>2026-04-04T16:32:38.063Z</time></trkpt><trkpt lat="45.7356121" lon="12.2582088"><ele>34.0</ele><time>2026-04-04T16:32:39.064Z</time></trkpt><trkpt lat="45.7355191" lon="12.2580386"><ele>34.0</ele><time>2026-04-04T16:32:40.063Z</time></trkpt><trkpt lat="45.7354394" lon="12.2578635"><ele>35.25</ele><time>2026-04-04T16:32:41.064Z</time></trkpt><trkpt lat="45.7353724" lon="12.2576802"><ele>36.5</ele><time>2026-04-04T16:32:42.063Z</time></trkpt><trkpt lat="45.7353152" lon="12.2574885"><ele>37.75</ele><time>2026-04-04T16:32:43.064Z</time></trkpt><trkpt lat="45.7352671" lon="12.2572873"><ele>39.0</ele><time>2026-04-04T16:32:44.064Z</time></trkpt><trkpt lat="45.7352304" lon="12.2570793"><ele>38.0</ele><time>2026-04-04T16:32:45.064Z</time></trkpt><trkpt lat="45.7351968" lon="12.2568687"><ele>37.0</ele><time>2026-04-04T16:32:46.063Z</time></trkpt><trkpt lat="45.7351648" lon="12.256658"><ele>36.0</ele><time>2026-04-04T16:32:47.064Z</time></trkpt><trkpt lat="45.7351335" lon="12.2564446"><ele>35.666666666666664</ele><time>2026-04-04T16:32:48.064Z</time></trkpt><trkpt lat="45.7351021" lon="12.2562295"><ele>35.33333333333333</ele><time>2026-04-04T16:32:49.064Z</time></trkpt><trkpt lat="45.7350713" lon="12.2560104"><ele>35.0</ele><time>2026-04-04T16:32:50.063Z</time></trkpt><trkpt lat="45.73504" lon="12.2557872"><ele>34.666666666666664</ele><time>2026-04-04T16:32:51.063Z</time></trkpt><trkpt lat="45.7350082" lon="12.2555649"><ele>34.333333333333336</ele><time>2026-04-04T16:32:52.064Z</time></trkpt><trkpt lat="45.7349751" lon="12.2553397"><ele>34.0</ele><time>2026-04-04T16:32:53.064Z</time></trkpt><trkpt lat="45.7349404" lon="12.2551114"><ele>34.0</ele><time>2026-04-04T16:32:54.064Z</time></trkpt><trkpt lat="45.7349068" lon="12.2548867"><ele>34.0</ele><time>2026-04-04T16:32:55.063Z</time></trkpt><trkpt lat="45.7348725" lon="12.2546611"><ele>34.0</ele><time>2026-04-04T16:32:56.064Z</time></trkpt><trkpt lat="45.734834" lon="12.2544304"><ele>34.333333333333336</ele><time>2026-04-04T16:32:57.064Z</time></trkpt><trkpt lat="45.7347911" lon="12.2542011"><ele>34.666666666666664</ele><time>2026-04-04T16:32:58.063Z</time></trkpt><trkpt lat="45.7347473" lon="12.253973"><ele>35.0</ele><time>2026-04-04T16:32:59.063Z</time></trkpt><trkpt lat="45.7347098" lon="12.2537496"><ele>35.0</ele><time>2026-04-04T16:33:00.064Z</time></trkpt><trkpt lat="45.734672" lon="12.2535304"><ele>35.0</ele><time>2026-04-04T16:33:01.063Z</time></trkpt><trkpt lat="45.7346369" lon="12.253313"><ele>35.0</ele><time>2026-04-04T16:33:02.063Z</time></trkpt><trkpt lat="45.7346023" lon="12.2530998"><ele>35.0</ele><time>2026-04-04T16:33:03.063Z</time></trkpt><trkpt lat="45.7345694" lon="12.2528847"><ele>35.0</ele><time>2026-04-04T16:33:04.064Z</time></trkpt><trkpt lat="45.7345364" lon="12.2526696"><ele>35.0</ele><time>2026-04-04T16:33:05.063Z</time></trkpt><trkpt lat="45.7345038" lon="12.2524502"><ele>35.0</ele><time>2026-04-04T16:33:06.063Z</time></trkpt><trkpt lat="45.7344721" lon="12.2522238"><ele>35.0</ele><time>2026-04-04T16:33:07.064Z</time></trkpt><trkpt lat="45.7344387" lon="12.2519919"><ele>35.0</ele><time>2026-04-04T16:33:08.064Z</time></trkpt><trkpt lat="45.7344043" lon="12.2517581"><ele>35.33333333333333</ele><time>2026-04-04T16:33:09.063Z</time></trkpt><trkpt lat="45.7343669" lon="12.2515251"><ele>35.666666666666664</ele><time>2026-04-04T16:33:10.063Z</time></trkpt><trkpt lat="45.7343316" lon="12.2512887"><ele>36.0</ele><time>2026-04-04T16:33:11.063Z</time></trkpt><trkpt lat="45.734295" lon="12.2510472"><ele>36.0</ele><time>2026-04-04T16:33:12.064Z</time></trkpt><trkpt lat="45.7342603" lon="12.250802"><ele>36.0</ele><time>2026-04-04T16:33:13.064Z</time></trkpt><trkpt lat="45.7342147" lon="12.2505578"><ele>36.0</ele><time>2026-04-04T16:33:14.063Z</time></trkpt><trkpt lat="45.7341806" lon="12.2503074"><ele>35.333333333333336</ele><time>2026-04-04T16:33:15.063Z</time></trkpt><trkpt lat="45.7341505" lon="12.2500589"><ele>34.66666666666667</ele><time>2026-04-04T16:33:16.064Z</time></trkpt><trkpt lat="45.7341253" lon="12.249815"><ele>34.0</ele><time>2026-04-04T16:33:17.063Z</time></trkpt><trkpt lat="45.7341026" lon="12.2495776"><ele>34.0</ele><time>2026-04-04T16:33:18.063Z</time></trkpt><trkpt lat="45.7340798" lon="12.2493419"><ele>34.0</ele><time>2026-04-04T16:33:19.064Z</time></trkpt><trkpt lat="45.734056" lon="12.2491078"><ele>34.0</ele><time>2026-04-04T16:33:20.064Z</time></trkpt><trkpt lat="45.7340334" lon="12.2488856"><ele>34.0</ele><time>2026-04-04T16:33:21.064Z</time></trkpt><trkpt lat="45.7340079" lon="12.2486606"><ele>34.0</ele><time>2026-04-04T16:33:22.063Z</time></trkpt><trkpt lat="45.7339859" lon="12.2484336"><ele>34.0</ele><time>2026-04-04T16:33:23.063Z</time></trkpt><trkpt lat="45.7339626" lon="12.2482103"><ele>33.66666666666667</ele><time>2026-04-04T16:33:24.064Z</time></trkpt><trkpt lat="45.7339358" lon="12.2479851"><ele>33.333333333333336</ele><time>2026-04-04T16:33:25.063Z</time></trkpt><trkpt lat="45.7339074" lon="12.2477518"><ele>33.0</ele><time>2026-04-04T16:33:26.064Z</time></trkpt><trkpt lat="45.7338773" lon="12.2475161"><ele>32.0</ele><time>2026-04-04T16:33:27.063Z</time></trkpt><trkpt lat="45.733845" lon="12.247275"><ele>31.0</ele><time>2026-04-04T16:33:28.064Z</time></trkpt><trkpt lat="45.7338132" lon="12.2470321"><ele>30.0</ele><time>2026-04-04T16:33:29.063Z</time></trkpt><trkpt lat="45.7337815" lon="12.2467882"><ele>30.0</ele><time>2026-04-04T16:33:30.064Z</time></trkpt><trkpt lat="45.7337505" lon="12.2465457"><ele>30.0</ele><time>2026-04-04T16:33:31.063Z</time></trkpt><trkpt lat="45.7337168" lon="12.2463025"><ele>30.0</ele><time>2026-04-04T16:33:32.063Z</time></trkpt><trkpt lat="45.7336842" lon="12.2460559"><ele>30.666666666666664</ele><time>2026-04-04T16:33:33.063Z</time></trkpt><trkpt lat="45.7336512" lon="12.2458123"><ele>31.333333333333332</ele><time>2026-04-04T16:33:34.064Z</time></trkpt><trkpt lat="45.7336199" lon="12.2455656"><ele>32.0</ele><time>2026-04-04T16:33:35.063Z</time></trkpt><trkpt lat="45.7335889" lon="12.2453197"><ele>32.33333333333333</ele><time>2026-04-04T16:33:36.064Z</time></trkpt><trkpt lat="45.7335565" lon="12.2450787"><ele>32.666666666666664</ele><time>2026-04-04T16:33:37.063Z</time></trkpt><trkpt lat="45.7335266" lon="12.2448418"><ele>33.0</ele><time>2026-04-04T16:33:38.064Z</time></trkpt><trkpt lat="45.7334929" lon="12.2446079"><ele>33.333333333333336</ele><time>2026-04-04T16:33:39.063Z</time></trkpt><trkpt lat="45.7334603" lon="12.2443744"><ele>33.66666666666667</ele><time>2026-04-04T16:33:40.063Z</time></trkpt><trkpt lat="45.7334261" lon="12.2441399"><ele>34.0</ele><time>2026-04-04T16:33:41.064Z</time></trkpt><trkpt lat="45.7333933" lon="12.2439105"><ele>34.0</ele><time>2026-04-04T16:33:42.064Z</time></trkpt><trkpt lat="45.7333598" lon="12.2436798"><ele>34.0</ele><time>2026-04-04T16:33:43.063Z</time></trkpt><trkpt lat="45.7333285" lon="12.2434483"><ele>34.0</ele><time>2026-04-04T16:33:44.064Z</time></trkpt><trkpt lat="45.7332948" lon="12.2432143"><ele>34.0</ele><time>2026-04-04T16:33:45.064Z</time></trkpt><trkpt lat="45.7332618" lon="12.242982"><ele>34.0</ele><time>2026-04-04T16:33:46.064Z</time></trkpt><trkpt lat="45.7332311" lon="12.2427496"><ele>34.0</ele><time>2026-04-04T16:33:47.064Z</time></trkpt><trkpt lat="45.7331995" lon="12.2425203"><ele>34.0</ele><time>2026-04-04T16:33:48.063Z</time></trkpt><trkpt lat="45.733167" lon="12.2423005"><ele>34.0</ele><time>2026-04-04T16:33:49.063Z</time></trkpt><trkpt lat="45.7331355" lon="12.2420937"><ele>34.0</ele><time>2026-04-04T16:33:50.064Z</time></trkpt><trkpt lat="45.7331061" lon="12.2418999"><ele>34.0</ele><time>2026-04-04T16:33:51.063Z</time></trkpt><trkpt lat="45.7330795" lon="12.2417175"><ele>33.75</ele><time>2026-04-04T16:33:52.063Z</time></trkpt><trkpt lat="45.7330543" lon="12.2415403"><ele>33.5</ele><time>2026-04-04T16:33:53.063Z</time></trkpt><trkpt lat="45.7330294" lon="12.2413624"><ele>33.25</ele><time>2026-04-04T16:33:54.063Z</time></trkpt><trkpt lat="45.7330046" lon="12.2411871"><ele>33.0</ele><time>2026-04-04T16:33:55.064Z</time></trkpt><trkpt lat="45.7329822" lon="12.2410267"><ele>33.0</ele><time>2026-04-04T16:33:56.064Z</time></trkpt><trkpt lat="45.7329602" lon="12.240878"><ele>33.0</ele><time>2026-04-04T16:33:57.063Z</time></trkpt><trkpt lat="45.7329421" lon="12.2407353"><ele>33.0</ele><time>2026-04-04T16:33:58.064Z</time></trkpt><trkpt lat="45.7329253" lon="12.2406021"><ele>33.0</ele><time>2026-04-04T16:33:59.063Z</time></trkpt><trkpt lat="45.7329137" lon="12.2404815"><ele>33.0</ele><time>2026-04-04T16:34:00.063Z</time></trkpt><trkpt lat="45.7329051" lon="12.2403716"><ele>33.199999999999996</ele><time>2026-04-04T16:34:01.063Z</time></trkpt><trkpt lat="45.7329003" lon="12.2402771"><ele>33.4</ele><time>2026-04-04T16:34:02.064Z</time></trkpt><trkpt lat="45.7328946" lon="12.2401097"><ele>33.599999999999994</ele><time>2026-04-04T16:34:04.063Z</time></trkpt><trkpt lat="45.7328977" lon="12.2399752"><ele>33.8</ele><time>2026-04-04T16:34:06.064Z</time></trkpt><trkpt lat="45.7329126" lon="12.2398702"><ele>34.0</ele><time>2026-04-04T16:34:13.063Z</time></trkpt><trkpt lat="45.7329759" lon="12.2396931"><ele>34.0</ele><time>2026-04-04T16:34:15.064Z</time></trkpt><trkpt lat="45.7330123" lon="12.2395669"><ele>34.0</ele><time>2026-04-04T16:34:16.063Z</time></trkpt><trkpt lat="45.7330272" lon="12.2394243"><ele>34.0</ele><time>2026-04-04T16:34:17.064Z</time></trkpt><trkpt lat="45.733019" lon="12.2392921"><ele>34.0</ele><time>2026-04-04T16:34:18.063Z</time></trkpt><trkpt lat="45.73299" lon="12.2391815"><ele>34.0</ele><time>2026-04-04T16:34:19.063Z</time></trkpt><trkpt lat="45.7329454" lon="12.2390978"><ele>34.0</ele><time>2026-04-04T16:34:20.063Z</time></trkpt><trkpt lat="45.732892" lon="12.2390389"><ele>34.0</ele><time>2026-04-04T16:34:21.064Z</time></trkpt><trkpt lat="45.7328348" lon="12.2389919"><ele>34.0</ele><time>2026-04-04T16:34:22.063Z</time></trkpt><trkpt lat="45.7327703" lon="12.2389361"><ele>34.0</ele><time>2026-04-04T16:34:23.064Z</time></trkpt><trkpt lat="45.7327079" lon="12.2388494"><ele>34.0</ele><time>2026-04-04T16:34:24.063Z</time></trkpt><trkpt lat="45.7326571" lon="12.238725"><ele>34.0</ele><time>2026-04-04T16:34:25.064Z</time></trkpt><trkpt lat="45.7326255" lon="12.2385673"><ele>34.0</ele><time>2026-04-04T16:34:26.063Z</time></trkpt><trkpt lat="45.732603" lon="12.2383764"><ele>33.66666666666667</ele><time>2026-04-04T16:34:27.063Z</time></trkpt><trkpt lat="45.7325734" lon="12.2381598"><ele>33.333333333333336</ele><time>2026-04-04T16:34:28.064Z</time></trkpt><trkpt lat="45.7325393" lon="12.2379168"><ele>33.0</ele><time>2026-04-04T16:34:29.064Z</time></trkpt><trkpt lat="45.7325024" lon="12.2376572"><ele>33.0</ele><time>2026-04-04T16:34:30.063Z</time></trkpt><trkpt lat="45.7324631" lon="12.2373876"><ele>33.0</ele><time>2026-04-04T16:34:31.063Z</time></trkpt><trkpt lat="45.7324245" lon="12.2371099"><ele>33.0</ele><time>2026-04-04T16:34:32.063Z</time></trkpt><trkpt lat="45.7323862" lon="12.2368201"><ele>33.333333333333336</ele><time>2026-04-04T16:34:33.063Z</time></trkpt><trkpt lat="45.7323453" lon="12.2365318"><ele>33.66666666666667</ele><time>2026-04-04T16:34:34.064Z</time></trkpt><trkpt lat="45.7323074" lon="12.2362597"><ele>34.0</ele><time>2026-04-04T16:34:35.063Z</time></trkpt><trkpt lat="45.7322708" lon="12.236011"><ele>34.0</ele><time>2026-04-04T16:34:36.063Z</time></trkpt><trkpt lat="45.7322367" lon="12.2357819"><ele>34.0</ele><time>2026-04-04T16:34:37.063Z</time></trkpt><trkpt lat="45.7322056" lon="12.2355639"><ele>34.0</ele><time>2026-04-04T16:34:38.063Z</time></trkpt><trkpt lat="45.7321768" lon="12.2353567"><ele>34.0</ele><time>2026-04-04T16:34:39.063Z</time></trkpt><trkpt lat="45.732149" lon="12.2351593"><ele>34.0</ele><time>2026-04-04T16:34:40.064Z</time></trkpt><trkpt lat="45.7321212" lon="12.234968"><ele>34.0</ele><time>2026-04-04T16:34:41.063Z</time></trkpt><trkpt lat="45.7320947" lon="12.2347842"><ele>34.0</ele><time>2026-04-04T16:34:42.063Z</time></trkpt><trkpt lat="45.73207" lon="12.2346172"><ele>33.8</ele><time>2026-04-04T16:34:43.064Z</time></trkpt><trkpt lat="45.7320465" lon="12.2344634"><ele>33.599999999999994</ele><time>2026-04-04T16:34:44.063Z</time></trkpt><trkpt lat="45.7320258" lon="12.2343197"><ele>33.4</ele><time>2026-04-04T16:34:45.064Z</time></trkpt><trkpt lat="45.7320062" lon="12.2341777"><ele>33.199999999999996</ele><time>2026-04-04T16:34:46.064Z</time></trkpt><trkpt lat="45.7319857" lon="12.2340349"><ele>33.0</ele><time>2026-04-04T16:34:47.063Z</time></trkpt><trkpt lat="45.7319645" lon="12.2338824"><ele>33.0</ele><time>2026-04-04T16:34:48.064Z</time></trkpt><trkpt lat="45.7319417" lon="12.2337235"><ele>33.0</ele><time>2026-04-04T16:34:49.063Z</time></trkpt><trkpt lat="45.7319172" lon="12.2335585"><ele>33.0</ele><time>2026-04-04T16:34:50.063Z</time></trkpt><trkpt lat="45.7318934" lon="12.2334052"><ele>33.0</ele><time>2026-04-04T16:34:51.063Z</time></trkpt><trkpt lat="45.7318705" lon="12.2332589"><ele>33.0</ele><time>2026-04-04T16:34:52.064Z</time></trkpt><trkpt lat="45.7318489" lon="12.2331088"><ele>33.0</ele><time>2026-04-04T16:34:53.063Z</time></trkpt><trkpt lat="45.7318266" lon="12.2329441"><ele>33.0</ele><time>2026-04-04T16:34:54.063Z</time></trkpt><trkpt lat="45.7318011" lon="12.2327699"><ele>33.0</ele><time>2026-04-04T16:34:55.063Z</time></trkpt><trkpt lat="45.731769" lon="12.2325807"><ele>33.0</ele><time>2026-04-04T16:34:56.063Z</time></trkpt><trkpt lat="45.7317295" lon="12.2323528"><ele>33.0</ele><time>2026-04-04T16:34:57.064Z</time></trkpt><trkpt lat="45.7316896" lon="12.2320854"><ele>33.0</ele><time>2026-04-04T16:34:58.063Z</time></trkpt><trkpt lat="45.7316471" lon="12.2317908"><ele>33.0</ele><time>2026-04-04T16:34:59.063Z</time></trkpt><trkpt lat="45.7316051" lon="12.2314879"><ele>33.0</ele><time>2026-04-04T16:35:00.064Z</time></trkpt><trkpt lat="45.7315749" lon="12.2311895"><ele>33.0</ele><time>2026-04-04T16:35:01.064Z</time></trkpt><trkpt lat="45.7315422" lon="12.2308963"><ele>33.0</ele><time>2026-04-04T16:35:02.064Z</time></trkpt><trkpt lat="45.7315087" lon="12.2306149"><ele>32.333333333333336</ele><time>2026-04-04T16:35:03.063Z</time></trkpt><trkpt lat="45.7314736" lon="12.2303362"><ele>31.666666666666668</ele><time>2026-04-04T16:35:04.064Z</time></trkpt><trkpt lat="45.7314371" lon="12.2300732"><ele>31.0</ele><time>2026-04-04T16:35:05.063Z</time></trkpt><trkpt lat="45.7314041" lon="12.2298176"><ele>31.666666666666668</ele><time>2026-04-04T16:35:06.064Z</time></trkpt><trkpt lat="45.7313631" lon="12.2295538"><ele>32.333333333333336</ele><time>2026-04-04T16:35:07.064Z</time></trkpt><trkpt lat="45.7313146" lon="12.2292694"><ele>33.0</ele><time>2026-04-04T16:35:08.063Z</time></trkpt><trkpt lat="45.7312711" lon="12.2289696"><ele>33.666666666666664</ele><time>2026-04-04T16:35:09.063Z</time></trkpt><trkpt lat="45.7312337" lon="12.2286665"><ele>34.33333333333333</ele><time>2026-04-04T16:35:10.064Z</time></trkpt><trkpt lat="45.7311965" lon="12.2283701"><ele>35.0</ele><time>2026-04-04T16:35:11.064Z</time></trkpt><trkpt lat="45.7311585" lon="12.2280889"><ele>35.0</ele><time>2026-04-04T16:35:12.064Z</time></trkpt><trkpt lat="45.7311225" lon="12.2278186"><ele>35.0</ele><time>2026-04-04T16:35:13.064Z</time></trkpt><trkpt lat="45.7310834" lon="12.2275549"><ele>35.0</ele><time>2026-04-04T16:35:14.063Z</time></trkpt><trkpt lat="45.7310451" lon="12.2273105"><ele>34.75</ele><time>2026-04-04T16:35:15.063Z</time></trkpt><trkpt lat="45.7310061" lon="12.2270861"><ele>34.5</ele><time>2026-04-04T16:35:16.063Z</time></trkpt><trkpt lat="45.7309731" lon="12.2268964"><ele>34.25</ele><time>2026-04-04T16:35:17.064Z</time></trkpt><trkpt lat="45.730945" lon="12.2267174"><ele>34.0</ele><time>2026-04-04T16:35:18.064Z</time></trkpt><trkpt lat="45.7309174" lon="12.2265529"><ele>33.75</ele><time>2026-04-04T16:35:19.063Z</time></trkpt><trkpt lat="45.7308886" lon="12.2263891"><ele>33.5</ele><time>2026-04-04T16:35:20.063Z</time></trkpt><trkpt lat="45.7308537" lon="12.226192"><ele>33.25</ele><time>2026-04-04T16:35:21.064Z</time></trkpt><trkpt lat="45.7308176" lon="12.2259655"><ele>33.0</ele><time>2026-04-04T16:35:22.063Z</time></trkpt><trkpt lat="45.730787" lon="12.2257344"><ele>33.25</ele><time>2026-04-04T16:35:23.064Z</time></trkpt><trkpt lat="45.7307591" lon="12.2255279"><ele>33.5</ele><time>2026-04-04T16:35:24.064Z</time></trkpt><trkpt lat="45.7307346" lon="12.2253416"><ele>33.75</ele><time>2026-04-04T16:35:25.064Z</time></trkpt><trkpt lat="45.7307121" lon="12.2251701"><ele>34.0</ele><time>2026-04-04T16:35:26.063Z</time></trkpt><trkpt lat="45.7306866" lon="12.2249986"><ele>33.5</ele><time>2026-04-04T16:35:27.064Z</time></trkpt><trkpt lat="45.7306596" lon="12.2248122"><ele>33.0</ele><time>2026-04-04T16:35:28.064Z</time></trkpt><trkpt lat="45.7306291" lon="12.2246102"><ele>32.5</ele><time>2026-04-04T16:35:29.064Z</time></trkpt><trkpt lat="45.730597" lon="12.2243879"><ele>32.0</ele><time>2026-04-04T16:35:30.064Z</time></trkpt><trkpt lat="45.7305657" lon="12.2241479"><ele>32.33333333333333</ele><time>2026-04-04T16:35:31.064Z</time></trkpt><trkpt lat="45.7305366" lon="12.2239072"><ele>32.666666666666664</ele><time>2026-04-04T16:35:32.063Z</time></trkpt><trkpt lat="45.7304993" lon="12.2236752"><ele>33.0</ele><time>2026-04-04T16:35:33.063Z</time></trkpt><trkpt lat="45.7304623" lon="12.223441"><ele>33.0</ele><time>2026-04-04T16:35:34.064Z</time></trkpt><trkpt lat="45.7304273" lon="12.2232087"><ele>33.0</ele><time>2026-04-04T16:35:35.063Z</time></trkpt><trkpt lat="45.7303999" lon="12.2229923"><ele>33.0</ele><time>2026-04-04T16:35:36.064Z</time></trkpt><trkpt lat="45.7303759" lon="12.2228016"><ele>33.0</ele><time>2026-04-04T16:35:37.063Z</time></trkpt><trkpt lat="45.7303567" lon="12.2226448"><ele>33.0</ele><time>2026-04-04T16:35:38.063Z</time></trkpt><trkpt lat="45.7303398" lon="12.2225111"><ele>33.0</ele><time>2026-04-04T16:35:39.064Z</time></trkpt><trkpt lat="45.7303243" lon="12.2223971"><ele>33.0</ele><time>2026-04-04T16:35:40.064Z</time></trkpt><trkpt lat="45.7303112" lon="12.2222944"><ele>33.0</ele><time>2026-04-04T16:35:41.063Z</time></trkpt><trkpt lat="45.7302863" lon="12.2221359"><ele>33.0</ele><time>2026-04-04T16:35:43.063Z</time></trkpt><trkpt lat="45.7302711" lon="12.2220163"><ele>33.0</ele><time>2026-04-04T16:35:45.063Z</time></trkpt><trkpt lat="45.7302563" lon="12.2219036"><ele>33.0</ele><time>2026-04-04T16:35:47.064Z</time></trkpt><trkpt lat="45.7302351" lon="12.2217607"><ele>33.0</ele><time>2026-04-04T16:35:49.063Z</time></trkpt><trkpt lat="45.7302206" lon="12.2216672"><ele>33.0</ele><time>2026-04-04T16:35:50.063Z</time></trkpt><trkpt lat="45.7302063" lon="12.2215675"><ele>33.0</ele><time>2026-04-04T16:35:51.063Z</time></trkpt><trkpt lat="45.7301922" lon="12.2214679"><ele>33.0</ele><time>2026-04-04T16:35:52.064Z</time></trkpt><trkpt lat="45.730178" lon="12.2213591"><ele>33.0</ele><time>2026-04-04T16:35:53.064Z</time></trkpt><trkpt lat="45.7301606" lon="12.2212407"><ele>33.0</ele><time>2026-04-04T16:35:54.064Z</time></trkpt><trkpt lat="45.7301431" lon="12.221117"><ele>33.0</ele><time>2026-04-04T16:35:55.064Z</time></trkpt><trkpt lat="45.730125" lon="12.2209916"><ele>33.0</ele><time>2026-04-04T16:35:56.063Z</time></trkpt><trkpt lat="45.7301072" lon="12.2208746"><ele>33.0</ele><time>2026-04-04T16:35:57.064Z</time></trkpt><trkpt lat="45.7300928" lon="12.2207612"><ele>33.0</ele><time>2026-04-04T16:35:58.063Z</time></trkpt><trkpt lat="45.7300779" lon="12.2206533"><ele>33.0</ele><time>2026-04-04T16:35:59.063Z</time></trkpt><trkpt lat="45.7300627" lon="12.2205496"><ele>33.0</ele><time>2026-04-04T16:36:00.064Z</time></trkpt><trkpt lat="45.7300484" lon="12.2204512"><ele>33.0</ele><time>2026-04-04T16:36:01.063Z</time></trkpt><trkpt lat="45.7300245" lon="12.2203187"><ele>33.0</ele><time>2026-04-04T16:36:03.063Z</time></trkpt><trkpt lat="45.7300134" lon="12.2202187"><ele>33.0</ele><time>2026-04-04T16:36:07.063Z</time></trkpt><trkpt lat="45.7299993" lon="12.2200914"><ele>33.166666666666664</ele><time>2026-04-04T16:36:10.063Z</time></trkpt><trkpt lat="45.7299806" lon="12.219963"><ele>33.333333333333336</ele><time>2026-04-04T16:36:12.063Z</time></trkpt><trkpt lat="45.7299589" lon="12.2198068"><ele>33.5</ele><time>2026-04-04T16:36:14.064Z</time></trkpt><trkpt lat="45.7299485" lon="12.2197155"><ele>33.66666666666667</ele><time>2026-04-04T16:36:15.064Z</time></trkpt><trkpt lat="45.7299341" lon="12.219618"><ele>33.833333333333336</ele><time>2026-04-04T16:36:16.063Z</time></trkpt><trkpt lat="45.7299226" lon="12.2195162"><ele>34.0</ele><time>2026-04-04T16:36:17.064Z</time></trkpt><trkpt lat="45.729913" lon="12.2194225"><ele>34.0</ele><time>2026-04-04T16:36:18.063Z</time></trkpt><trkpt lat="45.7299054" lon="12.219325"><ele>34.0</ele><time>2026-04-04T16:36:19.063Z</time></trkpt><trkpt lat="45.7298937" lon="12.2192108"><ele>34.0</ele><time>2026-04-04T16:36:20.064Z</time></trkpt><trkpt lat="45.7298782" lon="12.2190781"><ele>34.0</ele><time>2026-04-04T16:36:21.064Z</time></trkpt><trkpt lat="45.729854" lon="12.2189146"><ele>34.0</ele><time>2026-04-04T16:36:22.064Z</time></trkpt><trkpt lat="45.7298235" lon="12.2187304"><ele>34.0</ele><time>2026-04-04T16:36:23.064Z</time></trkpt><trkpt lat="45.7297903" lon="12.2185182"><ele>34.0</ele><time>2026-04-04T16:36:24.063Z</time></trkpt><trkpt lat="45.7297521" lon="12.2182825"><ele>34.0</ele><time>2026-04-04T16:36:25.064Z</time></trkpt><trkpt lat="45.7297098" lon="12.2180192"><ele>35.0</ele><time>2026-04-04T16:36:26.063Z</time></trkpt><trkpt lat="45.7296677" lon="12.2177358"><ele>36.0</ele><time>2026-04-04T16:36:27.063Z</time></trkpt><trkpt lat="45.7296269" lon="12.2174491"><ele>37.0</ele><time>2026-04-04T16:36:28.064Z</time></trkpt><trkpt lat="45.7295863" lon="12.2171627"><ele>37.0</ele><time>2026-04-04T16:36:29.064Z</time></trkpt><trkpt lat="45.7295471" lon="12.2168865"><ele>37.0</ele><time>2026-04-04T16:36:30.063Z</time></trkpt><trkpt lat="45.7295069" lon="12.2166151"><ele>37.0</ele><time>2026-04-04T16:36:31.063Z</time></trkpt><trkpt lat="45.7294693" lon="12.2163461"><ele>37.0</ele><time>2026-04-04T16:36:32.064Z</time></trkpt><trkpt lat="45.729432" lon="12.2160742"><ele>37.0</ele><time>2026-04-04T16:36:33.064Z</time></trkpt><trkpt lat="45.7293952" lon="12.2158029"><ele>37.0</ele><time>2026-04-04T16:36:34.064Z</time></trkpt><trkpt lat="45.7293579" lon="12.2155331"><ele>37.0</ele><time>2026-04-04T16:36:35.063Z</time></trkpt><trkpt lat="45.7293181" lon="12.215273"><ele>37.0</ele><time>2026-04-04T16:36:36.063Z</time></trkpt><trkpt lat="45.7292822" lon="12.215022"><ele>37.0</ele><time>2026-04-04T16:36:37.063Z</time></trkpt><trkpt lat="45.7292473" lon="12.2147836"><ele>36.66666666666667</ele><time>2026-04-04T16:36:38.064Z</time></trkpt><trkpt lat="45.7292141" lon="12.2145579"><ele>36.333333333333336</ele><time>2026-04-04T16:36:39.063Z</time></trkpt><trkpt lat="45.7291842" lon="12.2143412"><ele>36.0</ele><time>2026-04-04T16:36:40.063Z</time></trkpt><trkpt lat="45.7291548" lon="12.2141316"><ele>35.75</ele><time>2026-04-04T16:36:41.064Z</time></trkpt><trkpt lat="45.7291275" lon="12.2139364"><ele>35.5</ele><time>2026-04-04T16:36:42.063Z</time></trkpt><trkpt lat="45.7291017" lon="12.2137479"><ele>35.25</ele><time>2026-04-04T16:36:43.063Z</time></trkpt><trkpt lat="45.7290752" lon="12.2135601"><ele>35.0</ele><time>2026-04-04T16:36:44.064Z</time></trkpt><trkpt lat="45.7290487" lon="12.2133739"><ele>35.0</ele><time>2026-04-04T16:36:45.063Z</time></trkpt><trkpt lat="45.7290195" lon="12.2131787"><ele>35.0</ele><time>2026-04-04T16:36:46.063Z</time></trkpt><trkpt lat="45.72899" lon="12.2129771"><ele>35.0</ele><time>2026-04-04T16:36:47.063Z</time></trkpt><trkpt lat="45.7289618" lon="12.2127686"><ele>35.0</ele><time>2026-04-04T16:36:48.063Z</time></trkpt><trkpt lat="45.7289318" lon="12.2125577"><ele>35.33333333333333</ele><time>2026-04-04T16:36:49.064Z</time></trkpt><trkpt lat="45.7289015" lon="12.2123486"><ele>35.666666666666664</ele><time>2026-04-04T16:36:50.064Z</time></trkpt><trkpt lat="45.7288683" lon="12.212134"><ele>36.0</ele><time>2026-04-04T16:36:51.064Z</time></trkpt><trkpt lat="45.7288312" lon="12.2119091"><ele>36.0</ele><time>2026-04-04T16:36:52.063Z</time></trkpt><trkpt lat="45.7287922" lon="12.2116634"><ele>36.0</ele><time>2026-04-04T16:36:53.063Z</time></trkpt><trkpt lat="45.7287532" lon="12.2113909"><ele>36.0</ele><time>2026-04-04T16:36:54.063Z</time></trkpt><trkpt lat="45.7287101" lon="12.2110992"><ele>36.333333333333336</ele><time>2026-04-04T16:36:55.064Z</time></trkpt><trkpt lat="45.7286685" lon="12.2107893"><ele>36.66666666666667</ele><time>2026-04-04T16:36:56.064Z</time></trkpt><trkpt lat="45.7286291" lon="12.2104691"><ele>37.0</ele><time>2026-04-04T16:36:57.063Z</time></trkpt><trkpt lat="45.7285893" lon="12.2101416"><ele>37.5</ele><time>2026-04-04T16:36:58.064Z</time></trkpt><trkpt lat="45.728547" lon="12.2098139"><ele>38.0</ele><time>2026-04-04T16:36:59.063Z</time></trkpt><trkpt lat="45.7285035" lon="12.2094871"><ele>38.0</ele><time>2026-04-04T16:37:00.063Z</time></trkpt><trkpt lat="45.7284568" lon="12.2091611"><ele>38.0</ele><time>2026-04-04T16:37:01.064Z</time></trkpt><trkpt lat="45.7284036" lon="12.2088228"><ele>38.0</ele><time>2026-04-04T16:37:02.063Z</time></trkpt><trkpt lat="45.7283422" lon="12.2084708"><ele>38.0</ele><time>2026-04-04T16:37:03.064Z</time></trkpt><trkpt lat="45.7282862" lon="12.2081267"><ele>38.33333333333333</ele><time>2026-04-04T16:37:04.064Z</time></trkpt><trkpt lat="45.7282403" lon="12.2077997"><ele>38.666666666666664</ele><time>2026-04-04T16:37:05.063Z</time></trkpt><trkpt lat="45.7282009" lon="12.2074969"><ele>39.0</ele><time>2026-04-04T16:37:06.063Z</time></trkpt><trkpt lat="45.7281662" lon="12.2072191"><ele>39.666666666666664</ele><time>2026-04-04T16:37:07.063Z</time></trkpt><trkpt lat="45.7281354" lon="12.2069611"><ele>40.33333333333333</ele><time>2026-04-04T16:37:08.063Z</time></trkpt><trkpt lat="45.7281092" lon="12.206711"><ele>41.0</ele><time>2026-04-04T16:37:09.063Z</time></trkpt><trkpt lat="45.7280782" lon="12.206468"><ele>41.0</ele><time>2026-04-04T16:37:10.063Z</time></trkpt><trkpt lat="45.7280429" lon="12.2062218"><ele>41.0</ele><time>2026-04-04T16:37:11.063Z</time></trkpt><trkpt lat="45.7280055" lon="12.2059726"><ele>41.0</ele><time>2026-04-04T16:37:12.064Z</time></trkpt><trkpt lat="45.7279696" lon="12.2057215"><ele>40.33333333333333</ele><time>2026-04-04T16:37:13.063Z</time></trkpt><trkpt lat="45.7279342" lon="12.2054782"><ele>39.666666666666664</ele><time>2026-04-04T16:37:14.064Z</time></trkpt><trkpt lat="45.7278985" lon="12.2052469"><ele>39.0</ele><time>2026-04-04T16:37:15.063Z</time></trkpt><trkpt lat="45.7278662" lon="12.2050168"><ele>39.0</ele><time>2026-04-04T16:37:16.064Z</time></trkpt><trkpt lat="45.7278338" lon="12.2047901"><ele>39.0</ele><time>2026-04-04T16:37:17.064Z</time></trkpt><trkpt lat="45.7277998" lon="12.204566"><ele>39.0</ele><time>2026-04-04T16:37:18.064Z</time></trkpt><trkpt lat="45.7277664" lon="12.2043332"><ele>39.0</ele><time>2026-04-04T16:37:19.064Z</time></trkpt><trkpt lat="45.7277309" lon="12.2040975"><ele>39.0</ele><time>2026-04-04T16:37:20.063Z</time></trkpt><trkpt lat="45.7276966" lon="12.2038532"><ele>39.0</ele><time>2026-04-04T16:37:21.064Z</time></trkpt><trkpt lat="45.7276637" lon="12.2036144"><ele>39.333333333333336</ele><time>2026-04-04T16:37:22.064Z</time></trkpt><trkpt lat="45.7276319" lon="12.2033868"><ele>39.66666666666667</ele><time>2026-04-04T16:37:23.064Z</time></trkpt><trkpt lat="45.7276003" lon="12.2031589"><ele>40.0</ele><time>2026-04-04T16:37:24.064Z</time></trkpt><trkpt lat="45.7275707" lon="12.2029299"><ele>40.0</ele><time>2026-04-04T16:37:25.063Z</time></trkpt><trkpt lat="45.7275378" lon="12.2027016"><ele>40.0</ele><time>2026-04-04T16:37:26.063Z</time></trkpt><trkpt lat="45.7275064" lon="12.2024723"><ele>40.0</ele><time>2026-04-04T16:37:27.064Z</time></trkpt><trkpt lat="45.7274741" lon="12.2022443"><ele>40.333333333333336</ele><time>2026-04-04T16:37:28.063Z</time></trkpt><trkpt lat="45.7274433" lon="12.2020153"><ele>40.666666666666664</ele><time>2026-04-04T16:37:29.064Z</time></trkpt><trkpt lat="45.7274113" lon="12.2017833"><ele>41.0</ele><time>2026-04-04T16:37:30.064Z</time></trkpt><trkpt lat="45.7273775" lon="12.2015524"><ele>41.33333333333333</ele><time>2026-04-04T16:37:31.064Z</time></trkpt><trkpt lat="45.727342" lon="12.2013214"><ele>41.666666666666664</ele><time>2026-04-04T16:37:32.063Z</time></trkpt><trkpt lat="45.7273105" lon="12.2010916"><ele>42.0</ele><time>2026-04-04T16:37:33.064Z</time></trkpt><trkpt lat="45.7272784" lon="12.2008619"><ele>42.333333333333336</ele><time>2026-04-04T16:37:34.064Z</time></trkpt><trkpt lat="45.7272443" lon="12.2006369"><ele>42.66666666666667</ele><time>2026-04-04T16:37:35.063Z</time></trkpt><trkpt lat="45.7272112" lon="12.2004116"><ele>43.0</ele><time>2026-04-04T16:37:36.064Z</time></trkpt><trkpt lat="45.7271803" lon="12.2001865"><ele>43.0</ele><time>2026-04-04T16:37:37.064Z</time></trkpt><trkpt lat="45.7271477" lon="12.1999636"><ele>43.0</ele><time>2026-04-04T16:37:38.064Z</time></trkpt><trkpt lat="45.7271145" lon="12.1997423"><ele>43.0</ele><time>2026-04-04T16:37:39.064Z</time></trkpt><trkpt lat="45.7270824" lon="12.1995217"><ele>42.333333333333336</ele><time>2026-04-04T16:37:40.064Z</time></trkpt><trkpt lat="45.7270512" lon="12.1992977"><ele>41.666666666666664</ele><time>2026-04-04T16:37:41.063Z</time></trkpt><trkpt lat="45.7270197" lon="12.1990769"><ele>41.0</ele><time>2026-04-04T16:37:42.064Z</time></trkpt><trkpt lat="45.7269886" lon="12.1988601"><ele>41.25</ele><time>2026-04-04T16:37:43.063Z</time></trkpt><trkpt lat="45.7269587" lon="12.1986528"><ele>41.5</ele><time>2026-04-04T16:37:44.063Z</time></trkpt><trkpt lat="45.7269322" lon="12.1984586"><ele>41.75</ele><time>2026-04-04T16:37:45.063Z</time></trkpt><trkpt lat="45.7269074" lon="12.1982681"><ele>42.0</ele><time>2026-04-04T16:37:46.064Z</time></trkpt><trkpt lat="45.7268806" lon="12.198079"><ele>42.0</ele><time>2026-04-04T16:37:47.064Z</time></trkpt><trkpt lat="45.7268549" lon="12.197907"><ele>42.0</ele><time>2026-04-04T16:37:48.063Z</time></trkpt><trkpt lat="45.726833" lon="12.1977536"><ele>42.0</ele><time>2026-04-04T16:37:49.063Z</time></trkpt><trkpt lat="45.7268123" lon="12.1976114"><ele>42.0</ele><time>2026-04-04T16:37:50.063Z</time></trkpt><trkpt lat="45.7267956" lon="12.1974823"><ele>42.0</ele><time>2026-04-04T16:37:51.063Z</time></trkpt><trkpt lat="45.7267855" lon="12.1973777"><ele>41.833333333333336</ele><time>2026-04-04T16:37:52.064Z</time></trkpt><trkpt lat="45.7267816" lon="12.1972868"><ele>41.666666666666664</ele><time>2026-04-04T16:37:53.063Z</time></trkpt><trkpt lat="45.7267951" lon="12.1971398"><ele>41.5</ele><time>2026-04-04T16:37:55.063Z</time></trkpt><trkpt lat="45.7268147" lon="12.1970467"><ele>41.33333333333333</ele><time>2026-04-04T16:37:57.063Z</time></trkpt><trkpt lat="45.7268513" lon="12.1969317"><ele>41.166666666666664</ele><time>2026-04-04T16:37:59.063Z</time></trkpt><trkpt lat="45.7268803" lon="12.1968375"><ele>41.0</ele><time>2026-04-04T16:38:00.063Z</time></trkpt><trkpt lat="45.7268935" lon="12.1967078"><ele>41.0</ele><time>2026-04-04T16:38:01.063Z</time></trkpt><trkpt lat="45.7268741" lon="12.1965625"><ele>41.0</ele><time>2026-04-04T16:38:02.064Z</time></trkpt><trkpt lat="45.7268223" lon="12.1964089"><ele>41.0</ele><time>2026-04-04T16:38:03.063Z</time></trkpt><trkpt lat="45.726751" lon="12.1962489"><ele>41.0</ele><time>2026-04-04T16:38:04.063Z</time></trkpt><trkpt lat="45.7266766" lon="12.1960697"><ele>40.666666666666664</ele><time>2026-04-04T16:38:05.064Z</time></trkpt><trkpt lat="45.7266058" lon="12.1958666"><ele>40.333333333333336</ele><time>2026-04-04T16:38:06.063Z</time></trkpt><trkpt lat="45.7265475" lon="12.1956324"><ele>40.0</ele><time>2026-04-04T16:38:07.063Z</time></trkpt><trkpt lat="45.726503" lon="12.1953748"><ele>40.0</ele><time>2026-04-04T16:38:08.063Z</time></trkpt><trkpt lat="45.7264573" lon="12.1950994"><ele>40.0</ele><time>2026-04-04T16:38:09.064Z</time></trkpt><trkpt lat="45.7264103" lon="12.1948084"><ele>40.0</ele><time>2026-04-04T16:38:10.063Z</time></trkpt><trkpt lat="45.7263657" lon="12.194506"><ele>41.0</ele><time>2026-04-04T16:38:11.063Z</time></trkpt><trkpt lat="45.7263251" lon="12.1941952"><ele>42.0</ele><time>2026-04-04T16:38:12.064Z</time></trkpt><trkpt lat="45.7262809" lon="12.1938788"><ele>43.0</ele><time>2026-04-04T16:38:13.064Z</time></trkpt><trkpt lat="45.7262372" lon="12.1935561"><ele>43.5</ele><time>2026-04-04T16:38:14.064Z</time></trkpt><trkpt lat="45.7261897" lon="12.1932296"><ele>44.0</ele><time>2026-04-04T16:38:15.063Z</time></trkpt><trkpt lat="45.7261447" lon="12.192903"><ele>44.5</ele><time>2026-04-04T16:38:16.064Z</time></trkpt><trkpt lat="45.7260988" lon="12.1925787"><ele>45.0</ele><time>2026-04-04T16:38:17.064Z</time></trkpt><trkpt lat="45.7260511" lon="12.1922561"><ele>44.0</ele><time>2026-04-04T16:38:18.063Z</time></trkpt><trkpt lat="45.7260039" lon="12.1919332"><ele>43.0</ele><time>2026-04-04T16:38:19.063Z</time></trkpt><trkpt lat="45.725957" lon="12.191614"><ele>43.333333333333336</ele><time>2026-04-04T16:38:20.064Z</time></trkpt><trkpt lat="45.7259135" lon="12.1912968"><ele>43.666666666666664</ele><time>2026-04-04T16:38:21.064Z</time></trkpt><trkpt lat="45.7258677" lon="12.1909852"><ele>44.0</ele><time>2026-04-04T16:38:22.063Z</time></trkpt><trkpt lat="45.7258229" lon="12.1906756"><ele>44.0</ele><time>2026-04-04T16:38:23.063Z</time></trkpt><trkpt lat="45.7257817" lon="12.1903706"><ele>44.0</ele><time>2026-04-04T16:38:24.064Z</time></trkpt><trkpt lat="45.7257379" lon="12.1900686"><ele>44.0</ele><time>2026-04-04T16:38:25.063Z</time></trkpt><trkpt lat="45.7256945" lon="12.1897696"><ele>44.0</ele><time>2026-04-04T16:38:26.064Z</time></trkpt><trkpt lat="45.7256512" lon="12.1894755"><ele>44.0</ele><time>2026-04-04T16:38:27.064Z</time></trkpt><trkpt lat="45.7256065" lon="12.1891844"><ele>44.0</ele><time>2026-04-04T16:38:28.064Z</time></trkpt><trkpt lat="45.7255658" lon="12.188898"><ele>43.666666666666664</ele><time>2026-04-04T16:38:29.064Z</time></trkpt><trkpt lat="45.7255245" lon="12.1886109"><ele>43.333333333333336</ele><time>2026-04-04T16:38:30.064Z</time></trkpt><trkpt lat="45.7254853" lon="12.1883259"><ele>43.0</ele><time>2026-04-04T16:38:31.064Z</time></trkpt><trkpt lat="45.7254434" lon="12.1880424"><ele>43.0</ele><time>2026-04-04T16:38:32.064Z</time></trkpt><trkpt lat="45.7254036" lon="12.1877635"><ele>43.0</ele><time>2026-04-04T16:38:33.063Z</time></trkpt><trkpt lat="45.7253645" lon="12.1874914"><ele>43.0</ele><time>2026-04-04T16:38:34.063Z</time></trkpt><trkpt lat="45.7253259" lon="12.1872276"><ele>44.0</ele><time>2026-04-04T16:38:35.064Z</time></trkpt><trkpt lat="45.7252906" lon="12.1869853"><ele>45.0</ele><time>2026-04-04T16:38:36.064Z</time></trkpt><trkpt lat="45.725261" lon="12.18677"><ele>46.0</ele><time>2026-04-04T16:38:37.064Z</time></trkpt><trkpt lat="45.725233" lon="12.1865883"><ele>46.16666666666667</ele><time>2026-04-04T16:38:38.064Z</time></trkpt><trkpt lat="45.7252094" lon="12.1864343"><ele>46.333333333333336</ele><time>2026-04-04T16:38:39.063Z</time></trkpt><trkpt lat="45.7251889" lon="12.1863003"><ele>46.5</ele><time>2026-04-04T16:38:40.064Z</time></trkpt><trkpt lat="45.7251687" lon="12.1861858"><ele>46.666666666666664</ele><time>2026-04-04T16:38:41.064Z</time></trkpt><trkpt lat="45.7251494" lon="12.1860813"><ele>46.83333333333333</ele><time>2026-04-04T16:38:42.063Z</time></trkpt><trkpt lat="45.7251432" lon="12.1859795"><ele>47.0</ele><time>2026-04-04T16:38:43.064Z</time></trkpt><trkpt lat="45.7251561" lon="12.185873"><ele>47.0</ele><time>2026-04-04T16:38:44.064Z</time></trkpt><trkpt lat="45.725182" lon="12.1857593"><ele>47.0</ele><time>2026-04-04T16:38:45.063Z</time></trkpt><trkpt lat="45.7251966" lon="12.1856326"><ele>47.0</ele><time>2026-04-04T16:38:46.064Z</time></trkpt><trkpt lat="45.7251799" lon="12.1855035"><ele>47.0</ele><time>2026-04-04T16:38:47.064Z</time></trkpt><trkpt lat="45.7251379" lon="12.1853755"><ele>47.0</ele><time>2026-04-04T16:38:48.064Z</time></trkpt><trkpt lat="45.7250773" lon="12.1852378"><ele>47.25</ele><time>2026-04-04T16:38:49.064Z</time></trkpt><trkpt lat="45.72503" lon="12.1850665"><ele>47.5</ele><time>2026-04-04T16:38:50.064Z</time></trkpt><trkpt lat="45.7249941" lon="12.1848646"><ele>47.75</ele><time>2026-04-04T16:38:51.063Z</time></trkpt><trkpt lat="45.7249619" lon="12.1846351"><ele>48.0</ele><time>2026-04-04T16:38:52.063Z</time></trkpt><trkpt lat="45.7249237" lon="12.1843836"><ele>48.0</ele><time>2026-04-04T16:38:53.064Z</time></trkpt><trkpt lat="45.7248862" lon="12.1841095"><ele>48.0</ele><time>2026-04-04T16:38:54.064Z</time></trkpt><trkpt lat="45.7248486" lon="12.1838198"><ele>48.0</ele><time>2026-04-04T16:38:55.064Z</time></trkpt><trkpt lat="45.7248075" lon="12.1835201"><ele>47.5</ele><time>2026-04-04T16:38:56.063Z</time></trkpt><trkpt lat="45.7247645" lon="12.1832063"><ele>47.0</ele><time>2026-04-04T16:38:57.064Z</time></trkpt><trkpt lat="45.7247171" lon="12.1828809"><ele>46.5</ele><time>2026-04-04T16:38:58.063Z</time></trkpt><trkpt lat="45.7246705" lon="12.1825444"><ele>46.0</ele><time>2026-04-04T16:38:59.064Z</time></trkpt><trkpt lat="45.7246254" lon="12.1822095"><ele>45.5</ele><time>2026-04-04T16:39:00.063Z</time></trkpt><trkpt lat="45.7245785" lon="12.1818739"><ele>45.0</ele><time>2026-04-04T16:39:01.064Z</time></trkpt><trkpt lat="45.7245316" lon="12.1815381"><ele>46.5</ele><time>2026-04-04T16:39:02.063Z</time></trkpt><trkpt lat="45.7244855" lon="12.1812038"><ele>48.0</ele><time>2026-04-04T16:39:03.063Z</time></trkpt><trkpt lat="45.7244385" lon="12.1808726"><ele>47.0</ele><time>2026-04-04T16:39:04.064Z</time></trkpt><trkpt lat="45.7243915" lon="12.1805446"><ele>46.0</ele><time>2026-04-04T16:39:05.063Z</time></trkpt><trkpt lat="45.7243452" lon="12.1802234"><ele>46.0</ele><time>2026-04-04T16:39:06.064Z</time></trkpt><trkpt lat="45.7243006" lon="12.1799046"><ele>46.0</ele><time>2026-04-04T16:39:07.063Z</time></trkpt><trkpt lat="45.7242556" lon="12.1795906"><ele>46.333333333333336</ele><time>2026-04-04T16:39:08.064Z</time></trkpt><trkpt lat="45.7242135" lon="12.1792771"><ele>46.666666666666664</ele><time>2026-04-04T16:39:09.063Z</time></trkpt><trkpt lat="45.7241711" lon="12.1789692"><ele>47.0</ele><time>2026-04-04T16:39:10.063Z</time></trkpt><trkpt lat="45.7241274" lon="12.1786632"><ele>47.0</ele><time>2026-04-04T16:39:11.064Z</time></trkpt><trkpt lat="45.7240815" lon="12.1783544"><ele>47.0</ele><time>2026-04-04T16:39:12.064Z</time></trkpt><trkpt lat="45.7240387" lon="12.1780483"><ele>47.0</ele><time>2026-04-04T16:39:13.064Z</time></trkpt><trkpt lat="45.7239931" lon="12.1777379"><ele>47.0</ele><time>2026-04-04T16:39:14.064Z</time></trkpt><trkpt lat="45.7239513" lon="12.1774265"><ele>47.0</ele><time>2026-04-04T16:39:15.063Z</time></trkpt><trkpt lat="45.7239082" lon="12.1771137"><ele>47.0</ele><time>2026-04-04T16:39:16.063Z</time></trkpt><trkpt lat="45.7238631" lon="12.1768013"><ele>47.0</ele><time>2026-04-04T16:39:17.064Z</time></trkpt><trkpt lat="45.7238169" lon="12.1764876"><ele>47.0</ele><time>2026-04-04T16:39:18.063Z</time></trkpt><trkpt lat="45.7237741" lon="12.1761744"><ele>47.0</ele><time>2026-04-04T16:39:19.063Z</time></trkpt><trkpt lat="45.7237319" lon="12.175859"><ele>47.0</ele><time>2026-04-04T16:39:20.063Z</time></trkpt><trkpt lat="45.723687" lon="12.1755455"><ele>47.0</ele><time>2026-04-04T16:39:21.063Z</time></trkpt><trkpt lat="45.7236416" lon="12.1752342"><ele>47.0</ele><time>2026-04-04T16:39:22.064Z</time></trkpt><trkpt lat="45.7235985" lon="12.1749208"><ele>47.0</ele><time>2026-04-04T16:39:23.063Z</time></trkpt><trkpt lat="45.7235549" lon="12.1746102"><ele>47.0</ele><time>2026-04-04T16:39:24.064Z</time></trkpt><trkpt lat="45.7235092" lon="12.1743003"><ele>47.0</ele><time>2026-04-04T16:39:25.063Z</time></trkpt><trkpt lat="45.7234655" lon="12.1739944"><ele>47.666666666666664</ele><time>2026-04-04T16:39:26.064Z</time></trkpt><trkpt lat="45.7234221" lon="12.1736891"><ele>48.33333333333333</ele><time>2026-04-04T16:39:27.063Z</time></trkpt><trkpt lat="45.7233782" lon="12.1733867"><ele>49.0</ele><time>2026-04-04T16:39:28.064Z</time></trkpt><trkpt lat="45.7233359" lon="12.1730902"><ele>49.0</ele><time>2026-04-04T16:39:29.063Z</time></trkpt><trkpt lat="45.7232937" lon="12.1727983"><ele>49.0</ele><time>2026-04-04T16:39:30.064Z</time></trkpt><trkpt lat="45.7232532" lon="12.1725107"><ele>49.0</ele><time>2026-04-04T16:39:31.064Z</time></trkpt><trkpt lat="45.7232156" lon="12.1722281"><ele>49.0</ele><time>2026-04-04T16:39:32.064Z</time></trkpt><trkpt lat="45.7231763" lon="12.1719445"><ele>49.0</ele><time>2026-04-04T16:39:33.063Z</time></trkpt><trkpt lat="45.7231365" lon="12.1716608"><ele>49.0</ele><time>2026-04-04T16:39:34.063Z</time></trkpt><trkpt lat="45.7230922" lon="12.1713745"><ele>49.0</ele><time>2026-04-04T16:39:35.063Z</time></trkpt><trkpt lat="45.7230509" lon="12.1710868"><ele>49.0</ele><time>2026-04-04T16:39:36.063Z</time></trkpt><trkpt lat="45.7230109" lon="12.1707969"><ele>49.0</ele><time>2026-04-04T16:39:37.063Z</time></trkpt><trkpt lat="45.7229694" lon="12.1705055"><ele>48.666666666666664</ele><time>2026-04-04T16:39:38.063Z</time></trkpt><trkpt lat="45.7229275" lon="12.1702152"><ele>48.33333333333333</ele><time>2026-04-04T16:39:39.063Z</time></trkpt><trkpt lat="45.7228863" lon="12.1699241"><ele>48.0</ele><time>2026-04-04T16:39:40.064Z</time></trkpt><trkpt lat="45.7228459" lon="12.1696362"><ele>48.0</ele><time>2026-04-04T16:39:41.064Z</time></trkpt><trkpt lat="45.7228059" lon="12.1693463"><ele>48.0</ele><time>2026-04-04T16:39:42.064Z</time></trkpt><trkpt lat="45.7227688" lon="12.1690566"><ele>48.0</ele><time>2026-04-04T16:39:43.064Z</time></trkpt><trkpt lat="45.7227339" lon="12.1687693"><ele>48.0</ele><time>2026-04-04T16:39:44.063Z</time></trkpt><trkpt lat="45.7227104" lon="12.1684808"><ele>48.0</ele><time>2026-04-04T16:39:45.063Z</time></trkpt><trkpt lat="45.7227034" lon="12.1681902"><ele>48.0</ele><time>2026-04-04T16:39:46.064Z</time></trkpt><trkpt lat="45.7227224" lon="12.1679039"><ele>48.33333333333333</ele><time>2026-04-04T16:39:47.064Z</time></trkpt><trkpt lat="45.7227609" lon="12.1676235"><ele>48.666666666666664</ele><time>2026-04-04T16:39:48.063Z</time></trkpt><trkpt lat="45.7228207" lon="12.1673461"><ele>49.0</ele><time>2026-04-04T16:39:49.063Z</time></trkpt><trkpt lat="45.7229037" lon="12.1670756"><ele>49.33333333333333</ele><time>2026-04-04T16:39:50.064Z</time></trkpt><trkpt lat="45.7230137" lon="12.1668156"><ele>49.66666666666667</ele><time>2026-04-04T16:39:51.063Z</time></trkpt><trkpt lat="45.7231445" lon="12.1665685"><ele>50.0</ele><time>2026-04-04T16:39:52.064Z</time></trkpt><trkpt lat="45.7232882" lon="12.1663261"><ele>50.0</ele><time>2026-04-04T16:39:53.063Z</time></trkpt><trkpt lat="45.7234358" lon="12.1660792"><ele>50.0</ele><time>2026-04-04T16:39:54.064Z</time></trkpt><trkpt lat="45.7235831" lon="12.1658232"><ele>49.5</ele><time>2026-04-04T16:39:55.064Z</time></trkpt><trkpt lat="45.723737" lon="12.1655665"><ele>49.0</ele><time>2026-04-04T16:39:56.063Z</time></trkpt><trkpt lat="45.7238937" lon="12.1653102"><ele>49.0</ele><time>2026-04-04T16:39:57.064Z</time></trkpt><trkpt lat="45.7240487" lon="12.1650502"><ele>49.0</ele><time>2026-04-04T16:39:58.064Z</time></trkpt><trkpt lat="45.7242081" lon="12.1647855"><ele>49.0</ele><time>2026-04-04T16:39:59.063Z</time></trkpt><trkpt lat="45.7243674" lon="12.1645198"><ele>49.0</ele><time>2026-04-04T16:40:00.064Z</time></trkpt><trkpt lat="45.7245275" lon="12.1642475"><ele>48.5</ele><time>2026-04-04T16:40:01.064Z</time></trkpt><trkpt lat="45.7246913" lon="12.1639751"><ele>48.0</ele><time>2026-04-04T16:40:02.063Z</time></trkpt><trkpt lat="45.7248588" lon="12.1637006"><ele>48.0</ele><time>2026-04-04T16:40:03.063Z</time></trkpt><trkpt lat="45.7250276" lon="12.1634226"><ele>48.0</ele><time>2026-04-04T16:40:04.063Z</time></trkpt><trkpt lat="45.725199" lon="12.1631422"><ele>48.5</ele><time>2026-04-04T16:40:05.064Z</time></trkpt><trkpt lat="45.7253702" lon="12.1628579"><ele>49.0</ele><time>2026-04-04T16:40:06.063Z</time></trkpt><trkpt lat="45.7255386" lon="12.1625731"><ele>51.0</ele><time>2026-04-04T16:40:07.064Z</time></trkpt><trkpt lat="45.7257062" lon="12.1622829"><ele>53.0</ele><time>2026-04-04T16:40:08.063Z</time></trkpt><trkpt lat="45.7258701" lon="12.1619842"><ele>53.0</ele><time>2026-04-04T16:40:09.063Z</time></trkpt><trkpt lat="45.7260298" lon="12.1616624"><ele>53.0</ele><time>2026-04-04T16:40:10.064Z</time></trkpt><trkpt lat="45.7261844" lon="12.1613263"><ele>52.0</ele><time>2026-04-04T16:40:11.063Z</time></trkpt><trkpt lat="45.726338" lon="12.1609806"><ele>51.0</ele><time>2026-04-04T16:40:12.064Z</time></trkpt><trkpt lat="45.7264852" lon="12.1606233"><ele>50.5</ele><time>2026-04-04T16:40:13.063Z</time></trkpt><trkpt lat="45.7266259" lon="12.160258"><ele>50.0</ele><time>2026-04-04T16:40:14.064Z</time></trkpt><trkpt lat="45.7267549" lon="12.1598878"><ele>50.5</ele><time>2026-04-04T16:40:15.063Z</time></trkpt><trkpt lat="45.7268741" lon="12.1595121"><ele>51.0</ele><time>2026-04-04T16:40:16.064Z</time></trkpt><trkpt lat="45.7269833" lon="12.159132"><ele>51.0</ele><time>2026-04-04T16:40:17.063Z</time></trkpt><trkpt lat="45.7270877" lon="12.1587513"><ele>51.0</ele><time>2026-04-04T16:40:18.064Z</time></trkpt><trkpt lat="45.7271845" lon="12.1583675"><ele>50.0</ele><time>2026-04-04T16:40:19.064Z</time></trkpt><trkpt lat="45.7272698" lon="12.15798"><ele>49.0</ele><time>2026-04-04T16:40:20.064Z</time></trkpt><trkpt lat="45.7273487" lon="12.1575923"><ele>48.5</ele><time>2026-04-04T16:40:21.063Z</time></trkpt><trkpt lat="45.7274155" lon="12.1572067"><ele>48.0</ele><time>2026-04-04T16:40:22.064Z</time></trkpt><trkpt lat="45.7274735" lon="12.1568209"><ele>49.0</ele><time>2026-04-04T16:40:23.064Z</time></trkpt><trkpt lat="45.7275204" lon="12.1564363"><ele>50.0</ele><time>2026-04-04T16:40:24.064Z</time></trkpt><trkpt lat="45.7275578" lon="12.1560541"><ele>50.5</ele><time>2026-04-04T16:40:25.064Z</time></trkpt><trkpt lat="45.7275881" lon="12.1556724"><ele>51.0</ele><time>2026-04-04T16:40:26.063Z</time></trkpt><trkpt lat="45.7276094" lon="12.1552924"><ele>51.0</ele><time>2026-04-04T16:40:27.064Z</time></trkpt><trkpt lat="45.7276239" lon="12.1549151"><ele>51.0</ele><time>2026-04-04T16:40:28.063Z</time></trkpt><trkpt lat="45.7276346" lon="12.1545297"><ele>51.0</ele><time>2026-04-04T16:40:29.063Z</time></trkpt><trkpt lat="45.7276384" lon="12.1541485"><ele>51.0</ele><time>2026-04-04T16:40:30.064Z</time></trkpt><trkpt lat="45.7276318" lon="12.1537659"><ele>51.0</ele><time>2026-04-04T16:40:31.064Z</time></trkpt><trkpt lat="45.7276178" lon="12.1533822"><ele>51.0</ele><time>2026-04-04T16:40:32.064Z</time></trkpt><trkpt lat="45.7275971" lon="12.1530009"><ele>51.5</ele><time>2026-04-04T16:40:33.064Z</time></trkpt><trkpt lat="45.7275706" lon="12.1526226"><ele>52.0</ele><time>2026-04-04T16:40:34.064Z</time></trkpt><trkpt lat="45.7275447" lon="12.1522432"><ele>53.5</ele><time>2026-04-04T16:40:35.063Z</time></trkpt><trkpt lat="45.7275168" lon="12.1518623"><ele>55.0</ele><time>2026-04-04T16:40:36.063Z</time></trkpt><trkpt lat="45.7274893" lon="12.1514807"><ele>55.5</ele><time>2026-04-04T16:40:37.064Z</time></trkpt><trkpt lat="45.7274616" lon="12.1510995"><ele>56.0</ele><time>2026-04-04T16:40:38.064Z</time></trkpt><trkpt lat="45.7274325" lon="12.1507182"><ele>56.0</ele><time>2026-04-04T16:40:39.063Z</time></trkpt><trkpt lat="45.727404" lon="12.1503372"><ele>56.0</ele><time>2026-04-04T16:40:40.064Z</time></trkpt><trkpt lat="45.7273724" lon="12.1499581"><ele>55.0</ele><time>2026-04-04T16:40:41.063Z</time></trkpt><trkpt lat="45.7273449" lon="12.1495752"><ele>54.0</ele><time>2026-04-04T16:40:42.063Z</time></trkpt><trkpt lat="45.7273168" lon="12.1491965"><ele>54.5</ele><time>2026-04-04T16:40:43.064Z</time></trkpt><trkpt lat="45.7272885" lon="12.1488188"><ele>55.0</ele><time>2026-04-04T16:40:44.064Z</time></trkpt><trkpt lat="45.7272553" lon="12.1484439"><ele>56.0</ele><time>2026-04-04T16:40:45.063Z</time></trkpt><trkpt lat="45.7272153" lon="12.1480704"><ele>57.0</ele><time>2026-04-04T16:40:46.063Z</time></trkpt><trkpt lat="45.7271685" lon="12.1477015"><ele>57.5</ele><time>2026-04-04T16:40:47.064Z</time></trkpt><trkpt lat="45.7271156" lon="12.1473369"><ele>58.0</ele><time>2026-04-04T16:40:48.064Z</time></trkpt><trkpt lat="45.7270575" lon="12.1469741"><ele>58.0</ele><time>2026-04-04T16:40:49.063Z</time></trkpt><trkpt lat="45.7269933" lon="12.1466288"><ele>58.0</ele><time>2026-04-04T16:40:50.064Z</time></trkpt><trkpt lat="45.7269229" lon="12.1462955"><ele>57.5</ele><time>2026-04-04T16:40:51.063Z</time></trkpt><trkpt lat="45.7268445" lon="12.145972"><ele>57.0</ele><time>2026-04-04T16:40:52.064Z</time></trkpt><trkpt lat="45.7267637" lon="12.1456517"><ele>57.0</ele><time>2026-04-04T16:40:53.064Z</time></trkpt><trkpt lat="45.7266712" lon="12.1453272"><ele>57.0</ele><time>2026-04-04T16:40:54.063Z</time></trkpt><trkpt lat="45.726564" lon="12.1449884"><ele>57.5</ele><time>2026-04-04T16:40:55.063Z</time></trkpt><trkpt lat="45.7264522" lon="12.1446275"><ele>58.0</ele><time>2026-04-04T16:40:56.064Z</time></trkpt><trkpt lat="45.7263394" lon="12.1442451"><ele>57.0</ele><time>2026-04-04T16:40:57.064Z</time></trkpt><trkpt lat="45.7262251" lon="12.143845"><ele>56.0</ele><time>2026-04-04T16:40:58.063Z</time></trkpt><trkpt lat="45.7261148" lon="12.1434359"><ele>57.0</ele><time>2026-04-04T16:40:59.064Z</time></trkpt><trkpt lat="45.7260108" lon="12.1430228"><ele>58.0</ele><time>2026-04-04T16:41:00.064Z</time></trkpt><trkpt lat="45.725901" lon="12.142627"><ele>58.5</ele><time>2026-04-04T16:41:01.063Z</time></trkpt><trkpt lat="45.7257858" lon="12.1422288"><ele>59.0</ele><time>2026-04-04T16:41:02.063Z</time></trkpt><trkpt lat="45.7256728" lon="12.1418363"><ele>57.5</ele><time>2026-04-04T16:41:03.063Z</time></trkpt><trkpt lat="45.725563" lon="12.1414483"><ele>56.0</ele><time>2026-04-04T16:41:04.063Z</time></trkpt><trkpt lat="45.7254532" lon="12.1410646"><ele>56.0</ele><time>2026-04-04T16:41:05.064Z</time></trkpt><trkpt lat="45.7253407" lon="12.1406904"><ele>56.0</ele><time>2026-04-04T16:41:06.064Z</time></trkpt><trkpt lat="45.7252261" lon="12.1403259"><ele>56.0</ele><time>2026-04-04T16:41:07.064Z</time></trkpt><trkpt lat="45.725106" lon="12.1399683"><ele>56.0</ele><time>2026-04-04T16:41:08.063Z</time></trkpt><trkpt lat="45.7249732" lon="12.1396253"><ele>56.5</ele><time>2026-04-04T16:41:09.063Z</time></trkpt><trkpt lat="45.7248245" lon="12.1392983"><ele>57.0</ele><time>2026-04-04T16:41:10.063Z</time></trkpt><trkpt lat="45.7246619" lon="12.1389832"><ele>57.5</ele><time>2026-04-04T16:41:11.063Z</time></trkpt><trkpt lat="45.7244899" lon="12.1386824"><ele>58.0</ele><time>2026-04-04T16:41:12.064Z</time></trkpt><trkpt lat="45.7243054" lon="12.1383962"><ele>58.0</ele><time>2026-04-04T16:41:13.064Z</time></trkpt><trkpt lat="45.7241071" lon="12.1381245"><ele>58.0</ele><time>2026-04-04T16:41:14.064Z</time></trkpt><trkpt lat="45.7238969" lon="12.1378658"><ele>58.0</ele><time>2026-04-04T16:41:15.064Z</time></trkpt><trkpt lat="45.7236778" lon="12.1376165"><ele>58.0</ele><time>2026-04-04T16:41:16.063Z</time></trkpt><trkpt lat="45.7234503" lon="12.1373731"><ele>57.5</ele><time>2026-04-04T16:41:17.063Z</time></trkpt><trkpt lat="45.7232235" lon="12.1371343"><ele>57.0</ele><time>2026-04-04T16:41:18.064Z</time></trkpt><trkpt lat="45.7229939" lon="12.1368951"><ele>57.0</ele><time>2026-04-04T16:41:19.064Z</time></trkpt><trkpt lat="45.7227684" lon="12.1366496"><ele>57.0</ele><time>2026-04-04T16:41:20.063Z</time></trkpt><trkpt lat="45.7225431" lon="12.136402"><ele>56.0</ele><time>2026-04-04T16:41:21.063Z</time></trkpt><trkpt lat="45.7223212" lon="12.1361596"><ele>55.0</ele><time>2026-04-04T16:41:22.064Z</time></trkpt><trkpt lat="45.7221014" lon="12.1359249"><ele>56.5</ele><time>2026-04-04T16:41:23.064Z</time></trkpt><trkpt lat="45.7218836" lon="12.1356908"><ele>58.0</ele><time>2026-04-04T16:41:24.063Z</time></trkpt><trkpt lat="45.7216679" lon="12.1354606"><ele>58.0</ele><time>2026-04-04T16:41:25.064Z</time></trkpt><trkpt lat="45.7214555" lon="12.135231"><ele>58.0</ele><time>2026-04-04T16:41:26.064Z</time></trkpt><trkpt lat="45.7212471" lon="12.1350036"><ele>57.5</ele><time>2026-04-04T16:41:27.064Z</time></trkpt><trkpt lat="45.721039" lon="12.134782"><ele>57.0</ele><time>2026-04-04T16:41:28.064Z</time></trkpt><trkpt lat="45.7208319" lon="12.1345591"><ele>57.0</ele><time>2026-04-04T16:41:29.064Z</time></trkpt><trkpt lat="45.7206249" lon="12.1343392"><ele>57.0</ele><time>2026-04-04T16:41:30.063Z</time></trkpt><trkpt lat="45.7204174" lon="12.1341191"><ele>56.5</ele><time>2026-04-04T16:41:31.064Z</time></trkpt><trkpt lat="45.7202152" lon="12.1339031"><ele>56.0</ele><time>2026-04-04T16:41:32.064Z</time></trkpt><trkpt lat="45.7200151" lon="12.1336913"><ele>56.0</ele><time>2026-04-04T16:41:33.063Z</time></trkpt><trkpt lat="45.7198198" lon="12.1334821"><ele>56.0</ele><time>2026-04-04T16:41:34.064Z</time></trkpt><trkpt lat="45.7196251" lon="12.1332744"><ele>56.5</ele><time>2026-04-04T16:41:35.063Z</time></trkpt><trkpt lat="45.7194326" lon="12.1330698"><ele>57.0</ele><time>2026-04-04T16:41:36.064Z</time></trkpt><trkpt lat="45.7192427" lon="12.1328687"><ele>56.0</ele><time>2026-04-04T16:41:37.064Z</time></trkpt><trkpt lat="45.7190552" lon="12.1326656"><ele>55.0</ele><time>2026-04-04T16:41:38.064Z</time></trkpt><trkpt lat="45.7188686" lon="12.1324602"><ele>55.0</ele><time>2026-04-04T16:41:39.063Z</time></trkpt><trkpt lat="45.718683" lon="12.1322571"><ele>55.0</ele><time>2026-04-04T16:41:40.064Z</time></trkpt><trkpt lat="45.7185048" lon="12.132039"><ele>56.0</ele><time>2026-04-04T16:41:41.064Z</time></trkpt><trkpt lat="45.7183297" lon="12.1318031"><ele>57.0</ele><time>2026-04-04T16:41:42.063Z</time></trkpt><trkpt lat="45.7181626" lon="12.13156"><ele>57.0</ele><time>2026-04-04T16:41:43.063Z</time></trkpt><trkpt lat="45.7180028" lon="12.1313002"><ele>57.0</ele><time>2026-04-04T16:41:44.064Z</time></trkpt><trkpt lat="45.7178513" lon="12.1310257"><ele>57.0</ele><time>2026-04-04T16:41:45.064Z</time></trkpt><trkpt lat="45.7177108" lon="12.13074"><ele>57.0</ele><time>2026-04-04T16:41:46.064Z</time></trkpt><trkpt lat="45.7175831" lon="12.1304435"><ele>57.0</ele><time>2026-04-04T16:41:47.063Z</time></trkpt><trkpt lat="45.7174674" lon="12.1301403"><ele>57.0</ele><time>2026-04-04T16:41:48.064Z</time></trkpt><trkpt lat="45.7173619" lon="12.1298257"><ele>56.5</ele><time>2026-04-04T16:41:49.064Z</time></trkpt><trkpt lat="45.7172657" lon="12.1295022"><ele>56.0</ele><time>2026-04-04T16:41:50.064Z</time></trkpt><trkpt lat="45.7171817" lon="12.1291828"><ele>55.333333333333336</ele><time>2026-04-04T16:41:51.064Z</time></trkpt><trkpt lat="45.7171108" lon="12.1288725"><ele>54.66666666666667</ele><time>2026-04-04T16:41:52.063Z</time></trkpt><trkpt lat="45.7170514" lon="12.1285688"><ele>54.0</ele><time>2026-04-04T16:41:53.064Z</time></trkpt><trkpt lat="45.7170049" lon="12.1282894"><ele>54.66666666666667</ele><time>2026-04-04T16:41:54.064Z</time></trkpt><trkpt lat="45.716969" lon="12.1280321"><ele>55.333333333333336</ele><time>2026-04-04T16:41:55.064Z</time></trkpt><trkpt lat="45.7169353" lon="12.127795"><ele>56.0</ele><time>2026-04-04T16:41:56.063Z</time></trkpt><trkpt lat="45.7169027" lon="12.1275798"><ele>55.25</ele><time>2026-04-04T16:41:57.063Z</time></trkpt><trkpt lat="45.7168759" lon="12.1273911"><ele>54.5</ele><time>2026-04-04T16:41:58.063Z</time></trkpt><trkpt lat="45.7168642" lon="12.1272088"><ele>53.75</ele><time>2026-04-04T16:41:59.063Z</time></trkpt><trkpt lat="45.7168772" lon="12.1270238"><ele>53.0</ele><time>2026-04-04T16:42:00.063Z</time></trkpt><trkpt lat="45.7169102" lon="12.1268383"><ele>53.0</ele><time>2026-04-04T16:42:01.063Z</time></trkpt><trkpt lat="45.7169567" lon="12.1266555"><ele>53.0</ele><time>2026-04-04T16:42:02.063Z</time></trkpt><trkpt lat="45.716986" lon="12.1264728"><ele>53.0</ele><time>2026-04-04T16:42:03.063Z</time></trkpt><trkpt lat="45.7169791" lon="12.1262807"><ele>53.0</ele><time>2026-04-04T16:42:04.064Z</time></trkpt><trkpt lat="45.7169375" lon="12.1260936"><ele>54.0</ele><time>2026-04-04T16:42:05.063Z</time></trkpt><trkpt lat="45.7168627" lon="12.1259192"><ele>55.0</ele><time>2026-04-04T16:42:06.063Z</time></trkpt><trkpt lat="45.7167689" lon="12.1257557"><ele>56.0</ele><time>2026-04-04T16:42:07.063Z</time></trkpt><trkpt lat="45.7166746" lon="12.1255783"><ele>57.0</ele><time>2026-04-04T16:42:08.064Z</time></trkpt><trkpt lat="45.716606" lon="12.1253693"><ele>57.0</ele><time>2026-04-04T16:42:09.063Z</time></trkpt><trkpt lat="45.7165557" lon="12.1251339"><ele>57.0</ele><time>2026-04-04T16:42:10.064Z</time></trkpt><trkpt lat="45.7165147" lon="12.1248782"><ele>57.0</ele><time>2026-04-04T16:42:11.063Z</time></trkpt><trkpt lat="45.7164749" lon="12.1246088"><ele>57.66666666666667</ele><time>2026-04-04T16:42:12.063Z</time></trkpt><trkpt lat="45.7164334" lon="12.1243261"><ele>58.333333333333336</ele><time>2026-04-04T16:42:13.063Z</time></trkpt><trkpt lat="45.7163907" lon="12.1240317"><ele>59.0</ele><time>2026-04-04T16:42:14.064Z</time></trkpt><trkpt lat="45.7163475" lon="12.1237309"><ele>59.0</ele><time>2026-04-04T16:42:15.064Z</time></trkpt><trkpt lat="45.716305" lon="12.1234247"><ele>59.0</ele><time>2026-04-04T16:42:16.064Z</time></trkpt><trkpt lat="45.716261" lon="12.1231154"><ele>59.0</ele><time>2026-04-04T16:42:17.064Z</time></trkpt><trkpt lat="45.7162144" lon="12.1228058"><ele>58.333333333333336</ele><time>2026-04-04T16:42:18.063Z</time></trkpt><trkpt lat="45.7161683" lon="12.1224932"><ele>57.66666666666667</ele><time>2026-04-04T16:42:19.064Z</time></trkpt><trkpt lat="45.7161221" lon="12.1221791"><ele>57.0</ele><time>2026-04-04T16:42:20.063Z</time></trkpt><trkpt lat="45.7160765" lon="12.1218742"><ele>56.66666666666667</ele><time>2026-04-04T16:42:21.064Z</time></trkpt><trkpt lat="45.7160345" lon="12.1215949"><ele>56.333333333333336</ele><time>2026-04-04T16:42:22.063Z</time></trkpt><trkpt lat="45.7159965" lon="12.1213421"><ele>56.0</ele><time>2026-04-04T16:42:23.064Z</time></trkpt><trkpt lat="45.7159623" lon="12.1210998"><ele>56.66666666666667</ele><time>2026-04-04T16:42:24.064Z</time></trkpt><trkpt lat="45.7159285" lon="12.1208679"><ele>57.33333333333333</ele><time>2026-04-04T16:42:25.064Z</time></trkpt><trkpt lat="45.7158939" lon="12.1206329"><ele>58.0</ele><time>2026-04-04T16:42:26.063Z</time></trkpt><trkpt lat="45.7158591" lon="12.1203956"><ele>58.0</ele><time>2026-04-04T16:42:27.064Z</time></trkpt><trkpt lat="45.7158269" lon="12.1201557"><ele>58.0</ele><time>2026-04-04T16:42:28.063Z</time></trkpt><trkpt lat="45.7157929" lon="12.119914"><ele>58.0</ele><time>2026-04-04T16:42:29.063Z</time></trkpt><trkpt lat="45.715757" lon="12.1196709"><ele>57.666666666666664</ele><time>2026-04-04T16:42:30.064Z</time></trkpt><trkpt lat="45.7157208" lon="12.119425"><ele>57.33333333333333</ele><time>2026-04-04T16:42:31.064Z</time></trkpt><trkpt lat="45.7156839" lon="12.1191759"><ele>57.0</ele><time>2026-04-04T16:42:32.064Z</time></trkpt><trkpt lat="45.7156478" lon="12.1189237"><ele>57.0</ele><time>2026-04-04T16:42:33.063Z</time></trkpt><trkpt lat="45.7156111" lon="12.1186709"><ele>57.0</ele><time>2026-04-04T16:42:34.064Z</time></trkpt><trkpt lat="45.7155741" lon="12.1184193"><ele>57.0</ele><time>2026-04-04T16:42:35.063Z</time></trkpt><trkpt lat="45.7155375" lon="12.1181678"><ele>56.33333333333333</ele><time>2026-04-04T16:42:36.064Z</time></trkpt><trkpt lat="45.7155017" lon="12.1179149"><ele>55.666666666666664</ele><time>2026-04-04T16:42:37.064Z</time></trkpt><trkpt lat="45.7154668" lon="12.1176575"><ele>55.0</ele><time>2026-04-04T16:42:38.063Z</time></trkpt><trkpt lat="45.7154325" lon="12.1174026"><ele>55.33333333333333</ele><time>2026-04-04T16:42:39.064Z</time></trkpt><trkpt lat="45.7153963" lon="12.1171516"><ele>55.66666666666667</ele><time>2026-04-04T16:42:40.063Z</time></trkpt><trkpt lat="45.7153616" lon="12.116919"><ele>56.0</ele><time>2026-04-04T16:42:41.063Z</time></trkpt><trkpt lat="45.7153301" lon="12.1167014"><ele>56.0</ele><time>2026-04-04T16:42:42.064Z</time></trkpt><trkpt lat="45.7152991" lon="12.1164947"><ele>56.0</ele><time>2026-04-04T16:42:43.063Z</time></trkpt><trkpt lat="45.7152689" lon="12.1162934"><ele>56.0</ele><time>2026-04-04T16:42:44.064Z</time></trkpt><trkpt lat="45.7152389" lon="12.116092"><ele>56.0</ele><time>2026-04-04T16:42:45.063Z</time></trkpt><trkpt lat="45.7152079" lon="12.1158948"><ele>56.25</ele><time>2026-04-04T16:42:46.064Z</time></trkpt><trkpt lat="45.715179" lon="12.1156979"><ele>56.5</ele><time>2026-04-04T16:42:47.064Z</time></trkpt><trkpt lat="45.7151511" lon="12.1155054"><ele>56.75</ele><time>2026-04-04T16:42:48.064Z</time></trkpt><trkpt lat="45.715125" lon="12.1153162"><ele>57.0</ele><time>2026-04-04T16:42:49.063Z</time></trkpt><trkpt lat="45.7150999" lon="12.1151288"><ele>57.0</ele><time>2026-04-04T16:42:50.064Z</time></trkpt><trkpt lat="45.7150738" lon="12.1149335"><ele>57.0</ele><time>2026-04-04T16:42:51.064Z</time></trkpt><trkpt lat="45.7150466" lon="12.1147355"><ele>57.0</ele><time>2026-04-04T16:42:52.064Z</time></trkpt><trkpt lat="45.7150178" lon="12.1145362"><ele>57.0</ele><time>2026-04-04T16:42:53.063Z</time></trkpt><trkpt lat="45.7149869" lon="12.1143304"><ele>57.25</ele><time>2026-04-04T16:42:54.063Z</time></trkpt><trkpt lat="45.7149561" lon="12.1141227"><ele>57.5</ele><time>2026-04-04T16:42:55.064Z</time></trkpt><trkpt lat="45.7149252" lon="12.1139174"><ele>57.75</ele><time>2026-04-04T16:42:56.064Z</time></trkpt><trkpt lat="45.7148962" lon="12.1137188"><ele>58.0</ele><time>2026-04-04T16:42:57.063Z</time></trkpt><trkpt lat="45.7148676" lon="12.1135268"><ele>58.0</ele><time>2026-04-04T16:42:58.063Z</time></trkpt><trkpt lat="45.7148367" lon="12.113329"><ele>58.0</ele><time>2026-04-04T16:42:59.064Z</time></trkpt><trkpt lat="45.7147997" lon="12.1131129"><ele>58.0</ele><time>2026-04-04T16:43:00.064Z</time></trkpt><trkpt lat="45.7147526" lon="12.1128692"><ele>58.0</ele><time>2026-04-04T16:43:01.063Z</time></trkpt><trkpt lat="45.7147077" lon="12.112606"><ele>58.0</ele><time>2026-04-04T16:43:02.064Z</time></trkpt><trkpt lat="45.7146657" lon="12.1123223"><ele>58.0</ele><time>2026-04-04T16:43:03.064Z</time></trkpt><trkpt lat="45.7146259" lon="12.1120218"><ele>58.0</ele><time>2026-04-04T16:43:04.064Z</time></trkpt><trkpt lat="45.7145891" lon="12.1117133"><ele>58.0</ele><time>2026-04-04T16:43:05.063Z</time></trkpt><trkpt lat="45.7145412" lon="12.1113949"><ele>58.0</ele><time>2026-04-04T16:43:06.063Z</time></trkpt><trkpt lat="45.714486" lon="12.111062"><ele>57.5</ele><time>2026-04-04T16:43:07.063Z</time></trkpt><trkpt lat="45.7144208" lon="12.110703"><ele>57.0</ele><time>2026-04-04T16:43:08.063Z</time></trkpt><trkpt lat="45.7143633" lon="12.1103269"><ele>57.0</ele><time>2026-04-04T16:43:09.064Z</time></trkpt><trkpt lat="45.7143132" lon="12.1099541"><ele>57.0</ele><time>2026-04-04T16:43:10.063Z</time></trkpt><trkpt lat="45.7142574" lon="12.1095844"><ele>56.5</ele><time>2026-04-04T16:43:11.063Z</time></trkpt><trkpt lat="45.7142047" lon="12.1092208"><ele>56.0</ele><time>2026-04-04T16:43:12.064Z</time></trkpt><trkpt lat="45.7141536" lon="12.1088657"><ele>56.0</ele><time>2026-04-04T16:43:13.063Z</time></trkpt><trkpt lat="45.7141022" lon="12.108516"><ele>56.0</ele><time>2026-04-04T16:43:14.063Z</time></trkpt><trkpt lat="45.7140547" lon="12.1081716"><ele>57.0</ele><time>2026-04-04T16:43:15.064Z</time></trkpt><trkpt lat="45.7140091" lon="12.1078338"><ele>58.0</ele><time>2026-04-04T16:43:16.063Z</time></trkpt><trkpt lat="45.7139634" lon="12.1075011"><ele>58.0</ele><time>2026-04-04T16:43:17.063Z</time></trkpt><trkpt lat="45.7139186" lon="12.1071722"><ele>58.0</ele><time>2026-04-04T16:43:18.063Z</time></trkpt><trkpt lat="45.7138756" lon="12.1068463"><ele>57.5</ele><time>2026-04-04T16:43:19.064Z</time></trkpt><trkpt lat="45.7138318" lon="12.1065268"><ele>57.0</ele><time>2026-04-04T16:43:20.064Z</time></trkpt><trkpt lat="45.7137915" lon="12.1062026"><ele>57.0</ele><time>2026-04-04T16:43:21.063Z</time></trkpt><trkpt lat="45.7137502" lon="12.10588"><ele>57.0</ele><time>2026-04-04T16:43:22.064Z</time></trkpt><trkpt lat="45.7137101" lon="12.1055568"><ele>57.5</ele><time>2026-04-04T16:43:23.064Z</time></trkpt><trkpt lat="45.713672" lon="12.1052313"><ele>58.0</ele><time>2026-04-04T16:43:24.064Z</time></trkpt><trkpt lat="45.7136346" lon="12.1049082"><ele>58.0</ele><time>2026-04-04T16:43:25.063Z</time></trkpt><trkpt lat="45.7135988" lon="12.1045839"><ele>58.0</ele><time>2026-04-04T16:43:26.064Z</time></trkpt><trkpt lat="45.7135602" lon="12.1042629"><ele>58.5</ele><time>2026-04-04T16:43:27.063Z</time></trkpt><trkpt lat="45.713522" lon="12.1039356"><ele>59.0</ele><time>2026-04-04T16:43:28.064Z</time></trkpt><trkpt lat="45.7134821" lon="12.1036085"><ele>59.0</ele><time>2026-04-04T16:43:29.063Z</time></trkpt><trkpt lat="45.7134395" lon="12.10328"><ele>59.0</ele><time>2026-04-04T16:43:30.064Z</time></trkpt><trkpt lat="45.7133973" lon="12.1029531"><ele>58.5</ele><time>2026-04-04T16:43:31.063Z</time></trkpt><trkpt lat="45.7133541" lon="12.1026279"><ele>58.0</ele><time>2026-04-04T16:43:32.064Z</time></trkpt><trkpt lat="45.7133094" lon="12.1023036"><ele>56.5</ele><time>2026-04-04T16:43:33.063Z</time></trkpt><trkpt lat="45.7132639" lon="12.1019835"><ele>55.0</ele><time>2026-04-04T16:43:34.063Z</time></trkpt><trkpt lat="45.7132191" lon="12.1016671"><ele>55.666666666666664</ele><time>2026-04-04T16:43:35.063Z</time></trkpt><trkpt lat="45.7131751" lon="12.1013561"><ele>56.33333333333333</ele><time>2026-04-04T16:43:36.063Z</time></trkpt><trkpt lat="45.7131302" lon="12.1010491"><ele>57.0</ele><time>2026-04-04T16:43:37.063Z</time></trkpt><trkpt lat="45.7130865" lon="12.100749"><ele>57.33333333333333</ele><time>2026-04-04T16:43:38.064Z</time></trkpt><trkpt lat="45.7130466" lon="12.1004653"><ele>57.666666666666664</ele><time>2026-04-04T16:43:39.063Z</time></trkpt><trkpt lat="45.7130081" lon="12.1001857"><ele>58.0</ele><time>2026-04-04T16:43:40.063Z</time></trkpt><trkpt lat="45.7129669" lon="12.0999048"><ele>58.0</ele><time>2026-04-04T16:43:41.064Z</time></trkpt><trkpt lat="45.712924" lon="12.09962"><ele>58.0</ele><time>2026-04-04T16:43:42.063Z</time></trkpt><trkpt lat="45.7128792" lon="12.0993343"><ele>58.0</ele><time>2026-04-04T16:43:43.064Z</time></trkpt><trkpt lat="45.7128365" lon="12.0990458"><ele>58.0</ele><time>2026-04-04T16:43:44.064Z</time></trkpt><trkpt lat="45.7127942" lon="12.0987576"><ele>58.0</ele><time>2026-04-04T16:43:45.063Z</time></trkpt><trkpt lat="45.7127532" lon="12.0984784"><ele>58.0</ele><time>2026-04-04T16:43:46.063Z</time></trkpt><trkpt lat="45.712714" lon="12.0982021"><ele>58.0</ele><time>2026-04-04T16:43:47.064Z</time></trkpt><trkpt lat="45.7126763" lon="12.097924"><ele>58.0</ele><time>2026-04-04T16:43:48.064Z</time></trkpt><trkpt lat="45.7126376" lon="12.0976504"><ele>58.0</ele><time>2026-04-04T16:43:49.064Z</time></trkpt><trkpt lat="45.7126006" lon="12.0973894"><ele>58.33333333333333</ele><time>2026-04-04T16:43:50.064Z</time></trkpt><trkpt lat="45.7125656" lon="12.0971343"><ele>58.66666666666667</ele><time>2026-04-04T16:43:51.064Z</time></trkpt><trkpt lat="45.7125299" lon="12.0968814"><ele>59.0</ele><time>2026-04-04T16:43:52.063Z</time></trkpt><trkpt lat="45.7124948" lon="12.0966288"><ele>58.66666666666667</ele><time>2026-04-04T16:43:53.063Z</time></trkpt><trkpt lat="45.7124626" lon="12.096377"><ele>58.33333333333333</ele><time>2026-04-04T16:43:54.064Z</time></trkpt><trkpt lat="45.7124287" lon="12.0961225"><ele>58.0</ele><time>2026-04-04T16:43:55.063Z</time></trkpt><trkpt lat="45.7123895" lon="12.0958603"><ele>57.666666666666664</ele><time>2026-04-04T16:43:56.063Z</time></trkpt><trkpt lat="45.7123514" lon="12.095597"><ele>57.33333333333333</ele><time>2026-04-04T16:43:57.064Z</time></trkpt><trkpt lat="45.7123119" lon="12.0953311"><ele>57.0</ele><time>2026-04-04T16:43:58.064Z</time></trkpt><trkpt lat="45.7122736" lon="12.0950653"><ele>57.33333333333333</ele><time>2026-04-04T16:43:59.064Z</time></trkpt><trkpt lat="45.7122362" lon="12.0948007"><ele>57.666666666666664</ele><time>2026-04-04T16:44:00.063Z</time></trkpt><trkpt lat="45.712199" lon="12.0945466"><ele>58.0</ele><time>2026-04-04T16:44:01.064Z</time></trkpt><trkpt lat="45.7121649" lon="12.0942991"><ele>58.33333333333333</ele><time>2026-04-04T16:44:02.063Z</time></trkpt><trkpt lat="45.7121292" lon="12.0940582"><ele>58.66666666666667</ele><time>2026-04-04T16:44:03.063Z</time></trkpt><trkpt lat="45.7120938" lon="12.0938167"><ele>59.0</ele><time>2026-04-04T16:44:04.063Z</time></trkpt><trkpt lat="45.7120615" lon="12.093575"><ele>59.0</ele><time>2026-04-04T16:44:05.063Z</time></trkpt><trkpt lat="45.7120273" lon="12.0933369"><ele>59.0</ele><time>2026-04-04T16:44:06.063Z</time></trkpt><trkpt lat="45.7119925" lon="12.0931007"><ele>59.0</ele><time>2026-04-04T16:44:07.064Z</time></trkpt><trkpt lat="45.7119592" lon="12.0928649"><ele>59.0</ele><time>2026-04-04T16:44:08.064Z</time></trkpt><trkpt lat="45.7119259" lon="12.092629"><ele>59.0</ele><time>2026-04-04T16:44:09.063Z</time></trkpt><trkpt lat="45.7118896" lon="12.0923919"><ele>59.0</ele><time>2026-04-04T16:44:10.063Z</time></trkpt><trkpt lat="45.7118546" lon="12.0921547"><ele>57.66666666666667</ele><time>2026-04-04T16:44:11.063Z</time></trkpt><trkpt lat="45.7118207" lon="12.091915"><ele>56.33333333333333</ele><time>2026-04-04T16:44:12.064Z</time></trkpt><trkpt lat="45.7117871" lon="12.0916817"><ele>55.0</ele><time>2026-04-04T16:44:13.064Z</time></trkpt><trkpt lat="45.7117532" lon="12.0914451"><ele>55.0</ele><time>2026-04-04T16:44:14.063Z</time></trkpt><trkpt lat="45.7117183" lon="12.0912074"><ele>55.0</ele><time>2026-04-04T16:44:15.063Z</time></trkpt><trkpt lat="45.7116841" lon="12.0909731"><ele>55.0</ele><time>2026-04-04T16:44:16.063Z</time></trkpt><trkpt lat="45.7116498" lon="12.0907459"><ele>55.666666666666664</ele><time>2026-04-04T16:44:17.063Z</time></trkpt><trkpt lat="45.7116173" lon="12.0905217"><ele>56.33333333333333</ele><time>2026-04-04T16:44:18.063Z</time></trkpt><trkpt lat="45.7115877" lon="12.0902983"><ele>57.0</ele><time>2026-04-04T16:44:19.063Z</time></trkpt><trkpt lat="45.7115585" lon="12.0900813"><ele>57.33333333333333</ele><time>2026-04-04T16:44:20.064Z</time></trkpt><trkpt lat="45.7115285" lon="12.089866"><ele>57.666666666666664</ele><time>2026-04-04T16:44:21.064Z</time></trkpt><trkpt lat="45.7114974" lon="12.0896563"><ele>58.0</ele><time>2026-04-04T16:44:22.063Z</time></trkpt><trkpt lat="45.7114626" lon="12.0894488"><ele>58.0</ele><time>2026-04-04T16:44:23.063Z</time></trkpt><trkpt lat="45.7114337" lon="12.0892461"><ele>58.0</ele><time>2026-04-04T16:44:24.063Z</time></trkpt><trkpt lat="45.7114077" lon="12.0890559"><ele>58.0</ele><time>2026-04-04T16:44:25.064Z</time></trkpt><trkpt lat="45.7113853" lon="12.0888789"><ele>58.0</ele><time>2026-04-04T16:44:26.063Z</time></trkpt><trkpt lat="45.7113652" lon="12.0887138"><ele>58.0</ele><time>2026-04-04T16:44:27.063Z</time></trkpt><trkpt lat="45.711346" lon="12.0885574"><ele>58.0</ele><time>2026-04-04T16:44:28.064Z</time></trkpt><trkpt lat="45.7113255" lon="12.0884079"><ele>58.0</ele><time>2026-04-04T16:44:29.064Z</time></trkpt><trkpt lat="45.7113087" lon="12.0882602"><ele>58.0</ele><time>2026-04-04T16:44:30.064Z</time></trkpt><trkpt lat="45.7112986" lon="12.0881138"><ele>58.0</ele><time>2026-04-04T16:44:31.063Z</time></trkpt><trkpt lat="45.7112991" lon="12.0879703"><ele>58.0</ele><time>2026-04-04T16:44:32.063Z</time></trkpt><trkpt lat="45.711311" lon="12.0878274"><ele>58.0</ele><time>2026-04-04T16:44:33.063Z</time></trkpt><trkpt lat="45.7113188" lon="12.0876707"><ele>58.0</ele><time>2026-04-04T16:44:34.064Z</time></trkpt><trkpt lat="45.711303" lon="12.0875033"><ele>58.0</ele><time>2026-04-04T16:44:35.063Z</time></trkpt><trkpt lat="45.7112644" lon="12.0873327"><ele>57.75</ele><time>2026-04-04T16:44:36.063Z</time></trkpt><trkpt lat="45.7112041" lon="12.0871637"><ele>57.5</ele><time>2026-04-04T16:44:37.063Z</time></trkpt><trkpt lat="45.7111445" lon="12.086987"><ele>57.25</ele><time>2026-04-04T16:44:38.064Z</time></trkpt><trkpt lat="45.7110982" lon="12.0867881"><ele>57.0</ele><time>2026-04-04T16:44:39.063Z</time></trkpt><trkpt lat="45.7110598" lon="12.0865688"><ele>56.33333333333333</ele><time>2026-04-04T16:44:40.064Z</time></trkpt><trkpt lat="45.7110208" lon="12.0863298"><ele>55.666666666666664</ele><time>2026-04-04T16:44:41.064Z</time></trkpt><trkpt lat="45.7109828" lon="12.0860748"><ele>55.0</ele><time>2026-04-04T16:44:42.064Z</time></trkpt><trkpt lat="45.7109433" lon="12.0858082"><ele>56.0</ele><time>2026-04-04T16:44:43.064Z</time></trkpt><trkpt lat="45.7109039" lon="12.0855351"><ele>57.0</ele><time>2026-04-04T16:44:44.064Z</time></trkpt><trkpt lat="45.7108629" lon="12.0852537"><ele>58.0</ele><time>2026-04-04T16:44:45.063Z</time></trkpt><trkpt lat="45.7108212" lon="12.0849664"><ele>57.33333333333333</ele><time>2026-04-04T16:44:46.064Z</time></trkpt><trkpt lat="45.7107759" lon="12.0846728"><ele>56.66666666666667</ele><time>2026-04-04T16:44:47.064Z</time></trkpt><trkpt lat="45.7107257" lon="12.0843775"><ele>56.0</ele><time>2026-04-04T16:44:48.063Z</time></trkpt><trkpt lat="45.710676" lon="12.0840756"><ele>56.0</ele><time>2026-04-04T16:44:49.064Z</time></trkpt><trkpt lat="45.7106315" lon="12.0837653"><ele>56.0</ele><time>2026-04-04T16:44:50.063Z</time></trkpt><trkpt lat="45.7105917" lon="12.083444"><ele>56.0</ele><time>2026-04-04T16:44:51.064Z</time></trkpt><trkpt lat="45.710551" lon="12.0831184"><ele>56.5</ele><time>2026-04-04T16:44:52.063Z</time></trkpt><trkpt lat="45.7105093" lon="12.0827887"><ele>57.0</ele><time>2026-04-04T16:44:53.064Z</time></trkpt><trkpt lat="45.7104665" lon="12.082465"><ele>57.0</ele><time>2026-04-04T16:44:54.064Z</time></trkpt><trkpt lat="45.7104214" lon="12.0821516"><ele>57.0</ele><time>2026-04-04T16:44:55.063Z</time></trkpt><trkpt lat="45.7103787" lon="12.0818551"><ele>57.0</ele><time>2026-04-04T16:44:56.063Z</time></trkpt><trkpt lat="45.7103368" lon="12.0815694"><ele>57.0</ele><time>2026-04-04T16:44:57.063Z</time></trkpt><trkpt lat="45.7102962" lon="12.0812912"><ele>57.0</ele><time>2026-04-04T16:44:58.063Z</time></trkpt><trkpt lat="45.7102552" lon="12.0810198"><ele>57.0</ele><time>2026-04-04T16:44:59.063Z</time></trkpt><trkpt lat="45.7102171" lon="12.0807522"><ele>57.0</ele><time>2026-04-04T16:45:00.063Z</time></trkpt><trkpt lat="45.7101792" lon="12.0804862"><ele>57.0</ele><time>2026-04-04T16:45:01.064Z</time></trkpt><trkpt lat="45.7101382" lon="12.0802182"><ele>57.0</ele><time>2026-04-04T16:45:02.064Z</time></trkpt><trkpt lat="45.7100975" lon="12.0799527"><ele>56.66666666666667</ele><time>2026-04-04T16:45:03.064Z</time></trkpt><trkpt lat="45.7100554" lon="12.0796863"><ele>56.333333333333336</ele><time>2026-04-04T16:45:04.063Z</time></trkpt><trkpt lat="45.7100127" lon="12.0794183"><ele>56.0</ele><time>2026-04-04T16:45:05.064Z</time></trkpt><trkpt lat="45.7099656" lon="12.0791467"><ele>56.0</ele><time>2026-04-04T16:45:06.063Z</time></trkpt><trkpt lat="45.7099119" lon="12.0788564"><ele>56.0</ele><time>2026-04-04T16:45:07.063Z</time></trkpt><trkpt lat="45.709858" lon="12.0785421"><ele>56.0</ele><time>2026-04-04T16:45:08.063Z</time></trkpt><trkpt lat="45.7098087" lon="12.0782153"><ele>57.0</ele><time>2026-04-04T16:45:09.063Z</time></trkpt><trkpt lat="45.7097661" lon="12.0778908"><ele>58.0</ele><time>2026-04-04T16:45:10.064Z</time></trkpt><trkpt lat="45.709724" lon="12.077571"><ele>58.0</ele><time>2026-04-04T16:45:11.064Z</time></trkpt><trkpt lat="45.709678" lon="12.0772557"><ele>58.0</ele><time>2026-04-04T16:45:12.063Z</time></trkpt><trkpt lat="45.7096319" lon="12.0769502"><ele>58.0</ele><time>2026-04-04T16:45:13.064Z</time></trkpt><trkpt lat="45.7095875" lon="12.0766488"><ele>58.0</ele><time>2026-04-04T16:45:14.063Z</time></trkpt><trkpt lat="45.7095453" lon="12.076347"><ele>58.0</ele><time>2026-04-04T16:45:15.063Z</time></trkpt><trkpt lat="45.709508" lon="12.0760546"><ele>58.0</ele><time>2026-04-04T16:45:16.064Z</time></trkpt><trkpt lat="45.7094732" lon="12.0757688"><ele>58.33333333333333</ele><time>2026-04-04T16:45:17.063Z</time></trkpt><trkpt lat="45.7094398" lon="12.0754892"><ele>58.66666666666667</ele><time>2026-04-04T16:45:18.063Z</time></trkpt><trkpt lat="45.7094036" lon="12.0752112"><ele>59.0</ele><time>2026-04-04T16:45:19.064Z</time></trkpt><trkpt lat="45.7093667" lon="12.0749274"><ele>58.333333333333336</ele><time>2026-04-04T16:45:20.063Z</time></trkpt><trkpt lat="45.7093267" lon="12.0746418"><ele>57.66666666666667</ele><time>2026-04-04T16:45:21.063Z</time></trkpt><trkpt lat="45.7092848" lon="12.0743641"><ele>57.0</ele><time>2026-04-04T16:45:22.063Z</time></trkpt><trkpt lat="45.709245" lon="12.0740894"><ele>56.66666666666667</ele><time>2026-04-04T16:45:23.063Z</time></trkpt><trkpt lat="45.7092055" lon="12.0738173"><ele>56.333333333333336</ele><time>2026-04-04T16:45:24.064Z</time></trkpt><trkpt lat="45.7091634" lon="12.0735431"><ele>56.0</ele><time>2026-04-04T16:45:25.064Z</time></trkpt><trkpt lat="45.7091171" lon="12.0732556"><ele>56.0</ele><time>2026-04-04T16:45:26.063Z</time></trkpt><trkpt lat="45.7090635" lon="12.0729506"><ele>56.0</ele><time>2026-04-04T16:45:27.064Z</time></trkpt><trkpt lat="45.709013" lon="12.0726312"><ele>56.0</ele><time>2026-04-04T16:45:28.064Z</time></trkpt><trkpt lat="45.7089725" lon="12.0723024"><ele>56.0</ele><time>2026-04-04T16:45:29.064Z</time></trkpt><trkpt lat="45.7089373" lon="12.071972"><ele>56.0</ele><time>2026-04-04T16:45:30.064Z</time></trkpt><trkpt lat="45.7088987" lon="12.071642"><ele>56.0</ele><time>2026-04-04T16:45:31.064Z</time></trkpt><trkpt lat="45.7088547" lon="12.0713122"><ele>56.0</ele><time>2026-04-04T16:45:32.064Z</time></trkpt><trkpt lat="45.7088103" lon="12.0709846"><ele>55.66666666666667</ele><time>2026-04-04T16:45:33.063Z</time></trkpt><trkpt lat="45.708764" lon="12.0706666"><ele>55.33333333333333</ele><time>2026-04-04T16:45:34.064Z</time></trkpt><trkpt lat="45.7087195" lon="12.0703545"><ele>55.0</ele><time>2026-04-04T16:45:35.064Z</time></trkpt><trkpt lat="45.7086743" lon="12.0700475"><ele>55.0</ele><time>2026-04-04T16:45:36.064Z</time></trkpt><trkpt lat="45.7086316" lon="12.0697407"><ele>55.0</ele><time>2026-04-04T16:45:37.064Z</time></trkpt><trkpt lat="45.7085866" lon="12.0694394"><ele>55.0</ele><time>2026-04-04T16:45:38.063Z</time></trkpt><trkpt lat="45.7085459" lon="12.069141"><ele>54.666666666666664</ele><time>2026-04-04T16:45:39.064Z</time></trkpt><trkpt lat="45.7085039" lon="12.0688436"><ele>54.33333333333333</ele><time>2026-04-04T16:45:40.064Z</time></trkpt><trkpt lat="45.7084635" lon="12.0685454"><ele>54.0</ele><time>2026-04-04T16:45:41.063Z</time></trkpt><trkpt lat="45.7084221" lon="12.0682517"><ele>54.0</ele><time>2026-04-04T16:45:42.064Z</time></trkpt><trkpt lat="45.7083791" lon="12.0679597"><ele>54.0</ele><time>2026-04-04T16:45:43.064Z</time></trkpt><trkpt lat="45.7083364" lon="12.0676682"><ele>54.0</ele><time>2026-04-04T16:45:44.064Z</time></trkpt><trkpt lat="45.7082951" lon="12.0673781"><ele>54.66666666666667</ele><time>2026-04-04T16:45:45.064Z</time></trkpt><trkpt lat="45.7082511" lon="12.0670862"><ele>55.333333333333336</ele><time>2026-04-04T16:45:46.063Z</time></trkpt><trkpt lat="45.7082069" lon="12.0667932"><ele>56.0</ele><time>2026-04-04T16:45:47.063Z</time></trkpt><trkpt lat="45.7081644" lon="12.0664991"><ele>56.333333333333336</ele><time>2026-04-04T16:45:48.064Z</time></trkpt><trkpt lat="45.7081223" lon="12.0662077"><ele>56.66666666666667</ele><time>2026-04-04T16:45:49.064Z</time></trkpt><trkpt lat="45.7080822" lon="12.0659243"><ele>57.0</ele><time>2026-04-04T16:45:50.063Z</time></trkpt><trkpt lat="45.7080434" lon="12.0656495"><ele>57.0</ele><time>2026-04-04T16:45:51.064Z</time></trkpt><trkpt lat="45.7080053" lon="12.0653817"><ele>57.0</ele><time>2026-04-04T16:45:52.064Z</time></trkpt><trkpt lat="45.7079692" lon="12.0651165"><ele>57.0</ele><time>2026-04-04T16:45:53.064Z</time></trkpt><trkpt lat="45.7079332" lon="12.0648534"><ele>57.0</ele><time>2026-04-04T16:45:54.063Z</time></trkpt><trkpt lat="45.7078977" lon="12.0645986"><ele>57.0</ele><time>2026-04-04T16:45:55.064Z</time></trkpt><trkpt lat="45.7078627" lon="12.0643505"><ele>57.0</ele><time>2026-04-04T16:45:56.063Z</time></trkpt><trkpt lat="45.707829" lon="12.064112"><ele>57.0</ele><time>2026-04-04T16:45:57.063Z</time></trkpt><trkpt lat="45.7077958" lon="12.0638876"><ele>57.0</ele><time>2026-04-04T16:45:58.064Z</time></trkpt><trkpt lat="45.7077643" lon="12.0636722"><ele>57.0</ele><time>2026-04-04T16:45:59.064Z</time></trkpt><trkpt lat="45.7077306" lon="12.0634714"><ele>56.75</ele><time>2026-04-04T16:46:00.064Z</time></trkpt><trkpt lat="45.7076961" lon="12.0632851"><ele>56.5</ele><time>2026-04-04T16:46:01.064Z</time></trkpt><trkpt lat="45.707665" lon="12.0631073"><ele>56.25</ele><time>2026-04-04T16:46:02.063Z</time></trkpt><trkpt lat="45.7076526" lon="12.0629368"><ele>56.0</ele><time>2026-04-04T16:46:03.064Z</time></trkpt><trkpt lat="45.7076604" lon="12.0627659"><ele>56.0</ele><time>2026-04-04T16:46:04.064Z</time></trkpt><trkpt lat="45.7076497" lon="12.0625831"><ele>56.0</ele><time>2026-04-04T16:46:05.064Z</time></trkpt><trkpt lat="45.7076022" lon="12.0623981"><ele>56.0</ele><time>2026-04-04T16:46:06.064Z</time></trkpt><trkpt lat="45.7075475" lon="12.062198"><ele>56.0</ele><time>2026-04-04T16:46:07.063Z</time></trkpt><trkpt lat="45.7075103" lon="12.0619747"><ele>56.0</ele><time>2026-04-04T16:46:08.063Z</time></trkpt><trkpt lat="45.7074796" lon="12.0617315"><ele>56.0</ele><time>2026-04-04T16:46:09.064Z</time></trkpt><trkpt lat="45.7074459" lon="12.0614725"><ele>56.0</ele><time>2026-04-04T16:46:10.063Z</time></trkpt><trkpt lat="45.7074082" lon="12.0611977"><ele>56.0</ele><time>2026-04-04T16:46:11.063Z</time></trkpt><trkpt lat="45.7073668" lon="12.060906"><ele>56.0</ele><time>2026-04-04T16:46:12.064Z</time></trkpt><trkpt lat="45.7073237" lon="12.0606033"><ele>56.0</ele><time>2026-04-04T16:46:13.064Z</time></trkpt><trkpt lat="45.7072782" lon="12.0602938"><ele>55.5</ele><time>2026-04-04T16:46:14.064Z</time></trkpt><trkpt lat="45.7072306" lon="12.0599771"><ele>55.0</ele><time>2026-04-04T16:46:15.063Z</time></trkpt><trkpt lat="45.7071855" lon="12.0596545"><ele>55.0</ele><time>2026-04-04T16:46:16.063Z</time></trkpt><trkpt lat="45.7071406" lon="12.0593317"><ele>55.0</ele><time>2026-04-04T16:46:17.064Z</time></trkpt><trkpt lat="45.7070939" lon="12.0590054"><ele>55.0</ele><time>2026-04-04T16:46:18.063Z</time></trkpt><trkpt lat="45.7070461" lon="12.0586778"><ele>55.0</ele><time>2026-04-04T16:46:19.063Z</time></trkpt><trkpt lat="45.7069982" lon="12.0583495"><ele>54.5</ele><time>2026-04-04T16:46:20.063Z</time></trkpt><trkpt lat="45.7069514" lon="12.0580194"><ele>54.0</ele><time>2026-04-04T16:46:21.064Z</time></trkpt><trkpt lat="45.7069051" lon="12.057691"><ele>54.0</ele><time>2026-04-04T16:46:22.064Z</time></trkpt><trkpt lat="45.7068574" lon="12.0573623"><ele>54.0</ele><time>2026-04-04T16:46:23.063Z</time></trkpt><trkpt lat="45.7068109" lon="12.0570317"><ele>54.0</ele><time>2026-04-04T16:46:24.064Z</time></trkpt><trkpt lat="45.706764" lon="12.0567032"><ele>54.0</ele><time>2026-04-04T16:46:25.064Z</time></trkpt><trkpt lat="45.7067168" lon="12.0563765"><ele>54.0</ele><time>2026-04-04T16:46:26.063Z</time></trkpt><trkpt lat="45.7066711" lon="12.0560511"><ele>54.0</ele><time>2026-04-04T16:46:27.063Z</time></trkpt><trkpt lat="45.7066242" lon="12.0557255"><ele>54.0</ele><time>2026-04-04T16:46:28.064Z</time></trkpt><trkpt lat="45.7065786" lon="12.0554004"><ele>54.0</ele><time>2026-04-04T16:46:29.064Z</time></trkpt><trkpt lat="45.7065331" lon="12.0550741"><ele>54.0</ele><time>2026-04-04T16:46:30.063Z</time></trkpt><trkpt lat="45.7064863" lon="12.0547468"><ele>54.0</ele><time>2026-04-04T16:46:31.064Z</time></trkpt><trkpt lat="45.7064398" lon="12.0544219"><ele>54.0</ele><time>2026-04-04T16:46:32.063Z</time></trkpt><trkpt lat="45.7063927" lon="12.0540985"><ele>54.0</ele><time>2026-04-04T16:46:33.064Z</time></trkpt><trkpt lat="45.706346" lon="12.0537756"><ele>54.0</ele><time>2026-04-04T16:46:34.063Z</time></trkpt><trkpt lat="45.7062999" lon="12.0534513"><ele>54.0</ele><time>2026-04-04T16:46:35.064Z</time></trkpt><trkpt lat="45.7062549" lon="12.0531306"><ele>53.66666666666667</ele><time>2026-04-04T16:46:36.063Z</time></trkpt><trkpt lat="45.706209" lon="12.0528157"><ele>53.333333333333336</ele><time>2026-04-04T16:46:37.064Z</time></trkpt><trkpt lat="45.706164" lon="12.0525054"><ele>53.0</ele><time>2026-04-04T16:46:38.064Z</time></trkpt><trkpt lat="45.7061206" lon="12.0521984"><ele>53.0</ele><time>2026-04-04T16:46:39.064Z</time></trkpt><trkpt lat="45.7060754" lon="12.0518904"><ele>53.0</ele><time>2026-04-04T16:46:40.064Z</time></trkpt><trkpt lat="45.7060298" lon="12.0515829"><ele>53.0</ele><time>2026-04-04T16:46:41.063Z</time></trkpt><trkpt lat="45.7059856" lon="12.0512752"><ele>53.0</ele><time>2026-04-04T16:46:42.063Z</time></trkpt><trkpt lat="45.705941" lon="12.0509695"><ele>53.0</ele><time>2026-04-04T16:46:43.063Z</time></trkpt><trkpt lat="45.7058967" lon="12.050665"><ele>53.0</ele><time>2026-04-04T16:46:44.064Z</time></trkpt><trkpt lat="45.7058535" lon="12.0503612"><ele>53.0</ele><time>2026-04-04T16:46:45.064Z</time></trkpt><trkpt lat="45.7058094" lon="12.0500584"><ele>53.0</ele><time>2026-04-04T16:46:46.064Z</time></trkpt><trkpt lat="45.7057657" lon="12.0497535"><ele>53.0</ele><time>2026-04-04T16:46:47.064Z</time></trkpt><trkpt lat="45.7057227" lon="12.0494463"><ele>53.333333333333336</ele><time>2026-04-04T16:46:48.063Z</time></trkpt><trkpt lat="45.7056795" lon="12.0491403"><ele>53.66666666666667</ele><time>2026-04-04T16:46:49.063Z</time></trkpt><trkpt lat="45.705635" lon="12.0488336"><ele>54.0</ele><time>2026-04-04T16:46:50.064Z</time></trkpt><trkpt lat="45.7055928" lon="12.0485255"><ele>54.33333333333333</ele><time>2026-04-04T16:46:51.064Z</time></trkpt><trkpt lat="45.7055467" lon="12.0482168"><ele>54.666666666666664</ele><time>2026-04-04T16:46:52.064Z</time></trkpt><trkpt lat="45.7055025" lon="12.0479068"><ele>55.0</ele><time>2026-04-04T16:46:53.064Z</time></trkpt><trkpt lat="45.7054581" lon="12.0475968"><ele>55.0</ele><time>2026-04-04T16:46:54.063Z</time></trkpt><trkpt lat="45.7054138" lon="12.0472847"><ele>55.0</ele><time>2026-04-04T16:46:55.063Z</time></trkpt><trkpt lat="45.7053702" lon="12.0469734"><ele>55.0</ele><time>2026-04-04T16:46:56.063Z</time></trkpt><trkpt lat="45.7053281" lon="12.0466613"><ele>54.666666666666664</ele><time>2026-04-04T16:46:57.064Z</time></trkpt><trkpt lat="45.7052841" lon="12.0463497"><ele>54.33333333333333</ele><time>2026-04-04T16:46:58.063Z</time></trkpt><trkpt lat="45.7052385" lon="12.0460393"><ele>54.0</ele><time>2026-04-04T16:46:59.064Z</time></trkpt><trkpt lat="45.7051933" lon="12.0457309"><ele>54.0</ele><time>2026-04-04T16:47:00.063Z</time></trkpt><trkpt lat="45.7051475" lon="12.0454247"><ele>54.0</ele><time>2026-04-04T16:47:01.063Z</time></trkpt><trkpt lat="45.7051033" lon="12.045119"><ele>54.0</ele><time>2026-04-04T16:47:02.064Z</time></trkpt><trkpt lat="45.705059" lon="12.0448147"><ele>54.0</ele><time>2026-04-04T16:47:03.063Z</time></trkpt><trkpt lat="45.7050144" lon="12.0445076"><ele>54.0</ele><time>2026-04-04T16:47:04.064Z</time></trkpt><trkpt lat="45.7049702" lon="12.0442034"><ele>54.0</ele><time>2026-04-04T16:47:05.063Z</time></trkpt><trkpt lat="45.7049239" lon="12.0438982"><ele>53.33333333333333</ele><time>2026-04-04T16:47:06.063Z</time></trkpt><trkpt lat="45.7048795" lon="12.0435898"><ele>52.666666666666664</ele><time>2026-04-04T16:47:07.063Z</time></trkpt><trkpt lat="45.7048359" lon="12.04328"><ele>52.0</ele><time>2026-04-04T16:47:08.063Z</time></trkpt><trkpt lat="45.7047938" lon="12.0429674"><ele>51.666666666666664</ele><time>2026-04-04T16:47:09.063Z</time></trkpt><trkpt lat="45.7047486" lon="12.0426524"><ele>51.33333333333333</ele><time>2026-04-04T16:47:10.063Z</time></trkpt><trkpt lat="45.7047036" lon="12.0423374"><ele>51.0</ele><time>2026-04-04T16:47:11.063Z</time></trkpt><trkpt lat="45.7046579" lon="12.0420201"><ele>52.0</ele><time>2026-04-04T16:47:12.063Z</time></trkpt><trkpt lat="45.7046131" lon="12.0417034"><ele>53.0</ele><time>2026-04-04T16:47:13.064Z</time></trkpt><trkpt lat="45.7045666" lon="12.0413851"><ele>53.0</ele><time>2026-04-04T16:47:14.063Z</time></trkpt><trkpt lat="45.7045209" lon="12.0410663"><ele>53.0</ele><time>2026-04-04T16:47:15.063Z</time></trkpt><trkpt lat="45.7044752" lon="12.0407471"><ele>53.5</ele><time>2026-04-04T16:47:16.063Z</time></trkpt><trkpt lat="45.7044287" lon="12.0404292"><ele>54.0</ele><time>2026-04-04T16:47:17.064Z</time></trkpt><trkpt lat="45.7043821" lon="12.0401128"><ele>53.5</ele><time>2026-04-04T16:47:18.064Z</time></trkpt><trkpt lat="45.7043366" lon="12.0397952"><ele>53.0</ele><time>2026-04-04T16:47:19.064Z</time></trkpt><trkpt lat="45.7042921" lon="12.0394778"><ele>53.0</ele><time>2026-04-04T16:47:20.063Z</time></trkpt><trkpt lat="45.7042486" lon="12.0391648"><ele>53.0</ele><time>2026-04-04T16:47:21.063Z</time></trkpt><trkpt lat="45.7042041" lon="12.0388577"><ele>53.0</ele><time>2026-04-04T16:47:22.063Z</time></trkpt><trkpt lat="45.7041614" lon="12.0385544"><ele>53.0</ele><time>2026-04-04T16:47:23.064Z</time></trkpt><trkpt lat="45.7041194" lon="12.038253"><ele>53.0</ele><time>2026-04-04T16:47:24.064Z</time></trkpt><trkpt lat="45.7040759" lon="12.0379543"><ele>53.0</ele><time>2026-04-04T16:47:25.064Z</time></trkpt><trkpt lat="45.7040304" lon="12.0376554"><ele>52.333333333333336</ele><time>2026-04-04T16:47:26.063Z</time></trkpt><trkpt lat="45.7039868" lon="12.0373559"><ele>51.66666666666667</ele><time>2026-04-04T16:47:27.064Z</time></trkpt><trkpt lat="45.7039436" lon="12.0370528"><ele>51.0</ele><time>2026-04-04T16:47:28.063Z</time></trkpt><trkpt lat="45.7038996" lon="12.0367493"><ele>50.66666666666667</ele><time>2026-04-04T16:47:29.063Z</time></trkpt><trkpt lat="45.7038568" lon="12.0364446"><ele>50.333333333333336</ele><time>2026-04-04T16:47:30.063Z</time></trkpt><trkpt lat="45.7038146" lon="12.0361359"><ele>50.0</ele><time>2026-04-04T16:47:31.064Z</time></trkpt><trkpt lat="45.7037709" lon="12.0358257"><ele>47.66666666666667</ele><time>2026-04-04T16:47:32.063Z</time></trkpt><trkpt lat="45.7037259" lon="12.0355144"><ele>45.333333333333336</ele><time>2026-04-04T16:47:33.063Z</time></trkpt><trkpt lat="45.7036803" lon="12.0352019"><ele>43.0</ele><time>2026-04-04T16:47:34.064Z</time></trkpt><trkpt lat="45.7036337" lon="12.0348847"><ele>40.0</ele><time>2026-04-04T16:47:35.063Z</time></trkpt><trkpt lat="45.7035863" lon="12.0345644"><ele>37.0</ele><time>2026-04-04T16:47:36.064Z</time></trkpt><trkpt lat="45.7035385" lon="12.0342425"><ele>45.0</ele><time>2026-04-04T16:47:37.063Z</time></trkpt><trkpt lat="45.7034937" lon="12.0339191"><ele>53.0</ele><time>2026-04-04T16:47:38.064Z</time></trkpt><trkpt lat="45.7034497" lon="12.0335944"><ele>51.0</ele><time>2026-04-04T16:47:39.063Z</time></trkpt><trkpt lat="45.7034045" lon="12.0332687"><ele>49.0</ele><time>2026-04-04T16:47:40.063Z</time></trkpt><trkpt lat="45.7033573" lon="12.0329453"><ele>49.0</ele><time>2026-04-04T16:47:41.064Z</time></trkpt><trkpt lat="45.7033083" lon="12.0326197"><ele>49.0</ele><time>2026-04-04T16:47:42.063Z</time></trkpt><trkpt lat="45.7032592" lon="12.0322949"><ele>49.5</ele><time>2026-04-04T16:47:43.063Z</time></trkpt><trkpt lat="45.7032113" lon="12.0319699"><ele>50.0</ele><time>2026-04-04T16:47:44.064Z</time></trkpt><trkpt lat="45.7031653" lon="12.0316441"><ele>50.5</ele><time>2026-04-04T16:47:45.063Z</time></trkpt><trkpt lat="45.7031191" lon="12.0313194"><ele>51.0</ele><time>2026-04-04T16:47:46.063Z</time></trkpt><trkpt lat="45.7030727" lon="12.0309936"><ele>51.0</ele><time>2026-04-04T16:47:47.064Z</time></trkpt><trkpt lat="45.7030267" lon="12.0306704"><ele>51.0</ele><time>2026-04-04T16:47:48.063Z</time></trkpt><trkpt lat="45.7029815" lon="12.0303532"><ele>51.0</ele><time>2026-04-04T16:47:49.063Z</time></trkpt><trkpt lat="45.7029392" lon="12.030046"><ele>51.0</ele><time>2026-04-04T16:47:50.064Z</time></trkpt><trkpt lat="45.7028968" lon="12.0297457"><ele>51.0</ele><time>2026-04-04T16:47:51.064Z</time></trkpt><trkpt lat="45.7028534" lon="12.0294478"><ele>50.66666666666667</ele><time>2026-04-04T16:47:52.063Z</time></trkpt><trkpt lat="45.7028086" lon="12.029147"><ele>50.333333333333336</ele><time>2026-04-04T16:47:53.064Z</time></trkpt><trkpt lat="45.7027661" lon="12.0288452"><ele>50.0</ele><time>2026-04-04T16:47:54.064Z</time></trkpt><trkpt lat="45.7027239" lon="12.0285401"><ele>50.333333333333336</ele><time>2026-04-04T16:47:55.064Z</time></trkpt><trkpt lat="45.7026793" lon="12.0282334"><ele>50.66666666666667</ele><time>2026-04-04T16:47:56.064Z</time></trkpt><trkpt lat="45.7026349" lon="12.0279211"><ele>51.0</ele><time>2026-04-04T16:47:57.064Z</time></trkpt><trkpt lat="45.7025905" lon="12.0276044"><ele>50.5</ele><time>2026-04-04T16:47:58.063Z</time></trkpt><trkpt lat="45.7025444" lon="12.0272858"><ele>50.0</ele><time>2026-04-04T16:47:59.064Z</time></trkpt><trkpt lat="45.7024983" lon="12.0269703"><ele>50.0</ele><time>2026-04-04T16:48:00.064Z</time></trkpt><trkpt lat="45.7024572" lon="12.0266699"><ele>50.0</ele><time>2026-04-04T16:48:01.063Z</time></trkpt><trkpt lat="45.7024187" lon="12.0263864"><ele>50.0</ele><time>2026-04-04T16:48:02.063Z</time></trkpt><trkpt lat="45.7023807" lon="12.0261051"><ele>50.66666666666667</ele><time>2026-04-04T16:48:03.064Z</time></trkpt><trkpt lat="45.7023404" lon="12.0258268"><ele>51.33333333333333</ele><time>2026-04-04T16:48:04.064Z</time></trkpt><trkpt lat="45.7022999" lon="12.0255493"><ele>52.0</ele><time>2026-04-04T16:48:05.064Z</time></trkpt><trkpt lat="45.7022602" lon="12.0252722"><ele>52.0</ele><time>2026-04-04T16:48:06.063Z</time></trkpt><trkpt lat="45.7022195" lon="12.0249942"><ele>52.0</ele><time>2026-04-04T16:48:07.063Z</time></trkpt><trkpt lat="45.7021785" lon="12.0247181"><ele>52.0</ele><time>2026-04-04T16:48:08.064Z</time></trkpt><trkpt lat="45.7021391" lon="12.0244399"><ele>52.0</ele><time>2026-04-04T16:48:09.064Z</time></trkpt><trkpt lat="45.7020998" lon="12.0241622"><ele>52.0</ele><time>2026-04-04T16:48:10.063Z</time></trkpt><trkpt lat="45.7020596" lon="12.0238852"><ele>52.0</ele><time>2026-04-04T16:48:11.063Z</time></trkpt><trkpt lat="45.7020203" lon="12.0236074"><ele>52.0</ele><time>2026-04-04T16:48:12.063Z</time></trkpt><trkpt lat="45.7019819" lon="12.0233333"><ele>52.0</ele><time>2026-04-04T16:48:13.063Z</time></trkpt><trkpt lat="45.7019425" lon="12.0230619"><ele>52.0</ele><time>2026-04-04T16:48:14.063Z</time></trkpt><trkpt lat="45.7019015" lon="12.0227884"><ele>52.0</ele><time>2026-04-04T16:48:15.063Z</time></trkpt><trkpt lat="45.7018624" lon="12.0225133"><ele>52.0</ele><time>2026-04-04T16:48:16.063Z</time></trkpt><trkpt lat="45.7018219" lon="12.0222347"><ele>52.0</ele><time>2026-04-04T16:48:17.064Z</time></trkpt><trkpt lat="45.7017806" lon="12.0219557"><ele>52.33333333333333</ele><time>2026-04-04T16:48:18.063Z</time></trkpt><trkpt lat="45.7017395" lon="12.0216754"><ele>52.66666666666667</ele><time>2026-04-04T16:48:19.063Z</time></trkpt><trkpt lat="45.7016999" lon="12.0213953"><ele>53.0</ele><time>2026-04-04T16:48:20.064Z</time></trkpt><trkpt lat="45.7016616" lon="12.0211205"><ele>53.0</ele><time>2026-04-04T16:48:21.063Z</time></trkpt><trkpt lat="45.7016237" lon="12.0208436"><ele>53.0</ele><time>2026-04-04T16:48:22.063Z</time></trkpt><trkpt lat="45.7015839" lon="12.0205666"><ele>53.0</ele><time>2026-04-04T16:48:23.064Z</time></trkpt><trkpt lat="45.7015441" lon="12.0202922"><ele>53.0</ele><time>2026-04-04T16:48:24.063Z</time></trkpt><trkpt lat="45.7015047" lon="12.0200257"><ele>53.0</ele><time>2026-04-04T16:48:25.064Z</time></trkpt><trkpt lat="45.7014677" lon="12.01977"><ele>53.0</ele><time>2026-04-04T16:48:26.064Z</time></trkpt><trkpt lat="45.701432" lon="12.0195249"><ele>52.66666666666667</ele><time>2026-04-04T16:48:27.064Z</time></trkpt><trkpt lat="45.701396" lon="12.0192835"><ele>52.33333333333333</ele><time>2026-04-04T16:48:28.063Z</time></trkpt><trkpt lat="45.7013626" lon="12.0190485"><ele>52.0</ele><time>2026-04-04T16:48:29.063Z</time></trkpt><trkpt lat="45.701329" lon="12.018816"><ele>52.0</ele><time>2026-04-04T16:48:30.063Z</time></trkpt><trkpt lat="45.701296" lon="12.0185849"><ele>52.0</ele><time>2026-04-04T16:48:31.064Z</time></trkpt><trkpt lat="45.7012622" lon="12.0183457"><ele>52.0</ele><time>2026-04-04T16:48:32.064Z</time></trkpt><trkpt lat="45.7012247" lon="12.0181042"><ele>52.0</ele><time>2026-04-04T16:48:33.063Z</time></trkpt><trkpt lat="45.7011873" lon="12.0178585"><ele>52.0</ele><time>2026-04-04T16:48:34.064Z</time></trkpt><trkpt lat="45.701149" lon="12.0176059"><ele>52.0</ele><time>2026-04-04T16:48:35.064Z</time></trkpt><trkpt lat="45.7011121" lon="12.017354"><ele>51.666666666666664</ele><time>2026-04-04T16:48:36.064Z</time></trkpt><trkpt lat="45.7010776" lon="12.0171069"><ele>51.33333333333333</ele><time>2026-04-04T16:48:37.063Z</time></trkpt><trkpt lat="45.7010469" lon="12.0168648"><ele>51.0</ele><time>2026-04-04T16:48:38.064Z</time></trkpt><trkpt lat="45.701014" lon="12.0166226"><ele>50.66666666666667</ele><time>2026-04-04T16:48:39.064Z</time></trkpt><trkpt lat="45.7009805" lon="12.0163829"><ele>50.333333333333336</ele><time>2026-04-04T16:48:40.063Z</time></trkpt><trkpt lat="45.7009478" lon="12.0161432"><ele>50.0</ele><time>2026-04-04T16:48:41.063Z</time></trkpt><trkpt lat="45.7009148" lon="12.0159048"><ele>49.66666666666667</ele><time>2026-04-04T16:48:42.063Z</time></trkpt><trkpt lat="45.7008805" lon="12.0156634"><ele>49.33333333333333</ele><time>2026-04-04T16:48:43.063Z</time></trkpt><trkpt lat="45.700844" lon="12.0154201"><ele>49.0</ele><time>2026-04-04T16:48:44.063Z</time></trkpt><trkpt lat="45.7008065" lon="12.0151735"><ele>49.0</ele><time>2026-04-04T16:48:45.064Z</time></trkpt><trkpt lat="45.7007704" lon="12.014924"><ele>49.0</ele><time>2026-04-04T16:48:46.064Z</time></trkpt><trkpt lat="45.7007342" lon="12.0146749"><ele>49.0</ele><time>2026-04-04T16:48:47.064Z</time></trkpt><trkpt lat="45.7006985" lon="12.0144242"><ele>49.0</ele><time>2026-04-04T16:48:48.064Z</time></trkpt><trkpt lat="45.7006619" lon="12.014175"><ele>49.0</ele><time>2026-04-04T16:48:49.063Z</time></trkpt><trkpt lat="45.7006262" lon="12.0139235"><ele>49.0</ele><time>2026-04-04T16:48:50.063Z</time></trkpt><trkpt lat="45.7005892" lon="12.0136677"><ele>49.33333333333333</ele><time>2026-04-04T16:48:51.063Z</time></trkpt><trkpt lat="45.7005504" lon="12.0134055"><ele>49.66666666666667</ele><time>2026-04-04T16:48:52.064Z</time></trkpt><trkpt lat="45.7005117" lon="12.0131415"><ele>50.0</ele><time>2026-04-04T16:48:53.064Z</time></trkpt><trkpt lat="45.7004734" lon="12.0128744"><ele>50.0</ele><time>2026-04-04T16:48:54.064Z</time></trkpt><trkpt lat="45.7004357" lon="12.0126105"><ele>50.0</ele><time>2026-04-04T16:48:55.063Z</time></trkpt><trkpt lat="45.7003948" lon="12.0123461"><ele>50.0</ele><time>2026-04-04T16:48:56.063Z</time></trkpt><trkpt lat="45.7003555" lon="12.0120818"><ele>50.0</ele><time>2026-04-04T16:48:57.063Z</time></trkpt><trkpt lat="45.700316" lon="12.0118175"><ele>50.0</ele><time>2026-04-04T16:48:58.063Z</time></trkpt><trkpt lat="45.7002768" lon="12.0115517"><ele>50.0</ele><time>2026-04-04T16:48:59.063Z</time></trkpt><trkpt lat="45.7002388" lon="12.0112877"><ele>50.0</ele><time>2026-04-04T16:49:00.064Z</time></trkpt><trkpt lat="45.7001998" lon="12.0110229"><ele>50.0</ele><time>2026-04-04T16:49:01.063Z</time></trkpt><trkpt lat="45.7001602" lon="12.0107566"><ele>50.0</ele><time>2026-04-04T16:49:02.064Z</time></trkpt><trkpt lat="45.7001204" lon="12.0104874"><ele>50.0</ele><time>2026-04-04T16:49:03.063Z</time></trkpt><trkpt lat="45.7000809" lon="12.0102165"><ele>50.0</ele><time>2026-04-04T16:49:04.064Z</time></trkpt><trkpt lat="45.7000414" lon="12.0099473"><ele>50.0</ele><time>2026-04-04T16:49:05.064Z</time></trkpt><trkpt lat="45.700003" lon="12.0096778"><ele>50.333333333333336</ele><time>2026-04-04T16:49:06.063Z</time></trkpt><trkpt lat="45.699964" lon="12.0094071"><ele>50.66666666666667</ele><time>2026-04-04T16:49:07.064Z</time></trkpt><trkpt lat="45.6999241" lon="12.0091398"><ele>51.0</ele><time>2026-04-04T16:49:08.064Z</time></trkpt><trkpt lat="45.6998856" lon="12.0088728"><ele>51.0</ele><time>2026-04-04T16:49:09.063Z</time></trkpt><trkpt lat="45.6998497" lon="12.0086079"><ele>51.0</ele><time>2026-04-04T16:49:10.064Z</time></trkpt><trkpt lat="45.6998095" lon="12.0083433"><ele>51.0</ele><time>2026-04-04T16:49:11.063Z</time></trkpt><trkpt lat="45.6997701" lon="12.0080798"><ele>51.0</ele><time>2026-04-04T16:49:12.063Z</time></trkpt><trkpt lat="45.699734" lon="12.007821"><ele>51.0</ele><time>2026-04-04T16:49:13.064Z</time></trkpt><trkpt lat="45.6996969" lon="12.0075618"><ele>51.0</ele><time>2026-04-04T16:49:14.063Z</time></trkpt><trkpt lat="45.69966" lon="12.0073048"><ele>51.0</ele><time>2026-04-04T16:49:15.064Z</time></trkpt><trkpt lat="45.6996219" lon="12.0070524"><ele>51.0</ele><time>2026-04-04T16:49:16.063Z</time></trkpt><trkpt lat="45.699586" lon="12.0068015"><ele>51.0</ele><time>2026-04-04T16:49:17.063Z</time></trkpt><trkpt lat="45.6995499" lon="12.0065499"><ele>51.0</ele><time>2026-04-04T16:49:18.064Z</time></trkpt><trkpt lat="45.6995122" lon="12.0062966"><ele>51.0</ele><time>2026-04-04T16:49:19.063Z</time></trkpt><trkpt lat="45.6994733" lon="12.0060438"><ele>51.0</ele><time>2026-04-04T16:49:20.064Z</time></trkpt><trkpt lat="45.6994375" lon="12.0057897"><ele>50.66666666666667</ele><time>2026-04-04T16:49:21.063Z</time></trkpt><trkpt lat="45.6994007" lon="12.0055343"><ele>50.333333333333336</ele><time>2026-04-04T16:49:22.064Z</time></trkpt><trkpt lat="45.6993654" lon="12.0052756"><ele>50.0</ele><time>2026-04-04T16:49:23.064Z</time></trkpt><trkpt lat="45.6993293" lon="12.0050156"><ele>49.66666666666667</ele><time>2026-04-04T16:49:24.064Z</time></trkpt><trkpt lat="45.6992919" lon="12.0047545"><ele>49.33333333333333</ele><time>2026-04-04T16:49:25.063Z</time></trkpt><trkpt lat="45.6992511" lon="12.004489"><ele>49.0</ele><time>2026-04-04T16:49:26.063Z</time></trkpt><trkpt lat="45.6992112" lon="12.004221"><ele>48.666666666666664</ele><time>2026-04-04T16:49:27.064Z</time></trkpt><trkpt lat="45.6991721" lon="12.0039525"><ele>48.33333333333333</ele><time>2026-04-04T16:49:28.063Z</time></trkpt><trkpt lat="45.6991326" lon="12.0036831"><ele>48.0</ele><time>2026-04-04T16:49:29.064Z</time></trkpt><trkpt lat="45.6990924" lon="12.0034152"><ele>48.33333333333333</ele><time>2026-04-04T16:49:30.063Z</time></trkpt><trkpt lat="45.6990539" lon="12.0031491"><ele>48.666666666666664</ele><time>2026-04-04T16:49:31.064Z</time></trkpt><trkpt lat="45.699016" lon="12.0028847"><ele>49.0</ele><time>2026-04-04T16:49:32.064Z</time></trkpt><trkpt lat="45.6989784" lon="12.0026212"><ele>49.33333333333333</ele><time>2026-04-04T16:49:33.064Z</time></trkpt><trkpt lat="45.6989409" lon="12.0023599"><ele>49.66666666666667</ele><time>2026-04-04T16:49:34.063Z</time></trkpt><trkpt lat="45.6989008" lon="12.0020975"><ele>50.0</ele><time>2026-04-04T16:49:35.063Z</time></trkpt><trkpt lat="45.6988619" lon="12.0018336"><ele>49.66666666666667</ele><time>2026-04-04T16:49:36.063Z</time></trkpt><trkpt lat="45.6988241" lon="12.0015718"><ele>49.33333333333333</ele><time>2026-04-04T16:49:37.064Z</time></trkpt><trkpt lat="45.698788" lon="12.0013079"><ele>49.0</ele><time>2026-04-04T16:49:38.063Z</time></trkpt><trkpt lat="45.6987495" lon="12.0010323"><ele>49.0</ele><time>2026-04-04T16:49:39.064Z</time></trkpt><trkpt lat="45.6987071" lon="12.0007484"><ele>49.0</ele><time>2026-04-04T16:49:40.063Z</time></trkpt><trkpt lat="45.6986649" lon="12.0004555"><ele>49.0</ele><time>2026-04-04T16:49:41.064Z</time></trkpt><trkpt lat="45.6986227" lon="12.0001597"><ele>49.666666666666664</ele><time>2026-04-04T16:49:42.063Z</time></trkpt><trkpt lat="45.6985793" lon="11.9998654"><ele>50.33333333333333</ele><time>2026-04-04T16:49:43.063Z</time></trkpt><trkpt lat="45.698535" lon="11.9995716"><ele>51.0</ele><time>2026-04-04T16:49:44.063Z</time></trkpt><trkpt lat="45.6984915" lon="11.9992787"><ele>50.66666666666667</ele><time>2026-04-04T16:49:45.064Z</time></trkpt><trkpt lat="45.6984491" lon="11.9989896"><ele>50.333333333333336</ele><time>2026-04-04T16:49:46.064Z</time></trkpt><trkpt lat="45.6984067" lon="11.9986993"><ele>50.0</ele><time>2026-04-04T16:49:47.064Z</time></trkpt><trkpt lat="45.6983645" lon="11.9984125"><ele>49.66666666666667</ele><time>2026-04-04T16:49:48.064Z</time></trkpt><trkpt lat="45.6983223" lon="11.9981271"><ele>49.33333333333333</ele><time>2026-04-04T16:49:49.064Z</time></trkpt><trkpt lat="45.6982801" lon="11.9978414"><ele>49.0</ele><time>2026-04-04T16:49:50.064Z</time></trkpt><trkpt lat="45.6982369" lon="11.997554"><ele>48.666666666666664</ele><time>2026-04-04T16:49:51.064Z</time></trkpt><trkpt lat="45.698201" lon="11.9972677"><ele>48.33333333333333</ele><time>2026-04-04T16:49:52.064Z</time></trkpt><trkpt lat="45.6981649" lon="11.9969817"><ele>48.0</ele><time>2026-04-04T16:49:53.064Z</time></trkpt><trkpt lat="45.6981333" lon="11.9967006"><ele>48.33333333333333</ele><time>2026-04-04T16:49:54.064Z</time></trkpt><trkpt lat="45.6980991" lon="11.9964188"><ele>48.666666666666664</ele><time>2026-04-04T16:49:55.063Z</time></trkpt><trkpt lat="45.6980607" lon="11.9961392"><ele>49.0</ele><time>2026-04-04T16:49:56.063Z</time></trkpt><trkpt lat="45.6980215" lon="11.9958581"><ele>48.666666666666664</ele><time>2026-04-04T16:49:57.064Z</time></trkpt><trkpt lat="45.6979839" lon="11.9955923"><ele>48.33333333333333</ele><time>2026-04-04T16:49:58.064Z</time></trkpt><trkpt lat="45.6979481" lon="11.9953447"><ele>48.0</ele><time>2026-04-04T16:49:59.064Z</time></trkpt><trkpt lat="45.6979147" lon="11.9951057"><ele>47.75</ele><time>2026-04-04T16:50:00.064Z</time></trkpt><trkpt lat="45.6978813" lon="11.9948796"><ele>47.5</ele><time>2026-04-04T16:50:01.064Z</time></trkpt><trkpt lat="45.6978506" lon="11.9946683"><ele>47.25</ele><time>2026-04-04T16:50:02.063Z</time></trkpt><trkpt lat="45.6978258" lon="11.9944784"><ele>47.0</ele><time>2026-04-04T16:50:03.063Z</time></trkpt><trkpt lat="45.6978113" lon="11.9943038"><ele>47.5</ele><time>2026-04-04T16:50:04.063Z</time></trkpt><trkpt lat="45.6978188" lon="11.9941356"><ele>48.0</ele><time>2026-04-04T16:50:05.063Z</time></trkpt><trkpt lat="45.6978369" lon="11.993973"><ele>48.5</ele><time>2026-04-04T16:50:06.064Z</time></trkpt><trkpt lat="45.6978365" lon="11.9938171"><ele>49.0</ele><time>2026-04-04T16:50:07.063Z</time></trkpt><trkpt lat="45.6977955" lon="11.9936635"><ele>49.0</ele><time>2026-04-04T16:50:08.063Z</time></trkpt><trkpt lat="45.697735" lon="11.9935057"><ele>49.0</ele><time>2026-04-04T16:50:09.063Z</time></trkpt><trkpt lat="45.6976745" lon="11.9933279"><ele>49.0</ele><time>2026-04-04T16:50:10.064Z</time></trkpt><trkpt lat="45.6976262" lon="11.9931276"><ele>49.0</ele><time>2026-04-04T16:50:11.063Z</time></trkpt><trkpt lat="45.6975877" lon="11.9929063"><ele>49.0</ele><time>2026-04-04T16:50:12.063Z</time></trkpt><trkpt lat="45.6975533" lon="11.9926664"><ele>49.0</ele><time>2026-04-04T16:50:13.064Z</time></trkpt><trkpt lat="45.697517" lon="11.99242"><ele>49.0</ele><time>2026-04-04T16:50:14.064Z</time></trkpt><trkpt lat="45.6974789" lon="11.9921654"><ele>49.33333333333333</ele><time>2026-04-04T16:50:15.064Z</time></trkpt><trkpt lat="45.6974395" lon="11.991903"><ele>49.66666666666667</ele><time>2026-04-04T16:50:16.063Z</time></trkpt><trkpt lat="45.6973999" lon="11.9916339"><ele>50.0</ele><time>2026-04-04T16:50:17.064Z</time></trkpt><trkpt lat="45.6973607" lon="11.9913592"><ele>49.66666666666667</ele><time>2026-04-04T16:50:18.063Z</time></trkpt><trkpt lat="45.6973204" lon="11.9910807"><ele>49.33333333333333</ele><time>2026-04-04T16:50:19.063Z</time></trkpt><trkpt lat="45.697279" lon="11.9907993"><ele>49.0</ele><time>2026-04-04T16:50:20.064Z</time></trkpt><trkpt lat="45.6972401" lon="11.9905179"><ele>49.0</ele><time>2026-04-04T16:50:21.063Z</time></trkpt><trkpt lat="45.6972002" lon="11.9902358"><ele>49.0</ele><time>2026-04-04T16:50:22.063Z</time></trkpt><trkpt lat="45.6971599" lon="11.9899572"><ele>49.0</ele><time>2026-04-04T16:50:23.064Z</time></trkpt><trkpt lat="45.6971213" lon="11.9896853"><ele>49.33333333333333</ele><time>2026-04-04T16:50:24.064Z</time></trkpt><trkpt lat="45.6970828" lon="11.9894204"><ele>49.66666666666667</ele><time>2026-04-04T16:50:25.064Z</time></trkpt><trkpt lat="45.6970451" lon="11.9891587"><ele>50.0</ele><time>2026-04-04T16:50:26.063Z</time></trkpt><trkpt lat="45.6970043" lon="11.9888974"><ele>50.0</ele><time>2026-04-04T16:50:27.063Z</time></trkpt><trkpt lat="45.6969658" lon="11.9886339"><ele>50.0</ele><time>2026-04-04T16:50:28.063Z</time></trkpt><trkpt lat="45.6969283" lon="11.9883714"><ele>50.0</ele><time>2026-04-04T16:50:29.063Z</time></trkpt><trkpt lat="45.6968915" lon="11.9881102"><ele>49.333333333333336</ele><time>2026-04-04T16:50:30.064Z</time></trkpt><trkpt lat="45.6968547" lon="11.9878458"><ele>48.66666666666667</ele><time>2026-04-04T16:50:31.064Z</time></trkpt><trkpt lat="45.6968166" lon="11.98758"><ele>48.0</ele><time>2026-04-04T16:50:32.064Z</time></trkpt><trkpt lat="45.6967779" lon="11.9873136"><ele>48.0</ele><time>2026-04-04T16:50:33.064Z</time></trkpt><trkpt lat="45.6967388" lon="11.9870418"><ele>48.0</ele><time>2026-04-04T16:50:34.064Z</time></trkpt><trkpt lat="45.6966973" lon="11.9867703"><ele>48.0</ele><time>2026-04-04T16:50:35.063Z</time></trkpt><trkpt lat="45.6966551" lon="11.9864972"><ele>47.666666666666664</ele><time>2026-04-04T16:50:36.064Z</time></trkpt><trkpt lat="45.6966147" lon="11.9862177"><ele>47.33333333333333</ele><time>2026-04-04T16:50:37.064Z</time></trkpt><trkpt lat="45.6965727" lon="11.9859334"><ele>47.0</ele><time>2026-04-04T16:50:38.063Z</time></trkpt><trkpt lat="45.6965298" lon="11.9856494"><ele>48.0</ele><time>2026-04-04T16:50:39.063Z</time></trkpt><trkpt lat="45.6964872" lon="11.9853655"><ele>49.0</ele><time>2026-04-04T16:50:40.064Z</time></trkpt><trkpt lat="45.6964446" lon="11.9850793"><ele>50.0</ele><time>2026-04-04T16:50:41.064Z</time></trkpt><trkpt lat="45.6964045" lon="11.9847969"><ele>50.0</ele><time>2026-04-04T16:50:42.064Z</time></trkpt><trkpt lat="45.6963619" lon="11.9845148"><ele>50.0</ele><time>2026-04-04T16:50:43.064Z</time></trkpt><trkpt lat="45.6963203" lon="11.9842324"><ele>50.0</ele><time>2026-04-04T16:50:44.063Z</time></trkpt><trkpt lat="45.6962812" lon="11.983952"><ele>49.0</ele><time>2026-04-04T16:50:45.064Z</time></trkpt><trkpt lat="45.6962418" lon="11.9836756"><ele>48.0</ele><time>2026-04-04T16:50:46.064Z</time></trkpt><trkpt lat="45.6961998" lon="11.9834062"><ele>47.0</ele><time>2026-04-04T16:50:47.063Z</time></trkpt><trkpt lat="45.6961587" lon="11.9831409"><ele>47.0</ele><time>2026-04-04T16:50:48.064Z</time></trkpt><trkpt lat="45.6961188" lon="11.9828767"><ele>47.0</ele><time>2026-04-04T16:50:49.063Z</time></trkpt><trkpt lat="45.6960786" lon="11.9826154"><ele>47.0</ele><time>2026-04-04T16:50:50.063Z</time></trkpt><trkpt lat="45.6960333" lon="11.9823583"><ele>47.0</ele><time>2026-04-04T16:50:51.063Z</time></trkpt><trkpt lat="45.6959794" lon="11.982105"><ele>47.0</ele><time>2026-04-04T16:50:52.064Z</time></trkpt><trkpt lat="45.6959201" lon="11.9818624"><ele>47.0</ele><time>2026-04-04T16:50:53.064Z</time></trkpt><trkpt lat="45.6958588" lon="11.9816357"><ele>47.33333333333333</ele><time>2026-04-04T16:50:54.064Z</time></trkpt><trkpt lat="45.6957921" lon="11.9814154"><ele>47.666666666666664</ele><time>2026-04-04T16:50:55.064Z</time></trkpt><trkpt lat="45.695724" lon="11.9812043"><ele>48.0</ele><time>2026-04-04T16:50:56.064Z</time></trkpt><trkpt lat="45.6956563" lon="11.980996"><ele>47.666666666666664</ele><time>2026-04-04T16:50:57.064Z</time></trkpt><trkpt lat="45.6955855" lon="11.9807879"><ele>47.33333333333333</ele><time>2026-04-04T16:50:58.064Z</time></trkpt><trkpt lat="45.695511" lon="11.9805916"><ele>47.0</ele><time>2026-04-04T16:50:59.063Z</time></trkpt><trkpt lat="45.6954362" lon="11.9804163"><ele>47.0</ele><time>2026-04-04T16:51:00.064Z</time></trkpt><trkpt lat="45.6953718" lon="11.9802712"><ele>47.0</ele><time>2026-04-04T16:51:01.063Z</time></trkpt><trkpt lat="45.6953208" lon="11.9801424"><ele>47.0</ele><time>2026-04-04T16:51:02.063Z</time></trkpt><trkpt lat="45.6952931" lon="11.9800183"><ele>47.0</ele><time>2026-04-04T16:51:03.063Z</time></trkpt><trkpt lat="45.6952984" lon="11.9799066"><ele>47.0</ele><time>2026-04-04T16:51:04.063Z</time></trkpt><trkpt lat="45.6953261" lon="11.9798066"><ele>47.14285714285714</ele><time>2026-04-04T16:51:05.064Z</time></trkpt><trkpt lat="45.6953767" lon="11.9797289"><ele>47.285714285714285</ele><time>2026-04-04T16:51:06.064Z</time></trkpt><trkpt lat="45.6954366" lon="11.9796685"><ele>47.42857142857143</ele><time>2026-04-04T16:51:07.064Z</time></trkpt><trkpt lat="45.6954992" lon="11.9796057"><ele>47.57142857142857</ele><time>2026-04-04T16:51:08.063Z</time></trkpt><trkpt lat="45.6955424" lon="11.979516"><ele>47.714285714285715</ele><time>2026-04-04T16:51:09.064Z</time></trkpt><trkpt lat="45.6955642" lon="11.9794161"><ele>47.857142857142854</ele><time>2026-04-04T16:51:10.064Z</time></trkpt><trkpt lat="45.6955718" lon="11.979313"><ele>48.0</ele><time>2026-04-04T16:51:11.064Z</time></trkpt><trkpt lat="45.6955703" lon="11.9792146"><ele>48.0</ele><time>2026-04-04T16:51:12.064Z</time></trkpt><trkpt lat="45.6955492" lon="11.979058"><ele>48.0</ele><time>2026-04-04T16:51:14.064Z</time></trkpt><trkpt lat="45.6955228" lon="11.9788804"><ele>48.0</ele><time>2026-04-04T16:51:16.064Z</time></trkpt><trkpt lat="45.6955107" lon="11.9787907"><ele>48.0</ele><time>2026-04-04T16:51:17.064Z</time></trkpt><trkpt lat="45.6954969" lon="11.9786955"><ele>48.0</ele><time>2026-04-04T16:51:18.064Z</time></trkpt><trkpt lat="45.6954812" lon="11.9785878"><ele>48.0</ele><time>2026-04-04T16:51:19.063Z</time></trkpt><trkpt lat="45.6954654" lon="11.9784743"><ele>47.8</ele><time>2026-04-04T16:51:20.064Z</time></trkpt><trkpt lat="45.6954511" lon="11.9783434"><ele>47.599999999999994</ele><time>2026-04-04T16:51:21.064Z</time></trkpt><trkpt lat="45.6954295" lon="11.9782183"><ele>47.400000000000006</ele><time>2026-04-04T16:51:22.063Z</time></trkpt><trkpt lat="45.6954061" lon="11.9780829"><ele>47.2</ele><time>2026-04-04T16:51:23.064Z</time></trkpt><trkpt lat="45.6953878" lon="11.9779505"><ele>47.0</ele><time>2026-04-04T16:51:24.064Z</time></trkpt><trkpt lat="45.6953699" lon="11.9778107"><ele>47.0</ele><time>2026-04-04T16:51:25.064Z</time></trkpt><trkpt lat="45.6953537" lon="11.9776707"><ele>47.0</ele><time>2026-04-04T16:51:26.063Z</time></trkpt><trkpt lat="45.6953355" lon="11.9775199"><ele>47.0</ele><time>2026-04-04T16:51:27.064Z</time></trkpt><trkpt lat="45.6953152" lon="11.9773644"><ele>47.0</ele><time>2026-04-04T16:51:28.063Z</time></trkpt><trkpt lat="45.6952949" lon="11.9772009"><ele>47.0</ele><time>2026-04-04T16:51:29.063Z</time></trkpt><trkpt lat="45.6952727" lon="11.9770281"><ele>47.0</ele><time>2026-04-04T16:51:30.064Z</time></trkpt><trkpt lat="45.6952475" lon="11.9768521"><ele>47.0</ele><time>2026-04-04T16:51:31.064Z</time></trkpt><trkpt lat="45.6952201" lon="11.9766719"><ele>47.0</ele><time>2026-04-04T16:51:32.063Z</time></trkpt><trkpt lat="45.6951935" lon="11.9764909"><ele>47.0</ele><time>2026-04-04T16:51:33.063Z</time></trkpt><trkpt lat="45.6951677" lon="11.97631"><ele>47.0</ele><time>2026-04-04T16:51:34.063Z</time></trkpt><trkpt lat="45.6951414" lon="11.9761253"><ele>47.0</ele><time>2026-04-04T16:51:35.064Z</time></trkpt><trkpt lat="45.695117" lon="11.9759387"><ele>47.0</ele><time>2026-04-04T16:51:36.063Z</time></trkpt><trkpt lat="45.695091" lon="11.975751"><ele>47.0</ele><time>2026-04-04T16:51:37.064Z</time></trkpt><trkpt lat="45.6950636" lon="11.9755638"><ele>47.0</ele><time>2026-04-04T16:51:38.064Z</time></trkpt><trkpt lat="45.6950368" lon="11.9753773"><ele>47.0</ele><time>2026-04-04T16:51:39.063Z</time></trkpt><trkpt lat="45.6950099" lon="11.9751948"><ele>47.0</ele><time>2026-04-04T16:51:40.064Z</time></trkpt><trkpt lat="45.6949829" lon="11.975022"><ele>47.0</ele><time>2026-04-04T16:51:41.063Z</time></trkpt><trkpt lat="45.6949574" lon="11.9748643"><ele>47.166666666666664</ele><time>2026-04-04T16:51:42.064Z</time></trkpt><trkpt lat="45.6949338" lon="11.9747289"><ele>47.33333333333333</ele><time>2026-04-04T16:51:43.064Z</time></trkpt><trkpt lat="45.6949135" lon="11.9746148"><ele>47.5</ele><time>2026-04-04T16:51:44.063Z</time></trkpt><trkpt lat="45.6949017" lon="11.9745117"><ele>47.666666666666664</ele><time>2026-04-04T16:51:45.064Z</time></trkpt><trkpt lat="45.6949068" lon="11.9744182"><ele>47.833333333333336</ele><time>2026-04-04T16:51:46.064Z</time></trkpt><trkpt lat="45.6949593" lon="11.9742972"><ele>48.0</ele><time>2026-04-04T16:51:48.064Z</time></trkpt><trkpt lat="45.6950197" lon="11.9742361"><ele>48.333333333333336</ele><time>2026-04-04T16:51:52.064Z</time></trkpt><trkpt lat="45.6950076" lon="11.9740914"><ele>48.66666666666667</ele><time>2026-04-04T16:51:55.063Z</time></trkpt><trkpt lat="45.6949838" lon="11.9739935"><ele>49.0</ele><time>2026-04-04T16:51:56.064Z</time></trkpt><trkpt lat="45.694952" lon="11.9738873"><ele>49.333333333333336</ele><time>2026-04-04T16:51:57.063Z</time></trkpt><trkpt lat="45.6949139" lon="11.973775"><ele>49.66666666666667</ele><time>2026-04-04T16:51:58.063Z</time></trkpt><trkpt lat="45.6948768" lon="11.9736674"><ele>50.0</ele><time>2026-04-04T16:51:59.063Z</time></trkpt><trkpt lat="45.6948381" lon="11.9735583"><ele>50.0</ele><time>2026-04-04T16:52:00.063Z</time></trkpt><trkpt lat="45.6947513" lon="11.9733025"><ele>50.0</ele><time>2026-04-04T16:52:02.063Z</time></trkpt><trkpt lat="45.6947138" lon="11.9731458"><ele>50.0</ele><time>2026-04-04T16:52:03.064Z</time></trkpt><trkpt lat="45.6946801" lon="11.9729698"><ele>50.0</ele><time>2026-04-04T16:52:04.064Z</time></trkpt><trkpt lat="45.6946472" lon="11.9727865"><ele>50.0</ele><time>2026-04-04T16:52:05.063Z</time></trkpt><trkpt lat="45.6946148" lon="11.9725981"><ele>50.0</ele><time>2026-04-04T16:52:06.064Z</time></trkpt><trkpt lat="45.6945881" lon="11.9724149"><ele>50.0</ele><time>2026-04-04T16:52:07.063Z</time></trkpt><trkpt lat="45.6945621" lon="11.9722306"><ele>50.0</ele><time>2026-04-04T16:52:08.063Z</time></trkpt><trkpt lat="45.6945371" lon="11.9720565"><ele>49.8</ele><time>2026-04-04T16:52:09.064Z</time></trkpt><trkpt lat="45.6945116" lon="11.9718925"><ele>49.6</ele><time>2026-04-04T16:52:10.064Z</time></trkpt><trkpt lat="45.6944868" lon="11.9717347"><ele>49.400000000000006</ele><time>2026-04-04T16:52:11.064Z</time></trkpt><trkpt lat="45.6944635" lon="11.9715819"><ele>49.2</ele><time>2026-04-04T16:52:12.064Z</time></trkpt><trkpt lat="45.694442" lon="11.9714304"><ele>49.0</ele><time>2026-04-04T16:52:13.064Z</time></trkpt><trkpt lat="45.6944176" lon="11.9712833"><ele>48.800000000000004</ele><time>2026-04-04T16:52:14.063Z</time></trkpt><trkpt lat="45.6943939" lon="11.9711333"><ele>48.6</ele><time>2026-04-04T16:52:15.063Z</time></trkpt><trkpt lat="45.6943693" lon="11.9709767"><ele>48.4</ele><time>2026-04-04T16:52:16.064Z</time></trkpt><trkpt lat="45.6943481" lon="11.9708162"><ele>48.2</ele><time>2026-04-04T16:52:17.063Z</time></trkpt><trkpt lat="45.6943236" lon="11.9706549"><ele>48.0</ele><time>2026-04-04T16:52:18.063Z</time></trkpt><trkpt lat="45.6942994" lon="11.9704926"><ele>48.0</ele><time>2026-04-04T16:52:19.064Z</time></trkpt><trkpt lat="45.6942748" lon="11.9703314"><ele>48.0</ele><time>2026-04-04T16:52:20.063Z</time></trkpt><trkpt lat="45.6942511" lon="11.9701715"><ele>48.0</ele><time>2026-04-04T16:52:21.064Z</time></trkpt><trkpt lat="45.6942236" lon="11.9700055"><ele>48.0</ele><time>2026-04-04T16:52:22.063Z</time></trkpt><trkpt lat="45.6941984" lon="11.9698376"><ele>48.25</ele><time>2026-04-04T16:52:23.064Z</time></trkpt><trkpt lat="45.6941743" lon="11.9696656"><ele>48.5</ele><time>2026-04-04T16:52:24.063Z</time></trkpt><trkpt lat="45.6941515" lon="11.969499"><ele>48.75</ele><time>2026-04-04T16:52:25.063Z</time></trkpt><trkpt lat="45.6941249" lon="11.9693279"><ele>49.0</ele><time>2026-04-04T16:52:26.064Z</time></trkpt><trkpt lat="45.6940995" lon="11.9691519"><ele>49.0</ele><time>2026-04-04T16:52:27.064Z</time></trkpt><trkpt lat="45.6940743" lon="11.9689758"><ele>49.0</ele><time>2026-04-04T16:52:28.064Z</time></trkpt><trkpt lat="45.69405" lon="11.9687943"><ele>49.0</ele><time>2026-04-04T16:52:29.064Z</time></trkpt><trkpt lat="45.694024" lon="11.9686095"><ele>49.0</ele><time>2026-04-04T16:52:30.064Z</time></trkpt><trkpt lat="45.6939966" lon="11.9684204"><ele>48.75</ele><time>2026-04-04T16:52:31.063Z</time></trkpt><trkpt lat="45.693971" lon="11.9682297"><ele>48.5</ele><time>2026-04-04T16:52:32.063Z</time></trkpt><trkpt lat="45.6939456" lon="11.9680375"><ele>48.25</ele><time>2026-04-04T16:52:33.064Z</time></trkpt><trkpt lat="45.6939169" lon="11.9678385"><ele>48.0</ele><time>2026-04-04T16:52:34.063Z</time></trkpt><trkpt lat="45.6938894" lon="11.9676356"><ele>48.0</ele><time>2026-04-04T16:52:35.064Z</time></trkpt><trkpt lat="45.6938605" lon="11.9674253"><ele>48.0</ele><time>2026-04-04T16:52:36.064Z</time></trkpt><trkpt lat="45.6938293" lon="11.9672096"><ele>48.0</ele><time>2026-04-04T16:52:37.063Z</time></trkpt><trkpt lat="45.6938" lon="11.9669922"><ele>48.0</ele><time>2026-04-04T16:52:38.063Z</time></trkpt><trkpt lat="45.6937713" lon="11.9667735"><ele>48.0</ele><time>2026-04-04T16:52:39.064Z</time></trkpt><trkpt lat="45.6937395" lon="11.9665531"><ele>48.0</ele><time>2026-04-04T16:52:40.063Z</time></trkpt><trkpt lat="45.6937052" lon="11.9663311"><ele>47.666666666666664</ele><time>2026-04-04T16:52:41.063Z</time></trkpt><trkpt lat="45.6936712" lon="11.9661069"><ele>47.33333333333333</ele><time>2026-04-04T16:52:42.063Z</time></trkpt><trkpt lat="45.6936384" lon="11.9658823"><ele>47.0</ele><time>2026-04-04T16:52:43.063Z</time></trkpt><trkpt lat="45.6936083" lon="11.9656592"><ele>46.666666666666664</ele><time>2026-04-04T16:52:44.063Z</time></trkpt><trkpt lat="45.6935793" lon="11.9654441"><ele>46.333333333333336</ele><time>2026-04-04T16:52:45.063Z</time></trkpt><trkpt lat="45.6935506" lon="11.9652282"><ele>46.0</ele><time>2026-04-04T16:52:46.064Z</time></trkpt><trkpt lat="45.6935214" lon="11.9650089"><ele>46.0</ele><time>2026-04-04T16:52:47.064Z</time></trkpt><trkpt lat="45.6934918" lon="11.9647933"><ele>46.0</ele><time>2026-04-04T16:52:48.063Z</time></trkpt><trkpt lat="45.6934594" lon="11.96457"><ele>46.0</ele><time>2026-04-04T16:52:49.064Z</time></trkpt><trkpt lat="45.6934265" lon="11.9643427"><ele>46.0</ele><time>2026-04-04T16:52:50.064Z</time></trkpt><trkpt lat="45.6933926" lon="11.9641128"><ele>46.0</ele><time>2026-04-04T16:52:51.064Z</time></trkpt><trkpt lat="45.6933585" lon="11.9638769"><ele>46.0</ele><time>2026-04-04T16:52:52.063Z</time></trkpt><trkpt lat="45.6933262" lon="11.9636419"><ele>46.0</ele><time>2026-04-04T16:52:53.063Z</time></trkpt><trkpt lat="45.6932942" lon="11.9634057"><ele>46.0</ele><time>2026-04-04T16:52:54.064Z</time></trkpt><trkpt lat="45.6932619" lon="11.9631691"><ele>46.0</ele><time>2026-04-04T16:52:55.063Z</time></trkpt><trkpt lat="45.6932285" lon="11.9629289"><ele>46.66666666666667</ele><time>2026-04-04T16:52:56.064Z</time></trkpt><trkpt lat="45.6931936" lon="11.9626896"><ele>47.333333333333336</ele><time>2026-04-04T16:52:57.064Z</time></trkpt><trkpt lat="45.6931583" lon="11.9624485"><ele>48.0</ele><time>2026-04-04T16:52:58.064Z</time></trkpt><trkpt lat="45.693123" lon="11.9622051"><ele>48.0</ele><time>2026-04-04T16:52:59.063Z</time></trkpt><trkpt lat="45.6930875" lon="11.9619605"><ele>48.0</ele><time>2026-04-04T16:53:00.064Z</time></trkpt><trkpt lat="45.6930507" lon="11.9617178"><ele>48.0</ele><time>2026-04-04T16:53:01.064Z</time></trkpt><trkpt lat="45.6930156" lon="11.961476"><ele>48.0</ele><time>2026-04-04T16:53:02.064Z</time></trkpt><trkpt lat="45.6929827" lon="11.961238"><ele>48.0</ele><time>2026-04-04T16:53:03.063Z</time></trkpt><trkpt lat="45.6929499" lon="11.9610027"><ele>48.0</ele><time>2026-04-04T16:53:04.064Z</time></trkpt><trkpt lat="45.6929151" lon="11.9607694"><ele>48.33333333333333</ele><time>2026-04-04T16:53:05.063Z</time></trkpt><trkpt lat="45.6928809" lon="11.9605382"><ele>48.666666666666664</ele><time>2026-04-04T16:53:06.063Z</time></trkpt><trkpt lat="45.6928481" lon="11.9603117"><ele>49.0</ele><time>2026-04-04T16:53:07.064Z</time></trkpt><trkpt lat="45.6928158" lon="11.9600856"><ele>48.666666666666664</ele><time>2026-04-04T16:53:08.064Z</time></trkpt><trkpt lat="45.6927849" lon="11.9598589"><ele>48.33333333333333</ele><time>2026-04-04T16:53:09.063Z</time></trkpt><trkpt lat="45.692752" lon="11.9596325"><ele>48.0</ele><time>2026-04-04T16:53:10.063Z</time></trkpt><trkpt lat="45.6927178" lon="11.9594127"><ele>48.0</ele><time>2026-04-04T16:53:11.063Z</time></trkpt><trkpt lat="45.6926866" lon="11.959206"><ele>48.0</ele><time>2026-04-04T16:53:12.063Z</time></trkpt><trkpt lat="45.692658" lon="11.9590072"><ele>48.0</ele><time>2026-04-04T16:53:13.063Z</time></trkpt><trkpt lat="45.692629" lon="11.9588039"><ele>48.0</ele><time>2026-04-04T16:53:14.064Z</time></trkpt><trkpt lat="45.6926014" lon="11.9585982"><ele>48.0</ele><time>2026-04-04T16:53:15.063Z</time></trkpt><trkpt lat="45.6925715" lon="11.9583949"><ele>48.0</ele><time>2026-04-04T16:53:16.064Z</time></trkpt><trkpt lat="45.6925433" lon="11.9581955"><ele>48.0</ele><time>2026-04-04T16:53:17.064Z</time></trkpt><trkpt lat="45.6925163" lon="11.9580055"><ele>48.0</ele><time>2026-04-04T16:53:18.063Z</time></trkpt><trkpt lat="45.6924931" lon="11.9578298"><ele>47.75</ele><time>2026-04-04T16:53:19.063Z</time></trkpt><trkpt lat="45.6924682" lon="11.9576557"><ele>47.5</ele><time>2026-04-04T16:53:20.064Z</time></trkpt><trkpt lat="45.6924432" lon="11.9574835"><ele>47.25</ele><time>2026-04-04T16:53:21.063Z</time></trkpt><trkpt lat="45.6924181" lon="11.9573054"><ele>47.0</ele><time>2026-04-04T16:53:22.063Z</time></trkpt><trkpt lat="45.6923927" lon="11.9571233"><ele>47.0</ele><time>2026-04-04T16:53:23.064Z</time></trkpt><trkpt lat="45.6923639" lon="11.956941"><ele>47.0</ele><time>2026-04-04T16:53:24.063Z</time></trkpt><trkpt lat="45.6923396" lon="11.9567699"><ele>47.0</ele><time>2026-04-04T16:53:25.063Z</time></trkpt><trkpt lat="45.692317" lon="11.9566058"><ele>47.0</ele><time>2026-04-04T16:53:26.064Z</time></trkpt><trkpt lat="45.692291" lon="11.9564444"><ele>47.0</ele><time>2026-04-04T16:53:27.063Z</time></trkpt><trkpt lat="45.6922537" lon="11.956288"><ele>47.0</ele><time>2026-04-04T16:53:28.064Z</time></trkpt><trkpt lat="45.6922034" lon="11.9561454"><ele>47.0</ele><time>2026-04-04T16:53:29.063Z</time></trkpt><trkpt lat="45.692148" lon="11.9560131"><ele>47.0</ele><time>2026-04-04T16:53:30.064Z</time></trkpt><trkpt lat="45.6920997" lon="11.9558983"><ele>47.0</ele><time>2026-04-04T16:53:31.064Z</time></trkpt><trkpt lat="45.6920564" lon="11.955791"><ele>47.0</ele><time>2026-04-04T16:53:32.064Z</time></trkpt><trkpt lat="45.6920206" lon="11.9556813"><ele>47.0</ele><time>2026-04-04T16:53:33.063Z</time></trkpt><trkpt lat="45.6920002" lon="11.9555514"><ele>47.0</ele><time>2026-04-04T16:53:34.063Z</time></trkpt><trkpt lat="45.6919897" lon="11.9554105"><ele>47.0</ele><time>2026-04-04T16:53:35.063Z</time></trkpt><trkpt lat="45.6919691" lon="11.9552675"><ele>47.0</ele><time>2026-04-04T16:53:36.064Z</time></trkpt><trkpt lat="45.6919439" lon="11.9551239"><ele>47.0</ele><time>2026-04-04T16:53:37.063Z</time></trkpt><trkpt lat="45.6919251" lon="11.9549731"><ele>47.0</ele><time>2026-04-04T16:53:38.063Z</time></trkpt><trkpt lat="45.6919211" lon="11.9548074"><ele>47.0</ele><time>2026-04-04T16:53:39.063Z</time></trkpt><trkpt lat="45.6919299" lon="11.9546322"><ele>47.0</ele><time>2026-04-04T16:53:40.064Z</time></trkpt><trkpt lat="45.6919421" lon="11.9544494"><ele>47.0</ele><time>2026-04-04T16:53:41.064Z</time></trkpt><trkpt lat="45.6919433" lon="11.9542593"><ele>47.0</ele><time>2026-04-04T16:53:42.063Z</time></trkpt><trkpt lat="45.6919283" lon="11.954058"><ele>47.0</ele><time>2026-04-04T16:53:43.064Z</time></trkpt><trkpt lat="45.6919025" lon="11.9538504"><ele>47.0</ele><time>2026-04-04T16:53:44.064Z</time></trkpt><trkpt lat="45.6918714" lon="11.9536412"><ele>46.33333333333333</ele><time>2026-04-04T16:53:45.063Z</time></trkpt><trkpt lat="45.6918398" lon="11.9534307"><ele>45.666666666666664</ele><time>2026-04-04T16:53:46.063Z</time></trkpt><trkpt lat="45.6918094" lon="11.9532175"><ele>45.0</ele><time>2026-04-04T16:53:47.063Z</time></trkpt><trkpt lat="45.6917798" lon="11.9530006"><ele>44.666666666666664</ele><time>2026-04-04T16:53:48.064Z</time></trkpt><trkpt lat="45.6917477" lon="11.9527856"><ele>44.33333333333333</ele><time>2026-04-04T16:53:49.063Z</time></trkpt><trkpt lat="45.6917176" lon="11.9525705"><ele>44.0</ele><time>2026-04-04T16:53:50.063Z</time></trkpt><trkpt lat="45.6916862" lon="11.9523545"><ele>44.0</ele><time>2026-04-04T16:53:51.064Z</time></trkpt><trkpt lat="45.6916532" lon="11.9521346"><ele>44.0</ele><time>2026-04-04T16:53:52.063Z</time></trkpt><trkpt lat="45.6916216" lon="11.9519128"><ele>44.0</ele><time>2026-04-04T16:53:53.064Z</time></trkpt><trkpt lat="45.6915865" lon="11.9516862"><ele>43.666666666666664</ele><time>2026-04-04T16:53:54.064Z</time></trkpt><trkpt lat="45.6915509" lon="11.9514554"><ele>43.333333333333336</ele><time>2026-04-04T16:53:55.063Z</time></trkpt><trkpt lat="45.691517" lon="11.9512228"><ele>43.0</ele><time>2026-04-04T16:53:56.064Z</time></trkpt><trkpt lat="45.6914846" lon="11.950996"><ele>43.0</ele><time>2026-04-04T16:53:57.064Z</time></trkpt><trkpt lat="45.691452" lon="11.95077"><ele>43.0</ele><time>2026-04-04T16:53:58.063Z</time></trkpt><trkpt lat="45.6914208" lon="11.9505504"><ele>43.0</ele><time>2026-04-04T16:53:59.063Z</time></trkpt><trkpt lat="45.6913886" lon="11.9503313"><ele>43.0</ele><time>2026-04-04T16:54:00.063Z</time></trkpt><trkpt lat="45.6913593" lon="11.9501165"><ele>43.0</ele><time>2026-04-04T16:54:01.063Z</time></trkpt><trkpt lat="45.6913291" lon="11.9499066"><ele>43.0</ele><time>2026-04-04T16:54:02.064Z</time></trkpt><trkpt lat="45.6912977" lon="11.9496924"><ele>43.5</ele><time>2026-04-04T16:54:03.063Z</time></trkpt><trkpt lat="45.6912672" lon="11.949483"><ele>44.0</ele><time>2026-04-04T16:54:04.064Z</time></trkpt><trkpt lat="45.6912369" lon="11.9492829"><ele>44.5</ele><time>2026-04-04T16:54:05.063Z</time></trkpt><trkpt lat="45.6912097" lon="11.9490953"><ele>45.0</ele><time>2026-04-04T16:54:06.063Z</time></trkpt><trkpt lat="45.6911862" lon="11.94891"><ele>45.25</ele><time>2026-04-04T16:54:07.063Z</time></trkpt><trkpt lat="45.6911594" lon="11.9487231"><ele>45.5</ele><time>2026-04-04T16:54:08.063Z</time></trkpt><trkpt lat="45.6911313" lon="11.9485362"><ele>45.75</ele><time>2026-04-04T16:54:09.064Z</time></trkpt><trkpt lat="45.6911" lon="11.9483469"><ele>46.0</ele><time>2026-04-04T16:54:10.063Z</time></trkpt><trkpt lat="45.6910712" lon="11.9481576"><ele>46.25</ele><time>2026-04-04T16:54:11.064Z</time></trkpt><trkpt lat="45.6910441" lon="11.9479648"><ele>46.5</ele><time>2026-04-04T16:54:12.064Z</time></trkpt><trkpt lat="45.6910185" lon="11.9477812"><ele>46.75</ele><time>2026-04-04T16:54:13.064Z</time></trkpt><trkpt lat="45.6909958" lon="11.9476052"><ele>47.0</ele><time>2026-04-04T16:54:14.063Z</time></trkpt><trkpt lat="45.6909707" lon="11.9474353"><ele>47.0</ele><time>2026-04-04T16:54:15.064Z</time></trkpt><trkpt lat="45.6909467" lon="11.9472659"><ele>47.0</ele><time>2026-04-04T16:54:16.064Z</time></trkpt><trkpt lat="45.6909223" lon="11.9470972"><ele>47.0</ele><time>2026-04-04T16:54:17.064Z</time></trkpt><trkpt lat="45.6908969" lon="11.9469289"><ele>47.0</ele><time>2026-04-04T16:54:18.063Z</time></trkpt><trkpt lat="45.6908712" lon="11.9467617"><ele>46.8</ele><time>2026-04-04T16:54:19.064Z</time></trkpt><trkpt lat="45.6908463" lon="11.9466006"><ele>46.6</ele><time>2026-04-04T16:54:20.064Z</time></trkpt><trkpt lat="45.6908249" lon="11.9464489"><ele>46.4</ele><time>2026-04-04T16:54:21.063Z</time></trkpt><trkpt lat="45.6908057" lon="11.946312"><ele>46.199999999999996</ele><time>2026-04-04T16:54:22.064Z</time></trkpt><trkpt lat="45.6907878" lon="11.9461877"><ele>46.0</ele><time>2026-04-04T16:54:23.064Z</time></trkpt><trkpt lat="45.6907705" lon="11.946071"><ele>46.0</ele><time>2026-04-04T16:54:24.063Z</time></trkpt><trkpt lat="45.6907565" lon="11.945965"><ele>46.0</ele><time>2026-04-04T16:54:25.063Z</time></trkpt><trkpt lat="45.6907488" lon="11.9458676"><ele>46.0</ele><time>2026-04-04T16:54:26.064Z</time></trkpt><trkpt lat="45.6907541" lon="11.9456967"><ele>46.0</ele><time>2026-04-04T16:54:28.063Z</time></trkpt><trkpt lat="45.6907713" lon="11.9455084"><ele>46.0</ele><time>2026-04-04T16:54:30.063Z</time></trkpt><trkpt lat="45.6907541" lon="11.9453933"><ele>45.599999999999994</ele><time>2026-04-04T16:54:31.064Z</time></trkpt><trkpt lat="45.6907157" lon="11.9452789"><ele>45.2</ele><time>2026-04-04T16:54:32.063Z</time></trkpt><trkpt lat="45.6906694" lon="11.9451527"><ele>44.8</ele><time>2026-04-04T16:54:33.064Z</time></trkpt><trkpt lat="45.6906297" lon="11.9450084"><ele>44.400000000000006</ele><time>2026-04-04T16:54:34.063Z</time></trkpt><trkpt lat="45.6905977" lon="11.9448444"><ele>44.0</ele><time>2026-04-04T16:54:35.063Z</time></trkpt><trkpt lat="45.690568" lon="11.944662"><ele>44.0</ele><time>2026-04-04T16:54:36.064Z</time></trkpt><trkpt lat="45.6905354" lon="11.9444671"><ele>44.0</ele><time>2026-04-04T16:54:37.064Z</time></trkpt><trkpt lat="45.690503" lon="11.9442598"><ele>44.0</ele><time>2026-04-04T16:54:38.064Z</time></trkpt><trkpt lat="45.6904634" lon="11.944037"><ele>44.0</ele><time>2026-04-04T16:54:39.064Z</time></trkpt><trkpt lat="45.6904127" lon="11.943775"><ele>44.0</ele><time>2026-04-04T16:54:40.063Z</time></trkpt><trkpt lat="45.6903703" lon="11.9434725"><ele>44.0</ele><time>2026-04-04T16:54:41.064Z</time></trkpt><trkpt lat="45.6903207" lon="11.9431367"><ele>44.0</ele><time>2026-04-04T16:54:42.063Z</time></trkpt><trkpt lat="45.6902617" lon="11.9427745"><ele>44.0</ele><time>2026-04-04T16:54:43.063Z</time></trkpt><trkpt lat="45.6902109" lon="11.9423907"><ele>44.0</ele><time>2026-04-04T16:54:44.064Z</time></trkpt><trkpt lat="45.6901701" lon="11.9420012"><ele>44.0</ele><time>2026-04-04T16:54:45.064Z</time></trkpt><trkpt lat="45.6901171" lon="11.9416269"><ele>45.0</ele><time>2026-04-04T16:54:46.064Z</time></trkpt><trkpt lat="45.690066" lon="11.9412634"><ele>46.0</ele><time>2026-04-04T16:54:47.063Z</time></trkpt><trkpt lat="45.6900181" lon="11.9409128"><ele>46.0</ele><time>2026-04-04T16:54:48.064Z</time></trkpt><trkpt lat="45.6899697" lon="11.9405748"><ele>46.0</ele><time>2026-04-04T16:54:49.064Z</time></trkpt><trkpt lat="45.689922" lon="11.9402466"><ele>45.66666666666667</ele><time>2026-04-04T16:54:50.063Z</time></trkpt><trkpt lat="45.6898779" lon="11.9399284"><ele>45.333333333333336</ele><time>2026-04-04T16:54:51.064Z</time></trkpt><trkpt lat="45.6898337" lon="11.9396158"><ele>45.0</ele><time>2026-04-04T16:54:52.064Z</time></trkpt><trkpt lat="45.689791" lon="11.9393104"><ele>45.333333333333336</ele><time>2026-04-04T16:54:53.064Z</time></trkpt><trkpt lat="45.689749" lon="11.9390066"><ele>45.66666666666667</ele><time>2026-04-04T16:54:54.064Z</time></trkpt><trkpt lat="45.6897066" lon="11.9387068"><ele>46.0</ele><time>2026-04-04T16:54:55.064Z</time></trkpt><trkpt lat="45.6896643" lon="11.9384127"><ele>46.0</ele><time>2026-04-04T16:54:56.064Z</time></trkpt><trkpt lat="45.6896219" lon="11.9381235"><ele>46.0</ele><time>2026-04-04T16:54:57.064Z</time></trkpt><trkpt lat="45.6895794" lon="11.9378344"><ele>46.0</ele><time>2026-04-04T16:54:58.064Z</time></trkpt><trkpt lat="45.6895376" lon="11.9375455"><ele>46.0</ele><time>2026-04-04T16:54:59.064Z</time></trkpt><trkpt lat="45.689497" lon="11.9372578"><ele>46.0</ele><time>2026-04-04T16:55:00.063Z</time></trkpt><trkpt lat="45.6894557" lon="11.9369718"><ele>46.0</ele><time>2026-04-04T16:55:01.063Z</time></trkpt><trkpt lat="45.6894131" lon="11.9366876"><ele>45.66666666666667</ele><time>2026-04-04T16:55:02.063Z</time></trkpt><trkpt lat="45.6893708" lon="11.9364064"><ele>45.333333333333336</ele><time>2026-04-04T16:55:03.063Z</time></trkpt><trkpt lat="45.6893303" lon="11.9361288"><ele>45.0</ele><time>2026-04-04T16:55:04.064Z</time></trkpt><trkpt lat="45.6892889" lon="11.9358561"><ele>45.0</ele><time>2026-04-04T16:55:05.063Z</time></trkpt><trkpt lat="45.689248" lon="11.9355838"><ele>45.0</ele><time>2026-04-04T16:55:06.064Z</time></trkpt><trkpt lat="45.6892077" lon="11.9353157"><ele>45.0</ele><time>2026-04-04T16:55:07.064Z</time></trkpt><trkpt lat="45.6891702" lon="11.9350467"><ele>45.0</ele><time>2026-04-04T16:55:08.063Z</time></trkpt><trkpt lat="45.6891304" lon="11.9347777"><ele>45.0</ele><time>2026-04-04T16:55:09.064Z</time></trkpt><trkpt lat="45.6890916" lon="11.9345117"><ele>45.0</ele><time>2026-04-04T16:55:10.064Z</time></trkpt><trkpt lat="45.689051" lon="11.934247"><ele>44.333333333333336</ele><time>2026-04-04T16:55:11.064Z</time></trkpt><trkpt lat="45.6890063" lon="11.9339833"><ele>43.66666666666667</ele><time>2026-04-04T16:55:12.063Z</time></trkpt><trkpt lat="45.6889649" lon="11.9337177"><ele>43.0</ele><time>2026-04-04T16:55:13.063Z</time></trkpt><trkpt lat="45.6889263" lon="11.9334503"><ele>43.66666666666667</ele><time>2026-04-04T16:55:14.064Z</time></trkpt><trkpt lat="45.6888865" lon="11.9331835"><ele>44.333333333333336</ele><time>2026-04-04T16:55:15.063Z</time></trkpt><trkpt lat="45.6888489" lon="11.9329152"><ele>45.0</ele><time>2026-04-04T16:55:16.064Z</time></trkpt><trkpt lat="45.6888097" lon="11.9326452"><ele>45.666666666666664</ele><time>2026-04-04T16:55:17.064Z</time></trkpt><trkpt lat="45.6887712" lon="11.9323783"><ele>46.33333333333333</ele><time>2026-04-04T16:55:18.063Z</time></trkpt><trkpt lat="45.6887327" lon="11.9321149"><ele>47.0</ele><time>2026-04-04T16:55:19.063Z</time></trkpt><trkpt lat="45.6886934" lon="11.9318507"><ele>47.0</ele><time>2026-04-04T16:55:20.063Z</time></trkpt><trkpt lat="45.6886539" lon="11.9315872"><ele>47.0</ele><time>2026-04-04T16:55:21.063Z</time></trkpt><trkpt lat="45.6886135" lon="11.9313267"><ele>47.0</ele><time>2026-04-04T16:55:22.064Z</time></trkpt><trkpt lat="45.6885739" lon="11.9310644"><ele>46.33333333333333</ele><time>2026-04-04T16:55:23.063Z</time></trkpt><trkpt lat="45.688536" lon="11.9308028"><ele>45.666666666666664</ele><time>2026-04-04T16:55:24.064Z</time></trkpt><trkpt lat="45.6885" lon="11.9305448"><ele>45.0</ele><time>2026-04-04T16:55:25.063Z</time></trkpt><trkpt lat="45.6884646" lon="11.9302888"><ele>45.0</ele><time>2026-04-04T16:55:26.063Z</time></trkpt><trkpt lat="45.6884269" lon="11.9300342"><ele>45.0</ele><time>2026-04-04T16:55:27.063Z</time></trkpt><trkpt lat="45.6883911" lon="11.9297845"><ele>45.0</ele><time>2026-04-04T16:55:28.063Z</time></trkpt><trkpt lat="45.6883542" lon="11.9295434"><ele>45.0</ele><time>2026-04-04T16:55:29.064Z</time></trkpt><trkpt lat="45.6883183" lon="11.929306"><ele>45.0</ele><time>2026-04-04T16:55:30.063Z</time></trkpt><trkpt lat="45.6882822" lon="11.9290744"><ele>45.0</ele><time>2026-04-04T16:55:31.063Z</time></trkpt><trkpt lat="45.6882506" lon="11.9288534"><ele>45.0</ele><time>2026-04-04T16:55:32.063Z</time></trkpt><trkpt lat="45.6882237" lon="11.9286463"><ele>45.0</ele><time>2026-04-04T16:55:33.063Z</time></trkpt><trkpt lat="45.6881985" lon="11.9284551"><ele>45.0</ele><time>2026-04-04T16:55:34.063Z</time></trkpt><trkpt lat="45.6881779" lon="11.9282945"><ele>45.0</ele><time>2026-04-04T16:55:35.063Z</time></trkpt><trkpt lat="45.6881615" lon="11.9281581"><ele>45.4</ele><time>2026-04-04T16:55:36.063Z</time></trkpt><trkpt lat="45.6881519" lon="11.9280463"><ele>45.8</ele><time>2026-04-04T16:55:37.063Z</time></trkpt><trkpt lat="45.6881655" lon="11.9278813"><ele>46.2</ele><time>2026-04-04T16:55:39.063Z</time></trkpt><trkpt lat="45.6882354" lon="11.9277451"><ele>46.6</ele><time>2026-04-04T16:55:41.064Z</time></trkpt><trkpt lat="45.6883007" lon="11.9276778"><ele>47.0</ele><time>2026-04-04T16:55:42.064Z</time></trkpt><trkpt lat="45.688389" lon="11.9276304"><ele>47.0</ele><time>2026-04-04T16:55:43.063Z</time></trkpt><trkpt lat="45.6884959" lon="11.9276047"><ele>47.0</ele><time>2026-04-04T16:55:44.064Z</time></trkpt><trkpt lat="45.6886185" lon="11.9275931"><ele>47.0</ele><time>2026-04-04T16:55:45.063Z</time></trkpt><trkpt lat="45.6887531" lon="11.9275845"><ele>47.0</ele><time>2026-04-04T16:55:46.064Z</time></trkpt><trkpt lat="45.6888935" lon="11.9275777"><ele>47.0</ele><time>2026-04-04T16:55:47.063Z</time></trkpt><trkpt lat="45.6890375" lon="11.9275766"><ele>47.0</ele><time>2026-04-04T16:55:48.064Z</time></trkpt><trkpt lat="45.6891791" lon="11.9275767"><ele>47.0</ele><time>2026-04-04T16:55:49.063Z</time></trkpt><trkpt lat="45.6893245" lon="11.9275758"><ele>47.0</ele><time>2026-04-04T16:55:50.063Z</time></trkpt><trkpt lat="45.6894691" lon="11.9275777"><ele>46.75</ele><time>2026-04-04T16:55:51.064Z</time></trkpt><trkpt lat="45.689617" lon="11.9275791"><ele>46.5</ele><time>2026-04-04T16:55:52.064Z</time></trkpt><trkpt lat="45.6897655" lon="11.9275801"><ele>46.25</ele><time>2026-04-04T16:55:53.064Z</time></trkpt><trkpt lat="45.6899159" lon="11.9275825"><ele>46.0</ele><time>2026-04-04T16:55:54.064Z</time></trkpt><trkpt lat="45.6900669" lon="11.9275846"><ele>46.0</ele><time>2026-04-04T16:55:55.063Z</time></trkpt><trkpt lat="45.6902185" lon="11.9275873"><ele>46.0</ele><time>2026-04-04T16:55:56.064Z</time></trkpt><trkpt lat="45.6903701" lon="11.9275852"><ele>46.0</ele><time>2026-04-04T16:55:57.064Z</time></trkpt><trkpt lat="45.6905211" lon="11.9275875"><ele>46.0</ele><time>2026-04-04T16:55:58.063Z</time></trkpt><trkpt lat="45.6906725" lon="11.9275833"><ele>46.0</ele><time>2026-04-04T16:55:59.063Z</time></trkpt><trkpt lat="45.6908226" lon="11.9275809"><ele>46.0</ele><time>2026-04-04T16:56:00.063Z</time></trkpt><trkpt lat="45.6909705" lon="11.9275813"><ele>46.0</ele><time>2026-04-04T16:56:01.064Z</time></trkpt><trkpt lat="45.6911183" lon="11.9275821"><ele>46.0</ele><time>2026-04-04T16:56:02.063Z</time></trkpt><trkpt lat="45.6912669" lon="11.927583"><ele>46.0</ele><time>2026-04-04T16:56:03.064Z</time></trkpt><trkpt lat="45.6914179" lon="11.9275837"><ele>46.0</ele><time>2026-04-04T16:56:04.064Z</time></trkpt><trkpt lat="45.6915666" lon="11.9275854"><ele>46.0</ele><time>2026-04-04T16:56:05.064Z</time></trkpt><trkpt lat="45.6917203" lon="11.9275862"><ele>46.0</ele><time>2026-04-04T16:56:06.064Z</time></trkpt><trkpt lat="45.6918741" lon="11.927585"><ele>46.0</ele><time>2026-04-04T16:56:07.064Z</time></trkpt><trkpt lat="45.6920289" lon="11.9275829"><ele>46.0</ele><time>2026-04-04T16:56:08.064Z</time></trkpt><trkpt lat="45.6921855" lon="11.9275814"><ele>46.0</ele><time>2026-04-04T16:56:09.064Z</time></trkpt><trkpt lat="45.6923429" lon="11.9275802"><ele>46.0</ele><time>2026-04-04T16:56:10.063Z</time></trkpt><trkpt lat="45.6924999" lon="11.9275787"><ele>46.0</ele><time>2026-04-04T16:56:11.063Z</time></trkpt><trkpt lat="45.6926545" lon="11.9275785"><ele>46.333333333333336</ele><time>2026-04-04T16:56:12.064Z</time></trkpt><trkpt lat="45.6928073" lon="11.9275785"><ele>46.666666666666664</ele><time>2026-04-04T16:56:13.063Z</time></trkpt><trkpt lat="45.6929553" lon="11.9275756"><ele>47.0</ele><time>2026-04-04T16:56:14.064Z</time></trkpt><trkpt lat="45.6931047" lon="11.9275756"><ele>47.0</ele><time>2026-04-04T16:56:15.064Z</time></trkpt><trkpt lat="45.6932533" lon="11.9275779"><ele>47.0</ele><time>2026-04-04T16:56:16.064Z</time></trkpt><trkpt lat="45.6933996" lon="11.9275755"><ele>47.0</ele><time>2026-04-04T16:56:17.063Z</time></trkpt><trkpt lat="45.693547" lon="11.9275751"><ele>47.0</ele><time>2026-04-04T16:56:18.064Z</time></trkpt><trkpt lat="45.6936928" lon="11.9275772"><ele>47.5</ele><time>2026-04-04T16:56:19.063Z</time></trkpt><trkpt lat="45.6938381" lon="11.9275815"><ele>48.0</ele><time>2026-04-04T16:56:20.063Z</time></trkpt><trkpt lat="45.6939811" lon="11.927584"><ele>48.5</ele><time>2026-04-04T16:56:21.063Z</time></trkpt><trkpt lat="45.6941273" lon="11.9275836"><ele>49.0</ele><time>2026-04-04T16:56:22.064Z</time></trkpt><trkpt lat="45.6942759" lon="11.9275839"><ele>49.0</ele><time>2026-04-04T16:56:23.064Z</time></trkpt><trkpt lat="45.6944098" lon="11.9275834"><ele>49.0</ele><time>2026-04-04T16:56:24.063Z</time></trkpt><trkpt lat="45.6945234" lon="11.9275825"><ele>49.0</ele><time>2026-04-04T16:56:25.064Z</time></trkpt><trkpt lat="45.6946055" lon="11.927569"><ele>49.0</ele><time>2026-04-04T16:56:26.064Z</time></trkpt><trkpt lat="45.694668" lon="11.9275316"><ele>49.0</ele><time>2026-04-04T16:56:27.064Z</time></trkpt><trkpt lat="45.6947391" lon="11.9273614"><ele>49.25</ele><time>2026-04-04T16:56:29.063Z</time></trkpt><trkpt lat="45.6947718" lon="11.9272275"><ele>49.5</ele><time>2026-04-04T16:56:30.063Z</time></trkpt><trkpt lat="45.6948099" lon="11.9270683"><ele>49.75</ele><time>2026-04-04T16:56:31.064Z</time></trkpt><trkpt lat="45.6948503" lon="11.9268887"><ele>50.0</ele><time>2026-04-04T16:56:32.064Z</time></trkpt><trkpt lat="45.6948934" lon="11.9266901"><ele>49.333333333333336</ele><time>2026-04-04T16:56:33.063Z</time></trkpt><trkpt lat="45.6949445" lon="11.9264824"><ele>48.66666666666667</ele><time>2026-04-04T16:56:34.063Z</time></trkpt><trkpt lat="45.6949929" lon="11.9262752"><ele>48.0</ele><time>2026-04-04T16:56:35.063Z</time></trkpt><trkpt lat="45.6950388" lon="11.9260807"><ele>48.0</ele><time>2026-04-04T16:56:36.063Z</time></trkpt><trkpt lat="45.6950814" lon="11.9259016"><ele>48.0</ele><time>2026-04-04T16:56:37.063Z</time></trkpt><trkpt lat="45.6951205" lon="11.9257394"><ele>48.0</ele><time>2026-04-04T16:56:38.063Z</time></trkpt><trkpt lat="45.6951581" lon="11.9255897"><ele>48.0</ele><time>2026-04-04T16:56:39.063Z</time></trkpt><trkpt lat="45.6951909" lon="11.9254455"><ele>48.0</ele><time>2026-04-04T16:56:40.064Z</time></trkpt><trkpt lat="45.6952272" lon="11.9252984"><ele>48.0</ele><time>2026-04-04T16:56:41.063Z</time></trkpt><trkpt lat="45.6952664" lon="11.9251373"><ele>48.0</ele><time>2026-04-04T16:56:42.064Z</time></trkpt><trkpt lat="45.6953098" lon="11.9249634"><ele>48.0</ele><time>2026-04-04T16:56:43.063Z</time></trkpt><trkpt lat="45.6953531" lon="11.9247833"><ele>48.0</ele><time>2026-04-04T16:56:44.063Z</time></trkpt><trkpt lat="45.6953973" lon="11.9245952"><ele>48.0</ele><time>2026-04-04T16:56:45.063Z</time></trkpt><trkpt lat="45.6954449" lon="11.924406"><ele>48.0</ele><time>2026-04-04T16:56:46.063Z</time></trkpt><trkpt lat="45.6954904" lon="11.9242142"><ele>48.0</ele><time>2026-04-04T16:56:47.064Z</time></trkpt><trkpt lat="45.6955352" lon="11.9240246"><ele>48.0</ele><time>2026-04-04T16:56:48.063Z</time></trkpt><trkpt lat="45.6955801" lon="11.9238315"><ele>48.0</ele><time>2026-04-04T16:56:49.064Z</time></trkpt><trkpt lat="45.695626" lon="11.9236447"><ele>48.0</ele><time>2026-04-04T16:56:50.064Z</time></trkpt><trkpt lat="45.6956705" lon="11.9234609"><ele>48.0</ele><time>2026-04-04T16:56:51.064Z</time></trkpt><trkpt lat="45.6957145" lon="11.9232788"><ele>48.0</ele><time>2026-04-04T16:56:52.063Z</time></trkpt><trkpt lat="45.6957576" lon="11.9231035"><ele>48.0</ele><time>2026-04-04T16:56:53.064Z</time></trkpt><trkpt lat="45.6957956" lon="11.9229257"><ele>48.0</ele><time>2026-04-04T16:56:54.064Z</time></trkpt><trkpt lat="45.6958189" lon="11.922742"><ele>48.0</ele><time>2026-04-04T16:56:55.064Z</time></trkpt><trkpt lat="45.6958201" lon="11.9225539"><ele>48.0</ele><time>2026-04-04T16:56:56.064Z</time></trkpt><trkpt lat="45.6958079" lon="11.9223544"><ele>48.0</ele><time>2026-04-04T16:56:57.063Z</time></trkpt><trkpt lat="45.6957959" lon="11.9221503"><ele>48.0</ele><time>2026-04-04T16:56:58.064Z</time></trkpt><trkpt lat="45.6957842" lon="11.9219422"><ele>48.0</ele><time>2026-04-04T16:56:59.064Z</time></trkpt><trkpt lat="45.6957716" lon="11.9217282"><ele>47.75</ele><time>2026-04-04T16:57:00.063Z</time></trkpt><trkpt lat="45.6957605" lon="11.9215149"><ele>47.5</ele><time>2026-04-04T16:57:01.064Z</time></trkpt><trkpt lat="45.6957503" lon="11.9213102"><ele>47.25</ele><time>2026-04-04T16:57:02.063Z</time></trkpt><trkpt lat="45.6957383" lon="11.9211124"><ele>47.0</ele><time>2026-04-04T16:57:03.064Z</time></trkpt><trkpt lat="45.6957263" lon="11.9209201"><ele>47.25</ele><time>2026-04-04T16:57:04.064Z</time></trkpt><trkpt lat="45.6957174" lon="11.9207256"><ele>47.5</ele><time>2026-04-04T16:57:05.063Z</time></trkpt><trkpt lat="45.6957055" lon="11.9205187"><ele>47.75</ele><time>2026-04-04T16:57:06.063Z</time></trkpt><trkpt lat="45.69569" lon="11.920303"><ele>48.0</ele><time>2026-04-04T16:57:07.064Z</time></trkpt><trkpt lat="45.6956773" lon="11.9200848"><ele>48.0</ele><time>2026-04-04T16:57:08.064Z</time></trkpt><trkpt lat="45.6956651" lon="11.9198617"><ele>48.0</ele><time>2026-04-04T16:57:09.063Z</time></trkpt><trkpt lat="45.6956525" lon="11.9196326"><ele>48.0</ele><time>2026-04-04T16:57:10.063Z</time></trkpt><trkpt lat="45.6956396" lon="11.9194006"><ele>48.33333333333333</ele><time>2026-04-04T16:57:11.063Z</time></trkpt><trkpt lat="45.695624" lon="11.9191648"><ele>48.666666666666664</ele><time>2026-04-04T16:57:12.063Z</time></trkpt><trkpt lat="45.6956118" lon="11.9189275"><ele>49.0</ele><time>2026-04-04T16:57:13.063Z</time></trkpt><trkpt lat="45.6955986" lon="11.918688"><ele>49.0</ele><time>2026-04-04T16:57:14.063Z</time></trkpt><trkpt lat="45.6955831" lon="11.9184464"><ele>49.0</ele><time>2026-04-04T16:57:15.063Z</time></trkpt><trkpt lat="45.6955695" lon="11.9182035"><ele>49.0</ele><time>2026-04-04T16:57:16.063Z</time></trkpt><trkpt lat="45.6955553" lon="11.9179619"><ele>49.0</ele><time>2026-04-04T16:57:17.063Z</time></trkpt><trkpt lat="45.6955398" lon="11.9177158"><ele>49.0</ele><time>2026-04-04T16:57:18.064Z</time></trkpt><trkpt lat="45.6955235" lon="11.9174726"><ele>49.0</ele><time>2026-04-04T16:57:19.064Z</time></trkpt><trkpt lat="45.6955078" lon="11.9172306"><ele>49.0</ele><time>2026-04-04T16:57:20.064Z</time></trkpt><trkpt lat="45.6954942" lon="11.9170024"><ele>49.0</ele><time>2026-04-04T16:57:21.063Z</time></trkpt><trkpt lat="45.6954801" lon="11.9167881"><ele>49.0</ele><time>2026-04-04T16:57:22.063Z</time></trkpt><trkpt lat="45.6954661" lon="11.9165789"><ele>49.0</ele><time>2026-04-04T16:57:23.063Z</time></trkpt><trkpt lat="45.6954552" lon="11.9163762"><ele>49.0</ele><time>2026-04-04T16:57:24.064Z</time></trkpt><trkpt lat="45.6954425" lon="11.9161707"><ele>49.0</ele><time>2026-04-04T16:57:25.063Z</time></trkpt><trkpt lat="45.6954273" lon="11.9159599"><ele>49.0</ele><time>2026-04-04T16:57:26.064Z</time></trkpt><trkpt lat="45.6954125" lon="11.9157438"><ele>48.666666666666664</ele><time>2026-04-04T16:57:27.063Z</time></trkpt><trkpt lat="45.6953962" lon="11.9155238"><ele>48.33333333333333</ele><time>2026-04-04T16:57:28.064Z</time></trkpt><trkpt lat="45.6953792" lon="11.9153026"><ele>48.0</ele><time>2026-04-04T16:57:29.063Z</time></trkpt><trkpt lat="45.6953636" lon="11.9150824"><ele>48.0</ele><time>2026-04-04T16:57:30.064Z</time></trkpt><trkpt lat="45.6953481" lon="11.9148641"><ele>48.0</ele><time>2026-04-04T16:57:31.063Z</time></trkpt><trkpt lat="45.6953351" lon="11.9146519"><ele>48.0</ele><time>2026-04-04T16:57:32.063Z</time></trkpt><trkpt lat="45.6953199" lon="11.9144532"><ele>48.0</ele><time>2026-04-04T16:57:33.064Z</time></trkpt><trkpt lat="45.6953047" lon="11.914282"><ele>47.833333333333336</ele><time>2026-04-04T16:57:34.064Z</time></trkpt><trkpt lat="45.6952906" lon="11.9141223"><ele>47.666666666666664</ele><time>2026-04-04T16:57:35.063Z</time></trkpt><trkpt lat="45.6952738" lon="11.9139922"><ele>47.5</ele><time>2026-04-04T16:57:36.064Z</time></trkpt><trkpt lat="45.6952579" lon="11.9138898"><ele>47.33333333333333</ele><time>2026-04-04T16:57:37.063Z</time></trkpt><trkpt lat="45.6952286" lon="11.9137703"><ele>47.166666666666664</ele><time>2026-04-04T16:57:39.064Z</time></trkpt><trkpt lat="45.6952119" lon="11.9136823"><ele>47.0</ele><time>2026-04-04T16:57:42.063Z</time></trkpt><trkpt lat="45.6952362" lon="11.9135974"><ele>47.0</ele><time>2026-04-04T16:57:44.064Z</time></trkpt><trkpt lat="45.6953312" lon="11.9134448"><ele>47.0</ele><time>2026-04-04T16:57:46.063Z</time></trkpt><trkpt lat="45.6954063" lon="11.9133354"><ele>47.0</ele><time>2026-04-04T16:57:47.064Z</time></trkpt><trkpt lat="45.6954978" lon="11.9132074"><ele>47.0</ele><time>2026-04-04T16:57:48.063Z</time></trkpt><trkpt lat="45.6956041" lon="11.9130664"><ele>47.0</ele><time>2026-04-04T16:57:49.064Z</time></trkpt><trkpt lat="45.6957226" lon="11.9129147"><ele>47.0</ele><time>2026-04-04T16:57:50.063Z</time></trkpt><trkpt lat="45.6958526" lon="11.9127512"><ele>47.0</ele><time>2026-04-04T16:57:51.063Z</time></trkpt><trkpt lat="45.6959915" lon="11.9125796"><ele>47.0</ele><time>2026-04-04T16:57:52.064Z</time></trkpt><trkpt lat="45.6961336" lon="11.9124015"><ele>47.0</ele><time>2026-04-04T16:57:53.064Z</time></trkpt><trkpt lat="45.6962719" lon="11.9122255"><ele>47.0</ele><time>2026-04-04T16:57:54.064Z</time></trkpt><trkpt lat="45.6964072" lon="11.9120528"><ele>47.0</ele><time>2026-04-04T16:57:55.064Z</time></trkpt><trkpt lat="45.6965421" lon="11.9118845"><ele>47.0</ele><time>2026-04-04T16:57:56.063Z</time></trkpt><trkpt lat="45.6966857" lon="11.91173"><ele>47.0</ele><time>2026-04-04T16:57:57.064Z</time></trkpt><trkpt lat="45.6968357" lon="11.9115844"><ele>47.33333333333333</ele><time>2026-04-04T16:57:58.063Z</time></trkpt><trkpt lat="45.6969903" lon="11.9114377"><ele>47.666666666666664</ele><time>2026-04-04T16:57:59.064Z</time></trkpt><trkpt lat="45.6971418" lon="11.9112869"><ele>48.0</ele><time>2026-04-04T16:58:00.064Z</time></trkpt><trkpt lat="45.6972943" lon="11.9111388"><ele>48.0</ele><time>2026-04-04T16:58:01.063Z</time></trkpt><trkpt lat="45.6974427" lon="11.9110063"><ele>48.0</ele><time>2026-04-04T16:58:02.064Z</time></trkpt><trkpt lat="45.6975854" lon="11.9108841"><ele>48.0</ele><time>2026-04-04T16:58:03.063Z</time></trkpt><trkpt lat="45.6977185" lon="11.9107661"><ele>48.5</ele><time>2026-04-04T16:58:04.064Z</time></trkpt><trkpt lat="45.697846" lon="11.910656"><ele>49.0</ele><time>2026-04-04T16:58:05.063Z</time></trkpt><trkpt lat="45.6981056" lon="11.9104309"><ele>49.0</ele><time>2026-04-04T16:58:07.064Z</time></trkpt><trkpt lat="45.6982334" lon="11.9103107"><ele>49.0</ele><time>2026-04-04T16:58:08.064Z</time></trkpt><trkpt lat="45.6983657" lon="11.9101923"><ele>49.0</ele><time>2026-04-04T16:58:09.064Z</time></trkpt><trkpt lat="45.698501" lon="11.9100723"><ele>49.0</ele><time>2026-04-04T16:58:10.063Z</time></trkpt><trkpt lat="45.6986391" lon="11.9099532"><ele>49.0</ele><time>2026-04-04T16:58:11.063Z</time></trkpt><trkpt lat="45.6987776" lon="11.9098284"><ele>49.0</ele><time>2026-04-04T16:58:12.064Z</time></trkpt><trkpt lat="45.6989189" lon="11.9097074"><ele>49.0</ele><time>2026-04-04T16:58:13.063Z</time></trkpt><trkpt lat="45.6990576" lon="11.9095879"><ele>49.0</ele><time>2026-04-04T16:58:14.063Z</time></trkpt><trkpt lat="45.6991991" lon="11.9094733"><ele>49.0</ele><time>2026-04-04T16:58:15.064Z</time></trkpt><trkpt lat="45.6993533" lon="11.9093828"><ele>49.0</ele><time>2026-04-04T16:58:16.063Z</time></trkpt><trkpt lat="45.699518" lon="11.9093161"><ele>49.0</ele><time>2026-04-04T16:58:17.064Z</time></trkpt><trkpt lat="45.6996854" lon="11.9092615"><ele>49.0</ele><time>2026-04-04T16:58:18.063Z</time></trkpt><trkpt lat="45.6998514" lon="11.9092008"><ele>49.0</ele><time>2026-04-04T16:58:19.064Z</time></trkpt><trkpt lat="45.7000125" lon="11.9091162"><ele>49.0</ele><time>2026-04-04T16:58:20.063Z</time></trkpt><trkpt lat="45.7001643" lon="11.9090044"><ele>49.0</ele><time>2026-04-04T16:58:21.063Z</time></trkpt><trkpt lat="45.7003062" lon="11.9088634"><ele>49.0</ele><time>2026-04-04T16:58:22.063Z</time></trkpt><trkpt lat="45.7004372" lon="11.9086998"><ele>49.0</ele><time>2026-04-04T16:58:23.064Z</time></trkpt><trkpt lat="45.7005614" lon="11.9085251"><ele>49.0</ele><time>2026-04-04T16:58:24.064Z</time></trkpt><trkpt lat="45.7006776" lon="11.9083437"><ele>48.666666666666664</ele><time>2026-04-04T16:58:25.063Z</time></trkpt><trkpt lat="45.7007815" lon="11.9081652"><ele>48.33333333333333</ele><time>2026-04-04T16:58:26.063Z</time></trkpt><trkpt lat="45.7008772" lon="11.9079955"><ele>48.0</ele><time>2026-04-04T16:58:27.063Z</time></trkpt><trkpt lat="45.7009626" lon="11.9078351"><ele>48.0</ele><time>2026-04-04T16:58:28.063Z</time></trkpt><trkpt lat="45.701035" lon="11.9076925"><ele>48.0</ele><time>2026-04-04T16:58:29.063Z</time></trkpt><trkpt lat="45.7010848" lon="11.9075859"><ele>48.0</ele><time>2026-04-04T16:58:30.064Z</time></trkpt><trkpt lat="45.7011382" lon="11.9074868"><ele>48.0</ele><time>2026-04-04T16:58:32.063Z</time></trkpt><trkpt lat="45.7011829" lon="11.9074078"><ele>48.0</ele><time>2026-04-04T16:58:37.064Z</time></trkpt><trkpt lat="45.7011734" lon="11.907224"><ele>48.25</ele><time>2026-04-04T16:58:39.063Z</time></trkpt><trkpt lat="45.7011421" lon="11.9070835"><ele>48.5</ele><time>2026-04-04T16:58:40.064Z</time></trkpt><trkpt lat="45.7011008" lon="11.9069147"><ele>48.75</ele><time>2026-04-04T16:58:41.064Z</time></trkpt><trkpt lat="45.7010554" lon="11.9067164"><ele>49.0</ele><time>2026-04-04T16:58:42.064Z</time></trkpt><trkpt lat="45.7009995" lon="11.9064928"><ele>49.0</ele><time>2026-04-04T16:58:43.064Z</time></trkpt><trkpt lat="45.7009388" lon="11.9062497"><ele>49.0</ele><time>2026-04-04T16:58:44.064Z</time></trkpt><trkpt lat="45.7008738" lon="11.9059918"><ele>49.0</ele><time>2026-04-04T16:58:45.063Z</time></trkpt><trkpt lat="45.7008058" lon="11.9057216"><ele>49.33333333333333</ele><time>2026-04-04T16:58:46.063Z</time></trkpt><trkpt lat="45.7007335" lon="11.9054432"><ele>49.66666666666667</ele><time>2026-04-04T16:58:47.064Z</time></trkpt><trkpt lat="45.7006617" lon="11.9051572"><ele>50.0</ele><time>2026-04-04T16:58:48.064Z</time></trkpt><trkpt lat="45.700588" lon="11.9048647"><ele>50.0</ele><time>2026-04-04T16:58:49.064Z</time></trkpt><trkpt lat="45.7005155" lon="11.9045688"><ele>50.0</ele><time>2026-04-04T16:58:50.064Z</time></trkpt><trkpt lat="45.7004482" lon="11.9042658"><ele>50.0</ele><time>2026-04-04T16:58:51.064Z</time></trkpt><trkpt lat="45.700384" lon="11.9039607"><ele>50.0</ele><time>2026-04-04T16:58:52.064Z</time></trkpt><trkpt lat="45.7003276" lon="11.9036525"><ele>50.0</ele><time>2026-04-04T16:58:53.063Z</time></trkpt><trkpt lat="45.7002812" lon="11.9033438"><ele>50.0</ele><time>2026-04-04T16:58:54.063Z</time></trkpt><trkpt lat="45.7002424" lon="11.9030317"><ele>49.0</ele><time>2026-04-04T16:58:55.064Z</time></trkpt><trkpt lat="45.7002041" lon="11.9027245"><ele>48.0</ele><time>2026-04-04T16:58:56.063Z</time></trkpt><trkpt lat="45.7001657" lon="11.9024205"><ele>47.0</ele><time>2026-04-04T16:58:57.063Z</time></trkpt><trkpt lat="45.7001286" lon="11.9021183"><ele>47.0</ele><time>2026-04-04T16:58:58.064Z</time></trkpt><trkpt lat="45.7000887" lon="11.9018195"><ele>47.0</ele><time>2026-04-04T16:58:59.063Z</time></trkpt><trkpt lat="45.7000492" lon="11.9015285"><ele>47.0</ele><time>2026-04-04T16:59:00.064Z</time></trkpt><trkpt lat="45.7000099" lon="11.9012369"><ele>48.0</ele><time>2026-04-04T16:59:01.064Z</time></trkpt><trkpt lat="45.6999704" lon="11.9009447"><ele>49.0</ele><time>2026-04-04T16:59:02.063Z</time></trkpt><trkpt lat="45.6999308" lon="11.9006552"><ele>50.0</ele><time>2026-04-04T16:59:03.064Z</time></trkpt><trkpt lat="45.699888" lon="11.9003686"><ele>50.0</ele><time>2026-04-04T16:59:04.063Z</time></trkpt><trkpt lat="45.6998423" lon="11.9000934"><ele>50.0</ele><time>2026-04-04T16:59:05.064Z</time></trkpt><trkpt lat="45.6997953" lon="11.8998237"><ele>50.0</ele><time>2026-04-04T16:59:06.064Z</time></trkpt><trkpt lat="45.6997522" lon="11.899561"><ele>50.66666666666667</ele><time>2026-04-04T16:59:07.064Z</time></trkpt><trkpt lat="45.699709" lon="11.8993012"><ele>51.33333333333333</ele><time>2026-04-04T16:59:08.064Z</time></trkpt><trkpt lat="45.699668" lon="11.8990429"><ele>52.0</ele><time>2026-04-04T16:59:09.063Z</time></trkpt><trkpt lat="45.6996237" lon="11.8987959"><ele>52.0</ele><time>2026-04-04T16:59:10.063Z</time></trkpt><trkpt lat="45.6995733" lon="11.8985578"><ele>52.0</ele><time>2026-04-04T16:59:11.062Z</time></trkpt><trkpt lat="45.6995084" lon="11.8983298"><ele>52.0</ele><time>2026-04-04T16:59:12.064Z</time></trkpt><trkpt lat="45.6994276" lon="11.8981061"><ele>51.666666666666664</ele><time>2026-04-04T16:59:13.064Z</time></trkpt><trkpt lat="45.6993271" lon="11.8978721"><ele>51.33333333333333</ele><time>2026-04-04T16:59:14.063Z</time></trkpt><trkpt lat="45.6992054" lon="11.8976188"><ele>51.0</ele><time>2026-04-04T16:59:15.064Z</time></trkpt><trkpt lat="45.6990735" lon="11.8973371"><ele>51.0</ele><time>2026-04-04T16:59:16.064Z</time></trkpt><trkpt lat="45.6989404" lon="11.8970241"><ele>51.0</ele><time>2026-04-04T16:59:17.064Z</time></trkpt><trkpt lat="45.6988122" lon="11.8966979"><ele>50.5</ele><time>2026-04-04T16:59:18.063Z</time></trkpt><trkpt lat="45.6986812" lon="11.8963865"><ele>50.0</ele><time>2026-04-04T16:59:19.063Z</time></trkpt><trkpt lat="45.6985435" lon="11.8960719"><ele>50.0</ele><time>2026-04-04T16:59:20.063Z</time></trkpt><trkpt lat="45.6984111" lon="11.8957617"><ele>50.0</ele><time>2026-04-04T16:59:21.063Z</time></trkpt><trkpt lat="45.6982837" lon="11.8954568"><ele>50.0</ele><time>2026-04-04T16:59:22.064Z</time></trkpt><trkpt lat="45.6981722" lon="11.8951578"><ele>50.0</ele><time>2026-04-04T16:59:23.064Z</time></trkpt><trkpt lat="45.6980769" lon="11.8948505"><ele>50.0</ele><time>2026-04-04T16:59:24.063Z</time></trkpt><trkpt lat="45.6980102" lon="11.8945339"><ele>50.0</ele><time>2026-04-04T16:59:25.064Z</time></trkpt><trkpt lat="45.6979773" lon="11.894213"><ele>50.5</ele><time>2026-04-04T16:59:26.063Z</time></trkpt><trkpt lat="45.6979744" lon="11.8938895"><ele>51.0</ele><time>2026-04-04T16:59:27.063Z</time></trkpt><trkpt lat="45.6979953" lon="11.89357"><ele>50.66666666666667</ele><time>2026-04-04T16:59:28.063Z</time></trkpt><trkpt lat="45.6980246" lon="11.8932603"><ele>50.333333333333336</ele><time>2026-04-04T16:59:29.063Z</time></trkpt><trkpt lat="45.6980481" lon="11.8929687"><ele>50.0</ele><time>2026-04-04T16:59:30.063Z</time></trkpt><trkpt lat="45.6980568" lon="11.892693"><ele>50.333333333333336</ele><time>2026-04-04T16:59:31.064Z</time></trkpt><trkpt lat="45.6980583" lon="11.8924283"><ele>50.66666666666667</ele><time>2026-04-04T16:59:32.063Z</time></trkpt><trkpt lat="45.6980492" lon="11.8921779"><ele>51.0</ele><time>2026-04-04T16:59:33.063Z</time></trkpt><trkpt lat="45.6980311" lon="11.8919293"><ele>51.66666666666667</ele><time>2026-04-04T16:59:34.063Z</time></trkpt><trkpt lat="45.6980078" lon="11.8916799"><ele>52.333333333333336</ele><time>2026-04-04T16:59:35.064Z</time></trkpt><trkpt lat="45.6979853" lon="11.8914261"><ele>53.0</ele><time>2026-04-04T16:59:36.064Z</time></trkpt><trkpt lat="45.6979636" lon="11.8911747"><ele>52.66666666666667</ele><time>2026-04-04T16:59:37.064Z</time></trkpt><trkpt lat="45.6979412" lon="11.890922"><ele>52.33333333333333</ele><time>2026-04-04T16:59:38.063Z</time></trkpt><trkpt lat="45.6979168" lon="11.8906641"><ele>52.0</ele><time>2026-04-04T16:59:39.063Z</time></trkpt><trkpt lat="45.6978908" lon="11.8904081"><ele>52.0</ele><time>2026-04-04T16:59:40.064Z</time></trkpt><trkpt lat="45.6978671" lon="11.890155"><ele>52.0</ele><time>2026-04-04T16:59:41.064Z</time></trkpt><trkpt lat="45.6978427" lon="11.889903"><ele>52.0</ele><time>2026-04-04T16:59:42.063Z</time></trkpt><trkpt lat="45.6978202" lon="11.8896548"><ele>52.33333333333333</ele><time>2026-04-04T16:59:43.064Z</time></trkpt><trkpt lat="45.6977947" lon="11.889406"><ele>52.66666666666667</ele><time>2026-04-04T16:59:44.064Z</time></trkpt><trkpt lat="45.6977728" lon="11.889161"><ele>53.0</ele><time>2026-04-04T16:59:45.063Z</time></trkpt><trkpt lat="45.6977493" lon="11.8889244"><ele>53.0</ele><time>2026-04-04T16:59:46.064Z</time></trkpt><trkpt lat="45.6977263" lon="11.8886928"><ele>53.0</ele><time>2026-04-04T16:59:47.064Z</time></trkpt><trkpt lat="45.6977044" lon="11.8884692"><ele>53.0</ele><time>2026-04-04T16:59:48.064Z</time></trkpt><trkpt lat="45.6976845" lon="11.8882524"><ele>53.0</ele><time>2026-04-04T16:59:49.064Z</time></trkpt><trkpt lat="45.6976667" lon="11.8880459"><ele>53.0</ele><time>2026-04-04T16:59:50.063Z</time></trkpt><trkpt lat="45.6976503" lon="11.8878605"><ele>53.0</ele><time>2026-04-04T16:59:51.063Z</time></trkpt><trkpt lat="45.6976394" lon="11.8876888"><ele>53.0</ele><time>2026-04-04T16:59:52.063Z</time></trkpt><trkpt lat="45.6976443" lon="11.8875429"><ele>53.2</ele><time>2026-04-04T16:59:53.064Z</time></trkpt><trkpt lat="45.6976694" lon="11.887417"><ele>53.4</ele><time>2026-04-04T16:59:54.063Z</time></trkpt><trkpt lat="45.6977122" lon="11.8873019"><ele>53.60000000000001</ele><time>2026-04-04T16:59:55.063Z</time></trkpt><trkpt lat="45.6977491" lon="11.887179"><ele>53.800000000000004</ele><time>2026-04-04T16:59:56.064Z</time></trkpt><trkpt lat="45.6977444" lon="11.8870432"><ele>54.0</ele><time>2026-04-04T16:59:57.064Z</time></trkpt><trkpt lat="45.6977086" lon="11.8869107"><ele>54.0</ele><time>2026-04-04T16:59:58.064Z</time></trkpt><trkpt lat="45.697651" lon="11.8867837"><ele>54.0</ele><time>2026-04-04T16:59:59.064Z</time></trkpt><trkpt lat="45.6975927" lon="11.8866295"><ele>54.0</ele><time>2026-04-04T17:00:00.063Z</time></trkpt><trkpt lat="45.6975508" lon="11.8864547"><ele>54.0</ele><time>2026-04-04T17:00:01.064Z</time></trkpt><trkpt lat="45.6975256" lon="11.8862586"><ele>54.0</ele><time>2026-04-04T17:00:02.064Z</time></trkpt><trkpt lat="45.6975148" lon="11.8860392"><ele>54.0</ele><time>2026-04-04T17:00:03.063Z</time></trkpt><trkpt lat="45.6975075" lon="11.8858028"><ele>54.0</ele><time>2026-04-04T17:00:04.063Z</time></trkpt><trkpt lat="45.6974989" lon="11.8855496"><ele>54.0</ele><time>2026-04-04T17:00:05.064Z</time></trkpt><trkpt lat="45.6974926" lon="11.8852821"><ele>54.0</ele><time>2026-04-04T17:00:06.063Z</time></trkpt><trkpt lat="45.697486" lon="11.8849859"><ele>54.0</ele><time>2026-04-04T17:00:07.064Z</time></trkpt><trkpt lat="45.6974774" lon="11.8846779"><ele>54.0</ele><time>2026-04-04T17:00:08.064Z</time></trkpt><trkpt lat="45.6974686" lon="11.8843604"><ele>54.0</ele><time>2026-04-04T17:00:09.064Z</time></trkpt><trkpt lat="45.6974599" lon="11.8840371"><ele>54.0</ele><time>2026-04-04T17:00:10.064Z</time></trkpt><trkpt lat="45.6974523" lon="11.883715"><ele>54.0</ele><time>2026-04-04T17:00:11.063Z</time></trkpt><trkpt lat="45.6974427" lon="11.8833957"><ele>54.0</ele><time>2026-04-04T17:00:12.064Z</time></trkpt><trkpt lat="45.697433" lon="11.8830796"><ele>54.0</ele><time>2026-04-04T17:00:13.063Z</time></trkpt><trkpt lat="45.6974241" lon="11.8827672"><ele>53.66666666666667</ele><time>2026-04-04T17:00:14.064Z</time></trkpt><trkpt lat="45.6974153" lon="11.8824567"><ele>53.333333333333336</ele><time>2026-04-04T17:00:15.064Z</time></trkpt><trkpt lat="45.6974072" lon="11.8821491"><ele>53.0</ele><time>2026-04-04T17:00:16.064Z</time></trkpt><trkpt lat="45.6973979" lon="11.8818491"><ele>52.66666666666667</ele><time>2026-04-04T17:00:17.064Z</time></trkpt><trkpt lat="45.6973895" lon="11.8815646"><ele>52.33333333333333</ele><time>2026-04-04T17:00:18.064Z</time></trkpt><trkpt lat="45.6973809" lon="11.8812942"><ele>52.0</ele><time>2026-04-04T17:00:19.063Z</time></trkpt><trkpt lat="45.6973745" lon="11.8810261"><ele>52.33333333333333</ele><time>2026-04-04T17:00:20.064Z</time></trkpt><trkpt lat="45.6973681" lon="11.8807581"><ele>52.66666666666667</ele><time>2026-04-04T17:00:21.064Z</time></trkpt><trkpt lat="45.697363" lon="11.8804896"><ele>53.0</ele><time>2026-04-04T17:00:22.064Z</time></trkpt><trkpt lat="45.6973555" lon="11.8802234"><ele>53.333333333333336</ele><time>2026-04-04T17:00:23.063Z</time></trkpt><trkpt lat="45.6973435" lon="11.8799595"><ele>53.66666666666667</ele><time>2026-04-04T17:00:24.064Z</time></trkpt><trkpt lat="45.6973247" lon="11.8796954"><ele>54.0</ele><time>2026-04-04T17:00:25.064Z</time></trkpt><trkpt lat="45.6972948" lon="11.8794339"><ele>53.66666666666667</ele><time>2026-04-04T17:00:26.064Z</time></trkpt><trkpt lat="45.6972608" lon="11.8791732"><ele>53.333333333333336</ele><time>2026-04-04T17:00:27.063Z</time></trkpt><trkpt lat="45.6972225" lon="11.8789102"><ele>53.0</ele><time>2026-04-04T17:00:28.063Z</time></trkpt><trkpt lat="45.6971834" lon="11.8786541"><ele>53.0</ele><time>2026-04-04T17:00:29.063Z</time></trkpt><trkpt lat="45.6971432" lon="11.8784045"><ele>53.0</ele><time>2026-04-04T17:00:30.064Z</time></trkpt><trkpt lat="45.6971063" lon="11.8781627"><ele>53.0</ele><time>2026-04-04T17:00:31.063Z</time></trkpt><trkpt lat="45.6970703" lon="11.877936"><ele>53.0</ele><time>2026-04-04T17:00:32.063Z</time></trkpt><trkpt lat="45.6970369" lon="11.8777202"><ele>53.0</ele><time>2026-04-04T17:00:33.063Z</time></trkpt><trkpt lat="45.6970054" lon="11.8775142"><ele>53.0</ele><time>2026-04-04T17:00:34.063Z</time></trkpt><trkpt lat="45.6969792" lon="11.8773206"><ele>53.0</ele><time>2026-04-04T17:00:35.064Z</time></trkpt><trkpt lat="45.6969521" lon="11.877133"><ele>53.25</ele><time>2026-04-04T17:00:36.064Z</time></trkpt><trkpt lat="45.696928" lon="11.8769496"><ele>53.5</ele><time>2026-04-04T17:00:37.063Z</time></trkpt><trkpt lat="45.6969034" lon="11.8767767"><ele>53.75</ele><time>2026-04-04T17:00:38.064Z</time></trkpt><trkpt lat="45.6968813" lon="11.8766169"><ele>54.0</ele><time>2026-04-04T17:00:39.064Z</time></trkpt><trkpt lat="45.6968633" lon="11.8764698"><ele>54.0</ele><time>2026-04-04T17:00:40.063Z</time></trkpt><trkpt lat="45.6968531" lon="11.876341"><ele>54.0</ele><time>2026-04-04T17:00:41.064Z</time></trkpt><trkpt lat="45.6968486" lon="11.8762299"><ele>54.0</ele><time>2026-04-04T17:00:42.064Z</time></trkpt><trkpt lat="45.6968532" lon="11.8761396"><ele>54.0</ele><time>2026-04-04T17:00:43.064Z</time></trkpt><trkpt lat="45.6968943" lon="11.8759856"><ele>54.0</ele><time>2026-04-04T17:00:45.063Z</time></trkpt><trkpt lat="45.6969461" lon="11.8759129"><ele>54.0</ele><time>2026-04-04T17:00:46.063Z</time></trkpt><trkpt lat="45.69701" lon="11.8758586"><ele>53.75</ele><time>2026-04-04T17:00:47.064Z</time></trkpt><trkpt lat="45.6971105" lon="11.8758253"><ele>53.5</ele><time>2026-04-04T17:00:48.063Z</time></trkpt><trkpt lat="45.6972263" lon="11.8757915"><ele>53.25</ele><time>2026-04-04T17:00:49.064Z</time></trkpt><trkpt lat="45.6973676" lon="11.8757574"><ele>53.0</ele><time>2026-04-04T17:00:50.064Z</time></trkpt><trkpt lat="45.6975286" lon="11.8757111"><ele>53.0</ele><time>2026-04-04T17:00:51.063Z</time></trkpt><trkpt lat="45.6977077" lon="11.8756599"><ele>53.0</ele><time>2026-04-04T17:00:52.064Z</time></trkpt><trkpt lat="45.697904" lon="11.8755999"><ele>53.0</ele><time>2026-04-04T17:00:53.063Z</time></trkpt><trkpt lat="45.6981133" lon="11.8755405"><ele>53.0</ele><time>2026-04-04T17:00:54.063Z</time></trkpt><trkpt lat="45.6983288" lon="11.8754799"><ele>53.0</ele><time>2026-04-04T17:00:55.064Z</time></trkpt><trkpt lat="45.6985434" lon="11.875413"><ele>53.0</ele><time>2026-04-04T17:00:56.063Z</time></trkpt><trkpt lat="45.6987563" lon="11.8753479"><ele>53.333333333333336</ele><time>2026-04-04T17:00:57.064Z</time></trkpt><trkpt lat="45.6989635" lon="11.8752885"><ele>53.66666666666667</ele><time>2026-04-04T17:00:58.063Z</time></trkpt><trkpt lat="45.6991644" lon="11.8752294"><ele>54.0</ele><time>2026-04-04T17:00:59.063Z</time></trkpt><trkpt lat="45.6993574" lon="11.8751726"><ele>54.0</ele><time>2026-04-04T17:01:00.063Z</time></trkpt><trkpt lat="45.6995491" lon="11.8751132"><ele>54.0</ele><time>2026-04-04T17:01:01.063Z</time></trkpt><trkpt lat="45.6997417" lon="11.8750475"><ele>54.0</ele><time>2026-04-04T17:01:02.064Z</time></trkpt><trkpt lat="45.6999275" lon="11.8749706"><ele>54.0</ele><time>2026-04-04T17:01:03.063Z</time></trkpt><trkpt lat="45.7001125" lon="11.8748789"><ele>54.0</ele><time>2026-04-04T17:01:04.063Z</time></trkpt><trkpt lat="45.7002971" lon="11.8747748"><ele>54.0</ele><time>2026-04-04T17:01:05.063Z</time></trkpt><trkpt lat="45.7004823" lon="11.8746622"><ele>53.66666666666667</ele><time>2026-04-04T17:01:06.063Z</time></trkpt><trkpt lat="45.7006666" lon="11.8745422"><ele>53.333333333333336</ele><time>2026-04-04T17:01:07.064Z</time></trkpt><trkpt lat="45.7008524" lon="11.8744219"><ele>53.0</ele><time>2026-04-04T17:01:08.063Z</time></trkpt><trkpt lat="45.7010361" lon="11.8743051"><ele>53.66666666666667</ele><time>2026-04-04T17:01:09.063Z</time></trkpt><trkpt lat="45.7012128" lon="11.874193"><ele>54.33333333333333</ele><time>2026-04-04T17:01:10.063Z</time></trkpt><trkpt lat="45.7013818" lon="11.8740858"><ele>55.0</ele><time>2026-04-04T17:01:11.063Z</time></trkpt><trkpt lat="45.701542" lon="11.8739829"><ele>55.0</ele><time>2026-04-04T17:01:12.063Z</time></trkpt><trkpt lat="45.7017017" lon="11.8738792"><ele>55.0</ele><time>2026-04-04T17:01:13.064Z</time></trkpt><trkpt lat="45.7018598" lon="11.8737731"><ele>55.0</ele><time>2026-04-04T17:01:14.063Z</time></trkpt><trkpt lat="45.7020144" lon="11.8736708"><ele>55.25</ele><time>2026-04-04T17:01:15.064Z</time></trkpt><trkpt lat="45.7021652" lon="11.8735706"><ele>55.5</ele><time>2026-04-04T17:01:16.063Z</time></trkpt><trkpt lat="45.7022971" lon="11.8734769"><ele>55.75</ele><time>2026-04-04T17:01:17.064Z</time></trkpt><trkpt lat="45.7024188" lon="11.8733914"><ele>56.0</ele><time>2026-04-04T17:01:18.063Z</time></trkpt><trkpt lat="45.7025222" lon="11.8733095"><ele>56.199999999999996</ele><time>2026-04-04T17:01:19.064Z</time></trkpt><trkpt lat="45.7026173" lon="11.8732513"><ele>56.39999999999999</ele><time>2026-04-04T17:01:20.064Z</time></trkpt><trkpt lat="45.7026968" lon="11.8732251"><ele>56.6</ele><time>2026-04-04T17:01:21.064Z</time></trkpt><trkpt lat="45.7027571" lon="11.8731757"><ele>56.8</ele><time>2026-04-04T17:01:22.063Z</time></trkpt><trkpt lat="45.7027947" lon="11.8729994"><ele>57.0</ele><time>2026-04-04T17:01:24.064Z</time></trkpt><trkpt lat="45.702773" lon="11.8728796"><ele>57.0</ele><time>2026-04-04T17:01:25.063Z</time></trkpt><trkpt lat="45.7027479" lon="11.8727298"><ele>57.0</ele><time>2026-04-04T17:01:26.063Z</time></trkpt><trkpt lat="45.7027267" lon="11.872547"><ele>57.0</ele><time>2026-04-04T17:01:27.063Z</time></trkpt><trkpt lat="45.7027054" lon="11.8723395"><ele>57.0</ele><time>2026-04-04T17:01:28.063Z</time></trkpt><trkpt lat="45.7026808" lon="11.8721104"><ele>57.0</ele><time>2026-04-04T17:01:29.063Z</time></trkpt><trkpt lat="45.7026533" lon="11.8718649"><ele>57.0</ele><time>2026-04-04T17:01:30.064Z</time></trkpt><trkpt lat="45.702625" lon="11.871615"><ele>57.0</ele><time>2026-04-04T17:01:31.063Z</time></trkpt><trkpt lat="45.7025948" lon="11.8713587"><ele>57.0</ele><time>2026-04-04T17:01:32.064Z</time></trkpt><trkpt lat="45.7025643" lon="11.8710958"><ele>57.0</ele><time>2026-04-04T17:01:33.064Z</time></trkpt><trkpt lat="45.7025301" lon="11.8708304"><ele>57.0</ele><time>2026-04-04T17:01:34.064Z</time></trkpt><trkpt lat="45.7024926" lon="11.8705638"><ele>56.66666666666667</ele><time>2026-04-04T17:01:35.064Z</time></trkpt><trkpt lat="45.7024504" lon="11.8702924"><ele>56.333333333333336</ele><time>2026-04-04T17:01:36.063Z</time></trkpt><trkpt lat="45.702407" lon="11.870017"><ele>56.0</ele><time>2026-04-04T17:01:37.063Z</time></trkpt><trkpt lat="45.7023661" lon="11.8697367"><ele>56.0</ele><time>2026-04-04T17:01:38.064Z</time></trkpt><trkpt lat="45.7023295" lon="11.8694509"><ele>56.0</ele><time>2026-04-04T17:01:39.063Z</time></trkpt><trkpt lat="45.7022918" lon="11.8691604"><ele>56.0</ele><time>2026-04-04T17:01:40.063Z</time></trkpt><trkpt lat="45.7022495" lon="11.868866"><ele>56.0</ele><time>2026-04-04T17:01:41.064Z</time></trkpt><trkpt lat="45.7022014" lon="11.8685715"><ele>56.0</ele><time>2026-04-04T17:01:42.064Z</time></trkpt><trkpt lat="45.7021469" lon="11.8682737"><ele>56.0</ele><time>2026-04-04T17:01:43.064Z</time></trkpt><trkpt lat="45.702091" lon="11.8679744"><ele>56.333333333333336</ele><time>2026-04-04T17:01:44.063Z</time></trkpt><trkpt lat="45.7020346" lon="11.8676761"><ele>56.66666666666667</ele><time>2026-04-04T17:01:45.063Z</time></trkpt><trkpt lat="45.7019804" lon="11.8673806"><ele>57.0</ele><time>2026-04-04T17:01:46.063Z</time></trkpt><trkpt lat="45.7019262" lon="11.8670896"><ele>56.66666666666667</ele><time>2026-04-04T17:01:47.064Z</time></trkpt><trkpt lat="45.7018761" lon="11.8668123"><ele>56.333333333333336</ele><time>2026-04-04T17:01:48.064Z</time></trkpt><trkpt lat="45.701828" lon="11.8665497"><ele>56.0</ele><time>2026-04-04T17:01:49.064Z</time></trkpt><trkpt lat="45.7017823" lon="11.8663059"><ele>56.333333333333336</ele><time>2026-04-04T17:01:50.064Z</time></trkpt><trkpt lat="45.7017381" lon="11.8660706"><ele>56.66666666666667</ele><time>2026-04-04T17:01:51.063Z</time></trkpt><trkpt lat="45.7016954" lon="11.8658392"><ele>57.0</ele><time>2026-04-04T17:01:52.063Z</time></trkpt><trkpt lat="45.7016631" lon="11.8655939"><ele>57.0</ele><time>2026-04-04T17:01:53.064Z</time></trkpt><trkpt lat="45.7016458" lon="11.8653346"><ele>57.0</ele><time>2026-04-04T17:01:54.063Z</time></trkpt><trkpt lat="45.7016392" lon="11.8650604"><ele>57.0</ele><time>2026-04-04T17:01:55.064Z</time></trkpt><trkpt lat="45.7016368" lon="11.86478"><ele>57.0</ele><time>2026-04-04T17:01:56.063Z</time></trkpt><trkpt lat="45.7016317" lon="11.8645002"><ele>57.0</ele><time>2026-04-04T17:01:57.063Z</time></trkpt><trkpt lat="45.7016231" lon="11.864223"><ele>57.0</ele><time>2026-04-04T17:01:58.063Z</time></trkpt><trkpt lat="45.7016086" lon="11.8639527"><ele>57.0</ele><time>2026-04-04T17:01:59.063Z</time></trkpt><trkpt lat="45.7015885" lon="11.8636965"><ele>57.0</ele><time>2026-04-04T17:02:00.064Z</time></trkpt><trkpt lat="45.701563" lon="11.86345"><ele>57.0</ele><time>2026-04-04T17:02:01.063Z</time></trkpt><trkpt lat="45.7015345" lon="11.8632082"><ele>57.33333333333333</ele><time>2026-04-04T17:02:02.064Z</time></trkpt><trkpt lat="45.7015047" lon="11.8629716"><ele>57.666666666666664</ele><time>2026-04-04T17:02:03.063Z</time></trkpt><trkpt lat="45.7014777" lon="11.862738"><ele>58.0</ele><time>2026-04-04T17:02:04.063Z</time></trkpt><trkpt lat="45.7014454" lon="11.8625105"><ele>58.666666666666664</ele><time>2026-04-04T17:02:05.064Z</time></trkpt><trkpt lat="45.7014115" lon="11.862291"><ele>59.33333333333333</ele><time>2026-04-04T17:02:06.063Z</time></trkpt><trkpt lat="45.7013721" lon="11.8620797"><ele>60.0</ele><time>2026-04-04T17:02:07.063Z</time></trkpt><trkpt lat="45.7013309" lon="11.8618737"><ele>60.5</ele><time>2026-04-04T17:02:08.064Z</time></trkpt><trkpt lat="45.701293" lon="11.8616705"><ele>61.0</ele><time>2026-04-04T17:02:09.063Z</time></trkpt><trkpt lat="45.7012546" lon="11.8614607"><ele>61.5</ele><time>2026-04-04T17:02:10.064Z</time></trkpt><trkpt lat="45.7012172" lon="11.8612523"><ele>62.0</ele><time>2026-04-04T17:02:11.064Z</time></trkpt><trkpt lat="45.7011797" lon="11.8610418"><ele>61.5</ele><time>2026-04-04T17:02:12.064Z</time></trkpt><trkpt lat="45.7011396" lon="11.860829"><ele>61.0</ele><time>2026-04-04T17:02:13.063Z</time></trkpt><trkpt lat="45.7011015" lon="11.8606235"><ele>60.5</ele><time>2026-04-04T17:02:14.064Z</time></trkpt><trkpt lat="45.7010661" lon="11.8604326"><ele>60.0</ele><time>2026-04-04T17:02:15.063Z</time></trkpt><trkpt lat="45.7010281" lon="11.8602403"><ele>59.5</ele><time>2026-04-04T17:02:16.064Z</time></trkpt><trkpt lat="45.7009901" lon="11.8600479"><ele>59.0</ele><time>2026-04-04T17:02:17.064Z</time></trkpt><trkpt lat="45.7009521" lon="11.8598491"><ele>58.5</ele><time>2026-04-04T17:02:18.063Z</time></trkpt><trkpt lat="45.7009128" lon="11.8596505"><ele>58.0</ele><time>2026-04-04T17:02:19.064Z</time></trkpt><trkpt lat="45.7008741" lon="11.8594454"><ele>58.33333333333333</ele><time>2026-04-04T17:02:20.064Z</time></trkpt><trkpt lat="45.7008343" lon="11.8592322"><ele>58.66666666666667</ele><time>2026-04-04T17:02:21.064Z</time></trkpt><trkpt lat="45.7007943" lon="11.8590185"><ele>59.0</ele><time>2026-04-04T17:02:22.063Z</time></trkpt><trkpt lat="45.7007565" lon="11.8588171"><ele>59.0</ele><time>2026-04-04T17:02:23.064Z</time></trkpt><trkpt lat="45.7007181" lon="11.8586233"><ele>59.0</ele><time>2026-04-04T17:02:24.064Z</time></trkpt><trkpt lat="45.700681" lon="11.8584244"><ele>59.0</ele><time>2026-04-04T17:02:25.064Z</time></trkpt><trkpt lat="45.7006413" lon="11.8582289"><ele>59.0</ele><time>2026-04-04T17:02:26.063Z</time></trkpt><trkpt lat="45.7006047" lon="11.8580391"><ele>58.75</ele><time>2026-04-04T17:02:27.063Z</time></trkpt><trkpt lat="45.7005707" lon="11.8578558"><ele>58.5</ele><time>2026-04-04T17:02:28.064Z</time></trkpt><trkpt lat="45.7005376" lon="11.8576778"><ele>58.25</ele><time>2026-04-04T17:02:29.064Z</time></trkpt><trkpt lat="45.7005052" lon="11.857501"><ele>58.0</ele><time>2026-04-04T17:02:30.063Z</time></trkpt><trkpt lat="45.7004738" lon="11.8573271"><ele>57.75</ele><time>2026-04-04T17:02:31.063Z</time></trkpt><trkpt lat="45.7004456" lon="11.8571538"><ele>57.5</ele><time>2026-04-04T17:02:32.064Z</time></trkpt><trkpt lat="45.7004194" lon="11.8569823"><ele>57.25</ele><time>2026-04-04T17:02:33.063Z</time></trkpt><trkpt lat="45.7003972" lon="11.8568191"><ele>57.0</ele><time>2026-04-04T17:02:34.064Z</time></trkpt><trkpt lat="45.7003783" lon="11.8566677"><ele>57.0</ele><time>2026-04-04T17:02:35.064Z</time></trkpt><trkpt lat="45.700361" lon="11.856529"><ele>57.0</ele><time>2026-04-04T17:02:36.064Z</time></trkpt><trkpt lat="45.700343" lon="11.8563986"><ele>57.0</ele><time>2026-04-04T17:02:37.064Z</time></trkpt><trkpt lat="45.7003254" lon="11.8562734"><ele>57.0</ele><time>2026-04-04T17:02:38.064Z</time></trkpt><trkpt lat="45.700309" lon="11.8561465"><ele>57.0</ele><time>2026-04-04T17:02:39.064Z</time></trkpt><trkpt lat="45.700293" lon="11.8560181"><ele>57.166666666666664</ele><time>2026-04-04T17:02:40.063Z</time></trkpt><trkpt lat="45.7002787" lon="11.8558963"><ele>57.33333333333333</ele><time>2026-04-04T17:02:41.064Z</time></trkpt><trkpt lat="45.7002665" lon="11.8557913"><ele>57.5</ele><time>2026-04-04T17:02:42.063Z</time></trkpt><trkpt lat="45.7002452" lon="11.8556369"><ele>57.666666666666664</ele><time>2026-04-04T17:02:44.063Z</time></trkpt><trkpt lat="45.7002324" lon="11.855542"><ele>57.83333333333333</ele><time>2026-04-04T17:02:46.063Z</time></trkpt><trkpt lat="45.7002153" lon="11.8554455"><ele>58.0</ele><time>2026-04-04T17:04:55.064Z</time></trkpt><trkpt lat="45.7001948" lon="11.8552394"><ele>58.25</ele><time>2026-04-04T17:04:57.064Z</time></trkpt><trkpt lat="45.7001777" lon="11.8550834"><ele>58.5</ele><time>2026-04-04T17:04:58.063Z</time></trkpt><trkpt lat="45.7001556" lon="11.8548881"><ele>58.75</ele><time>2026-04-04T17:04:59.064Z</time></trkpt><trkpt lat="45.7001278" lon="11.8546572"><ele>59.0</ele><time>2026-04-04T17:05:00.064Z</time></trkpt><trkpt lat="45.700094" lon="11.8543998"><ele>58.333333333333336</ele><time>2026-04-04T17:05:01.063Z</time></trkpt><trkpt lat="45.7000571" lon="11.8541224"><ele>57.66666666666667</ele><time>2026-04-04T17:05:02.064Z</time></trkpt><trkpt lat="45.7000205" lon="11.8538296"><ele>57.0</ele><time>2026-04-04T17:05:03.063Z</time></trkpt><trkpt lat="45.6999773" lon="11.8535134"><ele>58.0</ele><time>2026-04-04T17:05:04.078Z</time></trkpt><trkpt lat="45.6999384" lon="11.8532313"><ele>59.0</ele><time>2026-04-04T17:05:05.073Z</time></trkpt><trkpt lat="45.6998965" lon="11.8529272"><ele>60.0</ele><time>2026-04-04T17:05:06.082Z</time></trkpt><trkpt lat="45.6998549" lon="11.8526237"><ele>60.66666666666667</ele><time>2026-04-04T17:05:07.072Z</time></trkpt><trkpt lat="45.6998139" lon="11.852313"><ele>61.333333333333336</ele><time>2026-04-04T17:05:08.075Z</time></trkpt><trkpt lat="45.6997714" lon="11.8520033"><ele>62.0</ele><time>2026-04-04T17:05:09.08Z</time></trkpt><trkpt lat="45.6997288" lon="11.8516903"><ele>62.0</ele><time>2026-04-04T17:05:10.08Z</time></trkpt><trkpt lat="45.6996867" lon="11.8513766"><ele>62.0</ele><time>2026-04-04T17:05:11.08Z</time></trkpt><trkpt lat="45.6996423" lon="11.8510409"><ele>60.66666666666667</ele><time>2026-04-04T17:05:12.08Z</time></trkpt><trkpt lat="45.6996021" lon="11.8507459"><ele>59.33333333333333</ele><time>2026-04-04T17:05:13.08Z</time></trkpt><trkpt lat="45.6995595" lon="11.8504321"><ele>58.0</ele><time>2026-04-04T17:05:14.079Z</time></trkpt><trkpt lat="45.6995151" lon="11.8501003"><ele>58.0</ele><time>2026-04-04T17:05:15.079Z</time></trkpt><trkpt lat="45.6994757" lon="11.8498073"><ele>58.0</ele><time>2026-04-04T17:05:16.08Z</time></trkpt><trkpt lat="45.6994336" lon="11.8494991"><ele>58.0</ele><time>2026-04-04T17:05:17.079Z</time></trkpt><trkpt lat="45.699392" lon="11.8491934"><ele>58.0</ele><time>2026-04-04T17:05:18.08Z</time></trkpt><trkpt lat="45.6993509" lon="11.8488908"><ele>58.0</ele><time>2026-04-04T17:05:19.08Z</time></trkpt><trkpt lat="45.6993085" lon="11.8485754"><ele>58.0</ele><time>2026-04-04T17:05:20.08Z</time></trkpt><trkpt lat="45.6992724" lon="11.8483116"><ele>58.0</ele><time>2026-04-04T17:05:21.08Z</time></trkpt><trkpt lat="45.699235" lon="11.8480471"><ele>58.0</ele><time>2026-04-04T17:05:22.08Z</time></trkpt><trkpt lat="45.6992" lon="11.8478066"><ele>58.0</ele><time>2026-04-04T17:05:23.08Z</time></trkpt><trkpt lat="45.6991692" lon="11.8475872"><ele>58.0</ele><time>2026-04-04T17:05:24.079Z</time></trkpt><trkpt lat="45.6991425" lon="11.8473941"><ele>58.0</ele><time>2026-04-04T17:05:25.079Z</time></trkpt><trkpt lat="45.6991274" lon="11.8472607"><ele>58.0</ele><time>2026-04-04T17:05:26.079Z</time></trkpt><trkpt lat="45.6991277" lon="11.8471419"><ele>58.0</ele><time>2026-04-04T17:05:27.079Z</time></trkpt><trkpt lat="45.6991562" lon="11.84703"><ele>58.0</ele><time>2026-04-04T17:05:28.079Z</time></trkpt><trkpt lat="45.69921" lon="11.8469461"><ele>58.0</ele><time>2026-04-04T17:05:29.079Z</time></trkpt><trkpt lat="45.6992999" lon="11.8468778"><ele>58.0</ele><time>2026-04-04T17:05:30.079Z</time></trkpt><trkpt lat="45.6994307" lon="11.8468233"><ele>58.0</ele><time>2026-04-04T17:05:31.079Z</time></trkpt><trkpt lat="45.6995711" lon="11.8467806"><ele>58.0</ele><time>2026-04-04T17:05:32.08Z</time></trkpt><trkpt lat="45.6997437" lon="11.8467307"><ele>58.666666666666664</ele><time>2026-04-04T17:05:33.079Z</time></trkpt><trkpt lat="45.6999356" lon="11.8466735"><ele>59.33333333333333</ele><time>2026-04-04T17:05:34.08Z</time></trkpt><trkpt lat="45.7001432" lon="11.8466089"><ele>60.0</ele><time>2026-04-04T17:05:35.08Z</time></trkpt><trkpt lat="45.7003789" lon="11.8465301"><ele>60.0</ele><time>2026-04-04T17:05:36.08Z</time></trkpt><trkpt lat="45.7005914" lon="11.8464544"><ele>60.0</ele><time>2026-04-04T17:05:37.079Z</time></trkpt><trkpt lat="45.7008204" lon="11.8463748"><ele>60.0</ele><time>2026-04-04T17:05:38.08Z</time></trkpt><trkpt lat="45.7010523" lon="11.846302"><ele>60.0</ele><time>2026-04-04T17:05:39.079Z</time></trkpt><trkpt lat="45.7012787" lon="11.8462343"><ele>60.0</ele><time>2026-04-04T17:05:40.079Z</time></trkpt><trkpt lat="45.7015115" lon="11.8461636"><ele>60.0</ele><time>2026-04-04T17:05:41.079Z</time></trkpt><trkpt lat="45.7017071" lon="11.8461048"><ele>60.0</ele><time>2026-04-04T17:05:42.08Z</time></trkpt><trkpt lat="45.7019083" lon="11.8460502"><ele>60.33333333333333</ele><time>2026-04-04T17:05:43.079Z</time></trkpt><trkpt lat="45.702117" lon="11.846"><ele>60.666666666666664</ele><time>2026-04-04T17:05:44.08Z</time></trkpt><trkpt lat="45.7022989" lon="11.8459616"><ele>61.0</ele><time>2026-04-04T17:05:45.079Z</time></trkpt><trkpt lat="45.7024941" lon="11.8459228"><ele>61.0</ele><time>2026-04-04T17:05:46.08Z</time></trkpt><trkpt lat="45.7027" lon="11.84588"><ele>61.0</ele><time>2026-04-04T17:05:47.079Z</time></trkpt><trkpt lat="45.7028815" lon="11.8458403"><ele>61.0</ele><time>2026-04-04T17:05:48.08Z</time></trkpt><trkpt lat="45.7030743" lon="11.8457983"><ele>61.0</ele><time>2026-04-04T17:05:49.08Z</time></trkpt><trkpt lat="45.7032599" lon="11.8457554"><ele>61.0</ele><time>2026-04-04T17:05:50.08Z</time></trkpt><trkpt lat="45.7034278" lon="11.8457124"><ele>61.0</ele><time>2026-04-04T17:05:51.079Z</time></trkpt><trkpt lat="45.7035925" lon="11.845671"><ele>61.25</ele><time>2026-04-04T17:05:52.079Z</time></trkpt><trkpt lat="45.7037259" lon="11.8456386"><ele>61.5</ele><time>2026-04-04T17:05:53.079Z</time></trkpt><trkpt lat="45.7038592" lon="11.8456052"><ele>61.75</ele><time>2026-04-04T17:05:54.079Z</time></trkpt><trkpt lat="45.7039831" lon="11.8455737"><ele>62.0</ele><time>2026-04-04T17:05:55.08Z</time></trkpt><trkpt lat="45.7040961" lon="11.8455469"><ele>62.0</ele><time>2026-04-04T17:05:56.079Z</time></trkpt><trkpt lat="45.7042084" lon="11.8455211"><ele>62.0</ele><time>2026-04-04T17:05:57.079Z</time></trkpt><trkpt lat="45.7042978" lon="11.8454998"><ele>62.0</ele><time>2026-04-04T17:05:58.08Z</time></trkpt><trkpt lat="45.7043869" lon="11.8454774"><ele>62.0</ele><time>2026-04-04T17:05:59.079Z</time></trkpt><trkpt lat="45.7044762" lon="11.845455"><ele>62.0</ele><time>2026-04-04T17:06:00.08Z</time></trkpt><trkpt lat="45.704553" lon="11.8454362"><ele>62.333333333333336</ele><time>2026-04-04T17:06:01.08Z</time></trkpt><trkpt lat="45.7046383" lon="11.8454171"><ele>62.66666666666667</ele><time>2026-04-04T17:06:02.08Z</time></trkpt><trkpt lat="45.7047339" lon="11.845396"><ele>63.0</ele><time>2026-04-04T17:06:03.079Z</time></trkpt><trkpt lat="45.7048165" lon="11.8453753"><ele>63.33333333333333</ele><time>2026-04-04T17:06:04.079Z</time></trkpt><trkpt lat="45.7049054" lon="11.8453521"><ele>63.666666666666664</ele><time>2026-04-04T17:06:05.08Z</time></trkpt><trkpt lat="45.7049782" lon="11.8453342"><ele>64.0</ele><time>2026-04-04T17:06:06.079Z</time></trkpt><trkpt lat="45.7050509" lon="11.8453168"><ele>63.99999999999999</ele><time>2026-04-04T17:06:07.08Z</time></trkpt><trkpt lat="45.705122" lon="11.8452995"><ele>64.0</ele><time>2026-04-04T17:06:08.079Z</time></trkpt><trkpt lat="45.7052452" lon="11.8452699"><ele>64.0</ele><time>2026-04-04T17:06:10.079Z</time></trkpt><trkpt lat="45.7053112" lon="11.8452551"><ele>64.0</ele><time>2026-04-04T17:06:11.08Z</time></trkpt><trkpt lat="45.7053776" lon="11.8452398"><ele>63.99999999999999</ele><time>2026-04-04T17:06:12.08Z</time></trkpt><trkpt lat="45.7054446" lon="11.8452229"><ele>64.0</ele><time>2026-04-04T17:06:13.079Z</time></trkpt><trkpt lat="45.7055357" lon="11.8451995"><ele>64.0</ele><time>2026-04-04T17:06:15.08Z</time></trkpt><trkpt lat="45.7056048" lon="11.8451836"><ele>64.0</ele><time>2026-04-04T17:06:17.079Z</time></trkpt><trkpt lat="45.7056942" lon="11.8451656"><ele>64.0</ele><time>2026-04-04T17:06:19.079Z</time></trkpt><trkpt lat="45.7058394" lon="11.8451199"><ele>64.0</ele><time>2026-04-04T17:06:21.079Z</time></trkpt><trkpt lat="45.7059433" lon="11.8450844"><ele>64.0</ele><time>2026-04-04T17:06:22.079Z</time></trkpt><trkpt lat="45.7060821" lon="11.8450506"><ele>64.0</ele><time>2026-04-04T17:06:23.08Z</time></trkpt><trkpt lat="45.7062543" lon="11.8450161"><ele>64.0</ele><time>2026-04-04T17:06:24.08Z</time></trkpt><trkpt lat="45.706425" lon="11.8449746"><ele>64.0</ele><time>2026-04-04T17:06:25.08Z</time></trkpt><trkpt lat="45.7066149" lon="11.8449206"><ele>64.0</ele><time>2026-04-04T17:06:26.063Z</time></trkpt><trkpt lat="45.7068177" lon="11.8448538"><ele>64.0</ele><time>2026-04-04T17:06:27.064Z</time></trkpt><trkpt lat="45.7070275" lon="11.8447841"><ele>64.0</ele><time>2026-04-04T17:06:28.064Z</time></trkpt><trkpt lat="45.7072361" lon="11.8447164"><ele>63.666666666666664</ele><time>2026-04-04T17:06:29.063Z</time></trkpt><trkpt lat="45.7074353" lon="11.8446499"><ele>63.33333333333333</ele><time>2026-04-04T17:06:30.063Z</time></trkpt><trkpt lat="45.7076273" lon="11.8445853"><ele>63.0</ele><time>2026-04-04T17:06:31.064Z</time></trkpt><trkpt lat="45.7078108" lon="11.8445224"><ele>62.66666666666667</ele><time>2026-04-04T17:06:32.063Z</time></trkpt><trkpt lat="45.7079883" lon="11.8444632"><ele>62.333333333333336</ele><time>2026-04-04T17:06:33.063Z</time></trkpt><trkpt lat="45.7081633" lon="11.8444038"><ele>62.0</ele><time>2026-04-04T17:06:34.063Z</time></trkpt><trkpt lat="45.7083385" lon="11.8443431"><ele>62.66666666666667</ele><time>2026-04-04T17:06:35.063Z</time></trkpt><trkpt lat="45.7085131" lon="11.8442874"><ele>63.33333333333333</ele><time>2026-04-04T17:06:36.063Z</time></trkpt><trkpt lat="45.708687" lon="11.8442322"><ele>64.0</ele><time>2026-04-04T17:06:37.063Z</time></trkpt><trkpt lat="45.7088605" lon="11.8441797"><ele>64.33333333333333</ele><time>2026-04-04T17:06:38.063Z</time></trkpt><trkpt lat="45.7090337" lon="11.8441286"><ele>64.66666666666667</ele><time>2026-04-04T17:06:39.063Z</time></trkpt><trkpt lat="45.7092077" lon="11.8440824"><ele>65.0</ele><time>2026-04-04T17:06:40.063Z</time></trkpt><trkpt lat="45.7093808" lon="11.8440383"><ele>64.66666666666667</ele><time>2026-04-04T17:06:41.063Z</time></trkpt><trkpt lat="45.7095524" lon="11.8439999"><ele>64.33333333333333</ele><time>2026-04-04T17:06:42.063Z</time></trkpt><trkpt lat="45.7097238" lon="11.8439634"><ele>64.0</ele><time>2026-04-04T17:06:43.064Z</time></trkpt><trkpt lat="45.7098924" lon="11.8439271"><ele>64.0</ele><time>2026-04-04T17:06:44.063Z</time></trkpt><trkpt lat="45.7100581" lon="11.8438899"><ele>64.0</ele><time>2026-04-04T17:06:45.064Z</time></trkpt><trkpt lat="45.7102213" lon="11.8438551"><ele>64.0</ele><time>2026-04-04T17:06:46.063Z</time></trkpt><trkpt lat="45.7103773" lon="11.8438215"><ele>64.0</ele><time>2026-04-04T17:06:47.063Z</time></trkpt><trkpt lat="45.7105258" lon="11.8437887"><ele>64.0</ele><time>2026-04-04T17:06:48.063Z</time></trkpt><trkpt lat="45.710664" lon="11.8437577"><ele>64.0</ele><time>2026-04-04T17:06:49.064Z</time></trkpt><trkpt lat="45.7107869" lon="11.8437278"><ele>64.0</ele><time>2026-04-04T17:06:50.064Z</time></trkpt><trkpt lat="45.7108959" lon="11.8436997"><ele>63.99999999999999</ele><time>2026-04-04T17:06:51.064Z</time></trkpt><trkpt lat="45.7109822" lon="11.8436844"><ele>64.0</ele><time>2026-04-04T17:06:52.063Z</time></trkpt><trkpt lat="45.7110541" lon="11.8436806"><ele>64.0</ele><time>2026-04-04T17:06:53.063Z</time></trkpt><trkpt lat="45.7111489" lon="11.8436848"><ele>64.0</ele><time>2026-04-04T17:06:55.064Z</time></trkpt><trkpt lat="45.711224" lon="11.8436557"><ele>63.99999999999999</ele><time>2026-04-04T17:07:13.063Z</time></trkpt><trkpt lat="45.7112469" lon="11.8435301"><ele>64.0</ele><time>2026-04-04T17:07:15.064Z</time></trkpt><trkpt lat="45.7112454" lon="11.843424"><ele>64.5</ele><time>2026-04-04T17:07:16.063Z</time></trkpt><trkpt lat="45.7112364" lon="11.8432906"><ele>65.0</ele><time>2026-04-04T17:07:17.064Z</time></trkpt><trkpt lat="45.7112255" lon="11.8431298"><ele>65.5</ele><time>2026-04-04T17:07:18.064Z</time></trkpt><trkpt lat="45.7112144" lon="11.8429492"><ele>66.0</ele><time>2026-04-04T17:07:19.063Z</time></trkpt><trkpt lat="45.7111949" lon="11.8427563"><ele>66.33333333333333</ele><time>2026-04-04T17:07:20.063Z</time></trkpt><trkpt lat="45.7111718" lon="11.8425484"><ele>66.66666666666666</ele><time>2026-04-04T17:07:21.063Z</time></trkpt><trkpt lat="45.7111508" lon="11.8423299"><ele>67.0</ele><time>2026-04-04T17:07:22.063Z</time></trkpt><trkpt lat="45.7111235" lon="11.8421101"><ele>67.0</ele><time>2026-04-04T17:07:23.064Z</time></trkpt><trkpt lat="45.7110937" lon="11.8418879"><ele>67.0</ele><time>2026-04-04T17:07:24.064Z</time></trkpt><trkpt lat="45.7110569" lon="11.841669"><ele>67.0</ele><time>2026-04-04T17:07:25.063Z</time></trkpt><trkpt lat="45.7110207" lon="11.8414505"><ele>67.33333333333333</ele><time>2026-04-04T17:07:26.064Z</time></trkpt><trkpt lat="45.7109859" lon="11.8412377"><ele>67.66666666666667</ele><time>2026-04-04T17:07:27.064Z</time></trkpt><trkpt lat="45.710954" lon="11.8410274"><ele>68.0</ele><time>2026-04-04T17:07:28.063Z</time></trkpt><trkpt lat="45.7109202" lon="11.8408224"><ele>68.0</ele><time>2026-04-04T17:07:29.064Z</time></trkpt><trkpt lat="45.7108886" lon="11.8406222"><ele>68.0</ele><time>2026-04-04T17:07:30.064Z</time></trkpt><trkpt lat="45.7108538" lon="11.8404224"><ele>68.0</ele><time>2026-04-04T17:07:31.063Z</time></trkpt><trkpt lat="45.7108157" lon="11.8402279"><ele>68.0</ele><time>2026-04-04T17:07:32.063Z</time></trkpt><trkpt lat="45.71078" lon="11.8400386"><ele>68.0</ele><time>2026-04-04T17:07:33.064Z</time></trkpt><trkpt lat="45.7107476" lon="11.8398506"><ele>68.0</ele><time>2026-04-04T17:07:34.064Z</time></trkpt><trkpt lat="45.7107218" lon="11.8396658"><ele>68.0</ele><time>2026-04-04T17:07:35.063Z</time></trkpt><trkpt lat="45.7106951" lon="11.8394845"><ele>68.0</ele><time>2026-04-04T17:07:36.063Z</time></trkpt><trkpt lat="45.7106653" lon="11.8393066"><ele>68.0</ele><time>2026-04-04T17:07:37.064Z</time></trkpt><trkpt lat="45.7106331" lon="11.8391331"><ele>68.0</ele><time>2026-04-04T17:07:38.064Z</time></trkpt><trkpt lat="45.7106004" lon="11.838956"><ele>68.0</ele><time>2026-04-04T17:07:39.064Z</time></trkpt><trkpt lat="45.71057" lon="11.8387767"><ele>68.0</ele><time>2026-04-04T17:07:40.063Z</time></trkpt><trkpt lat="45.7105422" lon="11.8385943"><ele>67.75</ele><time>2026-04-04T17:07:41.063Z</time></trkpt><trkpt lat="45.7105139" lon="11.8384087"><ele>67.5</ele><time>2026-04-04T17:07:42.063Z</time></trkpt><trkpt lat="45.7104839" lon="11.8382222"><ele>67.25</ele><time>2026-04-04T17:07:43.064Z</time></trkpt><trkpt lat="45.7104533" lon="11.8380353"><ele>67.0</ele><time>2026-04-04T17:07:44.063Z</time></trkpt><trkpt lat="45.7104249" lon="11.8378553"><ele>67.0</ele><time>2026-04-04T17:07:45.063Z</time></trkpt><trkpt lat="45.7103974" lon="11.8376794"><ele>67.0</ele><time>2026-04-04T17:07:46.064Z</time></trkpt><trkpt lat="45.7103687" lon="11.8375038"><ele>67.0</ele><time>2026-04-04T17:07:47.063Z</time></trkpt><trkpt lat="45.7103409" lon="11.8373288"><ele>67.0</ele><time>2026-04-04T17:07:48.063Z</time></trkpt><trkpt lat="45.7103114" lon="11.8371515"><ele>67.0</ele><time>2026-04-04T17:07:49.063Z</time></trkpt><trkpt lat="45.7102821" lon="11.8369693"><ele>67.0</ele><time>2026-04-04T17:07:50.064Z</time></trkpt><trkpt lat="45.7102527" lon="11.8367863"><ele>67.0</ele><time>2026-04-04T17:07:51.063Z</time></trkpt><trkpt lat="45.7102267" lon="11.8365993"><ele>67.0</ele><time>2026-04-04T17:07:52.064Z</time></trkpt><trkpt lat="45.7102034" lon="11.8364085"><ele>67.0</ele><time>2026-04-04T17:07:53.064Z</time></trkpt><trkpt lat="45.7101799" lon="11.8362135"><ele>67.0</ele><time>2026-04-04T17:07:54.064Z</time></trkpt><trkpt lat="45.7101587" lon="11.8360135"><ele>67.0</ele><time>2026-04-04T17:07:55.063Z</time></trkpt><trkpt lat="45.710135" lon="11.835803"><ele>67.0</ele><time>2026-04-04T17:07:56.063Z</time></trkpt><trkpt lat="45.7101089" lon="11.8355916"><ele>67.33333333333333</ele><time>2026-04-04T17:07:57.063Z</time></trkpt><trkpt lat="45.7100833" lon="11.835378"><ele>67.66666666666667</ele><time>2026-04-04T17:07:58.063Z</time></trkpt><trkpt lat="45.7100598" lon="11.8351621"><ele>68.0</ele><time>2026-04-04T17:07:59.064Z</time></trkpt><trkpt lat="45.7100319" lon="11.8349441"><ele>68.0</ele><time>2026-04-04T17:08:00.064Z</time></trkpt><trkpt lat="45.7100031" lon="11.8347201"><ele>68.0</ele><time>2026-04-04T17:08:01.063Z</time></trkpt><trkpt lat="45.7099768" lon="11.8344943"><ele>68.0</ele><time>2026-04-04T17:08:02.063Z</time></trkpt><trkpt lat="45.7099489" lon="11.8342655"><ele>68.33333333333334</ele><time>2026-04-04T17:08:03.064Z</time></trkpt><trkpt lat="45.7099209" lon="11.8340348"><ele>68.66666666666667</ele><time>2026-04-04T17:08:04.064Z</time></trkpt><trkpt lat="45.7098909" lon="11.8338011"><ele>69.0</ele><time>2026-04-04T17:08:05.064Z</time></trkpt><trkpt lat="45.7098609" lon="11.8335626"><ele>68.66666666666667</ele><time>2026-04-04T17:08:06.064Z</time></trkpt><trkpt lat="45.7098325" lon="11.8333213"><ele>68.33333333333334</ele><time>2026-04-04T17:08:07.063Z</time></trkpt><trkpt lat="45.7098042" lon="11.8330763"><ele>68.0</ele><time>2026-04-04T17:08:08.063Z</time></trkpt><trkpt lat="45.709775" lon="11.8328289"><ele>68.33333333333334</ele><time>2026-04-04T17:08:09.063Z</time></trkpt><trkpt lat="45.709745" lon="11.8325828"><ele>68.66666666666667</ele><time>2026-04-04T17:08:10.064Z</time></trkpt><trkpt lat="45.7097156" lon="11.8323353"><ele>69.0</ele><time>2026-04-04T17:08:11.064Z</time></trkpt><trkpt lat="45.7096853" lon="11.8320887"><ele>69.0</ele><time>2026-04-04T17:08:12.064Z</time></trkpt><trkpt lat="45.7096569" lon="11.8318435"><ele>69.0</ele><time>2026-04-04T17:08:13.064Z</time></trkpt><trkpt lat="45.7096265" lon="11.8315994"><ele>69.0</ele><time>2026-04-04T17:08:14.064Z</time></trkpt><trkpt lat="45.7095957" lon="11.8313537"><ele>69.0</ele><time>2026-04-04T17:08:15.063Z</time></trkpt><trkpt lat="45.7095627" lon="11.8311062"><ele>69.0</ele><time>2026-04-04T17:08:16.063Z</time></trkpt><trkpt lat="45.70953" lon="11.8308554"><ele>69.0</ele><time>2026-04-04T17:08:17.063Z</time></trkpt><trkpt lat="45.7094964" lon="11.8306022"><ele>69.0</ele><time>2026-04-04T17:08:18.064Z</time></trkpt><trkpt lat="45.7094592" lon="11.8303474"><ele>69.0</ele><time>2026-04-04T17:08:19.063Z</time></trkpt><trkpt lat="45.7094169" lon="11.8300933"><ele>69.0</ele><time>2026-04-04T17:08:20.063Z</time></trkpt><trkpt lat="45.7093699" lon="11.8298418"><ele>69.0</ele><time>2026-04-04T17:08:21.063Z</time></trkpt><trkpt lat="45.7093193" lon="11.8295882"><ele>69.0</ele><time>2026-04-04T17:08:22.063Z</time></trkpt><trkpt lat="45.7092661" lon="11.8293323"><ele>69.0</ele><time>2026-04-04T17:08:23.063Z</time></trkpt><trkpt lat="45.7092156" lon="11.8290751"><ele>69.0</ele><time>2026-04-04T17:08:24.064Z</time></trkpt><trkpt lat="45.7091641" lon="11.8288178"><ele>69.0</ele><time>2026-04-04T17:08:25.064Z</time></trkpt><trkpt lat="45.7091131" lon="11.8285619"><ele>69.0</ele><time>2026-04-04T17:08:26.064Z</time></trkpt><trkpt lat="45.7090647" lon="11.8283016"><ele>69.0</ele><time>2026-04-04T17:08:27.063Z</time></trkpt><trkpt lat="45.7090213" lon="11.8280406"><ele>69.0</ele><time>2026-04-04T17:08:28.063Z</time></trkpt><trkpt lat="45.7089827" lon="11.8277761"><ele>69.0</ele><time>2026-04-04T17:08:29.064Z</time></trkpt><trkpt lat="45.7089521" lon="11.827507"><ele>69.0</ele><time>2026-04-04T17:08:30.064Z</time></trkpt><trkpt lat="45.7089287" lon="11.8272353"><ele>69.0</ele><time>2026-04-04T17:08:31.064Z</time></trkpt><trkpt lat="45.7089097" lon="11.8269597"><ele>69.0</ele><time>2026-04-04T17:08:32.064Z</time></trkpt><trkpt lat="45.7088897" lon="11.8266806"><ele>69.0</ele><time>2026-04-04T17:08:33.064Z</time></trkpt><trkpt lat="45.7088725" lon="11.826401"><ele>69.0</ele><time>2026-04-04T17:08:34.064Z</time></trkpt><trkpt lat="45.7088552" lon="11.8261218"><ele>69.0</ele><time>2026-04-04T17:08:35.064Z</time></trkpt><trkpt lat="45.708835" lon="11.8258499"><ele>69.33333333333333</ele><time>2026-04-04T17:08:36.064Z</time></trkpt><trkpt lat="45.7088147" lon="11.8255843"><ele>69.66666666666666</ele><time>2026-04-04T17:08:37.064Z</time></trkpt><trkpt lat="45.7087931" lon="11.8253311"><ele>70.0</ele><time>2026-04-04T17:08:38.064Z</time></trkpt><trkpt lat="45.7087684" lon="11.8250909"><ele>70.0</ele><time>2026-04-04T17:08:39.063Z</time></trkpt><trkpt lat="45.7087421" lon="11.8248722"><ele>70.0</ele><time>2026-04-04T17:08:40.063Z</time></trkpt><trkpt lat="45.708712" lon="11.824679"><ele>70.0</ele><time>2026-04-04T17:08:41.064Z</time></trkpt><trkpt lat="45.7086821" lon="11.8245079"><ele>70.0</ele><time>2026-04-04T17:08:42.064Z</time></trkpt><trkpt lat="45.7086555" lon="11.824362"><ele>70.16666666666666</ele><time>2026-04-04T17:08:43.064Z</time></trkpt><trkpt lat="45.70863" lon="11.8242469"><ele>70.33333333333333</ele><time>2026-04-04T17:08:44.063Z</time></trkpt><trkpt lat="45.7086206" lon="11.8241498"><ele>70.5</ele><time>2026-04-04T17:08:45.063Z</time></trkpt><trkpt lat="45.70863" lon="11.8240503"><ele>70.66666666666667</ele><time>2026-04-04T17:08:46.063Z</time></trkpt><trkpt lat="45.708653" lon="11.8239464"><ele>70.83333333333334</ele><time>2026-04-04T17:08:47.064Z</time></trkpt><trkpt lat="45.708696" lon="11.8238506"><ele>71.0</ele><time>2026-04-04T17:08:48.064Z</time></trkpt><trkpt lat="45.7087607" lon="11.8237938"><ele>71.0</ele><time>2026-04-04T17:08:49.063Z</time></trkpt><trkpt lat="45.7088404" lon="11.823762"><ele>71.0</ele><time>2026-04-04T17:08:50.063Z</time></trkpt><trkpt lat="45.7089358" lon="11.8237309"><ele>71.0</ele><time>2026-04-04T17:08:51.064Z</time></trkpt><trkpt lat="45.7090484" lon="11.8236974"><ele>71.0</ele><time>2026-04-04T17:08:52.064Z</time></trkpt><trkpt lat="45.7091697" lon="11.8236603"><ele>71.0</ele><time>2026-04-04T17:08:53.064Z</time></trkpt><trkpt lat="45.7092969" lon="11.8236191"><ele>71.25</ele><time>2026-04-04T17:08:54.064Z</time></trkpt><trkpt lat="45.7094278" lon="11.8235764"><ele>71.5</ele><time>2026-04-04T17:08:55.063Z</time></trkpt><trkpt lat="45.7095593" lon="11.8235344"><ele>71.75</ele><time>2026-04-04T17:08:56.064Z</time></trkpt><trkpt lat="45.7096878" lon="11.82349"><ele>72.0</ele><time>2026-04-04T17:08:57.064Z</time></trkpt><trkpt lat="45.7098063" lon="11.8234491"><ele>71.8</ele><time>2026-04-04T17:08:58.064Z</time></trkpt><trkpt lat="45.7099162" lon="11.8234127"><ele>71.6</ele><time>2026-04-04T17:08:59.063Z</time></trkpt><trkpt lat="45.7100158" lon="11.8233879"><ele>71.39999999999999</ele><time>2026-04-04T17:09:00.064Z</time></trkpt><trkpt lat="45.7101042" lon="11.8233641"><ele>71.2</ele><time>2026-04-04T17:09:01.064Z</time></trkpt><trkpt lat="45.7101884" lon="11.8233486"><ele>71.0</ele><time>2026-04-04T17:09:02.064Z</time></trkpt><trkpt lat="45.7102667" lon="11.8233352"><ele>71.0</ele><time>2026-04-04T17:09:03.064Z</time></trkpt><trkpt lat="45.7103322" lon="11.8233096"><ele>71.0</ele><time>2026-04-04T17:09:04.064Z</time></trkpt><trkpt lat="45.7103816" lon="11.8232529"><ele>71.0</ele><time>2026-04-04T17:09:05.064Z</time></trkpt><trkpt lat="45.7104213" lon="11.8231596"><ele>71.0</ele><time>2026-04-04T17:09:06.064Z</time></trkpt><trkpt lat="45.7104472" lon="11.8230348"><ele>71.0</ele><time>2026-04-04T17:09:07.064Z</time></trkpt><trkpt lat="45.7104709" lon="11.8228828"><ele>71.0</ele><time>2026-04-04T17:09:08.063Z</time></trkpt><trkpt lat="45.7105018" lon="11.8226976"><ele>70.66666666666667</ele><time>2026-04-04T17:09:09.063Z</time></trkpt><trkpt lat="45.7105339" lon="11.8224721"><ele>70.33333333333333</ele><time>2026-04-04T17:09:10.063Z</time></trkpt><trkpt lat="45.7105711" lon="11.8222131"><ele>70.0</ele><time>2026-04-04T17:09:11.064Z</time></trkpt><trkpt lat="45.7106087" lon="11.821922"><ele>70.5</ele><time>2026-04-04T17:09:12.063Z</time></trkpt><trkpt lat="45.7106441" lon="11.8216052"><ele>71.0</ele><time>2026-04-04T17:09:13.063Z</time></trkpt><trkpt lat="45.7106807" lon="11.8212693"><ele>71.0</ele><time>2026-04-04T17:09:14.063Z</time></trkpt><trkpt lat="45.7107205" lon="11.8209405"><ele>71.0</ele><time>2026-04-04T17:09:15.064Z</time></trkpt><trkpt lat="45.7107626" lon="11.8206307"><ele>71.0</ele><time>2026-04-04T17:09:16.064Z</time></trkpt><trkpt lat="45.7108068" lon="11.8203361"><ele>71.0</ele><time>2026-04-04T17:09:17.063Z</time></trkpt><trkpt lat="45.7108524" lon="11.8200571"><ele>71.0</ele><time>2026-04-04T17:09:18.064Z</time></trkpt><trkpt lat="45.7108953" lon="11.8197865"><ele>71.33333333333334</ele><time>2026-04-04T17:09:19.063Z</time></trkpt><trkpt lat="45.710942" lon="11.8195181"><ele>71.66666666666667</ele><time>2026-04-04T17:09:20.063Z</time></trkpt><trkpt lat="45.7109913" lon="11.8192538"><ele>72.0</ele><time>2026-04-04T17:09:21.063Z</time></trkpt><trkpt lat="45.7110424" lon="11.8189966"><ele>72.33333333333333</ele><time>2026-04-04T17:09:22.063Z</time></trkpt><trkpt lat="45.7110949" lon="11.8187472"><ele>72.66666666666666</ele><time>2026-04-04T17:09:23.064Z</time></trkpt><trkpt lat="45.7111449" lon="11.8185041"><ele>73.0</ele><time>2026-04-04T17:09:24.063Z</time></trkpt><trkpt lat="45.7111932" lon="11.8182633"><ele>73.0</ele><time>2026-04-04T17:09:25.063Z</time></trkpt><trkpt lat="45.7112388" lon="11.8180202"><ele>73.0</ele><time>2026-04-04T17:09:26.064Z</time></trkpt><trkpt lat="45.7112818" lon="11.817774"><ele>73.0</ele><time>2026-04-04T17:09:27.064Z</time></trkpt><trkpt lat="45.7113194" lon="11.8175275"><ele>73.0</ele><time>2026-04-04T17:09:28.064Z</time></trkpt><trkpt lat="45.7113541" lon="11.81728"><ele>73.0</ele><time>2026-04-04T17:09:29.064Z</time></trkpt><trkpt lat="45.7113905" lon="11.8170362"><ele>73.0</ele><time>2026-04-04T17:09:30.063Z</time></trkpt><trkpt lat="45.7114266" lon="11.8167921"><ele>72.66666666666666</ele><time>2026-04-04T17:09:31.063Z</time></trkpt><trkpt lat="45.7114596" lon="11.8165492"><ele>72.33333333333333</ele><time>2026-04-04T17:09:32.063Z</time></trkpt><trkpt lat="45.7114924" lon="11.8163098"><ele>72.0</ele><time>2026-04-04T17:09:33.063Z</time></trkpt><trkpt lat="45.7115257" lon="11.816078"><ele>72.0</ele><time>2026-04-04T17:09:34.063Z</time></trkpt><trkpt lat="45.7115593" lon="11.8158534"><ele>72.0</ele><time>2026-04-04T17:09:35.063Z</time></trkpt><trkpt lat="45.7115902" lon="11.8156313"><ele>72.0</ele><time>2026-04-04T17:09:36.064Z</time></trkpt><trkpt lat="45.7116187" lon="11.8154101"><ele>72.0</ele><time>2026-04-04T17:09:37.064Z</time></trkpt><trkpt lat="45.711646" lon="11.8151933"><ele>72.0</ele><time>2026-04-04T17:09:38.064Z</time></trkpt><trkpt lat="45.7116741" lon="11.8149783"><ele>72.0</ele><time>2026-04-04T17:09:39.064Z</time></trkpt><trkpt lat="45.7117024" lon="11.8147655"><ele>72.66666666666667</ele><time>2026-04-04T17:09:40.063Z</time></trkpt><trkpt lat="45.7117273" lon="11.8145498"><ele>73.33333333333334</ele><time>2026-04-04T17:09:41.064Z</time></trkpt><trkpt lat="45.7117471" lon="11.8143308"><ele>74.0</ele><time>2026-04-04T17:09:42.063Z</time></trkpt><trkpt lat="45.7117646" lon="11.8141077"><ele>74.0</ele><time>2026-04-04T17:09:43.063Z</time></trkpt><trkpt lat="45.7117775" lon="11.8138829"><ele>74.0</ele><time>2026-04-04T17:09:44.064Z</time></trkpt><trkpt lat="45.7117869" lon="11.8136551"><ele>74.0</ele><time>2026-04-04T17:09:45.064Z</time></trkpt><trkpt lat="45.7117982" lon="11.8134242"><ele>74.0</ele><time>2026-04-04T17:09:46.063Z</time></trkpt><trkpt lat="45.7118153" lon="11.8131906"><ele>74.0</ele><time>2026-04-04T17:09:47.064Z</time></trkpt><trkpt lat="45.7118444" lon="11.8129524"><ele>74.0</ele><time>2026-04-04T17:09:48.063Z</time></trkpt><trkpt lat="45.7118796" lon="11.8127151"><ele>74.0</ele><time>2026-04-04T17:09:49.064Z</time></trkpt><trkpt lat="45.7119171" lon="11.8124729"><ele>74.0</ele><time>2026-04-04T17:09:50.063Z</time></trkpt><trkpt lat="45.7119564" lon="11.8122267"><ele>74.0</ele><time>2026-04-04T17:09:51.063Z</time></trkpt><trkpt lat="45.7119979" lon="11.8119742"><ele>74.33333333333334</ele><time>2026-04-04T17:09:52.064Z</time></trkpt><trkpt lat="45.7120376" lon="11.8117225"><ele>74.66666666666667</ele><time>2026-04-04T17:09:53.064Z</time></trkpt><trkpt lat="45.7120803" lon="11.8114674"><ele>75.0</ele><time>2026-04-04T17:09:54.063Z</time></trkpt><trkpt lat="45.7121228" lon="11.8112073"><ele>75.33333333333333</ele><time>2026-04-04T17:09:55.063Z</time></trkpt><trkpt lat="45.7121645" lon="11.8109464"><ele>75.66666666666666</ele><time>2026-04-04T17:09:56.064Z</time></trkpt><trkpt lat="45.7122057" lon="11.8106839"><ele>76.0</ele><time>2026-04-04T17:09:57.064Z</time></trkpt><trkpt lat="45.7122467" lon="11.810422"><ele>76.0</ele><time>2026-04-04T17:09:58.063Z</time></trkpt><trkpt lat="45.712287" lon="11.8101745"><ele>76.0</ele><time>2026-04-04T17:09:59.064Z</time></trkpt><trkpt lat="45.7123262" lon="11.8099297"><ele>76.0</ele><time>2026-04-04T17:10:00.063Z</time></trkpt><trkpt lat="45.7123652" lon="11.8096904"><ele>76.0</ele><time>2026-04-04T17:10:01.063Z</time></trkpt><trkpt lat="45.7124016" lon="11.809462"><ele>76.0</ele><time>2026-04-04T17:10:02.063Z</time></trkpt><trkpt lat="45.712435" lon="11.8092338"><ele>76.0</ele><time>2026-04-04T17:10:03.064Z</time></trkpt><trkpt lat="45.7124682" lon="11.8090072"><ele>76.0</ele><time>2026-04-04T17:10:04.064Z</time></trkpt><trkpt lat="45.7125057" lon="11.8087786"><ele>76.0</ele><time>2026-04-04T17:10:05.063Z</time></trkpt><trkpt lat="45.7125493" lon="11.808549"><ele>76.0</ele><time>2026-04-04T17:10:06.064Z</time></trkpt><trkpt lat="45.712601" lon="11.8083158"><ele>76.0</ele><time>2026-04-04T17:10:07.064Z</time></trkpt><trkpt lat="45.7126558" lon="11.8080781"><ele>76.0</ele><time>2026-04-04T17:10:08.063Z</time></trkpt><trkpt lat="45.7127135" lon="11.8078384"><ele>76.0</ele><time>2026-04-04T17:10:09.063Z</time></trkpt><trkpt lat="45.7127725" lon="11.8075973"><ele>75.66666666666666</ele><time>2026-04-04T17:10:10.063Z</time></trkpt><trkpt lat="45.7128328" lon="11.8073518"><ele>75.33333333333333</ele><time>2026-04-04T17:10:11.063Z</time></trkpt><trkpt lat="45.7128943" lon="11.8071062"><ele>75.0</ele><time>2026-04-04T17:10:12.063Z</time></trkpt><trkpt lat="45.7129566" lon="11.8068569"><ele>75.0</ele><time>2026-04-04T17:10:13.063Z</time></trkpt><trkpt lat="45.7130172" lon="11.8066078"><ele>75.0</ele><time>2026-04-04T17:10:14.063Z</time></trkpt><trkpt lat="45.7130763" lon="11.806365"><ele>75.0</ele><time>2026-04-04T17:10:15.063Z</time></trkpt><trkpt lat="45.713134" lon="11.8061275"><ele>75.33333333333333</ele><time>2026-04-04T17:10:16.064Z</time></trkpt><trkpt lat="45.7131909" lon="11.8058967"><ele>75.66666666666666</ele><time>2026-04-04T17:10:17.064Z</time></trkpt><trkpt lat="45.7132455" lon="11.8056714"><ele>76.0</ele><time>2026-04-04T17:10:18.063Z</time></trkpt><trkpt lat="45.7133002" lon="11.8054498"><ele>76.0</ele><time>2026-04-04T17:10:19.064Z</time></trkpt><trkpt lat="45.7133556" lon="11.8052359"><ele>76.0</ele><time>2026-04-04T17:10:20.064Z</time></trkpt><trkpt lat="45.7134106" lon="11.8050203"><ele>76.0</ele><time>2026-04-04T17:10:21.064Z</time></trkpt><trkpt lat="45.713466" lon="11.8048059"><ele>76.25</ele><time>2026-04-04T17:10:22.064Z</time></trkpt><trkpt lat="45.7135167" lon="11.8045962"><ele>76.5</ele><time>2026-04-04T17:10:23.064Z</time></trkpt><trkpt lat="45.71356" lon="11.8043998"><ele>76.75</ele><time>2026-04-04T17:10:24.063Z</time></trkpt><trkpt lat="45.7135964" lon="11.8042297"><ele>77.0</ele><time>2026-04-04T17:10:25.063Z</time></trkpt><trkpt lat="45.7136266" lon="11.80409"><ele>77.0</ele><time>2026-04-04T17:10:26.064Z</time></trkpt><trkpt lat="45.7136471" lon="11.8039919"><ele>77.0</ele><time>2026-04-04T17:10:27.064Z</time></trkpt><trkpt lat="45.7136955" lon="11.8038558"><ele>77.0</ele><time>2026-04-04T17:10:29.064Z</time></trkpt><trkpt lat="45.7137469" lon="11.8036821"><ele>77.0</ele><time>2026-04-04T17:10:31.063Z</time></trkpt><trkpt lat="45.7137462" lon="11.8035565"><ele>77.0</ele><time>2026-04-04T17:10:32.064Z</time></trkpt><trkpt lat="45.7137453" lon="11.8033993"><ele>77.0</ele><time>2026-04-04T17:10:33.063Z</time></trkpt><trkpt lat="45.71375" lon="11.8032239"><ele>77.0</ele><time>2026-04-04T17:10:34.063Z</time></trkpt><trkpt lat="45.7137672" lon="11.8030209"><ele>77.0</ele><time>2026-04-04T17:10:35.064Z</time></trkpt><trkpt lat="45.7137941" lon="11.8028015"><ele>77.0</ele><time>2026-04-04T17:10:36.063Z</time></trkpt><trkpt lat="45.7138321" lon="11.8025761"><ele>76.66666666666667</ele><time>2026-04-04T17:10:37.064Z</time></trkpt><trkpt lat="45.7138728" lon="11.8023452"><ele>76.33333333333333</ele><time>2026-04-04T17:10:38.063Z</time></trkpt><trkpt lat="45.7139112" lon="11.8021027"><ele>76.0</ele><time>2026-04-04T17:10:39.063Z</time></trkpt><trkpt lat="45.7139516" lon="11.8018536"><ele>76.66666666666666</ele><time>2026-04-04T17:10:40.063Z</time></trkpt><trkpt lat="45.7139909" lon="11.801598"><ele>77.33333333333333</ele><time>2026-04-04T17:10:41.063Z</time></trkpt><trkpt lat="45.7140264" lon="11.8013349"><ele>78.0</ele><time>2026-04-04T17:10:42.064Z</time></trkpt><trkpt lat="45.7140567" lon="11.8010674"><ele>78.33333333333333</ele><time>2026-04-04T17:10:43.064Z</time></trkpt><trkpt lat="45.7140803" lon="11.8007985"><ele>78.66666666666666</ele><time>2026-04-04T17:10:44.064Z</time></trkpt><trkpt lat="45.7141003" lon="11.8005289"><ele>79.0</ele><time>2026-04-04T17:10:45.064Z</time></trkpt><trkpt lat="45.7141183" lon="11.8002653"><ele>79.0</ele><time>2026-04-04T17:10:46.063Z</time></trkpt><trkpt lat="45.7141336" lon="11.800016"><ele>79.0</ele><time>2026-04-04T17:10:47.063Z</time></trkpt><trkpt lat="45.7141481" lon="11.7997799"><ele>79.0</ele><time>2026-04-04T17:10:48.064Z</time></trkpt><trkpt lat="45.7141635" lon="11.7995572"><ele>79.0</ele><time>2026-04-04T17:10:49.063Z</time></trkpt><trkpt lat="45.7141758" lon="11.7993466"><ele>79.0</ele><time>2026-04-04T17:10:50.063Z</time></trkpt><trkpt lat="45.7141881" lon="11.7991447"><ele>79.0</ele><time>2026-04-04T17:10:51.063Z</time></trkpt><trkpt lat="45.7142027" lon="11.7989494"><ele>79.0</ele><time>2026-04-04T17:10:52.064Z</time></trkpt><trkpt lat="45.7142167" lon="11.7987508"><ele>79.0</ele><time>2026-04-04T17:10:53.064Z</time></trkpt><trkpt lat="45.7142292" lon="11.7985502"><ele>79.0</ele><time>2026-04-04T17:10:54.064Z</time></trkpt><trkpt lat="45.7142445" lon="11.7983519"><ele>79.0</ele><time>2026-04-04T17:10:55.064Z</time></trkpt><trkpt lat="45.7142616" lon="11.798165"><ele>79.0</ele><time>2026-04-04T17:10:56.063Z</time></trkpt><trkpt lat="45.7142756" lon="11.7980022"><ele>79.0</ele><time>2026-04-04T17:10:57.064Z</time></trkpt><trkpt lat="45.7142857" lon="11.7978575"><ele>79.0</ele><time>2026-04-04T17:10:58.064Z</time></trkpt><trkpt lat="45.7142955" lon="11.7977354"><ele>79.0</ele><time>2026-04-04T17:10:59.063Z</time></trkpt><trkpt lat="45.7143004" lon="11.7976389"><ele>79.0</ele><time>2026-04-04T17:11:00.063Z</time></trkpt><trkpt lat="45.7142894" lon="11.7974901"><ele>79.0</ele><time>2026-04-04T17:11:02.063Z</time></trkpt><trkpt lat="45.7142867" lon="11.7973303"><ele>79.0</ele><time>2026-04-04T17:11:04.063Z</time></trkpt><trkpt lat="45.7142959" lon="11.7972316"><ele>79.0</ele><time>2026-04-04T17:11:05.063Z</time></trkpt><trkpt lat="45.7143143" lon="11.7971154"><ele>79.0</ele><time>2026-04-04T17:11:06.064Z</time></trkpt><trkpt lat="45.714342" lon="11.7969827"><ele>79.0</ele><time>2026-04-04T17:11:07.064Z</time></trkpt><trkpt lat="45.7143795" lon="11.7968368"><ele>79.0</ele><time>2026-04-04T17:11:08.064Z</time></trkpt><trkpt lat="45.714425" lon="11.7966748"><ele>79.5</ele><time>2026-04-04T17:11:09.063Z</time></trkpt><trkpt lat="45.7144679" lon="11.7964981"><ele>80.0</ele><time>2026-04-04T17:11:10.064Z</time></trkpt><trkpt lat="45.7145085" lon="11.7962997"><ele>80.5</ele><time>2026-04-04T17:11:11.064Z</time></trkpt><trkpt lat="45.7145519" lon="11.7960791"><ele>81.0</ele><time>2026-04-04T17:11:12.064Z</time></trkpt><trkpt lat="45.7145964" lon="11.7958508"><ele>81.0</ele><time>2026-04-04T17:11:13.063Z</time></trkpt><trkpt lat="45.7146399" lon="11.7956211"><ele>81.0</ele><time>2026-04-04T17:11:14.064Z</time></trkpt><trkpt lat="45.7146835" lon="11.79541"><ele>81.0</ele><time>2026-04-04T17:11:15.063Z</time></trkpt><trkpt lat="45.7147273" lon="11.7951959"><ele>81.0</ele><time>2026-04-04T17:11:16.063Z</time></trkpt><trkpt lat="45.714771" lon="11.7949684"><ele>81.0</ele><time>2026-04-04T17:11:17.064Z</time></trkpt><trkpt lat="45.7148168" lon="11.7947311"><ele>81.0</ele><time>2026-04-04T17:11:18.063Z</time></trkpt><trkpt lat="45.7148638" lon="11.7944854"><ele>81.0</ele><time>2026-04-04T17:11:19.064Z</time></trkpt><trkpt lat="45.7149123" lon="11.7942333"><ele>81.0</ele><time>2026-04-04T17:11:20.064Z</time></trkpt><trkpt lat="45.7149637" lon="11.7939705"><ele>81.0</ele><time>2026-04-04T17:11:21.063Z</time></trkpt><trkpt lat="45.7150142" lon="11.7937036"><ele>81.0</ele><time>2026-04-04T17:11:22.064Z</time></trkpt><trkpt lat="45.7150652" lon="11.7934323"><ele>81.0</ele><time>2026-04-04T17:11:23.063Z</time></trkpt><trkpt lat="45.7151183" lon="11.7931573"><ele>81.0</ele><time>2026-04-04T17:11:24.063Z</time></trkpt><trkpt lat="45.7151734" lon="11.7928824"><ele>81.33333333333333</ele><time>2026-04-04T17:11:25.063Z</time></trkpt><trkpt lat="45.7152263" lon="11.7926061"><ele>81.66666666666666</ele><time>2026-04-04T17:11:26.064Z</time></trkpt><trkpt lat="45.7152794" lon="11.7923258"><ele>82.0</ele><time>2026-04-04T17:11:27.064Z</time></trkpt><trkpt lat="45.715335" lon="11.7920457"><ele>81.66666666666666</ele><time>2026-04-04T17:11:28.064Z</time></trkpt><trkpt lat="45.7153884" lon="11.7917635"><ele>81.33333333333333</ele><time>2026-04-04T17:11:29.063Z</time></trkpt><trkpt lat="45.7154433" lon="11.7914823"><ele>81.0</ele><time>2026-04-04T17:11:30.064Z</time></trkpt><trkpt lat="45.7154979" lon="11.7912053"><ele>81.0</ele><time>2026-04-04T17:11:31.064Z</time></trkpt><trkpt lat="45.7155461" lon="11.7909419"><ele>81.0</ele><time>2026-04-04T17:11:32.064Z</time></trkpt><trkpt lat="45.7155967" lon="11.790681"><ele>81.0</ele><time>2026-04-04T17:11:33.063Z</time></trkpt><trkpt lat="45.7156514" lon="11.7904237"><ele>81.33333333333333</ele><time>2026-04-04T17:11:34.064Z</time></trkpt><trkpt lat="45.7157122" lon="11.7901688"><ele>81.66666666666666</ele><time>2026-04-04T17:11:35.064Z</time></trkpt><trkpt lat="45.7157818" lon="11.7899168"><ele>82.0</ele><time>2026-04-04T17:11:36.064Z</time></trkpt><trkpt lat="45.7158605" lon="11.7896672"><ele>82.0</ele><time>2026-04-04T17:11:37.064Z</time></trkpt><trkpt lat="45.7159428" lon="11.7894168"><ele>82.0</ele><time>2026-04-04T17:11:38.063Z</time></trkpt><trkpt lat="45.7160283" lon="11.7891631"><ele>82.0</ele><time>2026-04-04T17:11:39.063Z</time></trkpt><trkpt lat="45.716114" lon="11.7889031"><ele>82.33333333333333</ele><time>2026-04-04T17:11:40.063Z</time></trkpt><trkpt lat="45.7162025" lon="11.788642"><ele>82.66666666666667</ele><time>2026-04-04T17:11:41.064Z</time></trkpt><trkpt lat="45.7162899" lon="11.7883789"><ele>83.0</ele><time>2026-04-04T17:11:42.064Z</time></trkpt><trkpt lat="45.7163759" lon="11.7881134"><ele>83.66666666666667</ele><time>2026-04-04T17:11:43.064Z</time></trkpt><trkpt lat="45.7164632" lon="11.787848"><ele>84.33333333333333</ele><time>2026-04-04T17:11:44.064Z</time></trkpt><trkpt lat="45.7165529" lon="11.7875825"><ele>85.0</ele><time>2026-04-04T17:11:45.064Z</time></trkpt><trkpt lat="45.7166433" lon="11.7873157"><ele>85.33333333333333</ele><time>2026-04-04T17:11:46.064Z</time></trkpt><trkpt lat="45.7167354" lon="11.7870484"><ele>85.66666666666667</ele><time>2026-04-04T17:11:47.063Z</time></trkpt><trkpt lat="45.7168291" lon="11.7867785"><ele>86.0</ele><time>2026-04-04T17:11:48.064Z</time></trkpt><trkpt lat="45.7169214" lon="11.7865073"><ele>87.0</ele><time>2026-04-04T17:11:49.064Z</time></trkpt><trkpt lat="45.7170137" lon="11.7862402"><ele>88.0</ele><time>2026-04-04T17:11:50.064Z</time></trkpt><trkpt lat="45.7171066" lon="11.7859736"><ele>89.0</ele><time>2026-04-04T17:11:51.064Z</time></trkpt><trkpt lat="45.7171992" lon="11.7857078"><ele>88.66666666666667</ele><time>2026-04-04T17:11:52.064Z</time></trkpt><trkpt lat="45.7172894" lon="11.7854459"><ele>88.33333333333333</ele><time>2026-04-04T17:11:53.063Z</time></trkpt><trkpt lat="45.717379" lon="11.7851876"><ele>88.0</ele><time>2026-04-04T17:11:54.064Z</time></trkpt><trkpt lat="45.7174698" lon="11.7849339"><ele>88.0</ele><time>2026-04-04T17:11:55.063Z</time></trkpt><trkpt lat="45.7175609" lon="11.7846851"><ele>88.0</ele><time>2026-04-04T17:11:56.064Z</time></trkpt><trkpt lat="45.7176531" lon="11.7844361"><ele>88.0</ele><time>2026-04-04T17:11:57.063Z</time></trkpt><trkpt lat="45.7177448" lon="11.7841931"><ele>87.33333333333333</ele><time>2026-04-04T17:11:58.063Z</time></trkpt><trkpt lat="45.7178355" lon="11.7839539"><ele>86.66666666666667</ele><time>2026-04-04T17:11:59.064Z</time></trkpt><trkpt lat="45.717925" lon="11.7837145"><ele>86.0</ele><time>2026-04-04T17:12:00.064Z</time></trkpt><trkpt lat="45.7180141" lon="11.7834749"><ele>86.0</ele><time>2026-04-04T17:12:01.064Z</time></trkpt><trkpt lat="45.7181041" lon="11.7832341"><ele>86.0</ele><time>2026-04-04T17:12:02.064Z</time></trkpt><trkpt lat="45.7181939" lon="11.7829934"><ele>86.0</ele><time>2026-04-04T17:12:03.064Z</time></trkpt><trkpt lat="45.7182827" lon="11.7827536"><ele>86.0</ele><time>2026-04-04T17:12:04.064Z</time></trkpt><trkpt lat="45.7183727" lon="11.7825159"><ele>86.0</ele><time>2026-04-04T17:12:05.064Z</time></trkpt><trkpt lat="45.7184619" lon="11.7822784"><ele>86.0</ele><time>2026-04-04T17:12:06.063Z</time></trkpt><trkpt lat="45.7185478" lon="11.7820416"><ele>86.0</ele><time>2026-04-04T17:12:07.063Z</time></trkpt><trkpt lat="45.7186353" lon="11.7818056"><ele>86.0</ele><time>2026-04-04T17:12:08.063Z</time></trkpt><trkpt lat="45.7187224" lon="11.7815696"><ele>86.0</ele><time>2026-04-04T17:12:09.063Z</time></trkpt><trkpt lat="45.7188076" lon="11.7813326"><ele>86.0</ele><time>2026-04-04T17:12:10.064Z</time></trkpt><trkpt lat="45.7188937" lon="11.7810978"><ele>86.0</ele><time>2026-04-04T17:12:11.063Z</time></trkpt><trkpt lat="45.7189777" lon="11.7808608"><ele>86.0</ele><time>2026-04-04T17:12:12.064Z</time></trkpt><trkpt lat="45.7190628" lon="11.7806239"><ele>86.0</ele><time>2026-04-04T17:12:13.063Z</time></trkpt><trkpt lat="45.7191508" lon="11.7803895"><ele>86.0</ele><time>2026-04-04T17:12:14.063Z</time></trkpt><trkpt lat="45.7192429" lon="11.7801546"><ele>86.0</ele><time>2026-04-04T17:12:15.063Z</time></trkpt><trkpt lat="45.7193389" lon="11.7799233"><ele>86.33333333333334</ele><time>2026-04-04T17:12:16.064Z</time></trkpt><trkpt lat="45.7194429" lon="11.7797004"><ele>86.66666666666667</ele><time>2026-04-04T17:12:17.064Z</time></trkpt><trkpt lat="45.7195451" lon="11.7794745"><ele>87.0</ele><time>2026-04-04T17:12:18.063Z</time></trkpt><trkpt lat="45.7196464" lon="11.7792496"><ele>87.0</ele><time>2026-04-04T17:12:19.063Z</time></trkpt><trkpt lat="45.7197485" lon="11.7790231"><ele>87.0</ele><time>2026-04-04T17:12:20.063Z</time></trkpt><trkpt lat="45.7198539" lon="11.7787973"><ele>87.0</ele><time>2026-04-04T17:12:21.063Z</time></trkpt><trkpt lat="45.7199573" lon="11.7785685"><ele>87.33333333333333</ele><time>2026-04-04T17:12:22.064Z</time></trkpt><trkpt lat="45.7200623" lon="11.7783414"><ele>87.66666666666666</ele><time>2026-04-04T17:12:23.063Z</time></trkpt><trkpt lat="45.7201693" lon="11.7781123"><ele>88.0</ele><time>2026-04-04T17:12:24.064Z</time></trkpt><trkpt lat="45.7202773" lon="11.7778843"><ele>88.0</ele><time>2026-04-04T17:12:25.064Z</time></trkpt><trkpt lat="45.7203842" lon="11.7776533"><ele>88.0</ele><time>2026-04-04T17:12:26.063Z</time></trkpt><trkpt lat="45.720492" lon="11.7774247"><ele>88.0</ele><time>2026-04-04T17:12:27.064Z</time></trkpt><trkpt lat="45.7205997" lon="11.7772026"><ele>88.0</ele><time>2026-04-04T17:12:28.064Z</time></trkpt><trkpt lat="45.7207008" lon="11.7769903"><ele>88.0</ele><time>2026-04-04T17:12:29.064Z</time></trkpt><trkpt lat="45.7207969" lon="11.7767856"><ele>88.0</ele><time>2026-04-04T17:12:30.063Z</time></trkpt><trkpt lat="45.7208916" lon="11.776588"><ele>88.0</ele><time>2026-04-04T17:12:31.064Z</time></trkpt><trkpt lat="45.7209839" lon="11.7763927"><ele>88.0</ele><time>2026-04-04T17:12:32.064Z</time></trkpt><trkpt lat="45.7210728" lon="11.7762039"><ele>88.0</ele><time>2026-04-04T17:12:33.064Z</time></trkpt><trkpt lat="45.7211609" lon="11.7760157"><ele>88.75</ele><time>2026-04-04T17:12:34.064Z</time></trkpt><trkpt lat="45.7212484" lon="11.7758304"><ele>89.5</ele><time>2026-04-04T17:12:35.064Z</time></trkpt><trkpt lat="45.7213319" lon="11.7756583"><ele>90.25</ele><time>2026-04-04T17:12:36.064Z</time></trkpt><trkpt lat="45.7214128" lon="11.7754921"><ele>91.0</ele><time>2026-04-04T17:12:37.063Z</time></trkpt><trkpt lat="45.7214937" lon="11.7753231"><ele>91.0</ele><time>2026-04-04T17:12:38.063Z</time></trkpt><trkpt lat="45.7215704" lon="11.7751504"><ele>91.0</ele><time>2026-04-04T17:12:39.063Z</time></trkpt><trkpt lat="45.7216448" lon="11.7749766"><ele>91.0</ele><time>2026-04-04T17:12:40.063Z</time></trkpt><trkpt lat="45.7217217" lon="11.7748016"><ele>91.0</ele><time>2026-04-04T17:12:41.064Z</time></trkpt><trkpt lat="45.7218078" lon="11.7746276"><ele>91.0</ele><time>2026-04-04T17:12:42.064Z</time></trkpt><trkpt lat="45.7218998" lon="11.7744501"><ele>91.0</ele><time>2026-04-04T17:12:43.063Z</time></trkpt><trkpt lat="45.7219861" lon="11.7742634"><ele>91.0</ele><time>2026-04-04T17:12:44.064Z</time></trkpt><trkpt lat="45.7220691" lon="11.7740691"><ele>91.0</ele><time>2026-04-04T17:12:45.063Z</time></trkpt><trkpt lat="45.7221435" lon="11.7738685"><ele>91.0</ele><time>2026-04-04T17:12:46.063Z</time></trkpt><trkpt lat="45.7222136" lon="11.7736642"><ele>91.0</ele><time>2026-04-04T17:12:47.064Z</time></trkpt><trkpt lat="45.7222775" lon="11.7734562"><ele>91.0</ele><time>2026-04-04T17:12:48.063Z</time></trkpt><trkpt lat="45.7223346" lon="11.7732432"><ele>91.0</ele><time>2026-04-04T17:12:49.063Z</time></trkpt><trkpt lat="45.7223857" lon="11.773031"><ele>91.0</ele><time>2026-04-04T17:12:50.063Z</time></trkpt><trkpt lat="45.7224363" lon="11.7728171"><ele>91.0</ele><time>2026-04-04T17:12:51.063Z</time></trkpt><trkpt lat="45.72249" lon="11.7726096"><ele>91.0</ele><time>2026-04-04T17:12:52.064Z</time></trkpt><trkpt lat="45.7225427" lon="11.7724044"><ele>91.0</ele><time>2026-04-04T17:12:53.063Z</time></trkpt><trkpt lat="45.7225933" lon="11.7721985"><ele>91.0</ele><time>2026-04-04T17:12:54.064Z</time></trkpt><trkpt lat="45.7226441" lon="11.7719879"><ele>91.0</ele><time>2026-04-04T17:12:55.063Z</time></trkpt><trkpt lat="45.7226971" lon="11.7717781"><ele>91.0</ele><time>2026-04-04T17:12:56.063Z</time></trkpt><trkpt lat="45.7227505" lon="11.7715694"><ele>91.25</ele><time>2026-04-04T17:12:57.064Z</time></trkpt><trkpt lat="45.7228039" lon="11.7713658"><ele>91.5</ele><time>2026-04-04T17:12:58.064Z</time></trkpt><trkpt lat="45.7228518" lon="11.7711655"><ele>91.75</ele><time>2026-04-04T17:12:59.064Z</time></trkpt><trkpt lat="45.7229016" lon="11.7709672"><ele>92.0</ele><time>2026-04-04T17:13:00.064Z</time></trkpt><trkpt lat="45.7229465" lon="11.7707678"><ele>92.25</ele><time>2026-04-04T17:13:01.064Z</time></trkpt><trkpt lat="45.7229915" lon="11.7705692"><ele>92.5</ele><time>2026-04-04T17:13:02.063Z</time></trkpt><trkpt lat="45.7230436" lon="11.7703707"><ele>92.75</ele><time>2026-04-04T17:13:03.063Z</time></trkpt><trkpt lat="45.7230963" lon="11.7701719"><ele>93.0</ele><time>2026-04-04T17:13:04.064Z</time></trkpt><trkpt lat="45.7231455" lon="11.7699712"><ele>93.0</ele><time>2026-04-04T17:13:05.063Z</time></trkpt><trkpt lat="45.7231956" lon="11.7697662"><ele>93.0</ele><time>2026-04-04T17:13:06.064Z</time></trkpt><trkpt lat="45.7232463" lon="11.7695643"><ele>93.0</ele><time>2026-04-04T17:13:07.063Z</time></trkpt><trkpt lat="45.7232953" lon="11.7693635"><ele>93.0</ele><time>2026-04-04T17:13:08.064Z</time></trkpt><trkpt lat="45.7233448" lon="11.7691612"><ele>93.0</ele><time>2026-04-04T17:13:09.063Z</time></trkpt><trkpt lat="45.7233935" lon="11.7689617"><ele>93.0</ele><time>2026-04-04T17:13:10.064Z</time></trkpt><trkpt lat="45.7234407" lon="11.7687641"><ele>93.0</ele><time>2026-04-04T17:13:11.063Z</time></trkpt><trkpt lat="45.7234899" lon="11.7685696"><ele>93.25</ele><time>2026-04-04T17:13:12.063Z</time></trkpt><trkpt lat="45.7235317" lon="11.7683776"><ele>93.5</ele><time>2026-04-04T17:13:13.064Z</time></trkpt><trkpt lat="45.723569" lon="11.7682053"><ele>93.75</ele><time>2026-04-04T17:13:14.064Z</time></trkpt><trkpt lat="45.7236006" lon="11.7680473"><ele>94.0</ele><time>2026-04-04T17:13:15.063Z</time></trkpt><trkpt lat="45.723627" lon="11.7678828"><ele>94.0</ele><time>2026-04-04T17:13:16.064Z</time></trkpt><trkpt lat="45.7236662" lon="11.7677085"><ele>94.0</ele><time>2026-04-04T17:13:17.064Z</time></trkpt><trkpt lat="45.7237024" lon="11.7675265"><ele>94.0</ele><time>2026-04-04T17:13:18.064Z</time></trkpt><trkpt lat="45.7237362" lon="11.7673334"><ele>94.0</ele><time>2026-04-04T17:13:19.064Z</time></trkpt><trkpt lat="45.7237691" lon="11.7671377"><ele>93.75</ele><time>2026-04-04T17:13:20.064Z</time></trkpt><trkpt lat="45.7238045" lon="11.7669411"><ele>93.5</ele><time>2026-04-04T17:13:21.064Z</time></trkpt><trkpt lat="45.7238373" lon="11.766742"><ele>93.25</ele><time>2026-04-04T17:13:22.063Z</time></trkpt><trkpt lat="45.7238709" lon="11.7665453"><ele>93.0</ele><time>2026-04-04T17:13:23.064Z</time></trkpt><trkpt lat="45.7239054" lon="11.7663488"><ele>93.0</ele><time>2026-04-04T17:13:24.064Z</time></trkpt><trkpt lat="45.7239377" lon="11.7661539"><ele>93.0</ele><time>2026-04-04T17:13:25.063Z</time></trkpt><trkpt lat="45.7239702" lon="11.765961"><ele>93.0</ele><time>2026-04-04T17:13:26.064Z</time></trkpt><trkpt lat="45.7240038" lon="11.7657695"><ele>93.0</ele><time>2026-04-04T17:13:27.063Z</time></trkpt><trkpt lat="45.7240384" lon="11.7655718"><ele>92.75</ele><time>2026-04-04T17:13:28.064Z</time></trkpt><trkpt lat="45.724074" lon="11.7653708"><ele>92.5</ele><time>2026-04-04T17:13:29.064Z</time></trkpt><trkpt lat="45.7241072" lon="11.7651707"><ele>92.25</ele><time>2026-04-04T17:13:30.063Z</time></trkpt><trkpt lat="45.724141" lon="11.7649765"><ele>92.0</ele><time>2026-04-04T17:13:31.063Z</time></trkpt><trkpt lat="45.7241726" lon="11.7647943"><ele>92.75</ele><time>2026-04-04T17:13:32.063Z</time></trkpt><trkpt lat="45.7242044" lon="11.7646234"><ele>93.5</ele><time>2026-04-04T17:13:33.064Z</time></trkpt><trkpt lat="45.7242354" lon="11.7644589"><ele>94.25</ele><time>2026-04-04T17:13:34.063Z</time></trkpt><trkpt lat="45.7242643" lon="11.7642967"><ele>95.0</ele><time>2026-04-04T17:13:35.063Z</time></trkpt><trkpt lat="45.724293" lon="11.7641459"><ele>95.0</ele><time>2026-04-04T17:13:36.063Z</time></trkpt><trkpt lat="45.724318" lon="11.7640118"><ele>95.0</ele><time>2026-04-04T17:13:37.064Z</time></trkpt><trkpt lat="45.724342" lon="11.7638856"><ele>95.0</ele><time>2026-04-04T17:13:38.063Z</time></trkpt><trkpt lat="45.7243634" lon="11.7637625"><ele>95.0</ele><time>2026-04-04T17:13:39.063Z</time></trkpt><trkpt lat="45.724382" lon="11.7636448"><ele>95.0</ele><time>2026-04-04T17:13:40.063Z</time></trkpt><trkpt lat="45.7243965" lon="11.763543"><ele>95.0</ele><time>2026-04-04T17:13:41.063Z</time></trkpt><trkpt lat="45.7244067" lon="11.7634517"><ele>95.0</ele><time>2026-04-04T17:13:42.063Z</time></trkpt><trkpt lat="45.7244149" lon="11.7633067"><ele>95.0</ele><time>2026-04-04T17:13:44.063Z</time></trkpt><trkpt lat="45.7244214" lon="11.7632057"><ele>95.0</ele><time>2026-04-04T17:13:47.064Z</time></trkpt><trkpt lat="45.724417" lon="11.7630477"><ele>95.0</ele><time>2026-04-04T17:15:29.063Z</time></trkpt><trkpt lat="45.7244113" lon="11.7629141"><ele>95.0</ele><time>2026-04-04T17:15:30.064Z</time></trkpt><trkpt lat="45.7244035" lon="11.7627445"><ele>95.0</ele><time>2026-04-04T17:15:31.063Z</time></trkpt><trkpt lat="45.7244006" lon="11.762547"><ele>95.0</ele><time>2026-04-04T17:15:32.064Z</time></trkpt><trkpt lat="45.7243994" lon="11.7623391"><ele>95.0</ele><time>2026-04-04T17:15:33.064Z</time></trkpt><trkpt lat="45.7243981" lon="11.7621214"><ele>95.0</ele><time>2026-04-04T17:15:34.064Z</time></trkpt><trkpt lat="45.7243962" lon="11.7618986"><ele>94.75</ele><time>2026-04-04T17:15:35.064Z</time></trkpt><trkpt lat="45.7243944" lon="11.7616819"><ele>94.5</ele><time>2026-04-04T17:15:36.064Z</time></trkpt><trkpt lat="45.7243941" lon="11.7614716"><ele>94.25</ele><time>2026-04-04T17:15:37.064Z</time></trkpt><trkpt lat="45.7243908" lon="11.761266"><ele>94.0</ele><time>2026-04-04T17:15:38.063Z</time></trkpt><trkpt lat="45.7243896" lon="11.7610695"><ele>94.0</ele><time>2026-04-04T17:15:39.064Z</time></trkpt><trkpt lat="45.7243876" lon="11.7608872"><ele>94.0</ele><time>2026-04-04T17:15:40.064Z</time></trkpt><trkpt lat="45.7243888" lon="11.7607121"><ele>94.0</ele><time>2026-04-04T17:15:41.064Z</time></trkpt><trkpt lat="45.7243899" lon="11.7605449"><ele>94.0</ele><time>2026-04-04T17:15:42.064Z</time></trkpt><trkpt lat="45.724389" lon="11.7603879"><ele>94.0</ele><time>2026-04-04T17:15:43.064Z</time></trkpt><trkpt lat="45.7243891" lon="11.7602471"><ele>94.0</ele><time>2026-04-04T17:15:44.064Z</time></trkpt><trkpt lat="45.7243892" lon="11.7601197"><ele>94.0</ele><time>2026-04-04T17:15:45.064Z</time></trkpt><trkpt lat="45.7243925" lon="11.760002"><ele>94.0</ele><time>2026-04-04T17:15:46.064Z</time></trkpt><trkpt lat="45.7244097" lon="11.7598951"><ele>94.0</ele><time>2026-04-04T17:15:47.064Z</time></trkpt><trkpt lat="45.7244254" lon="11.7597827"><ele>94.0</ele><time>2026-04-04T17:15:48.064Z</time></trkpt><trkpt lat="45.7244182" lon="11.7596533"><ele>93.75</ele><time>2026-04-04T17:15:49.064Z</time></trkpt><trkpt lat="45.7244039" lon="11.7595119"><ele>93.5</ele><time>2026-04-04T17:15:50.063Z</time></trkpt><trkpt lat="45.7243989" lon="11.759346"><ele>93.25</ele><time>2026-04-04T17:15:51.064Z</time></trkpt><trkpt lat="45.7243959" lon="11.7591623"><ele>93.0</ele><time>2026-04-04T17:15:52.063Z</time></trkpt><trkpt lat="45.7243954" lon="11.7589589"><ele>93.0</ele><time>2026-04-04T17:15:53.064Z</time></trkpt><trkpt lat="45.724397" lon="11.7587391"><ele>93.0</ele><time>2026-04-04T17:15:54.064Z</time></trkpt><trkpt lat="45.7243992" lon="11.7584959"><ele>93.0</ele><time>2026-04-04T17:15:55.063Z</time></trkpt><trkpt lat="45.7244025" lon="11.7582408"><ele>93.33333333333333</ele><time>2026-04-04T17:15:56.063Z</time></trkpt><trkpt lat="45.7244057" lon="11.7579811"><ele>93.66666666666666</ele><time>2026-04-04T17:15:57.063Z</time></trkpt><trkpt lat="45.7244096" lon="11.7577202"><ele>94.0</ele><time>2026-04-04T17:15:58.063Z</time></trkpt><trkpt lat="45.7244123" lon="11.7574702"><ele>94.33333333333333</ele><time>2026-04-04T17:15:59.064Z</time></trkpt><trkpt lat="45.7244159" lon="11.7572341"><ele>94.66666666666667</ele><time>2026-04-04T17:16:00.064Z</time></trkpt><trkpt lat="45.7244189" lon="11.7570046"><ele>95.0</ele><time>2026-04-04T17:16:01.064Z</time></trkpt><trkpt lat="45.7244212" lon="11.75678"><ele>95.33333333333334</ele><time>2026-04-04T17:16:02.064Z</time></trkpt><trkpt lat="45.7244229" lon="11.7565566"><ele>95.66666666666667</ele><time>2026-04-04T17:16:03.063Z</time></trkpt><trkpt lat="45.7244256" lon="11.7563316"><ele>96.0</ele><time>2026-04-04T17:16:04.063Z</time></trkpt><trkpt lat="45.7244297" lon="11.7561058"><ele>96.0</ele><time>2026-04-04T17:16:05.063Z</time></trkpt><trkpt lat="45.7244326" lon="11.755878"><ele>96.0</ele><time>2026-04-04T17:16:06.063Z</time></trkpt><trkpt lat="45.7244347" lon="11.7556473"><ele>96.0</ele><time>2026-04-04T17:16:07.064Z</time></trkpt><trkpt lat="45.7244406" lon="11.7554147"><ele>96.0</ele><time>2026-04-04T17:16:08.063Z</time></trkpt><trkpt lat="45.7244474" lon="11.7551805"><ele>96.0</ele><time>2026-04-04T17:16:09.063Z</time></trkpt><trkpt lat="45.7244563" lon="11.7549446"><ele>96.0</ele><time>2026-04-04T17:16:10.063Z</time></trkpt><trkpt lat="45.7244665" lon="11.7547079"><ele>96.0</ele><time>2026-04-04T17:16:11.063Z</time></trkpt><trkpt lat="45.7244721" lon="11.7544703"><ele>96.0</ele><time>2026-04-04T17:16:12.063Z</time></trkpt><trkpt lat="45.7244727" lon="11.7542287"><ele>96.0</ele><time>2026-04-04T17:16:13.064Z</time></trkpt><trkpt lat="45.7244662" lon="11.7539837"><ele>96.0</ele><time>2026-04-04T17:16:14.064Z</time></trkpt><trkpt lat="45.724454" lon="11.7537372"><ele>96.0</ele><time>2026-04-04T17:16:15.064Z</time></trkpt><trkpt lat="45.724436" lon="11.7534897"><ele>96.0</ele><time>2026-04-04T17:16:16.063Z</time></trkpt><trkpt lat="45.7244149" lon="11.7532433"><ele>96.0</ele><time>2026-04-04T17:16:17.064Z</time></trkpt><trkpt lat="45.7243894" lon="11.7529995"><ele>96.0</ele><time>2026-04-04T17:16:18.064Z</time></trkpt><trkpt lat="45.7243617" lon="11.752759"><ele>96.0</ele><time>2026-04-04T17:16:19.063Z</time></trkpt><trkpt lat="45.7243324" lon="11.7525229"><ele>96.0</ele><time>2026-04-04T17:16:20.063Z</time></trkpt><trkpt lat="45.724304" lon="11.7522881"><ele>96.0</ele><time>2026-04-04T17:16:21.064Z</time></trkpt><trkpt lat="45.7242694" lon="11.7520565"><ele>96.0</ele><time>2026-04-04T17:16:22.064Z</time></trkpt><trkpt lat="45.7242299" lon="11.7518279"><ele>96.0</ele><time>2026-04-04T17:16:23.064Z</time></trkpt><trkpt lat="45.7241844" lon="11.7516"><ele>96.0</ele><time>2026-04-04T17:16:24.064Z</time></trkpt><trkpt lat="45.7241373" lon="11.7513739"><ele>96.0</ele><time>2026-04-04T17:16:25.063Z</time></trkpt><trkpt lat="45.7240911" lon="11.7511503"><ele>96.0</ele><time>2026-04-04T17:16:26.064Z</time></trkpt><trkpt lat="45.7240477" lon="11.7509367"><ele>96.0</ele><time>2026-04-04T17:16:27.064Z</time></trkpt><trkpt lat="45.7240073" lon="11.7507294"><ele>96.0</ele><time>2026-04-04T17:16:28.063Z</time></trkpt><trkpt lat="45.7239675" lon="11.7505272"><ele>96.0</ele><time>2026-04-04T17:16:29.064Z</time></trkpt><trkpt lat="45.7239302" lon="11.7503285"><ele>96.0</ele><time>2026-04-04T17:16:30.063Z</time></trkpt><trkpt lat="45.7238959" lon="11.7501234"><ele>96.0</ele><time>2026-04-04T17:16:31.063Z</time></trkpt><trkpt lat="45.7238603" lon="11.749913"><ele>96.0</ele><time>2026-04-04T17:16:32.063Z</time></trkpt><trkpt lat="45.7238223" lon="11.7497024"><ele>96.0</ele><time>2026-04-04T17:16:33.064Z</time></trkpt><trkpt lat="45.7237834" lon="11.7494856"><ele>96.0</ele><time>2026-04-04T17:16:34.063Z</time></trkpt><trkpt lat="45.7237434" lon="11.7492729"><ele>96.0</ele><time>2026-04-04T17:16:35.064Z</time></trkpt><trkpt lat="45.7237066" lon="11.7490646"><ele>97.0</ele><time>2026-04-04T17:16:36.064Z</time></trkpt><trkpt lat="45.7236683" lon="11.7488568"><ele>98.0</ele><time>2026-04-04T17:16:37.064Z</time></trkpt><trkpt lat="45.7236301" lon="11.7486484"><ele>99.0</ele><time>2026-04-04T17:16:38.063Z</time></trkpt><trkpt lat="45.7235939" lon="11.7484369"><ele>99.0</ele><time>2026-04-04T17:16:39.063Z</time></trkpt><trkpt lat="45.7235581" lon="11.7482297"><ele>99.0</ele><time>2026-04-04T17:16:40.064Z</time></trkpt><trkpt lat="45.7235269" lon="11.748027"><ele>99.0</ele><time>2026-04-04T17:16:41.064Z</time></trkpt><trkpt lat="45.7235035" lon="11.7478205"><ele>99.0</ele><time>2026-04-04T17:16:42.063Z</time></trkpt><trkpt lat="45.723484" lon="11.7476117"><ele>99.25</ele><time>2026-04-04T17:16:43.064Z</time></trkpt><trkpt lat="45.7234721" lon="11.7474043"><ele>99.5</ele><time>2026-04-04T17:16:44.064Z</time></trkpt><trkpt lat="45.7234607" lon="11.7471946"><ele>99.75</ele><time>2026-04-04T17:16:45.064Z</time></trkpt><trkpt lat="45.7234579" lon="11.7469854"><ele>100.0</ele><time>2026-04-04T17:16:46.064Z</time></trkpt><trkpt lat="45.7234609" lon="11.7467779"><ele>100.0</ele><time>2026-04-04T17:16:47.063Z</time></trkpt><trkpt lat="45.7234622" lon="11.7465757"><ele>100.0</ele><time>2026-04-04T17:16:48.064Z</time></trkpt><trkpt lat="45.7234613" lon="11.7463825"><ele>100.0</ele><time>2026-04-04T17:16:49.064Z</time></trkpt><trkpt lat="45.7234628" lon="11.746195"><ele>100.0</ele><time>2026-04-04T17:16:50.064Z</time></trkpt><trkpt lat="45.723462" lon="11.7460136"><ele>100.0</ele><time>2026-04-04T17:16:51.063Z</time></trkpt><trkpt lat="45.7234667" lon="11.7458272"><ele>100.0</ele><time>2026-04-04T17:16:52.064Z</time></trkpt><trkpt lat="45.7234707" lon="11.7456393"><ele>100.0</ele><time>2026-04-04T17:16:53.063Z</time></trkpt><trkpt lat="45.7234686" lon="11.7454425"><ele>100.0</ele><time>2026-04-04T17:16:54.063Z</time></trkpt><trkpt lat="45.7234626" lon="11.7452368"><ele>99.0</ele><time>2026-04-04T17:16:55.063Z</time></trkpt><trkpt lat="45.7234597" lon="11.7450269"><ele>98.0</ele><time>2026-04-04T17:16:56.064Z</time></trkpt><trkpt lat="45.723463" lon="11.7448125"><ele>97.0</ele><time>2026-04-04T17:16:57.063Z</time></trkpt><trkpt lat="45.7234635" lon="11.7446008"><ele>96.0</ele><time>2026-04-04T17:16:58.064Z</time></trkpt><trkpt lat="45.7234582" lon="11.7444022"><ele>96.0</ele><time>2026-04-04T17:16:59.064Z</time></trkpt><trkpt lat="45.7234452" lon="11.7442202"><ele>96.0</ele><time>2026-04-04T17:17:00.063Z</time></trkpt><trkpt lat="45.7234274" lon="11.7440498"><ele>96.0</ele><time>2026-04-04T17:17:01.064Z</time></trkpt><trkpt lat="45.7234052" lon="11.7438946"><ele>96.0</ele><time>2026-04-04T17:17:02.064Z</time></trkpt><trkpt lat="45.7233784" lon="11.743762"><ele>96.0</ele><time>2026-04-04T17:17:03.064Z</time></trkpt><trkpt lat="45.7233533" lon="11.7436485"><ele>96.0</ele><time>2026-04-04T17:17:04.063Z</time></trkpt><trkpt lat="45.7233423" lon="11.7435363"><ele>96.0</ele><time>2026-04-04T17:17:05.064Z</time></trkpt><trkpt lat="45.7233555" lon="11.7434199"><ele>96.0</ele><time>2026-04-04T17:17:06.063Z</time></trkpt><trkpt lat="45.7233661" lon="11.7433077"><ele>96.0</ele><time>2026-04-04T17:17:07.063Z</time></trkpt><trkpt lat="45.7233488" lon="11.7431974"><ele>96.0</ele><time>2026-04-04T17:17:08.063Z</time></trkpt><trkpt lat="45.7233043" lon="11.7431089"><ele>96.0</ele><time>2026-04-04T17:17:09.064Z</time></trkpt><trkpt lat="45.7232442" lon="11.7430535"><ele>96.0</ele><time>2026-04-04T17:17:10.063Z</time></trkpt><trkpt lat="45.7231782" lon="11.7430022"><ele>96.0</ele><time>2026-04-04T17:17:11.063Z</time></trkpt><trkpt lat="45.7231191" lon="11.7429205"><ele>96.0</ele><time>2026-04-04T17:17:12.064Z</time></trkpt><trkpt lat="45.7230655" lon="11.7428201"><ele>96.0</ele><time>2026-04-04T17:17:13.063Z</time></trkpt><trkpt lat="45.723009" lon="11.7427094"><ele>96.0</ele><time>2026-04-04T17:17:14.063Z</time></trkpt><trkpt lat="45.7229478" lon="11.7425845"><ele>95.75</ele><time>2026-04-04T17:17:15.063Z</time></trkpt><trkpt lat="45.722878" lon="11.7424499"><ele>95.5</ele><time>2026-04-04T17:17:16.064Z</time></trkpt><trkpt lat="45.7228079" lon="11.7423051"><ele>95.25</ele><time>2026-04-04T17:17:17.064Z</time></trkpt><trkpt lat="45.7227341" lon="11.742153"><ele>95.0</ele><time>2026-04-04T17:17:18.064Z</time></trkpt><trkpt lat="45.7226616" lon="11.7420007"><ele>95.0</ele><time>2026-04-04T17:17:19.063Z</time></trkpt><trkpt lat="45.7225889" lon="11.7418506"><ele>95.0</ele><time>2026-04-04T17:17:20.063Z</time></trkpt><trkpt lat="45.7225159" lon="11.7416967"><ele>95.0</ele><time>2026-04-04T17:17:21.063Z</time></trkpt><trkpt lat="45.7224452" lon="11.7415319"><ele>95.0</ele><time>2026-04-04T17:17:22.063Z</time></trkpt><trkpt lat="45.722381" lon="11.7413571"><ele>95.0</ele><time>2026-04-04T17:17:23.064Z</time></trkpt><trkpt lat="45.7223231" lon="11.7411738"><ele>95.0</ele><time>2026-04-04T17:17:24.063Z</time></trkpt><trkpt lat="45.7222727" lon="11.7409849"><ele>95.0</ele><time>2026-04-04T17:17:25.064Z</time></trkpt><trkpt lat="45.7222307" lon="11.7407982"><ele>95.0</ele><time>2026-04-04T17:17:26.063Z</time></trkpt><trkpt lat="45.7221974" lon="11.7406115"><ele>95.0</ele><time>2026-04-04T17:17:27.063Z</time></trkpt><trkpt lat="45.7221675" lon="11.740421"><ele>95.0</ele><time>2026-04-04T17:17:28.063Z</time></trkpt><trkpt lat="45.7221403" lon="11.7402298"><ele>95.0</ele><time>2026-04-04T17:17:29.063Z</time></trkpt><trkpt lat="45.7221142" lon="11.740037"><ele>95.0</ele><time>2026-04-04T17:17:30.064Z</time></trkpt><trkpt lat="45.7220857" lon="11.7398452"><ele>94.75</ele><time>2026-04-04T17:17:31.064Z</time></trkpt><trkpt lat="45.72206" lon="11.7396468"><ele>94.5</ele><time>2026-04-04T17:17:32.064Z</time></trkpt><trkpt lat="45.7220341" lon="11.7394453"><ele>94.25</ele><time>2026-04-04T17:17:33.063Z</time></trkpt><trkpt lat="45.722007" lon="11.7392428"><ele>94.0</ele><time>2026-04-04T17:17:34.063Z</time></trkpt><trkpt lat="45.7219794" lon="11.739038"><ele>93.5</ele><time>2026-04-04T17:17:35.063Z</time></trkpt><trkpt lat="45.7219497" lon="11.738832"><ele>93.0</ele><time>2026-04-04T17:17:36.063Z</time></trkpt><trkpt lat="45.7219211" lon="11.7386276"><ele>92.5</ele><time>2026-04-04T17:17:37.063Z</time></trkpt><trkpt lat="45.7218905" lon="11.7384176"><ele>92.0</ele><time>2026-04-04T17:17:38.064Z</time></trkpt><trkpt lat="45.721861" lon="11.7382081"><ele>92.0</ele><time>2026-04-04T17:17:39.064Z</time></trkpt><trkpt lat="45.7218306" lon="11.7379946"><ele>92.0</ele><time>2026-04-04T17:17:40.063Z</time></trkpt><trkpt lat="45.7217962" lon="11.7377798"><ele>92.0</ele><time>2026-04-04T17:17:41.063Z</time></trkpt><trkpt lat="45.721761" lon="11.7375693"><ele>92.0</ele><time>2026-04-04T17:17:42.063Z</time></trkpt><trkpt lat="45.7217264" lon="11.7373578"><ele>92.0</ele><time>2026-04-04T17:17:43.063Z</time></trkpt><trkpt lat="45.7216913" lon="11.7371525"><ele>92.0</ele><time>2026-04-04T17:17:44.063Z</time></trkpt><trkpt lat="45.7216584" lon="11.7369473"><ele>92.0</ele><time>2026-04-04T17:17:45.064Z</time></trkpt><trkpt lat="45.7216226" lon="11.7367475"><ele>92.5</ele><time>2026-04-04T17:17:46.063Z</time></trkpt><trkpt lat="45.7215871" lon="11.7365457"><ele>93.0</ele><time>2026-04-04T17:17:47.063Z</time></trkpt><trkpt lat="45.721556" lon="11.7363578"><ele>93.5</ele><time>2026-04-04T17:17:48.063Z</time></trkpt><trkpt lat="45.7215257" lon="11.7361737"><ele>94.0</ele><time>2026-04-04T17:17:49.063Z</time></trkpt><trkpt lat="45.7214951" lon="11.73599"><ele>94.0</ele><time>2026-04-04T17:17:50.063Z</time></trkpt><trkpt lat="45.721462" lon="11.7358045"><ele>94.0</ele><time>2026-04-04T17:17:51.063Z</time></trkpt><trkpt lat="45.7214287" lon="11.7356123"><ele>94.0</ele><time>2026-04-04T17:17:52.064Z</time></trkpt><trkpt lat="45.7213944" lon="11.7354182"><ele>94.0</ele><time>2026-04-04T17:17:53.063Z</time></trkpt><trkpt lat="45.7213598" lon="11.7352247"><ele>93.75</ele><time>2026-04-04T17:17:54.064Z</time></trkpt><trkpt lat="45.7213285" lon="11.7350316"><ele>93.5</ele><time>2026-04-04T17:17:55.063Z</time></trkpt><trkpt lat="45.7212987" lon="11.7348423"><ele>93.25</ele><time>2026-04-04T17:17:56.063Z</time></trkpt><trkpt lat="45.7212673" lon="11.7346561"><ele>93.0</ele><time>2026-04-04T17:17:57.063Z</time></trkpt><trkpt lat="45.7212358" lon="11.7344702"><ele>92.75</ele><time>2026-04-04T17:17:58.063Z</time></trkpt><trkpt lat="45.7212035" lon="11.7342856"><ele>92.5</ele><time>2026-04-04T17:17:59.064Z</time></trkpt><trkpt lat="45.721173" lon="11.7341079"><ele>92.25</ele><time>2026-04-04T17:18:00.064Z</time></trkpt><trkpt lat="45.721142" lon="11.7339411"><ele>92.0</ele><time>2026-04-04T17:18:01.064Z</time></trkpt><trkpt lat="45.7211131" lon="11.7337849"><ele>92.0</ele><time>2026-04-04T17:18:02.064Z</time></trkpt><trkpt lat="45.7210869" lon="11.7336489"><ele>92.0</ele><time>2026-04-04T17:18:03.063Z</time></trkpt><trkpt lat="45.721065" lon="11.7335264"><ele>92.0</ele><time>2026-04-04T17:18:04.063Z</time></trkpt><trkpt lat="45.7210489" lon="11.7334277"><ele>92.0</ele><time>2026-04-04T17:18:05.064Z</time></trkpt><trkpt lat="45.7210449" lon="11.7332597"><ele>92.0</ele><time>2026-04-04T17:18:07.064Z</time></trkpt><trkpt lat="45.7210953" lon="11.7330921"><ele>92.0</ele><time>2026-04-04T17:18:09.063Z</time></trkpt><trkpt lat="45.7211063" lon="11.7329923"><ele>92.0</ele><time>2026-04-04T17:18:10.063Z</time></trkpt><trkpt lat="45.7210893" lon="11.7328947"><ele>92.0</ele><time>2026-04-04T17:18:11.063Z</time></trkpt><trkpt lat="45.7210449" lon="11.7328061"><ele>92.0</ele><time>2026-04-04T17:18:12.063Z</time></trkpt><trkpt lat="45.7209849" lon="11.732723"><ele>92.0</ele><time>2026-04-04T17:18:13.063Z</time></trkpt><trkpt lat="45.7209344" lon="11.7326051"><ele>92.0</ele><time>2026-04-04T17:18:14.063Z</time></trkpt><trkpt lat="45.7208976" lon="11.7324554"><ele>92.0</ele><time>2026-04-04T17:18:15.064Z</time></trkpt><trkpt lat="45.7208683" lon="11.7322792"><ele>92.0</ele><time>2026-04-04T17:18:16.063Z</time></trkpt><trkpt lat="45.720835" lon="11.7320789"><ele>92.0</ele><time>2026-04-04T17:18:17.064Z</time></trkpt><trkpt lat="45.7207986" lon="11.7318612"><ele>92.0</ele><time>2026-04-04T17:18:18.064Z</time></trkpt><trkpt lat="45.7207619" lon="11.7316276"><ele>92.0</ele><time>2026-04-04T17:18:19.063Z</time></trkpt><trkpt lat="45.7207276" lon="11.7313835"><ele>92.0</ele><time>2026-04-04T17:18:20.063Z</time></trkpt><trkpt lat="45.7206977" lon="11.7311304"><ele>92.0</ele><time>2026-04-04T17:18:21.063Z</time></trkpt><trkpt lat="45.7206746" lon="11.7308725"><ele>91.66666666666667</ele><time>2026-04-04T17:18:22.063Z</time></trkpt><trkpt lat="45.7206631" lon="11.730617"><ele>91.33333333333333</ele><time>2026-04-04T17:18:23.063Z</time></trkpt><trkpt lat="45.7206582" lon="11.7303629"><ele>91.0</ele><time>2026-04-04T17:18:24.063Z</time></trkpt><trkpt lat="45.7206568" lon="11.7301134"><ele>91.0</ele><time>2026-04-04T17:18:25.064Z</time></trkpt><trkpt lat="45.7206584" lon="11.7298714"><ele>91.0</ele><time>2026-04-04T17:18:26.064Z</time></trkpt><trkpt lat="45.7206619" lon="11.7296338"><ele>91.0</ele><time>2026-04-04T17:18:27.064Z</time></trkpt><trkpt lat="45.7206677" lon="11.729398"><ele>91.33333333333333</ele><time>2026-04-04T17:18:28.064Z</time></trkpt><trkpt lat="45.720674" lon="11.7291638"><ele>91.66666666666667</ele><time>2026-04-04T17:18:29.063Z</time></trkpt><trkpt lat="45.720679" lon="11.7289274"><ele>92.0</ele><time>2026-04-04T17:18:30.064Z</time></trkpt><trkpt lat="45.7206867" lon="11.728688"><ele>92.0</ele><time>2026-04-04T17:18:31.064Z</time></trkpt><trkpt lat="45.7206946" lon="11.7284475"><ele>92.0</ele><time>2026-04-04T17:18:32.063Z</time></trkpt><trkpt lat="45.7207054" lon="11.7282089"><ele>92.0</ele><time>2026-04-04T17:18:33.064Z</time></trkpt><trkpt lat="45.720716" lon="11.7279701"><ele>92.0</ele><time>2026-04-04T17:18:34.064Z</time></trkpt><trkpt lat="45.7207227" lon="11.7277329"><ele>92.0</ele><time>2026-04-04T17:18:35.064Z</time></trkpt><trkpt lat="45.720725" lon="11.7274908"><ele>92.0</ele><time>2026-04-04T17:18:36.064Z</time></trkpt><trkpt lat="45.7207278" lon="11.7272475"><ele>91.66666666666667</ele><time>2026-04-04T17:18:37.064Z</time></trkpt><trkpt lat="45.7207384" lon="11.7270046"><ele>91.33333333333333</ele><time>2026-04-04T17:18:38.064Z</time></trkpt><trkpt lat="45.720754" lon="11.7267613"><ele>91.0</ele><time>2026-04-04T17:18:39.063Z</time></trkpt><trkpt lat="45.720771" lon="11.726517"><ele>91.0</ele><time>2026-04-04T17:18:40.063Z</time></trkpt><trkpt lat="45.7207869" lon="11.726271"><ele>91.0</ele><time>2026-04-04T17:18:41.063Z</time></trkpt><trkpt lat="45.720798" lon="11.7260253"><ele>91.0</ele><time>2026-04-04T17:18:42.064Z</time></trkpt><trkpt lat="45.7207954" lon="11.7257807"><ele>90.33333333333333</ele><time>2026-04-04T17:18:43.064Z</time></trkpt><trkpt lat="45.7207732" lon="11.7255339"><ele>89.66666666666667</ele><time>2026-04-04T17:18:44.064Z</time></trkpt><trkpt lat="45.7207279" lon="11.7252897"><ele>89.0</ele><time>2026-04-04T17:18:45.064Z</time></trkpt><trkpt lat="45.7206628" lon="11.72505"><ele>88.66666666666667</ele><time>2026-04-04T17:18:46.063Z</time></trkpt><trkpt lat="45.7205861" lon="11.7248083"><ele>88.33333333333333</ele><time>2026-04-04T17:18:47.064Z</time></trkpt><trkpt lat="45.7205055" lon="11.7245679"><ele>88.0</ele><time>2026-04-04T17:18:48.064Z</time></trkpt><trkpt lat="45.720423" lon="11.7243255"><ele>88.0</ele><time>2026-04-04T17:18:49.063Z</time></trkpt><trkpt lat="45.7203361" lon="11.7240899"><ele>88.0</ele><time>2026-04-04T17:18:50.064Z</time></trkpt><trkpt lat="45.7202545" lon="11.7238563"><ele>88.0</ele><time>2026-04-04T17:18:51.063Z</time></trkpt><trkpt lat="45.7201743" lon="11.7236279"><ele>87.66666666666666</ele><time>2026-04-04T17:18:52.064Z</time></trkpt><trkpt lat="45.7200968" lon="11.7234039"><ele>87.33333333333333</ele><time>2026-04-04T17:18:53.063Z</time></trkpt><trkpt lat="45.7200203" lon="11.7231832"><ele>87.0</ele><time>2026-04-04T17:18:54.063Z</time></trkpt><trkpt lat="45.7199439" lon="11.7229638"><ele>87.0</ele><time>2026-04-04T17:18:55.064Z</time></trkpt><trkpt lat="45.7198671" lon="11.7227443"><ele>87.0</ele><time>2026-04-04T17:18:56.064Z</time></trkpt><trkpt lat="45.7197903" lon="11.722531"><ele>87.0</ele><time>2026-04-04T17:18:57.063Z</time></trkpt><trkpt lat="45.7197163" lon="11.7223182"><ele>87.0</ele><time>2026-04-04T17:18:58.064Z</time></trkpt><trkpt lat="45.7196409" lon="11.7221107"><ele>87.0</ele><time>2026-04-04T17:18:59.063Z</time></trkpt><trkpt lat="45.7195686" lon="11.7219095"><ele>87.0</ele><time>2026-04-04T17:19:00.063Z</time></trkpt><trkpt lat="45.7195003" lon="11.7217198"><ele>87.0</ele><time>2026-04-04T17:19:01.063Z</time></trkpt><trkpt lat="45.7194342" lon="11.7215354"><ele>87.0</ele><time>2026-04-04T17:19:02.063Z</time></trkpt><trkpt lat="45.7193713" lon="11.7213562"><ele>87.0</ele><time>2026-04-04T17:19:03.063Z</time></trkpt><trkpt lat="45.719314" lon="11.7211887"><ele>87.0</ele><time>2026-04-04T17:19:04.063Z</time></trkpt><trkpt lat="45.7192612" lon="11.7210321"><ele>87.5</ele><time>2026-04-04T17:19:05.064Z</time></trkpt><trkpt lat="45.7192133" lon="11.7208922"><ele>88.0</ele><time>2026-04-04T17:19:06.063Z</time></trkpt><trkpt lat="45.7191754" lon="11.7207786"><ele>88.5</ele><time>2026-04-04T17:19:07.064Z</time></trkpt><trkpt lat="45.7191454" lon="11.7206818"><ele>89.0</ele><time>2026-04-04T17:19:08.064Z</time></trkpt><trkpt lat="45.7191218" lon="11.7205823"><ele>89.5</ele><time>2026-04-04T17:19:09.064Z</time></trkpt><trkpt lat="45.7191077" lon="11.7204884"><ele>90.0</ele><time>2026-04-04T17:19:10.064Z</time></trkpt><trkpt lat="45.719104" lon="11.7203974"><ele>90.0</ele><time>2026-04-04T17:19:11.063Z</time></trkpt><trkpt lat="45.719115" lon="11.7203062"><ele>90.0</ele><time>2026-04-04T17:19:12.063Z</time></trkpt><trkpt lat="45.7191302" lon="11.720216"><ele>90.0</ele><time>2026-04-04T17:19:13.063Z</time></trkpt><trkpt lat="45.7191356" lon="11.720122"><ele>90.0</ele><time>2026-04-04T17:19:14.063Z</time></trkpt><trkpt lat="45.7191196" lon="11.7200311"><ele>90.0</ele><time>2026-04-04T17:19:15.063Z</time></trkpt><trkpt lat="45.7190757" lon="11.7199476"><ele>90.0</ele><time>2026-04-04T17:19:16.064Z</time></trkpt><trkpt lat="45.719015" lon="11.7198604"><ele>90.0</ele><time>2026-04-04T17:19:17.064Z</time></trkpt><trkpt lat="45.7189522" lon="11.7197376"><ele>89.0</ele><time>2026-04-04T17:19:18.063Z</time></trkpt><trkpt lat="45.7188955" lon="11.7195799"><ele>88.0</ele><time>2026-04-04T17:19:19.064Z</time></trkpt><trkpt lat="45.7188427" lon="11.7193709"><ele>87.0</ele><time>2026-04-04T17:19:20.064Z</time></trkpt><trkpt lat="45.7188019" lon="11.7191155"><ele>86.66666666666667</ele><time>2026-04-04T17:19:21.064Z</time></trkpt><trkpt lat="45.7187633" lon="11.718828"><ele>86.33333333333334</ele><time>2026-04-04T17:19:22.063Z</time></trkpt><trkpt lat="45.7187169" lon="11.718507"><ele>86.0</ele><time>2026-04-04T17:19:23.063Z</time></trkpt><trkpt lat="45.7186667" lon="11.7181625"><ele>86.0</ele><time>2026-04-04T17:19:24.063Z</time></trkpt><trkpt lat="45.7186151" lon="11.7177959"><ele>86.0</ele><time>2026-04-04T17:19:25.064Z</time></trkpt><trkpt lat="45.718561" lon="11.7174131"><ele>86.0</ele><time>2026-04-04T17:19:26.064Z</time></trkpt><trkpt lat="45.7185046" lon="11.7170256"><ele>86.0</ele><time>2026-04-04T17:19:27.063Z</time></trkpt><trkpt lat="45.71845" lon="11.7166462"><ele>87.0</ele><time>2026-04-04T17:19:28.064Z</time></trkpt><trkpt lat="45.7183965" lon="11.7162795"><ele>88.0</ele><time>2026-04-04T17:19:29.064Z</time></trkpt><trkpt lat="45.7183458" lon="11.7159257"><ele>88.0</ele><time>2026-04-04T17:19:30.064Z</time></trkpt><trkpt lat="45.7182956" lon="11.7155814"><ele>88.0</ele><time>2026-04-04T17:19:31.064Z</time></trkpt><trkpt lat="45.7182482" lon="11.7152485"><ele>88.0</ele><time>2026-04-04T17:19:32.064Z</time></trkpt><trkpt lat="45.7182013" lon="11.7149262"><ele>88.0</ele><time>2026-04-04T17:19:33.064Z</time></trkpt><trkpt lat="45.7181569" lon="11.7146106"><ele>87.66666666666666</ele><time>2026-04-04T17:19:34.063Z</time></trkpt><trkpt lat="45.7181132" lon="11.7142989"><ele>87.33333333333333</ele><time>2026-04-04T17:19:35.064Z</time></trkpt><trkpt lat="45.718072" lon="11.7139949"><ele>87.0</ele><time>2026-04-04T17:19:36.064Z</time></trkpt><trkpt lat="45.71803" lon="11.7136913"><ele>87.33333333333333</ele><time>2026-04-04T17:19:37.064Z</time></trkpt><trkpt lat="45.7179895" lon="11.7133895"><ele>87.66666666666666</ele><time>2026-04-04T17:19:38.063Z</time></trkpt><trkpt lat="45.7179522" lon="11.7130882"><ele>88.0</ele><time>2026-04-04T17:19:39.064Z</time></trkpt><trkpt lat="45.7179216" lon="11.7127863"><ele>88.0</ele><time>2026-04-04T17:19:40.064Z</time></trkpt><trkpt lat="45.7178951" lon="11.7124807"><ele>88.0</ele><time>2026-04-04T17:19:41.064Z</time></trkpt><trkpt lat="45.7178713" lon="11.7121785"><ele>88.0</ele><time>2026-04-04T17:19:42.063Z</time></trkpt><trkpt lat="45.7178521" lon="11.7118736"><ele>88.0</ele><time>2026-04-04T17:19:43.063Z</time></trkpt><trkpt lat="45.7178316" lon="11.7115686"><ele>88.0</ele><time>2026-04-04T17:19:44.063Z</time></trkpt><trkpt lat="45.7178119" lon="11.7112624"><ele>88.0</ele><time>2026-04-04T17:19:45.064Z</time></trkpt><trkpt lat="45.7177909" lon="11.7109583"><ele>88.0</ele><time>2026-04-04T17:19:46.063Z</time></trkpt><trkpt lat="45.71777" lon="11.7106517"><ele>88.0</ele><time>2026-04-04T17:19:47.063Z</time></trkpt><trkpt lat="45.7177469" lon="11.7103468"><ele>88.0</ele><time>2026-04-04T17:19:48.063Z</time></trkpt><trkpt lat="45.7177213" lon="11.7100442"><ele>87.33333333333333</ele><time>2026-04-04T17:19:49.063Z</time></trkpt><trkpt lat="45.7176912" lon="11.7097439"><ele>86.66666666666667</ele><time>2026-04-04T17:19:50.064Z</time></trkpt><trkpt lat="45.7176551" lon="11.7094466"><ele>86.0</ele><time>2026-04-04T17:19:51.064Z</time></trkpt><trkpt lat="45.7176153" lon="11.7091509"><ele>86.0</ele><time>2026-04-04T17:19:52.063Z</time></trkpt><trkpt lat="45.7175736" lon="11.7088596"><ele>86.0</ele><time>2026-04-04T17:19:53.064Z</time></trkpt><trkpt lat="45.7175338" lon="11.708576"><ele>86.0</ele><time>2026-04-04T17:19:54.064Z</time></trkpt><trkpt lat="45.7174963" lon="11.7083095"><ele>86.0</ele><time>2026-04-04T17:19:55.064Z</time></trkpt><trkpt lat="45.7174616" lon="11.7080525"><ele>86.0</ele><time>2026-04-04T17:19:56.063Z</time></trkpt><trkpt lat="45.71743" lon="11.7078001"><ele>86.0</ele><time>2026-04-04T17:19:57.063Z</time></trkpt><trkpt lat="45.7174039" lon="11.7075441"><ele>86.0</ele><time>2026-04-04T17:19:58.064Z</time></trkpt><trkpt lat="45.7173904" lon="11.7072848"><ele>86.0</ele><time>2026-04-04T17:19:59.063Z</time></trkpt><trkpt lat="45.7173961" lon="11.7070229"><ele>86.0</ele><time>2026-04-04T17:20:00.063Z</time></trkpt><trkpt lat="45.7174164" lon="11.706764"><ele>86.33333333333334</ele><time>2026-04-04T17:20:01.064Z</time></trkpt><trkpt lat="45.7174526" lon="11.706514"><ele>86.66666666666667</ele><time>2026-04-04T17:20:02.064Z</time></trkpt><trkpt lat="45.7174992" lon="11.7062802"><ele>87.0</ele><time>2026-04-04T17:20:03.063Z</time></trkpt><trkpt lat="45.717561" lon="11.7060565"><ele>87.0</ele><time>2026-04-04T17:20:04.063Z</time></trkpt><trkpt lat="45.7176413" lon="11.7058414"><ele>87.0</ele><time>2026-04-04T17:20:05.064Z</time></trkpt><trkpt lat="45.7177379" lon="11.7056352"><ele>87.0</ele><time>2026-04-04T17:20:06.063Z</time></trkpt><trkpt lat="45.7178521" lon="11.7054358"><ele>86.66666666666667</ele><time>2026-04-04T17:20:07.064Z</time></trkpt><trkpt lat="45.7179803" lon="11.7052426"><ele>86.33333333333334</ele><time>2026-04-04T17:20:08.064Z</time></trkpt><trkpt lat="45.718126" lon="11.7050589"><ele>86.0</ele><time>2026-04-04T17:20:09.064Z</time></trkpt><trkpt lat="45.7182851" lon="11.7048811"><ele>86.0</ele><time>2026-04-04T17:20:10.063Z</time></trkpt><trkpt lat="45.7184576" lon="11.7046903"><ele>86.0</ele><time>2026-04-04T17:20:11.063Z</time></trkpt><trkpt lat="45.7186363" lon="11.7044869"><ele>86.0</ele><time>2026-04-04T17:20:12.064Z</time></trkpt><trkpt lat="45.7188237" lon="11.7042829"><ele>86.5</ele><time>2026-04-04T17:20:13.064Z</time></trkpt><trkpt lat="45.7190113" lon="11.7040777"><ele>87.0</ele><time>2026-04-04T17:20:14.063Z</time></trkpt><trkpt lat="45.7191986" lon="11.7038692"><ele>87.0</ele><time>2026-04-04T17:20:15.063Z</time></trkpt><trkpt lat="45.7193838" lon="11.7036619"><ele>87.0</ele><time>2026-04-04T17:20:16.063Z</time></trkpt><trkpt lat="45.719569" lon="11.7034592"><ele>88.0</ele><time>2026-04-04T17:20:17.063Z</time></trkpt><trkpt lat="45.7197493" lon="11.7032591"><ele>89.0</ele><time>2026-04-04T17:20:18.063Z</time></trkpt><trkpt lat="45.7199276" lon="11.703059"><ele>89.0</ele><time>2026-04-04T17:20:19.063Z</time></trkpt><trkpt lat="45.7201042" lon="11.7028601"><ele>89.0</ele><time>2026-04-04T17:20:20.063Z</time></trkpt><trkpt lat="45.7202797" lon="11.7026582"><ele>88.5</ele><time>2026-04-04T17:20:21.064Z</time></trkpt><trkpt lat="45.7204559" lon="11.7024416"><ele>88.0</ele><time>2026-04-04T17:20:22.064Z</time></trkpt><trkpt lat="45.7206268" lon="11.7022119"><ele>88.0</ele><time>2026-04-04T17:20:23.064Z</time></trkpt><trkpt lat="45.7207935" lon="11.7019659"><ele>88.0</ele><time>2026-04-04T17:20:24.063Z</time></trkpt><trkpt lat="45.7209506" lon="11.7017058"><ele>88.5</ele><time>2026-04-04T17:20:25.063Z</time></trkpt><trkpt lat="45.7210985" lon="11.7014405"><ele>89.0</ele><time>2026-04-04T17:20:26.063Z</time></trkpt><trkpt lat="45.7212374" lon="11.7011696"><ele>89.0</ele><time>2026-04-04T17:20:27.064Z</time></trkpt><trkpt lat="45.7213625" lon="11.7009029"><ele>89.0</ele><time>2026-04-04T17:20:28.064Z</time></trkpt><trkpt lat="45.7214775" lon="11.7006411"><ele>89.0</ele><time>2026-04-04T17:20:29.063Z</time></trkpt><trkpt lat="45.7215813" lon="11.7003779"><ele>88.66666666666667</ele><time>2026-04-04T17:20:30.064Z</time></trkpt><trkpt lat="45.7216772" lon="11.700114"><ele>88.33333333333333</ele><time>2026-04-04T17:20:31.063Z</time></trkpt><trkpt lat="45.7217652" lon="11.6998448"><ele>88.0</ele><time>2026-04-04T17:20:32.064Z</time></trkpt><trkpt lat="45.7218456" lon="11.699576"><ele>88.33333333333333</ele><time>2026-04-04T17:20:33.063Z</time></trkpt><trkpt lat="45.7219155" lon="11.6993176"><ele>88.66666666666667</ele><time>2026-04-04T17:20:34.063Z</time></trkpt><trkpt lat="45.7219769" lon="11.6990719"><ele>89.0</ele><time>2026-04-04T17:20:35.064Z</time></trkpt><trkpt lat="45.7220283" lon="11.6988407"><ele>89.0</ele><time>2026-04-04T17:20:36.064Z</time></trkpt><trkpt lat="45.7220696" lon="11.69863"><ele>89.0</ele><time>2026-04-04T17:20:37.064Z</time></trkpt><trkpt lat="45.7221019" lon="11.6984552"><ele>89.0</ele><time>2026-04-04T17:20:38.063Z</time></trkpt><trkpt lat="45.7221245" lon="11.6983226"><ele>89.0</ele><time>2026-04-04T17:20:39.064Z</time></trkpt><trkpt lat="45.7221413" lon="11.6982303"><ele>89.0</ele><time>2026-04-04T17:20:40.064Z</time></trkpt><trkpt lat="45.722171" lon="11.698105"><ele>89.0</ele><time>2026-04-04T17:20:42.063Z</time></trkpt><trkpt lat="45.7222276" lon="11.6979836"><ele>89.0</ele><time>2026-04-04T17:20:44.063Z</time></trkpt><trkpt lat="45.7222783" lon="11.6978992"><ele>89.0</ele><time>2026-04-04T17:20:45.064Z</time></trkpt><trkpt lat="45.7223304" lon="11.6977971"><ele>89.0</ele><time>2026-04-04T17:20:46.064Z</time></trkpt><trkpt lat="45.7223448" lon="11.6976686"><ele>89.0</ele><time>2026-04-04T17:20:47.063Z</time></trkpt><trkpt lat="45.7223313" lon="11.6975278"><ele>89.0</ele><time>2026-04-04T17:20:48.063Z</time></trkpt><trkpt lat="45.722318" lon="11.6973771"><ele>89.0</ele><time>2026-04-04T17:20:49.064Z</time></trkpt><trkpt lat="45.7223259" lon="11.6972176"><ele>89.0</ele><time>2026-04-04T17:20:50.064Z</time></trkpt><trkpt lat="45.7223492" lon="11.6970439"><ele>89.0</ele><time>2026-04-04T17:20:51.063Z</time></trkpt><trkpt lat="45.7223791" lon="11.6968483"><ele>87.66666666666667</ele><time>2026-04-04T17:20:52.063Z</time></trkpt><trkpt lat="45.722412" lon="11.6966256"><ele>86.33333333333333</ele><time>2026-04-04T17:20:53.063Z</time></trkpt><trkpt lat="45.7224509" lon="11.6963781"><ele>85.0</ele><time>2026-04-04T17:20:54.063Z</time></trkpt><trkpt lat="45.7224951" lon="11.6961063"><ele>85.0</ele><time>2026-04-04T17:20:55.063Z</time></trkpt><trkpt lat="45.7225425" lon="11.6958166"><ele>85.0</ele><time>2026-04-04T17:20:56.064Z</time></trkpt><trkpt lat="45.7225923" lon="11.6955117"><ele>85.0</ele><time>2026-04-04T17:20:57.064Z</time></trkpt><trkpt lat="45.7226441" lon="11.6951963"><ele>83.5</ele><time>2026-04-04T17:20:58.064Z</time></trkpt><trkpt lat="45.7226968" lon="11.6948713"><ele>82.0</ele><time>2026-04-04T17:20:59.064Z</time></trkpt><trkpt lat="45.7227503" lon="11.6945411"><ele>80.0</ele><time>2026-04-04T17:21:00.064Z</time></trkpt><trkpt lat="45.7228048" lon="11.6942056"><ele>78.0</ele><time>2026-04-04T17:21:01.063Z</time></trkpt><trkpt lat="45.7228601" lon="11.69387"><ele>79.0</ele><time>2026-04-04T17:21:02.064Z</time></trkpt><trkpt lat="45.7229145" lon="11.6935335"><ele>80.0</ele><time>2026-04-04T17:21:03.064Z</time></trkpt><trkpt lat="45.7229697" lon="11.6931944"><ele>80.0</ele><time>2026-04-04T17:21:04.063Z</time></trkpt><trkpt lat="45.7230238" lon="11.692858"><ele>80.0</ele><time>2026-04-04T17:21:05.064Z</time></trkpt><trkpt lat="45.7230797" lon="11.6925259"><ele>80.0</ele><time>2026-04-04T17:21:06.064Z</time></trkpt><trkpt lat="45.7231327" lon="11.6922031"><ele>80.0</ele><time>2026-04-04T17:21:07.063Z</time></trkpt><trkpt lat="45.7231839" lon="11.6918957"><ele>80.33333333333334</ele><time>2026-04-04T17:21:08.063Z</time></trkpt><trkpt lat="45.7232319" lon="11.6916038"><ele>80.66666666666667</ele><time>2026-04-04T17:21:09.064Z</time></trkpt><trkpt lat="45.7232773" lon="11.6913189"><ele>81.0</ele><time>2026-04-04T17:21:10.063Z</time></trkpt><trkpt lat="45.7233238" lon="11.6910401"><ele>81.66666666666667</ele><time>2026-04-04T17:21:11.063Z</time></trkpt><trkpt lat="45.7233692" lon="11.6907695"><ele>82.33333333333334</ele><time>2026-04-04T17:21:12.063Z</time></trkpt><trkpt lat="45.7234129" lon="11.6905053"><ele>83.0</ele><time>2026-04-04T17:21:13.064Z</time></trkpt><trkpt lat="45.7234567" lon="11.6902424"><ele>83.0</ele><time>2026-04-04T17:21:14.064Z</time></trkpt><trkpt lat="45.7235011" lon="11.6899792"><ele>83.0</ele><time>2026-04-04T17:21:15.064Z</time></trkpt><trkpt lat="45.7235445" lon="11.6897233"><ele>83.0</ele><time>2026-04-04T17:21:16.063Z</time></trkpt><trkpt lat="45.7235869" lon="11.68947"><ele>83.0</ele><time>2026-04-04T17:21:17.063Z</time></trkpt><trkpt lat="45.7236288" lon="11.6892231"><ele>83.0</ele><time>2026-04-04T17:21:18.063Z</time></trkpt><trkpt lat="45.7236731" lon="11.6889806"><ele>83.0</ele><time>2026-04-04T17:21:19.063Z</time></trkpt><trkpt lat="45.7237272" lon="11.6887404"><ele>82.66666666666667</ele><time>2026-04-04T17:21:20.064Z</time></trkpt><trkpt lat="45.7237888" lon="11.6885029"><ele>82.33333333333333</ele><time>2026-04-04T17:21:21.063Z</time></trkpt><trkpt lat="45.7238549" lon="11.6882642"><ele>82.0</ele><time>2026-04-04T17:21:22.064Z</time></trkpt><trkpt lat="45.7239211" lon="11.6880242"><ele>82.0</ele><time>2026-04-04T17:21:23.064Z</time></trkpt><trkpt lat="45.7239895" lon="11.6877841"><ele>82.0</ele><time>2026-04-04T17:21:24.063Z</time></trkpt><trkpt lat="45.7240573" lon="11.6875413"><ele>82.0</ele><time>2026-04-04T17:21:25.064Z</time></trkpt><trkpt lat="45.7241241" lon="11.6873036"><ele>82.0</ele><time>2026-04-04T17:21:26.063Z</time></trkpt><trkpt lat="45.7241893" lon="11.6870704"><ele>82.0</ele><time>2026-04-04T17:21:27.064Z</time></trkpt><trkpt lat="45.7242518" lon="11.6868378"><ele>82.0</ele><time>2026-04-04T17:21:28.063Z</time></trkpt><trkpt lat="45.7243101" lon="11.6866145"><ele>82.0</ele><time>2026-04-04T17:21:29.063Z</time></trkpt><trkpt lat="45.7243651" lon="11.686393"><ele>82.0</ele><time>2026-04-04T17:21:30.063Z</time></trkpt><trkpt lat="45.7244174" lon="11.6861739"><ele>82.0</ele><time>2026-04-04T17:21:31.064Z</time></trkpt><trkpt lat="45.7244674" lon="11.6859609"><ele>82.0</ele><time>2026-04-04T17:21:32.064Z</time></trkpt><trkpt lat="45.7245149" lon="11.6857538"><ele>82.0</ele><time>2026-04-04T17:21:33.064Z</time></trkpt><trkpt lat="45.7245554" lon="11.6855486"><ele>82.0</ele><time>2026-04-04T17:21:34.064Z</time></trkpt><trkpt lat="45.7245897" lon="11.6853479"><ele>82.0</ele><time>2026-04-04T17:21:35.064Z</time></trkpt><trkpt lat="45.7246206" lon="11.6851616"><ele>82.0</ele><time>2026-04-04T17:21:36.063Z</time></trkpt><trkpt lat="45.7246472" lon="11.6849931"><ele>82.0</ele><time>2026-04-04T17:21:37.064Z</time></trkpt><trkpt lat="45.7246731" lon="11.6848363"><ele>82.0</ele><time>2026-04-04T17:21:38.064Z</time></trkpt><trkpt lat="45.724697" lon="11.6846875"><ele>82.0</ele><time>2026-04-04T17:21:39.064Z</time></trkpt><trkpt lat="45.7247194" lon="11.684543"><ele>82.0</ele><time>2026-04-04T17:21:40.063Z</time></trkpt><trkpt lat="45.7247438" lon="11.6843916"><ele>82.25</ele><time>2026-04-04T17:21:41.064Z</time></trkpt><trkpt lat="45.7247683" lon="11.6842335"><ele>82.5</ele><time>2026-04-04T17:21:42.063Z</time></trkpt><trkpt lat="45.7247942" lon="11.6840721"><ele>82.75</ele><time>2026-04-04T17:21:43.064Z</time></trkpt><trkpt lat="45.7248203" lon="11.6839055"><ele>83.0</ele><time>2026-04-04T17:21:44.064Z</time></trkpt><trkpt lat="45.7248467" lon="11.6837355"><ele>83.5</ele><time>2026-04-04T17:21:45.064Z</time></trkpt><trkpt lat="45.7248745" lon="11.6835703"><ele>84.0</ele><time>2026-04-04T17:21:46.064Z</time></trkpt><trkpt lat="45.7249022" lon="11.6834069"><ele>84.5</ele><time>2026-04-04T17:21:47.064Z</time></trkpt><trkpt lat="45.7249281" lon="11.6832506"><ele>85.0</ele><time>2026-04-04T17:21:48.064Z</time></trkpt><trkpt lat="45.7249508" lon="11.6831078"><ele>85.0</ele><time>2026-04-04T17:21:49.064Z</time></trkpt><trkpt lat="45.7249733" lon="11.6829748"><ele>85.0</ele><time>2026-04-04T17:21:50.064Z</time></trkpt><trkpt lat="45.7249932" lon="11.6828422"><ele>85.0</ele><time>2026-04-04T17:21:51.064Z</time></trkpt><trkpt lat="45.7250133" lon="11.6827082"><ele>85.0</ele><time>2026-04-04T17:21:52.063Z</time></trkpt><trkpt lat="45.7250334" lon="11.6825731"><ele>85.0</ele><time>2026-04-04T17:21:53.064Z</time></trkpt><trkpt lat="45.725056" lon="11.6824324"><ele>84.6</ele><time>2026-04-04T17:21:54.064Z</time></trkpt><trkpt lat="45.7250792" lon="11.6822888"><ele>84.2</ele><time>2026-04-04T17:21:55.064Z</time></trkpt><trkpt lat="45.7251033" lon="11.682145"><ele>83.80000000000001</ele><time>2026-04-04T17:21:56.064Z</time></trkpt><trkpt lat="45.7251281" lon="11.6820026"><ele>83.4</ele><time>2026-04-04T17:21:57.064Z</time></trkpt><trkpt lat="45.7251537" lon="11.681863"><ele>83.0</ele><time>2026-04-04T17:21:58.063Z</time></trkpt><trkpt lat="45.7251744" lon="11.6817236"><ele>83.0</ele><time>2026-04-04T17:21:59.064Z</time></trkpt><trkpt lat="45.7251969" lon="11.6815855"><ele>83.0</ele><time>2026-04-04T17:22:00.064Z</time></trkpt><trkpt lat="45.7252166" lon="11.6814558"><ele>83.0</ele><time>2026-04-04T17:22:01.064Z</time></trkpt><trkpt lat="45.7252358" lon="11.6813336"><ele>83.0</ele><time>2026-04-04T17:22:02.063Z</time></trkpt><trkpt lat="45.7252555" lon="11.6812153"><ele>83.0</ele><time>2026-04-04T17:22:03.063Z</time></trkpt><trkpt lat="45.725273" lon="11.6811032"><ele>83.0</ele><time>2026-04-04T17:22:04.063Z</time></trkpt><trkpt lat="45.7252887" lon="11.6809979"><ele>82.83333333333334</ele><time>2026-04-04T17:22:05.063Z</time></trkpt><trkpt lat="45.7253043" lon="11.6809098"><ele>82.66666666666667</ele><time>2026-04-04T17:22:06.064Z</time></trkpt><trkpt lat="45.7253312" lon="11.6807602"><ele>82.5</ele><time>2026-04-04T17:22:08.064Z</time></trkpt><trkpt lat="45.7253525" lon="11.6806435"><ele>82.33333333333333</ele><time>2026-04-04T17:22:10.063Z</time></trkpt><trkpt lat="45.7253552" lon="11.6805519"><ele>82.16666666666666</ele><time>2026-04-04T17:23:11.064Z</time></trkpt><trkpt lat="45.7253804" lon="11.6804307"><ele>82.0</ele><time>2026-04-04T17:23:15.064Z</time></trkpt><trkpt lat="45.7254087" lon="11.6802888"><ele>82.28571428571428</ele><time>2026-04-04T17:23:17.064Z</time></trkpt><trkpt lat="45.7254331" lon="11.6801995"><ele>82.57142857142857</ele><time>2026-04-04T17:23:18.064Z</time></trkpt><trkpt lat="45.7254626" lon="11.6801044"><ele>82.85714285714286</ele><time>2026-04-04T17:23:19.064Z</time></trkpt><trkpt lat="45.7254944" lon="11.6800055"><ele>83.14285714285714</ele><time>2026-04-04T17:23:20.064Z</time></trkpt><trkpt lat="45.7255276" lon="11.6799062"><ele>83.42857142857143</ele><time>2026-04-04T17:23:21.063Z</time></trkpt><trkpt lat="45.7255621" lon="11.6798152"><ele>83.71428571428571</ele><time>2026-04-04T17:23:22.064Z</time></trkpt><trkpt lat="45.7255965" lon="11.6797325"><ele>84.0</ele><time>2026-04-04T17:23:23.064Z</time></trkpt><trkpt lat="45.7256313" lon="11.6796524"><ele>84.0</ele><time>2026-04-04T17:23:24.063Z</time></trkpt><trkpt lat="45.7256684" lon="11.6795645"><ele>84.0</ele><time>2026-04-04T17:23:25.063Z</time></trkpt><trkpt lat="45.7257127" lon="11.6794706"><ele>84.0</ele><time>2026-04-04T17:23:26.064Z</time></trkpt><trkpt lat="45.7257594" lon="11.679376"><ele>84.0</ele><time>2026-04-04T17:23:27.064Z</time></trkpt><trkpt lat="45.7258062" lon="11.6792815"><ele>84.0</ele><time>2026-04-04T17:23:28.064Z</time></trkpt><trkpt lat="45.7258442" lon="11.679182"><ele>84.0</ele><time>2026-04-04T17:23:29.063Z</time></trkpt><trkpt lat="45.7258735" lon="11.6790836"><ele>83.83333333333333</ele><time>2026-04-04T17:23:30.063Z</time></trkpt><trkpt lat="45.7258917" lon="11.6789823"><ele>83.66666666666667</ele><time>2026-04-04T17:23:31.063Z</time></trkpt><trkpt lat="45.7259046" lon="11.6788789"><ele>83.5</ele><time>2026-04-04T17:23:32.063Z</time></trkpt><trkpt lat="45.7259137" lon="11.6787818"><ele>83.33333333333334</ele><time>2026-04-04T17:23:33.064Z</time></trkpt><trkpt lat="45.7259175" lon="11.6786724"><ele>83.16666666666667</ele><time>2026-04-04T17:23:34.063Z</time></trkpt><trkpt lat="45.7259186" lon="11.6785567"><ele>83.0</ele><time>2026-04-04T17:23:35.064Z</time></trkpt><trkpt lat="45.7259179" lon="11.6784328"><ele>83.60000000000001</ele><time>2026-04-04T17:23:36.063Z</time></trkpt><trkpt lat="45.725916" lon="11.6783127"><ele>84.2</ele><time>2026-04-04T17:23:37.063Z</time></trkpt><trkpt lat="45.7259144" lon="11.6781896"><ele>84.8</ele><time>2026-04-04T17:23:38.063Z</time></trkpt><trkpt lat="45.725911" lon="11.6780574"><ele>85.4</ele><time>2026-04-04T17:23:39.064Z</time></trkpt><trkpt lat="45.7259025" lon="11.6779108"><ele>86.0</ele><time>2026-04-04T17:23:40.063Z</time></trkpt><trkpt lat="45.7258951" lon="11.6777487"><ele>86.0</ele><time>2026-04-04T17:23:41.063Z</time></trkpt><trkpt lat="45.7258868" lon="11.6775767"><ele>86.0</ele><time>2026-04-04T17:23:42.064Z</time></trkpt><trkpt lat="45.7258795" lon="11.6773973"><ele>86.0</ele><time>2026-04-04T17:23:43.064Z</time></trkpt><trkpt lat="45.7258688" lon="11.6772157"><ele>86.0</ele><time>2026-04-04T17:23:44.063Z</time></trkpt><trkpt lat="45.7258598" lon="11.6770341"><ele>85.75</ele><time>2026-04-04T17:23:45.064Z</time></trkpt><trkpt lat="45.7258527" lon="11.6768559"><ele>85.5</ele><time>2026-04-04T17:23:46.064Z</time></trkpt><trkpt lat="45.7258453" lon="11.6766772"><ele>85.25</ele><time>2026-04-04T17:23:47.063Z</time></trkpt><trkpt lat="45.7258421" lon="11.6765005"><ele>85.0</ele><time>2026-04-04T17:23:48.064Z</time></trkpt><trkpt lat="45.7258469" lon="11.6763305"><ele>85.0</ele><time>2026-04-04T17:23:49.063Z</time></trkpt><trkpt lat="45.7258583" lon="11.6761649"><ele>85.0</ele><time>2026-04-04T17:23:50.064Z</time></trkpt><trkpt lat="45.7258794" lon="11.6760065"><ele>85.0</ele><time>2026-04-04T17:23:51.063Z</time></trkpt><trkpt lat="45.7259095" lon="11.6758518"><ele>85.0</ele><time>2026-04-04T17:23:52.064Z</time></trkpt><trkpt lat="45.7259481" lon="11.6757032"><ele>84.75</ele><time>2026-04-04T17:23:53.064Z</time></trkpt><trkpt lat="45.7259934" lon="11.6755541"><ele>84.5</ele><time>2026-04-04T17:23:54.064Z</time></trkpt><trkpt lat="45.7260411" lon="11.6753973"><ele>84.25</ele><time>2026-04-04T17:23:55.064Z</time></trkpt><trkpt lat="45.7260919" lon="11.6752308"><ele>84.0</ele><time>2026-04-04T17:23:56.064Z</time></trkpt><trkpt lat="45.7261468" lon="11.6750575"><ele>84.75</ele><time>2026-04-04T17:23:57.064Z</time></trkpt><trkpt lat="45.7262059" lon="11.6748752"><ele>85.5</ele><time>2026-04-04T17:23:58.064Z</time></trkpt><trkpt lat="45.7262758" lon="11.6746933"><ele>86.25</ele><time>2026-04-04T17:23:59.064Z</time></trkpt><trkpt lat="45.7263534" lon="11.6745112"><ele>87.0</ele><time>2026-04-04T17:24:00.063Z</time></trkpt><trkpt lat="45.7264373" lon="11.6743312"><ele>87.0</ele><time>2026-04-04T17:24:01.063Z</time></trkpt><trkpt lat="45.7265276" lon="11.674154"><ele>87.0</ele><time>2026-04-04T17:24:02.063Z</time></trkpt><trkpt lat="45.726623" lon="11.6739772"><ele>87.0</ele><time>2026-04-04T17:24:03.063Z</time></trkpt><trkpt lat="45.7267244" lon="11.6738024"><ele>87.0</ele><time>2026-04-04T17:24:04.063Z</time></trkpt><trkpt lat="45.7268288" lon="11.6736275"><ele>87.0</ele><time>2026-04-04T17:24:05.063Z</time></trkpt><trkpt lat="45.7269357" lon="11.6734547"><ele>87.0</ele><time>2026-04-04T17:24:06.063Z</time></trkpt><trkpt lat="45.7270423" lon="11.6732814"><ele>87.0</ele><time>2026-04-04T17:24:07.063Z</time></trkpt><trkpt lat="45.7271465" lon="11.6731116"><ele>87.0</ele><time>2026-04-04T17:24:08.064Z</time></trkpt><trkpt lat="45.7272474" lon="11.6729511"><ele>87.0</ele><time>2026-04-04T17:24:09.064Z</time></trkpt><trkpt lat="45.7273422" lon="11.6727986"><ele>86.5</ele><time>2026-04-04T17:24:10.064Z</time></trkpt><trkpt lat="45.7274329" lon="11.672651"><ele>86.0</ele><time>2026-04-04T17:24:11.063Z</time></trkpt><trkpt lat="45.7275219" lon="11.6725098"><ele>85.5</ele><time>2026-04-04T17:24:12.064Z</time></trkpt><trkpt lat="45.7276076" lon="11.6723697"><ele>85.0</ele><time>2026-04-04T17:24:13.064Z</time></trkpt><trkpt lat="45.7276911" lon="11.6722233"><ele>85.25</ele><time>2026-04-04T17:24:14.063Z</time></trkpt><trkpt lat="45.7277687" lon="11.6720664"><ele>85.5</ele><time>2026-04-04T17:24:15.064Z</time></trkpt><trkpt lat="45.7278343" lon="11.6718981"><ele>85.75</ele><time>2026-04-04T17:24:16.063Z</time></trkpt><trkpt lat="45.727883" lon="11.6717237"><ele>86.0</ele><time>2026-04-04T17:24:17.064Z</time></trkpt><trkpt lat="45.727919" lon="11.6715524"><ele>86.0</ele><time>2026-04-04T17:24:18.063Z</time></trkpt><trkpt lat="45.7279471" lon="11.6713884"><ele>86.0</ele><time>2026-04-04T17:24:19.064Z</time></trkpt><trkpt lat="45.7279686" lon="11.6712241"><ele>86.0</ele><time>2026-04-04T17:24:20.064Z</time></trkpt><trkpt lat="45.727989" lon="11.6710553"><ele>86.0</ele><time>2026-04-04T17:24:21.064Z</time></trkpt><trkpt lat="45.7280098" lon="11.6708816"><ele>85.75</ele><time>2026-04-04T17:24:22.063Z</time></trkpt><trkpt lat="45.72803" lon="11.6707038"><ele>85.5</ele><time>2026-04-04T17:24:23.081Z</time></trkpt><trkpt lat="45.7280536" lon="11.6705121"><ele>85.25</ele><time>2026-04-04T17:24:24.07Z</time></trkpt><trkpt lat="45.7280738" lon="11.6703394"><ele>85.0</ele><time>2026-04-04T17:24:25.082Z</time></trkpt><trkpt lat="45.7280944" lon="11.6701563"><ele>85.0</ele><time>2026-04-04T17:24:26.071Z</time></trkpt><trkpt lat="45.7281175" lon="11.6699594"><ele>85.0</ele><time>2026-04-04T17:24:27.082Z</time></trkpt><trkpt lat="45.7281379" lon="11.6697861"><ele>85.0</ele><time>2026-04-04T17:24:28.074Z</time></trkpt><trkpt lat="45.7281587" lon="11.6696039"><ele>85.0</ele><time>2026-04-04T17:24:29.073Z</time></trkpt><trkpt lat="45.7281792" lon="11.6694222"><ele>85.0</ele><time>2026-04-04T17:24:30.073Z</time></trkpt><trkpt lat="45.7282002" lon="11.6692415"><ele>85.0</ele><time>2026-04-04T17:24:31.074Z</time></trkpt><trkpt lat="45.7282238" lon="11.6690481"><ele>85.0</ele><time>2026-04-04T17:24:32.074Z</time></trkpt><trkpt lat="45.7282458" lon="11.6688751"><ele>85.0</ele><time>2026-04-04T17:24:33.073Z</time></trkpt><trkpt lat="45.7282702" lon="11.6686919"><ele>85.25</ele><time>2026-04-04T17:24:34.073Z</time></trkpt><trkpt lat="45.7282982" lon="11.6685129"><ele>85.5</ele><time>2026-04-04T17:24:35.073Z</time></trkpt><trkpt lat="45.7283314" lon="11.6683404"><ele>85.75</ele><time>2026-04-04T17:24:36.074Z</time></trkpt><trkpt lat="45.7283713" lon="11.6681709"><ele>86.0</ele><time>2026-04-04T17:24:37.074Z</time></trkpt><trkpt lat="45.7284164" lon="11.6680004"><ele>86.0</ele><time>2026-04-04T17:24:38.074Z</time></trkpt><trkpt lat="45.7284642" lon="11.6678291"><ele>86.0</ele><time>2026-04-04T17:24:39.073Z</time></trkpt><trkpt lat="45.7285158" lon="11.6676454"><ele>86.0</ele><time>2026-04-04T17:24:40.074Z</time></trkpt><trkpt lat="45.7285618" lon="11.6674842"><ele>86.0</ele><time>2026-04-04T17:24:41.074Z</time></trkpt><trkpt lat="45.7286096" lon="11.6673146"><ele>86.0</ele><time>2026-04-04T17:24:42.074Z</time></trkpt><trkpt lat="45.7286587" lon="11.6671413"><ele>86.0</ele><time>2026-04-04T17:24:43.073Z</time></trkpt><trkpt lat="45.7287006" lon="11.666996"><ele>86.0</ele><time>2026-04-04T17:24:44.073Z</time></trkpt><trkpt lat="45.7287438" lon="11.6668477"><ele>86.0</ele><time>2026-04-04T17:24:45.074Z</time></trkpt><trkpt lat="45.7287867" lon="11.6667027"><ele>86.19999999999999</ele><time>2026-04-04T17:24:46.073Z</time></trkpt><trkpt lat="45.7288318" lon="11.6665656"><ele>86.39999999999999</ele><time>2026-04-04T17:24:47.073Z</time></trkpt><trkpt lat="45.7288856" lon="11.6664289"><ele>86.6</ele><time>2026-04-04T17:24:48.073Z</time></trkpt><trkpt lat="45.7289372" lon="11.6663254"><ele>86.8</ele><time>2026-04-04T17:24:49.074Z</time></trkpt><trkpt lat="45.7289869" lon="11.6662437"><ele>87.0</ele><time>2026-04-04T17:24:50.074Z</time></trkpt><trkpt lat="45.7290664" lon="11.666141"><ele>86.83333333333333</ele><time>2026-04-04T17:24:52.074Z</time></trkpt><trkpt lat="45.7291639" lon="11.6660871"><ele>86.66666666666667</ele><time>2026-04-04T17:24:54.073Z</time></trkpt><trkpt lat="45.7292299" lon="11.6660689"><ele>86.5</ele><time>2026-04-04T17:24:55.074Z</time></trkpt><trkpt lat="45.7293105" lon="11.6660357"><ele>86.33333333333334</ele><time>2026-04-04T17:24:56.073Z</time></trkpt><trkpt lat="45.7293789" lon="11.665976"><ele>86.16666666666667</ele><time>2026-04-04T17:24:57.074Z</time></trkpt><trkpt lat="45.7294304" lon="11.6658876"><ele>86.0</ele><time>2026-04-04T17:24:58.073Z</time></trkpt><trkpt lat="45.7294545" lon="11.6657768"><ele>86.0</ele><time>2026-04-04T17:24:59.074Z</time></trkpt><trkpt lat="45.7294444" lon="11.6656703"><ele>86.0</ele><time>2026-04-04T17:25:00.074Z</time></trkpt><trkpt lat="45.7294019" lon="11.665564"><ele>86.0</ele><time>2026-04-04T17:25:01.073Z</time></trkpt><trkpt lat="45.7293314" lon="11.6654828"><ele>86.0</ele><time>2026-04-04T17:25:02.073Z</time></trkpt><trkpt lat="45.7292395" lon="11.6654207"><ele>86.0</ele><time>2026-04-04T17:25:03.074Z</time></trkpt><trkpt lat="45.729141" lon="11.6653343"><ele>86.0</ele><time>2026-04-04T17:25:04.073Z</time></trkpt><trkpt lat="45.7290657" lon="11.6652231"><ele>86.0</ele><time>2026-04-04T17:25:05.074Z</time></trkpt><trkpt lat="45.7290041" lon="11.6650692"><ele>86.0</ele><time>2026-04-04T17:25:06.074Z</time></trkpt><trkpt lat="45.728962" lon="11.6648801"><ele>86.0</ele><time>2026-04-04T17:25:07.074Z</time></trkpt><trkpt lat="45.7289361" lon="11.6646626"><ele>86.66666666666667</ele><time>2026-04-04T17:25:08.074Z</time></trkpt><trkpt lat="45.7289168" lon="11.6644165"><ele>87.33333333333333</ele><time>2026-04-04T17:25:09.073Z</time></trkpt><trkpt lat="45.7288893" lon="11.6641377"><ele>88.0</ele><time>2026-04-04T17:25:10.074Z</time></trkpt><trkpt lat="45.7288471" lon="11.6638297"><ele>87.5</ele><time>2026-04-04T17:25:11.074Z</time></trkpt><trkpt lat="45.7287856" lon="11.6634842"><ele>87.0</ele><time>2026-04-04T17:25:12.074Z</time></trkpt><trkpt lat="45.7287152" lon="11.6631571"><ele>87.0</ele><time>2026-04-04T17:25:13.074Z</time></trkpt><trkpt lat="45.7286257" lon="11.6627975"><ele>87.0</ele><time>2026-04-04T17:25:14.073Z</time></trkpt><trkpt lat="45.7285151" lon="11.6624018"><ele>87.0</ele><time>2026-04-04T17:25:15.074Z</time></trkpt><trkpt lat="45.7284096" lon="11.6620487"><ele>87.0</ele><time>2026-04-04T17:25:16.074Z</time></trkpt><trkpt lat="45.728295" lon="11.6616684"><ele>86.0</ele><time>2026-04-04T17:25:17.073Z</time></trkpt><trkpt lat="45.7281865" lon="11.6612955"><ele>85.0</ele><time>2026-04-04T17:25:18.074Z</time></trkpt><trkpt lat="45.7280805" lon="11.6609202"><ele>85.0</ele><time>2026-04-04T17:25:19.073Z</time></trkpt><trkpt lat="45.7279777" lon="11.6605162"><ele>85.0</ele><time>2026-04-04T17:25:20.073Z</time></trkpt><trkpt lat="45.7279029" lon="11.6601498"><ele>85.5</ele><time>2026-04-04T17:25:21.074Z</time></trkpt><trkpt lat="45.7278412" lon="11.6597592"><ele>86.0</ele><time>2026-04-04T17:25:22.073Z</time></trkpt><trkpt lat="45.727788" lon="11.6593715"><ele>86.0</ele><time>2026-04-04T17:25:23.073Z</time></trkpt><trkpt lat="45.7277277" lon="11.6589937"><ele>86.0</ele><time>2026-04-04T17:25:24.073Z</time></trkpt><trkpt lat="45.7276523" lon="11.6586279"><ele>85.5</ele><time>2026-04-04T17:25:25.074Z</time></trkpt><trkpt lat="45.7275651" lon="11.6582733"><ele>85.0</ele><time>2026-04-04T17:25:26.074Z</time></trkpt><trkpt lat="45.7274718" lon="11.6579318"><ele>86.0</ele><time>2026-04-04T17:25:27.073Z</time></trkpt><trkpt lat="45.7273778" lon="11.6575817"><ele>87.0</ele><time>2026-04-04T17:25:28.074Z</time></trkpt><trkpt lat="45.7273092" lon="11.6572731"><ele>88.0</ele><time>2026-04-04T17:25:29.073Z</time></trkpt><trkpt lat="45.7272514" lon="11.6569421"><ele>89.0</ele><time>2026-04-04T17:25:30.074Z</time></trkpt><trkpt lat="45.7272027" lon="11.6565789"><ele>89.0</ele><time>2026-04-04T17:25:31.074Z</time></trkpt><trkpt lat="45.7271723" lon="11.6562537"><ele>89.0</ele><time>2026-04-04T17:25:32.074Z</time></trkpt><trkpt lat="45.7271529" lon="11.6559059"><ele>88.5</ele><time>2026-04-04T17:25:33.074Z</time></trkpt><trkpt lat="45.7271416" lon="11.655566"><ele>88.0</ele><time>2026-04-04T17:25:34.073Z</time></trkpt><trkpt lat="45.7271312" lon="11.6552395"><ele>88.0</ele><time>2026-04-04T17:25:35.073Z</time></trkpt><trkpt lat="45.7271198" lon="11.6549073"><ele>88.0</ele><time>2026-04-04T17:25:36.073Z</time></trkpt><trkpt lat="45.7271107" lon="11.6546234"><ele>88.0</ele><time>2026-04-04T17:25:37.073Z</time></trkpt><trkpt lat="45.727102" lon="11.6543349"><ele>88.0</ele><time>2026-04-04T17:25:38.074Z</time></trkpt><trkpt lat="45.7270938" lon="11.6540592"><ele>88.0</ele><time>2026-04-04T17:25:39.074Z</time></trkpt><trkpt lat="45.7270857" lon="11.6537976"><ele>88.0</ele><time>2026-04-04T17:25:40.073Z</time></trkpt><trkpt lat="45.7270784" lon="11.65355"><ele>88.25</ele><time>2026-04-04T17:25:41.074Z</time></trkpt><trkpt lat="45.7270724" lon="11.6533249"><ele>88.5</ele><time>2026-04-04T17:25:42.074Z</time></trkpt><trkpt lat="45.7270671" lon="11.6531183"><ele>88.75</ele><time>2026-04-04T17:25:43.074Z</time></trkpt><trkpt lat="45.7270629" lon="11.6529149"><ele>89.0</ele><time>2026-04-04T17:25:44.073Z</time></trkpt><trkpt lat="45.72706" lon="11.652752"><ele>88.6</ele><time>2026-04-04T17:25:45.074Z</time></trkpt><trkpt lat="45.7270573" lon="11.6525993"><ele>88.2</ele><time>2026-04-04T17:25:46.073Z</time></trkpt><trkpt lat="45.7270541" lon="11.6524565"><ele>87.8</ele><time>2026-04-04T17:25:47.074Z</time></trkpt><trkpt lat="45.7270556" lon="11.6523416"><ele>87.39999999999999</ele><time>2026-04-04T17:25:48.073Z</time></trkpt><trkpt lat="45.7270731" lon="11.6522171"><ele>87.0</ele><time>2026-04-04T17:25:49.073Z</time></trkpt><trkpt lat="45.7271143" lon="11.6520987"><ele>87.0</ele><time>2026-04-04T17:25:50.073Z</time></trkpt><trkpt lat="45.727165" lon="11.6519956"><ele>87.0</ele><time>2026-04-04T17:25:51.073Z</time></trkpt><trkpt lat="45.7272131" lon="11.6518883"><ele>87.0</ele><time>2026-04-04T17:25:52.073Z</time></trkpt><trkpt lat="45.7272414" lon="11.6517871"><ele>87.0</ele><time>2026-04-04T17:25:53.073Z</time></trkpt><trkpt lat="45.7272551" lon="11.6516703"><ele>87.0</ele><time>2026-04-04T17:25:54.074Z</time></trkpt><trkpt lat="45.727247" lon="11.6515492"><ele>87.0</ele><time>2026-04-04T17:25:55.073Z</time></trkpt><trkpt lat="45.727213" lon="11.6514356"><ele>87.0</ele><time>2026-04-04T17:25:56.073Z</time></trkpt><trkpt lat="45.7271551" lon="11.6513403"><ele>87.0</ele><time>2026-04-04T17:25:57.074Z</time></trkpt><trkpt lat="45.7270793" lon="11.6512682"><ele>87.0</ele><time>2026-04-04T17:25:58.074Z</time></trkpt><trkpt lat="45.7269933" lon="11.6512168"><ele>87.0</ele><time>2026-04-04T17:25:59.074Z</time></trkpt><trkpt lat="45.7268969" lon="11.6511571"><ele>87.0</ele><time>2026-04-04T17:26:00.074Z</time></trkpt><trkpt lat="45.7268069" lon="11.6510778"><ele>86.5</ele><time>2026-04-04T17:26:01.074Z</time></trkpt><trkpt lat="45.7267084" lon="11.6509655"><ele>86.0</ele><time>2026-04-04T17:26:02.073Z</time></trkpt><trkpt lat="45.7266001" lon="11.6508134"><ele>85.5</ele><time>2026-04-04T17:26:03.074Z</time></trkpt><trkpt lat="45.7265008" lon="11.650653"><ele>85.0</ele><time>2026-04-04T17:26:04.073Z</time></trkpt><trkpt lat="45.7263857" lon="11.6504505"><ele>84.0</ele><time>2026-04-04T17:26:05.074Z</time></trkpt><trkpt lat="45.7262565" lon="11.6502089"><ele>83.0</ele><time>2026-04-04T17:26:06.074Z</time></trkpt><trkpt lat="45.726115" lon="11.6499201"><ele>83.5</ele><time>2026-04-04T17:26:07.073Z</time></trkpt><trkpt lat="45.7259572" lon="11.6495704"><ele>84.0</ele><time>2026-04-04T17:26:08.074Z</time></trkpt><trkpt lat="45.7258067" lon="11.6492308"><ele>84.0</ele><time>2026-04-04T17:26:09.073Z</time></trkpt><trkpt lat="45.7256344" lon="11.6488526"><ele>84.0</ele><time>2026-04-04T17:26:10.073Z</time></trkpt><trkpt lat="45.7254527" lon="11.6484666"><ele>83.5</ele><time>2026-04-04T17:26:11.073Z</time></trkpt><trkpt lat="45.7252661" lon="11.6480871"><ele>83.0</ele><time>2026-04-04T17:26:12.073Z</time></trkpt><trkpt lat="45.7250762" lon="11.6477218"><ele>83.0</ele><time>2026-04-04T17:26:13.073Z</time></trkpt><trkpt lat="45.7248849" lon="11.6473785"><ele>83.0</ele><time>2026-04-04T17:26:14.073Z</time></trkpt><trkpt lat="45.7246925" lon="11.6470555"><ele>83.0</ele><time>2026-04-04T17:26:15.074Z</time></trkpt><trkpt lat="45.7244895" lon="11.6467337"><ele>83.0</ele><time>2026-04-04T17:26:16.074Z</time></trkpt><trkpt lat="45.7243052" lon="11.6464575"><ele>83.0</ele><time>2026-04-04T17:26:17.073Z</time></trkpt><trkpt lat="45.7241114" lon="11.6461847"><ele>83.0</ele><time>2026-04-04T17:26:18.073Z</time></trkpt><trkpt lat="45.7239113" lon="11.6459153"><ele>82.66666666666667</ele><time>2026-04-04T17:26:19.074Z</time></trkpt><trkpt lat="45.7237492" lon="11.6457089"><ele>82.33333333333333</ele><time>2026-04-04T17:26:20.074Z</time></trkpt><trkpt lat="45.7235878" lon="11.6455102"><ele>82.0</ele><time>2026-04-04T17:26:21.074Z</time></trkpt><trkpt lat="45.7234344" lon="11.6453267"><ele>81.66666666666666</ele><time>2026-04-04T17:26:22.073Z</time></trkpt><trkpt lat="45.7232824" lon="11.6451491"><ele>81.33333333333333</ele><time>2026-04-04T17:26:23.074Z</time></trkpt><trkpt lat="45.7231176" lon="11.6449625"><ele>81.0</ele><time>2026-04-04T17:26:24.074Z</time></trkpt><trkpt lat="45.7229667" lon="11.6447974"><ele>81.0</ele><time>2026-04-04T17:26:25.074Z</time></trkpt><trkpt lat="45.7227895" lon="11.6446125"><ele>81.0</ele><time>2026-04-04T17:26:26.073Z</time></trkpt><trkpt lat="45.7225955" lon="11.6444136"><ele>81.0</ele><time>2026-04-04T17:26:27.073Z</time></trkpt><trkpt lat="45.7223863" lon="11.6441938"><ele>81.0</ele><time>2026-04-04T17:26:28.074Z</time></trkpt><trkpt lat="45.7221646" lon="11.6439558"><ele>81.0</ele><time>2026-04-04T17:26:29.073Z</time></trkpt><trkpt lat="45.7219403" lon="11.6437136"><ele>81.0</ele><time>2026-04-04T17:26:30.074Z</time></trkpt><trkpt lat="45.721718" lon="11.6434747"><ele>81.0</ele><time>2026-04-04T17:26:31.073Z</time></trkpt><trkpt lat="45.7214845" lon="11.6432269"><ele>81.0</ele><time>2026-04-04T17:26:32.074Z</time></trkpt><trkpt lat="45.7212793" lon="11.6430106"><ele>81.5</ele><time>2026-04-04T17:26:33.073Z</time></trkpt><trkpt lat="45.7210628" lon="11.6427831"><ele>82.0</ele><time>2026-04-04T17:26:34.073Z</time></trkpt><trkpt lat="45.7208347" lon="11.6425429"><ele>82.0</ele><time>2026-04-04T17:26:35.073Z</time></trkpt><trkpt lat="45.7206365" lon="11.6423335"><ele>82.0</ele><time>2026-04-04T17:26:36.074Z</time></trkpt><trkpt lat="45.7204263" lon="11.6421112"><ele>82.0</ele><time>2026-04-04T17:26:37.073Z</time></trkpt><trkpt lat="45.7202179" lon="11.6418898"><ele>82.0</ele><time>2026-04-04T17:26:38.074Z</time></trkpt><trkpt lat="45.7200111" lon="11.6416724"><ele>82.0</ele><time>2026-04-04T17:26:39.074Z</time></trkpt><trkpt lat="45.7197933" lon="11.6414456"><ele>82.0</ele><time>2026-04-04T17:26:40.073Z</time></trkpt><trkpt lat="45.7196025" lon="11.6412477"><ele>81.5</ele><time>2026-04-04T17:26:41.073Z</time></trkpt><trkpt lat="45.7194056" lon="11.6410433"><ele>81.0</ele><time>2026-04-04T17:26:42.073Z</time></trkpt><trkpt lat="45.7192153" lon="11.6408454"><ele>81.0</ele><time>2026-04-04T17:26:43.074Z</time></trkpt><trkpt lat="45.7190329" lon="11.6406558"><ele>81.0</ele><time>2026-04-04T17:26:44.074Z</time></trkpt><trkpt lat="45.7188571" lon="11.6404733"><ele>81.0</ele><time>2026-04-04T17:26:45.074Z</time></trkpt><trkpt lat="45.7186868" lon="11.6402949"><ele>81.33333333333333</ele><time>2026-04-04T17:26:46.074Z</time></trkpt><trkpt lat="45.7185188" lon="11.6401205"><ele>81.66666666666666</ele><time>2026-04-04T17:26:47.073Z</time></trkpt><trkpt lat="45.7183465" lon="11.6399439"><ele>82.0</ele><time>2026-04-04T17:26:48.074Z</time></trkpt><trkpt lat="45.7182012" lon="11.6397938"><ele>82.0</ele><time>2026-04-04T17:26:49.073Z</time></trkpt><trkpt lat="45.7180546" lon="11.6396395"><ele>82.0</ele><time>2026-04-04T17:26:50.073Z</time></trkpt><trkpt lat="45.7179067" lon="11.6394819"><ele>82.0</ele><time>2026-04-04T17:26:51.073Z</time></trkpt><trkpt lat="45.7177817" lon="11.6393487"><ele>81.66666666666666</ele><time>2026-04-04T17:26:52.074Z</time></trkpt><trkpt lat="45.7176527" lon="11.6392091"><ele>81.33333333333333</ele><time>2026-04-04T17:26:53.074Z</time></trkpt><trkpt lat="45.7175257" lon="11.6390684"><ele>81.0</ele><time>2026-04-04T17:26:54.074Z</time></trkpt><trkpt lat="45.7173999" lon="11.6389248"><ele>81.0</ele><time>2026-04-04T17:26:55.073Z</time></trkpt><trkpt lat="45.7172705" lon="11.638773"><ele>81.0</ele><time>2026-04-04T17:26:56.073Z</time></trkpt><trkpt lat="45.7171624" lon="11.6386425"><ele>81.0</ele><time>2026-04-04T17:26:57.073Z</time></trkpt><trkpt lat="45.7170551" lon="11.6385113"><ele>81.0</ele><time>2026-04-04T17:26:58.073Z</time></trkpt><trkpt lat="45.7169561" lon="11.6383877"><ele>81.0</ele><time>2026-04-04T17:26:59.073Z</time></trkpt><trkpt lat="45.7168674" lon="11.6382709"><ele>81.0</ele><time>2026-04-04T17:27:00.073Z</time></trkpt><trkpt lat="45.7167895" lon="11.638159"><ele>81.0</ele><time>2026-04-04T17:27:01.074Z</time></trkpt><trkpt lat="45.7167233" lon="11.6380513"><ele>81.0</ele><time>2026-04-04T17:27:02.074Z</time></trkpt><trkpt lat="45.7166724" lon="11.6379537"><ele>81.0</ele><time>2026-04-04T17:27:03.074Z</time></trkpt><trkpt lat="45.7166358" lon="11.6378722"><ele>81.0</ele><time>2026-04-04T17:27:04.074Z</time></trkpt><trkpt lat="45.7165962" lon="11.6377612"><ele>81.0</ele><time>2026-04-04T17:27:06.074Z</time></trkpt><trkpt lat="45.7165842" lon="11.6375704"><ele>81.0</ele><time>2026-04-04T17:27:08.074Z</time></trkpt><trkpt lat="45.7165858" lon="11.63743"><ele>81.0</ele><time>2026-04-04T17:27:09.074Z</time></trkpt><trkpt lat="45.7165696" lon="11.6372877"><ele>81.0</ele><time>2026-04-04T17:27:10.073Z</time></trkpt><trkpt lat="45.7165217" lon="11.6371661"><ele>81.0</ele><time>2026-04-04T17:27:11.074Z</time></trkpt><trkpt lat="45.7164425" lon="11.6370662"><ele>81.0</ele><time>2026-04-04T17:27:12.074Z</time></trkpt><trkpt lat="45.7163541" lon="11.637017"><ele>81.0</ele><time>2026-04-04T17:27:13.073Z</time></trkpt><trkpt lat="45.7162527" lon="11.6370072"><ele>81.0</ele><time>2026-04-04T17:27:14.073Z</time></trkpt><trkpt lat="45.7161499" lon="11.6370409"><ele>81.0</ele><time>2026-04-04T17:27:15.074Z</time></trkpt><trkpt lat="45.7160391" lon="11.6370671"><ele>81.0</ele><time>2026-04-04T17:27:16.073Z</time></trkpt><trkpt lat="45.7159199" lon="11.6370442"><ele>81.0</ele><time>2026-04-04T17:27:17.074Z</time></trkpt><trkpt lat="45.715795" lon="11.6369744"><ele>80.0</ele><time>2026-04-04T17:27:18.073Z</time></trkpt><trkpt lat="45.7156578" lon="11.6368589"><ele>79.0</ele><time>2026-04-04T17:27:19.073Z</time></trkpt><trkpt lat="45.7154956" lon="11.6366936"><ele>78.0</ele><time>2026-04-04T17:27:20.074Z</time></trkpt><trkpt lat="45.7153323" lon="11.6365236"><ele>78.0</ele><time>2026-04-04T17:27:21.073Z</time></trkpt><trkpt lat="45.715148" lon="11.6363371"><ele>78.0</ele><time>2026-04-04T17:27:22.074Z</time></trkpt><trkpt lat="45.7149413" lon="11.6361343"><ele>78.5</ele><time>2026-04-04T17:27:23.073Z</time></trkpt><trkpt lat="45.7147583" lon="11.635953"><ele>79.0</ele><time>2026-04-04T17:27:24.074Z</time></trkpt><trkpt lat="45.7145627" lon="11.6357626"><ele>79.5</ele><time>2026-04-04T17:27:25.073Z</time></trkpt><trkpt lat="45.7143694" lon="11.6355778"><ele>80.0</ele><time>2026-04-04T17:27:26.074Z</time></trkpt><trkpt lat="45.7141837" lon="11.6353994"><ele>80.0</ele><time>2026-04-04T17:27:27.073Z</time></trkpt><trkpt lat="45.7139843" lon="11.6352088"><ele>80.0</ele><time>2026-04-04T17:27:28.074Z</time></trkpt><trkpt lat="45.7137992" lon="11.6350312"><ele>80.0</ele><time>2026-04-04T17:27:29.073Z</time></trkpt><trkpt lat="45.7135927" lon="11.634829"><ele>80.0</ele><time>2026-04-04T17:27:30.073Z</time></trkpt><trkpt lat="45.7133716" lon="11.634612"><ele>78.5</ele><time>2026-04-04T17:27:31.074Z</time></trkpt><trkpt lat="45.713138" lon="11.6343829"><ele>77.0</ele><time>2026-04-04T17:27:32.073Z</time></trkpt><trkpt lat="45.7129021" lon="11.6341369"><ele>77.0</ele><time>2026-04-04T17:27:33.074Z</time></trkpt><trkpt lat="45.712666" lon="11.6338813"><ele>77.0</ele><time>2026-04-04T17:27:34.074Z</time></trkpt><trkpt lat="45.7124304" lon="11.6336275"><ele>77.0</ele><time>2026-04-04T17:27:35.073Z</time></trkpt><trkpt lat="45.7121842" lon="11.6333572"><ele>77.0</ele><time>2026-04-04T17:27:36.073Z</time></trkpt><trkpt lat="45.7119766" lon="11.6331078"><ele>77.0</ele><time>2026-04-04T17:27:37.073Z</time></trkpt><trkpt lat="45.7117696" lon="11.6328296"><ele>77.0</ele><time>2026-04-04T17:27:38.073Z</time></trkpt><trkpt lat="45.7115641" lon="11.6325188"><ele>77.0</ele><time>2026-04-04T17:27:39.073Z</time></trkpt><trkpt lat="45.7113964" lon="11.6322327"><ele>77.0</ele><time>2026-04-04T17:27:40.073Z</time></trkpt><trkpt lat="45.7112301" lon="11.6319154"><ele>76.0</ele><time>2026-04-04T17:27:41.073Z</time></trkpt><trkpt lat="45.7110783" lon="11.6315849"><ele>75.0</ele><time>2026-04-04T17:27:42.074Z</time></trkpt><trkpt lat="45.7109415" lon="11.631243"><ele>74.0</ele><time>2026-04-04T17:27:43.074Z</time></trkpt><trkpt lat="45.7108124" lon="11.6308687"><ele>73.0</ele><time>2026-04-04T17:27:44.073Z</time></trkpt><trkpt lat="45.7107106" lon="11.630527"><ele>74.5</ele><time>2026-04-04T17:27:45.073Z</time></trkpt><trkpt lat="45.7106144" lon="11.6301632"><ele>76.0</ele><time>2026-04-04T17:27:46.073Z</time></trkpt><trkpt lat="45.7105264" lon="11.6298019"><ele>77.0</ele><time>2026-04-04T17:27:47.074Z</time></trkpt><trkpt lat="45.7104455" lon="11.6294585"><ele>78.0</ele><time>2026-04-04T17:27:48.073Z</time></trkpt><trkpt lat="45.7103691" lon="11.6291323"><ele>78.0</ele><time>2026-04-04T17:27:49.074Z</time></trkpt><trkpt lat="45.7102965" lon="11.6288229"><ele>78.0</ele><time>2026-04-04T17:27:50.073Z</time></trkpt><trkpt lat="45.7102259" lon="11.6285209"><ele>78.0</ele><time>2026-04-04T17:27:51.073Z</time></trkpt><trkpt lat="45.7101516" lon="11.6282016"><ele>78.0</ele><time>2026-04-04T17:27:52.073Z</time></trkpt><trkpt lat="45.7100852" lon="11.6279175"><ele>78.0</ele><time>2026-04-04T17:27:53.074Z</time></trkpt><trkpt lat="45.7100153" lon="11.6276161"><ele>78.0</ele><time>2026-04-04T17:27:54.073Z</time></trkpt><trkpt lat="45.7099411" lon="11.627296"><ele>78.0</ele><time>2026-04-04T17:27:55.073Z</time></trkpt><trkpt lat="45.709878" lon="11.6270206"><ele>78.0</ele><time>2026-04-04T17:27:56.073Z</time></trkpt><trkpt lat="45.7098121" lon="11.6267285"><ele>78.0</ele><time>2026-04-04T17:27:57.073Z</time></trkpt><trkpt lat="45.7097484" lon="11.6264379"><ele>78.0</ele><time>2026-04-04T17:27:58.074Z</time></trkpt><trkpt lat="45.709688" lon="11.6261498"><ele>78.0</ele><time>2026-04-04T17:27:59.074Z</time></trkpt><trkpt lat="45.709628" lon="11.6258475"><ele>78.0</ele><time>2026-04-04T17:28:00.074Z</time></trkpt><trkpt lat="45.7095772" lon="11.6255795"><ele>78.0</ele><time>2026-04-04T17:28:01.073Z</time></trkpt><trkpt lat="45.7095263" lon="11.6252972"><ele>78.0</ele><time>2026-04-04T17:28:02.074Z</time></trkpt><trkpt lat="45.7094782" lon="11.6250168"><ele>78.0</ele><time>2026-04-04T17:28:03.074Z</time></trkpt><trkpt lat="45.7094332" lon="11.6247403"><ele>78.0</ele><time>2026-04-04T17:28:04.074Z</time></trkpt><trkpt lat="45.7093913" lon="11.6244668"><ele>78.0</ele><time>2026-04-04T17:28:05.074Z</time></trkpt><trkpt lat="45.7093519" lon="11.6241944"><ele>78.0</ele><time>2026-04-04T17:28:06.074Z</time></trkpt><trkpt lat="45.7093137" lon="11.6239233"><ele>78.0</ele><time>2026-04-04T17:28:07.073Z</time></trkpt><trkpt lat="45.7092731" lon="11.6236386"><ele>78.0</ele><time>2026-04-04T17:28:08.073Z</time></trkpt><trkpt lat="45.7092377" lon="11.623392"><ele>78.0</ele><time>2026-04-04T17:28:09.073Z</time></trkpt><trkpt lat="45.7092016" lon="11.6231367"><ele>78.0</ele><time>2026-04-04T17:28:10.074Z</time></trkpt><trkpt lat="45.7091647" lon="11.6228686"><ele>78.0</ele><time>2026-04-04T17:28:11.073Z</time></trkpt><trkpt lat="45.7091317" lon="11.6226311"><ele>78.0</ele><time>2026-04-04T17:28:12.074Z</time></trkpt><trkpt lat="45.7090945" lon="11.6223747"><ele>78.0</ele><time>2026-04-04T17:28:13.074Z</time></trkpt><trkpt lat="45.709056" lon="11.6221139"><ele>78.0</ele><time>2026-04-04T17:28:14.073Z</time></trkpt><trkpt lat="45.7090161" lon="11.6218486"><ele>78.0</ele><time>2026-04-04T17:28:15.074Z</time></trkpt><trkpt lat="45.7089728" lon="11.6215617"><ele>78.0</ele><time>2026-04-04T17:28:16.073Z</time></trkpt><trkpt lat="45.7089323" lon="11.6213"><ele>78.0</ele><time>2026-04-04T17:28:17.074Z</time></trkpt><trkpt lat="45.708886" lon="11.6210253"><ele>78.0</ele><time>2026-04-04T17:28:18.074Z</time></trkpt><trkpt lat="45.7088343" lon="11.6207359"><ele>78.0</ele><time>2026-04-04T17:28:19.073Z</time></trkpt><trkpt lat="45.708776" lon="11.620422"><ele>78.0</ele><time>2026-04-04T17:28:20.074Z</time></trkpt><trkpt lat="45.7087144" lon="11.6200763"><ele>78.0</ele><time>2026-04-04T17:28:21.074Z</time></trkpt><trkpt lat="45.7086477" lon="11.619704"><ele>78.0</ele><time>2026-04-04T17:28:22.074Z</time></trkpt><trkpt lat="45.7085738" lon="11.6193071"><ele>77.5</ele><time>2026-04-04T17:28:23.074Z</time></trkpt><trkpt lat="45.7085023" lon="11.6189032"><ele>77.0</ele><time>2026-04-04T17:28:24.074Z</time></trkpt><trkpt lat="45.7084345" lon="11.6185223"><ele>77.0</ele><time>2026-04-04T17:28:25.074Z</time></trkpt><trkpt lat="45.708369" lon="11.6181635"><ele>77.0</ele><time>2026-04-04T17:28:26.074Z</time></trkpt><trkpt lat="45.7082989" lon="11.6178041"><ele>76.66666666666667</ele><time>2026-04-04T17:28:27.074Z</time></trkpt><trkpt lat="45.7082394" lon="11.6175071"><ele>76.33333333333333</ele><time>2026-04-04T17:28:28.073Z</time></trkpt><trkpt lat="45.7081787" lon="11.6172035"><ele>76.0</ele><time>2026-04-04T17:28:29.073Z</time></trkpt><trkpt lat="45.7081195" lon="11.6169155"><ele>75.66666666666666</ele><time>2026-04-04T17:28:30.074Z</time></trkpt><trkpt lat="45.7080597" lon="11.6166385"><ele>75.33333333333333</ele><time>2026-04-04T17:28:31.074Z</time></trkpt><trkpt lat="45.7080002" lon="11.616366"><ele>75.0</ele><time>2026-04-04T17:28:32.074Z</time></trkpt><trkpt lat="45.7079442" lon="11.6161038"><ele>76.0</ele><time>2026-04-04T17:28:33.074Z</time></trkpt><trkpt lat="45.7078901" lon="11.6158487"><ele>77.0</ele><time>2026-04-04T17:28:34.074Z</time></trkpt><trkpt lat="45.7078373" lon="11.6155998"><ele>78.0</ele><time>2026-04-04T17:28:35.074Z</time></trkpt><trkpt lat="45.7077813" lon="11.615355"><ele>78.0</ele><time>2026-04-04T17:28:36.074Z</time></trkpt><trkpt lat="45.7077194" lon="11.6151223"><ele>78.0</ele><time>2026-04-04T17:28:37.073Z</time></trkpt><trkpt lat="45.7076513" lon="11.6149052"><ele>78.0</ele><time>2026-04-04T17:28:38.073Z</time></trkpt><trkpt lat="45.7075794" lon="11.614706"><ele>78.0</ele><time>2026-04-04T17:28:39.074Z</time></trkpt><trkpt lat="45.7074984" lon="11.6145111"><ele>78.0</ele><time>2026-04-04T17:28:40.074Z</time></trkpt><trkpt lat="45.7074217" lon="11.6143515"><ele>78.0</ele><time>2026-04-04T17:28:41.074Z</time></trkpt><trkpt lat="45.7073389" lon="11.6141929"><ele>78.0</ele><time>2026-04-04T17:28:42.074Z</time></trkpt><trkpt lat="45.7072541" lon="11.6140374"><ele>78.0</ele><time>2026-04-04T17:28:43.073Z</time></trkpt><trkpt lat="45.7071865" lon="11.6139034"><ele>78.0</ele><time>2026-04-04T17:28:44.073Z</time></trkpt><trkpt lat="45.7071307" lon="11.6137536"><ele>78.0</ele><time>2026-04-04T17:28:45.074Z</time></trkpt><trkpt lat="45.7070952" lon="11.6135905"><ele>78.0</ele><time>2026-04-04T17:28:46.074Z</time></trkpt><trkpt lat="45.7070674" lon="11.6134229"><ele>78.0</ele><time>2026-04-04T17:28:47.073Z</time></trkpt><trkpt lat="45.7070488" lon="11.6132352"><ele>78.0</ele><time>2026-04-04T17:28:48.073Z</time></trkpt><trkpt lat="45.7070528" lon="11.613062"><ele>78.0</ele><time>2026-04-04T17:28:49.073Z</time></trkpt><trkpt lat="45.7070751" lon="11.6128598"><ele>78.0</ele><time>2026-04-04T17:28:50.073Z</time></trkpt><trkpt lat="45.7071134" lon="11.6126379"><ele>77.66666666666667</ele><time>2026-04-04T17:28:51.074Z</time></trkpt><trkpt lat="45.7071625" lon="11.6123995"><ele>77.33333333333334</ele><time>2026-04-04T17:28:52.074Z</time></trkpt><trkpt lat="45.7072138" lon="11.6121494"><ele>77.0</ele><time>2026-04-04T17:28:53.073Z</time></trkpt><trkpt lat="45.7072591" lon="11.6118915"><ele>76.66666666666667</ele><time>2026-04-04T17:28:54.074Z</time></trkpt><trkpt lat="45.7072902" lon="11.6116288"><ele>76.33333333333333</ele><time>2026-04-04T17:28:55.073Z</time></trkpt><trkpt lat="45.7073128" lon="11.6113423"><ele>76.0</ele><time>2026-04-04T17:28:56.073Z</time></trkpt><trkpt lat="45.7073174" lon="11.6110693"><ele>76.0</ele><time>2026-04-04T17:28:57.073Z</time></trkpt><trkpt lat="45.7073075" lon="11.6107983"><ele>76.0</ele><time>2026-04-04T17:28:58.074Z</time></trkpt><trkpt lat="45.7072766" lon="11.6105055"><ele>76.0</ele><time>2026-04-04T17:28:59.073Z</time></trkpt><trkpt lat="45.7072304" lon="11.6102436"><ele>76.0</ele><time>2026-04-04T17:29:00.073Z</time></trkpt><trkpt lat="45.707163" lon="11.6099659"><ele>76.0</ele><time>2026-04-04T17:29:01.074Z</time></trkpt><trkpt lat="45.7070777" lon="11.6096989"><ele>76.0</ele><time>2026-04-04T17:29:02.073Z</time></trkpt><trkpt lat="45.7069772" lon="11.6094448"><ele>76.66666666666666</ele><time>2026-04-04T17:29:03.073Z</time></trkpt><trkpt lat="45.7068556" lon="11.6091883"><ele>77.33333333333333</ele><time>2026-04-04T17:29:04.073Z</time></trkpt><trkpt lat="45.7067415" lon="11.6089713"><ele>78.0</ele><time>2026-04-04T17:29:05.074Z</time></trkpt><trkpt lat="45.7066215" lon="11.6087363"><ele>79.0</ele><time>2026-04-04T17:29:06.073Z</time></trkpt><trkpt lat="45.7065093" lon="11.6084893"><ele>80.0</ele><time>2026-04-04T17:29:07.073Z</time></trkpt><trkpt lat="45.7064059" lon="11.6082289"><ele>81.0</ele><time>2026-04-04T17:29:08.074Z</time></trkpt><trkpt lat="45.7063088" lon="11.6079543"><ele>81.0</ele><time>2026-04-04T17:29:09.074Z</time></trkpt><trkpt lat="45.7062143" lon="11.6076707"><ele>81.0</ele><time>2026-04-04T17:29:10.074Z</time></trkpt><trkpt lat="45.7061196" lon="11.6073835"><ele>81.0</ele><time>2026-04-04T17:29:11.074Z</time></trkpt><trkpt lat="45.7060245" lon="11.6070897"><ele>79.66666666666667</ele><time>2026-04-04T17:29:12.073Z</time></trkpt><trkpt lat="45.7059299" lon="11.6067983"><ele>78.33333333333334</ele><time>2026-04-04T17:29:13.074Z</time></trkpt><trkpt lat="45.705839" lon="11.6065141"><ele>77.0</ele><time>2026-04-04T17:29:14.073Z</time></trkpt><trkpt lat="45.7057499" lon="11.6062183"><ele>77.33333333333334</ele><time>2026-04-04T17:29:15.074Z</time></trkpt><trkpt lat="45.7056811" lon="11.6059696"><ele>77.66666666666667</ele><time>2026-04-04T17:29:16.074Z</time></trkpt><trkpt lat="45.7056136" lon="11.6057104"><ele>78.0</ele><time>2026-04-04T17:29:17.073Z</time></trkpt><trkpt lat="45.705549" lon="11.6054622"><ele>77.66666666666667</ele><time>2026-04-04T17:29:18.073Z</time></trkpt><trkpt lat="45.7054829" lon="11.6052095"><ele>77.33333333333334</ele><time>2026-04-04T17:29:19.073Z</time></trkpt><trkpt lat="45.7054148" lon="11.6049525"><ele>77.0</ele><time>2026-04-04T17:29:20.074Z</time></trkpt><trkpt lat="45.7053482" lon="11.6047054"><ele>77.0</ele><time>2026-04-04T17:29:21.074Z</time></trkpt><trkpt lat="45.7052824" lon="11.604467"><ele>77.0</ele><time>2026-04-04T17:29:22.074Z</time></trkpt><trkpt lat="45.7052149" lon="11.6042336"><ele>77.0</ele><time>2026-04-04T17:29:23.074Z</time></trkpt><trkpt lat="45.7051462" lon="11.6040062"><ele>77.33333333333334</ele><time>2026-04-04T17:29:24.074Z</time></trkpt><trkpt lat="45.7050759" lon="11.6037821"><ele>77.66666666666667</ele><time>2026-04-04T17:29:25.073Z</time></trkpt><trkpt lat="45.7050047" lon="11.6035638"><ele>78.0</ele><time>2026-04-04T17:29:26.074Z</time></trkpt><trkpt lat="45.7049342" lon="11.6033517"><ele>78.0</ele><time>2026-04-04T17:29:27.073Z</time></trkpt><trkpt lat="45.7048652" lon="11.6031412"><ele>78.0</ele><time>2026-04-04T17:29:28.073Z</time></trkpt><trkpt lat="45.7047999" lon="11.6029379"><ele>78.0</ele><time>2026-04-04T17:29:29.074Z</time></trkpt><trkpt lat="45.7047374" lon="11.6027437"><ele>77.75</ele><time>2026-04-04T17:29:30.073Z</time></trkpt><trkpt lat="45.7046752" lon="11.6025505"><ele>77.5</ele><time>2026-04-04T17:29:31.073Z</time></trkpt><trkpt lat="45.7046286" lon="11.6024013"><ele>77.25</ele><time>2026-04-04T17:29:32.073Z</time></trkpt><trkpt lat="45.7045886" lon="11.6022537"><ele>77.0</ele><time>2026-04-04T17:29:33.074Z</time></trkpt><trkpt lat="45.7045676" lon="11.6021102"><ele>76.8</ele><time>2026-04-04T17:29:34.073Z</time></trkpt><trkpt lat="45.704569" lon="11.6019637"><ele>76.6</ele><time>2026-04-04T17:29:35.074Z</time></trkpt><trkpt lat="45.7045739" lon="11.601809"><ele>76.39999999999999</ele><time>2026-04-04T17:29:36.074Z</time></trkpt><trkpt lat="45.7045556" lon="11.6016714"><ele>76.2</ele><time>2026-04-04T17:29:37.073Z</time></trkpt><trkpt lat="45.7045087" lon="11.6015476"><ele>76.0</ele><time>2026-04-04T17:29:38.074Z</time></trkpt><trkpt lat="45.704435" lon="11.6014426"><ele>76.25</ele><time>2026-04-04T17:29:39.073Z</time></trkpt><trkpt lat="45.7043485" lon="11.6013377"><ele>76.5</ele><time>2026-04-04T17:29:40.074Z</time></trkpt><trkpt lat="45.7042571" lon="11.6012177"><ele>76.75</ele><time>2026-04-04T17:29:41.074Z</time></trkpt><trkpt lat="45.7041614" lon="11.6010907"><ele>77.0</ele><time>2026-04-04T17:29:42.074Z</time></trkpt><trkpt lat="45.7040577" lon="11.6009609"><ele>77.0</ele><time>2026-04-04T17:29:43.073Z</time></trkpt><trkpt lat="45.7039473" lon="11.600827"><ele>77.0</ele><time>2026-04-04T17:29:44.074Z</time></trkpt><trkpt lat="45.7038388" lon="11.6006834"><ele>77.0</ele><time>2026-04-04T17:29:45.073Z</time></trkpt><trkpt lat="45.703738" lon="11.6005227"><ele>77.0</ele><time>2026-04-04T17:29:46.073Z</time></trkpt><trkpt lat="45.7036411" lon="11.6003275"><ele>77.33333333333334</ele><time>2026-04-04T17:29:47.074Z</time></trkpt><trkpt lat="45.7035672" lon="11.6001352"><ele>77.66666666666667</ele><time>2026-04-04T17:29:48.074Z</time></trkpt><trkpt lat="45.7034948" lon="11.5999056"><ele>78.0</ele><time>2026-04-04T17:29:49.073Z</time></trkpt><trkpt lat="45.7034201" lon="11.5996555"><ele>77.66666666666667</ele><time>2026-04-04T17:29:50.074Z</time></trkpt><trkpt lat="45.703339" lon="11.5993879"><ele>77.33333333333334</ele><time>2026-04-04T17:29:51.073Z</time></trkpt><trkpt lat="45.7032479" lon="11.5990857"><ele>77.0</ele><time>2026-04-04T17:29:52.073Z</time></trkpt><trkpt lat="45.7031669" lon="11.5988145"><ele>77.5</ele><time>2026-04-04T17:29:53.073Z</time></trkpt><trkpt lat="45.7030782" lon="11.5985137"><ele>78.0</ele><time>2026-04-04T17:29:54.073Z</time></trkpt><trkpt lat="45.702988" lon="11.5982044"><ele>78.0</ele><time>2026-04-04T17:29:55.074Z</time></trkpt><trkpt lat="45.7028959" lon="11.5978898"><ele>78.0</ele><time>2026-04-04T17:29:56.074Z</time></trkpt><trkpt lat="45.7028037" lon="11.5975752"><ele>79.0</ele><time>2026-04-04T17:29:57.074Z</time></trkpt><trkpt lat="45.7027145" lon="11.5972687"><ele>80.0</ele><time>2026-04-04T17:29:58.074Z</time></trkpt><trkpt lat="45.7026253" lon="11.5969675"><ele>80.5</ele><time>2026-04-04T17:29:59.074Z</time></trkpt><trkpt lat="45.7025332" lon="11.5966688"><ele>81.0</ele><time>2026-04-04T17:30:00.074Z</time></trkpt><trkpt lat="45.7024425" lon="11.5963752"><ele>81.0</ele><time>2026-04-04T17:30:01.073Z</time></trkpt><trkpt lat="45.7023527" lon="11.5960838"><ele>81.0</ele><time>2026-04-04T17:30:02.074Z</time></trkpt><trkpt lat="45.7022557" lon="11.5957761"><ele>81.0</ele><time>2026-04-04T17:30:03.074Z</time></trkpt><trkpt lat="45.7021735" lon="11.5955045"><ele>81.0</ele><time>2026-04-04T17:30:04.073Z</time></trkpt><trkpt lat="45.702087" lon="11.5952153"><ele>81.0</ele><time>2026-04-04T17:30:05.074Z</time></trkpt><trkpt lat="45.7019991" lon="11.5949213"><ele>81.5</ele><time>2026-04-04T17:30:06.073Z</time></trkpt><trkpt lat="45.7019065" lon="11.5946123"><ele>82.0</ele><time>2026-04-04T17:30:07.073Z</time></trkpt><trkpt lat="45.7017967" lon="11.5942623"><ele>82.0</ele><time>2026-04-04T17:30:08.074Z</time></trkpt><trkpt lat="45.7016974" lon="11.5939387"><ele>82.0</ele><time>2026-04-04T17:30:09.073Z</time></trkpt><trkpt lat="45.7015931" lon="11.5935703"><ele>82.0</ele><time>2026-04-04T17:30:10.074Z</time></trkpt><trkpt lat="45.70149" lon="11.5931852"><ele>82.0</ele><time>2026-04-04T17:30:11.073Z</time></trkpt><trkpt lat="45.7013853" lon="11.5928002"><ele>82.5</ele><time>2026-04-04T17:30:12.073Z</time></trkpt><trkpt lat="45.7012792" lon="11.5924234"><ele>83.0</ele><time>2026-04-04T17:30:13.073Z</time></trkpt><trkpt lat="45.7011736" lon="11.5920564"><ele>83.5</ele><time>2026-04-04T17:30:14.074Z</time></trkpt><trkpt lat="45.7010703" lon="11.591704"><ele>84.0</ele><time>2026-04-04T17:30:15.074Z</time></trkpt><trkpt lat="45.7009627" lon="11.5913415"><ele>84.0</ele><time>2026-04-04T17:30:16.073Z</time></trkpt><trkpt lat="45.7008709" lon="11.5910311"><ele>84.0</ele><time>2026-04-04T17:30:17.074Z</time></trkpt><trkpt lat="45.7007761" lon="11.5907074"><ele>84.0</ele><time>2026-04-04T17:30:18.074Z</time></trkpt><trkpt lat="45.7006748" lon="11.5903587"><ele>84.0</ele><time>2026-04-04T17:30:19.073Z</time></trkpt><trkpt lat="45.7005846" lon="11.5900463"><ele>84.0</ele><time>2026-04-04T17:30:20.073Z</time></trkpt><trkpt lat="45.7004872" lon="11.5897073"><ele>84.0</ele><time>2026-04-04T17:30:21.073Z</time></trkpt><trkpt lat="45.7003872" lon="11.5893588"><ele>85.5</ele><time>2026-04-04T17:30:22.074Z</time></trkpt><trkpt lat="45.7002873" lon="11.5890102"><ele>87.0</ele><time>2026-04-04T17:30:23.074Z</time></trkpt><trkpt lat="45.7001803" lon="11.5886341"><ele>87.5</ele><time>2026-04-04T17:30:24.074Z</time></trkpt><trkpt lat="45.7000865" lon="11.5883028"><ele>88.0</ele><time>2026-04-04T17:30:25.074Z</time></trkpt><trkpt lat="45.6999859" lon="11.5879476"><ele>88.5</ele><time>2026-04-04T17:30:26.073Z</time></trkpt><trkpt lat="45.6998855" lon="11.5875925"><ele>89.0</ele><time>2026-04-04T17:30:27.073Z</time></trkpt><trkpt lat="45.6997855" lon="11.5872392"><ele>89.5</ele><time>2026-04-04T17:30:28.073Z</time></trkpt><trkpt lat="45.6996853" lon="11.5868896"><ele>90.0</ele><time>2026-04-04T17:30:29.074Z</time></trkpt><trkpt lat="45.6995845" lon="11.5865409"><ele>90.0</ele><time>2026-04-04T17:30:30.073Z</time></trkpt><trkpt lat="45.699485" lon="11.5862003"><ele>90.0</ele><time>2026-04-04T17:30:31.073Z</time></trkpt><trkpt lat="45.6993798" lon="11.5858404"><ele>90.0</ele><time>2026-04-04T17:30:32.073Z</time></trkpt><trkpt lat="45.6992889" lon="11.5855211"><ele>90.0</ele><time>2026-04-04T17:30:33.073Z</time></trkpt><trkpt lat="45.6991944" lon="11.5851827"><ele>90.0</ele><time>2026-04-04T17:30:34.074Z</time></trkpt><trkpt lat="45.6991019" lon="11.5848423"><ele>90.0</ele><time>2026-04-04T17:30:35.073Z</time></trkpt><trkpt lat="45.6990116" lon="11.5845032"><ele>90.5</ele><time>2026-04-04T17:30:36.073Z</time></trkpt><trkpt lat="45.6989209" lon="11.5841633"><ele>91.0</ele><time>2026-04-04T17:30:37.073Z</time></trkpt><trkpt lat="45.6988297" lon="11.5838223"><ele>91.0</ele><time>2026-04-04T17:30:38.074Z</time></trkpt><trkpt lat="45.6987384" lon="11.5834819"><ele>91.0</ele><time>2026-04-04T17:30:39.074Z</time></trkpt><trkpt lat="45.6986478" lon="11.5831459"><ele>91.5</ele><time>2026-04-04T17:30:40.073Z</time></trkpt><trkpt lat="45.6985594" lon="11.5828179"><ele>92.0</ele><time>2026-04-04T17:30:41.073Z</time></trkpt><trkpt lat="45.6984757" lon="11.5825054"><ele>92.0</ele><time>2026-04-04T17:30:42.074Z</time></trkpt><trkpt lat="45.6983996" lon="11.582222"><ele>92.0</ele><time>2026-04-04T17:30:43.073Z</time></trkpt><trkpt lat="45.6983157" lon="11.5819086"><ele>92.0</ele><time>2026-04-04T17:30:44.074Z</time></trkpt><trkpt lat="45.6982383" lon="11.581621"><ele>92.33333333333334</ele><time>2026-04-04T17:30:45.074Z</time></trkpt><trkpt lat="45.698162" lon="11.5813367"><ele>92.66666666666667</ele><time>2026-04-04T17:30:46.074Z</time></trkpt><trkpt lat="45.6980871" lon="11.5810515"><ele>93.0</ele><time>2026-04-04T17:30:47.074Z</time></trkpt><trkpt lat="45.6980134" lon="11.5807716"><ele>93.0</ele><time>2026-04-04T17:30:48.073Z</time></trkpt><trkpt lat="45.697935" lon="11.580507"><ele>93.0</ele><time>2026-04-04T17:30:49.073Z</time></trkpt><trkpt lat="45.6978462" lon="11.5802674"><ele>93.0</ele><time>2026-04-04T17:30:50.073Z</time></trkpt><trkpt lat="45.6977444" lon="11.5800369"><ele>93.66666666666667</ele><time>2026-04-04T17:30:51.073Z</time></trkpt><trkpt lat="45.6976598" lon="11.5798431"><ele>94.33333333333334</ele><time>2026-04-04T17:30:52.073Z</time></trkpt><trkpt lat="45.6975859" lon="11.5796378"><ele>95.0</ele><time>2026-04-04T17:30:53.073Z</time></trkpt><trkpt lat="45.6975312" lon="11.5794352"><ele>95.0</ele><time>2026-04-04T17:30:54.074Z</time></trkpt><trkpt lat="45.6974871" lon="11.5792409"><ele>95.0</ele><time>2026-04-04T17:30:55.073Z</time></trkpt><trkpt lat="45.6974478" lon="11.5790677"><ele>95.0</ele><time>2026-04-04T17:30:56.074Z</time></trkpt><trkpt lat="45.6974094" lon="11.5789182"><ele>95.0</ele><time>2026-04-04T17:30:57.074Z</time></trkpt><trkpt lat="45.6973721" lon="11.5787889"><ele>94.8</ele><time>2026-04-04T17:30:58.073Z</time></trkpt><trkpt lat="45.6973442" lon="11.578669"><ele>94.6</ele><time>2026-04-04T17:30:59.074Z</time></trkpt><trkpt lat="45.6973398" lon="11.5785313"><ele>94.4</ele><time>2026-04-04T17:31:00.074Z</time></trkpt><trkpt lat="45.6973451" lon="11.5783998"><ele>94.2</ele><time>2026-04-04T17:31:01.073Z</time></trkpt><trkpt lat="45.6973233" lon="11.57828"><ele>94.0</ele><time>2026-04-04T17:31:02.073Z</time></trkpt><trkpt lat="45.6972748" lon="11.5781721"><ele>94.0</ele><time>2026-04-04T17:31:03.074Z</time></trkpt><trkpt lat="45.6972036" lon="11.578095"><ele>94.0</ele><time>2026-04-04T17:31:04.074Z</time></trkpt><trkpt lat="45.6971164" lon="11.5780624"><ele>94.0</ele><time>2026-04-04T17:31:05.074Z</time></trkpt><trkpt lat="45.6970227" lon="11.5780709"><ele>94.0</ele><time>2026-04-04T17:31:06.074Z</time></trkpt><trkpt lat="45.6969164" lon="11.5780784"><ele>94.0</ele><time>2026-04-04T17:31:07.074Z</time></trkpt><trkpt lat="45.6968231" lon="11.5780484"><ele>93.5</ele><time>2026-04-04T17:31:08.074Z</time></trkpt><trkpt lat="45.6967255" lon="11.5779762"><ele>93.0</ele><time>2026-04-04T17:31:09.074Z</time></trkpt><trkpt lat="45.6966393" lon="11.5778648"><ele>92.5</ele><time>2026-04-04T17:31:10.073Z</time></trkpt><trkpt lat="45.6965737" lon="11.5777172"><ele>92.0</ele><time>2026-04-04T17:31:11.074Z</time></trkpt><trkpt lat="45.6965278" lon="11.5775401"><ele>91.66666666666667</ele><time>2026-04-04T17:31:12.073Z</time></trkpt><trkpt lat="45.6964927" lon="11.5773346"><ele>91.33333333333333</ele><time>2026-04-04T17:31:13.073Z</time></trkpt><trkpt lat="45.696458" lon="11.5771056"><ele>91.0</ele><time>2026-04-04T17:31:14.074Z</time></trkpt><trkpt lat="45.6964226" lon="11.5768756"><ele>91.66666666666666</ele><time>2026-04-04T17:31:15.073Z</time></trkpt><trkpt lat="45.6963778" lon="11.5765956"><ele>92.33333333333333</ele><time>2026-04-04T17:31:16.074Z</time></trkpt><trkpt lat="45.6963333" lon="11.576316"><ele>93.0</ele><time>2026-04-04T17:31:17.074Z</time></trkpt><trkpt lat="45.6962878" lon="11.5760238"><ele>93.33333333333333</ele><time>2026-04-04T17:31:18.073Z</time></trkpt><trkpt lat="45.6962405" lon="11.5757229"><ele>93.66666666666666</ele><time>2026-04-04T17:31:19.073Z</time></trkpt><trkpt lat="45.6961923" lon="11.5754141"><ele>94.0</ele><time>2026-04-04T17:31:20.073Z</time></trkpt><trkpt lat="45.6961446" lon="11.575106"><ele>93.5</ele><time>2026-04-04T17:31:21.073Z</time></trkpt><trkpt lat="45.6960986" lon="11.5747993"><ele>93.0</ele><time>2026-04-04T17:31:22.074Z</time></trkpt><trkpt lat="45.6960515" lon="11.574476"><ele>93.0</ele><time>2026-04-04T17:31:23.074Z</time></trkpt><trkpt lat="45.6960117" lon="11.5741974"><ele>93.0</ele><time>2026-04-04T17:31:24.073Z</time></trkpt><trkpt lat="45.6959726" lon="11.5739095"><ele>93.0</ele><time>2026-04-04T17:31:25.074Z</time></trkpt><trkpt lat="45.695937" lon="11.5736332"><ele>93.33333333333333</ele><time>2026-04-04T17:31:26.074Z</time></trkpt><trkpt lat="45.695904" lon="11.5733687"><ele>93.66666666666666</ele><time>2026-04-04T17:31:27.074Z</time></trkpt><trkpt lat="45.6958741" lon="11.5731123"><ele>94.0</ele><time>2026-04-04T17:31:28.074Z</time></trkpt><trkpt lat="45.6958458" lon="11.5728665"><ele>94.33333333333333</ele><time>2026-04-04T17:31:29.074Z</time></trkpt><trkpt lat="45.6958175" lon="11.5726229"><ele>94.66666666666667</ele><time>2026-04-04T17:31:30.073Z</time></trkpt><trkpt lat="45.695789" lon="11.572376"><ele>95.0</ele><time>2026-04-04T17:31:31.074Z</time></trkpt><trkpt lat="45.6957624" lon="11.5721274"><ele>95.0</ele><time>2026-04-04T17:31:32.073Z</time></trkpt><trkpt lat="45.6957373" lon="11.5718762"><ele>95.0</ele><time>2026-04-04T17:31:33.074Z</time></trkpt><trkpt lat="45.6957142" lon="11.5716232"><ele>95.0</ele><time>2026-04-04T17:31:34.074Z</time></trkpt><trkpt lat="45.6956916" lon="11.5713658"><ele>95.0</ele><time>2026-04-04T17:31:35.074Z</time></trkpt><trkpt lat="45.6956691" lon="11.5711095"><ele>95.0</ele><time>2026-04-04T17:31:36.074Z</time></trkpt><trkpt lat="45.6956471" lon="11.5708512"><ele>95.0</ele><time>2026-04-04T17:31:37.073Z</time></trkpt><trkpt lat="45.6956254" lon="11.5705924"><ele>95.33333333333334</ele><time>2026-04-04T17:31:38.073Z</time></trkpt><trkpt lat="45.695596" lon="11.570324"><ele>95.66666666666667</ele><time>2026-04-04T17:31:39.073Z</time></trkpt><trkpt lat="45.6955551" lon="11.5701005"><ele>96.0</ele><time>2026-04-04T17:31:40.073Z</time></trkpt><trkpt lat="45.6954915" lon="11.5698747"><ele>96.0</ele><time>2026-04-04T17:31:41.074Z</time></trkpt><trkpt lat="45.6954059" lon="11.569663"><ele>96.0</ele><time>2026-04-04T17:31:42.074Z</time></trkpt><trkpt lat="45.6952958" lon="11.5694712"><ele>96.0</ele><time>2026-04-04T17:31:43.073Z</time></trkpt><trkpt lat="45.695166" lon="11.5693113"><ele>95.66666666666667</ele><time>2026-04-04T17:31:44.073Z</time></trkpt><trkpt lat="45.6950266" lon="11.5691845"><ele>95.33333333333334</ele><time>2026-04-04T17:31:45.074Z</time></trkpt><trkpt lat="45.6948844" lon="11.5690791"><ele>95.0</ele><time>2026-04-04T17:31:46.074Z</time></trkpt><trkpt lat="45.69474" lon="11.5689845"><ele>95.0</ele><time>2026-04-04T17:31:47.073Z</time></trkpt><trkpt lat="45.6945949" lon="11.5688888"><ele>95.0</ele><time>2026-04-04T17:31:48.074Z</time></trkpt><trkpt lat="45.6944541" lon="11.5687816"><ele>95.0</ele><time>2026-04-04T17:31:49.074Z</time></trkpt><trkpt lat="45.6943202" lon="11.568652"><ele>95.0</ele><time>2026-04-04T17:31:50.074Z</time></trkpt><trkpt lat="45.6941965" lon="11.5684941"><ele>95.0</ele><time>2026-04-04T17:31:51.073Z</time></trkpt><trkpt lat="45.694092" lon="11.5683104"><ele>95.0</ele><time>2026-04-04T17:31:52.074Z</time></trkpt><trkpt lat="45.694007" lon="11.5681026"><ele>95.0</ele><time>2026-04-04T17:31:53.073Z</time></trkpt><trkpt lat="45.6939423" lon="11.5678751"><ele>95.0</ele><time>2026-04-04T17:31:54.074Z</time></trkpt><trkpt lat="45.6939005" lon="11.5676354"><ele>95.0</ele><time>2026-04-04T17:31:55.063Z</time></trkpt><trkpt lat="45.6938826" lon="11.5673832"><ele>95.33333333333334</ele><time>2026-04-04T17:31:56.063Z</time></trkpt><trkpt lat="45.6938734" lon="11.5671388"><ele>95.66666666666667</ele><time>2026-04-04T17:31:57.064Z</time></trkpt><trkpt lat="45.6938724" lon="11.5668988"><ele>96.0</ele><time>2026-04-04T17:31:58.064Z</time></trkpt><trkpt lat="45.6938678" lon="11.5666653"><ele>96.25</ele><time>2026-04-04T17:31:59.063Z</time></trkpt><trkpt lat="45.6938628" lon="11.5664405"><ele>96.5</ele><time>2026-04-04T17:32:00.063Z</time></trkpt><trkpt lat="45.6938586" lon="11.5662286"><ele>96.75</ele><time>2026-04-04T17:32:01.064Z</time></trkpt><trkpt lat="45.6938553" lon="11.5660245"><ele>97.0</ele><time>2026-04-04T17:32:02.063Z</time></trkpt><trkpt lat="45.6938503" lon="11.5658333"><ele>97.5</ele><time>2026-04-04T17:32:03.063Z</time></trkpt><trkpt lat="45.693844" lon="11.5656496"><ele>98.0</ele><time>2026-04-04T17:32:04.063Z</time></trkpt><trkpt lat="45.6938406" lon="11.5654767"><ele>98.5</ele><time>2026-04-04T17:32:05.063Z</time></trkpt><trkpt lat="45.693836" lon="11.5653085"><ele>99.0</ele><time>2026-04-04T17:32:06.064Z</time></trkpt><trkpt lat="45.6938266" lon="11.5651503"><ele>99.0</ele><time>2026-04-04T17:32:07.063Z</time></trkpt><trkpt lat="45.6938098" lon="11.5649967"><ele>99.0</ele><time>2026-04-04T17:32:08.063Z</time></trkpt><trkpt lat="45.6937907" lon="11.5648462"><ele>99.0</ele><time>2026-04-04T17:32:09.063Z</time></trkpt><trkpt lat="45.6937641" lon="11.5646981"><ele>99.0</ele><time>2026-04-04T17:32:10.064Z</time></trkpt><trkpt lat="45.6937328" lon="11.5645588"><ele>99.0</ele><time>2026-04-04T17:32:11.063Z</time></trkpt><trkpt lat="45.6936961" lon="11.5644291"><ele>99.0</ele><time>2026-04-04T17:32:12.063Z</time></trkpt><trkpt lat="45.6936587" lon="11.5643074"><ele>99.0</ele><time>2026-04-04T17:32:13.064Z</time></trkpt><trkpt lat="45.693623" lon="11.5641999"><ele>99.0</ele><time>2026-04-04T17:32:14.064Z</time></trkpt><trkpt lat="45.6935833" lon="11.5640768"><ele>99.0</ele><time>2026-04-04T17:32:16.063Z</time></trkpt><trkpt lat="45.6935549" lon="11.563983"><ele>99.0</ele><time>2026-04-04T17:32:21.063Z</time></trkpt><trkpt lat="45.6935369" lon="11.5638842"><ele>99.0</ele><time>2026-04-04T17:32:24.064Z</time></trkpt><trkpt lat="45.6935733" lon="11.5637462"><ele>99.0</ele><time>2026-04-04T17:32:26.064Z</time></trkpt><trkpt lat="45.6936116" lon="11.5636653"><ele>99.0</ele><time>2026-04-04T17:32:27.063Z</time></trkpt><trkpt lat="45.6936502" lon="11.5635652"><ele>99.0</ele><time>2026-04-04T17:32:28.064Z</time></trkpt><trkpt lat="45.6936772" lon="11.5634425"><ele>99.0</ele><time>2026-04-04T17:32:29.063Z</time></trkpt><trkpt lat="45.6936824" lon="11.5633055"><ele>99.0</ele><time>2026-04-04T17:32:30.063Z</time></trkpt><trkpt lat="45.6936679" lon="11.5631595"><ele>99.0</ele><time>2026-04-04T17:32:31.064Z</time></trkpt><trkpt lat="45.693637" lon="11.5630075"><ele>99.0</ele><time>2026-04-04T17:32:32.063Z</time></trkpt><trkpt lat="45.6936121" lon="11.5628458"><ele>99.0</ele><time>2026-04-04T17:32:33.064Z</time></trkpt><trkpt lat="45.6936095" lon="11.5626793"><ele>99.0</ele><time>2026-04-04T17:32:34.063Z</time></trkpt><trkpt lat="45.6936256" lon="11.5625019"><ele>99.0</ele><time>2026-04-04T17:32:35.064Z</time></trkpt><trkpt lat="45.6936587" lon="11.5623108"><ele>99.0</ele><time>2026-04-04T17:32:36.064Z</time></trkpt><trkpt lat="45.6936984" lon="11.5621068"><ele>99.0</ele><time>2026-04-04T17:32:37.064Z</time></trkpt><trkpt lat="45.6937496" lon="11.5618962"><ele>99.0</ele><time>2026-04-04T17:32:38.064Z</time></trkpt><trkpt lat="45.6938055" lon="11.5616775"><ele>98.66666666666666</ele><time>2026-04-04T17:32:39.064Z</time></trkpt><trkpt lat="45.6938666" lon="11.5614609"><ele>98.33333333333333</ele><time>2026-04-04T17:32:40.063Z</time></trkpt><trkpt lat="45.6939294" lon="11.5612486"><ele>98.0</ele><time>2026-04-04T17:32:41.063Z</time></trkpt><trkpt lat="45.693995" lon="11.5610469"><ele>98.0</ele><time>2026-04-04T17:32:42.064Z</time></trkpt><trkpt lat="45.694068" lon="11.5608646"><ele>98.0</ele><time>2026-04-04T17:32:43.064Z</time></trkpt><trkpt lat="45.6941504" lon="11.560696"><ele>98.0</ele><time>2026-04-04T17:32:44.064Z</time></trkpt><trkpt lat="45.69424" lon="11.5605382"><ele>98.0</ele><time>2026-04-04T17:32:45.064Z</time></trkpt><trkpt lat="45.694337" lon="11.5603854"><ele>98.5</ele><time>2026-04-04T17:32:46.063Z</time></trkpt><trkpt lat="45.6944424" lon="11.5602407"><ele>99.0</ele><time>2026-04-04T17:32:47.064Z</time></trkpt><trkpt lat="45.6945529" lon="11.5601008"><ele>99.5</ele><time>2026-04-04T17:32:48.063Z</time></trkpt><trkpt lat="45.6946625" lon="11.5599603"><ele>100.0</ele><time>2026-04-04T17:32:49.064Z</time></trkpt><trkpt lat="45.6947633" lon="11.5598087"><ele>100.0</ele><time>2026-04-04T17:32:50.064Z</time></trkpt><trkpt lat="45.6948549" lon="11.5596484"><ele>100.0</ele><time>2026-04-04T17:32:51.064Z</time></trkpt><trkpt lat="45.6949404" lon="11.5594805"><ele>100.0</ele><time>2026-04-04T17:32:52.063Z</time></trkpt><trkpt lat="45.6950164" lon="11.5593042"><ele>100.0</ele><time>2026-04-04T17:32:53.063Z</time></trkpt><trkpt lat="45.6950839" lon="11.5591178"><ele>100.0</ele><time>2026-04-04T17:32:54.063Z</time></trkpt><trkpt lat="45.6951396" lon="11.5589173"><ele>100.0</ele><time>2026-04-04T17:32:55.064Z</time></trkpt><trkpt lat="45.695183" lon="11.5587085"><ele>100.0</ele><time>2026-04-04T17:32:56.063Z</time></trkpt><trkpt lat="45.6952156" lon="11.5584889"><ele>101.0</ele><time>2026-04-04T17:32:57.063Z</time></trkpt><trkpt lat="45.6952352" lon="11.5582612"><ele>102.0</ele><time>2026-04-04T17:32:58.064Z</time></trkpt><trkpt lat="45.6952423" lon="11.5580268"><ele>103.0</ele><time>2026-04-04T17:32:59.063Z</time></trkpt><trkpt lat="45.6952364" lon="11.5577846"><ele>103.0</ele><time>2026-04-04T17:33:00.064Z</time></trkpt><trkpt lat="45.6952251" lon="11.5575374"><ele>103.0</ele><time>2026-04-04T17:33:01.064Z</time></trkpt><trkpt lat="45.6952115" lon="11.557288"><ele>103.0</ele><time>2026-04-04T17:33:02.063Z</time></trkpt><trkpt lat="45.6952" lon="11.5570374"><ele>102.33333333333334</ele><time>2026-04-04T17:33:03.064Z</time></trkpt><trkpt lat="45.6951886" lon="11.5567845"><ele>101.66666666666666</ele><time>2026-04-04T17:33:04.064Z</time></trkpt><trkpt lat="45.695173" lon="11.5565281"><ele>101.0</ele><time>2026-04-04T17:33:05.063Z</time></trkpt><trkpt lat="45.6951557" lon="11.5562731"><ele>101.33333333333333</ele><time>2026-04-04T17:33:06.063Z</time></trkpt><trkpt lat="45.6951441" lon="11.5560221"><ele>101.66666666666666</ele><time>2026-04-04T17:33:07.063Z</time></trkpt><trkpt lat="45.6951316" lon="11.5557827"><ele>102.0</ele><time>2026-04-04T17:33:08.064Z</time></trkpt><trkpt lat="45.6951196" lon="11.5555565"><ele>102.0</ele><time>2026-04-04T17:33:09.064Z</time></trkpt><trkpt lat="45.6951057" lon="11.5553391"><ele>102.0</ele><time>2026-04-04T17:33:10.064Z</time></trkpt><trkpt lat="45.6950946" lon="11.555131"><ele>102.0</ele><time>2026-04-04T17:33:11.064Z</time></trkpt><trkpt lat="45.6950813" lon="11.5549289"><ele>102.0</ele><time>2026-04-04T17:33:12.063Z</time></trkpt><trkpt lat="45.6950701" lon="11.5547296"><ele>101.5</ele><time>2026-04-04T17:33:13.064Z</time></trkpt><trkpt lat="45.6950568" lon="11.5545262"><ele>101.0</ele><time>2026-04-04T17:33:14.064Z</time></trkpt><trkpt lat="45.6950349" lon="11.5543242"><ele>100.5</ele><time>2026-04-04T17:33:15.064Z</time></trkpt><trkpt lat="45.695006" lon="11.5541111"><ele>100.0</ele><time>2026-04-04T17:33:16.064Z</time></trkpt><trkpt lat="45.6949749" lon="11.5538974"><ele>100.0</ele><time>2026-04-04T17:33:17.063Z</time></trkpt><trkpt lat="45.6949407" lon="11.5536824"><ele>100.0</ele><time>2026-04-04T17:33:18.064Z</time></trkpt><trkpt lat="45.6949043" lon="11.5534656"><ele>100.0</ele><time>2026-04-04T17:33:19.064Z</time></trkpt><trkpt lat="45.6948687" lon="11.5532455"><ele>100.0</ele><time>2026-04-04T17:33:20.063Z</time></trkpt><trkpt lat="45.6948432" lon="11.5530337"><ele>100.0</ele><time>2026-04-04T17:33:21.064Z</time></trkpt><trkpt lat="45.6948312" lon="11.5528336"><ele>100.0</ele><time>2026-04-04T17:33:22.064Z</time></trkpt><trkpt lat="45.6948316" lon="11.5526386"><ele>100.0</ele><time>2026-04-04T17:33:23.063Z</time></trkpt><trkpt lat="45.6948494" lon="11.5524454"><ele>100.25</ele><time>2026-04-04T17:33:24.064Z</time></trkpt><trkpt lat="45.6948775" lon="11.5522524"><ele>100.5</ele><time>2026-04-04T17:33:25.063Z</time></trkpt><trkpt lat="45.6948903" lon="11.5520482"><ele>100.75</ele><time>2026-04-04T17:33:26.063Z</time></trkpt><trkpt lat="45.6948836" lon="11.5518346"><ele>101.0</ele><time>2026-04-04T17:33:27.064Z</time></trkpt><trkpt lat="45.6948673" lon="11.5516158"><ele>101.33333333333333</ele><time>2026-04-04T17:33:28.064Z</time></trkpt><trkpt lat="45.6948457" lon="11.5513971"><ele>101.66666666666666</ele><time>2026-04-04T17:33:29.063Z</time></trkpt><trkpt lat="45.6948236" lon="11.5511787"><ele>102.0</ele><time>2026-04-04T17:33:30.064Z</time></trkpt><trkpt lat="45.6948022" lon="11.5509592"><ele>101.33333333333334</ele><time>2026-04-04T17:33:31.064Z</time></trkpt><trkpt lat="45.6947773" lon="11.5507379"><ele>100.66666666666667</ele><time>2026-04-04T17:33:32.064Z</time></trkpt><trkpt lat="45.6947516" lon="11.5505166"><ele>100.0</ele><time>2026-04-04T17:33:33.064Z</time></trkpt><trkpt lat="45.6947258" lon="11.5502926"><ele>98.66666666666667</ele><time>2026-04-04T17:33:34.064Z</time></trkpt><trkpt lat="45.6946982" lon="11.5500696"><ele>97.33333333333334</ele><time>2026-04-04T17:33:35.063Z</time></trkpt><trkpt lat="45.6946749" lon="11.5498563"><ele>96.0</ele><time>2026-04-04T17:33:36.064Z</time></trkpt><trkpt lat="45.6946534" lon="11.5496542"><ele>95.75</ele><time>2026-04-04T17:33:37.064Z</time></trkpt><trkpt lat="45.6946336" lon="11.5494577"><ele>95.5</ele><time>2026-04-04T17:33:38.063Z</time></trkpt><trkpt lat="45.6946091" lon="11.5492586"><ele>95.25</ele><time>2026-04-04T17:33:39.064Z</time></trkpt><trkpt lat="45.6945863" lon="11.5490551"><ele>95.0</ele><time>2026-04-04T17:33:40.064Z</time></trkpt><trkpt lat="45.6945647" lon="11.5488497"><ele>97.0</ele><time>2026-04-04T17:33:41.064Z</time></trkpt><trkpt lat="45.6945434" lon="11.5486392"><ele>99.0</ele><time>2026-04-04T17:33:42.063Z</time></trkpt><trkpt lat="45.6945169" lon="11.548419"><ele>101.0</ele><time>2026-04-04T17:33:43.063Z</time></trkpt><trkpt lat="45.6944912" lon="11.5481925"><ele>101.0</ele><time>2026-04-04T17:33:44.063Z</time></trkpt><trkpt lat="45.6944635" lon="11.5479546"><ele>101.0</ele><time>2026-04-04T17:33:45.064Z</time></trkpt><trkpt lat="45.6944367" lon="11.5477075"><ele>101.0</ele><time>2026-04-04T17:33:46.064Z</time></trkpt><trkpt lat="45.694405" lon="11.5474508"><ele>101.0</ele><time>2026-04-04T17:33:47.064Z</time></trkpt><trkpt lat="45.6943754" lon="11.5471825"><ele>101.0</ele><time>2026-04-04T17:33:48.064Z</time></trkpt><trkpt lat="45.6943446" lon="11.5469073"><ele>101.0</ele><time>2026-04-04T17:33:49.064Z</time></trkpt><trkpt lat="45.6943107" lon="11.5466256"><ele>101.0</ele><time>2026-04-04T17:33:50.063Z</time></trkpt><trkpt lat="45.6942757" lon="11.5463414"><ele>101.0</ele><time>2026-04-04T17:33:51.064Z</time></trkpt><trkpt lat="45.6942401" lon="11.5460612"><ele>101.0</ele><time>2026-04-04T17:33:52.063Z</time></trkpt><trkpt lat="45.6942075" lon="11.545786"><ele>102.0</ele><time>2026-04-04T17:33:53.064Z</time></trkpt><trkpt lat="45.6941751" lon="11.545518"><ele>103.0</ele><time>2026-04-04T17:33:54.064Z</time></trkpt><trkpt lat="45.6941462" lon="11.5452537"><ele>104.0</ele><time>2026-04-04T17:33:55.064Z</time></trkpt><trkpt lat="45.6941137" lon="11.5449882"><ele>104.0</ele><time>2026-04-04T17:33:56.064Z</time></trkpt><trkpt lat="45.6940827" lon="11.5447237"><ele>104.0</ele><time>2026-04-04T17:33:57.064Z</time></trkpt><trkpt lat="45.694052" lon="11.5444646"><ele>104.0</ele><time>2026-04-04T17:33:58.064Z</time></trkpt><trkpt lat="45.6940221" lon="11.5442079"><ele>103.33333333333333</ele><time>2026-04-04T17:33:59.063Z</time></trkpt><trkpt lat="45.6939945" lon="11.5439525"><ele>102.66666666666666</ele><time>2026-04-04T17:34:00.064Z</time></trkpt><trkpt lat="45.6939646" lon="11.5436982"><ele>102.0</ele><time>2026-04-04T17:34:01.063Z</time></trkpt><trkpt lat="45.6939362" lon="11.5434441"><ele>102.0</ele><time>2026-04-04T17:34:02.064Z</time></trkpt><trkpt lat="45.6939064" lon="11.5431916"><ele>102.0</ele><time>2026-04-04T17:34:03.064Z</time></trkpt><trkpt lat="45.693878" lon="11.5429422"><ele>102.0</ele><time>2026-04-04T17:34:04.064Z</time></trkpt><trkpt lat="45.6938495" lon="11.5426954"><ele>102.33333333333334</ele><time>2026-04-04T17:34:05.063Z</time></trkpt><trkpt lat="45.6938183" lon="11.5424509"><ele>102.66666666666667</ele><time>2026-04-04T17:34:06.063Z</time></trkpt><trkpt lat="45.693782" lon="11.5422093"><ele>103.0</ele><time>2026-04-04T17:34:07.063Z</time></trkpt><trkpt lat="45.6937395" lon="11.5419724"><ele>103.66666666666667</ele><time>2026-04-04T17:34:08.064Z</time></trkpt><trkpt lat="45.6936907" lon="11.541736"><ele>104.33333333333334</ele><time>2026-04-04T17:34:09.064Z</time></trkpt><trkpt lat="45.6936402" lon="11.5415048"><ele>105.0</ele><time>2026-04-04T17:34:10.063Z</time></trkpt><trkpt lat="45.6935905" lon="11.5412787"><ele>104.66666666666666</ele><time>2026-04-04T17:34:11.063Z</time></trkpt><trkpt lat="45.6935411" lon="11.5410611"><ele>104.33333333333333</ele><time>2026-04-04T17:34:12.064Z</time></trkpt><trkpt lat="45.6934894" lon="11.5408505"><ele>104.0</ele><time>2026-04-04T17:34:13.064Z</time></trkpt><trkpt lat="45.6934401" lon="11.5406501"><ele>104.0</ele><time>2026-04-04T17:34:14.063Z</time></trkpt><trkpt lat="45.6933942" lon="11.5404603"><ele>104.0</ele><time>2026-04-04T17:34:15.063Z</time></trkpt><trkpt lat="45.693363" lon="11.5402784"><ele>104.0</ele><time>2026-04-04T17:34:16.064Z</time></trkpt><trkpt lat="45.693345" lon="11.5401135"><ele>104.0</ele><time>2026-04-04T17:34:17.063Z</time></trkpt><trkpt lat="45.6933411" lon="11.5399856"><ele>103.99999999999999</ele><time>2026-04-04T17:34:18.064Z</time></trkpt><trkpt lat="45.6933439" lon="11.5398817"><ele>104.0</ele><time>2026-04-04T17:34:19.063Z</time></trkpt><trkpt lat="45.6933543" lon="11.5397899"><ele>104.0</ele><time>2026-04-04T17:34:20.064Z</time></trkpt><trkpt lat="45.6933884" lon="11.5397035"><ele>104.0</ele><time>2026-04-04T17:34:21.063Z</time></trkpt><trkpt lat="45.6934422" lon="11.5396227"><ele>103.99999999999999</ele><time>2026-04-04T17:34:22.063Z</time></trkpt><trkpt lat="45.6935049" lon="11.5395461"><ele>104.0</ele><time>2026-04-04T17:34:23.063Z</time></trkpt><trkpt lat="45.6935541" lon="11.5394464"><ele>104.33333333333333</ele><time>2026-04-04T17:34:24.064Z</time></trkpt><trkpt lat="45.6935781" lon="11.5393307"><ele>104.66666666666666</ele><time>2026-04-04T17:34:25.064Z</time></trkpt><trkpt lat="45.693576" lon="11.5392163"><ele>105.0</ele><time>2026-04-04T17:34:26.064Z</time></trkpt><trkpt lat="45.6935481" lon="11.5391068"><ele>105.33333333333334</ele><time>2026-04-04T17:34:27.063Z</time></trkpt><trkpt lat="45.6935007" lon="11.5390033"><ele>105.66666666666667</ele><time>2026-04-04T17:34:28.063Z</time></trkpt><trkpt lat="45.6934465" lon="11.5388942"><ele>106.0</ele><time>2026-04-04T17:34:29.064Z</time></trkpt><trkpt lat="45.6934016" lon="11.5387684"><ele>105.5</ele><time>2026-04-04T17:34:30.064Z</time></trkpt><trkpt lat="45.6933695" lon="11.538624"><ele>105.0</ele><time>2026-04-04T17:34:31.063Z</time></trkpt><trkpt lat="45.6933407" lon="11.5384546"><ele>104.5</ele><time>2026-04-04T17:34:32.063Z</time></trkpt><trkpt lat="45.6933113" lon="11.5382567"><ele>104.0</ele><time>2026-04-04T17:34:33.063Z</time></trkpt><trkpt lat="45.6932857" lon="11.5380078"><ele>104.0</ele><time>2026-04-04T17:34:34.063Z</time></trkpt><trkpt lat="45.693254" lon="11.5377174"><ele>104.0</ele><time>2026-04-04T17:34:35.063Z</time></trkpt><trkpt lat="45.6932209" lon="11.5373893"><ele>104.0</ele><time>2026-04-04T17:34:36.064Z</time></trkpt><trkpt lat="45.6931914" lon="11.5370312"><ele>103.0</ele><time>2026-04-04T17:34:37.064Z</time></trkpt><trkpt lat="45.6931584" lon="11.536652"><ele>102.0</ele><time>2026-04-04T17:34:38.063Z</time></trkpt><trkpt lat="45.693117" lon="11.5362658"><ele>102.5</ele><time>2026-04-04T17:34:39.064Z</time></trkpt><trkpt lat="45.6930722" lon="11.5358842"><ele>103.0</ele><time>2026-04-04T17:34:40.063Z</time></trkpt><trkpt lat="45.6930286" lon="11.5355031"><ele>104.5</ele><time>2026-04-04T17:34:41.064Z</time></trkpt><trkpt lat="45.6929864" lon="11.5351237"><ele>106.0</ele><time>2026-04-04T17:34:42.064Z</time></trkpt><trkpt lat="45.692942" lon="11.5347448"><ele>105.5</ele><time>2026-04-04T17:34:43.063Z</time></trkpt><trkpt lat="45.6928971" lon="11.534367"><ele>105.0</ele><time>2026-04-04T17:34:44.064Z</time></trkpt><trkpt lat="45.6928549" lon="11.5339918"><ele>105.5</ele><time>2026-04-04T17:34:45.064Z</time></trkpt><trkpt lat="45.6928141" lon="11.5336202"><ele>106.0</ele><time>2026-04-04T17:34:46.064Z</time></trkpt><trkpt lat="45.6927743" lon="11.5332539"><ele>104.5</ele><time>2026-04-04T17:34:47.064Z</time></trkpt><trkpt lat="45.6927334" lon="11.5328915"><ele>103.0</ele><time>2026-04-04T17:34:48.064Z</time></trkpt><trkpt lat="45.6926913" lon="11.5325295"><ele>103.0</ele><time>2026-04-04T17:34:49.063Z</time></trkpt><trkpt lat="45.6926484" lon="11.5321756"><ele>103.0</ele><time>2026-04-04T17:34:50.064Z</time></trkpt><trkpt lat="45.6926058" lon="11.5318244"><ele>103.0</ele><time>2026-04-04T17:34:51.063Z</time></trkpt><trkpt lat="45.6925658" lon="11.5314773"><ele>103.0</ele><time>2026-04-04T17:34:52.063Z</time></trkpt><trkpt lat="45.6925276" lon="11.5311281"><ele>102.5</ele><time>2026-04-04T17:34:53.064Z</time></trkpt><trkpt lat="45.6924922" lon="11.5307754"><ele>102.0</ele><time>2026-04-04T17:34:54.063Z</time></trkpt><trkpt lat="45.6924638" lon="11.5304213"><ele>102.5</ele><time>2026-04-04T17:34:55.063Z</time></trkpt><trkpt lat="45.6924452" lon="11.5300592"><ele>103.0</ele><time>2026-04-04T17:34:56.063Z</time></trkpt><trkpt lat="45.6924333" lon="11.5296949"><ele>103.0</ele><time>2026-04-04T17:34:57.063Z</time></trkpt><trkpt lat="45.6924314" lon="11.5293237"><ele>103.0</ele><time>2026-04-04T17:34:58.064Z</time></trkpt><trkpt lat="45.6924379" lon="11.5289488"><ele>103.5</ele><time>2026-04-04T17:34:59.064Z</time></trkpt><trkpt lat="45.692449" lon="11.528564"><ele>104.0</ele><time>2026-04-04T17:35:00.064Z</time></trkpt><trkpt lat="45.6924621" lon="11.5281709"><ele>104.0</ele><time>2026-04-04T17:35:01.064Z</time></trkpt><trkpt lat="45.6924816" lon="11.5277699"><ele>104.0</ele><time>2026-04-04T17:35:02.064Z</time></trkpt><trkpt lat="45.6925099" lon="11.5273604"><ele>103.0</ele><time>2026-04-04T17:35:03.064Z</time></trkpt><trkpt lat="45.6925484" lon="11.5269557"><ele>102.0</ele><time>2026-04-04T17:35:04.064Z</time></trkpt><trkpt lat="45.6925885" lon="11.5265514"><ele>102.5</ele><time>2026-04-04T17:35:05.064Z</time></trkpt><trkpt lat="45.6926243" lon="11.5261486"><ele>103.0</ele><time>2026-04-04T17:35:06.063Z</time></trkpt><trkpt lat="45.6926553" lon="11.5257473"><ele>103.5</ele><time>2026-04-04T17:35:07.064Z</time></trkpt><trkpt lat="45.6926835" lon="11.5253462"><ele>104.0</ele><time>2026-04-04T17:35:08.063Z</time></trkpt><trkpt lat="45.6927121" lon="11.5249443"><ele>103.0</ele><time>2026-04-04T17:35:09.063Z</time></trkpt><trkpt lat="45.6927397" lon="11.524548"><ele>102.0</ele><time>2026-04-04T17:35:10.063Z</time></trkpt><trkpt lat="45.692767" lon="11.524157"><ele>101.0</ele><time>2026-04-04T17:35:11.064Z</time></trkpt><trkpt lat="45.6927935" lon="11.5237672"><ele>100.0</ele><time>2026-04-04T17:35:12.063Z</time></trkpt><trkpt lat="45.6928202" lon="11.5233789"><ele>100.0</ele><time>2026-04-04T17:35:13.063Z</time></trkpt><trkpt lat="45.6928471" lon="11.5229951"><ele>100.0</ele><time>2026-04-04T17:35:14.064Z</time></trkpt><trkpt lat="45.6928737" lon="11.5226184"><ele>100.0</ele><time>2026-04-04T17:35:15.063Z</time></trkpt><trkpt lat="45.6929" lon="11.5222453"><ele>100.0</ele><time>2026-04-04T17:35:16.063Z</time></trkpt><trkpt lat="45.6929268" lon="11.5218788"><ele>99.5</ele><time>2026-04-04T17:35:17.063Z</time></trkpt><trkpt lat="45.6929512" lon="11.5215184"><ele>99.0</ele><time>2026-04-04T17:35:18.063Z</time></trkpt><trkpt lat="45.6929779" lon="11.5211628"><ele>99.0</ele><time>2026-04-04T17:35:19.064Z</time></trkpt><trkpt lat="45.693001" lon="11.5208089"><ele>99.0</ele><time>2026-04-04T17:35:20.064Z</time></trkpt><trkpt lat="45.6930236" lon="11.5204595"><ele>99.5</ele><time>2026-04-04T17:35:21.064Z</time></trkpt><trkpt lat="45.6930491" lon="11.5201133"><ele>100.0</ele><time>2026-04-04T17:35:22.063Z</time></trkpt><trkpt lat="45.6930734" lon="11.5197709"><ele>99.5</ele><time>2026-04-04T17:35:23.063Z</time></trkpt><trkpt lat="45.6930991" lon="11.5194279"><ele>99.0</ele><time>2026-04-04T17:35:24.064Z</time></trkpt><trkpt lat="45.6931245" lon="11.5190877"><ele>99.0</ele><time>2026-04-04T17:35:25.063Z</time></trkpt><trkpt lat="45.6931493" lon="11.5187485"><ele>99.0</ele><time>2026-04-04T17:35:26.064Z</time></trkpt><trkpt lat="45.6931747" lon="11.5184109"><ele>100.0</ele><time>2026-04-04T17:35:27.064Z</time></trkpt><trkpt lat="45.693198" lon="11.5180744"><ele>101.0</ele><time>2026-04-04T17:35:28.063Z</time></trkpt><trkpt lat="45.6932218" lon="11.5177366"><ele>101.5</ele><time>2026-04-04T17:35:29.064Z</time></trkpt><trkpt lat="45.6932472" lon="11.5174023"><ele>102.0</ele><time>2026-04-04T17:35:30.063Z</time></trkpt><trkpt lat="45.6932716" lon="11.5170699"><ele>103.5</ele><time>2026-04-04T17:35:31.063Z</time></trkpt><trkpt lat="45.6932931" lon="11.5167409"><ele>105.0</ele><time>2026-04-04T17:35:32.063Z</time></trkpt><trkpt lat="45.6933158" lon="11.5164094"><ele>103.5</ele><time>2026-04-04T17:35:33.063Z</time></trkpt><trkpt lat="45.6933378" lon="11.5160762"><ele>102.0</ele><time>2026-04-04T17:35:34.063Z</time></trkpt><trkpt lat="45.6933614" lon="11.5157418"><ele>102.0</ele><time>2026-04-04T17:35:35.063Z</time></trkpt><trkpt lat="45.6933851" lon="11.5154078"><ele>102.0</ele><time>2026-04-04T17:35:36.064Z</time></trkpt><trkpt lat="45.6934088" lon="11.5150739"><ele>102.0</ele><time>2026-04-04T17:35:37.063Z</time></trkpt><trkpt lat="45.6934308" lon="11.5147382"><ele>102.0</ele><time>2026-04-04T17:35:38.064Z</time></trkpt><trkpt lat="45.6934541" lon="11.5143991"><ele>102.0</ele><time>2026-04-04T17:35:39.064Z</time></trkpt><trkpt lat="45.6934783" lon="11.514057"><ele>102.0</ele><time>2026-04-04T17:35:40.063Z</time></trkpt><trkpt lat="45.6935024" lon="11.5137143"><ele>102.0</ele><time>2026-04-04T17:35:41.063Z</time></trkpt><trkpt lat="45.6935261" lon="11.5133701"><ele>102.0</ele><time>2026-04-04T17:35:42.064Z</time></trkpt><trkpt lat="45.6935517" lon="11.5130284"><ele>102.0</ele><time>2026-04-04T17:35:43.063Z</time></trkpt><trkpt lat="45.6935758" lon="11.5126867"><ele>102.0</ele><time>2026-04-04T17:35:44.063Z</time></trkpt><trkpt lat="45.6935995" lon="11.5123483"><ele>103.0</ele><time>2026-04-04T17:35:45.064Z</time></trkpt><trkpt lat="45.6936239" lon="11.5120094"><ele>104.0</ele><time>2026-04-04T17:35:46.063Z</time></trkpt><trkpt lat="45.6936476" lon="11.5116744"><ele>104.0</ele><time>2026-04-04T17:35:47.064Z</time></trkpt><trkpt lat="45.6936709" lon="11.5113432"><ele>104.0</ele><time>2026-04-04T17:35:48.064Z</time></trkpt><trkpt lat="45.6936932" lon="11.511017"><ele>104.33333333333333</ele><time>2026-04-04T17:35:49.064Z</time></trkpt><trkpt lat="45.6937149" lon="11.5107024"><ele>104.66666666666666</ele><time>2026-04-04T17:35:50.064Z</time></trkpt><trkpt lat="45.6937372" lon="11.5103978"><ele>105.0</ele><time>2026-04-04T17:35:51.064Z</time></trkpt><trkpt lat="45.6937583" lon="11.5100992"><ele>105.66666666666666</ele><time>2026-04-04T17:35:52.063Z</time></trkpt><trkpt lat="45.6937797" lon="11.509805"><ele>106.33333333333333</ele><time>2026-04-04T17:35:53.063Z</time></trkpt><trkpt lat="45.6938012" lon="11.5095172"><ele>107.0</ele><time>2026-04-04T17:35:54.064Z</time></trkpt><trkpt lat="45.6938211" lon="11.509228"><ele>107.0</ele><time>2026-04-04T17:35:55.064Z</time></trkpt><trkpt lat="45.69384" lon="11.5089393"><ele>107.0</ele><time>2026-04-04T17:35:56.063Z</time></trkpt><trkpt lat="45.6938605" lon="11.5086526"><ele>107.0</ele><time>2026-04-04T17:35:57.063Z</time></trkpt><trkpt lat="45.6938817" lon="11.5083766"><ele>106.66666666666666</ele><time>2026-04-04T17:35:58.063Z</time></trkpt><trkpt lat="45.6939011" lon="11.5081033"><ele>106.33333333333334</ele><time>2026-04-04T17:35:59.064Z</time></trkpt><trkpt lat="45.6939191" lon="11.5078331"><ele>106.0</ele><time>2026-04-04T17:36:00.064Z</time></trkpt><trkpt lat="45.693938" lon="11.5075648"><ele>106.66666666666667</ele><time>2026-04-04T17:36:01.063Z</time></trkpt><trkpt lat="45.6939563" lon="11.5073018"><ele>107.33333333333334</ele><time>2026-04-04T17:36:02.063Z</time></trkpt><trkpt lat="45.6939737" lon="11.5070424"><ele>108.0</ele><time>2026-04-04T17:36:03.064Z</time></trkpt><trkpt lat="45.6939921" lon="11.5067907"><ele>108.0</ele><time>2026-04-04T17:36:04.064Z</time></trkpt><trkpt lat="45.6940096" lon="11.5065508"><ele>108.0</ele><time>2026-04-04T17:36:05.063Z</time></trkpt><trkpt lat="45.6940276" lon="11.5063101"><ele>108.0</ele><time>2026-04-04T17:36:06.063Z</time></trkpt><trkpt lat="45.6940456" lon="11.5060667"><ele>107.66666666666666</ele><time>2026-04-04T17:36:07.063Z</time></trkpt><trkpt lat="45.6940639" lon="11.505826"><ele>107.33333333333333</ele><time>2026-04-04T17:36:08.064Z</time></trkpt><trkpt lat="45.6940812" lon="11.5055877"><ele>107.0</ele><time>2026-04-04T17:36:09.063Z</time></trkpt><trkpt lat="45.6940992" lon="11.5053475"><ele>106.66666666666666</ele><time>2026-04-04T17:36:10.063Z</time></trkpt><trkpt lat="45.6941159" lon="11.5051059"><ele>106.33333333333334</ele><time>2026-04-04T17:36:11.063Z</time></trkpt><trkpt lat="45.6941344" lon="11.5048625"><ele>106.0</ele><time>2026-04-04T17:36:12.063Z</time></trkpt><trkpt lat="45.6941533" lon="11.5046177"><ele>107.0</ele><time>2026-04-04T17:36:13.063Z</time></trkpt><trkpt lat="45.6941714" lon="11.5043729"><ele>108.0</ele><time>2026-04-04T17:36:14.064Z</time></trkpt><trkpt lat="45.6941904" lon="11.5041255"><ele>109.0</ele><time>2026-04-04T17:36:15.064Z</time></trkpt><trkpt lat="45.6942074" lon="11.5038774"><ele>109.0</ele><time>2026-04-04T17:36:16.063Z</time></trkpt><trkpt lat="45.6942238" lon="11.5036277"><ele>109.0</ele><time>2026-04-04T17:36:17.063Z</time></trkpt><trkpt lat="45.6942432" lon="11.5033741"><ele>109.0</ele><time>2026-04-04T17:36:18.063Z</time></trkpt><trkpt lat="45.6942623" lon="11.5031207"><ele>109.66666666666667</ele><time>2026-04-04T17:36:19.063Z</time></trkpt><trkpt lat="45.6942813" lon="11.5028624"><ele>110.33333333333334</ele><time>2026-04-04T17:36:20.064Z</time></trkpt><trkpt lat="45.6942999" lon="11.5026065"><ele>111.0</ele><time>2026-04-04T17:36:21.063Z</time></trkpt><trkpt lat="45.6943191" lon="11.5023516"><ele>111.0</ele><time>2026-04-04T17:36:22.063Z</time></trkpt><trkpt lat="45.6943367" lon="11.5021023"><ele>111.0</ele><time>2026-04-04T17:36:23.063Z</time></trkpt><trkpt lat="45.6943533" lon="11.5018554"><ele>111.0</ele><time>2026-04-04T17:36:24.063Z</time></trkpt><trkpt lat="45.6943679" lon="11.5016127"><ele>111.0</ele><time>2026-04-04T17:36:25.064Z</time></trkpt><trkpt lat="45.6943835" lon="11.5013728"><ele>111.0</ele><time>2026-04-04T17:36:26.064Z</time></trkpt><trkpt lat="45.6943984" lon="11.5011355"><ele>111.0</ele><time>2026-04-04T17:36:27.064Z</time></trkpt><trkpt lat="45.6944137" lon="11.5008994"><ele>111.66666666666666</ele><time>2026-04-04T17:36:28.063Z</time></trkpt><trkpt lat="45.6944292" lon="11.5006644"><ele>112.33333333333333</ele><time>2026-04-04T17:36:29.063Z</time></trkpt><trkpt lat="45.6944429" lon="11.5004313"><ele>113.0</ele><time>2026-04-04T17:36:30.063Z</time></trkpt><trkpt lat="45.6944542" lon="11.5001992"><ele>113.33333333333333</ele><time>2026-04-04T17:36:31.064Z</time></trkpt><trkpt lat="45.6944613" lon="11.4999658"><ele>113.66666666666666</ele><time>2026-04-04T17:36:32.064Z</time></trkpt><trkpt lat="45.6944632" lon="11.4997326"><ele>114.0</ele><time>2026-04-04T17:36:33.064Z</time></trkpt><trkpt lat="45.6944612" lon="11.499502"><ele>114.33333333333334</ele><time>2026-04-04T17:36:34.063Z</time></trkpt><trkpt lat="45.6944563" lon="11.4992705"><ele>114.66666666666667</ele><time>2026-04-04T17:36:35.063Z</time></trkpt><trkpt lat="45.6944472" lon="11.499042"><ele>115.0</ele><time>2026-04-04T17:36:36.064Z</time></trkpt><trkpt lat="45.6944371" lon="11.4988221"><ele>114.75</ele><time>2026-04-04T17:36:37.063Z</time></trkpt><trkpt lat="45.6944263" lon="11.4986142"><ele>114.5</ele><time>2026-04-04T17:36:38.063Z</time></trkpt><trkpt lat="45.6944114" lon="11.4984175"><ele>114.25</ele><time>2026-04-04T17:36:39.064Z</time></trkpt><trkpt lat="45.6943945" lon="11.4982358"><ele>114.0</ele><time>2026-04-04T17:36:40.063Z</time></trkpt><trkpt lat="45.6943754" lon="11.4980546"><ele>114.0</ele><time>2026-04-04T17:36:41.063Z</time></trkpt><trkpt lat="45.6943516" lon="11.4978682"><ele>114.0</ele><time>2026-04-04T17:36:42.063Z</time></trkpt><trkpt lat="45.69433" lon="11.4976778"><ele>114.0</ele><time>2026-04-04T17:36:43.063Z</time></trkpt><trkpt lat="45.6943118" lon="11.4974875"><ele>114.0</ele><time>2026-04-04T17:36:44.063Z</time></trkpt><trkpt lat="45.6942993" lon="11.4973103"><ele>114.0</ele><time>2026-04-04T17:36:45.063Z</time></trkpt><trkpt lat="45.6942914" lon="11.4971479"><ele>114.0</ele><time>2026-04-04T17:36:46.064Z</time></trkpt><trkpt lat="45.6942923" lon="11.4969916"><ele>114.0</ele><time>2026-04-04T17:36:47.064Z</time></trkpt><trkpt lat="45.6943036" lon="11.4968309"><ele>114.0</ele><time>2026-04-04T17:36:48.063Z</time></trkpt><trkpt lat="45.6943215" lon="11.4966576"><ele>114.25</ele><time>2026-04-04T17:36:49.064Z</time></trkpt><trkpt lat="45.6943333" lon="11.4964735"><ele>114.5</ele><time>2026-04-04T17:36:50.063Z</time></trkpt><trkpt lat="45.6943218" lon="11.4962946"><ele>114.75</ele><time>2026-04-04T17:36:51.064Z</time></trkpt><trkpt lat="45.6942862" lon="11.4961247"><ele>115.0</ele><time>2026-04-04T17:36:52.064Z</time></trkpt><trkpt lat="45.6942197" lon="11.4959734"><ele>115.0</ele><time>2026-04-04T17:36:53.064Z</time></trkpt><trkpt lat="45.6941335" lon="11.4958379"><ele>115.0</ele><time>2026-04-04T17:36:54.064Z</time></trkpt><trkpt lat="45.6940594" lon="11.495683"><ele>115.0</ele><time>2026-04-04T17:36:55.063Z</time></trkpt><trkpt lat="45.694006" lon="11.4955137"><ele>115.0</ele><time>2026-04-04T17:36:56.064Z</time></trkpt><trkpt lat="45.693963" lon="11.4953277"><ele>115.0</ele><time>2026-04-04T17:36:57.063Z</time></trkpt><trkpt lat="45.6939277" lon="11.4951333"><ele>115.0</ele><time>2026-04-04T17:36:58.063Z</time></trkpt><trkpt lat="45.6938964" lon="11.4949326"><ele>115.0</ele><time>2026-04-04T17:36:59.064Z</time></trkpt><trkpt lat="45.6938617" lon="11.4947306"><ele>115.0</ele><time>2026-04-04T17:37:00.063Z</time></trkpt><trkpt lat="45.6938198" lon="11.4945042"><ele>115.0</ele><time>2026-04-04T17:37:01.064Z</time></trkpt><trkpt lat="45.6937757" lon="11.4942435"><ele>115.0</ele><time>2026-04-04T17:37:02.063Z</time></trkpt><trkpt lat="45.6937363" lon="11.4939637"><ele>115.0</ele><time>2026-04-04T17:37:03.063Z</time></trkpt><trkpt lat="45.6936961" lon="11.4936698"><ele>115.33333333333334</ele><time>2026-04-04T17:37:04.064Z</time></trkpt><trkpt lat="45.6936501" lon="11.493368"><ele>115.66666666666666</ele><time>2026-04-04T17:37:05.063Z</time></trkpt><trkpt lat="45.6936034" lon="11.4930581"><ele>116.0</ele><time>2026-04-04T17:37:06.064Z</time></trkpt><trkpt lat="45.6935547" lon="11.4927367"><ele>116.0</ele><time>2026-04-04T17:37:07.063Z</time></trkpt><trkpt lat="45.6935039" lon="11.4924074"><ele>116.0</ele><time>2026-04-04T17:37:08.063Z</time></trkpt><trkpt lat="45.6934483" lon="11.492074"><ele>116.5</ele><time>2026-04-04T17:37:09.063Z</time></trkpt><trkpt lat="45.6933894" lon="11.4917279"><ele>117.0</ele><time>2026-04-04T17:37:10.064Z</time></trkpt><trkpt lat="45.6933303" lon="11.4913727"><ele>118.0</ele><time>2026-04-04T17:37:11.063Z</time></trkpt><trkpt lat="45.6932732" lon="11.4910051"><ele>119.0</ele><time>2026-04-04T17:37:12.064Z</time></trkpt><trkpt lat="45.6932209" lon="11.4906348"><ele>119.5</ele><time>2026-04-04T17:37:13.063Z</time></trkpt><trkpt lat="45.6931707" lon="11.4902628"><ele>120.0</ele><time>2026-04-04T17:37:14.064Z</time></trkpt><trkpt lat="45.6931251" lon="11.4899006"><ele>120.0</ele><time>2026-04-04T17:37:15.064Z</time></trkpt><trkpt lat="45.6930776" lon="11.4895461"><ele>120.0</ele><time>2026-04-04T17:37:16.064Z</time></trkpt><trkpt lat="45.6930249" lon="11.4891947"><ele>120.0</ele><time>2026-04-04T17:37:17.064Z</time></trkpt><trkpt lat="45.6929753" lon="11.4888429"><ele>120.0</ele><time>2026-04-04T17:37:18.063Z</time></trkpt><trkpt lat="45.6929264" lon="11.4884923"><ele>120.5</ele><time>2026-04-04T17:37:19.064Z</time></trkpt><trkpt lat="45.692874" lon="11.488143"><ele>121.0</ele><time>2026-04-04T17:37:20.063Z</time></trkpt><trkpt lat="45.6928202" lon="11.4877961"><ele>121.5</ele><time>2026-04-04T17:37:21.063Z</time></trkpt><trkpt lat="45.6927667" lon="11.4874508"><ele>122.0</ele><time>2026-04-04T17:37:22.063Z</time></trkpt><trkpt lat="45.6927141" lon="11.4871083"><ele>121.5</ele><time>2026-04-04T17:37:23.064Z</time></trkpt><trkpt lat="45.6926633" lon="11.4867737"><ele>121.0</ele><time>2026-04-04T17:37:24.064Z</time></trkpt><trkpt lat="45.692616" lon="11.486457"><ele>120.33333333333334</ele><time>2026-04-04T17:37:25.063Z</time></trkpt><trkpt lat="45.6925691" lon="11.4861503"><ele>119.66666666666666</ele><time>2026-04-04T17:37:26.063Z</time></trkpt><trkpt lat="45.6925208" lon="11.4858519"><ele>119.0</ele><time>2026-04-04T17:37:27.063Z</time></trkpt><trkpt lat="45.6924719" lon="11.4855628"><ele>119.0</ele><time>2026-04-04T17:37:28.063Z</time></trkpt><trkpt lat="45.692425" lon="11.4852821"><ele>119.0</ele><time>2026-04-04T17:37:29.064Z</time></trkpt><trkpt lat="45.6923802" lon="11.4850133"><ele>119.0</ele><time>2026-04-04T17:37:30.063Z</time></trkpt><trkpt lat="45.6923363" lon="11.4847535"><ele>119.66666666666666</ele><time>2026-04-04T17:37:31.063Z</time></trkpt><trkpt lat="45.6922942" lon="11.4845003"><ele>120.33333333333334</ele><time>2026-04-04T17:37:32.064Z</time></trkpt><trkpt lat="45.6922539" lon="11.4842661"><ele>121.0</ele><time>2026-04-04T17:37:33.064Z</time></trkpt><trkpt lat="45.6922177" lon="11.4840581"><ele>121.0</ele><time>2026-04-04T17:37:34.064Z</time></trkpt><trkpt lat="45.6921916" lon="11.4838839"><ele>121.0</ele><time>2026-04-04T17:37:35.064Z</time></trkpt><trkpt lat="45.6921724" lon="11.4837364"><ele>121.0</ele><time>2026-04-04T17:37:36.063Z</time></trkpt><trkpt lat="45.6921631" lon="11.4836147"><ele>121.0</ele><time>2026-04-04T17:37:37.064Z</time></trkpt><trkpt lat="45.6921632" lon="11.4835216"><ele>121.0</ele><time>2026-04-04T17:37:38.063Z</time></trkpt><trkpt lat="45.6921744" lon="11.483394"><ele>121.00000000000001</ele><time>2026-04-04T17:37:40.063Z</time></trkpt><trkpt lat="45.6921964" lon="11.4833001"><ele>121.0</ele><time>2026-04-04T17:37:43.064Z</time></trkpt><trkpt lat="45.6922343" lon="11.483215"><ele>121.0</ele><time>2026-04-04T17:37:46.063Z</time></trkpt><trkpt lat="45.6923147" lon="11.4831162"><ele>121.0</ele><time>2026-04-04T17:37:48.063Z</time></trkpt><trkpt lat="45.6923742" lon="11.4830783"><ele>121.00000000000001</ele><time>2026-04-04T17:37:49.064Z</time></trkpt><trkpt lat="45.6924406" lon="11.483045"><ele>121.0</ele><time>2026-04-04T17:37:50.063Z</time></trkpt><trkpt lat="45.6925176" lon="11.4830252"><ele>121.00000000000001</ele><time>2026-04-04T17:37:51.064Z</time></trkpt><trkpt lat="45.6926014" lon="11.4830159"><ele>121.0</ele><time>2026-04-04T17:37:52.064Z</time></trkpt><trkpt lat="45.6926837" lon="11.4830104"><ele>121.0</ele><time>2026-04-04T17:37:53.064Z</time></trkpt><trkpt lat="45.6927732" lon="11.4830017"><ele>121.0</ele><time>2026-04-04T17:37:54.064Z</time></trkpt><trkpt lat="45.6928678" lon="11.4829954"><ele>121.00000000000001</ele><time>2026-04-04T17:37:55.063Z</time></trkpt><trkpt lat="45.6929635" lon="11.4829908"><ele>121.0</ele><time>2026-04-04T17:37:56.063Z</time></trkpt><trkpt lat="45.6930534" lon="11.482988"><ele>121.00000000000001</ele><time>2026-04-04T17:37:57.064Z</time></trkpt><trkpt lat="45.6931344" lon="11.4829788"><ele>121.0</ele><time>2026-04-04T17:37:58.064Z</time></trkpt><trkpt lat="45.6932136" lon="11.4829571"><ele>121.0</ele><time>2026-04-04T17:37:59.063Z</time></trkpt><trkpt lat="45.6932905" lon="11.4829105"><ele>121.0</ele><time>2026-04-04T17:38:00.064Z</time></trkpt><trkpt lat="45.693358" lon="11.4828367"><ele>121.00000000000001</ele><time>2026-04-04T17:38:01.063Z</time></trkpt><trkpt lat="45.6934084" lon="11.482729"><ele>121.0</ele><time>2026-04-04T17:38:02.064Z</time></trkpt><trkpt lat="45.6934377" lon="11.4826064"><ele>121.19999999999999</ele><time>2026-04-04T17:38:03.064Z</time></trkpt><trkpt lat="45.693438" lon="11.4824758"><ele>121.39999999999999</ele><time>2026-04-04T17:38:04.064Z</time></trkpt><trkpt lat="45.6934058" lon="11.4823525"><ele>121.6</ele><time>2026-04-04T17:38:05.064Z</time></trkpt><trkpt lat="45.6933474" lon="11.4822438"><ele>121.8</ele><time>2026-04-04T17:38:06.064Z</time></trkpt><trkpt lat="45.6932693" lon="11.4821425"><ele>122.0</ele><time>2026-04-04T17:38:07.063Z</time></trkpt><trkpt lat="45.693182" lon="11.4820436"><ele>122.0</ele><time>2026-04-04T17:38:08.064Z</time></trkpt><trkpt lat="45.6930871" lon="11.4819397"><ele>122.0</ele><time>2026-04-04T17:38:09.064Z</time></trkpt><trkpt lat="45.6929908" lon="11.4818281"><ele>122.0</ele><time>2026-04-04T17:38:10.063Z</time></trkpt><trkpt lat="45.6928932" lon="11.4817168"><ele>122.0</ele><time>2026-04-04T17:38:11.063Z</time></trkpt><trkpt lat="45.6927941" lon="11.4816008"><ele>122.0</ele><time>2026-04-04T17:38:12.063Z</time></trkpt><trkpt lat="45.6926959" lon="11.481489"><ele>122.0</ele><time>2026-04-04T17:38:13.064Z</time></trkpt><trkpt lat="45.6925993" lon="11.4813795"><ele>122.0</ele><time>2026-04-04T17:38:14.064Z</time></trkpt><trkpt lat="45.6925032" lon="11.4812744"><ele>122.0</ele><time>2026-04-04T17:38:15.063Z</time></trkpt><trkpt lat="45.6923986" lon="11.4811808"><ele>122.0</ele><time>2026-04-04T17:38:16.063Z</time></trkpt><trkpt lat="45.6922858" lon="11.4811022"><ele>122.0</ele><time>2026-04-04T17:38:17.063Z</time></trkpt><trkpt lat="45.692165" lon="11.4810416"><ele>122.0</ele><time>2026-04-04T17:38:18.064Z</time></trkpt><trkpt lat="45.6920393" lon="11.480996"><ele>122.0</ele><time>2026-04-04T17:38:19.063Z</time></trkpt><trkpt lat="45.6919099" lon="11.4809629"><ele>121.25</ele><time>2026-04-04T17:38:20.064Z</time></trkpt><trkpt lat="45.6917761" lon="11.4809362"><ele>120.5</ele><time>2026-04-04T17:38:21.064Z</time></trkpt><trkpt lat="45.6916417" lon="11.4809148"><ele>119.75</ele><time>2026-04-04T17:38:22.063Z</time></trkpt><trkpt lat="45.6915031" lon="11.4808953"><ele>119.0</ele><time>2026-04-04T17:38:23.063Z</time></trkpt><trkpt lat="45.6913654" lon="11.4808809"><ele>119.0</ele><time>2026-04-04T17:38:24.063Z</time></trkpt><trkpt lat="45.6912276" lon="11.4808694"><ele>119.0</ele><time>2026-04-04T17:38:25.063Z</time></trkpt><trkpt lat="45.6910913" lon="11.4808579"><ele>119.0</ele><time>2026-04-04T17:38:26.064Z</time></trkpt><trkpt lat="45.6909561" lon="11.4808463"><ele>119.0</ele><time>2026-04-04T17:38:27.063Z</time></trkpt><trkpt lat="45.6908248" lon="11.480835"><ele>118.5</ele><time>2026-04-04T17:38:28.064Z</time></trkpt><trkpt lat="45.6906966" lon="11.4808277"><ele>118.0</ele><time>2026-04-04T17:38:29.063Z</time></trkpt><trkpt lat="45.690574" lon="11.4808274"><ele>117.5</ele><time>2026-04-04T17:38:30.064Z</time></trkpt><trkpt lat="45.6904495" lon="11.480841"><ele>117.0</ele><time>2026-04-04T17:38:31.063Z</time></trkpt><trkpt lat="45.6903192" lon="11.4808787"><ele>117.0</ele><time>2026-04-04T17:38:32.064Z</time></trkpt><trkpt lat="45.6901895" lon="11.4809475"><ele>117.0</ele><time>2026-04-04T17:38:33.063Z</time></trkpt><trkpt lat="45.6900606" lon="11.4810383"><ele>117.0</ele><time>2026-04-04T17:38:34.063Z</time></trkpt><trkpt lat="45.6899333" lon="11.4811506"><ele>117.0</ele><time>2026-04-04T17:38:35.063Z</time></trkpt><trkpt lat="45.6898116" lon="11.4812711"><ele>116.75</ele><time>2026-04-04T17:38:36.064Z</time></trkpt><trkpt lat="45.6896916" lon="11.4813946"><ele>116.5</ele><time>2026-04-04T17:38:37.064Z</time></trkpt><trkpt lat="45.6895721" lon="11.4815095"><ele>116.25</ele><time>2026-04-04T17:38:38.063Z</time></trkpt><trkpt lat="45.6894575" lon="11.4816263"><ele>116.0</ele><time>2026-04-04T17:38:39.064Z</time></trkpt><trkpt lat="45.6893459" lon="11.4817411"><ele>116.25</ele><time>2026-04-04T17:38:40.064Z</time></trkpt><trkpt lat="45.6892383" lon="11.4818486"><ele>116.5</ele><time>2026-04-04T17:38:41.063Z</time></trkpt><trkpt lat="45.6891362" lon="11.4819543"><ele>116.75</ele><time>2026-04-04T17:38:42.064Z</time></trkpt><trkpt lat="45.6890402" lon="11.4820613"><ele>117.0</ele><time>2026-04-04T17:38:43.063Z</time></trkpt><trkpt lat="45.6889511" lon="11.4821648"><ele>117.0</ele><time>2026-04-04T17:38:44.064Z</time></trkpt><trkpt lat="45.688864" lon="11.4822549"><ele>116.99999999999999</ele><time>2026-04-04T17:38:45.064Z</time></trkpt><trkpt lat="45.6887731" lon="11.4823239"><ele>116.99999999999999</ele><time>2026-04-04T17:38:46.063Z</time></trkpt><trkpt lat="45.6886765" lon="11.4823621"><ele>117.0</ele><time>2026-04-04T17:38:47.064Z</time></trkpt><trkpt lat="45.6885774" lon="11.4823535"><ele>117.0</ele><time>2026-04-04T17:38:48.063Z</time></trkpt><trkpt lat="45.6884873" lon="11.4822975"><ele>116.8</ele><time>2026-04-04T17:38:49.063Z</time></trkpt><trkpt lat="45.6884067" lon="11.4822047"><ele>116.6</ele><time>2026-04-04T17:38:50.063Z</time></trkpt><trkpt lat="45.6883394" lon="11.4820916"><ele>116.39999999999999</ele><time>2026-04-04T17:38:51.064Z</time></trkpt><trkpt lat="45.6882784" lon="11.4819782"><ele>116.19999999999999</ele><time>2026-04-04T17:38:52.064Z</time></trkpt><trkpt lat="45.6882214" lon="11.4818745"><ele>116.0</ele><time>2026-04-04T17:38:53.063Z</time></trkpt><trkpt lat="45.6881607" lon="11.4817617"><ele>116.0</ele><time>2026-04-04T17:38:54.064Z</time></trkpt><trkpt lat="45.6880965" lon="11.4816413"><ele>116.0</ele><time>2026-04-04T17:38:55.063Z</time></trkpt><trkpt lat="45.6880303" lon="11.4815233"><ele>116.0</ele><time>2026-04-04T17:38:56.064Z</time></trkpt><trkpt lat="45.6879633" lon="11.4814027"><ele>116.0</ele><time>2026-04-04T17:38:57.064Z</time></trkpt><trkpt lat="45.6878965" lon="11.4812822"><ele>116.0</ele><time>2026-04-04T17:38:58.063Z</time></trkpt><trkpt lat="45.687826" lon="11.4811701"><ele>116.0</ele><time>2026-04-04T17:38:59.064Z</time></trkpt><trkpt lat="45.6877521" lon="11.4810601"><ele>116.0</ele><time>2026-04-04T17:39:00.063Z</time></trkpt><trkpt lat="45.6876753" lon="11.4809506"><ele>116.0</ele><time>2026-04-04T17:39:01.064Z</time></trkpt><trkpt lat="45.687597" lon="11.4808395"><ele>116.0</ele><time>2026-04-04T17:39:02.063Z</time></trkpt><trkpt lat="45.6875182" lon="11.4807183"><ele>116.0</ele><time>2026-04-04T17:39:03.064Z</time></trkpt><trkpt lat="45.6874381" lon="11.480589"><ele>116.0</ele><time>2026-04-04T17:39:04.064Z</time></trkpt><trkpt lat="45.687354" lon="11.4804539"><ele>116.0</ele><time>2026-04-04T17:39:05.063Z</time></trkpt><trkpt lat="45.6872723" lon="11.4803145"><ele>116.0</ele><time>2026-04-04T17:39:06.063Z</time></trkpt><trkpt lat="45.6871926" lon="11.4801736"><ele>116.0</ele><time>2026-04-04T17:39:07.063Z</time></trkpt><trkpt lat="45.687117" lon="11.4800365"><ele>116.0</ele><time>2026-04-04T17:39:08.063Z</time></trkpt><trkpt lat="45.687043" lon="11.4799047"><ele>116.0</ele><time>2026-04-04T17:39:09.064Z</time></trkpt><trkpt lat="45.6869714" lon="11.4797701"><ele>116.0</ele><time>2026-04-04T17:39:10.063Z</time></trkpt><trkpt lat="45.6868978" lon="11.4796351"><ele>116.0</ele><time>2026-04-04T17:39:11.063Z</time></trkpt><trkpt lat="45.686824" lon="11.4794998"><ele>116.0</ele><time>2026-04-04T17:39:12.064Z</time></trkpt><trkpt lat="45.6867531" lon="11.4793707"><ele>116.0</ele><time>2026-04-04T17:39:13.064Z</time></trkpt><trkpt lat="45.6866874" lon="11.4792474"><ele>116.0</ele><time>2026-04-04T17:39:14.063Z</time></trkpt><trkpt lat="45.6866255" lon="11.4791349"><ele>116.0</ele><time>2026-04-04T17:39:15.064Z</time></trkpt><trkpt lat="45.6865647" lon="11.4790273"><ele>116.0</ele><time>2026-04-04T17:39:16.064Z</time></trkpt><trkpt lat="45.6865087" lon="11.4789245"><ele>115.99999999999999</ele><time>2026-04-04T17:39:17.064Z</time></trkpt><trkpt lat="45.6864543" lon="11.4788248"><ele>116.0</ele><time>2026-04-04T17:39:18.064Z</time></trkpt><trkpt lat="45.6863955" lon="11.4787143"><ele>116.0</ele><time>2026-04-04T17:39:19.063Z</time></trkpt><trkpt lat="45.6863411" lon="11.4786178"><ele>116.0</ele><time>2026-04-04T17:39:20.064Z</time></trkpt><trkpt lat="45.6862872" lon="11.4785247"><ele>115.99999999999999</ele><time>2026-04-04T17:39:21.064Z</time></trkpt><trkpt lat="45.6862363" lon="11.4784241"><ele>116.0</ele><time>2026-04-04T17:39:22.063Z</time></trkpt><trkpt lat="45.6861956" lon="11.4783055"><ele>116.0</ele><time>2026-04-04T17:39:23.064Z</time></trkpt><trkpt lat="45.6861527" lon="11.478174"><ele>116.0</ele><time>2026-04-04T17:39:24.064Z</time></trkpt><trkpt lat="45.6860768" lon="11.4780622"><ele>116.0</ele><time>2026-04-04T17:39:25.064Z</time></trkpt><trkpt lat="45.6859867" lon="11.4779588"><ele>116.0</ele><time>2026-04-04T17:39:26.064Z</time></trkpt><trkpt lat="45.6859032" lon="11.4778393"><ele>116.0</ele><time>2026-04-04T17:39:27.064Z</time></trkpt><trkpt lat="45.6858291" lon="11.4777141"><ele>116.0</ele><time>2026-04-04T17:39:28.064Z</time></trkpt><trkpt lat="45.6857619" lon="11.4775865"><ele>116.0</ele><time>2026-04-04T17:39:29.064Z</time></trkpt><trkpt lat="45.6856918" lon="11.4774604"><ele>116.0</ele><time>2026-04-04T17:39:30.063Z</time></trkpt><trkpt lat="45.6856225" lon="11.4773368"><ele>116.0</ele><time>2026-04-04T17:39:31.064Z</time></trkpt><trkpt lat="45.6855544" lon="11.4772162"><ele>116.0</ele><time>2026-04-04T17:39:32.064Z</time></trkpt><trkpt lat="45.6854911" lon="11.4771023"><ele>115.83333333333333</ele><time>2026-04-04T17:39:33.063Z</time></trkpt><trkpt lat="45.68543" lon="11.4769952"><ele>115.66666666666666</ele><time>2026-04-04T17:39:34.063Z</time></trkpt><trkpt lat="45.685371" lon="11.4768911"><ele>115.5</ele><time>2026-04-04T17:39:35.064Z</time></trkpt><trkpt lat="45.6853133" lon="11.4767887"><ele>115.33333333333334</ele><time>2026-04-04T17:39:36.064Z</time></trkpt><trkpt lat="45.6852681" lon="11.4766876"><ele>115.16666666666667</ele><time>2026-04-04T17:39:37.064Z</time></trkpt><trkpt lat="45.6852376" lon="11.4765768"><ele>115.0</ele><time>2026-04-04T17:39:38.064Z</time></trkpt><trkpt lat="45.6852085" lon="11.4764608"><ele>115.0</ele><time>2026-04-04T17:39:39.064Z</time></trkpt><trkpt lat="45.6851535" lon="11.476363"><ele>115.0</ele><time>2026-04-04T17:39:40.063Z</time></trkpt><trkpt lat="45.6850783" lon="11.4762836"><ele>115.0</ele><time>2026-04-04T17:39:41.064Z</time></trkpt><trkpt lat="45.6849993" lon="11.4761931"><ele>115.0</ele><time>2026-04-04T17:39:42.064Z</time></trkpt><trkpt lat="45.6849264" lon="11.476082"><ele>115.0</ele><time>2026-04-04T17:39:43.063Z</time></trkpt><trkpt lat="45.6848591" lon="11.4759621"><ele>114.75</ele><time>2026-04-04T17:39:44.063Z</time></trkpt><trkpt lat="45.6847903" lon="11.4758385"><ele>114.5</ele><time>2026-04-04T17:39:45.063Z</time></trkpt><trkpt lat="45.684719" lon="11.4757122"><ele>114.25</ele><time>2026-04-04T17:39:46.063Z</time></trkpt><trkpt lat="45.684647" lon="11.4755847"><ele>114.0</ele><time>2026-04-04T17:39:47.064Z</time></trkpt><trkpt lat="45.6845756" lon="11.4754572"><ele>114.0</ele><time>2026-04-04T17:39:48.064Z</time></trkpt><trkpt lat="45.6845062" lon="11.4753328"><ele>114.0</ele><time>2026-04-04T17:39:49.063Z</time></trkpt><trkpt lat="45.6844393" lon="11.4752177"><ele>114.0</ele><time>2026-04-04T17:39:50.063Z</time></trkpt><trkpt lat="45.6843782" lon="11.4751016"><ele>114.0</ele><time>2026-04-04T17:39:51.063Z</time></trkpt><trkpt lat="45.6843326" lon="11.4749755"><ele>114.0</ele><time>2026-04-04T17:39:52.063Z</time></trkpt><trkpt lat="45.6843031" lon="11.4748378"><ele>113.80000000000001</ele><time>2026-04-04T17:39:53.064Z</time></trkpt><trkpt lat="45.6842883" lon="11.4746974"><ele>113.60000000000001</ele><time>2026-04-04T17:39:54.064Z</time></trkpt><trkpt lat="45.6842836" lon="11.4745595"><ele>113.4</ele><time>2026-04-04T17:39:55.064Z</time></trkpt><trkpt lat="45.6842578" lon="11.4744253"><ele>113.2</ele><time>2026-04-04T17:39:56.063Z</time></trkpt><trkpt lat="45.6842039" lon="11.4743049"><ele>113.0</ele><time>2026-04-04T17:39:57.064Z</time></trkpt><trkpt lat="45.6841245" lon="11.4742193"><ele>113.0</ele><time>2026-04-04T17:39:58.064Z</time></trkpt><trkpt lat="45.6840277" lon="11.4741616"><ele>113.0</ele><time>2026-04-04T17:39:59.063Z</time></trkpt><trkpt lat="45.6839322" lon="11.4740812"><ele>113.0</ele><time>2026-04-04T17:40:00.063Z</time></trkpt><trkpt lat="45.6838486" lon="11.4739595"><ele>113.0</ele><time>2026-04-04T17:40:01.063Z</time></trkpt><trkpt lat="45.6837779" lon="11.4738071"><ele>113.0</ele><time>2026-04-04T17:40:02.063Z</time></trkpt><trkpt lat="45.6837073" lon="11.4736374"><ele>113.0</ele><time>2026-04-04T17:40:03.063Z</time></trkpt><trkpt lat="45.6836304" lon="11.4734568"><ele>113.0</ele><time>2026-04-04T17:40:04.063Z</time></trkpt><trkpt lat="45.683551" lon="11.4732692"><ele>113.0</ele><time>2026-04-04T17:40:05.063Z</time></trkpt><trkpt lat="45.6834863" lon="11.4730646"><ele>113.0</ele><time>2026-04-04T17:40:06.063Z</time></trkpt><trkpt lat="45.6834431" lon="11.4728474"><ele>113.0</ele><time>2026-04-04T17:40:07.063Z</time></trkpt><trkpt lat="45.6834151" lon="11.4726228"><ele>113.0</ele><time>2026-04-04T17:40:08.064Z</time></trkpt><trkpt lat="45.6833973" lon="11.4723929"><ele>113.0</ele><time>2026-04-04T17:40:09.064Z</time></trkpt><trkpt lat="45.6833862" lon="11.4721587"><ele>113.0</ele><time>2026-04-04T17:40:10.064Z</time></trkpt><trkpt lat="45.6833776" lon="11.4719209"><ele>113.0</ele><time>2026-04-04T17:40:11.063Z</time></trkpt><trkpt lat="45.6833686" lon="11.4716785"><ele>113.0</ele><time>2026-04-04T17:40:12.063Z</time></trkpt><trkpt lat="45.6833575" lon="11.471436"><ele>113.0</ele><time>2026-04-04T17:40:13.063Z</time></trkpt><trkpt lat="45.6833461" lon="11.4711913"><ele>113.0</ele><time>2026-04-04T17:40:14.064Z</time></trkpt><trkpt lat="45.6833375" lon="11.4709418"><ele>113.0</ele><time>2026-04-04T17:40:15.064Z</time></trkpt><trkpt lat="45.6833274" lon="11.4706959"><ele>113.0</ele><time>2026-04-04T17:40:16.063Z</time></trkpt><trkpt lat="45.6833167" lon="11.4704534"><ele>113.0</ele><time>2026-04-04T17:40:17.063Z</time></trkpt><trkpt lat="45.6833088" lon="11.4702179"><ele>113.0</ele><time>2026-04-04T17:40:18.064Z</time></trkpt><trkpt lat="45.6832994" lon="11.4699855"><ele>113.0</ele><time>2026-04-04T17:40:19.063Z</time></trkpt><trkpt lat="45.6832918" lon="11.4697544"><ele>113.0</ele><time>2026-04-04T17:40:20.063Z</time></trkpt><trkpt lat="45.6832804" lon="11.469526"><ele>113.0</ele><time>2026-04-04T17:40:21.063Z</time></trkpt><trkpt lat="45.6832718" lon="11.4693075"><ele>113.0</ele><time>2026-04-04T17:40:22.064Z</time></trkpt><trkpt lat="45.6832631" lon="11.4691032"><ele>113.0</ele><time>2026-04-04T17:40:23.063Z</time></trkpt><trkpt lat="45.6832547" lon="11.4689078"><ele>113.0</ele><time>2026-04-04T17:40:24.063Z</time></trkpt><trkpt lat="45.6832482" lon="11.4687239"><ele>112.80000000000001</ele><time>2026-04-04T17:40:25.063Z</time></trkpt><trkpt lat="45.6832429" lon="11.4685475"><ele>112.60000000000001</ele><time>2026-04-04T17:40:26.063Z</time></trkpt><trkpt lat="45.6832334" lon="11.4683829"><ele>112.39999999999999</ele><time>2026-04-04T17:40:27.063Z</time></trkpt><trkpt lat="45.683224" lon="11.4682346"><ele>112.19999999999999</ele><time>2026-04-04T17:40:28.063Z</time></trkpt><trkpt lat="45.6832212" lon="11.4680949"><ele>112.0</ele><time>2026-04-04T17:40:29.064Z</time></trkpt><trkpt lat="45.6832416" lon="11.4679681"><ele>112.00000000000001</ele><time>2026-04-04T17:40:30.064Z</time></trkpt><trkpt lat="45.6832843" lon="11.4678625"><ele>112.0</ele><time>2026-04-04T17:40:31.063Z</time></trkpt><trkpt lat="45.6833512" lon="11.4677876"><ele>112.0</ele><time>2026-04-04T17:40:32.064Z</time></trkpt><trkpt lat="45.6834318" lon="11.467748"><ele>112.0</ele><time>2026-04-04T17:40:33.063Z</time></trkpt><trkpt lat="45.6835121" lon="11.4677222"><ele>112.00000000000001</ele><time>2026-04-04T17:40:34.064Z</time></trkpt><trkpt lat="45.6835885" lon="11.4676764"><ele>112.0</ele><time>2026-04-04T17:40:35.063Z</time></trkpt><trkpt lat="45.6836495" lon="11.4676029"><ele>112.00000000000001</ele><time>2026-04-04T17:40:36.064Z</time></trkpt><trkpt lat="45.6836934" lon="11.4675094"><ele>112.0</ele><time>2026-04-04T17:40:37.063Z</time></trkpt><trkpt lat="45.6837158" lon="11.4674025"><ele>112.0</ele><time>2026-04-04T17:40:38.063Z</time></trkpt><trkpt lat="45.683714" lon="11.467294"><ele>112.0</ele><time>2026-04-04T17:40:39.063Z</time></trkpt><trkpt lat="45.6836885" lon="11.4671919"><ele>112.00000000000001</ele><time>2026-04-04T17:40:40.064Z</time></trkpt><trkpt lat="45.6836425" lon="11.4671073"><ele>112.0</ele><time>2026-04-04T17:40:41.064Z</time></trkpt><trkpt lat="45.6835815" lon="11.4670469"><ele>112.00000000000001</ele><time>2026-04-04T17:40:42.063Z</time></trkpt><trkpt lat="45.6835093" lon="11.4670127"><ele>112.0</ele><time>2026-04-04T17:40:43.063Z</time></trkpt><trkpt lat="45.6834297" lon="11.4670107"><ele>112.0</ele><time>2026-04-04T17:40:44.064Z</time></trkpt><trkpt lat="45.6833462" lon="11.4670253"><ele>112.0</ele><time>2026-04-04T17:40:45.064Z</time></trkpt><trkpt lat="45.683255" lon="11.4670312"><ele>112.00000000000001</ele><time>2026-04-04T17:40:46.063Z</time></trkpt><trkpt lat="45.6831582" lon="11.467012"><ele>112.0</ele><time>2026-04-04T17:40:47.063Z</time></trkpt><trkpt lat="45.6830508" lon="11.4669582"><ele>112.0</ele><time>2026-04-04T17:40:48.063Z</time></trkpt><trkpt lat="45.6829261" lon="11.4668588"><ele>112.0</ele><time>2026-04-04T17:40:49.064Z</time></trkpt><trkpt lat="45.6827873" lon="11.4667132"><ele>112.0</ele><time>2026-04-04T17:40:50.064Z</time></trkpt><trkpt lat="45.6826315" lon="11.4665285"><ele>112.0</ele><time>2026-04-04T17:40:51.064Z</time></trkpt><trkpt lat="45.6824558" lon="11.4663205"><ele>112.0</ele><time>2026-04-04T17:40:52.064Z</time></trkpt><trkpt lat="45.6822669" lon="11.466089"><ele>111.5</ele><time>2026-04-04T17:40:53.064Z</time></trkpt><trkpt lat="45.6820651" lon="11.4658443"><ele>111.0</ele><time>2026-04-04T17:40:54.064Z</time></trkpt><trkpt lat="45.6818493" lon="11.4656055"><ele>108.5</ele><time>2026-04-04T17:40:55.064Z</time></trkpt><trkpt lat="45.6816321" lon="11.4653789"><ele>106.0</ele><time>2026-04-04T17:40:56.063Z</time></trkpt><trkpt lat="45.6814197" lon="11.4651631"><ele>106.0</ele><time>2026-04-04T17:40:57.064Z</time></trkpt><trkpt lat="45.6812157" lon="11.4649541"><ele>106.0</ele><time>2026-04-04T17:40:58.064Z</time></trkpt><trkpt lat="45.6810211" lon="11.4647426"><ele>107.0</ele><time>2026-04-04T17:40:59.063Z</time></trkpt><trkpt lat="45.6808346" lon="11.4645274"><ele>108.0</ele><time>2026-04-04T17:41:00.063Z</time></trkpt><trkpt lat="45.680653" lon="11.464306"><ele>108.0</ele><time>2026-04-04T17:41:01.064Z</time></trkpt><trkpt lat="45.6804751" lon="11.4640817"><ele>108.0</ele><time>2026-04-04T17:41:02.063Z</time></trkpt><trkpt lat="45.6802995" lon="11.4638552"><ele>109.0</ele><time>2026-04-04T17:41:03.064Z</time></trkpt><trkpt lat="45.6801267" lon="11.4636281"><ele>110.0</ele><time>2026-04-04T17:41:04.063Z</time></trkpt><trkpt lat="45.6799523" lon="11.4634053"><ele>110.0</ele><time>2026-04-04T17:41:05.064Z</time></trkpt><trkpt lat="45.679776" lon="11.463187"><ele>110.0</ele><time>2026-04-04T17:41:06.063Z</time></trkpt><trkpt lat="45.6795966" lon="11.4629695"><ele>108.0</ele><time>2026-04-04T17:41:07.064Z</time></trkpt><trkpt lat="45.6794137" lon="11.4627537"><ele>106.0</ele><time>2026-04-04T17:41:08.063Z</time></trkpt><trkpt lat="45.6792293" lon="11.4625339"><ele>106.0</ele><time>2026-04-04T17:41:09.063Z</time></trkpt><trkpt lat="45.6790472" lon="11.4623073"><ele>106.0</ele><time>2026-04-04T17:41:10.064Z</time></trkpt><trkpt lat="45.6788655" lon="11.4620781"><ele>106.0</ele><time>2026-04-04T17:41:11.064Z</time></trkpt><trkpt lat="45.6786844" lon="11.4618511"><ele>106.0</ele><time>2026-04-04T17:41:12.063Z</time></trkpt><trkpt lat="45.6785056" lon="11.4616258"><ele>106.0</ele><time>2026-04-04T17:41:13.063Z</time></trkpt><trkpt lat="45.6783271" lon="11.4614022"><ele>106.0</ele><time>2026-04-04T17:41:14.064Z</time></trkpt><trkpt lat="45.678149" lon="11.4611768"><ele>106.5</ele><time>2026-04-04T17:41:15.063Z</time></trkpt><trkpt lat="45.6779734" lon="11.4609547"><ele>107.0</ele><time>2026-04-04T17:41:16.063Z</time></trkpt><trkpt lat="45.6778024" lon="11.4607259"><ele>107.0</ele><time>2026-04-04T17:41:17.064Z</time></trkpt><trkpt lat="45.6776381" lon="11.460494"><ele>107.0</ele><time>2026-04-04T17:41:18.063Z</time></trkpt><trkpt lat="45.677488" lon="11.4602601"><ele>107.0</ele><time>2026-04-04T17:41:19.063Z</time></trkpt><trkpt lat="45.677344" lon="11.4600246"><ele>107.0</ele><time>2026-04-04T17:41:20.063Z</time></trkpt><trkpt lat="45.6772073" lon="11.4597874"><ele>107.0</ele><time>2026-04-04T17:41:21.063Z</time></trkpt><trkpt lat="45.6770817" lon="11.4595486"><ele>107.66666666666666</ele><time>2026-04-04T17:41:22.064Z</time></trkpt><trkpt lat="45.6769638" lon="11.4593142"><ele>108.33333333333334</ele><time>2026-04-04T17:41:23.064Z</time></trkpt><trkpt lat="45.6768548" lon="11.4590883"><ele>109.0</ele><time>2026-04-04T17:41:24.064Z</time></trkpt><trkpt lat="45.6767528" lon="11.4588728"><ele>109.0</ele><time>2026-04-04T17:41:25.063Z</time></trkpt><trkpt lat="45.676654" lon="11.4586666"><ele>109.0</ele><time>2026-04-04T17:41:26.064Z</time></trkpt><trkpt lat="45.6765626" lon="11.4584733"><ele>109.0</ele><time>2026-04-04T17:41:27.064Z</time></trkpt><trkpt lat="45.6764817" lon="11.4582962"><ele>109.0</ele><time>2026-04-04T17:41:28.063Z</time></trkpt><trkpt lat="45.6764125" lon="11.4581391"><ele>109.0</ele><time>2026-04-04T17:41:29.064Z</time></trkpt><trkpt lat="45.6763584" lon="11.4580032"><ele>109.0</ele><time>2026-04-04T17:41:30.064Z</time></trkpt><trkpt lat="45.6763212" lon="11.4578693"><ele>109.0</ele><time>2026-04-04T17:41:31.064Z</time></trkpt><trkpt lat="45.6763095" lon="11.457729"><ele>109.0</ele><time>2026-04-04T17:41:32.064Z</time></trkpt><trkpt lat="45.676311" lon="11.4575744"><ele>108.80000000000001</ele><time>2026-04-04T17:41:33.063Z</time></trkpt><trkpt lat="45.6763046" lon="11.4574158"><ele>108.60000000000001</ele><time>2026-04-04T17:41:34.063Z</time></trkpt><trkpt lat="45.67627" lon="11.4572668"><ele>108.4</ele><time>2026-04-04T17:41:35.064Z</time></trkpt><trkpt lat="45.6762073" lon="11.4571396"><ele>108.2</ele><time>2026-04-04T17:41:36.063Z</time></trkpt><trkpt lat="45.6761154" lon="11.4570417"><ele>108.0</ele><time>2026-04-04T17:41:37.063Z</time></trkpt><trkpt lat="45.6759982" lon="11.4569689"><ele>107.0</ele><time>2026-04-04T17:41:38.064Z</time></trkpt><trkpt lat="45.6758683" lon="11.4568804"><ele>106.0</ele><time>2026-04-04T17:41:39.064Z</time></trkpt><trkpt lat="45.6757377" lon="11.4567552"><ele>105.0</ele><time>2026-04-04T17:41:40.064Z</time></trkpt><trkpt lat="45.6756006" lon="11.4566133"><ele>105.0</ele><time>2026-04-04T17:41:41.063Z</time></trkpt><trkpt lat="45.6754531" lon="11.4564641"><ele>105.0</ele><time>2026-04-04T17:41:42.064Z</time></trkpt><trkpt lat="45.675298" lon="11.456315"><ele>105.0</ele><time>2026-04-04T17:41:43.064Z</time></trkpt><trkpt lat="45.6751321" lon="11.4561775"><ele>105.0</ele><time>2026-04-04T17:41:44.064Z</time></trkpt><trkpt lat="45.6749557" lon="11.4560542"><ele>105.0</ele><time>2026-04-04T17:41:45.063Z</time></trkpt><trkpt lat="45.6747739" lon="11.4559466"><ele>105.0</ele><time>2026-04-04T17:41:46.064Z</time></trkpt><trkpt lat="45.6745853" lon="11.4558546"><ele>104.33333333333334</ele><time>2026-04-04T17:41:47.063Z</time></trkpt><trkpt lat="45.6743945" lon="11.4557802"><ele>103.66666666666667</ele><time>2026-04-04T17:41:48.064Z</time></trkpt><trkpt lat="45.674204" lon="11.4557305"><ele>103.0</ele><time>2026-04-04T17:41:49.064Z</time></trkpt><trkpt lat="45.6740152" lon="11.4557023"><ele>103.0</ele><time>2026-04-04T17:41:50.064Z</time></trkpt><trkpt lat="45.6738258" lon="11.4556914"><ele>103.0</ele><time>2026-04-04T17:41:51.064Z</time></trkpt><trkpt lat="45.6736379" lon="11.4557"><ele>103.0</ele><time>2026-04-04T17:41:52.064Z</time></trkpt><trkpt lat="45.6734516" lon="11.4557275"><ele>102.66666666666667</ele><time>2026-04-04T17:41:53.064Z</time></trkpt><trkpt lat="45.6732669" lon="11.4557727"><ele>102.33333333333334</ele><time>2026-04-04T17:41:54.063Z</time></trkpt><trkpt lat="45.673085" lon="11.4558401"><ele>102.0</ele><time>2026-04-04T17:41:55.063Z</time></trkpt><trkpt lat="45.6729085" lon="11.4559263"><ele>102.0</ele><time>2026-04-04T17:41:56.064Z</time></trkpt><trkpt lat="45.6727375" lon="11.4560284"><ele>102.0</ele><time>2026-04-04T17:41:57.063Z</time></trkpt><trkpt lat="45.6725702" lon="11.4561417"><ele>102.0</ele><time>2026-04-04T17:41:58.063Z</time></trkpt><trkpt lat="45.6724091" lon="11.4562676"><ele>101.66666666666666</ele><time>2026-04-04T17:41:59.064Z</time></trkpt><trkpt lat="45.6722531" lon="11.4564029"><ele>101.33333333333333</ele><time>2026-04-04T17:42:00.063Z</time></trkpt><trkpt lat="45.6721017" lon="11.456543"><ele>101.0</ele><time>2026-04-04T17:42:01.063Z</time></trkpt><trkpt lat="45.6719535" lon="11.456679"><ele>101.0</ele><time>2026-04-04T17:42:02.063Z</time></trkpt><trkpt lat="45.6718081" lon="11.4568129"><ele>101.0</ele><time>2026-04-04T17:42:03.064Z</time></trkpt><trkpt lat="45.6716644" lon="11.4569382"><ele>101.0</ele><time>2026-04-04T17:42:04.063Z</time></trkpt><trkpt lat="45.6715199" lon="11.4570646"><ele>101.0</ele><time>2026-04-04T17:42:05.064Z</time></trkpt><trkpt lat="45.6713733" lon="11.4571847"><ele>101.0</ele><time>2026-04-04T17:42:06.063Z</time></trkpt><trkpt lat="45.6712213" lon="11.4572926"><ele>101.0</ele><time>2026-04-04T17:42:07.064Z</time></trkpt><trkpt lat="45.6710643" lon="11.4573885"><ele>101.0</ele><time>2026-04-04T17:42:08.064Z</time></trkpt><trkpt lat="45.6709016" lon="11.457472"><ele>101.0</ele><time>2026-04-04T17:42:09.063Z</time></trkpt><trkpt lat="45.6707428" lon="11.4575481"><ele>101.0</ele><time>2026-04-04T17:42:10.063Z</time></trkpt><trkpt lat="45.6705834" lon="11.4576177"><ele>101.0</ele><time>2026-04-04T17:42:11.063Z</time></trkpt><trkpt lat="45.6704236" lon="11.4576826"><ele>101.0</ele><time>2026-04-04T17:42:12.064Z</time></trkpt><trkpt lat="45.6702671" lon="11.4577435"><ele>101.0</ele><time>2026-04-04T17:42:13.064Z</time></trkpt><trkpt lat="45.6701203" lon="11.4577997"><ele>100.5</ele><time>2026-04-04T17:42:14.064Z</time></trkpt><trkpt lat="45.669981" lon="11.4578526"><ele>100.0</ele><time>2026-04-04T17:42:15.063Z</time></trkpt><trkpt lat="45.6698487" lon="11.4579077"><ele>99.5</ele><time>2026-04-04T17:42:16.064Z</time></trkpt><trkpt lat="45.6697205" lon="11.4579509"><ele>99.0</ele><time>2026-04-04T17:42:17.064Z</time></trkpt><trkpt lat="45.6695891" lon="11.4579714"><ele>99.0</ele><time>2026-04-04T17:42:18.063Z</time></trkpt><trkpt lat="45.6694548" lon="11.4579516"><ele>99.0</ele><time>2026-04-04T17:42:19.063Z</time></trkpt><trkpt lat="45.6693227" lon="11.4578943"><ele>99.0</ele><time>2026-04-04T17:42:20.064Z</time></trkpt><trkpt lat="45.6692058" lon="11.4578006"><ele>99.0</ele><time>2026-04-04T17:42:21.064Z</time></trkpt><trkpt lat="45.6691042" lon="11.4576743"><ele>98.75</ele><time>2026-04-04T17:42:22.063Z</time></trkpt><trkpt lat="45.66902" lon="11.4575172"><ele>98.5</ele><time>2026-04-04T17:42:23.064Z</time></trkpt><trkpt lat="45.6689499" lon="11.4573344"><ele>98.25</ele><time>2026-04-04T17:42:24.063Z</time></trkpt><trkpt lat="45.6688851" lon="11.4571366"><ele>98.0</ele><time>2026-04-04T17:42:25.063Z</time></trkpt><trkpt lat="45.6688242" lon="11.4569348"><ele>98.5</ele><time>2026-04-04T17:42:26.063Z</time></trkpt><trkpt lat="45.6687685" lon="11.4567285"><ele>99.0</ele><time>2026-04-04T17:42:27.063Z</time></trkpt><trkpt lat="45.6687146" lon="11.4565328"><ele>99.5</ele><time>2026-04-04T17:42:28.063Z</time></trkpt><trkpt lat="45.6686598" lon="11.4563387"><ele>100.0</ele><time>2026-04-04T17:42:29.063Z</time></trkpt><trkpt lat="45.6686022" lon="11.4561417"><ele>100.0</ele><time>2026-04-04T17:42:30.064Z</time></trkpt><trkpt lat="45.6685465" lon="11.4559435"><ele>100.0</ele><time>2026-04-04T17:42:31.064Z</time></trkpt><trkpt lat="45.6684902" lon="11.455741"><ele>100.0</ele><time>2026-04-04T17:42:32.064Z</time></trkpt><trkpt lat="45.668436" lon="11.4555313"><ele>100.33333333333334</ele><time>2026-04-04T17:42:33.064Z</time></trkpt><trkpt lat="45.6683792" lon="11.4553245"><ele>100.66666666666666</ele><time>2026-04-04T17:42:34.064Z</time></trkpt><trkpt lat="45.6683184" lon="11.455113"><ele>101.0</ele><time>2026-04-04T17:42:35.064Z</time></trkpt><trkpt lat="45.6682557" lon="11.4548955"><ele>101.0</ele><time>2026-04-04T17:42:36.064Z</time></trkpt><trkpt lat="45.6681969" lon="11.4546812"><ele>101.0</ele><time>2026-04-04T17:42:37.063Z</time></trkpt><trkpt lat="45.6681401" lon="11.4544689"><ele>101.0</ele><time>2026-04-04T17:42:38.064Z</time></trkpt><trkpt lat="45.6680819" lon="11.4542603"><ele>101.0</ele><time>2026-04-04T17:42:39.063Z</time></trkpt><trkpt lat="45.6680221" lon="11.4540528"><ele>101.0</ele><time>2026-04-04T17:42:40.063Z</time></trkpt><trkpt lat="45.6679624" lon="11.4538435"><ele>101.0</ele><time>2026-04-04T17:42:41.063Z</time></trkpt><trkpt lat="45.6679029" lon="11.4536311"><ele>101.0</ele><time>2026-04-04T17:42:42.063Z</time></trkpt><trkpt lat="45.6678432" lon="11.4534142"><ele>101.0</ele><time>2026-04-04T17:42:43.064Z</time></trkpt><trkpt lat="45.6677822" lon="11.4531959"><ele>101.0</ele><time>2026-04-04T17:42:44.063Z</time></trkpt><trkpt lat="45.6677253" lon="11.452975"><ele>101.0</ele><time>2026-04-04T17:42:45.063Z</time></trkpt><trkpt lat="45.6676687" lon="11.4527567"><ele>101.0</ele><time>2026-04-04T17:42:46.064Z</time></trkpt><trkpt lat="45.6676106" lon="11.4525377"><ele>101.0</ele><time>2026-04-04T17:42:47.064Z</time></trkpt><trkpt lat="45.6675557" lon="11.4523214"><ele>100.66666666666666</ele><time>2026-04-04T17:42:48.064Z</time></trkpt><trkpt lat="45.6674988" lon="11.4521121"><ele>100.33333333333334</ele><time>2026-04-04T17:42:49.064Z</time></trkpt><trkpt lat="45.6674431" lon="11.4519072"><ele>100.0</ele><time>2026-04-04T17:42:50.064Z</time></trkpt><trkpt lat="45.6673876" lon="11.4517062"><ele>100.0</ele><time>2026-04-04T17:42:51.064Z</time></trkpt><trkpt lat="45.6673324" lon="11.451503"><ele>100.0</ele><time>2026-04-04T17:42:52.063Z</time></trkpt><trkpt lat="45.667276" lon="11.4512947"><ele>100.0</ele><time>2026-04-04T17:42:53.063Z</time></trkpt><trkpt lat="45.6672181" lon="11.4510824"><ele>99.0</ele><time>2026-04-04T17:42:54.064Z</time></trkpt><trkpt lat="45.6671584" lon="11.4508625"><ele>98.0</ele><time>2026-04-04T17:42:55.063Z</time></trkpt><trkpt lat="45.6670947" lon="11.4506328"><ele>97.0</ele><time>2026-04-04T17:42:56.064Z</time></trkpt><trkpt lat="45.6670314" lon="11.4504023"><ele>97.0</ele><time>2026-04-04T17:42:57.063Z</time></trkpt><trkpt lat="45.6669668" lon="11.4501673"><ele>97.0</ele><time>2026-04-04T17:42:58.064Z</time></trkpt><trkpt lat="45.6669031" lon="11.4499291"><ele>97.0</ele><time>2026-04-04T17:42:59.063Z</time></trkpt><trkpt lat="45.6668395" lon="11.4496902"><ele>98.33333333333334</ele><time>2026-04-04T17:43:00.063Z</time></trkpt><trkpt lat="45.666774" lon="11.4494518"><ele>99.66666666666666</ele><time>2026-04-04T17:43:01.063Z</time></trkpt><trkpt lat="45.6667067" lon="11.4492102"><ele>101.0</ele><time>2026-04-04T17:43:02.063Z</time></trkpt><trkpt lat="45.6666409" lon="11.44897"><ele>102.0</ele><time>2026-04-04T17:43:03.064Z</time></trkpt><trkpt lat="45.6665735" lon="11.4487317"><ele>103.0</ele><time>2026-04-04T17:43:04.063Z</time></trkpt><trkpt lat="45.666505" lon="11.448494"><ele>104.0</ele><time>2026-04-04T17:43:05.064Z</time></trkpt><trkpt lat="45.666439" lon="11.4482564"><ele>104.0</ele><time>2026-04-04T17:43:06.063Z</time></trkpt><trkpt lat="45.6663761" lon="11.4480265"><ele>104.0</ele><time>2026-04-04T17:43:07.064Z</time></trkpt><trkpt lat="45.6663128" lon="11.4477896"><ele>104.0</ele><time>2026-04-04T17:43:08.063Z</time></trkpt><trkpt lat="45.6662508" lon="11.4475554"><ele>104.0</ele><time>2026-04-04T17:43:09.064Z</time></trkpt><trkpt lat="45.6661872" lon="11.4473197"><ele>104.0</ele><time>2026-04-04T17:43:10.064Z</time></trkpt><trkpt lat="45.666125" lon="11.4470783"><ele>104.0</ele><time>2026-04-04T17:43:11.064Z</time></trkpt><trkpt lat="45.666061" lon="11.4468442"><ele>104.0</ele><time>2026-04-04T17:43:12.063Z</time></trkpt><trkpt lat="45.6659958" lon="11.4466123"><ele>104.0</ele><time>2026-04-04T17:43:13.064Z</time></trkpt><trkpt lat="45.6659308" lon="11.4463761"><ele>104.0</ele><time>2026-04-04T17:43:14.064Z</time></trkpt><trkpt lat="45.6658659" lon="11.4461395"><ele>104.0</ele><time>2026-04-04T17:43:15.064Z</time></trkpt><trkpt lat="45.6657978" lon="11.4458993"><ele>104.0</ele><time>2026-04-04T17:43:16.064Z</time></trkpt><trkpt lat="45.6657305" lon="11.4456597"><ele>104.0</ele><time>2026-04-04T17:43:17.064Z</time></trkpt><trkpt lat="45.6656642" lon="11.4454253"><ele>104.33333333333333</ele><time>2026-04-04T17:43:18.063Z</time></trkpt><trkpt lat="45.6656009" lon="11.4451924"><ele>104.66666666666666</ele><time>2026-04-04T17:43:19.064Z</time></trkpt><trkpt lat="45.665535" lon="11.4449572"><ele>105.0</ele><time>2026-04-04T17:43:20.064Z</time></trkpt><trkpt lat="45.6654726" lon="11.4447258"><ele>105.33333333333334</ele><time>2026-04-04T17:43:21.064Z</time></trkpt><trkpt lat="45.6654105" lon="11.4445002"><ele>105.66666666666667</ele><time>2026-04-04T17:43:22.063Z</time></trkpt><trkpt lat="45.6653485" lon="11.4442733"><ele>106.0</ele><time>2026-04-04T17:43:23.064Z</time></trkpt><trkpt lat="45.6652903" lon="11.4440495"><ele>105.66666666666667</ele><time>2026-04-04T17:43:24.063Z</time></trkpt><trkpt lat="45.6652288" lon="11.4438218"><ele>105.33333333333334</ele><time>2026-04-04T17:43:25.063Z</time></trkpt><trkpt lat="45.6651663" lon="11.4435914"><ele>105.0</ele><time>2026-04-04T17:43:26.064Z</time></trkpt><trkpt lat="45.665109" lon="11.4433609"><ele>105.0</ele><time>2026-04-04T17:43:27.063Z</time></trkpt><trkpt lat="45.6650561" lon="11.4431273"><ele>105.0</ele><time>2026-04-04T17:43:28.064Z</time></trkpt><trkpt lat="45.6650055" lon="11.4428938"><ele>105.0</ele><time>2026-04-04T17:43:29.063Z</time></trkpt><trkpt lat="45.6649578" lon="11.4426599"><ele>105.0</ele><time>2026-04-04T17:43:30.064Z</time></trkpt><trkpt lat="45.6649027" lon="11.4424194"><ele>105.0</ele><time>2026-04-04T17:43:31.064Z</time></trkpt><trkpt lat="45.6648434" lon="11.442176"><ele>105.0</ele><time>2026-04-04T17:43:32.064Z</time></trkpt><trkpt lat="45.6647747" lon="11.4419245"><ele>104.66666666666666</ele><time>2026-04-04T17:43:33.064Z</time></trkpt><trkpt lat="45.6646972" lon="11.4416694"><ele>104.33333333333333</ele><time>2026-04-04T17:43:34.063Z</time></trkpt><trkpt lat="45.6646125" lon="11.4414163"><ele>104.0</ele><time>2026-04-04T17:43:35.063Z</time></trkpt><trkpt lat="45.6645308" lon="11.4411708"><ele>104.0</ele><time>2026-04-04T17:43:36.064Z</time></trkpt><trkpt lat="45.6644514" lon="11.4409311"><ele>104.0</ele><time>2026-04-04T17:43:37.064Z</time></trkpt><trkpt lat="45.6643728" lon="11.4406915"><ele>104.0</ele><time>2026-04-04T17:43:38.064Z</time></trkpt><trkpt lat="45.6642924" lon="11.44045"><ele>104.33333333333333</ele><time>2026-04-04T17:43:39.064Z</time></trkpt><trkpt lat="45.6642127" lon="11.4402112"><ele>104.66666666666666</ele><time>2026-04-04T17:43:40.063Z</time></trkpt><trkpt lat="45.6641351" lon="11.4399688"><ele>105.0</ele><time>2026-04-04T17:43:41.063Z</time></trkpt><trkpt lat="45.6640594" lon="11.4397269"><ele>105.0</ele><time>2026-04-04T17:43:42.064Z</time></trkpt><trkpt lat="45.6639926" lon="11.4394819"><ele>105.0</ele><time>2026-04-04T17:43:43.064Z</time></trkpt><trkpt lat="45.663932" lon="11.4392363"><ele>105.0</ele><time>2026-04-04T17:43:44.063Z</time></trkpt><trkpt lat="45.6638777" lon="11.4389945"><ele>105.0</ele><time>2026-04-04T17:43:45.064Z</time></trkpt><trkpt lat="45.6638226" lon="11.4387528"><ele>105.0</ele><time>2026-04-04T17:43:46.064Z</time></trkpt><trkpt lat="45.6637707" lon="11.4385088"><ele>105.0</ele><time>2026-04-04T17:43:47.063Z</time></trkpt><trkpt lat="45.6637174" lon="11.4382701"><ele>105.0</ele><time>2026-04-04T17:43:48.063Z</time></trkpt><trkpt lat="45.6636651" lon="11.4380335"><ele>105.0</ele><time>2026-04-04T17:43:49.064Z</time></trkpt><trkpt lat="45.6636121" lon="11.4377978"><ele>105.0</ele><time>2026-04-04T17:43:50.063Z</time></trkpt><trkpt lat="45.6635575" lon="11.437557"><ele>104.66666666666666</ele><time>2026-04-04T17:43:51.064Z</time></trkpt><trkpt lat="45.6635032" lon="11.4373128"><ele>104.33333333333333</ele><time>2026-04-04T17:43:52.063Z</time></trkpt><trkpt lat="45.6634476" lon="11.4370704"><ele>104.0</ele><time>2026-04-04T17:43:53.064Z</time></trkpt><trkpt lat="45.6633924" lon="11.4368214"><ele>104.0</ele><time>2026-04-04T17:43:54.064Z</time></trkpt><trkpt lat="45.6633359" lon="11.4365712"><ele>104.0</ele><time>2026-04-04T17:43:55.064Z</time></trkpt><trkpt lat="45.6632805" lon="11.4363186"><ele>104.0</ele><time>2026-04-04T17:43:56.064Z</time></trkpt><trkpt lat="45.6632238" lon="11.4360629"><ele>104.0</ele><time>2026-04-04T17:43:57.064Z</time></trkpt><trkpt lat="45.6631663" lon="11.435807"><ele>104.0</ele><time>2026-04-04T17:43:58.064Z</time></trkpt><trkpt lat="45.6631091" lon="11.4355487"><ele>104.0</ele><time>2026-04-04T17:43:59.064Z</time></trkpt><trkpt lat="45.6630521" lon="11.4352855"><ele>103.66666666666666</ele><time>2026-04-04T17:44:00.064Z</time></trkpt><trkpt lat="45.6629953" lon="11.4350249"><ele>103.33333333333334</ele><time>2026-04-04T17:44:01.063Z</time></trkpt><trkpt lat="45.6629362" lon="11.4347655"><ele>103.0</ele><time>2026-04-04T17:44:02.064Z</time></trkpt><trkpt lat="45.6628781" lon="11.434501"><ele>103.0</ele><time>2026-04-04T17:44:03.063Z</time></trkpt><trkpt lat="45.6628194" lon="11.4342309"><ele>103.0</ele><time>2026-04-04T17:44:04.063Z</time></trkpt><trkpt lat="45.6627592" lon="11.4339605"><ele>103.0</ele><time>2026-04-04T17:44:05.064Z</time></trkpt><trkpt lat="45.6626968" lon="11.4336926"><ele>103.33333333333334</ele><time>2026-04-04T17:44:06.063Z</time></trkpt><trkpt lat="45.662635" lon="11.4334194"><ele>103.66666666666666</ele><time>2026-04-04T17:44:07.063Z</time></trkpt><trkpt lat="45.6625719" lon="11.4331412"><ele>104.0</ele><time>2026-04-04T17:44:08.063Z</time></trkpt><trkpt lat="45.6625074" lon="11.432866"><ele>104.0</ele><time>2026-04-04T17:44:09.063Z</time></trkpt><trkpt lat="45.6624473" lon="11.4325913"><ele>104.0</ele><time>2026-04-04T17:44:10.064Z</time></trkpt><trkpt lat="45.6623869" lon="11.4323156"><ele>104.0</ele><time>2026-04-04T17:44:11.064Z</time></trkpt><trkpt lat="45.6623254" lon="11.4320395"><ele>104.66666666666666</ele><time>2026-04-04T17:44:12.064Z</time></trkpt><trkpt lat="45.6622631" lon="11.4317662"><ele>105.33333333333334</ele><time>2026-04-04T17:44:13.064Z</time></trkpt><trkpt lat="45.6621995" lon="11.4314937"><ele>106.0</ele><time>2026-04-04T17:44:14.064Z</time></trkpt><trkpt lat="45.6621381" lon="11.4312233"><ele>106.0</ele><time>2026-04-04T17:44:15.064Z</time></trkpt><trkpt lat="45.6620767" lon="11.43095"><ele>106.0</ele><time>2026-04-04T17:44:16.064Z</time></trkpt><trkpt lat="45.662018" lon="11.4306807"><ele>106.0</ele><time>2026-04-04T17:44:17.063Z</time></trkpt><trkpt lat="45.6619569" lon="11.4304117"><ele>106.0</ele><time>2026-04-04T17:44:18.064Z</time></trkpt><trkpt lat="45.6618986" lon="11.4301465"><ele>106.0</ele><time>2026-04-04T17:44:19.064Z</time></trkpt><trkpt lat="45.66184" lon="11.429881"><ele>106.0</ele><time>2026-04-04T17:44:20.063Z</time></trkpt><trkpt lat="45.6617799" lon="11.4296215"><ele>106.0</ele><time>2026-04-04T17:44:21.064Z</time></trkpt><trkpt lat="45.6617214" lon="11.4293594"><ele>106.0</ele><time>2026-04-04T17:44:22.064Z</time></trkpt><trkpt lat="45.66166" lon="11.4291031"><ele>106.0</ele><time>2026-04-04T17:44:23.064Z</time></trkpt><trkpt lat="45.6615977" lon="11.4288484"><ele>105.66666666666667</ele><time>2026-04-04T17:44:24.064Z</time></trkpt><trkpt lat="45.6615381" lon="11.4285889"><ele>105.33333333333334</ele><time>2026-04-04T17:44:25.063Z</time></trkpt><trkpt lat="45.6614801" lon="11.4283282"><ele>105.0</ele><time>2026-04-04T17:44:26.064Z</time></trkpt><trkpt lat="45.6614219" lon="11.4280664"><ele>105.66666666666666</ele><time>2026-04-04T17:44:27.063Z</time></trkpt><trkpt lat="45.6613635" lon="11.4278051"><ele>106.33333333333333</ele><time>2026-04-04T17:44:28.063Z</time></trkpt><trkpt lat="45.6613075" lon="11.4275412"><ele>107.0</ele><time>2026-04-04T17:44:29.064Z</time></trkpt><trkpt lat="45.6612473" lon="11.4272781"><ele>107.0</ele><time>2026-04-04T17:44:30.064Z</time></trkpt><trkpt lat="45.6611859" lon="11.4270153"><ele>107.0</ele><time>2026-04-04T17:44:31.064Z</time></trkpt><trkpt lat="45.661124" lon="11.4267519"><ele>107.0</ele><time>2026-04-04T17:44:32.063Z</time></trkpt><trkpt lat="45.6610632" lon="11.4264886"><ele>107.33333333333333</ele><time>2026-04-04T17:44:33.063Z</time></trkpt><trkpt lat="45.6610068" lon="11.4262314"><ele>107.66666666666666</ele><time>2026-04-04T17:44:34.063Z</time></trkpt><trkpt lat="45.6609516" lon="11.4259801"><ele>108.0</ele><time>2026-04-04T17:44:35.063Z</time></trkpt><trkpt lat="45.6608965" lon="11.4257331"><ele>108.0</ele><time>2026-04-04T17:44:36.064Z</time></trkpt><trkpt lat="45.6608404" lon="11.4254893"><ele>108.0</ele><time>2026-04-04T17:44:37.063Z</time></trkpt><trkpt lat="45.660787" lon="11.4252477"><ele>108.0</ele><time>2026-04-04T17:44:38.063Z</time></trkpt><trkpt lat="45.6607324" lon="11.4250104"><ele>108.0</ele><time>2026-04-04T17:44:39.063Z</time></trkpt><trkpt lat="45.6606793" lon="11.4247747"><ele>108.0</ele><time>2026-04-04T17:44:40.063Z</time></trkpt><trkpt lat="45.660627" lon="11.4245449"><ele>108.0</ele><time>2026-04-04T17:44:41.064Z</time></trkpt><trkpt lat="45.6605765" lon="11.4243166"><ele>107.66666666666666</ele><time>2026-04-04T17:44:42.063Z</time></trkpt><trkpt lat="45.6605247" lon="11.4240912"><ele>107.33333333333333</ele><time>2026-04-04T17:44:43.063Z</time></trkpt><trkpt lat="45.660475" lon="11.4238647"><ele>107.0</ele><time>2026-04-04T17:44:44.063Z</time></trkpt><trkpt lat="45.660422" lon="11.4236356"><ele>107.0</ele><time>2026-04-04T17:44:45.063Z</time></trkpt><trkpt lat="45.6603683" lon="11.4234025"><ele>107.0</ele><time>2026-04-04T17:44:46.064Z</time></trkpt><trkpt lat="45.6603137" lon="11.4231676"><ele>107.0</ele><time>2026-04-04T17:44:47.063Z</time></trkpt><trkpt lat="45.6602587" lon="11.4229284"><ele>107.66666666666666</ele><time>2026-04-04T17:44:48.063Z</time></trkpt><trkpt lat="45.6602041" lon="11.4226896"><ele>108.33333333333334</ele><time>2026-04-04T17:44:49.064Z</time></trkpt><trkpt lat="45.6601503" lon="11.4224503"><ele>109.0</ele><time>2026-04-04T17:44:50.063Z</time></trkpt><trkpt lat="45.6600988" lon="11.422221"><ele>108.66666666666667</ele><time>2026-04-04T17:44:51.064Z</time></trkpt><trkpt lat="45.6600466" lon="11.4219939"><ele>108.33333333333334</ele><time>2026-04-04T17:44:52.063Z</time></trkpt><trkpt lat="45.6599948" lon="11.4217688"><ele>108.0</ele><time>2026-04-04T17:44:53.064Z</time></trkpt><trkpt lat="45.6599424" lon="11.4215436"><ele>107.66666666666666</ele><time>2026-04-04T17:44:54.064Z</time></trkpt><trkpt lat="45.6598934" lon="11.4213128"><ele>107.33333333333333</ele><time>2026-04-04T17:44:55.064Z</time></trkpt><trkpt lat="45.6598426" lon="11.4210837"><ele>107.0</ele><time>2026-04-04T17:44:56.063Z</time></trkpt><trkpt lat="45.6597894" lon="11.4208552"><ele>107.0</ele><time>2026-04-04T17:44:57.064Z</time></trkpt><trkpt lat="45.6597354" lon="11.4206265"><ele>107.0</ele><time>2026-04-04T17:44:58.064Z</time></trkpt><trkpt lat="45.6596826" lon="11.4203942"><ele>107.0</ele><time>2026-04-04T17:44:59.063Z</time></trkpt><trkpt lat="45.6596304" lon="11.4201682"><ele>107.0</ele><time>2026-04-04T17:45:00.064Z</time></trkpt><trkpt lat="45.6595808" lon="11.4199484"><ele>107.0</ele><time>2026-04-04T17:45:01.064Z</time></trkpt><trkpt lat="45.6595299" lon="11.419728"><ele>107.0</ele><time>2026-04-04T17:45:02.063Z</time></trkpt><trkpt lat="45.6594789" lon="11.4195072"><ele>107.33333333333333</ele><time>2026-04-04T17:45:03.063Z</time></trkpt><trkpt lat="45.6594285" lon="11.4192847"><ele>107.66666666666666</ele><time>2026-04-04T17:45:04.064Z</time></trkpt><trkpt lat="45.6593768" lon="11.4190633"><ele>108.0</ele><time>2026-04-04T17:45:05.063Z</time></trkpt><trkpt lat="45.6593259" lon="11.4188409"><ele>108.33333333333334</ele><time>2026-04-04T17:45:06.063Z</time></trkpt><trkpt lat="45.659275" lon="11.4186183"><ele>108.66666666666667</ele><time>2026-04-04T17:45:07.063Z</time></trkpt><trkpt lat="45.6592227" lon="11.4183975"><ele>109.0</ele><time>2026-04-04T17:45:08.063Z</time></trkpt><trkpt lat="45.6591712" lon="11.4181828"><ele>109.33333333333334</ele><time>2026-04-04T17:45:09.064Z</time></trkpt><trkpt lat="45.6591231" lon="11.4179671"><ele>109.66666666666666</ele><time>2026-04-04T17:45:10.064Z</time></trkpt><trkpt lat="45.6590742" lon="11.4177593"><ele>110.0</ele><time>2026-04-04T17:45:11.063Z</time></trkpt><trkpt lat="45.6590275" lon="11.4175512"><ele>110.0</ele><time>2026-04-04T17:45:12.064Z</time></trkpt><trkpt lat="45.6589803" lon="11.4173502"><ele>110.0</ele><time>2026-04-04T17:45:13.063Z</time></trkpt><trkpt lat="45.6589377" lon="11.4171605"><ele>110.0</ele><time>2026-04-04T17:45:14.064Z</time></trkpt><trkpt lat="45.6588962" lon="11.4169787"><ele>110.0</ele><time>2026-04-04T17:45:15.063Z</time></trkpt><trkpt lat="45.6588563" lon="11.4168017"><ele>110.25</ele><time>2026-04-04T17:45:16.063Z</time></trkpt><trkpt lat="45.6588161" lon="11.4166341"><ele>110.5</ele><time>2026-04-04T17:45:17.064Z</time></trkpt><trkpt lat="45.6587778" lon="11.416469"><ele>110.75</ele><time>2026-04-04T17:45:18.064Z</time></trkpt><trkpt lat="45.6587413" lon="11.4163064"><ele>111.0</ele><time>2026-04-04T17:45:19.063Z</time></trkpt><trkpt lat="45.6587089" lon="11.416141"><ele>110.8</ele><time>2026-04-04T17:45:20.063Z</time></trkpt><trkpt lat="45.6586731" lon="11.4159861"><ele>110.6</ele><time>2026-04-04T17:45:21.063Z</time></trkpt><trkpt lat="45.6586394" lon="11.4158403"><ele>110.4</ele><time>2026-04-04T17:45:22.063Z</time></trkpt><trkpt lat="45.6586123" lon="11.4157036"><ele>110.2</ele><time>2026-04-04T17:45:23.064Z</time></trkpt><trkpt lat="45.6585852" lon="11.4155744"><ele>110.0</ele><time>2026-04-04T17:45:24.064Z</time></trkpt><trkpt lat="45.6585589" lon="11.4154513"><ele>109.83333333333333</ele><time>2026-04-04T17:45:25.063Z</time></trkpt><trkpt lat="45.6585309" lon="11.4153337"><ele>109.66666666666666</ele><time>2026-04-04T17:45:26.063Z</time></trkpt><trkpt lat="45.6585031" lon="11.4152243"><ele>109.5</ele><time>2026-04-04T17:45:27.063Z</time></trkpt><trkpt lat="45.6584743" lon="11.4151258"><ele>109.33333333333334</ele><time>2026-04-04T17:45:28.064Z</time></trkpt><trkpt lat="45.6584442" lon="11.4150325"><ele>109.16666666666667</ele><time>2026-04-04T17:45:29.064Z</time></trkpt><trkpt lat="45.6584119" lon="11.4149436"><ele>109.0</ele><time>2026-04-04T17:45:30.064Z</time></trkpt><trkpt lat="45.6583873" lon="11.4148425"><ele>109.0</ele><time>2026-04-04T17:45:31.063Z</time></trkpt><trkpt lat="45.6583682" lon="11.414725"><ele>109.0</ele><time>2026-04-04T17:45:32.064Z</time></trkpt><trkpt lat="45.6583418" lon="11.4145975"><ele>109.0</ele><time>2026-04-04T17:45:33.063Z</time></trkpt><trkpt lat="45.658294" lon="11.4144712"><ele>109.0</ele><time>2026-04-04T17:45:34.063Z</time></trkpt><trkpt lat="45.658258" lon="11.4143265"><ele>109.0</ele><time>2026-04-04T17:45:35.063Z</time></trkpt><trkpt lat="45.6582349" lon="11.4141658"><ele>109.0</ele><time>2026-04-04T17:45:36.063Z</time></trkpt><trkpt lat="45.6582053" lon="11.4139982"><ele>109.0</ele><time>2026-04-04T17:45:37.064Z</time></trkpt><trkpt lat="45.658171" lon="11.4138369"><ele>109.0</ele><time>2026-04-04T17:45:38.064Z</time></trkpt><trkpt lat="45.6581352" lon="11.4136848"><ele>109.0</ele><time>2026-04-04T17:45:39.064Z</time></trkpt><trkpt lat="45.6581015" lon="11.4135432"><ele>109.0</ele><time>2026-04-04T17:45:40.063Z</time></trkpt><trkpt lat="45.6580739" lon="11.4134117"><ele>109.0</ele><time>2026-04-04T17:45:41.063Z</time></trkpt><trkpt lat="45.6580562" lon="11.4132754"><ele>109.0</ele><time>2026-04-04T17:45:42.064Z</time></trkpt><trkpt lat="45.6580264" lon="11.4131359"><ele>109.0</ele><time>2026-04-04T17:45:43.064Z</time></trkpt><trkpt lat="45.6579954" lon="11.4130138"><ele>109.0</ele><time>2026-04-04T17:45:44.064Z</time></trkpt><trkpt lat="45.6579593" lon="11.412888"><ele>108.80000000000001</ele><time>2026-04-04T17:45:45.063Z</time></trkpt><trkpt lat="45.6579309" lon="11.4127478"><ele>108.60000000000001</ele><time>2026-04-04T17:45:46.064Z</time></trkpt><trkpt lat="45.6579263" lon="11.412594"><ele>108.4</ele><time>2026-04-04T17:45:47.063Z</time></trkpt><trkpt lat="45.6579499" lon="11.4124418"><ele>108.2</ele><time>2026-04-04T17:45:48.063Z</time></trkpt><trkpt lat="45.6580038" lon="11.412302"><ele>108.0</ele><time>2026-04-04T17:45:49.064Z</time></trkpt><trkpt lat="45.6580827" lon="11.4121789"><ele>108.5</ele><time>2026-04-04T17:45:50.064Z</time></trkpt><trkpt lat="45.6581825" lon="11.4120734"><ele>109.0</ele><time>2026-04-04T17:45:51.064Z</time></trkpt><trkpt lat="45.6582972" lon="11.4119812"><ele>109.5</ele><time>2026-04-04T17:45:52.064Z</time></trkpt><trkpt lat="45.6584201" lon="11.4118912"><ele>110.0</ele><time>2026-04-04T17:45:53.063Z</time></trkpt><trkpt lat="45.6585503" lon="11.4117926"><ele>110.66666666666666</ele><time>2026-04-04T17:45:54.064Z</time></trkpt><trkpt lat="45.6586846" lon="11.4116872"><ele>111.33333333333334</ele><time>2026-04-04T17:45:55.064Z</time></trkpt><trkpt lat="45.6588253" lon="11.4115801"><ele>112.0</ele><time>2026-04-04T17:45:56.064Z</time></trkpt><trkpt lat="45.6589715" lon="11.4114716"><ele>112.0</ele><time>2026-04-04T17:45:57.063Z</time></trkpt><trkpt lat="45.6591225" lon="11.411362"><ele>112.0</ele><time>2026-04-04T17:45:58.063Z</time></trkpt><trkpt lat="45.6592757" lon="11.411248"><ele>112.0</ele><time>2026-04-04T17:45:59.063Z</time></trkpt><trkpt lat="45.6594307" lon="11.4111336"><ele>112.0</ele><time>2026-04-04T17:46:00.063Z</time></trkpt><trkpt lat="45.6595886" lon="11.4110166"><ele>112.0</ele><time>2026-04-04T17:46:01.064Z</time></trkpt><trkpt lat="45.6597495" lon="11.4108993"><ele>112.0</ele><time>2026-04-04T17:46:02.064Z</time></trkpt><trkpt lat="45.6599109" lon="11.4107776"><ele>112.0</ele><time>2026-04-04T17:46:03.064Z</time></trkpt><trkpt lat="45.6600726" lon="11.4106569"><ele>112.0</ele><time>2026-04-04T17:46:04.063Z</time></trkpt><trkpt lat="45.6602352" lon="11.4105351"><ele>112.0</ele><time>2026-04-04T17:46:05.063Z</time></trkpt><trkpt lat="45.660397" lon="11.4104136"><ele>112.33333333333334</ele><time>2026-04-04T17:46:06.064Z</time></trkpt><trkpt lat="45.6605575" lon="11.4102939"><ele>112.66666666666666</ele><time>2026-04-04T17:46:07.063Z</time></trkpt><trkpt lat="45.6607137" lon="11.4101739"><ele>113.0</ele><time>2026-04-04T17:46:08.064Z</time></trkpt><trkpt lat="45.6608684" lon="11.4100554"><ele>113.0</ele><time>2026-04-04T17:46:09.064Z</time></trkpt><trkpt lat="45.6610209" lon="11.4099412"><ele>113.0</ele><time>2026-04-04T17:46:10.064Z</time></trkpt><trkpt lat="45.6611695" lon="11.4098284"><ele>113.0</ele><time>2026-04-04T17:46:11.063Z</time></trkpt><trkpt lat="45.6613139" lon="11.4097175"><ele>113.0</ele><time>2026-04-04T17:46:12.064Z</time></trkpt><trkpt lat="45.6614533" lon="11.4096147"><ele>113.0</ele><time>2026-04-04T17:46:13.064Z</time></trkpt><trkpt lat="45.6615812" lon="11.4095169"><ele>113.0</ele><time>2026-04-04T17:46:14.064Z</time></trkpt><trkpt lat="45.6616975" lon="11.4094278"><ele>113.0</ele><time>2026-04-04T17:46:15.064Z</time></trkpt><trkpt lat="45.6617925" lon="11.4093565"><ele>112.99999999999999</ele><time>2026-04-04T17:46:16.064Z</time></trkpt><trkpt lat="45.661873" lon="11.4093021"><ele>113.0</ele><time>2026-04-04T17:46:17.063Z</time></trkpt><trkpt lat="45.6619499" lon="11.4092639"><ele>113.0</ele><time>2026-04-04T17:46:18.063Z</time></trkpt><trkpt lat="45.6620239" lon="11.4092351"><ele>113.0</ele><time>2026-04-04T17:46:19.063Z</time></trkpt><trkpt lat="45.6620957" lon="11.4092014"><ele>112.99999999999999</ele><time>2026-04-04T17:46:20.063Z</time></trkpt><trkpt lat="45.6621676" lon="11.4091396"><ele>113.0</ele><time>2026-04-04T17:46:21.064Z</time></trkpt><trkpt lat="45.6622402" lon="11.4090417"><ele>113.5</ele><time>2026-04-04T17:46:22.063Z</time></trkpt><trkpt lat="45.6623277" lon="11.408929"><ele>114.0</ele><time>2026-04-04T17:46:23.063Z</time></trkpt><trkpt lat="45.66243" lon="11.4088125"><ele>114.5</ele><time>2026-04-04T17:46:24.063Z</time></trkpt><trkpt lat="45.6625427" lon="11.4086816"><ele>115.0</ele><time>2026-04-04T17:46:25.064Z</time></trkpt><trkpt lat="45.6626576" lon="11.4085343"><ele>115.0</ele><time>2026-04-04T17:46:26.063Z</time></trkpt><trkpt lat="45.6627631" lon="11.4083639"><ele>115.0</ele><time>2026-04-04T17:46:27.063Z</time></trkpt><trkpt lat="45.6628575" lon="11.4081793"><ele>115.0</ele><time>2026-04-04T17:46:28.063Z</time></trkpt><trkpt lat="45.6629393" lon="11.4079792"><ele>115.66666666666667</ele><time>2026-04-04T17:46:29.064Z</time></trkpt><trkpt lat="45.663005" lon="11.4077659"><ele>116.33333333333334</ele><time>2026-04-04T17:46:30.063Z</time></trkpt><trkpt lat="45.6630552" lon="11.4075409"><ele>117.0</ele><time>2026-04-04T17:46:31.063Z</time></trkpt><trkpt lat="45.6630837" lon="11.407305"><ele>117.33333333333334</ele><time>2026-04-04T17:46:32.063Z</time></trkpt><trkpt lat="45.663091" lon="11.4070632"><ele>117.66666666666667</ele><time>2026-04-04T17:46:33.064Z</time></trkpt><trkpt lat="45.6630756" lon="11.4068206"><ele>118.0</ele><time>2026-04-04T17:46:34.063Z</time></trkpt><trkpt lat="45.6630403" lon="11.4065801"><ele>118.0</ele><time>2026-04-04T17:46:35.063Z</time></trkpt><trkpt lat="45.6629911" lon="11.4063423"><ele>118.0</ele><time>2026-04-04T17:46:36.063Z</time></trkpt><trkpt lat="45.6629347" lon="11.4061077"><ele>118.0</ele><time>2026-04-04T17:46:37.064Z</time></trkpt><trkpt lat="45.6628765" lon="11.4058695"><ele>118.0</ele><time>2026-04-04T17:46:38.064Z</time></trkpt><trkpt lat="45.6628181" lon="11.4056318"><ele>118.0</ele><time>2026-04-04T17:46:39.064Z</time></trkpt><trkpt lat="45.6627584" lon="11.4053966"><ele>118.0</ele><time>2026-04-04T17:46:40.063Z</time></trkpt><trkpt lat="45.662701" lon="11.4051653"><ele>118.0</ele><time>2026-04-04T17:46:41.063Z</time></trkpt><trkpt lat="45.6626448" lon="11.4049385"><ele>118.0</ele><time>2026-04-04T17:46:42.064Z</time></trkpt><trkpt lat="45.662589" lon="11.4047183"><ele>118.0</ele><time>2026-04-04T17:46:43.064Z</time></trkpt><trkpt lat="45.6625307" lon="11.4045033"><ele>118.33333333333334</ele><time>2026-04-04T17:46:44.064Z</time></trkpt><trkpt lat="45.6624673" lon="11.4042993"><ele>118.66666666666666</ele><time>2026-04-04T17:46:45.064Z</time></trkpt><trkpt lat="45.6623939" lon="11.4041074"><ele>119.0</ele><time>2026-04-04T17:46:46.063Z</time></trkpt><trkpt lat="45.6623066" lon="11.4039326"><ele>119.66666666666666</ele><time>2026-04-04T17:46:47.064Z</time></trkpt><trkpt lat="45.6622041" lon="11.4037721"><ele>120.33333333333334</ele><time>2026-04-04T17:46:48.064Z</time></trkpt><trkpt lat="45.662094" lon="11.4036178"><ele>121.0</ele><time>2026-04-04T17:46:49.063Z</time></trkpt><trkpt lat="45.6619773" lon="11.4034714"><ele>121.0</ele><time>2026-04-04T17:46:50.064Z</time></trkpt><trkpt lat="45.6618593" lon="11.4033318"><ele>121.0</ele><time>2026-04-04T17:46:51.064Z</time></trkpt><trkpt lat="45.6617501" lon="11.4032017"><ele>121.0</ele><time>2026-04-04T17:46:52.063Z</time></trkpt><trkpt lat="45.661649" lon="11.4030827"><ele>121.0</ele><time>2026-04-04T17:46:53.063Z</time></trkpt><trkpt lat="45.6615579" lon="11.4029772"><ele>121.19999999999999</ele><time>2026-04-04T17:46:54.063Z</time></trkpt><trkpt lat="45.661479" lon="11.4028865"><ele>121.39999999999999</ele><time>2026-04-04T17:46:55.064Z</time></trkpt><trkpt lat="45.6614122" lon="11.4028036"><ele>121.6</ele><time>2026-04-04T17:46:56.064Z</time></trkpt><trkpt lat="45.6613637" lon="11.402724"><ele>121.8</ele><time>2026-04-04T17:46:57.064Z</time></trkpt><trkpt lat="45.6613119" lon="11.4025585"><ele>122.0</ele><time>2026-04-04T17:46:59.064Z</time></trkpt><trkpt lat="45.6613042" lon="11.4024551"><ele>121.99999999999999</ele><time>2026-04-04T17:47:00.064Z</time></trkpt><trkpt lat="45.6612823" lon="11.4023529"><ele>122.0</ele><time>2026-04-04T17:47:01.064Z</time></trkpt><trkpt lat="45.6612271" lon="11.4022695"><ele>122.0</ele><time>2026-04-04T17:47:02.064Z</time></trkpt><trkpt lat="45.6611501" lon="11.4022148"><ele>122.0</ele><time>2026-04-04T17:47:03.063Z</time></trkpt><trkpt lat="45.6610564" lon="11.4021908"><ele>121.99999999999999</ele><time>2026-04-04T17:47:04.063Z</time></trkpt><trkpt lat="45.660953" lon="11.4021522"><ele>122.0</ele><time>2026-04-04T17:47:05.063Z</time></trkpt><trkpt lat="45.6608445" lon="11.4020739"><ele>122.0</ele><time>2026-04-04T17:47:06.063Z</time></trkpt><trkpt lat="45.6607349" lon="11.4019667"><ele>122.0</ele><time>2026-04-04T17:47:07.064Z</time></trkpt><trkpt lat="45.6606222" lon="11.4018396"><ele>122.0</ele><time>2026-04-04T17:47:08.063Z</time></trkpt><trkpt lat="45.6605041" lon="11.401701"><ele>122.0</ele><time>2026-04-04T17:47:09.063Z</time></trkpt><trkpt lat="45.66038" lon="11.401557"><ele>122.0</ele><time>2026-04-04T17:47:10.064Z</time></trkpt><trkpt lat="45.6602528" lon="11.4014078"><ele>122.0</ele><time>2026-04-04T17:47:11.064Z</time></trkpt><trkpt lat="45.6601222" lon="11.4012558"><ele>122.0</ele><time>2026-04-04T17:47:12.064Z</time></trkpt><trkpt lat="45.6599888" lon="11.4010978"><ele>122.0</ele><time>2026-04-04T17:47:13.063Z</time></trkpt><trkpt lat="45.6598545" lon="11.4009357"><ele>122.0</ele><time>2026-04-04T17:47:14.064Z</time></trkpt><trkpt lat="45.6597177" lon="11.4007722"><ele>122.0</ele><time>2026-04-04T17:47:15.064Z</time></trkpt><trkpt lat="45.6595803" lon="11.400607"><ele>121.33333333333333</ele><time>2026-04-04T17:47:16.063Z</time></trkpt><trkpt lat="45.6594394" lon="11.4004381"><ele>120.66666666666666</ele><time>2026-04-04T17:47:17.063Z</time></trkpt><trkpt lat="45.6592972" lon="11.4002687"><ele>120.0</ele><time>2026-04-04T17:47:18.063Z</time></trkpt><trkpt lat="45.659156" lon="11.4001004"><ele>120.0</ele><time>2026-04-04T17:47:19.064Z</time></trkpt><trkpt lat="45.6590238" lon="11.3999378"><ele>120.0</ele><time>2026-04-04T17:47:20.063Z</time></trkpt><trkpt lat="45.6588992" lon="11.3997838"><ele>120.0</ele><time>2026-04-04T17:47:21.063Z</time></trkpt><trkpt lat="45.6587785" lon="11.3996421"><ele>120.0</ele><time>2026-04-04T17:47:22.063Z</time></trkpt><trkpt lat="45.658672" lon="11.3995181"><ele>120.0</ele><time>2026-04-04T17:47:23.063Z</time></trkpt><trkpt lat="45.6585796" lon="11.3994133"><ele>120.0</ele><time>2026-04-04T17:47:24.064Z</time></trkpt><trkpt lat="45.6585023" lon="11.3993132"><ele>120.0</ele><time>2026-04-04T17:47:25.063Z</time></trkpt><trkpt lat="45.65844" lon="11.3992011"><ele>119.8</ele><time>2026-04-04T17:47:26.064Z</time></trkpt><trkpt lat="45.6583974" lon="11.3990669"><ele>119.6</ele><time>2026-04-04T17:47:27.063Z</time></trkpt><trkpt lat="45.6583646" lon="11.3989185"><ele>119.4</ele><time>2026-04-04T17:47:28.064Z</time></trkpt><trkpt lat="45.6583157" lon="11.3987795"><ele>119.2</ele><time>2026-04-04T17:47:29.063Z</time></trkpt><trkpt lat="45.6582394" lon="11.3986783"><ele>119.0</ele><time>2026-04-04T17:47:30.064Z</time></trkpt><trkpt lat="45.6581438" lon="11.3986315"><ele>119.5</ele><time>2026-04-04T17:47:31.064Z</time></trkpt><trkpt lat="45.6580365" lon="11.3986369"><ele>120.0</ele><time>2026-04-04T17:47:32.064Z</time></trkpt><trkpt lat="45.6579213" lon="11.3986671"><ele>120.5</ele><time>2026-04-04T17:47:33.064Z</time></trkpt><trkpt lat="45.657795" lon="11.3986672"><ele>121.0</ele><time>2026-04-04T17:47:34.063Z</time></trkpt><trkpt lat="45.6576611" lon="11.3986457"><ele>119.75</ele><time>2026-04-04T17:47:35.063Z</time></trkpt><trkpt lat="45.6575252" lon="11.3986162"><ele>118.5</ele><time>2026-04-04T17:47:36.063Z</time></trkpt><trkpt lat="45.6573929" lon="11.3985871"><ele>117.25</ele><time>2026-04-04T17:47:37.063Z</time></trkpt><trkpt lat="45.6572592" lon="11.3985584"><ele>116.0</ele><time>2026-04-04T17:47:38.063Z</time></trkpt><trkpt lat="45.657124" lon="11.3985327"><ele>116.0</ele><time>2026-04-04T17:47:39.063Z</time></trkpt><trkpt lat="45.6569891" lon="11.3985051"><ele>116.0</ele><time>2026-04-04T17:47:40.064Z</time></trkpt><trkpt lat="45.6568541" lon="11.3984786"><ele>116.0</ele><time>2026-04-04T17:47:41.064Z</time></trkpt><trkpt lat="45.6567169" lon="11.3984515"><ele>116.0</ele><time>2026-04-04T17:47:42.063Z</time></trkpt><trkpt lat="45.6565781" lon="11.3984234"><ele>115.75</ele><time>2026-04-04T17:47:43.063Z</time></trkpt><trkpt lat="45.6564372" lon="11.3983945"><ele>115.5</ele><time>2026-04-04T17:47:44.063Z</time></trkpt><trkpt lat="45.6562953" lon="11.3983648"><ele>115.25</ele><time>2026-04-04T17:47:45.064Z</time></trkpt><trkpt lat="45.6561528" lon="11.398327"><ele>115.0</ele><time>2026-04-04T17:47:46.063Z</time></trkpt><trkpt lat="45.6560151" lon="11.3982727"><ele>115.0</ele><time>2026-04-04T17:47:47.063Z</time></trkpt><trkpt lat="45.6558835" lon="11.3981969"><ele>115.0</ele><time>2026-04-04T17:47:48.064Z</time></trkpt><trkpt lat="45.6557598" lon="11.3980954"><ele>115.0</ele><time>2026-04-04T17:47:49.064Z</time></trkpt><trkpt lat="45.6556449" lon="11.397972"><ele>115.0</ele><time>2026-04-04T17:47:50.063Z</time></trkpt><trkpt lat="45.6555377" lon="11.3978293"><ele>115.0</ele><time>2026-04-04T17:47:51.063Z</time></trkpt><trkpt lat="45.6554404" lon="11.3976747"><ele>115.0</ele><time>2026-04-04T17:47:52.064Z</time></trkpt><trkpt lat="45.655356" lon="11.3975049"><ele>115.0</ele><time>2026-04-04T17:47:53.064Z</time></trkpt><trkpt lat="45.6552804" lon="11.397328"><ele>115.0</ele><time>2026-04-04T17:47:54.063Z</time></trkpt><trkpt lat="45.6552122" lon="11.3971539"><ele>114.75</ele><time>2026-04-04T17:47:55.063Z</time></trkpt><trkpt lat="45.6551464" lon="11.3969798"><ele>114.5</ele><time>2026-04-04T17:47:56.063Z</time></trkpt><trkpt lat="45.6550768" lon="11.3968089"><ele>114.25</ele><time>2026-04-04T17:47:57.064Z</time></trkpt><trkpt lat="45.6550071" lon="11.3966359"><ele>114.0</ele><time>2026-04-04T17:47:58.064Z</time></trkpt><trkpt lat="45.6549389" lon="11.3964586"><ele>114.25</ele><time>2026-04-04T17:47:59.063Z</time></trkpt><trkpt lat="45.6548687" lon="11.3962783"><ele>114.5</ele><time>2026-04-04T17:48:00.063Z</time></trkpt><trkpt lat="45.6547977" lon="11.3960977"><ele>114.75</ele><time>2026-04-04T17:48:01.063Z</time></trkpt><trkpt lat="45.6547273" lon="11.3959173"><ele>115.0</ele><time>2026-04-04T17:48:02.063Z</time></trkpt><trkpt lat="45.6546559" lon="11.3957369"><ele>115.0</ele><time>2026-04-04T17:48:03.064Z</time></trkpt><trkpt lat="45.6545821" lon="11.3955578"><ele>115.0</ele><time>2026-04-04T17:48:04.063Z</time></trkpt><trkpt lat="45.6545098" lon="11.3953776"><ele>115.0</ele><time>2026-04-04T17:48:05.063Z</time></trkpt><trkpt lat="45.6544367" lon="11.3951986"><ele>115.0</ele><time>2026-04-04T17:48:06.063Z</time></trkpt><trkpt lat="45.6543664" lon="11.3950266"><ele>115.5</ele><time>2026-04-04T17:48:07.063Z</time></trkpt><trkpt lat="45.6542996" lon="11.3948571"><ele>116.0</ele><time>2026-04-04T17:48:08.063Z</time></trkpt><trkpt lat="45.6542357" lon="11.3946947"><ele>116.5</ele><time>2026-04-04T17:48:09.063Z</time></trkpt><trkpt lat="45.6541756" lon="11.3945399"><ele>117.0</ele><time>2026-04-04T17:48:10.063Z</time></trkpt><trkpt lat="45.6541163" lon="11.394391"><ele>117.19999999999999</ele><time>2026-04-04T17:48:11.063Z</time></trkpt><trkpt lat="45.6540596" lon="11.3942504"><ele>117.39999999999999</ele><time>2026-04-04T17:48:12.064Z</time></trkpt><trkpt lat="45.6540072" lon="11.39412"><ele>117.60000000000001</ele><time>2026-04-04T17:48:13.063Z</time></trkpt><trkpt lat="45.6539613" lon="11.3939972"><ele>117.80000000000001</ele><time>2026-04-04T17:48:14.064Z</time></trkpt><trkpt lat="45.6539275" lon="11.3938774"><ele>118.0</ele><time>2026-04-04T17:48:15.064Z</time></trkpt><trkpt lat="45.6539062" lon="11.3937555"><ele>118.0</ele><time>2026-04-04T17:48:16.064Z</time></trkpt><trkpt lat="45.6538817" lon="11.3936336"><ele>118.00000000000001</ele><time>2026-04-04T17:48:17.064Z</time></trkpt><trkpt lat="45.6538298" lon="11.3935216"><ele>118.00000000000001</ele><time>2026-04-04T17:48:18.063Z</time></trkpt><trkpt lat="45.6537648" lon="11.393421"><ele>118.0</ele><time>2026-04-04T17:48:19.064Z</time></trkpt><trkpt lat="45.6537044" lon="11.39331"><ele>118.0</ele><time>2026-04-04T17:48:20.063Z</time></trkpt><trkpt lat="45.6536505" lon="11.3931801"><ele>117.75</ele><time>2026-04-04T17:48:21.063Z</time></trkpt><trkpt lat="45.6535931" lon="11.3930343"><ele>117.5</ele><time>2026-04-04T17:48:22.063Z</time></trkpt><trkpt lat="45.6535235" lon="11.3928655"><ele>117.25</ele><time>2026-04-04T17:48:23.064Z</time></trkpt><trkpt lat="45.653453" lon="11.3926865"><ele>117.0</ele><time>2026-04-04T17:48:24.063Z</time></trkpt><trkpt lat="45.6533797" lon="11.3924987"><ele>117.66666666666666</ele><time>2026-04-04T17:48:25.064Z</time></trkpt><trkpt lat="45.653297" lon="11.3923029"><ele>118.33333333333333</ele><time>2026-04-04T17:48:26.063Z</time></trkpt><trkpt lat="45.6531922" lon="11.392071"><ele>119.0</ele><time>2026-04-04T17:48:27.064Z</time></trkpt><trkpt lat="45.6530805" lon="11.3917964"><ele>119.5</ele><time>2026-04-04T17:48:28.064Z</time></trkpt><trkpt lat="45.6529674" lon="11.3914857"><ele>120.0</ele><time>2026-04-04T17:48:29.063Z</time></trkpt><trkpt lat="45.6528463" lon="11.3911626"><ele>120.0</ele><time>2026-04-04T17:48:30.064Z</time></trkpt><trkpt lat="45.6527227" lon="11.3908469"><ele>120.0</ele><time>2026-04-04T17:48:31.063Z</time></trkpt><trkpt lat="45.6525999" lon="11.3905363"><ele>120.5</ele><time>2026-04-04T17:48:32.063Z</time></trkpt><trkpt lat="45.6524823" lon="11.3902382"><ele>121.0</ele><time>2026-04-04T17:48:33.064Z</time></trkpt><trkpt lat="45.652367" lon="11.3899487"><ele>122.0</ele><time>2026-04-04T17:48:34.064Z</time></trkpt><trkpt lat="45.6522528" lon="11.3896631"><ele>123.0</ele><time>2026-04-04T17:48:35.064Z</time></trkpt><trkpt lat="45.6521388" lon="11.3893748"><ele>123.0</ele><time>2026-04-04T17:48:36.064Z</time></trkpt><trkpt lat="45.6520234" lon="11.3890831"><ele>123.0</ele><time>2026-04-04T17:48:37.064Z</time></trkpt><trkpt lat="45.6519104" lon="11.3887951"><ele>123.0</ele><time>2026-04-04T17:48:38.063Z</time></trkpt><trkpt lat="45.6517986" lon="11.3885127"><ele>123.0</ele><time>2026-04-04T17:48:39.064Z</time></trkpt><trkpt lat="45.6516905" lon="11.3882372"><ele>123.0</ele><time>2026-04-04T17:48:40.064Z</time></trkpt><trkpt lat="45.6515863" lon="11.3879728"><ele>122.66666666666666</ele><time>2026-04-04T17:48:41.064Z</time></trkpt><trkpt lat="45.6514869" lon="11.3877258"><ele>122.33333333333333</ele><time>2026-04-04T17:48:42.064Z</time></trkpt><trkpt lat="45.6513887" lon="11.387487"><ele>122.0</ele><time>2026-04-04T17:48:43.064Z</time></trkpt><trkpt lat="45.6512877" lon="11.3872637"><ele>122.0</ele><time>2026-04-04T17:48:44.064Z</time></trkpt><trkpt lat="45.6511717" lon="11.3870652"><ele>122.0</ele><time>2026-04-04T17:48:45.064Z</time></trkpt><trkpt lat="45.6510412" lon="11.3869017"><ele>122.0</ele><time>2026-04-04T17:48:46.064Z</time></trkpt><trkpt lat="45.6509039" lon="11.3867568"><ele>122.66666666666666</ele><time>2026-04-04T17:48:47.064Z</time></trkpt><trkpt lat="45.6507565" lon="11.3866315"><ele>123.33333333333334</ele><time>2026-04-04T17:48:48.064Z</time></trkpt><trkpt lat="45.6505987" lon="11.3865272"><ele>124.0</ele><time>2026-04-04T17:48:49.064Z</time></trkpt><trkpt lat="45.6504282" lon="11.3864452"><ele>124.0</ele><time>2026-04-04T17:48:50.064Z</time></trkpt><trkpt lat="45.6502434" lon="11.3863757"><ele>124.0</ele><time>2026-04-04T17:48:51.063Z</time></trkpt><trkpt lat="45.6500462" lon="11.3863135"><ele>124.0</ele><time>2026-04-04T17:48:52.063Z</time></trkpt><trkpt lat="45.6498469" lon="11.3862491"><ele>124.66666666666667</ele><time>2026-04-04T17:48:53.063Z</time></trkpt><trkpt lat="45.6496461" lon="11.3861822"><ele>125.33333333333334</ele><time>2026-04-04T17:48:54.063Z</time></trkpt><trkpt lat="45.6494494" lon="11.3861146"><ele>126.0</ele><time>2026-04-04T17:48:55.064Z</time></trkpt><trkpt lat="45.6492522" lon="11.3860501"><ele>126.33333333333334</ele><time>2026-04-04T17:48:56.063Z</time></trkpt><trkpt lat="45.6490531" lon="11.3859839"><ele>126.66666666666667</ele><time>2026-04-04T17:48:57.063Z</time></trkpt><trkpt lat="45.6488433" lon="11.385914"><ele>127.0</ele><time>2026-04-04T17:48:58.063Z</time></trkpt><trkpt lat="45.6486286" lon="11.3858393"><ele>127.0</ele><time>2026-04-04T17:48:59.064Z</time></trkpt><trkpt lat="45.6484109" lon="11.3857683"><ele>127.0</ele><time>2026-04-04T17:49:00.063Z</time></trkpt><trkpt lat="45.6481926" lon="11.3856926"><ele>127.0</ele><time>2026-04-04T17:49:01.064Z</time></trkpt><trkpt lat="45.6479785" lon="11.3856165"><ele>127.5</ele><time>2026-04-04T17:49:02.064Z</time></trkpt><trkpt lat="45.6477597" lon="11.3855399"><ele>128.0</ele><time>2026-04-04T17:49:03.064Z</time></trkpt><trkpt lat="45.6475379" lon="11.3854647"><ele>129.0</ele><time>2026-04-04T17:49:04.064Z</time></trkpt><trkpt lat="45.6473226" lon="11.3853944"><ele>130.0</ele><time>2026-04-04T17:49:05.064Z</time></trkpt><trkpt lat="45.6471205" lon="11.3853261"><ele>131.0</ele><time>2026-04-04T17:49:06.063Z</time></trkpt><trkpt lat="45.6469274" lon="11.3852634"><ele>131.66666666666666</ele><time>2026-04-04T17:49:07.064Z</time></trkpt><trkpt lat="45.6467409" lon="11.3852018"><ele>132.33333333333334</ele><time>2026-04-04T17:49:08.063Z</time></trkpt><trkpt lat="45.6465566" lon="11.3851333"><ele>133.0</ele><time>2026-04-04T17:49:09.064Z</time></trkpt><trkpt lat="45.6463746" lon="11.3850689"><ele>133.0</ele><time>2026-04-04T17:49:10.064Z</time></trkpt><trkpt lat="45.6461892" lon="11.3850047"><ele>133.0</ele><time>2026-04-04T17:49:11.063Z</time></trkpt><trkpt lat="45.6459926" lon="11.3849482"><ele>133.0</ele><time>2026-04-04T17:49:12.063Z</time></trkpt><trkpt lat="45.6457794" lon="11.3848921"><ele>133.0</ele><time>2026-04-04T17:49:13.064Z</time></trkpt><trkpt lat="45.6455524" lon="11.3848209"><ele>133.0</ele><time>2026-04-04T17:49:14.063Z</time></trkpt><trkpt lat="45.6453149" lon="11.384731"><ele>134.5</ele><time>2026-04-04T17:49:15.063Z</time></trkpt><trkpt lat="45.6450767" lon="11.3846365"><ele>136.0</ele><time>2026-04-04T17:49:16.064Z</time></trkpt><trkpt lat="45.6448345" lon="11.3845502"><ele>136.0</ele><time>2026-04-04T17:49:17.064Z</time></trkpt><trkpt lat="45.6445951" lon="11.3844689"><ele>136.0</ele><time>2026-04-04T17:49:18.063Z</time></trkpt><trkpt lat="45.6443622" lon="11.3843889"><ele>136.0</ele><time>2026-04-04T17:49:19.063Z</time></trkpt><trkpt lat="45.6441378" lon="11.384311"><ele>136.0</ele><time>2026-04-04T17:49:20.064Z</time></trkpt><trkpt lat="45.6439161" lon="11.3842371"><ele>136.0</ele><time>2026-04-04T17:49:21.063Z</time></trkpt><trkpt lat="45.6436956" lon="11.3841643"><ele>136.0</ele><time>2026-04-04T17:49:22.064Z</time></trkpt><trkpt lat="45.6434772" lon="11.3840898"><ele>135.66666666666669</ele><time>2026-04-04T17:49:23.063Z</time></trkpt><trkpt lat="45.6432631" lon="11.3840173"><ele>135.33333333333334</ele><time>2026-04-04T17:49:24.063Z</time></trkpt><trkpt lat="45.6430516" lon="11.3839461"><ele>135.0</ele><time>2026-04-04T17:49:25.063Z</time></trkpt><trkpt lat="45.6428417" lon="11.3838794"><ele>140.66666666666666</ele><time>2026-04-04T17:49:26.063Z</time></trkpt><trkpt lat="45.6426378" lon="11.3838131"><ele>146.33333333333331</ele><time>2026-04-04T17:49:27.063Z</time></trkpt><trkpt lat="45.6424406" lon="11.3837413"><ele>152.0</ele><time>2026-04-04T17:49:28.064Z</time></trkpt><trkpt lat="45.6422501" lon="11.3836596"><ele>152.0</ele><time>2026-04-04T17:49:29.063Z</time></trkpt><trkpt lat="45.6420704" lon="11.3835638"><ele>152.0</ele><time>2026-04-04T17:49:30.064Z</time></trkpt><trkpt lat="45.6419084" lon="11.3834431"><ele>152.0</ele><time>2026-04-04T17:49:31.063Z</time></trkpt><trkpt lat="45.6417617" lon="11.3832882"><ele>150.0</ele><time>2026-04-04T17:49:32.063Z</time></trkpt><trkpt lat="45.6416222" lon="11.3831016"><ele>148.0</ele><time>2026-04-04T17:49:33.063Z</time></trkpt><trkpt lat="45.6414926" lon="11.382881"><ele>146.0</ele><time>2026-04-04T17:49:34.063Z</time></trkpt><trkpt lat="45.6413739" lon="11.3826325"><ele>150.33333333333331</ele><time>2026-04-04T17:49:35.064Z</time></trkpt><trkpt lat="45.6412765" lon="11.3823659"><ele>154.66666666666666</ele><time>2026-04-04T17:49:36.064Z</time></trkpt><trkpt lat="45.6412046" lon="11.3820826"><ele>159.0</ele><time>2026-04-04T17:49:37.063Z</time></trkpt><trkpt lat="45.6411566" lon="11.381793"><ele>161.66666666666666</ele><time>2026-04-04T17:49:38.063Z</time></trkpt><trkpt lat="45.6411354" lon="11.3815038"><ele>164.33333333333331</ele><time>2026-04-04T17:49:39.063Z</time></trkpt><trkpt lat="45.6411237" lon="11.3812162"><ele>167.0</ele><time>2026-04-04T17:49:40.064Z</time></trkpt><trkpt lat="45.6411013" lon="11.3809427"><ele>162.0</ele><time>2026-04-04T17:49:41.063Z</time></trkpt><trkpt lat="45.6410364" lon="11.3806968"><ele>157.0</ele><time>2026-04-04T17:49:42.063Z</time></trkpt><trkpt lat="45.6409421" lon="11.3804669"><ele>152.0</ele><time>2026-04-04T17:49:43.063Z</time></trkpt><trkpt lat="45.6408292" lon="11.3802533"><ele>152.0</ele><time>2026-04-04T17:49:44.064Z</time></trkpt><trkpt lat="45.6407283" lon="11.3800449"><ele>152.0</ele><time>2026-04-04T17:49:45.064Z</time></trkpt><trkpt lat="45.6406641" lon="11.3798427"><ele>152.0</ele><time>2026-04-04T17:49:46.064Z</time></trkpt><trkpt lat="45.6406367" lon="11.3796272"><ele>153.25</ele><time>2026-04-04T17:49:47.064Z</time></trkpt><trkpt lat="45.6406456" lon="11.379416"><ele>154.5</ele><time>2026-04-04T17:49:48.064Z</time></trkpt><trkpt lat="45.6406862" lon="11.3792224"><ele>155.75</ele><time>2026-04-04T17:49:49.063Z</time></trkpt><trkpt lat="45.6407549" lon="11.3790594"><ele>157.0</ele><time>2026-04-04T17:49:50.064Z</time></trkpt><trkpt lat="45.6408532" lon="11.3789369"><ele>158.5</ele><time>2026-04-04T17:49:51.063Z</time></trkpt><trkpt lat="45.640952" lon="11.3788361"><ele>160.0</ele><time>2026-04-04T17:49:52.064Z</time></trkpt><trkpt lat="45.6410207" lon="11.3787069"><ele>161.5</ele><time>2026-04-04T17:49:53.063Z</time></trkpt><trkpt lat="45.641045" lon="11.3785525"><ele>163.0</ele><time>2026-04-04T17:49:54.064Z</time></trkpt><trkpt lat="45.6410239" lon="11.3783986"><ele>163.0</ele><time>2026-04-04T17:49:55.064Z</time></trkpt><trkpt lat="45.6409566" lon="11.3782607"><ele>163.0</ele><time>2026-04-04T17:49:56.063Z</time></trkpt><trkpt lat="45.6408526" lon="11.3781394"><ele>163.0</ele><time>2026-04-04T17:49:57.064Z</time></trkpt><trkpt lat="45.6407365" lon="11.3780187"><ele>163.0</ele><time>2026-04-04T17:49:58.063Z</time></trkpt><trkpt lat="45.6406363" lon="11.3778889"><ele>165.0</ele><time>2026-04-04T17:49:59.064Z</time></trkpt><trkpt lat="45.6405679" lon="11.3777497"><ele>167.0</ele><time>2026-04-04T17:50:00.063Z</time></trkpt><trkpt lat="45.6405277" lon="11.3775984"><ele>169.0</ele><time>2026-04-04T17:50:01.064Z</time></trkpt><trkpt lat="45.6405047" lon="11.377457"><ele>171.0</ele><time>2026-04-04T17:50:02.063Z</time></trkpt><trkpt lat="45.6404453" lon="11.3773585"><ele>173.0</ele><time>2026-04-04T17:50:03.063Z</time></trkpt><trkpt lat="45.6403573" lon="11.3773371"><ele>173.5</ele><time>2026-04-04T17:50:04.063Z</time></trkpt><trkpt lat="45.6402729" lon="11.3773797"><ele>174.0</ele><time>2026-04-04T17:50:05.063Z</time></trkpt><trkpt lat="45.6401926" lon="11.3774813"><ele>174.5</ele><time>2026-04-04T17:50:06.064Z</time></trkpt><trkpt lat="45.6401104" lon="11.3776321"><ele>175.0</ele><time>2026-04-04T17:50:07.064Z</time></trkpt><trkpt lat="45.6400158" lon="11.3777998"><ele>175.0</ele><time>2026-04-04T17:50:08.064Z</time></trkpt><trkpt lat="45.6399299" lon="11.3779487"><ele>175.0</ele><time>2026-04-04T17:50:09.063Z</time></trkpt><trkpt lat="45.6398359" lon="11.3780584"><ele>175.0</ele><time>2026-04-04T17:50:10.064Z</time></trkpt><trkpt lat="45.6397262" lon="11.3781228"><ele>175.0</ele><time>2026-04-04T17:50:11.063Z</time></trkpt><trkpt lat="45.6396094" lon="11.3781215"><ele>175.5</ele><time>2026-04-04T17:50:12.064Z</time></trkpt><trkpt lat="45.6395052" lon="11.3780517"><ele>176.0</ele><time>2026-04-04T17:50:13.064Z</time></trkpt><trkpt lat="45.639418" lon="11.3779262"><ele>176.5</ele><time>2026-04-04T17:50:14.064Z</time></trkpt><trkpt lat="45.6393565" lon="11.3777574"><ele>177.0</ele><time>2026-04-04T17:50:15.064Z</time></trkpt><trkpt lat="45.6393264" lon="11.3775604"><ele>177.0</ele><time>2026-04-04T17:50:16.063Z</time></trkpt><trkpt lat="45.6393445" lon="11.3773575"><ele>177.0</ele><time>2026-04-04T17:50:17.064Z</time></trkpt><trkpt lat="45.6394026" lon="11.3771459"><ele>177.0</ele><time>2026-04-04T17:50:18.063Z</time></trkpt><trkpt lat="45.6394889" lon="11.3769299"><ele>179.66666666666666</ele><time>2026-04-04T17:50:19.063Z</time></trkpt><trkpt lat="45.6395925" lon="11.3767011"><ele>182.33333333333331</ele><time>2026-04-04T17:50:20.064Z</time></trkpt><trkpt lat="45.6397231" lon="11.3764783"><ele>185.0</ele><time>2026-04-04T17:50:21.063Z</time></trkpt><trkpt lat="45.6398532" lon="11.3762977"><ele>186.5</ele><time>2026-04-04T17:50:22.063Z</time></trkpt><trkpt lat="45.6399668" lon="11.3761389"><ele>188.0</ele><time>2026-04-04T17:50:23.063Z</time></trkpt><trkpt lat="45.6400682" lon="11.3759999"><ele>189.5</ele><time>2026-04-04T17:50:24.063Z</time></trkpt><trkpt lat="45.6401436" lon="11.3758697"><ele>191.0</ele><time>2026-04-04T17:50:25.063Z</time></trkpt><trkpt lat="45.6401815" lon="11.3757332"><ele>191.0</ele><time>2026-04-04T17:50:26.063Z</time></trkpt><trkpt lat="45.6401878" lon="11.3755952"><ele>191.0</ele><time>2026-04-04T17:50:27.063Z</time></trkpt><trkpt lat="45.6401405" lon="11.3754751"><ele>191.0</ele><time>2026-04-04T17:50:28.064Z</time></trkpt><trkpt lat="45.6400553" lon="11.3753928"><ele>191.0</ele><time>2026-04-04T17:50:29.063Z</time></trkpt><trkpt lat="45.6399461" lon="11.3753632"><ele>191.0</ele><time>2026-04-04T17:50:30.063Z</time></trkpt><trkpt lat="45.6398285" lon="11.3753935"><ele>191.0</ele><time>2026-04-04T17:50:31.064Z</time></trkpt><trkpt lat="45.6397069" lon="11.3754767"><ele>191.0</ele><time>2026-04-04T17:50:32.064Z</time></trkpt><trkpt lat="45.639586" lon="11.3755777"><ele>191.0</ele><time>2026-04-04T17:50:33.064Z</time></trkpt><trkpt lat="45.6394721" lon="11.3756651"><ele>191.0</ele><time>2026-04-04T17:50:34.063Z</time></trkpt><trkpt lat="45.639364" lon="11.3757137"><ele>191.25</ele><time>2026-04-04T17:50:35.063Z</time></trkpt><trkpt lat="45.6392588" lon="11.3757091"><ele>191.5</ele><time>2026-04-04T17:50:36.063Z</time></trkpt><trkpt lat="45.6391619" lon="11.3756343"><ele>191.75</ele><time>2026-04-04T17:50:37.063Z</time></trkpt><trkpt lat="45.6390792" lon="11.3755011"><ele>192.0</ele><time>2026-04-04T17:50:38.064Z</time></trkpt><trkpt lat="45.6390036" lon="11.3753247"><ele>195.33333333333331</ele><time>2026-04-04T17:50:39.063Z</time></trkpt><trkpt lat="45.6389236" lon="11.3751099"><ele>198.66666666666666</ele><time>2026-04-04T17:50:40.063Z</time></trkpt><trkpt lat="45.6388146" lon="11.3748991"><ele>202.0</ele><time>2026-04-04T17:50:41.063Z</time></trkpt><trkpt lat="45.6386821" lon="11.3747046"><ele>203.33333333333331</ele><time>2026-04-04T17:50:42.063Z</time></trkpt><trkpt lat="45.6385242" lon="11.3745553"><ele>204.66666666666669</ele><time>2026-04-04T17:50:43.064Z</time></trkpt><trkpt lat="45.6383464" lon="11.3744346"><ele>206.0</ele><time>2026-04-04T17:50:44.063Z</time></trkpt><trkpt lat="45.6381685" lon="11.3743297"><ele>206.0</ele><time>2026-04-04T17:50:45.064Z</time></trkpt><trkpt lat="45.6380043" lon="11.3742194"><ele>206.0</ele><time>2026-04-04T17:50:46.063Z</time></trkpt><trkpt lat="45.6378576" lon="11.374088"><ele>206.0</ele><time>2026-04-04T17:50:47.064Z</time></trkpt><trkpt lat="45.6377494" lon="11.3739347"><ele>207.0</ele><time>2026-04-04T17:50:48.064Z</time></trkpt><trkpt lat="45.637659" lon="11.3737352"><ele>208.0</ele><time>2026-04-04T17:50:49.064Z</time></trkpt><trkpt lat="45.6375727" lon="11.3735152"><ele>209.0</ele><time>2026-04-04T17:50:50.063Z</time></trkpt><trkpt lat="45.6374788" lon="11.3732848"><ele>209.0</ele><time>2026-04-04T17:50:51.064Z</time></trkpt><trkpt lat="45.6373784" lon="11.3730519"><ele>209.0</ele><time>2026-04-04T17:50:52.063Z</time></trkpt><trkpt lat="45.637266" lon="11.3728284"><ele>209.0</ele><time>2026-04-04T17:50:53.064Z</time></trkpt><trkpt lat="45.6371305" lon="11.3726397"><ele>210.66666666666669</ele><time>2026-04-04T17:50:54.064Z</time></trkpt><trkpt lat="45.6369705" lon="11.3724956"><ele>212.33333333333331</ele><time>2026-04-04T17:50:55.064Z</time></trkpt><trkpt lat="45.6367868" lon="11.3723889"><ele>214.0</ele><time>2026-04-04T17:50:56.064Z</time></trkpt><trkpt lat="45.6365934" lon="11.3722967"><ele>214.0</ele><time>2026-04-04T17:50:57.064Z</time></trkpt><trkpt lat="45.6364069" lon="11.3722013"><ele>214.0</ele><time>2026-04-04T17:50:58.064Z</time></trkpt><trkpt lat="45.6362309" lon="11.3721325"><ele>214.0</ele><time>2026-04-04T17:50:59.064Z</time></trkpt><trkpt lat="45.6360555" lon="11.3720965"><ele>215.33333333333331</ele><time>2026-04-04T17:51:00.063Z</time></trkpt><trkpt lat="45.6358808" lon="11.3721035"><ele>216.66666666666669</ele><time>2026-04-04T17:51:01.063Z</time></trkpt><trkpt lat="45.6357094" lon="11.3721621"><ele>218.0</ele><time>2026-04-04T17:51:02.064Z</time></trkpt><trkpt lat="45.6355445" lon="11.3722638"><ele>218.0</ele><time>2026-04-04T17:51:03.064Z</time></trkpt><trkpt lat="45.6353931" lon="11.3723656"><ele>218.0</ele><time>2026-04-04T17:51:04.063Z</time></trkpt><trkpt lat="45.6352602" lon="11.3724573"><ele>218.0</ele><time>2026-04-04T17:51:05.064Z</time></trkpt><trkpt lat="45.6351505" lon="11.3725571"><ele>218.0</ele><time>2026-04-04T17:51:06.063Z</time></trkpt><trkpt lat="45.6350731" lon="11.3726878"><ele>218.8</ele><time>2026-04-04T17:51:07.063Z</time></trkpt><trkpt lat="45.635044" lon="11.3728423"><ele>219.60000000000002</ele><time>2026-04-04T17:51:08.063Z</time></trkpt><trkpt lat="45.6350643" lon="11.3729894"><ele>220.39999999999998</ele><time>2026-04-04T17:51:09.063Z</time></trkpt><trkpt lat="45.6351316" lon="11.3731042"><ele>221.2</ele><time>2026-04-04T17:51:10.063Z</time></trkpt><trkpt lat="45.6352342" lon="11.3731799"><ele>222.0</ele><time>2026-04-04T17:51:11.063Z</time></trkpt><trkpt lat="45.6353583" lon="11.3732221"><ele>222.0</ele><time>2026-04-04T17:51:12.063Z</time></trkpt><trkpt lat="45.6354844" lon="11.3732673"><ele>222.0</ele><time>2026-04-04T17:51:13.063Z</time></trkpt><trkpt lat="45.6355968" lon="11.3733715"><ele>222.0</ele><time>2026-04-04T17:51:14.064Z</time></trkpt><trkpt lat="45.6357006" lon="11.3735183"><ele>222.0</ele><time>2026-04-04T17:51:15.063Z</time></trkpt><trkpt lat="45.6358067" lon="11.3736674"><ele>222.0</ele><time>2026-04-04T17:51:16.063Z</time></trkpt><trkpt lat="45.6359284" lon="11.373788"><ele>222.0</ele><time>2026-04-04T17:51:17.063Z</time></trkpt><trkpt lat="45.6360457" lon="11.3738811"><ele>222.0</ele><time>2026-04-04T17:51:18.064Z</time></trkpt><trkpt lat="45.6361489" lon="11.3739471"><ele>222.0</ele><time>2026-04-04T17:51:19.063Z</time></trkpt><trkpt lat="45.6362358" lon="11.3739863"><ele>225.2</ele><time>2026-04-04T17:51:20.063Z</time></trkpt><trkpt lat="45.6362979" lon="11.374003"><ele>228.39999999999998</ele><time>2026-04-04T17:51:21.064Z</time></trkpt><trkpt lat="45.6363616" lon="11.3740911"><ele>231.60000000000002</ele><time>2026-04-04T17:51:23.064Z</time></trkpt><trkpt lat="45.6363041" lon="11.3741738"><ele>234.8</ele><time>2026-04-04T17:51:25.064Z</time></trkpt><trkpt lat="45.6361544" lon="11.3741063"><ele>238.0</ele><time>2026-04-04T17:51:27.064Z</time></trkpt><trkpt lat="45.6360433" lon="11.3740245"><ele>243.33333333333331</ele><time>2026-04-04T17:51:28.064Z</time></trkpt><trkpt lat="45.6359127" lon="11.3739384"><ele>248.66666666666669</ele><time>2026-04-04T17:51:29.063Z</time></trkpt><trkpt lat="45.6357735" lon="11.3738393"><ele>254.0</ele><time>2026-04-04T17:51:30.064Z</time></trkpt><trkpt lat="45.6356393" lon="11.3737204"><ele>251.75</ele><time>2026-04-04T17:51:31.064Z</time></trkpt><trkpt lat="45.6355042" lon="11.3736201"><ele>249.5</ele><time>2026-04-04T17:51:32.063Z</time></trkpt><trkpt lat="45.635366" lon="11.3735569"><ele>247.25</ele><time>2026-04-04T17:51:33.064Z</time></trkpt><trkpt lat="45.6352262" lon="11.3735334"><ele>245.0</ele><time>2026-04-04T17:51:34.064Z</time></trkpt><trkpt lat="45.6350868" lon="11.3735517"><ele>245.0</ele><time>2026-04-04T17:51:35.063Z</time></trkpt><trkpt lat="45.6349486" lon="11.3735956"><ele>245.0</ele><time>2026-04-04T17:51:36.064Z</time></trkpt><trkpt lat="45.6348094" lon="11.3736266"><ele>245.0</ele><time>2026-04-04T17:51:37.064Z</time></trkpt><trkpt lat="45.6346689" lon="11.3736405"><ele>245.0</ele><time>2026-04-04T17:51:38.064Z</time></trkpt><trkpt lat="45.6345277" lon="11.373627"><ele>248.5</ele><time>2026-04-04T17:51:39.063Z</time></trkpt><trkpt lat="45.6343892" lon="11.3735809"><ele>252.0</ele><time>2026-04-04T17:51:40.064Z</time></trkpt><trkpt lat="45.6342539" lon="11.3735146"><ele>255.5</ele><time>2026-04-04T17:51:41.064Z</time></trkpt><trkpt lat="45.6341181" lon="11.3734382"><ele>259.0</ele><time>2026-04-04T17:51:42.063Z</time></trkpt><trkpt lat="45.6339813" lon="11.373362"><ele>259.0</ele><time>2026-04-04T17:51:43.063Z</time></trkpt><trkpt lat="45.6338474" lon="11.373272"><ele>259.0</ele><time>2026-04-04T17:51:44.064Z</time></trkpt><trkpt lat="45.6337295" lon="11.3731876"><ele>259.0</ele><time>2026-04-04T17:51:45.064Z</time></trkpt><trkpt lat="45.6335877" lon="11.3731475"><ele>259.0</ele><time>2026-04-04T17:51:46.063Z</time></trkpt><trkpt lat="45.6334588" lon="11.3730727"><ele>258.5</ele><time>2026-04-04T17:51:47.064Z</time></trkpt><trkpt lat="45.6333293" lon="11.3730009"><ele>258.0</ele><time>2026-04-04T17:51:48.064Z</time></trkpt><trkpt lat="45.6331994" lon="11.3729231"><ele>257.5</ele><time>2026-04-04T17:51:49.063Z</time></trkpt><trkpt lat="45.6330717" lon="11.3728441"><ele>257.0</ele><time>2026-04-04T17:51:50.064Z</time></trkpt><trkpt lat="45.6329486" lon="11.3727673"><ele>257.0</ele><time>2026-04-04T17:51:51.063Z</time></trkpt><trkpt lat="45.6328258" lon="11.3726885"><ele>257.0</ele><time>2026-04-04T17:51:52.064Z</time></trkpt><trkpt lat="45.6327043" lon="11.3726116"><ele>257.0</ele><time>2026-04-04T17:51:53.063Z</time></trkpt><trkpt lat="45.6325853" lon="11.3725389"><ele>257.0</ele><time>2026-04-04T17:51:54.063Z</time></trkpt><trkpt lat="45.6324622" lon="11.3724706"><ele>255.5</ele><time>2026-04-04T17:51:55.063Z</time></trkpt><trkpt lat="45.6323313" lon="11.372419"><ele>254.0</ele><time>2026-04-04T17:51:56.063Z</time></trkpt><trkpt lat="45.6321951" lon="11.372402"><ele>252.5</ele><time>2026-04-04T17:51:57.063Z</time></trkpt><trkpt lat="45.632057" lon="11.3724264"><ele>251.0</ele><time>2026-04-04T17:51:58.063Z</time></trkpt><trkpt lat="45.6319216" lon="11.3724915"><ele>250.66666666666669</ele><time>2026-04-04T17:51:59.064Z</time></trkpt><trkpt lat="45.6317872" lon="11.3725954"><ele>250.33333333333331</ele><time>2026-04-04T17:52:00.063Z</time></trkpt><trkpt lat="45.631659" lon="11.3727215"><ele>250.0</ele><time>2026-04-04T17:52:01.063Z</time></trkpt><trkpt lat="45.6315324" lon="11.3728563"><ele>250.0</ele><time>2026-04-04T17:52:02.064Z</time></trkpt><trkpt lat="45.6314059" lon="11.3729973"><ele>250.0</ele><time>2026-04-04T17:52:03.064Z</time></trkpt><trkpt lat="45.6312788" lon="11.3731479"><ele>250.0</ele><time>2026-04-04T17:52:04.063Z</time></trkpt><trkpt lat="45.6311481" lon="11.3732984"><ele>251.0</ele><time>2026-04-04T17:52:05.064Z</time></trkpt><trkpt lat="45.631018" lon="11.3734522"><ele>252.0</ele><time>2026-04-04T17:52:06.063Z</time></trkpt><trkpt lat="45.6308859" lon="11.3736052"><ele>253.0</ele><time>2026-04-04T17:52:07.064Z</time></trkpt><trkpt lat="45.6307527" lon="11.3737606"><ele>250.66666666666666</ele><time>2026-04-04T17:52:08.064Z</time></trkpt><trkpt lat="45.6306167" lon="11.3739213"><ele>248.33333333333331</ele><time>2026-04-04T17:52:09.063Z</time></trkpt><trkpt lat="45.63048" lon="11.3740794"><ele>246.0</ele><time>2026-04-04T17:52:10.063Z</time></trkpt><trkpt lat="45.6303467" lon="11.3742296"><ele>247.66666666666669</ele><time>2026-04-04T17:52:11.063Z</time></trkpt><trkpt lat="45.6302133" lon="11.3743717"><ele>249.33333333333334</ele><time>2026-04-04T17:52:12.064Z</time></trkpt><trkpt lat="45.6300778" lon="11.3744988"><ele>251.0</ele><time>2026-04-04T17:52:13.063Z</time></trkpt><trkpt lat="45.6299381" lon="11.3746176"><ele>250.0</ele><time>2026-04-04T17:52:14.064Z</time></trkpt><trkpt lat="45.6297943" lon="11.3747289"><ele>249.0</ele><time>2026-04-04T17:52:15.063Z</time></trkpt><trkpt lat="45.6296462" lon="11.3748357"><ele>248.0</ele><time>2026-04-04T17:52:16.063Z</time></trkpt><trkpt lat="45.6294968" lon="11.3749405"><ele>247.0</ele><time>2026-04-04T17:52:17.063Z</time></trkpt><trkpt lat="45.6293475" lon="11.3750445"><ele>246.0</ele><time>2026-04-04T17:52:18.063Z</time></trkpt><trkpt lat="45.6291965" lon="11.3751531"><ele>245.0</ele><time>2026-04-04T17:52:19.063Z</time></trkpt><trkpt lat="45.6290444" lon="11.3752604"><ele>245.0</ele><time>2026-04-04T17:52:20.064Z</time></trkpt><trkpt lat="45.6288906" lon="11.3753642"><ele>245.0</ele><time>2026-04-04T17:52:21.063Z</time></trkpt><trkpt lat="45.6287349" lon="11.3754733"><ele>245.0</ele><time>2026-04-04T17:52:22.063Z</time></trkpt><trkpt lat="45.6285788" lon="11.375583"><ele>244.66666666666669</ele><time>2026-04-04T17:52:23.063Z</time></trkpt><trkpt lat="45.6284194" lon="11.3756951"><ele>244.33333333333331</ele><time>2026-04-04T17:52:24.064Z</time></trkpt><trkpt lat="45.6282592" lon="11.3758031"><ele>244.0</ele><time>2026-04-04T17:52:25.064Z</time></trkpt><trkpt lat="45.6280958" lon="11.3759074"><ele>244.0</ele><time>2026-04-04T17:52:26.063Z</time></trkpt><trkpt lat="45.6279285" lon="11.3760045"><ele>244.0</ele><time>2026-04-04T17:52:27.064Z</time></trkpt><trkpt lat="45.6277569" lon="11.3760989"><ele>244.0</ele><time>2026-04-04T17:52:28.064Z</time></trkpt><trkpt lat="45.6275846" lon="11.3761883"><ele>245.0</ele><time>2026-04-04T17:52:29.063Z</time></trkpt><trkpt lat="45.6274103" lon="11.3762743"><ele>246.0</ele><time>2026-04-04T17:52:30.063Z</time></trkpt><trkpt lat="45.6272357" lon="11.3763564"><ele>247.0</ele><time>2026-04-04T17:52:31.064Z</time></trkpt><trkpt lat="45.6270593" lon="11.3764333"><ele>244.0</ele><time>2026-04-04T17:52:32.063Z</time></trkpt><trkpt lat="45.6268825" lon="11.3765054"><ele>241.0</ele><time>2026-04-04T17:52:33.063Z</time></trkpt><trkpt lat="45.6267042" lon="11.3765709"><ele>238.0</ele><time>2026-04-04T17:52:34.064Z</time></trkpt><trkpt lat="45.6265273" lon="11.3766302"><ele>238.0</ele><time>2026-04-04T17:52:35.064Z</time></trkpt><trkpt lat="45.6263512" lon="11.3766868"><ele>238.0</ele><time>2026-04-04T17:52:36.064Z</time></trkpt><trkpt lat="45.6261749" lon="11.3767435"><ele>238.0</ele><time>2026-04-04T17:52:37.063Z</time></trkpt><trkpt lat="45.6260025" lon="11.3768016"><ele>238.33333333333331</ele><time>2026-04-04T17:52:38.063Z</time></trkpt><trkpt lat="45.6258299" lon="11.3768585"><ele>238.66666666666669</ele><time>2026-04-04T17:52:39.064Z</time></trkpt><trkpt lat="45.6256577" lon="11.3769152"><ele>239.0</ele><time>2026-04-04T17:52:40.064Z</time></trkpt><trkpt lat="45.625486" lon="11.3769669"><ele>239.0</ele><time>2026-04-04T17:52:41.064Z</time></trkpt><trkpt lat="45.6253169" lon="11.3770185"><ele>239.0</ele><time>2026-04-04T17:52:42.064Z</time></trkpt><trkpt lat="45.6251506" lon="11.3770785"><ele>239.0</ele><time>2026-04-04T17:52:43.063Z</time></trkpt><trkpt lat="45.6249865" lon="11.3771521"><ele>235.66666666666669</ele><time>2026-04-04T17:52:44.064Z</time></trkpt><trkpt lat="45.6248254" lon="11.3772404"><ele>232.33333333333331</ele><time>2026-04-04T17:52:45.064Z</time></trkpt><trkpt lat="45.62467" lon="11.3773506"><ele>229.0</ele><time>2026-04-04T17:52:46.064Z</time></trkpt><trkpt lat="45.6245249" lon="11.3774924"><ele>237.0</ele><time>2026-04-04T17:52:47.064Z</time></trkpt><trkpt lat="45.6243864" lon="11.3776576"><ele>245.0</ele><time>2026-04-04T17:52:48.064Z</time></trkpt><trkpt lat="45.6242487" lon="11.3778277"><ele>253.0</ele><time>2026-04-04T17:52:49.063Z</time></trkpt><trkpt lat="45.6241099" lon="11.3779893"><ele>245.66666666666666</ele><time>2026-04-04T17:52:50.064Z</time></trkpt><trkpt lat="45.6239689" lon="11.37814"><ele>238.33333333333331</ele><time>2026-04-04T17:52:51.063Z</time></trkpt><trkpt lat="45.6238236" lon="11.3782819"><ele>231.0</ele><time>2026-04-04T17:52:52.064Z</time></trkpt><trkpt lat="45.623671" lon="11.3784044"><ele>236.33333333333331</ele><time>2026-04-04T17:52:53.063Z</time></trkpt><trkpt lat="45.6235152" lon="11.3785088"><ele>241.66666666666666</ele><time>2026-04-04T17:52:54.063Z</time></trkpt><trkpt lat="45.6233512" lon="11.3785965"><ele>247.0</ele><time>2026-04-04T17:52:55.064Z</time></trkpt><trkpt lat="45.6231847" lon="11.3786744"><ele>247.0</ele><time>2026-04-04T17:52:56.064Z</time></trkpt><trkpt lat="45.6230191" lon="11.3787672"><ele>247.0</ele><time>2026-04-04T17:52:57.064Z</time></trkpt><trkpt lat="45.6228573" lon="11.378885"><ele>247.0</ele><time>2026-04-04T17:52:58.064Z</time></trkpt><trkpt lat="45.6227014" lon="11.3790218"><ele>241.66666666666666</ele><time>2026-04-04T17:52:59.064Z</time></trkpt><trkpt lat="45.6225544" lon="11.3791883"><ele>236.33333333333331</ele><time>2026-04-04T17:53:00.064Z</time></trkpt><trkpt lat="45.6224224" lon="11.3793743"><ele>231.0</ele><time>2026-04-04T17:53:01.063Z</time></trkpt><trkpt lat="45.6222993" lon="11.3795664"><ele>230.0</ele><time>2026-04-04T17:53:02.063Z</time></trkpt><trkpt lat="45.6221801" lon="11.3797535"><ele>229.0</ele><time>2026-04-04T17:53:03.064Z</time></trkpt><trkpt lat="45.6220635" lon="11.3799369"><ele>228.0</ele><time>2026-04-04T17:53:04.064Z</time></trkpt><trkpt lat="45.6219499" lon="11.3801202"><ele>228.0</ele><time>2026-04-04T17:53:05.064Z</time></trkpt><trkpt lat="45.6218378" lon="11.3802992"><ele>228.0</ele><time>2026-04-04T17:53:06.064Z</time></trkpt><trkpt lat="45.6217259" lon="11.3804795"><ele>228.0</ele><time>2026-04-04T17:53:07.064Z</time></trkpt><trkpt lat="45.6216122" lon="11.3806672"><ele>223.33333333333331</ele><time>2026-04-04T17:53:08.064Z</time></trkpt><trkpt lat="45.6214928" lon="11.3808567"><ele>218.66666666666666</ele><time>2026-04-04T17:53:09.063Z</time></trkpt><trkpt lat="45.6213624" lon="11.3810366"><ele>214.0</ele><time>2026-04-04T17:53:10.064Z</time></trkpt><trkpt lat="45.6212226" lon="11.3812018"><ele>211.33333333333331</ele><time>2026-04-04T17:53:11.063Z</time></trkpt><trkpt lat="45.6210728" lon="11.3813489"><ele>208.66666666666669</ele><time>2026-04-04T17:53:12.063Z</time></trkpt><trkpt lat="45.6209135" lon="11.3814833"><ele>206.0</ele><time>2026-04-04T17:53:13.064Z</time></trkpt><trkpt lat="45.6207453" lon="11.3816055"><ele>206.0</ele><time>2026-04-04T17:53:14.064Z</time></trkpt><trkpt lat="45.6205697" lon="11.3817096"><ele>206.0</ele><time>2026-04-04T17:53:15.064Z</time></trkpt><trkpt lat="45.6203884" lon="11.3817882"><ele>206.0</ele><time>2026-04-04T17:53:16.063Z</time></trkpt><trkpt lat="45.6202041" lon="11.3818364"><ele>207.0</ele><time>2026-04-04T17:53:17.064Z</time></trkpt><trkpt lat="45.6200127" lon="11.3818647"><ele>208.0</ele><time>2026-04-04T17:53:18.064Z</time></trkpt><trkpt lat="45.6198142" lon="11.381875"><ele>209.0</ele><time>2026-04-04T17:53:19.064Z</time></trkpt><trkpt lat="45.6196145" lon="11.3818701"><ele>206.33333333333334</ele><time>2026-04-04T17:53:20.064Z</time></trkpt><trkpt lat="45.6194151" lon="11.3818578"><ele>203.66666666666669</ele><time>2026-04-04T17:53:21.064Z</time></trkpt><trkpt lat="45.6192154" lon="11.3818481"><ele>201.0</ele><time>2026-04-04T17:53:22.064Z</time></trkpt><trkpt lat="45.6190136" lon="11.3818417"><ele>201.0</ele><time>2026-04-04T17:53:23.064Z</time></trkpt><trkpt lat="45.6188099" lon="11.3818372"><ele>201.0</ele><time>2026-04-04T17:53:24.063Z</time></trkpt><trkpt lat="45.6186047" lon="11.3818399"><ele>201.0</ele><time>2026-04-04T17:53:25.063Z</time></trkpt><trkpt lat="45.6183999" lon="11.3818556"><ele>199.66666666666669</ele><time>2026-04-04T17:53:26.063Z</time></trkpt><trkpt lat="45.6181936" lon="11.3818834"><ele>198.33333333333334</ele><time>2026-04-04T17:53:27.064Z</time></trkpt><trkpt lat="45.6179898" lon="11.3819173"><ele>197.0</ele><time>2026-04-04T17:53:28.063Z</time></trkpt><trkpt lat="45.617788" lon="11.3819481"><ele>194.33333333333334</ele><time>2026-04-04T17:53:29.063Z</time></trkpt><trkpt lat="45.617586" lon="11.3819763"><ele>191.66666666666669</ele><time>2026-04-04T17:53:30.064Z</time></trkpt><trkpt lat="45.6173826" lon="11.3819999"><ele>189.0</ele><time>2026-04-04T17:53:31.063Z</time></trkpt><trkpt lat="45.6171759" lon="11.3820088"><ele>188.0</ele><time>2026-04-04T17:53:32.064Z</time></trkpt><trkpt lat="45.6169665" lon="11.3819957"><ele>187.0</ele><time>2026-04-04T17:53:33.063Z</time></trkpt><trkpt lat="45.6167571" lon="11.3819632"><ele>186.0</ele><time>2026-04-04T17:53:34.063Z</time></trkpt><trkpt lat="45.61655" lon="11.3819016"><ele>186.0</ele><time>2026-04-04T17:53:35.063Z</time></trkpt><trkpt lat="45.6163495" lon="11.3818208"><ele>186.0</ele><time>2026-04-04T17:53:36.063Z</time></trkpt><trkpt lat="45.6161544" lon="11.3817169"><ele>186.0</ele><time>2026-04-04T17:53:37.063Z</time></trkpt><trkpt lat="45.6159647" lon="11.3816015"><ele>186.0</ele><time>2026-04-04T17:53:38.063Z</time></trkpt><trkpt lat="45.6157805" lon="11.3814679"><ele>186.0</ele><time>2026-04-04T17:53:39.063Z</time></trkpt><trkpt lat="45.6155997" lon="11.38132"><ele>186.0</ele><time>2026-04-04T17:53:40.064Z</time></trkpt><trkpt lat="45.615421" lon="11.3811676"><ele>183.0</ele><time>2026-04-04T17:53:41.064Z</time></trkpt><trkpt lat="45.6152404" lon="11.3810187"><ele>180.0</ele><time>2026-04-04T17:53:42.064Z</time></trkpt><trkpt lat="45.6150555" lon="11.3808805"><ele>177.0</ele><time>2026-04-04T17:53:43.064Z</time></trkpt><trkpt lat="45.614868" lon="11.3807592"><ele>177.0</ele><time>2026-04-04T17:53:44.064Z</time></trkpt><trkpt lat="45.6146842" lon="11.3806612"><ele>177.0</ele><time>2026-04-04T17:53:45.063Z</time></trkpt><trkpt lat="45.614504" lon="11.3805853"><ele>177.0</ele><time>2026-04-04T17:53:46.063Z</time></trkpt><trkpt lat="45.6143363" lon="11.3805352"><ele>176.5</ele><time>2026-04-04T17:53:47.063Z</time></trkpt><trkpt lat="45.6141845" lon="11.3804991"><ele>176.0</ele><time>2026-04-04T17:53:48.063Z</time></trkpt><trkpt lat="45.6140457" lon="11.3804679"><ele>175.5</ele><time>2026-04-04T17:53:49.063Z</time></trkpt><trkpt lat="45.6139184" lon="11.3804396"><ele>175.0</ele><time>2026-04-04T17:53:50.063Z</time></trkpt><trkpt lat="45.613814" lon="11.3804122"><ele>175.0</ele><time>2026-04-04T17:53:51.063Z</time></trkpt><trkpt lat="45.6137294" lon="11.3803894"><ele>175.0</ele><time>2026-04-04T17:53:52.063Z</time></trkpt><trkpt lat="45.6136595" lon="11.3803736"><ele>175.0</ele><time>2026-04-04T17:53:53.064Z</time></trkpt><trkpt lat="45.6135745" lon="11.3802691"><ele>175.0</ele><time>2026-04-04T17:53:55.064Z</time></trkpt><trkpt lat="45.6135642" lon="11.3801016"><ele>175.0</ele><time>2026-04-04T17:53:57.064Z</time></trkpt><trkpt lat="45.613589" lon="11.3800007"><ele>175.0</ele><time>2026-04-04T17:53:58.064Z</time></trkpt><trkpt lat="45.6136228" lon="11.3798878"><ele>175.0</ele><time>2026-04-04T17:53:59.063Z</time></trkpt><trkpt lat="45.6136604" lon="11.3797654"><ele>175.0</ele><time>2026-04-04T17:54:00.064Z</time></trkpt><trkpt lat="45.6136979" lon="11.379635"><ele>175.0</ele><time>2026-04-04T17:54:01.064Z</time></trkpt><trkpt lat="45.6137397" lon="11.3795025"><ele>175.0</ele><time>2026-04-04T17:54:02.063Z</time></trkpt><trkpt lat="45.6137843" lon="11.3793765"><ele>176.6</ele><time>2026-04-04T17:54:03.063Z</time></trkpt><trkpt lat="45.6138366" lon="11.3792596"><ele>178.2</ele><time>2026-04-04T17:54:04.064Z</time></trkpt><trkpt lat="45.613898" lon="11.3791514"><ele>179.8</ele><time>2026-04-04T17:54:05.063Z</time></trkpt><trkpt lat="45.6139674" lon="11.3790531"><ele>181.4</ele><time>2026-04-04T17:54:06.064Z</time></trkpt><trkpt lat="45.6140487" lon="11.3789624"><ele>183.0</ele><time>2026-04-04T17:54:07.063Z</time></trkpt><trkpt lat="45.6141414" lon="11.3788879"><ele>184.0</ele><time>2026-04-04T17:54:08.063Z</time></trkpt><trkpt lat="45.6142448" lon="11.3788133"><ele>185.0</ele><time>2026-04-04T17:54:09.063Z</time></trkpt><trkpt lat="45.6143581" lon="11.3787344"><ele>186.0</ele><time>2026-04-04T17:54:10.063Z</time></trkpt><trkpt lat="45.6144752" lon="11.3786563"><ele>187.0</ele><time>2026-04-04T17:54:11.063Z</time></trkpt><trkpt lat="45.6145882" lon="11.3785802"><ele>190.2</ele><time>2026-04-04T17:54:12.064Z</time></trkpt><trkpt lat="45.6146949" lon="11.3785067"><ele>193.39999999999998</ele><time>2026-04-04T17:54:13.064Z</time></trkpt><trkpt lat="45.6147983" lon="11.3784345"><ele>196.60000000000002</ele><time>2026-04-04T17:54:14.064Z</time></trkpt><trkpt lat="45.6148967" lon="11.3783687"><ele>199.8</ele><time>2026-04-04T17:54:15.063Z</time></trkpt><trkpt lat="45.6149833" lon="11.3783096"><ele>203.0</ele><time>2026-04-04T17:54:16.064Z</time></trkpt><trkpt lat="45.615064" lon="11.378271"><ele>203.00000000000003</ele><time>2026-04-04T17:54:17.064Z</time></trkpt><trkpt lat="45.6151321" lon="11.3782651"><ele>203.0</ele><time>2026-04-04T17:54:18.064Z</time></trkpt><trkpt lat="45.6152283" lon="11.3782874"><ele>203.0</ele><time>2026-04-04T17:54:20.063Z</time></trkpt><trkpt lat="45.6153169" lon="11.3782728"><ele>203.0</ele><time>2026-04-04T17:54:22.064Z</time></trkpt><trkpt lat="45.6153835" lon="11.378225"><ele>203.00000000000003</ele><time>2026-04-04T17:54:24.064Z</time></trkpt><trkpt lat="45.6154556" lon="11.3781685"><ele>203.0</ele><time>2026-04-04T17:54:27.064Z</time></trkpt><trkpt lat="45.6155193" lon="11.3781312"><ele>216.0</ele><time>2026-04-04T17:55:00.063Z</time></trkpt><trkpt lat="45.6155875" lon="11.3781772"><ele>216.0</ele><time>2026-04-04T17:55:09.064Z</time></trkpt><trkpt lat="45.6156229" lon="11.378282"><ele>216.0</ele><time>2026-04-04T17:55:14.064Z</time></trkpt><trkpt lat="45.6156044" lon="11.3781807"><ele>216.0</ele><time>2026-04-04T17:55:23.064Z</time></trkpt><trkpt lat="45.6155562" lon="11.3780916"><ele>216.0</ele><time>2026-04-04T17:55:34.064Z</time></trkpt></trkseg></trk></gpx>